/* DATA DESCRIPTION:
Citation:	Vuilleumier, Laurent (2026): Radiosonde measurements from station Payerne (2025-07) [dataset]. Federal Office of Meteorology and Climatology MeteoSwiss, Payerne, PANGAEA, https://doi.org/10.1594/PANGAEA.992969
Other version:	Vuilleumier, Laurent (2026): BSRN Station-to-archive file for station Payerne (2025-07) [dataset]. ftp://ftp.bsrn.awi.de/pay/pay0725.dat.gz
Project(s):	Baseline Surface Radiation Network (BSRN) (URI: https://bsrn.awi.de/)
Coverage:	LATITUDE: 46.812300 * LONGITUDE: 6.942200
	DATE/TIME START: 2025-07-01T00:00:00 * DATE/TIME END: 2025-07-31T12:00:00
	MINIMUM ALTITUDE: 491 m * MAXIMUM ALTITUDE: 39000 m
Event(s):	PAY (Payerne) * LATITUDE: 46.812300 * LONGITUDE: 6.942200 * DATE/TIME: 1992-09-01T00:00:00 * ELEVATION: 491.0 m * LOCATION: Switzerland * METHOD/DEVICE: Monitoring station (MONS) * COMMENT: BSRN station no: 21; Surface type: cultivated; Topography type: hilly, rural; Horizon: doi:10.1594/PANGAEA.947035; Station scientist: Laurent Vuilleumier (laurent.vuilleumier@meteoswiss.ch)
Parameter(s):	DATE/TIME (Date/Time) * GEOCODE * PI: Vuilleumier, Laurent (https://orcid.org/0000-0003-0222-2566, laurent.vuilleumier@meteoswiss.ch)
	ALTITUDE [m] (Altitude) * GEOCODE * PI: Vuilleumier, Laurent (https://orcid.org/0000-0003-0222-2566, laurent.vuilleumier@meteoswiss.ch)
	Pressure, at given altitude [hPa] (PPPP) * PI: Vuilleumier, Laurent (https://orcid.org/0000-0003-0222-2566, laurent.vuilleumier@meteoswiss.ch) * METHOD/DEVICE: Radiosonde, Vaisala, RS41 (URI: http://www.vaisala.com/en/products/soundingsystemsandradiosondes/radiosondes/Pages/RS41.aspx)
	Temperature, air [°C] (TTT) * PI: Vuilleumier, Laurent (https://orcid.org/0000-0003-0222-2566, laurent.vuilleumier@meteoswiss.ch) * METHOD/DEVICE: Radiosonde, Vaisala, RS41 (URI: http://www.vaisala.com/en/products/soundingsystemsandradiosondes/radiosondes/Pages/RS41.aspx)
	Dew/frost point [°C] (TdTdTd) * PI: Vuilleumier, Laurent (https://orcid.org/0000-0003-0222-2566, laurent.vuilleumier@meteoswiss.ch) * METHOD/DEVICE: Radiosonde, Vaisala, RS41 (URI: http://www.vaisala.com/en/products/soundingsystemsandradiosondes/radiosondes/Pages/RS41.aspx)
	Wind direction [deg] (dd) * PI: Vuilleumier, Laurent (https://orcid.org/0000-0003-0222-2566, laurent.vuilleumier@meteoswiss.ch) * METHOD/DEVICE: Radiosonde, Vaisala, RS41 (URI: http://www.vaisala.com/en/products/soundingsystemsandradiosondes/radiosondes/Pages/RS41.aspx)
	Wind speed [m/s] (ff) * PI: Vuilleumier, Laurent (https://orcid.org/0000-0003-0222-2566, laurent.vuilleumier@meteoswiss.ch) * METHOD/DEVICE: Radiosonde, Vaisala, RS41 (URI: http://www.vaisala.com/en/products/soundingsystemsandradiosondes/radiosondes/Pages/RS41.aspx)
	Ozone, partial pressure [mPa] (pO3) * PI: Vuilleumier, Laurent (https://orcid.org/0000-0003-0222-2566, laurent.vuilleumier@meteoswiss.ch) * METHOD/DEVICE: Radiosonde, Vaisala, RS41 (URI: http://www.vaisala.com/en/products/soundingsystemsandradiosondes/radiosondes/Pages/RS41.aspx)
License:	Baseline Surface Radiation Network License 1.0 (BSRN-1.0) (URI: https://bsrn.awi.de/data/conditions-of-data-release/)
Status:	Curation Level: Enhanced curation (URI: https://wiki.pangaea.de/wiki/Curation_levels)
Size:	298958 data points
*/
Date/Time	Altitude [m]	PPPP [hPa]	TTT [°C]	TdTdTd [°C]	dd [deg]	ff [m/s]	pO3 [mPa]
2025-07-01T00:00	491	961	20.7	14.4	188	4	
2025-07-01T00:00	501	960	21.3	14.1	208	3	
2025-07-01T00:00	520	958	21.6	14.0	213	4	
2025-07-01T00:00	540	956	21.7	13.7	211	4	
2025-07-01T00:00	560	954	21.9	13.4	210	5	
2025-07-01T00:00	580	952	22.2	13.1	209	6	
2025-07-01T00:00	600	950	22.3	13.1	207	7	
2025-07-01T00:00	620	948	22.2	13.1	206	7	
2025-07-01T00:00	640	945	22.2	12.8	204	7	
2025-07-01T00:00	660	943	22.4	12.6	202	8	
2025-07-01T00:00	680	941	22.4	12.4	201	8	
2025-07-01T00:00	700	939	22.5	12.2	200	8	
2025-07-01T00:00	720	937	22.7	11.9	199	8	
2025-07-01T00:00	740	935	22.8	11.8	198	9	
2025-07-01T00:00	760	932	23.1	11.6	198	9	
2025-07-01T00:00	780	930	23.3	11.4	198	9	
2025-07-01T00:00	800	928	23.5	11.1	199	9	
2025-07-01T00:00	820	926	24.0	10.6	201	9	
2025-07-01T00:00	840	923	24.6	10.2	204	9	
2025-07-01T00:00	860	922	24.8	10.2	207	9	
2025-07-01T00:00	880	919	24.9	10.3	211	9	
2025-07-01T00:00	900	917	24.6	10.3	215	9	
2025-07-01T00:00	920	915	24.5	10.5	219	9	
2025-07-01T00:00	940	913	24.3	10.6	222	9	
2025-07-01T00:00	960	911	24.2	10.7	224	9	
2025-07-01T00:00	980	909	24.0	10.6	227	9	
2025-07-01T00:00	1000	907	23.8	10.6	230	9	
2025-07-01T00:00	1020	905	23.7	10.5	233	8	
2025-07-01T00:00	1040	903	23.5	10.4	236	8	
2025-07-01T00:00	1060	901	23.3	10.4	240	8	
2025-07-01T00:00	1080	899	23.3	9.8	243	7	
2025-07-01T00:00	1100	896	23.7	9.1	246	7	
2025-07-01T00:00	1120	894	23.6	9.0	248	7	
2025-07-01T00:00	1140	893	23.5	8.8	249	6	
2025-07-01T00:00	1160	891	23.3	9.0	249	6	
2025-07-01T00:00	1180	888	23.1	8.7	249	6	
2025-07-01T00:00	1200	886	23.2	8.3	248	5	
2025-07-01T00:00	1220	884	23.5	8.3	247	5	
2025-07-01T00:00	1240	882	23.5	8.3	246	5	
2025-07-01T00:00	1260	880	23.3	8.3	246	5	
2025-07-01T00:00	1280	878	23.2	8.5	246	4	
2025-07-01T00:00	1300	876	23.0	8.9	246	4	
2025-07-01T00:00	1320	874	22.8	9.3	247	4	
2025-07-01T00:00	1340	872	22.6	9.3	248	4	
2025-07-01T00:00	1360	870	22.4	9.4	250	4	
2025-07-01T00:00	1380	868	22.2	9.5	251	4	
2025-07-01T00:00	1400	866	22.1	9.7	254	5	
2025-07-01T00:00	1420	864	22.0	9.7	256	5	
2025-07-01T00:00	1440	862	21.8	9.6	258	5	
2025-07-01T00:00	1460	860	21.7	9.5	259	5	
2025-07-01T00:00	1480	858	21.6	9.4	259	5	
2025-07-01T00:00	1500	857	21.4	9.6	258	5	
2025-07-01T00:00	1520	854	21.2	9.8	257	5	
2025-07-01T00:00	1540	853	21.1	10.1	257	5	
2025-07-01T00:00	1560	850	20.8	11.3	256	5	
2025-07-01T00:00	1580	849	20.7	11.8	256	5	
2025-07-01T00:00	1600	847	20.5	11.9	256	5	
2025-07-01T00:00	1620	845	20.3	12.1	256	5	
2025-07-01T00:00	1640	842	20.1	12.2	256	5	
2025-07-01T00:00	1660	841	19.9	12.3	255	5	
2025-07-01T00:00	1680	839	19.7	12.3	255	5	
2025-07-01T00:00	1700	837	19.5	12.3	256	5	
2025-07-01T00:00	1720	835	19.3	12.4	256	5	
2025-07-01T00:00	1740	833	19.1	12.4	259	5	
2025-07-01T00:00	1760	831	18.9	12.3	262	5	
2025-07-01T00:00	1780	829	18.7	12.3	266	4	
2025-07-01T00:00	1800	827	18.5	12.3	270	4	
2025-07-01T00:00	1820	825	18.3	12.2	274	4	
2025-07-01T00:00	1840	823	18.1	12.2	274	4	
2025-07-01T00:00	1860	821	17.9	12.2	273	5	
2025-07-01T00:00	1880	819	17.7	12.1	271	5	
2025-07-01T00:00	1900	818	17.6	12.0	268	5	
2025-07-01T00:00	1920	816	17.4	11.9	265	5	
2025-07-01T00:00	1940	814	17.2	11.8	262	5	
2025-07-01T00:00	1960	812	17.1	11.4	260	5	
2025-07-01T00:00	1980	810	17.1	10.4	258	5	
2025-07-01T00:00	2000	808	16.9	10.2	257	6	
2025-07-01T00:00	2020	806	16.8	10.1	256	6	
2025-07-01T00:00	2040	804	16.6	9.6	256	6	
2025-07-01T00:00	2060	803	16.5	9.4	256	6	
2025-07-01T00:00	2080	801	16.3	9.3	257	6	
2025-07-01T00:00	2100	799	16.2	9.1	258	7	
2025-07-01T00:00	2120	797	16.0	9.1	259	7	
2025-07-01T00:00	2140	795	15.8	9.1	262	6	
2025-07-01T00:00	2160	793	15.6	9.1	265	6	
2025-07-01T00:00	2180	791	15.4	8.9	267	6	
2025-07-01T00:00	2200	789	15.2	8.8	268	6	
2025-07-01T00:00	2220	787	15.0	8.6	269	6	
2025-07-01T00:00	2240	786	14.9	8.4	269	6	
2025-07-01T00:00	2260	784	14.7	8.4	268	6	
2025-07-01T00:00	2280	782	14.5	8.4	267	6	
2025-07-01T00:00	2300	780	14.3	8.1	267	6	
2025-07-01T00:00	2320	778	14.1	8.0	267	6	
2025-07-01T00:00	2340	776	13.9	7.9	268	6	
2025-07-01T00:00	2360	775	13.8	7.7	269	5	
2025-07-01T00:00	2380	773	13.6	7.4	269	5	
2025-07-01T00:00	2400	771	13.5	7.0	268	5	
2025-07-01T00:00	2420	769	13.3	6.9	266	6	
2025-07-01T00:00	2440	767	13.1	6.9	263	6	
2025-07-01T00:00	2460	765	12.9	6.9	259	6	
2025-07-01T00:00	2480	764	12.8	7.0	255	6	
2025-07-01T00:00	2500	762	12.5	7.1	252	6	
2025-07-01T00:00	2520	760	12.3	6.8	248	6	
2025-07-01T00:00	2540	758	12.2	6.9	244	6	
2025-07-01T00:00	2560	756	11.9	7.0	242	6	
2025-07-01T00:00	2580	755	11.8	7.0	240	6	
2025-07-01T00:00	2600	753	11.6	7.1	241	6	
2025-07-01T00:00	2620	751	11.4	6.9	241	6	
2025-07-01T00:00	2640	749	11.2	6.8	243	6	
2025-07-01T00:00	2660	747	11.1	6.0	245	6	
2025-07-01T00:00	2680	746	10.9	6.0	247	6	
2025-07-01T00:00	2700	744	10.8	5.6	248	6	
2025-07-01T00:00	2720	742	10.6	5.3	249	6	
2025-07-01T00:00	2740	740	10.4	4.9	249	6	
2025-07-01T00:00	2760	738	10.3	4.3	247	6	
2025-07-01T00:00	2780	737	10.2	3.7	246	6	
2025-07-01T00:00	2800	735	10.0	3.5	244	6	
2025-07-01T00:00	2820	733	9.9	3.1	242	7	
2025-07-01T00:00	2840	731	9.7	2.9	240	7	
2025-07-01T00:00	2860	730	9.5	2.8	240	7	
2025-07-01T00:00	2880	728	9.3	2.6	240	6	
2025-07-01T00:00	2900	726	9.1	2.7	242	6	
2025-07-01T00:00	2920	724	9.0	2.6	244	6	
2025-07-01T00:00	2940	723	8.8	2.6	247	5	
2025-07-01T00:00	2960	721	8.6	2.2	249	5	
2025-07-01T00:00	2980	719	8.4	2.1	249	5	
2025-07-01T00:00	3000	717	8.2	1.7	246	5	
2025-07-01T00:00	3020	716	8.1	1.2	242	5	
2025-07-01T00:00	3040	714	8.1	-1.3	239	6	
2025-07-01T00:00	3060	712	8.1	-2.0	237	6	
2025-07-01T00:00	3080	710	7.9	-2.2	238	6	
2025-07-01T00:00	3100	709	7.7	-2.1	239	6	
2025-07-01T00:00	3120	707	7.6	-3.4	242	6	
2025-07-01T00:00	3140	705	7.6	-5.0	244	6	
2025-07-01T00:00	3160	704	7.6	-5.5	246	6	
2025-07-01T00:00	3180	702	7.4	-6.4	246	6	
2025-07-01T00:00	3200	700	7.3	-6.6	243	6	
2025-07-01T00:00	3220	698	7.2	-6.8	241	6	
2025-07-01T00:00	3240	697	7.1	-8.1	238	6	
2025-07-01T00:00	3260	695	7.0	-9.9	236	6	
2025-07-01T00:00	3280	694	6.8	-10.2	235	6	
2025-07-01T00:00	3300	692	6.6	-9.1	235	6	
2025-07-01T00:00	3320	690	6.6	-11.1	237	6	
2025-07-01T00:00	3340	688	6.5	-11.8	239	5	
2025-07-01T00:00	3360	687	6.3	-10.0	242	5	
2025-07-01T00:00	3380	685	6.2	-11.0	245	5	
2025-07-01T00:00	3400	683	6.1	-12.3	249	4	
2025-07-01T00:00	3420	682	6.0	-12.3	252	4	
2025-07-01T00:00	3440	680	5.9	-12.2	253	4	
2025-07-01T00:00	3460	678	5.7	-12.2	253	4	
2025-07-01T00:00	3480	677	5.6	-12.9	250	4	
2025-07-01T00:00	3500	675	5.5	-13.5	247	5	
2025-07-01T00:00	3520	673	5.4	-13.1	243	5	
2025-07-01T00:00	3540	672	5.2	-13.1	241	5	
2025-07-01T00:00	3560	670	5.0	-12.7	241	5	
2025-07-01T00:00	3580	669	4.8	-12.3	241	5	
2025-07-01T00:00	3600	667	4.6	-11.8	242	5	
2025-07-01T00:00	3620	665	4.5	-12.0	244	5	
2025-07-01T00:00	3640	663	4.3	-12.7	244	5	
2025-07-01T00:00	3660	662	4.2	-13.3	242	5	
2025-07-01T00:00	3680	660	4.1	-14.7	241	5	
2025-07-01T00:00	3700	659	4.0	-15.2	239	5	
2025-07-01T00:00	3720	657	3.9	-17.4	240	5	
2025-07-01T00:00	3740	655	3.8	-18.1	244	5	
2025-07-01T00:00	3760	654	3.8	-20.5	251	5	
2025-07-01T00:00	3780	652	3.9	-23.3	257	5	
2025-07-01T00:00	3800	651	3.7	-23.3	260	5	
2025-07-01T00:00	3820	649	3.5	-23.4	262	5	
2025-07-01T00:00	3840	647	3.3	-23.5	262	4	
2025-07-01T00:00	3860	646	3.2	-23.6	262	4	
2025-07-01T00:00	3880	644	3.0	-23.8	264	4	
2025-07-01T00:00	3900	643	2.9	-23.8	266	4	
2025-07-01T00:00	3920	641	2.8	-24.4	271	4	
2025-07-01T00:00	3940	639	2.8	-25.0	276	4	
2025-07-01T00:00	3960	638	2.6	-25.2	280	3	
2025-07-01T00:00	3980	636	2.5	-26.4	282	3	
2025-07-01T00:00	4000	635	2.4	-27.3	281	3	
2025-07-01T00:00	4020	633	2.2	-27.4	278	3	
2025-07-01T00:00	4040	632	2.0	-27.8	272	3	
2025-07-01T00:00	4060	630	1.9	-28.5	267	3	
2025-07-01T00:00	4080	628	1.7	-29.3	263	4	
2025-07-01T00:00	4100	627	1.6	-29.8	260	4	
2025-07-01T00:00	4120	625	1.5	-30.3	258	4	
2025-07-01T00:00	4140	624	1.4	-30.3	257	4	
2025-07-01T00:00	4160	622	1.4	-30.3	255	4	
2025-07-01T00:00	4180	621	1.3	-30.8	254	4	
2025-07-01T00:00	4200	619	1.2	-31.1	252	3	
2025-07-01T00:00	4220	617	1.1	-30.7	251	3	
2025-07-01T00:00	4240	616	0.9	-31.0	251	3	
2025-07-01T00:00	4260	615	0.8	-31.1	251	3	
2025-07-01T00:00	4280	613	0.6	-31.5	252	2	
2025-07-01T00:00	4300	611	0.4	-31.7	253	2	
2025-07-01T00:00	4320	610	0.3	-31.7	254	2	
2025-07-01T00:00	4340	608	0.3	-31.7	255	2	
2025-07-01T00:00	4360	607	0.1	-31.9	256	2	
2025-07-01T00:00	4380	605	0.0	-32.0	257	2	
2025-07-01T00:00	4400	604	-0.1	-32.1	258	3	
2025-07-01T00:00	4420	602	-0.3	-32.1	258	3	
2025-07-01T00:00	4440	601	-0.5	-32.1	257	3	
2025-07-01T00:00	4460	599	-0.6	-32.1	256	3	
2025-07-01T00:00	4480	598	-0.8	-32.1	257	2	
2025-07-01T00:00	4500	596	-1.0	-32.3	259	2	
2025-07-01T00:00	4520	595	-1.2	-32.5	266	2	
2025-07-01T00:00	4540	593	-1.3	-32.6	280	1	
2025-07-01T00:00	4560	592	-1.5	-32.7	303	1	
2025-07-01T00:00	4580	590	-1.6	-32.5	322	1	
2025-07-01T00:00	4600	589	-1.6	-31.7	324	1	
2025-07-01T00:00	4620	587	-1.7	-31.4	319	1	
2025-07-01T00:00	4640	586	-1.9	-32.1	312	1	
2025-07-01T00:00	4660	585	-2.0	-33.6	307	1	
2025-07-01T00:00	4680	583	-2.2	-33.8	304	1	
2025-07-01T00:00	4700	582	-2.3	-33.6	302	2	
2025-07-01T00:00	4720	580	-2.5	-33.4	301	1	
2025-07-01T00:00	4740	579	-2.7	-33.4	299	2	
2025-07-01T00:00	4760	577	-2.9	-33.3	295	2	
2025-07-01T00:00	4780	576	-3.0	-33.2	292	2	
2025-07-01T00:00	4800	574	-3.2	-34.0	290	2	
2025-07-01T00:00	4820	573	-3.4	-33.8	290	2	
2025-07-01T00:00	4840	571	-3.5	-34.1	293	2	
2025-07-01T00:00	4860	570	-3.7	-34.3	299	2	
2025-07-01T00:00	4880	568	-3.9	-34.3	304	1	
2025-07-01T00:00	4900	567	-4.1	-34.5	308	1	
2025-07-01T00:00	4920	566	-4.3	-34.5	312	1	
2025-07-01T00:00	4940	564	-4.5	-34.4	314	1	
2025-07-01T00:00	4960	563	-4.7	-34.1	316	1	
2025-07-01T00:00	4980	561	-4.9	-34.2	321	1	
2025-07-01T00:00	5000	560	-5.0	-34.1	325	1	
2025-07-01T00:00	5020	558	-5.1	-32.4	329	1	
2025-07-01T00:00	5040	557	-5.2	-30.2	329	1	
2025-07-01T00:00	5060	556	-5.4	-29.6	326	1	
2025-07-01T00:00	5080	554	-5.5	-30.1	320	2	
2025-07-01T00:00	5100	553	-5.6	-30.9	316	2	
2025-07-01T00:00	5120	551	-5.8	-31.0	313	2	
2025-07-01T00:00	5140	550	-5.9	-32.2	310	3	
2025-07-01T00:00	5160	549	-6.1	-33.3	310	3	
2025-07-01T00:00	5180	547	-6.3	-32.2	311	3	
2025-07-01T00:00	5200	546	-6.5	-33.7	313	3	
2025-07-01T00:00	5220	544	-6.6	-35.5	315	3	
2025-07-01T00:00	5240	543	-6.7	-36.7	317	3	
2025-07-01T00:00	5260	541	-6.9	-36.6	319	3	
2025-07-01T00:00	5280	540	-7.0	-36.0	320	3	
2025-07-01T00:00	5300	539	-7.1	-35.3	321	4	
2025-07-01T00:00	5320	537	-7.2	-35.5	323	4	
2025-07-01T00:00	5340	536	-7.4	-35.4	327	4	
2025-07-01T00:00	5360	535	-7.6	-35.3	335	3	
2025-07-01T00:00	5380	533	-7.6	-35.8	346	3	
2025-07-01T00:00	5400	532	-7.7	-33.6	354	3	
2025-07-01T00:00	5420	531	-7.9	-32.6	0	3	
2025-07-01T00:00	5440	529	-8.1	-31.6	3	3	
2025-07-01T00:00	5460	528	-8.2	-31.9	358	3	
2025-07-01T00:00	5480	526	-8.3	-36.6	347	3	
2025-07-01T00:00	5500	525	-8.3	-39.8	330	3	
2025-07-01T00:00	5520	524	-8.4	-40.5	318	3	
2025-07-01T00:00	5540	522	-8.5	-40.2	310	3	
2025-07-01T00:00	5560	521	-8.6	-40.2	307	4	
2025-07-01T00:00	5580	520	-8.7	-40.4	304	4	
2025-07-01T00:00	5600	518	-8.8	-40.1	302	4	
2025-07-01T00:00	5620	517	-8.9	-39.3	300	4	
2025-07-01T00:00	5640	516	-9.0	-39.9	298	4	
2025-07-01T00:00	5660	514	-9.1	-40.2	297	4	
2025-07-01T00:00	5680	513	-9.1	-40.2	296	4	
2025-07-01T00:00	5700	512	-9.3	-40.0	294	4	
2025-07-01T00:00	5720	510	-9.4	-39.6	291	4	
2025-07-01T00:00	5740	509	-9.6	-39.6	287	3	
2025-07-01T00:00	5760	508	-9.7	-39.4	282	3	
2025-07-01T00:00	5780	506	-9.9	-39.2	277	3	
2025-07-01T00:00	5800	505	-10.0	-39.2	272	3	
2025-07-01T00:00	5820	504	-10.1	-39.5	268	3	
2025-07-01T00:00	5840	502	-10.2	-39.7	265	3	
2025-07-01T00:00	5860	501	-10.3	-40.6	263	3	
2025-07-01T00:00	5880	500	-10.4	-42.3	262	3	
2025-07-01T00:00	5900	498	-10.5	-42.4	262	3	
2025-07-01T00:00	5920	497	-10.6	-42.8	263	3	
2025-07-01T00:00	5940	496	-10.7	-42.7	263	3	
2025-07-01T00:00	5960	495	-10.8	-41.3	264	3	
2025-07-01T00:00	5980	493	-10.9	-41.3	265	4	
2025-07-01T00:00	6000	492	-11.0	-39.6	266	4	
2025-07-01T00:00	6020	491	-11.0	-37.5	269	5	
2025-07-01T00:00	6040	490	-11.2	-36.8	272	5	
2025-07-01T00:00	6060	488	-11.4	-35.5	276	6	
2025-07-01T00:00	6080	487	-11.6	-34.1	279	7	
2025-07-01T00:00	6100	486	-11.7	-31.7	281	7	
2025-07-01T00:00	6120	485	-11.8	-30.6	283	8	
2025-07-01T00:00	6140	483	-11.9	-35.2	284	8	
2025-07-01T00:00	6160	482	-11.9	-38.1	286	8	
2025-07-01T00:00	6180	481	-12.1	-36.4	289	9	
2025-07-01T00:00	6200	479	-12.2	-35.0	292	9	
2025-07-01T00:00	6220	478	-12.2	-37.5	294	9	
2025-07-01T00:00	6240	477	-12.2	-41.2	297	10	
2025-07-01T00:00	6260	476	-12.3	-40.2	300	10	
2025-07-01T00:00	6280	474	-12.4	-37.9	302	11	
2025-07-01T00:00	6300	473	-12.5	-36.0	302	11	
2025-07-01T00:00	6320	472	-12.7	-35.5	302	11	
2025-07-01T00:00	6340	471	-12.8	-33.9	301	12	
2025-07-01T00:00	6360	470	-13.0	-32.9	298	12	
2025-07-01T00:00	6380	468	-13.1	-31.7	296	12	
2025-07-01T00:00	6400	467	-13.2	-30.6	294	12	
2025-07-01T00:00	6420	466	-13.2	-31.0	292	12	
2025-07-01T00:00	6440	465	-13.4	-31.2	289	12	
2025-07-01T00:00	6460	463	-13.5	-31.4	287	12	
2025-07-01T00:00	6480	462	-13.6	-31.6	283	11	
2025-07-01T00:00	6500	461	-13.7	-31.9	281	10	
2025-07-01T00:00	6520	460	-13.7	-33.4	279	10	
2025-07-01T00:00	6540	458	-13.7	-36.2	277	9	
2025-07-01T00:00	6560	457	-13.7	-39.0	276	9	
2025-07-01T00:00	6580	456	-13.6	-41.3	277	9	
2025-07-01T00:00	6600	455	-13.7	-41.3	278	8	
2025-07-01T00:00	6620	454	-13.9	-40.4	280	8	
2025-07-01T00:00	6640	452	-14.0	-40.5	282	8	
2025-07-01T00:00	6660	451	-14.0	-41.5	283	9	
2025-07-01T00:00	6680	450	-14.1	-41.5	284	9	
2025-07-01T00:00	6700	449	-14.3	-41.2	285	9	
2025-07-01T00:00	6720	448	-14.4	-40.7	286	10	
2025-07-01T00:00	6740	446	-14.6	-39.2	287	10	
2025-07-01T00:00	6760	445	-14.7	-38.4	288	11	
2025-07-01T00:00	6780	444	-14.9	-38.2	290	11	
2025-07-01T00:00	6800	443	-15.1	-38.1	292	12	
2025-07-01T00:00	6820	442	-15.3	-37.7	293	12	
2025-07-01T00:00	6840	441	-15.4	-37.5	293	12	
2025-07-01T00:00	6860	440	-15.5	-37.4	294	12	
2025-07-01T00:00	6880	438	-15.5	-37.4	294	12	
2025-07-01T00:00	6900	437	-15.5	-36.3	294	11	
2025-07-01T00:00	6920	436	-15.7	-35.0	294	11	
2025-07-01T00:00	6940	435	-15.9	-33.5	294	11	
2025-07-01T00:00	6960	434	-16.1	-32.9	293	11	
2025-07-01T00:00	6980	433	-16.3	-33.0	292	11	
2025-07-01T00:00	7000	431	-16.4	-32.8	291	11	
2025-07-01T00:00	7020	430	-16.6	-32.8	291	11	
2025-07-01T00:00	7040	429	-16.8	-32.9	291	11	
2025-07-01T00:00	7060	428	-17.0	-33.2	291	11	
2025-07-01T00:00	7080	427	-17.1	-33.4	291	11	
2025-07-01T00:00	7100	426	-17.3	-33.6	292	11	
2025-07-01T00:00	7120	425	-17.4	-33.7	293	11	
2025-07-01T00:00	7140	423	-17.6	-34.4	294	11	
2025-07-01T00:00	7160	422	-17.8	-35.5	296	11	
2025-07-01T00:00	7180	421	-17.9	-35.2	297	11	
2025-07-01T00:00	7200	420	-18.1	-35.1	298	11	
2025-07-01T00:00	7220	419	-18.3	-35.4	298	11	
2025-07-01T00:00	7240	418	-18.4	-36.0	298	11	
2025-07-01T00:00	7260	417	-18.6	-36.2	298	10	
2025-07-01T00:00	7280	415	-18.8	-36.1	298	10	
2025-07-01T00:00	7300	414	-18.9	-36.2	297	10	
2025-07-01T00:00	7320	413	-19.0	-36.2	297	10	
2025-07-01T00:00	7340	412	-19.1	-36.1	298	10	
2025-07-01T00:00	7360	411	-19.2	-36.5	298	10	
2025-07-01T00:00	7380	410	-19.3	-36.8	298	10	
2025-07-01T00:00	7400	409	-19.4	-36.8	299	10	
2025-07-01T00:00	7420	408	-19.5	-36.7	298	10	
2025-07-01T00:00	7440	407	-19.6	-36.7	298	10	
2025-07-01T00:00	7460	406	-19.8	-36.8	298	10	
2025-07-01T00:00	7480	405	-20.0	-36.9	297	10	
2025-07-01T00:00	7500	404	-20.2	-36.9	296	11	
2025-07-01T00:00	7520	402	-20.4	-37.1	295	11	
2025-07-01T00:00	7540	401	-20.5	-37.4	294	11	
2025-07-01T00:00	7560	400	-20.7	-37.6	293	12	
2025-07-01T00:00	7580	399	-20.8	-37.7	291	12	
2025-07-01T00:00	7600	398	-21.0	-37.7	291	12	
2025-07-01T00:00	7620	397	-21.1	-37.7	290	12	
2025-07-01T00:00	7640	396	-21.3	-37.6	289	12	
2025-07-01T00:00	7660	395	-21.5	-37.7	288	12	
2025-07-01T00:00	7680	394	-21.7	-37.7	287	12	
2025-07-01T00:00	7700	393	-21.8	-37.8	286	11	
2025-07-01T00:00	7720	392	-22.0	-37.9	284	11	
2025-07-01T00:00	7740	391	-22.2	-37.8	282	11	
2025-07-01T00:00	7760	390	-22.4	-38.0	281	11	
2025-07-01T00:00	7780	388	-22.4	-38.6	280	11	
2025-07-01T00:00	7800	387	-22.5	-39.1	280	11	
2025-07-01T00:00	7820	386	-22.6	-39.1	280	11	
2025-07-01T00:00	7840	385	-22.8	-39.2	280	11	
2025-07-01T00:00	7860	384	-23.0	-39.2	279	11	
2025-07-01T00:00	7880	383	-23.2	-39.3	279	10	
2025-07-01T00:00	7900	382	-23.4	-39.4	278	10	
2025-07-01T00:00	7920	381	-23.6	-39.4	277	10	
2025-07-01T00:00	7940	380	-23.7	-39.5	275	10	
2025-07-01T00:00	7960	379	-23.9	-39.7	274	9	
2025-07-01T00:00	7980	378	-24.0	-40.0	272	9	
2025-07-01T00:00	8000	377	-24.1	-39.7	271	9	
2025-07-01T00:00	8020	376	-24.3	-39.3	270	9	
2025-07-01T00:00	8040	375	-24.5	-39.1	269	9	
2025-07-01T00:00	8060	374	-24.6	-39.2	267	9	
2025-07-01T00:00	8080	373	-24.8	-39.2	266	9	
2025-07-01T00:00	8100	372	-25.0	-39.4	265	9	
2025-07-01T00:00	8120	371	-25.1	-40.1	264	9	
2025-07-01T00:00	8140	370	-25.2	-41.9	263	10	
2025-07-01T00:00	8160	369	-25.2	-43.1	263	10	
2025-07-01T00:00	8180	368	-25.3	-43.2	263	10	
2025-07-01T00:00	8200	367	-25.4	-43.2	263	10	
2025-07-01T00:00	8220	366	-25.6	-43.2	262	10	
2025-07-01T00:00	8240	365	-25.8	-43.2	262	10	
2025-07-01T00:00	8260	364	-26.0	-43.2	262	10	
2025-07-01T00:00	8280	363	-26.2	-43.3	262	10	
2025-07-01T00:00	8300	362	-26.4	-43.4	261	10	
2025-07-01T00:00	8320	361	-26.6	-43.5	261	10	
2025-07-01T00:00	8340	360	-26.7	-43.5	261	10	
2025-07-01T00:00	8360	359	-26.9	-43.4	261	10	
2025-07-01T00:00	8380	358	-27.1	-43.5	261	10	
2025-07-01T00:00	8400	357	-27.3	-43.6	261	10	
2025-07-01T00:00	8420	356	-27.5	-43.7	262	10	
2025-07-01T00:00	8440	355	-27.7	-43.7	262	10	
2025-07-01T00:00	8460	354	-27.9	-43.8	262	11	
2025-07-01T00:00	8480	353	-28.0	-43.9	262	11	
2025-07-01T00:00	8500	352	-28.2	-43.7	262	11	
2025-07-01T00:00	8520	351	-28.4	-43.7	262	11	
2025-07-01T00:00	8540	350	-28.6	-43.8	263	11	
2025-07-01T00:00	8560	349	-28.7	-43.9	263	11	
2025-07-01T00:00	8580	348	-28.9	-44.0	263	11	
2025-07-01T00:00	8600	347	-29.0	-44.3	263	11	
2025-07-01T00:00	8620	346	-29.1	-44.0	262	11	
2025-07-01T00:00	8640	345	-29.2	-42.9	262	11	
2025-07-01T00:00	8660	344	-29.4	-42.8	261	10	
2025-07-01T00:00	8680	343	-29.6	-42.5	260	10	
2025-07-01T00:00	8700	342	-29.8	-42.4	260	10	
2025-07-01T00:00	8720	341	-30.0	-41.4	260	10	
2025-07-01T00:00	8740	340	-30.2	-38.3	260	11	
2025-07-01T00:00	8760	339	-30.4	-36.6	261	11	
2025-07-01T00:00	8780	338	-30.6	-36.9	262	11	
2025-07-01T00:00	8800	337	-30.8	-36.6	263	11	
2025-07-01T00:00	8820	336	-30.9	-36.1	264	11	
2025-07-01T00:00	8840	335	-31.1	-36.6	265	11	
2025-07-01T00:00	8860	335	-31.3	-36.8	266	11	
2025-07-01T00:00	8880	334	-31.5	-37.3	267	11	
2025-07-01T00:00	8900	333	-31.6	-38.1	267	11	
2025-07-01T00:00	8920	332	-31.8	-38.9	267	11	
2025-07-01T00:00	8940	331	-32.0	-39.5	266	11	
2025-07-01T00:00	8960	330	-32.2	-40.4	266	12	
2025-07-01T00:00	8980	329	-32.3	-40.2	265	12	
2025-07-01T00:00	9000	328	-32.5	-39.8	265	12	
2025-07-01T00:00	9020	327	-32.7	-39.6	265	12	
2025-07-01T00:00	9040	326	-32.8	-39.4	265	13	
2025-07-01T00:00	9060	325	-33.0	-38.8	265	12	
2025-07-01T00:00	9080	324	-33.1	-38.5	265	12	
2025-07-01T00:00	9100	323	-33.3	-38.6	265	12	
2025-07-01T00:00	9120	322	-33.5	-39.0	265	12	
2025-07-01T00:00	9140	321	-33.7	-38.8	266	12	
2025-07-01T00:00	9160	320	-33.9	-38.7	265	13	
2025-07-01T00:00	9180	320	-34.1	-38.5	265	13	
2025-07-01T00:00	9200	319	-34.2	-38.2	264	14	
2025-07-01T00:00	9220	318	-34.4	-38.1	263	15	
2025-07-01T00:00	9240	317	-34.6	-38.2	262	15	
2025-07-01T00:00	9260	316	-34.7	-38.2	261	16	
2025-07-01T00:00	9280	315	-34.8	-38.1	260	17	
2025-07-01T00:00	9300	314	-34.9	-38.0	259	17	
2025-07-01T00:00	9320	313	-35.1	-38.0	257	17	
2025-07-01T00:00	9340	312	-35.0	-37.2	256	18	
2025-07-01T00:00	9360	312	-34.9	-36.9	255	18	
2025-07-01T00:00	9380	310	-34.9	-37.1	253	18	
2025-07-01T00:00	9400	310	-34.9	-37.2	252	18	
2025-07-01T00:00	9420	309	-34.9	-37.2	251	18	
2025-07-01T00:00	9440	308	-34.9	-37.0	250	18	
2025-07-01T00:00	9460	307	-35.0	-37.2	249	18	
2025-07-01T00:00	9480	306	-35.1	-37.3	248	18	
2025-07-01T00:00	9500	305	-35.1	-37.3	247	18	
2025-07-01T00:00	9520	304	-35.1	-37.4	247	17	
2025-07-01T00:00	9540	303	-35.2	-37.4	246	17	
2025-07-01T00:00	9560	303	-35.3	-37.6	246	17	
2025-07-01T00:00	9580	302	-35.5	-37.8	245	17	
2025-07-01T00:00	9600	301	-35.6	-37.9	245	17	
2025-07-01T00:00	9620	300	-35.8	-38.2	245	17	
2025-07-01T00:00	9640	299	-35.9	-38.4	245	17	
2025-07-01T00:00	9660	298	-36.1	-38.6	246	17	
2025-07-01T00:00	9680	297	-36.3	-38.8	246	17	
2025-07-01T00:00	9700	297	-36.5	-39.1	246	17	
2025-07-01T00:00	9720	296	-36.6	-39.1	247	17	
2025-07-01T00:00	9740	295	-36.8	-39.3	246	17	
2025-07-01T00:00	9760	294	-37.0	-39.4	246	17	
2025-07-01T00:00	9780	293	-37.2	-39.6	245	17	
2025-07-01T00:00	9800	292	-37.4	-39.9	244	17	
2025-07-01T00:00	9820	291	-37.5	-39.8	243	17	
2025-07-01T00:00	9840	291	-37.7	-39.8	243	17	
2025-07-01T00:00	9860	290	-37.9	-39.8	243	17	
2025-07-01T00:00	9880	289	-38.1	-39.9	242	17	
2025-07-01T00:00	9900	288	-38.3	-40.2	242	17	
2025-07-01T00:00	9920	287	-38.4	-40.6	242	17	
2025-07-01T00:00	9940	286	-38.6	-40.6	243	17	
2025-07-01T00:00	9960	286	-38.8	-40.7	243	17	
2025-07-01T00:00	9980	285	-39.0	-41.4	243	16	
2025-07-01T00:00	10000	284	-39.2	-42.1	244	16	
2025-07-01T00:00	10018	283	-39.3	-42.1	244	16	
2025-07-01T00:00	10050	282	-39.5	-42.4	244	16	
2025-07-01T00:00	10100	280	-39.9	-42.9	243	17	
2025-07-01T00:00	10150	278	-40.2	-43.5	242	17	
2025-07-01T00:00	10200	276	-40.5	-43.6	240	16	
2025-07-01T00:00	10250	274	-40.9	-43.9	239	16	
2025-07-01T00:00	10300	272	-41.2	-44.2	239	16	
2025-07-01T00:00	10350	270	-41.6	-44.1	239	16	
2025-07-01T00:00	10400	268	-41.9	-44.3	240	16	
2025-07-01T00:00	10450	266	-42.3	-45.0	240	16	
2025-07-01T00:00	10500	264	-42.7	-45.6	240	16	
2025-07-01T00:00	10550	262	-43.2	-46.0	241	16	
2025-07-01T00:00	10600	260	-43.7	-46.3	243	16	
2025-07-01T00:00	10650	258	-44.0	-47.1	245	16	
2025-07-01T00:00	10700	256	-44.3	-47.9	247	16	
2025-07-01T00:00	10750	254	-44.5	-47.8	248	17	
2025-07-01T00:00	10800	252	-45.0	-48.1	248	18	
2025-07-01T00:00	10850	250	-45.4	-48.6	250	19	
2025-07-01T00:00	10900	248	-45.7	-49.5	255	20	
2025-07-01T00:00	10950	247	-45.6	-49.5	261	20	
2025-07-01T00:00	11000	245	-45.7	-48.2	265	20	
2025-07-01T00:00	11050	243	-46.1	-48.4	265	20	
2025-07-01T00:00	11100	241	-46.6	-48.6	266	20	
2025-07-01T00:00	11150	239	-47.0	-48.8	268	20	
2025-07-01T00:00	11200	238	-47.4	-49.7	271	19	
2025-07-01T00:00	11250	236	-47.8	-51.1	273	19	
2025-07-01T00:00	11300	234	-48.3	-50.5	273	18	
2025-07-01T00:00	11350	232	-48.7	-50.4	271	17	
2025-07-01T00:00	11400	230	-49.0	-50.4	267	16	
2025-07-01T00:00	11450	229	-49.2	-51.2	265	15	
2025-07-01T00:00	11500	227	-49.6	-51.8	266	15	
2025-07-01T00:00	11550	225	-50.0	-52.9	270	15	
2025-07-01T00:00	11600	224	-50.1	-58.0	273	14	
2025-07-01T00:00	11650	222	-50.1	-63.3	272	14	
2025-07-01T00:00	11700	220	-49.2	-65.2	272	16	
2025-07-01T00:00	11750	218	-48.0	-68.3	276	17	
2025-07-01T00:00	11800	217	-47.3	-69.3	281	18	
2025-07-01T00:00	11850	215	-46.9	-69.9	284	18	
2025-07-01T00:00	11900	214	-46.7	-71.3	284	18	
2025-07-01T00:00	11950	212	-46.4	-72.3	283	17	
2025-07-01T00:00	12000	210	-45.8	-72.3	284	17	
2025-07-01T00:00	12050	209	-45.1	-72.7	286	18	
2025-07-01T00:00	12100	207	-44.9	-73.3	286	18	
2025-07-01T00:00	12150	206	-44.5	-73.9	288	19	
2025-07-01T00:00	12200	204	-44.0	-74.9	292	19	
2025-07-01T00:00	12250	203	-43.6	-76.3	297	20	
2025-07-01T00:00	12300	201	-43.8	-76.0	300	20	
2025-07-01T00:00	12350	200	-44.1	-76.5	303	20	
2025-07-01T00:00	12400	198	-44.3	-76.2	304	19	
2025-07-01T00:00	12450	197	-44.7	-76.4	306	18	
2025-07-01T00:00	12500	195	-45.1	-76.8	308	17	
2025-07-01T00:00	12550	194	-45.6	-76.6	308	17	
2025-07-01T00:00	12600	192	-46.0	-76.8	309	16	
2025-07-01T00:00	12650	191	-46.6	-76.8	310	16	
2025-07-01T00:00	12700	189	-47.1	-77.0	310	16	
2025-07-01T00:00	12750	188	-47.4	-77.1	309	16	
2025-07-01T00:00	12800	187	-47.8	-77.4	306	15	
2025-07-01T00:00	12850	185	-48.1	-77.6	304	15	
2025-07-01T00:00	12900	184	-48.2	-78.1	303	15	
2025-07-01T00:00	12950	182	-48.1	-78.5	302	15	
2025-07-01T00:00	13000	181	-48.1	-78.8	301	14	
2025-07-01T00:00	13050	180	-48.4	-78.8	302	14	
2025-07-01T00:00	13100	178	-48.7	-78.9	302	13	
2025-07-01T00:00	13150	177	-49.0	-79.2	302	13	
2025-07-01T00:00	13200	176	-49.1	-79.2	302	12	
2025-07-01T00:00	13250	174	-49.3	-79.4	303	11	
2025-07-01T00:00	13300	173	-49.5	-79.6	304	11	
2025-07-01T00:00	13350	172	-49.4	-79.7	303	12	
2025-07-01T00:00	13400	170	-49.3	-79.7	302	12	
2025-07-01T00:00	13450	169	-49.7	-79.8	301	12	
2025-07-01T00:00	13500	168	-50.2	-79.9	300	12	
2025-07-01T00:00	13550	166	-50.7	-80.0	301	13	
2025-07-01T00:00	13600	165	-51.2	-80.1	302	13	
2025-07-01T00:00	13650	164	-51.4	-80.2	306	12	
2025-07-01T00:00	13700	163	-51.3	-80.3	311	12	
2025-07-01T00:00	13750	161	-51.6	-80.2	313	12	
2025-07-01T00:00	13800	160	-51.7	-79.9	313	11	
2025-07-01T00:00	13850	159	-51.9	-80.3	311	11	
2025-07-01T00:00	13900	158	-52.3	-80.7	311	11	
2025-07-01T00:00	13950	156	-52.5	-80.9	314	11	
2025-07-01T00:00	14000	155	-52.6	-80.8	319	10	
2025-07-01T00:00	14050	154	-52.4	-81.2	324	9	
2025-07-01T00:00	14100	153	-52.7	-81.5	328	9	
2025-07-01T00:00	14150	152	-53.1	-81.5	331	9	
2025-07-01T00:00	14200	151	-53.4	-81.6	333	10	
2025-07-01T00:00	14250	149	-53.7	-81.7	334	9	
2025-07-01T00:00	14300	148	-54.1	-81.9	334	9	
2025-07-01T00:00	14350	147	-54.4	-82.0	334	8	
2025-07-01T00:00	14400	146	-54.8	-82.2	337	7	
2025-07-01T00:00	14450	145	-55.2	-82.2	341	6	
2025-07-01T00:00	14500	144	-55.7	-82.4	342	6	
2025-07-01T00:00	14550	143	-56.1	-82.6	339	6	
2025-07-01T00:00	14600	141	-56.5	-82.6	334	5	
2025-07-01T00:00	14650	140	-57.0	-82.8	331	5	
2025-07-01T00:00	14700	139	-57.4	-82.9	331	6	
2025-07-01T00:00	14750	138	-57.7	-83.1	333	6	
2025-07-01T00:00	14800	137	-58.0	-83.1	331	6	
2025-07-01T00:00	14850	136	-58.3	-83.3	325	6	
2025-07-01T00:00	14900	135	-58.4	-83.4	320	6	
2025-07-01T00:00	14950	134	-58.8	-83.5	319	5	
2025-07-01T00:00	15000	133	-59.1	-83.5	318	5	
2025-07-01T00:00	15050	132	-59.4	-83.5	315	4	
2025-07-01T00:00	15100	131	-59.6	-83.5	313	3	
2025-07-01T00:00	15150	130	-59.9	-83.5	308	3	
2025-07-01T00:00	15200	129	-60.2	-83.8	296	3	
2025-07-01T00:00	15250	128	-60.5	-84.0	288	3	
2025-07-01T00:00	15300	126	-60.8	-84.2	292	3	
2025-07-01T00:00	15350	125	-61.2	-84.3	296	4	
2025-07-01T00:00	15400	124	-61.7	-84.3	296	4	
2025-07-01T00:00	15450	123	-62.1	-84.4	296	5	
2025-07-01T00:00	15500	122	-62.5	-84.5	296	5	
2025-07-01T00:00	15550	121	-62.9	-84.5	297	6	
2025-07-01T00:00	15600	120	-63.1	-84.5	297	7	
2025-07-01T00:00	15650	119	-63.3	-84.4	296	7	
2025-07-01T00:00	15700	119	-63.4	-84.4	296	7	
2025-07-01T00:00	15750	118	-63.5	-84.6	299	6	
2025-07-01T00:00	15800	117	-63.5	-84.7	300	6	
2025-07-01T00:00	15850	116	-63.4	-84.7	299	6	
2025-07-01T00:00	15900	115	-62.9	-85.0	297	6	
2025-07-01T00:00	15950	114	-62.1	-85.4	288	6	
2025-07-01T00:00	16000	113	-61.9	-85.6	279	7	
2025-07-01T00:00	16050	112	-62.0	-85.5	276	8	
2025-07-01T00:00	16100	111	-62.2	-85.6	281	9	
2025-07-01T00:00	16150	110	-62.3	-85.7	290	8	
2025-07-01T00:00	16200	109	-62.0	-85.7	295	8	
2025-07-01T00:00	16250	108	-61.2	-85.4	293	9	
2025-07-01T00:00	16300	108	-61.1	-85.4	293	10	
2025-07-01T00:00	16350	107	-61.5	-85.5	297	11	
2025-07-01T00:00	16400	106	-61.6	-85.6	305	10	
2025-07-01T00:00	16450	105	-61.1	-85.5	314	9	
2025-07-01T00:00	16500	104	-61.2	-85.5	322	8	
2025-07-01T00:00	16550	103	-61.3	-85.5	327	8	
2025-07-01T00:00	16600	102	-61.5	-85.6	334	7	
2025-07-01T00:00	16650	102	-61.8	-85.7	344	5	
2025-07-01T00:00	16700	101	-62.0	-86.1	355	3	
2025-07-01T00:00	16750	100	-60.9	-86.0	3	1	
2025-07-01T00:00	16800	99	-60.0	-85.9	180	0	
2025-07-01T00:00	16850	98	-60.1	-85.9	180	1	
2025-07-01T00:00	16900	98	-60.4	-85.8	181	2	
2025-07-01T00:00	16950	97	-60.8	-85.8	183	3	
2025-07-01T00:00	17000	96	-61.2	-85.8	183	3	
2025-07-01T00:00	17050	95	-61.7	-85.9	182	3	
2025-07-01T00:00	17100	95	-62.2	-85.9	183	3	
2025-07-01T00:00	17150	94	-62.7	-86.0	184	3	
2025-07-01T00:00	17200	93	-63.1	-86.2	183	3	
2025-07-01T00:00	17250	92	-63.5	-86.3	178	2	
2025-07-01T00:00	17300	92	-63.8	-86.4	175	2	
2025-07-01T00:00	17350	91	-64.1	-86.5	180	2	
2025-07-01T00:00	17400	90	-64.5	-86.6	187	2	
2025-07-01T00:00	17450	89	-64.9	-86.9	199	2	
2025-07-01T00:00	17500	89	-64.7	-87.1	215	2	
2025-07-01T00:00	17550	88	-64.0	-86.9	238	2	
2025-07-01T00:00	17600	87	-64.1	-87.1	269	2	
2025-07-01T00:00	17650	86	-64.4	-87.1	293	2	
2025-07-01T00:00	17700	86	-64.4	-87.2	310	3	
2025-07-01T00:00	17750	85	-64.4	-87.5	335	3	
2025-07-01T00:00	17800	84	-63.7	-87.4	12	2	
2025-07-01T00:00	17850	84	-63.1	-87.3	50	2	
2025-07-01T00:00	17900	83	-63.3	-87.2	81	2	
2025-07-01T00:00	17950	82	-63.7	-87.2	105	2	
2025-07-01T00:00	18000	82	-64.0	-87.3	121	2	
2025-07-01T00:00	18050	81	-64.1	-87.4	114	1	
2025-07-01T00:00	18100	80	-63.7	-87.3	81	2	
2025-07-01T00:00	18150	80	-63.8	-87.5	76	2	
2025-07-01T00:00	18200	79	-63.4	-87.5	92	3	
2025-07-01T00:00	18250	78	-63.2	-87.6	103	5	
2025-07-01T00:00	18300	78	-62.9	-87.5	108	6	
2025-07-01T00:00	18350	77	-62.6	-87.3	110	6	
2025-07-01T00:00	18400	77	-62.6	-87.3	112	5	
2025-07-01T00:00	18450	76	-62.7	-87.1	108	3	
2025-07-01T00:00	18500	75	-63.0	-87.2	94	2	
2025-07-01T00:00	18550	75	-63.3	-87.4	70	1	
2025-07-01T00:00	18600	74	-62.9	-87.4	75	2	
2025-07-01T00:00	18650	73	-62.8	-87.6	89	3	
2025-07-01T00:00	18700	73	-62.5	-87.5	93	3	
2025-07-01T00:00	18750	72	-62.7	-87.6	91	3	
2025-07-01T00:00	18800	72	-62.5	-87.5	92	3	
2025-07-01T00:00	18850	71	-62.5	-87.5	99	3	
2025-07-01T00:00	18900	70	-62.4	-87.6	112	3	
2025-07-01T00:00	18950	70	-62.5	-87.5	130	2	
2025-07-01T00:00	19000	69	-62.7	-87.6	154	2	
2025-07-01T00:00	19050	69	-62.8	-87.6	195	1	
2025-07-01T00:00	19100	68	-62.7	-87.5	254	1	
2025-07-01T00:00	19150	68	-62.9	-87.7	318	2	
2025-07-01T00:00	19200	67	-63.1	-87.8	344	3	
2025-07-01T00:00	19250	67	-62.8	-87.7	359	4	
2025-07-01T00:00	19300	66	-62.8	-87.8	13	5	
2025-07-01T00:00	19350	66	-62.8	-87.8	27	6	
2025-07-01T00:00	19400	65	-62.8	-87.9	40	7	
2025-07-01T00:00	19450	64	-62.6	-87.8	50	9	
2025-07-01T00:00	19500	64	-62.5	-87.9	56	9	
2025-07-01T00:00	19550	63	-62.5	-87.8	62	9	
2025-07-01T00:00	19600	63	-62.5	-87.9	67	8	
2025-07-01T00:00	19650	62	-62.2	-87.8	74	8	
2025-07-01T00:00	19700	62	-61.9	-87.6	81	8	
2025-07-01T00:00	19750	61	-62.0	-87.6	86	8	
2025-07-01T00:00	19800	61	-62.3	-87.5	91	8	
2025-07-01T00:00	19850	60	-62.7	-87.6	99	8	
2025-07-01T00:00	19900	60	-63.0	-87.7	109	7	
2025-07-01T00:00	19950	59	-62.8	-87.7	120	7	
2025-07-01T00:00	20000	59	-62.8	-87.7	131	7	
2025-07-01T00:00	20050	58	-63.1		139	6	
2025-07-01T00:00	20100	58	-62.6		146	5	
2025-07-01T00:00	20150	58	-61.9		156	4	
2025-07-01T00:00	20200	57	-61.3		166	4	
2025-07-01T00:00	20250	57	-60.5		170	5	
2025-07-01T00:00	20300	56	-60.2		173	4	
2025-07-01T00:00	20350	56	-60.1		181	2	
2025-07-01T00:00	20400	55	-60.2		159	0	
2025-07-01T00:00	20450	55	-59.5		50	2	
2025-07-01T00:00	20500	54	-59.2		61	3	
2025-07-01T00:00	20550	54	-59.2		67	5	
2025-07-01T00:00	20600	54	-59.3		70	5	
2025-07-01T00:00	20650	53	-59.3		72	5	
2025-07-01T00:00	20700	53	-59.2		69	5	
2025-07-01T00:00	20750	52	-59.1		66	6	
2025-07-01T00:00	20800	52	-59.1		69	6	
2025-07-01T00:00	20850	51	-59.1		78	6	
2025-07-01T00:00	20900	51	-59.0		91	6	
2025-07-01T00:00	20950	51	-59.1		105	7	
2025-07-01T00:00	21000	50	-59.4		118	7	
2025-07-01T00:00	21050	50	-59.4		126	8	
2025-07-01T00:00	21100	49	-59.6		131	8	
2025-07-01T00:00	21150	49	-59.7		134	7	
2025-07-01T00:00	21200	49	-59.8		131	5	
2025-07-01T00:00	21250	48	-59.9		120	4	
2025-07-01T00:00	21300	48	-60.1		98	3	
2025-07-01T00:00	21350	48	-59.6		76	4	
2025-07-01T00:00	21400	47	-59.3		69	5	
2025-07-01T00:00	21450	47	-59.2		73	5	
2025-07-01T00:00	21500	46	-59.0		83	5	
2025-07-01T00:00	21550	46	-59.0		85	5	
2025-07-01T00:00	21600	46	-58.7		78	6	
2025-07-01T00:00	21650	45	-58.6		73	8	
2025-07-01T00:00	21700	45	-58.4		72	10	
2025-07-01T00:00	21750	45	-57.7		74	11	
2025-07-01T00:00	21800	44	-57.1		80	11	
2025-07-01T00:00	21850	44	-57.1		86	11	
2025-07-01T00:00	21900	44	-57.4		90	11	
2025-07-01T00:00	21950	43	-57.4		89	10	
2025-07-01T00:00	22000	43	-57.4		85	9	
2025-07-01T00:00	22050	43	-57.6		77	9	
2025-07-01T00:00	22100	42	-57.5		71	9	
2025-07-01T00:00	22150	42	-57.5		68	9	
2025-07-01T00:00	22200	42	-57.6		69	10	
2025-07-01T00:00	22250	41	-57.6		75	10	
2025-07-01T00:00	22300	41	-57.6		80	10	
2025-07-01T00:00	22350	41	-57.6		82	10	
2025-07-01T00:00	22400	40	-57.6		81	10	
2025-07-01T00:00	22450	40	-57.1		78	9	
2025-07-01T00:00	22500	40	-57.1		75	9	
2025-07-01T00:00	22550	39	-57.4		73	9	
2025-07-01T00:00	22600	39	-57.7		73	10	
2025-07-01T00:00	22650	39	-58.0		76	11	
2025-07-01T00:00	22700	38	-57.9		80	11	
2025-07-01T00:00	22750	38	-57.9		84	10	
2025-07-01T00:00	22800	38	-57.9		87	10	
2025-07-01T00:00	22850	37	-58.1		90	10	
2025-07-01T00:00	22900	37	-57.7		93	9	
2025-07-01T00:00	22950	37	-57.4		93	9	
2025-07-01T00:00	23000	37	-57.2		85	9	
2025-07-01T00:00	23050	36	-56.4		73	9	
2025-07-01T00:00	23100	36	-55.7		68	10	
2025-07-01T00:00	23150	36	-55.1		70	11	
2025-07-01T00:00	23200	35	-54.4		75	12	
2025-07-01T00:00	23250	35	-54.5		82	13	
2025-07-01T00:00	23300	35	-54.1		88	14	
2025-07-01T00:00	23350	35	-53.4		93	14	
2025-07-01T00:00	23400	34	-53.1		95	14	
2025-07-01T00:00	23450	34	-52.9		94	15	
2025-07-01T00:00	23500	34	-53.1		94	15	
2025-07-01T00:00	23550	34	-53.1		95	15	
2025-07-01T00:00	23600	33	-53.1		95	14	
2025-07-01T00:00	23650	33	-53.5		96	13	
2025-07-01T00:00	23700	33	-53.9		99	13	
2025-07-01T00:00	23750	33	-54.1		105	13	
2025-07-01T00:00	23800	32	-53.4		110	13	
2025-07-01T00:00	23850	32	-53.1		114	13	
2025-07-01T00:00	23900	32	-52.7		114	13	
2025-07-01T00:00	23950	32	-52.7		112	12	
2025-07-01T00:00	24000	31	-52.4		109	11	
2025-07-01T00:00	24050	31	-52.0		106	10	
2025-07-01T00:00	24100	31	-52.1		104	10	
2025-07-01T00:00	24150	31	-52.4		102	9	
2025-07-01T00:00	24200	30	-52.8		99	9	
2025-07-01T00:00	24250	30	-53.2		93	8	
2025-07-01T00:00	24300	30	-53.5		84	8	
2025-07-01T00:00	24350	30	-53.3		75	8	
2025-07-01T00:00	24400	29	-52.6		71	9	
2025-07-01T00:00	24450	29	-52.3		73	11	
2025-07-01T00:00	24500	29	-52.1		78	11	
2025-07-01T00:00	24550	29	-52.2		83	12	
2025-07-01T00:00	24600	29	-52.4		88	13	
2025-07-01T00:00	24650	28	-52.6		92	13	
2025-07-01T00:00	24700	28	-52.5		95	12	
2025-07-01T00:00	24750	28	-52.5		96	10	
2025-07-01T00:00	24800	28	-52.5		95	9	
2025-07-01T00:00	24850	27	-52.1		91	8	
2025-07-01T00:00	24900	27	-52.0		82	8	
2025-07-01T00:00	24950	27	-51.9		71	8	
2025-07-01T00:00	25000	27	-51.4		66	9	
2025-07-01T00:00	25050	27	-51.0		63	10	
2025-07-01T00:00	25100	26	-50.5		60	12	
2025-07-01T00:00	25150	26	-50.0		60	13	
2025-07-01T00:00	25200	26	-49.4		64	14	
2025-07-01T00:00	25250	26	-49.2		68	15	
2025-07-01T00:00	25300	26	-49.3		73	16	
2025-07-01T00:00	25350	25	-49.5		78	17	
2025-07-01T00:00	25400	25	-49.6		83	17	
2025-07-01T00:00	25450	25	-49.6		87	17	
2025-07-01T00:00	25500	25	-49.5		91	17	
2025-07-01T00:00	25550	25	-49.6		95	16	
2025-07-01T00:00	25600	24	-49.9		99	16	
2025-07-01T00:00	25650	24	-50.1		102	16	
2025-07-01T00:00	25700	24	-50.2		104	16	
2025-07-01T00:00	25750	24	-50.3		103	15	
2025-07-01T00:00	25800	24	-50.0		100	15	
2025-07-01T00:00	25850	24	-50.0		97	15	
2025-07-01T00:00	25900	23	-50.0		95	16	
2025-07-01T00:00	25950	23	-49.8		98	16	
2025-07-01T00:00	26000	23	-49.7		101	17	
2025-07-01T00:00	26050	23	-49.8		105	16	
2025-07-01T00:00	26100	23	-49.8		106	16	
2025-07-01T00:00	26150	22	-49.7		107	15	
2025-07-01T00:00	26200	22	-49.4		105	14	
2025-07-01T00:00	26250	22	-48.9		101	14	
2025-07-01T00:00	26300	22	-48.4		98	13	
2025-07-01T00:00	26350	22	-48.1		98	13	
2025-07-01T00:00	26400	22	-48.1		99	13	
2025-07-01T00:00	26450	21	-47.8		97	14	
2025-07-01T00:00	26500	21	-47.3		94	15	
2025-07-01T00:00	26550	21	-47.3		90	17	
2025-07-01T00:00	26600	21	-47.2		90	18	
2025-07-01T00:00	26650	21	-47.0		91	18	
2025-07-01T00:00	26700	21	-46.7		95	17	
2025-07-01T00:00	26750	21	-46.8		99	17	
2025-07-01T00:00	26800	20	-46.8		101	16	
2025-07-01T00:00	26850	20	-46.5		104	16	
2025-07-01T00:00	26900	20	-46.3		106	15	
2025-07-01T00:00	26950	20	-46.1		107	14	
2025-07-01T00:00	27000	20	-46.2		108	14	
2025-07-01T00:00	27050	20	-46.4		109	14	
2025-07-01T00:00	27100	19	-46.5		107	14	
2025-07-01T00:00	27150	19	-46.5		105	14	
2025-07-01T00:00	27200	19	-46.5		104	15	
2025-07-01T00:00	27250	19	-46.5		104	15	
2025-07-01T00:00	27300	19	-46.5		106	15	
2025-07-01T00:00	27350	19	-46.7		108	15	
2025-07-01T00:00	27400	19	-46.8		111	13	
2025-07-01T00:00	27450	18	-46.6		115	11	
2025-07-01T00:00	27500	18	-46.3		118	10	
2025-07-01T00:00	27550	18	-46.3		116	9	
2025-07-01T00:00	27600	18	-46.4		110	8	
2025-07-01T00:00	27650	18	-46.2		103	8	
2025-07-01T00:00	27700	18	-45.9		98	9	
2025-07-01T00:00	27750	18	-45.7		97	10	
2025-07-01T00:00	27800	18	-45.7		99	11	
2025-07-01T00:00	27850	17	-45.7		102	12	
2025-07-01T00:00	27900	17	-45.7		103	11	
2025-07-01T00:00	27950	17	-45.5		102	11	
2025-07-01T00:00	28000	17	-45.2		100	10	
2025-07-01T00:00	28050	17	-44.8		98	11	
2025-07-01T00:00	28100	17	-44.5		98	11	
2025-07-01T00:00	28150	17	-44.4		99	11	
2025-07-01T00:00	28200	17	-44.3		99	10	
2025-07-01T00:00	28250	16	-44.1		97	10	
2025-07-01T00:00	28300	16	-44.0		93	9	
2025-07-01T00:00	28350	16	-43.6		89	9	
2025-07-01T00:00	28400	16	-43.4		89	10	
2025-07-01T00:00	28450	16	-43.4		92	10	
2025-07-01T00:00	28500	16	-43.3		95	10	
2025-07-01T00:00	28550	16	-43.3		97	10	
2025-07-01T00:00	28600	16	-43.4		97	10	
2025-07-01T00:00	28650	15	-43.5		94	10	
2025-07-01T00:00	28700	15	-43.3		91	10	
2025-07-01T00:00	28750	15	-43.2		91	9	
2025-07-01T00:00	28800	15	-43.2		93	9	
2025-07-01T00:00	28850	15	-43.2		93	9	
2025-07-01T00:00	28900	15	-43.0		88	9	
2025-07-01T00:00	28950	15	-42.9		83	9	
2025-07-01T00:00	29000	15	-42.8		80	11	
2025-07-01T00:00	29050	15	-42.8		81	12	
2025-07-01T00:00	29100	14	-43.0		83	14	
2025-07-01T00:00	29150	14	-43.2		85	14	
2025-07-01T00:00	29200	14	-43.2		87	13	
2025-07-01T00:00	29250	14	-43.3		90	13	
2025-07-01T00:00	29300	14	-43.3		94	13	
2025-07-01T00:00	29350	14	-43.4		98	13	
2025-07-01T00:00	29400	14	-43.6		100	12	
2025-07-01T00:00	29450	14	-43.4		100	12	
2025-07-01T00:00	29500	14	-43.2		100	11	
2025-07-01T00:00	29550	14	-43.1		100	10	
2025-07-01T00:00	29600	13	-43.1		97	9	
2025-07-01T00:00	29650	13	-42.9		91	8	
2025-07-01T00:00	29700	13	-42.9		85	8	
2025-07-01T00:00	29750	13	-42.6		80	10	
2025-07-01T00:00	29800	13	-42.4		77	11	
2025-07-01T00:00	29850	13	-42.5		75	13	
2025-07-01T00:00	29900	13	-42.5		75	13	
2025-07-01T00:00	29950	13	-42.4		77	13	
2025-07-01T00:00	30000	13	-42.3		81	11	
2025-07-01T00:00	30050	13	-42.3		85	10	
2025-07-01T00:00	30100	12	-42.3		87	10	
2025-07-01T00:00	30150	12	-42.2		85	10	
2025-07-01T00:00	30200	12	-41.8		81	12	
2025-07-01T00:00	30250	12	-41.4		77	14	
2025-07-01T00:00	30300	12	-40.9		76	16	
2025-07-01T00:00	30350	12	-40.4		78	17	
2025-07-01T00:00	30400	12	-40.4		79	18	
2025-07-01T00:00	30450	12	-40.3		80	18	
2025-07-01T00:00	30500	12	-40.2		81	17	
2025-07-01T00:00	30550	12	-40.2		82	16	
2025-07-01T00:00	30600	12	-40.2		82	15	
2025-07-01T00:00	30650	11	-40.3		78	15	
2025-07-01T00:00	30700	11	-40.2		75	15	
2025-07-01T00:00	30750	11	-40.0		74	16	
2025-07-01T00:00	30800	11	-40.0		75	16	
2025-07-01T00:00	30850	11	-40.0		79	17	
2025-07-01T00:00	30900	11	-40.0		83	17	
2025-07-01T00:00	30950	11	-40.1		86	17	
2025-07-01T00:00	31000	11	-40.1		87	17	
2025-07-01T00:00	31050	11	-39.8		85	17	
2025-07-01T00:00	31100	11	-39.4		83	17	
2025-07-01T00:00	31150	11	-39.1		81	17	
2025-07-01T00:00	31200	11	-39.1		80	18	
2025-07-01T00:00	31250	11	-39.0		82	18	
2025-07-01T00:00	31300	10	-39.0		86	18	
2025-07-01T00:00	31350	10	-39.0		90	18	
2025-07-01T00:00	31400	10	-38.9		91	17	
2025-07-01T00:00	31450	10	-38.5		91	17	
2025-07-01T00:00	31500	10	-38.1		90	17	
2025-07-01T00:00	31550	10	-38.1		87	17	
2025-07-01T00:00	31600	10	-38.0		83	17	
2025-07-01T00:00	31650	10	-37.6		81	17	
2025-07-01T00:00	31700	10	-37.5		81	18	
2025-07-01T00:00	31750	10	-37.6		83	19	
2025-07-01T00:00	31800	10	-37.7		85	19	
2025-07-01T00:00	31850	10	-38.0		88	19	
2025-07-01T00:00	31900	10	-38.2		92	19	
2025-07-01T00:00	31950	9	-38.4		97	18	
2025-07-01T00:00	32000	9	-38.4		103	17	
2025-07-01T00:00	32050	9	-38.5		108	17	
2025-07-01T00:00	32100	9	-38.5		110	17	
2025-07-01T00:00	32150	9	-38.3		108	18	
2025-07-01T00:00	32200	9	-38.2		105	19	
2025-07-01T00:00	32250	9	-38.2		103	19	
2025-07-01T00:00	32300	9	-38.2		103	20	
2025-07-01T00:00	32350	9	-38.0		104	19	
2025-07-01T00:00	32400	9	-37.9		104	18	
2025-07-01T00:00	32450	9	-38.1		104	17	
2025-07-01T00:00	32500	9	-38.1		101	17	
2025-07-01T00:00	32550	9	-37.7		96	17	
2025-07-01T00:00	32600	9	-37.2		91	17	
2025-07-01T00:00	32650	9	-36.8		87	18	
2025-07-01T00:00	32700	9	-36.9		84	18	
2025-07-01T00:00	32750	8	-36.8		84	19	
2025-07-01T00:00	32800	8	-36.6		86	18	
2025-07-01T00:00	32850	8	-36.4		89	18	
2025-07-01T00:00	32900	8	-36.0		93	17	
2025-07-01T00:00	32950	8	-35.5		95	16	
2025-07-01T00:00	33000	8	-35.0		95	16	
2025-07-01T00:00	33050	8	-34.3		92	15	
2025-07-01T00:00	33100	8	-33.8		89	14	
2025-07-01T00:00	33150	8	-33.4		86	14	
2025-07-01T00:00	33200	8	-33.3		83	14	
2025-07-01T00:00	33250	8	-33.1		81	14	
2025-07-01T00:00	33300	8	-33.0		79	14	
2025-07-01T00:00	33350	8	-33.0		78	14	
2025-07-01T00:00	33400	8	-33.1		79	14	
2025-07-01T00:00	33450	8	-33.2		79	13	
2025-07-01T00:00	33500	8	-33.3		79	14	
2025-07-01T00:00	33550	8	-33.5		79	15	
2025-07-01T00:00	33600	7	-33.3		80	16	
2025-07-01T00:00	33650	7	-33.4		82	18	
2025-07-01T00:00	33700	7	-33.6		84	19	
2025-07-01T00:00	33750	7	-33.9		87	20	
2025-07-01T00:00	33800	7	-34.0		89	20	
2025-07-01T00:00	33850	7	-33.3		91	20	
2025-07-01T00:00	33900	7	-32.8		93	19	
2025-07-01T00:00	33950	7	-32.3		96	19	
2025-07-01T00:00	34000	7	-31.8		98	19	
2025-07-01T00:00	34050	7	-31.4		99	18	
2025-07-01T00:00	34100	7	-30.8		98	18	
2025-07-01T00:00	34150	7	-30.1		99	17	
2025-07-01T00:00	34200	7	-29.8		101	17	
2025-07-01T00:00	34250	7	-29.9		102	18	
2025-07-01T12:00	491	961	31.3	16.5	26	2	
2025-07-01T12:00	501	960	29.9	16.1	53	2	
2025-07-01T12:00	520	958	29.2	15.8	62	2	
2025-07-01T12:00	540	956	29.0	15.5	59	2	
2025-07-01T12:00	560	954	28.7	15.3	58	2	
2025-07-01T12:00	580	951	28.5	15.3	57	2	
2025-07-01T12:00	600	949	28.3	15.2	56	2	
2025-07-01T12:00	620	947	28.0	15.2	56	3	
2025-07-01T12:00	640	945	27.7	15.1	56	3	
2025-07-01T12:00	660	943	27.5	15.0	55	3	
2025-07-01T12:00	680	941	27.3	15.1	53	3	
2025-07-01T12:00	700	939	27.2	15.1	52	3	
2025-07-01T12:00	720	937	27.0	15.1	50	3	
2025-07-01T12:00	740	935	26.8	15.1	48	3	
2025-07-01T12:00	760	932	26.6	15.1	46	3	
2025-07-01T12:00	780	930	26.4	15.0	44	2	
2025-07-01T12:00	800	928	26.2	15.0	41	2	
2025-07-01T12:00	820	926	25.9	14.9	38	2	
2025-07-01T12:00	840	924	25.8	14.8	35	1	
2025-07-01T12:00	860	922	25.6	14.8	31	1	
2025-07-01T12:00	880	920	25.4	14.7	29	1	
2025-07-01T12:00	900	917	25.2	14.7	27	1	
2025-07-01T12:00	920	916	25.0	14.6	28	1	
2025-07-01T12:00	940	914	24.8	14.6	29	1	
2025-07-01T12:00	960	912	24.6	14.6	30	2	
2025-07-01T12:00	980	909	24.4	14.5	30	2	
2025-07-01T12:00	1000	907	24.2	14.5	29	2	
2025-07-01T12:00	1020	905	24.0	14.5	27	2	
2025-07-01T12:00	1040	903	23.8	14.5	24	2	
2025-07-01T12:00	1060	901	23.6	14.4	22	2	
2025-07-01T12:00	1080	899	23.4	14.4	19	2	
2025-07-01T12:00	1100	897	23.2	14.4	17	2	
2025-07-01T12:00	1120	895	23.0	14.4	17	2	
2025-07-01T12:00	1140	893	22.9	14.3	19	2	
2025-07-01T12:00	1160	891	22.7	14.2	25	2	
2025-07-01T12:00	1180	889	22.9	12.8	31	2	
2025-07-01T12:00	1200	887	23.0	12.1	34	2	
2025-07-01T12:00	1220	885	22.8	12.0	35	1	
2025-07-01T12:00	1240	883	22.6	12.0	32	2	
2025-07-01T12:00	1260	881	22.5	11.6	24	2	
2025-07-01T12:00	1280	879	22.3	11.6	17	2	
2025-07-01T12:00	1300	876	22.1	11.9	11	2	
2025-07-01T12:00	1320	875	22.0	12.1	9	2	
2025-07-01T12:00	1340	872	21.8	12.0	8	3	
2025-07-01T12:00	1360	871	21.7	11.8	8	3	
2025-07-01T12:00	1380	869	21.6	11.5	7	3	
2025-07-01T12:00	1400	866	21.4	11.4	7	3	
2025-07-01T12:00	1420	865	21.2	11.2	5	3	
2025-07-01T12:00	1440	863	21.1	10.7	3	3	
2025-07-01T12:00	1460	861	20.9	10.8	360	3	
2025-07-01T12:00	1480	859	20.8	10.6	356	3	
2025-07-01T12:00	1500	857	20.6	10.5	353	3	
2025-07-01T12:00	1520	855	20.4	10.3	351	2	
2025-07-01T12:00	1540	853	20.3	9.9	349	2	
2025-07-01T12:00	1560	851	20.1	9.9	349	2	
2025-07-01T12:00	1580	849	19.9	9.7	349	2	
2025-07-01T12:00	1600	847	19.7	9.6	350	2	
2025-07-01T12:00	1620	845	19.6	9.4	352	2	
2025-07-01T12:00	1640	843	19.4	9.2	354	2	
2025-07-01T12:00	1660	841	19.2	9.2	356	2	
2025-07-01T12:00	1680	839	19.0	9.3	358	1	
2025-07-01T12:00	1700	837	18.8	9.3	0	1	
2025-07-01T12:00	1720	835	18.6	9.4	4	1	
2025-07-01T12:00	1740	833	18.4	9.3	8	1	
2025-07-01T12:00	1760	831	18.2	9.3	15	1	
2025-07-01T12:00	1780	829	18.1	9.4	23	1	
2025-07-01T12:00	1800	827	17.9	9.4	34	1	
2025-07-01T12:00	1820	825	17.7	9.3	46	1	
2025-07-01T12:00	1840	823	17.5	9.3	60	1	
2025-07-01T12:00	1860	822	17.3	9.3	75	1	
2025-07-01T12:00	1880	820	17.2	9.3	91	1	
2025-07-01T12:00	1900	818	17.0	9.2	108	1	
2025-07-01T12:00	1920	816	16.8	9.2	121	1	
2025-07-01T12:00	1940	814	16.6	9.3	130	1	
2025-07-01T12:00	1960	812	16.5	9.1	135	1	
2025-07-01T12:00	1980	810	16.3	8.9	136	1	
2025-07-01T12:00	2000	808	16.2	8.9	136	1	
2025-07-01T12:00	2020	806	16.0	8.9	133	1	
2025-07-01T12:00	2040	804	15.8	8.9	131	1	
2025-07-01T12:00	2060	803	15.6	9.0	130	1	
2025-07-01T12:00	2080	800	15.4	8.7	134	1	
2025-07-01T12:00	2100	799	15.3	8.6	142	1	
2025-07-01T12:00	2120	797	15.1	8.6	158	1	
2025-07-01T12:00	2140	795	14.9	8.5	177	1	
2025-07-01T12:00	2160	793	14.7	8.3	196	1	
2025-07-01T12:00	2180	791	14.6	7.8	208	1	
2025-07-01T12:00	2200	789	14.4	7.4	216	1	
2025-07-01T12:00	2220	787	14.3	7.2	222	2	
2025-07-01T12:00	2240	786	14.1	7.6	226	2	
2025-07-01T12:00	2260	784	14.0	7.2	229	2	
2025-07-01T12:00	2280	782	13.9	6.8	232	2	
2025-07-01T12:00	2300	780	13.7	5.8	233	2	
2025-07-01T12:00	2320	778	13.6	5.1	233	2	
2025-07-01T12:00	2340	776	13.5	5.2	233	2	
2025-07-01T12:00	2360	774	13.3	5.2	229	2	
2025-07-01T12:00	2380	773	13.2	4.7	226	2	
2025-07-01T12:00	2400	771	13.1	3.1	221	2	
2025-07-01T12:00	2420	769	13.0	3.0	216	2	
2025-07-01T12:00	2440	767	12.8	3.5	211	2	
2025-07-01T12:00	2460	765	12.6	3.5	210	2	
2025-07-01T12:00	2480	763	12.4	3.5	210	2	
2025-07-01T12:00	2500	762	12.2	4.0	213	2	
2025-07-01T12:00	2520	760	12.0	4.1	217	2	
2025-07-01T12:00	2540	758	11.8	4.0	222	2	
2025-07-01T12:00	2560	756	11.6	4.0	228	2	
2025-07-01T12:00	2580	754	11.4	4.0	234	2	
2025-07-01T12:00	2600	752	11.2	4.1	242	2	
2025-07-01T12:00	2620	751	11.0	4.0	249	2	
2025-07-01T12:00	2640	749	10.8	3.6	255	2	
2025-07-01T12:00	2660	747	10.6	3.6	258	2	
2025-07-01T12:00	2680	745	10.4	3.6	259	2	
2025-07-01T12:00	2700	744	10.3	3.6	256	2	
2025-07-01T12:00	2720	742	10.1	3.5	250	2	
2025-07-01T12:00	2740	740	9.8	4.6	242	2	
2025-07-01T12:00	2760	738	9.6	4.5	236	3	
2025-07-01T12:00	2780	737	9.5	3.7	231	3	
2025-07-01T12:00	2800	735	9.3	3.2	229	3	
2025-07-01T12:00	2820	733	9.5	-2.8	228	2	
2025-07-01T12:00	2840	731	9.6	-6.3	227	2	
2025-07-01T12:00	2860	729	9.5	-7.0	226	2	
2025-07-01T12:00	2880	728	9.4	-7.2	221	1	
2025-07-01T12:00	2900	726	9.2	-7.6	206	1	
2025-07-01T12:00	2920	724	9.0	-7.6	183	1	
2025-07-01T12:00	2940	722	8.9	-7.7	172	1	
2025-07-01T12:00	2960	721	8.7	-7.5	171	1	
2025-07-01T12:00	2980	719	8.5	-7.7	172	2	
2025-07-01T12:00	3000	717	8.3	-8.0	175	2	
2025-07-01T12:00	3020	715	8.2	-8.2	177	2	
2025-07-01T12:00	3040	714	8.0	-8.3	180	2	
2025-07-01T12:00	3060	712	7.8	-8.1	182	2	
2025-07-01T12:00	3080	710	7.6	-7.8	186	2	
2025-07-01T12:00	3100	709	7.4	-7.7	189	2	
2025-07-01T12:00	3120	707	7.3	-8.4	193	2	
2025-07-01T12:00	3140	705	7.2	-8.9	198	2	
2025-07-01T12:00	3160	703	7.1	-9.0	201	2	
2025-07-01T12:00	3180	702	7.0	-7.7	203	2	
2025-07-01T12:00	3200	700	7.0	-7.3	205	2	
2025-07-01T12:00	3220	698	6.8	-7.1	206	2	
2025-07-01T12:00	3240	697	6.9	-8.0	205	2	
2025-07-01T12:00	3260	695	7.0	-11.4	207	1	
2025-07-01T12:00	3280	693	7.0	-13.1	211	1	
2025-07-01T12:00	3300	692	7.0	-12.8	218	1	
2025-07-01T12:00	3320	690	6.8	-12.8	228	1	
2025-07-01T12:00	3340	688	6.6	-12.9	237	1	
2025-07-01T12:00	3360	687	6.5	-13.2	242	2	
2025-07-01T12:00	3380	685	6.4	-13.5	241	2	
2025-07-01T12:00	3400	683	6.2	-14.0	237	2	
2025-07-01T12:00	3420	682	6.1	-15.3	226	1	
2025-07-01T12:00	3440	680	6.0	-16.1	215	1	
2025-07-01T12:00	3460	678	5.8	-16.4	205	1	
2025-07-01T12:00	3480	677	5.7	-15.7	198	2	
2025-07-01T12:00	3500	675	5.6	-14.1	199	2	
2025-07-01T12:00	3520	673	5.5	-13.9	203	2	
2025-07-01T12:00	3540	672	5.3	-13.7	210	2	
2025-07-01T12:00	3560	670	5.1	-13.9	218	2	
2025-07-01T12:00	3580	668	4.9	-13.5	226	2	
2025-07-01T12:00	3600	666	4.7	-11.7	234	2	
2025-07-01T12:00	3620	665	4.5	-8.7	238	2	
2025-07-01T12:00	3640	663	4.3	-6.5	238	2	
2025-07-01T12:00	3660	662	4.2	-6.3	234	1	
2025-07-01T12:00	3680	660	4.0	-6.4	228	1	
2025-07-01T12:00	3700	658	3.8	-6.8	217	1	
2025-07-01T12:00	3720	657	3.6	-7.2	209	1	
2025-07-01T12:00	3740	655	3.5	-7.2	203	1	
2025-07-01T12:00	3760	654	3.3	-7.6	201	1	
2025-07-01T12:00	3780	652	3.2	-8.6	202	1	
2025-07-01T12:00	3800	651	3.1	-8.0	206	1	
2025-07-01T12:00	3820	649	2.9	-7.7	210	2	
2025-07-01T12:00	3840	647	2.7	-8.1	216	2	
2025-07-01T12:00	3860	645	2.6	-8.7	222	2	
2025-07-01T12:00	3880	644	2.4	-8.9	229	2	
2025-07-01T12:00	3900	642	2.3	-8.4	236	2	
2025-07-01T12:00	3920	641	2.1	-7.8	243	2	
2025-07-01T12:00	3940	639	1.9	-8.1	249	2	
2025-07-01T12:00	3960	638	1.7	-7.8	256	2	
2025-07-01T12:00	3980	636	1.5	-7.3	262	2	
2025-07-01T12:00	4000	634	1.3	-8.5	266	2	
2025-07-01T12:00	4020	633	1.3	-10.8	269	2	
2025-07-01T12:00	4040	631	1.1	-9.8	268	2	
2025-07-01T12:00	4060	630	0.9	-8.5	263	2	
2025-07-01T12:00	4080	628	0.7	-8.5	252	2	
2025-07-01T12:00	4100	627	0.5	-8.7	242	2	
2025-07-01T12:00	4120	625	0.4	-9.5	234	2	
2025-07-01T12:00	4140	624	0.2	-10.2	226	2	
2025-07-01T12:00	4160	622	0.1	-9.2	220	2	
2025-07-01T12:00	4180	620	-0.1	-5.5	217	2	
2025-07-01T12:00	4200	619	-0.3	-3.6	217	2	
2025-07-01T12:00	4220	617	-0.5	-3.7	220	2	
2025-07-01T12:00	4240	616	-0.6	-3.9	223	2	
2025-07-01T12:00	4260	614	-0.6	-6.1	225	1	
2025-07-01T12:00	4280	613	-0.6	-6.9	226	1	
2025-07-01T12:00	4300	611	-0.7	-6.4	207	0	
2025-07-01T12:00	4320	610	-0.9	-6.5	87	0	
2025-07-01T12:00	4340	608	-1.0	-7.2	82	1	
2025-07-01T12:00	4360	607	-1.2	-7.7	85	1	
2025-07-01T12:00	4380	605	-1.3	-7.4	93	1	
2025-07-01T12:00	4400	604	-1.2	-8.4	102	1	
2025-07-01T12:00	4420	602	-1.1	-10.9	107	1	
2025-07-01T12:00	4440	600	-1.2	-13.7	110	1	
2025-07-01T12:00	4460	599	-1.4	-10.4	114	1	
2025-07-01T12:00	4480	598	-1.6	-10.1	120	1	
2025-07-01T12:00	4500	596	-1.6	-16.5	131	1	
2025-07-01T12:00	4520	595	-1.7	-18.5	144	1	
2025-07-01T12:00	4540	593	-1.8	-17.1	157	2	
2025-07-01T12:00	4560	592	-2.0	-15.8	168	2	
2025-07-01T12:00	4580	590	-2.2	-14.9	176	2	
2025-07-01T12:00	4600	589	-2.4	-14.2	184	2	
2025-07-01T12:00	4620	587	-2.7	-10.3	191	2	
2025-07-01T12:00	4640	586	-2.8	-8.7	195	2	
2025-07-01T12:00	4660	584	-2.8	-10.5	198	3	
2025-07-01T12:00	4680	583	-2.8	-11.5	199	3	
2025-07-01T12:00	4700	581	-2.9	-12.0	199	3	
2025-07-01T12:00	4720	580	-3.0	-13.9	199	2	
2025-07-01T12:00	4740	578	-3.1	-14.7	199	2	
2025-07-01T12:00	4760	577	-3.1	-25.9	202	2	
2025-07-01T12:00	4780	575	-3.1	-30.8	206	2	
2025-07-01T12:00	4800	574	-3.2	-30.1	211	2	
2025-07-01T12:00	4820	573	-3.3	-29.6	216	3	
2025-07-01T12:00	4840	571	-3.4	-29.0	221	3	
2025-07-01T12:00	4860	570	-3.5	-29.1	224	3	
2025-07-01T12:00	4880	568	-3.6	-29.3	225	3	
2025-07-01T12:00	4900	567	-3.8	-29.9	224	3	
2025-07-01T12:00	4920	565	-3.9	-29.8	222	4	
2025-07-01T12:00	4940	564	-4.1	-28.2	218	4	
2025-07-01T12:00	4960	563	-4.3	-28.4	213	4	
2025-07-01T12:00	4980	561	-4.4	-28.4	207	4	
2025-07-01T12:00	5000	560	-4.6	-28.3	201	4	
2025-07-01T12:00	5020	558	-4.7	-28.7	197	4	
2025-07-01T12:00	5040	557	-4.9	-29.4	195	5	
2025-07-01T12:00	5060	555	-5.1	-28.7	194	5	
2025-07-01T12:00	5080	554	-5.1	-28.1	194	5	
2025-07-01T12:00	5100	552	-5.2	-27.7	196	5	
2025-07-01T12:00	5120	551	-5.3	-28.4	199	5	
2025-07-01T12:00	5140	550	-5.4	-28.7	204	5	
2025-07-01T12:00	5160	548	-5.6	-25.5	209	5	
2025-07-01T12:00	5180	547	-5.8	-23.7	214	5	
2025-07-01T12:00	5200	546	-6.0	-21.4	218	5	
2025-07-01T12:00	5220	544	-6.2	-20.7	221	5	
2025-07-01T12:00	5240	543	-6.4	-20.4	223	5	
2025-07-01T12:00	5260	541	-6.6	-20.1	225	5	
2025-07-01T12:00	5280	540	-6.8	-20.6	226	5	
2025-07-01T12:00	5300	538	-7.0	-21.0	226	4	
2025-07-01T12:00	5320	537	-7.1	-22.1	225	4	
2025-07-01T12:00	5340	536	-7.3	-22.9	222	3	
2025-07-01T12:00	5360	534	-7.4	-24.2	216	3	
2025-07-01T12:00	5380	533	-7.5	-26.6	201	2	
2025-07-01T12:00	5400	532	-7.5	-30.2	185	2	
2025-07-01T12:00	5420	530	-7.4	-36.2	177	2	
2025-07-01T12:00	5440	529	-7.4	-37.2	174	2	
2025-07-01T12:00	5460	527	-7.4	-37.1	172	2	
2025-07-01T12:00	5480	526	-7.4	-37.0	173	2	
2025-07-01T12:00	5500	525	-7.6	-36.9	178	2	
2025-07-01T12:00	5520	524	-7.7	-36.4	189	1	
2025-07-01T12:00	5540	522	-7.8	-36.1	206	1	
2025-07-01T12:00	5560	521	-7.9	-36.1	232	1	
2025-07-01T12:00	5580	520	-8.0	-35.9	253	1	
2025-07-01T12:00	5600	518	-8.2	-35.5	267	2	
2025-07-01T12:00	5620	517	-8.4	-35.3	274	2	
2025-07-01T12:00	5640	515	-8.5	-35.1	276	2	
2025-07-01T12:00	5660	514	-8.6	-34.8	275	2	
2025-07-01T12:00	5680	513	-8.7	-35.7	268	1	
2025-07-01T12:00	5700	511	-8.9	-36.3	260	1	
2025-07-01T12:00	5720	510	-9.0	-36.2	253	2	
2025-07-01T12:00	5740	509	-9.2	-36.8	245	2	
2025-07-01T12:00	5760	508	-9.3	-36.8	238	2	
2025-07-01T12:00	5780	506	-9.5	-36.7	232	2	
2025-07-01T12:00	5800	505	-9.7	-36.7	228	2	
2025-07-01T12:00	5820	504	-9.8	-36.6	225	3	
2025-07-01T12:00	5840	502	-10.0	-36.2	223	3	
2025-07-01T12:00	5860	501	-10.1	-36.3	222	3	
2025-07-01T12:00	5880	500	-10.2	-37.1	222	3	
2025-07-01T12:00	5900	498	-10.3	-37.7	221	3	
2025-07-01T12:00	5920	497	-10.4	-37.7	221	3	
2025-07-01T12:00	5940	496	-10.5	-38.1	220	3	
2025-07-01T12:00	5960	495	-10.7	-37.8	219	3	
2025-07-01T12:00	5980	493	-10.8	-34.9	217	4	
2025-07-01T12:00	6000	492	-11.0	-30.5	216	4	
2025-07-01T12:00	6020	491	-11.1	-28.7	214	4	
2025-07-01T12:00	6040	490	-11.2	-29.7	213	4	
2025-07-01T12:00	6060	488	-11.4	-30.6	211	5	
2025-07-01T12:00	6080	487	-11.6	-31.1	211	5	
2025-07-01T12:00	6100	486	-11.8	-31.5	211	5	
2025-07-01T12:00	6120	484	-12.0	-31.4	212	5	
2025-07-01T12:00	6140	483	-12.1	-31.2	214	5	
2025-07-01T12:00	6160	482	-12.3	-30.9	218	5	
2025-07-01T12:00	6180	481	-12.5	-30.6	221	6	
2025-07-01T12:00	6200	479	-12.7	-30.0	224	6	
2025-07-01T12:00	6220	478	-12.9	-29.5	225	6	
2025-07-01T12:00	6240	477	-13.1	-29.9	226	6	
2025-07-01T12:00	6260	475	-13.3	-29.4	224	7	
2025-07-01T12:00	6280	474	-13.4	-29.3	223	7	
2025-07-01T12:00	6300	473	-13.5	-27.2	222	7	
2025-07-01T12:00	6320	472	-13.6	-23.9	220	7	
2025-07-01T12:00	6340	471	-13.7	-25.3	219	7	
2025-07-01T12:00	6360	469	-13.7	-28.4	219	6	
2025-07-01T12:00	6380	468	-13.8	-28.9	220	6	
2025-07-01T12:00	6400	467	-13.9	-28.8	220	6	
2025-07-01T12:00	6420	466	-14.1	-29.1	221	6	
2025-07-01T12:00	6440	464	-14.3	-29.2	220	6	
2025-07-01T12:00	6460	463	-14.4	-29.1	219	6	
2025-07-01T12:00	6480	462	-14.6	-28.3	218	6	
2025-07-01T12:00	6500	461	-14.8	-28.0	218	6	
2025-07-01T12:00	6520	459	-15.0	-28.6	217	6	
2025-07-01T12:00	6540	458	-15.1	-29.4	217	6	
2025-07-01T12:00	6560	457	-15.2	-30.8	218	6	
2025-07-01T12:00	6580	456	-15.4	-32.2	218	5	
2025-07-01T12:00	6600	455	-15.5	-33.4	218	5	
2025-07-01T12:00	6620	454	-15.7	-34.0	218	5	
2025-07-01T12:00	6640	452	-15.9	-35.0	218	6	
2025-07-01T12:00	6660	451	-16.1	-35.6	218	6	
2025-07-01T12:00	6680	450	-16.2	-36.1	219	5	
2025-07-01T12:00	6700	449	-16.4	-36.9	220	5	
2025-07-01T12:00	6720	448	-16.5	-37.1	222	5	
2025-07-01T12:00	6740	446	-16.5	-35.8	224	5	
2025-07-01T12:00	6760	445	-16.6	-35.4	225	5	
2025-07-01T12:00	6780	444	-16.7	-34.0	226	5	
2025-07-01T12:00	6800	443	-16.8	-31.8	226	5	
2025-07-01T12:00	6820	442	-17.0	-30.8	226	5	
2025-07-01T12:00	6840	440	-17.1	-30.3	226	5	
2025-07-01T12:00	6860	439	-17.3	-30.1	226	5	
2025-07-01T12:00	6880	438	-17.5	-29.9	227	5	
2025-07-01T12:00	6900	437	-17.7	-29.7	230	5	
2025-07-01T12:00	6920	436	-17.9	-29.1	232	5	
2025-07-01T12:00	6940	434	-18.1	-28.9	233	5	
2025-07-01T12:00	6960	433	-18.2	-28.9	234	6	
2025-07-01T12:00	6980	432	-18.4	-28.9	234	6	
2025-07-01T12:00	7000	431	-18.6	-29.1	233	6	
2025-07-01T12:00	7020	430	-18.8	-29.0	232	7	
2025-07-01T12:00	7040	429	-18.9	-29.0	231	7	
2025-07-01T12:00	7060	428	-19.1	-29.1	231	7	
2025-07-01T12:00	7080	426	-19.2	-29.0	231	7	
2025-07-01T12:00	7100	425	-19.3	-30.1	231	7	
2025-07-01T12:00	7120	424	-19.5	-30.5	231	7	
2025-07-01T12:00	7140	423	-19.6	-30.4	232	8	
2025-07-01T12:00	7160	422	-19.7	-31.5	233	8	
2025-07-01T12:00	7180	421	-19.9	-31.3	235	8	
2025-07-01T12:00	7200	420	-20.0	-31.2	237	8	
2025-07-01T12:00	7220	418	-20.2	-31.2	239	8	
2025-07-01T12:00	7240	417	-20.4	-31.2	241	8	
2025-07-01T12:00	7260	416	-20.6	-31.4	243	8	
2025-07-01T12:00	7280	415	-20.8	-31.5	244	8	
2025-07-01T12:00	7300	414	-20.9	-31.5	245	8	
2025-07-01T12:00	7320	413	-21.1	-31.6	246	8	
2025-07-01T12:00	7340	412	-21.3	-31.5	247	8	
2025-07-01T12:00	7360	411	-21.5	-31.6	248	8	
2025-07-01T12:00	7380	410	-21.7	-31.6	248	8	
2025-07-01T12:00	7400	408	-21.9	-31.6	249	8	
2025-07-01T12:00	7420	407	-22.1	-31.7	249	8	
2025-07-01T12:00	7440	406	-22.3	-31.7	249	8	
2025-07-01T12:00	7460	405	-22.5	-31.8	249	8	
2025-07-01T12:00	7480	404	-22.7	-31.7	248	8	
2025-07-01T12:00	7500	403	-22.8	-31.8	248	8	
2025-07-01T12:00	7520	402	-23.1	-31.7	247	8	
2025-07-01T12:00	7540	401	-23.2	-31.8	247	8	
2025-07-01T12:00	7560	400	-23.4	-32.1	248	8	
2025-07-01T12:00	7580	399	-23.6	-32.2	249	7	
2025-07-01T12:00	7600	397	-23.7	-32.6	250	7	
2025-07-01T12:00	7620	396	-23.9	-32.8	252	7	
2025-07-01T12:00	7640	395	-24.0	-33.2	253	7	
2025-07-01T12:00	7660	394	-24.2	-34.1	254	7	
2025-07-01T12:00	7680	393	-24.4	-34.4	255	7	
2025-07-01T12:00	7700	392	-24.5	-34.7	255	7	
2025-07-01T12:00	7720	391	-24.7	-34.8	254	7	
2025-07-01T12:00	7740	390	-24.9	-34.3	254	7	
2025-07-01T12:00	7760	389	-25.1	-34.9	252	7	
2025-07-01T12:00	7780	388	-25.2	-36.9	251	8	
2025-07-01T12:00	7800	387	-25.3	-38.5	251	8	
2025-07-01T12:00	7820	386	-25.4	-40.4	250	8	
2025-07-01T12:00	7840	384	-25.5	-42.0	250	8	
2025-07-01T12:00	7860	383	-25.6	-40.2	250	8	
2025-07-01T12:00	7880	382	-25.7	-39.9	250	8	
2025-07-01T12:00	7900	381	-25.9	-40.2	250	8	
2025-07-01T12:00	7920	380	-26.0	-40.3	250	8	
2025-07-01T12:00	7940	379	-26.2	-40.1	249	8	
2025-07-01T12:00	7960	378	-26.4	-40.7	247	8	
2025-07-01T12:00	7980	377	-26.6	-40.9	246	8	
2025-07-01T12:00	8000	376	-26.7	-41.5	243	8	
2025-07-01T12:00	8020	375	-26.9	-42.0	241	8	
2025-07-01T12:00	8040	374	-27.0	-41.0	239	8	
2025-07-01T12:00	8060	373	-27.1	-40.6	239	8	
2025-07-01T12:00	8080	372	-27.3	-40.5	239	8	
2025-07-01T12:00	8100	371	-27.4	-39.9	239	8	
2025-07-01T12:00	8120	370	-27.6	-39.8	240	8	
2025-07-01T12:00	8140	369	-27.6	-44.9	240	8	
2025-07-01T12:00	8160	368	-27.6	-46.4	240	8	
2025-07-01T12:00	8180	367	-27.8	-45.7	239	8	
2025-07-01T12:00	8200	366	-28.0	-46.8	237	8	
2025-07-01T12:00	8220	365	-28.1	-46.0	235	8	
2025-07-01T12:00	8240	364	-28.3	-46.2	233	8	
2025-07-01T12:00	8260	363	-28.5	-48.8	231	8	
2025-07-01T12:00	8280	362	-28.7	-48.8	229	8	
2025-07-01T12:00	8300	361	-28.8	-48.1	227	8	
2025-07-01T12:00	8320	360	-29.0	-51.6	226	8	
2025-07-01T12:00	8340	359	-29.2	-50.8	225	8	
2025-07-01T12:00	8360	358	-29.3	-53.5	224	8	
2025-07-01T12:00	8380	357	-29.4	-56.2	224	8	
2025-07-01T12:00	8400	356	-29.5	-56.7	225	7	
2025-07-01T12:00	8420	355	-29.7	-56.7	226	7	
2025-07-01T12:00	8440	354	-29.9	-56.7	229	7	
2025-07-01T12:00	8460	353	-30.0	-56.8	230	7	
2025-07-01T12:00	8480	352	-30.2	-56.9	232	6	
2025-07-01T12:00	8500	351	-30.3	-57.0	232	6	
2025-07-01T12:00	8520	350	-30.4	-57.1	232	6	
2025-07-01T12:00	8540	349	-30.5	-57.1	232	7	
2025-07-01T12:00	8560	348	-30.7	-57.1	231	7	
2025-07-01T12:00	8580	347	-30.9	-57.1	231	7	
2025-07-01T12:00	8600	346	-31.0	-57.1	232	8	
2025-07-01T12:00	8620	345	-31.2	-57.3	233	8	
2025-07-01T12:00	8640	344	-31.4	-57.3	235	8	
2025-07-01T12:00	8660	343	-31.5	-57.3	236	9	
2025-07-01T12:00	8680	342	-31.7	-57.2	236	9	
2025-07-01T12:00	8700	341	-31.8	-56.6	237	9	
2025-07-01T12:00	8720	340	-31.9	-55.5	237	9	
2025-07-01T12:00	8740	339	-32.0	-55.6	237	9	
2025-07-01T12:00	8760	338	-32.2	-55.9	238	8	
2025-07-01T12:00	8780	337	-32.3	-56.6	239	8	
2025-07-01T12:00	8800	336	-32.4	-57.1	241	8	
2025-07-01T12:00	8820	335	-32.5	-58.0	243	8	
2025-07-01T12:00	8840	334	-32.5	-59.3	247	7	
2025-07-01T12:00	8860	333	-32.6	-59.7	251	7	
2025-07-01T12:00	8880	332	-32.7	-59.4	253	7	
2025-07-01T12:00	8900	331	-32.8	-59.5	255	8	
2025-07-01T12:00	8920	331	-32.9	-59.5	257	8	
2025-07-01T12:00	8940	330	-33.0	-59.5	258	8	
2025-07-01T12:00	8960	329	-33.1	-59.5	259	8	
2025-07-01T12:00	8980	328	-33.3	-59.4	260	8	
2025-07-01T12:00	9000	327	-33.3	-59.5	260	8	
2025-07-01T12:00	9020	326	-33.4	-59.6	259	8	
2025-07-01T12:00	9040	325	-33.5	-59.7	258	8	
2025-07-01T12:00	9060	324	-33.6	-59.7	257	8	
2025-07-01T12:00	9080	323	-33.6	-59.8	256	8	
2025-07-01T12:00	9100	322	-33.8	-59.9	255	9	
2025-07-01T12:00	9120	321	-33.9	-60.1	255	9	
2025-07-01T12:00	9140	320	-34.0	-60.3	255	9	
2025-07-01T12:00	9160	319	-34.0	-60.4	257	9	
2025-07-01T12:00	9180	319	-34.1	-60.6	259	9	
2025-07-01T12:00	9200	318	-34.2	-60.6	262	9	
2025-07-01T12:00	9220	317	-34.3	-60.7	265	9	
2025-07-01T12:00	9240	316	-34.4	-60.8	268	9	
2025-07-01T12:00	9260	315	-34.6	-60.9	270	8	
2025-07-01T12:00	9280	314	-34.6	-61.0	271	8	
2025-07-01T12:00	9300	313	-34.7	-61.3	272	8	
2025-07-01T12:00	9320	312	-34.7	-61.3	272	7	
2025-07-01T12:00	9340	311	-34.9	-60.6	272	7	
2025-07-01T12:00	9360	310	-35.0	-56.6	273	6	
2025-07-01T12:00	9380	309	-35.1	-53.2	275	6	
2025-07-01T12:00	9400	309	-35.2	-54.4	278	6	
2025-07-01T12:00	9420	308	-35.3	-54.6	280	6	
2025-07-01T12:00	9440	307	-35.4	-54.8	285	6	
2025-07-01T12:00	9460	306	-35.5	-60.9	288	6	
2025-07-01T12:00	9480	305	-35.3	-63.6	289	6	
2025-07-01T12:00	9500	304	-35.3	-62.8	290	6	
2025-07-01T12:00	9520	303	-35.4	-62.6	290	6	
2025-07-01T12:00	9540	302	-35.6	-62.6	290	6	
2025-07-01T12:00	9560	302	-35.7	-62.8	290	6	
2025-07-01T12:00	9580	301	-35.8	-62.8	290	5	
2025-07-01T12:00	9600	300	-35.9	-63.0	291	5	
2025-07-01T12:00	9620	299	-35.6	-63.3	293	5	
2025-07-01T12:00	9640	298	-35.6	-63.4	296	4	
2025-07-01T12:00	9660	297	-35.6	-63.4	299	4	
2025-07-01T12:00	9680	296	-35.7	-63.5	303	4	
2025-07-01T12:00	9700	296	-35.8	-63.6	307	4	
2025-07-01T12:00	9720	295	-36.0	-63.6	311	4	
2025-07-01T12:00	9740	294	-36.2	-63.7	314	3	
2025-07-01T12:00	9760	293	-36.3	-63.8	315	3	
2025-07-01T12:00	9780	292	-36.4	-63.8	313	3	
2025-07-01T12:00	9800	291	-36.5	-63.9	308	3	
2025-07-01T12:00	9820	291	-36.7	-64.0	303	3	
2025-07-01T12:00	9840	290	-36.8	-64.0	295	3	
2025-07-01T12:00	9860	289	-36.9	-64.1	289	3	
2025-07-01T12:00	9880	288	-37.1	-64.2	286	3	
2025-07-01T12:00	9900	287	-37.3	-64.1	286	3	
2025-07-01T12:00	9920	286	-37.4	-64.2	287	3	
2025-07-01T12:00	9940	286	-37.4	-64.4	292	3	
2025-07-01T12:00	9960	285	-37.5	-64.6	298	3	
2025-07-01T12:00	9980	284	-37.6	-64.5	305	3	
2025-07-01T12:00	10000	283	-37.7	-64.7	313	3	
2025-07-01T12:00	10018	282	-37.7	-64.8	320	3	
2025-07-01T12:00	10050	281	-37.9	-65.1	327	3	
2025-07-01T12:00	10100	279	-37.9	-65.5	335	4	
2025-07-01T12:00	10150	277	-38.0	-66.2	338	4	
2025-07-01T12:00	10200	275	-38.3	-66.6	336	5	
2025-07-01T12:00	10250	273	-38.5	-66.7	335	6	
2025-07-01T12:00	10300	271	-38.6	-66.5	334	6	
2025-07-01T12:00	10350	269	-38.6	-67.2	331	6	
2025-07-01T12:00	10400	267	-38.7	-67.4	327	5	
2025-07-01T12:00	10450	265	-39.0	-67.4	321	4	
2025-07-01T12:00	10500	263	-39.3	-67.5	316	4	
2025-07-01T12:00	10550	261	-39.8	-67.5	312	4	
2025-07-01T12:00	10600	259	-40.2	-67.5	311	3	
2025-07-01T12:00	10650	257	-40.4	-67.8	314	4	
2025-07-01T12:00	10700	256	-40.6	-68.1	314	4	
2025-07-01T12:00	10750	254	-41.0	-68.2	313	5	
2025-07-01T12:00	10800	252	-41.4	-68.3	313	5	
2025-07-01T12:00	10850	250	-41.7	-68.5	312	5	
2025-07-01T12:00	10900	248	-42.0	-68.9	312	5	
2025-07-01T12:00	10950	246	-42.3	-69.2	317	6	
2025-07-01T12:00	11000	245	-42.5	-69.6	322	6	
2025-07-01T12:00	11050	243	-42.6	-70.1	325	6	
2025-07-01T12:00	11100	241	-43.0	-70.2	323	6	
2025-07-01T12:00	11150	239	-43.2	-70.6	320	6	
2025-07-01T12:00	11200	237	-42.9	-71.6	316	5	
2025-07-01T12:00	11250	236	-42.7	-72.3	304	4	
2025-07-01T12:00	11300	234	-42.8	-72.4	285	3	
2025-07-01T12:00	11350	232	-43.0	-72.1	280	4	
2025-07-01T12:00	11400	230	-43.3	-70.1	273	5	
2025-07-01T12:00	11450	229	-43.5	-69.7	268	6	
2025-07-01T12:00	11500	227	-43.5	-70.1	267	7	
2025-07-01T12:00	11550	225	-43.5	-70.6	269	7	
2025-07-01T12:00	11600	224	-43.8	-71.0	271	7	
2025-07-01T12:00	11650	222	-44.0	-71.2	272	8	
2025-07-01T12:00	11700	220	-44.1	-71.4	272	8	
2025-07-01T12:00	11750	219	-44.2	-72.1	272	8	
2025-07-01T12:00	11800	217	-44.2	-72.5	273	8	
2025-07-01T12:00	11850	216	-44.0	-72.9	274	8	
2025-07-01T12:00	11900	214	-44.2	-73.1	275	8	
2025-07-01T12:00	11950	212	-44.5	-73.2	275	7	
2025-07-01T12:00	12000	211	-44.7	-73.5	275	7	
2025-07-01T12:00	12050	209	-44.8	-73.7	275	7	
2025-07-01T12:00	12100	208	-45.2	-73.7	274	8	
2025-07-01T12:00	12150	206	-45.6	-73.9	271	8	
2025-07-01T12:00	12200	205	-46.1	-74.0	266	9	
2025-07-01T12:00	12250	203	-46.2	-74.4	263	10	
2025-07-01T12:00	12300	201	-46.2	-74.9	262	10	
2025-07-01T12:00	12350	200	-46.4	-75.3	261	11	
2025-07-01T12:00	12400	198	-46.4	-75.8	259	10	
2025-07-01T12:00	12450	197	-46.7	-75.9	257	10	
2025-07-01T12:00	12500	195	-47.1	-76.1	253	9	
2025-07-01T12:00	12550	194	-47.4	-76.3	250	9	
2025-07-01T12:00	12600	193	-47.7	-76.5	246	9	
2025-07-01T12:00	12650	191	-48.0	-76.6	241	9	
2025-07-01T12:00	12700	190	-48.4	-76.8	236	10	
2025-07-01T12:00	12750	188	-48.6	-76.9	234	11	
2025-07-01T12:00	12800	187	-48.8	-76.9	235	12	
2025-07-01T12:00	12850	185	-49.0	-77.0	237	13	
2025-07-01T12:00	12900	184	-49.4	-77.1	241	13	
2025-07-01T12:00	12950	183	-49.6	-77.1	246	13	
2025-07-01T12:00	13000	181	-49.8	-77.3	249	13	
2025-07-01T12:00	13050	180	-49.8	-77.4	248	12	
2025-07-01T12:00	13100	178	-50.0	-77.5	244	12	
2025-07-01T12:00	13150	177	-50.3	-77.6	240	11	
2025-07-01T12:00	13200	176	-50.5	-77.6	241	12	
2025-07-01T12:00	13250	174	-50.5	-77.6	243	13	
2025-07-01T12:00	13300	173	-50.6	-77.6	245	13	
2025-07-01T12:00	13350	172	-50.5	-77.8	247	13	
2025-07-01T12:00	13400	170	-50.5	-77.9	247	13	
2025-07-01T12:00	13450	169	-50.7	-78.2	244	12	
2025-07-01T12:00	13500	168	-50.9	-78.5	243	11	
2025-07-01T12:00	13550	166	-51.0	-78.8	246	11	
2025-07-01T12:00	13600	165	-51.3	-78.9	250	11	
2025-07-01T12:00	13650	164	-51.5	-79.1	252	11	
2025-07-01T12:00	13700	163	-51.7	-79.4	253	10	
2025-07-01T12:00	13750	161	-51.9	-79.7	256	9	
2025-07-01T12:00	13800	160	-52.1	-79.8	259	8	
2025-07-01T12:00	13850	159	-52.4	-79.9	261	8	
2025-07-01T12:00	13900	158	-52.8	-80.1	260	7	
2025-07-01T12:00	13950	156	-53.0	-80.1	256	7	
2025-07-01T12:00	14000	155	-53.3	-80.4	249	6	
2025-07-01T12:00	14050	154	-53.7	-80.5	241	6	
2025-07-01T12:00	14100	153	-54.1	-80.6	231	6	
2025-07-01T12:00	14150	152	-54.3	-80.7	219	6	
2025-07-01T12:00	14200	150	-54.6	-80.9	205	6	
2025-07-01T12:00	14250	149	-54.9	-81.1	195	6	
2025-07-01T12:00	14300	148	-55.2	-81.3	190	7	
2025-07-01T12:00	14350	147	-55.5	-81.4	187	7	
2025-07-01T12:00	14400	146	-55.8	-81.5	187	7	
2025-07-01T12:00	14450	145	-56.2	-81.7	188	6	
2025-07-01T12:00	14500	144	-56.5	-81.8	189	6	
2025-07-01T12:00	14550	143	-56.6	-81.9	190	7	
2025-07-01T12:00	14600	141	-56.9	-82.0	186	7	
2025-07-01T12:00	14650	140	-57.3	-82.1	181	7	
2025-07-01T12:00	14700	139	-57.6	-82.3	177	7	
2025-07-01T12:00	14750	138	-57.8	-82.3	176	7	
2025-07-01T12:00	14800	137	-58.0	-82.3	180	7	
2025-07-01T12:00	14850	136	-58.1	-82.1	187	6	
2025-07-01T12:00	14900	135	-58.4	-82.0	196	6	
2025-07-01T12:00	14950	134	-58.8	-82.1	201	6	
2025-07-01T12:00	15000	133	-59.0	-82.4	201	5	
2025-07-01T12:00	15050	132	-59.2	-82.7	202	5	
2025-07-01T12:00	15100	131	-59.3	-83.1	203	5	
2025-07-01T12:00	15150	130	-59.2	-83.2	203	6	
2025-07-01T12:00	15200	129	-59.4	-83.3	203	8	
2025-07-01T12:00	15250	127	-59.8	-83.3	205	9	
2025-07-01T12:00	15300	126	-60.2	-83.4	207	9	
2025-07-01T12:00	15350	125	-60.5	-83.4	209	9	
2025-07-01T12:00	15400	124	-60.8	-83.5	209	8	
2025-07-01T12:00	15450	123	-61.1	-83.5	210	8	
2025-07-01T12:00	15500	122	-61.5	-83.6	213	8	
2025-07-01T12:00	15550	121	-61.9	-83.7	216	8	
2025-07-01T12:00	15600	120	-62.2	-83.7	218	8	
2025-07-01T12:00	15650	120	-62.3	-83.9	220	8	
2025-07-01T12:00	15700	119	-61.8	-83.8	220	7	
2025-07-01T12:00	15750	118	-61.9	-84.1	214	7	
2025-07-01T12:00	15800	117	-62.0	-84.3	204	6	
2025-07-01T12:00	15850	116	-61.9	-84.4	205	5	
2025-07-01T12:00	15900	115	-61.6	-84.3	217	6	
2025-07-01T12:00	15950	114	-61.8	-84.5	227	6	
2025-07-01T12:00	16000	113	-61.9	-84.5	230	6	
2025-07-01T12:00	16050	112	-62.1	-84.6	230	6	
2025-07-01T12:00	16100	111	-62.1	-84.6	228	5	
2025-07-01T12:00	16150	110	-62.3	-84.7	222	5	
2025-07-01T12:00	16200	109	-62.5	-84.9	208	4	
2025-07-01T12:00	16250	108	-62.4	-84.9	190	3	
2025-07-01T12:00	16300	108	-62.5	-84.8	173	3	
2025-07-01T12:00	16350	107	-62.8	-84.9	157	3	
2025-07-01T12:00	16400	106	-63.1	-85.1	151	3	
2025-07-01T12:00	16450	105	-63.0	-85.2	164	4	
2025-07-01T12:00	16500	104	-63.2	-85.2	184	5	
2025-07-01T12:00	16550	103	-63.2	-85.3	198	6	
2025-07-01T12:00	16600	102	-63.0	-85.2	210	6	
2025-07-01T12:00	16650	102	-63.1	-85.3	223	6	
2025-07-01T12:00	16700	101	-63.4	-85.3	234	7	
2025-07-01T12:00	16750	100	-63.7	-85.4	244	7	
2025-07-01T12:00	16800	99	-63.7	-85.6	251	7	
2025-07-01T12:00	16850	98	-63.3	-85.7	257	5	
2025-07-01T12:00	16900	98	-62.8	-85.6	261	4	
2025-07-01T12:00	16950	97	-62.9	-85.8	260	2	
2025-07-01T12:00	17000	96	-62.7	-85.8	230	2	
2025-07-01T12:00	17050	95	-62.5	-85.8	189	2	
2025-07-01T12:00	17100	94	-62.1	-85.8	183	4	
2025-07-01T12:00	17150	94	-62.1	-85.8	187	5	
2025-07-01T12:00	17200	93	-62.3	-85.9	187	5	
2025-07-01T12:00	17250	92	-62.1	-85.8	183	6	
2025-07-01T12:00	17300	91	-61.7	-85.7	180	6	
2025-07-01T12:00	17350	91	-61.5	-85.9	184	6	
2025-07-01T12:00	17400	90	-61.6	-85.9	189	6	
2025-07-01T12:00	17450	89	-61.7	-85.7	192	6	
2025-07-01T12:00	17500	89	-62.0	-85.8	196	6	
2025-07-01T12:00	17550	88	-62.2	-85.9	201	6	
2025-07-01T12:00	17600	87	-62.3	-86.0	207	6	
2025-07-01T12:00	17650	86	-62.3	-86.2	210	5	
2025-07-01T12:00	17700	86	-62.4	-86.3	206	4	
2025-07-01T12:00	17750	85	-62.2	-86.2	189	3	
2025-07-01T12:00	17800	84	-62.2	-86.1	169	3	
2025-07-01T12:00	17850	84	-62.5	-86.2	157	4	
2025-07-01T12:00	17900	83	-62.9	-86.3	149	5	
2025-07-01T12:00	17950	82	-63.1	-86.4	144	5	
2025-07-01T12:00	18000	82	-62.9	-86.3	146	4	
2025-07-01T12:00	18050	81	-63.1	-86.4	155	3	
2025-07-01T12:00	18100	80	-63.4	-86.5	169	2	
2025-07-01T12:00	18150	80	-63.5	-86.6	172	2	
2025-07-01T12:00	18200	79	-63.4	-86.6	171	2	
2025-07-01T12:00	18250	78	-63.6	-86.6	181	2	
2025-07-01T12:00	18300	78	-63.9	-86.7	197	1	
2025-07-01T12:00	18350	77	-63.9	-86.8	187	1	
2025-07-01T12:00	18400	77	-63.8	-86.8	165	2	
2025-07-01T12:00	18450	76	-63.7	-86.8	154	3	
2025-07-01T12:00	18500	75	-63.6	-87.0	153	3	
2025-07-01T12:00	18550	75	-62.9	-87.0	156	4	
2025-07-01T12:00	18600	74	-62.2	-86.8	153	3	
2025-07-01T12:00	18650	73	-62.2	-86.7	144	3	
2025-07-01T12:00	18700	73	-62.3	-86.6	132	2	
2025-07-01T12:00	18750	72	-62.4	-86.8	120	3	
2025-07-01T12:00	18800	72	-61.9	-86.6	122	4	
2025-07-01T12:00	18850	71	-61.8	-86.6	129	4	
2025-07-01T12:00	18900	71	-62.0	-86.5	135	5	
2025-07-01T12:00	18950	70	-62.4	-86.6	136	5	
2025-07-01T12:00	19000	69	-62.7	-86.7	136	6	
2025-07-01T12:00	19050	69	-62.4	-86.7	141	7	
2025-07-01T12:00	19100	68	-62.2	-86.7	149	7	
2025-07-01T12:00	19150	68	-62.2	-86.7	158	7	
2025-07-01T12:00	19200	67	-62.3	-86.8	165	7	
2025-07-01T12:00	19250	67	-62.2	-86.7	169	6	
2025-07-01T12:00	19300	66	-62.2	-86.7	166	5	
2025-07-01T12:00	19350	66	-62.4	-86.7	160	4	
2025-07-01T12:00	19400	65	-62.6	-86.8	152	4	
2025-07-01T12:00	19450	65	-62.7	-86.9	145	3	
2025-07-01T12:00	19500	64	-62.6	-87.0	142	2	
2025-07-01T12:00	19550	63	-62.3	-86.9	143	2	
2025-07-01T12:00	19600	63	-62.2	-86.8	144	2	
2025-07-01T12:00	19650	62	-62.5	-86.9	141	2	
2025-07-01T12:00	19700	62	-62.6	-86.9	133	2	
2025-07-01T12:00	19750	61	-62.6	-87.1	116	3	
2025-07-01T12:00	19800	61	-62.2	-87.0	100	4	
2025-07-01T12:00	19850	60	-62.1	-87.0	95	5	
2025-07-01T12:00	19900	60	-62.0	-86.9	100	5	
2025-07-01T12:00	19950	59	-62.0	-86.9	106	6	
2025-07-01T12:00	20000	59	-62.0	-86.8	110	6	
2025-07-01T12:00	20050	59	-62.2		109	6	
2025-07-01T12:00	20100	58	-62.3		104	7	
2025-07-01T12:00	20150	58	-61.7		101	8	
2025-07-01T12:00	20200	57	-61.1		101	10	
2025-07-01T12:00	20250	57	-60.9		102	11	
2025-07-01T12:00	20300	56	-61.0		104	11	
2025-07-01T12:00	20350	56	-61.1		108	11	
2025-07-01T12:00	20400	55	-61.2		114	10	
2025-07-01T12:00	20450	55	-61.2		120	10	
2025-07-01T12:00	20500	54	-61.3		126	9	
2025-07-01T12:00	20550	54	-61.4		127	9	
2025-07-01T12:00	20600	54	-61.4		124	9	
2025-07-01T12:00	20650	53	-61.3		119	9	
2025-07-01T12:00	20700	53	-61.0		114	9	
2025-07-01T12:00	20750	52	-60.7		110	9	
2025-07-01T12:00	20800	52	-60.6		109	9	
2025-07-01T12:00	20850	51	-60.5		110	9	
2025-07-01T12:00	20900	51	-60.1		112	10	
2025-07-01T12:00	20950	51	-59.6		115	10	
2025-07-01T12:00	21000	50	-59.0		120	10	
2025-07-01T12:00	21050	50	-58.3		124	9	
2025-07-01T12:00	21100	49	-58.0		125	9	
2025-07-01T12:00	21150	49	-57.9		123	8	
2025-07-01T12:00	21200	49	-58.0		118	7	
2025-07-01T12:00	21250	48	-58.3		115	7	
2025-07-01T12:00	21300	48	-58.3		119	8	
2025-07-01T12:00	21350	48	-58.3		128	9	
2025-07-01T12:00	21400	47	-58.3		137	9	
2025-07-01T12:00	21450	47	-58.5		142	8	
2025-07-01T12:00	21500	46	-58.5		138	8	
2025-07-01T12:00	21550	46	-58.3		128	7	
2025-07-01T12:00	21600	46	-58.2		119	7	
2025-07-01T12:00	21650	45	-58.3		110	8	
2025-07-01T12:00	21700	45	-58.1		106	8	
2025-07-01T12:00	21750	45	-58.0		106	9	
2025-07-01T12:00	21800	44	-57.9		109	9	
2025-07-01T12:00	21850	44	-57.1		112	10	
2025-07-01T12:00	21900	44	-56.5		113	11	
2025-07-01T12:00	21950	43	-56.1		115	11	
2025-07-01T12:00	22000	43	-55.9		118	11	
2025-07-01T12:00	22050	43	-55.5		121	10	
2025-07-01T12:00	22100	42	-55.5		123	9	
2025-07-01T12:00	22150	42	-55.8		126	8	
2025-07-01T12:00	22200	42	-56.2		129	7	
2025-07-01T12:00	22250	41	-56.5		124	6	
2025-07-01T12:00	22300	41	-56.5		111	6	
2025-07-01T12:00	22350	41	-56.1		100	7	
2025-07-01T12:00	22400	40	-56.1		95	9	
2025-07-01T12:00	22450	40	-55.9		94	10	
2025-07-01T12:00	22500	40	-55.9		97	11	
2025-07-01T12:00	22550	39	-55.9		100	10	
2025-07-01T12:00	22600	39	-55.7		102	10	
2025-07-01T12:00	22650	39	-55.6		102	10	
2025-07-01T12:00	22700	38	-55.6		102	10	
2025-07-01T12:00	22750	38	-55.8		103	11	
2025-07-01T12:00	22800	38	-55.7		105	10	
2025-07-01T12:00	22850	38	-55.5		108	10	
2025-07-01T12:00	22900	37	-55.1		110	9	
2025-07-01T12:00	22950	37	-55.1		107	8	
2025-07-01T12:00	23000	37	-55.1		97	7	
2025-07-01T12:00	23050	36	-55.1		83	7	
2025-07-01T12:00	23100	36	-54.9		74	8	
2025-07-01T12:00	23150	36	-54.7		71	9	
2025-07-01T12:00	23200	35	-54.6		72	10	
2025-07-01T12:00	23250	35	-54.5		78	11	
2025-07-01T12:00	23300	35	-54.4		85	12	
2025-07-01T12:00	23350	35	-54.2		93	13	
2025-07-01T12:00	23400	34	-54.1		100	14	
2025-07-01T12:00	23450	34	-53.8		105	14	
2025-07-01T12:00	23500	34	-53.7		108	14	
2025-07-01T12:00	23550	34	-53.9		109	14	
2025-07-01T12:00	23600	33	-53.9		109	14	
2025-07-01T12:00	23650	33	-53.8		110	14	
2025-07-01T12:00	23700	33	-53.8		115	15	
2025-07-01T12:00	23750	33	-53.5		122	15	
2025-07-01T12:00	23800	32	-53.0		126	15	
2025-07-01T12:00	23850	32	-52.7		128	15	
2025-07-01T12:00	23900	32	-52.4		128	15	
2025-07-01T12:00	23950	32	-52.3		132	14	
2025-07-01T12:00	24000	31	-52.1		138	14	
2025-07-01T12:00	24050	31	-51.9		143	13	
2025-07-01T12:00	24100	31	-52.0		147	13	
2025-07-01T12:00	24150	31	-52.0		149	12	
2025-07-01T12:00	24200	30	-52.0		149	11	
2025-07-01T12:00	24250	30	-51.6		148	9	
2025-07-01T12:00	24300	30	-51.4		144	8	
2025-07-01T12:00	24350	30	-51.4		137	7	
2025-07-01T12:00	24400	29	-51.5		126	6	
2025-07-01T12:00	24450	29	-51.6		114	6	
2025-07-01T12:00	24500	29	-51.8		105	7	
2025-07-01T12:00	24550	29	-51.8		98	7	
2025-07-01T12:00	24600	29	-51.8		95	8	
2025-07-01T12:00	24650	28	-51.5		96	9	
2025-07-01T12:00	24700	28	-51.1		99	10	
2025-07-01T12:00	24750	28	-50.7		103	10	
2025-07-01T12:00	24800	28	-49.9		104	10	
2025-07-01T12:00	24850	28	-49.4		98	9	
2025-07-01T12:00	24900	27	-49.3		88	9	
2025-07-01T12:00	24950	27	-49.2		78	10	
2025-07-01T12:00	25000	27	-48.8		74	12	
2025-07-01T12:00	25050	27	-48.7		75	13	
2025-07-01T12:00	25100	26	-48.9		79	14	
2025-07-01T12:00	25150	26	-49.0		83	14	
2025-07-01T12:00	25200	26	-49.0		88	14	
2025-07-01T12:00	25250	26	-49.1		94	13	
2025-07-01T12:00	25300	26	-49.2		100	13	
2025-07-01T12:00	25350	25	-49.4		103	13	
2025-07-01T12:00	25400	25	-49.4		105	13	
2025-07-01T12:00	25450	25	-49.4		104	13	
2025-07-01T12:00	25500	25	-49.5		103	13	
2025-07-01T12:00	25550	25	-49.8		101	12	
2025-07-01T12:00	25600	25	-49.9		99	12	
2025-07-01T12:00	25650	24	-50.0		96	12	
2025-07-01T12:00	25700	24	-50.1		93	12	
2025-07-01T12:00	25750	24	-50.0		93	11	
2025-07-01T12:00	25800	24	-50.1		96	12	
2025-07-01T12:00	25850	24	-50.2		101	11	
2025-07-01T12:00	25900	23	-50.4		104	11	
2025-07-01T12:00	25950	23	-50.6		103	10	
2025-07-01T12:00	26000	23	-50.4		98	10	
2025-07-01T12:00	26050	23	-49.8		93	10	
2025-07-01T12:00	26100	23	-49.3		90	11	
2025-07-01T12:00	26150	23	-48.7		90	11	
2025-07-01T12:00	26200	22	-48.3		91	12	
2025-07-01T12:00	26250	22	-48.0		89	12	
2025-07-01T12:00	26300	22	-47.8		86	10	
2025-07-01T12:00	26350	22	-47.7		84	9	
2025-07-01T12:00	26400	22	-47.9		82	8	
2025-07-01T12:00	26450	22	-47.9		79	9	
2025-07-01T12:00	26500	21	-47.4		77	11	
2025-07-01T12:00	26550	21	-47.0		77	12	
2025-07-01T12:00	26600	21	-46.7		77	13	
2025-07-01T12:00	26650	21	-46.2		78	13	
2025-07-01T12:00	26700	21	-46.0		80	14	
2025-07-01T12:00	26750	21	-46.0		85	14	
2025-07-01T12:00	26800	20	-46.0		90	15	
2025-07-01T12:00	26850	20	-45.9		95	15	
2025-07-01T12:00	26900	20	-45.9		99	15	
2025-07-01T12:00	26950	20	-46.0		103	15	
2025-07-01T12:00	27000	20	-46.2		105	15	
2025-07-01T12:00	27050	20	-46.3		108	14	
2025-07-01T12:00	27100	20	-46.5		109	14	
2025-07-01T12:00	27150	19	-46.5		110	14	
2025-07-01T12:00	27200	19	-46.4		110	14	
2025-07-01T12:00	27250	19	-46.4		109	13	
2025-07-01T12:00	27300	19	-46.4		109	13	
2025-07-01T12:00	27350	19	-46.3		110	12	
2025-07-01T12:00	27400	19	-46.2		110	12	
2025-07-01T12:00	27450	19	-46.2		109	12	
2025-07-01T12:00	27500	18	-46.1		105	12	
2025-07-01T12:00	27550	18	-46.0		101	12	
2025-07-01T12:00	27600	18	-45.8		99	12	
2025-07-01T12:00	27650	18	-45.7		100	12	
2025-07-01T12:00	27700	18	-45.6		104	12	
2025-07-01T12:00	27750	18	-45.5		109	12	
2025-07-01T12:00	27800	18	-45.4		111	12	
2025-07-01T12:00	27850	17	-45.4		108	11	
2025-07-01T12:00	27900	17	-45.4		101	11	
2025-07-01T12:00	27950	17	-45.2		96	11	
2025-07-01T12:00	28000	17	-45.1		95	11	
2025-07-01T12:00	28050	17	-45.1		98	12	
2025-07-01T12:00	28100	17	-45.3		101	13	
2025-07-01T12:00	28150	17	-45.3		104	14	
2025-07-01T12:00	28200	17	-45.3		108	15	
2025-07-01T12:00	28250	16	-45.3		112	15	
2025-07-01T12:00	28300	16	-45.4		116	15	
2025-07-01T12:00	28350	16	-45.3		117	15	
2025-07-01T12:00	28400	16	-45.0		115	13	
2025-07-01T12:00	28450	16	-44.7		111	12	
2025-07-01T12:00	28500	16	-44.7		107	11	
2025-07-01T12:00	28550	16	-44.7		106	11	
2025-07-01T12:00	28600	16	-44.6		108	11	
2025-07-01T12:00	28650	15	-44.5		112	12	
2025-07-01T12:00	28700	15	-44.7		117	13	
2025-07-01T12:00	28750	15	-44.5		120	13	
2025-07-01T12:00	28800	15	-44.2		120	13	
2025-07-01T12:00	28850	15	-43.9		118	12	
2025-07-01T12:00	28900	15	-43.5		113	12	
2025-07-01T12:00	28950	15	-43.3		109	12	
2025-07-01T12:00	29000	15	-43.0		107	13	
2025-07-01T12:00	29050	15	-42.9		108	13	
2025-07-01T12:00	29100	14	-42.8		111	14	
2025-07-01T12:00	29150	14	-42.7		114	13	
2025-07-01T12:00	29200	14	-42.6		117	13	
2025-07-01T12:00	29250	14	-42.3		119	13	
2025-07-01T12:00	29300	14	-42.0		123	12	
2025-07-01T12:00	29350	14	-41.8		127	13	
2025-07-01T12:00	29400	14	-41.7		131	13	
2025-07-01T12:00	29450	14	-41.8		132	13	
2025-07-01T12:00	29500	14	-41.8		130	12	
2025-07-01T12:00	29550	14	-41.8		125	11	
2025-07-01T12:00	29600	13	-41.7		117	10	
2025-07-01T12:00	29650	13	-41.6		107	10	
2025-07-01T12:00	29700	13	-41.4		99	11	
2025-07-01T12:00	29750	13	-41.3		94	12	
2025-07-01T12:00	29800	13	-41.4		93	13	
2025-07-01T12:00	29850	13	-41.5		96	14	
2025-07-01T12:00	29900	13	-41.5		100	14	
2025-07-01T12:00	29950	13	-41.5		105	14	
2025-07-01T12:00	30000	13	-41.5		108	14	
2025-07-01T12:00	30050	13	-41.6		109	13	
2025-07-01T12:00	30100	12	-41.5		105	13	
2025-07-01T12:00	30150	12	-41.4		100	13	
2025-07-01T12:00	30200	12	-41.2		96	14	
2025-07-01T12:00	30250	12	-41.3		95	15	
2025-07-01T12:00	30300	12	-41.4		97	16	
2025-07-01T12:00	30350	12	-41.7		99	17	
2025-07-01T12:00	30400	12	-41.8		102	17	
2025-07-01T12:00	30450	12	-41.5		104	16	
2025-07-01T12:00	30500	12	-41.0		104	14	
2025-07-01T12:00	30550	12	-40.7		102	13	
2025-07-01T12:00	30600	12	-40.5		100	13	
2025-07-01T12:00	30650	12	-40.1		98	14	
2025-07-01T12:00	30700	11	-39.8		96	14	
2025-07-01T12:00	30750	11	-39.6		96	15	
2025-07-01T12:00	30800	11	-39.4		98	16	
2025-07-01T12:00	30850	11	-39.1		99	15	
2025-07-01T12:00	30900	11	-38.8		99	14	
2025-07-01T12:00	30950	11	-38.7		98	13	
2025-07-01T12:00	31000	11	-38.6		98	13	
2025-07-01T12:00	31050	11	-38.5		101	14	
2025-07-01T12:00	31100	11	-38.5		104	14	
2025-07-01T12:00	31150	11	-38.3		104	14	
2025-07-01T12:00	31200	11	-37.9		99	13	
2025-07-01T12:00	31250	11	-37.4		92	12	
2025-07-01T12:00	31300	10	-36.8		87	13	
2025-07-01T12:00	31350	10	-36.2		86	14	
2025-07-01T12:00	31400	10	-36.0		86	15	
2025-07-01T12:00	31450	10	-35.8		86	15	
2025-07-01T12:00	31500	10	-35.6		87	15	
2025-07-01T12:00	31550	10	-35.4		89	16	
2025-07-01T12:00	31600	10	-35.3		90	16	
2025-07-01T12:00	31650	10	-35.2		93	17	
2025-07-01T12:00	31700	10	-35.0		96	17	
2025-07-01T12:00	31750	10	-35.0		99	18	
2025-07-01T12:00	31800	10	-35.1		101	17	
2025-07-01T12:00	31850	10	-35.1		102	17	
2025-07-01T12:00	31900	10	-35.1		103	16	
2025-07-01T12:00	31950	10	-35.0		104	14	
2025-07-01T12:00	32000	9	-34.8		103	13	
2025-07-01T12:00	32050	9	-34.4		102	13	
2025-07-01T12:00	32100	9	-34.0		101	13	
2025-07-01T12:00	32150	9	-33.6		100	13	
2025-07-01T12:00	32200	9	-33.4		98	13	
2025-07-01T12:00	32250	9	-33.3		94	12	
2025-07-01T12:00	32300	9	-33.3		91	12	
2025-07-01T12:00	32350	9	-33.3		89	13	
2025-07-01T12:00	32400	9	-33.3		91	13	
2025-07-01T12:00	32450	9	-33.4		93	13	
2025-07-01T12:00	32500	9	-33.4		95	13	
2025-07-01T12:00	32550	9	-33.4		95	13	
2025-07-01T12:00	32600	9	-33.3		94	12	
2025-07-01T12:00	32650	9	-33.1		91	12	
2025-07-01T12:00	32700	9	-33.0		89	12	
2025-07-01T12:00	32750	9	-33.1		88	13	
2025-07-01T12:00	32800	8	-33.0		91	13	
2025-07-01T12:00	32850	8	-32.8		96	13	
2025-07-01T12:00	32900	8	-32.8		101	14	
2025-07-01T12:00	32950	8	-32.9		104	14	
2025-07-01T12:00	33000	8	-33.1		105	14	
2025-07-01T12:00	33050	8	-33.0		102	13	
2025-07-01T12:00	33100	8	-32.8		98	12	
2025-07-01T12:00	33150	8	-32.8		94	12	
2025-07-01T12:00	33200	8	-32.9		89	12	
2025-07-01T12:00	33250	8	-32.9		84	12	
2025-07-01T12:00	33300	8	-32.9		80	12	
2025-07-01T12:00	33350	8	-32.9		77	13	
2025-07-01T12:00	33400	8	-32.8		77	14	
2025-07-01T12:00	33450	8	-32.7		77	14	
2025-07-01T12:00	33500	8	-32.5		78	14	
2025-07-01T12:00	33550	8	-32.5		78	15	
2025-07-01T12:00	33600	8	-32.5		78	16	
2025-07-01T12:00	33650	7	-32.3		78	17	
2025-07-01T12:00	33700	7	-32.1		80	17	
2025-07-01T12:00	33750	7	-31.8		82	18	
2025-07-01T12:00	33800	7	-31.6		84	18	
2025-07-01T12:00	33850	7	-31.5		85	18	
2025-07-01T12:00	33900	7	-31.4		85	17	
2025-07-01T12:00	33950	7	-31.3		86	17	
2025-07-01T12:00	34000	7	-31.3		90	16	
2025-07-01T12:00	34050	7	-31.3		94	16	
2025-07-01T12:00	34100	7	-31.3		97	16	
2025-07-01T12:00	34150	7	-31.3		96	16	
2025-07-01T12:00	34200	7	-31.2		92	16	
2025-07-01T12:00	34250	7	-31.1		89	17	
2025-07-01T12:00	34300	7	-30.9		87	18	
2025-07-01T12:00	34350	7	-30.7		86	18	
2025-07-01T12:00	34400	7	-30.6		85	17	
2025-07-01T12:00	34450	7	-30.4		82	17	
2025-07-01T12:00	34500	7	-30.1		80	18	
2025-07-01T12:00	34550	7	-29.8		81	18	
2025-07-01T12:00	34600	7	-29.7		83	18	
2025-07-01T12:00	34650	7	-29.6		86	19	
2025-07-01T12:00	34700	6	-29.6		90	19	
2025-07-01T12:00	34750	6	-29.6		93	19	
2025-07-01T12:00	34800	6	-29.6		96	18	
2025-07-01T12:00	34850	6	-29.7		98	18	
2025-07-01T12:00	34900	6	-29.5		99	17	
2025-07-01T12:00	34950	6	-29.3		99	15	
2025-07-01T12:00	35000	6	-29.1		100	15	
2025-07-01T12:00	35050	6	-29.0		100	14	
2025-07-01T12:00	35100	6	-28.8		99	14	
2025-07-01T12:00	35150	6	-28.5		98	15	
2025-07-01T12:00	35200	6	-28.3		97	15	
2025-07-01T12:00	35250	6	-28.4		96	16	
2025-07-01T12:00	35300	6	-28.5		95	16	
2025-07-01T12:00	35350	6	-28.2		93	17	
2025-07-01T12:00	35400	6	-27.7		91	18	
2025-07-01T12:00	35450	6	-27.3		91	18	
2025-07-01T12:00	35500	6	-27.3		92	19	
2025-07-01T12:00	35550	6	-27.2		94	20	
2025-07-01T12:00	35600	6	-27.0		96	21	
2025-07-01T12:00	35650	6	-26.8		95	23	
2025-07-01T12:00	35700	6	-26.7		94	24	
2025-07-01T12:00	35750	6	-26.7		92	24	
2025-07-01T12:00	35800	6	-26.7		92	24	
2025-07-01T12:00	35850	6	-26.3		93	23	
2025-07-01T12:00	35900	5	-26.0		94	23	
2025-07-02T00:00	491	961	19.9	15.1	257	1	
2025-07-02T00:00	501	959	20.6	15.2	236	2	
2025-07-02T00:00	520	958	20.8	15.0	234	2	
2025-07-02T00:00	540	956	21.3	14.6	235	3	
2025-07-02T00:00	560	953	22.0	14.3	236	3	
2025-07-02T00:00	580	951	22.4	14.0	238	4	
2025-07-02T00:00	600	949	23.1	13.7	240	4	
2025-07-02T00:00	620	947	23.3	13.6	242	4	
2025-07-02T00:00	640	944	23.2	13.5	245	4	
2025-07-02T00:00	660	942	23.6	13.2	247	4	
2025-07-02T00:00	680	940	23.8	13.0	249	4	
2025-07-02T00:00	700	938	23.7	12.9	250	4	
2025-07-02T00:00	720	936	23.6	12.9	250	4	
2025-07-02T00:00	740	934	23.5	12.9	249	4	
2025-07-02T00:00	760	932	23.5	12.8	248	4	
2025-07-02T00:00	780	930	23.5	12.6	246	4	
2025-07-02T00:00	800	928	23.5	12.4	243	4	
2025-07-02T00:00	820	925	23.4	12.4	240	4	
2025-07-02T00:00	840	923	23.3	12.1	237	4	
2025-07-02T00:00	860	921	23.3	11.9	233	3	
2025-07-02T00:00	880	919	23.1	12.0	229	3	
2025-07-02T00:00	900	917	23.0	12.0	224	3	
2025-07-02T00:00	920	915	22.8	12.3	220	3	
2025-07-02T00:00	940	913	22.7	12.1	215	3	
2025-07-02T00:00	960	911	22.9	11.0	210	3	
2025-07-02T00:00	980	909	23.0	10.6	207	3	
2025-07-02T00:00	1000	906	22.9	10.4	202	2	
2025-07-02T00:00	1020	904	22.7	10.4	198	2	
2025-07-02T00:00	1040	902	22.6	10.2	194	2	
2025-07-02T00:00	1060	900	22.4	10.1	191	1	
2025-07-02T00:00	1080	898	22.2	10.0	188	1	
2025-07-02T00:00	1100	896	22.2	9.6	185	1	
2025-07-02T00:00	1120	894	22.3	8.9	180	0	
2025-07-02T00:00	1140	892	22.6	8.4	171	0	
2025-07-02T00:00	1160	890	22.5	8.4	156	0	
2025-07-02T00:00	1180	888	22.5	8.4	143	0	
2025-07-02T00:00	1200	886	22.6	8.5	134	1	
2025-07-02T00:00	1220	884	22.7	8.6	128	1	
2025-07-02T00:00	1240	882	22.6	8.7	125	1	
2025-07-02T00:00	1260	880	22.4	8.7	122	1	
2025-07-02T00:00	1280	878	22.3	8.7	120	2	
2025-07-02T00:00	1300	876	22.1	8.8	117	2	
2025-07-02T00:00	1320	874	22.0	8.9	115	2	
2025-07-02T00:00	1340	872	21.8	8.9	111	2	
2025-07-02T00:00	1360	870	21.6	8.9	108	2	
2025-07-02T00:00	1380	868	21.5	9.0	104	2	
2025-07-02T00:00	1400	866	21.3	9.3	99	2	
2025-07-02T00:00	1420	864	21.2	9.6	95	3	
2025-07-02T00:00	1440	862	21.1	9.4	91	3	
2025-07-02T00:00	1460	859	21.1	8.2	88	3	
2025-07-02T00:00	1480	858	21.0	8.1	85	3	
2025-07-02T00:00	1500	856	20.9	7.9	84	4	
2025-07-02T00:00	1520	854	20.8	7.4	83	4	
2025-07-02T00:00	1540	852	20.7	7.3	83	4	
2025-07-02T00:00	1560	850	20.5	7.2	83	5	
2025-07-02T00:00	1580	848	20.5	7.2	83	5	
2025-07-02T00:00	1600	846	20.4	7.2	84	5	
2025-07-02T00:00	1620	844	20.3	7.2	84	6	
2025-07-02T00:00	1640	842	20.2	7.1	85	6	
2025-07-02T00:00	1660	840	20.0	7.1	85	6	
2025-07-02T00:00	1680	838	19.8	7.0	86	6	
2025-07-02T00:00	1700	836	19.6	6.8	87	6	
2025-07-02T00:00	1720	834	19.5	6.9	88	6	
2025-07-02T00:00	1740	832	19.3	7.0	89	6	
2025-07-02T00:00	1760	830	19.1	6.8	90	5	
2025-07-02T00:00	1780	828	18.9	6.8	90	5	
2025-07-02T00:00	1800	826	18.8	6.7	91	5	
2025-07-02T00:00	1820	825	18.6	6.8	90	5	
2025-07-02T00:00	1840	823	18.4	6.8	89	5	
2025-07-02T00:00	1860	821	18.2	6.5	88	5	
2025-07-02T00:00	1880	819	18.1	6.2	87	5	
2025-07-02T00:00	1900	817	18.1	5.8	86	4	
2025-07-02T00:00	1920	815	18.0	5.6	86	4	
2025-07-02T00:00	1940	813	17.8	5.4	86	4	
2025-07-02T00:00	1960	811	17.6	5.3	87	4	
2025-07-02T00:00	1980	809	17.5	5.3	89	3	
2025-07-02T00:00	2000	807	17.3	5.3	92	3	
2025-07-02T00:00	2020	805	17.2	5.4	95	3	
2025-07-02T00:00	2040	804	17.0	5.3	96	4	
2025-07-02T00:00	2060	802	16.8	5.5	97	4	
2025-07-02T00:00	2080	800	16.6	5.5	98	4	
2025-07-02T00:00	2100	798	16.5	5.4	100	4	
2025-07-02T00:00	2120	796	16.3	5.4	101	4	
2025-07-02T00:00	2140	794	16.1	5.4	103	4	
2025-07-02T00:00	2160	792	15.9	5.3	105	4	
2025-07-02T00:00	2180	791	15.7	5.2	107	4	
2025-07-02T00:00	2200	789	15.6	4.8	108	4	
2025-07-02T00:00	2220	787	15.5	3.9	109	4	
2025-07-02T00:00	2240	785	15.4	3.4	108	3	
2025-07-02T00:00	2260	783	15.2	3.2	106	3	
2025-07-02T00:00	2280	781	15.1	3.1	102	3	
2025-07-02T00:00	2300	780	15.0	2.9	99	2	
2025-07-02T00:00	2320	778	14.8	3.3	96	2	
2025-07-02T00:00	2340	776	14.6	3.4	93	2	
2025-07-02T00:00	2360	774	14.4	3.3	91	2	
2025-07-02T00:00	2380	772	14.2	3.4	90	2	
2025-07-02T00:00	2400	770	14.0	3.4	89	2	
2025-07-02T00:00	2420	768	13.8	3.2	88	2	
2025-07-02T00:00	2440	767	13.7	3.1	84	3	
2025-07-02T00:00	2460	765	13.5	3.1	80	3	
2025-07-02T00:00	2480	763	13.3	2.6	75	3	
2025-07-02T00:00	2500	761	13.2	2.4	70	3	
2025-07-02T00:00	2520	759	13.0	2.3	67	3	
2025-07-02T00:00	2540	758	12.9	2.1	66	4	
2025-07-02T00:00	2560	756	12.7	2.1	66	4	
2025-07-02T00:00	2580	754	12.5	1.9	68	4	
2025-07-02T00:00	2600	752	12.3	1.7	71	4	
2025-07-02T00:00	2620	750	12.2	1.6	74	4	
2025-07-02T00:00	2640	748	12.0	1.6	77	4	
2025-07-02T00:00	2660	747	11.8	1.5	80	4	
2025-07-02T00:00	2680	745	11.7	1.3	82	4	
2025-07-02T00:00	2700	743	11.5	1.3	83	4	
2025-07-02T00:00	2720	741	11.3	1.3	83	4	
2025-07-02T00:00	2740	740	11.1	1.1	82	4	
2025-07-02T00:00	2760	738	11.0	1.1	80	5	
2025-07-02T00:00	2780	736	10.8	1.1	77	5	
2025-07-02T00:00	2800	734	10.6	1.0	74	5	
2025-07-02T00:00	2820	733	10.4	1.0	69	5	
2025-07-02T00:00	2840	731	10.2	0.9	63	5	
2025-07-02T00:00	2860	729	10.1	0.8	58	5	
2025-07-02T00:00	2880	727	9.9	0.8	54	5	
2025-07-02T00:00	2900	725	9.8	0.6	52	5	
2025-07-02T00:00	2920	724	9.7	0.5	51	5	
2025-07-02T00:00	2940	722	9.6	0.3	51	5	
2025-07-02T00:00	2960	720	9.4	0.0	52	5	
2025-07-02T00:00	2980	719	9.2	-0.1	54	5	
2025-07-02T00:00	3000	717	9.1	-0.1	56	6	
2025-07-02T00:00	3020	715	8.9	-0.1	58	6	
2025-07-02T00:00	3040	713	8.7	-0.2	61	6	
2025-07-02T00:00	3060	712	8.6	-0.3	62	6	
2025-07-02T00:00	3080	710	8.5	-0.5	63	6	
2025-07-02T00:00	3100	708	8.4	-0.8	64	6	
2025-07-02T00:00	3120	706	8.3	-0.9	64	6	
2025-07-02T00:00	3140	705	8.2	-0.9	64	6	
2025-07-02T00:00	3160	703	8.0	-0.3	63	6	
2025-07-02T00:00	3180	701	7.8	0.1	62	6	
2025-07-02T00:00	3200	700	7.7	0.3	62	6	
2025-07-02T00:00	3220	698	7.5	0.5	62	6	
2025-07-02T00:00	3240	696	7.4	0.6	62	6	
2025-07-02T00:00	3260	695	7.2	0.4	62	6	
2025-07-02T00:00	3280	693	7.1	0.1	63	6	
2025-07-02T00:00	3300	691	6.9	0.0	64	6	
2025-07-02T00:00	3320	689	6.7	0.0	65	6	
2025-07-02T00:00	3340	688	6.7	-0.3	66	6	
2025-07-02T00:00	3360	686	6.6	-0.6	67	6	
2025-07-02T00:00	3380	684	6.4	-0.6	68	6	
2025-07-02T00:00	3400	683	6.3	-0.7	69	6	
2025-07-02T00:00	3420	681	6.1	-0.8	69	6	
2025-07-02T00:00	3440	679	5.9	-0.9	70	6	
2025-07-02T00:00	3460	678	5.7	-1.0	70	6	
2025-07-02T00:00	3480	676	5.6	-1.1	71	6	
2025-07-02T00:00	3500	675	5.4	-1.2	71	6	
2025-07-02T00:00	3520	673	5.3	-1.4	72	6	
2025-07-02T00:00	3540	671	5.1	-1.4	72	6	
2025-07-02T00:00	3560	670	4.9	-1.5	73	6	
2025-07-02T00:00	3580	668	4.8	-1.6	73	6	
2025-07-02T00:00	3600	667	4.6	-1.6	74	6	
2025-07-02T00:00	3620	665	4.4	-1.7	75	5	
2025-07-02T00:00	3640	663	4.2	-1.7	75	5	
2025-07-02T00:00	3660	662	4.0	-1.8	75	5	
2025-07-02T00:00	3680	660	3.9	-2.1	74	4	
2025-07-02T00:00	3700	658	3.8	-2.3	72	4	
2025-07-02T00:00	3720	657	3.6	-2.4	70	4	
2025-07-02T00:00	3740	655	3.4	-2.5	68	3	
2025-07-02T00:00	3760	653	3.2	-2.5	65	3	
2025-07-02T00:00	3780	652	3.0	-2.5	65	3	
2025-07-02T00:00	3800	650	2.9	-2.8	67	3	
2025-07-02T00:00	3820	648	2.7	-3.0	70	3	
2025-07-02T00:00	3840	647	2.6	-3.2	75	3	
2025-07-02T00:00	3860	645	2.4	-3.1	79	3	
2025-07-02T00:00	3880	644	2.2	-3.3	82	3	
2025-07-02T00:00	3900	642	2.0	-3.4	85	3	
2025-07-02T00:00	3920	641	1.9	-3.4	88	4	
2025-07-02T00:00	3940	639	1.7	-3.4	90	4	
2025-07-02T00:00	3960	637	1.5	-3.6	93	4	
2025-07-02T00:00	3980	636	1.4	-3.4	95	4	
2025-07-02T00:00	4000	634	1.4	-3.9	98	4	
2025-07-02T00:00	4020	633	1.4	-5.3	102	4	
2025-07-02T00:00	4040	631	1.3	-6.0	104	4	
2025-07-02T00:00	4060	630	1.2	-6.0	107	4	
2025-07-02T00:00	4080	628	1.0	-6.1	110	4	
2025-07-02T00:00	4100	626	0.9	-6.4	112	4	
2025-07-02T00:00	4120	625	0.7	-6.6	114	4	
2025-07-02T00:00	4140	623	0.5	-6.9	115	5	
2025-07-02T00:00	4160	622	0.4	-7.0	116	5	
2025-07-02T00:00	4180	620	0.2	-7.2	116	5	
2025-07-02T00:00	4200	619	0.0	-7.2	117	5	
2025-07-02T00:00	4220	617	-0.1	-7.2	118	5	
2025-07-02T00:00	4240	616	-0.3	-7.1	119	4	
2025-07-02T00:00	4260	614	-0.5	-7.1	119	4	
2025-07-02T00:00	4280	613	-0.7	-7.1	117	3	
2025-07-02T00:00	4300	611	-0.9	-7.1	115	3	
2025-07-02T00:00	4320	610	-1.1	-7.1	109	3	
2025-07-02T00:00	4340	608	-1.2	-7.8	104	3	
2025-07-02T00:00	4360	606	-1.4	-8.5	102	3	
2025-07-02T00:00	4380	605	-1.5	-9.2	103	3	
2025-07-02T00:00	4400	603	-1.7	-9.2	105	3	
2025-07-02T00:00	4420	602	-1.8	-10.1	109	3	
2025-07-02T00:00	4440	600	-1.9	-10.3	113	3	
2025-07-02T00:00	4460	599	-2.1	-10.3	118	3	
2025-07-02T00:00	4480	597	-2.3	-10.3	123	3	
2025-07-02T00:00	4500	596	-2.4	-10.2	129	4	
2025-07-02T00:00	4520	595	-2.6	-10.2	135	4	
2025-07-02T00:00	4540	593	-2.8	-10.2	139	4	
2025-07-02T00:00	4560	591	-3.1	-10.1	141	4	
2025-07-02T00:00	4580	590	-3.2	-9.6	139	4	
2025-07-02T00:00	4600	588	-3.4	-9.2	136	4	
2025-07-02T00:00	4620	587	-3.6	-9.2	131	4	
2025-07-02T00:00	4640	585	-3.7	-10.1	125	4	
2025-07-02T00:00	4660	584	-3.6	-10.5	115	4	
2025-07-02T00:00	4680	582	-3.6	-11.8	109	4	
2025-07-02T00:00	4700	581	-3.3	-14.2	107	4	
2025-07-02T00:00	4720	580	-3.2	-13.8	106	4	
2025-07-02T00:00	4740	578	-3.3	-13.9	105	4	
2025-07-02T00:00	4760	577	-3.5	-12.4	105	4	
2025-07-02T00:00	4780	575	-3.8	-11.7	103	3	
2025-07-02T00:00	4800	574	-3.9	-11.3	99	3	
2025-07-02T00:00	4820	572	-4.0	-11.7	94	3	
2025-07-02T00:00	4840	571	-3.9	-12.7	86	2	
2025-07-02T00:00	4860	569	-3.8	-14.2	78	2	
2025-07-02T00:00	4880	568	-3.9	-15.0	73	2	
2025-07-02T00:00	4900	566	-4.0	-16.1	70	2	
2025-07-02T00:00	4920	565	-4.1	-17.6	73	2	
2025-07-02T00:00	4940	564	-4.2	-18.1	80	2	
2025-07-02T00:00	4960	562	-4.3	-18.4	88	2	
2025-07-02T00:00	4980	561	-4.4	-19.2	93	2	
2025-07-02T00:00	5000	559	-4.6	-20.3	95	2	
2025-07-02T00:00	5020	558	-4.7	-21.2	96	2	
2025-07-02T00:00	5040	557	-4.9	-20.7	97	3	
2025-07-02T00:00	5060	555	-4.9	-22.7	97	3	
2025-07-02T00:00	5080	554	-5.1	-23.0	98	3	
2025-07-02T00:00	5100	552	-5.2	-23.3	99	3	
2025-07-02T00:00	5120	551	-5.3	-23.6	99	3	
2025-07-02T00:00	5140	550	-5.4	-24.6	100	3	
2025-07-02T00:00	5160	548	-5.6	-25.3	99	2	
2025-07-02T00:00	5180	546	-5.7	-24.1	98	2	
2025-07-02T00:00	5200	545	-5.9	-22.8	95	2	
2025-07-02T00:00	5220	544	-6.1	-25.6	92	2	
2025-07-02T00:00	5240	542	-6.2	-27.3	92	2	
2025-07-02T00:00	5260	541	-6.4	-25.6	92	3	
2025-07-02T00:00	5280	540	-6.5	-25.6	94	3	
2025-07-02T00:00	5300	538	-6.7	-25.7	98	3	
2025-07-02T00:00	5320	537	-6.8	-30.6	104	2	
2025-07-02T00:00	5340	536	-6.8	-31.9	110	2	
2025-07-02T00:00	5360	534	-7.0	-31.7	116	2	
2025-07-02T00:00	5380	533	-7.2	-28.5	120	2	
2025-07-02T00:00	5400	531	-7.3	-24.6	122	2	
2025-07-02T00:00	5420	530	-7.4	-25.0	123	2	
2025-07-02T00:00	5440	529	-7.5	-26.5	122	3	
2025-07-02T00:00	5460	527	-7.7	-27.1	119	3	
2025-07-02T00:00	5480	526	-7.9	-27.4	116	3	
2025-07-02T00:00	5500	525	-8.0	-27.6	113	3	
2025-07-02T00:00	5520	523	-8.2	-28.9	110	3	
2025-07-02T00:00	5540	522	-8.3	-32.1	108	3	
2025-07-02T00:00	5560	521	-8.5	-32.4	106	3	
2025-07-02T00:00	5580	519	-8.7	-33.5	103	2	
2025-07-02T00:00	5600	518	-8.8	-33.9	100	2	
2025-07-02T00:00	5620	517	-9.0	-34.1	97	2	
2025-07-02T00:00	5640	515	-9.2	-34.5	96	2	
2025-07-02T00:00	5660	514	-9.3	-34.6	96	2	
2025-07-02T00:00	5680	513	-9.5	-34.3	98	2	
2025-07-02T00:00	5700	511	-9.6	-37.4	100	2	
2025-07-02T00:00	5720	510	-9.8	-37.3	101	2	
2025-07-02T00:00	5740	509	-9.9	-34.2	101	2	
2025-07-02T00:00	5760	507	-10.1	-29.7	97	2	
2025-07-02T00:00	5780	506	-10.3	-30.5	90	2	
2025-07-02T00:00	5800	505	-10.5	-30.5	82	2	
2025-07-02T00:00	5820	503	-10.5	-31.4	76	2	
2025-07-02T00:00	5840	502	-10.7	-31.6	72	3	
2025-07-02T00:00	5860	501	-10.9	-29.8	70	3	
2025-07-02T00:00	5880	499	-11.0	-31.8	72	4	
2025-07-02T00:00	5900	498	-11.2	-30.8	74	4	
2025-07-02T00:00	5920	497	-11.3	-30.1	77	4	
2025-07-02T00:00	5940	496	-11.3	-32.0	80	4	
2025-07-02T00:00	5960	494	-11.4	-34.5	81	4	
2025-07-02T00:00	5980	493	-11.5	-37.3	82	4	
2025-07-02T00:00	6000	492	-11.6	-40.8	84	3	
2025-07-02T00:00	6020	491	-11.6	-37.8	85	3	
2025-07-02T00:00	6040	489	-11.8	-32.1	88	3	
2025-07-02T00:00	6060	488	-12.0	-26.9	89	4	
2025-07-02T00:00	6080	487	-12.2	-24.6	90	4	
2025-07-02T00:00	6100	485	-12.4	-23.6	89	4	
2025-07-02T00:00	6120	484	-12.6	-23.3	88	4	
2025-07-02T00:00	6140	483	-12.8	-23.0	88	4	
2025-07-02T00:00	6160	482	-13.0	-23.0	89	4	
2025-07-02T00:00	6180	480	-13.2	-23.4	92	4	
2025-07-02T00:00	6200	479	-13.4	-23.7	97	4	
2025-07-02T00:00	6220	478	-13.5	-24.2	105	4	
2025-07-02T00:00	6240	476	-13.4	-40.5	114	4	
2025-07-02T00:00	6260	475	-13.5	-43.6	121	4	
2025-07-02T00:00	6280	474	-13.7	-44.0	129	4	
2025-07-02T00:00	6300	473	-13.7	-45.0	135	4	
2025-07-02T00:00	6320	472	-13.6	-40.9	139	4	
2025-07-02T00:00	6340	470	-13.7	-36.8	143	3	
2025-07-02T00:00	6360	469	-13.8	-37.4	148	3	
2025-07-02T00:00	6380	468	-13.9	-40.6	152	3	
2025-07-02T00:00	6400	466	-14.1	-41.8	156	3	
2025-07-02T00:00	6420	465	-14.3	-43.5	160	3	
2025-07-02T00:00	6440	464	-14.4	-45.1	162	4	
2025-07-02T00:00	6460	463	-14.5	-45.2	164	4	
2025-07-02T00:00	6480	462	-14.7	-43.9	166	4	
2025-07-02T00:00	6500	460	-14.8	-43.6	167	4	
2025-07-02T00:00	6520	459	-14.7	-46.2	167	4	
2025-07-02T00:00	6540	458	-14.5	-49.3	167	4	
2025-07-02T00:00	6560	457	-14.7	-49.4	167	4	
2025-07-02T00:00	6580	456	-14.8	-49.6	166	4	
2025-07-02T00:00	6600	454	-14.9	-49.7	166	5	
2025-07-02T00:00	6620	453	-15.1	-50.0	167	5	
2025-07-02T00:00	6640	452	-15.2	-50.5	168	6	
2025-07-02T00:00	6660	451	-15.3	-50.6	169	6	
2025-07-02T00:00	6680	450	-15.4	-50.7	171	6	
2025-07-02T00:00	6700	449	-15.5	-50.6	173	6	
2025-07-02T00:00	6720	447	-15.6	-49.7	175	6	
2025-07-02T00:00	6740	446	-15.8	-49.1	176	6	
2025-07-02T00:00	6760	445	-15.9	-48.7	178	6	
2025-07-02T00:00	6780	444	-16.0	-48.0	180	6	
2025-07-02T00:00	6800	442	-16.1	-48.7	182	6	
2025-07-02T00:00	6820	441	-16.3	-50.0	184	5	
2025-07-02T00:00	6840	440	-16.4	-50.1	186	5	
2025-07-02T00:00	6860	439	-16.5	-48.9	187	5	
2025-07-02T00:00	6880	438	-16.6	-47.4	187	6	
2025-07-02T00:00	6900	437	-16.7	-47.5	187	6	
2025-07-02T00:00	6920	436	-16.8	-47.5	186	6	
2025-07-02T00:00	6940	434	-16.9	-46.1	184	6	
2025-07-02T00:00	6960	433	-17.0	-45.3	183	6	
2025-07-02T00:00	6980	432	-17.2	-44.6	180	7	
2025-07-02T00:00	7000	431	-17.4	-43.8	178	7	
2025-07-02T00:00	7020	430	-17.6	-43.0	176	7	
2025-07-02T00:00	7040	429	-17.8	-43.1	175	7	
2025-07-02T00:00	7060	427	-17.9	-43.1	175	7	
2025-07-02T00:00	7080	426	-18.1	-42.5	176	7	
2025-07-02T00:00	7100	425	-18.2	-42.5	177	7	
2025-07-02T00:00	7120	424	-18.4	-42.9	178	7	
2025-07-02T00:00	7140	423	-18.5	-44.3	179	7	
2025-07-02T00:00	7160	422	-18.6	-46.3	181	7	
2025-07-02T00:00	7180	421	-18.7	-38.6	182	7	
2025-07-02T00:00	7200	419	-18.8	-31.6	182	7	
2025-07-02T00:00	7220	418	-19.0	-28.5	183	6	
2025-07-02T00:00	7240	417	-19.2	-25.1	183	6	
2025-07-02T00:00	7260	416	-19.4	-25.5	183	6	
2025-07-02T00:00	7280	415	-19.6	-26.0	182	6	
2025-07-02T00:00	7300	414	-19.8	-26.7	181	6	
2025-07-02T00:00	7320	413	-19.9	-27.1	181	6	
2025-07-02T00:00	7340	412	-20.1	-27.8	180	6	
2025-07-02T00:00	7360	411	-20.3	-29.1	179	6	
2025-07-02T00:00	7380	409	-20.4	-31.0	180	6	
2025-07-02T00:00	7400	408	-20.6	-33.0	180	6	
2025-07-02T00:00	7420	407	-20.7	-34.7	183	6	
2025-07-02T00:00	7440	406	-20.9	-34.4	188	6	
2025-07-02T00:00	7460	405	-21.0	-36.4	192	7	
2025-07-02T00:00	7480	404	-21.2	-37.1	196	7	
2025-07-02T00:00	7500	403	-21.3	-37.2	199	7	
2025-07-02T00:00	7520	402	-21.5	-37.4	202	7	
2025-07-02T00:00	7540	401	-21.6	-39.1	203	8	
2025-07-02T00:00	7560	400	-21.7	-42.5	204	8	
2025-07-02T00:00	7580	399	-21.7	-45.2	205	8	
2025-07-02T00:00	7600	397	-21.9	-44.4	204	9	
2025-07-02T00:00	7620	396	-22.0	-44.5	203	9	
2025-07-02T00:00	7640	395	-22.1	-46.7	203	10	
2025-07-02T00:00	7660	394	-22.3	-46.6	203	10	
2025-07-02T00:00	7680	393	-22.4	-45.9	202	10	
2025-07-02T00:00	7700	392	-22.5	-45.3	202	10	
2025-07-02T00:00	7720	391	-22.4	-45.5	202	11	
2025-07-02T00:00	7740	390	-22.3	-53.0	203	11	
2025-07-02T00:00	7760	389	-22.3	-57.0	203	11	
2025-07-02T00:00	7780	388	-22.4	-56.5	204	10	
2025-07-02T00:00	7800	387	-22.5	-56.5	205	10	
2025-07-02T00:00	7820	386	-22.6	-56.5	207	10	
2025-07-02T00:00	7840	385	-22.8	-56.6	210	10	
2025-07-02T00:00	7860	384	-23.0	-56.6	213	10	
2025-07-02T00:00	7880	382	-23.2	-56.7	216	10	
2025-07-02T00:00	7900	381	-23.4	-56.7	218	10	
2025-07-02T00:00	7920	380	-23.6	-56.8	220	10	
2025-07-02T00:00	7940	379	-23.8	-56.8	223	10	
2025-07-02T00:00	7960	378	-23.9	-57.0	223	10	
2025-07-02T00:00	7980	377	-23.9	-57.2	224	10	
2025-07-02T00:00	8000	376	-24.0	-57.2	223	10	
2025-07-02T00:00	8020	375	-24.1	-57.1	222	11	
2025-07-02T00:00	8040	374	-24.3	-57.2	221	11	
2025-07-02T00:00	8060	373	-24.3	-57.7	219	11	
2025-07-02T00:00	8080	372	-24.4	-58.0	218	10	
2025-07-02T00:00	8100	371	-24.6	-58.0	216	10	
2025-07-02T00:00	8120	370	-24.7	-58.0	215	10	
2025-07-02T00:00	8140	369	-24.8	-58.3	215	9	
2025-07-02T00:00	8160	368	-24.9	-58.4	216	9	
2025-07-02T00:00	8180	367	-25.1	-58.4	216	9	
2025-07-02T00:00	8200	366	-25.3	-58.5	217	9	
2025-07-02T00:00	8220	365	-25.5	-58.5	218	9	
2025-07-02T00:00	8240	364	-25.7	-58.6	219	8	
2025-07-02T00:00	8260	363	-25.8	-58.6	219	8	
2025-07-02T00:00	8280	362	-26.0	-58.7	219	8	
2025-07-02T00:00	8300	361	-26.1	-58.8	219	8	
2025-07-02T00:00	8320	360	-26.2	-58.9	218	8	
2025-07-02T00:00	8340	359	-26.4	-58.9	218	8	
2025-07-02T00:00	8360	358	-26.5	-59.0	217	8	
2025-07-02T00:00	8380	357	-26.6	-59.2	217	8	
2025-07-02T00:00	8400	356	-26.8	-59.2	216	8	
2025-07-02T00:00	8420	355	-27.0	-59.2	215	8	
2025-07-02T00:00	8440	354	-27.1	-59.3	214	8	
2025-07-02T00:00	8460	353	-27.4	-59.2	213	8	
2025-07-02T00:00	8480	352	-27.6	-59.3	212	8	
2025-07-02T00:00	8500	351	-27.8	-59.3	210	8	
2025-07-02T00:00	8520	350	-27.9	-59.4	209	7	
2025-07-02T00:00	8540	349	-28.1	-59.4	206	7	
2025-07-02T00:00	8560	348	-28.3	-59.5	204	7	
2025-07-02T00:00	8580	347	-28.5	-59.6	202	6	
2025-07-02T00:00	8600	346	-28.7	-59.6	198	6	
2025-07-02T00:00	8620	345	-28.9	-59.6	196	5	
2025-07-02T00:00	8640	344	-29.0	-59.6	192	5	
2025-07-02T00:00	8660	343	-29.1	-59.5	186	4	
2025-07-02T00:00	8680	343	-29.2	-59.4	179	4	
2025-07-02T00:00	8700	341	-29.4	-59.4	173	3	
2025-07-02T00:00	8720	341	-29.6	-59.3	171	3	
2025-07-02T00:00	8740	340	-29.7	-59.6	170	3	
2025-07-02T00:00	8760	339	-29.6	-60.4	171	3	
2025-07-02T00:00	8780	338	-29.4	-61.1	173	3	
2025-07-02T00:00	8800	337	-29.4	-61.4	175	3	
2025-07-02T00:00	8820	336	-29.5	-61.5	178	3	
2025-07-02T00:00	8840	335	-29.6	-61.6	180	3	
2025-07-02T00:00	8860	334	-29.6	-61.7	182	3	
2025-07-02T00:00	8880	333	-29.7	-61.6	183	3	
2025-07-02T00:00	8900	332	-29.8	-61.5	185	3	
2025-07-02T00:00	8920	331	-30.0	-61.5	187	3	
2025-07-02T00:00	8940	330	-30.1	-61.5	189	3	
2025-07-02T00:00	8960	329	-30.3	-61.6	193	3	
2025-07-02T00:00	8980	328	-30.3	-61.7	198	3	
2025-07-02T00:00	9000	327	-30.4	-61.5	204	3	
2025-07-02T00:00	9020	326	-30.6	-61.7	211	3	
2025-07-02T00:00	9040	326	-30.7	-62.0	219	3	
2025-07-02T00:00	9060	325	-30.8	-62.3	229	2	
2025-07-02T00:00	9080	324	-30.9	-62.4	241	2	
2025-07-02T00:00	9100	323	-31.1	-62.3	255	2	
2025-07-02T00:00	9120	322	-31.0	-61.2	271	2	
2025-07-02T00:00	9140	321	-31.1	-60.7	284	2	
2025-07-02T00:00	9160	320	-31.2	-60.7	292	2	
2025-07-02T00:00	9180	319	-31.4	-60.2	298	3	
2025-07-02T00:00	9200	318	-31.5	-59.8	303	3	
2025-07-02T00:00	9220	318	-31.7	-59.6	306	3	
2025-07-02T00:00	9240	317	-31.9	-59.7	312	3	
2025-07-02T00:00	9260	316	-32.1	-59.5	321	3	
2025-07-02T00:00	9280	315	-32.2	-55.2	334	3	
2025-07-02T00:00	9300	314	-32.3	-49.0	347	3	
2025-07-02T00:00	9320	313	-32.5	-48.8	358	3	
2025-07-02T00:00	9340	312	-32.7	-48.3	3	4	
2025-07-02T00:00	9360	311	-32.9	-48.5	8	4	
2025-07-02T00:00	9380	310	-33.1	-49.5	11	4	
2025-07-02T00:00	9400	309	-33.3	-48.8	13	4	
2025-07-02T00:00	9420	309	-33.5	-46.1	14	5	
2025-07-02T00:00	9440	308	-33.7	-44.6	15	5	
2025-07-02T00:00	9460	307	-33.9	-43.9	16	4	
2025-07-02T00:00	9480	306	-34.1	-43.1	17	4	
2025-07-02T00:00	9500	305	-34.3	-43.1	17	4	
2025-07-02T00:00	9520	304	-34.5	-43.1	18	4	
2025-07-02T00:00	9540	303	-34.7	-43.4	18	3	
2025-07-02T00:00	9560	302	-34.8	-44.0	20	3	
2025-07-02T00:00	9580	302	-35.0	-44.3	23	3	
2025-07-02T00:00	9600	301	-35.1	-44.2	26	4	
2025-07-02T00:00	9620	300	-35.3	-44.2	29	4	
2025-07-02T00:00	9640	299	-35.5	-44.8	32	4	
2025-07-02T00:00	9660	298	-35.7	-44.8	34	4	
2025-07-02T00:00	9680	297	-35.9	-44.6	35	4	
2025-07-02T00:00	9700	296	-36.1	-44.3	37	4	
2025-07-02T00:00	9720	296	-36.3	-43.5	39	4	
2025-07-02T00:00	9740	295	-36.5	-42.7	41	3	
2025-07-02T00:00	9760	294	-36.7	-43.1	43	3	
2025-07-02T00:00	9780	293	-36.8	-43.5	47	3	
2025-07-02T00:00	9800	292	-37.0	-44.2	52	2	
2025-07-02T00:00	9820	291	-37.1	-44.6	60	2	
2025-07-02T00:00	9840	290	-37.3	-43.9	70	2	
2025-07-02T00:00	9860	290	-37.5	-43.7	87	2	
2025-07-02T00:00	9880	289	-37.6	-44.5	106	2	
2025-07-02T00:00	9900	288	-37.6	-46.1	122	2	
2025-07-02T00:00	9920	287	-37.7	-46.4	129	3	
2025-07-02T00:00	9940	286	-37.8	-46.7	132	3	
2025-07-02T00:00	9960	285	-37.9	-47.2	133	3	
2025-07-02T00:00	9980	285	-38.1	-47.8	134	3	
2025-07-02T00:00	10000	284	-38.3	-47.8	136	3	
2025-07-02T00:00	10018	283	-38.4	-47.8	139	3	
2025-07-02T00:00	10050	282	-38.7	-49.5	146	3	
2025-07-02T00:00	10100	280	-38.9	-51.7	154	4	
2025-07-02T00:00	10150	278	-39.0	-55.0	161	4	
2025-07-02T00:00	10200	276	-38.7	-63.7	176	4	
2025-07-02T00:00	10250	274	-38.4	-66.8	194	4	
2025-07-02T00:00	10300	272	-38.7	-67.2	203	4	
2025-07-02T00:00	10350	270	-39.1	-66.9	208	4	
2025-07-02T00:00	10400	268	-39.5	-66.7	209	4	
2025-07-02T00:00	10450	266	-39.9	-66.2	207	4	
2025-07-02T00:00	10500	264	-40.3	-67.0	214	3	
2025-07-02T00:00	10550	262	-40.6	-66.9	232	2	
2025-07-02T00:00	10600	260	-41.0	-67.4	253	2	
2025-07-02T00:00	10650	258	-41.3	-69.1	270	2	
2025-07-02T00:00	10700	256	-41.7	-69.1	287	2	
2025-07-02T00:00	10750	254	-42.1	-69.2	300	2	
2025-07-02T00:00	10800	252	-42.5	-69.6	306	2	
2025-07-02T00:00	10850	250	-42.9	-69.8	304	2	
2025-07-02T00:00	10900	249	-43.3	-69.8	304	2	
2025-07-02T00:00	10950	247	-43.7	-69.9	311	2	
2025-07-02T00:00	11000	245	-44.0	-70.1	320	1	
2025-07-02T00:00	11050	243	-44.1	-70.6	266	0	
2025-07-02T00:00	11100	241	-44.2	-71.0	215	1	
2025-07-02T00:00	11150	240	-44.5	-71.0	216	2	
2025-07-02T00:00	11200	238	-44.7	-71.1	220	3	
2025-07-02T00:00	11250	236	-44.9	-71.2	226	4	
2025-07-02T00:00	11300	234	-45.1	-71.2	234	5	
2025-07-02T00:00	11350	233	-45.3	-71.5	242	5	
2025-07-02T00:00	11400	231	-45.4	-70.8	250	6	
2025-07-02T00:00	11450	229	-45.1	-70.0	259	7	
2025-07-02T00:00	11500	227	-45.1	-70.5	264	8	
2025-07-02T00:00	11550	226	-45.4	-70.4	267	8	
2025-07-02T00:00	11600	224	-45.8	-70.5	270	8	
2025-07-02T00:00	11650	222	-46.2	-70.5	273	8	
2025-07-02T00:00	11700	221	-46.4	-70.7	273	7	
2025-07-02T00:00	11750	219	-46.4	-70.8	270	7	
2025-07-02T00:00	11800	217	-46.5	-71.1	269	7	
2025-07-02T00:00	11850	216	-46.8	-71.3	269	7	
2025-07-02T00:00	11900	214	-47.0	-71.8	269	7	
2025-07-02T00:00	11950	212	-47.1	-72.0	271	8	
2025-07-02T00:00	12000	211	-47.3	-72.2	271	8	
2025-07-02T00:00	12050	209	-47.1	-72.7	268	9	
2025-07-02T00:00	12100	208	-46.6	-73.5	266	10	
2025-07-02T00:00	12150	206	-46.6	-74.2	266	9	
2025-07-02T00:00	12200	205	-46.7	-74.2	263	9	
2025-07-02T00:00	12250	203	-46.7	-74.3	259	9	
2025-07-02T00:00	12300	202	-46.5	-74.4	259	9	
2025-07-02T00:00	12350	200	-46.6	-74.3	264	9	
2025-07-02T00:00	12400	199	-46.9	-74.5	271	9	
2025-07-02T00:00	12450	197	-47.2	-74.3	274	9	
2025-07-02T00:00	12500	196	-47.4	-74.2	268	9	
2025-07-02T00:00	12550	194	-46.8	-75.3	262	11	
2025-07-02T00:00	12600	193	-46.3	-76.5	262	12	
2025-07-02T00:00	12650	191	-46.6	-76.6	264	12	
2025-07-02T00:00	12700	190	-47.0	-76.8	263	13	
2025-07-02T00:00	12750	188	-47.3	-77.1	263	13	
2025-07-02T00:00	12800	187	-47.6	-77.6	264	13	
2025-07-02T00:00	12850	185	-47.7	-78.0	264	11	
2025-07-02T00:00	12900	184	-47.6	-78.4	260	10	
2025-07-02T00:00	12950	183	-47.6	-78.2	255	9	
2025-07-02T00:00	13000	181	-47.7	-78.5	253	8	
2025-07-02T00:00	13050	180	-47.9	-78.3	253	7	
2025-07-02T00:00	13100	179	-48.0	-78.5	252	7	
2025-07-02T00:00	13150	177	-48.2	-78.6	251	7	
2025-07-02T00:00	13200	176	-48.5	-78.9	250	7	
2025-07-02T00:00	13250	175	-48.6	-79.1	250	8	
2025-07-02T00:00	13300	173	-48.9	-79.2	250	8	
2025-07-02T00:00	13350	172	-49.4	-79.4	249	9	
2025-07-02T00:00	13400	171	-49.9	-79.7	250	9	
2025-07-02T00:00	13450	169	-50.2	-79.6	253	9	
2025-07-02T00:00	13500	168	-50.6	-80.0	257	9	
2025-07-02T00:00	13550	167	-51.0	-80.2	259	8	
2025-07-02T00:00	13600	165	-51.3	-80.1	260	8	
2025-07-02T00:00	13650	164	-51.7	-80.4	259	8	
2025-07-02T00:00	13700	163	-52.1	-80.8	258	7	
2025-07-02T00:00	13750	162	-52.5	-80.8	257	7	
2025-07-02T00:00	13800	160	-52.9	-80.8	257	7	
2025-07-02T00:00	13850	159	-53.1	-80.9	257	7	
2025-07-02T00:00	13900	158	-53.3	-81.0	260	7	
2025-07-02T00:00	13950	157	-53.4	-81.0	261	7	
2025-07-02T00:00	14000	155	-53.5	-81.2	260	7	
2025-07-02T00:00	14050	154	-53.8	-81.4	257	7	
2025-07-02T00:00	14100	153	-54.2	-81.5	255	7	
2025-07-02T00:00	14150	152	-54.5	-81.6	254	6	
2025-07-02T00:00	14200	151	-55.0	-81.7	253	6	
2025-07-02T00:00	14250	150	-55.4	-81.8	250	5	
2025-07-02T00:00	14300	148	-55.6	-81.9	245	5	
2025-07-02T00:00	14350	147	-55.9	-81.9	244	7	
2025-07-02T00:00	14400	146	-56.3	-82.2	246	8	
2025-07-02T00:00	14450	145	-56.4	-82.4	249	9	
2025-07-02T00:00	14500	144	-56.1	-82.4	253	9	
2025-07-02T00:00	14550	143	-56.4	-82.6	257	9	
2025-07-02T00:00	14600	142	-56.7	-82.6	260	9	
2025-07-02T00:00	14650	140	-56.9	-82.6	262	8	
2025-07-02T00:00	14700	139	-57.1	-82.8	260	8	
2025-07-02T00:00	14750	138	-57.4	-83.0	254	7	
2025-07-02T00:00	14800	137	-57.6	-83.2	246	7	
2025-07-02T00:00	14850	136	-57.9	-83.3	238	8	
2025-07-02T00:00	14900	135	-58.1	-83.4	234	8	
2025-07-02T00:00	14950	134	-58.4	-83.6	231	8	
2025-07-02T00:00	15000	133	-58.7	-83.6	229	9	
2025-07-02T00:00	15050	132	-59.1	-83.5	230	9	
2025-07-02T00:00	15100	131	-59.4	-83.7	235	9	
2025-07-02T00:00	15150	130	-59.5	-84.0	241	9	
2025-07-02T00:00	15200	129	-59.6	-84.1	244	9	
2025-07-02T00:00	15250	128	-59.9	-84.1	243	9	
2025-07-02T00:00	15300	127	-60.1	-84.0	240	9	
2025-07-02T00:00	15350	126	-60.2	-84.2	240	9	
2025-07-02T00:00	15400	125	-60.1	-84.2	244	10	
2025-07-02T00:00	15450	124	-60.2	-84.2	247	10	
2025-07-02T00:00	15500	123	-60.4	-84.1	249	11	
2025-07-02T00:00	15550	122	-60.5	-84.1	250	12	
2025-07-02T00:00	15600	121	-60.1	-83.9	251	12	
2025-07-02T00:00	15650	120	-59.9	-84.0	252	11	
2025-07-02T00:00	15700	119	-59.8	-84.1	247	10	
2025-07-02T00:00	15750	118	-59.6	-84.0	237	8	
2025-07-02T00:00	15800	117	-59.6	-84.1	224	8	
2025-07-02T00:00	15850	116	-59.7	-84.2	215	8	
2025-07-02T00:00	15900	115	-59.8	-84.3	213	9	
2025-07-02T00:00	15950	114	-60.0	-84.4	214	9	
2025-07-02T00:00	16000	113	-60.3	-84.5	217	10	
2025-07-02T00:00	16050	112	-60.5	-84.5	219	10	
2025-07-02T00:00	16100	111	-60.8	-84.6	221	10	
2025-07-02T00:00	16150	110	-61.2	-84.7	225	9	
2025-07-02T00:00	16200	110	-61.5	-84.8	229	9	
2025-07-02T00:00	16250	109	-61.8	-84.8	233	8	
2025-07-02T00:00	16300	108	-62.0	-84.8	236	8	
2025-07-02T00:00	16350	107	-62.3	-84.9	237	7	
2025-07-02T00:00	16400	106	-62.5	-84.9	233	6	
2025-07-02T00:00	16450	105	-62.8	-85.0	221	5	
2025-07-02T00:00	16500	104	-63.1	-85.1	207	5	
2025-07-02T00:00	16550	104	-63.5	-85.2	194	5	
2025-07-02T00:00	16600	103	-63.8	-85.3	185	5	
2025-07-02T00:00	16650	102	-64.0	-85.4	178	6	
2025-07-02T00:00	16700	101	-63.8	-85.4	180	7	
2025-07-02T00:00	16750	100	-63.9	-85.6	190	7	
2025-07-02T00:00	16800	99	-63.9	-85.6	203	8	
2025-07-02T00:00	16850	99	-64.1	-85.7	213	9	
2025-07-02T00:00	16900	98	-64.0	-85.8	218	10	
2025-07-02T00:00	16950	97	-63.7	-85.9	219	10	
2025-07-02T00:00	17000	96	-63.5	-86.0	221	9	
2025-07-02T00:00	17050	95	-63.5	-86.0	226	8	
2025-07-02T00:00	17100	95	-63.8	-86.3	228	8	
2025-07-02T00:00	17150	94	-63.7	-86.5	216	6	
2025-07-02T00:00	17200	93	-63.1	-86.6	196	6	
2025-07-02T00:00	17250	92	-62.5	-86.4	183	6	
2025-07-02T00:00	17300	92	-62.6	-86.6	179	6	
2025-07-02T00:00	17350	91	-62.7	-86.5	185	6	
2025-07-02T00:00	17400	90	-62.9	-86.6	200	5	
2025-07-02T00:00	17450	89	-63.1	-86.8	214	6	
2025-07-02T00:00	17500	89	-62.6	-86.5	217	6	
2025-07-02T00:00	17550	88	-62.9	-86.6	213	6	
2025-07-02T00:00	17600	87	-63.2	-86.7	206	6	
2025-07-02T00:00	17650	87	-63.4	-86.6	198	6	
2025-07-02T00:00	17700	86	-63.8	-86.7	195	6	
2025-07-02T00:00	17750	85	-64.2	-86.8	198	6	
2025-07-02T00:00	17800	84	-64.5	-87.0	206	6	
2025-07-02T00:00	17850	84	-64.7	-87.2	217	7	
2025-07-02T00:00	17900	83	-64.3	-87.1	229	7	
2025-07-02T00:00	17950	82	-64.1	-87.2	241	7	
2025-07-02T00:00	18000	82	-63.8	-87.2	249	7	
2025-07-02T00:00	18050	81	-63.7	-87.2	251	7	
2025-07-02T00:00	18100	80	-63.6	-87.2	248	6	
2025-07-02T00:00	18150	80	-63.6	-87.3	242	6	
2025-07-02T00:00	18200	79	-63.4	-87.2	236	6	
2025-07-02T00:00	18250	78	-63.3	-87.3	230	6	
2025-07-02T00:00	18300	78	-63.2	-87.3	222	5	
2025-07-02T00:00	18350	77	-63.1	-87.3	208	4	
2025-07-02T00:00	18400	77	-63.1	-87.4	185	4	
2025-07-02T00:00	18450	76	-62.5	-87.2	175	6	
2025-07-02T00:00	18500	75	-62.4	-87.2	169	7	
2025-07-02T00:00	18550	75	-62.3	-87.0	162	8	
2025-07-02T00:00	18600	74	-62.6	-87.1	154	9	
2025-07-02T00:00	18650	74	-62.6	-87.2	152	10	
2025-07-02T00:00	18700	73	-62.7	-87.3	155	10	
2025-07-02T00:00	18750	72	-62.0	-87.1	158	11	
2025-07-02T00:00	18800	72	-62.1	-87.1	163	10	
2025-07-02T00:00	18850	71	-62.4	-87.1	168	9	
2025-07-02T00:00	18900	71	-62.6	-87.3	174	9	
2025-07-02T00:00	18950	70	-62.4	-87.1	179	8	
2025-07-02T00:00	19000	69	-62.5	-87.1	182	8	
2025-07-02T00:00	19050	69	-62.9	-87.2	186	7	
2025-07-02T00:00	19100	68	-63.1	-87.3	188	7	
2025-07-02T00:00	19150	68	-63.3	-87.6	180	6	
2025-07-02T00:00	19200	67	-62.9	-87.4	164	5	
2025-07-02T00:00	19250	67	-63.1	-87.5	150	6	
2025-07-02T00:00	19300	66	-63.1	-87.7	144	6	
2025-07-02T00:00	19350	66	-62.8	-87.8	145	6	
2025-07-02T00:00	19400	65	-62.0	-87.4	150	5	
2025-07-02T00:00	19450	65	-62.2	-87.4	158	4	
2025-07-02T00:00	19500	64	-62.5	-87.4	151	3	
2025-07-02T00:00	19550	64	-62.7	-87.6	134	3	
2025-07-02T00:00	19600	63	-62.1	-87.5	135	4	
2025-07-02T00:00	19650	63	-61.6	-87.4	147	5	
2025-07-02T00:00	19700	62	-61.6	-87.5	158	6	
2025-07-02T00:00	19750	62	-61.5	-87.2	164	6	
2025-07-02T00:00	19800	61	-61.6	-87.2	168	6	
2025-07-02T00:00	19850	61	-61.8	-87.2	173	5	
2025-07-02T00:00	19900	60	-62.0	-87.3	180	4	
2025-07-02T00:00	19950	60	-61.9	-87.3	182	3	
2025-07-02T00:00	20000	59	-62.1	-87.4	152	2	
2025-07-02T00:00	20050	59	-61.9		116	3	
2025-07-02T00:00	20100	58	-60.9		109	5	
2025-07-02T00:00	20150	58	-60.5		108	6	
2025-07-02T00:00	20200	57	-60.8		103	6	
2025-07-02T00:00	20250	57	-60.6		96	6	
2025-07-02T00:00	20300	56	-60.6		94	7	
2025-07-02T00:00	20350	56	-60.7		102	7	
2025-07-02T00:00	20400	55	-60.6		115	7	
2025-07-02T00:00	20450	55	-59.9		122	8	
2025-07-02T00:00	20500	55	-59.9		127	8	
2025-07-02T00:00	20550	54	-59.8		133	8	
2025-07-02T00:00	20600	54	-59.8		138	7	
2025-07-02T00:00	20650	53	-59.7		140	6	
2025-07-02T00:00	20700	53	-59.7		137	5	
2025-07-02T00:00	20750	52	-59.9		130	5	
2025-07-02T00:00	20800	52	-59.9		120	5	
2025-07-02T00:00	20850	52	-59.6		110	6	
2025-07-02T00:00	20900	51	-59.5		104	7	
2025-07-02T00:00	20950	51	-59.1		105	8	
2025-07-02T00:00	21000	50	-58.7		111	9	
2025-07-02T00:00	21050	50	-58.2		117	10	
2025-07-02T00:00	21100	50	-57.9		120	9	
2025-07-02T00:00	21150	49	-57.9		116	9	
2025-07-02T00:00	21200	49	-57.6		113	9	
2025-07-02T00:00	21250	48	-57.1		111	10	
2025-07-02T00:00	21300	48	-56.4		113	10	
2025-07-02T00:00	21350	48	-56.3		116	9	
2025-07-02T00:00	21400	47	-56.3		121	9	
2025-07-02T00:00	21450	47	-56.1		124	8	
2025-07-02T00:00	21500	47	-55.6		125	7	
2025-07-02T00:00	21550	46	-55.5		125	6	
2025-07-02T00:00	21600	46	-55.6		124	4	
2025-07-02T00:00	21650	45	-55.8		123	4	
2025-07-02T00:00	21700	45	-55.9		119	4	
2025-07-02T00:00	21750	45	-56.1		112	5	
2025-07-02T00:00	21800	44	-56.1		104	6	
2025-07-02T00:00	21850	44	-56.2		101	7	
2025-07-02T00:00	21900	44	-56.4		102	9	
2025-07-02T00:00	21950	43	-56.6		105	9	
2025-07-02T00:00	22000	43	-56.8		108	10	
2025-07-02T00:00	22050	43	-57.0		113	9	
2025-07-02T00:00	22100	42	-56.8		120	9	
2025-07-02T00:00	22150	42	-56.6		126	9	
2025-07-02T00:00	22200	42	-56.6		127	9	
2025-07-02T00:00	22250	41	-56.2		121	8	
2025-07-02T00:00	22300	41	-55.9		110	7	
2025-07-02T00:00	22350	41	-56.0		98	7	
2025-07-02T00:00	22400	40	-56.0		91	8	
2025-07-02T00:00	22450	40	-56.0		91	10	
2025-07-02T00:00	22500	40	-56.2		94	11	
2025-07-02T00:00	22550	39	-56.5		99	12	
2025-07-02T00:00	22600	39	-56.9		104	12	
2025-07-02T00:00	22650	39	-57.0		110	11	
2025-07-02T00:00	22700	38	-57.0		114	10	
2025-07-02T00:00	22750	38	-57.0		114	10	
2025-07-02T00:00	22800	38	-56.4		111	10	
2025-07-02T00:00	22850	38	-55.9		107	10	
2025-07-02T00:00	22900	37	-55.4		101	10	
2025-07-02T00:00	22950	37	-54.9		94	10	
2025-07-02T00:00	23000	37	-53.8		91	11	
2025-07-02T00:00	23050	36	-53.6		93	13	
2025-07-02T00:00	23100	36	-53.6		96	13	
2025-07-02T00:00	23150	36	-53.5		98	13	
2025-07-02T00:00	23200	36	-53.7		101	12	
2025-07-02T00:00	23250	35	-53.8		104	12	
2025-07-02T00:00	23300	35	-54.0		103	12	
2025-07-02T00:00	23350	35	-54.0		98	12	
2025-07-02T00:00	23400	35	-53.5		93	12	
2025-07-02T00:00	23450	34	-53.2		91	12	
2025-07-02T00:00	23500	34	-53.1		91	13	
2025-07-02T00:00	23550	34	-52.7		91	13	
2025-07-02T00:00	23600	33	-52.3		92	13	
2025-07-02T00:00	23650	33	-52.0		98	14	
2025-07-02T00:00	23700	33	-52.2		106	14	
2025-07-02T00:00	23750	33	-52.3		113	15	
2025-07-02T00:00	23800	32	-52.4		120	16	
2025-07-02T00:00	23850	32	-52.4		126	17	
2025-07-02T00:00	23900	32	-52.4		130	16	
2025-07-02T00:00	23950	32	-52.2		132	16	
2025-07-02T00:00	24000	31	-51.9		135	15	
2025-07-02T00:00	24050	31	-51.6		140	14	
2025-07-02T00:00	24100	31	-51.6		143	12	
2025-07-02T00:00	24150	31	-51.6		146	11	
2025-07-02T00:00	24200	30	-51.4		150	9	
2025-07-02T00:00	24250	30	-51.3		152	7	
2025-07-02T00:00	24300	30	-51.2		145	6	
2025-07-02T00:00	24350	30	-50.6		125	5	
2025-07-02T00:00	24400	30	-50.4		102	6	
2025-07-02T00:00	24450	29	-50.4		90	8	
2025-07-02T00:00	24500	29	-50.3		88	10	
2025-07-02T00:00	24550	29	-50.4		90	12	
2025-07-02T00:00	24600	29	-50.4		94	13	
2025-07-02T00:00	24650	28	-50.5		96	13	
2025-07-02T00:00	24700	28	-50.1		97	12	
2025-07-02T00:00	24750	28	-49.9		95	11	
2025-07-02T00:00	24800	28	-49.8		90	11	
2025-07-02T00:00	24850	28	-49.6		85	11	
2025-07-02T00:00	24900	27	-49.6		81	12	
2025-07-02T00:00	24950	27	-49.6		81	13	
2025-07-02T00:00	25000	27	-49.6		83	14	
2025-07-02T00:00	25050	27	-49.5		87	14	
2025-07-02T00:00	25100	27	-49.7		91	14	
2025-07-02T00:00	25150	26	-49.8		94	14	
2025-07-02T00:00	25200	26	-50.0		97	13	
2025-07-02T00:00	25250	26	-50.2		99	13	
2025-07-02T00:00	25300	26	-50.3		101	12	
2025-07-02T00:00	25350	26	-50.3		101	11	
2025-07-02T00:00	25400	25	-50.5		101	11	
2025-07-02T00:00	25450	25	-50.7		100	11	
2025-07-02T00:00	25500	25	-50.8		101	12	
2025-07-02T00:00	25550	25	-51.0		103	12	
2025-07-02T00:00	25600	25	-51.2		106	12	
2025-07-02T00:00	25650	24	-51.3		108	12	
2025-07-02T00:00	25700	24	-51.4		107	12	
2025-07-02T00:00	25750	24	-51.5		104	11	
2025-07-02T00:00	25800	24	-51.5		101	11	
2025-07-02T00:00	25850	24	-51.2		99	11	
2025-07-02T00:00	25900	23	-50.8		101	12	
2025-07-02T00:00	25950	23	-50.5		105	12	
2025-07-02T00:00	26000	23	-50.4		110	12	
2025-07-02T00:00	26050	23	-50.2		116	11	
2025-07-02T00:00	26100	23	-50.1		120	10	
2025-07-02T00:00	26150	23	-49.9		116	9	
2025-07-02T00:00	26200	22	-49.6		104	8	
2025-07-02T00:00	26250	22	-48.9		92	8	
2025-07-02T00:00	26300	22	-48.4		86	8	
2025-07-02T00:00	26350	22	-48.1		85	8	
2025-07-02T00:00	26400	22	-47.9		85	8	
2025-07-02T00:00	26450	22	-48.0		83	8	
2025-07-02T00:00	26500	21	-48.2		83	9	
2025-07-02T00:00	26550	21	-47.8		84	11	
2025-07-02T00:00	26600	21	-47.5		86	13	
2025-07-02T00:00	26650	21	-47.5		89	13	
2025-07-02T00:00	26700	21	-47.3		90	12	
2025-07-02T00:00	26750	21	-46.8		91	12	
2025-07-02T00:00	26800	20	-46.3		93	13	
2025-07-02T00:00	26850	20	-46.3		94	14	
2025-07-02T00:00	26900	20	-46.2		95	14	
2025-07-02T00:00	26950	20	-46.1		97	14	
2025-07-02T00:00	27000	20	-46.2		98	15	
2025-07-02T00:00	27050	20	-46.1		99	15	
2025-07-02T00:00	27100	20	-46.1		101	16	
2025-07-02T00:00	27150	19	-46.2		103	16	
2025-07-02T00:00	27200	19	-46.0		105	15	
2025-07-02T00:00	27250	19	-45.9		106	14	
2025-07-02T00:00	27300	19	-45.9		104	13	
2025-07-02T00:00	27350	19	-45.7		102	12	
2025-07-02T00:00	27400	19	-45.3		103	13	
2025-07-02T00:00	27450	19	-45.2		104	13	
2025-07-02T00:00	27500	18	-45.0		104	13	
2025-07-02T00:00	27550	18	-44.7		104	13	
2025-07-02T00:00	27600	18	-44.6		103	13	
2025-07-02T00:00	27650	18	-44.6		101	13	
2025-07-02T00:00	27700	18	-44.4		95	13	
2025-07-02T00:00	27750	18	-44.1		88	13	
2025-07-02T00:00	27800	18	-43.9		83	14	
2025-07-02T00:00	27850	17	-43.9		81	14	
2025-07-02T00:00	27900	17	-43.6		83	15	
2025-07-02T00:00	27950	17	-43.6		86	15	
2025-07-02T00:00	28000	17	-43.8		88	14	
2025-07-02T00:00	28050	17	-44.0		89	13	
2025-07-02T00:00	28100	17	-44.0		91	13	
2025-07-02T00:00	28150	17	-43.9		92	12	
2025-07-02T00:00	28200	17	-43.8		93	12	
2025-07-02T00:00	28250	16	-43.4		92	11	
2025-07-02T00:00	28300	16	-43.1		89	11	
2025-07-02T00:00	28350	16	-43.1		87	11	
2025-07-02T00:00	28400	16	-43.1		88	11	
2025-07-02T00:00	28450	16	-42.8		92	12	
2025-07-02T00:00	28500	16	-42.7		98	12	
2025-07-02T00:00	28550	16	-43.0		105	12	
2025-07-02T00:00	28600	16	-43.1		110	12	
2025-07-02T00:00	28650	16	-43.1		111	12	
2025-07-02T00:00	28700	15	-42.7		108	12	
2025-07-02T00:00	28750	15	-42.6		106	12	
2025-07-02T00:00	28800	15	-42.5		106	13	
2025-07-02T00:00	28850	15	-42.2		109	13	
2025-07-02T00:00	28900	15	-42.2		113	14	
2025-07-02T00:00	28950	15	-42.1		116	14	
2025-07-02T00:00	29000	15	-42.1		118	14	
2025-07-02T00:00	29050	15	-41.9		120	13	
2025-07-02T00:00	29100	15	-41.8		125	13	
2025-07-02T00:00	29150	14	-41.9		129	12	
2025-07-02T00:00	29200	14	-41.9		131	12	
2025-07-02T00:00	29250	14	-42.0		129	11	
2025-07-02T00:00	29300	14	-41.9		125	10	
2025-07-02T00:00	29350	14	-41.8		120	9	
2025-07-02T00:00	29400	14	-41.4		112	9	
2025-07-02T00:00	29450	14	-41.0		102	9	
2025-07-02T00:00	29500	14	-41.0		94	10	
2025-07-02T00:00	29550	14	-41.0		91	10	
2025-07-02T00:00	29600	14	-40.7		91	10	
2025-07-02T00:00	29650	13	-40.7		93	10	
2025-07-02T00:00	29700	13	-40.5		97	10	
2025-07-02T00:00	29750	13	-40.3		100	9	
2025-07-02T00:00	29800	13	-40.4		102	9	
2025-07-02T00:00	29850	13	-40.2		104	8	
2025-07-02T00:00	29900	13	-40.0		105	8	
2025-07-02T00:00	29950	13	-39.9		104	8	
2025-07-02T00:00	30000	13	-39.8		101	8	
2025-07-02T00:00	30050	13	-39.6		96	8	
2025-07-02T00:00	30100	13	-39.4		90	8	
2025-07-02T00:00	30150	12	-39.5		87	9	
2025-07-02T00:00	30200	12	-39.6		84	9	
2025-07-02T00:00	30250	12	-39.9		82	10	
2025-07-02T00:00	30300	12	-40.0		81	11	
2025-07-02T00:00	30350	12	-40.1		81	12	
2025-07-02T00:00	30400	12	-40.3		83	12	
2025-07-02T00:00	30450	12	-40.5		86	12	
2025-07-02T00:00	30500	12	-40.8		90	12	
2025-07-02T00:00	30550	12	-40.9		95	11	
2025-07-02T00:00	30600	12	-41.0		99	10	
2025-07-02T00:00	30650	12	-41.3		102	10	
2025-07-02T00:00	30700	11	-41.5		104	10	
2025-07-02T00:00	30750	11	-41.7		103	10	
2025-07-02T00:00	30800	11	-41.6		101	9	
2025-07-02T00:00	30850	11	-41.4		96	8	
2025-07-02T00:00	30900	11	-41.0		90	8	
2025-07-02T00:00	30950	11	-40.8		84	9	
2025-07-02T00:00	31000	11	-40.8		80	10	
2025-07-02T00:00	31050	11	-40.7		76	11	
2025-07-02T00:00	31100	11	-40.5		76	11	
2025-07-02T00:00	31150	11	-40.4		76	11	
2025-07-02T00:00	31200	11	-40.6		75	10	
2025-07-02T00:00	31250	11	-40.3		74	10	
2025-07-02T00:00	31300	11	-40.1		75	11	
2025-07-02T00:00	31350	10	-40.0		79	11	
2025-07-02T00:00	31400	10	-40.0		83	11	
2025-07-02T00:00	31450	10	-39.8		85	11	
2025-07-02T00:00	31500	10	-39.5		86	11	
2025-07-02T00:00	31550	10	-39.4		86	11	
2025-07-02T00:00	31600	10	-39.2		82	10	
2025-07-02T00:00	31650	10	-38.8		76	11	
2025-07-02T00:00	31700	10	-38.6		70	12	
2025-07-02T00:00	31750	10	-38.3		68	13	
2025-07-02T00:00	31800	10	-38.2		68	15	
2025-07-02T00:00	31850	10	-37.7		69	16	
2025-07-02T00:00	31900	10	-37.6		71	17	
2025-07-02T00:00	31950	10	-37.6		73	18	
2025-07-02T00:00	32000	10	-37.4		75	18	
2025-07-02T00:00	32050	9	-37.5		79	19	
2025-07-02T00:00	32100	9	-37.2		82	19	
2025-07-02T00:00	32150	9	-37.2		84	19	
2025-07-02T00:00	32200	9	-37.1		84	20	
2025-07-02T00:00	32250	9	-37.1		84	20	
2025-07-02T00:00	32300	9	-37.1		84	20	
2025-07-02T00:00	32350	9	-37.0		86	21	
2025-07-02T00:00	32400	9	-37.0		88	21	
2025-07-02T00:00	32450	9	-37.1		91	21	
2025-07-02T00:00	32500	9	-36.9		94	21	
2025-07-02T00:00	32550	9	-36.9		97	21	
2025-07-02T00:00	32600	9	-37.0		100	20	
2025-07-02T00:00	32650	9	-37.0		101	19	
2025-07-02T00:00	32700	9	-37.0		100	18	
2025-07-02T00:00	32750	9	-36.9		98	18	
2025-07-02T00:00	32800	8	-36.6		98	18	
2025-07-02T00:00	32850	8	-36.4		99	18	
2025-07-02T00:00	32900	8	-36.5		101	18	
2025-07-02T00:00	32950	8	-36.3		103	18	
2025-07-02T00:00	33000	8	-36.2		105	19	
2025-07-02T00:00	33050	8	-36.1		108	18	
2025-07-02T00:00	33100	8	-36.3		111	18	
2025-07-02T00:00	33150	8	-36.4		110	17	
2025-07-02T00:00	33200	8	-36.2		107	16	
2025-07-02T00:00	33250	8	-36.1		100	15	
2025-07-02T00:00	33300	8	-35.7		96	15	
2025-07-02T00:00	33350	8	-35.4		96	14	
2025-07-02T00:00	33400	8	-34.9		98	14	
2025-07-02T00:00	33450	8	-34.6		96	13	
2025-07-02T00:00	33500	8	-33.8		92	14	
2025-07-02T00:00	33550	8	-33.1		89	15	
2025-07-02T00:00	33600	8	-32.8		91	16	
2025-07-02T00:00	33650	7	-32.2		95	16	
2025-07-02T00:00	33700	7	-32.0		97	16	
2025-07-02T00:00	33750	7	-31.7		98	15	
2025-07-02T00:00	33800	7	-31.3		96	14	
2025-07-02T00:00	33850	7	-31.0		95	14	
2025-07-02T00:00	33900	7	-30.9		94	14	
2025-07-02T00:00	33950	7	-30.8		94	14	
2025-07-02T00:00	34000	7	-30.6		95	15	
2025-07-02T00:00	34050	7	-30.6		95	17	
2025-07-02T00:00	34100	7	-30.6		94	18	
2025-07-02T00:00	34150	7	-30.7		92	18	
2025-07-02T00:00	34200	7	-30.8		90	18	
2025-07-02T00:00	34250	7	-30.6		88	18	
2025-07-02T00:00	34300	7	-30.3		88	18	
2025-07-02T00:00	34350	7	-30.1		90	18	
2025-07-02T00:00	34400	7	-29.9		92	19	
2025-07-02T00:00	34450	7	-29.9		94	19	
2025-07-02T00:00	34500	7	-29.9		95	18	
2025-07-02T00:00	34550	7	-29.9		97	18	
2025-07-02T00:00	34600	7	-30.0		98	18	
2025-07-02T00:00	34650	7	-30.1		99	18	
2025-07-02T00:00	34700	6	-30.2		97	18	
2025-07-02T00:00	34750	6	-30.1		95	18	
2025-07-02T00:00	34800	6	-30.0		93	17	
2025-07-02T00:00	34850	6	-29.7		92	16	
2025-07-02T00:00	34900	6	-29.6		91	16	
2025-07-02T00:00	34950	6	-29.4		91	16	
2025-07-02T00:00	35000	6	-29.1		91	16	
2025-07-02T00:00	35050	6	-28.8		91	17	
2025-07-02T00:00	35100	6	-28.6		92	17	
2025-07-02T00:00	35150	6	-28.5		94	17	
2025-07-02T00:00	35200	6	-28.5		94	16	
2025-07-02T00:00	35250	6	-28.7		93	15	
2025-07-02T00:00	35300	6	-28.7		90	15	
2025-07-02T00:00	35350	6	-28.8		85	16	
2025-07-02T00:00	35400	6	-28.6		81	17	
2025-07-02T00:00	35450	6	-28.4		77	18	
2025-07-02T00:00	35500	6	-28.0		73	19	
2025-07-02T00:00	35550	6	-28.2		71	19	
2025-07-02T00:00	35600	6	-28.0		70	19	
2025-07-02T00:00	35650	6	-27.8		71	19	
2025-07-02T00:00	35700	6	-27.7		72	19	
2025-07-02T00:00	35750	6	-27.7		71	19	
2025-07-02T00:00	35800	6	-27.6		71	18	
2025-07-02T00:00	35850	6	-27.6		72	18	
2025-07-02T00:00	35900	5	-27.8		74	17	
2025-07-02T00:00	35950	5	-27.9		77	16	
2025-07-02T00:00	36000	5	-28.1		79	15	
2025-07-02T00:00	36050	5	-28.2		82	15	
2025-07-02T00:00	36100	5	-28.0		85	16	
2025-07-02T00:00	36150	5	-27.5		87	16	
2025-07-02T12:00	491	960	30.7	15.9	205	3	4.8
2025-07-02T12:00	501	959	28.4	16.1	285	1	4.8
2025-07-02T12:00	520	957	28.3	15.8	288	2	5.0
2025-07-02T12:00	540	955	28.3	15.7	286	2	5.1
2025-07-02T12:00	560	953	27.8	15.6	287	2	5.2
2025-07-02T12:00	580	951	27.6	15.4	291	3	5.3
2025-07-02T12:00	600	949	27.3	15.6	294	3	5.4
2025-07-02T12:00	620	946	27.2	15.5	300	2	5.5
2025-07-02T12:00	640	944	27.0	15.5	306	2	5.6
2025-07-02T12:00	660	942	26.7	15.5	310	2	5.6
2025-07-02T12:00	680	940	26.5	15.3	316	2	5.6
2025-07-02T12:00	700	938	26.3	15.2	323	2	5.6
2025-07-02T12:00	720	936	26.2	15.2	332	1	5.7
2025-07-02T12:00	740	934	26.0	15.2	344	1	5.7
2025-07-02T12:00	760	932	25.8	15.2	2	1	5.7
2025-07-02T12:00	780	929	25.7	15.2	28	1	5.7
2025-07-02T12:00	800	927	25.5	15.1	59	1	5.7
2025-07-02T12:00	820	925	25.3	15.1	88	1	5.7
2025-07-02T12:00	840	923	25.1	15.0	111	1	5.7
2025-07-02T12:00	860	921	25.0	14.9	128	1	5.7
2025-07-02T12:00	880	919	24.7	15.0	143	1	5.7
2025-07-02T12:00	900	917	24.5	15.2	153	2	5.7
2025-07-02T12:00	920	915	24.4	14.9	160	2	5.7
2025-07-02T12:00	940	913	24.2	15.0	166	2	5.7
2025-07-02T12:00	960	911	24.0	15.1	169	2	5.7
2025-07-02T12:00	980	909	23.8	14.9	172	2	5.7
2025-07-02T12:00	1000	906	23.6	14.8	174	2	5.7
2025-07-02T12:00	1020	904	23.4	14.8	175	2	5.7
2025-07-02T12:00	1040	902	23.2	14.7	174	2	5.7
2025-07-02T12:00	1060	900	23.0	14.7	172	2	5.7
2025-07-02T12:00	1080	898	22.9	14.5	170	2	5.7
2025-07-02T12:00	1100	896	22.7	14.5	168	2	5.6
2025-07-02T12:00	1120	894	22.5	14.6	166	2	5.6
2025-07-02T12:00	1140	892	22.4	14.6	166	2	5.6
2025-07-02T12:00	1160	890	22.2	14.6	168	2	5.6
2025-07-02T12:00	1180	888	22.0	14.4	170	2	5.6
2025-07-02T12:00	1200	886	21.8	14.3	172	2	5.6
2025-07-02T12:00	1220	884	21.7	14.2	175	2	5.6
2025-07-02T12:00	1240	882	21.4	14.4	176	2	5.6
2025-07-02T12:00	1260	880	21.2	14.3	174	2	5.6
2025-07-02T12:00	1280	878	21.0	14.1	169	2	5.6
2025-07-02T12:00	1300	876	20.9	14.1	162	2	5.6
2025-07-02T12:00	1320	874	20.6	13.8	152	2	5.6
2025-07-02T12:00	1340	872	20.4	13.7	141	2	5.6
2025-07-02T12:00	1360	869	20.3	13.6	134	2	5.5
2025-07-02T12:00	1380	868	20.1	13.6	133	2	5.5
2025-07-02T12:00	1400	866	19.9	13.9	136	2	5.5
2025-07-02T12:00	1420	864	19.9	13.4	144	2	5.5
2025-07-02T12:00	1440	862	19.7	13.1	154	2	5.5
2025-07-02T12:00	1460	860	19.5	13.0	167	2	5.5
2025-07-02T12:00	1480	858	19.3	12.7	180	2	5.5
2025-07-02T12:00	1500	856	19.1	12.4	192	2	5.5
2025-07-02T12:00	1520	854	19.1	12.2	200	2	5.5
2025-07-02T12:00	1540	852	19.0	12.0	206	2	5.4
2025-07-02T12:00	1560	850	18.8	12.1	212	3	5.4
2025-07-02T12:00	1580	848	18.7	11.0	217	3	5.4
2025-07-02T12:00	1600	846	19.0	10.2	220	3	5.4
2025-07-02T12:00	1620	844	18.9	9.2	221	3	5.4
2025-07-02T12:00	1640	842	19.5	6.1	222	3	5.3
2025-07-02T12:00	1660	840	19.7	6.3	222	3	5.3
2025-07-02T12:00	1680	838	19.5	7.6	221	3	5.4
2025-07-02T12:00	1700	836	19.3	8.4	220	3	5.4
2025-07-02T12:00	1720	834	19.1	8.2	218	2	5.4
2025-07-02T12:00	1740	832	18.9	8.2	215	2	5.4
2025-07-02T12:00	1760	830	18.7	8.3	213	2	5.4
2025-07-02T12:00	1780	828	18.4	8.3	212	2	5.4
2025-07-02T12:00	1800	826	18.2	8.1	210	2	5.4
2025-07-02T12:00	1820	824	18.0	8.3	210	2	5.4
2025-07-02T12:00	1840	822	17.8	8.2	211	3	5.4
2025-07-02T12:00	1860	821	17.7	7.7	212	3	5.4
2025-07-02T12:00	1880	819	17.7	7.3	213	3	5.4
2025-07-02T12:00	1900	817	17.5	7.4	215	3	5.4
2025-07-02T12:00	1920	815	17.2	7.4	215	3	5.4
2025-07-02T12:00	1940	813	17.0	7.3	215	3	5.4
2025-07-02T12:00	1960	811	17.0	6.4	212	3	5.4
2025-07-02T12:00	1980	809	16.9	6.3	208	2	5.4
2025-07-02T12:00	2000	807	16.8	6.1	204	2	5.3
2025-07-02T12:00	2020	806	16.7	6.1	200	2	5.3
2025-07-02T12:00	2040	804	16.4	6.1	200	2	5.3
2025-07-02T12:00	2060	802	16.2	5.9	203	2	5.3
2025-07-02T12:00	2080	800	16.1	5.6	206	2	5.3
2025-07-02T12:00	2100	798	16.0	5.4	210	2	5.3
2025-07-02T12:00	2120	796	15.7	5.4	214	2	5.2
2025-07-02T12:00	2140	794	15.6	5.0	215	2	5.1
2025-07-02T12:00	2160	792	15.5	5.1	216	2	5.1
2025-07-02T12:00	2180	790	15.2	5.4	215	2	5.0
2025-07-02T12:00	2200	788	15.1	6.0	213	2	5.0
2025-07-02T12:00	2220	787	14.9	6.2	212	2	5.0
2025-07-02T12:00	2240	785	14.7	5.7	212	3	4.9
2025-07-02T12:00	2260	783	14.6	5.4	213	3	5.0
2025-07-02T12:00	2280	781	14.5	4.8	216	3	5.0
2025-07-02T12:00	2300	779	14.4	4.2	220	3	5.0
2025-07-02T12:00	2320	777	14.2	4.0	223	3	5.0
2025-07-02T12:00	2340	775	14.0	3.6	225	3	5.0
2025-07-02T12:00	2360	774	13.9	3.7	225	3	5.1
2025-07-02T12:00	2380	772	13.8	3.1	223	3	5.1
2025-07-02T12:00	2400	770	13.6	3.2	219	3	5.1
2025-07-02T12:00	2420	768	13.5	3.3	215	3	5.1
2025-07-02T12:00	2440	766	13.3	3.0	211	2	5.1
2025-07-02T12:00	2460	765	13.2	3.0	208	1	5.1
2025-07-02T12:00	2480	763	13.1	3.0	210	1	5.1
2025-07-02T12:00	2500	761	12.9	2.4	219	0	5.1
2025-07-02T12:00	2520	759	12.7	2.0	223	0	5.1
2025-07-02T12:00	2540	757	12.7	1.6	96	0	5.1
2025-07-02T12:00	2560	756	12.7	1.3	111	1	5.1
2025-07-02T12:00	2580	754	12.6	1.2	120	1	5.1
2025-07-02T12:00	2600	752	12.5	1.1	124	2	5.2
2025-07-02T12:00	2620	750	12.4	1.0	126	2	5.2
2025-07-02T12:00	2640	748	12.3	0.8	126	2	5.2
2025-07-02T12:00	2660	747	12.1	0.8	126	2	5.2
2025-07-02T12:00	2680	745	12.0	0.8	125	2	5.2
2025-07-02T12:00	2700	743	11.8	0.7	125	2	5.2
2025-07-02T12:00	2720	741	11.6	0.7	126	2	5.2
2025-07-02T12:00	2740	739	11.4	0.7	129	2	5.2
2025-07-02T12:00	2760	738	11.2	0.6	131	2	5.2
2025-07-02T12:00	2780	736	11.1	0.7	133	2	5.1
2025-07-02T12:00	2800	734	10.9	0.8	134	2	5.1
2025-07-02T12:00	2820	732	10.7	0.8	134	2	5.1
2025-07-02T12:00	2840	731	10.6	1.0	134	2	5.1
2025-07-02T12:00	2860	729	10.5	0.8	134	2	5.0
2025-07-02T12:00	2880	727	10.4	0.3	136	2	5.0
2025-07-02T12:00	2900	725	10.2	0.3	140	2	5.0
2025-07-02T12:00	2920	724	10.1	0.2	147	1	4.9
2025-07-02T12:00	2940	722	10.0	0.1	156	1	4.9
2025-07-02T12:00	2960	720	9.8	0.3	163	1	4.9
2025-07-02T12:00	2980	719	9.5	0.2	167	1	4.9
2025-07-02T12:00	3000	717	9.3	0.0	167	1	5.0
2025-07-02T12:00	3020	715	9.3	-0.2	167	2	5.0
2025-07-02T12:00	3040	713	9.1	-0.3	168	2	4.9
2025-07-02T12:00	3060	712	8.9	-0.2	170	2	4.9
2025-07-02T12:00	3080	710	8.6	-0.2	173	2	4.9
2025-07-02T12:00	3100	708	8.4	-0.4	175	2	4.9
2025-07-02T12:00	3120	707	8.4	-0.7	174	2	4.9
2025-07-02T12:00	3140	705	8.2	-0.6	170	2	4.9
2025-07-02T12:00	3160	703	8.0	-0.6	162	2	4.9
2025-07-02T12:00	3180	701	7.9	-0.6	153	2	4.9
2025-07-02T12:00	3200	700	7.5	-0.5	148	2	4.8
2025-07-02T12:00	3220	698	7.4	-0.6	147	2	4.8
2025-07-02T12:00	3240	696	7.3	-0.6	148	2	4.8
2025-07-02T12:00	3260	695	7.1	-0.6	151	3	4.8
2025-07-02T12:00	3280	693	7.0	-0.8	152	3	4.8
2025-07-02T12:00	3300	691	6.7	-1.1	153	3	4.7
2025-07-02T12:00	3320	690	6.6	-1.1	153	3	4.7
2025-07-02T12:00	3340	688	6.4	-1.2	152	3	4.7
2025-07-02T12:00	3360	686	6.3	-1.3	151	4	4.7
2025-07-02T12:00	3380	685	6.2	-1.5	149	4	4.7
2025-07-02T12:00	3400	683	6.1	-1.6	148	4	4.7
2025-07-02T12:00	3420	681	6.0	-1.8	146	4	4.7
2025-07-02T12:00	3440	679	5.8	-1.8	145	4	4.7
2025-07-02T12:00	3460	678	5.6	-1.8	145	4	4.7
2025-07-02T12:00	3480	676	5.4	-2.0	146	4	4.7
2025-07-02T12:00	3500	675	5.2	-2.1	148	3	4.7
2025-07-02T12:00	3520	673	5.1	-2.1	152	3	4.6
2025-07-02T12:00	3540	671	4.9	-2.1	155	3	4.6
2025-07-02T12:00	3560	670	4.8	-2.3	158	3	4.7
2025-07-02T12:00	3580	668	4.6	-2.8	160	2	4.6
2025-07-02T12:00	3600	666	4.5	-3.0	161	2	4.6
2025-07-02T12:00	3620	665	4.4	-3.3	160	1	4.6
2025-07-02T12:00	3640	663	4.3	-3.3	148	1	4.6
2025-07-02T12:00	3660	661	4.0	-3.3	92	0	4.7
2025-07-02T12:00	3680	660	3.7	-3.6	66	1	4.7
2025-07-02T12:00	3700	658	3.6	-3.8	77	1	4.7
2025-07-02T12:00	3720	657	3.5	-4.0	96	1	4.7
2025-07-02T12:00	3740	655	3.4	-4.4	110	1	4.7
2025-07-02T12:00	3760	653	3.3	-4.7	123	1	4.7
2025-07-02T12:00	3780	652	3.2	-5.0	134	1	4.7
2025-07-02T12:00	3800	650	3.2	-5.6	143	1	4.7
2025-07-02T12:00	3820	648	3.0	-5.6	149	1	4.7
2025-07-02T12:00	3840	647	2.9	-5.5	151	1	4.7
2025-07-02T12:00	3860	645	2.7	-5.5	148	1	4.7
2025-07-02T12:00	3880	644	2.5	-5.4	143	1	4.7
2025-07-02T12:00	3900	642	2.4	-5.4	138	1	4.7
2025-07-02T12:00	3920	640	2.2	-5.2	132	0	4.7
2025-07-02T12:00	3940	639	1.9	-5.3	322	0	4.6
2025-07-02T12:00	3960	637	1.7	-5.3	319	1	4.6
2025-07-02T12:00	3980	636	1.6	-5.2	319	1	4.6
2025-07-02T12:00	4000	634	1.4	-5.1	321	2	4.6
2025-07-02T12:00	4020	633	1.2	-4.8	325	2	4.6
2025-07-02T12:00	4040	631	0.9	-4.6	330	2	4.6
2025-07-02T12:00	4060	629	0.8	-5.5	338	2	4.6
2025-07-02T12:00	4080	628	0.8	-6.7	343	2	4.6
2025-07-02T12:00	4100	626	0.7	-7.2	347	2	4.6
2025-07-02T12:00	4120	625	0.6	-7.3	349	2	4.7
2025-07-02T12:00	4140	623	0.3	-7.3	350	2	4.7
2025-07-02T12:00	4160	622	0.1	-7.5	350	1	4.7
2025-07-02T12:00	4180	620	0.0	-7.6	349	1	4.7
2025-07-02T12:00	4200	619	-0.2	-7.7	347	1	4.6
2025-07-02T12:00	4220	617	-0.3	-8.8	338	1	4.6
2025-07-02T12:00	4240	615	-0.4	-9.9	283	0	4.7
2025-07-02T12:00	4260	614	-0.5	-12.3	218	0	4.7
2025-07-02T12:00	4280	612	-0.4	-12.2	209	1	4.7
2025-07-02T12:00	4300	611	-0.6	-11.3	212	1	4.8
2025-07-02T12:00	4320	609	-0.6	-10.4	217	1	4.8
2025-07-02T12:00	4340	608	-0.8	-9.8	223	1	4.8
2025-07-02T12:00	4360	606	-1.1	-9.2	225	1	4.8
2025-07-02T12:00	4380	605	-1.3	-8.1	217	1	4.8
2025-07-02T12:00	4400	603	-1.6	-8.1	195	1	4.8
2025-07-02T12:00	4420	602	-1.7	-8.6	171	1	4.8
2025-07-02T12:00	4440	600	-1.8	-9.3	149	2	4.8
2025-07-02T12:00	4460	599	-1.9	-11.0	135	2	4.8
2025-07-02T12:00	4480	597	-2.0	-11.7	127	2	4.8
2025-07-02T12:00	4500	596	-2.1	-11.8	121	2	4.8
2025-07-02T12:00	4520	594	-2.2	-11.9	114	1	4.8
2025-07-02T12:00	4540	593	-2.5	-12.0	104	1	4.8
2025-07-02T12:00	4560	591	-2.6	-12.2	93	1	4.9
2025-07-02T12:00	4580	590	-2.7	-12.6	87	2	4.9
2025-07-02T12:00	4600	588	-2.8	-12.7	84	2	4.9
2025-07-02T12:00	4620	587	-2.9	-13.0	84	2	4.9
2025-07-02T12:00	4640	585	-3.2	-13.2	85	3	5.0
2025-07-02T12:00	4660	584	-3.4	-13.6	87	3	5.0
2025-07-02T12:00	4680	582	-3.6	-14.4	87	3	4.9
2025-07-02T12:00	4700	581	-3.6	-14.7	86	3	4.9
2025-07-02T12:00	4720	580	-3.7	-14.8	83	3	4.9
2025-07-02T12:00	4740	578	-3.8	-15.1	79	3	5.0
2025-07-02T12:00	4760	577	-3.8	-15.2	75	4	5.0
2025-07-02T12:00	4780	575	-3.9	-15.4	71	4	5.0
2025-07-02T12:00	4800	574	-4.0	-16.0	69	5	5.1
2025-07-02T12:00	4820	572	-4.1	-16.5	68	5	5.2
2025-07-02T12:00	4840	571	-4.1	-16.5	68	5	5.2
2025-07-02T12:00	4860	569	-4.2	-16.6	68	5	5.1
2025-07-02T12:00	4880	568	-4.3	-16.5	68	6	5.1
2025-07-02T12:00	4900	566	-4.6	-16.3	67	6	5.1
2025-07-02T12:00	4920	565	-4.7	-16.4	66	6	5.1
2025-07-02T12:00	4940	563	-4.9	-16.2	66	6	5.0
2025-07-02T12:00	4960	562	-5.2	-16.0	65	6	5.0
2025-07-02T12:00	4980	561	-5.4	-15.9	67	6	5.0
2025-07-02T12:00	5000	559	-5.6	-16.0	70	5	4.9
2025-07-02T12:00	5020	558	-5.8	-16.2	76	5	4.9
2025-07-02T12:00	5040	556	-6.0	-16.5	80	5	4.9
2025-07-02T12:00	5060	555	-6.1	-16.3	83	4	4.8
2025-07-02T12:00	5080	554	-6.2	-16.6	84	4	4.7
2025-07-02T12:00	5100	552	-6.3	-17.6	83	4	4.8
2025-07-02T12:00	5120	551	-6.5	-18.0	80	4	4.8
2025-07-02T12:00	5140	549	-6.6	-20.1	77	4	4.8
2025-07-02T12:00	5160	548	-6.7	-20.8	77	3	4.8
2025-07-02T12:00	5180	547	-6.8	-24.2	81	3	4.7
2025-07-02T12:00	5200	545	-6.9	-27.3	87	3	4.7
2025-07-02T12:00	5220	544	-7.0	-26.6	93	3	4.7
2025-07-02T12:00	5240	542	-7.1	-27.1	95	3	4.6
2025-07-02T12:00	5260	541	-7.1	-28.1	95	3	4.6
2025-07-02T12:00	5280	540	-7.3	-24.6	95	4	4.6
2025-07-02T12:00	5300	538	-7.5	-21.0	95	4	4.5
2025-07-02T12:00	5320	537	-7.7	-18.9	96	4	4.5
2025-07-02T12:00	5340	535	-7.7	-20.3	98	4	4.5
2025-07-02T12:00	5360	534	-7.7	-24.4	101	4	4.5
2025-07-02T12:00	5380	532	-7.7	-23.5	102	5	4.5
2025-07-02T12:00	5400	531	-7.7	-26.2	102	5	4.5
2025-07-02T12:00	5420	530	-7.8	-28.9	99	5	4.6
2025-07-02T12:00	5440	529	-7.9	-30.9	95	6	4.7
2025-07-02T12:00	5460	527	-8.1	-33.6	89	6	4.7
2025-07-02T12:00	5480	526	-8.3	-35.0	83	6	4.7
2025-07-02T12:00	5500	524	-8.6	-36.0	79	6	4.7
2025-07-02T12:00	5520	523	-8.7	-38.0	77	5	4.7
2025-07-02T12:00	5540	522	-8.8	-39.1	78	5	4.7
2025-07-02T12:00	5560	521	-8.8	-38.7	79	5	4.7
2025-07-02T12:00	5580	519	-9.0	-38.4	81	5	4.7
2025-07-02T12:00	5600	518	-9.1	-37.8	81	6	4.7
2025-07-02T12:00	5620	516	-9.3	-37.0	81	6	4.7
2025-07-02T12:00	5640	515	-9.5	-35.6	81	6	4.6
2025-07-02T12:00	5660	514	-9.6	-33.5	80	6	4.6
2025-07-02T12:00	5680	512	-9.7	-33.5	81	5	4.5
2025-07-02T12:00	5700	511	-9.8	-34.1	82	5	4.5
2025-07-02T12:00	5720	510	-9.9	-35.3	84	5	4.4
2025-07-02T12:00	5740	508	-10.1	-35.9	86	5	4.3
2025-07-02T12:00	5760	507	-10.3	-35.5	88	4	4.3
2025-07-02T12:00	5780	506	-10.5	-36.0	86	4	4.2
2025-07-02T12:00	5800	505	-10.6	-36.4	84	4	4.2
2025-07-02T12:00	5820	503	-10.8	-36.3	81	4	4.1
2025-07-02T12:00	5840	502	-10.9	-35.6	76	4	4.1
2025-07-02T12:00	5860	500	-11.0	-34.4	73	4	4.1
2025-07-02T12:00	5880	499	-11.0	-32.4	72	4	4.0
2025-07-02T12:00	5900	498	-11.1	-33.8	74	3	4.1
2025-07-02T12:00	5920	497	-11.3	-32.4	82	3	4.1
2025-07-02T12:00	5940	495	-11.4	-27.4	101	2	4.0
2025-07-02T12:00	5960	494	-11.4	-24.4	125	2	4.0
2025-07-02T12:00	5980	493	-11.5	-20.9	140	3	4.0
2025-07-02T12:00	6000	491	-11.7	-19.4	146	4	4.0
2025-07-02T12:00	6020	490	-11.7	-18.0	150	4	4.0
2025-07-02T12:00	6040	489	-11.8	-15.4	154	5	4.0
2025-07-02T12:00	6060	488	-11.9	-14.5	158	5	4.0
2025-07-02T12:00	6080	486	-11.9	-14.2	162	6	4.0
2025-07-02T12:00	6100	485	-11.9	-14.1	165	6	3.9
2025-07-02T12:00	6120	484	-12.1	-14.1	167	6	3.8
2025-07-02T12:00	6140	483	-12.3	-14.1	167	6	3.8
2025-07-02T12:00	6160	481	-12.5	-14.1	166	6	3.7
2025-07-02T12:00	6180	480	-12.7	-14.3	164	6	3.6
2025-07-02T12:00	6200	479	-12.8	-14.4	160	6	3.6
2025-07-02T12:00	6220	478	-13.0	-14.5	153	5	3.6
2025-07-02T12:00	6240	476	-13.1	-14.5	145	5	3.6
2025-07-02T12:00	6260	475	-13.3	-14.5	136	4	3.6
2025-07-02T12:00	6280	474	-13.4	-14.6	127	4	3.6
2025-07-02T12:00	6300	473	-13.6	-14.8	122	4	3.6
2025-07-02T12:00	6320	471	-13.7	-15.3	120	4	3.6
2025-07-02T12:00	6340	470	-13.8	-15.8	121	4	3.6
2025-07-02T12:00	6360	469	-13.8	-15.9	124	4	3.6
2025-07-02T12:00	6380	468	-14.0	-16.1	127	4	3.6
2025-07-02T12:00	6400	466	-14.2	-15.8	130	4	3.6
2025-07-02T12:00	6420	465	-14.4	-15.9	133	3	3.6
2025-07-02T12:00	6440	464	-14.6	-16.1	137	3	3.6
2025-07-02T12:00	6460	463	-14.7	-16.3	143	2	3.6
2025-07-02T12:00	6480	461	-14.8	-17.0	153	1	3.5
2025-07-02T12:00	6500	460	-14.8	-17.4	171	1	3.5
2025-07-02T12:00	6520	459	-14.9	-18.0	205	1	3.5
2025-07-02T12:00	6540	458	-14.8	-21.9	237	1	3.5
2025-07-02T12:00	6560	457	-14.9	-21.8	250	2	3.5
2025-07-02T12:00	6580	455	-15.0	-20.4	249	2	3.6
2025-07-02T12:00	6600	454	-15.1	-20.1	242	3	3.7
2025-07-02T12:00	6620	453	-15.2	-20.0	232	3	3.7
2025-07-02T12:00	6640	452	-15.4	-19.8	222	3	3.8
2025-07-02T12:00	6660	451	-15.6	-19.8	212	3	3.8
2025-07-02T12:00	6680	449	-15.7	-19.8	202	3	3.8
2025-07-02T12:00	6700	448	-15.9	-19.6	193	3	3.8
2025-07-02T12:00	6720	447	-16.1	-19.4	185	3	3.8
2025-07-02T12:00	6740	446	-16.2	-18.9	179	3	3.8
2025-07-02T12:00	6760	445	-16.3	-18.2	174	3	3.7
2025-07-02T12:00	6780	443	-16.5	-18.0	173	3	3.7
2025-07-02T12:00	6800	442	-16.7	-17.5	175	3	3.7
2025-07-02T12:00	6820	441	-16.8	-17.8	180	2	3.7
2025-07-02T12:00	6840	440	-16.9	-18.1	191	2	3.6
2025-07-02T12:00	6860	439	-17.1	-19.2	205	2	3.6
2025-07-02T12:00	6880	438	-17.3	-20.4	215	3	3.6
2025-07-02T12:00	6900	437	-17.5	-21.4	221	3	3.6
2025-07-02T12:00	6920	435	-17.5	-21.1	226	3	3.7
2025-07-02T12:00	6940	434	-17.7	-21.2	227	3	3.8
2025-07-02T12:00	6960	433	-17.9	-21.4	225	3	3.7
2025-07-02T12:00	6980	432	-18.0	-24.3	221	3	3.7
2025-07-02T12:00	7000	431	-18.1	-27.5	217	3	3.7
2025-07-02T12:00	7020	430	-18.2	-29.2	210	3	3.7
2025-07-02T12:00	7040	428	-18.4	-34.1	200	3	3.7
2025-07-02T12:00	7060	427	-18.5	-34.1	190	3	3.8
2025-07-02T12:00	7080	426	-18.6	-31.4	183	3	3.8
2025-07-02T12:00	7100	425	-18.6	-27.2	179	4	3.7
2025-07-02T12:00	7120	424	-18.7	-23.2	180	4	3.7
2025-07-02T12:00	7140	423	-18.8	-20.0	185	5	3.7
2025-07-02T12:00	7160	421	-19.0	-20.3	189	5	3.7
2025-07-02T12:00	7180	420	-19.1	-20.5	194	5	3.7
2025-07-02T12:00	7200	419	-19.3	-20.5	199	6	3.7
2025-07-02T12:00	7220	418	-19.5	-20.4	202	6	3.6
2025-07-02T12:00	7240	417	-19.6	-20.6	204	6	3.5
2025-07-02T12:00	7260	416	-19.7	-20.5	205	6	3.5
2025-07-02T12:00	7280	415	-19.9	-20.7	205	5	3.5
2025-07-02T12:00	7300	414	-19.9	-20.9	205	5	3.5
2025-07-02T12:00	7320	412	-20.1	-21.0	206	5	3.5
2025-07-02T12:00	7340	412	-20.2	-21.1	206	4	3.4
2025-07-02T12:00	7360	410	-20.4	-21.3	207	5	3.4
2025-07-02T12:00	7380	409	-20.5	-21.5	205	5	3.4
2025-07-02T12:00	7400	408	-20.6	-21.6	204	5	3.4
2025-07-02T12:00	7420	407	-20.7	-21.6	202	6	3.4
2025-07-02T12:00	7440	406	-20.8	-21.9	200	7	3.4
2025-07-02T12:00	7460	405	-21.0	-22.1	199	7	3.4
2025-07-02T12:00	7480	404	-21.1	-22.4	198	8	3.4
2025-07-02T12:00	7500	403	-21.2	-22.8	197	8	3.4
2025-07-02T12:00	7520	402	-21.4	-23.0	197	8	3.4
2025-07-02T12:00	7540	400	-21.6	-23.0	197	9	3.4
2025-07-02T12:00	7560	399	-21.8	-23.1	198	9	3.4
2025-07-02T12:00	7580	398	-21.9	-23.5	198	9	3.4
2025-07-02T12:00	7600	397	-22.0	-23.5	200	8	3.4
2025-07-02T12:00	7620	396	-22.2	-23.9	201	8	3.4
2025-07-02T12:00	7640	395	-22.3	-24.7	203	8	3.4
2025-07-02T12:00	7660	394	-22.4	-26.5	205	8	3.4
2025-07-02T12:00	7680	393	-22.4	-29.8	206	8	3.4
2025-07-02T12:00	7700	392	-22.1	-40.5	206	8	3.5
2025-07-02T12:00	7720	391	-21.9	-44.2	204	8	3.6
2025-07-02T12:00	7740	390	-22.0	-40.3	202	9	3.8
2025-07-02T12:00	7760	389	-22.1	-39.0	201	9	3.9
2025-07-02T12:00	7780	388	-22.4	-37.5	200	9	4.0
2025-07-02T12:00	7800	387	-22.5	-38.1	201	9	4.0
2025-07-02T12:00	7820	385	-22.7	-38.4	203	8	4.0
2025-07-02T12:00	7840	384	-22.8	-38.2	205	8	4.1
2025-07-02T12:00	7860	384	-22.9	-38.1	207	8	4.1
2025-07-02T12:00	7880	382	-23.2	-39.2	209	8	4.1
2025-07-02T12:00	7900	381	-23.4	-40.4	212	8	4.1
2025-07-02T12:00	7920	380	-23.4	-41.7	214	8	4.1
2025-07-02T12:00	7940	379	-23.5	-43.1	215	8	4.1
2025-07-02T12:00	7960	378	-23.7	-45.8	215	8	4.2
2025-07-02T12:00	7980	377	-23.8	-47.8	216	8	4.2
2025-07-02T12:00	8000	376	-23.9	-48.5	216	8	4.2
2025-07-02T12:00	8020	375	-24.0	-51.0	215	9	4.3
2025-07-02T12:00	8040	374	-24.2	-51.5	214	9	4.4
2025-07-02T12:00	8060	373	-24.3	-52.1	212	9	4.5
2025-07-02T12:00	8080	372	-24.4	-54.4	211	9	4.5
2025-07-02T12:00	8100	371	-24.5	-54.1	209	9	4.5
2025-07-02T12:00	8120	370	-24.7	-53.6	208	9	4.5
2025-07-02T12:00	8140	369	-24.9	-51.9	207	8	4.6
2025-07-02T12:00	8160	368	-25.1	-50.0	207	8	4.6
2025-07-02T12:00	8180	367	-25.1	-49.3	208	8	4.6
2025-07-02T12:00	8200	366	-25.3	-49.4	209	8	4.7
2025-07-02T12:00	8220	365	-25.4	-50.0	209	8	4.7
2025-07-02T12:00	8240	364	-25.6	-50.8	209	8	4.7
2025-07-02T12:00	8260	363	-25.6	-53.0	209	8	4.6
2025-07-02T12:00	8280	362	-25.7	-56.3	209	8	4.5
2025-07-02T12:00	8300	361	-25.7	-55.7	210	8	4.6
2025-07-02T12:00	8320	360	-25.8	-55.2	211	7	4.6
2025-07-02T12:00	8340	359	-26.1	-55.3	212	7	4.7
2025-07-02T12:00	8360	358	-26.3	-55.3	215	7	4.7
2025-07-02T12:00	8380	357	-26.5	-55.1	217	7	4.7
2025-07-02T12:00	8400	356	-26.6	-55.1	218	7	4.7
2025-07-02T12:00	8420	355	-26.8	-55.2	219	7	4.7
2025-07-02T12:00	8440	354	-27.0	-54.6	220	7	4.8
2025-07-02T12:00	8460	353	-27.2	-54.4	220	8	4.9
2025-07-02T12:00	8480	352	-27.5	-54.4	219	8	4.8
2025-07-02T12:00	8500	351	-27.6	-54.2	219	8	4.8
2025-07-02T12:00	8520	350	-27.7	-56.0	219	8	4.8
2025-07-02T12:00	8540	349	-27.8	-58.4	219	8	4.9
2025-07-02T12:00	8560	348	-27.8	-58.6	220	8	4.9
2025-07-02T12:00	8580	347	-28.0	-58.7	221	8	5.0
2025-07-02T12:00	8600	346	-28.1	-58.8	222	8	5.1
2025-07-02T12:00	8620	345	-28.3	-59.0	223	8	5.2
2025-07-02T12:00	8640	344	-28.3	-59.0	223	8	5.2
2025-07-02T12:00	8660	343	-28.5	-59.3	224	8	5.1
2025-07-02T12:00	8680	342	-28.8	-59.3	224	8	5.0
2025-07-02T12:00	8700	341	-28.9	-59.3	225	8	5.0
2025-07-02T12:00	8720	340	-29.0	-58.3	226	8	5.0
2025-07-02T12:00	8740	339	-29.1	-57.2	227	8	5.0
2025-07-02T12:00	8760	339	-29.3	-57.6	228	8	5.0
2025-07-02T12:00	8780	338	-29.4	-57.8	228	8	5.0
2025-07-02T12:00	8800	337	-29.6	-57.6	227	8	5.0
2025-07-02T12:00	8820	336	-29.8	-57.6	225	9	4.9
2025-07-02T12:00	8840	335	-30.0	-57.0	223	9	5.0
2025-07-02T12:00	8860	334	-30.2	-55.5	220	9	5.1
2025-07-02T12:00	8880	333	-30.3	-55.5	218	9	5.1
2025-07-02T12:00	8900	332	-30.4	-55.5	216	9	5.1
2025-07-02T12:00	8920	331	-30.6	-55.6	215	9	5.0
2025-07-02T12:00	8940	330	-30.9	-55.6	217	8	4.9
2025-07-02T12:00	8960	329	-31.1	-54.6	220	8	4.9
2025-07-02T12:00	8980	328	-31.2	-55.4	223	8	4.9
2025-07-02T12:00	9000	327	-31.3	-58.0	226	8	4.9
2025-07-02T12:00	9020	327	-31.5	-60.1	229	8	4.9
2025-07-02T12:00	9040	325	-31.7	-60.9	233	8	4.9
2025-07-02T12:00	9060	324	-31.8	-60.6	237	8	4.9
2025-07-02T12:00	9080	324	-31.9	-59.5	241	8	4.8
2025-07-02T12:00	9100	323	-32.0	-58.9	245	8	4.8
2025-07-02T12:00	9120	322	-32.1	-58.7	250	8	4.8
2025-07-02T12:00	9140	321	-32.3	-58.4	254	7	4.8
2025-07-02T12:00	9160	320	-32.5	-57.6	256	7	4.8
2025-07-02T12:00	9180	319	-32.6	-57.1	257	6	4.8
2025-07-02T12:00	9200	318	-32.8	-56.8	255	5	4.8
2025-07-02T12:00	9220	317	-33.0	-55.3	252	5	4.8
2025-07-02T12:00	9240	316	-33.1	-54.3	247	4	4.8
2025-07-02T12:00	9260	315	-33.3	-53.8	243	4	4.8
2025-07-02T12:00	9280	315	-33.5	-53.1	240	4	4.7
2025-07-02T12:00	9300	314	-33.7	-52.7	237	4	4.6
2025-07-02T12:00	9320	313	-33.8	-53.7	238	4	4.6
2025-07-02T12:00	9340	312	-33.9	-54.2	240	4	4.6
2025-07-02T12:00	9360	311	-34.0	-55.5	245	4	4.5
2025-07-02T12:00	9380	310	-34.1	-56.5	250	4	4.4
2025-07-02T12:00	9400	309	-34.2	-57.0	254	3	4.3
2025-07-02T12:00	9420	308	-34.4	-57.5	255	3	4.2
2025-07-02T12:00	9440	307	-34.6	-58.7	256	3	4.1
2025-07-02T12:00	9460	307	-34.8	-59.7	255	3	4.0
2025-07-02T12:00	9480	306	-35.0	-60.3	252	2	4.0
2025-07-02T12:00	9500	305	-35.1	-60.7	248	2	3.9
2025-07-02T12:00	9520	304	-35.2	-60.8	241	2	4.0
2025-07-02T12:00	9540	303	-35.4	-59.4	233	2	4.0
2025-07-02T12:00	9560	302	-35.5	-57.2	223	2	4.1
2025-07-02T12:00	9580	301	-35.5	-56.3	217	2	4.2
2025-07-02T12:00	9600	300	-35.8	-56.2	218	2	4.4
2025-07-02T12:00	9620	300	-36.0	-56.1	223	2	4.5
2025-07-02T12:00	9640	299	-36.2	-56.1	227	2	4.6
2025-07-02T12:00	9660	298	-36.3	-55.0	229	3	4.6
2025-07-02T12:00	9680	297	-36.3	-55.4	229	3	4.6
2025-07-02T12:00	9700	296	-36.4	-56.8	229	3	4.6
2025-07-02T12:00	9720	295	-36.6	-58.5	230	3	4.6
2025-07-02T12:00	9740	294	-36.8	-60.5	232	3	4.5
2025-07-02T12:00	9760	294	-36.9	-61.4	235	3	4.4
2025-07-02T12:00	9780	293	-37.0	-60.9	238	3	4.4
2025-07-02T12:00	9800	292	-37.1	-58.1	241	3	4.3
2025-07-02T12:00	9820	291	-37.2	-56.6	242	3	4.2
2025-07-02T12:00	9840	290	-37.4	-56.5	242	3	4.1
2025-07-02T12:00	9860	289	-37.5	-56.4	241	3	4.1
2025-07-02T12:00	9880	289	-37.7	-56.1	240	3	4.0
2025-07-02T12:00	9900	288	-37.9	-55.9	237	3	3.9
2025-07-02T12:00	9920	287	-38.1	-56.2	234	2	3.9
2025-07-02T12:00	9940	286	-38.3	-55.6	230	2	3.8
2025-07-02T12:00	9960	285	-38.6	-55.0	218	1	3.8
2025-07-02T12:00	9980	284	-38.7	-55.0	153	0	3.7
2025-07-02T12:00	10000	284	-38.8	-55.3	86	1	3.7
2025-07-02T12:00	10018	283	-39.0	-55.7	75	1	3.6
2025-07-02T12:00	10050	282	-39.1	-58.0	69	2	3.6
2025-07-02T12:00	10100	279	-39.3	-59.5	65	3	3.3
2025-07-02T12:00	10150	277	-39.8	-59.9	63	3	3.1
2025-07-02T12:00	10200	276	-40.0	-61.7	64	3	3.0
2025-07-02T12:00	10250	273	-40.2	-61.9	66	3	3.0
2025-07-02T12:00	10300	271	-40.4	-61.7	76	2	3.1
2025-07-02T12:00	10350	269	-40.8	-61.6	112	1	2.9
2025-07-02T12:00	10400	267	-41.1	-62.3	150	2	2.7
2025-07-02T12:00	10450	265	-41.2	-66.1	165	1	2.5
2025-07-02T12:00	10500	264	-41.4	-68.5	177	1	2.5
2025-07-02T12:00	10550	262	-41.8	-68.2	182	2	2.3
2025-07-02T12:00	10600	260	-42.1	-68.3	184	2	2.3
2025-07-02T12:00	10650	258	-42.5	-68.6	189	2	2.3
2025-07-02T12:00	10700	256	-42.8	-68.9	193	2	2.3
2025-07-02T12:00	10750	254	-43.2	-69.3	192	2	2.2
2025-07-02T12:00	10800	252	-43.5	-69.7	195	2	2.1
2025-07-02T12:00	10850	250	-43.8	-69.8	210	3	2.0
2025-07-02T12:00	10900	248	-44.0	-70.2	223	4	2.0
2025-07-02T12:00	10950	246	-44.1	-70.1	232	5	2.0
2025-07-02T12:00	11000	245	-43.9	-70.2	242	5	2.2
2025-07-02T12:00	11050	243	-44.1	-70.1	250	5	2.5
2025-07-02T12:00	11100	241	-44.4	-70.2	255	5	2.9
2025-07-02T12:00	11150	239	-44.6	-70.2	255	4	3.3
2025-07-02T12:00	11200	237	-44.6	-69.9	249	3	3.6
2025-07-02T12:00	11250	236	-44.6	-69.5	245	3	3.9
2025-07-02T12:00	11300	234	-44.6	-70.0	248	4	4.0
2025-07-02T12:00	11350	232	-44.6	-70.6	244	5	3.8
2025-07-02T12:00	11400	230	-44.9	-70.8	235	6	3.7
2025-07-02T12:00	11450	229	-45.0	-71.1	230	7	3.6
2025-07-02T12:00	11500	227	-45.0	-71.1	230	8	3.4
2025-07-02T12:00	11550	225	-44.8	-71.6	232	9	3.4
2025-07-02T12:00	11600	224	-45.1	-71.9	236	9	3.3
2025-07-02T12:00	11650	222	-45.4	-72.2	240	9	3.3
2025-07-02T12:00	11700	220	-45.3	-72.4	245	9	3.3
2025-07-02T12:00	11750	219	-45.3	-72.6	250	8	3.3
2025-07-02T12:00	11800	217	-45.3	-72.9	252	7	3.4
2025-07-02T12:00	11850	215	-45.3	-72.9	248	5	3.4
2025-07-02T12:00	11900	214	-45.3	-72.9	240	5	3.7
2025-07-02T12:00	11950	212	-45.2	-72.7	233	5	4.0
2025-07-02T12:00	12000	211	-44.3	-73.9	222	5	4.5
2025-07-02T12:00	12050	209	-44.2	-74.6	210	6	4.4
2025-07-02T12:00	12100	208	-44.2	-74.8	204	6	4.3
2025-07-02T12:00	12150	206	-44.3	-74.8	200	6	4.0
2025-07-02T12:00	12200	205	-44.5	-75.0	198	5	3.9
2025-07-02T12:00	12250	203	-44.9	-75.1	208	5	3.8
2025-07-02T12:00	12300	201	-45.1	-75.6	225	6	3.7
2025-07-02T12:00	12350	200	-44.7	-76.4	234	6	3.8
2025-07-02T12:00	12400	198	-44.7	-76.9	238	7	3.7
2025-07-02T12:00	12450	197	-45.1	-77.1	243	8	3.5
2025-07-02T12:00	12500	195	-45.4	-77.3	247	8	3.4
2025-07-02T12:00	12550	194	-45.6	-77.9	251	8	3.2
2025-07-02T12:00	12600	193	-45.9	-78.4	253	9	2.9
2025-07-02T12:00	12650	191	-46.3	-78.6	253	9	2.6
2025-07-02T12:00	12700	190	-46.6	-79.0	253	10	2.4
2025-07-02T12:00	12750	188	-46.9	-79.1	255	10	2.2
2025-07-02T12:00	12800	187	-47.2	-79.2	257	10	2.2
2025-07-02T12:00	12850	185	-47.6	-79.4	257	10	2.1
2025-07-02T12:00	12900	184	-48.0	-79.6	258	10	2.1
2025-07-02T12:00	12950	183	-48.3	-79.6	257	10	2.0
2025-07-02T12:00	13000	181	-48.8	-79.9	253	10	2.0
2025-07-02T12:00	13050	180	-49.0	-80.0	249	11	2.0
2025-07-02T12:00	13100	178	-49.3	-80.1	248	12	1.9
2025-07-02T12:00	13150	177	-49.6	-80.2	249	13	1.9
2025-07-02T12:00	13200	176	-49.9	-80.4	250	13	1.9
2025-07-02T12:00	13250	174	-50.1	-80.5	251	13	1.9
2025-07-02T12:00	13300	173	-50.4	-80.7	251	13	1.9
2025-07-02T12:00	13350	172	-50.6	-80.7	249	12	1.8
2025-07-02T12:00	13400	170	-50.7	-80.9	246	12	1.8
2025-07-02T12:00	13450	169	-50.8	-80.9	244	12	1.8
2025-07-02T12:00	13500	168	-51.0	-80.9	243	12	1.8
2025-07-02T12:00	13550	167	-51.5	-81.1	240	12	1.8
2025-07-02T12:00	13600	165	-51.6	-81.0	238	12	1.8
2025-07-02T12:00	13650	164	-51.9	-81.1	240	13	1.8
2025-07-02T12:00	13700	163	-52.3	-81.2	242	13	1.8
2025-07-02T12:00	13750	162	-52.8	-81.3	244	13	1.7
2025-07-02T12:00	13800	160	-53.1	-81.4	248	13	1.7
2025-07-02T12:00	13850	159	-53.4	-81.3	252	13	1.7
2025-07-02T12:00	13900	158	-53.8	-81.3	255	13	1.7
2025-07-02T12:00	13950	157	-54.1	-81.3	258	12	1.7
2025-07-02T12:00	14000	155	-54.4	-81.4	261	12	1.8
2025-07-02T12:00	14050	154	-54.7	-81.5	261	12	1.8
2025-07-02T12:00	14100	153	-55.1	-81.8	260	11	1.8
2025-07-02T12:00	14150	152	-55.3	-82.0	258	10	1.7
2025-07-02T12:00	14200	151	-55.4	-82.0	254	8	1.8
2025-07-02T12:00	14250	149	-55.6	-82.1	249	8	1.8
2025-07-02T12:00	14300	148	-56.0	-82.2	239	7	1.8
2025-07-02T12:00	14350	147	-56.2	-82.3	227	7	1.8
2025-07-02T12:00	14400	146	-56.2	-82.4	220	8	1.8
2025-07-02T12:00	14450	145	-56.5	-82.6	218	9	1.8
2025-07-02T12:00	14500	144	-56.9	-82.6	219	10	1.8
2025-07-02T12:00	14550	143	-57.2	-82.7	222	11	1.9
2025-07-02T12:00	14600	141	-57.5	-82.8	224	10	1.8
2025-07-02T12:00	14650	140	-57.7	-83.2	223	10	1.8
2025-07-02T12:00	14700	139	-57.3	-83.5	222	10	1.9
2025-07-02T12:00	14750	138	-57.3	-83.9	224	11	1.9
2025-07-02T12:00	14800	137	-57.6	-83.9	229	11	2.0
2025-07-02T12:00	14850	136	-57.8	-84.0	234	11	2.0
2025-07-02T12:00	14900	135	-57.9	-84.2	235	10	2.1
2025-07-02T12:00	14950	134	-57.8	-84.2	232	10	2.1
2025-07-02T12:00	15000	133	-57.9	-84.2	229	10	2.2
2025-07-02T12:00	15050	132	-58.2	-84.3	227	9	2.2
2025-07-02T12:00	15100	131	-58.5	-84.3	226	9	2.2
2025-07-02T12:00	15150	130	-58.9	-84.3	226	9	2.2
2025-07-02T12:00	15200	129	-59.2	-84.3	228	9	2.3
2025-07-02T12:00	15250	128	-59.6	-84.3	230	9	2.3
2025-07-02T12:00	15300	127	-60.0	-84.3	232	9	2.3
2025-07-02T12:00	15350	126	-60.3	-84.4	234	9	2.3
2025-07-02T12:00	15400	125	-60.7	-84.5	234	9	2.3
2025-07-02T12:00	15450	123	-61.1	-84.5	235	8	2.3
2025-07-02T12:00	15500	122	-61.3	-84.5	237	8	2.3
2025-07-02T12:00	15550	122	-61.6	-84.6	239	8	2.3
2025-07-02T12:00	15600	121	-61.8	-84.7	238	7	2.3
2025-07-02T12:00	15650	120	-61.9	-84.7	232	6	2.3
2025-07-02T12:00	15700	119	-62.0	-84.8	226	6	2.3
2025-07-02T12:00	15750	118	-62.3	-84.9	218	6	2.3
2025-07-02T12:00	15800	117	-62.4	-84.8	207	6	2.3
2025-07-02T12:00	15850	116	-62.5	-84.8	199	6	2.3
2025-07-02T12:00	15900	115	-62.8	-84.9	196	6	2.4
2025-07-02T12:00	15950	114	-63.0	-84.9	197	6	2.4
2025-07-02T12:00	16000	113	-63.4	-85.0	202	6	2.4
2025-07-02T12:00	16050	112	-63.6	-85.1	208	6	2.4
2025-07-02T12:00	16100	111	-63.6	-85.1	209	6	2.4
2025-07-02T12:00	16150	110	-63.6	-85.1	204	7	2.5
2025-07-02T12:00	16200	109	-63.6	-85.3	199	8	2.5
2025-07-02T12:00	16250	108	-63.5	-85.5	196	9	2.6
2025-07-02T12:00	16300	108	-63.3	-85.6	199	11	2.6
2025-07-02T12:00	16350	107	-63.5	-85.8	204	12	2.6
2025-07-02T12:00	16400	106	-63.6	-85.9	208	14	2.6
2025-07-02T12:00	16450	105	-63.6	-85.8	211	15	2.5
2025-07-02T12:00	16500	104	-63.9	-85.9	213	15	2.5
2025-07-02T12:00	16550	103	-64.2	-86.1	217	15	2.5
2025-07-02T12:00	16600	102	-64.4	-86.2	220	14	2.5
2025-07-02T12:00	16650	102	-64.3	-86.4	223	12	2.6
2025-07-02T12:00	16700	101	-63.9	-86.6	225	10	2.7
2025-07-02T12:00	16750	100	-63.4	-86.7	225	9	3.1
2025-07-02T12:00	16800	99	-63.2	-86.8	221	8	3.5
2025-07-02T12:00	16850	98	-63.0	-86.8	214	7	3.9
2025-07-02T12:00	16900	98	-63.2	-87.0	205	6	4.2
2025-07-02T12:00	16950	97	-63.2	-87.1	200	7	4.5
2025-07-02T12:00	17000	96	-63.0	-87.1	203	8	4.7
2025-07-02T12:00	17050	95	-63.1	-87.2	210	8	4.8
2025-07-02T12:00	17100	94	-62.8	-87.2	219	8	5.0
2025-07-02T12:00	17150	94	-62.6	-87.1	228	8	5.2
2025-07-02T12:00	17200	93	-62.7	-87.3	233	8	5.4
2025-07-02T12:00	17250	92	-62.7	-87.5	230	7	5.6
2025-07-02T12:00	17300	91	-62.0	-87.2	219	6	5.8
2025-07-02T12:00	17350	91	-61.9	-87.2	203	6	6.1
2025-07-02T12:00	17400	90	-62.1	-87.3	190	6	6.2
2025-07-02T12:00	17450	89	-62.4	-87.3	181	8	6.2
2025-07-02T12:00	17500	88	-62.5	-87.3	180	9	6.1
2025-07-02T12:00	17550	88	-62.8	-87.3	183	9	6.0
2025-07-02T12:00	17600	87	-63.0	-87.5	188	10	5.9
2025-07-02T12:00	17650	86	-62.9	-87.6	192	10	5.8
2025-07-02T12:00	17700	86	-62.8	-87.6	193	10	5.9
2025-07-02T12:00	17750	85	-62.9	-87.6	193	10	6.0
2025-07-02T12:00	17800	84	-63.1	-87.8	191	11	6.1
2025-07-02T12:00	17850	84	-63.0	-87.8	189	10	6.1
2025-07-02T12:00	17900	83	-63.0	-87.7	188	10	6.1
2025-07-02T12:00	17950	82	-63.3	-87.9	186	9	6.2
2025-07-02T12:00	18000	82	-63.4	-88.0	184	9	6.2
2025-07-02T12:00	18050	81	-63.0	-87.9	183	9	6.3
2025-07-02T12:00	18100	80	-62.9	-87.9	185	10	6.5
2025-07-02T12:00	18150	80	-63.0	-88.0	188	10	6.6
2025-07-02T12:00	18200	79	-62.9	-87.9	190	10	6.7
2025-07-02T12:00	18250	78	-63.3	-88.0	193	9	6.7
2025-07-02T12:00	18300	78	-63.5	-88.1	196	8	6.7
2025-07-02T12:00	18350	77	-63.5	-88.1	199	7	6.6
2025-07-02T12:00	18400	76	-63.4	-88.2	199	6	6.6
2025-07-02T12:00	18450	76	-63.2	-88.1	197	5	6.5
2025-07-02T12:00	18500	75	-63.4	-88.2	192	5	6.5
2025-07-02T12:00	18550	75	-63.5	-88.3	181	4	6.4
2025-07-02T12:00	18600	74	-63.6	-88.4	169	4	6.4
2025-07-02T12:00	18650	73	-63.5	-88.4	163	5	6.3
2025-07-02T12:00	18700	73	-63.3	-88.3	160	5	6.3
2025-07-02T12:00	18750	72	-63.2	-88.4	154	6	6.4
2025-07-02T12:00	18800	72	-63.2	-88.5	146	6	6.6
2025-07-02T12:00	18850	71	-63.2	-88.6	145	7	6.6
2025-07-02T12:00	18900	70	-62.9	-88.7	150	8	6.4
2025-07-02T12:00	18950	70	-62.4	-88.4	157	9	6.3
2025-07-02T12:00	19000	69	-62.4	-88.4	165	10	6.3
2025-07-02T12:00	19050	69	-62.8	-88.4	170	10	6.2
2025-07-02T12:00	19100	68	-63.1	-88.5	173	10	6.1
2025-07-02T12:00	19150	68	-62.9	-88.5	176	9	6.1
2025-07-02T12:00	19200	67	-62.8	-88.6	178	8	6.2
2025-07-02T12:00	19250	67	-62.9	-88.8	174	7	6.2
2025-07-02T12:00	19300	66	-62.7	-88.7	161	6	6.1
2025-07-02T12:00	19350	66	-62.6	-88.9	148	6	6.0
2025-07-02T12:00	19400	65	-62.2	-89.0	143	7	6.0
2025-07-02T12:00	19450	64	-61.4	-88.7	144	8	6.0
2025-07-02T12:00	19500	64	-61.5	-88.8	147	8	6.2
2025-07-02T12:00	19550	63	-61.3	-88.6	152	8	6.3
2025-07-02T12:00	19600	63	-61.5	-88.6	155	8	6.4
2025-07-02T12:00	19650	62	-61.6	-88.6	156	7	6.5
2025-07-02T12:00	19700	62	-61.7	-88.6	151	7	6.5
2025-07-02T12:00	19750	61	-61.6	-88.7	141	7	6.5
2025-07-02T12:00	19800	61	-61.7	-89.0	132	8	6.6
2025-07-02T12:00	19850	60	-61.1	-88.9	127	9	6.7
2025-07-02T12:00	19900	60	-60.6	-88.9	129	10	6.9
2025-07-02T12:00	19950	59	-60.2	-88.7	137	10	7.0
2025-07-02T12:00	20000	59	-60.3	-88.6	145	10	7.2
2025-07-02T12:00	20050	59	-60.3		148	10	7.3
2025-07-02T12:00	20100	58	-60.3		144	10	7.4
2025-07-02T12:00	20150	58	-60.0		136	9	7.5
2025-07-02T12:00	20200	57	-59.9		131	9	7.7
2025-07-02T12:00	20250	57	-59.7		128	8	7.8
2025-07-02T12:00	20300	56	-59.2		126	8	8.0
2025-07-02T12:00	20350	56	-58.5		128	10	8.3
2025-07-02T12:00	20400	55	-58.5		132	11	8.5
2025-07-02T12:00	20450	55	-58.6		137	12	8.8
2025-07-02T12:00	20500	54	-58.3		142	12	8.8
2025-07-02T12:00	20550	54	-58.0		149	11	8.8
2025-07-02T12:00	20600	54	-57.8		156	10	9.0
2025-07-02T12:00	20650	53	-57.9		163	9	9.2
2025-07-02T12:00	20700	53	-58.0		166	9	9.3
2025-07-02T12:00	20750	52	-58.0		168	8	9.5
2025-07-02T12:00	20800	52	-57.8		165	7	9.6
2025-07-02T12:00	20850	52	-57.8		158	6	9.6
2025-07-02T12:00	20900	51	-58.0		153	5	9.8
2025-07-02T12:00	20950	51	-58.0		156	6	10.0
2025-07-02T12:00	21000	50	-58.0		159	6	10.3
2025-07-02T12:00	21050	50	-57.9		160	6	10.4
2025-07-02T12:00	21100	50	-57.6		158	6	10.6
2025-07-02T12:00	21150	49	-57.4		151	5	10.7
2025-07-02T12:00	21200	49	-57.5		141	5	10.7
2025-07-02T12:00	21250	48	-57.6		128	5	10.9
2025-07-02T12:00	21300	48	-57.7		119	5	11.1
2025-07-02T12:00	21350	48	-57.4		121	5	11.3
2025-07-02T12:00	21400	47	-57.0		127	6	11.2
2025-07-02T12:00	21450	47	-56.7		131	7	11.1
2025-07-02T12:00	21500	46	-56.4		133	8	11.0
2025-07-02T12:00	21550	46	-56.4		134	9	11.1
2025-07-02T12:00	21600	46	-56.7		133	10	11.1
2025-07-02T12:00	21650	45	-56.8		130	9	11.1
2025-07-02T12:00	21700	45	-56.8		126	8	11.1
2025-07-02T12:00	21750	45	-56.7		121	6	11.2
2025-07-02T12:00	21800	44	-56.1		112	6	11.2
2025-07-02T12:00	21850	44	-55.7		104	7	11.3
2025-07-02T12:00	21900	44	-55.5		105	9	11.4
2025-07-02T12:00	21950	43	-55.4		111	10	11.6
2025-07-02T12:00	22000	43	-55.3		114	11	11.7
2025-07-02T12:00	22050	43	-55.1		114	12	11.8
2025-07-02T12:00	22100	42	-55.0		110	12	11.9
2025-07-02T12:00	22150	42	-55.1		105	11	11.9
2025-07-02T12:00	22200	42	-55.0		104	11	11.9
2025-07-02T12:00	22250	41	-54.7		108	10	11.9
2025-07-02T12:00	22300	41	-54.5		117	10	11.8
2025-07-02T12:00	22350	41	-54.6		126	9	11.6
2025-07-02T12:00	22400	40	-55.0		135	9	11.5
2025-07-02T12:00	22450	40	-55.3		141	9	11.2
2025-07-02T12:00	22500	40	-55.3		143	7	11.1
2025-07-02T12:00	22550	39	-54.8		136	5	11.2
2025-07-02T12:00	22600	39	-54.7		121	5	11.4
2025-07-02T12:00	22650	39	-54.4		109	5	11.5
2025-07-02T12:00	22700	38	-54.0		105	6	11.7
2025-07-02T12:00	22750	38	-53.9		107	7	12.0
2025-07-02T12:00	22800	38	-53.9		110	8	12.3
2025-07-02T12:00	22850	38	-53.5		110	8	12.4
2025-07-02T12:00	22900	37	-53.4		109	9	12.2
2025-07-02T12:00	22950	37	-53.3		110	11	12.2
2025-07-02T12:00	23000	37	-53.3		114	11	12.2
2025-07-02T12:00	23050	36	-53.4		118	11	12.2
2025-07-02T12:00	23100	36	-53.1		121	11	12.2
2025-07-02T12:00	23150	36	-53.1		121	9	12.1
2025-07-02T12:00	23200	36	-53.4		117	8	12.1
2025-07-02T12:00	23250	35	-53.6		108	7	12.1
2025-07-02T12:00	23300	35	-53.2		94	6	12.1
2025-07-02T12:00	23350	35	-53.0		83	7	12.4
2025-07-02T12:00	23400	35	-52.7		81	8	12.6
2025-07-02T12:00	23450	34	-52.5		85	9	12.6
2025-07-02T12:00	23500	34	-52.5		90	10	12.5
2025-07-02T12:00	23550	34	-52.5		95	10	12.6
2025-07-02T12:00	23600	33	-52.4		98	11	12.6
2025-07-02T12:00	23650	33	-52.4		103	11	12.7
2025-07-02T12:00	23700	33	-52.7		108	12	12.6
2025-07-02T12:00	23750	33	-52.9		113	12	12.6
2025-07-02T12:00	23800	32	-52.8		118	12	12.6
2025-07-02T12:00	23850	32	-52.6		121	12	12.6
2025-07-02T12:00	23900	32	-52.5		122	13	12.6
2025-07-02T12:00	23950	32	-52.6		124	14	12.7
2025-07-02T12:00	24000	31	-52.7		127	13	12.7
2025-07-02T12:00	24050	31	-52.5		132	13	12.6
2025-07-02T12:00	24100	31	-52.1		138	12	12.8
2025-07-02T12:00	24150	31	-51.6		143	10	12.8
2025-07-02T12:00	24200	31	-51.5		147	9	12.8
2025-07-02T12:00	24250	30	-51.5		152	7	12.9
2025-07-02T12:00	24300	30	-51.4		155	6	13.0
2025-07-02T12:00	24350	30	-51.2		148	4	13.1
2025-07-02T12:00	24400	30	-51.3		128	4	13.2
2025-07-02T12:00	24450	29	-51.3		113	5	13.2
2025-07-02T12:00	24500	29	-51.3		111	6	13.2
2025-07-02T12:00	24550	29	-51.1		115	7	13.2
2025-07-02T12:00	24600	29	-50.9		117	8	13.2
2025-07-02T12:00	24650	28	-50.8		118	7	13.2
2025-07-02T12:00	24700	28	-50.9		114	7	13.1
2025-07-02T12:00	24750	28	-50.9		109	7	13.1
2025-07-02T12:00	24800	28	-51.0		107	7	13.0
2025-07-02T12:00	24850	28	-51.1		106	8	12.8
2025-07-02T12:00	24900	27	-51.5		105	8	12.7
2025-07-02T12:00	24950	27	-51.6		103	8	12.4
2025-07-02T12:00	25000	27	-51.4		103	9	12.3
2025-07-02T12:00	25050	27	-51.3		106	9	12.1
2025-07-02T12:00	25100	27	-51.3		109	10	12.0
2025-07-02T12:00	25150	26	-51.2		113	10	11.8
2025-07-02T12:00	25200	26	-51.3		117	10	11.7
2025-07-02T12:00	25250	26	-51.5		118	10	11.5
2025-07-02T12:00	25300	26	-51.7		114	9	11.6
2025-07-02T12:00	25350	26	-51.7		104	9	11.5
2025-07-02T12:00	25400	25	-51.5		94	10	11.3
2025-07-02T12:00	25450	25	-51.7		90	11	11.2
2025-07-02T12:00	25500	25	-51.7		93	11	11.0
2025-07-02T12:00	25550	25	-51.5		97	12	11.0
2025-07-02T12:00	25600	25	-51.5		96	12	11.0
2025-07-02T12:00	25650	24	-51.4		93	11	10.9
2025-07-02T12:00	25700	24	-51.1		92	11	10.7
2025-07-02T12:00	25750	24	-50.8		93	12	10.6
2025-07-02T12:00	25800	24	-50.7		98	13	10.5
2025-07-02T12:00	25850	24	-50.5		103	13	10.6
2025-07-02T12:00	25900	23	-50.3		105	13	10.5
2025-07-02T12:00	25950	23	-50.0		102	11	10.6
2025-07-02T12:00	26000	23	-49.5		97	11	10.6
2025-07-02T12:00	26050	23	-49.0		93	11	10.8
2025-07-02T12:00	26100	23	-48.7		92	11	10.8
2025-07-02T12:00	26150	23	-48.2		92	12	10.8
2025-07-02T12:00	26200	22	-47.6		89	12	11.0
2025-07-02T12:00	26250	22	-47.1		87	12	11.1
2025-07-02T12:00	26300	22	-46.6		85	12	11.4
2025-07-02T12:00	26350	22	-46.1		84	11	11.8
2025-07-02T12:00	26400	22	-46.0		82	11	12.0
2025-07-02T12:00	26450	22	-46.0		82	11	12.0
2025-07-02T12:00	26500	21	-45.9		83	12	12.0
2025-07-02T12:00	26550	21	-45.7		82	12	12.1
2025-07-02T12:00	26600	21	-45.5		82	13	12.0
2025-07-02T12:00	26650	21	-45.5		81	14	12.1
2025-07-02T12:00	26700	21	-45.4		80	15	12.0
2025-07-02T12:00	26750	21	-45.4		80	16	12.1
2025-07-02T12:00	26800	20	-45.5		82	17	12.2
2025-07-02T12:00	26850	20	-45.5		85	17	12.1
2025-07-02T12:00	26900	20	-45.5		88	17	12.2
2025-07-02T12:00	26950	20	-45.5		92	17	12.2
2025-07-02T12:00	27000	20	-45.6		97	16	12.2
2025-07-02T12:00	27050	20	-45.7		102	15	12.1
2025-07-02T12:00	27100	20	-45.8		106	15	12.1
2025-07-02T12:00	27150	19	-45.7		109	15	12.0
2025-07-02T12:00	27200	19	-45.5		112	14	11.9
2025-07-02T12:00	27250	19	-45.3		113	14	11.9
2025-07-02T12:00	27300	19	-45.2		112	13	12.1
2025-07-02T12:00	27350	19	-45.2		110	13	12.7
2025-07-02T12:00	27400	19	-45.1		109	13	13.2
2025-07-02T12:00	27450	19	-45.0		110	13	13.1
2025-07-02T12:00	27500	18	-45.0		111	13	13.1
2025-07-02T12:00	27550	18	-45.0		110	12	13.3
2025-07-02T12:00	27600	18	-44.9		107	12	13.3
2025-07-02T12:00	27650	18	-44.7		103	11	13.3
2025-07-02T12:00	27700	18	-44.6		99	11	13.0
2025-07-02T12:00	27750	18	-44.5		95	11	12.7
2025-07-02T12:00	27800	18	-44.4		91	11	12.4
2025-07-02T12:00	27850	18	-44.3		88	11	12.0
2025-07-02T12:00	27900	17	-44.1		87	11	11.7
2025-07-02T12:00	27950	17	-44.0		87	12	11.6
2025-07-02T12:00	28000	17	-43.9		89	13	11.4
2025-07-02T12:00	28050	17	-44.0		91	13	11.4
2025-07-02T12:00	28100	17	-44.1		94	13	11.1
2025-07-02T12:00	28150	17	-44.3		97	13	11.3
2025-07-02T12:00	28200	17	-44.4		102	13	11.2
2025-07-02T12:00	28250	16	-44.3		107	12	11.1
2025-07-02T12:00	28300	16	-44.1		110	10	11.4
2025-07-02T12:00	28350	16	-43.9		112	9	11.4
2025-07-02T12:00	28400	16	-43.9		112	8	10.9
2025-07-02T12:00	28450	16	-44.1		111	8	10.7
2025-07-02T12:00	28500	16	-44.3		107	8	10.6
2025-07-02T12:00	28550	16	-44.3		102	9	10.7
2025-07-02T12:00	28600	16	-44.1		101	10	10.5
2025-07-02T12:00	28650	16	-44.1		102	11	10.5
2025-07-02T12:00	28700	15	-44.0		102	11	10.6
2025-07-02T12:00	28750	15	-43.9		102	11	10.6
2025-07-02T12:00	28800	15	-43.8		104	11	10.5
2025-07-02T12:00	28850	15	-43.7		106	12	10.7
2025-07-02T12:00	28900	15	-43.5		109	13	10.7
2025-07-02T12:00	28950	15	-43.2		113	13	10.6
2025-07-02T12:00	29000	15	-43.0		116	13	10.3
2025-07-02T12:00	29050	15	-42.9		117	12	10.0
2025-07-02T12:00	29100	15	-42.8		115	12	9.6
2025-07-02T12:00	29150	14	-42.3		114	12	9.5
2025-07-02T12:00	29200	14	-41.7		113	12	9.5
2025-07-02T12:00	29250	14	-41.4		109	12	9.4
2025-07-02T12:00	29300	14	-41.1		101	12	9.4
2025-07-02T12:00	29350	14	-40.8		92	13	9.3
2025-07-02T12:00	29400	14	-40.7		87	15	9.5
2025-07-02T12:00	29450	14	-40.7		87	16	9.2
2025-07-02T12:00	29500	14	-40.7		91	17	9.3
2025-07-02T12:00	29550	14	-40.7		95	16	9.4
2025-07-02T12:00	29600	14	-40.6		99	15	9.5
2025-07-02T12:00	29650	13	-40.5		101	14	9.6
2025-07-02T12:00	29700	13	-40.4		101	13	9.6
2025-07-02T12:00	29750	13	-40.3		99	13	9.2
2025-07-02T12:00	29800	13	-40.2		98	14	9.3
2025-07-02T12:00	29850	13	-40.1		98	14	9.3
2025-07-02T12:00	29900	13	-39.9		98	15	9.4
2025-07-02T12:00	29950	13	-39.8		99	16	9.5
2025-07-02T12:00	30000	13	-39.6		101	16	9.3
2025-07-02T12:00	30050	13	-39.6		103	15	9.5
2025-07-02T12:00	30100	13	-39.5		107	14	9.8
2025-07-02T12:00	30150	12	-39.5		110	13	10.1
2025-07-02T12:00	30200	12	-39.4		109	13	10.2
2025-07-02T12:00	30250	12	-39.4		107	12	9.5
2025-07-02T12:00	30300	12	-39.2		107	11	9.2
2025-07-02T12:00	30350	12	-38.8		111	10	8.7
2025-07-02T12:00	30400	12	-38.5		111	9	8.4
2025-07-02T12:00	30450	12	-38.2		105	10	8.3
2025-07-02T12:00	30500	12	-37.8		98	11	8.3
2025-07-02T12:00	30550	12	-37.4		96	12	8.2
2025-07-02T12:00	30600	12	-37.1		98	11	8.0
2025-07-02T12:00	30650	12	-36.9		101	10	7.8
2025-07-02T12:00	30700	12	-36.7		101	10	7.9
2025-07-02T12:00	30750	11	-36.7		100	11	7.8
2025-07-02T12:00	30800	11	-36.8		100	11	7.7
2025-07-02T12:00	30850	11	-36.8		102	10	7.9
2025-07-02T12:00	30900	11	-37.0		104	10	7.9
2025-07-02T12:00	30950	11	-37.0		107	10	7.9
2025-07-02T12:00	31000	11	-36.9		109	10	7.9
2025-07-02T12:00	31050	11	-36.8		110	10	8.0
2025-07-02T12:00	31100	11	-36.8		108	10	8.4
2025-07-02T12:00	31150	11	-36.8		108	10	8.8
2025-07-02T12:00	31200	11	-36.6		110	10	8.4
2025-07-02T12:00	31250	11	-36.5		112	10	8.0
2025-07-02T12:00	31300	11	-36.5		113	10	7.7
2025-07-02T12:00	31350	10	-36.6		111	10	7.4
2025-07-02T12:00	31400	10	-36.6		108	10	7.3
2025-07-02T12:00	31450	10	-36.7		105	10	7.2
2025-07-02T12:00	31500	10	-36.7		102	9	7.2
2025-07-02T12:00	31550	10	-36.7		101	10	7.2
2025-07-02T12:00	31600	10	-36.7		100	10	7.3
2025-07-02T12:00	31650	10	-36.8		99	11	7.2
2025-07-02T12:00	31700	10	-36.9		100	12	7.5
2025-07-02T12:00	31750	10	-36.9		101	13	7.9
2025-07-02T12:00	31800	10	-36.8		103	14	7.9
2025-07-02T12:00	31850	10	-36.7		104	14	7.3
2025-07-02T12:00	31900	10	-36.5		103	15	6.9
2025-07-02T12:00	31950	10	-36.3		98	15	6.7
2025-07-02T12:00	32000	10	-36.1		91	16	6.6
2025-07-02T12:00	32050	9	-35.9		85	16	6.5
2025-07-02T12:00	32100	9	-35.7		83	16	6.7
2025-07-02T12:00	32150	9	-35.7		85	15	6.7
2025-07-02T12:00	32200	9	-35.8		90	15	6.5
2025-07-02T12:00	32250	9	-35.9		92	15	6.4
2025-07-02T12:00	32300	9	-35.8		90	15	6.4
2025-07-02T12:00	32350	9	-35.4		85	15	6.3
2025-07-02T12:00	32400	9	-35.1		83	15	6.3
2025-07-02T12:00	32450	9	-34.9		85	15	6.2
2025-07-02T12:00	32500	9	-34.6		88	15	6.2
2025-07-02T12:00	32550	9	-34.4		92	16	6.2
2025-07-02T12:00	32600	9	-34.4		95	16	6.4
2025-07-02T12:00	32650	9	-34.5		96	15	6.5
2025-07-02T12:00	32700	9	-34.5		97	15	6.5
2025-07-02T12:00	32750	9	-34.4		98	14	6.3
2025-07-02T12:00	32800	8	-34.3		101	14	6.2
2025-07-02T12:00	32850	8	-34.2		105	14	6.1
2025-07-02T12:00	32900	8	-34.1		109	14	5.9
2025-07-02T12:00	32950	8	-34.0		112	14	6.0
2025-07-02T12:00	33000	8	-33.8		111	14	6.2
2025-07-02T12:00	33050	8	-33.7		108	14	6.2
2025-07-02T12:00	33100	8	-33.6		104	15	6.2
2025-07-02T12:00	33150	8	-33.4		101	15	6.2
2025-07-02T12:00	33200	8	-33.1		98	15	6.1
2025-07-02T12:00	33250	8	-33.0		97	14	6.1
2025-07-02T12:00	33300	8	-32.9		97	13	6.0
2025-07-02T12:00	33350	8	-32.7		96	12	6.0
2025-07-02T12:00	33400	8	-32.5		96	12	5.9
2025-07-02T12:00	33450	8	-32.3		96	12	5.8
2025-07-02T12:00	33500	8	-32.0		96	12	5.8
2025-07-02T12:00	33550	8	-31.7		95	12	5.8
2025-07-03T00:00	491	962	20.8	15.4	111	0	
2025-07-03T00:00	501	960	22.9	15.2	198	0	
2025-07-03T00:00	520	958	24.1	15.4	211	0	
2025-07-03T00:00	540	956	24.7	15.5	239	0	
2025-07-03T00:00	560	954	24.7	15.4	277	1	
2025-07-03T00:00	580	952	24.7	15.2	296	1	
2025-07-03T00:00	600	950	25.1	14.3	305	2	
2025-07-03T00:00	620	948	25.7	13.5	309	2	
2025-07-03T00:00	640	946	25.8	13.3	312	3	
2025-07-03T00:00	660	943	25.8	13.1	313	3	
2025-07-03T00:00	680	941	25.6	13.1	315	3	
2025-07-03T00:00	700	939	25.4	13.0	317	3	
2025-07-03T00:00	720	937	25.3	13.0	319	3	
2025-07-03T00:00	740	935	25.1	12.9	321	3	
2025-07-03T00:00	760	933	25.0	12.9	323	3	
2025-07-03T00:00	780	931	24.8	12.9	326	4	
2025-07-03T00:00	800	928	24.5	12.8	329	4	
2025-07-03T00:00	820	926	24.4	12.8	331	4	
2025-07-03T00:00	840	924	24.2	12.7	334	4	
2025-07-03T00:00	860	922	24.1	12.6	337	4	
2025-07-03T00:00	880	920	23.9	12.6	341	4	
2025-07-03T00:00	900	918	23.7	12.6	345	4	
2025-07-03T00:00	920	916	23.6	12.5	350	3	
2025-07-03T00:00	940	914	23.4	12.5	356	3	
2025-07-03T00:00	960	912	23.2	12.5	359	3	
2025-07-03T00:00	980	910	23.0	12.4	4	3	
2025-07-03T00:00	1000	908	22.8	12.5	7	3	
2025-07-03T00:00	1020	905	22.6	12.3	8	3	
2025-07-03T00:00	1040	903	22.4	12.3	7	3	
2025-07-03T00:00	1060	901	22.3	12.3	4	3	
2025-07-03T00:00	1080	899	22.1	12.2	1	3	
2025-07-03T00:00	1100	897	21.9	12.1	358	3	
2025-07-03T00:00	1120	895	21.7	12.1	355	3	
2025-07-03T00:00	1140	893	21.6	12.0	350	3	
2025-07-03T00:00	1160	891	21.5	11.8	344	2	
2025-07-03T00:00	1180	889	21.7	11.5	333	2	
2025-07-03T00:00	1200	887	21.7	11.4	322	2	
2025-07-03T00:00	1220	885	21.8	11.3	307	2	
2025-07-03T00:00	1240	882	21.7	11.1	292	2	
2025-07-03T00:00	1260	881	21.5	11.1	282	3	
2025-07-03T00:00	1280	879	21.3	11.1	276	3	
2025-07-03T00:00	1300	877	21.2	10.9	272	4	
2025-07-03T00:00	1320	875	21.2	10.6	270	4	
2025-07-03T00:00	1340	873	21.2	10.3	270	4	
2025-07-03T00:00	1360	871	21.1	10.3	272	4	
2025-07-03T00:00	1380	869	21.0	10.2	276	4	
2025-07-03T00:00	1400	867	20.9	10.1	279	4	
2025-07-03T00:00	1420	865	20.7	10.0	282	4	
2025-07-03T00:00	1440	863	20.6	9.9	284	4	
2025-07-03T00:00	1460	860	20.4	9.9	286	4	
2025-07-03T00:00	1480	859	20.4	9.7	287	4	
2025-07-03T00:00	1500	857	20.2	9.7	288	4	
2025-07-03T00:00	1520	855	20.0	9.6	289	4	
2025-07-03T00:00	1540	853	19.9	9.6	291	4	
2025-07-03T00:00	1560	851	19.6	9.6	293	4	
2025-07-03T00:00	1580	849	19.4	9.6	295	4	
2025-07-03T00:00	1600	847	19.3	9.5	297	5	
2025-07-03T00:00	1620	845	19.1	9.4	298	5	
2025-07-03T00:00	1640	843	19.0	9.4	299	5	
2025-07-03T00:00	1660	841	18.8	9.1	299	5	
2025-07-03T00:00	1680	839	18.8	8.7	299	5	
2025-07-03T00:00	1700	837	18.6	8.8	297	5	
2025-07-03T00:00	1720	835	18.4	8.7	295	5	
2025-07-03T00:00	1740	833	18.3	8.6	292	5	
2025-07-03T00:00	1760	831	18.1	8.5	289	5	
2025-07-03T00:00	1780	829	17.8	8.5	284	5	
2025-07-03T00:00	1800	827	17.6	8.5	279	5	
2025-07-03T00:00	1820	825	17.5	8.4	274	5	
2025-07-03T00:00	1840	823	17.3	8.4	270	5	
2025-07-03T00:00	1860	822	17.1	8.2	269	5	
2025-07-03T00:00	1880	820	17.0	8.0	269	5	
2025-07-03T00:00	1900	817	16.8	7.8	271	5	
2025-07-03T00:00	1920	816	16.7	8.3	274	5	
2025-07-03T00:00	1940	814	16.6	8.3	278	5	
2025-07-03T00:00	1960	812	16.4	8.2	283	5	
2025-07-03T00:00	1980	810	16.1	8.0	288	5	
2025-07-03T00:00	2000	808	16.0	8.0	292	5	
2025-07-03T00:00	2020	806	15.8	8.2	294	5	
2025-07-03T00:00	2040	804	15.6	8.3	295	5	
2025-07-03T00:00	2060	802	15.4	8.3	295	5	
2025-07-03T00:00	2080	800	15.3	8.2	293	5	
2025-07-03T00:00	2100	799	15.1	8.2	292	5	
2025-07-03T00:00	2120	797	14.9	8.0	291	5	
2025-07-03T00:00	2140	795	14.7	7.9	291	5	
2025-07-03T00:00	2160	793	14.6	7.7	290	5	
2025-07-03T00:00	2180	791	14.5	7.6	291	5	
2025-07-03T00:00	2200	789	14.3	7.6	291	4	
2025-07-03T00:00	2220	787	14.1	7.5	291	4	
2025-07-03T00:00	2240	785	14.0	7.5	291	4	
2025-07-03T00:00	2260	784	13.8	7.5	290	4	
2025-07-03T00:00	2280	782	13.7	7.3	288	4	
2025-07-03T00:00	2300	780	13.5	7.2	285	4	
2025-07-03T00:00	2320	778	13.4	7.1	280	4	
2025-07-03T00:00	2340	776	13.2	6.9	274	4	
2025-07-03T00:00	2360	774	13.1	7.0	265	4	
2025-07-03T00:00	2380	773	12.9	7.2	258	5	
2025-07-03T00:00	2400	771	12.8	7.2	252	5	
2025-07-03T00:00	2420	769	12.8	6.9	249	6	
2025-07-03T00:00	2440	767	12.7	6.8	245	6	
2025-07-03T00:00	2460	765	12.5	6.9	242	6	
2025-07-03T00:00	2480	763	12.5	6.7	239	5	
2025-07-03T00:00	2500	762	12.4	6.5	234	4	
2025-07-03T00:00	2520	760	12.2	6.4	230	4	
2025-07-03T00:00	2540	758	12.0	6.4	229	4	
2025-07-03T00:00	2560	756	11.8	7.1	228	4	
2025-07-03T00:00	2580	754	11.6	8.0	228	4	
2025-07-03T00:00	2600	753	11.4	8.3	227	4	
2025-07-03T00:00	2620	751	11.2	8.1	225	4	
2025-07-03T00:00	2640	749	11.0	7.9	224	4	
2025-07-03T00:00	2660	747	10.8	7.8	224	4	
2025-07-03T00:00	2680	745	10.7	7.7	226	4	
2025-07-03T00:00	2700	744	10.5	7.7	233	4	
2025-07-03T00:00	2720	742	10.3	7.7	241	4	
2025-07-03T00:00	2740	740	10.1	7.7	247	4	
2025-07-03T00:00	2760	738	9.9	7.6	250	4	
2025-07-03T00:00	2780	736	9.7	7.4	251	3	
2025-07-03T00:00	2800	735	9.5	7.4	250	3	
2025-07-03T00:00	2820	733	9.3	7.4	245	3	
2025-07-03T00:00	2840	731	9.2	7.3	240	3	
2025-07-03T00:00	2860	729	9.0	7.3	236	3	
2025-07-03T00:00	2880	728	8.8	7.2	235	3	
2025-07-03T00:00	2900	726	8.6	7.1	237	3	
2025-07-03T00:00	2920	724	8.4	6.8	241	3	
2025-07-03T00:00	2940	722	8.3	6.2	245	3	
2025-07-03T00:00	2960	721	8.2	5.9	247	4	
2025-07-03T00:00	2980	719	8.1	5.5	247	4	
2025-07-03T00:00	3000	717	7.9	4.9	245	4	
2025-07-03T00:00	3020	715	7.8	4.1	242	4	
2025-07-03T00:00	3040	714	7.8	3.7	238	4	
2025-07-03T00:00	3060	712	7.6	3.4	236	4	
2025-07-03T00:00	3080	710	7.4	2.9	235	4	
2025-07-03T00:00	3100	708	7.3	2.6	237	4	
2025-07-03T00:00	3120	707	7.2	2.0	241	3	
2025-07-03T00:00	3140	705	7.1	1.4	250	3	
2025-07-03T00:00	3160	703	7.0	0.4	260	3	
2025-07-03T00:00	3180	702	6.9	-0.3	268	2	
2025-07-03T00:00	3200	700	6.8	-0.8	277	2	
2025-07-03T00:00	3220	698	6.6	-0.8	283	2	
2025-07-03T00:00	3240	697	6.5	-0.7	284	2	
2025-07-03T00:00	3260	695	6.3	-0.6	282	1	
2025-07-03T00:00	3280	693	6.1	-0.6	278	2	
2025-07-03T00:00	3300	692	5.9	-0.6	274	2	
2025-07-03T00:00	3320	690	5.8	-0.9	271	2	
2025-07-03T00:00	3340	688	5.6	-1.0	272	2	
2025-07-03T00:00	3360	687	5.5	-1.0	276	2	
2025-07-03T00:00	3380	685	5.3	-1.1	281	2	
2025-07-03T00:00	3400	683	5.1	-1.2	289	2	
2025-07-03T00:00	3420	682	4.9	-1.1	304	2	
2025-07-03T00:00	3440	680	4.8	-0.9	320	2	
2025-07-03T00:00	3460	678	4.7	-1.4	333	2	
2025-07-03T00:00	3480	677	4.5	-1.4	341	2	
2025-07-03T00:00	3500	675	4.3	-1.7	343	2	
2025-07-03T00:00	3520	673	4.2	-2.1	340	2	
2025-07-03T00:00	3540	672	4.0	-2.5	331	2	
2025-07-03T00:00	3560	670	3.9	-2.9	315	1	
2025-07-03T00:00	3580	668	3.8	-3.0	297	2	
2025-07-03T00:00	3600	667	3.6	-3.6	284	2	
2025-07-03T00:00	3620	665	3.5	-4.4	278	2	
2025-07-03T00:00	3640	663	3.4	-4.9	278	2	
2025-07-03T00:00	3660	662	3.2	-5.7	283	3	
2025-07-03T00:00	3680	660	3.1	-6.2	287	3	
2025-07-03T00:00	3700	659	3.1	-7.4	290	3	
2025-07-03T00:00	3720	657	3.0	-8.6	294	3	
2025-07-03T00:00	3740	655	3.1	-11.0	297	3	
2025-07-03T00:00	3760	654	3.1	-11.4	300	3	
2025-07-03T00:00	3780	652	3.0	-12.6	302	3	
2025-07-03T00:00	3800	650	2.9	-12.4	307	3	
2025-07-03T00:00	3820	649	2.7	-10.9	312	3	
2025-07-03T00:00	3840	647	2.5	-9.7	319	3	
2025-07-03T00:00	3860	646	2.3	-9.3	324	3	
2025-07-03T00:00	3880	644	2.1	-8.4	328	4	
2025-07-03T00:00	3900	642	2.0	-7.9	329	4	
2025-07-03T00:00	3920	641	2.0	-7.9	329	3	
2025-07-03T00:00	3940	639	1.9	-7.2	327	3	
2025-07-03T00:00	3960	638	1.7	-6.7	322	3	
2025-07-03T00:00	3980	636	1.6	-5.6	316	3	
2025-07-03T00:00	4000	635	1.5	-6.0	310	2	
2025-07-03T00:00	4020	633	1.7	-9.3	302	2	
2025-07-03T00:00	4040	632	1.7	-9.5	297	2	
2025-07-03T00:00	4060	630	1.4	-9.3	294	3	
2025-07-03T00:00	4080	628	1.2	-9.5	293	3	
2025-07-03T00:00	4100	627	1.1	-9.6	294	3	
2025-07-03T00:00	4120	625	0.9	-9.8	295	3	
2025-07-03T00:00	4140	623	0.7	-9.6	296	3	
2025-07-03T00:00	4160	622	0.6	-9.5	298	3	
2025-07-03T00:00	4180	620	0.4	-9.5	299	3	
2025-07-03T00:00	4200	619	0.2	-9.9	302	3	
2025-07-03T00:00	4220	617	0.1	-11.8	304	3	
2025-07-03T00:00	4240	616	0.0	-11.9	305	3	
2025-07-03T00:00	4260	614	-0.2	-12.0	305	4	
2025-07-03T00:00	4280	613	-0.4	-12.0	304	4	
2025-07-03T00:00	4300	611	-0.6	-12.4	303	4	
2025-07-03T00:00	4320	610	-0.7	-12.5	301	5	
2025-07-03T00:00	4340	608	-0.7	-12.6	299	5	
2025-07-03T00:00	4360	606	-0.8	-12.0	297	5	
2025-07-03T00:00	4380	605	-0.9	-12.0	294	5	
2025-07-03T00:00	4400	604	-1.1	-11.4	292	5	
2025-07-03T00:00	4420	602	-1.3	-10.7	290	5	
2025-07-03T00:00	4440	600	-1.5	-10.3	289	5	
2025-07-03T00:00	4460	599	-1.8	-8.8	287	5	
2025-07-03T00:00	4480	597	-2.0	-8.1	285	5	
2025-07-03T00:00	4500	596	-2.1	-8.1	283	6	
2025-07-03T00:00	4520	595	-2.3	-7.4	282	6	
2025-07-03T00:00	4540	593	-2.5	-8.2	282	6	
2025-07-03T00:00	4560	592	-2.5	-8.7	282	6	
2025-07-03T00:00	4580	590	-2.6	-7.3	284	6	
2025-07-03T00:00	4600	589	-2.7	-6.6	286	6	
2025-07-03T00:00	4620	587	-2.9	-5.8	288	6	
2025-07-03T00:00	4640	586	-3.1	-6.0	290	6	
2025-07-03T00:00	4660	584	-3.3	-6.1	291	6	
2025-07-03T00:00	4680	583	-3.5	-6.4	291	6	
2025-07-03T00:00	4700	581	-3.6	-6.9	291	6	
2025-07-03T00:00	4720	580	-3.8	-7.7	291	6	
2025-07-03T00:00	4740	578	-3.9	-8.6	291	6	
2025-07-03T00:00	4760	577	-4.1	-10.4	291	6	
2025-07-03T00:00	4780	575	-4.1	-13.8	291	6	
2025-07-03T00:00	4800	574	-4.2	-15.9	292	6	
2025-07-03T00:00	4820	573	-4.4	-15.2	294	6	
2025-07-03T00:00	4840	571	-4.6	-14.2	296	6	
2025-07-03T00:00	4860	569	-4.9	-11.1	299	6	
2025-07-03T00:00	4880	568	-4.9	-15.7	302	5	
2025-07-03T00:00	4900	567	-5.0	-17.7	303	5	
2025-07-03T00:00	4920	565	-5.1	-17.8	303	5	
2025-07-03T00:00	4940	564	-5.3	-17.9	303	6	
2025-07-03T00:00	4960	562	-5.5	-18.1	302	6	
2025-07-03T00:00	4980	561	-5.6	-18.3	300	6	
2025-07-03T00:00	5000	560	-5.8	-18.4	299	7	
2025-07-03T00:00	5020	558	-5.9	-18.7	298	7	
2025-07-03T00:00	5040	557	-6.0	-19.2	296	7	
2025-07-03T00:00	5060	555	-6.1	-19.4	295	6	
2025-07-03T00:00	5080	554	-6.2	-19.4	292	6	
2025-07-03T00:00	5100	552	-6.4	-19.4	288	5	
2025-07-03T00:00	5120	551	-6.4	-19.1	283	5	
2025-07-03T00:00	5140	550	-6.4	-19.2	280	5	
2025-07-03T00:00	5160	548	-6.4	-19.9	276	4	
2025-07-03T00:00	5180	547	-6.4	-22.1	271	4	
2025-07-03T00:00	5200	545	-6.4	-22.3	270	4	
2025-07-03T00:00	5220	544	-6.6	-18.9	269	4	
2025-07-03T00:00	5240	543	-6.6	-15.2	270	4	
2025-07-03T00:00	5260	541	-6.7	-15.8	271	4	
2025-07-03T00:00	5280	540	-6.7	-17.8	274	5	
2025-07-03T00:00	5300	539	-6.7	-22.2	276	5	
2025-07-03T00:00	5320	537	-6.8	-21.9	278	5	
2025-07-03T00:00	5340	536	-7.0	-21.2	279	5	
2025-07-03T00:00	5360	534	-7.0	-23.0	279	5	
2025-07-03T00:00	5380	533	-7.1	-23.1	278	5	
2025-07-03T00:00	5400	531	-7.2	-26.0	278	5	
2025-07-03T00:00	5420	530	-7.3	-22.4	277	5	
2025-07-03T00:00	5440	529	-7.4	-18.6	276	5	
2025-07-03T00:00	5460	528	-7.5	-15.6	277	5	
2025-07-03T00:00	5480	526	-7.6	-13.7	276	6	
2025-07-03T00:00	5500	525	-7.6	-12.9	276	6	
2025-07-03T00:00	5520	523	-7.7	-12.9	274	6	
2025-07-03T00:00	5540	522	-7.8	-13.2	273	6	
2025-07-03T00:00	5560	521	-7.9	-13.7	270	6	
2025-07-03T00:00	5580	519	-8.1	-14.4	268	7	
2025-07-03T00:00	5600	518	-8.2	-14.4	268	7	
2025-07-03T00:00	5620	517	-8.4	-14.3	268	7	
2025-07-03T00:00	5640	515	-8.5	-14.1	269	7	
2025-07-03T00:00	5660	514	-8.6	-14.0	270	7	
2025-07-03T00:00	5680	513	-8.8	-14.0	271	7	
2025-07-03T00:00	5700	511	-9.0	-14.1	273	6	
2025-07-03T00:00	5720	510	-9.2	-14.3	275	6	
2025-07-03T00:00	5740	509	-9.4	-14.3	276	6	
2025-07-03T00:00	5760	507	-9.6	-14.5	278	6	
2025-07-03T00:00	5780	506	-9.7	-14.8	280	6	
2025-07-03T00:00	5800	505	-9.9	-14.9	283	6	
2025-07-03T00:00	5820	504	-10.1	-15.0	286	7	
2025-07-03T00:00	5840	502	-10.3	-15.8	289	7	
2025-07-03T00:00	5860	501	-10.3	-17.7	293	7	
2025-07-03T00:00	5880	500	-10.4	-18.4	297	7	
2025-07-03T00:00	5900	498	-10.6	-18.7	300	7	
2025-07-03T00:00	5920	497	-10.7	-19.0	304	7	
2025-07-03T00:00	5940	496	-10.8	-19.0	309	7	
2025-07-03T00:00	5960	494	-10.9	-18.7	313	7	
2025-07-03T00:00	5980	493	-11.1	-18.3	314	6	
2025-07-03T00:00	6000	492	-11.2	-17.4	314	6	
2025-07-03T00:00	6020	491	-11.4	-17.4	313	6	
2025-07-03T00:00	6040	489	-11.6	-17.5	312	6	
2025-07-03T00:00	6060	488	-11.7	-18.3	312	6	
2025-07-03T00:00	6080	487	-11.8	-19.4	313	6	
2025-07-03T00:00	6100	486	-11.8	-19.9	314	6	
2025-07-03T00:00	6120	484	-11.9	-20.6	314	6	
2025-07-03T00:00	6140	483	-11.9	-21.6	314	6	
2025-07-03T00:00	6160	482	-11.9	-22.1	314	6	
2025-07-03T00:00	6180	480	-11.8	-22.5	313	7	
2025-07-03T00:00	6200	479	-11.6	-24.3	312	7	
2025-07-03T00:00	6220	478	-11.6	-27.1	311	6	
2025-07-03T00:00	6240	477	-11.7	-27.8	310	6	
2025-07-03T00:00	6260	476	-11.9	-28.7	309	6	
2025-07-03T00:00	6280	474	-12.0	-29.6	308	6	
2025-07-03T00:00	6300	473	-12.2	-30.3	307	6	
2025-07-03T00:00	6320	472	-12.3	-32.1	306	6	
2025-07-03T00:00	6340	471	-12.4	-33.2	306	6	
2025-07-03T00:00	6360	469	-12.5	-33.7	306	5	
2025-07-03T00:00	6380	468	-12.6	-34.0	306	5	
2025-07-03T00:00	6400	467	-12.8	-32.9	304	5	
2025-07-03T00:00	6420	466	-12.9	-32.4	304	5	
2025-07-03T00:00	6440	464	-13.1	-32.9	304	5	
2025-07-03T00:00	6460	463	-13.2	-34.8	306	5	
2025-07-03T00:00	6480	462	-13.4	-34.8	308	5	
2025-07-03T00:00	6500	461	-13.5	-36.0	311	5	
2025-07-03T00:00	6520	460	-13.5	-39.2	314	6	
2025-07-03T00:00	6540	458	-13.6	-34.2	317	6	
2025-07-03T00:00	6560	457	-13.7	-30.6	319	6	
2025-07-03T00:00	6580	456	-13.8	-27.4	319	6	
2025-07-03T00:00	6600	455	-13.8	-27.4	318	7	
2025-07-03T00:00	6620	454	-13.8	-28.8	317	7	
2025-07-03T00:00	6640	452	-13.9	-29.6	315	7	
2025-07-03T00:00	6660	451	-14.1	-31.1	312	7	
2025-07-03T00:00	6680	450	-14.2	-31.4	310	6	
2025-07-03T00:00	6700	449	-14.4	-30.9	308	6	
2025-07-03T00:00	6720	448	-14.6	-30.3	306	6	
2025-07-03T00:00	6740	446	-14.7	-30.8	305	6	
2025-07-03T00:00	6760	445	-14.9	-32.2	304	6	
2025-07-03T00:00	6780	444	-14.9	-35.1	303	6	
2025-07-03T00:00	6800	443	-14.9	-40.4	302	6	
2025-07-03T00:00	6820	442	-14.8	-43.4	301	6	
2025-07-03T00:00	6840	441	-14.8	-45.3	300	5	
2025-07-03T00:00	6860	439	-15.0	-44.8	300	5	
2025-07-03T00:00	6880	438	-15.3	-44.4	299	5	
2025-07-03T00:00	6900	437	-15.4	-40.8	299	5	
2025-07-03T00:00	6920	436	-15.6	-38.3	298	4	
2025-07-03T00:00	6940	435	-15.8	-37.9	298	4	
2025-07-03T00:00	6960	434	-16.0	-35.6	297	3	
2025-07-03T00:00	6980	432	-16.3	-30.2	292	3	
2025-07-03T00:00	7000	431	-16.5	-28.3	283	3	
2025-07-03T00:00	7020	430	-16.7	-22.4	273	3	
2025-07-03T00:00	7040	429	-16.9	-20.4	266	3	
2025-07-03T00:00	7060	428	-17.0	-20.8	261	3	
2025-07-03T00:00	7080	427	-17.1	-21.0	259	3	
2025-07-03T00:00	7100	426	-17.3	-21.1	257	3	
2025-07-03T00:00	7120	425	-17.5	-21.3	257	4	
2025-07-03T00:00	7140	423	-17.7	-21.3	258	4	
2025-07-03T00:00	7160	422	-17.8	-21.7	259	4	
2025-07-03T00:00	7180	421	-17.9	-22.3	261	4	
2025-07-03T00:00	7200	420	-18.0	-22.4	262	4	
2025-07-03T00:00	7220	419	-18.2	-22.4	264	4	
2025-07-03T00:00	7240	418	-18.4	-22.6	265	4	
2025-07-03T00:00	7260	417	-18.5	-22.4	266	4	
2025-07-03T00:00	7280	415	-18.7	-22.3	269	5	
2025-07-03T00:00	7300	414	-18.9	-22.5	271	5	
2025-07-03T00:00	7320	413	-19.0	-23.0	274	5	
2025-07-03T00:00	7340	412	-19.1	-23.6	276	5	
2025-07-03T00:00	7360	411	-19.3	-23.9	278	4	
2025-07-03T00:00	7380	410	-19.5	-24.2	278	4	
2025-07-03T00:00	7400	409	-19.5	-25.1	278	4	
2025-07-03T00:00	7420	408	-19.7	-25.3	277	4	
2025-07-03T00:00	7440	407	-19.9	-26.2	276	4	
2025-07-03T00:00	7460	405	-19.9	-27.4	277	3	
2025-07-03T00:00	7480	404	-20.1	-27.4	282	3	
2025-07-03T00:00	7500	403	-20.2	-27.5	290	2	
2025-07-03T00:00	7520	402	-20.4	-27.8	296	2	
2025-07-03T00:00	7540	401	-20.6	-27.9	298	3	
2025-07-03T00:00	7560	400	-20.8	-28.6	299	3	
2025-07-03T00:00	7580	399	-21.0	-29.0	298	3	
2025-07-03T00:00	7600	398	-21.2	-29.9	297	3	
2025-07-03T00:00	7620	397	-21.3	-31.7	296	3	
2025-07-03T00:00	7640	396	-21.4	-32.1	296	3	
2025-07-03T00:00	7660	395	-21.6	-32.3	297	3	
2025-07-03T00:00	7680	394	-21.7	-33.6	300	2	
2025-07-03T00:00	7700	393	-21.9	-33.6	305	2	
2025-07-03T00:00	7720	391	-22.1	-34.4	308	2	
2025-07-03T00:00	7740	390	-22.3	-34.6	310	2	
2025-07-03T00:00	7760	389	-22.5	-34.1	308	1	
2025-07-03T00:00	7780	388	-22.6	-34.6	304	1	
2025-07-03T00:00	7800	387	-22.8	-35.9	295	1	
2025-07-03T00:00	7820	386	-22.8	-35.9	273	1	
2025-07-03T00:00	7840	385	-22.8	-29.0	243	1	
2025-07-03T00:00	7860	384	-22.9	-28.2	225	1	
2025-07-03T00:00	7880	383	-23.0	-28.1	216	2	
2025-07-03T00:00	7900	382	-23.2	-28.1	210	2	
2025-07-03T00:00	7920	381	-23.4	-27.8	205	2	
2025-07-03T00:00	7940	380	-23.6	-27.7	200	2	
2025-07-03T00:00	7960	379	-23.8	-27.8	195	3	
2025-07-03T00:00	7980	378	-23.9	-27.9	192	3	
2025-07-03T00:00	8000	377	-24.0	-28.2	191	3	
2025-07-03T00:00	8020	376	-24.1	-28.6	192	3	
2025-07-03T00:00	8040	375	-24.2	-28.9	192	3	
2025-07-03T00:00	8060	374	-24.4	-28.9	193	3	
2025-07-03T00:00	8080	373	-24.5	-29.2	192	3	
2025-07-03T00:00	8100	372	-24.5	-29.7	191	3	
2025-07-03T00:00	8120	371	-24.7	-29.6	190	3	
2025-07-03T00:00	8140	370	-24.9	-29.6	190	3	
2025-07-03T00:00	8160	369	-25.0	-29.9	191	2	
2025-07-03T00:00	8180	368	-25.2	-30.3	195	2	
2025-07-03T00:00	8200	367	-25.3	-31.8	204	1	
2025-07-03T00:00	8220	366	-25.4	-33.3	224	1	
2025-07-03T00:00	8240	365	-25.6	-32.5	248	1	
2025-07-03T00:00	8260	364	-25.7	-32.3	270	1	
2025-07-03T00:00	8280	363	-25.9	-32.4	282	1	
2025-07-03T00:00	8300	361	-26.0	-33.4	283	1	
2025-07-03T00:00	8320	361	-26.1	-34.8	276	1	
2025-07-03T00:00	8340	360	-26.2	-36.2	264	1	
2025-07-03T00:00	8360	359	-26.4	-39.3	251	1	
2025-07-03T00:00	8380	358	-26.4	-41.7	238	2	
2025-07-03T00:00	8400	357	-26.6	-39.2	229	2	
2025-07-03T00:00	8420	356	-26.8	-38.7	223	2	
2025-07-03T00:00	8440	355	-27.0	-38.1	219	2	
2025-07-03T00:00	8460	354	-27.2	-37.2	219	3	
2025-07-03T00:00	8480	353	-27.3	-36.1	220	3	
2025-07-03T00:00	8500	352	-27.5	-34.3	222	3	
2025-07-03T00:00	8520	351	-27.7	-33.8	226	3	
2025-07-03T00:00	8540	350	-27.9	-33.8	231	3	
2025-07-03T00:00	8560	349	-28.1	-34.1	237	3	
2025-07-03T00:00	8580	348	-28.2	-34.6	242	3	
2025-07-03T00:00	8600	347	-28.3	-35.7	246	3	
2025-07-03T00:00	8620	346	-28.5	-36.8	250	3	
2025-07-03T00:00	8640	345	-28.6	-37.6	252	3	
2025-07-03T00:00	8660	344	-28.8	-40.5	253	3	
2025-07-03T00:00	8680	343	-28.9	-40.1	254	4	
2025-07-03T00:00	8700	342	-29.1	-36.8	255	4	
2025-07-03T00:00	8720	341	-29.2	-37.5	256	4	
2025-07-03T00:00	8740	340	-29.4	-41.0	256	4	
2025-07-03T00:00	8760	339	-29.5	-40.5	257	4	
2025-07-03T00:00	8780	338	-29.7	-39.4	259	3	
2025-07-03T00:00	8800	337	-29.9	-38.6	259	3	
2025-07-03T00:00	8820	336	-30.1	-37.9	261	3	
2025-07-03T00:00	8840	335	-30.2	-38.0	261	3	
2025-07-03T00:00	8860	334	-30.4	-38.3	262	3	
2025-07-03T00:00	8880	333	-30.6	-38.8	263	3	
2025-07-03T00:00	8900	332	-30.7	-39.3	263	2	
2025-07-03T00:00	8920	332	-30.9	-39.8	262	2	
2025-07-03T00:00	8940	331	-31.1	-40.7	261	2	
2025-07-03T00:00	8960	330	-31.2	-42.6	259	2	
2025-07-03T00:00	8980	329	-31.4	-44.7	255	2	
2025-07-03T00:00	9000	328	-31.5	-46.8	250	1	
2025-07-03T00:00	9020	327	-31.5	-48.4	246	1	
2025-07-03T00:00	9040	326	-31.5	-44.9	245	1	
2025-07-03T00:00	9060	325	-31.7	-43.1	246	1	
2025-07-03T00:00	9080	324	-31.9	-41.1	252	1	
2025-07-03T00:00	9100	323	-32.0	-43.5	260	1	
2025-07-03T00:00	9120	322	-32.2	-43.5	265	2	
2025-07-03T00:00	9140	321	-32.3	-42.3	269	2	
2025-07-03T00:00	9160	320	-32.4	-41.3	271	2	
2025-07-03T00:00	9180	320	-32.5	-40.3	272	2	
2025-07-03T00:00	9200	319	-32.5	-39.7	273	2	
2025-07-03T00:00	9220	318	-32.6	-39.8	273	3	
2025-07-03T00:00	9240	317	-32.7	-40.7	272	3	
2025-07-03T00:00	9260	316	-32.8	-41.0	272	3	
2025-07-03T00:00	9280	315	-33.0	-40.7	272	3	
2025-07-03T00:00	9300	314	-33.2	-40.7	273	3	
2025-07-03T00:00	9320	313	-33.4	-41.0	274	2	
2025-07-03T00:00	9340	312	-33.6	-41.2	275	2	
2025-07-03T00:00	9360	312	-33.7	-42.1	277	2	
2025-07-03T00:00	9380	311	-33.9	-43.0	278	2	
2025-07-03T00:00	9400	310	-34.1	-43.6	280	2	
2025-07-03T00:00	9420	309	-34.3	-43.9	281	2	
2025-07-03T00:00	9440	308	-34.4	-45.6	282	2	
2025-07-03T00:00	9460	307	-34.6	-46.4	283	2	
2025-07-03T00:00	9480	306	-34.8	-47.0	283	3	
2025-07-03T00:00	9500	305	-34.9	-47.8	284	3	
2025-07-03T00:00	9520	304	-35.0	-48.1	284	3	
2025-07-03T00:00	9540	304	-35.2	-48.1	284	3	
2025-07-03T00:00	9560	303	-35.4	-48.1	285	4	
2025-07-03T00:00	9580	302	-35.6	-48.1	285	4	
2025-07-03T00:00	9600	301	-35.8	-48.1	286	4	
2025-07-03T00:00	9620	300	-36.0	-48.2	286	4	
2025-07-03T00:00	9640	299	-36.2	-48.2	286	4	
2025-07-03T00:00	9660	298	-36.3	-48.2	286	4	
2025-07-03T00:00	9680	298	-36.5	-48.3	285	4	
2025-07-03T00:00	9700	297	-36.7	-48.4	285	4	
2025-07-03T00:00	9720	296	-36.8	-48.7	286	4	
2025-07-03T00:00	9740	295	-36.9	-49.2	288	4	
2025-07-03T00:00	9760	294	-37.1	-49.6	290	4	
2025-07-03T00:00	9780	293	-37.3	-49.3	293	4	
2025-07-03T00:00	9800	292	-37.5	-49.4	295	4	
2025-07-03T00:00	9820	292	-37.7	-49.9	297	3	
2025-07-03T00:00	9840	291	-37.8	-50.9	298	3	
2025-07-03T00:00	9860	290	-38.0	-51.9	298	3	
2025-07-03T00:00	9880	289	-38.1	-52.5	297	2	
2025-07-03T00:00	9900	288	-38.2	-51.6	296	2	
2025-07-03T00:00	9920	288	-38.4	-49.7	295	2	
2025-07-03T00:00	9940	287	-38.6	-47.1	296	2	
2025-07-03T00:00	9960	286	-38.8	-47.2	298	2	
2025-07-03T00:00	9980	285	-38.9	-45.7	300	2	
2025-07-03T00:00	10000	284	-39.1	-44.5	300	2	
2025-07-03T00:00	10018	283	-39.3	-45.0	300	2	
2025-07-03T00:00	10050	282	-39.6	-45.5	296	2	
2025-07-03T00:00	10100	280	-40.0	-45.7	287	2	
2025-07-03T00:00	10150	278	-40.5	-45.4	282	2	
2025-07-03T00:00	10200	276	-41.0	-45.8	269	2	
2025-07-03T00:00	10250	274	-41.5	-46.0	246	2	
2025-07-03T00:00	10300	272	-41.8	-47.1	233	3	
2025-07-03T00:00	10350	270	-42.2	-48.5	238	2	
2025-07-03T00:00	10400	268	-42.6	-49.5	255	2	
2025-07-03T00:00	10450	266	-42.9	-53.1	271	1	
2025-07-03T00:00	10500	264	-42.9	-58.4	268	1	
2025-07-03T00:00	10550	262	-43.2	-57.3	233	1	
2025-07-03T00:00	10600	260	-43.3	-60.1	197	0	
2025-07-03T00:00	10650	258	-43.6	-61.7	187	0	
2025-07-03T00:00	10700	256	-43.8	-63.3	186	1	
2025-07-03T00:00	10750	254	-44.0	-64.4	179	1	
2025-07-03T00:00	10800	252	-44.0	-66.6	154	0	
2025-07-03T00:00	10850	250	-44.1	-68.3	163	0	
2025-07-03T00:00	10900	249	-44.2	-69.0	209	1	
2025-07-03T00:00	10950	247	-44.4	-69.3	234	1	
2025-07-03T00:00	11000	245	-44.5	-69.1	254	2	
2025-07-03T00:00	11050	243	-44.7	-68.2	268	3	
2025-07-03T00:00	11100	241	-45.0	-67.8	272	4	
2025-07-03T00:00	11150	240	-45.2	-67.5	272	6	
2025-07-03T00:00	11200	238	-45.3	-67.8	272	8	
2025-07-03T00:00	11250	236	-45.4	-68.8	274	9	
2025-07-03T00:00	11300	234	-45.7	-69.0	276	10	
2025-07-03T00:00	11350	232	-46.0	-69.3	278	10	
2025-07-03T00:00	11400	231	-46.2	-69.3	280	10	
2025-07-03T00:00	11450	229	-46.4	-68.9	281	10	
2025-07-03T00:00	11500	227	-46.6	-68.4	282	10	
2025-07-03T00:00	11550	226	-47.0	-68.1	282	10	
2025-07-03T00:00	11600	224	-47.4	-67.9	281	9	
2025-07-03T00:00	11650	222	-47.6	-69.5	277	9	
2025-07-03T00:00	11700	220	-47.4	-70.3	273	9	
2025-07-03T00:00	11750	219	-47.7	-70.4	273	9	
2025-07-03T00:00	11800	217	-48.1	-70.5	271	9	
2025-07-03T00:00	11850	215	-48.1	-69.9	266	10	
2025-07-03T00:00	11900	214	-47.5	-70.9	261	12	
2025-07-03T00:00	11950	212	-46.0	-73.3	258	14	
2025-07-03T00:00	12000	211	-45.0	-75.0	256	15	
2025-07-03T00:00	12050	209	-44.6	-75.5	253	16	
2025-07-03T00:00	12100	208	-44.8	-75.4	250	16	
2025-07-03T00:00	12150	206	-45.0	-75.7	247	16	
2025-07-03T00:00	12200	204	-44.8	-76.3	244	17	
2025-07-03T00:00	12250	203	-44.8	-76.5	242	17	
2025-07-03T00:00	12300	201	-45.2	-76.6	240	17	
2025-07-03T00:00	12350	200	-45.6	-76.9	239	18	
2025-07-03T00:00	12400	198	-45.8	-77.0	239	18	
2025-07-03T00:00	12450	197	-46.1	-77.2	239	18	
2025-07-03T00:00	12500	195	-46.4	-77.5	239	18	
2025-07-03T00:00	12550	194	-46.3	-77.7	241	18	
2025-07-03T00:00	12600	193	-46.7	-77.8	242	18	
2025-07-03T00:00	12650	191	-46.9	-77.7	241	17	
2025-07-03T00:00	12700	190	-47.4	-77.8	241	17	
2025-07-03T00:00	12750	188	-47.8	-78.0	240	17	
2025-07-03T00:00	12800	187	-48.3	-78.1	240	16	
2025-07-03T00:00	12850	185	-48.7	-78.2	239	16	
2025-07-03T00:00	12900	184	-49.0	-78.1	237	15	
2025-07-03T00:00	12950	183	-49.0	-78.3	234	16	
2025-07-03T00:00	13000	181	-49.2	-78.5	232	16	
2025-07-03T00:00	13050	180	-49.4	-78.7	229	17	
2025-07-03T00:00	13100	178	-49.6	-78.9	227	17	
2025-07-03T00:00	13150	177	-50.0	-79.1	227	18	
2025-07-03T00:00	13200	176	-50.3	-79.3	229	18	
2025-07-03T00:00	13250	174	-50.6	-79.4	230	19	
2025-07-03T00:00	13300	173	-50.9	-79.6	230	19	
2025-07-03T00:00	13350	172	-51.1	-79.7	230	19	
2025-07-03T00:00	13400	170	-51.4	-79.9	231	19	
2025-07-03T00:00	13450	169	-51.7	-79.9	230	19	
2025-07-03T00:00	13500	168	-52.0	-80.1	230	19	
2025-07-03T00:00	13550	167	-52.3	-80.2	229	19	
2025-07-03T00:00	13600	165	-52.6	-80.3	229	19	
2025-07-03T00:00	13650	164	-52.9	-80.5	231	20	
2025-07-03T00:00	13700	163	-53.2	-80.6	233	20	
2025-07-03T00:00	13750	161	-53.6	-80.6	235	20	
2025-07-03T00:00	13800	160	-53.9	-80.8	236	19	
2025-07-03T00:00	13850	159	-54.1	-80.8	237	19	
2025-07-03T00:00	13900	158	-54.5	-80.9	238	18	
2025-07-03T00:00	13950	157	-54.9	-81.0	238	17	
2025-07-03T00:00	14000	155	-55.1	-81.0	236	16	
2025-07-03T00:00	14050	154	-55.1	-81.1	233	16	
2025-07-03T00:00	14100	153	-55.3	-81.2	233	16	
2025-07-03T00:00	14150	152	-55.3	-81.3	233	17	
2025-07-03T00:00	14200	150	-55.6	-81.5	236	18	
2025-07-03T00:00	14250	149	-55.9	-81.6	238	18	
2025-07-03T00:00	14300	148	-56.0	-81.6	240	18	
2025-07-03T00:00	14350	147	-56.3	-81.8	242	17	
2025-07-03T00:00	14400	146	-56.5	-82.0	243	16	
2025-07-03T00:00	14450	145	-56.3	-82.0	245	15	
2025-07-03T00:00	14500	144	-56.6	-82.2	246	14	
2025-07-03T00:00	14550	142	-56.8	-82.3	249	13	
2025-07-03T00:00	14600	141	-56.7	-82.4	250	12	
2025-07-03T00:00	14650	140	-56.9	-82.6	247	11	
2025-07-03T00:00	14700	139	-57.1	-82.7	241	10	
2025-07-03T00:00	14750	138	-57.1	-82.8	232	10	
2025-07-03T00:00	14800	137	-57.1	-82.9	225	10	
2025-07-03T00:00	14850	136	-57.4	-83.0	219	11	
2025-07-03T00:00	14900	135	-57.7	-83.0	216	12	
2025-07-03T00:00	14950	134	-58.1	-83.1	215	12	
2025-07-03T00:00	15000	133	-58.5	-83.2	217	13	
2025-07-03T00:00	15050	132	-58.9	-83.2	221	14	
2025-07-03T00:00	15100	131	-59.1	-83.3	226	14	
2025-07-03T00:00	15150	129	-59.4	-83.5	230	14	
2025-07-03T00:00	15200	128	-59.3	-83.5	231	13	
2025-07-03T00:00	15250	127	-59.6	-83.6	231	13	
2025-07-03T00:00	15300	126	-59.9	-83.7	230	12	
2025-07-03T00:00	15350	125	-60.2	-83.8	230	11	
2025-07-03T00:00	15400	124	-60.4	-83.9	230	10	
2025-07-03T00:00	15450	123	-60.7	-84.0	230	10	
2025-07-03T00:00	15500	122	-60.9	-84.0	226	10	
2025-07-03T00:00	15550	121	-61.0	-84.0	221	10	
2025-07-03T00:00	15600	120	-61.3	-84.1	219	10	
2025-07-03T00:00	15650	119	-61.6	-84.1	220	10	
2025-07-03T00:00	15700	119	-61.9	-84.2	221	10	
2025-07-03T00:00	15750	118	-62.3	-84.3	224	10	
2025-07-03T00:00	15800	117	-62.3	-84.4	225	11	
2025-07-03T00:00	15850	116	-62.4	-84.6	224	12	
2025-07-03T00:00	15900	115	-62.2	-84.7	224	12	
2025-07-03T00:00	15950	114	-62.0	-84.7	226	13	
2025-07-03T00:00	16000	113	-62.3	-84.7	228	13	
2025-07-03T00:00	16050	112	-62.7	-84.8	231	14	
2025-07-03T00:00	16100	111	-63.0	-84.9	235	15	
2025-07-03T00:00	16150	110	-62.8	-85.0	240	16	
2025-07-03T00:00	16200	109	-62.2	-85.2	243	15	
2025-07-03T00:00	16250	108	-61.8	-85.7	244	14	
2025-07-03T00:00	16300	108	-61.6	-85.8	245	13	
2025-07-03T00:00	16350	107	-61.6	-85.9	243	12	
2025-07-03T00:00	16400	106	-61.3	-85.7	238	11	
2025-07-03T00:00	16450	105	-61.3	-85.7	229	10	
2025-07-03T00:00	16500	104	-61.5	-85.8	218	10	
2025-07-03T00:00	16550	103	-61.7	-85.8	209	11	
2025-07-03T00:00	16600	102	-61.9	-85.9	203	12	
2025-07-03T00:00	16650	102	-62.1	-85.9	198	13	
2025-07-03T00:00	16700	101	-62.2	-85.9	195	14	
2025-07-03T00:00	16750	100	-62.3	-86.0	196	15	
2025-07-03T00:00	16800	99	-62.6	-86.1	198	16	
2025-07-03T00:00	16850	98	-62.9	-86.2	202	16	
2025-07-03T00:00	16900	98	-62.9	-86.2	207	16	
2025-07-03T00:00	16950	97	-63.0	-86.4	212	15	
2025-07-03T00:00	17000	96	-62.8	-86.5	216	14	
2025-07-03T00:00	17050	95	-62.6	-86.4	220	12	
2025-07-03T00:00	17100	94	-62.6	-86.4	223	11	
2025-07-03T00:00	17150	94	-62.6	-86.3	226	10	
2025-07-03T00:00	17200	93	-62.9	-86.4	226	10	
2025-07-03T00:00	17250	92	-63.1	-86.5	224	10	
2025-07-03T00:00	17300	91	-63.0	-86.5	224	10	
2025-07-03T00:00	17350	91	-63.0	-86.7	227	11	
2025-07-03T00:00	17400	90	-62.7	-86.6	231	12	
2025-07-03T00:00	17450	89	-62.9	-86.7	234	13	
2025-07-03T00:00	17500	89	-63.1	-86.9	232	12	
2025-07-03T00:00	17550	88	-62.3	-86.9	224	9	
2025-07-03T00:00	17600	87	-61.5	-86.8	208	7	
2025-07-03T00:00	17650	86	-60.8	-86.8	198	7	
2025-07-03T00:00	17700	86	-60.0	-86.5	197	7	
2025-07-03T00:00	17750	85	-60.1	-86.3	198	8	
2025-07-03T00:00	17800	84	-60.5	-86.3	199	8	
2025-07-03T00:00	17850	84	-60.9	-86.3	199	8	
2025-07-03T00:00	17900	83	-61.1	-86.4	198	8	
2025-07-03T00:00	17950	82	-60.9	-86.4	197	9	
2025-07-03T00:00	18000	82	-61.0	-86.4	199	9	
2025-07-03T00:00	18050	81	-61.3	-86.5	201	10	
2025-07-03T00:00	18100	80	-61.5	-86.6	201	10	
2025-07-03T00:00	18150	80	-61.7	-86.7	198	9	
2025-07-03T00:00	18200	79	-61.8	-86.7	194	9	
2025-07-03T00:00	18250	78	-62.0	-86.8	194	9	
2025-07-03T00:00	18300	78	-62.1	-86.9	199	9	
2025-07-03T00:00	18350	77	-62.1	-87.1	205	10	
2025-07-03T00:00	18400	77	-61.7	-86.9	211	9	
2025-07-03T00:00	18450	76	-61.6	-86.9	215	8	
2025-07-03T00:00	18500	75	-61.7	-87.1	214	7	
2025-07-03T00:00	18550	75	-61.4	-87.0	210	6	
2025-07-03T00:00	18600	74	-61.0	-87.0	204	5	
2025-07-03T00:00	18650	74	-60.8	-87.0	199	4	
2025-07-03T00:00	18700	73	-60.7	-87.0	192	3	
2025-07-03T00:00	18750	72	-60.7	-86.8	185	3	
2025-07-03T00:00	18800	72	-61.0	-86.7	178	3	
2025-07-03T00:00	18850	71	-61.4	-86.7	172	3	
2025-07-03T00:00	18900	71	-61.7	-86.8	167	4	
2025-07-03T00:00	18950	70	-62.0	-86.9	165	4	
2025-07-03T00:00	19000	70	-62.4	-87.1	165	4	
2025-07-03T00:00	19050	69	-62.8	-87.3	165	5	
2025-07-03T00:00	19100	68	-62.7	-87.2	163	6	
2025-07-03T00:00	19150	68	-62.9	-87.3	165	7	
2025-07-03T00:00	19200	67	-63.2	-87.5	172	7	
2025-07-03T00:00	19250	67	-63.2	-87.7	182	8	
2025-07-03T00:00	19300	66	-62.9	-87.6	191	8	
2025-07-03T00:00	19350	66	-63.1	-87.6	201	8	
2025-07-03T00:00	19400	65	-63.2	-87.7	209	7	
2025-07-03T00:00	19450	65	-63.2	-87.8	213	6	
2025-07-03T00:00	19500	64	-63.0	-87.9	212	6	
2025-07-03T00:00	19550	64	-62.6	-87.9	211	5	
2025-07-03T00:00	19600	63	-62.1	-87.8	216	5	
2025-07-03T00:00	19650	63	-61.8	-87.8	221	4	
2025-07-03T00:00	19700	62	-61.6	-87.6	217	3	
2025-07-03T00:00	19750	62	-61.4	-87.5	197	2	
2025-07-03T00:00	19800	61	-61.0	-87.3	171	3	
2025-07-03T00:00	19850	61	-61.0	-87.3	147	3	
2025-07-03T00:00	19900	60	-61.0	-87.3	131	4	
2025-07-03T00:00	19950	60	-61.1	-87.6	131	5	
2025-07-03T00:00	20000	59	-60.3	-87.4	135	6	
2025-07-03T00:00	20050	59	-60.1		140	7	
2025-07-03T00:00	20100	58	-60.5		149	7	
2025-07-03T00:00	20150	58	-60.6		159	7	
2025-07-03T00:00	20200	57	-60.8		167	8	
2025-07-03T00:00	20250	57	-61.0		171	8	
2025-07-03T00:00	20300	56	-61.1		167	7	
2025-07-03T00:00	20350	56	-60.9		158	7	
2025-07-03T00:00	20400	55	-60.7		145	6	
2025-07-03T00:00	20450	55	-60.7		129	7	
2025-07-03T00:00	20500	55	-60.5		121	9	
2025-07-03T00:00	20550	54	-59.9		122	10	
2025-07-03T00:00	20600	54	-60.0		127	10	
2025-07-03T00:00	20650	53	-60.3		136	11	
2025-07-03T00:00	20700	53	-60.2		147	11	
2025-07-03T00:00	20750	52	-59.8		156	10	
2025-07-03T00:00	20800	52	-59.4		161	8	
2025-07-03T00:00	20850	52	-58.9		161	7	
2025-07-03T00:00	20900	51	-58.4		152	6	
2025-07-03T00:00	20950	51	-57.4		145	6	
2025-07-03T00:00	21000	50	-57.5		145	7	
2025-07-03T00:00	21050	50	-57.6		149	7	
2025-07-03T00:00	21100	50	-57.5		151	6	
2025-07-03T00:00	21150	49	-57.3		147	5	
2025-07-03T00:00	21200	49	-57.3		135	5	
2025-07-03T00:00	21250	48	-56.9		123	6	
2025-07-03T00:00	21300	48	-56.2		110	7	
2025-07-03T00:00	21350	48	-55.5		95	7	
2025-07-03T00:00	21400	47	-55.0		88	8	
2025-07-03T00:00	21450	47	-55.2		91	9	
2025-07-03T00:00	21500	47	-54.7		97	9	
2025-07-03T00:00	21550	46	-54.8		105	10	
2025-07-03T00:00	21600	46	-55.1		112	10	
2025-07-03T00:00	21650	45	-55.3		119	11	
2025-07-03T00:00	21700	45	-55.3		125	11	
2025-07-03T00:00	21750	45	-55.5		129	11	
2025-07-03T00:00	21800	44	-55.7		130	10	
2025-07-03T00:00	21850	44	-55.7		126	9	
2025-07-03T00:00	21900	44	-55.8		119	8	
2025-07-03T00:00	21950	43	-56.0		109	8	
2025-07-03T00:00	22000	43	-56.2		99	7	
2025-07-03T00:00	22050	43	-56.4		93	7	
2025-07-03T00:00	22100	42	-56.4		94	8	
2025-07-03T00:00	22150	42	-56.3		100	8	
2025-07-03T00:00	22200	42	-56.4		106	9	
2025-07-03T00:00	22250	41	-56.6		109	8	
2025-07-03T00:00	22300	41	-56.8		109	8	
2025-07-03T00:00	22350	41	-57.1		106	8	
2025-07-03T00:00	22400	40	-57.0		102	8	
2025-07-03T00:00	22450	40	-56.8		105	9	
2025-07-03T00:00	22500	40	-55.9		114	8	
2025-07-03T00:00	22550	39	-55.5		115	7	
2025-07-03T00:00	22600	39	-54.8		109	7	
2025-07-03T00:00	22650	39	-53.2		112	8	
2025-07-03T00:00	22700	39	-52.7		118	8	
2025-07-03T00:00	22750	38	-52.3		118	7	
2025-07-03T00:00	22800	38	-52.0		115	7	
2025-07-03T00:00	22850	38	-51.9		111	7	
2025-07-03T00:00	22900	37	-51.9		108	8	
2025-07-03T00:00	22950	37	-51.8		107	9	
2025-07-03T00:00	23000	37	-52.0		107	10	
2025-07-03T00:00	23050	37	-52.2		111	10	
2025-07-03T00:00	23100	36	-52.1		116	9	
2025-07-03T00:00	23150	36	-52.0		120	9	
2025-07-03T00:00	23200	36	-52.0		121	8	
2025-07-03T00:00	23250	35	-51.6		124	8	
2025-07-03T00:00	23300	35	-51.5		128	7	
2025-07-03T00:00	23350	35	-51.6		127	7	
2025-07-03T00:00	23400	35	-51.4		121	6	
2025-07-03T00:00	23450	34	-51.0		116	6	
2025-07-03T00:00	23500	34	-51.0		107	5	
2025-07-03T00:00	23550	34	-50.8		95	6	
2025-07-03T00:00	23600	34	-50.8		85	7	
2025-07-03T00:00	23650	33	-50.7		80	8	
2025-07-03T00:00	23700	33	-50.6		80	9	
2025-07-03T00:00	23750	33	-50.7		84	10	
2025-07-03T00:00	23800	33	-50.9		88	12	
2025-07-03T00:00	23850	32	-50.4		93	13	
2025-07-03T00:00	23900	32	-50.5		99	14	
2025-07-03T00:00	23950	32	-50.8		107	14	
2025-07-03T00:00	24000	32	-50.9		115	14	
2025-07-03T00:00	24050	31	-50.9		122	14	
2025-07-03T00:00	24100	31	-50.8		128	14	
2025-07-03T00:00	24150	31	-50.8		133	13	
2025-07-03T00:00	24200	31	-51.1		136	12	
2025-07-03T00:00	24250	30	-51.3		137	12	
2025-07-03T00:00	24300	30	-51.0		134	11	
2025-07-03T00:00	24350	30	-51.2		129	11	
2025-07-03T00:00	24400	30	-51.3		124	10	
2025-07-03T00:00	24450	29	-51.0		124	10	
2025-07-03T00:00	24500	29	-51.0		126	9	
2025-07-03T00:00	24550	29	-51.0		129	9	
2025-07-03T00:00	24600	29	-50.9		130	9	
2025-07-03T00:00	24650	29	-50.8		129	9	
2025-07-03T00:00	24700	28	-50.9		128	10	
2025-07-03T00:00	24750	28	-51.0		129	10	
2025-07-03T00:00	24800	28	-51.0		129	9	
2025-07-03T00:00	24850	28	-51.2		130	9	
2025-07-03T00:00	24900	27	-51.5		128	8	
2025-07-03T00:00	24950	27	-51.8		125	8	
2025-07-03T00:00	25000	27	-51.8		122	8	
2025-07-03T00:00	25050	27	-51.8		121	9	
2025-07-03T00:00	25100	27	-52.0		122	9	
2025-07-03T00:00	25150	26	-52.1		123	9	
2025-07-03T00:00	25200	26	-52.2		124	9	
2025-07-03T00:00	25250	26	-52.2		126	8	
2025-07-03T00:00	25300	26	-52.3		127	7	
2025-07-03T00:00	25350	26	-52.6		124	6	
2025-07-03T00:00	25400	25	-52.6		118	6	
2025-07-03T00:00	25450	25	-52.4		112	7	
2025-07-03T00:00	25500	25	-52.4		108	7	
2025-07-03T00:00	25550	25	-52.3		105	8	
2025-07-03T00:00	25600	25	-52.3		105	10	
2025-07-03T00:00	25650	24	-52.3		106	11	
2025-07-03T00:00	25700	24	-52.1		106	11	
2025-07-03T00:00	25750	24	-51.9		106	11	
2025-07-03T00:00	25800	24	-51.7		107	11	
2025-07-03T00:00	25850	24	-51.5		110	11	
2025-07-03T00:00	25900	24	-50.9		113	11	
2025-07-03T00:00	25950	23	-50.3		110	10	
2025-07-03T00:00	26000	23	-49.5		101	9	
2025-07-03T00:00	26050	23	-49.1		94	9	
2025-07-03T00:00	26100	23	-48.6		94	9	
2025-07-03T00:00	26150	23	-48.2		97	9	
2025-07-03T00:00	26200	22	-47.8		95	9	
2025-07-03T00:00	26250	22	-47.0		92	9	
2025-07-03T00:00	26300	22	-46.5		93	9	
2025-07-03T00:00	26350	22	-45.8		97	9	
2025-07-03T00:00	26400	22	-45.2		99	9	
2025-07-03T00:00	26450	22	-45.1		98	9	
2025-07-03T00:00	26500	21	-44.8		96	9	
2025-07-03T00:00	26550	21	-44.5		94	8	
2025-07-03T00:00	26600	21	-44.2		93	8	
2025-07-03T00:00	26650	21	-43.9		90	8	
2025-07-03T00:00	26700	21	-43.8		87	8	
2025-07-03T00:00	26750	21	-43.9		83	9	
2025-07-03T00:00	26800	21	-44.1		79	10	
2025-07-03T00:00	26850	20	-44.3		75	12	
2025-07-03T00:00	26900	20	-44.3		73	13	
2025-07-03T00:00	26950	20	-44.4		70	13	
2025-07-03T00:00	27000	20	-44.6		67	14	
2025-07-03T00:00	27050	20	-44.9		67	14	
2025-07-03T00:00	27100	20	-45.1		71	14	
2025-07-03T00:00	27150	19	-45.4		77	14	
2025-07-03T00:00	27200	19	-45.5		83	14	
2025-07-03T00:00	27250	19	-45.6		88	13	
2025-07-03T00:00	27300	19	-45.8		92	12	
2025-07-03T00:00	27350	19	-45.7		94	12	
2025-07-03T00:00	27400	19	-45.5		93	11	
2025-07-03T00:00	27450	19	-45.4		93	11	
2025-07-03T00:00	27500	19	-45.3		92	10	
2025-07-03T00:00	27550	18	-45.3		93	9	
2025-07-03T00:00	27600	18	-45.3		94	9	
2025-07-03T00:00	27650	18	-45.3		96	8	
2025-07-03T00:00	27700	18	-45.4		97	8	
2025-07-03T00:00	27750	18	-45.6		98	8	
2025-07-03T00:00	27800	18	-45.6		99	9	
2025-07-03T00:00	27850	18	-45.5		98	9	
2025-07-03T00:00	27900	17	-45.3		96	10	
2025-07-03T00:00	27950	17	-45.2		94	10	
2025-07-03T00:00	28000	17	-45.2		93	11	
2025-07-03T00:00	28050	17	-45.4		92	11	
2025-07-03T00:00	28100	17	-45.5		91	11	
2025-07-03T00:00	28150	17	-45.6		90	12	
2025-07-03T00:00	28200	17	-45.3		91	12	
2025-07-03T00:00	28250	17	-45.2		93	11	
2025-07-03T00:00	28300	16	-45.2		97	11	
2025-07-03T00:00	28350	16	-45.0		98	11	
2025-07-03T00:00	28400	16	-44.7		94	12	
2025-07-03T00:00	28450	16	-44.6		90	13	
2025-07-03T00:00	28500	16	-44.5		87	12	
2025-07-03T00:00	28550	16	-44.5		86	12	
2025-07-03T00:00	28600	16	-44.3		86	12	
2025-07-03T00:00	28650	16	-44.2		85	12	
2025-07-03T00:00	28700	15	-44.0		84	13	
2025-07-03T00:00	28750	15	-44.0		83	14	
2025-07-03T00:00	28800	15	-43.8		85	15	
2025-07-03T00:00	28850	15	-43.7		87	16	
2025-07-03T00:00	28900	15	-43.6		89	15	
2025-07-03T00:00	28950	15	-43.4		90	14	
2025-07-03T00:00	29000	15	-43.4		90	14	
2025-07-03T00:00	29050	15	-43.4		91	13	
2025-07-03T00:00	29100	15	-43.3		93	12	
2025-07-03T00:00	29150	14	-43.4		96	11	
2025-07-03T00:00	29200	14	-43.3		98	11	
2025-07-03T00:00	29250	14	-43.2		100	11	
2025-07-03T00:00	29300	14	-42.8		100	11	
2025-07-03T00:00	29350	14	-42.8		98	11	
2025-07-03T00:00	29400	14	-42.7		94	11	
2025-07-03T00:00	29450	14	-42.4		91	11	
2025-07-03T00:00	29500	14	-42.2		91	11	
2025-07-03T00:00	29550	14	-42.3		94	11	
2025-07-03T00:00	29600	14	-42.4		97	11	
2025-07-03T00:00	29650	13	-42.4		100	10	
2025-07-03T00:00	29700	13	-42.3		99	10	
2025-07-03T00:00	29750	13	-42.3		95	9	
2025-07-03T00:00	29800	13	-42.1		90	9	
2025-07-03T00:00	29850	13	-41.6		89	9	
2025-07-03T00:00	29900	13	-41.3		91	10	
2025-07-03T00:00	29950	13	-41.1		92	11	
2025-07-03T00:00	30000	13	-41.1		92	11	
2025-07-03T00:00	30050	13	-41.1		91	11	
2025-07-03T00:00	30100	13	-41.3		90	11	
2025-07-03T00:00	30150	12	-41.4		90	10	
2025-07-03T00:00	30200	12	-41.3		94	10	
2025-07-03T00:00	30250	12	-41.2		98	10	
2025-07-03T00:00	30300	12	-41.3		99	10	
2025-07-03T00:00	30350	12	-41.3		97	9	
2025-07-03T00:00	30400	12	-41.3		94	8	
2025-07-03T00:00	30450	12	-41.2		92	8	
2025-07-03T00:00	30500	12	-41.2		91	8	
2025-07-03T00:00	30550	12	-41.2		90	9	
2025-07-03T00:00	30600	12	-41.4		89	10	
2025-07-03T00:00	30650	12	-41.4		89	11	
2025-07-03T00:00	30700	12	-41.2		90	12	
2025-07-03T00:00	30750	11	-41.1		90	12	
2025-07-03T00:00	30800	11	-41.1		89	13	
2025-07-03T00:00	30850	11	-41.1		89	13	
2025-07-03T00:00	30900	11	-41.0		90	14	
2025-07-03T00:00	30950	11	-41.1		92	14	
2025-07-03T00:00	31000	11	-41.2		93	13	
2025-07-03T00:00	31050	11	-41.0		95	13	
2025-07-03T00:00	31100	11	-40.6		96	12	
2025-07-03T00:00	31150	11	-40.1		97	12	
2025-07-03T00:00	31200	11	-39.9		97	11	
2025-07-03T00:00	31250	11	-39.6		95	10	
2025-07-03T00:00	31300	11	-39.8		93	10	
2025-07-03T00:00	31350	10	-39.4		90	10	
2025-07-03T00:00	31400	10	-39.2		88	10	
2025-07-03T00:00	31450	10	-39.1		87	10	
2025-07-03T00:00	31500	10	-39.0		84	12	
2025-07-03T00:00	31550	10	-39.0		82	13	
2025-07-03T00:00	31600	10	-38.9		81	14	
2025-07-03T00:00	31650	10	-38.6		81	15	
2025-07-03T00:00	31700	10	-38.7		81	16	
2025-07-03T00:00	31750	10	-38.6		82	17	
2025-07-03T00:00	31800	10	-38.7		82	17	
2025-07-03T00:00	31850	10	-38.7		83	16	
2025-07-03T00:00	31900	10	-38.6		83	16	
2025-07-03T00:00	31950	10	-38.5		83	15	
2025-07-03T00:00	32000	10	-38.5		82	16	
2025-07-03T00:00	32050	9	-38.4		82	16	
2025-07-03T00:00	32100	9	-38.5		83	16	
2025-07-03T00:00	32150	9	-38.5		83	16	
2025-07-03T00:00	32200	9	-38.5		84	16	
2025-07-03T00:00	32250	9	-38.4		85	16	
2025-07-03T00:00	32300	9	-38.0		86	16	
2025-07-03T00:00	32350	9	-37.7		87	16	
2025-07-03T00:00	32400	9	-37.4		87	16	
2025-07-03T00:00	32450	9	-37.1		86	15	
2025-07-03T00:00	32500	9	-36.8		85	15	
2025-07-03T00:00	32550	9	-36.5		84	15	
2025-07-03T00:00	32600	9	-36.3		83	15	
2025-07-03T00:00	32650	9	-36.3		82	15	
2025-07-03T00:00	32700	9	-36.2		81	15	
2025-07-03T00:00	32750	9	-36.0		82	15	
2025-07-03T00:00	32800	8	-36.1		82	15	
2025-07-03T00:00	32850	8	-35.8		83	15	
2025-07-03T00:00	32900	8	-35.7		84	16	
2025-07-03T00:00	32950	8	-35.6		84	16	
2025-07-03T00:00	33000	8	-35.4		83	16	
2025-07-03T00:00	33050	8	-35.3		83	16	
2025-07-03T00:00	33100	8	-35.2		84	17	
2025-07-03T00:00	33150	8	-34.9		85	18	
2025-07-03T00:00	33200	8	-34.4		86	18	
2025-07-03T00:00	33250	8	-33.7		85	18	
2025-07-03T00:00	33300	8	-33.1		85	19	
2025-07-03T00:00	33350	8	-32.9		85	19	
2025-07-03T00:00	33400	8	-32.8		86	18	
2025-07-03T00:00	33450	8	-32.6		84	18	
2025-07-03T00:00	33500	8	-32.5		82	17	
2025-07-03T00:00	33550	8	-32.3		80	17	
2025-07-03T00:00	33600	8	-32.1		80	18	
2025-07-03T00:00	33650	7	-31.8		81	19	
2025-07-03T00:00	33700	7	-31.8		83	20	
2025-07-03T00:00	33750	7	-32.1		84	20	
2025-07-03T00:00	33800	7	-32.2		85	21	
2025-07-03T00:00	33850	7	-32.2		86	20	
2025-07-03T00:00	33900	7	-32.3		88	19	
2025-07-03T00:00	33950	7	-32.1		90	19	
2025-07-03T00:00	34000	7	-31.8		91	18	
2025-07-03T00:00	34050	7	-31.8		91	18	
2025-07-03T00:00	34100	7	-31.7		90	18	
2025-07-03T00:00	34150	7	-31.6		92	18	
2025-07-03T00:00	34200	7	-31.6		95	18	
2025-07-03T00:00	34250	7	-31.6		99	18	
2025-07-03T00:00	34300	7	-31.7		103	18	
2025-07-03T00:00	34350	7	-32.0		105	17	
2025-07-03T00:00	34400	7	-31.9		104	16	
2025-07-03T00:00	34450	7	-31.6		101	15	
2025-07-03T00:00	34500	7	-31.3		101	13	
2025-07-03T00:00	34550	7	-30.8		101	13	
2025-07-03T00:00	34600	7	-29.9		98	13	
2025-07-03T00:00	34650	7	-29.5		94	14	
2025-07-03T00:00	34700	6	-29.2		90	14	
2025-07-03T00:00	34750	6	-29.2		85	13	
2025-07-03T00:00	34800	6	-29.2		80	13	
2025-07-03T00:00	34850	6	-29.1		76	13	
2025-07-03T00:00	34900	6	-29.0		71	13	
2025-07-03T00:00	34950	6	-29.0		67	14	
2025-07-03T00:00	35000	6	-29.1		64	15	
2025-07-03T00:00	35050	6	-28.8		61	15	
2025-07-03T00:00	35100	6	-28.9		60	14	
2025-07-03T00:00	35150	6	-29.0		59	14	
2025-07-03T00:00	35200	6	-29.0		60	13	
2025-07-03T00:00	35250	6	-29.1		62	13	
2025-07-03T00:00	35300	6	-29.2		66	12	
2025-07-03T00:00	35350	6	-29.2		68	12	
2025-07-03T00:00	35400	6	-29.1		65	12	
2025-07-03T00:00	35450	6	-29.1		60	13	
2025-07-03T00:00	35500	6	-29.1		57	14	
2025-07-03T00:00	35550	6	-29.1		56	15	
2025-07-03T00:00	35600	6	-29.1		59	16	
2025-07-03T00:00	35650	6	-28.9		65	17	
2025-07-03T00:00	35700	6	-29.0		71	17	
2025-07-03T00:00	35750	6	-29.2		78	19	
2025-07-03T00:00	35800	6	-29.2		83	20	
2025-07-03T00:00	35850	6	-29.0		88	20	
2025-07-03T00:00	35900	5	-29.1		90	20	
2025-07-03T00:00	35950	5	-29.0		89	19	
2025-07-03T00:00	36000	5	-28.8		84	19	
2025-07-03T00:00	36050	5	-28.6		78	19	
2025-07-03T00:00	36100	5	-28.2		73	20	
2025-07-03T00:00	36150	5	-28.1		69	20	
2025-07-03T00:00	36200	5	-27.8		68	21	
2025-07-03T00:00	36250	5	-27.5		70	21	
2025-07-03T00:00	36300	5	-27.0		73	22	
2025-07-03T00:00	36350	5	-27.0		76	22	
2025-07-03T00:00	36400	5	-27.0		78	22	
2025-07-03T00:00	36450	5	-27.2		78	21	
2025-07-03T00:00	36500	5	-27.2		77	21	
2025-07-03T00:00	36550	5	-27.2		75	21	
2025-07-03T00:00	36600	5	-27.2		72	21	
2025-07-03T00:00	36650	5	-27.2		70	21	
2025-07-03T00:00	36700	5	-27.3		68	22	
2025-07-03T00:00	36750	5	-27.3		68	23	
2025-07-03T00:00	36800	5	-27.1		68	24	
2025-07-03T00:00	36850	5	-27.1		69	25	
2025-07-03T00:00	36900	5	-27.2		71	26	
2025-07-03T00:00	36950	5	-26.9		73	26	
2025-07-03T00:00	37000	5	-26.7		76	26	
2025-07-03T00:00	37050	5	-26.6		78	25	
2025-07-03T00:00	37100	5	-26.8		81	25	
2025-07-03T00:00	37150	5	-27.0		86	24	
2025-07-03T00:00	37200	5	-26.4		88	24	
2025-07-03T00:00	37250	5	-25.6		87	25	
2025-07-03T12:00	491	965	28.5	14.4	46	3	
2025-07-03T12:00	501	964	28.3	15.0	22	2	
2025-07-03T12:00	520	962	27.3	14.5	18	2	
2025-07-03T12:00	540	960	27.1	14.2	21	3	
2025-07-03T12:00	560	958	26.8	14.1	24	3	
2025-07-03T12:00	580	955	26.6	14.0	28	3	
2025-07-03T12:00	600	953	26.4	13.9	31	3	
2025-07-03T12:00	620	951	26.2	14.0	33	3	
2025-07-03T12:00	640	949	26.0	14.1	32	3	
2025-07-03T12:00	660	947	25.8	14.0	30	3	
2025-07-03T12:00	680	945	25.7	13.9	27	3	
2025-07-03T12:00	700	943	25.5	13.8	22	3	
2025-07-03T12:00	720	940	25.2	13.8	17	3	
2025-07-03T12:00	740	938	25.1	13.8	13	3	
2025-07-03T12:00	760	936	24.8	13.8	9	3	
2025-07-03T12:00	780	934	24.7	13.7	6	3	
2025-07-03T12:00	800	932	24.5	13.7	4	3	
2025-07-03T12:00	820	930	24.3	13.7	2	3	
2025-07-03T12:00	840	928	24.1	13.6	1	3	
2025-07-03T12:00	860	926	23.9	13.5	1	3	
2025-07-03T12:00	880	923	23.7	13.5	360	3	
2025-07-03T12:00	900	921	23.6	13.5	358	3	
2025-07-03T12:00	920	920	23.4	13.5	357	3	
2025-07-03T12:00	940	917	23.2	13.5	355	3	
2025-07-03T12:00	960	915	23.0	13.4	354	2	
2025-07-03T12:00	980	913	22.8	13.3	353	2	
2025-07-03T12:00	1000	911	22.6	13.3	354	2	
2025-07-03T12:00	1020	909	22.4	13.4	354	2	
2025-07-03T12:00	1040	907	22.2	13.4	354	2	
2025-07-03T12:00	1060	905	22.0	13.3	354	2	
2025-07-03T12:00	1080	903	21.8	13.2	354	2	
2025-07-03T12:00	1100	901	21.6	13.3	353	1	
2025-07-03T12:00	1120	899	21.4	13.2	353	1	
2025-07-03T12:00	1140	896	21.3	13.0	352	1	
2025-07-03T12:00	1160	894	21.1	13.0	351	1	
2025-07-03T12:00	1180	892	20.9	12.8	350	1	
2025-07-03T12:00	1200	890	20.8	12.9	349	1	
2025-07-03T12:00	1220	888	20.6	12.8	348	2	
2025-07-03T12:00	1240	886	20.4	12.7	347	2	
2025-07-03T12:00	1260	884	20.2	12.7	345	2	
2025-07-03T12:00	1280	882	20.0	12.6	341	2	
2025-07-03T12:00	1300	880	19.8	12.5	338	2	
2025-07-03T12:00	1320	878	19.7	12.4	334	2	
2025-07-03T12:00	1340	876	19.5	12.4	328	2	
2025-07-03T12:00	1360	874	19.2	12.5	324	2	
2025-07-03T12:00	1380	872	19.0	12.5	322	2	
2025-07-03T12:00	1400	870	18.8	12.4	323	2	
2025-07-03T12:00	1420	868	18.6	12.4	328	2	
2025-07-03T12:00	1440	866	18.4	12.5	339	2	
2025-07-03T12:00	1460	864	18.2	12.5	354	2	
2025-07-03T12:00	1480	862	18.1	12.3	14	2	
2025-07-03T12:00	1500	860	17.9	12.3	34	2	
2025-07-03T12:00	1520	858	17.7	12.3	58	2	
2025-07-03T12:00	1540	856	17.7	11.8	86	2	
2025-07-03T12:00	1560	854	17.6	11.6	108	2	
2025-07-03T12:00	1580	852	17.5	11.2	120	2	
2025-07-03T12:00	1600	850	17.2	11.6	131	1	
2025-07-03T12:00	1620	848	17.0	11.6	140	1	
2025-07-03T12:00	1640	846	16.9	11.4	149	1	
2025-07-03T12:00	1660	844	16.7	11.5	154	0	
2025-07-03T12:00	1680	842	16.5	11.3	154	0	
2025-07-03T12:00	1700	840	16.4	11.1	160	0	
2025-07-03T12:00	1720	838	16.4	10.6	185	0	
2025-07-03T12:00	1740	836	16.3	10.5	215	1	
2025-07-03T12:00	1760	834	16.3	10.2	228	1	
2025-07-03T12:00	1780	832	16.2	10.1	233	1	
2025-07-03T12:00	1800	830	16.0	10.2	235	2	
2025-07-03T12:00	1820	828	15.8	10.2	236	2	
2025-07-03T12:00	1840	826	15.6	10.1	237	3	
2025-07-03T12:00	1860	824	15.4	10.0	238	3	
2025-07-03T12:00	1880	822	15.3	9.9	239	3	
2025-07-03T12:00	1900	820	15.1	9.8	239	3	
2025-07-03T12:00	1920	818	14.9	10.0	238	3	
2025-07-03T12:00	1940	816	14.8	10.0	236	3	
2025-07-03T12:00	1960	815	14.6	10.0	233	3	
2025-07-03T12:00	1980	813	14.4	9.9	230	3	
2025-07-03T12:00	2000	811	14.3	9.7	224	4	
2025-07-03T12:00	2020	809	14.3	9.6	218	4	
2025-07-03T12:00	2040	807	14.4	9.3	213	4	
2025-07-03T12:00	2060	805	14.4	9.0	208	4	
2025-07-03T12:00	2080	803	14.4	8.9	203	4	
2025-07-03T12:00	2100	801	14.2	8.9	199	4	
2025-07-03T12:00	2120	799	14.0	8.9	195	4	
2025-07-03T12:00	2140	797	13.9	8.8	190	4	
2025-07-03T12:00	2160	796	13.7	8.7	187	4	
2025-07-03T12:00	2180	794	13.5	8.5	185	4	
2025-07-03T12:00	2200	792	13.5	8.1	183	4	
2025-07-03T12:00	2220	790	13.5	7.9	184	4	
2025-07-03T12:00	2240	788	13.3	7.9	186	4	
2025-07-03T12:00	2260	786	13.1	7.7	188	4	
2025-07-03T12:00	2280	784	13.0	7.4	190	4	
2025-07-03T12:00	2300	782	12.9	7.3	194	4	
2025-07-03T12:00	2320	780	12.8	7.2	198	4	
2025-07-03T12:00	2340	779	12.6	7.1	202	4	
2025-07-03T12:00	2360	777	12.5	6.8	204	4	
2025-07-03T12:00	2380	775	12.4	6.8	205	4	
2025-07-03T12:00	2400	773	12.2	6.8	206	4	
2025-07-03T12:00	2420	771	12.0	6.8	207	4	
2025-07-03T12:00	2440	770	11.9	6.8	209	4	
2025-07-03T12:00	2460	768	11.7	7.3	212	5	
2025-07-03T12:00	2480	766	11.6	7.4	215	5	
2025-07-03T12:00	2500	764	11.4	7.4	218	5	
2025-07-03T12:00	2520	762	11.4	6.9	221	5	
2025-07-03T12:00	2540	760	11.3	6.7	224	5	
2025-07-03T12:00	2560	758	11.1	6.6	226	5	
2025-07-03T12:00	2580	757	10.9	6.6	228	5	
2025-07-03T12:00	2600	755	10.8	6.4	229	5	
2025-07-03T12:00	2620	753	10.7	6.3	230	5	
2025-07-03T12:00	2640	751	10.6	6.1	231	5	
2025-07-03T12:00	2660	750	10.5	6.1	233	5	
2025-07-03T12:00	2680	748	10.2	6.1	235	5	
2025-07-03T12:00	2700	746	10.0	6.0	236	5	
2025-07-03T12:00	2720	744	9.9	6.0	237	5	
2025-07-03T12:00	2740	742	9.7	6.0	238	5	
2025-07-03T12:00	2760	741	9.5	5.8	238	5	
2025-07-03T12:00	2780	739	9.4	5.6	239	5	
2025-07-03T12:00	2800	737	9.2	5.6	241	5	
2025-07-03T12:00	2820	735	9.0	5.6	244	5	
2025-07-03T12:00	2840	733	8.9	5.4	246	5	
2025-07-03T12:00	2860	732	8.7	5.3	250	5	
2025-07-03T12:00	2880	730	8.7	4.9	253	5	
2025-07-03T12:00	2900	728	8.5	4.9	257	5	
2025-07-03T12:00	2920	726	8.3	4.8	259	5	
2025-07-03T12:00	2940	725	8.2	4.6	260	5	
2025-07-03T12:00	2960	723	8.0	4.4	259	5	
2025-07-03T12:00	2980	721	7.8	4.3	258	5	
2025-07-03T12:00	3000	719	7.7	4.1	255	5	
2025-07-03T12:00	3020	718	7.6	3.9	251	5	
2025-07-03T12:00	3040	716	7.6	3.6	248	5	
2025-07-03T12:00	3060	714	7.5	3.3	246	5	
2025-07-03T12:00	3080	712	7.4	3.1	244	6	
2025-07-03T12:00	3100	711	7.2	3.0	244	6	
2025-07-03T12:00	3120	709	7.0	2.8	244	6	
2025-07-03T12:00	3140	707	6.9	2.8	245	6	
2025-07-03T12:00	3160	705	6.7	2.6	246	5	
2025-07-03T12:00	3180	704	6.6	2.2	247	5	
2025-07-03T12:00	3200	702	6.5	1.8	247	5	
2025-07-03T12:00	3220	700	6.4	1.4	246	5	
2025-07-03T12:00	3240	699	6.3	1.1	245	5	
2025-07-03T12:00	3260	697	6.2	1.0	245	5	
2025-07-03T12:00	3280	695	6.0	1.0	245	5	
2025-07-03T12:00	3300	694	5.8	0.6	245	5	
2025-07-03T12:00	3320	692	5.7	0.4	245	4	
2025-07-03T12:00	3340	690	5.5	0.6	246	4	
2025-07-03T12:00	3360	689	5.3	0.6	246	4	
2025-07-03T12:00	3380	687	5.2	0.4	248	4	
2025-07-03T12:00	3400	685	5.1	-0.2	250	4	
2025-07-03T12:00	3420	684	4.9	-0.5	254	5	
2025-07-03T12:00	3440	682	4.8	-0.5	256	6	
2025-07-03T12:00	3460	680	4.7	-0.4	258	6	
2025-07-03T12:00	3480	678	4.5	-0.5	259	6	
2025-07-03T12:00	3500	677	4.3	-0.5	259	7	
2025-07-03T12:00	3520	675	4.1	0.2	259	7	
2025-07-03T12:00	3540	673	3.9	0.3	259	8	
2025-07-03T12:00	3560	672	3.7	0.1	260	8	
2025-07-03T12:00	3580	670	3.6	-0.7	261	8	
2025-07-03T12:00	3600	669	3.5	-1.1	263	8	
2025-07-03T12:00	3620	667	3.4	-1.7	265	8	
2025-07-03T12:00	3640	665	3.3	-2.1	265	8	
2025-07-03T12:00	3660	664	3.1	-2.5	265	8	
2025-07-03T12:00	3680	662	3.0	-3.2	265	8	
2025-07-03T12:00	3700	661	3.0	-4.1	265	8	
2025-07-03T12:00	3720	659	2.9	-4.4	265	8	
2025-07-03T12:00	3740	657	2.8	-4.8	266	8	
2025-07-03T12:00	3760	656	2.6	-5.1	267	8	
2025-07-03T12:00	3780	654	2.4	-5.1	270	8	
2025-07-03T12:00	3800	652	2.2	-5.1	272	8	
2025-07-03T12:00	3820	651	2.1	-5.5	274	8	
2025-07-03T12:00	3840	649	2.0	-6.0	275	8	
2025-07-03T12:00	3860	648	2.0	-6.7	276	8	
2025-07-03T12:00	3880	646	1.9	-7.6	276	8	
2025-07-03T12:00	3900	644	1.8	-8.3	276	8	
2025-07-03T12:00	3920	643	1.6	-8.3	275	8	
2025-07-03T12:00	3940	641	1.4	-8.5	275	7	
2025-07-03T12:00	3960	640	1.3	-8.6	274	7	
2025-07-03T12:00	3980	638	1.1	-8.5	274	7	
2025-07-03T12:00	4000	636	0.9	-8.5	274	7	
2025-07-03T12:00	4020	635	0.7	-8.6	275	7	
2025-07-03T12:00	4040	633	0.5	-8.7	277	7	
2025-07-03T12:00	4060	632	0.3	-8.7	279	7	
2025-07-03T12:00	4080	630	0.1	-8.7	281	7	
2025-07-03T12:00	4100	629	-0.1	-8.7	282	7	
2025-07-03T12:00	4120	627	-0.3	-8.6	281	7	
2025-07-03T12:00	4140	625	-0.5	-8.6	279	8	
2025-07-03T12:00	4160	624	-0.7	-8.6	276	8	
2025-07-03T12:00	4180	622	-0.9	-8.8	274	8	
2025-07-03T12:00	4200	621	-1.1	-8.7	272	8	
2025-07-03T12:00	4220	619	-1.3	-8.8	270	8	
2025-07-03T12:00	4240	618	-1.5	-8.9	268	8	
2025-07-03T12:00	4260	616	-1.7	-8.8	269	8	
2025-07-03T12:00	4280	614	-1.9	-8.9	270	8	
2025-07-03T12:00	4300	613	-2.1	-9.1	272	8	
2025-07-03T12:00	4320	611	-2.2	-8.8	275	8	
2025-07-03T12:00	4340	610	-2.4	-8.9	278	7	
2025-07-03T12:00	4360	608	-2.5	-9.2	281	7	
2025-07-03T12:00	4380	607	-2.7	-9.3	283	7	
2025-07-03T12:00	4400	605	-2.8	-9.6	285	7	
2025-07-03T12:00	4420	604	-3.0	-9.7	284	7	
2025-07-03T12:00	4440	602	-3.2	-9.7	281	7	
2025-07-03T12:00	4460	601	-3.4	-9.8	277	7	
2025-07-03T12:00	4480	599	-3.5	-10.1	274	7	
2025-07-03T12:00	4500	598	-3.7	-10.4	270	7	
2025-07-03T12:00	4520	596	-3.8	-10.7	267	7	
2025-07-03T12:00	4540	595	-4.0	-11.3	264	6	
2025-07-03T12:00	4560	593	-4.0	-12.9	263	6	
2025-07-03T12:00	4580	592	-4.2	-13.0	261	6	
2025-07-03T12:00	4600	590	-4.4	-13.6	260	6	
2025-07-03T12:00	4620	588	-4.6	-14.1	258	7	
2025-07-03T12:00	4640	587	-4.7	-14.5	257	7	
2025-07-03T12:00	4660	586	-4.8	-13.7	256	7	
2025-07-03T12:00	4680	584	-4.9	-12.0	255	8	
2025-07-03T12:00	4700	583	-5.1	-10.3	253	8	
2025-07-03T12:00	4720	581	-5.2	-10.7	252	8	
2025-07-03T12:00	4740	580	-5.3	-11.3	250	8	
2025-07-03T12:00	4760	578	-5.3	-13.9	248	8	
2025-07-03T12:00	4780	577	-5.4	-12.3	247	8	
2025-07-03T12:00	4800	575	-5.5	-12.9	246	7	
2025-07-03T12:00	4820	574	-5.6	-16.4	246	7	
2025-07-03T12:00	4840	572	-5.6	-16.5	247	7	
2025-07-03T12:00	4860	571	-5.8	-15.8	248	7	
2025-07-03T12:00	4880	569	-5.9	-15.3	249	7	
2025-07-03T12:00	4900	568	-6.0	-16.3	250	7	
2025-07-03T12:00	4920	567	-6.0	-21.0	250	7	
2025-07-03T12:00	4940	565	-6.1	-21.9	249	7	
2025-07-03T12:00	4960	564	-6.2	-20.1	248	7	
2025-07-03T12:00	4980	562	-6.5	-16.6	247	7	
2025-07-03T12:00	5000	561	-6.7	-16.8	247	7	
2025-07-03T12:00	5020	559	-6.7	-20.2	246	7	
2025-07-03T12:00	5040	558	-6.7	-24.9	245	7	
2025-07-03T12:00	5060	557	-6.7	-27.7	244	7	
2025-07-03T12:00	5080	555	-6.6	-27.5	243	8	
2025-07-03T12:00	5100	554	-6.6	-27.1	243	8	
2025-07-03T12:00	5120	552	-6.6	-28.7	242	8	
2025-07-03T12:00	5140	551	-6.6	-27.8	241	8	
2025-07-03T12:00	5160	549	-6.8	-26.0	242	8	
2025-07-03T12:00	5180	548	-7.0	-20.5	242	8	
2025-07-03T12:00	5200	547	-7.2	-19.7	243	8	
2025-07-03T12:00	5220	545	-7.2	-21.1	244	8	
2025-07-03T12:00	5240	544	-7.3	-22.8	244	8	
2025-07-03T12:00	5260	542	-7.4	-25.1	244	8	
2025-07-03T12:00	5280	541	-7.5	-28.5	243	8	
2025-07-03T12:00	5300	540	-7.6	-30.1	241	9	
2025-07-03T12:00	5320	538	-7.7	-26.2	239	9	
2025-07-03T12:00	5340	537	-7.9	-22.0	238	10	
2025-07-03T12:00	5360	535	-8.2	-18.5	237	10	
2025-07-03T12:00	5380	534	-8.2	-20.2	238	11	
2025-07-03T12:00	5400	533	-8.2	-28.0	239	11	
2025-07-03T12:00	5420	531	-8.2	-34.6	240	11	
2025-07-03T12:00	5440	530	-8.3	-35.4	241	11	
2025-07-03T12:00	5460	529	-8.4	-33.8	243	11	
2025-07-03T12:00	5480	527	-8.5	-32.6	245	11	
2025-07-03T12:00	5500	526	-8.6	-32.7	247	10	
2025-07-03T12:00	5520	525	-8.7	-31.5	248	10	
2025-07-03T12:00	5540	523	-8.8	-31.8	250	10	
2025-07-03T12:00	5560	522	-8.9	-32.1	251	10	
2025-07-03T12:00	5580	520	-9.0	-32.7	252	10	
2025-07-03T12:00	5600	519	-9.0	-34.7	253	9	
2025-07-03T12:00	5620	518	-9.0	-36.2	253	9	
2025-07-03T12:00	5640	516	-9.2	-36.4	253	10	
2025-07-03T12:00	5660	515	-9.3	-36.7	253	10	
2025-07-03T12:00	5680	514	-9.5	-37.1	252	10	
2025-07-03T12:00	5700	512	-9.7	-37.5	252	10	
2025-07-03T12:00	5720	511	-9.8	-37.8	251	10	
2025-07-03T12:00	5740	510	-9.8	-38.1	250	11	
2025-07-03T12:00	5760	508	-9.6	-37.9	249	11	
2025-07-03T12:00	5780	507	-9.7	-38.2	248	11	
2025-07-03T12:00	5800	506	-9.8	-38.2	247	11	
2025-07-03T12:00	5820	505	-9.9	-38.1	246	12	
2025-07-03T12:00	5840	503	-10.1	-38.4	245	12	
2025-07-03T12:00	5860	502	-10.3	-38.9	244	12	
2025-07-03T12:00	5880	501	-10.4	-38.3	243	12	
2025-07-03T12:00	5900	499	-10.6	-37.9	242	12	
2025-07-03T12:00	5920	498	-10.8	-37.6	239	12	
2025-07-03T12:00	5940	497	-10.9	-37.0	237	12	
2025-07-03T12:00	5960	495	-11.1	-36.2	235	12	
2025-07-03T12:00	5980	494	-11.3	-34.9	233	12	
2025-07-03T12:00	6000	493	-11.5	-33.2	232	12	
2025-07-03T12:00	6020	491	-11.7	-31.6	231	12	
2025-07-03T12:00	6040	490	-11.8	-30.4	232	12	
2025-07-03T12:00	6060	489	-12.0	-30.4	232	12	
2025-07-03T12:00	6080	488	-12.1	-30.5	234	12	
2025-07-03T12:00	6100	486	-12.3	-30.6	236	12	
2025-07-03T12:00	6120	485	-12.4	-31.3	237	12	
2025-07-03T12:00	6140	484	-12.4	-30.9	238	12	
2025-07-03T12:00	6160	483	-12.5	-30.8	239	11	
2025-07-03T12:00	6180	481	-12.4	-33.0	239	11	
2025-07-03T12:00	6200	480	-12.3	-36.4	239	11	
2025-07-03T12:00	6220	479	-12.3	-38.8	239	11	
2025-07-03T12:00	6240	478	-12.2	-39.0	239	11	
2025-07-03T12:00	6260	476	-12.1	-36.4	239	10	
2025-07-03T12:00	6280	475	-12.3	-34.8	239	10	
2025-07-03T12:00	6300	474	-12.4	-32.6	239	10	
2025-07-03T12:00	6320	472	-12.5	-27.8	240	10	
2025-07-03T12:00	6340	471	-12.7	-27.7	241	10	
2025-07-03T12:00	6360	470	-12.8	-27.9	242	10	
2025-07-03T12:00	6380	469	-12.8	-29.6	244	10	
2025-07-03T12:00	6400	468	-12.9	-29.3	246	10	
2025-07-03T12:00	6420	467	-13.1	-26.5	249	10	
2025-07-03T12:00	6440	465	-13.2	-25.4	251	10	
2025-07-03T12:00	6460	464	-13.3	-24.6	254	11	
2025-07-03T12:00	6480	463	-13.5	-24.2	257	11	
2025-07-03T12:00	6500	462	-13.6	-23.8	259	11	
2025-07-03T12:00	6520	461	-13.8	-23.7	260	11	
2025-07-03T12:00	6540	459	-14.0	-23.7	260	11	
2025-07-03T12:00	6560	458	-14.2	-23.8	260	11	
2025-07-03T12:00	6580	457	-14.4	-23.7	258	11	
2025-07-03T12:00	6600	456	-14.6	-23.6	257	11	
2025-07-03T12:00	6620	454	-14.8	-23.4	256	11	
2025-07-03T12:00	6640	453	-15.0	-23.5	255	11	
2025-07-03T12:00	6660	452	-15.2	-23.4	255	11	
2025-07-03T12:00	6680	451	-15.3	-23.4	253	11	
2025-07-03T12:00	6700	450	-15.5	-23.3	252	11	
2025-07-03T12:00	6720	448	-15.6	-22.2	251	10	
2025-07-03T12:00	6740	447	-15.6	-21.9	251	10	
2025-07-03T12:00	6760	446	-15.6	-22.3	252	10	
2025-07-03T12:00	6780	445	-15.6	-24.0	253	10	
2025-07-03T12:00	6800	444	-15.6	-24.6	256	10	
2025-07-03T12:00	6820	443	-15.7	-25.0	258	10	
2025-07-03T12:00	6840	441	-15.8	-25.2	260	11	
2025-07-03T12:00	6860	440	-15.9	-25.2	261	11	
2025-07-03T12:00	6880	439	-16.1	-25.2	261	12	
2025-07-03T12:00	6900	438	-16.3	-25.2	260	12	
2025-07-03T12:00	6920	437	-16.5	-24.9	260	12	
2025-07-03T12:00	6940	435	-16.7	-24.4	259	12	
2025-07-03T12:00	6960	434	-16.9	-24.4	258	12	
2025-07-03T12:00	6980	433	-17.0	-24.3	258	12	
2025-07-03T12:00	7000	432	-17.2	-24.2	258	12	
2025-07-03T12:00	7020	431	-17.3	-24.3	258	12	
2025-07-03T12:00	7040	430	-17.4	-24.3	258	12	
2025-07-03T12:00	7060	429	-17.6	-24.1	258	12	
2025-07-03T12:00	7080	427	-17.8	-24.2	258	12	
2025-07-03T12:00	7100	426	-17.9	-24.0	258	12	
2025-07-03T12:00	7120	425	-18.0	-23.9	258	12	
2025-07-03T12:00	7140	424	-18.0	-25.1	258	11	
2025-07-03T12:00	7160	423	-18.1	-25.7	258	11	
2025-07-03T12:00	7180	422	-18.2	-25.7	258	11	
2025-07-03T12:00	7200	421	-18.4	-25.9	259	11	
2025-07-03T12:00	7220	420	-18.6	-27.6	260	12	
2025-07-03T12:00	7240	418	-18.7	-29.0	261	12	
2025-07-03T12:00	7260	417	-18.9	-29.0	262	12	
2025-07-03T12:00	7280	416	-19.0	-28.5	262	12	
2025-07-03T12:00	7300	415	-19.2	-28.3	262	12	
2025-07-03T12:00	7320	414	-19.4	-28.4	261	13	
2025-07-03T12:00	7340	413	-19.5	-28.8	260	13	
2025-07-03T12:00	7360	412	-19.6	-30.0	259	13	
2025-07-03T12:00	7380	411	-19.7	-30.6	258	13	
2025-07-03T12:00	7400	409	-19.9	-30.8	257	13	
2025-07-03T12:00	7420	408	-20.1	-31.0	256	13	
2025-07-03T12:00	7440	407	-20.3	-30.8	255	13	
2025-07-03T12:00	7460	406	-20.4	-30.6	254	13	
2025-07-03T12:00	7480	405	-20.6	-30.0	254	13	
2025-07-03T12:00	7500	404	-20.8	-30.0	254	13	
2025-07-03T12:00	7520	403	-20.9	-29.0	254	13	
2025-07-03T12:00	7540	402	-21.1	-27.6	255	13	
2025-07-03T12:00	7560	401	-21.3	-27.4	256	13	
2025-07-03T12:00	7580	400	-21.5	-27.1	257	13	
2025-07-03T12:00	7600	399	-21.7	-27.0	258	13	
2025-07-03T12:00	7620	397	-21.8	-27.1	258	13	
2025-07-03T12:00	7640	396	-22.0	-27.9	258	13	
2025-07-03T12:00	7660	395	-22.1	-29.9	258	13	
2025-07-03T12:00	7680	394	-22.3	-31.1	258	12	
2025-07-03T12:00	7700	393	-22.4	-31.7	258	12	
2025-07-03T12:00	7720	392	-22.5	-32.4	257	12	
2025-07-03T12:00	7740	391	-22.7	-32.3	257	12	
2025-07-03T12:00	7760	390	-22.9	-32.8	256	12	
2025-07-03T12:00	7780	389	-23.1	-33.1	256	12	
2025-07-03T12:00	7800	388	-23.2	-33.2	255	12	
2025-07-03T12:00	7820	387	-23.4	-33.1	255	12	
2025-07-03T12:00	7840	386	-23.6	-33.2	255	12	
2025-07-03T12:00	7860	385	-23.8	-33.2	255	12	
2025-07-03T12:00	7880	384	-24.0	-33.3	256	12	
2025-07-03T12:00	7900	383	-24.1	-33.8	256	13	
2025-07-03T12:00	7920	382	-24.2	-34.3	257	13	
2025-07-03T12:00	7940	380	-24.3	-33.9	258	13	
2025-07-03T12:00	7960	379	-24.5	-34.8	259	13	
2025-07-03T12:00	7980	378	-24.7	-35.4	260	14	
2025-07-03T12:00	8000	377	-24.8	-36.7	260	14	
2025-07-03T12:00	8020	376	-24.9	-36.9	261	14	
2025-07-03T12:00	8040	375	-25.0	-36.5	261	14	
2025-07-03T12:00	8060	374	-25.2	-36.7	261	14	
2025-07-03T12:00	8080	373	-25.4	-36.8	261	14	
2025-07-03T12:00	8100	372	-25.6	-36.8	260	14	
2025-07-03T12:00	8120	371	-25.8	-35.9	260	14	
2025-07-03T12:00	8140	370	-25.9	-34.0	259	14	
2025-07-03T12:00	8160	369	-26.1	-32.6	259	14	
2025-07-03T12:00	8180	368	-26.3	-29.5	258	14	
2025-07-03T12:00	8200	367	-26.4	-30.0	257	14	
2025-07-03T12:00	8220	366	-26.5	-31.8	257	14	
2025-07-03T12:00	8240	365	-26.6	-32.3	257	14	
2025-07-03T12:00	8260	364	-26.7	-32.1	256	14	
2025-07-03T12:00	8280	363	-26.8	-32.1	256	15	
2025-07-03T12:00	8300	362	-26.9	-32.6	255	15	
2025-07-03T12:00	8320	361	-27.0	-34.0	255	15	
2025-07-03T12:00	8340	360	-27.1	-35.3	254	15	
2025-07-03T12:00	8360	359	-27.2	-37.0	254	15	
2025-07-03T12:00	8380	358	-27.2	-36.8	253	15	
2025-07-03T12:00	8400	357	-27.2	-36.9	253	15	
2025-07-03T12:00	8420	356	-27.3	-38.5	252	15	
2025-07-03T12:00	8440	355	-27.4	-40.7	251	15	
2025-07-03T12:00	8460	354	-27.4	-41.3	250	14	
2025-07-03T12:00	8480	353	-27.5	-42.0	248	14	
2025-07-03T12:00	8500	352	-27.5	-42.1	247	14	
2025-07-03T12:00	8520	351	-27.6	-44.5	246	14	
2025-07-03T12:00	8540	350	-27.7	-46.5	245	14	
2025-07-03T12:00	8560	349	-27.7	-46.1	245	14	
2025-07-03T12:00	8580	348	-27.8	-45.9	245	14	
2025-07-03T12:00	8600	347	-27.9	-45.5	246	14	
2025-07-03T12:00	8620	346	-28.1	-45.5	247	14	
2025-07-03T12:00	8640	345	-28.2	-46.4	248	14	
2025-07-03T12:00	8660	344	-28.4	-46.8	248	14	
2025-07-03T12:00	8680	343	-28.6	-46.8	249	14	
2025-07-03T12:00	8700	342	-28.7	-46.9	249	14	
2025-07-03T12:00	8720	341	-28.9	-46.8	249	14	
2025-07-03T12:00	8740	341	-29.1	-46.8	249	14	
2025-07-03T12:00	8760	340	-29.3	-46.8	248	15	
2025-07-03T12:00	8780	339	-29.5	-46.8	248	15	
2025-07-03T12:00	8800	338	-29.7	-46.7	248	16	
2025-07-03T12:00	8820	337	-29.9	-46.7	248	16	
2025-07-03T12:00	8840	336	-30.1	-46.8	249	16	
2025-07-03T12:00	8860	335	-30.3	-46.9	250	16	
2025-07-03T12:00	8880	334	-30.5	-46.9	252	16	
2025-07-03T12:00	8900	333	-30.7	-46.7	254	16	
2025-07-03T12:00	8920	332	-30.9	-46.8	256	16	
2025-07-03T12:00	8940	331	-31.0	-46.7	259	16	
2025-07-03T12:00	8960	330	-31.2	-46.9	262	16	
2025-07-03T12:00	8980	329	-31.4	-47.0	263	16	
2025-07-03T12:00	9000	328	-31.5	-47.0	264	16	
2025-07-03T12:00	9020	327	-31.7	-47.1	265	16	
2025-07-03T12:00	9040	326	-31.9	-47.4	265	16	
2025-07-03T12:00	9060	326	-32.0	-47.6	265	16	
2025-07-03T12:00	9080	325	-32.2	-47.5	265	16	
2025-07-03T12:00	9100	324	-32.4	-47.6	264	16	
2025-07-03T12:00	9120	323	-32.6	-47.7	264	16	
2025-07-03T12:00	9140	322	-32.8	-47.7	263	16	
2025-07-03T12:00	9160	321	-33.0	-47.7	263	16	
2025-07-03T12:00	9180	320	-33.2	-47.6	262	16	
2025-07-03T12:00	9200	319	-33.4	-47.6	262	16	
2025-07-03T12:00	9220	318	-33.6	-47.8	262	16	
2025-07-03T12:00	9240	317	-33.7	-47.8	262	16	
2025-07-03T12:00	9260	316	-33.9	-47.4	262	16	
2025-07-03T12:00	9280	316	-34.1	-46.8	262	16	
2025-07-03T12:00	9300	315	-34.3	-46.5	263	16	
2025-07-03T12:00	9320	314	-34.5	-46.2	263	16	
2025-07-03T12:00	9340	313	-34.7	-45.9	263	17	
2025-07-03T12:00	9360	312	-34.9	-45.0	263	17	
2025-07-03T12:00	9380	311	-35.0	-43.9	262	17	
2025-07-03T12:00	9400	310	-35.2	-43.8	262	17	
2025-07-03T12:00	9420	309	-35.4	-44.2	261	17	
2025-07-03T12:00	9440	308	-35.6	-44.2	261	17	
2025-07-03T12:00	9460	307	-35.8	-44.1	261	17	
2025-07-03T12:00	9480	306	-36.0	-44.3	260	17	
2025-07-03T12:00	9500	306	-36.2	-44.5	260	17	
2025-07-03T12:00	9520	305	-36.4	-44.6	260	17	
2025-07-03T12:00	9540	304	-36.6	-44.6	261	16	
2025-07-03T12:00	9560	303	-36.8	-44.6	261	16	
2025-07-03T12:00	9580	302	-36.9	-44.7	262	16	
2025-07-03T12:00	9600	301	-37.1	-45.0	262	16	
2025-07-03T12:00	9620	300	-37.3	-45.0	262	16	
2025-07-03T12:00	9640	300	-37.4	-44.8	262	16	
2025-07-03T12:00	9660	299	-37.6	-44.5	262	16	
2025-07-03T12:00	9680	298	-37.8	-44.4	262	16	
2025-07-03T12:00	9700	297	-38.0	-44.4	262	16	
2025-07-03T12:00	9720	296	-38.2	-44.4	262	16	
2025-07-03T12:00	9740	295	-38.3	-46.0	263	16	
2025-07-03T12:00	9760	294	-38.4	-48.4	263	16	
2025-07-03T12:00	9780	294	-38.5	-49.0	264	16	
2025-07-03T12:00	9800	293	-38.7	-50.3	264	16	
2025-07-03T12:00	9820	292	-38.8	-53.1	264	17	
2025-07-03T12:00	9840	291	-39.0	-54.5	264	17	
2025-07-03T12:00	9860	290	-39.1	-54.2	264	17	
2025-07-03T12:00	9880	289	-39.2	-54.0	263	17	
2025-07-03T12:00	9900	288	-39.3	-53.4	263	17	
2025-07-03T12:00	9920	288	-39.4	-53.3	263	17	
2025-07-03T12:00	9940	287	-39.6	-52.8	263	17	
2025-07-03T12:00	9960	286	-39.7	-51.7	263	18	
2025-07-03T12:00	9980	285	-39.9	-52.3	263	18	
2025-07-03T12:00	10000	284	-39.9	-54.8	264	18	
2025-07-03T12:00	10018	284	-39.9	-55.6	264	18	
2025-07-03T12:00	10050	282	-40.1	-56.1	264	18	
2025-07-03T12:00	10100	280	-40.5	-56.3	264	18	
2025-07-03T12:00	10150	278	-41.0	-56.2	264	18	
2025-07-03T12:00	10200	276	-41.4	-56.3	265	18	
2025-07-03T12:00	10250	274	-42.0	-56.3	265	18	
2025-07-03T12:00	10300	272	-42.4	-56.4	266	18	
2025-07-03T12:00	10350	270	-42.9	-56.4	266	18	
2025-07-03T12:00	10400	268	-43.3	-56.5	265	17	
2025-07-03T12:00	10450	266	-43.5	-57.3	262	17	
2025-07-03T12:00	10500	264	-43.8	-57.6	260	16	
2025-07-03T12:00	10550	262	-44.2	-57.8	258	16	
2025-07-03T12:00	10600	260	-44.5	-59.2	257	17	
2025-07-03T12:00	10650	258	-44.6	-60.6	257	17	
2025-07-03T12:00	10700	256	-44.9	-61.0	257	18	
2025-07-03T12:00	10750	254	-45.1	-62.0	257	18	
2025-07-03T12:00	10800	252	-45.6	-61.6	256	18	
2025-07-03T12:00	10850	250	-46.0	-61.4	253	18	
2025-07-03T12:00	10900	249	-46.2	-62.0	251	18	
2025-07-03T12:00	10950	247	-46.6	-61.4	250	18	
2025-07-03T12:00	11000	245	-46.9	-61.6	249	18	
2025-07-03T12:00	11050	243	-46.9	-63.1	249	18	
2025-07-03T12:00	11100	241	-47.0	-63.7	250	18	
2025-07-03T12:00	11150	239	-47.5	-63.7	251	19	
2025-07-03T12:00	11200	238	-47.6	-64.7	252	19	
2025-07-03T12:00	11250	236	-48.0	-64.5	254	20	
2025-07-03T12:00	11300	234	-48.3	-64.5	254	20	
2025-07-03T12:00	11350	232	-48.4	-65.3	253	21	
2025-07-03T12:00	11400	231	-47.9	-66.6	251	20	
2025-07-03T12:00	11450	229	-47.2	-66.9	248	20	
2025-07-03T12:00	11500	227	-47.3	-66.8	245	20	
2025-07-03T12:00	11550	225	-47.6	-66.4	245	21	
2025-07-03T12:00	11600	224	-47.7	-66.3	247	22	
2025-07-03T12:00	11650	222	-47.5	-68.0	250	23	
2025-07-03T12:00	11700	220	-47.3	-69.2	252	22	
2025-07-03T12:00	11750	219	-47.3	-69.5	253	21	
2025-07-03T12:00	11800	217	-47.4	-70.0	252	21	
2025-07-03T12:00	11850	215	-47.0	-71.4	252	21	
2025-07-03T12:00	11900	214	-47.0	-71.7	253	21	
2025-07-03T12:00	11950	212	-46.8	-71.2	253	21	
2025-07-03T12:00	12000	211	-47.1	-71.0	254	21	
2025-07-03T12:00	12050	209	-47.5	-71.2	253	20	
2025-07-03T12:00	12100	207	-47.7	-71.3	250	20	
2025-07-03T12:00	12150	206	-48.1	-71.2	247	21	
2025-07-03T12:00	12200	204	-48.3	-71.4	246	21	
2025-07-03T12:00	12250	203	-48.3	-71.8	247	21	
2025-07-03T12:00	12300	201	-48.7	-71.9	249	22	
2025-07-03T12:00	12350	200	-49.2	-72.0	253	22	
2025-07-03T12:00	12400	198	-49.4	-72.4	255	23	
2025-07-03T12:00	12450	197	-49.6	-72.9	256	23	
2025-07-03T12:00	12500	195	-49.6	-73.7	255	23	
2025-07-03T12:00	12550	194	-49.3	-74.6	253	22	
2025-07-03T12:00	12600	192	-49.4	-75.0	250	22	
2025-07-03T12:00	12650	191	-49.5	-75.2	247	22	
2025-07-03T12:00	12700	189	-49.7	-75.7	243	22	
2025-07-03T12:00	12750	188	-49.6	-76.7	240	22	
2025-07-03T12:00	12800	186	-49.1	-77.6	236	22	
2025-07-03T12:00	12850	185	-49.1	-78.1	233	22	
2025-07-03T12:00	12900	184	-49.3	-78.1	232	23	
2025-07-03T12:00	12950	182	-49.6	-77.9	233	23	
2025-07-03T12:00	13000	181	-49.9	-77.5	235	24	
2025-07-03T12:00	13050	179	-50.2	-77.4	236	24	
2025-07-03T12:00	13100	178	-50.5	-77.5	237	25	
2025-07-03T12:00	13150	177	-50.9	-77.6	238	25	
2025-07-03T12:00	13200	175	-51.2	-77.7	240	25	
2025-07-03T12:00	13250	174	-51.5	-77.9	244	24	
2025-07-03T12:00	13300	173	-51.7	-78.1	247	24	
2025-07-03T12:00	13350	171	-51.9	-78.3	249	24	
2025-07-03T12:00	13400	170	-52.1	-78.6	250	24	
2025-07-03T12:00	13450	169	-52.3	-78.9	250	24	
2025-07-03T12:00	13500	167	-52.6	-79.1	250	23	
2025-07-03T12:00	13550	166	-52.9	-79.1	249	22	
2025-07-03T12:00	13600	165	-53.2	-79.1	247	21	
2025-07-03T12:00	13650	164	-53.5	-79.5	244	20	
2025-07-03T12:00	13700	162	-53.0	-79.9	240	19	
2025-07-03T12:00	13750	161	-53.1	-80.3	236	19	
2025-07-03T12:00	13800	160	-53.3	-80.4	233	19	
2025-07-03T12:00	13850	159	-53.6	-80.4	231	20	
2025-07-03T12:00	13900	157	-54.0	-80.5	228	21	
2025-07-03T12:00	13950	156	-54.4	-80.5	227	21	
2025-07-03T12:00	14000	155	-54.9	-80.6	225	21	
2025-07-03T12:00	14050	154	-55.4	-80.8	223	21	
2025-07-03T12:00	14100	152	-55.8	-80.8	222	22	
2025-07-03T12:00	14150	151	-56.2	-80.9	222	22	
2025-07-03T12:00	14200	150	-56.7	-81.1	223	23	
2025-07-03T12:00	14250	149	-57.1	-81.2	225	24	
2025-07-03T12:00	14300	148	-57.3	-81.3	227	24	
2025-07-03T12:00	14350	147	-57.6	-81.6	228	23	
2025-07-03T12:00	14400	145	-57.8	-81.9	229	22	
2025-07-03T12:00	14450	144	-57.9	-82.2	230	21	
2025-07-03T12:00	14500	143	-58.0	-82.4	231	21	
2025-07-03T12:00	14550	142	-58.1	-82.5	232	22	
2025-07-03T12:00	14600	141	-58.2	-82.7	231	22	
2025-07-03T12:00	14650	140	-57.8	-82.7	230	22	
2025-07-03T12:00	14700	139	-57.8	-82.8	230	22	
2025-07-03T12:00	14750	138	-57.9	-82.9	231	23	
2025-07-03T12:00	14800	136	-58.2	-83.0	234	23	
2025-07-03T12:00	14850	135	-58.3	-83.1	236	23	
2025-07-03T12:00	14900	134	-58.3	-83.2	238	23	
2025-07-03T12:00	14950	133	-58.5	-83.3	239	22	
2025-07-03T12:00	15000	132	-58.6	-83.3	239	22	
2025-07-03T12:00	15050	131	-59.0	-83.4	239	21	
2025-07-03T12:00	15100	130	-59.3	-83.7	236	20	
2025-07-03T12:00	15150	129	-59.2	-83.7	233	19	
2025-07-03T12:00	15200	128	-59.3	-83.8	228	19	
2025-07-03T12:00	15250	127	-59.6	-83.9	224	19	
2025-07-03T12:00	15300	126	-59.9	-83.9	220	19	
2025-07-03T12:00	15350	125	-60.3	-84.0	219	20	
2025-07-03T12:00	15400	124	-60.6	-84.1	222	19	
2025-07-03T12:00	15450	123	-60.5	-84.1	226	19	
2025-07-03T12:00	15500	122	-60.5	-84.3	230	18	
2025-07-03T12:00	15550	121	-60.9	-84.5	234	18	
2025-07-03T12:00	15600	120	-61.4	-84.5	237	17	
2025-07-03T12:00	15650	119	-61.8	-84.6	238	16	
2025-07-03T12:00	15700	118	-62.0	-84.7	236	17	
2025-07-03T12:00	15750	117	-62.0	-84.7	232	18	
2025-07-03T12:00	15800	116	-62.2	-84.5	232	19	
2025-07-03T12:00	15850	115	-62.5	-84.5	234	19	
2025-07-03T12:00	15900	114	-62.7	-84.7	236	17	
2025-07-03T12:00	15950	113	-62.3	-84.8	237	15	
2025-07-03T12:00	16000	112	-62.1	-84.9	238	13	
2025-07-03T12:00	16050	112	-62.0	-85.1	236	12	
2025-07-03T12:00	16100	111	-61.5	-85.2	231	12	
2025-07-03T12:00	16150	110	-61.2	-85.3	226	12	
2025-07-03T12:00	16200	109	-61.4	-85.3	224	13	
2025-07-03T12:00	16250	108	-61.7	-85.2	225	13	
2025-07-03T12:00	16300	107	-62.0	-84.9	226	13	
2025-07-03T12:00	16350	106	-62.2	-84.7	226	13	
2025-07-03T12:00	16400	105	-62.4	-84.8	225	12	
2025-07-03T12:00	16450	105	-62.3	-85.1	226	12	
2025-07-03T12:00	16500	104	-62.1	-85.3	227	12	
2025-07-03T12:00	16550	103	-61.9	-85.3	228	12	
2025-07-03T12:00	16600	102	-62.0	-85.3	230	13	
2025-07-03T12:00	16650	101	-62.2	-85.4	230	13	
2025-07-03T12:00	16700	100	-62.4	-85.4	230	13	
2025-07-03T12:00	16750	100	-62.8	-85.6	231	12	
2025-07-03T12:00	16800	99	-63.0	-85.8	233	12	
2025-07-03T12:00	16850	98	-62.9	-85.9	234	12	
2025-07-03T12:00	16900	97	-62.8	-86.1	232	12	
2025-07-03T12:00	16950	96	-62.5	-86.3	227	13	
2025-07-03T12:00	17000	96	-62.0	-86.2	219	14	
2025-07-03T12:00	17050	95	-61.9	-86.3	215	14	
2025-07-03T12:00	17100	94	-62.1	-86.3	215	15	
2025-07-03T12:00	17150	93	-62.4	-86.3	216	16	
2025-07-03T12:00	17200	93	-62.8	-86.4	217	16	
2025-07-03T12:00	17250	92	-63.0	-86.5	217	16	
2025-07-03T12:00	17300	91	-62.8	-86.6	216	15	
2025-07-03T12:00	17350	90	-62.4	-86.8	218	13	
2025-07-03T12:00	17400	90	-61.6	-86.7	221	12	
2025-07-03T12:00	17450	89	-61.0	-86.8	221	11	
2025-07-03T12:00	17500	88	-60.5	-86.7	220	11	
2025-07-03T12:00	17550	88	-60.5	-86.5	224	12	
2025-07-03T12:00	17600	87	-60.6	-86.5	228	13	
2025-07-03T12:00	17650	86	-60.8	-86.6	229	13	
2025-07-03T12:00	17700	85	-60.6	-86.6	228	13	
2025-07-03T12:00	17750	85	-60.5	-86.5	227	12	
2025-07-03T12:00	17800	84	-60.5	-86.6	227	11	
2025-07-03T12:00	17850	83	-60.5	-86.7	225	10	
2025-07-03T12:00	17900	83	-60.1	-86.6	223	9	
2025-07-03T12:00	17950	82	-60.0	-86.6	222	8	
2025-07-03T12:00	18000	81	-60.1	-86.7	218	8	
2025-07-03T12:00	18050	81	-59.9	-86.6	208	7	
2025-07-03T12:00	18100	80	-59.9	-86.6	197	7	
2025-07-03T12:00	18150	80	-60.0	-86.6	192	7	
2025-07-03T12:00	18200	79	-60.0	-86.6	193	8	
2025-07-03T12:00	18250	78	-60.3	-86.6	198	9	
2025-07-03T12:00	18300	78	-60.6	-86.6	205	9	
2025-07-03T12:00	18350	77	-60.8	-86.7	211	10	
2025-07-03T12:00	18400	76	-60.9	-86.7	217	10	
2025-07-03T12:00	18450	76	-61.0	-86.8	224	10	
2025-07-03T12:00	18500	75	-61.1	-87.1	229	10	
2025-07-03T12:00	18550	75	-60.8	-87.1	226	10	
2025-07-03T12:00	18600	74	-60.5	-87.0	221	10	
2025-07-03T12:00	18650	73	-60.2	-87.0	220	10	
2025-07-03T12:00	18700	73	-60.1	-87.0	223	10	
2025-07-03T12:00	18750	72	-59.8	-87.1	229	9	
2025-07-03T12:00	18800	72	-59.3	-86.9	237	8	
2025-07-03T12:00	18850	71	-59.4	-86.7	243	8	
2025-07-03T12:00	18900	71	-59.8	-86.7	250	7	
2025-07-03T12:00	18950	70	-60.3	-86.7	258	6	
2025-07-03T12:00	19000	69	-60.5	-86.8	265	5	
2025-07-03T12:00	19050	69	-60.5	-87.0	270	3	
2025-07-03T12:00	19100	68	-60.4	-86.9	284	1	
2025-07-03T12:00	19150	68	-60.5	-86.9	65	1	
2025-07-03T12:00	19200	67	-60.8	-86.9	91	1	
2025-07-03T12:00	19250	67	-61.0	-87.0	121	2	
2025-07-03T12:00	19300	66	-61.3	-87.2	160	3	
2025-07-03T12:00	19350	66	-61.2	-87.2	179	5	
2025-07-03T12:00	19400	65	-61.3	-87.3	187	7	
2025-07-03T12:00	19450	65	-61.5	-87.5	194	8	
2025-07-03T12:00	19500	64	-61.3	-87.6	203	7	
2025-07-03T12:00	19550	63	-60.9	-87.6	213	6	
2025-07-03T12:00	19600	63	-60.7	-87.6	214	4	
2025-07-03T12:00	19650	62	-60.2	-87.4	196	2	
2025-07-03T12:00	19700	62	-60.2	-87.5	159	2	
2025-07-03T12:00	19750	61	-59.9	-87.5	152	2	
2025-07-03T12:00	19800	61	-59.3	-87.2	161	2	
2025-07-03T12:00	19850	61	-59.3	-87.3	171	2	
2025-07-03T12:00	19900	60	-58.9	-87.0	170	2	
2025-07-03T12:00	19950	60	-59.0	-87.0	156	2	
2025-07-03T12:00	20000	59	-59.2	-87.1	148	3	
2025-07-03T12:00	20050	59	-59.0		152	4	
2025-07-03T12:00	20100	58	-59.1		162	3	
2025-07-03T12:00	20150	58	-59.3		167	3	
2025-07-03T12:00	20200	57	-59.0		159	3	
2025-07-03T12:00	20250	57	-59.0		136	2	
2025-07-03T12:00	20300	56	-58.7		109	3	
2025-07-03T12:00	20350	56	-58.7		102	4	
2025-07-03T12:00	20400	55	-58.9		107	5	
2025-07-03T12:00	20450	55	-59.0		111	7	
2025-07-03T12:00	20500	55	-59.2		114	8	
2025-07-03T12:00	20550	54	-59.1		118	9	
2025-07-03T12:00	20600	54	-58.3		123	9	
2025-07-03T12:00	20650	53	-58.1		129	9	
2025-07-03T12:00	20700	53	-58.1		134	9	
2025-07-03T12:00	20750	52	-57.8		136	8	
2025-07-03T12:00	20800	52	-57.7		135	9	
2025-07-03T12:00	20850	52	-57.5		135	9	
2025-07-03T12:00	20900	51	-57.2		138	9	
2025-07-03T12:00	20950	51	-56.9		146	9	
2025-07-03T12:00	21000	50	-56.7		156	10	
2025-07-03T12:00	21050	50	-56.8		162	10	
2025-07-03T12:00	21100	50	-57.0		162	11	
2025-07-03T12:00	21150	49	-56.9		159	10	
2025-07-03T12:00	21200	49	-56.7		157	9	
2025-07-03T12:00	21250	48	-56.5		157	8	
2025-07-03T12:00	21300	48	-56.4		157	7	
2025-07-03T12:00	21350	48	-56.1		154	7	
2025-07-03T12:00	21400	47	-55.9		146	6	
2025-07-03T12:00	21450	47	-55.4		131	6	
2025-07-03T12:00	21500	47	-54.5		120	8	
2025-07-03T12:00	21550	46	-54.0		117	9	
2025-07-03T12:00	21600	46	-53.9		121	10	
2025-07-03T12:00	21650	45	-53.8		129	10	
2025-07-03T12:00	21700	45	-53.4		137	10	
2025-07-03T12:00	21750	45	-53.2		145	10	
2025-07-03T12:00	21800	44	-53.2		153	9	
2025-07-03T12:00	21850	44	-53.2		160	9	
2025-07-03T12:00	21900	44	-53.3		165	9	
2025-07-03T12:00	21950	43	-53.6		165	9	
2025-07-03T12:00	22000	43	-53.7		163	9	
2025-07-03T12:00	22050	43	-53.4		160	9	
2025-07-03T12:00	22100	42	-53.2		157	8	
2025-07-03T12:00	22150	42	-53.2		157	7	
2025-07-03T12:00	22200	42	-53.1		159	7	
2025-07-03T12:00	22250	41	-53.3		159	7	
2025-07-03T12:00	22300	41	-53.3		157	6	
2025-07-03T12:00	22350	41	-53.1		153	5	
2025-07-03T12:00	22400	41	-52.5		138	3	
2025-07-03T12:00	22450	40	-52.0		111	3	
2025-07-03T12:00	22500	40	-51.9		102	4	
2025-07-03T12:00	22550	40	-51.6		110	5	
2025-07-03T12:00	22600	39	-51.3		119	6	
2025-07-03T12:00	22650	39	-50.9		122	7	
2025-07-03T12:00	22700	39	-50.9		124	6	
2025-07-03T12:00	22750	38	-50.8		126	6	
2025-07-03T12:00	22800	38	-50.7		127	6	
2025-07-03T12:00	22850	38	-50.8		125	6	
2025-07-03T12:00	22900	37	-51.1		120	6	
2025-07-03T12:00	22950	37	-51.2		115	6	
2025-07-03T12:00	23000	37	-51.1		114	6	
2025-07-03T12:00	23050	37	-51.1		120	6	
2025-07-03T12:00	23100	36	-51.2		127	6	
2025-07-03T12:00	23150	36	-51.3		133	7	
2025-07-03T12:00	23200	36	-51.5		138	7	
2025-07-03T12:00	23250	36	-51.6		143	7	
2025-07-03T12:00	23300	35	-51.6		147	6	
2025-07-03T12:00	23350	35	-51.6		150	6	
2025-07-03T12:00	23400	35	-51.9		151	6	
2025-07-03T12:00	23450	34	-52.1		148	6	
2025-07-03T12:00	23500	34	-52.2		143	6	
2025-07-03T12:00	23550	34	-52.2		139	6	
2025-07-03T12:00	23600	34	-52.1		135	6	
2025-07-03T12:00	23650	33	-52.1		135	6	
2025-07-03T12:00	23700	33	-51.8		136	6	
2025-07-03T12:00	23750	33	-51.4		128	6	
2025-07-03T12:00	23800	33	-51.3		112	6	
2025-07-03T12:00	23850	32	-51.2		98	7	
2025-07-03T12:00	23900	32	-51.2		91	8	
2025-07-03T12:00	23950	32	-51.3		91	9	
2025-07-03T12:00	24000	32	-51.4		92	11	
2025-07-03T12:00	24050	31	-51.6		93	12	
2025-07-03T12:00	24100	31	-51.7		97	12	
2025-07-03T12:00	24150	31	-51.7		103	12	
2025-07-03T12:00	24200	31	-51.8		110	12	
2025-07-03T12:00	24250	30	-52.0		116	12	
2025-07-03T12:00	24300	30	-52.2		122	12	
2025-07-03T12:00	24350	30	-52.4		127	11	
2025-07-03T12:00	24400	30	-52.6		131	11	
2025-07-03T12:00	24450	30	-52.8		133	10	
2025-07-03T12:00	24500	29	-52.9		132	9	
2025-07-03T12:00	24550	29	-52.8		130	8	
2025-07-03T12:00	24600	29	-52.7		127	8	
2025-07-03T12:00	24650	29	-52.6		124	9	
2025-07-03T12:00	24700	28	-52.5		122	9	
2025-07-03T12:00	24750	28	-52.2		123	8	
2025-07-03T12:00	24800	28	-52.0		122	8	
2025-07-03T12:00	24850	28	-52.0		118	8	
2025-07-03T12:00	24900	28	-51.9		113	8	
2025-07-03T12:00	24950	27	-51.8		109	9	
2025-07-03T12:00	25000	27	-51.6		109	10	
2025-07-03T12:00	25050	27	-51.5		111	11	
2025-07-03T12:00	25100	27	-51.6		112	10	
2025-07-03T12:00	25150	26	-51.6		113	10	
2025-07-03T12:00	25200	26	-51.6		114	9	
2025-07-03T12:00	25250	26	-51.7		116	9	
2025-07-03T12:00	25300	26	-51.9		117	9	
2025-07-03T12:00	25350	26	-52.0		116	9	
2025-07-03T12:00	25400	25	-51.9		115	9	
2025-07-03T12:00	25450	25	-51.9		113	10	
2025-07-03T12:00	25500	25	-51.9		110	10	
2025-07-03T12:00	25550	25	-51.7		110	11	
2025-07-03T12:00	25600	25	-51.7		110	12	
2025-07-03T12:00	25650	25	-51.7		111	13	
2025-07-03T12:00	25700	24	-51.7		111	12	
2025-07-03T12:00	25750	24	-51.6		111	12	
2025-07-03T12:00	25800	24	-51.6		112	12	
2025-07-03T12:00	25850	24	-51.6		114	13	
2025-07-03T12:00	25900	24	-51.4		115	14	
2025-07-03T12:00	25950	23	-51.1		116	15	
2025-07-03T12:00	26000	23	-51.0		118	16	
2025-07-03T12:00	26050	23	-50.9		122	16	
2025-07-03T12:00	26100	23	-50.8		124	16	
2025-07-03T12:00	26150	23	-50.5		126	16	
2025-07-03T12:00	26200	23	-49.9		126	15	
2025-07-03T12:00	26250	22	-49.3		128	15	
2025-07-03T12:00	26300	22	-48.6		129	13	
2025-07-03T12:00	26350	22	-48.2		128	11	
2025-07-03T12:00	26400	22	-47.8		125	11	
2025-07-03T12:00	26450	22	-47.2		121	11	
2025-07-03T12:00	26500	22	-46.8		119	11	
2025-07-03T12:00	26550	21	-46.3		120	12	
2025-07-03T12:00	26600	21	-45.8		121	13	
2025-07-03T12:00	26650	21	-45.5		123	12	
2025-07-03T12:00	26700	21	-45.2		124	11	
2025-07-03T12:00	26750	21	-45.1		120	9	
2025-07-03T12:00	26800	21	-44.9		112	8	
2025-07-03T12:00	26850	20	-44.8		98	7	
2025-07-03T12:00	26900	20	-44.7		84	7	
2025-07-03T12:00	26950	20	-44.7		72	7	
2025-07-03T12:00	27000	20	-44.6		66	8	
2025-07-03T12:00	27050	20	-44.6		65	9	
2025-07-03T12:00	27100	20	-44.8		68	10	
2025-07-03T12:00	27150	20	-45.1		72	11	
2025-07-03T12:00	27200	19	-45.3		77	11	
2025-07-03T12:00	27250	19	-45.5		83	12	
2025-07-03T12:00	27300	19	-45.6		88	12	
2025-07-03T12:00	27350	19	-45.8		93	12	
2025-07-03T12:00	27400	19	-45.9		96	11	
2025-07-03T12:00	27450	19	-46.1		99	11	
2025-07-03T12:00	27500	19	-46.1		102	11	
2025-07-03T12:00	27550	18	-46.0		104	12	
2025-07-03T12:00	27600	18	-45.9		106	12	
2025-07-03T12:00	27650	18	-45.8		107	12	
2025-07-03T12:00	27700	18	-45.8		108	11	
2025-07-03T12:00	27750	18	-45.7		108	11	
2025-07-03T12:00	27800	18	-45.7		110	10	
2025-07-03T12:00	27850	18	-45.8		112	11	
2025-07-03T12:00	27900	17	-45.9		114	11	
2025-07-03T12:00	27950	17	-45.9		115	11	
2025-07-03T12:00	28000	17	-45.9		115	11	
2025-07-03T12:00	28050	17	-45.9		114	11	
2025-07-03T12:00	28100	17	-45.8		111	11	
2025-07-03T12:00	28150	17	-45.7		107	10	
2025-07-03T12:00	28200	17	-45.4		103	9	
2025-07-03T12:00	28250	17	-45.2		102	9	
2025-07-03T12:00	28300	16	-45.4		101	8	
2025-07-03T12:00	28350	16	-45.3		98	9	
2025-07-03T12:00	28400	16	-45.1		94	10	
2025-07-03T12:00	28450	16	-44.9		90	11	
2025-07-03T12:00	28500	16	-44.6		86	11	
2025-07-03T12:00	28550	16	-44.4		81	12	
2025-07-03T12:00	28600	16	-44.1		77	13	
2025-07-03T12:00	28650	16	-44.2		75	14	
2025-07-03T12:00	28700	15	-44.4		75	14	
2025-07-03T12:00	28750	15	-44.6		75	15	
2025-07-03T12:00	28800	15	-44.8		75	16	
2025-07-03T12:00	28850	15	-45.0		76	17	
2025-07-03T12:00	28900	15	-45.2		78	17	
2025-07-03T12:00	28950	15	-45.3		82	17	
2025-07-03T12:00	29000	15	-45.1		87	16	
2025-07-03T12:00	29050	15	-45.3		94	15	
2025-07-03T12:00	29100	15	-45.2		99	15	
2025-07-03T12:00	29150	14	-44.8		104	14	
2025-07-03T12:00	29200	14	-44.7		106	14	
2025-07-03T12:00	29250	14	-44.6		108	13	
2025-07-03T12:00	29300	14	-44.3		108	12	
2025-07-03T12:00	29350	14	-44.1		108	12	
2025-07-03T12:00	29400	14	-43.8		105	12	
2025-07-03T12:00	29450	14	-43.6		100	12	
2025-07-03T12:00	29500	14	-43.4		95	13	
2025-07-03T12:00	29550	14	-43.2		93	14	
2025-07-03T12:00	29600	14	-43.0		95	14	
2025-07-03T12:00	29650	13	-42.8		98	14	
2025-07-03T12:00	29700	13	-42.5		99	14	
2025-07-03T12:00	29750	13	-42.0		98	15	
2025-07-03T12:00	29800	13	-41.8		96	15	
2025-07-03T12:00	29850	13	-41.8		94	15	
2025-07-03T12:00	29900	13	-41.8		92	15	
2025-07-03T12:00	29950	13	-41.8		89	14	
2025-07-03T12:00	30000	13	-41.6		86	13	
2025-07-03T12:00	30050	13	-41.4		84	13	
2025-07-03T12:00	30100	13	-41.3		85	13	
2025-07-03T12:00	30150	12	-41.2		88	13	
2025-07-03T12:00	30200	12	-41.1		93	13	
2025-07-03T12:00	30250	12	-40.9		96	12	
2025-07-03T12:00	30300	12	-40.7		95	12	
2025-07-03T12:00	30350	12	-40.3		92	12	
2025-07-03T12:00	30400	12	-40.0		88	12	
2025-07-03T12:00	30450	12	-39.7		86	13	
2025-07-03T12:00	30500	12	-39.3		84	13	
2025-07-03T12:00	30550	12	-38.9		83	13	
2025-07-03T12:00	30600	12	-38.5		82	13	
2025-07-03T12:00	30650	12	-38.3		82	12	
2025-07-03T12:00	30700	12	-38.3		83	12	
2025-07-03T12:00	30750	11	-38.3		84	12	
2025-07-03T12:00	30800	11	-38.3		86	13	
2025-07-03T12:00	30850	11	-38.4		88	13	
2025-07-03T12:00	30900	11	-38.3		90	14	
2025-07-03T12:00	30950	11	-38.2		93	14	
2025-07-03T12:00	31000	11	-38.2		95	14	
2025-07-03T12:00	31050	11	-38.3		96	13	
2025-07-03T12:00	31100	11	-38.3		95	13	
2025-07-03T12:00	31150	11	-38.4		93	12	
2025-07-03T12:00	31200	11	-38.5		89	11	
2025-07-03T12:00	31250	11	-38.4		85	11	
2025-07-03T12:00	31300	11	-38.1		81	11	
2025-07-03T12:00	31350	10	-37.8		80	11	
2025-07-03T12:00	31400	10	-37.7		79	12	
2025-07-03T12:00	31450	10	-37.8		76	12	
2025-07-03T12:00	31500	10	-37.9		71	12	
2025-07-03T12:00	31550	10	-38.1		68	13	
2025-07-03T12:00	31600	10	-38.1		69	13	
2025-07-03T12:00	31650	10	-37.9		72	12	
2025-07-03T12:00	31700	10	-37.7		77	12	
2025-07-03T12:00	31750	10	-37.3		82	12	
2025-07-03T12:00	31800	10	-37.0		84	12	
2025-07-03T12:00	31850	10	-36.9		87	12	
2025-07-03T12:00	31900	10	-36.8		90	12	
2025-07-03T12:00	31950	10	-36.5		90	12	
2025-07-03T12:00	32000	10	-36.1		86	13	
2025-07-03T12:00	32050	9	-35.8		83	13	
2025-07-03T12:00	32100	9	-35.6		84	13	
2025-07-03T12:00	32150	9	-35.6		88	13	
2025-07-03T12:00	32200	9	-35.6		91	13	
2025-07-03T12:00	32250	9	-35.5		93	12	
2025-07-03T12:00	32300	9	-35.3		92	12	
2025-07-03T12:00	32350	9	-35.2		91	12	
2025-07-03T12:00	32400	9	-35.2		90	12	
2025-07-03T12:00	32450	9	-35.2		89	12	
2025-07-03T12:00	32500	9	-35.3		89	12	
2025-07-03T12:00	32550	9	-35.1		88	13	
2025-07-03T12:00	32600	9	-34.8		87	13	
2025-07-03T12:00	32650	9	-34.6		86	14	
2025-07-03T12:00	32700	9	-34.6		86	14	
2025-07-03T12:00	32750	9	-34.6		88	14	
2025-07-03T12:00	32800	8	-34.7		90	13	
2025-07-03T12:00	32850	8	-34.8		94	13	
2025-07-03T12:00	32900	8	-34.8		96	13	
2025-07-03T12:00	32950	8	-34.6		96	14	
2025-07-03T12:00	33000	8	-34.4		94	14	
2025-07-03T12:00	33050	8	-34.4		92	14	
2025-07-03T12:00	33100	8	-34.4		92	14	
2025-07-03T12:00	33150	8	-34.4		92	13	
2025-07-03T12:00	33200	8	-34.4		94	12	
2025-07-03T12:00	33250	8	-34.5		96	12	
2025-07-03T12:00	33300	8	-34.5		98	11	
2025-07-03T12:00	33350	8	-34.5		101	11	
2025-07-03T12:00	33400	8	-34.5		102	11	
2025-07-03T12:00	33450	8	-34.6		102	11	
2025-07-03T12:00	33500	8	-34.7		100	11	
2025-07-03T12:00	33550	8	-34.7		99	12	
2025-07-03T12:00	33600	8	-34.5		98	13	
2025-07-03T12:00	33650	8	-34.4		97	14	
2025-07-03T12:00	33700	7	-34.5		97	16	
2025-07-03T12:00	33750	7	-34.6		97	17	
2025-07-03T12:00	33800	7	-34.7		98	17	
2025-07-03T12:00	33850	7	-34.7		98	17	
2025-07-03T12:00	33900	7	-34.7		98	17	
2025-07-03T12:00	33950	7	-34.7		98	17	
2025-07-03T12:00	34000	7	-34.5		98	17	
2025-07-03T12:00	34050	7	-34.2		98	17	
2025-07-04T00:00	491	966	21.9	16.4	63	2	
2025-07-04T00:00	501	964	22.2	16.4	62	2	
2025-07-04T00:00	520	963	22.3	16.4	61	3	
2025-07-04T00:00	540	961	22.2	16.2	60	4	
2025-07-04T00:00	560	959	22.1	16.0	59	5	
2025-07-04T00:00	580	956	21.9	16.0	57	6	
2025-07-04T00:00	600	954	21.8	15.9	55	6	
2025-07-04T00:00	620	952	21.6	15.7	54	7	
2025-07-04T00:00	640	950	21.5	15.9	52	7	
2025-07-04T00:00	660	948	21.4	15.8	51	7	
2025-07-04T00:00	680	946	21.2	15.7	50	6	
2025-07-04T00:00	700	943	21.1	15.7	48	6	
2025-07-04T00:00	720	941	20.9	15.9	47	6	
2025-07-04T00:00	740	939	20.7	15.8	45	6	
2025-07-04T00:00	760	937	20.5	15.8	43	5	
2025-07-04T00:00	780	935	20.4	15.8	42	5	
2025-07-04T00:00	800	932	20.2	15.8	42	5	
2025-07-04T00:00	820	930	20.0	15.7	42	6	
2025-07-04T00:00	840	928	19.9	15.7	43	6	
2025-07-04T00:00	860	926	19.7	15.5	44	6	
2025-07-04T00:00	880	924	19.6	15.5	45	6	
2025-07-04T00:00	900	922	19.4	15.5	46	6	
2025-07-04T00:00	920	919	19.2	15.4	47	7	
2025-07-04T00:00	940	918	19.1	15.3	47	7	
2025-07-04T00:00	960	916	19.0	15.3	48	7	
2025-07-04T00:00	980	913	18.8	15.2	49	7	
2025-07-04T00:00	1000	911	18.7	15.2	50	7	
2025-07-04T00:00	1020	909	18.5	15.1	51	8	
2025-07-04T00:00	1040	907	18.3	15.1	52	8	
2025-07-04T00:00	1060	905	18.2	15.0	53	8	
2025-07-04T00:00	1080	903	18.1	15.0	54	8	
2025-07-04T00:00	1100	901	17.9	15.0	56	8	
2025-07-04T00:00	1120	898	17.7	14.9	58	8	
2025-07-04T00:00	1140	896	17.6	14.9	60	8	
2025-07-04T00:00	1160	894	17.4	14.8	62	8	
2025-07-04T00:00	1180	892	17.4	14.8	63	8	
2025-07-04T00:00	1200	890	17.2	14.8	65	8	
2025-07-04T00:00	1220	888	17.1	14.7	66	7	
2025-07-04T00:00	1240	886	16.9	14.8	67	7	
2025-07-04T00:00	1260	884	16.7	14.8	67	7	
2025-07-04T00:00	1280	882	16.6	14.8	67	6	
2025-07-04T00:00	1300	880	16.4	14.8	67	6	
2025-07-04T00:00	1320	878	16.4	14.8	66	5	
2025-07-04T00:00	1340	876	16.4	14.9	65	5	
2025-07-04T00:00	1360	874	16.4	14.9	64	4	
2025-07-04T00:00	1380	872	16.5	14.9	63	4	
2025-07-04T00:00	1400	869	16.4	14.8	63	4	
2025-07-04T00:00	1420	867	16.4	14.8	62	4	
2025-07-04T00:00	1440	865	16.3	14.7	61	4	
2025-07-04T00:00	1460	863	16.2	14.6	59	4	
2025-07-04T00:00	1480	861	16.1	14.6	59	3	
2025-07-04T00:00	1500	859	16.0	14.5	57	3	
2025-07-04T00:00	1520	857	16.0	14.5	56	3	
2025-07-04T00:00	1540	855	15.9	14.5	54	3	
2025-07-04T00:00	1560	853	15.7	14.6	51	2	
2025-07-04T00:00	1580	851	15.6	14.5	49	2	
2025-07-04T00:00	1600	849	15.5	14.5	47	2	
2025-07-04T00:00	1620	847	15.4	14.5	43	2	
2025-07-04T00:00	1640	845	15.2	14.6	39	1	
2025-07-04T00:00	1660	843	15.2	14.6	35	1	
2025-07-04T00:00	1680	841	15.1	14.5	31	1	
2025-07-04T00:00	1700	839	14.9	14.5	24	0	
2025-07-04T00:00	1720	837	14.9	14.5	316	0	
2025-07-04T00:00	1740	836	15.0	14.3	230	0	
2025-07-04T00:00	1760	834	15.2	14.0	222	1	
2025-07-04T00:00	1780	831	15.3	13.8	220	1	
2025-07-04T00:00	1800	830	15.3	13.7	220	2	
2025-07-04T00:00	1820	828	15.2	13.6	221	2	
2025-07-04T00:00	1840	826	15.1	13.4	222	3	
2025-07-04T00:00	1860	824	15.0	13.3	224	3	
2025-07-04T00:00	1880	822	14.9	13.2	227	3	
2025-07-04T00:00	1900	820	14.8	13.2	231	3	
2025-07-04T00:00	1920	818	14.6	13.2	235	4	
2025-07-04T00:00	1940	816	14.5	13.1	238	4	
2025-07-04T00:00	1960	814	14.4	12.5	241	4	
2025-07-04T00:00	1980	812	14.4	12.2	243	5	
2025-07-04T00:00	2000	810	14.2	12.2	244	5	
2025-07-04T00:00	2020	808	14.0	12.3	245	5	
2025-07-04T00:00	2040	806	13.8	12.2	245	5	
2025-07-04T00:00	2060	805	13.7	12.1	244	5	
2025-07-04T00:00	2080	803	13.6	11.7	243	5	
2025-07-04T00:00	2100	801	13.4	11.4	242	5	
2025-07-04T00:00	2120	799	13.3	11.1	242	5	
2025-07-04T00:00	2140	797	13.2	11.1	241	5	
2025-07-04T00:00	2160	795	13.0	11.0	242	5	
2025-07-04T00:00	2180	793	12.8	11.0	244	5	
2025-07-04T00:00	2200	791	12.7	10.8	245	6	
2025-07-04T00:00	2220	789	12.5	10.7	248	6	
2025-07-04T00:00	2240	787	12.4	10.6	250	6	
2025-07-04T00:00	2260	785	12.2	10.5	252	6	
2025-07-04T00:00	2280	784	12.1	10.3	252	6	
2025-07-04T00:00	2300	782	11.9	10.1	253	6	
2025-07-04T00:00	2320	780	11.8	10.1	252	7	
2025-07-04T00:00	2340	778	11.6	10.0	252	7	
2025-07-04T00:00	2360	776	11.4	9.9	251	7	
2025-07-04T00:00	2380	774	11.3	9.9	250	7	
2025-07-04T00:00	2400	773	11.1	9.8	250	7	
2025-07-04T00:00	2420	771	10.9	9.8	250	7	
2025-07-04T00:00	2440	769	10.8	9.6	249	7	
2025-07-04T00:00	2460	767	10.6	9.4	249	7	
2025-07-04T00:00	2480	765	10.5	9.2	249	7	
2025-07-04T00:00	2500	764	10.4	8.9	248	7	
2025-07-04T00:00	2520	762	10.3	8.7	248	7	
2025-07-04T00:00	2540	760	10.2	8.5	249	7	
2025-07-04T00:00	2560	758	10.1	8.3	249	8	
2025-07-04T00:00	2580	756	10.0	8.2	250	8	
2025-07-04T00:00	2600	754	9.8	8.0	250	8	
2025-07-04T00:00	2620	752	9.7	7.6	251	8	
2025-07-04T00:00	2640	751	9.7	7.1	251	8	
2025-07-04T00:00	2660	749	9.6	6.8	251	8	
2025-07-04T00:00	2680	747	9.5	6.8	251	8	
2025-07-04T00:00	2700	745	9.3	6.7	250	8	
2025-07-04T00:00	2720	743	9.1	6.6	249	8	
2025-07-04T00:00	2740	742	8.9	6.5	247	8	
2025-07-04T00:00	2760	740	8.8	6.4	246	8	
2025-07-04T00:00	2780	738	8.7	5.8	244	9	
2025-07-04T00:00	2800	736	8.6	5.4	243	9	
2025-07-04T00:00	2820	735	8.6	4.8	241	9	
2025-07-04T00:00	2840	733	8.5	4.5	240	9	
2025-07-04T00:00	2860	731	8.5	4.3	239	9	
2025-07-04T00:00	2880	729	8.3	4.1	238	9	
2025-07-04T00:00	2900	728	8.2	4.0	237	9	
2025-07-04T00:00	2920	726	8.1	3.9	236	9	
2025-07-04T00:00	2940	724	7.9	3.9	236	9	
2025-07-04T00:00	2960	722	7.7	3.9	236	9	
2025-07-04T00:00	2980	721	7.6	3.8	237	9	
2025-07-04T00:00	3000	719	7.4	3.8	237	9	
2025-07-04T00:00	3020	717	7.2	3.7	238	9	
2025-07-04T00:00	3040	715	7.0	3.7	238	9	
2025-07-04T00:00	3060	714	6.9	3.6	239	9	
2025-07-04T00:00	3080	712	6.8	3.6	239	9	
2025-07-04T00:00	3100	710	6.6	3.5	239	9	
2025-07-04T00:00	3120	708	6.4	3.4	240	9	
2025-07-04T00:00	3140	707	6.3	3.2	240	9	
2025-07-04T00:00	3160	705	6.2	2.9	241	10	
2025-07-04T00:00	3180	703	6.1	2.8	241	10	
2025-07-04T00:00	3200	702	6.0	2.6	242	10	
2025-07-04T00:00	3220	700	5.9	2.4	242	10	
2025-07-04T00:00	3240	698	5.8	2.4	242	10	
2025-07-04T00:00	3260	697	5.6	2.3	242	10	
2025-07-04T00:00	3280	695	5.5	2.2	242	10	
2025-07-04T00:00	3300	693	5.4	2.0	241	10	
2025-07-04T00:00	3320	691	5.2	1.7	241	10	
2025-07-04T00:00	3340	690	5.1	1.8	240	9	
2025-07-04T00:00	3360	688	4.9	1.6	239	9	
2025-07-04T00:00	3380	686	4.8	1.6	238	9	
2025-07-04T00:00	3400	685	4.6	1.8	237	9	
2025-07-04T00:00	3420	683	4.5	1.6	236	9	
2025-07-04T00:00	3440	681	4.3	1.5	235	9	
2025-07-04T00:00	3460	680	4.2	1.6	235	9	
2025-07-04T00:00	3480	678	4.0	1.7	235	9	
2025-07-04T00:00	3500	676	3.9	1.7	236	9	
2025-07-04T00:00	3520	675	3.7	1.7	237	9	
2025-07-04T00:00	3540	673	3.5	1.6	239	10	
2025-07-04T00:00	3560	671	3.4	1.3	240	10	
2025-07-04T00:00	3580	670	3.2	1.1	242	10	
2025-07-04T00:00	3600	668	3.1	1.0	243	10	
2025-07-04T00:00	3620	666	2.9	1.0	244	10	
2025-07-04T00:00	3640	665	2.8	0.9	245	10	
2025-07-04T00:00	3660	663	2.6	0.8	246	10	
2025-07-04T00:00	3680	661	2.4	0.7	246	10	
2025-07-04T00:00	3700	660	2.2	0.6	247	10	
2025-07-04T00:00	3720	658	2.0	0.6	247	10	
2025-07-04T00:00	3740	656	1.9	0.3	247	10	
2025-07-04T00:00	3760	655	1.9	0.1	247	10	
2025-07-04T00:00	3780	653	1.8	0.1	247	10	
2025-07-04T00:00	3800	652	1.6	0.2	246	11	
2025-07-04T00:00	3820	650	1.4	0.3	246	11	
2025-07-04T00:00	3840	648	1.2	0.1	246	11	
2025-07-04T00:00	3860	647	1.0	0.0	247	11	
2025-07-04T00:00	3880	645	0.8	-0.1	247	11	
2025-07-04T00:00	3900	644	0.6	0.0	247	12	
2025-07-04T00:00	3920	642	0.4	0.1	248	12	
2025-07-04T00:00	3940	641	0.3	0.0	248	12	
2025-07-04T00:00	3960	639	0.1	0.0	248	12	
2025-07-04T00:00	3980	637	0.0	-0.1	248	13	
2025-07-04T00:00	4000	636	-0.1	-0.2	247	13	
2025-07-04T00:00	4020	634	-0.2	-0.2	246	13	
2025-07-04T00:00	4040	632	-0.4	-0.4	246	13	
2025-07-04T00:00	4060	631	-0.5	-0.6	245	13	
2025-07-04T00:00	4080	629	-0.6	-0.7	245	13	
2025-07-04T00:00	4100	628	-0.8	-0.9	245	13	
2025-07-04T00:00	4120	626	-0.9	-1.0	245	13	
2025-07-04T00:00	4140	625	-1.2	-1.8	246	13	
2025-07-04T00:00	4160	623	-1.4	-2.5	246	12	
2025-07-04T00:00	4180	622	-1.5	-4.1	247	12	
2025-07-04T00:00	4200	620	-1.3	-4.7	248	12	
2025-07-04T00:00	4220	618	-1.3	-4.8	248	13	
2025-07-04T00:00	4240	617	-1.4	-4.9	249	13	
2025-07-04T00:00	4260	615	-1.6	-4.9	249	13	
2025-07-04T00:00	4280	614	-1.8	-4.9	249	13	
2025-07-04T00:00	4300	612	-2.0	-5.0	249	13	
2025-07-04T00:00	4320	611	-2.1	-5.1	248	13	
2025-07-04T00:00	4340	609	-2.3	-5.6	248	13	
2025-07-04T00:00	4360	608	-2.4	-5.9	247	13	
2025-07-04T00:00	4380	606	-2.6	-6.1	247	13	
2025-07-04T00:00	4400	605	-2.8	-6.2	246	13	
2025-07-04T00:00	4420	603	-2.9	-6.3	246	13	
2025-07-04T00:00	4440	602	-3.0	-6.5	245	13	
2025-07-04T00:00	4460	600	-3.3	-6.6	245	13	
2025-07-04T00:00	4480	599	-3.4	-6.6	246	13	
2025-07-04T00:00	4500	597	-3.6	-6.7	246	13	
2025-07-04T00:00	4520	596	-3.8	-7.0	247	13	
2025-07-04T00:00	4540	594	-4.0	-7.0	248	13	
2025-07-04T00:00	4560	592	-4.1	-7.4	248	13	
2025-07-04T00:00	4580	591	-4.3	-7.7	249	13	
2025-07-04T00:00	4600	590	-4.4	-8.5	249	12	
2025-07-04T00:00	4620	588	-4.5	-8.9	249	12	
2025-07-04T00:00	4640	587	-4.6	-9.0	249	12	
2025-07-04T00:00	4660	585	-4.8	-9.2	250	12	
2025-07-04T00:00	4680	584	-4.8	-8.8	251	11	
2025-07-04T00:00	4700	582	-5.0	-8.3	253	11	
2025-07-04T00:00	4720	581	-5.1	-7.8	254	10	
2025-07-04T00:00	4740	579	-5.3	-7.5	256	10	
2025-07-04T00:00	4760	578	-5.3	-6.7	258	10	
2025-07-04T00:00	4780	576	-5.5	-6.5	260	9	
2025-07-04T00:00	4800	575	-5.7	-6.5	261	9	
2025-07-04T00:00	4820	573	-5.9	-6.6	262	9	
2025-07-04T00:00	4840	572	-5.9	-6.3	263	9	
2025-07-04T00:00	4860	570	-5.9	-6.4	263	9	
2025-07-04T00:00	4880	569	-5.9	-7.1	263	9	
2025-07-04T00:00	4900	567	-5.9	-7.1	263	10	
2025-07-04T00:00	4920	566	-6.2	-7.0	262	10	
2025-07-04T00:00	4940	565	-6.4	-7.1	262	10	
2025-07-04T00:00	4960	563	-6.5	-7.3	262	10	
2025-07-04T00:00	4980	562	-6.6	-7.8	262	10	
2025-07-04T00:00	5000	560	-6.7	-8.2	262	10	
2025-07-04T00:00	5020	559	-6.7	-8.8	263	10	
2025-07-04T00:00	5040	557	-6.7	-10.6	264	11	
2025-07-04T00:00	5060	556	-6.8	-10.7	264	11	
2025-07-04T00:00	5080	554	-7.0	-10.5	264	11	
2025-07-04T00:00	5100	553	-7.2	-10.8	264	12	
2025-07-04T00:00	5120	552	-7.4	-10.3	263	12	
2025-07-04T00:00	5140	550	-7.6	-10.9	262	12	
2025-07-04T00:00	5160	549	-7.6	-13.7	262	12	
2025-07-04T00:00	5180	547	-7.6	-14.3	261	13	
2025-07-04T00:00	5200	546	-7.7	-13.3	261	13	
2025-07-04T00:00	5220	545	-7.9	-12.9	260	13	
2025-07-04T00:00	5240	543	-8.0	-11.5	260	13	
2025-07-04T00:00	5260	542	-8.2	-10.7	260	13	
2025-07-04T00:00	5280	541	-8.3	-11.3	261	13	
2025-07-04T00:00	5300	539	-8.5	-12.6	261	13	
2025-07-04T00:00	5320	538	-8.6	-14.3	261	13	
2025-07-04T00:00	5340	536	-8.8	-14.5	261	13	
2025-07-04T00:00	5360	535	-9.0	-13.9	262	13	
2025-07-04T00:00	5380	533	-9.2	-13.8	262	13	
2025-07-04T00:00	5400	532	-9.3	-13.8	263	13	
2025-07-04T00:00	5420	531	-9.5	-13.4	263	13	
2025-07-04T00:00	5440	529	-9.7	-12.8	263	13	
2025-07-04T00:00	5460	528	-9.8	-12.0	263	13	
2025-07-04T00:00	5480	527	-9.9	-11.7	263	13	
2025-07-04T00:00	5500	525	-10.1	-11.7	263	14	
2025-07-04T00:00	5520	524	-10.2	-11.7	263	14	
2025-07-04T00:00	5540	523	-10.3	-12.1	264	14	
2025-07-04T00:00	5560	521	-10.2	-12.8	265	14	
2025-07-04T00:00	5580	520	-10.2	-14.8	266	15	
2025-07-04T00:00	5600	519	-10.1	-14.9	268	15	
2025-07-04T00:00	5620	517	-10.1	-13.4	269	15	
2025-07-04T00:00	5640	516	-10.1	-13.8	269	16	
2025-07-04T00:00	5660	514	-10.3	-14.1	269	16	
2025-07-04T00:00	5680	513	-10.4	-14.7	268	16	
2025-07-04T00:00	5700	512	-10.4	-18.7	267	16	
2025-07-04T00:00	5720	511	-10.2	-28.6	266	16	
2025-07-04T00:00	5740	509	-10.3	-29.0	265	17	
2025-07-04T00:00	5760	508	-10.4	-32.8	264	17	
2025-07-04T00:00	5780	507	-10.6	-27.1	263	17	
2025-07-04T00:00	5800	505	-10.7	-16.9	262	17	
2025-07-04T00:00	5820	504	-10.8	-16.7	261	16	
2025-07-04T00:00	5840	503	-10.9	-17.0	260	16	
2025-07-04T00:00	5860	501	-10.9	-16.0	260	16	
2025-07-04T00:00	5880	500	-10.8	-16.6	260	16	
2025-07-04T00:00	5900	499	-10.6	-17.1	261	16	
2025-07-04T00:00	5920	497	-10.5	-17.3	262	17	
2025-07-04T00:00	5940	496	-10.4	-17.8	263	17	
2025-07-04T00:00	5960	495	-10.4	-18.3	264	17	
2025-07-04T00:00	5980	493	-10.4	-18.9	264	18	
2025-07-04T00:00	6000	492	-10.5	-19.4	264	18	
2025-07-04T00:00	6020	491	-10.5	-20.1	265	18	
2025-07-04T00:00	6040	490	-10.6	-20.3	264	17	
2025-07-04T00:00	6060	489	-10.7	-20.1	264	17	
2025-07-04T00:00	6080	487	-10.9	-20.1	264	17	
2025-07-04T00:00	6100	486	-11.1	-19.7	264	17	
2025-07-04T00:00	6120	484	-11.2	-19.1	263	17	
2025-07-04T00:00	6140	483	-11.3	-19.0	263	17	
2025-07-04T00:00	6160	482	-11.4	-18.7	263	18	
2025-07-04T00:00	6180	481	-11.6	-18.7	262	18	
2025-07-04T00:00	6200	480	-11.7	-18.8	262	18	
2025-07-04T00:00	6220	478	-11.9	-19.1	261	19	
2025-07-04T00:00	6240	477	-12.0	-19.4	261	19	
2025-07-04T00:00	6260	476	-12.2	-19.6	261	19	
2025-07-04T00:00	6280	475	-12.4	-20.0	260	19	
2025-07-04T00:00	6300	473	-12.6	-20.3	259	18	
2025-07-04T00:00	6320	472	-12.8	-21.0	259	18	
2025-07-04T00:00	6340	471	-12.8	-23.6	258	18	
2025-07-04T00:00	6360	470	-12.9	-25.7	258	18	
2025-07-04T00:00	6380	468	-13.1	-27.3	258	18	
2025-07-04T00:00	6400	467	-13.2	-29.5	258	18	
2025-07-04T00:00	6420	466	-13.4	-30.4	258	18	
2025-07-04T00:00	6440	465	-13.5	-29.2	259	19	
2025-07-04T00:00	6460	464	-13.7	-28.7	259	19	
2025-07-04T00:00	6480	462	-13.8	-29.3	259	19	
2025-07-04T00:00	6500	461	-13.9	-29.1	259	19	
2025-07-04T00:00	6520	460	-13.9	-26.8	259	19	
2025-07-04T00:00	6540	459	-13.9	-23.3	260	19	
2025-07-04T00:00	6560	458	-14.0	-23.9	260	19	
2025-07-04T00:00	6580	456	-14.2	-24.1	260	19	
2025-07-04T00:00	6600	455	-14.3	-24.1	261	18	
2025-07-04T00:00	6620	454	-14.4	-23.8	261	18	
2025-07-04T00:00	6640	453	-14.5	-23.0	262	18	
2025-07-04T00:00	6660	451	-14.6	-22.8	262	18	
2025-07-04T00:00	6680	450	-14.7	-23.5	263	18	
2025-07-04T00:00	6700	449	-14.8	-23.7	263	18	
2025-07-04T00:00	6720	448	-15.0	-23.8	263	18	
2025-07-04T00:00	6740	447	-15.1	-23.6	263	18	
2025-07-04T00:00	6760	446	-15.2	-23.4	263	18	
2025-07-04T00:00	6780	444	-15.4	-23.5	263	18	
2025-07-04T00:00	6800	443	-15.5	-23.5	263	17	
2025-07-04T00:00	6820	442	-15.7	-23.6	263	17	
2025-07-04T00:00	6840	441	-15.9	-23.6	263	17	
2025-07-04T00:00	6860	440	-16.1	-23.6	263	17	
2025-07-04T00:00	6880	438	-16.3	-23.6	263	17	
2025-07-04T00:00	6900	437	-16.5	-23.8	263	18	
2025-07-04T00:00	6920	436	-16.6	-23.8	264	18	
2025-07-04T00:00	6940	435	-16.8	-23.9	264	18	
2025-07-04T00:00	6960	434	-16.9	-24.0	265	18	
2025-07-04T00:00	6980	433	-17.1	-24.1	266	19	
2025-07-04T00:00	7000	432	-17.3	-24.1	266	19	
2025-07-04T00:00	7020	431	-17.5	-24.2	266	20	
2025-07-04T00:00	7040	429	-17.6	-24.3	266	20	
2025-07-04T00:00	7060	428	-17.8	-24.7	266	20	
2025-07-04T00:00	7080	427	-17.9	-24.7	266	21	
2025-07-04T00:00	7100	426	-18.1	-24.8	265	21	
2025-07-04T00:00	7120	425	-18.3	-24.7	265	21	
2025-07-04T00:00	7140	424	-18.5	-24.8	265	21	
2025-07-04T00:00	7160	422	-18.7	-24.9	265	21	
2025-07-04T00:00	7180	421	-18.8	-25.1	264	21	
2025-07-04T00:00	7200	420	-19.0	-25.2	264	20	
2025-07-04T00:00	7220	419	-19.2	-25.2	264	20	
2025-07-04T00:00	7240	418	-19.4	-25.2	264	19	
2025-07-04T00:00	7260	417	-19.6	-25.3	264	19	
2025-07-04T00:00	7280	416	-19.7	-25.4	264	19	
2025-07-04T00:00	7300	415	-19.9	-25.6	263	19	
2025-07-04T00:00	7320	413	-20.0	-25.9	262	19	
2025-07-04T00:00	7340	412	-20.1	-26.1	261	19	
2025-07-04T00:00	7360	411	-20.3	-26.2	260	19	
2025-07-04T00:00	7380	410	-20.4	-26.5	260	19	
2025-07-04T00:00	7400	409	-20.5	-26.8	259	20	
2025-07-04T00:00	7420	408	-20.6	-26.8	258	20	
2025-07-04T00:00	7440	407	-20.7	-27.1	258	20	
2025-07-04T00:00	7460	406	-20.7	-28.2	257	21	
2025-07-04T00:00	7480	405	-20.7	-28.3	257	21	
2025-07-04T00:00	7500	403	-20.7	-29.3	257	21	
2025-07-04T00:00	7520	402	-20.7	-29.5	256	21	
2025-07-04T00:00	7540	401	-20.9	-29.5	256	21	
2025-07-04T00:00	7560	400	-20.9	-30.5	257	22	
2025-07-04T00:00	7580	399	-21.0	-31.2	257	22	
2025-07-04T00:00	7600	398	-21.1	-31.1	257	22	
2025-07-04T00:00	7620	397	-21.2	-31.0	257	22	
2025-07-04T00:00	7640	396	-21.4	-31.2	257	22	
2025-07-04T00:00	7660	395	-21.5	-31.2	257	22	
2025-07-04T00:00	7680	394	-21.7	-31.3	257	22	
2025-07-04T00:00	7700	393	-21.9	-31.3	257	22	
2025-07-04T00:00	7720	392	-22.0	-31.7	256	22	
2025-07-04T00:00	7740	390	-22.1	-32.8	257	22	
2025-07-04T00:00	7760	390	-22.2	-34.3	257	22	
2025-07-04T00:00	7780	388	-22.3	-34.4	257	22	
2025-07-04T00:00	7800	388	-22.4	-34.7	257	22	
2025-07-04T00:00	7820	386	-22.6	-35.1	257	22	
2025-07-04T00:00	7840	385	-22.7	-35.5	257	22	
2025-07-04T00:00	7860	384	-22.9	-35.6	257	22	
2025-07-04T00:00	7880	383	-23.0	-35.9	257	22	
2025-07-04T00:00	7900	382	-23.2	-36.0	257	22	
2025-07-04T00:00	7920	381	-23.3	-36.1	257	22	
2025-07-04T00:00	7940	380	-23.5	-36.4	258	22	
2025-07-04T00:00	7960	379	-23.6	-36.6	258	22	
2025-07-04T00:00	7980	378	-23.8	-36.7	258	22	
2025-07-04T00:00	8000	377	-24.0	-36.8	258	22	
2025-07-04T00:00	8020	376	-24.1	-37.1	258	22	
2025-07-04T00:00	8040	375	-24.3	-37.2	259	22	
2025-07-04T00:00	8060	374	-24.5	-37.1	258	22	
2025-07-04T00:00	8080	373	-24.6	-36.9	258	22	
2025-07-04T00:00	8100	372	-24.8	-37.3	258	22	
2025-07-04T00:00	8120	371	-25.0	-37.6	258	22	
2025-07-04T00:00	8140	370	-25.2	-37.6	257	22	
2025-07-04T00:00	8160	369	-25.4	-37.6	257	22	
2025-07-04T00:00	8180	368	-25.5	-37.6	257	22	
2025-07-04T00:00	8200	367	-25.7	-37.7	257	22	
2025-07-04T00:00	8220	366	-25.9	-37.8	256	22	
2025-07-04T00:00	8240	365	-26.1	-38.0	256	22	
2025-07-04T00:00	8260	364	-26.3	-38.5	256	22	
2025-07-04T00:00	8280	363	-26.4	-39.1	256	22	
2025-07-04T00:00	8300	362	-26.5	-39.2	255	22	
2025-07-04T00:00	8320	361	-26.7	-39.2	255	22	
2025-07-04T00:00	8340	360	-26.9	-39.2	255	22	
2025-07-04T00:00	8360	359	-27.1	-39.1	255	22	
2025-07-04T00:00	8380	358	-27.3	-39.0	255	22	
2025-07-04T00:00	8400	357	-27.5	-38.9	255	22	
2025-07-04T00:00	8420	356	-27.7	-38.7	255	22	
2025-07-04T00:00	8440	355	-27.8	-38.6	255	22	
2025-07-04T00:00	8460	354	-28.0	-38.7	255	22	
2025-07-04T00:00	8480	353	-28.2	-38.7	255	22	
2025-07-04T00:00	8500	352	-28.4	-38.6	255	22	
2025-07-04T00:00	8520	351	-28.6	-38.6	254	22	
2025-07-04T00:00	8540	350	-28.8	-38.8	254	22	
2025-07-04T00:00	8560	349	-29.0	-38.9	254	22	
2025-07-04T00:00	8580	348	-29.1	-39.1	254	22	
2025-07-04T00:00	8600	347	-29.3	-39.2	254	22	
2025-07-04T00:00	8620	346	-29.5	-39.4	255	22	
2025-07-04T00:00	8640	345	-29.7	-39.5	255	22	
2025-07-04T00:00	8660	344	-29.9	-39.7	255	22	
2025-07-04T00:00	8680	343	-30.1	-39.4	255	22	
2025-07-04T00:00	8700	342	-30.2	-38.9	256	22	
2025-07-04T00:00	8720	341	-30.4	-38.8	256	22	
2025-07-04T00:00	8740	340	-30.6	-39.0	257	22	
2025-07-04T00:00	8760	339	-30.8	-38.8	258	22	
2025-07-04T00:00	8780	338	-30.9	-38.7	259	22	
2025-07-04T00:00	8800	337	-31.1	-38.9	259	22	
2025-07-04T00:00	8820	336	-31.3	-39.2	260	23	
2025-07-04T00:00	8840	335	-31.4	-39.8	260	23	
2025-07-04T00:00	8860	334	-31.5	-40.2	261	23	
2025-07-04T00:00	8880	334	-31.6	-40.2	261	23	
2025-07-04T00:00	8900	333	-31.8	-40.0	261	23	
2025-07-04T00:00	8920	332	-32.0	-39.8	262	23	
2025-07-04T00:00	8940	331	-32.1	-39.6	262	23	
2025-07-04T00:00	8960	330	-32.3	-39.6	263	23	
2025-07-04T00:00	8980	329	-32.4	-39.9	263	23	
2025-07-04T00:00	9000	328	-32.5	-41.3	264	24	
2025-07-04T00:00	9020	327	-32.6	-42.0	264	24	
2025-07-04T00:00	9040	326	-32.7	-41.9	265	24	
2025-07-04T00:00	9060	325	-32.8	-42.2	265	24	
2025-07-04T00:00	9080	324	-32.9	-42.5	265	25	
2025-07-04T00:00	9100	323	-33.0	-42.8	265	25	
2025-07-04T00:00	9120	322	-33.1	-43.4	265	25	
2025-07-04T00:00	9140	321	-33.1	-44.5	264	26	
2025-07-04T00:00	9160	321	-33.1	-44.8	264	26	
2025-07-04T00:00	9180	320	-33.2	-45.1	263	26	
2025-07-04T00:00	9200	319	-33.4	-46.0	263	26	
2025-07-04T00:00	9220	318	-33.5	-46.6	263	27	
2025-07-04T00:00	9240	317	-33.6	-47.1	263	27	
2025-07-04T00:00	9260	316	-33.7	-47.6	263	27	
2025-07-04T00:00	9280	315	-33.9	-47.5	263	27	
2025-07-04T00:00	9300	314	-34.1	-46.5	262	27	
2025-07-04T00:00	9320	313	-34.3	-46.4	262	27	
2025-07-04T00:00	9340	312	-34.4	-46.8	262	27	
2025-07-04T00:00	9360	311	-34.6	-47.1	261	27	
2025-07-04T00:00	9380	311	-34.7	-47.4	261	27	
2025-07-04T00:00	9400	310	-34.8	-47.9	260	27	
2025-07-04T00:00	9420	309	-35.0	-47.9	260	27	
2025-07-04T00:00	9440	308	-35.2	-47.6	259	27	
2025-07-04T00:00	9460	307	-35.4	-47.8	258	27	
2025-07-04T00:00	9480	306	-35.5	-47.9	257	27	
2025-07-04T00:00	9500	305	-35.7	-48.1	257	27	
2025-07-04T00:00	9520	304	-35.9	-48.1	256	27	
2025-07-04T00:00	9540	304	-36.0	-48.5	256	27	
2025-07-04T00:00	9560	303	-36.2	-48.6	256	27	
2025-07-04T00:00	9580	302	-36.4	-48.6	256	26	
2025-07-04T00:00	9600	301	-36.5	-48.7	256	26	
2025-07-04T00:00	9620	300	-36.7	-48.5	256	26	
2025-07-04T00:00	9640	299	-36.9	-48.7	257	26	
2025-07-04T00:00	9660	298	-37.0	-49.0	257	26	
2025-07-04T00:00	9680	297	-37.2	-49.0	258	25	
2025-07-04T00:00	9700	297	-37.4	-49.1	258	25	
2025-07-04T00:00	9720	296	-37.6	-49.3	259	26	
2025-07-04T00:00	9740	295	-37.8	-49.5	259	26	
2025-07-04T00:00	9760	294	-37.9	-49.5	260	26	
2025-07-04T00:00	9780	293	-38.1	-49.6	260	26	
2025-07-04T00:00	9800	292	-38.3	-50.0	260	26	
2025-07-04T00:00	9820	291	-38.4	-50.6	261	27	
2025-07-04T00:00	9840	291	-38.5	-51.1	261	27	
2025-07-04T00:00	9860	290	-38.6	-51.7	261	27	
2025-07-04T00:00	9880	289	-38.7	-52.5	262	27	
2025-07-04T00:00	9900	288	-38.8	-53.2	262	27	
2025-07-04T00:00	9920	287	-39.0	-53.3	262	27	
2025-07-04T00:00	9940	286	-39.2	-53.2	262	27	
2025-07-04T00:00	9960	286	-39.3	-53.3	262	27	
2025-07-04T00:00	9980	285	-39.5	-53.3	262	27	
2025-07-04T00:00	10000	284	-39.7	-53.5	263	27	
2025-07-04T00:00	10018	283	-39.8	-54.1	263	27	
2025-07-04T00:00	10050	282	-40.0	-54.7	263	27	
2025-07-04T00:00	10100	280	-40.2	-56.2	263	28	
2025-07-04T00:00	10150	278	-40.7	-55.9	262	28	
2025-07-04T00:00	10200	276	-41.1	-55.5	261	28	
2025-07-04T00:00	10250	274	-41.6	-54.5	261	28	
2025-07-04T00:00	10300	272	-42.0	-55.2	261	28	
2025-07-04T00:00	10350	270	-42.5	-55.6	262	28	
2025-07-04T00:00	10400	268	-42.8	-55.5	262	29	
2025-07-04T00:00	10450	266	-43.1	-58.0	261	29	
2025-07-04T00:00	10500	264	-43.5	-58.3	261	29	
2025-07-04T00:00	10550	262	-44.0	-58.2	260	29	
2025-07-04T00:00	10600	260	-44.4	-58.2	260	29	
2025-07-04T00:00	10650	258	-44.9	-58.2	260	29	
2025-07-04T00:00	10700	256	-45.4	-58.4	260	29	
2025-07-04T00:00	10750	254	-45.8	-58.2	260	29	
2025-07-04T00:00	10800	252	-46.1	-59.4	261	30	
2025-07-04T00:00	10850	250	-46.2	-59.6	261	30	
2025-07-04T00:00	10900	248	-46.4	-60.1	262	30	
2025-07-04T00:00	10950	247	-46.7	-60.1	262	30	
2025-07-04T00:00	11000	245	-47.1	-61.4	262	29	
2025-07-04T00:00	11050	243	-47.4	-63.4	261	29	
2025-07-04T00:00	11100	241	-47.5	-64.1	261	29	
2025-07-04T00:00	11150	239	-47.5	-64.6	261	29	
2025-07-04T00:00	11200	237	-47.8	-64.4	261	29	
2025-07-04T00:00	11250	236	-48.3	-64.2	260	29	
2025-07-04T00:00	11300	234	-48.8	-64.0	260	29	
2025-07-04T00:00	11350	232	-49.2	-63.1	259	29	
2025-07-04T00:00	11400	230	-49.3	-62.8	256	29	
2025-07-04T00:00	11450	229	-49.2	-64.2	255	30	
2025-07-04T00:00	11500	227	-49.2	-65.2	256	31	
2025-07-04T00:00	11550	225	-49.5	-65.2	257	31	
2025-07-04T00:00	11600	223	-49.7	-65.8	258	31	
2025-07-04T00:00	11650	222	-50.0	-66.2	258	30	
2025-07-04T00:00	11700	220	-50.1	-65.9	260	30	
2025-07-04T00:00	11750	218	-50.4	-66.2	262	30	
2025-07-04T00:00	11800	217	-50.6	-66.1	262	30	
2025-07-04T00:00	11850	215	-50.8	-66.2	260	29	
2025-07-04T00:00	11900	213	-50.9	-66.9	259	29	
2025-07-04T00:00	11950	212	-51.0	-67.4	258	29	
2025-07-04T00:00	12000	210	-51.2	-68.0	260	29	
2025-07-04T00:00	12050	208	-51.1	-68.8	262	30	
2025-07-04T00:00	12100	207	-51.0	-69.7	261	30	
2025-07-04T00:00	12150	205	-51.0	-70.3	260	30	
2025-07-04T00:00	12200	204	-50.9	-70.5	260	29	
2025-07-04T00:00	12250	202	-51.2	-70.7	258	28	
2025-07-04T00:00	12300	201	-51.3	-71.0	255	28	
2025-07-04T00:00	12350	199	-51.3	-70.9	252	28	
2025-07-04T00:00	12400	197	-51.6	-71.1	250	28	
2025-07-04T00:00	12450	196	-51.8	-71.2	248	28	
2025-07-04T00:00	12500	194	-52.2	-71.3	248	28	
2025-07-04T00:00	12550	193	-52.6	-71.4	249	29	
2025-07-04T00:00	12600	192	-52.4	-72.1	253	29	
2025-07-04T00:00	12650	190	-52.0	-72.8	256	29	
2025-07-04T00:00	12700	188	-52.2	-73.5	259	29	
2025-07-04T00:00	12750	187	-51.7	-75.0	261	29	
2025-07-04T00:00	12800	186	-51.5	-76.1	262	28	
2025-07-04T00:00	12850	184	-51.4	-75.9	262	28	
2025-07-04T00:00	12900	183	-51.7	-75.5	260	28	
2025-07-04T00:00	12950	181	-51.2	-76.5	258	29	
2025-07-04T00:00	13000	180	-50.8	-78.2	259	29	
2025-07-04T00:00	13050	179	-50.9	-78.2	261	28	
2025-07-04T00:00	13100	177	-51.2	-78.1	261	27	
2025-07-04T00:00	13150	176	-51.0	-78.1	259	26	
2025-07-04T00:00	13200	175	-50.9	-78.3	256	25	
2025-07-04T00:00	13250	173	-51.1	-78.5	253	25	
2025-07-04T00:00	13300	172	-51.4	-78.6	250	25	
2025-07-04T00:00	13350	171	-51.8	-78.7	248	25	
2025-07-04T00:00	13400	169	-52.2	-78.9	246	25	
2025-07-04T00:00	13450	168	-52.5	-79.0	244	25	
2025-07-04T00:00	13500	167	-52.9	-79.2	242	26	
2025-07-04T00:00	13550	165	-53.4	-79.3	241	26	
2025-07-04T00:00	13600	164	-53.8	-79.4	240	26	
2025-07-04T00:00	13650	163	-54.3	-79.6	240	27	
2025-07-04T00:00	13700	162	-54.7	-79.7	240	27	
2025-07-04T00:00	13750	160	-55.1	-79.7	240	27	
2025-07-04T00:00	13800	159	-55.5	-79.8	241	28	
2025-07-04T00:00	13850	158	-55.8	-79.8	242	28	
2025-07-04T00:00	13900	157	-56.2	-79.8	243	28	
2025-07-04T00:00	13950	155	-56.6	-79.9	245	29	
2025-07-04T00:00	14000	154	-57.0	-80.0	246	29	
2025-07-04T00:00	14050	153	-56.9	-80.0	247	28	
2025-07-04T00:00	14100	152	-56.8	-80.1	248	27	
2025-07-04T00:00	14150	150	-56.9	-80.2	251	27	
2025-07-04T00:00	14200	149	-57.0	-80.3	252	26	
2025-07-04T00:00	14250	148	-57.1	-80.4	250	25	
2025-07-04T00:00	14300	147	-57.1	-80.7	246	25	
2025-07-04T00:00	14350	146	-57.1	-80.9	243	25	
2025-07-04T00:00	14400	145	-57.3	-81.3	243	26	
2025-07-04T00:00	14450	144	-57.2	-82.1	244	26	
2025-07-04T00:00	14500	142	-56.8	-82.5	244	26	
2025-07-04T00:00	14550	141	-56.8	-82.5	245	26	
2025-07-04T00:00	14600	140	-56.7	-82.5	247	26	
2025-07-04T00:00	14650	139	-56.0	-82.3	249	26	
2025-07-04T00:00	14700	138	-56.1	-82.4	251	25	
2025-07-04T00:00	14750	137	-56.1	-82.4	253	24	
2025-07-04T00:00	14800	136	-56.2	-82.4	252	24	
2025-07-04T00:00	14850	135	-56.6	-82.4	252	25	
2025-07-04T00:00	14900	134	-57.0	-82.6	251	25	
2025-07-04T00:00	14950	133	-57.1	-82.7	251	25	
2025-07-04T00:00	15000	132	-56.9	-82.6	250	25	
2025-07-04T00:00	15050	131	-57.2	-82.8	250	25	
2025-07-04T00:00	15100	130	-57.7	-82.8	249	25	
2025-07-04T00:00	15150	129	-58.1	-82.9	248	25	
2025-07-04T00:00	15200	128	-58.6	-83.0	246	25	
2025-07-04T00:00	15250	127	-59.0	-83.1	245	26	
2025-07-04T00:00	15300	126	-59.3	-83.3	247	26	
2025-07-04T00:00	15350	125	-59.4	-83.7	249	26	
2025-07-04T00:00	15400	124	-59.1	-83.7	251	27	
2025-07-04T00:00	15450	122	-59.1	-83.9	252	27	
2025-07-04T00:00	15500	122	-59.3	-84.0	253	27	
2025-07-04T00:00	15550	121	-59.4	-84.0	256	25	
2025-07-04T00:00	15600	120	-59.4	-84.1	260	23	
2025-07-04T00:00	15650	119	-59.0	-84.3	263	21	
2025-07-04T00:00	15700	118	-58.6	-84.2	266	19	
2025-07-04T00:00	15750	117	-58.5	-84.2	266	18	
2025-07-04T00:00	15800	116	-58.7	-84.1	264	18	
2025-07-04T00:00	15850	115	-59.1	-84.2	263	17	
2025-07-04T00:00	15900	114	-59.5	-84.2	261	16	
2025-07-04T00:00	15950	113	-59.8	-84.4	258	15	
2025-07-04T00:00	16000	112	-60.0	-84.3	255	15	
2025-07-04T00:00	16050	111	-60.4	-84.4	253	15	
2025-07-04T00:00	16100	110	-60.8	-84.6	254	16	
2025-07-04T00:00	16150	110	-60.9	-84.7	255	17	
2025-07-04T00:00	16200	109	-61.1	-84.8	256	18	
2025-07-04T00:00	16250	108	-61.1	-84.8	257	18	
2025-07-04T00:00	16300	107	-61.3	-84.9	259	18	
2025-07-04T00:00	16350	106	-61.6	-84.9	260	19	
2025-07-04T00:00	16400	105	-61.9	-84.8	262	19	
2025-07-04T00:00	16450	104	-62.2	-85.0	266	20	
2025-07-04T00:00	16500	104	-62.1	-85.0	271	21	
2025-07-04T00:00	16550	103	-61.7	-85.2	277	19	
2025-07-04T00:00	16600	102	-60.8	-85.5	279	16	
2025-07-04T00:00	16650	101	-59.5	-85.5	274	12	
2025-07-04T00:00	16700	100	-58.7	-85.2	264	10	
2025-07-04T00:00	16750	99	-59.1	-85.3	254	10	
2025-07-04T00:00	16800	99	-59.2	-85.2	247	10	
2025-07-04T00:00	16850	98	-59.6	-85.2	243	10	
2025-07-04T00:00	16900	97	-60.0	-85.2	239	9	
2025-07-04T00:00	16950	96	-60.3	-85.2	232	9	
2025-07-04T00:00	17000	96	-60.7	-85.3	227	10	
2025-07-04T00:00	17050	95	-61.1	-85.5	222	10	
2025-07-04T00:00	17100	94	-61.5	-85.6	217	11	
2025-07-04T00:00	17150	93	-61.8	-85.7	218	12	
2025-07-04T00:00	17200	93	-61.9	-85.9	223	13	
2025-07-04T00:00	17250	92	-61.6	-86.0	226	13	
2025-07-04T00:00	17300	91	-61.4	-86.1	227	14	
2025-07-04T00:00	17350	90	-61.0	-86.0	228	14	
2025-07-04T00:00	17400	90	-61.2	-86.0	230	14	
2025-07-04T00:00	17450	89	-61.4	-86.0	232	14	
2025-07-04T00:00	17500	88	-61.5	-86.2	230	13	
2025-07-04T00:00	17550	87	-61.2	-86.1	226	14	
2025-07-04T00:00	17600	87	-61.3	-86.1	225	14	
2025-07-04T00:00	17650	86	-61.3	-86.1	228	14	
2025-07-04T00:00	17700	85	-61.2	-86.3	229	13	
2025-07-04T00:00	17750	85	-60.8	-86.2	225	13	
2025-07-04T00:00	17800	84	-60.6	-86.2	223	13	
2025-07-04T00:00	17850	83	-60.8	-86.1	221	14	
2025-07-04T00:00	17900	83	-61.1	-86.1	219	14	
2025-07-04T00:00	17950	82	-61.2	-86.3	216	13	
2025-07-04T00:00	18000	81	-60.8	-86.3	216	13	
2025-07-04T00:00	18050	81	-60.9	-86.3	219	12	
2025-07-04T00:00	18100	80	-61.0	-86.3	223	12	
2025-07-04T00:00	18150	79	-61.1	-86.3	227	12	
2025-07-04T00:00	18200	79	-61.1	-86.4	233	12	
2025-07-04T00:00	18250	78	-61.1	-86.4	241	11	
2025-07-04T00:00	18300	77	-61.1	-86.6	250	10	
2025-07-04T00:00	18350	77	-60.6	-86.6	255	9	
2025-07-04T00:00	18400	76	-59.9	-86.3	250	9	
2025-07-04T00:00	18450	76	-60.2	-86.3	241	9	
2025-07-04T00:00	18500	75	-60.4	-86.2	231	9	
2025-07-04T00:00	18550	74	-60.6	-86.2	227	9	
2025-07-04T00:00	18600	74	-61.0	-86.6	233	9	
2025-07-04T00:00	18650	73	-60.0	-86.5	248	9	
2025-07-04T00:00	18700	73	-59.2	-86.4	262	9	
2025-07-04T00:00	18750	72	-58.9	-86.1	270	9	
2025-07-04T00:00	18800	72	-59.0	-86.1	278	9	
2025-07-04T00:00	18850	71	-59.2	-86.1	285	9	
2025-07-04T00:00	18900	70	-58.8	-85.9	289	8	
2025-07-04T00:00	18950	70	-58.9	-86.0	291	7	
2025-07-04T00:00	19000	69	-58.9	-86.0	295	5	
2025-07-04T00:00	19050	69	-58.7	-85.9	298	4	
2025-07-04T00:00	19100	68	-58.8	-85.9	301	3	
2025-07-04T00:00	19150	68	-59.2	-85.9	307	2	
2025-07-04T00:00	19200	67	-59.5	-86.0	314	1	
2025-07-04T00:00	19250	67	-59.6	-86.2	302	1	
2025-07-04T00:00	19300	66	-59.4	-86.1	273	2	
2025-07-04T00:00	19350	66	-59.4	-86.1	256	2	
2025-07-04T00:00	19400	65	-59.5	-86.1	253	3	
2025-07-04T00:00	19450	64	-59.6	-86.2	253	4	
2025-07-04T00:00	19500	64	-59.6	-86.2	246	4	
2025-07-04T00:00	19550	63	-59.7	-86.4	227	3	
2025-07-04T00:00	19600	63	-59.6	-86.4	191	3	
2025-07-04T00:00	19650	62	-59.3	-86.4	177	3	
2025-07-04T00:00	19700	62	-59.2	-86.5	195	3	
2025-07-04T00:00	19750	61	-58.4	-86.2	214	5	
2025-07-04T00:00	19800	61	-58.6	-86.2	224	7	
2025-07-04T00:00	19850	60	-58.6	-86.1	228	8	
2025-07-04T00:00	19900	60	-58.7	-86.2	229	9	
2025-07-04T00:00	19950	60	-58.6	-86.1	232	8	
2025-07-04T00:00	20000	59	-58.5	-86.1	237	6	
2025-07-04T00:00	20050	59	-58.6		249	4	
2025-07-04T00:00	20100	58	-58.4		269	3	
2025-07-04T00:00	20150	58	-58.0		280	4	
2025-07-04T00:00	20200	57	-57.9		278	5	
2025-07-04T00:00	20250	57	-57.9		275	5	
2025-07-04T00:00	20300	56	-58.0		277	5	
2025-07-04T00:00	20350	56	-58.1		287	3	
2025-07-04T00:00	20400	55	-57.5		338	1	
2025-07-04T00:00	20450	55	-57.4		52	1	
2025-07-04T00:00	20500	55	-57.7		75	1	
2025-07-04T00:00	20550	54	-57.9		94	0	
2025-07-04T00:00	20600	54	-56.6		273	1	
2025-07-04T00:00	20650	53	-56.4		279	2	
2025-07-04T00:00	20700	53	-56.6		283	2	
2025-07-04T00:00	20750	52	-56.6		260	1	
2025-07-04T00:00	20800	52	-56.4		131	1	
2025-07-04T00:00	20850	52	-56.4		120	3	
2025-07-04T00:00	20900	51	-56.5		109	4	
2025-07-04T00:00	20950	51	-56.3		102	5	
2025-07-04T00:00	21000	50	-56.4		99	6	
2025-07-04T00:00	21050	50	-56.3		97	7	
2025-07-04T00:00	21100	50	-56.2		97	6	
2025-07-04T00:00	21150	49	-56.0		101	6	
2025-07-04T00:00	21200	49	-55.5		110	5	
2025-07-04T00:00	21250	48	-55.5		124	4	
2025-07-04T00:00	21300	48	-55.7		135	5	
2025-07-04T00:00	21350	48	-56.0		141	6	
2025-07-04T00:00	21400	47	-56.3		146	6	
2025-07-04T00:00	21450	47	-56.6		152	6	
2025-07-04T00:00	21500	47	-56.5		156	5	
2025-07-04T00:00	21550	46	-56.5		157	5	
2025-07-04T00:00	21600	46	-56.5		154	5	
2025-07-04T00:00	21650	45	-56.6		150	6	
2025-07-04T00:00	21700	45	-56.4		140	6	
2025-07-04T00:00	21750	45	-56.0		128	6	
2025-07-04T00:00	21800	44	-56.0		118	7	
2025-07-04T00:00	21850	44	-56.0		114	8	
2025-07-04T00:00	21900	44	-56.1		114	9	
2025-07-04T00:00	21950	43	-55.1		121	9	
2025-07-04T00:00	22000	43	-54.6		132	9	
2025-07-04T00:00	22050	43	-54.7		144	9	
2025-07-04T00:00	22100	42	-54.8		151	9	
2025-07-04T00:00	22150	42	-54.8		157	9	
2025-07-04T00:00	22200	42	-54.7		163	8	
2025-07-04T00:00	22250	41	-54.9		168	7	
2025-07-04T00:00	22300	41	-55.1		170	6	
2025-07-04T00:00	22350	41	-54.9		167	6	
2025-07-04T00:00	22400	40	-54.7		164	6	
2025-07-04T00:00	22450	40	-54.6		166	5	
2025-07-04T00:00	22500	40	-54.2		170	4	
2025-07-04T00:00	22550	40	-54.0		160	2	
2025-07-04T00:00	22600	39	-53.5		81	2	
2025-07-04T00:00	22650	39	-53.2		69	4	
2025-07-04T00:00	22700	39	-52.6		73	5	
2025-07-04T00:00	22750	38	-52.2		77	6	
2025-07-04T00:00	22800	38	-51.8		80	6	
2025-07-04T00:00	22850	38	-52.0		82	6	
2025-07-04T00:00	22900	37	-52.2		85	6	
2025-07-04T00:00	22950	37	-52.2		90	7	
2025-07-04T00:00	23000	37	-52.1		94	9	
2025-07-04T00:00	23050	37	-52.2		97	10	
2025-07-04T00:00	23100	36	-52.2		99	10	
2025-07-04T00:00	23150	36	-52.2		102	10	
2025-07-04T00:00	23200	36	-52.4		105	9	
2025-07-04T00:00	23250	35	-52.6		106	8	
2025-07-04T00:00	23300	35	-52.4		102	7	
2025-07-04T00:00	23350	35	-52.1		96	7	
2025-07-04T00:00	23400	35	-52.1		95	8	
2025-07-04T00:00	23450	34	-52.1		98	9	
2025-07-04T00:00	23500	34	-52.1		104	10	
2025-07-04T00:00	23550	34	-51.9		110	11	
2025-07-04T00:00	23600	34	-52.0		115	11	
2025-07-04T00:00	23650	33	-52.1		120	11	
2025-07-04T00:00	23700	33	-52.1		123	10	
2025-07-04T00:00	23750	33	-52.5		125	9	
2025-07-04T00:00	23800	33	-52.8		125	8	
2025-07-04T00:00	23850	32	-52.9		122	6	
2025-07-04T00:00	23900	32	-52.9		116	5	
2025-07-04T00:00	23950	32	-52.8		105	5	
2025-07-04T00:00	24000	32	-52.8		93	6	
2025-07-04T00:00	24050	31	-52.7		85	7	
2025-07-04T00:00	24100	31	-52.5		82	8	
2025-07-04T00:00	24150	31	-52.6		84	10	
2025-07-04T00:00	24200	31	-52.8		88	10	
2025-07-04T00:00	24250	30	-52.9		93	10	
2025-07-04T00:00	24300	30	-52.9		98	10	
2025-07-04T00:00	24350	30	-52.8		103	8	
2025-07-04T00:00	24400	30	-53.0		108	7	
2025-07-04T00:00	24450	29	-53.2		112	6	
2025-07-04T00:00	24500	29	-53.1		111	6	
2025-07-04T00:00	24550	29	-52.8		106	6	
2025-07-04T00:00	24600	29	-52.4		102	7	
2025-07-04T00:00	24650	29	-52.3		103	7	
2025-07-04T00:00	24700	28	-51.9		99	7	
2025-07-04T00:00	24750	28	-51.2		90	8	
2025-07-04T00:00	24800	28	-50.7		86	8	
2025-07-04T00:00	24850	28	-50.3		91	9	
2025-07-04T00:00	24900	27	-49.8		99	9	
2025-07-04T00:00	24950	27	-49.7		107	8	
2025-07-04T00:00	25000	27	-50.0		116	8	
2025-07-04T00:00	25050	27	-50.3		125	7	
2025-07-04T00:00	25100	27	-50.6		127	7	
2025-07-04T00:00	25150	26	-50.5		121	7	
2025-07-04T00:00	25200	26	-50.5		112	7	
2025-07-04T00:00	25250	26	-50.3		101	7	
2025-07-04T00:00	25300	26	-50.1		92	8	
2025-07-04T00:00	25350	26	-50.1		87	8	
2025-07-04T00:00	25400	25	-50.2		86	9	
2025-07-04T00:00	25450	25	-50.1		90	9	
2025-07-04T00:00	25500	25	-50.0		93	9	
2025-07-04T00:00	25550	25	-50.0		93	9	
2025-07-04T00:00	25600	25	-50.0		90	10	
2025-07-04T00:00	25650	24	-49.9		85	11	
2025-07-04T00:00	25700	24	-49.7		83	12	
2025-07-04T00:00	25750	24	-49.8		82	13	
2025-07-04T00:00	25800	24	-49.8		83	13	
2025-07-04T00:00	25850	24	-49.8		87	12	
2025-07-04T00:00	25900	24	-49.8		94	12	
2025-07-04T00:00	25950	23	-49.6		99	11	
2025-07-04T00:00	26000	23	-49.0		98	12	
2025-07-04T00:00	26050	23	-48.7		96	12	
2025-07-04T00:00	26100	23	-48.3		96	12	
2025-07-04T00:00	26150	23	-48.3		97	11	
2025-07-04T00:00	26200	23	-48.2		96	10	
2025-07-04T00:00	26250	22	-48.2		91	9	
2025-07-04T00:00	26300	22	-47.8		88	9	
2025-07-04T00:00	26350	22	-47.5		90	9	
2025-07-04T00:00	26400	22	-47.1		93	9	
2025-07-04T00:00	26450	22	-47.0		93	10	
2025-07-04T00:00	26500	22	-47.1		91	11	
2025-07-04T00:00	26550	21	-47.2		90	11	
2025-07-04T00:00	26600	21	-47.0		92	12	
2025-07-04T00:00	26650	21	-46.7		96	11	
2025-07-04T00:00	26700	21	-46.8		99	10	
2025-07-04T00:00	26750	21	-47.0		100	10	
2025-07-04T00:00	26800	21	-46.9		97	10	
2025-07-04T00:00	26850	20	-46.7		91	9	
2025-07-04T00:00	26900	20	-46.4		83	9	
2025-07-04T00:00	26950	20	-46.2		76	9	
2025-07-04T00:00	27000	20	-46.0		68	9	
2025-07-04T00:00	27050	20	-45.6		59	8	
2025-07-04T00:00	27100	20	-45.5		53	8	
2025-07-04T00:00	27150	20	-45.5		54	9	
2025-07-04T00:00	27200	19	-45.4		60	9	
2025-07-04T00:00	27250	19	-45.6		69	10	
2025-07-04T00:00	27300	19	-45.8		77	11	
2025-07-04T00:00	27350	19	-46.0		83	13	
2025-07-04T00:00	27400	19	-46.3		88	13	
2025-07-04T00:00	27450	19	-46.5		92	14	
2025-07-04T00:00	27500	19	-46.7		95	13	
2025-07-04T00:00	27550	18	-46.9		98	13	
2025-07-04T00:00	27600	18	-46.8		98	12	
2025-07-04T00:00	27650	18	-46.6		95	11	
2025-07-04T00:00	27700	18	-46.4		92	10	
2025-07-04T00:00	27750	18	-46.2		94	10	
2025-07-04T00:00	27800	18	-46.3		99	11	
2025-07-04T00:00	27850	18	-46.2		105	12	
2025-07-04T00:00	27900	17	-46.1		109	12	
2025-07-04T00:00	27950	17	-46.1		110	11	
2025-07-04T00:00	28000	17	-45.9		108	10	
2025-07-04T00:00	28050	17	-45.9		102	9	
2025-07-04T00:00	28100	17	-45.6		89	9	
2025-07-04T00:00	28150	17	-45.2		80	9	
2025-07-04T00:00	28200	17	-45.0		76	10	
2025-07-04T00:00	28250	17	-44.8		76	10	
2025-07-04T00:00	28300	16	-44.7		77	9	
2025-07-04T00:00	28350	16	-44.6		79	9	
2025-07-04T00:00	28400	16	-44.6		80	9	
2025-07-04T00:00	28450	16	-44.6		80	10	
2025-07-04T00:00	28500	16	-44.5		78	11	
2025-07-04T00:00	28550	16	-44.5		75	12	
2025-07-04T00:00	28600	16	-44.6		73	14	
2025-07-04T00:00	28650	16	-44.8		74	15	
2025-07-04T00:00	28700	15	-44.9		78	15	
2025-07-04T00:00	28750	15	-44.8		83	15	
2025-07-04T00:00	28800	15	-44.8		88	15	
2025-07-04T00:00	28850	15	-44.8		91	15	
2025-07-04T00:00	28900	15	-44.7		92	14	
2025-07-04T00:00	28950	15	-44.8		89	13	
2025-07-04T00:00	29000	15	-44.5		85	13	
2025-07-04T00:00	29050	15	-44.1		83	13	
2025-07-04T00:00	29100	15	-43.7		83	13	
2025-07-04T00:00	29150	14	-43.7		84	13	
2025-07-04T00:00	29200	14	-43.9		85	13	
2025-07-04T00:00	29250	14	-44.0		86	13	
2025-07-04T00:00	29300	14	-43.9		87	13	
2025-07-04T00:00	29350	14	-43.8		88	13	
2025-07-04T00:00	29400	14	-43.8		89	13	
2025-07-04T00:00	29450	14	-44.0		91	13	
2025-07-04T00:00	29500	14	-44.2		92	13	
2025-07-04T00:00	29550	14	-44.3		91	13	
2025-07-04T00:00	29600	14	-44.5		89	13	
2025-07-04T00:00	29650	13	-44.5		88	13	
2025-07-04T00:00	29700	13	-44.4		88	12	
2025-07-04T00:00	29750	13	-44.3		88	11	
2025-07-04T00:00	29800	13	-44.3		85	11	
2025-07-04T00:00	29850	13	-44.0		83	12	
2025-07-04T00:00	29900	13	-44.0		83	13	
2025-07-04T00:00	29950	13	-43.7		85	14	
2025-07-04T00:00	30000	13	-43.7		86	15	
2025-07-04T00:00	30050	13	-43.5		88	15	
2025-07-04T00:00	30100	13	-43.2		90	15	
2025-07-04T00:00	30150	12	-43.0		94	14	
2025-07-04T00:00	30200	12	-42.8		98	13	
2025-07-04T00:00	30250	12	-42.7		101	11	
2025-07-04T00:00	30300	12	-42.7		100	10	
2025-07-04T00:00	30350	12	-42.6		96	10	
2025-07-04T00:00	30400	12	-42.5		90	10	
2025-07-04T00:00	30450	12	-41.9		87	12	
2025-07-04T00:00	30500	12	-41.5		85	13	
2025-07-04T00:00	30550	12	-41.3		86	13	
2025-07-04T00:00	30600	12	-41.0		88	12	
2025-07-04T00:00	30650	12	-40.8		91	10	
2025-07-04T00:00	30700	11	-40.6		92	10	
2025-07-04T00:00	30750	11	-40.4		90	10	
2025-07-04T00:00	30800	11	-40.3		89	11	
2025-07-04T00:00	30850	11	-40.0		90	11	
2025-07-04T00:00	30900	11	-39.9		94	10	
2025-07-04T00:00	30950	11	-39.9		97	10	
2025-07-04T00:00	31000	11	-39.8		98	9	
2025-07-04T00:00	31050	11	-39.7		96	9	
2025-07-04T00:00	31100	11	-39.5		94	10	
2025-07-04T00:00	31150	11	-39.6		91	10	
2025-07-04T00:00	31200	11	-39.4		89	12	
2025-07-04T00:00	31250	11	-39.5		88	13	
2025-07-04T00:00	31300	11	-39.6		90	15	
2025-07-04T00:00	31350	10	-39.7		92	16	
2025-07-04T00:00	31400	10	-39.8		94	17	
2025-07-04T00:00	31450	10	-40.1		95	17	
2025-07-04T00:00	31500	10	-40.2		96	16	
2025-07-04T00:00	31550	10	-40.2		96	15	
2025-07-04T00:00	31600	10	-40.0		95	14	
2025-07-04T00:00	31650	10	-39.5		94	14	
2025-07-04T00:00	31700	10	-39.4		92	13	
2025-07-04T00:00	31750	10	-39.5		92	14	
2025-07-04T00:00	31800	10	-39.5		94	16	
2025-07-04T00:00	31850	10	-39.7		95	17	
2025-07-04T00:00	31900	10	-39.7		95	17	
2025-07-04T00:00	31950	10	-39.5		96	16	
2025-07-04T00:00	32000	9	-39.3		97	15	
2025-07-04T00:00	32050	9	-39.0		97	14	
2025-07-04T00:00	32100	9	-38.8		99	13	
2025-07-04T00:00	32150	9	-38.6		102	14	
2025-07-04T00:00	32200	9	-38.3		100	14	
2025-07-04T00:00	32250	9	-37.9		93	13	
2025-07-04T00:00	32300	9	-37.6		82	13	
2025-07-04T00:00	32350	9	-37.2		73	13	
2025-07-04T00:00	32400	9	-36.7		71	13	
2025-07-04T00:00	32450	9	-36.7		73	14	
2025-07-04T00:00	32500	9	-36.7		75	14	
2025-07-04T00:00	32550	9	-36.8		77	14	
2025-07-04T00:00	32600	9	-36.6		79	15	
2025-07-04T00:00	32650	9	-36.3		82	15	
2025-07-04T00:00	32700	9	-36.5		83	16	
2025-07-04T00:00	32750	9	-36.4		81	16	
2025-07-04T00:00	32800	8	-36.1		79	17	
2025-07-04T00:00	32850	8	-36.1		79	16	
2025-07-04T00:00	32900	8	-36.1		81	16	
2025-07-04T00:00	32950	8	-36.2		82	16	
2025-07-04T00:00	33000	8	-36.1		84	16	
2025-07-04T00:00	33050	8	-36.0		86	15	
2025-07-04T00:00	33100	8	-35.4		89	14	
2025-07-04T00:00	33150	8	-35.3		93	13	
2025-07-04T00:00	33200	8	-35.4		92	13	
2025-07-04T00:00	33250	8	-35.3		88	13	
2025-07-04T00:00	33300	8	-34.9		81	13	
2025-07-04T00:00	33350	8	-34.7		75	14	
2025-07-04T00:00	33400	8	-34.8		70	14	
2025-07-04T00:00	33450	8	-34.9		68	15	
2025-07-04T00:00	33500	8	-35.0		68	16	
2025-07-04T00:00	33550	8	-35.0		71	18	
2025-07-04T00:00	33600	8	-35.0		74	19	
2025-07-04T00:00	33650	7	-35.1		76	20	
2025-07-04T00:00	33700	7	-35.3		79	20	
2025-07-04T00:00	33750	7	-35.4		82	20	
2025-07-04T00:00	33800	7	-35.1		84	20	
2025-07-04T00:00	33850	7	-34.9		85	18	
2025-07-04T00:00	33900	7	-34.6		85	17	
2025-07-04T00:00	33950	7	-34.3		83	16	
2025-07-04T00:00	34000	7	-33.9		81	15	
2025-07-04T00:00	34050	7	-33.7		79	14	
2025-07-04T00:00	34100	7	-33.6		77	14	
2025-07-04T00:00	34150	7	-33.3		76	14	
2025-07-04T00:00	34200	7	-32.9		75	16	
2025-07-04T00:00	34250	7	-32.6		72	17	
2025-07-04T00:00	34300	7	-32.3		68	17	
2025-07-04T00:00	34350	7	-31.9		65	16	
2025-07-04T00:00	34400	7	-31.9		62	15	
2025-07-04T00:00	34450	7	-32.1		59	14	
2025-07-04T00:00	34500	7	-32.1		57	14	
2025-07-04T00:00	34550	7	-32.0		57	15	
2025-07-04T00:00	34600	7	-32.0		59	15	
2025-07-04T00:00	34650	6	-32.0		61	16	
2025-07-04T00:00	34700	6	-32.0		62	16	
2025-07-04T00:00	34750	6	-32.1		64	17	
2025-07-04T00:00	34800	6	-32.1		66	18	
2025-07-04T00:00	34850	6	-32.2		68	19	
2025-07-04T00:00	34900	6	-32.2		69	19	
2025-07-04T00:00	34950	6	-32.3		70	20	
2025-07-04T00:00	35000	6	-32.4		70	20	
2025-07-04T00:00	35050	6	-32.2		71	19	
2025-07-04T00:00	35100	6	-32.2		71	19	
2025-07-04T00:00	35150	6	-32.2		72	19	
2025-07-04T00:00	35200	6	-32.2		72	19	
2025-07-04T00:00	35250	6	-32.1		71	19	
2025-07-04T00:00	35300	6	-32.0		69	18	
2025-07-04T00:00	35350	6	-32.1		66	17	
2025-07-04T00:00	35400	6	-32.2		63	17	
2025-07-04T00:00	35450	6	-32.2		59	17	
2025-07-04T00:00	35500	6	-31.9		57	17	
2025-07-04T00:00	35550	6	-31.6		58	18	
2025-07-04T00:00	35600	6	-31.6		62	19	
2025-07-04T00:00	35650	6	-31.7		67	19	
2025-07-04T00:00	35700	6	-31.7		71	20	
2025-07-04T00:00	35750	6	-31.5		74	20	
2025-07-04T00:00	35800	6	-31.1		73	21	
2025-07-04T00:00	35850	5	-30.6		69	22	
2025-07-04T00:00	35900	5	-30.2		66	23	
2025-07-04T00:00	35950	5	-29.4		63	24	
2025-07-04T00:00	36000	5	-29.1		61	24	
2025-07-04T00:00	36050	5	-28.4		61	25	
2025-07-04T00:00	36100	5	-28.3		62	26	
2025-07-04T00:00	36150	5	-28.7		65	26	
2025-07-04T00:00	36200	5	-28.9		68	27	
2025-07-04T00:00	36250	5	-28.9		72	26	
2025-07-04T00:00	36300	5	-28.7		75	26	
2025-07-04T00:00	36350	5	-28.7		80	24	
2025-07-04T00:00	36400	5	-28.8		84	23	
2025-07-04T00:00	36450	5	-28.9		86	22	
2025-07-04T00:00	36500	5	-28.7		87	21	
2025-07-04T00:00	36550	5	-28.7		84	20	
2025-07-04T00:00	36600	5	-28.4		81	20	
2025-07-04T00:00	36650	5	-28.2		78	21	
2025-07-04T00:00	36700	5	-28.0		78	21	
2025-07-04T00:00	36750	5	-28.0		79	21	
2025-07-04T00:00	36800	5	-28.1		81	21	
2025-07-04T00:00	36850	5	-28.3		84	20	
2025-07-04T00:00	36900	5	-28.5		87	20	
2025-07-04T00:00	36950	5	-28.6		89	21	
2025-07-04T00:00	37000	5	-28.5		89	22	
2025-07-04T00:00	37050	5	-28.2		87	23	
2025-07-04T00:00	37100	5	-28.0		85	24	
2025-07-04T00:00	37150	5	-27.8		83	26	
2025-07-04T00:00	37200	5	-27.3		81	27	
2025-07-04T00:00	37250	5	-27.1		80	27	
2025-07-04T00:00	37300	4	-26.8		80	27	
2025-07-04T00:00	37350	4	-26.5		82	26	
2025-07-04T12:00	491	967	24.8	15.1	62	2	4.5
2025-07-04T12:00	501	966	24.8	15.5	35	3	4.6
2025-07-04T12:00	520	964	23.9	15.0	35	4	4.7
2025-07-04T12:00	540	962	23.5	14.9	35	4	4.8
2025-07-04T12:00	560	960	23.1	14.7	34	5	4.9
2025-07-04T12:00	580	958	23.0	14.7	32	5	5.0
2025-07-04T12:00	600	955	22.7	14.7	31	5	5.1
2025-07-04T12:00	620	953	22.5	14.7	31	4	5.2
2025-07-04T12:00	640	951	22.3	14.7	33	4	5.2
2025-07-04T12:00	660	949	22.2	14.7	37	4	5.3
2025-07-04T12:00	680	946	21.9	14.6	40	4	5.3
2025-07-04T12:00	700	944	21.8	14.6	41	5	5.3
2025-07-04T12:00	720	942	21.6	14.6	41	5	5.3
2025-07-04T12:00	740	940	21.4	14.6	42	5	5.4
2025-07-04T12:00	760	938	21.2	14.5	43	5	5.4
2025-07-04T12:00	780	936	21.0	14.5	45	4	5.4
2025-07-04T12:00	800	934	20.9	14.4	48	4	5.4
2025-07-04T12:00	820	932	20.7	14.4	51	4	5.4
2025-07-04T12:00	840	929	20.5	14.4	54	4	5.4
2025-07-04T12:00	860	927	20.3	14.4	57	4	5.4
2025-07-04T12:00	880	925	20.0	14.5	58	4	5.4
2025-07-04T12:00	900	923	19.9	14.3	58	4	5.4
2025-07-04T12:00	920	921	19.7	14.1	58	4	5.4
2025-07-04T12:00	940	919	19.5	14.2	58	4	5.3
2025-07-04T12:00	960	916	19.3	14.2	57	4	5.3
2025-07-04T12:00	980	914	19.2	14.2	57	4	5.3
2025-07-04T12:00	1000	912	18.9	14.2	56	4	5.3
2025-07-04T12:00	1020	910	18.8	14.1	56	4	5.3
2025-07-04T12:00	1040	908	18.6	14.2	54	4	5.3
2025-07-04T12:00	1060	906	18.4	13.9	52	3	5.3
2025-07-04T12:00	1080	904	18.1	13.7	51	3	5.3
2025-07-04T12:00	1100	902	17.9	13.6	49	3	5.3
2025-07-04T12:00	1120	900	17.8	13.4	47	3	5.3
2025-07-04T12:00	1140	898	17.6	13.5	47	3	5.3
2025-07-04T12:00	1160	895	17.4	13.6	47	3	5.3
2025-07-04T12:00	1180	893	17.2	13.5	47	3	5.3
2025-07-04T12:00	1200	891	17.0	13.4	47	3	5.3
2025-07-04T12:00	1220	889	16.8	13.3	47	3	5.3
2025-07-04T12:00	1240	887	16.6	13.3	46	3	5.3
2025-07-04T12:00	1260	885	16.4	13.3	46	3	5.3
2025-07-04T12:00	1280	883	16.3	13.3	45	3	5.3
2025-07-04T12:00	1300	881	16.1	13.2	44	3	5.3
2025-07-04T12:00	1320	879	16.0	13.0	43	3	5.2
2025-07-04T12:00	1340	877	15.9	12.9	42	3	5.2
2025-07-04T12:00	1360	875	15.6	13.0	39	3	5.2
2025-07-04T12:00	1380	872	15.4	12.9	36	3	5.2
2025-07-04T12:00	1400	870	15.2	13.0	33	3	5.3
2025-07-04T12:00	1420	868	14.9	12.9	28	2	5.2
2025-07-04T12:00	1440	866	14.8	12.6	24	2	5.2
2025-07-04T12:00	1460	864	14.7	12.6	18	2	5.2
2025-07-04T12:00	1480	862	14.6	12.4	11	2	5.2
2025-07-04T12:00	1500	860	14.5	12.3	4	2	5.2
2025-07-04T12:00	1520	858	14.3	12.2	353	2	5.2
2025-07-04T12:00	1540	856	14.2	11.9	342	2	5.2
2025-07-04T12:00	1560	854	14.1	11.7	331	2	5.2
2025-07-04T12:00	1580	852	14.1	11.5	323	2	5.2
2025-07-04T12:00	1600	850	14.1	11.2	314	2	5.2
2025-07-04T12:00	1620	848	14.0	11.2	308	2	5.1
2025-07-04T12:00	1640	846	13.9	11.1	302	2	5.2
2025-07-04T12:00	1660	844	13.8	10.8	298	2	5.2
2025-07-04T12:00	1680	842	13.7	10.6	294	2	5.2
2025-07-04T12:00	1700	840	13.7	10.5	290	2	5.2
2025-07-04T12:00	1720	838	13.6	10.3	287	2	5.1
2025-07-04T12:00	1740	836	13.4	10.3	285	2	5.1
2025-07-04T12:00	1760	834	13.3	10.2	282	2	5.1
2025-07-04T12:00	1780	832	13.2	9.9	280	3	5.1
2025-07-04T12:00	1800	830	13.2	9.8	279	3	5.1
2025-07-04T12:00	1820	828	13.1	9.7	277	3	5.1
2025-07-04T12:00	1840	826	12.9	9.9	274	3	5.0
2025-07-04T12:00	1860	825	12.6	10.2	268	3	5.0
2025-07-04T12:00	1880	823	12.4	10.2	261	2	5.0
2025-07-04T12:00	1900	820	12.2	10.2	250	2	5.0
2025-07-04T12:00	1920	818	12.1	9.9	236	2	5.0
2025-07-04T12:00	1940	816	12.1	9.8	222	2	5.0
2025-07-04T12:00	1960	815	12.0	9.9	212	2	5.0
2025-07-04T12:00	1980	813	11.8	9.9	206	3	5.0
2025-07-04T12:00	2000	811	11.6	9.7	202	3	4.9
2025-07-04T12:00	2020	809	11.4	9.6	202	3	4.9
2025-07-04T12:00	2040	807	11.4	9.6	203	4	4.9
2025-07-04T12:00	2060	805	11.2	9.8	207	4	5.0
2025-07-04T12:00	2080	803	10.9	9.8	210	4	5.0
2025-07-04T12:00	2100	801	10.8	9.7	213	4	4.9
2025-07-04T12:00	2120	799	10.7	9.6	216	4	4.9
2025-07-04T12:00	2140	797	10.6	9.6	221	4	4.9
2025-07-04T12:00	2160	796	10.4	9.8	224	4	4.9
2025-07-04T12:00	2180	794	10.3	9.4	226	5	4.9
2025-07-04T12:00	2200	792	10.3	8.9	228	5	4.9
2025-07-04T12:00	2220	790	10.3	8.8	229	5	4.9
2025-07-04T12:00	2240	788	10.2	8.7	229	5	4.9
2025-07-04T12:00	2260	786	10.0	8.7	228	5	4.9
2025-07-04T12:00	2280	784	10.0	8.2	227	5	4.9
2025-07-04T12:00	2300	782	10.0	7.9	226	5	4.8
2025-07-04T12:00	2320	780	9.9	7.8	225	6	4.8
2025-07-04T12:00	2340	778	9.8	7.8	223	6	4.8
2025-07-04T12:00	2360	776	9.7	8.0	222	7	4.8
2025-07-04T12:00	2380	774	9.5	7.8	221	7	4.8
2025-07-04T12:00	2400	773	9.4	7.1	220	7	4.8
2025-07-04T12:00	2420	771	9.3	6.3	219	7	4.7
2025-07-04T12:00	2440	769	9.3	5.8	219	7	4.7
2025-07-04T12:00	2460	768	9.3	5.4	218	7	4.8
2025-07-04T12:00	2480	765	9.1	5.6	219	7	4.7
2025-07-04T12:00	2500	763	9.0	5.0	219	7	4.7
2025-07-04T12:00	2520	762	9.0	4.7	220	6	4.7
2025-07-04T12:00	2540	760	8.8	4.7	221	6	4.7
2025-07-04T12:00	2560	758	8.6	4.6	222	6	4.7
2025-07-04T12:00	2580	757	8.5	4.4	222	6	4.7
2025-07-04T12:00	2600	755	8.3	4.3	221	5	4.7
2025-07-04T12:00	2620	753	8.1	4.1	220	5	4.6
2025-07-04T12:00	2640	751	8.0	3.9	218	5	4.6
2025-07-04T12:00	2660	749	7.9	3.6	216	5	4.6
2025-07-04T12:00	2680	747	7.7	3.4	213	5	4.6
2025-07-04T12:00	2700	745	7.7	3.0	210	4	4.6
2025-07-04T12:00	2720	744	7.5	2.8	208	4	4.6
2025-07-04T12:00	2740	742	7.3	2.8	207	4	4.6
2025-07-04T12:00	2760	740	7.2	2.8	206	4	4.6
2025-07-04T12:00	2780	738	7.2	1.9	206	4	4.6
2025-07-04T12:00	2800	736	7.1	0.1	208	4	4.5
2025-07-04T12:00	2820	734	7.1	-1.6	209	4	4.5
2025-07-04T12:00	2840	733	7.1	-2.2	210	4	4.5
2025-07-04T12:00	2860	731	6.9	-2.7	210	5	4.4
2025-07-04T12:00	2880	729	6.8	-3.1	209	5	4.4
2025-07-04T12:00	2900	728	6.6	-3.2	207	5	4.3
2025-07-04T12:00	2920	726	6.5	-3.1	206	6	4.3
2025-07-04T12:00	2940	724	6.3	-3.1	205	6	4.3
2025-07-04T12:00	2960	722	6.1	-3.0	204	6	4.3
2025-07-04T12:00	2980	720	6.0	-2.8	202	7	4.2
2025-07-04T12:00	3000	719	5.9	-2.7	201	7	4.2
2025-07-04T12:00	3020	717	5.7	-2.6	200	8	4.2
2025-07-04T12:00	3040	715	5.6	-2.6	199	8	4.2
2025-07-04T12:00	3060	713	5.4	-2.1	198	8	4.2
2025-07-04T12:00	3080	711	5.1	-1.8	198	8	4.2
2025-07-04T12:00	3100	710	5.0	-2.1	197	7	4.2
2025-07-04T12:00	3120	708	4.9	-2.3	196	7	4.2
2025-07-04T12:00	3140	706	4.6	-2.1	196	7	4.3
2025-07-04T12:00	3160	705	4.4	-1.6	196	6	4.3
2025-07-04T12:00	3180	703	4.2	-1.7	196	6	4.3
2025-07-04T12:00	3200	701	4.0	-2.0	196	5	4.3
2025-07-04T12:00	3220	700	4.0	-3.8	197	5	4.3
2025-07-04T12:00	3240	698	4.3	-9.9	200	4	4.3
2025-07-04T12:00	3260	696	4.9	-17.3	208	3	4.5
2025-07-04T12:00	3280	694	5.0	-20.6	224	2	4.8
2025-07-04T12:00	3300	693	5.0	-23.1	252	2	5.0
2025-07-04T12:00	3320	691	5.1	-28.2	277	2	5.2
2025-07-04T12:00	3340	689	5.2	-31.0	289	3	5.3
2025-07-04T12:00	3360	688	5.4	-31.8	292	3	5.4
2025-07-04T12:00	3380	686	5.4	-24.7	292	4	5.5
2025-07-04T12:00	3400	684	5.6	-22.6	291	4	5.3
2025-07-04T12:00	3420	683	5.6	-22.1	290	4	5.2
2025-07-04T12:00	3440	681	5.4	-21.9	291	4	5.0
2025-07-04T12:00	3460	679	5.2	-21.9	293	5	4.9
2025-07-04T12:00	3480	678	5.0	-22.0	295	5	4.9
2025-07-04T12:00	3500	676	4.9	-22.1	297	5	4.8
2025-07-04T12:00	3520	674	4.8	-22.1	299	5	4.8
2025-07-04T12:00	3540	673	4.7	-22.2	299	6	4.7
2025-07-04T12:00	3560	671	4.7	-22.5	299	6	4.7
2025-07-04T12:00	3580	669	4.6	-22.6	298	7	4.6
2025-07-04T12:00	3600	668	4.4	-22.7	298	7	4.4
2025-07-04T12:00	3620	666	4.3	-23.0	299	7	4.4
2025-07-04T12:00	3640	664	4.2	-23.0	300	7	4.3
2025-07-04T12:00	3660	663	4.1	-23.2	302	7	4.2
2025-07-04T12:00	3680	661	3.9	-23.3	303	7	4.1
2025-07-04T12:00	3700	659	3.7	-23.3	305	6	4.1
2025-07-04T12:00	3720	658	3.6	-23.2	305	7	4.0
2025-07-04T12:00	3740	656	3.5	-23.3	304	7	4.0
2025-07-04T12:00	3760	655	3.3	-23.4	303	7	4.0
2025-07-04T12:00	3780	653	3.1	-23.6	302	7	3.9
2025-07-04T12:00	3800	651	3.0	-23.7	300	7	3.9
2025-07-04T12:00	3820	650	2.9	-23.5	298	6	3.8
2025-07-04T12:00	3840	648	2.7	-23.3	297	6	3.8
2025-07-04T12:00	3860	647	2.5	-23.3	295	6	3.8
2025-07-04T12:00	3880	645	2.3	-23.4	295	6	3.8
2025-07-04T12:00	3900	643	2.2	-23.4	296	6	3.8
2025-07-04T12:00	3920	642	2.0	-23.4	297	7	3.8
2025-07-04T12:00	3940	640	1.8	-22.9	298	7	3.8
2025-07-04T12:00	3960	638	1.7	-20.6	298	7	3.8
2025-07-04T12:00	3980	637	1.6	-18.7	299	7	3.9
2025-07-04T12:00	4000	636	1.4	-18.8	298	7	3.9
2025-07-04T12:00	4020	634	1.3	-19.0	298	7	3.8
2025-07-04T12:00	4040	633	1.1	-19.0	297	7	3.8
2025-07-04T12:00	4060	631	0.9	-19.1	296	7	3.7
2025-07-04T12:00	4080	629	0.8	-19.3	294	7	3.7
2025-07-04T12:00	4100	628	0.6	-19.5	293	7	3.7
2025-07-04T12:00	4120	626	0.4	-19.7	292	7	3.6
2025-07-04T12:00	4140	625	0.2	-19.9	291	7	3.6
2025-07-04T12:00	4160	623	0.1	-20.1	290	7	3.6
2025-07-04T12:00	4180	621	0.0	-20.2	289	7	3.6
2025-07-04T12:00	4200	620	-0.2	-20.5	289	7	3.5
2025-07-04T12:00	4220	618	-0.3	-20.7	289	7	3.5
2025-07-04T12:00	4240	617	-0.5	-20.8	290	8	3.5
2025-07-04T12:00	4260	615	-0.7	-20.9	291	8	3.5
2025-07-04T12:00	4280	614	-0.8	-21.1	292	8	3.5
2025-07-04T12:00	4300	612	-1.0	-21.1	294	8	3.5
2025-07-04T12:00	4320	611	-1.1	-21.2	295	8	3.5
2025-07-04T12:00	4340	609	-1.3	-21.4	297	8	3.5
2025-07-04T12:00	4360	608	-1.4	-21.6	298	8	3.5
2025-07-04T12:00	4380	606	-1.6	-21.9	300	7	3.5
2025-07-04T12:00	4400	604	-1.8	-22.7	302	7	3.4
2025-07-04T12:00	4420	603	-1.9	-23.0	304	7	3.4
2025-07-04T12:00	4440	602	-2.0	-23.6	306	7	3.4
2025-07-04T12:00	4460	600	-2.1	-24.9	306	8	3.4
2025-07-04T12:00	4480	598	-2.2	-26.0	306	8	3.4
2025-07-04T12:00	4500	597	-2.3	-26.7	305	8	3.4
2025-07-04T12:00	4520	595	-2.3	-27.8	304	7	3.5
2025-07-04T12:00	4540	594	-2.4	-28.6	303	7	3.6
2025-07-04T12:00	4560	592	-2.5	-29.5	301	8	3.8
2025-07-04T12:00	4580	591	-2.6	-29.7	299	8	4.0
2025-07-04T12:00	4600	589	-2.7	-27.5	297	8	4.2
2025-07-04T12:00	4620	588	-2.9	-26.9	296	9	4.3
2025-07-04T12:00	4640	586	-3.1	-26.0	294	9	4.3
2025-07-04T12:00	4660	585	-3.2	-26.0	292	10	4.2
2025-07-04T12:00	4680	583	-3.3	-26.1	291	10	4.2
2025-07-04T12:00	4700	582	-3.4	-25.5	290	10	4.2
2025-07-04T12:00	4720	581	-3.5	-26.5	289	10	4.2
2025-07-04T12:00	4740	579	-3.6	-27.3	289	10	4.2
2025-07-04T12:00	4760	577	-3.6	-29.9	289	9	4.2
2025-07-04T12:00	4780	576	-3.6	-28.2	288	9	4.2
2025-07-04T12:00	4800	575	-3.7	-26.3	288	9	4.3
2025-07-04T12:00	4820	573	-3.9	-24.5	287	9	4.3
2025-07-04T12:00	4840	572	-4.0	-23.6	287	10	4.2
2025-07-04T12:00	4860	570	-4.1	-23.8	287	10	4.2
2025-07-04T12:00	4880	569	-4.3	-24.0	288	10	4.2
2025-07-04T12:00	4900	567	-4.6	-24.1	289	10	4.1
2025-07-04T12:00	4920	566	-4.8	-23.7	290	10	4.1
2025-07-04T12:00	4940	564	-5.0	-23.7	292	10	4.0
2025-07-04T12:00	4960	563	-5.1	-23.6	293	10	4.0
2025-07-04T12:00	4980	562	-5.3	-23.8	293	10	3.9
2025-07-04T12:00	5000	560	-5.4	-24.2	293	10	3.9
2025-07-04T12:00	5020	559	-5.6	-24.2	293	10	3.8
2025-07-04T12:00	5040	557	-5.7	-24.7	291	10	3.8
2025-07-04T12:00	5060	556	-5.7	-25.0	289	10	3.8
2025-07-04T12:00	5080	555	-5.8	-25.4	288	10	3.7
2025-07-04T12:00	5100	553	-5.9	-27.6	287	10	3.7
2025-07-04T12:00	5120	552	-5.9	-29.7	286	10	3.8
2025-07-04T12:00	5140	550	-6.1	-31.6	285	11	3.8
2025-07-04T12:00	5160	549	-6.3	-32.1	284	11	3.8
2025-07-04T12:00	5180	547	-6.5	-33.3	284	11	3.8
2025-07-04T12:00	5200	546	-6.6	-33.1	283	11	3.8
2025-07-04T12:00	5220	545	-6.7	-33.1	283	11	3.8
2025-07-04T12:00	5240	543	-6.7	-34.9	282	11	3.8
2025-07-04T12:00	5260	542	-6.8	-34.6	282	12	3.8
2025-07-04T12:00	5280	540	-6.9	-35.8	281	11	3.8
2025-07-04T12:00	5300	539	-7.1	-37.1	280	11	3.8
2025-07-04T12:00	5320	538	-7.2	-38.5	279	11	3.8
2025-07-04T12:00	5340	536	-7.3	-38.6	277	11	3.7
2025-07-04T12:00	5360	535	-7.4	-39.3	275	11	3.7
2025-07-04T12:00	5380	534	-7.4	-37.1	274	10	3.6
2025-07-04T12:00	5400	532	-7.6	-35.6	274	11	3.6
2025-07-04T12:00	5420	531	-7.8	-37.3	276	11	3.6
2025-07-04T12:00	5440	530	-8.0	-39.8	278	11	3.6
2025-07-04T12:00	5460	528	-8.1	-41.0	280	12	3.6
2025-07-04T12:00	5480	527	-8.1	-42.5	283	12	3.6
2025-07-04T12:00	5500	526	-8.2	-42.7	284	13	3.5
2025-07-04T12:00	5520	524	-8.4	-42.5	285	13	3.5
2025-07-04T12:00	5540	523	-8.5	-42.0	286	13	3.5
2025-07-04T12:00	5560	521	-8.7	-41.1	286	13	3.5
2025-07-04T12:00	5580	520	-8.8	-40.4	287	13	3.4
2025-07-04T12:00	5600	519	-9.0	-39.8	287	13	3.4
2025-07-04T12:00	5620	517	-9.2	-40.8	286	13	3.4
2025-07-04T12:00	5640	516	-9.4	-40.8	286	13	3.4
2025-07-04T12:00	5660	515	-9.4	-39.9	286	13	3.4
2025-07-04T12:00	5680	513	-9.6	-39.8	285	13	3.4
2025-07-04T12:00	5700	512	-9.8	-39.9	284	12	3.3
2025-07-04T12:00	5720	511	-9.9	-40.1	283	12	3.3
2025-07-04T12:00	5740	509	-10.0	-40.5	282	12	3.3
2025-07-04T12:00	5760	508	-10.2	-40.7	282	12	3.3
2025-07-04T12:00	5780	507	-10.4	-40.7	282	12	3.3
2025-07-04T12:00	5800	505	-10.6	-40.8	282	12	3.3
2025-07-04T12:00	5820	504	-10.7	-40.9	283	12	3.3
2025-07-04T12:00	5840	503	-10.9	-40.8	284	12	3.3
2025-07-04T12:00	5860	501	-11.1	-40.8	286	12	3.3
2025-07-04T12:00	5880	500	-11.3	-40.9	288	12	3.3
2025-07-04T12:00	5900	499	-11.5	-41.4	288	12	3.3
2025-07-04T12:00	5920	498	-11.7	-42.7	288	12	3.3
2025-07-04T12:00	5940	496	-11.8	-45.0	288	13	3.3
2025-07-04T12:00	5960	495	-11.8	-45.3	287	13	3.3
2025-07-04T12:00	5980	494	-12.0	-44.8	287	13	3.3
2025-07-04T12:00	6000	492	-12.1	-41.9	287	13	3.3
2025-07-04T12:00	6020	491	-12.2	-39.7	287	13	3.3
2025-07-04T12:00	6040	490	-12.3	-41.7	287	13	3.3
2025-07-04T12:00	6060	489	-12.4	-42.0	287	13	3.3
2025-07-04T12:00	6080	487	-12.6	-41.4	287	13	3.3
2025-07-04T12:00	6100	486	-12.7	-41.4	288	13	3.4
2025-07-04T12:00	6120	485	-12.7	-42.8	288	13	3.4
2025-07-04T12:00	6140	483	-12.8	-44.6	288	13	3.3
2025-07-04T12:00	6160	482	-12.9	-45.9	288	12	3.3
2025-07-04T12:00	6180	481	-13.0	-46.6	288	13	3.3
2025-07-04T12:00	6200	480	-13.0	-46.7	288	13	3.3
2025-07-04T12:00	6220	478	-13.2	-46.9	289	13	3.3
2025-07-04T12:00	6240	477	-13.3	-47.1	289	13	3.3
2025-07-04T12:00	6260	476	-13.4	-47.2	289	13	3.2
2025-07-04T12:00	6280	475	-13.5	-46.8	290	13	3.3
2025-07-04T12:00	6300	473	-13.6	-47.2	291	13	3.2
2025-07-04T12:00	6320	472	-13.6	-47.9	291	14	3.2
2025-07-04T12:00	6340	471	-13.7	-47.8	292	14	3.2
2025-07-04T12:00	6360	470	-13.9	-48.3	293	14	3.2
2025-07-04T12:00	6380	468	-14.0	-48.4	293	14	3.2
2025-07-04T12:00	6400	467	-14.2	-48.0	292	15	3.3
2025-07-04T12:00	6420	466	-14.3	-47.3	292	15	3.3
2025-07-04T12:00	6440	465	-14.3	-47.2	291	15	3.3
2025-07-04T12:00	6460	464	-14.6	-47.4	291	16	3.2
2025-07-04T12:00	6480	462	-14.7	-47.9	290	16	3.2
2025-07-04T12:00	6500	461	-14.8	-48.0	290	16	3.2
2025-07-04T12:00	6520	460	-15.0	-47.7	290	16	3.2
2025-07-04T12:00	6540	459	-15.2	-47.7	289	15	3.2
2025-07-04T12:00	6560	457	-15.4	-47.6	289	15	3.2
2025-07-04T12:00	6580	456	-15.5	-47.7	288	15	3.1
2025-07-04T12:00	6600	455	-15.6	-47.8	287	15	3.1
2025-07-04T12:00	6620	454	-15.8	-47.8	286	15	3.2
2025-07-04T12:00	6640	453	-16.0	-48.1	285	15	3.2
2025-07-04T12:00	6660	451	-16.1	-49.4	284	15	3.2
2025-07-04T12:00	6680	450	-16.3	-50.6	284	14	3.2
2025-07-04T12:00	6700	449	-16.4	-50.7	283	14	3.2
2025-07-04T12:00	6720	448	-16.5	-50.8	283	14	3.2
2025-07-04T12:00	6740	447	-16.6	-51.2	283	14	3.2
2025-07-04T12:00	6760	445	-16.5	-50.6	283	15	3.3
2025-07-04T12:00	6780	444	-16.7	-51.1	283	15	3.5
2025-07-04T12:00	6800	443	-16.9	-52.3	283	15	3.6
2025-07-04T12:00	6820	442	-17.0	-53.1	283	15	3.7
2025-07-04T12:00	6840	441	-17.1	-53.2	283	15	3.7
2025-07-04T12:00	6860	439	-17.1	-52.1	283	15	3.6
2025-07-04T12:00	6880	438	-17.2	-51.7	282	14	3.6
2025-07-04T12:00	6900	437	-17.4	-51.7	282	14	3.6
2025-07-04T12:00	6920	436	-17.5	-52.1	282	14	3.7
2025-07-04T12:00	6940	435	-17.5	-52.7	283	14	3.8
2025-07-04T12:00	6960	434	-17.4	-53.9	284	14	4.0
2025-07-04T12:00	6980	432	-17.6	-54.0	285	14	4.1
2025-07-04T12:00	7000	431	-17.8	-54.1	286	14	4.2
2025-07-04T12:00	7020	430	-18.0	-54.2	287	14	4.2
2025-07-04T12:00	7040	429	-18.1	-54.4	288	14	4.3
2025-07-04T12:00	7060	428	-18.3	-54.4	289	14	4.3
2025-07-04T12:00	7080	427	-18.5	-54.5	290	15	4.4
2025-07-04T12:00	7100	426	-18.6	-54.5	290	15	4.5
2025-07-04T12:00	7120	424	-18.8	-54.6	290	15	4.5
2025-07-04T12:00	7140	423	-19.0	-54.8	290	16	4.5
2025-07-04T12:00	7160	422	-19.2	-54.9	290	16	4.5
2025-07-04T12:00	7180	421	-19.3	-55.1	289	16	4.5
2025-07-04T12:00	7200	420	-19.4	-55.2	288	16	4.5
2025-07-04T12:00	7220	419	-19.6	-55.3	288	17	4.5
2025-07-04T12:00	7240	418	-19.8	-55.4	286	17	4.4
2025-07-04T12:00	7260	417	-20.0	-55.6	285	17	4.4
2025-07-04T12:00	7280	415	-20.1	-55.7	284	17	4.3
2025-07-04T12:00	7300	414	-20.3	-55.8	284	17	4.2
2025-07-04T12:00	7320	413	-20.5	-55.9	283	17	4.1
2025-07-04T12:00	7340	412	-20.6	-56.5	283	17	4.0
2025-07-04T12:00	7360	411	-20.6	-56.7	283	17	3.8
2025-07-04T12:00	7380	410	-20.8	-56.7	283	17	3.7
2025-07-04T12:00	7400	409	-20.9	-56.8	283	17	3.7
2025-07-04T12:00	7420	408	-21.0	-57.0	283	17	3.7
2025-07-04T12:00	7440	407	-21.1	-57.0	282	17	3.8
2025-07-04T12:00	7460	405	-21.2	-57.1	281	18	3.8
2025-07-04T12:00	7480	404	-21.3	-57.0	280	18	4.0
2025-07-04T12:00	7500	403	-21.5	-56.9	279	18	4.1
2025-07-04T12:00	7520	402	-21.7	-57.0	278	19	4.3
2025-07-04T12:00	7540	401	-21.9	-56.8	277	19	4.4
2025-07-04T12:00	7560	400	-22.0	-56.6	277	19	4.5
2025-07-04T12:00	7580	399	-22.2	-56.7	276	19	4.7
2025-07-04T12:00	7600	398	-22.4	-56.4	276	20	4.8
2025-07-04T12:00	7620	397	-22.6	-54.5	276	20	4.9
2025-07-04T12:00	7640	396	-22.7	-51.9	276	20	5.0
2025-07-04T12:00	7660	395	-22.9	-51.2	276	21	5.1
2025-07-04T12:00	7680	394	-23.0	-50.7	276	21	5.1
2025-07-04T12:00	7700	392	-23.1	-49.9	276	21	5.1
2025-07-04T12:00	7720	391	-23.4	-49.8	275	22	5.0
2025-07-04T12:00	7740	390	-23.6	-49.6	275	22	5.0
2025-07-04T12:00	7760	389	-23.7	-49.4	275	22	5.0
2025-07-04T12:00	7780	388	-23.8	-49.4	274	22	5.0
2025-07-04T12:00	7800	387	-23.9	-49.6	274	22	4.9
2025-07-04T12:00	7820	386	-24.1	-49.8	273	22	4.8
2025-07-04T12:00	7840	385	-24.2	-51.8	272	21	4.8
2025-07-04T12:00	7860	384	-24.3	-54.5	271	21	4.7
2025-07-04T12:00	7880	383	-24.5	-55.3	269	20	4.8
2025-07-04T12:00	7900	382	-24.8	-55.7	268	20	5.0
2025-07-04T12:00	7920	381	-24.9	-56.2	268	20	5.0
2025-07-04T12:00	7940	380	-25.1	-57.3	267	20	5.0
2025-07-04T12:00	7960	379	-25.2	-57.6	267	20	5.0
2025-07-04T12:00	7980	378	-25.3	-57.6	267	20	5.0
2025-07-04T12:00	8000	377	-25.4	-57.4	267	20	5.0
2025-07-04T12:00	8020	376	-25.4	-57.6	267	20	5.0
2025-07-04T12:00	8040	375	-25.4	-57.5	267	20	4.9
2025-07-04T12:00	8060	373	-25.5	-56.9	266	21	4.9
2025-07-04T12:00	8080	372	-25.7	-56.8	266	21	4.9
2025-07-04T12:00	8100	371	-25.7	-56.3	267	21	4.9
2025-07-04T12:00	8120	370	-25.8	-54.7	267	22	4.8
2025-07-04T12:00	8140	369	-25.9	-54.0	267	22	4.7
2025-07-04T12:00	8160	368	-25.9	-55.3	267	22	4.7
2025-07-04T12:00	8180	367	-26.1	-55.5	267	22	4.6
2025-07-04T12:00	8200	366	-26.2	-50.3	267	23	4.4
2025-07-04T12:00	8220	365	-26.2	-45.2	268	23	4.1
2025-07-04T12:00	8240	364	-26.4	-44.7	268	23	3.9
2025-07-04T12:00	8260	363	-26.6	-44.6	268	23	3.7
2025-07-04T12:00	8280	362	-26.7	-44.3	268	23	3.5
2025-07-04T12:00	8300	361	-26.9	-44.1	268	23	3.4
2025-07-04T12:00	8320	360	-27.1	-43.8	268	23	3.3
2025-07-04T12:00	8340	359	-27.3	-43.8	268	23	3.2
2025-07-04T12:00	8360	358	-27.5	-44.4	268	23	3.2
2025-07-04T12:00	8380	357	-27.6	-44.3	268	23	3.1
2025-07-04T12:00	8400	356	-27.7	-44.6	268	23	3.1
2025-07-04T12:00	8420	355	-27.9	-42.7	268	23	3.1
2025-07-04T12:00	8440	354	-28.1	-44.7	268	23	3.1
2025-07-04T12:00	8460	353	-28.2	-45.4	268	23	3.2
2025-07-04T12:00	8480	352	-28.4	-43.5	268	23	3.2
2025-07-04T12:00	8500	351	-28.6	-43.7	268	23	3.3
2025-07-04T12:00	8520	350	-28.6	-43.8	268	23	3.2
2025-07-04T12:00	8540	349	-28.8	-43.7	268	23	3.2
2025-07-04T12:00	8560	348	-29.1	-43.7	268	23	3.2
2025-07-04T12:00	8580	347	-29.4	-43.4	267	23	3.1
2025-07-04T12:00	8600	346	-29.6	-43.6	267	23	3.1
2025-07-04T12:00	8620	346	-29.7	-44.0	267	23	3.0
2025-07-04T12:00	8640	345	-29.8	-44.1	267	23	2.9
2025-07-04T12:00	8660	344	-30.1	-44.0	267	23	2.8
2025-07-04T12:00	8680	343	-30.3	-43.8	268	23	2.8
2025-07-04T12:00	8700	342	-30.5	-44.1	268	23	2.7
2025-07-04T12:00	8720	341	-30.6	-44.4	268	23	2.7
2025-07-04T12:00	8740	340	-30.8	-44.6	268	23	2.7
2025-07-04T12:00	8760	339	-31.0	-44.4	268	23	2.6
2025-07-04T12:00	8780	338	-31.2	-44.4	268	23	2.5
2025-07-04T12:00	8800	337	-31.4	-44.4	268	23	2.5
2025-07-04T12:00	8820	336	-31.5	-44.4	268	23	2.4
2025-07-04T12:00	8840	335	-31.7	-44.4	268	23	2.4
2025-07-04T12:00	8860	334	-32.0	-44.3	267	23	2.4
2025-07-04T12:00	8880	333	-32.2	-47.0	267	23	2.5
2025-07-04T12:00	8900	332	-32.3	-48.9	267	24	2.5
2025-07-04T12:00	8920	331	-32.4	-46.2	267	24	2.6
2025-07-04T12:00	8940	330	-32.6	-45.6	267	24	2.6
2025-07-04T12:00	8960	329	-32.8	-46.4	267	24	2.7
2025-07-04T12:00	8980	328	-32.9	-46.7	267	24	2.6
2025-07-04T12:00	9000	327	-33.1	-46.6	267	24	2.5
2025-07-04T12:00	9020	326	-33.3	-46.5	266	24	2.5
2025-07-04T12:00	9040	325	-33.4	-46.6	266	24	2.4
2025-07-04T12:00	9060	325	-33.6	-46.7	266	24	2.4
2025-07-04T12:00	9080	324	-33.8	-46.5	266	24	2.3
2025-07-04T12:00	9100	323	-33.9	-46.4	266	24	2.3
2025-07-04T12:00	9120	322	-34.1	-46.7	266	24	2.3
2025-07-04T12:00	9140	321	-34.3	-46.8	267	24	2.3
2025-07-04T12:00	9160	320	-34.5	-46.6	267	24	2.3
2025-07-04T12:00	9180	319	-34.8	-46.7	267	24	2.3
2025-07-04T12:00	9200	318	-34.9	-47.0	267	24	2.4
2025-07-04T12:00	9220	317	-35.0	-47.4	267	23	2.4
2025-07-04T12:00	9240	316	-35.1	-47.7	267	23	2.4
2025-07-04T12:00	9260	316	-35.4	-47.2	267	23	2.4
2025-07-04T12:00	9280	314	-35.7	-46.5	267	23	2.4
2025-07-04T12:00	9300	314	-35.8	-46.3	267	23	2.4
2025-07-04T12:00	9320	313	-35.9	-46.4	268	23	2.4
2025-07-04T12:00	9340	312	-36.1	-46.4	268	23	2.5
2025-07-04T12:00	9360	311	-36.2	-46.4	268	23	2.5
2025-07-04T12:00	9380	310	-36.4	-46.8	269	23	2.5
2025-07-04T12:00	9400	309	-36.5	-47.4	269	23	2.6
2025-07-04T12:00	9420	308	-36.5	-46.9	270	23	2.6
2025-07-04T12:00	9440	307	-36.6	-47.0	271	23	2.6
2025-07-04T12:00	9460	307	-36.7	-47.5	272	23	2.6
2025-07-04T12:00	9480	306	-36.9	-48.0	272	23	2.6
2025-07-04T12:00	9500	305	-37.1	-47.9	272	23	2.6
2025-07-04T12:00	9520	304	-37.3	-47.8	273	23	2.7
2025-07-04T12:00	9540	303	-37.4	-48.1	273	23	2.7
2025-07-04T12:00	9560	302	-37.6	-48.0	273	23	2.7
2025-07-04T12:00	9580	301	-37.8	-47.9	273	23	2.7
2025-07-04T12:00	9600	300	-37.9	-48.2	274	23	2.7
2025-07-04T12:00	9620	299	-38.2	-48.4	274	23	2.7
2025-07-04T12:00	9640	299	-38.3	-48.8	275	23	2.7
2025-07-04T12:00	9660	298	-38.5	-49.6	275	23	2.7
2025-07-04T12:00	9680	297	-38.7	-50.1	276	23	2.7
2025-07-04T12:00	9700	296	-38.7	-49.2	276	23	2.7
2025-07-04T12:00	9720	295	-38.8	-49.1	276	24	2.7
2025-07-04T12:00	9740	294	-38.9	-51.2	276	24	2.7
2025-07-04T12:00	9760	293	-38.9	-54.3	277	23	2.7
2025-07-04T12:00	9780	293	-39.0	-54.4	277	23	2.7
2025-07-04T12:00	9800	292	-39.0	-53.8	277	24	2.8
2025-07-04T12:00	9820	291	-39.2	-53.7	277	23	2.9
2025-07-04T12:00	9840	290	-39.3	-53.4	277	23	2.9
2025-07-04T12:00	9860	289	-39.5	-53.4	277	24	2.9
2025-07-04T12:00	9880	288	-39.7	-53.5	277	24	2.9
2025-07-04T12:00	9900	288	-39.8	-52.9	277	24	3.0
2025-07-04T12:00	9920	287	-39.9	-51.4	277	24	3.0
2025-07-04T12:00	9940	286	-40.1	-50.1	277	24	3.0
2025-07-04T12:00	9960	285	-40.2	-50.2	277	24	2.9
2025-07-04T12:00	9980	284	-40.4	-50.4	276	24	2.8
2025-07-04T12:00	10000	283	-40.5	-50.3	276	24	2.8
2025-07-04T12:00	10018	283	-40.6	-50.1	276	24	2.7
2025-07-04T12:00	10050	281	-41.0	-49.7	275	24	2.6
2025-07-04T12:00	10100	279	-41.5	-49.6	274	24	2.5
2025-07-04T12:00	10150	277	-41.9	-49.4	273	25	2.5
2025-07-04T12:00	10200	275	-42.2	-48.8	272	25	2.4
2025-07-04T12:00	10250	273	-42.5	-49.0	272	25	2.4
2025-07-04T12:00	10300	271	-43.0	-49.5	274	25	2.4
2025-07-04T12:00	10350	269	-43.4	-50.0	276	24	2.5
2025-07-04T12:00	10400	267	-43.9	-50.7	277	24	2.4
2025-07-04T12:00	10450	265	-44.3	-52.2	277	24	2.4
2025-07-04T12:00	10500	263	-44.6	-51.7	277	25	2.4
2025-07-04T12:00	10550	261	-44.9	-52.8	276	25	2.3
2025-07-04T12:00	10600	259	-45.2	-53.8	276	25	2.3
2025-07-04T12:00	10650	257	-45.6	-54.2	275	25	2.3
2025-07-04T12:00	10700	255	-46.0	-53.2	274	26	2.3
2025-07-04T12:00	10750	253	-46.3	-52.1	273	26	2.3
2025-07-04T12:00	10800	252	-46.7	-52.3	272	27	2.3
2025-07-04T12:00	10850	250	-47.0	-52.0	272	27	2.3
2025-07-04T12:00	10900	248	-47.6	-51.2	272	27	2.3
2025-07-04T12:00	10950	246	-47.9	-51.5	273	27	2.3
2025-07-04T12:00	11000	244	-48.3	-52.5	274	27	2.2
2025-07-04T12:00	11050	242	-48.7	-53.9	274	27	2.3
2025-07-04T12:00	11100	240	-49.0	-56.7	274	27	2.3
2025-07-04T12:00	11150	239	-49.4	-55.1	272	27	2.3
2025-07-04T12:00	11200	237	-49.7	-53.5	271	27	2.4
2025-07-04T12:00	11250	235	-50.0	-53.6	269	27	2.3
2025-07-04T12:00	11300	233	-50.5	-53.9	269	27	2.3
2025-07-04T12:00	11350	231	-50.9	-54.3	268	27	2.3
2025-07-04T12:00	11400	230	-51.3	-55.1	269	27	2.3
2025-07-04T12:00	11450	228	-51.6	-56.4	268	27	2.3
2025-07-04T12:00	11500	226	-52.0	-58.1	268	27	2.3
2025-07-04T12:00	11550	224	-52.4	-59.5	266	27	2.3
2025-07-04T12:00	11600	223	-52.7	-59.8	263	27	2.4
2025-07-04T12:00	11650	221	-53.0	-59.0	261	28	2.5
2025-07-04T12:00	11700	219	-53.3	-59.6	259	28	2.7
2025-07-04T12:00	11750	217	-52.6	-60.9	257	29	3.0
2025-07-04T12:00	11800	216	-52.2	-63.0	258	30	3.3
2025-07-04T12:00	11850	214	-50.9	-66.6	260	30	3.6
2025-07-04T12:00	11900	213	-50.2	-71.4	263	31	3.9
2025-07-04T12:00	11950	211	-49.9	-73.4	265	32	3.9
2025-07-04T12:00	12000	209	-49.6	-72.4	267	32	3.9
2025-07-04T12:00	12050	208	-49.7	-72.5	268	33	3.8
2025-07-04T12:00	12100	206	-49.7	-72.3	268	33	3.7
2025-07-04T12:00	12150	204	-49.7	-71.7	267	33	3.6
2025-07-04T12:00	12200	203	-49.9	-71.3	266	33	3.5
2025-07-04T12:00	12250	202	-50.1	-71.2	265	33	3.4
2025-07-04T12:00	12300	200	-50.3	-71.5	263	33	3.2
2025-07-04T12:00	12350	198	-50.3	-71.7	261	33	3.1
2025-07-04T12:00	12400	197	-50.3	-72.0	259	34	3.1
2025-07-04T12:00	12450	195	-50.2	-73.4	257	34	3.0
2025-07-04T12:00	12500	194	-50.4	-74.4	257	34	2.8
2025-07-04T12:00	12550	192	-50.4	-75.1	259	34	2.7
2025-07-04T12:00	12600	191	-50.4	-75.7	261	34	2.7
2025-07-04T12:00	12650	189	-50.4	-76.5	263	34	2.7
2025-07-04T12:00	12700	188	-50.3	-77.1	265	33	2.7
2025-07-04T12:00	12750	186	-50.4	-77.0	266	33	2.7
2025-07-04T12:00	12800	185	-50.6	-76.9	266	32	2.7
2025-07-04T12:00	12850	184	-50.8	-77.1	266	32	2.7
2025-07-04T12:00	12900	182	-50.9	-77.2	266	32	2.7
2025-07-04T12:00	12950	181	-51.2	-77.5	265	32	2.7
2025-07-04T12:00	13000	179	-51.5	-77.8	264	32	2.8
2025-07-04T12:00	13050	178	-51.4	-77.8	264	33	2.7
2025-07-04T12:00	13100	177	-51.7	-78.0	263	33	2.6
2025-07-04T12:00	13150	175	-52.1	-78.0	263	33	2.4
2025-07-04T12:00	13200	174	-52.6	-78.0	262	33	2.3
2025-07-04T12:00	13250	173	-53.1	-78.2	262	34	2.2
2025-07-04T12:00	13300	171	-53.5	-78.1	262	34	2.2
2025-07-04T12:00	13350	170	-54.1	-78.3	262	35	2.1
2025-07-04T12:00	13400	169	-54.4	-78.5	262	36	2.0
2025-07-04T12:00	13450	167	-54.6	-78.7	263	37	2.0
2025-07-04T12:00	13500	166	-55.0	-78.9	263	37	1.9
2025-07-04T12:00	13550	165	-55.5	-79.0	264	37	1.9
2025-07-04T12:00	13600	164	-55.8	-79.1	266	36	1.9
2025-07-04T12:00	13650	162	-56.1	-79.4	268	35	1.8
2025-07-04T12:00	13700	161	-56.2	-79.5	270	35	1.8
2025-07-04T12:00	13750	160	-56.4	-79.8	272	34	1.8
2025-07-04T12:00	13800	158	-56.6	-80.1	273	33	1.8
2025-07-04T12:00	13850	157	-56.4	-80.2	274	31	1.8
2025-07-04T12:00	13900	156	-55.9	-80.5	273	30	1.9
2025-07-04T12:00	13950	155	-55.3	-80.8	271	31	1.9
2025-07-04T12:00	14000	153	-55.3	-81.1	271	31	2.0
2025-07-04T12:00	14050	152	-55.5	-80.9	270	32	2.0
2025-07-04T12:00	14100	151	-55.7	-80.7	271	32	2.0
2025-07-04T12:00	14150	150	-56.0	-80.9	272	32	2.0
2025-07-04T12:00	14200	149	-56.1	-81.4	274	31	2.0
2025-07-04T12:00	14250	148	-55.6	-81.8	276	31	2.0
2025-07-04T12:00	14300	147	-55.3	-81.9	278	30	2.1
2025-07-04T12:00	14350	145	-55.5	-82.0	280	29	2.1
2025-07-04T12:00	14400	144	-55.7	-81.9	282	28	2.1
2025-07-04T12:00	14450	143	-56.0	-81.8	282	26	2.1
2025-07-04T12:00	14500	142	-56.4	-81.9	281	25	2.1
2025-07-04T12:00	14550	141	-56.6	-82.0	279	24	2.1
2025-07-04T12:00	14600	140	-56.7	-82.1	276	23	2.2
2025-07-04T12:00	14650	139	-56.6	-82.2	273	22	2.1
2025-07-04T12:00	14700	138	-56.5	-82.2	271	21	2.2
2025-07-04T12:00	14750	136	-56.6	-82.3	267	20	2.2
2025-07-04T12:00	14800	135	-56.8	-82.4	263	19	2.3
2025-07-04T12:00	14850	134	-56.8	-82.5	259	19	2.4
2025-07-04T12:00	14900	133	-56.8	-82.7	258	20	2.4
2025-07-04T12:00	14950	132	-57.1	-82.9	258	20	2.4
2025-07-04T12:00	15000	131	-57.2	-83.1	256	19	2.4
2025-07-04T12:00	15050	130	-57.3	-83.2	253	19	2.4
2025-07-04T12:00	15100	129	-57.5	-83.3	250	18	2.4
2025-07-04T12:00	15150	128	-57.5	-83.4	249	19	2.4
2025-07-04T12:00	15200	127	-57.6	-83.4	250	19	2.4
2025-07-04T12:00	15250	126	-57.7	-83.4	252	20	2.5
2025-07-04T12:00	15300	125	-57.8	-83.3	255	20	2.6
2025-07-04T12:00	15350	124	-58.1	-83.4	258	20	2.8
2025-07-04T12:00	15400	123	-58.1	-83.6	258	19	3.0
2025-07-04T12:00	15450	122	-57.8	-83.6	254	19	3.1
2025-07-04T12:00	15500	121	-57.6	-83.6	249	18	3.2
2025-07-04T12:00	15550	120	-57.9	-83.7	243	18	3.3
2025-07-04T12:00	15600	119	-58.1	-83.8	240	18	3.3
2025-07-04T12:00	15650	118	-58.4	-83.9	239	18	3.3
2025-07-04T12:00	15700	117	-58.5	-83.9	238	18	3.4
2025-07-04T12:00	15750	116	-58.4	-83.9	237	18	3.5
2025-07-04T12:00	15800	116	-58.5	-84.1	235	18	3.7
2025-07-04T12:00	15850	115	-58.4	-84.1	233	19	3.8
2025-07-04T12:00	15900	114	-58.5	-84.2	232	20	3.8
2025-07-04T12:00	15950	113	-58.5	-84.4	230	20	3.7
2025-07-04T12:00	16000	112	-58.5	-84.3	227	21	3.6
2025-07-04T12:00	16050	111	-58.8	-84.3	225	21	3.6
2025-07-04T12:00	16100	110	-59.4	-84.4	226	21	3.5
2025-07-04T12:00	16150	109	-59.7	-84.6	229	22	3.5
2025-07-04T12:00	16200	108	-60.0	-84.7	233	22	3.4
2025-07-04T12:00	16250	108	-60.1	-84.8	238	22	3.3
2025-07-04T12:00	16300	107	-60.3	-85.1	244	22	3.2
2025-07-04T12:00	16350	106	-60.0	-85.2	250	21	3.1
2025-07-04T12:00	16400	105	-59.6	-85.5	256	20	3.1
2025-07-04T12:00	16450	104	-58.4	-85.3	261	20	3.4
2025-07-04T12:00	16500	103	-57.7	-85.1	265	20	4.2
2025-07-04T12:00	16550	102	-57.8	-85.1	269	20	5.1
2025-07-04T12:00	16600	102	-57.8	-84.9	273	20	5.5
2025-07-04T12:00	16650	101	-58.2	-85.0	277	20	5.7
2025-07-04T12:00	16700	100	-58.6	-85.0	278	19	5.8
2025-07-04T12:00	16750	99	-58.9	-85.1	277	19	5.8
2025-07-04T12:00	16800	99	-59.0	-85.2	276	19	5.7
2025-07-04T12:00	16850	98	-59.1	-85.2	277	19	5.5
2025-07-04T12:00	16900	97	-59.6	-85.3	278	20	5.3
2025-07-04T12:00	16950	96	-59.9	-85.4	281	20	5.2
2025-07-04T12:00	17000	95	-60.0	-85.5	284	20	5.0
2025-07-04T12:00	17050	95	-60.2	-85.6	286	20	4.8
2025-07-04T12:00	17100	94	-60.6	-85.7	288	20	4.7
2025-07-04T12:00	17150	93	-60.8	-85.7	291	19	4.7
2025-07-04T12:00	17200	92	-61.1	-85.8	292	18	4.5
2025-07-04T12:00	17250	92	-61.2	-85.9	292	16	4.4
2025-07-04T12:00	17300	91	-61.4	-86.1	292	14	4.3
2025-07-04T12:00	17350	90	-61.5	-86.3	290	12	4.3
2025-07-04T12:00	17400	89	-61.1	-86.3	283	10	4.5
2025-07-04T12:00	17450	89	-60.7	-86.3	274	9	4.5
2025-07-04T12:00	17500	88	-60.4	-86.2	272	10	4.3
2025-07-04T12:00	17550	87	-60.4	-86.1	276	10	4.3
2025-07-04T12:00	17600	87	-60.4	-86.1	278	10	4.3
2025-07-04T12:00	17650	86	-60.3	-86.0	279	9	4.2
2025-07-04T12:00	17700	85	-60.5	-86.2	279	9	4.2
2025-07-04T12:00	17750	85	-60.3	-86.1	274	8	4.5
2025-07-04T12:00	17800	84	-60.3	-86.2	268	6	4.6
2025-07-04T12:00	17850	83	-60.2	-86.2	259	4	4.6
2025-07-04T12:00	17900	83	-60.1	-86.2	242	4	4.6
2025-07-04T12:00	17950	82	-60.2	-86.3	229	4	4.6
2025-07-04T12:00	18000	81	-60.1	-86.2	228	5	4.6
2025-07-04T12:00	18050	81	-60.2	-86.4	228	6	4.7
2025-07-04T12:00	18100	80	-60.0	-86.6	220	6	4.7
2025-07-04T12:00	18150	79	-59.1	-86.3	215	7	4.9
2025-07-04T12:00	18200	79	-59.1	-86.2	216	8	5.4
2025-07-04T12:00	18250	78	-59.5	-86.2	217	9	5.9
2025-07-04T12:00	18300	77	-59.9	-86.2	218	9	6.4
2025-07-04T12:00	18350	77	-60.4	-86.2	222	9	6.4
2025-07-04T12:00	18400	76	-60.8	-86.5	229	8	6.4
2025-07-04T12:00	18450	76	-60.5	-86.5	233	8	6.6
2025-07-04T12:00	18500	75	-60.4	-86.6	234	7	6.9
2025-07-04T12:00	18550	74	-60.3	-86.5	239	6	7.1
2025-07-04T12:00	18600	74	-60.4	-86.6	247	5	7.8
2025-07-04T12:00	18650	73	-60.6	-86.7	247	5	8.0
2025-07-04T12:00	18700	73	-60.4	-86.5	239	5	7.8
2025-07-04T12:00	18750	72	-60.5	-86.5	234	6	7.8
2025-07-04T12:00	18800	71	-60.8	-86.7	237	6	7.7
2025-07-04T12:00	18850	71	-61.0	-86.8	240	7	7.7
2025-07-04T12:00	18900	70	-60.9	-86.8	239	8	7.8
2025-07-04T12:00	18950	70	-60.8	-86.7	237	9	8.0
2025-07-04T12:00	19000	69	-61.1	-86.9	242	10	8.1
2025-07-04T12:00	19050	69	-60.9	-87.0	249	10	8.2
2025-07-04T12:00	19100	68	-60.1	-86.9	256	10	8.3
2025-07-04T12:00	19150	68	-59.8	-86.9	262	9	8.1
2025-07-04T12:00	19200	67	-60.1	-86.7	265	9	7.8
2025-07-04T12:00	19250	66	-60.4	-86.7	265	9	7.5
2025-07-04T12:00	19300	66	-60.6	-86.8	264	9	7.4
2025-07-04T12:00	19350	65	-60.8	-87.0	265	9	7.3
2025-07-04T12:00	19400	65	-60.4	-87.0	269	8	7.3
2025-07-04T12:00	19450	64	-60.2	-87.1	279	7	7.3
2025-07-04T12:00	19500	64	-60.0	-87.2	288	6	7.4
2025-07-04T12:00	19550	63	-59.3	-87.0	293	6	7.4
2025-07-04T12:00	19600	63	-59.3	-87.0	298	6	7.5
2025-07-04T12:00	19650	62	-59.0	-86.9	299	4	7.7
2025-07-04T12:00	19700	62	-58.5	-86.8	285	1	7.9
2025-07-04T12:00	19750	61	-58.1	-86.5	146	2	8.1
2025-07-04T12:00	19800	61	-58.3	-86.5	145	3	8.0
2025-07-04T12:00	19850	60	-58.6	-86.7	158	5	7.9
2025-07-04T12:00	19900	60	-58.0	-86.8	172	6	7.8
2025-07-04T12:00	19950	59	-57.1	-86.5	180	7	7.9
2025-07-04T12:00	20000	59	-56.7	-86.4	179	7	8.2
2025-07-04T12:00	20050	59	-56.5		176	7	9.0
2025-07-04T12:00	20100	58	-56.1		178	7	9.2
2025-07-04T12:00	20150	58	-56.0		184	7	9.2
2025-07-04T12:00	20200	57	-56.3		192	7	9.2
2025-07-04T12:00	20250	57	-56.5		198	8	9.2
2025-07-04T12:00	20300	56	-56.6		202	8	9.2
2025-07-04T12:00	20350	56	-56.9		205	9	9.2
2025-07-04T12:00	20400	55	-57.3		207	9	9.2
2025-07-04T12:00	20450	55	-57.3		208	8	9.2
2025-07-04T12:00	20500	54	-57.3		205	7	9.1
2025-07-04T12:00	20550	54	-57.5		193	6	9.1
2025-07-04T12:00	20600	54	-57.6		176	5	9.2
2025-07-04T12:00	20650	53	-57.5		167	4	9.3
2025-07-04T12:00	20700	53	-56.8		188	2	9.6
2025-07-04T12:00	20750	52	-56.1		238	2	10.2
2025-07-04T12:00	20800	52	-56.0		267	3	10.7
2025-07-04T12:00	20850	52	-55.9		282	3	11.1
2025-07-04T12:00	20900	51	-55.9		292	3	11.3
2025-07-04T12:00	20950	51	-56.0		296	3	11.5
2025-07-04T12:00	21000	50	-56.1		296	3	11.5
2025-07-04T12:00	21050	50	-56.0		300	3	11.6
2025-07-04T12:00	21100	50	-55.7		307	1	11.6
2025-07-04T12:00	21150	49	-55.7		31	0	11.7
2025-07-04T12:00	21200	49	-55.8		79	2	11.6
2025-07-04T12:00	21250	48	-55.7		77	3	11.7
2025-07-04T12:00	21300	48	-55.6		79	3	11.7
2025-07-04T12:00	21350	48	-55.4		91	4	11.8
2025-07-04T12:00	21400	47	-55.4		101	5	11.8
2025-07-04T12:00	21450	47	-55.5		106	5	11.9
2025-07-04T12:00	21500	47	-55.5		112	5	12.0
2025-07-04T12:00	21550	46	-55.2		120	5	12.2
2025-07-04T12:00	21600	46	-55.2		129	5	12.2
2025-07-04T12:00	21650	45	-55.6		137	5	12.2
2025-07-04T12:00	21700	45	-55.8		141	5	12.2
2025-07-04T12:00	21750	45	-55.9		136	5	12.1
2025-07-04T12:00	21800	44	-55.5		123	4	12.1
2025-07-04T12:00	21850	44	-55.5		108	4	12.2
2025-07-04T12:00	21900	44	-55.5		91	4	12.2
2025-07-04T12:00	21950	43	-55.7		80	4	12.2
2025-07-04T12:00	22000	43	-55.4		82	5	12.1
2025-07-04T12:00	22050	43	-55.0		96	5	12.2
2025-07-04T12:00	22100	42	-54.7		113	6	12.2
2025-07-04T12:00	22150	42	-54.5		127	6	12.2
2025-07-04T12:00	22200	42	-54.1		136	6	12.1
2025-07-04T12:00	22250	41	-53.8		139	7	12.0
2025-07-04T12:00	22300	41	-53.9		140	7	12.0
2025-07-04T12:00	22350	41	-54.0		141	7	12.0
2025-07-04T12:00	22400	40	-54.0		143	6	11.9
2025-07-04T12:00	22450	40	-53.8		140	4	12.0
2025-07-04T12:00	22500	40	-53.4		115	3	12.2
2025-07-04T12:00	22550	40	-52.7		59	3	12.5
2025-07-04T12:00	22600	39	-52.3		39	4	12.7
2025-07-04T12:00	22650	39	-52.1		41	5	13.0
2025-07-04T12:00	22700	39	-52.0		53	6	13.1
2025-07-04T12:00	22750	38	-51.7		62	6	13.3
2025-07-04T12:00	22800	38	-51.4		63	7	13.5
2025-07-04T12:00	22850	38	-50.7		62	8	13.6
2025-07-04T12:00	22900	37	-50.5		68	8	13.8
2025-07-04T12:00	22950	37	-50.5		80	8	13.9
2025-07-04T12:00	23000	37	-50.6		91	7	14.0
2025-07-04T12:00	23050	37	-50.8		97	6	14.0
2025-07-04T12:00	23100	36	-51.0		95	7	14.0
2025-07-04T12:00	23150	36	-50.8		94	8	14.0
2025-07-04T12:00	23200	36	-50.7		95	9	14.0
2025-07-04T12:00	23250	35	-50.8		92	9	14.0
2025-07-04T12:00	23300	35	-50.9		91	10	13.9
2025-07-04T12:00	23350	35	-50.8		93	10	13.9
2025-07-04T12:00	23400	35	-50.6		98	9	13.9
2025-07-04T12:00	23450	34	-50.6		105	9	14.0
2025-07-04T12:00	23500	34	-50.6		114	8	14.0
2025-07-04T12:00	23550	34	-50.7		125	8	14.1
2025-07-04T12:00	23600	34	-50.9		138	8	14.1
2025-07-04T12:00	23650	33	-51.0		151	8	14.2
2025-07-04T12:00	23700	33	-51.2		158	9	14.2
2025-07-04T12:00	23750	33	-50.8		159	8	14.3
2025-07-04T12:00	23800	33	-50.6		157	7	14.3
2025-07-04T12:00	23850	32	-50.8		150	7	14.2
2025-07-04T12:00	23900	32	-51.0		139	7	14.1
2025-07-04T12:00	23950	32	-51.0		128	8	14.1
2025-07-04T12:00	24000	32	-51.2		120	9	14.0
2025-07-04T12:00	24050	31	-51.5		115	10	13.8
2025-07-04T12:00	24100	31	-51.9		112	11	13.7
2025-07-04T12:00	24150	31	-52.0		111	10	13.7
2025-07-04T12:00	24200	31	-52.1		110	10	13.6
2025-07-04T12:00	24250	30	-52.4		110	9	13.4
2025-07-04T12:00	24300	30	-52.7		112	8	13.3
2025-07-04T12:00	24350	30	-52.9		112	7	13.2
2025-07-04T12:00	24400	30	-53.0		108	7	13.0
2025-07-04T12:00	24450	29	-53.1		106	7	12.8
2025-07-04T12:00	24500	29	-53.1		106	8	12.6
2025-07-04T12:00	24550	29	-52.9		102	9	12.5
2025-07-04T12:00	24600	29	-52.8		96	9	12.4
2025-07-04T12:00	24650	29	-52.8		95	9	12.3
2025-07-04T12:00	24700	28	-52.8		99	9	12.2
2025-07-04T12:00	24750	28	-52.8		106	9	12.2
2025-07-04T12:00	24800	28	-52.8		113	9	12.1
2025-07-04T12:00	24850	28	-52.8		119	9	12.0
2025-07-04T12:00	24900	27	-52.6		122	9	12.0
2025-07-04T12:00	24950	27	-52.4		122	9	11.9
2025-07-04T12:00	25000	27	-52.1		122	9	11.8
2025-07-04T12:00	25050	27	-52.0		121	9	11.7
2025-07-04T12:00	25100	27	-52.2		120	9	11.5
2025-07-04T12:00	25150	26	-52.2		123	9	11.4
2025-07-04T12:00	25200	26	-52.0		130	8	11.3
2025-07-04T12:00	25250	26	-51.8		139	7	11.2
2025-07-04T12:00	25300	26	-51.6		147	6	11.2
2025-07-04T12:00	25350	26	-51.6		148	5	11.2
2025-07-04T12:00	25400	25	-51.4		133	3	11.2
2025-07-04T12:00	25450	25	-50.8		101	3	11.2
2025-07-04T12:00	25500	25	-50.6		85	5	11.3
2025-07-04T12:00	25550	25	-50.6		82	6	11.4
2025-07-04T12:00	25600	25	-50.6		86	7	11.4
2025-07-04T12:00	25650	24	-50.5		92	7	11.5
2025-07-04T12:00	25700	24	-50.5		99	6	11.5
2025-07-04T12:00	25750	24	-50.4		101	6	11.6
2025-07-04T12:00	25800	24	-50.5		96	6	11.7
2025-07-04T12:00	25850	24	-50.8		90	6	11.8
2025-07-04T12:00	25900	24	-50.8		85	7	11.8
2025-07-04T12:00	25950	23	-50.7		81	8	11.9
2025-07-04T12:00	26000	23	-50.4		77	9	12.0
2025-07-04T12:00	26050	23	-50.3		74	9	12.2
2025-07-04T12:00	26100	23	-50.0		73	9	12.4
2025-07-04T12:00	26150	23	-49.6		69	8	12.6
2025-07-04T12:00	26200	23	-49.4		64	8	12.8
2025-07-04T12:00	26250	22	-49.4		61	9	12.9
2025-07-04T12:00	26300	22	-49.4		65	9	13.0
2025-07-04T12:00	26350	22	-49.3		73	10	13.0
2025-07-04T12:00	26400	22	-49.4		79	10	13.0
2025-07-04T12:00	26450	22	-49.4		80	11	13.0
2025-07-04T12:00	26500	22	-49.1		76	11	13.0
2025-07-04T12:00	26550	21	-49.1		73	11	12.9
2025-07-04T12:00	26600	21	-49.1		74	11	12.8
2025-07-04T12:00	26650	21	-49.0		77	12	12.8
2025-07-04T12:00	26700	21	-48.7		83	12	12.8
2025-07-04T12:00	26750	21	-48.4		90	13	12.8
2025-07-04T12:00	26800	21	-48.3		93	14	12.6
2025-07-04T12:00	26850	20	-48.3		93	14	12.4
2025-07-04T12:00	26900	20	-48.1		94	13	12.4
2025-07-04T12:00	26950	20	-47.8		98	13	12.3
2025-07-04T12:00	27000	20	-47.6		101	12	12.3
2025-07-04T12:00	27050	20	-47.2		99	11	12.3
2025-07-04T12:00	27100	20	-46.7		93	11	12.3
2025-07-04T12:00	27150	19	-46.4		86	11	12.2
2025-07-04T12:00	27200	19	-46.0		82	12	12.3
2025-07-04T12:00	27250	19	-45.9		80	13	12.2
2025-07-04T12:00	27300	19	-45.9		80	13	12.3
2025-07-04T12:00	27350	19	-45.8		83	13	12.2
2025-07-04T12:00	27400	19	-45.7		87	14	12.2
2025-07-04T12:00	27450	19	-45.7		91	13	12.2
2025-07-04T12:00	27500	18	-45.7		93	13	12.2
2025-07-04T12:00	27550	18	-45.6		94	12	12.0
2025-07-04T12:00	27600	18	-45.6		96	12	11.9
2025-07-04T12:00	27650	18	-45.7		99	13	12.0
2025-07-04T12:00	27700	18	-45.8		101	13	11.8
2025-07-04T12:00	27750	18	-46.0		102	13	11.8
2025-07-04T12:00	27800	18	-45.9		104	12	11.7
2025-07-04T12:00	27850	18	-45.7		107	11	11.7
2025-07-04T12:00	27900	17	-45.7		107	11	11.6
2025-07-04T12:00	27950	17	-45.7		104	10	11.6
2025-07-04T12:00	28000	17	-45.4		101	10	11.7
2025-07-04T12:00	28050	17	-45.2		98	10	11.4
2025-07-04T12:00	28100	17	-45.1		95	11	11.5
2025-07-04T12:00	28150	17	-44.9		92	11	11.4
2025-07-04T12:00	28200	17	-44.6		93	11	11.2
2025-07-04T12:00	28250	17	-44.6		95	10	11.5
2025-07-04T12:00	28300	16	-44.6		97	10	11.1
2025-07-04T12:00	28350	16	-44.5		94	10	11.1
2025-07-04T12:00	28400	16	-44.5		89	10	10.8
2025-07-04T12:00	28450	16	-44.6		84	10	11.2
2025-07-04T12:00	28500	16	-44.8		80	10	11.1
2025-07-04T12:00	28550	16	-45.1		78	10	11.1
2025-07-04T12:00	28600	16	-45.3		77	9	11.0
2025-07-04T12:00	28650	16	-45.4		76	9	10.9
2025-07-04T12:00	28700	15	-45.4		76	10	10.7
2025-07-04T12:00	28750	15	-45.4		80	11	10.7
2025-07-04T12:00	28800	15	-45.4		86	12	10.4
2025-07-04T12:00	28850	15	-45.6		92	13	10.3
2025-07-04T12:00	28900	15	-45.6		97	13	10.4
2025-07-04T12:00	28950	15	-45.5		98	13	10.2
2025-07-04T12:00	29000	15	-45.3		96	13	10.2
2025-07-04T12:00	29050	15	-44.8		92	12	10.1
2025-07-04T12:00	29100	15	-44.3		88	12	10.1
2025-07-04T12:00	29150	14	-44.1		88	12	10.0
2025-07-04T12:00	29200	14	-44.0		91	13	10.1
2025-07-04T12:00	29250	14	-44.0		95	14	10.2
2025-07-04T12:00	29300	14	-43.9		99	16	10.1
2025-07-04T12:00	29350	14	-43.7		101	17	9.8
2025-07-04T12:00	29400	14	-43.7		100	17	9.8
2025-07-04T12:00	29450	14	-43.8		98	16	9.6
2025-07-04T12:00	29500	14	-43.8		94	15	9.5
2025-07-04T12:00	29550	14	-43.7		92	15	9.7
2025-07-04T12:00	29600	13	-43.7		91	15	9.7
2025-07-04T12:00	29650	13	-43.8		93	16	9.4
2025-07-04T12:00	29700	13	-43.7		95	17	9.4
2025-07-04T12:00	29750	13	-43.5		99	18	9.3
2025-07-04T12:00	29800	13	-43.4		103	19	9.6
2025-07-04T12:00	29850	13	-43.4		106	19	9.4
2025-07-04T12:00	29900	13	-43.3		108	18	9.4
2025-07-04T12:00	29950	13	-43.2		111	17	9.2
2025-07-04T12:00	30000	13	-43.1		114	16	9.2
2025-07-04T12:00	30050	13	-43.0		118	15	9.1
2025-07-04T12:00	30100	13	-42.9		120	13	9.3
2025-07-04T12:00	30150	12	-42.8		120	12	9.1
2025-07-04T12:00	30200	12	-42.8		119	10	8.9
2025-07-04T12:00	30250	12	-42.6		117	9	8.9
2025-07-04T12:00	30300	12	-42.4		114	9	9.0
2025-07-04T12:00	30350	12	-42.2		111	10	9.0
2025-07-04T12:00	30400	12	-42.1		108	10	8.8
2025-07-04T12:00	30450	12	-42.1		105	11	8.8
2025-07-04T12:00	30500	12	-42.0		102	12	8.8
2025-07-04T12:00	30550	12	-41.7		101	13	8.7
2025-07-04T12:00	30600	12	-41.4		105	13	8.7
2025-07-04T12:00	30650	12	-41.3		110	12	8.6
2025-07-04T12:00	30700	11	-41.3		114	12	8.6
2025-07-04T12:00	30750	11	-41.2		111	12	8.6
2025-07-04T12:00	30800	11	-40.8		104	11	8.6
2025-07-04T12:00	30850	11	-40.5		94	11	8.5
2025-07-04T12:00	30900	11	-40.3		85	12	8.3
2025-07-04T12:00	30950	11	-40.1		80	13	8.4
2025-07-04T12:00	31000	11	-39.7		79	14	8.3
2025-07-04T12:00	31050	11	-39.4		80	15	8.3
2025-07-04T12:00	31100	11	-39.1		80	15	8.2
2025-07-04T12:00	31150	11	-38.9		80	15	8.1
2025-07-04T12:00	31200	11	-38.9		79	14	8.1
2025-07-04T12:00	31250	11	-39.0		78	14	8.1
2025-07-04T12:00	31300	11	-39.2		76	14	7.9
2025-07-04T12:00	31350	10	-39.2		76	14	7.9
2025-07-04T12:00	31400	10	-39.2		78	15	7.9
2025-07-04T12:00	31450	10	-39.2		82	15	7.8
2025-07-04T12:00	31500	10	-39.3		86	15	7.7
2025-07-04T12:00	31550	10	-39.3		88	16	7.7
2025-07-04T12:00	31600	10	-39.4		89	18	7.6
2025-07-04T12:00	31650	10	-39.6		88	18	7.6
2025-07-04T12:00	31700	10	-39.6		86	18	7.5
2025-07-04T12:00	31750	10	-39.3		85	17	7.4
2025-07-04T12:00	31800	10	-39.2		85	16	7.4
2025-07-04T12:00	31850	10	-39.0		87	16	7.3
2025-07-04T12:00	31900	10	-38.9		88	16	7.3
2025-07-04T12:00	31950	10	-38.9		87	16	7.2
2025-07-04T12:00	32000	9	-38.8		86	16	7.2
2025-07-04T12:00	32050	9	-38.7		85	16	7.0
2025-07-04T12:00	32100	9	-38.7		86	16	6.9
2025-07-04T12:00	32150	9	-38.5		86	16	6.9
2025-07-04T12:00	32200	9	-38.3		84	17	7.0
2025-07-04T12:00	32250	9	-38.1		84	17	6.9
2025-07-04T12:00	32300	9	-38.0		85	17	6.7
2025-07-04T12:00	32350	9	-37.9		86	18	6.6
2025-07-04T12:00	32400	9	-37.8		87	18	6.7
2025-07-04T12:00	32450	9	-37.8		87	17	6.5
2025-07-04T12:00	32500	9	-38.0		88	18	6.6
2025-07-04T12:00	32550	9	-38.2		91	18	6.6
2025-07-04T12:00	32600	9	-38.4		95	18	6.5
2025-07-04T12:00	32650	9	-38.5		98	19	6.3
2025-07-04T12:00	32700	9	-38.5		100	20	6.4
2025-07-04T12:00	32750	9	-38.5		101	19	6.3
2025-07-04T12:00	32800	8	-38.4		103	19	6.2
2025-07-04T12:00	32850	8	-38.3		105	19	6.2
2025-07-04T12:00	32900	8	-38.1		107	18	6.0
2025-07-04T12:00	32950	8	-37.7		107	17	6.0
2025-07-04T12:00	33000	8	-37.4		105	15	5.8
2025-07-04T12:00	33050	8	-37.3		101	14	5.8
2025-07-04T12:00	33100	8	-37.2		98	15	5.8
2025-07-04T12:00	33150	8	-36.8		97	15	5.9
2025-07-04T12:00	33200	8	-36.6		96	15	5.8
2025-07-04T12:00	33250	8	-36.3		95	14	5.6
2025-07-04T12:00	33300	8	-36.1		94	13	5.7
2025-07-04T12:00	33350	8	-36.0		93	14	5.6
2025-07-04T12:00	33400	8	-35.9		95	15	5.7
2025-07-04T12:00	33450	8	-35.7		100	15	5.6
2025-07-04T12:00	33500	8	-35.7		104	15	5.4
2025-07-04T12:00	33550	8	-35.6		107	15	5.4
2025-07-04T12:00	33600	8	-35.3		106	15	5.2
2025-07-04T12:00	33650	7	-35.0		104	14	5.3
2025-07-04T12:00	33700	7	-34.8		102	14	5.4
2025-07-04T12:00	33750	7	-34.6		97	14	5.3
2025-07-04T12:00	33800	7	-34.4		93	14	5.3
2025-07-04T12:00	33850	7	-34.2		89	14	5.3
2025-07-04T12:00	33900	7	-34.1		88	14	5.3
2025-07-04T12:00	33950	7	-34.0		89	15	5.3
2025-07-04T12:00	34000	7	-33.8		90	15	5.3
2025-07-04T12:00	34050	7	-33.7		91	16	5.3
2025-07-04T12:00	34100	7	-33.6		88	15	5.2
2025-07-04T12:00	34150	7	-33.5		85	14	5.1
2025-07-04T12:00	34200	7	-33.4		82	13	5.1
2025-07-04T12:00	34250	7	-33.2		80	12	5.1
2025-07-04T12:00	34300	7	-32.9		78	12	5.0
2025-07-04T12:00	34350	7	-32.6		78	12	5.1
2025-07-05T00:00	491	964	17.1	12.0	200	0	
2025-07-05T00:00	501	962	18.9	11.5	150	0	
2025-07-05T00:00	520	961	20.7	11.6	135	1	
2025-07-05T00:00	540	959	21.4	11.3	127	1	
2025-07-05T00:00	560	957	21.9	10.6	111	1	
2025-07-05T00:00	580	955	21.9	10.6	84	1	
2025-07-05T00:00	600	952	21.8	10.6	54	1	
2025-07-05T00:00	620	950	21.8	10.1	42	1	
2025-07-05T00:00	640	948	22.1	9.6	39	1	
2025-07-05T00:00	660	946	22.0	9.4	40	2	
2025-07-05T00:00	680	944	21.9	9.2	44	2	
2025-07-05T00:00	700	941	21.8	9.1	48	3	
2025-07-05T00:00	720	939	21.7	9.0	51	3	
2025-07-05T00:00	740	937	21.5	9.0	53	3	
2025-07-05T00:00	760	935	21.4	8.7	54	3	
2025-07-05T00:00	780	933	21.5	8.1	54	3	
2025-07-05T00:00	800	931	21.5	8.1	54	4	
2025-07-05T00:00	820	928	21.3	8.1	53	4	
2025-07-05T00:00	840	926	21.2	8.1	53	4	
2025-07-05T00:00	860	924	21.0	8.0	53	4	
2025-07-05T00:00	880	922	21.0	7.6	53	5	
2025-07-05T00:00	900	920	21.0	7.2	53	5	
2025-07-05T00:00	920	918	21.0	6.9	54	6	
2025-07-05T00:00	940	916	20.8	6.8	55	6	
2025-07-05T00:00	960	914	20.7	6.8	56	6	
2025-07-05T00:00	980	912	20.6	7.3	57	6	
2025-07-05T00:00	1000	909	20.4	7.8	58	6	
2025-07-05T00:00	1020	907	20.2	7.8	59	6	
2025-07-05T00:00	1040	905	20.0	7.7	61	6	
2025-07-05T00:00	1060	903	19.8	7.8	63	6	
2025-07-05T00:00	1080	901	19.7	8.0	64	6	
2025-07-05T00:00	1100	899	19.5	8.2	65	6	
2025-07-05T00:00	1120	897	19.4	8.3	65	6	
2025-07-05T00:00	1140	895	19.2	8.5	65	5	
2025-07-05T00:00	1160	893	19.0	9.1	65	5	
2025-07-05T00:00	1180	890	18.8	9.4	66	5	
2025-07-05T00:00	1200	888	18.6	9.9	67	5	
2025-07-05T00:00	1220	886	18.4	10.2	69	5	
2025-07-05T00:00	1240	884	18.2	10.9	70	5	
2025-07-05T00:00	1260	882	17.9	11.3	71	5	
2025-07-05T00:00	1280	880	17.7	11.6	72	5	
2025-07-05T00:00	1300	878	17.5	12.5	72	5	
2025-07-05T00:00	1320	876	17.3	12.9	71	5	
2025-07-05T00:00	1340	874	17.2	12.7	69	5	
2025-07-05T00:00	1360	872	17.1	12.6	65	4	
2025-07-05T00:00	1380	870	17.0	12.6	59	4	
2025-07-05T00:00	1400	868	17.0	12.6	53	4	
2025-07-05T00:00	1420	866	16.9	12.4	48	4	
2025-07-05T00:00	1440	864	16.9	12.3	42	4	
2025-07-05T00:00	1460	862	16.7	12.3	38	3	
2025-07-05T00:00	1480	860	16.5	12.3	35	3	
2025-07-05T00:00	1500	858	16.3	12.2	35	4	
2025-07-05T00:00	1520	856	16.2	12.1	36	3	
2025-07-05T00:00	1540	854	16.0	11.8	38	3	
2025-07-05T00:00	1560	852	15.9	11.7	41	3	
2025-07-05T00:00	1580	850	15.7	11.6	45	3	
2025-07-05T00:00	1600	848	15.6	11.4	49	3	
2025-07-05T00:00	1620	846	15.4	11.3	53	3	
2025-07-05T00:00	1640	844	15.2	11.5	57	3	
2025-07-05T00:00	1660	842	15.0	11.8	59	2	
2025-07-05T00:00	1680	840	14.8	11.8	58	2	
2025-07-05T00:00	1700	838	14.7	11.9	54	2	
2025-07-05T00:00	1720	836	14.6	11.8	48	2	
2025-07-05T00:00	1740	834	14.6	11.1	39	1	
2025-07-05T00:00	1760	832	14.5	10.8	21	1	
2025-07-05T00:00	1780	830	14.4	10.2	348	1	
2025-07-05T00:00	1800	828	14.3	9.9	304	1	
2025-07-05T00:00	1820	826	14.3	9.5	278	1	
2025-07-05T00:00	1840	824	14.3	9.2	268	2	
2025-07-05T00:00	1860	822	14.2	8.9	263	2	
2025-07-05T00:00	1880	820	14.1	8.7	261	3	
2025-07-05T00:00	1900	818	14.0	8.3	260	4	
2025-07-05T00:00	1920	816	14.0	7.5	260	4	
2025-07-05T00:00	1940	814	14.1	6.6	260	4	
2025-07-05T00:00	1960	813	13.9	6.2	261	5	
2025-07-05T00:00	1980	811	13.9	5.5	262	5	
2025-07-05T00:00	2000	809	13.9	4.8	264	5	
2025-07-05T00:00	2020	807	13.7	4.5	267	5	
2025-07-05T00:00	2040	805	13.5	4.4	269	5	
2025-07-05T00:00	2060	803	13.4	4.2	270	5	
2025-07-05T00:00	2080	801	13.2	4.3	271	5	
2025-07-05T00:00	2100	799	13.0	4.1	271	5	
2025-07-05T00:00	2120	797	12.8	4.1	271	5	
2025-07-05T00:00	2140	795	12.6	4.0	270	5	
2025-07-05T00:00	2160	793	12.4	3.9	269	5	
2025-07-05T00:00	2180	792	12.2	3.8	266	5	
2025-07-05T00:00	2200	790	12.0	3.7	263	5	
2025-07-05T00:00	2220	788	11.9	3.7	261	5	
2025-07-05T00:00	2240	786	11.7	3.5	261	5	
2025-07-05T00:00	2260	784	11.5	3.4	261	5	
2025-07-05T00:00	2280	782	11.3	3.4	263	5	
2025-07-05T00:00	2300	780	11.1	3.4	266	5	
2025-07-05T00:00	2320	778	10.9	3.2	269	5	
2025-07-05T00:00	2340	777	10.7	3.2	271	5	
2025-07-05T00:00	2360	775	10.6	2.8	273	5	
2025-07-05T00:00	2380	773	10.4	2.8	273	6	
2025-07-05T00:00	2400	771	10.2	2.3	271	6	
2025-07-05T00:00	2420	769	10.2	0.8	268	5	
2025-07-05T00:00	2440	767	10.2	-0.5	262	5	
2025-07-05T00:00	2460	766	10.2	-1.7	256	6	
2025-07-05T00:00	2480	764	10.1	-2.0	250	6	
2025-07-05T00:00	2500	762	9.9	-2.5	245	6	
2025-07-05T00:00	2520	760	10.0	-4.3	241	6	
2025-07-05T00:00	2540	758	10.0	-5.7	238	6	
2025-07-05T00:00	2560	756	9.9	-6.2	237	7	
2025-07-05T00:00	2580	755	9.8	-4.7	236	7	
2025-07-05T00:00	2600	753	9.6	-2.6	236	7	
2025-07-05T00:00	2620	751	9.3	0.5	236	7	
2025-07-05T00:00	2640	749	9.0	2.0	236	8	
2025-07-05T00:00	2660	747	8.8	3.8	235	8	
2025-07-05T00:00	2680	746	8.6	4.3	234	9	
2025-07-05T00:00	2700	744	8.3	4.3	233	9	
2025-07-05T00:00	2720	742	8.2	3.8	232	8	
2025-07-05T00:00	2740	740	8.2	2.5	231	8	
2025-07-05T00:00	2760	738	8.2	1.8	230	8	
2025-07-05T00:00	2780	736	8.0	1.8	230	7	
2025-07-05T00:00	2800	735	7.9	1.1	230	6	
2025-07-05T00:00	2820	733	7.8	0.1	231	6	
2025-07-05T00:00	2840	731	7.7	-1.3	234	6	
2025-07-05T00:00	2860	729	7.7	-3.6	237	6	
2025-07-05T00:00	2880	727	7.7	-7.7	242	5	
2025-07-05T00:00	2900	726	7.9	-15.3	245	5	
2025-07-05T00:00	2920	724	7.9	-19.1	249	5	
2025-07-05T00:00	2940	722	7.9	-21.5	252	5	
2025-07-05T00:00	2960	721	7.9	-22.6	254	5	
2025-07-05T00:00	2980	719	7.9	-23.4	255	5	
2025-07-05T00:00	3000	717	7.8	-22.5	255	6	
2025-07-05T00:00	3020	715	7.7	-21.9	254	5	
2025-07-05T00:00	3040	714	7.7	-20.9	254	6	
2025-07-05T00:00	3060	712	7.6	-21.3	253	6	
2025-07-05T00:00	3080	710	7.5	-21.7	253	6	
2025-07-05T00:00	3100	708	7.4	-21.7	253	6	
2025-07-05T00:00	3120	707	7.3	-21.9	254	7	
2025-07-05T00:00	3140	705	7.2	-22.2	254	7	
2025-07-05T00:00	3160	703	7.2	-22.2	253	7	
2025-07-05T00:00	3180	701	7.1	-22.1	252	8	
2025-07-05T00:00	3200	700	7.0	-22.2	251	8	
2025-07-05T00:00	3220	698	6.8	-22.5	250	7	
2025-07-05T00:00	3240	696	6.7	-23.0	249	7	
2025-07-05T00:00	3260	695	6.6	-24.1	248	8	
2025-07-05T00:00	3280	693	6.6	-24.8	246	8	
2025-07-05T00:00	3300	691	6.5	-25.4	244	8	
2025-07-05T00:00	3320	690	6.6	-30.0	242	9	
2025-07-05T00:00	3340	688	6.7	-34.2	240	9	
2025-07-05T00:00	3360	686	6.7	-38.0	237	9	
2025-07-05T00:00	3380	685	6.7	-37.2	236	10	
2025-07-05T00:00	3400	683	6.6	-34.8	234	10	
2025-07-05T00:00	3420	681	6.6	-34.6	233	10	
2025-07-05T00:00	3440	679	6.5	-35.5	231	11	
2025-07-05T00:00	3460	678	6.3	-35.0	230	11	
2025-07-05T00:00	3480	676	6.2	-32.0	230	11	
2025-07-05T00:00	3500	675	6.0	-30.2	230	11	
2025-07-05T00:00	3520	673	5.8	-30.2	230	11	
2025-07-05T00:00	3540	671	5.6	-29.4	231	11	
2025-07-05T00:00	3560	670	5.4	-28.5	233	10	
2025-07-05T00:00	3580	668	5.2	-28.5	235	10	
2025-07-05T00:00	3600	666	5.0	-26.8	236	10	
2025-07-05T00:00	3620	665	4.8	-26.8	238	9	
2025-07-05T00:00	3640	663	4.6	-26.7	238	9	
2025-07-05T00:00	3660	662	4.4	-26.7	239	9	
2025-07-05T00:00	3680	660	4.2	-26.8	239	9	
2025-07-05T00:00	3700	658	4.0	-26.4	240	8	
2025-07-05T00:00	3720	657	3.8	-26.4	240	9	
2025-07-05T00:00	3740	655	3.7	-26.1	240	9	
2025-07-05T00:00	3760	653	3.5	-26.4	240	9	
2025-07-05T00:00	3780	652	3.4	-27.0	240	9	
2025-07-05T00:00	3800	650	3.2	-27.0	240	9	
2025-07-05T00:00	3820	649	3.1	-27.1	240	9	
2025-07-05T00:00	3840	647	3.0	-27.3	239	9	
2025-07-05T00:00	3860	645	2.8	-27.3	239	9	
2025-07-05T00:00	3880	644	2.6	-27.3	238	9	
2025-07-05T00:00	3900	642	2.5	-27.4	236	9	
2025-07-05T00:00	3920	641	2.3	-27.3	235	8	
2025-07-05T00:00	3940	639	2.2	-27.2	234	9	
2025-07-05T00:00	3960	638	2.0	-26.8	234	9	
2025-07-05T00:00	3980	636	1.8	-27.1	234	9	
2025-07-05T00:00	4000	634	1.6	-27.6	234	9	
2025-07-05T00:00	4020	633	1.5	-28.0	234	9	
2025-07-05T00:00	4040	631	1.3	-28.2	234	9	
2025-07-05T00:00	4060	629	1.1	-28.2	234	9	
2025-07-05T00:00	4080	628	1.0	-28.4	234	9	
2025-07-05T00:00	4100	626	0.9	-27.5	234	8	
2025-07-05T00:00	4120	625	0.8	-26.8	235	8	
2025-07-05T00:00	4140	623	0.6	-27.3	237	7	
2025-07-05T00:00	4160	622	0.5	-28.4	240	7	
2025-07-05T00:00	4180	620	0.3	-29.0	243	6	
2025-07-05T00:00	4200	619	0.2	-30.1	247	6	
2025-07-05T00:00	4220	617	0.0	-30.3	248	6	
2025-07-05T00:00	4240	616	-0.1	-30.4	248	6	
2025-07-05T00:00	4260	614	-0.2	-30.4	247	6	
2025-07-05T00:00	4280	613	-0.4	-30.2	245	6	
2025-07-05T00:00	4300	611	-0.6	-30.2	243	6	
2025-07-05T00:00	4320	609	-0.8	-31.0	242	7	
2025-07-05T00:00	4340	608	-0.9	-32.4	241	7	
2025-07-05T00:00	4360	606	-1.0	-33.9	241	7	
2025-07-05T00:00	4380	605	-1.1	-33.6	242	7	
2025-07-05T00:00	4400	603	-1.3	-33.2	243	7	
2025-07-05T00:00	4420	602	-1.4	-33.5	244	8	
2025-07-05T00:00	4440	600	-1.4	-33.7	244	8	
2025-07-05T00:00	4460	599	-1.6	-33.2	245	8	
2025-07-05T00:00	4480	597	-1.6	-32.8	244	8	
2025-07-05T00:00	4500	596	-1.7	-33.1	244	8	
2025-07-05T00:00	4520	594	-1.9	-33.2	243	8	
2025-07-05T00:00	4540	593	-2.0	-33.3	242	8	
2025-07-05T00:00	4560	591	-2.1	-33.2	242	8	
2025-07-05T00:00	4580	590	-2.2	-33.3	242	8	
2025-07-05T00:00	4600	588	-2.4	-33.7	243	8	
2025-07-05T00:00	4620	587	-2.5	-34.6	243	9	
2025-07-05T00:00	4640	586	-2.7	-34.1	244	9	
2025-07-05T00:00	4660	584	-2.9	-33.5	244	9	
2025-07-05T00:00	4680	583	-3.0	-33.4	245	9	
2025-07-05T00:00	4700	581	-3.3	-33.4	245	9	
2025-07-05T00:00	4720	579	-3.4	-33.6	245	9	
2025-07-05T00:00	4740	578	-3.6	-33.8	245	9	
2025-07-05T00:00	4760	577	-3.7	-34.5	245	9	
2025-07-05T00:00	4780	575	-3.8	-34.9	245	9	
2025-07-05T00:00	4800	574	-3.9	-35.0	244	9	
2025-07-05T00:00	4820	572	-4.0	-35.5	242	9	
2025-07-05T00:00	4840	571	-4.2	-36.0	241	9	
2025-07-05T00:00	4860	569	-4.2	-36.2	240	9	
2025-07-05T00:00	4880	568	-4.4	-36.2	240	9	
2025-07-05T00:00	4900	566	-4.5	-36.4	240	9	
2025-07-05T00:00	4920	565	-4.6	-37.0	240	8	
2025-07-05T00:00	4940	564	-4.6	-37.6	241	8	
2025-07-05T00:00	4960	562	-4.6	-38.5	245	8	
2025-07-05T00:00	4980	561	-4.7	-39.1	249	9	
2025-07-05T00:00	5000	559	-4.8	-39.9	252	9	
2025-07-05T00:00	5020	558	-4.9	-40.3	255	9	
2025-07-05T00:00	5040	557	-5.0	-40.7	257	9	
2025-07-05T00:00	5060	555	-5.1	-41.1	258	9	
2025-07-05T00:00	5080	554	-5.3	-41.5	259	9	
2025-07-05T00:00	5100	552	-5.4	-41.6	260	9	
2025-07-05T00:00	5120	551	-5.5	-41.5	260	9	
2025-07-05T00:00	5140	549	-5.7	-41.9	261	9	
2025-07-05T00:00	5160	548	-5.8	-42.3	262	9	
2025-07-05T00:00	5180	546	-5.9	-42.6	263	9	
2025-07-05T00:00	5200	545	-6.1	-42.7	264	9	
2025-07-05T00:00	5220	544	-6.2	-42.7	266	9	
2025-07-05T00:00	5240	542	-6.3	-42.7	267	9	
2025-07-05T00:00	5260	541	-6.5	-42.7	268	9	
2025-07-05T00:00	5280	540	-6.7	-42.9	268	9	
2025-07-05T00:00	5300	538	-6.8	-43.2	267	9	
2025-07-05T00:00	5320	537	-6.9	-43.4	266	9	
2025-07-05T00:00	5340	535	-7.1	-43.3	264	9	
2025-07-05T00:00	5360	534	-7.2	-43.7	262	10	
2025-07-05T00:00	5380	533	-7.4	-43.9	261	10	
2025-07-05T00:00	5400	531	-7.5	-43.9	261	10	
2025-07-05T00:00	5420	530	-7.6	-44.2	260	10	
2025-07-05T00:00	5440	529	-7.7	-44.5	261	10	
2025-07-05T00:00	5460	527	-7.9	-44.6	261	10	
2025-07-05T00:00	5480	526	-8.0	-44.5	262	10	
2025-07-05T00:00	5500	525	-8.2	-44.4	263	10	
2025-07-05T00:00	5520	523	-8.4	-44.4	264	10	
2025-07-05T00:00	5540	522	-8.6	-44.5	265	10	
2025-07-05T00:00	5560	520	-8.8	-44.5	267	10	
2025-07-05T00:00	5580	519	-8.8	-44.7	268	10	
2025-07-05T00:00	5600	518	-8.9	-45.1	268	9	
2025-07-05T00:00	5620	517	-9.1	-45.4	267	9	
2025-07-05T00:00	5640	515	-9.2	-45.8	266	8	
2025-07-05T00:00	5660	514	-9.3	-44.6	265	8	
2025-07-05T00:00	5680	513	-9.4	-43.5	264	8	
2025-07-05T00:00	5700	511	-9.5	-42.2	263	8	
2025-07-05T00:00	5720	510	-9.7	-41.9	263	8	
2025-07-05T00:00	5740	508	-9.9	-41.9	264	8	
2025-07-05T00:00	5760	507	-10.1	-42.2	266	8	
2025-07-05T00:00	5780	506	-10.2	-42.8	268	8	
2025-07-05T00:00	5800	505	-10.3	-43.0	270	8	
2025-07-05T00:00	5820	503	-10.4	-43.1	271	8	
2025-07-05T00:00	5840	502	-10.6	-43.0	271	8	
2025-07-05T00:00	5860	501	-10.8	-43.0	270	8	
2025-07-05T00:00	5880	499	-11.0	-43.0	269	8	
2025-07-05T00:00	5900	498	-11.2	-43.0	268	9	
2025-07-05T00:00	5920	497	-11.3	-43.3	267	9	
2025-07-05T00:00	5940	495	-11.5	-43.5	266	9	
2025-07-05T00:00	5960	494	-11.6	-44.0	266	9	
2025-07-05T00:00	5980	493	-11.8	-44.5	266	9	
2025-07-05T00:00	6000	492	-11.9	-46.3	265	9	
2025-07-05T00:00	6020	490	-12.0	-46.9	265	9	
2025-07-05T00:00	6040	489	-12.1	-46.7	264	9	
2025-07-05T00:00	6060	488	-12.3	-46.9	263	9	
2025-07-05T00:00	6080	486	-12.5	-47.0	262	9	
2025-07-05T00:00	6100	485	-12.7	-47.0	261	9	
2025-07-05T00:00	6120	484	-12.9	-46.9	260	9	
2025-07-05T00:00	6140	483	-13.1	-46.8	259	9	
2025-07-05T00:00	6160	481	-13.3	-46.8	259	9	
2025-07-05T00:00	6180	480	-13.4	-46.4	258	9	
2025-07-05T00:00	6200	479	-13.6	-45.4	258	9	
2025-07-05T00:00	6220	478	-13.8	-44.6	258	9	
2025-07-05T00:00	6240	476	-13.9	-43.9	258	9	
2025-07-05T00:00	6260	475	-14.0	-44.6	258	9	
2025-07-05T00:00	6280	474	-14.2	-46.0	258	10	
2025-07-05T00:00	6300	473	-14.2	-48.0	258	10	
2025-07-05T00:00	6320	472	-14.3	-48.4	258	10	
2025-07-05T00:00	6340	470	-14.4	-49.3	258	10	
2025-07-05T00:00	6360	469	-14.6	-50.0	258	10	
2025-07-05T00:00	6380	468	-14.8	-50.3	259	11	
2025-07-05T00:00	6400	466	-15.0	-50.6	259	11	
2025-07-05T00:00	6420	465	-15.1	-50.7	259	11	
2025-07-05T00:00	6440	464	-15.3	-51.0	260	11	
2025-07-05T00:00	6460	463	-15.4	-51.5	261	11	
2025-07-05T00:00	6480	462	-15.5	-51.8	263	11	
2025-07-05T00:00	6500	460	-15.6	-52.2	265	11	
2025-07-05T00:00	6520	459	-15.7	-52.7	268	11	
2025-07-05T00:00	6540	458	-15.8	-53.4	269	11	
2025-07-05T00:00	6560	457	-15.7	-49.3	270	12	
2025-07-05T00:00	6580	455	-15.6	-38.2	271	12	
2025-07-05T00:00	6600	454	-15.6	-29.8	271	13	
2025-07-05T00:00	6620	453	-15.8	-26.5	270	14	
2025-07-05T00:00	6640	452	-15.9	-24.9	269	14	
2025-07-05T00:00	6660	451	-16.1	-24.2	269	14	
2025-07-05T00:00	6680	450	-16.2	-24.3	269	15	
2025-07-05T00:00	6700	448	-16.3	-24.8	269	15	
2025-07-05T00:00	6720	447	-16.4	-24.3	270	15	
2025-07-05T00:00	6740	446	-16.5	-23.1	270	15	
2025-07-05T00:00	6760	445	-16.6	-22.8	270	15	
2025-07-05T00:00	6780	444	-16.7	-22.5	270	15	
2025-07-05T00:00	6800	442	-16.9	-22.5	270	15	
2025-07-05T00:00	6820	441	-17.1	-22.7	269	15	
2025-07-05T00:00	6840	440	-17.3	-22.7	269	15	
2025-07-05T00:00	6860	439	-17.5	-22.7	269	15	
2025-07-05T00:00	6880	438	-17.7	-22.8	269	15	
2025-07-05T00:00	6900	436	-17.9	-23.0	269	15	
2025-07-05T00:00	6920	435	-18.1	-23.0	269	15	
2025-07-05T00:00	6940	434	-18.3	-23.1	269	15	
2025-07-05T00:00	6960	433	-18.4	-23.3	268	15	
2025-07-05T00:00	6980	432	-18.6	-23.5	268	15	
2025-07-05T00:00	7000	431	-18.8	-23.5	267	15	
2025-07-05T00:00	7020	430	-19.0	-23.5	267	15	
2025-07-05T00:00	7040	428	-19.2	-23.5	267	14	
2025-07-05T00:00	7060	427	-19.4	-23.7	267	14	
2025-07-05T00:00	7080	426	-19.5	-23.9	268	14	
2025-07-05T00:00	7100	425	-19.7	-23.7	268	14	
2025-07-05T00:00	7120	424	-19.9	-23.7	268	14	
2025-07-05T00:00	7140	422	-20.1	-23.7	269	14	
2025-07-05T00:00	7160	421	-20.2	-23.9	269	13	
2025-07-05T00:00	7180	420	-20.4	-23.7	268	13	
2025-07-05T00:00	7200	419	-20.5	-22.7	268	13	
2025-07-05T00:00	7220	418	-20.6	-23.1	266	12	
2025-07-05T00:00	7240	417	-20.7	-23.3	264	12	
2025-07-05T00:00	7260	416	-20.8	-23.4	262	12	
2025-07-05T00:00	7280	415	-20.9	-23.6	260	12	
2025-07-05T00:00	7300	414	-20.9	-23.5	259	12	
2025-07-05T00:00	7320	412	-20.9	-24.4	258	12	
2025-07-05T00:00	7340	411	-20.9	-24.6	257	12	
2025-07-05T00:00	7360	410	-21.0	-24.8	257	12	
2025-07-05T00:00	7380	409	-21.1	-25.2	256	12	
2025-07-05T00:00	7400	408	-21.2	-26.4	256	12	
2025-07-05T00:00	7420	407	-21.3	-26.7	256	12	
2025-07-05T00:00	7440	406	-21.4	-27.0	256	12	
2025-07-05T00:00	7460	405	-21.6	-27.2	256	11	
2025-07-05T00:00	7480	404	-21.7	-27.3	257	11	
2025-07-05T00:00	7500	402	-21.9	-27.3	258	11	
2025-07-05T00:00	7520	401	-22.0	-27.2	260	11	
2025-07-05T00:00	7540	400	-22.2	-27.4	263	11	
2025-07-05T00:00	7560	399	-22.4	-27.4	264	11	
2025-07-05T00:00	7580	398	-22.5	-27.6	266	11	
2025-07-05T00:00	7600	397	-22.6	-28.0	267	11	
2025-07-05T00:00	7620	396	-22.7	-28.1	268	12	
2025-07-05T00:00	7640	395	-22.8	-28.2	268	12	
2025-07-05T00:00	7660	394	-23.0	-28.2	269	12	
2025-07-05T00:00	7680	393	-23.1	-28.2	269	12	
2025-07-05T00:00	7700	392	-23.4	-28.4	269	12	
2025-07-05T00:00	7720	391	-23.6	-28.4	269	12	
2025-07-05T00:00	7740	390	-23.7	-28.4	268	12	
2025-07-05T00:00	7760	389	-23.9	-28.5	268	12	
2025-07-05T00:00	7780	387	-24.1	-28.5	268	12	
2025-07-05T00:00	7800	386	-24.2	-28.6	268	12	
2025-07-05T00:00	7820	385	-24.4	-28.8	269	12	
2025-07-05T00:00	7840	384	-24.6	-28.9	270	12	
2025-07-05T00:00	7860	383	-24.7	-29.1	270	12	
2025-07-05T00:00	7880	382	-24.9	-29.3	271	12	
2025-07-05T00:00	7900	381	-25.1	-29.4	271	12	
2025-07-05T00:00	7920	380	-25.2	-29.3	272	12	
2025-07-05T00:00	7940	379	-25.4	-29.5	272	12	
2025-07-05T00:00	7960	378	-25.6	-29.5	271	12	
2025-07-05T00:00	7980	377	-25.8	-29.6	270	12	
2025-07-05T00:00	8000	376	-25.9	-29.8	270	12	
2025-07-05T00:00	8020	375	-26.1	-29.9	269	12	
2025-07-05T00:00	8040	374	-26.3	-30.0	268	12	
2025-07-05T00:00	8060	373	-26.5	-30.2	268	12	
2025-07-05T00:00	8080	372	-26.6	-30.4	267	13	
2025-07-05T00:00	8100	371	-26.8	-30.8	267	13	
2025-07-05T00:00	8120	370	-27.0	-31.1	266	13	
2025-07-05T00:00	8140	369	-27.1	-31.4	266	13	
2025-07-05T00:00	8160	368	-27.2	-31.5	265	13	
2025-07-05T00:00	8180	367	-27.3	-32.4	265	13	
2025-07-05T00:00	8200	366	-27.4	-33.0	265	13	
2025-07-05T00:00	8220	365	-27.5	-33.3	266	13	
2025-07-05T00:00	8240	364	-27.7	-33.5	266	13	
2025-07-05T00:00	8260	363	-27.8	-33.6	266	13	
2025-07-05T00:00	8280	362	-27.9	-33.6	267	13	
2025-07-05T00:00	8300	361	-28.1	-33.6	268	13	
2025-07-05T00:00	8320	360	-28.3	-33.7	268	13	
2025-07-05T00:00	8340	359	-28.5	-33.9	268	13	
2025-07-05T00:00	8360	358	-28.6	-33.9	268	13	
2025-07-05T00:00	8380	357	-28.8	-34.0	269	13	
2025-07-05T00:00	8400	356	-29.0	-34.2	269	13	
2025-07-05T00:00	8420	355	-29.1	-34.4	270	13	
2025-07-05T00:00	8440	354	-29.3	-34.7	270	13	
2025-07-05T00:00	8460	353	-29.4	-36.4	271	13	
2025-07-05T00:00	8480	352	-29.5	-37.2	272	13	
2025-07-05T00:00	8500	351	-29.7	-36.3	273	13	
2025-07-05T00:00	8520	350	-29.8	-36.1	274	13	
2025-07-05T00:00	8540	349	-29.9	-36.3	275	13	
2025-07-05T00:00	8560	348	-30.1	-36.7	275	13	
2025-07-05T00:00	8580	347	-30.3	-37.6	275	14	
2025-07-05T00:00	8600	346	-30.4	-38.1	275	14	
2025-07-05T00:00	8620	345	-30.6	-38.4	274	14	
2025-07-05T00:00	8640	344	-30.7	-38.7	274	14	
2025-07-05T00:00	8660	343	-30.8	-38.7	273	14	
2025-07-05T00:00	8680	342	-31.0	-38.5	273	14	
2025-07-05T00:00	8700	341	-31.2	-38.5	272	14	
2025-07-05T00:00	8720	340	-31.4	-38.3	272	13	
2025-07-05T00:00	8740	339	-31.6	-38.3	272	13	
2025-07-05T00:00	8760	338	-31.8	-38.4	272	13	
2025-07-05T00:00	8780	337	-32.0	-38.4	272	13	
2025-07-05T00:00	8800	336	-32.2	-38.5	272	13	
2025-07-05T00:00	8820	335	-32.4	-38.5	272	13	
2025-07-05T00:00	8840	334	-32.6	-38.6	272	13	
2025-07-05T00:00	8860	333	-32.7	-38.6	271	13	
2025-07-05T00:00	8880	332	-32.9	-38.6	271	13	
2025-07-05T00:00	8900	331	-33.1	-38.7	271	13	
2025-07-05T00:00	8920	330	-33.3	-38.8	271	13	
2025-07-05T00:00	8940	329	-33.5	-39.1	272	13	
2025-07-05T00:00	8960	329	-33.7	-39.4	272	13	
2025-07-05T00:00	8980	328	-33.8	-39.4	273	13	
2025-07-05T00:00	9000	327	-34.0	-39.7	274	13	
2025-07-05T00:00	9020	326	-34.2	-40.1	275	13	
2025-07-05T00:00	9040	325	-34.4	-40.7	276	13	
2025-07-05T00:00	9060	324	-34.5	-41.4	277	12	
2025-07-05T00:00	9080	323	-34.7	-41.6	277	12	
2025-07-05T00:00	9100	322	-34.9	-41.9	276	12	
2025-07-05T00:00	9120	321	-35.0	-42.1	275	12	
2025-07-05T00:00	9140	320	-35.1	-42.4	274	12	
2025-07-05T00:00	9160	319	-35.3	-42.8	272	12	
2025-07-05T00:00	9180	318	-35.4	-43.6	271	12	
2025-07-05T00:00	9200	317	-35.5	-44.8	270	12	
2025-07-05T00:00	9220	316	-35.7	-45.5	269	12	
2025-07-05T00:00	9240	316	-35.7	-46.5	270	12	
2025-07-05T00:00	9260	315	-35.8	-47.0	270	12	
2025-07-05T00:00	9280	314	-35.9	-47.0	271	12	
2025-07-05T00:00	9300	313	-36.1	-46.8	271	12	
2025-07-05T00:00	9320	312	-36.3	-46.8	272	12	
2025-07-05T00:00	9340	311	-36.5	-47.1	272	12	
2025-07-05T00:00	9360	310	-36.5	-48.2	272	12	
2025-07-05T00:00	9380	309	-36.6	-48.8	272	12	
2025-07-05T00:00	9400	308	-36.8	-49.0	271	11	
2025-07-05T00:00	9420	307	-37.0	-49.1	271	11	
2025-07-05T00:00	9440	307	-37.2	-49.3	271	11	
2025-07-05T00:00	9460	306	-37.4	-49.6	271	11	
2025-07-05T00:00	9480	305	-37.5	-50.1	271	11	
2025-07-05T00:00	9500	304	-37.6	-50.5	271	11	
2025-07-05T00:00	9520	303	-37.8	-50.4	272	11	
2025-07-05T00:00	9540	302	-37.9	-50.1	273	11	
2025-07-05T00:00	9560	301	-38.1	-49.9	274	11	
2025-07-05T00:00	9580	300	-38.2	-50.1	275	11	
2025-07-05T00:00	9600	300	-38.4	-50.5	276	11	
2025-07-05T00:00	9620	299	-38.5	-51.2	276	11	
2025-07-05T00:00	9640	298	-38.5	-52.1	276	11	
2025-07-05T00:00	9660	297	-38.6	-52.5	276	11	
2025-07-05T00:00	9680	296	-38.8	-52.7	275	11	
2025-07-05T00:00	9700	295	-38.9	-52.9	275	11	
2025-07-05T00:00	9720	294	-39.1	-53.1	274	11	
2025-07-05T00:00	9740	293	-39.3	-53.4	274	11	
2025-07-05T00:00	9760	293	-39.5	-53.5	274	12	
2025-07-05T00:00	9780	292	-39.7	-53.7	274	12	
2025-07-05T00:00	9800	291	-39.8	-54.2	273	12	
2025-07-05T00:00	9820	290	-40.0	-54.6	273	13	
2025-07-05T00:00	9840	289	-40.2	-54.6	273	13	
2025-07-05T00:00	9860	289	-40.3	-54.8	272	13	
2025-07-05T00:00	9880	288	-40.5	-55.2	272	13	
2025-07-05T00:00	9900	287	-40.7	-55.5	271	13	
2025-07-05T00:00	9920	286	-40.8	-56.1	270	14	
2025-07-05T00:00	9940	285	-41.0	-56.6	270	14	
2025-07-05T00:00	9960	284	-41.1	-57.5	269	14	
2025-07-05T00:00	9980	283	-41.2	-58.1	268	15	
2025-07-05T00:00	10000	283	-41.4	-58.5	267	15	
2025-07-05T00:00	10018	282	-41.6	-58.8	266	16	
2025-07-05T00:00	10050	281	-41.8	-59.4	265	16	
2025-07-05T00:00	10100	278	-42.3	-60.3	263	17	
2025-07-05T00:00	10150	276	-42.7	-60.6	262	17	
2025-07-05T00:00	10200	274	-43.1	-60.8	262	17	
2025-07-05T00:00	10250	272	-43.3	-60.6	264	17	
2025-07-05T00:00	10300	270	-43.7	-60.6	267	18	
2025-07-05T00:00	10350	268	-44.2	-60.7	268	18	
2025-07-05T00:00	10400	266	-44.6	-61.0	269	18	
2025-07-05T00:00	10450	264	-45.0	-60.9	269	19	
2025-07-05T00:00	10500	262	-45.3	-60.8	269	18	
2025-07-05T00:00	10550	260	-45.7	-61.2	268	18	
2025-07-05T00:00	10600	258	-46.0	-61.7	266	18	
2025-07-05T00:00	10650	256	-46.1	-62.3	263	18	
2025-07-05T00:00	10700	255	-46.4	-62.2	259	19	
2025-07-05T00:00	10750	253	-46.9	-62.1	255	18	
2025-07-05T00:00	10800	251	-47.3	-62.3	251	18	
2025-07-05T00:00	10850	249	-47.8	-62.4	249	20	
2025-07-05T00:00	10900	247	-48.2	-62.6	251	22	
2025-07-05T00:00	10950	245	-48.5	-62.9	254	24	
2025-07-05T00:00	11000	243	-49.0	-62.9	255	24	
2025-07-05T00:00	11050	241	-49.3	-63.4	255	24	
2025-07-05T00:00	11100	240	-49.6	-64.3	254	25	
2025-07-05T00:00	11150	238	-49.4	-65.7	255	24	
2025-07-05T00:00	11200	236	-49.6	-65.9	257	23	
2025-07-05T00:00	11250	234	-49.7	-66.8	259	22	
2025-07-05T00:00	11300	232	-49.8	-67.7	261	21	
2025-07-05T00:00	11350	230	-49.9	-67.9	263	21	
2025-07-05T00:00	11400	229	-50.2	-67.7	264	20	
2025-07-05T00:00	11450	227	-50.5	-67.6	264	19	
2025-07-05T00:00	11500	225	-50.7	-67.7	263	19	
2025-07-05T00:00	11550	224	-51.0	-68.0	262	18	
2025-07-05T00:00	11600	222	-51.2	-68.6	262	18	
2025-07-05T00:00	11650	220	-50.4	-70.4	264	18	
2025-07-05T00:00	11700	218	-50.5	-71.3	266	18	
2025-07-05T00:00	11750	217	-50.6	-71.7	267	19	
2025-07-05T00:00	11800	215	-50.5	-72.2	267	19	
2025-07-05T00:00	11850	214	-50.8	-72.2	266	19	
2025-07-05T00:00	11900	212	-51.0	-72.3	263	19	
2025-07-05T00:00	11950	210	-51.3	-72.5	262	19	
2025-07-05T00:00	12000	209	-51.1	-73.1	263	20	
2025-07-05T00:00	12050	207	-50.6	-73.9	266	20	
2025-07-05T00:00	12100	205	-50.5	-74.4	268	20	
2025-07-05T00:00	12150	204	-50.7	-74.7	269	20	
2025-07-05T00:00	12200	202	-50.5	-74.8	269	20	
2025-07-05T00:00	12250	201	-50.7	-75.0	268	20	
2025-07-05T00:00	12300	199	-50.9	-75.1	266	20	
2025-07-05T00:00	12350	198	-51.0	-75.4	263	21	
2025-07-05T00:00	12400	196	-50.5	-75.6	260	21	
2025-07-05T00:00	12450	195	-50.3	-75.9	260	22	
2025-07-05T00:00	12500	193	-50.5	-75.7	261	23	
2025-07-05T00:00	12550	192	-50.8	-75.6	262	23	
2025-07-05T00:00	12600	190	-51.2	-75.6	263	24	
2025-07-05T00:00	12650	189	-51.3	-75.2	262	24	
2025-07-05T00:00	12700	187	-51.4	-74.9	260	24	
2025-07-05T00:00	12750	186	-51.8	-74.9	257	24	
2025-07-05T00:00	12800	184	-51.9	-75.1	253	25	
2025-07-05T00:00	12850	183	-51.8	-75.7	251	25	
2025-07-05T00:00	12900	182	-51.4	-76.5	252	26	
2025-07-05T00:00	12950	180	-51.1	-76.2	253	26	
2025-07-05T00:00	13000	179	-51.2	-76.0	256	26	
2025-07-05T00:00	13050	178	-51.4	-75.0	258	27	
2025-07-05T00:00	13100	176	-51.6	-75.1	260	27	
2025-07-05T00:00	13150	175	-51.7	-75.9	260	28	
2025-07-05T00:00	13200	173	-51.6	-76.5	259	29	
2025-07-05T00:00	13250	172	-51.6	-77.2	260	29	
2025-07-05T00:00	13300	171	-51.5	-78.2	262	29	
2025-07-05T00:00	13350	170	-51.5	-78.7	262	30	
2025-07-05T00:00	13400	168	-51.6	-78.8	262	30	
2025-07-05T00:00	13450	167	-51.8	-78.8	261	30	
2025-07-05T00:00	13500	166	-52.1	-79.0	262	30	
2025-07-05T00:00	13550	164	-52.4	-79.1	262	29	
2025-07-05T00:00	13600	163	-52.5	-79.2	262	28	
2025-07-05T00:00	13650	162	-52.6	-79.3	261	27	
2025-07-05T00:00	13700	161	-52.8	-79.5	260	27	
2025-07-05T00:00	13750	159	-53.0	-79.7	258	26	
2025-07-05T00:00	13800	158	-53.0	-79.9	257	25	
2025-07-05T00:00	13850	157	-52.9	-80.1	255	25	
2025-07-05T00:00	13900	156	-52.9	-80.1	254	25	
2025-07-05T00:00	13950	154	-53.1	-80.2	254	25	
2025-07-05T00:00	14000	153	-53.6	-80.4	255	26	
2025-07-05T00:00	14050	152	-53.7	-80.4	257	25	
2025-07-05T00:00	14100	151	-53.9	-80.6	260	25	
2025-07-05T00:00	14150	150	-53.9	-80.8	264	26	
2025-07-05T00:00	14200	149	-54.1	-80.9	268	26	
2025-07-05T00:00	14250	147	-54.3	-80.9	271	25	
2025-07-05T00:00	14300	146	-54.3	-81.0	273	24	
2025-07-05T00:00	14350	145	-54.5	-81.1	274	23	
2025-07-05T00:00	14400	144	-54.7	-81.2	274	22	
2025-07-05T00:00	14450	143	-54.9	-81.3	275	21	
2025-07-05T00:00	14500	142	-55.0	-81.3	275	20	
2025-07-05T00:00	14550	141	-55.2	-81.4	272	19	
2025-07-05T00:00	14600	140	-55.5	-81.5	267	19	
2025-07-05T00:00	14650	138	-55.7	-81.7	261	19	
2025-07-05T00:00	14700	137	-55.4	-81.7	256	18	
2025-07-05T00:00	14750	136	-55.5	-81.8	250	19	
2025-07-05T00:00	14800	135	-55.7	-81.9	246	19	
2025-07-05T00:00	14850	134	-55.5	-81.9	244	19	
2025-07-05T00:00	14900	133	-55.7	-82.1	243	20	
2025-07-05T00:00	14950	132	-56.0	-82.1	245	19	
2025-07-05T00:00	15000	131	-56.4	-82.3	248	19	
2025-07-05T00:00	15050	130	-56.7	-82.5	249	19	
2025-07-05T00:00	15100	129	-56.8	-82.6	249	19	
2025-07-05T00:00	15150	128	-57.1	-82.7	248	20	
2025-07-05T00:00	15200	127	-57.4	-82.9	250	20	
2025-07-05T00:00	15250	126	-57.1	-82.9	252	21	
2025-07-05T00:00	15300	125	-56.6	-82.7	253	22	
2025-07-05T00:00	15350	124	-56.9	-82.8	254	22	
2025-07-05T00:00	15400	123	-57.3	-82.8	254	22	
2025-07-05T00:00	15450	122	-57.7	-82.8	253	22	
2025-07-05T00:00	15500	121	-58.2	-83.0	252	23	
2025-07-05T00:00	15550	120	-58.6	-83.1	251	24	
2025-07-05T00:00	15600	119	-59.0	-83.3	252	24	
2025-07-05T00:00	15650	118	-59.0	-83.4	253	25	
2025-07-05T00:00	15700	117	-59.2	-83.3	255	25	
2025-07-05T00:00	15750	116	-59.7	-83.5	259	25	
2025-07-05T00:00	15800	115	-60.0	-83.6	263	25	
2025-07-05T00:00	15850	115	-60.1	-83.8	268	26	
2025-07-05T00:00	15900	114	-60.1	-83.9	270	26	
2025-07-05T00:00	15950	113	-60.0	-84.1	271	25	
2025-07-05T00:00	16000	112	-59.7	-84.1	272	24	
2025-07-05T00:00	16050	111	-59.7	-84.1	274	23	
2025-07-05T00:00	16100	110	-59.8	-84.2	277	22	
2025-07-05T00:00	16150	109	-59.7	-84.3	281	21	
2025-07-05T00:00	16200	108	-59.3	-84.2	285	19	
2025-07-05T00:00	16250	107	-59.4	-84.3	284	17	
2025-07-05T00:00	16300	107	-59.3	-84.5	280	15	
2025-07-05T00:00	16350	106	-58.6	-84.4	274	14	
2025-07-05T00:00	16400	105	-58.4	-84.4	267	13	
2025-07-05T00:00	16450	104	-58.5	-84.3	261	12	
2025-07-05T00:00	16500	103	-58.8	-84.3	257	12	
2025-07-05T00:00	16550	102	-59.1	-84.3	254	12	
2025-07-05T00:00	16600	102	-59.5	-84.4	251	13	
2025-07-05T00:00	16650	101	-59.9	-84.6	246	13	
2025-07-05T00:00	16700	100	-60.0	-84.7	242	14	
2025-07-05T00:00	16750	99	-59.8	-84.8	240	15	
2025-07-05T00:00	16800	98	-59.3	-84.7	243	15	
2025-07-05T00:00	16850	98	-59.5	-84.9	249	15	
2025-07-05T00:00	16900	97	-59.4	-84.9	256	14	
2025-07-05T00:00	16950	96	-59.5	-84.9	260	14	
2025-07-05T00:00	17000	95	-59.5	-85.1	259	13	
2025-07-05T00:00	17050	95	-58.8	-84.9	258	14	
2025-07-05T00:00	17100	94	-58.5	-84.8	258	15	
2025-07-05T00:00	17150	93	-58.7	-84.7	258	15	
2025-07-05T00:00	17200	92	-59.2	-84.8	258	15	
2025-07-05T00:00	17250	92	-59.6	-84.9	258	15	
2025-07-05T00:00	17300	91	-60.1	-85.0	257	15	
2025-07-05T00:00	17350	90	-60.6	-85.1	257	16	
2025-07-05T00:00	17400	89	-61.1	-85.3	258	16	
2025-07-05T00:00	17450	89	-61.4	-85.5	260	17	
2025-07-05T00:00	17500	88	-61.7	-85.6	263	17	
2025-07-05T00:00	17550	87	-62.0	-85.9	268	16	
2025-07-05T00:00	17600	87	-61.7	-86.0	270	15	
2025-07-05T00:00	17650	86	-61.1	-85.8	271	13	
2025-07-05T00:00	17700	85	-61.2	-85.9	268	12	
2025-07-05T00:00	17750	84	-61.3	-85.8	266	12	
2025-07-05T00:00	17800	84	-61.4	-85.8	265	13	
2025-07-05T00:00	17850	83	-61.4	-85.8	268	13	
2025-07-05T00:00	17900	82	-61.5	-85.9	273	14	
2025-07-05T00:00	17950	82	-61.5	-85.9	278	14	
2025-07-05T00:00	18000	81	-61.5	-86.0	282	13	
2025-07-05T00:00	18050	80	-61.3	-86.0	287	13	
2025-07-05T00:00	18100	80	-61.3	-85.9	290	13	
2025-07-05T00:00	18150	79	-61.5	-85.9	293	13	
2025-07-05T00:00	18200	79	-61.6	-86.1	295	12	
2025-07-05T00:00	18250	78	-61.4	-86.2	294	10	
2025-07-05T00:00	18300	77	-61.2	-86.4	289	8	
2025-07-05T00:00	18350	77	-59.8	-86.0	277	6	
2025-07-05T00:00	18400	76	-59.5	-85.9	261	5	
2025-07-05T00:00	18450	75	-59.8	-86.0	246	5	
2025-07-05T00:00	18500	75	-59.5	-85.8	239	6	
2025-07-05T00:00	18550	74	-59.5	-85.8	239	7	
2025-07-05T00:00	18600	74	-59.6	-85.8	238	7	
2025-07-05T00:00	18650	73	-59.6	-85.7	235	8	
2025-07-05T00:00	18700	73	-59.8	-85.8	232	9	
2025-07-05T00:00	18750	72	-60.0	-85.8	231	9	
2025-07-05T00:00	18800	71	-60.3	-85.8	234	9	
2025-07-05T00:00	18850	71	-60.7	-86.1	243	8	
2025-07-05T00:00	18900	70	-60.3	-86.1	256	8	
2025-07-05T00:00	18950	70	-60.1	-86.1	268	8	
2025-07-05T00:00	19000	69	-60.2	-86.1	276	8	
2025-07-05T00:00	19050	69	-60.2	-86.3	277	7	
2025-07-05T00:00	19100	68	-59.9	-86.2	268	7	
2025-07-05T00:00	19150	67	-59.5	-85.9	256	7	
2025-07-05T00:00	19200	67	-59.8	-86.1	246	8	
2025-07-05T00:00	19250	66	-59.7	-86.0	243	8	
2025-07-05T00:00	19300	66	-59.6	-86.1	244	9	
2025-07-05T00:00	19350	65	-59.1	-85.9	247	10	
2025-07-05T00:00	19400	65	-59.1	-85.9	251	11	
2025-07-05T00:00	19450	64	-59.1	-85.9	255	11	
2025-07-05T00:00	19500	64	-59.0	-85.9	259	10	
2025-07-05T00:00	19550	63	-58.9	-86.0	266	8	
2025-07-05T00:00	19600	63	-58.3	-85.7	276	7	
2025-07-05T00:00	19650	62	-58.1	-85.6	288	7	
2025-07-05T00:00	19700	62	-58.2	-85.5	299	7	
2025-07-05T00:00	19750	61	-58.2	-85.4	307	6	
2025-07-05T00:00	19800	61	-58.3	-85.3	314	5	
2025-07-05T00:00	19850	60	-58.5	-85.4	324	4	
2025-07-05T00:00	19900	60	-58.8	-85.5	340	4	
2025-07-05T00:00	19950	59	-58.9	-85.6	6	3	
2025-07-05T00:00	20000	59	-59.0	-85.6	46	2	
2025-07-05T00:00	20050	58	-58.9		93	2	
2025-07-05T00:00	20100	58	-58.7		123	3	
2025-07-05T00:00	20150	58	-58.7		130	3	
2025-07-05T00:00	20200	57	-58.0		134	4	
2025-07-05T00:00	20250	57	-58.0		145	4	
2025-07-05T00:00	20300	56	-57.5		153	5	
2025-07-05T00:00	20350	56	-57.4		158	7	
2025-07-05T00:00	20400	55	-57.4		161	8	
2025-07-05T00:00	20450	55	-57.2		163	7	
2025-07-05T00:00	20500	54	-56.8		166	5	
2025-07-05T00:00	20550	54	-56.5		170	4	
2025-07-05T00:00	20600	54	-56.5		177	3	
2025-07-05T00:00	20650	53	-56.7		195	2	
2025-07-05T00:00	20700	53	-56.7		218	2	
2025-07-05T00:00	20750	52	-56.8		220	3	
2025-07-05T00:00	20800	52	-56.8		211	4	
2025-07-05T00:00	20850	51	-56.8		205	5	
2025-07-05T00:00	20900	51	-56.6		205	4	
2025-07-05T00:00	20950	51	-56.5		215	4	
2025-07-05T00:00	21000	50	-56.6		231	3	
2025-07-05T00:00	21050	50	-56.7		239	2	
2025-07-05T00:00	21100	50	-56.2		266	1	
2025-07-05T00:00	21150	49	-55.7		334	1	
2025-07-05T00:00	21200	49	-55.6		352	3	
2025-07-05T00:00	21250	48	-55.4		359	4	
2025-07-05T00:00	21300	48	-55.4		7	4	
2025-07-05T00:00	21350	48	-55.4		20	4	
2025-07-05T00:00	21400	47	-55.4		37	4	
2025-07-05T00:00	21450	47	-55.1		52	5	
2025-07-05T00:00	21500	46	-54.6		65	6	
2025-07-05T00:00	21550	46	-54.5		79	7	
2025-07-05T00:00	21600	46	-54.3		90	7	
2025-07-05T00:00	21650	45	-54.2		99	7	
2025-07-05T00:00	21700	45	-54.3		108	6	
2025-07-05T00:00	21750	45	-54.6		115	5	
2025-07-05T00:00	21800	44	-54.8		120	4	
2025-07-05T00:00	21850	44	-55.1		120	3	
2025-07-05T00:00	21900	44	-55.3		112	2	
2025-07-05T00:00	21950	43	-55.0		89	2	
2025-07-05T00:00	22000	43	-54.7		79	3	
2025-07-05T00:00	22050	43	-54.4		77	4	
2025-07-05T00:00	22100	42	-54.3		78	5	
2025-07-05T00:00	22150	42	-54.2		80	6	
2025-07-05T00:00	22200	42	-54.0		83	8	
2025-07-05T00:00	22250	41	-53.9		86	8	
2025-07-05T00:00	22300	41	-54.0		88	9	
2025-07-05T00:00	22350	41	-53.9		92	9	
2025-07-05T00:00	22400	40	-53.7		95	8	
2025-07-05T00:00	22450	40	-53.6		96	6	
2025-07-05T00:00	22500	40	-53.7		99	5	
2025-07-05T00:00	22550	39	-53.6		109	4	
2025-07-05T00:00	22600	39	-53.7		118	3	
2025-07-05T00:00	22650	39	-53.9		112	3	
2025-07-05T00:00	22700	39	-53.6		76	2	
2025-07-05T00:00	22750	38	-53.4		49	4	
2025-07-05T00:00	22800	38	-53.1		47	5	
2025-07-05T00:00	22850	38	-52.2		52	5	
2025-07-05T00:00	22900	37	-51.7		55	6	
2025-07-05T00:00	22950	37	-51.4		55	6	
2025-07-05T00:00	23000	37	-51.2		56	7	
2025-07-05T00:00	23050	37	-50.9		57	8	
2025-07-05T00:00	23100	36	-51.0		59	9	
2025-07-05T00:00	23150	36	-51.2		63	9	
2025-07-05T00:00	23200	36	-51.2		68	9	
2025-07-05T00:00	23250	35	-51.2		74	9	
2025-07-05T00:00	23300	35	-51.3		82	10	
2025-07-05T00:00	23350	35	-51.4		89	10	
2025-07-05T00:00	23400	35	-51.4		97	10	
2025-07-05T00:00	23450	34	-51.2		105	10	
2025-07-05T00:00	23500	34	-51.1		107	10	
2025-07-05T00:00	23550	34	-51.1		105	10	
2025-07-05T00:00	23600	34	-51.2		104	11	
2025-07-05T00:00	23650	33	-51.6		105	11	
2025-07-05T00:00	23700	33	-51.7		110	11	
2025-07-05T00:00	23750	33	-52.0		116	10	
2025-07-05T00:00	23800	33	-52.1		120	10	
2025-07-05T00:00	23850	32	-52.0		124	9	
2025-07-05T00:00	23900	32	-52.0		128	8	
2025-07-05T00:00	23950	32	-52.2		132	7	
2025-07-05T00:00	24000	32	-52.3		130	6	
2025-07-05T00:00	24050	31	-52.5		124	5	
2025-07-05T00:00	24100	31	-52.7		114	5	
2025-07-05T00:00	24150	31	-52.3		108	7	
2025-07-05T00:00	24200	31	-52.3		105	8	
2025-07-05T00:00	24250	30	-52.4		104	9	
2025-07-05T00:00	24300	30	-52.4		104	9	
2025-07-05T00:00	24350	30	-52.5		104	7	
2025-07-05T00:00	24400	30	-52.4		102	6	
2025-07-05T00:00	24450	29	-52.3		97	5	
2025-07-05T00:00	24500	29	-52.2		89	6	
2025-07-05T00:00	24550	29	-52.0		83	7	
2025-07-05T00:00	24600	29	-51.9		82	9	
2025-07-05T00:00	24650	29	-51.8		84	10	
2025-07-05T00:00	24700	28	-51.7		88	12	
2025-07-05T00:00	24750	28	-51.7		94	13	
2025-07-05T00:00	24800	28	-51.8		102	13	
2025-07-05T00:00	24850	28	-51.9		109	14	
2025-07-05T00:00	24900	27	-52.0		116	14	
2025-07-05T00:00	24950	27	-52.0		122	14	
2025-07-05T00:00	25000	27	-52.0		129	14	
2025-07-05T00:00	25050	27	-51.9		134	13	
2025-07-05T00:00	25100	27	-51.5		135	12	
2025-07-05T00:00	25150	26	-51.1		135	10	
2025-07-05T00:00	25200	26	-50.7		134	9	
2025-07-05T00:00	25250	26	-50.4		132	8	
2025-07-05T00:00	25300	26	-50.4		130	8	
2025-07-05T00:00	25350	26	-50.2		130	8	
2025-07-05T00:00	25400	25	-49.8		132	8	
2025-07-05T00:00	25450	25	-49.3		136	8	
2025-07-05T00:00	25500	25	-49.2		139	7	
2025-07-05T00:00	25550	25	-49.2		140	7	
2025-07-05T00:00	25600	25	-49.1		138	6	
2025-07-05T00:00	25650	24	-49.1		133	6	
2025-07-05T00:00	25700	24	-48.9		123	6	
2025-07-05T00:00	25750	24	-48.7		111	6	
2025-07-05T00:00	25800	24	-48.4		104	7	
2025-07-05T00:00	25850	24	-48.2		103	7	
2025-07-05T00:00	25900	24	-48.0		106	8	
2025-07-05T00:00	25950	23	-47.9		110	9	
2025-07-05T00:00	26000	23	-47.9		114	9	
2025-07-05T00:00	26050	23	-47.7		115	8	
2025-07-05T00:00	26100	23	-47.5		112	7	
2025-07-05T00:00	26150	23	-47.3		106	6	
2025-07-05T00:00	26200	23	-47.3		96	6	
2025-07-05T00:00	26250	22	-47.4		87	6	
2025-07-05T00:00	26300	22	-47.5		83	7	
2025-07-05T00:00	26350	22	-47.5		81	8	
2025-07-05T00:00	26400	22	-47.5		81	8	
2025-07-05T00:00	26450	22	-47.5		84	9	
2025-07-05T00:00	26500	22	-47.7		88	9	
2025-07-05T00:00	26550	21	-47.8		95	10	
2025-07-05T00:00	26600	21	-48.0		102	10	
2025-07-05T00:00	26650	21	-48.1		107	11	
2025-07-05T00:00	26700	21	-48.3		110	11	
2025-07-05T00:00	26750	21	-48.4		110	11	
2025-07-05T00:00	26800	21	-48.1		105	10	
2025-07-05T00:00	26850	20	-47.8		97	9	
2025-07-05T00:00	26900	20	-47.8		93	9	
2025-07-05T00:00	26950	20	-47.7		95	9	
2025-07-05T00:00	27000	20	-47.8		100	9	
2025-07-05T00:00	27050	20	-47.9		103	9	
2025-07-05T00:00	27100	20	-47.7		99	8	
2025-07-05T00:00	27150	19	-47.7		88	8	
2025-07-05T00:00	27200	19	-47.6		78	8	
2025-07-05T00:00	27250	19	-47.5		72	8	
2025-07-05T00:00	27300	19	-47.5		70	9	
2025-07-05T00:00	27350	19	-47.4		69	10	
2025-07-05T00:00	27400	19	-47.3		69	12	
2025-07-05T00:00	27450	19	-47.2		71	12	
2025-07-05T00:00	27500	18	-47.1		75	13	
2025-07-05T00:00	27550	18	-47.2		81	13	
2025-07-05T00:00	27600	18	-47.4		86	13	
2025-07-05T00:00	27650	18	-47.5		88	13	
2025-07-05T00:00	27700	18	-47.4		87	12	
2025-07-05T00:00	27750	18	-47.2		88	12	
2025-07-05T00:00	27800	18	-46.9		93	12	
2025-07-05T00:00	27850	18	-46.9		98	11	
2025-07-05T00:00	27900	17	-46.7		98	11	
2025-07-05T00:00	27950	17	-46.3		92	10	
2025-07-05T00:00	28000	17	-45.9		85	11	
2025-07-05T00:00	28050	17	-45.7		82	11	
2025-07-05T00:00	28100	17	-45.5		81	11	
2025-07-05T00:00	28150	17	-45.5		81	11	
2025-07-05T00:00	28200	17	-45.7		80	11	
2025-07-05T00:00	28250	17	-45.6		81	11	
2025-07-05T00:00	28300	16	-45.3		84	10	
2025-07-05T00:00	28350	16	-45.1		87	10	
2025-07-05T00:00	28400	16	-44.8		88	10	
2025-07-05T00:00	28450	16	-44.5		85	11	
2025-07-05T00:00	28500	16	-44.5		83	12	
2025-07-05T00:00	28550	16	-44.4		82	13	
2025-07-05T00:00	28600	16	-44.3		82	14	
2025-07-05T00:00	28650	16	-44.4		83	15	
2025-07-05T00:00	28700	15	-44.5		86	15	
2025-07-05T00:00	28750	15	-44.6		88	14	
2025-07-05T00:00	28800	15	-44.7		89	13	
2025-07-05T00:00	28850	15	-44.4		86	12	
2025-07-05T00:00	28900	15	-43.9		81	11	
2025-07-05T00:00	28950	15	-43.8		76	11	
2025-07-05T00:00	29000	15	-43.5		74	12	
2025-07-05T00:00	29050	15	-43.3		74	13	
2025-07-05T00:00	29100	15	-43.5		76	14	
2025-07-05T00:00	29150	14	-43.6		75	14	
2025-07-05T00:00	29200	14	-43.6		74	14	
2025-07-05T00:00	29250	14	-43.4		74	14	
2025-07-05T00:00	29300	14	-43.3		75	14	
2025-07-05T00:00	29350	14	-43.2		74	14	
2025-07-05T00:00	29400	14	-43.1		73	14	
2025-07-05T00:00	29450	14	-43.0		76	14	
2025-07-05T00:00	29500	14	-42.9		82	15	
2025-07-05T00:00	29550	14	-42.9		87	16	
2025-07-05T00:00	29600	13	-42.7		91	16	
2025-07-05T00:00	29650	13	-42.6		95	17	
2025-07-05T00:00	29700	13	-42.6		99	17	
2025-07-05T00:00	29750	13	-42.8		104	17	
2025-07-05T00:00	29800	13	-43.1		107	18	
2025-07-05T00:00	29850	13	-42.9		109	18	
2025-07-05T00:00	29900	13	-42.6		109	17	
2025-07-05T00:00	29950	13	-42.5		109	16	
2025-07-05T00:00	30000	13	-42.4		111	16	
2025-07-05T00:00	30050	13	-42.2		112	14	
2025-07-05T00:00	30100	13	-41.9		112	13	
2025-07-05T00:00	30150	12	-41.6		109	12	
2025-07-05T00:00	30200	12	-41.6		107	12	
2025-07-05T00:00	30250	12	-41.3		107	12	
2025-07-05T00:00	30300	12	-41.2		109	12	
2025-07-05T00:00	30350	12	-41.2		111	12	
2025-07-05T00:00	30400	12	-41.2		112	12	
2025-07-05T00:00	30450	12	-41.3		110	11	
2025-07-05T00:00	30500	12	-41.1		106	11	
2025-07-05T00:00	30550	12	-40.9		98	11	
2025-07-05T00:00	30600	12	-40.6		91	11	
2025-07-05T00:00	30650	12	-40.7		86	12	
2025-07-05T00:00	30700	11	-40.6		84	12	
2025-07-05T00:00	30750	11	-40.6		85	11	
2025-07-05T00:00	30800	11	-40.7		89	10	
2025-07-05T00:00	30850	11	-40.9		92	9	
2025-07-05T00:00	30900	11	-41.1		89	9	
2025-07-05T00:00	30950	11	-41.1		82	9	
2025-07-05T00:00	31000	11	-41.0		76	9	
2025-07-05T00:00	31050	11	-41.0		78	9	
2025-07-05T00:00	31100	11	-40.9		83	9	
2025-07-05T00:00	31150	11	-41.1		84	9	
2025-07-05T00:00	31200	11	-41.1		79	8	
2025-07-05T00:00	31250	11	-40.6		72	8	
2025-07-05T00:00	31300	11	-40.2		69	9	
2025-07-05T00:00	31350	10	-39.8		70	11	
2025-07-05T00:00	31400	10	-39.6		72	12	
2025-07-05T00:00	31450	10	-39.4		71	13	
2025-07-05T00:00	31500	10	-39.1		71	14	
2025-07-05T00:00	31550	10	-38.9		71	14	
2025-07-05T00:00	31600	10	-38.6		73	13	
2025-07-05T00:00	31650	10	-38.6		78	11	
2025-07-05T00:00	31700	10	-38.7		83	10	
2025-07-05T00:00	31750	10	-38.6		87	8	
2025-07-05T00:00	31800	10	-38.6		88	8	
2025-07-05T00:00	31850	10	-38.5		83	8	
2025-07-05T00:00	31900	10	-38.0		77	9	
2025-07-05T00:00	31950	10	-37.9		72	10	
2025-07-05T00:00	32000	9	-37.9		69	12	
2025-07-05T00:00	32050	9	-37.7		69	13	
2025-07-05T00:00	32100	9	-37.6		70	14	
2025-07-05T00:00	32150	9	-37.6		70	14	
2025-07-05T00:00	32200	9	-37.5		70	14	
2025-07-05T00:00	32250	9	-37.6		70	12	
2025-07-05T00:00	32300	9	-37.6		69	12	
2025-07-05T00:00	32350	9	-37.9		67	11	
2025-07-05T00:00	32400	9	-37.9		65	12	
2025-07-05T00:00	32450	9	-37.8		65	13	
2025-07-05T00:00	32500	9	-37.8		68	14	
2025-07-05T00:00	32550	9	-37.9		72	15	
2025-07-05T00:00	32600	9	-37.9		76	16	
2025-07-05T00:00	32650	9	-37.9		79	16	
2025-07-05T00:00	32700	9	-37.7		80	17	
2025-07-05T00:00	32750	9	-37.3		81	17	
2025-07-05T00:00	32800	8	-37.2		80	17	
2025-07-05T00:00	32850	8	-36.9		79	16	
2025-07-05T00:00	32900	8	-36.8		78	14	
2025-07-05T00:00	32950	8	-36.7		77	13	
2025-07-05T00:00	33000	8	-36.7		76	12	
2025-07-05T00:00	33050	8	-36.7		76	11	
2025-07-05T00:00	33100	8	-36.7		76	9	
2025-07-05T00:00	33150	8	-36.6		74	10	
2025-07-05T00:00	33200	8	-36.4		72	11	
2025-07-05T00:00	33250	8	-36.2		72	14	
2025-07-05T00:00	33300	8	-36.1		75	16	
2025-07-05T00:00	33350	8	-36.1		78	16	
2025-07-05T00:00	33400	8	-36.0		80	16	
2025-07-05T00:00	33450	8	-35.7		79	16	
2025-07-05T00:00	33500	8	-35.4		78	16	
2025-07-05T00:00	33550	8	-35.1		77	16	
2025-07-05T00:00	33600	8	-34.9		76	17	
2025-07-05T00:00	33650	7	-34.8		76	17	
2025-07-05T00:00	33700	7	-34.8		76	18	
2025-07-05T00:00	33750	7	-34.8		79	19	
2025-07-05T00:00	33800	7	-34.8		83	21	
2025-07-05T00:00	33850	7	-34.9		87	22	
2025-07-05T00:00	33900	7	-34.6		90	23	
2025-07-05T00:00	33950	7	-34.7		91	23	
2025-07-05T00:00	34000	7	-34.6		90	23	
2025-07-05T00:00	34050	7	-34.3		86	22	
2025-07-05T00:00	34100	7	-34.2		83	21	
2025-07-05T00:00	34150	7	-34.3		80	21	
2025-07-05T00:00	34200	7	-34.0		80	22	
2025-07-05T00:00	34250	7	-33.8		82	23	
2025-07-05T00:00	34300	7	-33.6		86	24	
2025-07-05T00:00	34350	7	-33.6		90	24	
2025-07-05T00:00	34400	7	-33.6		94	23	
2025-07-05T00:00	34450	7	-33.5		96	23	
2025-07-05T00:00	34500	7	-33.6		97	21	
2025-07-05T00:00	34550	7	-33.6		95	20	
2025-07-05T00:00	34600	7	-33.4		93	19	
2025-07-05T00:00	34650	6	-33.4		90	18	
2025-07-05T00:00	34700	6	-33.4		87	17	
2025-07-05T00:00	34750	6	-33.4		83	17	
2025-07-05T00:00	34800	6	-33.2		79	17	
2025-07-05T00:00	34850	6	-33.0		77	17	
2025-07-05T00:00	34900	6	-32.9		77	18	
2025-07-05T00:00	34950	6	-32.7		78	18	
2025-07-05T00:00	35000	6	-32.6		79	18	
2025-07-05T00:00	35050	6	-32.6		80	19	
2025-07-05T00:00	35100	6	-32.5		80	19	
2025-07-05T00:00	35150	6	-32.3		80	19	
2025-07-05T00:00	35200	6	-32.1		78	19	
2025-07-05T00:00	35250	6	-32.1		78	19	
2025-07-05T00:00	35300	6	-32.2		80	20	
2025-07-05T00:00	35350	6	-32.1		82	21	
2025-07-05T00:00	35400	6	-32.3		86	22	
2025-07-05T00:00	35450	6	-32.4		89	23	
2025-07-05T00:00	35500	6	-32.3		91	24	
2025-07-05T00:00	35550	6	-31.8		93	25	
2025-07-05T00:00	35600	6	-31.7		95	24	
2025-07-05T00:00	35650	6	-31.5		96	23	
2025-07-05T00:00	35700	6	-31.0		96	22	
2025-07-05T00:00	35750	6	-30.6		95	21	
2025-07-05T00:00	35800	6	-30.2		94	20	
2025-07-05T00:00	35850	5	-29.9		91	19	
2025-07-05T00:00	35900	5	-29.6		89	18	
2025-07-05T00:00	35950	5	-29.2		87	18	
2025-07-05T00:00	36000	5	-28.7		85	18	
2025-07-05T00:00	36050	5	-28.3		84	19	
2025-07-05T00:00	36100	5	-27.9		86	20	
2025-07-05T00:00	36150	5	-27.5		87	21	
2025-07-05T00:00	36200	5	-27.2		87	22	
2025-07-05T00:00	36250	5	-27.0		87	23	
2025-07-05T00:00	36300	5	-26.8		86	22	
2025-07-05T00:00	36350	5	-26.5		86	21	
2025-07-05T00:00	36400	5	-26.3		85	19	
2025-07-05T00:00	36450	5	-26.2		84	18	
2025-07-05T00:00	36500	5	-26.0		81	18	
2025-07-05T00:00	36550	5	-25.9		78	18	
2025-07-05T00:00	36600	5	-25.8		78	20	
2025-07-05T12:00	491	961	28.4	11.5	246	2	
2025-07-05T12:00	501	960	26.7	11.4	242	2	
2025-07-05T12:00	520	958	25.9	11.0	242	2	
2025-07-05T12:00	540	956	25.6	10.8	244	2	
2025-07-05T12:00	560	954	25.6	10.8	246	2	
2025-07-05T12:00	580	951	25.5	10.8	248	3	
2025-07-05T12:00	600	949	25.3	10.8	250	3	
2025-07-05T12:00	620	947	24.8	10.7	252	3	
2025-07-05T12:00	640	945	24.8	10.7	255	3	
2025-07-05T12:00	660	943	24.5	10.7	260	3	
2025-07-05T12:00	680	941	24.1	10.7	266	3	
2025-07-05T12:00	700	939	24.0	10.7	274	3	
2025-07-05T12:00	720	937	23.8	10.6	278	3	
2025-07-05T12:00	740	934	23.6	10.5	277	3	
2025-07-05T12:00	760	932	23.4	10.5	270	3	
2025-07-05T12:00	780	930	23.2	10.5	262	3	
2025-07-05T12:00	800	928	23.0	10.5	257	4	
2025-07-05T12:00	820	926	22.8	10.4	257	4	
2025-07-05T12:00	840	924	22.6	10.4	260	3	
2025-07-05T12:00	860	922	22.4	10.4	265	3	
2025-07-05T12:00	880	920	22.2	10.4	270	4	
2025-07-05T12:00	900	918	22.0	10.3	272	4	
2025-07-05T12:00	920	915	21.8	10.3	274	4	
2025-07-05T12:00	940	913	21.6	10.2	274	4	
2025-07-05T12:00	960	911	21.5	10.2	276	3	
2025-07-05T12:00	980	909	21.3	10.1	281	3	
2025-07-05T12:00	1000	907	21.1	10.3	288	2	
2025-07-05T12:00	1020	905	20.9	10.3	284	2	
2025-07-05T12:00	1040	903	20.7	10.2	271	2	
2025-07-05T12:00	1060	901	20.5	10.1	262	2	
2025-07-05T12:00	1080	899	20.4	10.2	259	2	
2025-07-05T12:00	1100	896	20.2	10.1	259	2	
2025-07-05T12:00	1120	894	20.0	10.1	260	3	
2025-07-05T12:00	1140	892	19.7	10.0	258	3	
2025-07-05T12:00	1160	890	19.6	10.0	256	3	
2025-07-05T12:00	1180	888	19.4	9.9	255	3	
2025-07-05T12:00	1200	886	19.2	10.0	259	3	
2025-07-05T12:00	1220	884	19.0	9.9	273	3	
2025-07-05T12:00	1240	882	18.8	10.0	293	2	
2025-07-05T12:00	1260	880	18.6	9.9	305	2	
2025-07-05T12:00	1280	878	18.4	9.8	306	2	
2025-07-05T12:00	1300	876	18.3	9.7	299	2	
2025-07-05T12:00	1320	874	18.1	9.7	284	2	
2025-07-05T12:00	1340	872	17.9	9.6	263	2	
2025-07-05T12:00	1360	870	17.7	9.5	247	2	
2025-07-05T12:00	1380	868	17.6	9.5	243	2	
2025-07-05T12:00	1400	866	17.3	9.5	244	2	
2025-07-05T12:00	1420	864	17.1	9.5	249	2	
2025-07-05T12:00	1440	862	17.0	9.4	254	2	
2025-07-05T12:00	1460	860	16.7	9.6	256	2	
2025-07-05T12:00	1480	858	16.5	9.6	257	2	
2025-07-05T12:00	1500	856	16.4	9.5	257	2	
2025-07-05T12:00	1520	854	16.2	9.4	260	2	
2025-07-05T12:00	1540	852	16.0	9.2	264	2	
2025-07-05T12:00	1560	850	15.8	9.2	270	2	
2025-07-05T12:00	1580	848	15.7	9.1	276	2	
2025-07-05T12:00	1600	846	15.5	9.0	283	2	
2025-07-05T12:00	1620	844	15.3	9.0	289	2	
2025-07-05T12:00	1640	842	15.0	9.0	293	2	
2025-07-05T12:00	1660	840	14.8	9.1	296	2	
2025-07-05T12:00	1680	837	14.6	9.1	297	2	
2025-07-05T12:00	1700	836	14.4	9.0	296	2	
2025-07-05T12:00	1720	834	14.2	9.1	294	2	
2025-07-05T12:00	1740	832	14.0	9.0	292	3	
2025-07-05T12:00	1760	830	13.8	8.8	288	3	
2025-07-05T12:00	1780	828	13.6	8.9	285	3	
2025-07-05T12:00	1800	826	13.5	8.7	281	3	
2025-07-05T12:00	1820	824	13.3	8.6	276	3	
2025-07-05T12:00	1840	822	13.1	8.6	270	2	
2025-07-05T12:00	1860	820	12.9	8.6	263	2	
2025-07-05T12:00	1880	818	12.7	8.6	254	2	
2025-07-05T12:00	1900	816	12.5	8.5	245	2	
2025-07-05T12:00	1920	814	12.3	8.4	238	2	
2025-07-05T12:00	1940	812	12.1	8.4	233	2	
2025-07-05T12:00	1960	810	11.9	8.4	230	3	
2025-07-05T12:00	1980	808	11.8	8.3	229	3	
2025-07-05T12:00	2000	807	11.6	8.1	228	3	
2025-07-05T12:00	2020	805	11.5	8.1	227	4	
2025-07-05T12:00	2040	803	11.3	7.9	226	4	
2025-07-05T12:00	2060	801	11.3	7.2	225	5	
2025-07-05T12:00	2080	799	11.2	7.2	226	5	
2025-07-05T12:00	2100	797	11.0	7.2	227	5	
2025-07-05T12:00	2120	795	10.8	6.9	230	6	
2025-07-05T12:00	2140	793	10.7	6.9	232	6	
2025-07-05T12:00	2160	791	10.6	7.2	234	6	
2025-07-05T12:00	2180	789	10.5	7.6	237	7	
2025-07-05T12:00	2200	788	10.4	7.7	238	7	
2025-07-05T12:00	2220	786	10.2	7.7	237	7	
2025-07-05T12:00	2240	784	10.0	7.4	233	7	
2025-07-05T12:00	2260	782	9.8	7.5	229	7	
2025-07-05T12:00	2280	780	9.6	7.4	225	7	
2025-07-05T12:00	2300	778	9.6	6.4	221	8	
2025-07-05T12:00	2320	776	9.6	6.0	218	8	
2025-07-05T12:00	2340	775	9.5	5.1	216	9	
2025-07-05T12:00	2360	773	9.4	4.9	215	9	
2025-07-05T12:00	2380	771	9.2	4.6	216	9	
2025-07-05T12:00	2400	769	9.1	3.9	217	9	
2025-07-05T12:00	2420	767	9.0	3.4	220	9	
2025-07-05T12:00	2440	765	8.8	3.1	222	9	
2025-07-05T12:00	2460	763	8.7	2.9	224	8	
2025-07-05T12:00	2480	761	8.5	2.9	227	8	
2025-07-05T12:00	2500	759	8.5	1.4	229	8	
2025-07-05T12:00	2520	758	8.6	0.0	231	8	
2025-07-05T12:00	2540	756	8.5	-0.4	232	8	
2025-07-05T12:00	2560	754	8.3	-0.5	233	8	
2025-07-05T12:00	2580	752	8.1	-0.9	234	8	
2025-07-05T12:00	2600	751	8.1	-2.7	234	8	
2025-07-05T12:00	2620	749	8.1	-4.8	234	9	
2025-07-05T12:00	2640	747	8.1	-6.5	234	9	
2025-07-05T12:00	2660	745	8.1	-8.7	233	9	
2025-07-05T12:00	2680	743	8.0	-10.2	232	9	
2025-07-05T12:00	2700	741	7.9	-11.7	232	8	
2025-07-05T12:00	2720	739	7.8	-12.2	233	8	
2025-07-05T12:00	2740	738	7.6	-12.7	234	8	
2025-07-05T12:00	2760	736	7.5	-13.8	236	8	
2025-07-05T12:00	2780	734	7.4	-15.9	239	8	
2025-07-05T12:00	2800	732	7.3	-17.2	242	8	
2025-07-05T12:00	2820	731	7.2	-17.5	245	8	
2025-07-05T12:00	2840	729	7.1	-17.7	246	8	
2025-07-05T12:00	2860	727	6.9	-17.6	246	9	
2025-07-05T12:00	2880	725	6.8	-17.7	246	9	
2025-07-05T12:00	2900	724	6.7	-18.0	245	9	
2025-07-05T12:00	2920	722	6.6	-17.5	244	9	
2025-07-05T12:00	2940	720	6.4	-17.1	243	9	
2025-07-05T12:00	2960	718	6.3	-16.4	242	9	
2025-07-05T12:00	2980	716	6.2	-16.7	240	9	
2025-07-05T12:00	3000	715	6.0	-16.7	236	10	
2025-07-05T12:00	3020	713	5.9	-16.7	233	10	
2025-07-05T12:00	3040	711	5.8	-16.7	230	10	
2025-07-05T12:00	3060	710	5.7	-16.6	228	10	
2025-07-05T12:00	3080	708	5.7	-18.0	226	11	
2025-07-05T12:00	3100	706	5.8	-19.7	226	11	
2025-07-05T12:00	3120	704	5.8	-19.7	227	10	
2025-07-05T12:00	3140	703	5.7	-20.5	227	10	
2025-07-05T12:00	3160	701	5.8	-20.9	228	10	
2025-07-05T12:00	3180	699	5.8	-21.4	229	10	
2025-07-05T12:00	3200	697	5.8	-22.8	230	10	
2025-07-05T12:00	3220	696	5.7	-23.5	230	10	
2025-07-05T12:00	3240	694	5.5	-24.4	230	10	
2025-07-05T12:00	3260	692	5.4	-25.1	231	11	
2025-07-05T12:00	3280	691	5.3	-25.3	231	11	
2025-07-05T12:00	3300	689	5.2	-25.9	232	11	
2025-07-05T12:00	3320	687	5.0	-25.9	233	11	
2025-07-05T12:00	3340	686	4.9	-25.7	236	10	
2025-07-05T12:00	3360	684	4.7	-25.4	238	10	
2025-07-05T12:00	3380	682	4.7	-25.6	241	10	
2025-07-05T12:00	3400	681	4.9	-30.3	243	10	
2025-07-05T12:00	3420	679	4.8	-32.6	244	9	
2025-07-05T12:00	3440	677	4.8	-31.8	244	9	
2025-07-05T12:00	3460	676	4.7	-28.0	245	8	
2025-07-05T12:00	3480	674	4.6	-23.3	245	7	
2025-07-05T12:00	3500	672	4.5	-19.2	246	7	
2025-07-05T12:00	3520	670	4.4	-19.1	246	6	
2025-07-05T12:00	3540	669	4.3	-19.4	247	6	
2025-07-05T12:00	3560	667	4.2	-20.5	247	6	
2025-07-05T12:00	3580	666	4.0	-22.1	248	6	
2025-07-05T12:00	3600	664	3.9	-21.9	249	6	
2025-07-05T12:00	3620	662	3.7	-20.1	251	6	
2025-07-05T12:00	3640	661	3.5	-18.9	253	6	
2025-07-05T12:00	3660	659	3.3	-18.9	256	6	
2025-07-05T12:00	3680	657	3.2	-18.7	259	6	
2025-07-05T12:00	3700	656	3.0	-18.4	263	6	
2025-07-05T12:00	3720	654	2.9	-18.0	266	6	
2025-07-05T12:00	3740	653	2.7	-17.6	267	7	
2025-07-05T12:00	3760	651	2.6	-17.6	268	7	
2025-07-05T12:00	3780	649	2.4	-17.6	268	7	
2025-07-05T12:00	3800	648	2.2	-17.7	268	8	
2025-07-05T12:00	3820	646	2.0	-17.8	269	8	
2025-07-05T12:00	3840	645	1.8	-17.7	269	8	
2025-07-05T12:00	3860	643	1.6	-17.7	270	8	
2025-07-05T12:00	3880	641	1.4	-17.7	271	9	
2025-07-05T12:00	3900	640	1.2	-17.7	271	9	
2025-07-05T12:00	3920	638	1.1	-18.3	271	9	
2025-07-05T12:00	3940	637	1.0	-18.7	270	9	
2025-07-05T12:00	3960	635	0.9	-18.8	270	10	
2025-07-05T12:00	3980	633	0.8	-19.1	269	10	
2025-07-05T12:00	4000	632	0.6	-19.5	270	10	
2025-07-05T12:00	4020	630	0.4	-19.8	270	10	
2025-07-05T12:00	4040	629	0.2	-19.8	271	10	
2025-07-05T12:00	4060	627	0.0	-20.5	273	10	
2025-07-05T12:00	4080	626	-0.2	-20.7	275	10	
2025-07-05T12:00	4100	624	-0.3	-20.6	277	10	
2025-07-05T12:00	4120	622	-0.5	-20.6	278	10	
2025-07-05T12:00	4140	621	-0.7	-21.0	278	10	
2025-07-05T12:00	4160	619	-0.9	-21.7	278	10	
2025-07-05T12:00	4180	618	-1.1	-21.6	278	10	
2025-07-05T12:00	4200	616	-1.2	-21.7	277	10	
2025-07-05T12:00	4220	615	-1.4	-21.9	276	10	
2025-07-05T12:00	4240	613	-1.5	-22.0	275	10	
2025-07-05T12:00	4260	612	-1.7	-22.1	275	10	
2025-07-05T12:00	4280	610	-1.9	-22.1	274	9	
2025-07-05T12:00	4300	608	-2.1	-22.4	273	9	
2025-07-05T12:00	4320	607	-2.1	-22.7	271	9	
2025-07-05T12:00	4340	606	-2.3	-23.0	269	9	
2025-07-05T12:00	4360	604	-2.5	-23.6	268	10	
2025-07-05T12:00	4380	603	-2.6	-24.6	267	10	
2025-07-05T12:00	4400	601	-2.6	-25.5	268	10	
2025-07-05T12:00	4420	599	-2.7	-26.4	268	10	
2025-07-05T12:00	4440	598	-2.6	-27.9	270	10	
2025-07-05T12:00	4460	596	-2.7	-28.4	271	10	
2025-07-05T12:00	4480	595	-2.7	-28.6	272	10	
2025-07-05T12:00	4500	594	-2.8	-29.2	273	10	
2025-07-05T12:00	4520	592	-2.8	-30.8	273	10	
2025-07-05T12:00	4540	590	-2.9	-31.9	272	10	
2025-07-05T12:00	4560	589	-3.0	-31.1	272	10	
2025-07-05T12:00	4580	587	-3.2	-30.4	271	10	
2025-07-05T12:00	4600	586	-3.3	-30.7	270	10	
2025-07-05T12:00	4620	584	-3.4	-30.2	270	10	
2025-07-05T12:00	4640	583	-3.5	-29.6	270	10	
2025-07-05T12:00	4660	582	-3.6	-30.1	271	10	
2025-07-05T12:00	4680	580	-3.7	-30.1	272	10	
2025-07-05T12:00	4700	579	-3.9	-30.0	274	10	
2025-07-05T12:00	4720	577	-4.0	-30.1	276	10	
2025-07-05T12:00	4740	576	-4.2	-30.2	277	10	
2025-07-05T12:00	4760	574	-4.3	-30.5	278	10	
2025-07-05T12:00	4780	573	-4.4	-31.0	279	11	
2025-07-05T12:00	4800	571	-4.5	-31.2	280	11	
2025-07-05T12:00	4820	570	-4.7	-31.0	281	11	
2025-07-05T12:00	4840	568	-4.9	-30.2	282	11	
2025-07-05T12:00	4860	567	-5.0	-30.3	282	11	
2025-07-05T12:00	4880	565	-5.2	-30.8	282	11	
2025-07-05T12:00	4900	564	-5.4	-31.7	282	11	
2025-07-05T12:00	4920	563	-5.6	-30.9	283	11	
2025-07-05T12:00	4940	561	-5.7	-31.0	283	11	
2025-07-05T12:00	4960	560	-5.9	-31.5	283	12	
2025-07-05T12:00	4980	558	-6.0	-31.8	283	12	
2025-07-05T12:00	5000	557	-6.0	-32.7	283	12	
2025-07-05T12:00	5020	556	-6.1	-33.7	283	12	
2025-07-05T12:00	5040	554	-6.2	-34.1	283	12	
2025-07-05T12:00	5060	553	-6.3	-34.2	284	12	
2025-07-05T12:00	5080	551	-6.5	-34.6	285	12	
2025-07-05T12:00	5100	550	-6.6	-35.8	286	12	
2025-07-05T12:00	5120	548	-6.6	-38.3	286	12	
2025-07-05T12:00	5140	547	-6.7	-39.3	286	11	
2025-07-05T12:00	5160	546	-6.8	-38.8	285	11	
2025-07-05T12:00	5180	544	-6.9	-38.2	284	11	
2025-07-05T12:00	5200	543	-7.1	-38.2	282	10	
2025-07-05T12:00	5220	541	-7.3	-38.3	282	10	
2025-07-05T12:00	5240	540	-7.5	-38.8	281	10	
2025-07-05T12:00	5260	539	-7.7	-39.3	280	9	
2025-07-05T12:00	5280	537	-7.8	-39.8	280	9	
2025-07-05T12:00	5300	536	-8.0	-40.4	281	9	
2025-07-05T12:00	5320	534	-8.2	-42.0	281	9	
2025-07-05T12:00	5340	533	-8.3	-44.3	282	9	
2025-07-05T12:00	5360	532	-8.4	-46.0	282	10	
2025-07-05T12:00	5380	530	-8.5	-46.3	282	10	
2025-07-05T12:00	5400	529	-8.6	-46.4	282	10	
2025-07-05T12:00	5420	528	-8.6	-47.3	282	10	
2025-07-05T12:00	5440	526	-8.7	-48.4	281	10	
2025-07-05T12:00	5460	525	-8.8	-49.0	279	10	
2025-07-05T12:00	5480	524	-8.9	-49.4	278	10	
2025-07-05T12:00	5500	522	-9.0	-49.4	277	10	
2025-07-05T12:00	5520	521	-9.1	-49.6	276	10	
2025-07-05T12:00	5540	519	-9.3	-49.6	276	10	
2025-07-05T12:00	5560	518	-9.4	-49.4	276	10	
2025-07-05T12:00	5580	517	-9.4	-48.9	276	10	
2025-07-05T12:00	5600	515	-9.5	-48.8	277	10	
2025-07-05T12:00	5620	514	-9.6	-49.1	277	10	
2025-07-05T12:00	5640	513	-9.7	-49.2	277	10	
2025-07-05T12:00	5660	511	-9.7	-48.9	277	10	
2025-07-05T12:00	5680	510	-9.8	-47.6	276	10	
2025-07-05T12:00	5700	509	-9.9	-47.2	275	9	
2025-07-05T12:00	5720	507	-10.1	-46.3	274	9	
2025-07-05T12:00	5740	506	-10.2	-45.8	272	9	
2025-07-05T12:00	5760	505	-10.4	-45.6	272	9	
2025-07-05T12:00	5780	504	-10.6	-44.8	271	9	
2025-07-05T12:00	5800	502	-10.7	-43.6	271	9	
2025-07-05T12:00	5820	501	-10.8	-44.1	271	9	
2025-07-05T12:00	5840	500	-11.0	-44.5	271	9	
2025-07-05T12:00	5860	498	-11.2	-44.7	271	9	
2025-07-05T12:00	5880	497	-11.3	-44.8	271	9	
2025-07-05T12:00	5900	496	-11.5	-44.8	271	9	
2025-07-05T12:00	5920	494	-11.6	-45.0	272	9	
2025-07-05T12:00	5940	493	-11.7	-45.3	272	10	
2025-07-05T12:00	5960	492	-11.9	-45.5	272	10	
2025-07-05T12:00	5980	491	-12.1	-46.0	272	10	
2025-07-05T12:00	6000	489	-12.2	-46.5	272	11	
2025-07-05T12:00	6020	488	-12.3	-47.5	273	11	
2025-07-05T12:00	6040	487	-12.4	-48.2	273	11	
2025-07-05T12:00	6060	485	-12.6	-48.2	274	11	
2025-07-05T12:00	6080	484	-12.7	-48.3	275	11	
2025-07-05T12:00	6100	483	-12.9	-48.3	275	11	
2025-07-05T12:00	6120	482	-13.0	-48.4	276	10	
2025-07-05T12:00	6140	480	-13.2	-48.7	276	10	
2025-07-05T12:00	6160	479	-13.4	-49.0	277	10	
2025-07-05T12:00	6180	478	-13.5	-49.3	278	10	
2025-07-05T12:00	6200	477	-13.6	-49.3	279	10	
2025-07-05T12:00	6220	475	-13.8	-49.4	281	10	
2025-07-05T12:00	6240	474	-14.0	-50.1	283	10	
2025-07-05T12:00	6260	473	-14.1	-51.3	285	10	
2025-07-05T12:00	6280	472	-14.2	-51.7	286	10	
2025-07-05T12:00	6300	470	-14.3	-51.9	287	10	
2025-07-05T12:00	6320	469	-14.5	-52.0	287	11	
2025-07-05T12:00	6340	468	-14.6	-52.5	286	11	
2025-07-05T12:00	6360	467	-14.5	-52.6	286	11	
2025-07-05T12:00	6380	465	-14.5	-52.5	285	12	
2025-07-05T12:00	6400	464	-14.6	-52.7	285	12	
2025-07-05T12:00	6420	463	-14.8	-52.4	285	12	
2025-07-05T12:00	6440	462	-14.9	-52.4	284	12	
2025-07-05T12:00	6460	460	-15.1	-52.7	284	12	
2025-07-05T12:00	6480	459	-15.2	-53.2	284	12	
2025-07-05T12:00	6500	458	-15.3	-53.5	283	12	
2025-07-05T12:00	6520	457	-15.5	-53.6	283	12	
2025-07-05T12:00	6540	456	-15.6	-53.7	283	12	
2025-07-05T12:00	6560	454	-15.7	-53.8	282	12	
2025-07-05T12:00	6580	453	-15.9	-53.9	282	12	
2025-07-05T12:00	6600	452	-16.0	-53.7	282	12	
2025-07-05T12:00	6620	451	-16.0	-52.3	282	11	
2025-07-05T12:00	6640	450	-16.1	-50.5	282	11	
2025-07-05T12:00	6660	448	-16.2	-49.2	282	11	
2025-07-05T12:00	6680	447	-16.3	-48.6	283	11	
2025-07-05T12:00	6700	446	-16.5	-48.5	283	11	
2025-07-05T12:00	6720	445	-16.6	-48.3	284	11	
2025-07-05T12:00	6740	444	-16.8	-48.8	285	11	
2025-07-05T12:00	6760	442	-17.0	-49.2	286	11	
2025-07-05T12:00	6780	441	-17.2	-48.8	287	10	
2025-07-05T12:00	6800	440	-17.4	-48.7	289	10	
2025-07-05T12:00	6820	439	-17.6	-49.1	291	10	
2025-07-05T12:00	6840	438	-17.7	-49.8	294	9	
2025-07-05T12:00	6860	437	-17.8	-50.1	296	9	
2025-07-05T12:00	6880	435	-17.9	-51.0	299	9	
2025-07-05T12:00	6900	434	-18.0	-51.8	301	9	
2025-07-05T12:00	6920	433	-18.1	-51.8	303	8	
2025-07-05T12:00	6940	432	-18.1	-52.1	305	8	
2025-07-05T12:00	6960	431	-18.3	-51.9	306	8	
2025-07-05T12:00	6980	430	-18.3	-46.3	306	9	
2025-07-05T12:00	7000	429	-18.4	-41.1	305	9	
2025-07-05T12:00	7020	427	-18.5	-40.4	304	9	
2025-07-05T12:00	7040	426	-18.7	-40.3	303	9	
2025-07-05T12:00	7060	425	-18.8	-40.3	302	9	
2025-07-05T12:00	7080	424	-19.0	-41.0	301	9	
2025-07-05T12:00	7100	423	-19.1	-45.2	300	9	
2025-07-05T12:00	7120	422	-19.2	-47.6	300	9	
2025-07-05T12:00	7140	421	-19.3	-45.6	300	9	
2025-07-05T12:00	7160	420	-19.5	-45.4	300	10	
2025-07-05T12:00	7180	418	-19.6	-45.2	300	10	
2025-07-05T12:00	7200	417	-19.8	-45.0	301	10	
2025-07-05T12:00	7220	416	-20.0	-44.3	301	10	
2025-07-05T12:00	7240	415	-20.2	-43.8	302	11	
2025-07-05T12:00	7260	414	-20.3	-42.9	302	11	
2025-07-05T12:00	7280	413	-20.5	-42.8	302	11	
2025-07-05T12:00	7300	412	-20.7	-43.4	302	11	
2025-07-05T12:00	7320	411	-20.8	-43.4	302	11	
2025-07-05T12:00	7340	409	-21.0	-44.6	302	11	
2025-07-05T12:00	7360	408	-21.1	-46.5	301	11	
2025-07-05T12:00	7380	407	-21.3	-47.6	301	11	
2025-07-05T12:00	7400	406	-21.5	-48.4	302	10	
2025-07-05T12:00	7420	405	-21.6	-49.7	302	10	
2025-07-05T12:00	7440	404	-21.7	-51.5	304	10	
2025-07-05T12:00	7460	403	-21.8	-52.8	306	10	
2025-07-05T12:00	7480	402	-21.9	-54.8	307	10	
2025-07-05T12:00	7500	401	-22.0	-50.5	308	10	
2025-07-05T12:00	7520	400	-22.1	-46.7	308	10	
2025-07-05T12:00	7540	398	-22.2	-46.6	308	10	
2025-07-05T12:00	7560	397	-22.3	-46.7	307	10	
2025-07-05T12:00	7580	396	-22.5	-48.3	306	10	
2025-07-05T12:00	7600	395	-22.6	-51.6	305	10	
2025-07-05T12:00	7620	394	-22.7	-54.1	305	10	
2025-07-05T12:00	7640	393	-22.8	-52.4	304	10	
2025-07-05T12:00	7660	392	-22.9	-48.8	305	9	
2025-07-05T12:00	7680	391	-23.0	-47.6	305	10	
2025-07-05T12:00	7700	390	-23.2	-47.0	306	10	
2025-07-05T12:00	7720	389	-23.4	-45.3	307	10	
2025-07-05T12:00	7740	388	-23.5	-43.2	307	10	
2025-07-05T12:00	7760	387	-23.7	-43.1	308	10	
2025-07-05T12:00	7780	386	-23.9	-43.0	308	9	
2025-07-05T12:00	7800	385	-24.1	-42.0	309	9	
2025-07-05T12:00	7820	383	-24.3	-38.1	308	9	
2025-07-05T12:00	7840	382	-24.4	-37.4	308	10	
2025-07-05T12:00	7860	381	-24.6	-40.5	306	10	
2025-07-05T12:00	7880	380	-24.7	-45.4	304	10	
2025-07-05T12:00	7900	379	-24.8	-46.7	302	10	
2025-07-05T12:00	7920	378	-25.0	-46.2	300	11	
2025-07-05T12:00	7940	377	-25.1	-46.2	298	11	
2025-07-05T12:00	7960	376	-25.3	-45.3	296	11	
2025-07-05T12:00	7980	375	-25.4	-46.6	296	11	
2025-07-05T12:00	8000	374	-25.6	-47.2	296	11	
2025-07-05T12:00	8020	373	-25.7	-48.6	297	11	
2025-07-05T12:00	8040	372	-25.9	-49.7	298	11	
2025-07-05T12:00	8060	371	-26.0	-51.4	298	11	
2025-07-05T12:00	8080	370	-26.0	-52.1	299	11	
2025-07-05T12:00	8100	369	-26.1	-51.9	299	11	
2025-07-05T12:00	8120	368	-26.2	-51.8	299	11	
2025-07-05T12:00	8140	367	-26.4	-51.9	299	11	
2025-07-05T12:00	8160	366	-26.5	-50.8	299	11	
2025-07-05T12:00	8180	365	-26.7	-49.8	299	11	
2025-07-05T12:00	8200	364	-26.9	-50.1	300	11	
2025-07-05T12:00	8220	363	-27.0	-51.2	301	11	
2025-07-05T12:00	8240	362	-27.1	-52.0	301	11	
2025-07-05T12:00	8260	361	-27.2	-52.3	302	11	
2025-07-05T12:00	8280	360	-27.4	-52.1	303	11	
2025-07-05T12:00	8300	359	-27.6	-52.2	304	11	
2025-07-05T12:00	8320	358	-27.8	-52.2	304	10	
2025-07-05T12:00	8340	357	-28.0	-52.2	303	10	
2025-07-05T12:00	8360	356	-28.1	-52.5	301	9	
2025-07-05T12:00	8380	355	-28.2	-53.8	300	8	
2025-07-05T12:00	8400	354	-28.3	-55.4	298	8	
2025-07-05T12:00	8420	353	-28.4	-56.1	296	8	
2025-07-05T12:00	8440	352	-28.6	-57.0	295	8	
2025-07-05T12:00	8460	351	-28.8	-57.5	293	7	
2025-07-05T12:00	8480	350	-28.8	-58.2	292	7	
2025-07-05T12:00	8500	349	-28.8	-56.6	289	7	
2025-07-05T12:00	8520	348	-28.8	-55.9	287	7	
2025-07-05T12:00	8540	347	-29.0	-55.2	286	7	
2025-07-05T12:00	8560	346	-29.2	-54.3	285	7	
2025-07-05T12:00	8580	345	-29.4	-53.7	285	7	
2025-07-05T12:00	8600	344	-29.5	-53.3	285	6	
2025-07-05T12:00	8620	343	-29.7	-52.8	286	6	
2025-07-05T12:00	8640	342	-29.9	-52.4	287	6	
2025-07-05T12:00	8660	341	-30.1	-51.4	287	6	
2025-07-05T12:00	8680	340	-30.3	-51.1	286	6	
2025-07-05T12:00	8700	339	-30.4	-50.9	284	6	
2025-07-05T12:00	8720	338	-30.6	-50.8	280	6	
2025-07-05T12:00	8740	337	-30.8	-50.8	277	6	
2025-07-05T12:00	8760	336	-31.0	-50.8	275	6	
2025-07-05T12:00	8780	335	-31.2	-50.8	273	6	
2025-07-05T12:00	8800	335	-31.4	-50.9	272	6	
2025-07-05T12:00	8820	334	-31.6	-50.9	273	6	
2025-07-05T12:00	8840	333	-31.8	-50.8	275	6	
2025-07-05T12:00	8860	332	-31.9	-50.8	278	6	
2025-07-05T12:00	8880	331	-32.2	-50.8	283	6	
2025-07-05T12:00	8900	330	-32.3	-51.0	286	6	
2025-07-05T12:00	8920	329	-32.5	-51.3	289	6	
2025-07-05T12:00	8940	328	-32.7	-51.7	292	6	
2025-07-05T12:00	8960	327	-32.8	-51.8	294	6	
2025-07-05T12:00	8980	326	-33.0	-52.4	296	6	
2025-07-05T12:00	9000	325	-33.2	-53.2	297	6	
2025-07-05T12:00	9020	324	-33.4	-53.4	297	5	
2025-07-05T12:00	9040	323	-33.5	-53.5	297	5	
2025-07-05T12:00	9060	323	-33.7	-53.1	297	5	
2025-07-05T12:00	9080	322	-33.9	-52.4	296	5	
2025-07-05T12:00	9100	321	-34.1	-52.5	295	5	
2025-07-05T12:00	9120	320	-34.3	-51.9	293	4	
2025-07-05T12:00	9140	319	-34.4	-51.1	291	4	
2025-07-05T12:00	9160	318	-34.6	-50.9	289	4	
2025-07-05T12:00	9180	317	-34.8	-50.9	288	4	
2025-07-05T12:00	9200	316	-35.0	-50.9	288	4	
2025-07-05T12:00	9220	315	-35.2	-50.9	289	5	
2025-07-05T12:00	9240	314	-35.4	-51.0	289	5	
2025-07-05T12:00	9260	313	-35.6	-51.0	290	5	
2025-07-05T12:00	9280	312	-35.8	-51.1	291	5	
2025-07-05T12:00	9300	312	-36.0	-51.2	291	5	
2025-07-05T12:00	9320	311	-36.2	-51.3	292	5	
2025-07-05T12:00	9340	310	-36.4	-51.3	292	5	
2025-07-05T12:00	9360	309	-36.5	-51.4	293	5	
2025-07-05T12:00	9380	308	-36.7	-51.3	293	5	
2025-07-05T12:00	9400	307	-36.9	-51.4	295	5	
2025-07-05T12:00	9420	306	-37.1	-51.5	296	5	
2025-07-05T12:00	9440	305	-37.3	-51.6	297	5	
2025-07-05T12:00	9460	304	-37.5	-51.8	298	5	
2025-07-05T12:00	9480	304	-37.7	-51.6	298	5	
2025-07-05T12:00	9500	303	-37.9	-51.5	298	5	
2025-07-05T12:00	9520	302	-38.0	-51.1	298	5	
2025-07-05T12:00	9540	301	-38.2	-51.3	297	5	
2025-07-05T12:00	9560	300	-38.4	-50.8	297	5	
2025-07-05T12:00	9580	299	-38.6	-47.6	297	5	
2025-07-05T12:00	9600	298	-38.7	-46.7	297	5	
2025-07-05T12:00	9620	297	-38.9	-47.1	297	5	
2025-07-05T12:00	9640	297	-39.1	-48.1	296	5	
2025-07-05T12:00	9660	296	-39.3	-52.1	296	5	
2025-07-05T12:00	9680	295	-39.4	-58.6	294	5	
2025-07-05T12:00	9700	294	-39.5	-58.6	293	5	
2025-07-05T12:00	9720	293	-39.6	-56.5	291	5	
2025-07-05T12:00	9740	292	-39.8	-54.3	290	5	
2025-07-05T12:00	9760	291	-39.9	-51.4	290	5	
2025-07-05T12:00	9780	291	-40.0	-50.0	291	5	
2025-07-05T12:00	9800	290	-40.2	-50.2	292	5	
2025-07-05T12:00	9820	289	-40.3	-49.3	294	6	
2025-07-05T12:00	9840	288	-40.4	-48.7	296	6	
2025-07-05T12:00	9860	287	-40.6	-48.7	298	6	
2025-07-05T12:00	9880	286	-40.8	-48.8	301	7	
2025-07-05T12:00	9900	285	-41.0	-48.9	302	7	
2025-07-05T12:00	9920	285	-41.2	-49.0	303	8	
2025-07-05T12:00	9940	284	-41.3	-48.9	305	8	
2025-07-05T12:00	9960	283	-41.5	-48.7	306	8	
2025-07-05T12:00	9980	282	-41.7	-48.5	307	8	
2025-07-05T12:00	10000	281	-41.9	-48.3	308	8	
2025-07-05T12:00	10018	281	-42.0	-48.3	309	8	
2025-07-05T12:00	10050	279	-42.3	-48.3	311	8	
2025-07-05T12:00	10100	277	-42.8	-47.8	315	8	
2025-07-05T12:00	10150	275	-43.2	-47.4	315	8	
2025-07-05T12:00	10200	273	-43.6	-47.6	312	8	
2025-07-05T12:00	10250	271	-43.9	-48.7	308	7	
2025-07-05T12:00	10300	269	-44.3	-49.5	307	7	
2025-07-05T12:00	10350	267	-44.7	-49.3	310	6	
2025-07-05T12:00	10400	265	-45.1	-49.6	317	6	
2025-07-05T12:00	10450	263	-45.4	-49.7	321	6	
2025-07-05T12:00	10500	261	-45.8	-49.6	321	7	
2025-07-05T12:00	10550	259	-46.2	-49.7	321	7	
2025-07-05T12:00	10600	257	-46.6	-49.9	323	8	
2025-07-05T12:00	10650	255	-47.0	-50.9	324	8	
2025-07-05T12:00	10700	253	-47.4	-51.1	324	7	
2025-07-05T12:00	10750	251	-47.9	-51.4	322	7	
2025-07-05T12:00	10800	250	-48.3	-51.9	319	7	
2025-07-05T12:00	10850	248	-48.7	-52.4	317	7	
2025-07-05T12:00	10900	246	-49.2	-52.8	319	7	
2025-07-05T12:00	10950	244	-49.5	-55.2	321	7	
2025-07-05T12:00	11000	242	-49.9	-55.5	321	8	
2025-07-05T12:00	11050	240	-50.3	-55.9	321	7	
2025-07-05T12:00	11100	238	-50.6	-56.3	322	6	
2025-07-05T12:00	11150	237	-50.7	-57.2	323	5	
2025-07-05T12:00	11200	235	-50.9	-58.6	321	4	
2025-07-05T12:00	11250	233	-51.3	-59.8	318	4	
2025-07-05T12:00	11300	231	-51.6	-60.2	320	5	
2025-07-05T12:00	11350	229	-51.8	-59.8	322	6	
2025-07-05T12:00	11400	228	-52.0	-60.0	321	6	
2025-07-05T12:00	11450	226	-52.3	-61.0	318	6	
2025-07-05T12:00	11500	224	-52.7	-61.4	316	7	
2025-07-05T12:00	11550	222	-53.0	-62.7	316	7	
2025-07-05T12:00	11600	221	-52.7	-64.9	316	7	
2025-07-05T12:00	11650	219	-52.8	-64.8	315	7	
2025-07-05T12:00	11700	217	-53.2	-64.2	315	7	
2025-07-05T12:00	11750	216	-53.5	-64.4	314	6	
2025-07-05T12:00	11800	214	-53.7	-65.0	314	5	
2025-07-05T12:00	11850	212	-53.9	-66.0	313	4	
2025-07-05T12:00	11900	211	-54.1	-66.9	302	4	
2025-07-05T12:00	11950	209	-54.0	-68.2	285	5	
2025-07-05T12:00	12000	207	-53.7	-70.7	270	6	
2025-07-05T12:00	12050	206	-52.7	-73.5	262	8	
2025-07-05T12:00	12100	204	-52.7	-73.7	260	8	
2025-07-05T12:00	12150	203	-53.1	-73.6	262	9	
2025-07-05T12:00	12200	201	-53.5	-73.5	265	9	
2025-07-05T12:00	12250	199	-53.9	-73.6	267	10	
2025-07-05T12:00	12300	198	-54.2	-74.0	268	10	
2025-07-05T12:00	12350	196	-54.6	-74.2	270	10	
2025-07-05T12:00	12400	195	-55.1	-74.2	273	10	
2025-07-05T12:00	12450	193	-55.5	-74.2	275	10	
2025-07-05T12:00	12500	192	-55.6	-74.7	274	11	
2025-07-05T12:00	12550	190	-55.1	-75.3	271	13	
2025-07-05T12:00	12600	189	-55.3	-75.9	270	13	
2025-07-05T12:00	12650	187	-55.5	-76.2	270	14	
2025-07-05T12:00	12700	186	-55.6	-76.5	270	13	
2025-07-05T12:00	12750	184	-55.5	-76.8	270	12	
2025-07-05T12:00	12800	183	-54.9	-77.1	267	12	
2025-07-05T12:00	12850	182	-54.8	-77.3	262	13	
2025-07-05T12:00	12900	180	-54.6	-77.3	259	14	
2025-07-05T12:00	12950	179	-54.7	-77.3	260	16	
2025-07-05T12:00	13000	177	-54.7	-77.4	261	17	
2025-07-05T12:00	13050	176	-54.9	-77.7	263	17	
2025-07-05T12:00	13100	175	-55.1	-77.9	262	17	
2025-07-05T12:00	13150	173	-54.4	-78.6	262	17	
2025-07-05T12:00	13200	172	-53.6	-79.2	264	17	
2025-07-05T12:00	13250	171	-53.7	-79.3	266	18	
2025-07-05T12:00	13300	169	-53.9	-79.5	265	18	
2025-07-05T12:00	13350	168	-54.0	-80.0	260	18	
2025-07-05T12:00	13400	167	-53.1	-80.2	255	18	
2025-07-05T12:00	13450	165	-53.2	-80.3	251	19	
2025-07-05T12:00	13500	164	-53.5	-80.3	248	19	
2025-07-05T12:00	13550	163	-53.8	-80.5	248	19	
2025-07-05T12:00	13600	162	-53.5	-80.6	252	19	
2025-07-05T12:00	13650	160	-53.4	-80.6	257	19	
2025-07-05T12:00	13700	159	-53.5	-80.6	260	20	
2025-07-05T12:00	13750	158	-53.6	-80.7	262	20	
2025-07-05T12:00	13800	157	-53.9	-80.9	263	20	
2025-07-05T12:00	13850	155	-54.2	-81.1	265	21	
2025-07-05T12:00	13900	154	-54.4	-81.2	265	21	
2025-07-05T12:00	13950	153	-54.2	-81.4	261	21	
2025-07-05T12:00	14000	152	-54.0	-81.5	257	21	
2025-07-05T12:00	14050	151	-54.0	-81.6	254	22	
2025-07-05T12:00	14100	149	-54.1	-81.6	254	23	
2025-07-05T12:00	14150	148	-53.9	-81.5	257	24	
2025-07-05T12:00	14200	147	-53.7	-81.4	258	24	
2025-07-05T12:00	14250	146	-53.6	-81.2	255	24	
2025-07-05T12:00	14300	145	-53.8	-80.9	253	24	
2025-07-05T12:00	14350	144	-53.9	-80.6	253	25	
2025-07-05T12:00	14400	143	-53.9	-80.5	254	25	
2025-07-05T12:00	14450	141	-54.1	-80.7	254	25	
2025-07-05T12:00	14500	140	-54.3	-80.8	256	25	
2025-07-05T12:00	14550	139	-54.5	-81.0	258	26	
2025-07-05T12:00	14600	138	-54.7	-81.1	259	27	
2025-07-05T12:00	14650	137	-54.8	-81.3	260	27	
2025-07-05T12:00	14700	136	-55.0	-81.5	261	26	
2025-07-05T12:00	14750	135	-54.9	-81.6	262	25	
2025-07-05T12:00	14800	134	-55.2	-81.7	262	23	
2025-07-05T12:00	14850	133	-55.3	-82.0	261	21	
2025-07-05T12:00	14900	132	-54.9	-82.4	261	20	
2025-07-05T12:00	14950	131	-54.6	-82.5	263	19	
2025-07-05T12:00	15000	130	-54.2	-82.5	262	18	
2025-07-05T12:00	15050	129	-54.2	-82.4	260	17	
2025-07-05T12:00	15100	128	-54.5	-82.4	259	17	
2025-07-05T12:00	15150	127	-54.8	-82.5	258	17	
2025-07-05T12:00	15200	126	-54.9	-82.7	257	18	
2025-07-05T12:00	15250	125	-54.8	-82.6	255	18	
2025-07-05T12:00	15300	124	-54.8	-82.4	251	19	
2025-07-05T12:00	15350	123	-55.2	-82.5	248	19	
2025-07-05T12:00	15400	122	-55.5	-82.6	247	19	
2025-07-05T12:00	15450	121	-55.8	-82.7	247	20	
2025-07-05T12:00	15500	120	-56.1	-82.8	247	21	
2025-07-05T12:00	15550	119	-56.4	-83.1	250	21	
2025-07-05T12:00	15600	118	-56.5	-83.2	253	21	
2025-07-05T12:00	15650	117	-56.6	-83.2	257	20	
2025-07-05T12:00	15700	116	-56.9	-83.4	259	20	
2025-07-05T12:00	15750	115	-57.1	-83.5	261	19	
2025-07-05T12:00	15800	114	-57.4	-83.6	264	19	
2025-07-05T12:00	15850	114	-57.6	-83.7	266	18	
2025-07-05T12:00	15900	113	-57.9	-83.8	268	18	
2025-07-05T12:00	15950	112	-58.2	-83.9	273	18	
2025-07-05T12:00	16000	111	-58.3	-84.1	279	19	
2025-07-05T12:00	16050	110	-58.0	-84.2	283	19	
2025-07-05T12:00	16100	109	-57.3	-84.2	286	19	
2025-07-05T12:00	16150	108	-57.1	-84.1	288	18	
2025-07-05T12:00	16200	107	-57.3	-84.0	289	17	
2025-07-05T12:00	16250	107	-57.5	-84.1	289	15	
2025-07-05T12:00	16300	106	-57.4	-84.3	288	13	
2025-07-05T12:00	16350	105	-56.9	-84.2	284	11	
2025-07-05T12:00	16400	104	-56.8	-84.1	277	9	
2025-07-05T12:00	16450	103	-57.0	-84.2	268	8	
2025-07-05T12:00	16500	102	-57.0	-84.0	260	7	
2025-07-05T12:00	16550	102	-57.3	-84.1	252	7	
2025-07-05T12:00	16600	101	-57.7	-84.2	246	8	
2025-07-05T12:00	16650	100	-58.2	-84.3	242	9	
2025-07-05T12:00	16700	99	-58.6	-84.5	243	10	
2025-07-05T12:00	16750	99	-58.9	-84.6	246	10	
2025-07-05T12:00	16800	98	-58.9	-84.8	249	10	
2025-07-05T12:00	16850	97	-58.9	-84.8	247	10	
2025-07-05T12:00	16900	96	-59.0	-84.8	242	11	
2025-07-05T12:00	16950	95	-59.3	-84.9	239	11	
2025-07-05T12:00	17000	95	-59.7	-85.0	239	11	
2025-07-05T12:00	17050	94	-59.8	-85.0	243	12	
2025-07-05T12:00	17100	93	-60.0	-85.1	247	13	
2025-07-05T12:00	17150	92	-60.2	-85.3	248	13	
2025-07-05T12:00	17200	92	-59.9	-85.3	244	13	
2025-07-05T12:00	17250	91	-59.8	-85.4	238	12	
2025-07-05T12:00	17300	90	-59.8	-85.3	236	12	
2025-07-05T12:00	17350	89	-59.9	-85.3	233	11	
2025-07-05T12:00	17400	89	-60.2	-85.3	231	11	
2025-07-05T12:00	17450	88	-60.3	-85.3	230	11	
2025-07-05T12:00	17500	87	-60.6	-85.4	231	11	
2025-07-05T12:00	17550	87	-60.8	-85.6	233	11	
2025-07-05T12:00	17600	86	-60.5	-85.6	237	11	
2025-07-05T12:00	17650	85	-60.7	-85.7	241	12	
2025-07-05T12:00	17700	85	-61.0	-85.8	242	12	
2025-07-05T12:00	17750	84	-61.0	-85.9	241	13	
2025-07-05T12:00	17800	83	-60.9	-85.9	242	14	
2025-07-05T12:00	17850	83	-61.1	-86.1	246	15	
2025-07-05T12:00	17900	82	-61.1	-86.2	252	15	
2025-07-05T12:00	17950	81	-60.6	-86.0	257	16	
2025-07-05T12:00	18000	81	-60.9	-86.2	263	16	
2025-07-05T12:00	18050	80	-60.4	-86.3	270	15	
2025-07-05T12:00	18100	79	-59.4	-86.0	278	14	
2025-07-05T12:00	18150	79	-59.0	-85.9	283	14	
2025-07-05T12:00	18200	78	-58.9	-85.8	288	13	
2025-07-05T12:00	18250	77	-58.7	-85.7	293	12	
2025-07-05T12:00	18300	77	-58.5	-85.6	297	10	
2025-07-05T12:00	18350	76	-58.2	-85.5	299	8	
2025-07-05T12:00	18400	76	-57.9	-85.4	299	7	
2025-07-05T12:00	18450	75	-57.7	-85.4	294	6	
2025-07-05T12:00	18500	74	-57.1	-85.1	282	6	
2025-07-05T12:00	18550	74	-57.1	-85.1	269	5	
2025-07-05T12:00	18600	73	-56.9	-85.0	259	5	
2025-07-05T12:00	18650	73	-57.0	-85.0	257	5	
2025-07-05T12:00	18700	72	-57.1	-85.1	261	4	
2025-07-05T12:00	18750	72	-57.2	-85.1	266	3	
2025-07-05T12:00	18800	71	-57.1	-85.0	268	3	
2025-07-05T12:00	18850	70	-57.4	-85.1	270	2	
2025-07-05T12:00	18900	70	-57.8	-85.2	260	1	
2025-07-05T12:00	18950	69	-58.0	-85.4	192	1	
2025-07-05T12:00	19000	69	-57.8	-85.4	193	2	
2025-07-05T12:00	19050	68	-57.8	-85.5	196	3	
2025-07-05T12:00	19100	68	-57.7	-85.8	191	4	
2025-07-05T12:00	19150	67	-56.4	-85.3	188	5	
2025-07-05T12:00	19200	67	-56.5	-85.2	190	5	
2025-07-05T12:00	19250	66	-56.8	-85.1	190	6	
2025-07-05T12:00	19300	66	-57.0	-85.1	187	6	
2025-07-05T12:00	19350	65	-56.5	-85.0	189	6	
2025-07-05T12:00	19400	65	-56.6	-85.1	197	6	
2025-07-05T12:00	19450	64	-56.8	-85.0	209	6	
2025-07-05T12:00	19500	64	-57.1	-85.0	219	6	
2025-07-05T12:00	19550	63	-57.3	-85.1	228	6	
2025-07-05T12:00	19600	63	-57.5	-85.2	235	5	
2025-07-05T12:00	19650	62	-57.6	-85.3	240	5	
2025-07-05T12:00	19700	62	-57.7	-85.3	246	4	
2025-07-05T12:00	19750	61	-58.0	-85.4	257	4	
2025-07-05T12:00	19800	61	-58.2	-85.4	268	4	
2025-07-05T12:00	19850	60	-58.5	-85.5	278	5	
2025-07-05T12:00	19900	60	-58.9	-85.7	289	5	
2025-07-05T12:00	19950	59	-59.0	-85.9	298	6	
2025-07-05T12:00	20000	59	-58.7	-85.9	307	5	
2025-07-05T12:00	20050	58	-58.5		314	5	
2025-07-05T12:00	20100	58	-58.0		317	4	
2025-07-05T12:00	20150	57	-57.5		313	4	
2025-07-05T12:00	20200	57	-57.3		299	2	
2025-07-05T12:00	20250	56	-57.0		154	1	
2025-07-05T12:00	20300	56	-56.5		140	4	
2025-07-05T12:00	20350	56	-56.1		139	6	
2025-07-05T12:00	20400	55	-56.3		141	7	
2025-07-05T12:00	20450	55	-56.7		145	6	
2025-07-05T12:00	20500	54	-56.9		153	5	
2025-07-05T12:00	20550	54	-57.0		167	5	
2025-07-05T12:00	20600	53	-57.0		182	5	
2025-07-05T12:00	20650	53	-57.2		193	5	
2025-07-05T12:00	20700	53	-57.4		197	5	
2025-07-05T12:00	20750	52	-57.5		197	5	
2025-07-05T12:00	20800	52	-57.5		197	4	
2025-07-05T12:00	20850	51	-56.5		199	4	
2025-07-05T12:00	20900	51	-55.9		197	4	
2025-07-05T12:00	20950	51	-55.7		194	3	
2025-07-05T12:00	21000	50	-55.5		195	2	
2025-07-05T12:00	21050	50	-55.5		207	2	
2025-07-05T12:00	21100	49	-55.7		233	1	
2025-07-05T12:00	21150	49	-55.8		260	1	
2025-07-05T12:00	21200	49	-55.3		258	2	
2025-07-05T12:00	21250	48	-55.0		238	2	
2025-07-05T12:00	21300	48	-54.9		225	3	
2025-07-05T12:00	21350	47	-55.1		221	4	
2025-07-05T12:00	21400	47	-55.0		224	3	
2025-07-05T12:00	21450	47	-54.6		242	1	
2025-07-05T12:00	21500	46	-54.7		2	1	
2025-07-05T12:00	21550	46	-54.5		54	2	
2025-07-05T12:00	21600	46	-54.3		73	4	
2025-07-05T12:00	21650	45	-54.2		85	5	
2025-07-05T12:00	21700	45	-53.8		95	5	
2025-07-05T12:00	21750	45	-53.9		111	5	
2025-07-05T12:00	21800	44	-53.9		134	4	
2025-07-05T12:00	21850	44	-53.9		157	3	
2025-07-05T12:00	21900	44	-53.9		169	2	
2025-07-05T12:00	21950	43	-53.7		143	0	
2025-07-05T12:00	22000	43	-53.5		21	1	
2025-07-05T12:00	22050	43	-53.2		8	1	
2025-07-05T12:00	22100	42	-53.0		15	2	
2025-07-05T12:00	22150	42	-53.1		44	2	
2025-07-05T12:00	22200	42	-52.9		65	4	
2025-07-05T12:00	22250	41	-52.9		78	6	
2025-07-05T12:00	22300	41	-52.8		89	8	
2025-07-05T12:00	22350	41	-52.8		97	9	
2025-07-05T12:00	22400	40	-52.8		105	9	
2025-07-05T12:00	22450	40	-52.6		109	9	
2025-07-05T12:00	22500	40	-52.5		111	8	
2025-07-05T12:00	22550	39	-52.5		115	8	
2025-07-05T12:00	22600	39	-52.5		121	7	
2025-07-05T12:00	22650	39	-52.4		126	6	
2025-07-05T12:00	22700	38	-52.5		129	6	
2025-07-05T12:00	22750	38	-52.5		124	6	
2025-07-05T12:00	22800	38	-52.5		116	6	
2025-07-05T12:00	22850	38	-52.2		112	6	
2025-07-05T12:00	22900	37	-51.7		116	6	
2025-07-05T12:00	22950	37	-51.5		125	5	
2025-07-05T12:00	23000	37	-51.6		136	5	
2025-07-05T12:00	23050	36	-51.9		141	5	
2025-07-05T12:00	23100	36	-51.9		134	5	
2025-07-05T12:00	23150	36	-52.0		117	4	
2025-07-05T12:00	23200	36	-52.1		97	5	
2025-07-05T12:00	23250	35	-52.0		86	6	
2025-07-05T12:00	23300	35	-51.7		83	7	
2025-07-05T12:00	23350	35	-51.4		84	8	
2025-07-05T12:00	23400	35	-51.4		85	10	
2025-07-05T12:00	23450	34	-51.6		87	10	
2025-07-05T12:00	23500	34	-51.6		92	10	
2025-07-05T12:00	23550	34	-51.5		98	10	
2025-07-05T12:00	23600	33	-51.4		106	10	
2025-07-05T12:00	23650	33	-51.2		112	10	
2025-07-05T12:00	23700	33	-51.3		116	11	
2025-07-05T12:00	23750	33	-51.5		121	12	
2025-07-05T12:00	23800	32	-51.6		125	12	
2025-07-05T12:00	23850	32	-51.6		127	12	
2025-07-05T12:00	23900	32	-51.4		127	11	
2025-07-05T12:00	23950	32	-51.5		127	10	
2025-07-05T12:00	24000	31	-51.8		129	9	
2025-07-05T12:00	24050	31	-51.8		131	8	
2025-07-05T12:00	24100	31	-51.7		129	7	
2025-07-05T12:00	24150	31	-51.7		127	7	
2025-07-05T12:00	24200	31	-51.5		124	7	
2025-07-05T12:00	24250	30	-51.3		118	7	
2025-07-05T12:00	24300	30	-51.1		107	6	
2025-07-05T12:00	24350	30	-50.7		97	6	
2025-07-05T12:00	24400	30	-50.4		91	6	
2025-07-05T12:00	24450	29	-50.3		89	7	
2025-07-05T12:00	24500	29	-50.4		89	8	
2025-07-05T12:00	24550	29	-50.5		87	9	
2025-07-05T12:00	24600	29	-50.6		86	10	
2025-07-05T12:00	24650	28	-50.7		88	11	
2025-07-05T12:00	24700	28	-50.6		94	12	
2025-07-05T12:00	24750	28	-50.7		101	12	
2025-07-05T12:00	24800	28	-50.7		104	12	
2025-07-05T12:00	24850	28	-50.7		105	12	
2025-07-05T12:00	24900	27	-50.8		106	11	
2025-07-05T12:00	24950	27	-50.7		110	11	
2025-07-05T12:00	25000	27	-50.7		114	11	
2025-07-05T12:00	25050	27	-50.7		115	11	
2025-07-05T12:00	25100	27	-50.4		113	10	
2025-07-05T12:00	25150	26	-50.0		107	10	
2025-07-05T12:00	25200	26	-49.9		99	10	
2025-07-05T12:00	25250	26	-49.9		95	9	
2025-07-05T12:00	25300	26	-49.7		97	9	
2025-07-05T12:00	25350	26	-49.6		105	9	
2025-07-05T12:00	25400	25	-49.8		113	10	
2025-07-05T12:00	25450	25	-50.0		120	10	
2025-07-05T12:00	25500	25	-50.3		124	11	
2025-07-05T12:00	25550	25	-50.5		123	10	
2025-07-05T12:00	25600	25	-50.0		118	10	
2025-07-05T12:00	25650	24	-49.4		109	9	
2025-07-05T12:00	25700	24	-49.2		105	8	
2025-07-05T12:00	25750	24	-49.1		107	8	
2025-07-05T12:00	25800	24	-49.0		113	8	
2025-07-05T12:00	25850	24	-48.8		118	9	
2025-07-05T12:00	25900	24	-48.6		122	10	
2025-07-05T12:00	25950	23	-48.6		125	11	
2025-07-05T12:00	26000	23	-48.5		127	11	
2025-07-05T12:00	26050	23	-48.5		130	10	
2025-07-05T12:00	26100	23	-48.2		131	9	
2025-07-05T12:00	26150	23	-48.4		131	8	
2025-07-05T12:00	26200	22	-48.2		131	8	
2025-07-05T12:00	26250	22	-48.0		131	7	
2025-07-05T12:00	26300	22	-48.1		132	7	
2025-07-05T12:00	26350	22	-48.2		130	7	
2025-07-05T12:00	26400	22	-48.5		125	6	
2025-07-05T12:00	26450	22	-48.7		114	6	
2025-07-05T12:00	26500	21	-48.7		103	6	
2025-07-05T12:00	26550	21	-48.7		98	7	
2025-07-05T12:00	26600	21	-48.7		95	8	
2025-07-05T12:00	26650	21	-48.8		95	10	
2025-07-05T12:00	26700	21	-48.7		97	11	
2025-07-05T12:00	26750	21	-48.5		101	11	
2025-07-05T12:00	26800	21	-48.5		103	11	
2025-07-05T12:00	26850	20	-48.4		105	12	
2025-07-05T12:00	26900	20	-48.2		110	12	
2025-07-05T12:00	26950	20	-47.8		117	12	
2025-07-05T12:00	27000	20	-47.5		126	11	
2025-07-05T12:00	27050	20	-47.4		133	10	
2025-07-05T12:00	27100	20	-47.3		137	10	
2025-07-05T12:00	27150	19	-47.2		140	10	
2025-07-05T12:00	27200	19	-47.2		143	9	
2025-07-05T12:00	27250	19	-47.5		145	9	
2025-07-05T12:00	27300	19	-47.7		146	8	
2025-07-05T12:00	27350	19	-48.0		145	7	
2025-07-05T12:00	27400	19	-48.1		138	7	
2025-07-05T12:00	27450	19	-48.1		126	6	
2025-07-05T12:00	27500	18	-48.2		115	7	
2025-07-05T12:00	27550	18	-48.4		108	8	
2025-07-05T12:00	27600	18	-48.5		104	8	
2025-07-05T12:00	27650	18	-48.6		104	8	
2025-07-05T12:00	27700	18	-48.5		106	8	
2025-07-05T12:00	27750	18	-48.4		105	7	
2025-07-05T12:00	27800	18	-48.2		102	7	
2025-07-05T12:00	27850	17	-47.9		99	7	
2025-07-05T12:00	27900	17	-47.8		98	7	
2025-07-05T12:00	27950	17	-47.6		99	8	
2025-07-05T12:00	28000	17	-47.5		99	7	
2025-07-05T12:00	28050	17	-47.4		98	7	
2025-07-05T12:00	28100	17	-47.1		94	6	
2025-07-05T12:00	28150	17	-46.7		87	6	
2025-07-05T12:00	28200	17	-46.6		77	7	
2025-07-05T12:00	28250	16	-46.5		70	8	
2025-07-05T12:00	28300	16	-46.3		68	10	
2025-07-05T12:00	28350	16	-46.1		69	10	
2025-07-05T12:00	28400	16	-45.9		70	10	
2025-07-05T12:00	28450	16	-45.6		74	9	
2025-07-05T12:00	28500	16	-45.5		78	9	
2025-07-05T12:00	28550	16	-45.0		81	9	
2025-07-05T12:00	28600	16	-44.9		83	9	
2025-07-05T12:00	28650	15	-44.9		87	10	
2025-07-05T12:00	28700	15	-45.0		93	9	
2025-07-05T12:00	28750	15	-44.9		100	9	
2025-07-05T12:00	28800	15	-44.9		105	8	
2025-07-05T12:00	28850	15	-44.7		103	8	
2025-07-05T12:00	28900	15	-44.5		97	9	
2025-07-05T12:00	28950	15	-44.3		91	10	
2025-07-05T12:00	29000	15	-44.2		89	11	
2025-07-05T12:00	29050	15	-44.1		90	11	
2025-07-05T12:00	29100	14	-44.1		91	11	
2025-07-05T12:00	29150	14	-43.8		90	11	
2025-07-05T12:00	29200	14	-43.7		88	10	
2025-07-05T12:00	29250	14	-43.8		86	10	
2025-07-05T12:00	29300	14	-43.7		83	9	
2025-07-05T12:00	29350	14	-43.6		78	10	
2025-07-05T12:00	29400	14	-43.5		73	10	
2025-07-05T12:00	29450	14	-43.4		71	11	
2025-07-05T12:00	29500	14	-43.4		70	12	
2025-07-05T12:00	29550	14	-43.5		72	12	
2025-07-05T12:00	29600	13	-43.6		75	13	
2025-07-05T12:00	29650	13	-43.7		79	13	
2025-07-05T12:00	29700	13	-43.7		85	14	
2025-07-05T12:00	29750	13	-43.6		89	14	
2025-07-05T12:00	29800	13	-43.6		93	14	
2025-07-05T12:00	29850	13	-43.5		93	14	
2025-07-05T12:00	29900	13	-43.2		93	13	
2025-07-05T12:00	29950	13	-43.0		94	12	
2025-07-05T12:00	30000	13	-42.7		96	11	
2025-07-05T12:00	30050	13	-42.4		96	10	
2025-07-05T12:00	30100	12	-42.1		95	10	
2025-07-05T12:00	30150	12	-42.0		92	10	
2025-07-05T12:00	30200	12	-41.9		89	11	
2025-07-05T12:00	30250	12	-41.8		89	11	
2025-07-05T12:00	30300	12	-41.7		91	11	
2025-07-05T12:00	30350	12	-41.4		94	12	
2025-07-05T12:00	30400	12	-41.2		95	12	
2025-07-05T12:00	30450	12	-40.9		94	11	
2025-07-05T12:00	30500	12	-40.9		94	12	
2025-07-05T12:00	30550	12	-40.8		96	12	
2025-07-05T12:00	30600	12	-40.7		101	12	
2025-07-05T12:00	30650	12	-40.6		105	13	
2025-07-05T12:00	30700	11	-40.7		108	13	
2025-07-05T12:00	30750	11	-40.5		108	13	
2025-07-05T12:00	30800	11	-40.4		108	13	
2025-07-05T12:00	30850	11	-40.4		108	13	
2025-07-05T12:00	30900	11	-40.5		109	13	
2025-07-05T12:00	30950	11	-40.4		109	13	
2025-07-05T12:00	31000	11	-40.2		107	13	
2025-07-05T12:00	31050	11	-40.0		103	13	
2025-07-05T12:00	31100	11	-39.8		100	14	
2025-07-05T12:00	31150	11	-39.8		98	15	
2025-07-05T12:00	31200	11	-39.8		98	16	
2025-07-05T12:00	31250	11	-39.6		99	17	
2025-07-05T12:00	31300	10	-39.3		102	18	
2025-07-05T12:00	31350	10	-39.3		105	17	
2025-07-05T12:00	31400	10	-39.3		107	17	
2025-07-05T12:00	31450	10	-39.1		108	15	
2025-07-05T12:00	31500	10	-38.9		106	14	
2025-07-05T12:00	31550	10	-38.0		102	15	
2025-07-05T12:00	31600	10	-37.4		98	16	
2025-07-05T12:00	31650	10	-37.3		97	16	
2025-07-05T12:00	31700	10	-37.1		99	16	
2025-07-05T12:00	31750	10	-36.9		102	14	
2025-07-05T12:00	31800	10	-36.7		106	13	
2025-07-05T12:00	31850	10	-36.4		108	14	
2025-07-05T12:00	31900	10	-36.0		107	15	
2025-07-05T12:00	31950	10	-35.6		104	15	
2025-07-05T12:00	32000	9	-35.3		102	15	
2025-07-05T12:00	32050	9	-34.9		100	14	
2025-07-05T12:00	32100	9	-34.7		101	13	
2025-07-05T12:00	32150	9	-34.6		103	12	
2025-07-05T12:00	32200	9	-34.3		106	12	
2025-07-05T12:00	32250	9	-33.9		109	12	
2025-07-05T12:00	32300	9	-33.9		110	13	
2025-07-05T12:00	32350	9	-34.0		108	13	
2025-07-05T12:00	32400	9	-33.9		107	13	
2025-07-05T12:00	32450	9	-33.8		106	13	
2025-07-05T12:00	32500	9	-33.7		103	12	
2025-07-05T12:00	32550	9	-33.5		97	12	
2025-07-05T12:00	32600	9	-33.3		92	13	
2025-07-05T12:00	32650	9	-33.0		90	13	
2025-07-05T12:00	32700	9	-32.5		90	14	
2025-07-05T12:00	32750	8	-32.4		89	14	
2025-07-05T12:00	32800	8	-32.5		88	14	
2025-07-05T12:00	32850	8	-32.7		88	14	
2025-07-05T12:00	32900	8	-32.9		86	13	
2025-07-05T12:00	32950	8	-32.9		82	13	
2025-07-05T12:00	33000	8	-32.7		78	13	
2025-07-05T12:00	33050	8	-32.4		76	12	
2025-07-05T12:00	33100	8	-32.3		77	12	
2025-07-05T12:00	33150	8	-32.3		78	11	
2025-07-05T12:00	33200	8	-32.3		78	10	
2025-07-05T12:00	33250	8	-32.4		77	9	
2025-07-05T12:00	33300	8	-32.4		73	10	
2025-07-05T12:00	33350	8	-32.4		68	11	
2025-07-05T12:00	33400	8	-32.5		64	13	
2025-07-05T12:00	33450	8	-32.5		62	14	
2025-07-05T12:00	33500	8	-32.4		62	14	
2025-07-05T12:00	33550	8	-32.2		65	14	
2025-07-05T12:00	33600	8	-31.9		70	15	
2025-07-05T12:00	33650	7	-31.9		76	16	
2025-07-05T12:00	33700	7	-32.1		81	16	
2025-07-05T12:00	33750	7	-32.2		86	18	
2025-07-05T12:00	33800	7	-32.4		90	19	
2025-07-05T12:00	33850	7	-32.6		93	20	
2025-07-05T12:00	33900	7	-32.8		96	20	
2025-07-05T12:00	33950	7	-33.0		99	21	
2025-07-05T12:00	34000	7	-33.2		101	21	
2025-07-05T12:00	34050	7	-33.2		102	21	
2025-07-05T12:00	34100	7	-33.1		100	20	
2025-07-05T12:00	34150	7	-32.9		98	18	
2025-07-05T12:00	34200	7	-32.7		94	17	
2025-07-05T12:00	34250	7	-32.6		91	16	
2025-07-05T12:00	34300	7	-32.5		87	14	
2025-07-05T12:00	34350	7	-32.2		83	13	
2025-07-05T12:00	34400	7	-32.1		78	12	
2025-07-05T12:00	34450	7	-32.0		74	12	
2025-07-05T12:00	34500	7	-31.7		72	12	
2025-07-05T12:00	34550	7	-31.5		73	13	
2025-07-05T12:00	34600	7	-31.3		76	14	
2025-07-05T12:00	34650	6	-31.3		78	16	
2025-07-05T12:00	34700	6	-31.3		81	17	
2025-07-05T12:00	34750	6	-31.1		85	17	
2025-07-05T12:00	34800	6	-31.2		89	17	
2025-07-05T12:00	34850	6	-31.3		88	17	
2025-07-05T12:00	34900	6	-31.3		84	18	
2025-07-05T12:00	34950	6	-31.1		81	19	
2025-07-05T12:00	35000	6	-30.7		82	19	
2025-07-05T12:00	35050	6	-30.5		85	20	
2025-07-05T12:00	35100	6	-30.5		90	21	
2025-07-05T12:00	35150	6	-30.1		95	21	
2025-07-05T12:00	35200	6	-29.6		100	21	
2025-07-05T12:00	35250	6	-29.6		104	21	
2025-07-05T12:00	35300	6	-29.6		108	21	
2025-07-05T12:00	35350	6	-29.6		111	21	
2025-07-05T12:00	35400	6	-29.5		112	20	
2025-07-05T12:00	35450	6	-29.5		111	20	
2025-07-05T12:00	35500	6	-29.6		109	19	
2025-07-05T12:00	35550	6	-29.7		108	18	
2025-07-05T12:00	35600	6	-29.7		107	17	
2025-07-05T12:00	35650	6	-29.6		108	17	
2025-07-05T12:00	35700	6	-29.5		109	18	
2025-07-05T12:00	35750	6	-29.6		110	19	
2025-07-05T12:00	35800	6	-29.6		110	19	
2025-07-05T12:00	35850	5	-29.3		109	20	
2025-07-05T12:00	35900	5	-29.1		108	20	
2025-07-05T12:00	35950	5	-29.1		107	20	
2025-07-05T12:00	36000	5	-29.1		107	20	
2025-07-05T12:00	36050	5	-29.2		107	20	
2025-07-05T12:00	36100	5	-29.0		105	20	
2025-07-05T12:00	36150	5	-28.8		104	20	
2025-07-05T12:00	36200	5	-28.8		105	21	
2025-07-05T12:00	36250	5	-28.8		105	21	
2025-07-05T12:00	36300	5	-28.6		104	21	
2025-07-05T12:00	36350	5	-28.2		101	20	
2025-07-05T12:00	36400	5	-27.9		98	20	
2025-07-05T12:00	36450	5	-27.7		96	20	
2025-07-06T00:00	491	959	16.1	8.8	202	1	
2025-07-06T00:00	501	958	17.5	8.3	183	2	
2025-07-06T00:00	520	956	18.5	7.7	179	2	
2025-07-06T00:00	540	954	20.3	6.8	179	3	
2025-07-06T00:00	560	952	21.2	6.4	179	3	
2025-07-06T00:00	580	950	22.0	6.2	180	3	
2025-07-06T00:00	600	947	22.0	6.0	182	4	
2025-07-06T00:00	620	945	22.6	5.7	184	4	
2025-07-06T00:00	640	943	22.3	5.6	186	4	
2025-07-06T00:00	660	941	22.7	5.4	189	4	
2025-07-06T00:00	680	939	22.6	5.3	188	4	
2025-07-06T00:00	700	936	22.5	5.2	185	3	
2025-07-06T00:00	720	935	22.3	5.2	180	3	
2025-07-06T00:00	740	932	22.1	5.1	173	3	
2025-07-06T00:00	760	930	22.0	5.0	169	3	
2025-07-06T00:00	780	928	21.8	4.9	169	3	
2025-07-06T00:00	800	926	21.7	4.7	175	3	
2025-07-06T00:00	820	924	21.5	4.6	185	3	
2025-07-06T00:00	840	921	21.3	4.5	197	3	
2025-07-06T00:00	860	919	21.1	4.2	209	3	
2025-07-06T00:00	880	917	21.0	4.1	213	3	
2025-07-06T00:00	900	915	20.8	4.2	211	2	
2025-07-06T00:00	920	913	20.7	4.0	203	2	
2025-07-06T00:00	940	911	20.5	3.8	192	2	
2025-07-06T00:00	960	909	20.4	3.4	183	2	
2025-07-06T00:00	980	907	20.3	3.3	178	2	
2025-07-06T00:00	1000	904	20.2	3.3	176	2	
2025-07-06T00:00	1020	902	20.0	3.4	179	1	
2025-07-06T00:00	1040	900	19.9	3.4	188	1	
2025-07-06T00:00	1060	898	19.7	3.4	210	1	
2025-07-06T00:00	1080	896	19.6	3.3	245	1	
2025-07-06T00:00	1100	894	19.5	3.3	284	1	
2025-07-06T00:00	1120	892	19.3	3.4	312	1	
2025-07-06T00:00	1140	890	19.1	3.5	330	1	
2025-07-06T00:00	1160	888	19.0	3.5	341	1	
2025-07-06T00:00	1180	886	18.8	3.5	344	1	
2025-07-06T00:00	1200	884	18.6	3.6	339	1	
2025-07-06T00:00	1220	882	18.5	3.4	310	1	
2025-07-06T00:00	1240	880	18.4	3.0	260	1	
2025-07-06T00:00	1260	878	18.2	2.8	241	2	
2025-07-06T00:00	1280	876	18.0	2.7	237	2	
2025-07-06T00:00	1300	874	17.8	2.9	239	3	
2025-07-06T00:00	1320	871	17.6	2.9	242	4	
2025-07-06T00:00	1340	869	17.5	2.5	245	4	
2025-07-06T00:00	1360	867	17.3	2.1	247	5	
2025-07-06T00:00	1380	865	17.2	1.8	248	5	
2025-07-06T00:00	1400	863	17.1	1.8	247	5	
2025-07-06T00:00	1420	861	16.9	1.8	246	5	
2025-07-06T00:00	1440	859	16.7	1.8	244	5	
2025-07-06T00:00	1460	857	16.5	1.8	240	4	
2025-07-06T00:00	1480	855	16.3	1.8	236	4	
2025-07-06T00:00	1500	853	16.1	1.8	232	4	
2025-07-06T00:00	1520	851	16.0	1.8	230	4	
2025-07-06T00:00	1540	849	15.8	1.8	230	4	
2025-07-06T00:00	1560	847	15.6	1.8	231	5	
2025-07-06T00:00	1580	845	15.5	1.5	234	5	
2025-07-06T00:00	1600	843	15.4	1.1	238	5	
2025-07-06T00:00	1620	841	15.3	0.8	241	6	
2025-07-06T00:00	1640	839	15.3	0.8	243	6	
2025-07-06T00:00	1660	837	15.1	0.9	244	6	
2025-07-06T00:00	1680	835	14.9	0.7	245	6	
2025-07-06T00:00	1700	833	14.7	0.6	246	7	
2025-07-06T00:00	1720	831	14.5	0.6	246	7	
2025-07-06T00:00	1740	829	14.4	0.6	246	8	
2025-07-06T00:00	1760	827	14.2	0.6	244	8	
2025-07-06T00:00	1780	826	13.9	0.6	242	8	
2025-07-06T00:00	1800	823	13.7	0.6	238	8	
2025-07-06T00:00	1820	821	13.5	0.6	234	8	
2025-07-06T00:00	1840	820	13.3	0.5	230	8	
2025-07-06T00:00	1860	818	13.2	0.8	227	8	
2025-07-06T00:00	1880	816	13.0	1.4	225	8	
2025-07-06T00:00	1900	814	12.8	1.4	223	8	
2025-07-06T00:00	1920	812	12.7	1.4	221	8	
2025-07-06T00:00	1940	810	12.5	1.5	220	7	
2025-07-06T00:00	1960	808	12.4	1.6	218	7	
2025-07-06T00:00	1980	806	12.2	1.6	216	8	
2025-07-06T00:00	2000	804	12.0	1.6	215	8	
2025-07-06T00:00	2020	802	11.9	1.6	214	8	
2025-07-06T00:00	2040	800	11.8	1.5	213	8	
2025-07-06T00:00	2060	798	11.6	1.7	213	9	
2025-07-06T00:00	2080	796	11.4	1.9	213	9	
2025-07-06T00:00	2100	794	11.2	1.9	213	9	
2025-07-06T00:00	2120	793	11.1	1.7	213	9	
2025-07-06T00:00	2140	791	10.9	1.5	213	9	
2025-07-06T00:00	2160	789	10.7	1.3	213	8	
2025-07-06T00:00	2180	787	10.6	0.8	213	8	
2025-07-06T00:00	2200	785	10.5	0.6	213	8	
2025-07-06T00:00	2220	783	10.3	0.6	214	8	
2025-07-06T00:00	2240	781	10.2	0.6	216	8	
2025-07-06T00:00	2260	780	10.0	0.7	218	8	
2025-07-06T00:00	2280	778	9.8	0.7	219	9	
2025-07-06T00:00	2300	776	9.7	0.5	221	9	
2025-07-06T00:00	2320	774	9.6	0.0	222	10	
2025-07-06T00:00	2340	772	9.5	-0.1	222	10	
2025-07-06T00:00	2360	770	9.4	-0.4	222	10	
2025-07-06T00:00	2380	768	9.3	-0.3	221	10	
2025-07-06T00:00	2400	766	9.0	0.0	220	10	
2025-07-06T00:00	2420	764	8.8	0.4	218	10	
2025-07-06T00:00	2440	763	8.7	0.2	216	10	
2025-07-06T00:00	2460	761	8.5	1.0	215	10	
2025-07-06T00:00	2480	759	8.3	1.7	213	10	
2025-07-06T00:00	2500	757	8.1	2.6	212	10	
2025-07-06T00:00	2520	755	7.9	3.0	211	10	
2025-07-06T00:00	2540	753	7.7	3.4	211	10	
2025-07-06T00:00	2560	752	7.6	3.2	212	11	
2025-07-06T00:00	2580	750	7.5	3.2	213	11	
2025-07-06T00:00	2600	748	7.3	3.0	216	11	
2025-07-06T00:00	2620	746	7.2	3.3	218	11	
2025-07-06T00:00	2640	744	7.0	3.2	219	12	
2025-07-06T00:00	2660	742	6.9	3.4	220	12	
2025-07-06T00:00	2680	741	6.8	3.5	220	12	
2025-07-06T00:00	2700	739	6.7	3.7	219	12	
2025-07-06T00:00	2720	737	6.6	3.6	217	12	
2025-07-06T00:00	2740	736	6.5	3.2	215	12	
2025-07-06T00:00	2760	734	6.4	2.3	213	12	
2025-07-06T00:00	2780	732	6.4	1.0	213	12	
2025-07-06T00:00	2800	730	6.3	0.5	215	12	
2025-07-06T00:00	2820	728	6.1	-0.3	217	12	
2025-07-06T00:00	2840	727	5.9	-0.6	219	12	
2025-07-06T00:00	2860	725	5.9	-2.2	220	12	
2025-07-06T00:00	2880	723	5.8	-4.8	220	12	
2025-07-06T00:00	2900	721	5.8	-6.2	220	11	
2025-07-06T00:00	2920	719	5.7	-7.0	219	11	
2025-07-06T00:00	2940	718	5.5	-7.2	218	12	
2025-07-06T00:00	2960	716	5.4	-7.9	218	12	
2025-07-06T00:00	2980	714	5.3	-10.3	218	12	
2025-07-06T00:00	3000	713	5.2	-11.9	220	12	
2025-07-06T00:00	3020	711	5.1	-12.7	222	12	
2025-07-06T00:00	3040	709	5.0	-13.8	223	12	
2025-07-06T00:00	3060	707	4.9	-15.0	225	12	
2025-07-06T00:00	3080	706	4.8	-16.1	227	12	
2025-07-06T00:00	3100	704	4.8	-18.2	228	12	
2025-07-06T00:00	3120	702	5.0	-21.3	229	12	
2025-07-06T00:00	3140	700	5.3	-20.2	230	12	
2025-07-06T00:00	3160	699	5.2	-19.2	230	12	
2025-07-06T00:00	3180	697	5.2	-20.0	230	12	
2025-07-06T00:00	3200	695	5.4	-24.0	231	12	
2025-07-06T00:00	3220	694	5.4	-27.0	232	12	
2025-07-06T00:00	3240	692	5.4	-28.2	234	12	
2025-07-06T00:00	3260	690	5.2	-28.9	237	12	
2025-07-06T00:00	3280	688	5.1	-29.4	239	13	
2025-07-06T00:00	3300	687	4.9	-29.8	240	13	
2025-07-06T00:00	3320	685	5.0	-29.9	242	13	
2025-07-06T00:00	3340	683	4.9	-29.8	242	12	
2025-07-06T00:00	3360	682	4.8	-28.6	243	12	
2025-07-06T00:00	3380	680	4.6	-27.9	245	12	
2025-07-06T00:00	3400	678	4.5	-28.0	246	12	
2025-07-06T00:00	3420	677	4.3	-28.1	249	11	
2025-07-06T00:00	3440	675	4.1	-28.3	251	11	
2025-07-06T00:00	3460	673	3.9	-28.6	252	11	
2025-07-06T00:00	3480	672	3.7	-28.9	252	11	
2025-07-06T00:00	3500	670	3.5	-29.2	251	11	
2025-07-06T00:00	3520	668	3.3	-29.5	250	11	
2025-07-06T00:00	3540	667	3.2	-29.3	249	11	
2025-07-06T00:00	3560	665	3.0	-27.9	248	11	
2025-07-06T00:00	3580	664	2.8	-27.8	248	11	
2025-07-06T00:00	3600	662	2.7	-27.3	250	11	
2025-07-06T00:00	3620	660	2.5	-26.9	251	11	
2025-07-06T00:00	3640	658	2.3	-27.0	253	11	
2025-07-06T00:00	3660	657	2.1	-27.0	254	12	
2025-07-06T00:00	3680	655	2.0	-27.1	254	11	
2025-07-06T00:00	3700	654	1.8	-26.9	252	12	
2025-07-06T00:00	3720	652	1.6	-26.4	250	12	
2025-07-06T00:00	3740	650	1.5	-26.2	248	12	
2025-07-06T00:00	3760	649	1.3	-26.3	247	12	
2025-07-06T00:00	3780	647	1.2	-26.9	245	12	
2025-07-06T00:00	3800	646	1.0	-27.4	243	12	
2025-07-06T00:00	3820	644	0.9	-27.7	242	12	
2025-07-06T00:00	3840	642	0.8	-27.9	242	12	
2025-07-06T00:00	3860	641	0.6	-28.5	241	12	
2025-07-06T00:00	3880	639	0.5	-28.6	241	12	
2025-07-06T00:00	3900	637	0.4	-28.9	241	12	
2025-07-06T00:00	3920	636	0.2	-29.0	242	12	
2025-07-06T00:00	3940	634	0.0	-29.0	244	12	
2025-07-06T00:00	3960	633	-0.1	-29.3	245	12	
2025-07-06T00:00	3980	631	-0.1	-29.9	247	12	
2025-07-06T00:00	4000	630	-0.2	-30.3	250	12	
2025-07-06T00:00	4020	628	-0.2	-31.2	252	11	
2025-07-06T00:00	4040	626	-0.2	-32.0	254	11	
2025-07-06T00:00	4060	625	-0.3	-31.7	257	11	
2025-07-06T00:00	4080	623	-0.4	-31.5	258	11	
2025-07-06T00:00	4100	622	-0.6	-31.4	260	11	
2025-07-06T00:00	4120	620	-0.8	-31.4	260	12	
2025-07-06T00:00	4140	619	-1.0	-31.3	260	12	
2025-07-06T00:00	4160	617	-1.1	-31.3	260	12	
2025-07-06T00:00	4180	616	-1.3	-31.4	260	12	
2025-07-06T00:00	4200	614	-1.5	-31.8	259	12	
2025-07-06T00:00	4220	613	-1.6	-32.4	258	12	
2025-07-06T00:00	4240	611	-1.7	-32.3	257	11	
2025-07-06T00:00	4260	610	-1.8	-32.4	257	11	
2025-07-06T00:00	4280	608	-1.9	-34.2	256	11	
2025-07-06T00:00	4300	606	-1.9	-34.9	255	11	
2025-07-06T00:00	4320	605	-1.8	-34.1	253	11	
2025-07-06T00:00	4340	603	-1.9	-34.1	252	11	
2025-07-06T00:00	4360	602	-2.0	-34.3	252	11	
2025-07-06T00:00	4380	600	-2.1	-34.6	253	11	
2025-07-06T00:00	4400	599	-2.2	-34.8	256	11	
2025-07-06T00:00	4420	597	-2.3	-34.9	259	12	
2025-07-06T00:00	4440	596	-2.4	-35.1	262	12	
2025-07-06T00:00	4460	594	-2.5	-35.2	264	12	
2025-07-06T00:00	4480	593	-2.6	-35.4	265	12	
2025-07-06T00:00	4500	591	-2.7	-35.6	265	12	
2025-07-06T00:00	4520	590	-2.8	-35.7	264	11	
2025-07-06T00:00	4540	588	-3.0	-35.9	262	11	
2025-07-06T00:00	4560	587	-3.1	-36.3	260	10	
2025-07-06T00:00	4580	585	-3.2	-36.4	258	10	
2025-07-06T00:00	4600	584	-3.4	-36.7	256	10	
2025-07-06T00:00	4620	582	-3.6	-36.9	255	10	
2025-07-06T00:00	4640	581	-3.7	-37.6	254	10	
2025-07-06T00:00	4660	579	-3.8	-38.7	253	11	
2025-07-06T00:00	4680	578	-3.9	-39.7	253	11	
2025-07-06T00:00	4700	577	-4.1	-39.9	252	12	
2025-07-06T00:00	4720	575	-4.2	-39.9	251	12	
2025-07-06T00:00	4740	574	-4.4	-40.1	251	12	
2025-07-06T00:00	4760	572	-4.5	-40.6	250	12	
2025-07-06T00:00	4780	571	-4.6	-41.4	249	12	
2025-07-06T00:00	4800	569	-4.7	-41.7	249	12	
2025-07-06T00:00	4820	568	-4.8	-41.8	248	11	
2025-07-06T00:00	4840	566	-4.9	-41.7	248	11	
2025-07-06T00:00	4860	565	-5.0	-41.4	248	11	
2025-07-06T00:00	4880	563	-5.2	-41.3	248	10	
2025-07-06T00:00	4900	562	-5.3	-41.6	248	10	
2025-07-06T00:00	4920	561	-5.4	-41.7	248	10	
2025-07-06T00:00	4940	559	-5.5	-41.4	248	10	
2025-07-06T00:00	4960	558	-5.7	-41.5	248	9	
2025-07-06T00:00	4980	556	-5.8	-41.8	248	9	
2025-07-06T00:00	5000	555	-6.0	-41.8	249	10	
2025-07-06T00:00	5020	553	-6.1	-42.1	250	10	
2025-07-06T00:00	5040	552	-6.3	-42.5	252	11	
2025-07-06T00:00	5060	551	-6.3	-43.7	253	11	
2025-07-06T00:00	5080	549	-6.5	-44.3	253	11	
2025-07-06T00:00	5100	548	-6.6	-45.8	254	11	
2025-07-06T00:00	5120	547	-6.6	-47.5	254	11	
2025-07-06T00:00	5140	545	-6.7	-47.6	254	11	
2025-07-06T00:00	5160	544	-6.9	-47.7	255	11	
2025-07-06T00:00	5180	542	-7.1	-47.5	255	10	
2025-07-06T00:00	5200	541	-7.3	-45.9	256	10	
2025-07-06T00:00	5220	539	-7.4	-45.2	256	10	
2025-07-06T00:00	5240	538	-7.6	-44.0	257	10	
2025-07-06T00:00	5260	537	-7.7	-44.1	258	10	
2025-07-06T00:00	5280	535	-7.8	-44.1	259	10	
2025-07-06T00:00	5300	534	-8.0	-44.2	259	10	
2025-07-06T00:00	5320	533	-8.0	-44.4	260	10	
2025-07-06T00:00	5340	531	-8.2	-44.4	259	10	
2025-07-06T00:00	5360	530	-8.3	-44.6	259	10	
2025-07-06T00:00	5380	528	-8.4	-44.7	258	10	
2025-07-06T00:00	5400	527	-8.5	-43.8	256	10	
2025-07-06T00:00	5420	526	-8.6	-43.0	255	10	
2025-07-06T00:00	5440	524	-8.7	-42.7	253	10	
2025-07-06T00:00	5460	523	-8.8	-42.6	252	11	
2025-07-06T00:00	5480	522	-8.9	-42.7	253	11	
2025-07-06T00:00	5500	520	-9.0	-42.9	254	11	
2025-07-06T00:00	5520	519	-9.0	-42.9	254	11	
2025-07-06T00:00	5540	518	-9.1	-42.8	255	11	
2025-07-06T00:00	5560	516	-9.2	-43.3	256	11	
2025-07-06T00:00	5580	515	-9.4	-43.8	257	11	
2025-07-06T00:00	5600	514	-9.5	-44.0	257	11	
2025-07-06T00:00	5620	512	-9.6	-44.0	256	11	
2025-07-06T00:00	5640	511	-9.8	-44.1	256	11	
2025-07-06T00:00	5660	510	-10.0	-44.1	255	11	
2025-07-06T00:00	5680	508	-10.1	-44.1	254	11	
2025-07-06T00:00	5700	507	-10.4	-44.1	253	11	
2025-07-06T00:00	5720	506	-10.5	-44.1	253	11	
2025-07-06T00:00	5740	504	-10.7	-44.1	254	11	
2025-07-06T00:00	5760	503	-10.8	-44.2	256	11	
2025-07-06T00:00	5780	502	-11.0	-44.2	257	11	
2025-07-06T00:00	5800	500	-11.1	-44.3	258	12	
2025-07-06T00:00	5820	499	-11.3	-44.3	259	12	
2025-07-06T00:00	5840	498	-11.5	-44.2	259	11	
2025-07-06T00:00	5860	497	-11.6	-44.3	258	11	
2025-07-06T00:00	5880	495	-11.7	-44.5	256	12	
2025-07-06T00:00	5900	494	-11.9	-44.5	255	12	
2025-07-06T00:00	5920	493	-12.1	-44.6	253	12	
2025-07-06T00:00	5940	491	-12.2	-44.7	252	12	
2025-07-06T00:00	5960	490	-12.4	-44.7	251	12	
2025-07-06T00:00	5980	489	-12.6	-44.7	250	12	
2025-07-06T00:00	6000	488	-12.8	-44.7	251	12	
2025-07-06T00:00	6020	486	-13.0	-44.9	252	12	
2025-07-06T00:00	6040	485	-13.1	-45.8	253	12	
2025-07-06T00:00	6060	484	-13.2	-47.1	254	12	
2025-07-06T00:00	6080	483	-13.3	-46.4	255	12	
2025-07-06T00:00	6100	481	-13.4	-46.7	256	12	
2025-07-06T00:00	6120	480	-13.5	-48.9	256	12	
2025-07-06T00:00	6140	479	-13.5	-50.5	256	12	
2025-07-06T00:00	6160	478	-13.6	-49.5	255	12	
2025-07-06T00:00	6180	476	-13.7	-48.4	255	12	
2025-07-06T00:00	6200	475	-13.9	-48.6	253	12	
2025-07-06T00:00	6220	474	-14.0	-48.7	252	12	
2025-07-06T00:00	6240	472	-14.2	-48.9	251	11	
2025-07-06T00:00	6260	471	-14.3	-49.1	250	11	
2025-07-06T00:00	6280	470	-14.4	-46.9	249	11	
2025-07-06T00:00	6300	469	-14.4	-43.9	248	11	
2025-07-06T00:00	6320	468	-14.6	-42.9	247	11	
2025-07-06T00:00	6340	466	-14.7	-42.1	247	12	
2025-07-06T00:00	6360	465	-14.9	-40.2	247	12	
2025-07-06T00:00	6380	464	-15.0	-38.5	247	12	
2025-07-06T00:00	6400	462	-15.1	-38.2	247	13	
2025-07-06T00:00	6420	461	-15.2	-38.3	247	13	
2025-07-06T00:00	6440	460	-15.3	-38.9	247	13	
2025-07-06T00:00	6460	459	-15.4	-40.6	247	12	
2025-07-06T00:00	6480	458	-15.6	-43.7	247	12	
2025-07-06T00:00	6500	456	-15.7	-52.6	247	12	
2025-07-06T00:00	6520	455	-15.7	-52.5	247	12	
2025-07-06T00:00	6540	454	-15.8	-50.6	247	12	
2025-07-06T00:00	6560	453	-15.9	-50.8	247	12	
2025-07-06T00:00	6580	452	-16.0	-52.1	248	12	
2025-07-06T00:00	6600	450	-16.0	-53.0	249	12	
2025-07-06T00:00	6620	449	-16.1	-53.1	251	12	
2025-07-06T00:00	6640	448	-16.2	-52.0	253	12	
2025-07-06T00:00	6660	447	-16.2	-50.6	255	11	
2025-07-06T00:00	6680	446	-16.3	-48.3	257	11	
2025-07-06T00:00	6700	444	-16.5	-47.5	259	11	
2025-07-06T00:00	6720	443	-16.6	-46.1	262	11	
2025-07-06T00:00	6740	442	-16.7	-44.6	263	12	
2025-07-06T00:00	6760	441	-16.8	-42.0	264	12	
2025-07-06T00:00	6780	440	-16.9	-40.9	264	13	
2025-07-06T00:00	6800	439	-17.1	-39.9	263	13	
2025-07-06T00:00	6820	437	-17.3	-38.2	262	13	
2025-07-06T00:00	6840	436	-17.4	-35.3	261	13	
2025-07-06T00:00	6860	435	-17.5	-32.0	261	12	
2025-07-06T00:00	6880	434	-17.7	-30.3	260	12	
2025-07-06T00:00	6900	433	-17.8	-29.3	259	12	
2025-07-06T00:00	6920	432	-18.0	-28.6	259	12	
2025-07-06T00:00	6940	430	-18.2	-27.0	260	12	
2025-07-06T00:00	6960	429	-18.3	-25.3	260	12	
2025-07-06T00:00	6980	428	-18.5	-24.7	261	11	
2025-07-06T00:00	7000	427	-18.7	-24.2	262	11	
2025-07-06T00:00	7020	426	-18.9	-23.4	263	11	
2025-07-06T00:00	7040	425	-19.1	-23.2	264	11	
2025-07-06T00:00	7060	424	-19.3	-21.8	264	11	
2025-07-06T00:00	7080	422	-19.5	-19.9	265	11	
2025-07-06T00:00	7100	421	-19.5	-20.4	265	11	
2025-07-06T00:00	7120	420	-19.5	-21.4	265	11	
2025-07-06T00:00	7140	419	-19.6	-21.6	265	11	
2025-07-06T00:00	7160	418	-19.7	-21.4	265	11	
2025-07-06T00:00	7180	417	-19.8	-21.3	265	11	
2025-07-06T00:00	7200	416	-20.0	-21.0	266	12	
2025-07-06T00:00	7220	414	-20.0	-21.3	266	12	
2025-07-06T00:00	7240	413	-20.1	-21.8	267	11	
2025-07-06T00:00	7260	412	-20.3	-22.0	267	11	
2025-07-06T00:00	7280	411	-20.4	-21.8	267	11	
2025-07-06T00:00	7300	410	-20.5	-22.0	266	11	
2025-07-06T00:00	7320	409	-20.6	-22.3	266	11	
2025-07-06T00:00	7340	408	-20.8	-22.4	267	11	
2025-07-06T00:00	7360	407	-20.9	-22.7	267	11	
2025-07-06T00:00	7380	406	-21.1	-22.9	268	11	
2025-07-06T00:00	7400	405	-21.2	-23.1	269	11	
2025-07-06T00:00	7420	403	-21.4	-23.4	271	11	
2025-07-06T00:00	7440	402	-21.5	-23.4	272	11	
2025-07-06T00:00	7460	401	-21.7	-23.5	273	11	
2025-07-06T00:00	7480	400	-21.8	-23.6	273	11	
2025-07-06T00:00	7500	399	-22.0	-23.8	274	12	
2025-07-06T00:00	7520	398	-22.2	-24.1	274	12	
2025-07-06T00:00	7540	397	-22.2	-24.5	274	12	
2025-07-06T00:00	7560	396	-22.4	-24.4	273	12	
2025-07-06T00:00	7580	395	-22.6	-24.6	273	12	
2025-07-06T00:00	7600	394	-22.7	-25.0	272	12	
2025-07-06T00:00	7620	393	-22.9	-25.5	272	12	
2025-07-06T00:00	7640	392	-23.0	-25.5	271	12	
2025-07-06T00:00	7660	391	-23.2	-25.3	270	12	
2025-07-06T00:00	7680	389	-23.4	-25.2	269	13	
2025-07-06T00:00	7700	388	-23.5	-25.4	268	13	
2025-07-06T00:00	7720	387	-23.7	-25.1	267	13	
2025-07-06T00:00	7740	386	-23.7	-25.2	265	13	
2025-07-06T00:00	7760	385	-23.7	-25.6	264	13	
2025-07-06T00:00	7780	384	-23.8	-25.8	263	13	
2025-07-06T00:00	7800	383	-23.9	-26.4	262	13	
2025-07-06T00:00	7820	382	-23.9	-27.1	260	13	
2025-07-06T00:00	7840	381	-24.0	-27.4	259	13	
2025-07-06T00:00	7860	380	-24.1	-27.5	258	13	
2025-07-06T00:00	7880	379	-24.3	-27.6	258	13	
2025-07-06T00:00	7900	378	-24.5	-27.5	258	13	
2025-07-06T00:00	7920	377	-24.7	-27.6	257	13	
2025-07-06T00:00	7940	376	-24.8	-27.6	257	13	
2025-07-06T00:00	7960	375	-25.0	-27.8	256	13	
2025-07-06T00:00	7980	374	-25.2	-27.9	256	13	
2025-07-06T00:00	8000	373	-25.4	-28.3	256	13	
2025-07-06T00:00	8020	372	-25.5	-28.3	256	13	
2025-07-06T00:00	8040	371	-25.6	-28.3	256	13	
2025-07-06T00:00	8060	370	-25.8	-28.9	257	13	
2025-07-06T00:00	8080	369	-25.9	-29.3	257	13	
2025-07-06T00:00	8100	368	-26.0	-29.8	258	13	
2025-07-06T00:00	8120	367	-26.2	-29.8	259	12	
2025-07-06T00:00	8140	366	-26.4	-29.9	260	12	
2025-07-06T00:00	8160	365	-26.5	-30.0	261	12	
2025-07-06T00:00	8180	364	-26.6	-30.4	262	12	
2025-07-06T00:00	8200	363	-26.8	-30.7	262	12	
2025-07-06T00:00	8220	361	-27.0	-30.7	261	12	
2025-07-06T00:00	8240	361	-27.2	-30.8	260	12	
2025-07-06T00:00	8260	360	-27.3	-30.8	259	12	
2025-07-06T00:00	8280	359	-27.5	-31.1	258	12	
2025-07-06T00:00	8300	357	-27.7	-31.5	257	12	
2025-07-06T00:00	8320	357	-27.8	-31.8	257	12	
2025-07-06T00:00	8340	356	-27.9	-32.1	257	12	
2025-07-06T00:00	8360	355	-28.1	-32.2	257	12	
2025-07-06T00:00	8380	354	-28.3	-32.4	258	13	
2025-07-06T00:00	8400	353	-28.5	-32.6	260	13	
2025-07-06T00:00	8420	352	-28.6	-32.7	261	13	
2025-07-06T00:00	8440	351	-28.8	-32.8	261	13	
2025-07-06T00:00	8460	350	-29.0	-33.0	262	13	
2025-07-06T00:00	8480	349	-29.1	-33.3	262	13	
2025-07-06T00:00	8500	348	-29.2	-33.3	263	14	
2025-07-06T00:00	8520	347	-29.4	-33.3	263	14	
2025-07-06T00:00	8540	346	-29.6	-33.1	264	14	
2025-07-06T00:00	8560	345	-29.8	-33.2	264	14	
2025-07-06T00:00	8580	344	-29.9	-33.4	264	14	
2025-07-06T00:00	8600	343	-30.1	-33.6	264	14	
2025-07-06T00:00	8620	342	-30.3	-33.8	264	14	
2025-07-06T00:00	8640	341	-30.4	-34.1	264	14	
2025-07-06T00:00	8660	340	-30.6	-34.7	263	14	
2025-07-06T00:00	8680	339	-30.6	-35.5	262	13	
2025-07-06T00:00	8700	338	-30.8	-35.7	260	13	
2025-07-06T00:00	8720	337	-30.9	-36.1	259	13	
2025-07-06T00:00	8740	336	-31.1	-36.3	258	13	
2025-07-06T00:00	8760	335	-31.2	-36.5	257	13	
2025-07-06T00:00	8780	334	-31.3	-36.5	256	13	
2025-07-06T00:00	8800	333	-31.5	-36.7	255	13	
2025-07-06T00:00	8820	332	-31.7	-36.7	255	13	
2025-07-06T00:00	8840	332	-31.8	-36.9	254	13	
2025-07-06T00:00	8860	331	-32.0	-37.8	254	13	
2025-07-06T00:00	8880	330	-32.1	-38.1	254	14	
2025-07-06T00:00	8900	329	-32.3	-38.4	254	14	
2025-07-06T00:00	8920	328	-32.4	-38.5	254	14	
2025-07-06T00:00	8940	327	-32.6	-39.0	254	14	
2025-07-06T00:00	8960	326	-32.7	-39.5	254	14	
2025-07-06T00:00	8980	325	-32.8	-39.7	253	14	
2025-07-06T00:00	9000	324	-32.9	-39.8	252	14	
2025-07-06T00:00	9020	323	-33.1	-39.9	252	14	
2025-07-06T00:00	9040	322	-33.3	-40.0	251	14	
2025-07-06T00:00	9060	321	-33.5	-40.2	250	14	
2025-07-06T00:00	9080	320	-33.7	-40.3	249	14	
2025-07-06T00:00	9100	319	-33.9	-40.5	249	15	
2025-07-06T00:00	9120	319	-34.0	-40.6	249	15	
2025-07-06T00:00	9140	318	-34.2	-40.7	249	15	
2025-07-06T00:00	9160	317	-34.4	-40.9	249	15	
2025-07-06T00:00	9180	316	-34.6	-41.0	249	15	
2025-07-06T00:00	9200	315	-34.7	-41.1	249	15	
2025-07-06T00:00	9220	314	-34.9	-41.2	249	15	
2025-07-06T00:00	9240	313	-35.0	-41.6	248	15	
2025-07-06T00:00	9260	312	-35.2	-42.0	248	14	
2025-07-06T00:00	9280	311	-35.4	-42.3	247	14	
2025-07-06T00:00	9300	310	-35.5	-42.2	247	14	
2025-07-06T00:00	9320	310	-35.7	-42.2	247	14	
2025-07-06T00:00	9340	309	-35.9	-42.1	247	14	
2025-07-06T00:00	9360	308	-36.1	-42.2	247	14	
2025-07-06T00:00	9380	307	-36.3	-42.2	247	14	
2025-07-06T00:00	9400	306	-36.5	-42.3	247	14	
2025-07-06T00:00	9420	305	-36.7	-42.2	247	14	
2025-07-06T00:00	9440	304	-36.8	-41.9	248	14	
2025-07-06T00:00	9460	303	-37.0	-41.8	248	14	
2025-07-06T00:00	9480	302	-37.2	-41.9	248	14	
2025-07-06T00:00	9500	302	-37.4	-42.4	248	15	
2025-07-06T00:00	9520	301	-37.5	-43.2	249	15	
2025-07-06T00:00	9540	300	-37.7	-43.4	249	15	
2025-07-06T00:00	9560	299	-37.9	-43.4	249	15	
2025-07-06T00:00	9580	298	-38.1	-43.6	249	15	
2025-07-06T00:00	9600	297	-38.3	-43.5	249	15	
2025-07-06T00:00	9620	296	-38.5	-43.6	250	15	
2025-07-06T00:00	9640	296	-38.6	-43.6	250	15	
2025-07-06T00:00	9660	295	-38.8	-43.6	251	16	
2025-07-06T00:00	9680	294	-39.0	-43.9	251	16	
2025-07-06T00:00	9700	293	-39.2	-44.2	251	16	
2025-07-06T00:00	9720	292	-39.3	-44.9	251	16	
2025-07-06T00:00	9740	291	-39.3	-46.0	251	16	
2025-07-06T00:00	9760	290	-39.4	-46.0	251	16	
2025-07-06T00:00	9780	290	-39.6	-45.8	252	16	
2025-07-06T00:00	9800	289	-39.7	-45.7	252	16	
2025-07-06T00:00	9820	288	-39.9	-45.9	252	16	
2025-07-06T00:00	9840	287	-40.1	-45.9	252	16	
2025-07-06T00:00	9860	286	-40.3	-46.5	252	16	
2025-07-06T00:00	9880	285	-40.4	-46.5	251	16	
2025-07-06T00:00	9900	284	-40.6	-46.2	251	16	
2025-07-06T00:00	9920	284	-40.8	-46.2	250	16	
2025-07-06T00:00	9940	283	-41.0	-46.2	250	16	
2025-07-06T00:00	9960	282	-41.2	-46.3	249	16	
2025-07-06T00:00	9980	281	-41.3	-46.9	249	16	
2025-07-06T00:00	10000	280	-41.4	-47.6	250	16	
2025-07-06T00:00	10018	280	-41.5	-47.7	250	16	
2025-07-06T00:00	10050	278	-41.8	-47.5	250	16	
2025-07-06T00:00	10100	276	-42.2	-48.1	251	16	
2025-07-06T00:00	10150	274	-42.7	-48.5	251	16	
2025-07-06T00:00	10200	272	-43.2	-48.8	252	16	
2025-07-06T00:00	10250	270	-43.6	-49.6	251	17	
2025-07-06T00:00	10300	268	-44.0	-50.1	250	17	
2025-07-06T00:00	10350	266	-44.2	-50.9	250	17	
2025-07-06T00:00	10400	264	-44.7	-51.5	249	17	
2025-07-06T00:00	10450	262	-45.2	-51.6	249	16	
2025-07-06T00:00	10500	260	-45.6	-51.7	249	16	
2025-07-06T00:00	10550	258	-46.0	-51.5	249	16	
2025-07-06T00:00	10600	256	-46.3	-52.1	250	15	
2025-07-06T00:00	10650	254	-46.8	-52.5	250	15	
2025-07-06T00:00	10700	253	-47.1	-52.5	250	15	
2025-07-06T00:00	10750	251	-47.4	-53.3	253	16	
2025-07-06T00:00	10800	249	-47.7	-54.5	256	16	
2025-07-06T00:00	10850	247	-48.0	-54.7	259	16	
2025-07-06T00:00	10900	245	-48.5	-55.3	259	17	
2025-07-06T00:00	10950	243	-48.9	-55.7	257	17	
2025-07-06T00:00	11000	241	-49.0	-57.3	255	17	
2025-07-06T00:00	11050	239	-49.3	-57.5	254	17	
2025-07-06T00:00	11100	238	-49.8	-57.4	253	17	
2025-07-06T00:00	11150	236	-50.2	-58.1	253	17	
2025-07-06T00:00	11200	234	-50.7	-58.4	253	18	
2025-07-06T00:00	11250	232	-51.1	-58.8	252	18	
2025-07-06T00:00	11300	230	-51.6	-59.0	250	18	
2025-07-06T00:00	11350	229	-52.0	-59.7	250	18	
2025-07-06T00:00	11400	227	-52.4	-59.9	250	18	
2025-07-06T00:00	11450	225	-52.9	-59.9	250	17	
2025-07-06T00:00	11500	223	-53.3	-60.0	251	18	
2025-07-06T00:00	11550	222	-53.8	-60.2	254	18	
2025-07-06T00:00	11600	220	-54.1	-60.6	255	18	
2025-07-06T00:00	11650	218	-54.4	-61.1	256	18	
2025-07-06T00:00	11700	217	-54.6	-61.4	257	18	
2025-07-06T00:00	11750	215	-54.8	-61.3	259	18	
2025-07-06T00:00	11800	213	-55.2	-61.2	259	18	
2025-07-06T00:00	11850	212	-55.7	-61.2	259	17	
2025-07-06T00:00	11900	210	-56.0	-61.1	257	17	
2025-07-06T00:00	11950	208	-56.4	-61.3	255	16	
2025-07-06T00:00	12000	207	-56.7	-62.9	254	15	
2025-07-06T00:00	12050	205	-56.2	-69.6	256	16	
2025-07-06T00:00	12100	203	-55.8	-68.5	261	16	
2025-07-06T00:00	12150	202	-55.8	-68.4	266	17	
2025-07-06T00:00	12200	200	-55.7	-71.2	266	17	
2025-07-06T00:00	12250	199	-55.5	-72.1	261	17	
2025-07-06T00:00	12300	197	-55.2	-71.6	256	18	
2025-07-06T00:00	12350	196	-55.1	-71.4	253	18	
2025-07-06T00:00	12400	194	-55.0	-70.0	253	19	
2025-07-06T00:00	12450	192	-55.0	-69.2	256	19	
2025-07-06T00:00	12500	191	-55.0	-69.7	259	20	
2025-07-06T00:00	12550	190	-54.9	-71.4	262	20	
2025-07-06T00:00	12600	188	-54.6	-74.0	263	20	
2025-07-06T00:00	12650	187	-54.5	-74.0	262	20	
2025-07-06T00:00	12700	185	-53.8	-73.5	261	19	
2025-07-06T00:00	12750	184	-53.4	-74.7	260	19	
2025-07-06T00:00	12800	182	-53.1	-75.5	260	19	
2025-07-06T00:00	12850	181	-53.4	-75.4	259	19	
2025-07-06T00:00	12900	179	-53.8	-75.4	259	19	
2025-07-06T00:00	12950	178	-54.3	-75.7	262	19	
2025-07-06T00:00	13000	177	-54.0	-76.3	266	18	
2025-07-06T00:00	13050	175	-53.3	-76.4	270	18	
2025-07-06T00:00	13100	174	-53.3	-76.9	269	17	
2025-07-06T00:00	13150	173	-53.4	-77.8	264	16	
2025-07-06T00:00	13200	171	-52.9	-78.2	261	16	
2025-07-06T00:00	13250	170	-52.9	-77.4	260	17	
2025-07-06T00:00	13300	169	-53.2	-76.6	258	17	
2025-07-06T00:00	13350	167	-53.2	-76.2	255	17	
2025-07-06T00:00	13400	166	-53.2	-76.8	252	17	
2025-07-06T00:00	13450	165	-53.1	-77.6	251	17	
2025-07-06T00:00	13500	163	-53.1	-78.3	252	16	
2025-07-06T00:00	13550	162	-53.2	-78.4	252	16	
2025-07-06T00:00	13600	161	-53.4	-78.5	251	16	
2025-07-06T00:00	13650	160	-53.8	-78.7	250	16	
2025-07-06T00:00	13700	158	-54.0	-79.1	251	16	
2025-07-06T00:00	13750	157	-54.1	-79.7	251	16	
2025-07-06T00:00	13800	156	-54.3	-80.0	250	17	
2025-07-06T00:00	13850	155	-54.0	-80.8	249	18	
2025-07-06T00:00	13900	154	-53.2	-81.8	247	19	
2025-07-06T00:00	13950	152	-52.9	-82.1	246	19	
2025-07-06T00:00	14000	151	-52.8	-81.9	247	18	
2025-07-06T00:00	14050	150	-52.8	-81.9	247	19	
2025-07-06T00:00	14100	149	-52.8	-81.9	246	19	
2025-07-06T00:00	14150	148	-52.7	-81.8	245	20	
2025-07-06T00:00	14200	147	-52.9	-81.8	246	20	
2025-07-06T00:00	14250	145	-53.1	-81.8	249	20	
2025-07-06T00:00	14300	144	-53.4	-82.0	249	20	
2025-07-06T00:00	14350	143	-53.6	-81.9	248	20	
2025-07-06T00:00	14400	142	-54.0	-82.1	245	20	
2025-07-06T00:00	14450	141	-54.3	-82.2	244	21	
2025-07-06T00:00	14500	140	-54.4	-82.3	245	21	
2025-07-06T00:00	14550	139	-54.6	-82.4	246	21	
2025-07-06T00:00	14600	138	-54.7	-82.5	248	21	
2025-07-06T00:00	14650	137	-55.0	-82.6	249	22	
2025-07-06T00:00	14700	136	-55.3	-82.7	250	22	
2025-07-06T00:00	14750	135	-55.6	-82.8	250	22	
2025-07-06T00:00	14800	133	-55.7	-83.0	248	22	
2025-07-06T00:00	14850	132	-55.8	-83.1	249	22	
2025-07-06T00:00	14900	131	-55.8	-83.1	253	22	
2025-07-06T00:00	14950	130	-55.8	-83.2	256	22	
2025-07-06T00:00	15000	129	-56.0	-83.3	258	22	
2025-07-06T00:00	15050	128	-56.3	-83.4	260	21	
2025-07-06T00:00	15100	127	-56.2	-83.5	261	19	
2025-07-06T00:00	15150	126	-56.2	-83.5	260	18	
2025-07-06T00:00	15200	125	-56.0	-83.6	257	18	
2025-07-06T00:00	15250	124	-55.9	-83.7	255	20	
2025-07-06T00:00	15300	123	-56.1	-83.7	255	21	
2025-07-06T00:00	15350	122	-56.5	-83.6	255	22	
2025-07-06T00:00	15400	121	-56.5	-83.4	255	22	
2025-07-06T00:00	15450	121	-56.5	-83.2	257	22	
2025-07-06T00:00	15500	120	-56.4	-83.4	258	21	
2025-07-06T00:00	15550	119	-56.2	-83.5	258	21	
2025-07-06T00:00	15600	118	-56.4	-83.5	258	20	
2025-07-06T00:00	15650	117	-56.7	-83.6	259	20	
2025-07-06T00:00	15700	116	-56.7	-83.9	260	18	
2025-07-06T00:00	15750	115	-56.9	-83.9	261	17	
2025-07-06T00:00	15800	114	-56.9	-83.9	260	17	
2025-07-06T00:00	15850	113	-56.5	-83.9	259	17	
2025-07-06T00:00	15900	112	-56.4	-84.1	258	17	
2025-07-06T00:00	15950	111	-56.1	-83.9	258	17	
2025-07-06T00:00	16000	111	-56.0	-84.0	257	17	
2025-07-06T00:00	16050	110	-56.0	-84.1	254	17	
2025-07-06T00:00	16100	109	-55.9	-84.1	250	18	
2025-07-06T00:00	16150	108	-55.6	-84.1	247	19	
2025-07-06T00:00	16200	107	-55.9	-84.0	245	20	
2025-07-06T00:00	16250	106	-56.4	-84.0	243	20	
2025-07-06T00:00	16300	105	-56.8	-84.1	242	21	
2025-07-06T00:00	16350	105	-57.2	-84.2	242	21	
2025-07-06T00:00	16400	104	-57.7	-84.3	243	22	
2025-07-06T00:00	16450	103	-57.8	-84.5	245	22	
2025-07-06T00:00	16500	102	-57.4	-84.6	249	22	
2025-07-06T00:00	16550	101	-57.3	-84.9	252	22	
2025-07-06T00:00	16600	101	-57.4	-84.8	256	21	
2025-07-06T00:00	16650	100	-57.6	-84.5	259	21	
2025-07-06T00:00	16700	99	-57.7	-84.7	263	21	
2025-07-06T00:00	16750	98	-57.8	-84.9	267	21	
2025-07-06T00:00	16800	97	-58.0	-85.0	270	21	
2025-07-06T00:00	16850	97	-58.1	-84.9	273	20	
2025-07-06T00:00	16900	96	-57.9	-85.0	276	19	
2025-07-06T00:00	16950	95	-57.8	-85.1	279	18	
2025-07-06T00:00	17000	94	-57.9	-85.1	282	17	
2025-07-06T00:00	17050	94	-57.9	-85.1	282	15	
2025-07-06T00:00	17100	93	-57.9	-85.1	278	14	
2025-07-06T00:00	17150	92	-57.5	-85.1	272	13	
2025-07-06T00:00	17200	91	-57.1	-85.2	271	13	
2025-07-06T00:00	17250	91	-56.6	-85.0	269	12	
2025-07-06T00:00	17300	90	-56.7	-85.0	264	10	
2025-07-06T00:00	17350	89	-56.5	-85.0	256	10	
2025-07-06T00:00	17400	89	-56.2	-84.9	248	9	
2025-07-06T00:00	17450	88	-56.4	-85.0	239	8	
2025-07-06T00:00	17500	87	-56.0	-84.8	231	7	
2025-07-06T00:00	17550	86	-56.0	-84.8	227	6	
2025-07-06T00:00	17600	86	-56.3	-84.7	228	6	
2025-07-06T00:00	17650	85	-56.8	-84.7	233	6	
2025-07-06T00:00	17700	84	-57.2	-84.9	240	7	
2025-07-06T00:00	17750	84	-57.6	-85.1	245	7	
2025-07-06T00:00	17800	83	-58.0	-85.3	250	8	
2025-07-06T00:00	17850	82	-58.3	-85.3	254	8	
2025-07-06T00:00	17900	82	-58.5	-85.3	256	9	
2025-07-06T00:00	17950	81	-58.8	-85.4	257	9	
2025-07-06T00:00	18000	81	-59.1	-85.7	260	9	
2025-07-06T00:00	18050	80	-59.3	-85.8	263	9	
2025-07-06T00:00	18100	79	-59.4	-85.8	265	9	
2025-07-06T00:00	18150	79	-59.6	-85.8	266	9	
2025-07-06T00:00	18200	78	-59.9	-85.9	265	9	
2025-07-06T00:00	18250	77	-60.2	-86.2	265	10	
2025-07-06T00:00	18300	77	-60.2	-86.1	266	10	
2025-07-06T00:00	18350	76	-60.0	-86.1	269	11	
2025-07-06T00:00	18400	76	-60.0	-86.3	273	10	
2025-07-06T00:00	18450	75	-59.7	-86.4	273	10	
2025-07-06T00:00	18500	74	-59.2	-86.4	267	8	
2025-07-06T00:00	18550	74	-58.9	-86.1	261	8	
2025-07-06T00:00	18600	73	-58.8	-86.1	261	8	
2025-07-06T00:00	18650	73	-58.7	-86.2	259	7	
2025-07-06T00:00	18700	72	-57.9	-86.3	258	7	
2025-07-06T00:00	18750	71	-56.8	-86.1	266	8	
2025-07-06T00:00	18800	71	-55.8	-85.7	273	8	
2025-07-06T00:00	18850	70	-55.5	-85.4	278	8	
2025-07-06T00:00	18900	70	-55.4	-85.1	283	8	
2025-07-06T00:00	18950	69	-55.7	-85.0	286	7	
2025-07-06T00:00	19000	69	-55.7	-84.9	286	7	
2025-07-06T00:00	19050	68	-56.0	-84.9	283	7	
2025-07-06T00:00	19100	68	-56.4	-85.1	275	6	
2025-07-06T00:00	19150	67	-56.5	-85.1	263	6	
2025-07-06T00:00	19200	67	-56.7	-85.2	246	5	
2025-07-06T00:00	19250	66	-56.7	-85.2	230	5	
2025-07-06T00:00	19300	66	-56.9	-85.3	221	5	
2025-07-06T00:00	19350	65	-57.2	-85.4	218	5	
2025-07-06T00:00	19400	64	-57.5	-85.5	226	5	
2025-07-06T00:00	19450	64	-57.4	-85.7	247	5	
2025-07-06T00:00	19500	63	-56.9	-85.6	269	6	
2025-07-06T00:00	19550	63	-56.4	-85.4	284	6	
2025-07-06T00:00	19600	62	-56.4	-85.4	295	6	
2025-07-06T00:00	19650	62	-56.4	-85.3	300	5	
2025-07-06T00:00	19700	62	-56.3	-85.1	293	5	
2025-07-06T00:00	19750	61	-56.6	-85.2	286	5	
2025-07-06T00:00	19800	61	-57.0	-85.3	283	5	
2025-07-06T00:00	19850	60	-57.0	-85.3	284	6	
2025-07-06T00:00	19900	60	-57.1	-85.4	287	6	
2025-07-06T00:00	19950	59	-57.2	-85.7	291	6	
2025-07-06T00:00	20000	59	-56.8	-85.7	296	6	
2025-07-06T00:00	20050	58	-56.1		299	6	
2025-07-06T00:00	20100	58	-55.7		307	6	
2025-07-06T00:00	20150	57	-55.9		320	5	
2025-07-06T00:00	20200	57	-55.9		341	4	
2025-07-06T00:00	20250	56	-55.7		13	4	
2025-07-06T00:00	20300	56	-55.2		45	3	
2025-07-06T00:00	20350	56	-55.3		71	3	
2025-07-06T00:00	20400	55	-55.5		92	3	
2025-07-06T00:00	20450	55	-55.6		106	3	
2025-07-06T00:00	20500	54	-55.9		121	4	
2025-07-06T00:00	20550	54	-56.3		136	4	
2025-07-06T00:00	20600	53	-56.7		149	5	
2025-07-06T00:00	20650	53	-56.7		159	5	
2025-07-06T00:00	20700	53	-56.7		164	5	
2025-07-06T00:00	20750	52	-56.4		162	4	
2025-07-06T00:00	20800	52	-56.4		158	3	
2025-07-06T00:00	20850	51	-55.8		154	3	
2025-07-06T00:00	20900	51	-55.8		150	2	
2025-07-06T00:00	20950	51	-55.5		137	2	
2025-07-06T00:00	21000	50	-55.6		124	1	
2025-07-06T00:00	21050	50	-55.7		133	2	
2025-07-06T00:00	21100	49	-55.8		155	2	
2025-07-06T00:00	21150	49	-55.8		175	3	
2025-07-06T00:00	21200	49	-55.7		184	4	
2025-07-06T00:00	21250	48	-56.0		183	4	
2025-07-06T00:00	21300	48	-55.9		172	5	
2025-07-06T00:00	21350	47	-56.0		156	5	
2025-07-06T00:00	21400	47	-56.0		149	6	
2025-07-06T00:00	21450	47	-55.7		150	7	
2025-07-06T00:00	21500	46	-55.7		155	6	
2025-07-06T00:00	21550	46	-56.0		163	4	
2025-07-06T00:00	21600	46	-56.1		175	2	
2025-07-06T00:00	21650	45	-55.8		192	1	
2025-07-06T00:00	21700	45	-55.9		325	1	
2025-07-06T00:00	21750	45	-55.9		9	1	
2025-07-06T00:00	21800	44	-55.8		34	2	
2025-07-06T00:00	21850	44	-55.2		52	3	
2025-07-06T00:00	21900	44	-54.7		72	3	
2025-07-06T00:00	21950	43	-54.5		99	3	
2025-07-06T00:00	22000	43	-54.2		123	3	
2025-07-06T00:00	22050	43	-54.2		133	2	
2025-07-06T00:00	22100	42	-54.2		122	1	
2025-07-06T00:00	22150	42	-54.0		46	1	
2025-07-06T00:00	22200	42	-53.9		42	2	
2025-07-06T00:00	22250	41	-53.8		46	4	
2025-07-06T00:00	22300	41	-53.8		46	5	
2025-07-06T00:00	22350	41	-53.8		44	6	
2025-07-06T00:00	22400	40	-53.8		43	6	
2025-07-06T00:00	22450	40	-53.8		40	5	
2025-07-06T00:00	22500	40	-53.7		41	6	
2025-07-06T00:00	22550	39	-53.8		47	6	
2025-07-06T00:00	22600	39	-53.6		61	7	
2025-07-06T00:00	22650	39	-53.5		75	7	
2025-07-06T00:00	22700	38	-53.6		86	7	
2025-07-06T00:00	22750	38	-53.8		95	8	
2025-07-06T00:00	22800	38	-54.1		102	9	
2025-07-06T00:00	22850	38	-54.4		109	9	
2025-07-06T00:00	22900	37	-54.3		114	7	
2025-07-06T00:00	22950	37	-54.3		115	6	
2025-07-06T00:00	23000	37	-54.3		112	5	
2025-07-06T00:00	23050	36	-53.9		116	6	
2025-07-06T00:00	23100	36	-53.6		124	6	
2025-07-06T00:00	23150	36	-53.4		131	6	
2025-07-06T00:00	23200	36	-53.4		130	5	
2025-07-06T00:00	23250	35	-53.4		117	4	
2025-07-06T00:00	23300	35	-53.1		95	3	
2025-07-06T00:00	23350	35	-53.1		72	3	
2025-07-06T00:00	23400	34	-52.7		58	4	
2025-07-06T00:00	23450	34	-52.5		54	5	
2025-07-06T00:00	23500	34	-52.3		54	6	
2025-07-06T00:00	23550	34	-52.2		59	7	
2025-07-06T00:00	23600	33	-52.2		69	7	
2025-07-06T00:00	23650	33	-52.1		81	8	
2025-07-06T00:00	23700	33	-51.9		93	8	
2025-07-06T00:00	23750	33	-52.0		101	9	
2025-07-06T00:00	23800	32	-52.1		108	9	
2025-07-06T00:00	23850	32	-51.9		114	10	
2025-07-06T00:00	23900	32	-52.1		118	10	
2025-07-06T00:00	23950	32	-52.1		120	9	
2025-07-06T00:00	24000	31	-51.9		120	8	
2025-07-06T00:00	24050	31	-51.7		120	6	
2025-07-06T00:00	24100	31	-51.8		122	5	
2025-07-06T00:00	24150	31	-51.7		124	5	
2025-07-06T00:00	24200	30	-51.6		121	5	
2025-07-06T00:00	24250	30	-51.3		108	4	
2025-07-06T00:00	24300	30	-50.6		87	5	
2025-07-06T00:00	24350	30	-50.5		70	6	
2025-07-06T00:00	24400	30	-50.4		60	7	
2025-07-06T00:00	24450	29	-50.4		55	9	
2025-07-06T00:00	24500	29	-50.3		56	11	
2025-07-06T00:00	24550	29	-50.5		60	12	
2025-07-06T00:00	24600	29	-50.8		65	13	
2025-07-06T00:00	24650	28	-50.6		69	12	
2025-07-06T00:00	24700	28	-50.2		73	11	
2025-07-06T00:00	24750	28	-50.5		78	10	
2025-07-06T00:00	24800	28	-50.9		86	9	
2025-07-06T00:00	24850	28	-51.2		92	8	
2025-07-06T00:00	24900	27	-51.4		92	8	
2025-07-06T00:00	24950	27	-51.4		87	7	
2025-07-06T00:00	25000	27	-51.4		78	8	
2025-07-06T00:00	25050	27	-51.4		70	9	
2025-07-06T00:00	25100	27	-51.3		68	10	
2025-07-06T00:00	25150	26	-50.9		71	11	
2025-07-06T00:00	25200	26	-50.5		77	11	
2025-07-06T00:00	25250	26	-50.4		83	11	
2025-07-06T00:00	25300	26	-50.2		84	11	
2025-07-06T00:00	25350	26	-49.8		83	11	
2025-07-06T00:00	25400	25	-49.7		82	12	
2025-07-06T00:00	25450	25	-49.5		82	12	
2025-07-06T00:00	25500	25	-49.5		84	13	
2025-07-06T00:00	25550	25	-49.8		86	14	
2025-07-06T00:00	25600	25	-50.2		87	15	
2025-07-06T00:00	25650	24	-50.6		88	16	
2025-07-06T00:00	25700	24	-51.0		89	17	
2025-07-06T00:00	25750	24	-51.2		91	17	
2025-07-06T00:00	25800	24	-51.5		93	17	
2025-07-06T00:00	25850	24	-51.3		97	15	
2025-07-06T00:00	25900	23	-50.5		102	14	
2025-07-06T00:00	25950	23	-50.2		107	13	
2025-07-06T00:00	26000	23	-49.8		111	11	
2025-07-06T00:00	26050	23	-49.4		111	10	
2025-07-06T00:00	26100	23	-49.2		107	9	
2025-07-06T00:00	26150	23	-49.0		103	9	
2025-07-06T00:00	26200	22	-48.8		101	9	
2025-07-06T00:00	26250	22	-48.5		99	9	
2025-07-06T00:00	26300	22	-48.6		98	8	
2025-07-06T00:00	26350	22	-48.6		98	8	
2025-07-06T00:00	26400	22	-48.3		99	8	
2025-07-06T00:00	26450	22	-48.1		99	8	
2025-07-06T00:00	26500	21	-48.2		99	9	
2025-07-06T00:00	26550	21	-48.3		99	10	
2025-07-06T00:00	26600	21	-48.6		100	11	
2025-07-06T00:00	26650	21	-48.9		101	12	
2025-07-06T00:00	26700	21	-49.2		101	12	
2025-07-06T00:00	26750	21	-49.2		103	13	
2025-07-06T00:00	26800	20	-49.0		105	13	
2025-07-06T00:00	26850	20	-48.8		110	13	
2025-07-06T00:00	26900	20	-49.0		114	12	
2025-07-06T00:00	26950	20	-49.0		118	10	
2025-07-06T00:00	27000	20	-48.5		119	8	
2025-07-06T00:00	27050	20	-47.9		116	7	
2025-07-06T00:00	27100	20	-47.4		109	6	
2025-07-06T00:00	27150	19	-46.9		97	5	
2025-07-06T00:00	27200	19	-46.4		82	6	
2025-07-06T00:00	27250	19	-46.0		74	7	
2025-07-06T00:00	27300	19	-45.8		74	8	
2025-07-06T00:00	27350	19	-45.4		77	8	
2025-07-06T00:00	27400	19	-45.3		80	8	
2025-07-06T00:00	27450	19	-45.3		83	7	
2025-07-06T00:00	27500	18	-45.0		83	7	
2025-07-06T00:00	27550	18	-44.6		79	7	
2025-07-06T00:00	27600	18	-44.7		73	7	
2025-07-06T00:00	27650	18	-44.3		65	7	
2025-07-06T00:00	27700	18	-44.1		59	7	
2025-07-06T00:00	27750	18	-44.0		55	8	
2025-07-06T00:00	27800	18	-44.0		53	8	
2025-07-06T00:00	27850	17	-43.9		54	9	
2025-07-06T00:00	27900	17	-44.0		59	10	
2025-07-06T00:00	27950	17	-44.0		65	11	
2025-07-06T00:00	28000	17	-44.2		71	12	
2025-07-06T00:00	28050	17	-44.3		77	13	
2025-07-06T00:00	28100	17	-44.3		82	14	
2025-07-06T00:00	28150	17	-44.2		87	14	
2025-07-06T00:00	28200	17	-43.9		92	15	
2025-07-06T00:00	28250	16	-43.9		96	15	
2025-07-06T00:00	28300	16	-44.1		100	15	
2025-07-06T00:00	28350	16	-44.0		106	14	
2025-07-06T00:00	28400	16	-43.7		113	13	
2025-07-06T00:00	28450	16	-43.5		118	13	
2025-07-06T00:00	28500	16	-43.5		119	12	
2025-07-06T00:00	28550	16	-43.5		114	11	
2025-07-06T00:00	28600	16	-43.2		102	10	
2025-07-06T00:00	28650	15	-42.8		90	10	
2025-07-06T00:00	28700	15	-42.6		85	10	
2025-07-06T00:00	28750	15	-42.3		88	9	
2025-07-06T00:00	28800	15	-42.3		94	9	
2025-07-06T00:00	28850	15	-42.3		99	8	
2025-07-06T00:00	28900	15	-42.0		104	8	
2025-07-06T00:00	28950	15	-41.8		109	8	
2025-07-06T00:00	29000	15	-42.0		109	8	
2025-07-06T00:00	29050	15	-42.0		101	8	
2025-07-06T00:00	29100	15	-42.0		92	8	
2025-07-06T00:00	29150	14	-42.3		85	9	
2025-07-06T00:00	29200	14	-42.4		83	10	
2025-07-06T00:00	29250	14	-42.4		85	11	
2025-07-06T00:00	29300	14	-42.6		89	11	
2025-07-06T00:00	29350	14	-42.7		92	12	
2025-07-06T00:00	29400	14	-42.8		94	12	
2025-07-06T00:00	29450	14	-42.6		95	12	
2025-07-06T00:00	29500	14	-42.6		97	12	
2025-07-06T00:00	29550	14	-42.4		100	11	
2025-07-06T00:00	29600	13	-42.3		105	10	
2025-07-06T00:00	29650	13	-42.3		108	10	
2025-07-06T00:00	29700	13	-42.4		107	10	
2025-07-06T00:00	29750	13	-42.3		103	10	
2025-07-06T00:00	29800	13	-42.1		97	10	
2025-07-06T00:00	29850	13	-41.9		94	11	
2025-07-06T00:00	29900	13	-41.7		94	12	
2025-07-06T00:00	29950	13	-41.6		97	13	
2025-07-06T00:00	30000	13	-41.3		101	13	
2025-07-06T00:00	30050	13	-41.3		104	13	
2025-07-06T00:00	30100	13	-41.3		105	12	
2025-07-06T00:00	30150	12	-41.4		103	12	
2025-07-06T00:00	30200	12	-41.5		101	11	
2025-07-06T00:00	30250	12	-41.4		102	11	
2025-07-06T00:00	30300	12	-41.4		105	10	
2025-07-06T00:00	30350	12	-41.6		108	9	
2025-07-06T00:00	30400	12	-41.6		108	9	
2025-07-06T00:00	30450	12	-41.3		104	9	
2025-07-06T00:00	30500	12	-41.1		97	9	
2025-07-06T00:00	30550	12	-40.6		89	11	
2025-07-06T00:00	30600	12	-40.0		84	12	
2025-07-06T00:00	30650	12	-39.8		79	13	
2025-07-06T00:00	30700	11	-39.6		75	14	
2025-07-06T00:00	30750	11	-39.5		76	14	
2025-07-06T00:00	30800	11	-39.4		79	14	
2025-07-06T00:00	30850	11	-39.6		83	13	
2025-07-06T00:00	30900	11	-39.8		86	13	
2025-07-06T00:00	30950	11	-40.0		87	14	
2025-07-06T00:00	31000	11	-39.7		87	15	
2025-07-06T00:00	31050	11	-39.6		88	15	
2025-07-06T00:00	31100	11	-39.6		90	15	
2025-07-06T00:00	31150	11	-39.5		92	15	
2025-07-06T00:00	31200	11	-39.5		93	15	
2025-07-06T00:00	31250	11	-39.4		92	14	
2025-07-06T00:00	31300	10	-39.1		91	14	
2025-07-06T00:00	31350	10	-38.9		90	13	
2025-07-06T00:00	31400	10	-38.8		89	14	
2025-07-06T00:00	31450	10	-38.6		87	14	
2025-07-06T00:00	31500	10	-38.6		83	15	
2025-07-06T00:00	31550	10	-38.5		80	16	
2025-07-06T00:00	31600	10	-38.4		79	17	
2025-07-06T00:00	31650	10	-38.3		79	18	
2025-07-06T00:00	31700	10	-37.9		82	19	
2025-07-06T00:00	31750	10	-37.8		84	19	
2025-07-06T00:00	31800	10	-37.8		85	20	
2025-07-06T00:00	31850	10	-37.9		86	20	
2025-07-06T00:00	31900	10	-37.9		88	20	
2025-07-06T00:00	31950	10	-37.9		91	21	
2025-07-06T00:00	32000	9	-37.8		92	21	
2025-07-06T00:00	32050	9	-37.7		93	21	
2025-07-06T00:00	32100	9	-37.8		91	20	
2025-07-06T00:00	32150	9	-37.9		90	19	
2025-07-06T00:00	32200	9	-37.8		89	18	
2025-07-06T00:00	32250	9	-37.8		88	17	
2025-07-06T00:00	32300	9	-37.8		89	17	
2025-07-06T00:00	32350	9	-37.7		92	17	
2025-07-06T00:00	32400	9	-37.6		94	16	
2025-07-06T00:00	32450	9	-37.4		94	16	
2025-07-06T00:00	32500	9	-37.1		92	15	
2025-07-06T00:00	32550	9	-37.0		91	14	
2025-07-06T00:00	32600	9	-37.1		93	14	
2025-07-06T00:00	32650	9	-37.2		96	14	
2025-07-06T00:00	32700	9	-37.2		98	15	
2025-07-06T00:00	32750	8	-37.2		98	15	
2025-07-06T00:00	32800	8	-37.1		96	16	
2025-07-06T00:00	32850	8	-36.9		94	17	
2025-07-06T00:00	32900	8	-36.8		93	18	
2025-07-06T00:00	32950	8	-36.8		93	17	
2025-07-06T00:00	33000	8	-36.5		95	17	
2025-07-06T00:00	33050	8	-36.6		97	16	
2025-07-06T00:00	33100	8	-36.8		100	15	
2025-07-06T00:00	33150	8	-36.9		101	14	
2025-07-06T00:00	33200	8	-36.7		100	14	
2025-07-06T00:00	33250	8	-36.5		99	14	
2025-07-06T00:00	33300	8	-36.5		97	13	
2025-07-06T00:00	33350	8	-36.4		94	13	
2025-07-06T00:00	33400	8	-36.3		92	14	
2025-07-06T00:00	33450	8	-36.1		90	15	
2025-07-06T00:00	33500	8	-35.9		88	15	
2025-07-06T00:00	33550	8	-35.8		87	16	
2025-07-06T00:00	33600	8	-35.7		88	16	
2025-07-06T00:00	33650	7	-35.3		89	17	
2025-07-06T00:00	33700	7	-34.9		90	17	
2025-07-06T00:00	33750	7	-34.7		90	16	
2025-07-06T00:00	33800	7	-34.5		90	14	
2025-07-06T00:00	33850	7	-34.2		89	13	
2025-07-06T00:00	33900	7	-33.8		89	13	
2025-07-06T00:00	33950	7	-33.2		86	13	
2025-07-06T00:00	34000	7	-32.6		81	13	
2025-07-06T00:00	34050	7	-32.0		78	13	
2025-07-06T00:00	34100	7	-31.5		80	13	
2025-07-06T00:00	34150	7	-31.0		86	13	
2025-07-06T00:00	34200	7	-31.0		89	13	
2025-07-06T00:00	34250	7	-31.0		88	12	
2025-07-06T00:00	34300	7	-31.1		83	12	
2025-07-06T00:00	34350	7	-31.1		77	12	
2025-07-06T00:00	34400	7	-30.8		73	13	
2025-07-06T00:00	34450	7	-30.8		75	14	
2025-07-06T00:00	34500	7	-31.0		78	14	
2025-07-06T00:00	34550	7	-31.1		79	15	
2025-07-06T00:00	34600	7	-31.0		78	16	
2025-07-06T00:00	34650	6	-30.8		77	17	
2025-07-06T00:00	34700	6	-30.7		77	18	
2025-07-06T00:00	34750	6	-30.7		77	19	
2025-07-06T00:00	34800	6	-30.7		78	20	
2025-07-06T00:00	34850	6	-30.7		80	20	
2025-07-06T00:00	34900	6	-30.6		83	21	
2025-07-06T00:00	34950	6	-30.6		87	20	
2025-07-06T00:00	35000	6	-30.5		91	20	
2025-07-06T00:00	35050	6	-30.6		96	20	
2025-07-06T00:00	35100	6	-30.8		99	20	
2025-07-06T00:00	35150	6	-30.9		102	20	
2025-07-06T00:00	35200	6	-30.9		103	19	
2025-07-06T00:00	35250	6	-30.6		101	17	
2025-07-06T00:00	35300	6	-30.4		96	16	
2025-07-06T00:00	35350	6	-30.2		90	16	
2025-07-06T00:00	35400	6	-30.0		86	16	
2025-07-06T00:00	35450	6	-29.7		85	16	
2025-07-06T00:00	35500	6	-29.3		85	17	
2025-07-06T00:00	35550	6	-29.1		84	17	
2025-07-06T00:00	35600	6	-28.8		81	17	
2025-07-06T00:00	35650	6	-28.2		77	17	
2025-07-06T00:00	35700	6	-27.7		74	18	
2025-07-06T00:00	35750	6	-27.5		71	19	
2025-07-06T00:00	35800	6	-27.1		69	20	
2025-07-06T00:00	35850	5	-27.0		70	20	
2025-07-06T00:00	35900	5	-26.9		71	21	
2025-07-06T00:00	35950	5	-26.7		73	22	
2025-07-06T00:00	36000	5	-26.8		75	22	
2025-07-06T00:00	36050	5	-26.8		77	22	
2025-07-06T00:00	36100	5	-26.9		80	22	
2025-07-06T00:00	36150	5	-27.0		82	22	
2025-07-06T00:00	36200	5	-27.1		84	22	
2025-07-06T00:00	36250	5	-27.2		86	23	
2025-07-06T00:00	36300	5	-27.4		88	23	
2025-07-06T00:00	36350	5	-27.5		91	23	
2025-07-06T00:00	36400	5	-27.5		93	22	
2025-07-06T00:00	36450	5	-27.6		95	22	
2025-07-06T00:00	36500	5	-27.7		97	21	
2025-07-06T00:00	36550	5	-27.8		98	20	
2025-07-06T00:00	36600	5	-27.9		97	19	
2025-07-06T00:00	36650	5	-27.9		96	17	
2025-07-06T00:00	36700	5	-27.7		96	17	
2025-07-06T00:00	36750	5	-27.4		96	18	
2025-07-06T00:00	36800	5	-27.1		97	19	
2025-07-06T00:00	36850	5	-26.9		98	19	
2025-07-06T00:00	36900	5	-26.7		99	20	
2025-07-06T00:00	36950	5	-26.5		99	21	
2025-07-06T12:00	491	956	19.3	10.0	186	3	
2025-07-06T12:00	501	954	19.8	8.8	171	3	
2025-07-06T12:00	520	953	20.0	8.2	169	4	
2025-07-06T12:00	540	951	20.0	8.3	171	5	
2025-07-06T12:00	560	948	19.6	8.3	172	6	
2025-07-06T12:00	580	946	19.6	7.9	175	8	
2025-07-06T12:00	600	944	19.6	7.4	178	9	
2025-07-06T12:00	620	942	19.6	7.2	182	11	
2025-07-06T12:00	640	940	20.1	5.9	186	12	
2025-07-06T12:00	660	938	20.5	5.2	189	13	
2025-07-06T12:00	680	936	20.6	4.7	192	14	
2025-07-06T12:00	700	933	20.3	4.9	195	15	
2025-07-06T12:00	720	931	20.1	4.9	197	16	
2025-07-06T12:00	740	929	19.9	4.8	198	16	
2025-07-06T12:00	760	927	19.6	4.9	198	17	
2025-07-06T12:00	780	925	19.5	4.7	198	17	
2025-07-06T12:00	800	923	19.6	4.2	197	17	
2025-07-06T12:00	820	921	19.8	3.7	196	17	
2025-07-06T12:00	840	918	19.7	3.8	195	18	
2025-07-06T12:00	860	916	19.3	4.0	194	18	
2025-07-06T12:00	880	914	19.1	3.9	194	18	
2025-07-06T12:00	900	912	18.8	4.1	194	18	
2025-07-06T12:00	920	910	18.7	3.7	195	18	
2025-07-06T12:00	940	908	18.6	3.6	196	18	
2025-07-06T12:00	960	905	18.7	3.1	198	18	
2025-07-06T12:00	980	903	18.6	3.0	201	17	
2025-07-06T12:00	1000	901	18.4	3.0	203	17	
2025-07-06T12:00	1020	899	18.2	3.0	205	17	
2025-07-06T12:00	1040	897	18.0	3.0	206	16	
2025-07-06T12:00	1060	895	17.7	2.9	208	16	
2025-07-06T12:00	1080	893	17.6	2.9	209	16	
2025-07-06T12:00	1100	891	17.5	2.8	211	17	
2025-07-06T12:00	1120	889	17.3	2.8	212	17	
2025-07-06T12:00	1140	887	17.2	2.6	213	17	
2025-07-06T12:00	1160	885	17.0	2.7	215	17	
2025-07-06T12:00	1180	883	16.6	2.8	216	17	
2025-07-06T12:00	1200	881	16.4	2.8	218	17	
2025-07-06T12:00	1220	879	16.2	2.7	220	17	
2025-07-06T12:00	1240	876	16.0	2.6	221	16	
2025-07-06T12:00	1260	874	15.9	2.5	223	15	
2025-07-06T12:00	1280	872	15.8	2.5	224	14	
2025-07-06T12:00	1300	870	15.6	2.4	224	14	
2025-07-06T12:00	1320	868	15.4	2.3	223	13	
2025-07-06T12:00	1340	866	15.2	2.3	221	13	
2025-07-06T12:00	1360	864	15.1	2.2	220	13	
2025-07-06T12:00	1380	862	14.9	2.1	220	13	
2025-07-06T12:00	1400	860	14.7	2.2	219	13	
2025-07-06T12:00	1420	858	14.4	2.1	220	13	
2025-07-06T12:00	1440	856	14.3	2.1	220	13	
2025-07-06T12:00	1460	854	14.1	2.1	220	13	
2025-07-06T12:00	1480	852	13.9	2.0	221	13	
2025-07-06T12:00	1500	850	13.7	2.0	221	14	
2025-07-06T12:00	1520	848	13.5	2.0	221	14	
2025-07-06T12:00	1540	846	13.3	1.9	221	14	
2025-07-06T12:00	1560	844	13.1	1.9	222	14	
2025-07-06T12:00	1580	842	12.9	1.8	222	14	
2025-07-06T12:00	1600	840	12.8	1.8	222	14	
2025-07-06T12:00	1620	838	12.6	1.8	224	14	
2025-07-06T12:00	1640	836	12.4	1.8	225	14	
2025-07-06T12:00	1660	834	12.2	1.7	227	15	
2025-07-06T12:00	1680	832	12.0	1.7	229	15	
2025-07-06T12:00	1700	830	11.8	1.6	230	15	
2025-07-06T12:00	1720	828	11.6	1.6	232	14	
2025-07-06T12:00	1740	826	11.4	1.6	234	13	
2025-07-06T12:00	1760	824	11.2	1.6	234	12	
2025-07-06T12:00	1780	822	11.1	1.4	235	11	
2025-07-06T12:00	1800	820	10.8	1.4	236	11	
2025-07-06T12:00	1820	818	10.7	1.4	236	12	
2025-07-06T12:00	1840	816	10.5	1.3	236	13	
2025-07-06T12:00	1860	814	10.4	1.2	236	13	
2025-07-06T12:00	1880	812	10.2	1.2	239	13	
2025-07-06T12:00	1900	810	10.1	1.2	241	13	
2025-07-06T12:00	1920	808	9.8	1.1	245	14	
2025-07-06T12:00	1940	806	9.7	1.0	249	15	
2025-07-06T12:00	1960	804	9.5	1.0	251	16	
2025-07-06T12:00	1980	802	9.3	0.9	252	16	
2025-07-06T12:00	2000	800	9.2	0.8	253	17	
2025-07-06T12:00	2020	798	9.0	0.8	253	17	
2025-07-06T12:00	2040	796	8.9	0.7	254	16	
2025-07-06T12:00	2060	795	8.7	0.7	254	16	
2025-07-06T12:00	2080	793	8.5	0.6	253	16	
2025-07-06T12:00	2100	791	8.3	0.7	251	16	
2025-07-06T12:00	2120	789	8.1	0.6	249	16	
2025-07-06T12:00	2140	787	7.9	0.6	246	16	
2025-07-06T12:00	2160	785	7.7	0.6	244	17	
2025-07-06T12:00	2180	783	7.5	0.5	242	17	
2025-07-06T12:00	2200	781	7.3	0.4	241	18	
2025-07-06T12:00	2220	779	7.2	0.3	241	18	
2025-07-06T12:00	2240	777	7.0	0.3	241	18	
2025-07-06T12:00	2260	775	6.8	0.2	242	18	
2025-07-06T12:00	2280	773	6.6	0.2	242	18	
2025-07-06T12:00	2300	772	6.4	0.1	243	18	
2025-07-06T12:00	2320	770	6.2	0.1	244	18	
2025-07-06T12:00	2340	768	6.0	0.0	245	19	
2025-07-06T12:00	2360	766	5.8	0.0	248	20	
2025-07-06T12:00	2380	764	5.6	0.0	250	20	
2025-07-06T12:00	2400	762	5.4	0.0	252	19	
2025-07-06T12:00	2420	760	5.2	-0.1	252	19	
2025-07-06T12:00	2440	759	5.1	-0.2	251	19	
2025-07-06T12:00	2460	757	4.9	-0.2	250	19	
2025-07-06T12:00	2480	755	4.7	-0.2	249	20	
2025-07-06T12:00	2500	753	4.5	-0.3	249	20	
2025-07-06T12:00	2520	751	4.3	-0.3	250	20	
2025-07-06T12:00	2540	750	4.1	-0.3	250	20	
2025-07-06T12:00	2560	748	3.9	-0.4	250	20	
2025-07-06T12:00	2580	746	3.7	-0.4	249	20	
2025-07-06T12:00	2600	744	3.4	-0.4	248	20	
2025-07-06T12:00	2620	742	3.2	-0.4	247	20	
2025-07-06T12:00	2640	740	3.0	-0.3	247	20	
2025-07-06T12:00	2660	739	2.8	-0.4	247	19	
2025-07-06T12:00	2680	737	2.6	-0.5	247	19	
2025-07-06T12:00	2700	735	2.4	-0.5	246	19	
2025-07-06T12:00	2720	733	2.2	-0.5	245	19	
2025-07-06T12:00	2740	731	2.0	-0.4	245	20	
2025-07-06T12:00	2760	729	1.8	-0.2	246	20	
2025-07-06T12:00	2780	728	1.6	-0.1	246	20	
2025-07-06T12:00	2800	726	1.4	0.0	247	20	
2025-07-06T12:00	2820	724	1.3	-0.2	248	20	
2025-07-06T12:00	2840	722	1.2	-0.3	249	20	
2025-07-06T12:00	2860	720	1.0	-0.2	249	20	
2025-07-06T12:00	2880	718	0.9	-0.8	249	20	
2025-07-06T12:00	2900	717	0.7	-0.8	249	20	
2025-07-06T12:00	2920	715	0.6	-0.9	248	20	
2025-07-06T12:00	2940	713	0.5	-1.0	247	20	
2025-07-06T12:00	2960	711	0.3	-1.0	247	21	
2025-07-06T12:00	2980	710	0.3	-1.1	246	21	
2025-07-06T12:00	3000	708	0.1	-1.2	245	21	
2025-07-06T12:00	3020	706	0.0	-1.3	244	21	
2025-07-06T12:00	3040	704	-0.1	-1.3	244	22	
2025-07-06T12:00	3060	703	-0.2	-1.6	244	22	
2025-07-06T12:00	3080	701	-0.3	-1.6	244	22	
2025-07-06T12:00	3100	699	-0.3	-1.8	244	22	
2025-07-06T12:00	3120	698	-0.4	-1.8	244	22	
2025-07-06T12:00	3140	696	-0.6	-1.8	244	22	
2025-07-06T12:00	3160	694	-0.5	-1.9	243	23	
2025-07-06T12:00	3180	692	-0.6	-1.9	243	23	
2025-07-06T12:00	3200	691	-0.7	-2.0	242	23	
2025-07-06T12:00	3220	689	-0.9	-2.1	242	24	
2025-07-06T12:00	3240	687	-1.1	-2.1	242	25	
2025-07-06T12:00	3260	685	-1.2	-2.1	242	25	
2025-07-06T12:00	3280	684	-1.4	-2.2	242	26	
2025-07-06T12:00	3300	682	-1.6	-2.3	242	26	
2025-07-06T12:00	3320	680	-1.7	-2.3	243	26	
2025-07-06T12:00	3340	678	-1.9	-2.4	243	26	
2025-07-06T12:00	3360	677	-2.0	-2.5	244	26	
2025-07-06T12:00	3380	675	-2.2	-2.6	244	26	
2025-07-06T12:00	3400	673	-2.3	-2.7	244	26	
2025-07-06T12:00	3420	672	-2.3	-2.8	244	25	
2025-07-06T12:00	3440	670	-2.1	-2.5	244	25	
2025-07-06T12:00	3460	668	-2.0	-2.4	245	24	
2025-07-06T12:00	3480	667	-1.8	-2.3	247	24	
2025-07-06T12:00	3500	665	-1.8	-2.3	249	23	
2025-07-06T12:00	3520	663	-1.9	-2.4	249	23	
2025-07-06T12:00	3540	662	-1.9	-2.3	249	22	
2025-07-06T12:00	3560	660	-1.9	-2.3	250	21	
2025-07-06T12:00	3580	658	-2.0	-2.4	250	21	
2025-07-06T12:00	3600	657	-2.0	-2.4	252	20	
2025-07-06T12:00	3620	655	-2.0	-2.4	253	19	
2025-07-06T12:00	3640	653	-2.1	-2.5	255	19	
2025-07-06T12:00	3660	652	-2.2	-2.7	255	18	
2025-07-06T12:00	3680	650	-2.3	-2.7	255	18	
2025-07-06T12:00	3700	648	-2.4	-2.8	255	17	
2025-07-06T12:00	3720	647	-2.6	-2.9	255	17	
2025-07-06T12:00	3740	645	-2.7	-2.9	255	16	
2025-07-06T12:00	3760	644	-2.8	-3.0	255	16	
2025-07-06T12:00	3780	642	-2.9	-3.1	256	16	
2025-07-06T12:00	3800	640	-2.9	-3.1	255	15	
2025-07-06T12:00	3820	639	-3.0	-3.2	255	15	
2025-07-06T12:00	3840	637	-3.0	-3.3	253	15	
2025-07-06T12:00	3860	636	-3.1	-3.3	251	14	
2025-07-06T12:00	3880	634	-3.2	-3.3	249	14	
2025-07-06T12:00	3900	632	-3.4	-3.5	248	14	
2025-07-06T12:00	3920	631	-3.5	-3.6	247	13	
2025-07-06T12:00	3940	629	-3.6	-3.6	247	13	
2025-07-06T12:00	3960	628	-3.7	-3.7	246	12	
2025-07-06T12:00	3980	626	-3.8	-4.0	246	12	
2025-07-06T12:00	4000	624	-3.9	-4.1	245	12	
2025-07-06T12:00	4020	623	-4.0	-4.4	245	11	
2025-07-06T12:00	4040	621	-4.1	-4.5	244	12	
2025-07-06T12:00	4060	620	-4.2	-4.7	243	12	
2025-07-06T12:00	4080	618	-4.3	-4.9	242	12	
2025-07-06T12:00	4100	616	-4.4	-5.2	242	13	
2025-07-06T12:00	4120	615	-4.5	-5.3	242	13	
2025-07-06T12:00	4140	613	-4.6	-5.4	241	13	
2025-07-06T12:00	4160	612	-4.7	-5.4	240	13	
2025-07-06T12:00	4180	610	-4.7	-5.4	239	13	
2025-07-06T12:00	4200	609	-4.8	-5.7	238	13	
2025-07-06T12:00	4220	607	-5.0	-5.8	237	13	
2025-07-06T12:00	4240	606	-5.1	-6.0	235	13	
2025-07-06T12:00	4260	604	-5.2	-6.1	233	12	
2025-07-06T12:00	4280	602	-5.4	-6.2	231	12	
2025-07-06T12:00	4300	601	-5.5	-6.3	230	12	
2025-07-06T12:00	4320	600	-5.5	-6.3	230	12	
2025-07-06T12:00	4340	598	-5.3	-6.3	229	12	
2025-07-06T12:00	4360	596	-5.2	-6.3	229	12	
2025-07-06T12:00	4380	595	-5.2	-6.2	230	12	
2025-07-06T12:00	4400	593	-5.3	-6.4	230	12	
2025-07-06T12:00	4420	592	-5.4	-6.5	231	11	
2025-07-06T12:00	4440	590	-5.2	-6.3	233	11	
2025-07-06T12:00	4460	589	-4.9	-6.1	235	11	
2025-07-06T12:00	4480	587	-4.9	-6.2	236	11	
2025-07-06T12:00	4500	586	-5.0	-6.2	238	11	
2025-07-06T12:00	4520	585	-5.1	-6.3	240	11	
2025-07-06T12:00	4540	583	-5.1	-6.3	242	11	
2025-07-06T12:00	4560	581	-5.2	-6.3	245	11	
2025-07-06T12:00	4580	580	-5.2	-6.3	247	10	
2025-07-06T12:00	4600	579	-5.2	-6.4	250	10	
2025-07-06T12:00	4620	577	-5.4	-6.5	252	10	
2025-07-06T12:00	4640	576	-5.4	-6.4	253	10	
2025-07-06T12:00	4660	574	-5.6	-6.4	254	10	
2025-07-06T12:00	4680	573	-5.7	-6.6	254	11	
2025-07-06T12:00	4700	571	-5.8	-6.7	253	11	
2025-07-06T12:00	4720	570	-6.0	-6.7	253	11	
2025-07-06T12:00	4740	568	-6.1	-6.8	252	11	
2025-07-06T12:00	4760	567	-6.3	-6.9	252	11	
2025-07-06T12:00	4780	565	-6.4	-7.0	251	11	
2025-07-06T12:00	4800	564	-6.5	-7.1	250	11	
2025-07-06T12:00	4820	563	-6.6	-7.2	250	11	
2025-07-06T12:00	4840	561	-6.7	-7.3	250	11	
2025-07-06T12:00	4860	560	-6.9	-7.4	251	11	
2025-07-06T12:00	4880	558	-7.0	-7.5	252	11	
2025-07-06T12:00	4900	557	-7.1	-7.7	254	12	
2025-07-06T12:00	4920	555	-7.1	-7.7	256	12	
2025-07-06T12:00	4940	554	-7.2	-7.9	257	12	
2025-07-06T12:00	4960	553	-7.3	-8.0	258	12	
2025-07-06T12:00	4980	551	-7.4	-8.1	258	13	
2025-07-06T12:00	5000	550	-7.5	-8.2	258	13	
2025-07-06T12:00	5020	548	-7.6	-8.3	259	13	
2025-07-06T12:00	5040	547	-7.7	-8.4	259	14	
2025-07-06T12:00	5060	545	-7.7	-8.5	258	14	
2025-07-06T12:00	5080	544	-7.8	-8.5	258	14	
2025-07-06T12:00	5100	543	-7.9	-8.7	257	14	
2025-07-06T12:00	5120	541	-8.0	-8.9	256	14	
2025-07-06T12:00	5140	540	-8.2	-9.0	256	14	
2025-07-06T12:00	5160	539	-8.3	-9.2	255	14	
2025-07-06T12:00	5180	537	-8.4	-9.3	255	14	
2025-07-06T12:00	5200	536	-8.5	-9.5	255	14	
2025-07-06T12:00	5220	534	-8.6	-9.5	255	14	
2025-07-06T12:00	5240	533	-8.7	-9.7	255	14	
2025-07-06T12:00	5260	532	-8.8	-9.8	255	15	
2025-07-06T12:00	5280	530	-8.9	-9.9	255	15	
2025-07-06T12:00	5300	529	-9.1	-10.0	255	15	
2025-07-06T12:00	5320	528	-9.2	-10.2	255	15	
2025-07-06T12:00	5340	526	-9.3	-10.3	254	15	
2025-07-06T12:00	5360	525	-9.4	-10.4	254	15	
2025-07-06T12:00	5380	524	-9.4	-10.6	253	15	
2025-07-06T12:00	5400	522	-9.5	-10.7	252	15	
2025-07-06T12:00	5420	521	-9.6	-10.9	251	15	
2025-07-06T12:00	5440	519	-9.7	-11.0	251	15	
2025-07-06T12:00	5460	518	-9.8	-11.1	250	15	
2025-07-06T12:00	5480	517	-9.9	-11.1	250	15	
2025-07-06T12:00	5500	515	-10.0	-11.2	250	15	
2025-07-06T12:00	5520	514	-10.1	-11.4	249	15	
2025-07-06T12:00	5540	513	-10.1	-11.5	248	15	
2025-07-06T12:00	5560	511	-10.2	-11.6	248	15	
2025-07-06T12:00	5580	510	-10.3	-11.8	248	15	
2025-07-06T12:00	5600	509	-10.4	-11.9	248	15	
2025-07-06T12:00	5620	507	-10.5	-12.0	248	15	
2025-07-06T12:00	5640	506	-10.6	-12.1	249	15	
2025-07-06T12:00	5660	505	-10.7	-12.2	249	16	
2025-07-06T12:00	5680	503	-10.9	-12.4	249	16	
2025-07-06T12:00	5700	502	-11.0	-12.5	248	16	
2025-07-06T12:00	5720	501	-11.1	-12.5	248	16	
2025-07-06T12:00	5740	500	-11.2	-12.6	248	16	
2025-07-06T12:00	5760	498	-11.3	-12.8	247	16	
2025-07-06T12:00	5780	497	-11.4	-13.0	247	16	
2025-07-06T12:00	5800	496	-11.5	-13.1	247	16	
2025-07-06T12:00	5820	494	-11.6	-13.3	247	16	
2025-07-06T12:00	5840	493	-11.7	-13.4	247	16	
2025-07-06T12:00	5860	492	-11.8	-13.5	247	16	
2025-07-06T12:00	5880	491	-11.9	-13.7	247	16	
2025-07-06T12:00	5900	489	-12.0	-13.9	246	16	
2025-07-06T12:00	5920	488	-12.1	-14.0	246	16	
2025-07-06T12:00	5940	487	-12.2	-14.2	245	16	
2025-07-06T12:00	5960	485	-12.3	-14.3	244	16	
2025-07-06T12:00	5980	484	-12.5	-14.4	244	16	
2025-07-06T12:00	6000	483	-12.6	-14.5	243	16	
2025-07-06T12:00	6020	482	-12.7	-14.6	243	16	
2025-07-06T12:00	6040	480	-12.9	-14.7	243	16	
2025-07-06T12:00	6060	479	-13.0	-14.9	243	16	
2025-07-06T12:00	6080	478	-13.2	-15.0	243	16	
2025-07-06T12:00	6100	477	-13.3	-15.1	243	16	
2025-07-06T12:00	6120	475	-13.4	-15.2	243	16	
2025-07-06T12:00	6140	474	-13.6	-15.3	243	16	
2025-07-06T12:00	6160	473	-13.7	-15.5	243	16	
2025-07-06T12:00	6180	472	-13.8	-15.7	243	16	
2025-07-06T12:00	6200	470	-14.0	-15.9	243	16	
2025-07-06T12:00	6220	469	-14.1	-16.1	244	16	
2025-07-06T12:00	6240	468	-14.2	-16.2	244	17	
2025-07-06T12:00	6260	467	-14.3	-16.3	245	17	
2025-07-06T12:00	6280	465	-14.3	-16.6	246	17	
2025-07-06T12:00	6300	464	-14.5	-16.7	246	17	
2025-07-06T12:00	6320	463	-14.7	-16.7	247	17	
2025-07-06T12:00	6340	462	-14.8	-16.8	248	17	
2025-07-06T12:00	6360	461	-15.0	-17.1	248	17	
2025-07-06T12:00	6380	459	-15.1	-17.3	248	17	
2025-07-06T12:00	6400	458	-15.3	-17.5	247	17	
2025-07-06T12:00	6420	457	-15.4	-17.6	247	17	
2025-07-06T12:00	6440	456	-15.5	-17.8	247	17	
2025-07-06T12:00	6460	455	-15.6	-18.1	247	17	
2025-07-06T12:00	6480	453	-15.7	-18.2	247	17	
2025-07-06T12:00	6500	452	-15.9	-18.4	247	17	
2025-07-06T12:00	6520	451	-16.0	-18.6	247	17	
2025-07-06T12:00	6540	450	-16.2	-18.8	247	17	
2025-07-06T12:00	6560	448	-16.3	-18.9	246	17	
2025-07-06T12:00	6580	447	-16.4	-19.1	246	18	
2025-07-06T12:00	6600	446	-16.6	-19.1	245	18	
2025-07-06T12:00	6620	445	-16.8	-19.2	245	18	
2025-07-06T12:00	6640	444	-16.9	-19.3	246	18	
2025-07-06T12:00	6660	443	-17.1	-19.5	246	18	
2025-07-06T12:00	6680	441	-17.2	-19.7	247	18	
2025-07-06T12:00	6700	440	-17.4	-19.7	247	18	
2025-07-06T12:00	6720	439	-17.5	-19.8	248	19	
2025-07-06T12:00	6740	438	-17.7	-19.9	248	19	
2025-07-06T12:00	6760	437	-17.8	-20.0	248	19	
2025-07-06T12:00	6780	436	-18.0	-20.1	248	19	
2025-07-06T12:00	6800	434	-18.1	-20.2	248	19	
2025-07-06T12:00	6820	433	-18.2	-20.4	247	19	
2025-07-06T12:00	6840	432	-18.4	-20.5	247	19	
2025-07-06T12:00	6860	431	-18.5	-20.6	247	19	
2025-07-06T12:00	6880	430	-18.7	-20.8	246	19	
2025-07-06T12:00	6900	429	-18.8	-20.9	245	19	
2025-07-06T12:00	6920	428	-18.9	-21.1	244	19	
2025-07-06T12:00	6940	426	-19.1	-21.0	244	19	
2025-07-06T12:00	6960	425	-19.2	-21.1	244	19	
2025-07-06T12:00	6980	424	-19.3	-21.3	243	19	
2025-07-06T12:00	7000	423	-19.5	-21.3	243	19	
2025-07-06T12:00	7020	422	-19.6	-21.6	243	19	
2025-07-06T12:00	7040	421	-19.8	-21.6	243	19	
2025-07-06T12:00	7060	420	-19.9	-21.7	243	19	
2025-07-06T12:00	7080	418	-20.1	-22.0	243	18	
2025-07-06T12:00	7100	417	-20.3	-22.1	243	18	
2025-07-06T12:00	7120	416	-20.4	-22.3	243	18	
2025-07-06T12:00	7140	415	-20.5	-22.7	242	17	
2025-07-06T12:00	7160	414	-20.7	-22.6	242	17	
2025-07-06T12:00	7180	413	-20.9	-22.9	243	16	
2025-07-06T12:00	7200	412	-21.0	-22.9	243	16	
2025-07-06T12:00	7220	411	-21.2	-22.9	243	16	
2025-07-06T12:00	7240	409	-21.3	-23.3	242	16	
2025-07-06T12:00	7260	408	-21.4	-23.5	241	16	
2025-07-06T12:00	7280	407	-21.6	-23.7	240	16	
2025-07-06T12:00	7300	406	-21.7	-23.8	239	16	
2025-07-06T12:00	7320	405	-21.7	-24.0	238	16	
2025-07-06T12:00	7340	404	-21.8	-24.1	237	16	
2025-07-06T12:00	7360	403	-22.0	-24.1	235	15	
2025-07-06T12:00	7380	402	-22.1	-24.2	233	15	
2025-07-06T12:00	7400	401	-22.2	-24.4	231	15	
2025-07-06T12:00	7420	400	-22.4	-24.5	229	14	
2025-07-06T12:00	7440	398	-22.5	-24.7	227	14	
2025-07-06T12:00	7460	397	-22.7	-24.7	227	14	
2025-07-06T12:00	7480	396	-22.8	-24.7	227	15	
2025-07-06T12:00	7500	395	-22.9	-24.9	228	15	
2025-07-06T12:00	7520	394	-23.1	-25.1	228	15	
2025-07-06T12:00	7540	393	-23.2	-25.3	228	16	
2025-07-06T12:00	7560	392	-23.4	-25.4	228	16	
2025-07-06T12:00	7580	391	-23.5	-25.6	227	17	
2025-07-06T12:00	7600	390	-23.6	-25.6	226	17	
2025-07-06T12:00	7620	389	-23.7	-25.7	224	17	
2025-07-06T12:00	7640	388	-23.9	-25.8	223	17	
2025-07-06T12:00	7660	387	-24.0	-25.9	222	17	
2025-07-06T12:00	7680	386	-24.1	-26.1	222	17	
2025-07-06T12:00	7700	385	-24.2	-26.1	221	17	
2025-07-06T12:00	7720	384	-24.4	-26.1	220	17	
2025-07-06T12:00	7740	382	-24.5	-26.3	220	17	
2025-07-06T12:00	7760	381	-24.7	-26.5	220	17	
2025-07-06T12:00	7780	380	-24.8	-26.6	221	18	
2025-07-06T12:00	7800	379	-25.0	-26.7	221	18	
2025-07-06T12:00	7820	378	-25.1	-27.2	221	19	
2025-07-06T12:00	7840	377	-25.2	-27.1	222	20	
2025-07-06T12:00	7860	376	-25.4	-27.3	222	20	
2025-07-06T12:00	7880	375	-25.6	-27.2	222	21	
2025-07-06T12:00	7900	374	-25.7	-28.0	222	21	
2025-07-06T12:00	7920	373	-25.9	-28.0	223	21	
2025-07-06T12:00	7940	372	-26.0	-27.9	223	21	
2025-07-06T12:00	7960	371	-26.2	-28.2	224	21	
2025-07-06T12:00	7980	370	-26.3	-28.7	225	21	
2025-07-06T12:00	8000	369	-26.4	-28.9	225	21	
2025-07-06T12:00	8020	368	-26.6	-29.2	226	21	
2025-07-06T12:00	8040	367	-26.7	-29.4	227	20	
2025-07-06T12:00	8060	366	-26.9	-29.3	227	20	
2025-07-06T12:00	8080	365	-27.1	-29.6	228	20	
2025-07-06T12:00	8100	364	-27.2	-29.9	228	20	
2025-07-06T12:00	8120	363	-27.4	-29.8	229	20	
2025-07-06T12:00	8140	362	-27.5	-30.1	229	20	
2025-07-06T12:00	8160	361	-27.7	-30.2	230	20	
2025-07-06T12:00	8180	360	-27.9	-30.3	231	20	
2025-07-06T12:00	8200	359	-28.0	-30.5	232	21	
2025-07-06T12:00	8220	358	-28.2	-30.8	232	21	
2025-07-06T12:00	8240	357	-28.4	-30.9	232	21	
2025-07-06T12:00	8260	356	-28.5	-31.1	232	21	
2025-07-06T12:00	8280	355	-28.6	-31.5	232	21	
2025-07-06T12:00	8300	354	-28.8	-31.6	231	21	
2025-07-06T12:00	8320	353	-28.9	-31.7	231	21	
2025-07-06T12:00	8340	352	-29.1	-31.8	230	22	
2025-07-06T12:00	8360	351	-29.2	-32.2	230	22	
2025-07-06T12:00	8380	350	-29.3	-32.4	230	22	
2025-07-06T12:00	8400	349	-29.5	-32.5	230	22	
2025-07-06T12:00	8420	348	-29.7	-32.6	230	22	
2025-07-06T12:00	8440	347	-29.8	-32.8	230	22	
2025-07-06T12:00	8460	346	-30.0	-33.0	231	22	
2025-07-06T12:00	8480	345	-30.2	-33.1	232	22	
2025-07-06T12:00	8500	344	-30.3	-33.6	232	21	
2025-07-06T12:00	8520	343	-30.5	-33.5	233	21	
2025-07-06T12:00	8540	342	-30.6	-33.9	233	21	
2025-07-06T12:00	8560	341	-30.8	-33.9	233	20	
2025-07-06T12:00	8580	340	-30.9	-34.2	232	20	
2025-07-06T12:00	8600	339	-31.2	-34.5	231	20	
2025-07-06T12:00	8620	338	-31.3	-34.7	230	21	
2025-07-06T12:00	8640	337	-31.5	-34.7	229	21	
2025-07-06T12:00	8660	336	-31.7	-34.8	229	21	
2025-07-06T12:00	8680	336	-31.8	-35.0	228	22	
2025-07-06T12:00	8700	335	-32.0	-35.2	228	22	
2025-07-06T12:00	8720	334	-32.2	-35.4	228	22	
2025-07-06T12:00	8740	333	-32.3	-35.6	229	22	
2025-07-06T12:00	8760	332	-32.5	-35.6	230	22	
2025-07-06T12:00	8780	331	-32.6	-35.8	230	22	
2025-07-06T12:00	8800	330	-32.8	-35.7	230	22	
2025-07-06T12:00	8820	329	-33.0	-35.9	230	22	
2025-07-06T12:00	8840	328	-33.2	-35.9	230	22	
2025-07-06T12:00	8860	327	-33.4	-36.2	230	22	
2025-07-06T12:00	8880	326	-33.6	-36.4	230	22	
2025-07-06T12:00	8900	325	-33.8	-36.7	230	21	
2025-07-06T12:00	8920	324	-34.0	-36.9	230	21	
2025-07-06T12:00	8940	323	-34.1	-37.1	230	21	
2025-07-06T12:00	8960	322	-34.2	-37.1	230	21	
2025-07-06T12:00	8980	321	-34.4	-37.4	230	21	
2025-07-06T12:00	9000	321	-34.7	-37.1	231	21	
2025-07-06T12:00	9020	320	-34.9	-37.3	231	21	
2025-07-06T12:00	9040	319	-35.0	-37.9	232	21	
2025-07-06T12:00	9060	318	-35.2	-38.1	233	21	
2025-07-06T12:00	9080	317	-35.3	-38.1	234	21	
2025-07-06T12:00	9100	316	-35.5	-38.1	234	20	
2025-07-06T12:00	9120	315	-35.7	-38.8	234	20	
2025-07-06T12:00	9140	314	-35.8	-39.2	234	20	
2025-07-06T12:00	9160	313	-36.0	-39.1	233	20	
2025-07-06T12:00	9180	312	-36.2	-39.6	233	21	
2025-07-06T12:00	9200	311	-36.4	-39.7	232	21	
2025-07-06T12:00	9220	311	-36.5	-39.9	231	21	
2025-07-06T12:00	9240	310	-36.7	-40.1	230	22	
2025-07-06T12:00	9260	309	-36.9	-40.0	230	22	
2025-07-06T12:00	9280	308	-37.1	-39.9	229	22	
2025-07-06T12:00	9300	307	-37.3	-40.2	229	22	
2025-07-06T12:00	9320	306	-37.4	-40.0	229	22	
2025-07-06T12:00	9340	305	-37.6	-40.1	229	22	
2025-07-06T12:00	9360	304	-37.8	-40.6	229	22	
2025-07-06T12:00	9380	303	-38.0	-40.5	228	23	
2025-07-06T12:00	9400	303	-38.1	-40.5	228	23	
2025-07-06T12:00	9420	302	-38.3	-40.8	228	23	
2025-07-06T12:00	9440	301	-38.5	-41.1	228	23	
2025-07-06T12:00	9460	300	-38.7	-42.5	228	23	
2025-07-06T12:00	9480	299	-38.9	-43.9	227	23	
2025-07-06T12:00	9500	298	-39.1	-44.0	227	23	
2025-07-06T12:00	9520	297	-39.3	-44.1	227	23	
2025-07-06T12:00	9540	296	-39.5	-45.9	228	24	
2025-07-06T12:00	9560	296	-39.6	-46.8	228	24	
2025-07-06T12:00	9580	295	-39.8	-46.9	228	24	
2025-07-06T12:00	9600	294	-39.9	-46.6	229	24	
2025-07-06T12:00	9620	293	-40.2	-46.5	230	24	
2025-07-06T12:00	9640	292	-40.3	-46.7	230	24	
2025-07-06T12:00	9660	291	-40.5	-46.7	230	24	
2025-07-06T12:00	9680	290	-40.7	-46.7	230	24	
2025-07-06T12:00	9700	290	-40.9	-46.9	230	24	
2025-07-06T12:00	9720	289	-41.1	-46.7	229	24	
2025-07-06T12:00	9740	288	-41.3	-46.7	229	24	
2025-07-06T12:00	9760	287	-41.5	-46.9	228	24	
2025-07-06T12:00	9780	286	-41.6	-47.0	228	24	
2025-07-06T12:00	9800	285	-41.8	-46.9	227	24	
2025-07-06T12:00	9820	285	-42.0	-46.9	227	24	
2025-07-06T12:00	9840	284	-42.2	-47.4	226	24	
2025-07-06T12:00	9860	283	-42.4	-47.6	225	24	
2025-07-06T12:00	9880	282	-42.6	-47.7	225	24	
2025-07-06T12:00	9900	281	-42.8	-47.8	225	24	
2025-07-06T12:00	9920	280	-42.9	-48.0	225	24	
2025-07-06T12:00	9940	280	-43.1	-48.5	225	24	
2025-07-06T12:00	9960	279	-43.3	-48.8	225	24	
2025-07-06T12:00	9980	278	-43.5	-48.7	225	25	
2025-07-06T12:00	10000	277	-43.7	-48.6	225	25	
2025-07-06T12:00	10018	276	-43.9	-48.4	224	25	
2025-07-06T12:00	10050	275	-44.2	-48.3	224	24	
2025-07-06T12:00	10100	273	-44.6	-48.1	224	24	
2025-07-06T12:00	10150	271	-45.1	-48.2	226	24	
2025-07-06T12:00	10200	269	-45.6	-49.1	226	24	
2025-07-06T12:00	10250	267	-46.1	-49.8	226	24	
2025-07-06T12:00	10300	265	-46.5	-49.8	226	24	
2025-07-06T12:00	10350	263	-47.0	-50.0	226	23	
2025-07-06T12:00	10400	261	-47.4	-50.7	224	23	
2025-07-06T12:00	10450	259	-48.0	-51.1	223	23	
2025-07-06T12:00	10500	257	-48.4	-51.6	222	23	
2025-07-06T12:00	10550	255	-48.9	-52.4	223	24	
2025-07-06T12:00	10600	253	-49.4	-54.2	223	25	
2025-07-06T12:00	10650	251	-49.8	-54.0	223	25	
2025-07-06T12:00	10700	249	-50.2	-53.8	223	25	
2025-07-06T12:00	10750	247	-50.6	-53.6	225	25	
2025-07-06T12:00	10800	245	-50.8	-53.9	226	25	
2025-07-06T12:00	10850	243	-51.0	-54.0	225	26	
2025-07-06T12:00	10900	242	-51.2	-53.7	225	27	
2025-07-06T12:00	10950	240	-51.5	-54.3	226	28	
2025-07-06T12:00	11000	238	-51.7	-56.7	227	29	
2025-07-06T12:00	11050	236	-51.7	-59.4	227	29	
2025-07-06T12:00	11100	234	-51.9	-61.4	227	28	
2025-07-06T12:00	11150	233	-52.1	-62.1	228	27	
2025-07-06T12:00	11200	231	-51.5	-63.9	230	27	
2025-07-06T12:00	11250	229	-51.4	-64.8	231	27	
2025-07-06T12:00	11300	227	-51.5	-65.1	229	26	
2025-07-06T12:00	11350	226	-51.7	-65.0	228	25	
2025-07-06T12:00	11400	224	-51.5	-66.0	229	25	
2025-07-06T12:00	11450	222	-51.1	-67.0	231	25	
2025-07-06T12:00	11500	220	-51.0	-67.0	234	25	
2025-07-06T12:00	11550	219	-50.8	-67.1	235	24	
2025-07-06T12:00	11600	217	-50.2	-68.0	236	25	
2025-07-06T12:00	11650	215	-50.1	-67.7	236	26	
2025-07-06T12:00	11700	214	-50.4	-67.6	237	27	
2025-07-06T12:00	11750	212	-50.7	-67.8	239	28	
2025-07-06T12:00	11800	210	-50.8	-68.1	241	28	
2025-07-06T12:00	11850	209	-50.9	-68.3	244	28	
2025-07-06T12:00	11900	207	-51.0	-68.6	245	27	
2025-07-06T12:00	11950	206	-50.5	-69.1	245	26	
2025-07-06T12:00	12000	204	-49.4	-70.9	242	24	
2025-07-06T12:00	12050	202	-49.1	-73.3	239	22	
2025-07-06T12:00	12100	201	-48.1	-75.8	238	21	
2025-07-06T12:00	12150	199	-48.1	-75.6	236	21	
2025-07-06T12:00	12200	198	-48.4	-75.6	234	21	
2025-07-06T12:00	12250	196	-48.6	-75.7	234	21	
2025-07-06T12:00	12300	195	-49.0	-75.8	234	21	
2025-07-06T12:00	12350	193	-49.5	-76.0	233	21	
2025-07-06T12:00	12400	192	-50.0	-76.1	233	21	
2025-07-06T12:00	12450	190	-50.1	-76.4	235	21	
2025-07-06T12:00	12500	189	-50.1	-76.9	235	21	
2025-07-06T12:00	12550	188	-50.2	-77.4	236	21	
2025-07-06T12:00	12600	186	-50.3	-77.8	239	21	
2025-07-06T12:00	12650	185	-50.4	-78.0	241	21	
2025-07-06T12:00	12700	183	-50.7	-78.1	243	21	
2025-07-06T12:00	12750	182	-50.8	-78.4	243	21	
2025-07-06T12:00	12800	181	-50.4	-79.2	243	21	
2025-07-06T12:00	12850	179	-49.8	-79.8	243	21	
2025-07-06T12:00	12900	178	-49.9	-79.8	242	21	
2025-07-06T12:00	12950	177	-50.1	-79.9	240	21	
2025-07-06T12:00	13000	175	-50.5	-80.0	240	22	
2025-07-06T12:00	13050	174	-50.5	-80.1	243	22	
2025-07-06T12:00	13100	172	-50.3	-80.2	247	23	
2025-07-06T12:00	13150	171	-49.9	-80.3	250	24	
2025-07-06T12:00	13200	170	-49.8	-80.4	251	25	
2025-07-06T12:00	13250	169	-50.0	-80.6	251	25	
2025-07-06T12:00	13300	167	-50.2	-80.7	250	24	
2025-07-06T12:00	13350	166	-50.5	-81.0	250	24	
2025-07-06T12:00	13400	165	-50.7	-81.3	252	24	
2025-07-06T12:00	13450	164	-50.6	-81.9	256	25	
2025-07-06T12:00	13500	162	-50.5	-82.3	259	26	
2025-07-06T12:00	13550	161	-50.4	-82.5	261	25	
2025-07-06T12:00	13600	160	-50.2	-82.7	261	24	
2025-07-06T12:00	13650	158	-50.2	-82.8	262	23	
2025-07-06T12:00	13700	157	-50.4	-82.6	262	22	
2025-07-06T12:00	13750	156	-50.3	-82.5	264	21	
2025-07-06T12:00	13800	155	-49.8	-82.6	265	19	
2025-07-06T12:00	13850	154	-49.3	-82.4	264	18	
2025-07-06T12:00	13900	153	-49.5	-81.9	262	16	
2025-07-06T12:00	13950	151	-49.6	-82.4	262	15	
2025-07-06T12:00	14000	150	-50.0	-82.5	261	15	
2025-07-06T12:00	14050	149	-50.4	-82.6	260	15	
2025-07-06T12:00	14100	148	-50.8	-82.7	260	14	
2025-07-06T12:00	14150	147	-51.3	-82.8	258	14	
2025-07-06T12:00	14200	146	-51.6	-83.0	254	14	
2025-07-06T12:00	14250	145	-51.8	-83.2	249	15	
2025-07-06T12:00	14300	143	-52.0	-83.2	244	16	
2025-07-06T12:00	14350	142	-52.3	-83.3	242	18	
2025-07-06T12:00	14400	141	-52.6	-83.4	242	19	
2025-07-06T12:00	14450	140	-52.9	-83.4	243	19	
2025-07-06T12:00	14500	139	-53.4	-83.6	244	20	
2025-07-06T12:00	14550	138	-53.8	-83.8	244	21	
2025-07-06T12:00	14600	137	-54.1	-84.0	247	22	
2025-07-06T12:00	14650	136	-54.1	-84.3	252	21	
2025-07-06T12:00	14700	135	-53.7	-84.5	257	20	
2025-07-06T12:00	14750	134	-53.6	-84.5	261	20	
2025-07-06T12:00	14800	133	-53.3	-84.6	262	19	
2025-07-06T12:00	14850	132	-52.8	-85.0	260	18	
2025-07-06T12:00	14900	131	-51.8	-84.9	259	17	
2025-07-06T12:00	14950	130	-51.5	-84.8	259	16	
2025-07-06T12:00	15000	129	-51.8	-84.6	256	16	
2025-07-06T12:00	15050	128	-51.9	-84.4	251	15	
2025-07-06T12:00	15100	127	-52.1	-84.2	247	15	
2025-07-06T12:00	15150	126	-52.3	-84.3	244	15	
2025-07-06T12:00	15200	125	-52.6	-84.3	241	15	
2025-07-06T12:00	15250	124	-52.9	-84.4	241	15	
2025-07-06T12:00	15300	123	-53.4	-84.4	240	15	
2025-07-06T12:00	15350	122	-53.8	-84.6	238	15	
2025-07-06T12:00	15400	121	-54.3	-84.6	237	15	
2025-07-06T12:00	15450	120	-54.7	-84.9	237	15	
2025-07-06T12:00	15500	119	-55.1	-84.9	237	16	
2025-07-06T12:00	15550	118	-55.6	-84.9	239	16	
2025-07-06T12:00	15600	117	-55.9	-85.1	241	15	
2025-07-06T12:00	15650	116	-56.3	-85.2	243	15	
2025-07-06T12:00	15700	115	-56.5	-85.4	244	15	
2025-07-06T12:00	15750	114	-56.8	-85.7	243	16	
2025-07-06T12:00	15800	114	-56.9	-85.9	242	16	
2025-07-06T12:00	15850	113	-56.8	-86.4	239	17	
2025-07-06T12:00	15900	112	-56.5	-86.8	237	17	
2025-07-06T12:00	15950	111	-55.9	-86.6	235	17	
2025-07-06T12:00	16000	110	-56.2	-86.6	235	18	
2025-07-06T12:00	16050	109	-56.6	-86.6	237	18	
2025-07-06T12:00	16100	108	-56.9	-86.7	239	18	
2025-07-06T12:00	16150	108	-57.2	-86.8	243	19	
2025-07-06T12:00	16200	107	-57.3	-86.9	248	19	
2025-07-06T12:00	16250	106	-56.7	-87.0	253	19	
2025-07-06T12:00	16300	105	-56.4	-86.6	257	20	
2025-07-06T12:00	16350	104	-56.5	-86.3	261	19	
2025-07-06T12:00	16400	103	-56.0	-86.6	261	17	
2025-07-06T12:00	16450	103	-55.7	-87.1	260	16	
2025-07-06T12:00	16500	102	-55.3	-87.2	259	16	
2025-07-06T12:00	16550	101	-54.9	-87.1	258	16	
2025-07-06T12:00	16600	100	-54.6	-87.1	256	15	
2025-07-06T12:00	16650	99	-54.7	-87.1	252	14	
2025-07-06T12:00	16700	99	-54.9	-86.9	247	13	
2025-07-06T12:00	16750	98	-55.2	-87.0	244	12	
2025-07-06T12:00	16800	97	-55.4	-87.1	241	12	
2025-07-06T12:00	16850	96	-55.7	-87.2	235	12	
2025-07-06T12:00	16900	96	-55.5	-87.3	230	12	
2025-07-06T12:00	16950	95	-55.3	-87.3	228	13	
2025-07-06T12:00	17000	94	-55.4	-87.2	230	13	
2025-07-06T12:00	17050	93	-55.8	-87.2	232	14	
2025-07-06T12:00	17100	93	-56.2	-87.2	235	15	
2025-07-06T12:00	17150	92	-56.4	-87.3	239	16	
2025-07-06T12:00	17200	91	-56.6	-87.4	244	16	
2025-07-06T12:00	17250	90	-56.7	-87.4	248	17	
2025-07-06T12:00	17300	90	-57.0	-87.5	252	17	
2025-07-06T12:00	17350	89	-56.9	-87.6	255	17	
2025-07-06T12:00	17400	88	-56.7	-87.6	257	15	
2025-07-06T12:00	17450	88	-56.6	-87.6	258	14	
2025-07-06T12:00	17500	87	-56.4	-87.8	260	12	
2025-07-06T12:00	17550	86	-56.1	-87.8	266	11	
2025-07-06T12:00	17600	86	-55.9	-88.0	273	9	
2025-07-06T12:00	17650	85	-55.3	-88.0	271	8	
2025-07-06T12:00	17700	84	-54.5	-87.9	257	6	
2025-07-06T12:00	17750	84	-54.5	-87.9	239	6	
2025-07-06T12:00	17800	83	-54.5	-87.7	225	6	
2025-07-06T12:00	17850	82	-54.7	-87.7	219	7	
2025-07-06T12:00	17900	82	-54.9	-87.3	216	7	
2025-07-06T12:00	17950	81	-55.6	-87.4	215	8	
2025-07-06T12:00	18000	80	-55.9	-87.5	217	9	
2025-07-06T12:00	18050	80	-56.3	-87.6	222	10	
2025-07-06T12:00	18100	79	-56.3	-87.7	229	10	
2025-07-06T12:00	18150	79	-56.4	-87.9	236	10	
2025-07-06T12:00	18200	78	-56.7	-88.0	243	10	
2025-07-06T12:00	18250	77	-56.6	-88.0	245	10	
2025-07-06T12:00	18300	77	-56.4	-88.0	244	10	
2025-07-06T12:00	18350	76	-56.5	-87.8	243	11	
2025-07-06T12:00	18400	75	-56.9	-87.9	245	12	
2025-07-06T12:00	18450	75	-57.0	-87.9	249	12	
2025-07-06T12:00	18500	74	-57.1	-88.0	253	12	
2025-07-06T12:00	18550	74	-57.2	-88.2	258	10	
2025-07-06T12:00	18600	73	-56.7	-88.3	265	9	
2025-07-06T12:00	18650	73	-56.6	-88.3	267	8	
2025-07-06T12:00	18700	72	-56.6	-88.2	259	8	
2025-07-06T12:00	18750	71	-56.6	-87.9	245	8	
2025-07-06T12:00	18800	71	-56.6	-88.0	231	9	
2025-07-06T12:00	18850	70	-56.5	-88.1	221	9	
2025-07-06T12:00	18900	70	-56.6	-88.0	217	9	
2025-07-06T12:00	18950	69	-57.1	-87.7	219	9	
2025-07-06T12:00	19000	69	-57.1	-87.8	226	9	
2025-07-06T12:00	19050	68	-56.7	-88.1	238	8	
2025-07-06T12:00	19100	68	-56.8	-88.4	250	7	
2025-07-06T12:00	19150	67	-56.7	-88.5	259	6	
2025-07-06T12:00	19200	67	-57.1	-88.7	260	6	
2025-07-06T12:00	19250	66	-57.4	-88.8	250	5	
2025-07-06T12:00	19300	65	-57.0	-88.9	239	5	
2025-07-06T12:00	19350	65	-56.4	-89.0	237	5	
2025-07-06T12:00	19400	64	-56.3	-89.1	233	7	
2025-07-06T12:00	19450	64	-56.0	-88.9	230	7	
2025-07-06T12:00	19500	63	-56.1	-88.9	235	8	
2025-07-06T12:00	19550	63	-55.3	-88.7	244	7	
2025-07-06T12:00	19600	62	-55.4	-88.7	251	6	
2025-07-06T12:00	19650	62	-55.5	-88.6	257	5	
2025-07-06T12:00	19700	61	-55.6	-88.6	256	3	
2025-07-06T12:00	19750	61	-55.8	-88.7	240	2	
2025-07-06T12:00	19800	61	-55.9	-88.7	214	2	
2025-07-06T12:00	19850	60	-56.0	-88.6	199	3	
2025-07-06T12:00	19900	60	-56.4	-88.7	196	3	
2025-07-06T12:00	19950	59	-56.6	-88.8	204	3	
2025-07-06T12:00	20000	59	-56.7	-88.9	220	3	
2025-07-06T12:00	20050	58	-56.6		237	4	
2025-07-06T12:00	20100	58	-55.7		255	4	
2025-07-06T12:00	20150	57	-55.3		272	4	
2025-07-06T12:00	20200	57	-54.5		283	3	
2025-07-06T12:00	20250	56	-54.3		285	3	
2025-07-06T12:00	20300	56	-54.5		283	2	
2025-07-06T12:00	20350	56	-54.4		286	1	
2025-07-06T12:00	20400	55	-54.8		339	0	
2025-07-06T12:00	20450	55	-55.3		59	1	
2025-07-06T12:00	20500	54	-55.3		67	1	
2025-07-06T12:00	20550	54	-55.1		99	0	
2025-07-06T12:00	20600	53	-55.2		202	1	
2025-07-06T12:00	20650	53	-54.6		181	1	
2025-07-06T12:00	20700	53	-53.6		176	1	
2025-07-06T12:00	20750	52	-53.6		179	1	
2025-07-06T12:00	20800	52	-53.9		143	1	
2025-07-06T12:00	20850	51	-53.6		132	2	
2025-07-06T12:00	20900	51	-53.4		124	3	
2025-07-06T12:00	20950	51	-53.4		115	4	
2025-07-06T12:00	21000	50	-53.6		113	5	
2025-07-06T12:00	21050	50	-53.9		117	6	
2025-07-06T12:00	21100	49	-54.2		121	6	
2025-07-06T12:00	21150	49	-54.3		124	6	
2025-07-06T12:00	21200	49	-54.3		122	6	
2025-07-06T12:00	21250	48	-54.5		124	6	
2025-07-06T12:00	21300	48	-54.5		128	6	
2025-07-06T12:00	21350	47	-54.4		133	7	
2025-07-06T12:00	21400	47	-54.2		138	7	
2025-07-06T12:00	21450	47	-54.4		144	6	
2025-07-06T12:00	21500	46	-54.6		153	6	
2025-07-06T12:00	21550	46	-55.0		166	5	
2025-07-06T12:00	21600	46	-55.0		174	4	
2025-07-06T12:00	21650	45	-54.8		172	4	
2025-07-06T12:00	21700	45	-54.6		169	4	
2025-07-06T12:00	21750	45	-54.6		168	4	
2025-07-06T12:00	21800	44	-54.7		168	5	
2025-07-06T12:00	21850	44	-54.8		168	6	
2025-07-06T12:00	21900	44	-54.7		169	6	
2025-07-06T12:00	21950	43	-54.4		171	7	
2025-07-06T12:00	22000	43	-53.9		175	7	
2025-07-06T12:00	22050	43	-53.1		180	6	
2025-07-06T12:00	22100	42	-52.7		191	4	
2025-07-06T12:00	22150	42	-52.5		217	2	
2025-07-06T12:00	22200	42	-52.3		282	1	
2025-07-06T12:00	22250	41	-51.7		321	2	
2025-07-06T12:00	22300	41	-51.3		346	2	
2025-07-06T12:00	22350	41	-51.5		20	3	
2025-07-06T12:00	22400	40	-51.2		40	3	
2025-07-06T12:00	22450	40	-51.1		54	4	
2025-07-06T12:00	22500	40	-51.1		67	4	
2025-07-06T12:00	22550	39	-51.3		74	5	
2025-07-06T12:00	22600	39	-51.5		77	6	
2025-07-06T12:00	22650	39	-51.7		82	6	
2025-07-06T12:00	22700	39	-51.9		91	6	
2025-07-06T12:00	22750	38	-52.2		97	7	
2025-07-06T12:00	22800	38	-52.4		95	7	
2025-07-06T12:00	22850	38	-52.3		87	6	
2025-07-06T12:00	22900	37	-52.3		81	7	
2025-07-06T12:00	22950	37	-52.3		80	7	
2025-07-06T12:00	23000	37	-52.3		82	7	
2025-07-06T12:00	23050	36	-52.3		89	7	
2025-07-06T12:00	23100	36	-52.4		100	7	
2025-07-06T12:00	23150	36	-52.7		110	7	
2025-07-06T12:00	23200	36	-53.0		120	6	
2025-07-06T12:00	23250	35	-52.8		129	6	
2025-07-06T12:00	23300	35	-52.2		135	5	
2025-07-06T12:00	23350	35	-51.9		132	4	
2025-07-06T12:00	23400	35	-51.7		119	4	
2025-07-06T12:00	23450	34	-51.4		100	4	
2025-07-06T12:00	23500	34	-51.1		86	5	
2025-07-06T12:00	23550	34	-50.9		80	5	
2025-07-06T12:00	23600	34	-50.9		79	5	
2025-07-06T12:00	23650	33	-50.8		79	6	
2025-07-06T12:00	23700	33	-50.7		81	6	
2025-07-06T12:00	23750	33	-50.8		86	7	
2025-07-06T12:00	23800	32	-50.8		92	7	
2025-07-06T12:00	23850	32	-50.9		98	6	
2025-07-06T12:00	23900	32	-50.8		102	6	
2025-07-06T12:00	23950	32	-50.8		105	6	
2025-07-06T12:00	24000	32	-50.8		110	7	
2025-07-06T12:00	24050	31	-50.6		118	7	
2025-07-06T12:00	24100	31	-50.6		127	7	
2025-07-06T12:00	24150	31	-50.8		136	6	
2025-07-06T12:00	24200	31	-50.5		141	6	
2025-07-06T12:00	24250	30	-50.3		137	5	
2025-07-06T12:00	24300	30	-50.2		129	6	
2025-07-06T12:00	24350	30	-50.0		128	6	
2025-07-06T12:00	24400	30	-49.8		128	5	
2025-07-06T12:00	24450	29	-49.8		119	4	
2025-07-06T12:00	24500	29	-49.8		98	4	
2025-07-06T12:00	24550	29	-49.9		80	4	
2025-07-06T12:00	24600	29	-49.9		75	5	
2025-07-06T12:00	24650	29	-49.9		82	4	
2025-07-06T12:00	24700	28	-49.6		85	4	
2025-07-06T12:00	24750	28	-49.1		73	5	
2025-07-06T12:00	24800	28	-48.6		62	6	
2025-07-06T12:00	24850	28	-48.3		59	8	
2025-07-06T12:00	24900	27	-48.0		60	10	
2025-07-06T12:00	24950	27	-47.8		63	12	
2025-07-06T12:00	25000	27	-48.0		68	12	
2025-07-06T12:00	25050	27	-48.0		72	12	
2025-07-06T12:00	25100	27	-47.9		74	12	
2025-07-06T12:00	25150	26	-47.9		76	11	
2025-07-06T12:00	25200	26	-47.9		78	10	
2025-07-06T12:00	25250	26	-48.1		81	9	
2025-07-06T12:00	25300	26	-48.5		87	8	
2025-07-06T12:00	25350	26	-48.9		96	7	
2025-07-06T12:00	25400	25	-49.2		101	7	
2025-07-06T12:00	25450	25	-49.0		95	7	
2025-07-06T12:00	25500	25	-49.0		87	8	
2025-07-06T12:00	25550	25	-49.1		86	8	
2025-07-06T12:00	25600	25	-49.1		90	8	
2025-07-06T12:00	25650	24	-49.0		94	8	
2025-07-06T12:00	25700	24	-49.0		91	8	
2025-07-06T12:00	25750	24	-48.8		87	10	
2025-07-06T12:00	25800	24	-48.8		84	11	
2025-07-06T12:00	25850	24	-49.0		85	12	
2025-07-06T12:00	25900	24	-49.3		87	12	
2025-07-06T12:00	25950	23	-49.5		90	13	
2025-07-06T12:00	26000	23	-49.3		95	12	
2025-07-06T12:00	26050	23	-49.1		100	12	
2025-07-06T12:00	26100	23	-48.8		100	12	
2025-07-06T12:00	26150	23	-48.8		99	12	
2025-07-06T12:00	26200	23	-48.9		101	12	
2025-07-06T12:00	26250	22	-48.7		105	12	
2025-07-06T12:00	26300	22	-48.6		109	11	
2025-07-06T12:00	26350	22	-48.6		109	10	
2025-07-06T12:00	26400	22	-48.4		107	9	
2025-07-06T12:00	26450	22	-48.2		103	9	
2025-07-06T12:00	26500	22	-48.0		103	9	
2025-07-06T12:00	26550	21	-47.7		106	10	
2025-07-06T12:00	26600	21	-47.3		109	11	
2025-07-06T12:00	26650	21	-47.2		111	12	
2025-07-06T12:00	26700	21	-47.2		114	12	
2025-07-06T12:00	26750	21	-47.2		118	12	
2025-07-06T12:00	26800	21	-47.0		122	11	
2025-07-06T12:00	26850	20	-46.9		126	10	
2025-07-06T12:00	26900	20	-46.9		129	9	
2025-07-06T12:00	26950	20	-47.1		129	8	
2025-07-06T12:00	27000	20	-47.2		126	8	
2025-07-06T12:00	27050	20	-47.1		123	9	
2025-07-06T12:00	27100	20	-47.1		122	9	
2025-07-06T12:00	27150	20	-46.8		121	8	
2025-07-06T12:00	27200	19	-46.4		119	7	
2025-07-06T12:00	27250	19	-46.4		114	6	
2025-07-06T12:00	27300	19	-46.3		103	6	
2025-07-06T12:00	27350	19	-46.0		95	7	
2025-07-06T12:00	27400	19	-45.9		98	8	
2025-07-06T12:00	27450	19	-45.8		104	9	
2025-07-06T12:00	27500	19	-45.8		105	9	
2025-07-06T12:00	27550	18	-45.6		103	7	
2025-07-06T12:00	27600	18	-45.7		101	6	
2025-07-06T12:00	27650	18	-45.6		99	5	
2025-07-06T12:00	27700	18	-45.7		96	6	
2025-07-06T12:00	27750	18	-45.7		92	7	
2025-07-06T12:00	27800	18	-45.7		89	9	
2025-07-06T12:00	27850	18	-45.6		90	11	
2025-07-06T12:00	27900	17	-45.6		92	12	
2025-07-06T12:00	27950	17	-45.5		96	13	
2025-07-06T12:00	28000	17	-45.4		97	13	
2025-07-06T12:00	28050	17	-45.3		96	13	
2025-07-06T12:00	28100	17	-45.0		94	13	
2025-07-06T12:00	28150	17	-44.8		95	13	
2025-07-06T12:00	28200	17	-44.8		98	13	
2025-07-06T12:00	28250	17	-44.7		103	14	
2025-07-06T12:00	28300	16	-44.7		107	14	
2025-07-06T12:00	28350	16	-44.6		111	14	
2025-07-06T12:00	28400	16	-44.5		115	14	
2025-07-06T12:00	28450	16	-44.2		120	13	
2025-07-06T12:00	28500	16	-44.2		124	12	
2025-07-06T12:00	28550	16	-44.0		125	11	
2025-07-06T12:00	28600	16	-43.8		124	9	
2025-07-06T12:00	28650	16	-43.7		117	8	
2025-07-06T12:00	28700	15	-43.5		104	7	
2025-07-06T12:00	28750	15	-43.3		92	7	
2025-07-06T12:00	28800	15	-42.9		86	8	
2025-07-06T12:00	28850	15	-42.4		85	9	
2025-07-06T12:00	28900	15	-42.1		85	10	
2025-07-06T12:00	28950	15	-41.9		85	10	
2025-07-06T12:00	29000	15	-41.6		86	11	
2025-07-06T12:00	29050	15	-41.7		88	12	
2025-07-06T12:00	29100	15	-42.0		91	14	
2025-07-06T12:00	29150	14	-42.3		93	15	
2025-07-06T12:00	29200	14	-42.5		95	16	
2025-07-06T12:00	29250	14	-42.5		96	16	
2025-07-06T12:00	29300	14	-42.5		97	16	
2025-07-06T12:00	29350	14	-42.6		99	17	
2025-07-06T12:00	29400	14	-42.6		101	17	
2025-07-06T12:00	29450	14	-42.5		103	18	
2025-07-06T12:00	29500	14	-42.5		105	18	
2025-07-06T12:00	29550	14	-42.6		105	17	
2025-07-06T12:00	29600	14	-42.6		102	17	
2025-07-06T12:00	29650	13	-42.5		99	16	
2025-07-06T12:00	29700	13	-42.1		95	16	
2025-07-06T12:00	29750	13	-41.8		94	15	
2025-07-06T12:00	29800	13	-41.7		96	16	
2025-07-06T12:00	29850	13	-41.7		100	17	
2025-07-06T12:00	29900	13	-41.6		103	17	
2025-07-06T12:00	29950	13	-41.2		106	16	
2025-07-06T12:00	30000	13	-41.0		110	16	
2025-07-06T12:00	30050	13	-40.9		112	16	
2025-07-06T12:00	30100	13	-40.9		113	16	
2025-07-06T12:00	30150	12	-40.8		115	16	
2025-07-06T12:00	30200	12	-40.3		117	15	
2025-07-06T12:00	30250	12	-39.7		115	14	
2025-07-06T12:00	30300	12	-39.2		109	13	
2025-07-06T12:00	30350	12	-39.1		100	12	
2025-07-06T12:00	30400	12	-38.9		91	12	
2025-07-06T12:00	30450	12	-38.9		84	13	
2025-07-06T12:00	30500	12	-38.7		82	14	
2025-07-06T12:00	30550	12	-38.6		83	15	
2025-07-06T12:00	30600	12	-38.6		86	15	
2025-07-06T12:00	30650	12	-38.7		88	15	
2025-07-06T12:00	30700	12	-38.7		88	15	
2025-07-06T12:00	30750	11	-38.7		87	15	
2025-07-06T12:00	30800	11	-38.5		89	15	
2025-07-06T12:00	30850	11	-38.4		92	15	
2025-07-06T12:00	30900	11	-38.3		96	15	
2025-07-06T12:00	30950	11	-38.3		98	15	
2025-07-06T12:00	31000	11	-38.4		98	15	
2025-07-06T12:00	31050	11	-38.4		97	15	
2025-07-06T12:00	31100	11	-38.4		95	15	
2025-07-06T12:00	31150	11	-38.4		92	15	
2025-07-06T12:00	31200	11	-38.3		88	15	
2025-07-06T12:00	31250	11	-38.2		85	16	
2025-07-06T12:00	31300	11	-38.1		85	16	
2025-07-06T12:00	31350	10	-38.1		87	17	
2025-07-06T12:00	31400	10	-37.9		89	17	
2025-07-06T12:00	31450	10	-37.6		90	17	
2025-07-06T12:00	31500	10	-37.4		91	17	
2025-07-06T12:00	31550	10	-37.2		92	18	
2025-07-06T12:00	31600	10	-36.9		91	18	
2025-07-06T12:00	31650	10	-36.7		92	18	
2025-07-06T12:00	31700	10	-36.5		93	17	
2025-07-06T12:00	31750	10	-36.6		96	16	
2025-07-06T12:00	31800	10	-36.6		100	15	
2025-07-06T12:00	31850	10	-36.2		103	14	
2025-07-06T12:00	31900	10	-36.0		102	14	
2025-07-06T12:00	31950	10	-35.9		98	15	
2025-07-06T12:00	32000	10	-35.7		95	15	
2025-07-06T12:00	32050	9	-35.6		97	15	
2025-07-06T12:00	32100	9	-35.3		102	14	
2025-07-06T12:00	32150	9	-35.6		108	14	
2025-07-06T12:00	32200	9	-35.8		112	13	
2025-07-06T12:00	32250	9	-35.6		114	12	
2025-07-06T12:00	32300	9	-35.6		113	12	
2025-07-06T12:00	32350	9	-35.5		107	11	
2025-07-06T12:00	32400	9	-35.2		99	12	
2025-07-06T12:00	32450	9	-35.0		93	13	
2025-07-06T12:00	32500	9	-34.8		90	14	
2025-07-06T12:00	32550	9	-34.6		89	14	
2025-07-06T12:00	32600	9	-34.6		92	14	
2025-07-06T12:00	32650	9	-34.1		96	13	
2025-07-06T12:00	32700	9	-33.7		96	13	
2025-07-06T12:00	32750	9	-33.4		92	14	
2025-07-06T12:00	32800	9	-33.3		91	15	
2025-07-06T12:00	32850	8	-32.9		93	15	
2025-07-06T12:00	32900	8	-32.6		95	14	
2025-07-06T12:00	32950	8	-32.6		94	14	
2025-07-06T12:00	33000	8	-32.4		92	15	
2025-07-06T12:00	33050	8	-32.3		92	16	
2025-07-06T12:00	33100	8	-32.3		94	15	
2025-07-06T12:00	33150	8	-32.0		98	14	
2025-07-06T12:00	33200	8	-31.8		101	13	
2025-07-06T12:00	33250	8	-31.8		101	13	
2025-07-06T12:00	33300	8	-31.7		100	15	
2025-07-06T12:00	33350	8	-31.6		100	17	
2025-07-06T12:00	33400	8	-31.5		100	19	
2025-07-06T12:00	33450	8	-31.5		101	21	
2025-07-06T12:00	33500	8	-31.5		103	22	
2025-07-06T12:00	33550	8	-31.4		106	21	
2025-07-06T12:00	33600	8	-31.1		109	21	
2025-07-06T12:00	33650	8	-30.9		111	21	
2025-07-06T12:00	33700	7	-30.6		112	22	
2025-07-06T12:00	33750	7	-30.2		114	22	
2025-07-06T12:00	33800	7	-29.7		117	21	
2025-07-06T12:00	33850	7	-29.5		120	20	
2025-07-06T12:00	33900	7	-29.7		123	20	
2025-07-06T12:00	33950	7	-29.8		125	19	
2025-07-06T12:00	34000	7	-30.0		128	18	
2025-07-06T12:00	34050	7	-30.1		131	16	
2025-07-06T12:00	34100	7	-30.1		132	16	
2025-07-06T12:00	34150	7	-29.8		130	16	
2025-07-06T12:00	34200	7	-29.6		127	16	
2025-07-06T12:00	34250	7	-29.6		123	17	
2025-07-06T12:00	34300	7	-29.5		121	17	
2025-07-06T12:00	34350	7	-29.6		120	17	
2025-07-06T12:00	34400	7	-29.5		121	16	
2025-07-06T12:00	34450	7	-29.5		122	15	
2025-07-06T12:00	34500	7	-29.5		121	13	
2025-07-06T12:00	34550	7	-29.5		117	13	
2025-07-06T12:00	34600	7	-29.2		114	12	
2025-07-06T12:00	34650	7	-28.7		113	12	
2025-07-06T12:00	34700	7	-28.3		116	11	
2025-07-06T12:00	34750	6	-28.3		119	11	
2025-07-06T12:00	34800	6	-28.2		120	11	
2025-07-06T12:00	34850	6	-28.0		118	12	
2025-07-06T12:00	34900	6	-27.9		114	13	
2025-07-06T12:00	34950	6	-27.9		110	13	
2025-07-06T12:00	35000	6	-28.1		106	12	
2025-07-06T12:00	35050	6	-28.2		102	11	
2025-07-06T12:00	35100	6	-28.1		98	10	
2025-07-06T12:00	35150	6	-27.7		94	9	
2025-07-06T12:00	35200	6	-27.3		88	8	
2025-07-06T12:00	35250	6	-27.0		81	7	
2025-07-06T12:00	35300	6	-26.9		77	8	
2025-07-06T12:00	35350	6	-26.6		74	9	
2025-07-06T12:00	35400	6	-26.6		73	11	
2025-07-06T12:00	35450	6	-26.7		73	12	
2025-07-06T12:00	35500	6	-26.8		72	13	
2025-07-06T12:00	35550	6	-26.6		71	14	
2025-07-06T12:00	35600	6	-25.9		72	15	
2025-07-06T12:00	35650	6	-25.4		75	17	
2025-07-06T12:00	35700	6	-25.2		79	18	
2025-07-06T12:00	35750	6	-25.3		82	19	
2025-07-06T12:00	35800	6	-25.4		85	19	
2025-07-06T12:00	35850	6	-25.3		90	19	
2025-07-06T12:00	35900	6	-25.2		94	18	
2025-07-06T12:00	35950	5	-24.7		92	18	
2025-07-06T12:00	36000	5	-24.5		89	18	
2025-07-07T00:00	491	954	14.0	12.6	228	4	
2025-07-07T00:00	501	952	14.1	12.4	212	4	
2025-07-07T00:00	520	951	14.1	12.3	204	4	
2025-07-07T00:00	540	949	14.1	12.0	205	5	
2025-07-07T00:00	560	947	14.0	11.8	206	6	
2025-07-07T00:00	580	945	14.0	11.5	207	7	
2025-07-07T00:00	600	942	13.9	11.5	209	8	
2025-07-07T00:00	620	940	13.8	11.3	211	9	
2025-07-07T00:00	640	938	13.8	11.1	214	9	
2025-07-07T00:00	660	936	13.6	11.1	216	10	
2025-07-07T00:00	680	933	13.5	10.7	218	10	
2025-07-07T00:00	700	931	13.6	10.6	219	11	
2025-07-07T00:00	720	929	13.5	10.6	221	12	
2025-07-07T00:00	740	927	13.5	10.4	221	12	
2025-07-07T00:00	760	925	13.4	10.2	222	13	
2025-07-07T00:00	780	922	13.5	9.9	222	14	
2025-07-07T00:00	800	920	13.5	9.8	223	14	
2025-07-07T00:00	820	918	13.6	9.5	222	15	
2025-07-07T00:00	840	916	13.7	9.1	222	15	
2025-07-07T00:00	860	914	13.7	8.8	222	15	
2025-07-07T00:00	880	911	13.6	8.5	222	15	
2025-07-07T00:00	900	909	13.4	8.4	222	16	
2025-07-07T00:00	920	907	13.3	8.4	223	16	
2025-07-07T00:00	940	905	13.1	8.3	224	16	
2025-07-07T00:00	960	903	13.0	8.3	225	16	
2025-07-07T00:00	980	901	12.9	8.2	226	16	
2025-07-07T00:00	1000	899	12.7	8.1	226	16	
2025-07-07T00:00	1020	896	12.6	8.1	227	16	
2025-07-07T00:00	1040	894	12.4	8.0	226	16	
2025-07-07T00:00	1060	892	12.3	7.9	226	16	
2025-07-07T00:00	1080	890	12.1	7.9	226	16	
2025-07-07T00:00	1100	888	11.9	7.9	225	16	
2025-07-07T00:00	1120	886	11.8	7.9	225	16	
2025-07-07T00:00	1140	884	11.6	7.8	225	16	
2025-07-07T00:00	1160	882	11.5	7.7	225	16	
2025-07-07T00:00	1180	880	11.4	7.8	226	16	
2025-07-07T00:00	1200	878	11.3	7.7	226	17	
2025-07-07T00:00	1220	875	11.2	7.8	227	17	
2025-07-07T00:00	1240	873	11.0	7.7	228	17	
2025-07-07T00:00	1260	871	10.9	7.6	230	17	
2025-07-07T00:00	1280	869	10.8	7.6	232	17	
2025-07-07T00:00	1300	867	10.6	7.6	235	17	
2025-07-07T00:00	1320	865	10.5	7.5	237	17	
2025-07-07T00:00	1340	863	10.4	7.4	240	16	
2025-07-07T00:00	1360	861	10.4	7.4	242	16	
2025-07-07T00:00	1380	859	10.2	7.5	242	16	
2025-07-07T00:00	1400	857	10.1	7.4	242	16	
2025-07-07T00:00	1420	855	9.9	7.4	242	15	
2025-07-07T00:00	1440	852	9.7	7.4	241	15	
2025-07-07T00:00	1460	850	9.5	7.4	241	15	
2025-07-07T00:00	1480	848	9.3	7.4	241	14	
2025-07-07T00:00	1500	846	9.2	7.5	243	14	
2025-07-07T00:00	1520	844	9.0	7.4	244	14	
2025-07-07T00:00	1540	842	8.8	7.4	246	14	
2025-07-07T00:00	1560	840	8.6	7.4	249	14	
2025-07-07T00:00	1580	838	8.4	7.3	250	14	
2025-07-07T00:00	1600	836	8.3	7.4	251	14	
2025-07-07T00:00	1620	834	8.1	7.3	252	13	
2025-07-07T00:00	1640	832	7.9	7.2	252	13	
2025-07-07T00:00	1660	830	7.7	7.3	252	13	
2025-07-07T00:00	1680	828	7.5	7.2	252	13	
2025-07-07T00:00	1700	826	7.4	7.2	253	13	
2025-07-07T00:00	1720	824	7.3	7.1	253	13	
2025-07-07T00:00	1740	822	7.2	7.1	254	13	
2025-07-07T00:00	1760	820	7.0	7.0	254	12	
2025-07-07T00:00	1780	818	7.0	6.9	254	12	
2025-07-07T00:00	1800	816	6.8	6.8	254	12	
2025-07-07T00:00	1820	814	6.8	6.8	254	12	
2025-07-07T00:00	1840	812	6.9	6.8	254	12	
2025-07-07T00:00	1860	810	6.8	6.8	254	12	
2025-07-07T00:00	1880	808	6.8	6.8	256	12	
2025-07-07T00:00	1900	806	6.7	6.7	257	12	
2025-07-07T00:00	1920	804	6.6	6.6	259	12	
2025-07-07T00:00	1940	802	6.5	6.5	262	12	
2025-07-07T00:00	1960	800	6.4	6.4	264	11	
2025-07-07T00:00	1980	798	6.2	6.2	266	11	
2025-07-07T00:00	2000	797	6.2	6.0	268	11	
2025-07-07T00:00	2020	795	6.1	5.9	269	11	
2025-07-07T00:00	2040	793	6.0	5.6	271	11	
2025-07-07T00:00	2060	791	5.9	5.4	271	10	
2025-07-07T00:00	2080	789	5.8	5.2	271	10	
2025-07-07T00:00	2100	787	5.7	5.1	272	10	
2025-07-07T00:00	2120	785	5.6	5.0	271	9	
2025-07-07T00:00	2140	783	5.5	4.9	271	9	
2025-07-07T00:00	2160	781	5.4	4.9	271	9	
2025-07-07T00:00	2180	779	5.3	4.8	272	9	
2025-07-07T00:00	2200	777	5.1	4.8	272	8	
2025-07-07T00:00	2220	776	5.0	4.6	272	8	
2025-07-07T00:00	2240	773	4.9	4.4	273	8	
2025-07-07T00:00	2260	772	4.8	4.3	274	8	
2025-07-07T00:00	2280	770	4.7	4.3	274	9	
2025-07-07T00:00	2300	768	4.5	4.1	275	9	
2025-07-07T00:00	2320	766	4.3	4.0	275	9	
2025-07-07T00:00	2340	764	4.1	4.0	277	9	
2025-07-07T00:00	2360	762	3.9	3.9	279	8	
2025-07-07T00:00	2380	760	3.8	3.8	283	8	
2025-07-07T00:00	2400	759	3.7	3.7	288	8	
2025-07-07T00:00	2420	757	3.6	3.6	293	8	
2025-07-07T00:00	2440	755	3.5	3.5	297	8	
2025-07-07T00:00	2460	753	3.5	3.2	299	9	
2025-07-07T00:00	2480	751	3.4	2.9	300	9	
2025-07-07T00:00	2500	749	3.4	2.1	299	10	
2025-07-07T00:00	2520	748	3.4	1.6	298	10	
2025-07-07T00:00	2540	746	3.4	1.5	297	10	
2025-07-07T00:00	2560	744	3.3	1.4	296	10	
2025-07-07T00:00	2580	742	3.1	1.4	296	10	
2025-07-07T00:00	2600	740	3.0	1.3	295	10	
2025-07-07T00:00	2620	739	2.9	1.3	295	10	
2025-07-07T00:00	2640	737	2.7	1.2	296	10	
2025-07-07T00:00	2660	735	2.7	1.1	297	11	
2025-07-07T00:00	2680	733	2.7	0.8	298	11	
2025-07-07T00:00	2700	731	2.6	0.8	300	11	
2025-07-07T00:00	2720	729	2.5	0.8	302	11	
2025-07-07T00:00	2740	727	2.3	0.7	303	10	
2025-07-07T00:00	2760	726	2.1	0.7	304	10	
2025-07-07T00:00	2780	724	1.9	0.6	303	10	
2025-07-07T00:00	2800	722	1.7	0.6	299	10	
2025-07-07T00:00	2820	720	1.5	0.5	293	10	
2025-07-07T00:00	2840	718	1.4	0.3	287	11	
2025-07-07T00:00	2860	717	1.2	0.1	281	12	
2025-07-07T00:00	2880	715	1.3	0.0	278	13	
2025-07-07T00:00	2900	713	1.2	0.0	276	13	
2025-07-07T00:00	2920	711	1.1	-0.1	275	12	
2025-07-07T00:00	2940	710	1.1	-0.2	275	12	
2025-07-07T00:00	2960	708	0.9	-0.2	275	11	
2025-07-07T00:00	2980	706	0.6	-0.2	276	10	
2025-07-07T00:00	3000	704	0.5	-0.3	275	10	
2025-07-07T00:00	3020	703	0.3	-0.3	274	10	
2025-07-07T00:00	3040	701	0.1	-0.4	272	11	
2025-07-07T00:00	3060	699	0.0	-0.4	270	11	
2025-07-07T00:00	3080	697	-0.1	-0.6	269	12	
2025-07-07T00:00	3100	696	-0.1	-0.8	271	12	
2025-07-07T00:00	3120	694	-0.2	-0.8	274	12	
2025-07-07T00:00	3140	692	-0.3	-0.8	277	12	
2025-07-07T00:00	3160	690	-0.5	-0.9	280	12	
2025-07-07T00:00	3180	689	-0.6	-1.2	282	11	
2025-07-07T00:00	3200	687	-0.4	-1.6	284	11	
2025-07-07T00:00	3220	685	-0.5	-1.6	284	11	
2025-07-07T00:00	3240	684	-0.6	-1.8	283	12	
2025-07-07T00:00	3260	682	-0.5	-2.0	279	12	
2025-07-07T00:00	3280	680	-0.7	-2.0	273	12	
2025-07-07T00:00	3300	678	-0.8	-2.1	266	12	
2025-07-07T00:00	3320	677	-0.9	-2.2	261	12	
2025-07-07T00:00	3340	675	-1.1	-2.3	258	12	
2025-07-07T00:00	3360	673	-1.2	-2.3	256	12	
2025-07-07T00:00	3380	672	-1.4	-2.3	257	12	
2025-07-07T00:00	3400	670	-1.5	-2.5	260	12	
2025-07-07T00:00	3420	669	-1.6	-2.6	263	12	
2025-07-07T00:00	3440	667	-1.8	-2.7	266	12	
2025-07-07T00:00	3460	665	-1.8	-2.7	267	12	
2025-07-07T00:00	3480	663	-1.9	-2.6	267	13	
2025-07-07T00:00	3500	662	-2.0	-2.7	267	13	
2025-07-07T00:00	3520	660	-1.9	-3.1	267	13	
2025-07-07T00:00	3540	658	-2.0	-3.6	266	14	
2025-07-07T00:00	3560	657	-2.1	-3.6	266	14	
2025-07-07T00:00	3580	655	-2.3	-3.9	266	14	
2025-07-07T00:00	3600	654	-2.5	-4.0	267	13	
2025-07-07T00:00	3620	652	-2.6	-4.0	267	13	
2025-07-07T00:00	3640	650	-2.8	-4.1	268	12	
2025-07-07T00:00	3660	648	-2.9	-4.5	268	12	
2025-07-07T00:00	3680	647	-3.0	-4.9	267	12	
2025-07-07T00:00	3700	645	-3.2	-5.0	267	13	
2025-07-07T00:00	3720	643	-3.3	-5.2	266	13	
2025-07-07T00:00	3740	642	-3.2	-5.2	266	13	
2025-07-07T00:00	3760	640	-3.4	-5.2	266	13	
2025-07-07T00:00	3780	639	-3.6	-5.1	267	14	
2025-07-07T00:00	3800	637	-3.7	-5.3	268	14	
2025-07-07T00:00	3820	636	-3.8	-5.7	268	14	
2025-07-07T00:00	3840	634	-3.9	-5.7	269	14	
2025-07-07T00:00	3860	632	-4.1	-5.8	269	15	
2025-07-07T00:00	3880	631	-4.2	-5.8	269	15	
2025-07-07T00:00	3900	629	-4.4	-5.8	269	15	
2025-07-07T00:00	3920	628	-4.4	-5.8	269	15	
2025-07-07T00:00	3940	626	-4.4	-6.0	268	15	
2025-07-07T00:00	3960	625	-4.4	-6.4	268	15	
2025-07-07T00:00	3980	623	-4.5	-6.5	268	14	
2025-07-07T00:00	4000	621	-4.6	-6.6	267	14	
2025-07-07T00:00	4020	619	-4.8	-6.6	267	14	
2025-07-07T00:00	4040	618	-4.9	-6.5	266	14	
2025-07-07T00:00	4060	616	-5.1	-6.5	265	14	
2025-07-07T00:00	4080	615	-5.2	-6.5	264	14	
2025-07-07T00:00	4100	613	-5.4	-6.4	263	14	
2025-07-07T00:00	4120	612	-5.6	-6.5	262	13	
2025-07-07T00:00	4140	610	-5.8	-6.4	261	13	
2025-07-07T00:00	4160	609	-5.9	-6.5	261	12	
2025-07-07T00:00	4180	607	-6.0	-6.7	261	12	
2025-07-07T00:00	4200	606	-6.2	-6.9	261	12	
2025-07-07T00:00	4220	604	-6.4	-7.1	261	11	
2025-07-07T00:00	4240	602	-6.5	-7.3	260	12	
2025-07-07T00:00	4260	601	-6.6	-7.4	259	12	
2025-07-07T00:00	4280	600	-6.7	-8.0	258	12	
2025-07-07T00:00	4300	598	-6.7	-8.3	258	12	
2025-07-07T00:00	4320	596	-6.9	-8.4	259	12	
2025-07-07T00:00	4340	595	-7.0	-8.4	259	12	
2025-07-07T00:00	4360	593	-7.2	-8.6	260	12	
2025-07-07T00:00	4380	592	-7.4	-8.6	260	12	
2025-07-07T00:00	4400	590	-7.6	-8.7	260	12	
2025-07-07T00:00	4420	589	-7.8	-8.8	260	12	
2025-07-07T00:00	4440	587	-7.9	-8.9	259	12	
2025-07-07T00:00	4460	586	-8.1	-9.0	259	12	
2025-07-07T00:00	4480	584	-8.3	-8.9	258	12	
2025-07-07T00:00	4500	583	-8.5	-9.1	257	12	
2025-07-07T00:00	4520	581	-8.6	-9.1	256	11	
2025-07-07T00:00	4540	580	-8.7	-9.1	256	12	
2025-07-07T00:00	4560	578	-8.9	-9.2	256	12	
2025-07-07T00:00	4580	577	-9.0	-9.1	256	12	
2025-07-07T00:00	4600	575	-9.2	-9.2	256	12	
2025-07-07T00:00	4620	574	-9.2	-9.2	256	13	
2025-07-07T00:00	4640	572	-9.3	-9.3	256	13	
2025-07-07T00:00	4660	571	-9.5	-9.5	255	13	
2025-07-07T00:00	4680	569	-9.7	-9.9	254	13	
2025-07-07T00:00	4700	568	-9.8	-10.2	253	12	
2025-07-07T00:00	4720	567	-9.9	-10.3	251	12	
2025-07-07T00:00	4740	565	-10.0	-10.9	249	13	
2025-07-07T00:00	4760	564	-10.2	-11.0	247	13	
2025-07-07T00:00	4780	562	-10.3	-11.2	246	13	
2025-07-07T00:00	4800	561	-10.5	-11.4	245	14	
2025-07-07T00:00	4820	559	-10.6	-11.5	246	14	
2025-07-07T00:00	4840	558	-10.8	-11.7	247	15	
2025-07-07T00:00	4860	556	-10.9	-11.9	247	15	
2025-07-07T00:00	4880	555	-11.1	-12.1	248	15	
2025-07-07T00:00	4900	553	-11.2	-12.2	249	15	
2025-07-07T00:00	4920	552	-11.4	-12.5	250	14	
2025-07-07T00:00	4940	550	-11.5	-12.7	250	14	
2025-07-07T00:00	4960	549	-11.6	-12.9	249	14	
2025-07-07T00:00	4980	548	-11.8	-12.8	249	14	
2025-07-07T00:00	5000	546	-12.0	-12.8	249	14	
2025-07-07T00:00	5020	545	-12.1	-12.9	249	14	
2025-07-07T00:00	5040	543	-12.3	-13.2	249	14	
2025-07-07T00:00	5060	542	-12.2	-14.8	249	14	
2025-07-07T00:00	5080	540	-12.0	-16.2	249	13	
2025-07-07T00:00	5100	539	-12.2	-17.2	250	13	
2025-07-07T00:00	5120	538	-12.3	-17.5	250	13	
2025-07-07T00:00	5140	536	-12.4	-17.6	251	13	
2025-07-07T00:00	5160	535	-12.4	-20.3	252	12	
2025-07-07T00:00	5180	533	-12.4	-21.6	253	12	
2025-07-07T00:00	5200	532	-12.3	-24.4	255	12	
2025-07-07T00:00	5220	531	-12.2	-31.9	256	12	
2025-07-07T00:00	5240	529	-12.1	-37.9	256	12	
2025-07-07T00:00	5260	528	-12.4	-37.5	257	12	
2025-07-07T00:00	5280	526	-12.5	-38.3	256	12	
2025-07-07T00:00	5300	525	-12.7	-39.6	256	12	
2025-07-07T00:00	5320	524	-12.9	-39.3	254	12	
2025-07-07T00:00	5340	522	-13.1	-40.4	253	12	
2025-07-07T00:00	5360	521	-13.2	-41.3	251	12	
2025-07-07T00:00	5380	520	-13.4	-40.7	249	12	
2025-07-07T00:00	5400	518	-13.6	-40.6	248	12	
2025-07-07T00:00	5420	517	-13.8	-42.3	248	12	
2025-07-07T00:00	5440	515	-13.5	-46.7	248	13	
2025-07-07T00:00	5460	514	-13.6	-46.8	248	13	
2025-07-07T00:00	5480	513	-13.8	-46.8	248	13	
2025-07-07T00:00	5500	512	-14.0	-46.9	248	13	
2025-07-07T00:00	5520	510	-14.2	-47.0	248	13	
2025-07-07T00:00	5540	509	-14.3	-47.1	247	13	
2025-07-07T00:00	5560	507	-14.5	-47.2	247	13	
2025-07-07T00:00	5580	506	-14.7	-47.3	246	13	
2025-07-07T00:00	5600	505	-14.9	-47.3	245	13	
2025-07-07T00:00	5620	503	-15.0	-47.5	244	13	
2025-07-07T00:00	5640	502	-15.2	-47.5	244	13	
2025-07-07T00:00	5660	501	-15.4	-47.5	243	13	
2025-07-07T00:00	5680	500	-15.5	-47.6	243	13	
2025-07-07T00:00	5700	498	-15.6	-48.1	244	13	
2025-07-07T00:00	5720	497	-15.8	-48.1	245	13	
2025-07-07T00:00	5740	495	-16.0	-48.4	245	13	
2025-07-07T00:00	5760	494	-16.1	-48.6	246	13	
2025-07-07T00:00	5780	493	-16.3	-48.1	247	13	
2025-07-07T00:00	5800	492	-16.5	-46.7	247	13	
2025-07-07T00:00	5820	490	-16.7	-43.9	247	13	
2025-07-07T00:00	5840	489	-16.8	-43.0	246	12	
2025-07-07T00:00	5860	488	-17.0	-43.8	245	12	
2025-07-07T00:00	5880	486	-17.1	-36.8	244	12	
2025-07-07T00:00	5900	485	-17.3	-33.0	243	11	
2025-07-07T00:00	5920	484	-17.5	-33.0	242	11	
2025-07-07T00:00	5940	482	-17.5	-39.2	241	10	
2025-07-07T00:00	5960	481	-17.6	-40.0	241	10	
2025-07-07T00:00	5980	480	-17.7	-39.1	241	9	
2025-07-07T00:00	6000	479	-17.8	-39.5	240	9	
2025-07-07T00:00	6020	477	-18.0	-39.1	240	9	
2025-07-07T00:00	6040	476	-18.1	-33.8	240	9	
2025-07-07T00:00	6060	475	-18.3	-29.6	240	9	
2025-07-07T00:00	6080	474	-18.5	-31.0	240	9	
2025-07-07T00:00	6100	472	-18.7	-29.4	240	9	
2025-07-07T00:00	6120	471	-18.9	-28.0	241	9	
2025-07-07T00:00	6140	470	-19.1	-32.7	241	10	
2025-07-07T00:00	6160	469	-19.2	-36.7	242	10	
2025-07-07T00:00	6180	467	-19.3	-41.4	243	10	
2025-07-07T00:00	6200	466	-19.4	-44.1	244	10	
2025-07-07T00:00	6220	465	-19.5	-45.1	244	11	
2025-07-07T00:00	6240	463	-19.2	-49.4	245	11	
2025-07-07T00:00	6260	462	-19.4	-49.3	245	11	
2025-07-07T00:00	6280	461	-19.5	-49.6	245	12	
2025-07-07T00:00	6300	460	-19.5	-50.2	244	12	
2025-07-07T00:00	6320	459	-19.6	-50.3	243	12	
2025-07-07T00:00	6340	457	-19.8	-50.3	243	12	
2025-07-07T00:00	6360	456	-20.0	-50.2	243	12	
2025-07-07T00:00	6380	455	-20.2	-50.3	243	13	
2025-07-07T00:00	6400	454	-20.4	-50.5	244	13	
2025-07-07T00:00	6420	452	-20.5	-50.5	244	13	
2025-07-07T00:00	6440	451	-20.6	-49.9	245	14	
2025-07-07T00:00	6460	450	-20.8	-48.9	246	14	
2025-07-07T00:00	6480	449	-21.0	-48.4	247	14	
2025-07-07T00:00	6500	447	-21.2	-47.5	248	14	
2025-07-07T00:00	6520	446	-21.3	-47.5	249	14	
2025-07-07T00:00	6540	445	-21.5	-47.4	250	14	
2025-07-07T00:00	6560	444	-21.7	-47.9	251	14	
2025-07-07T00:00	6580	443	-21.9	-48.4	253	14	
2025-07-07T00:00	6600	442	-22.0	-48.1	254	14	
2025-07-07T00:00	6620	440	-22.2	-48.0	255	14	
2025-07-07T00:00	6640	439	-22.4	-48.0	255	14	
2025-07-07T00:00	6660	438	-22.5	-48.1	255	15	
2025-07-07T00:00	6680	437	-22.7	-48.1	254	15	
2025-07-07T00:00	6700	435	-22.9	-48.1	253	15	
2025-07-07T00:00	6720	434	-23.1	-47.9	252	15	
2025-07-07T00:00	6740	433	-23.3	-47.6	251	15	
2025-07-07T00:00	6760	432	-23.4	-47.0	249	15	
2025-07-07T00:00	6780	431	-23.5	-46.8	248	15	
2025-07-07T00:00	6800	429	-23.7	-46.7	247	16	
2025-07-07T00:00	6820	428	-23.9	-46.7	245	16	
2025-07-07T00:00	6840	427	-24.1	-46.7	244	16	
2025-07-07T00:00	6860	426	-24.3	-46.7	242	16	
2025-07-07T00:00	6880	425	-24.4	-46.8	240	16	
2025-07-07T00:00	6900	424	-24.6	-46.7	239	16	
2025-07-07T00:00	6920	422	-24.6	-46.7	237	16	
2025-07-07T00:00	6940	421	-24.7	-46.8	236	16	
2025-07-07T00:00	6960	420	-24.7	-47.0	236	16	
2025-07-07T00:00	6980	419	-24.9	-47.0	236	16	
2025-07-07T00:00	7000	418	-25.0	-47.4	236	16	
2025-07-07T00:00	7020	417	-25.2	-47.6	236	17	
2025-07-07T00:00	7040	416	-25.4	-47.8	236	17	
2025-07-07T00:00	7060	414	-25.5	-47.7	235	17	
2025-07-07T00:00	7080	413	-25.7	-47.7	235	17	
2025-07-07T00:00	7100	412	-25.9	-47.0	234	17	
2025-07-07T00:00	7120	411	-26.0	-45.2	233	17	
2025-07-07T00:00	7140	410	-26.2	-44.3	232	18	
2025-07-07T00:00	7160	409	-26.4	-43.5	231	18	
2025-07-07T00:00	7180	408	-26.6	-43.6	230	18	
2025-07-07T00:00	7200	407	-26.7	-44.2	229	18	
2025-07-07T00:00	7220	405	-26.9	-44.2	228	18	
2025-07-07T00:00	7240	404	-27.1	-45.0	227	18	
2025-07-07T00:00	7260	403	-27.3	-45.2	226	17	
2025-07-07T00:00	7280	402	-27.5	-45.3	226	17	
2025-07-07T00:00	7300	401	-27.6	-44.2	225	17	
2025-07-07T00:00	7320	400	-27.7	-42.0	224	17	
2025-07-07T00:00	7340	399	-27.9	-39.8	224	18	
2025-07-07T00:00	7360	398	-28.1	-40.0	224	18	
2025-07-07T00:00	7380	396	-28.3	-39.7	224	19	
2025-07-07T00:00	7400	395	-28.5	-38.7	224	19	
2025-07-07T00:00	7420	394	-28.7	-39.0	224	19	
2025-07-07T00:00	7440	393	-28.9	-38.8	224	19	
2025-07-07T00:00	7460	392	-29.1	-38.6	225	19	
2025-07-07T00:00	7480	391	-29.2	-38.0	224	19	
2025-07-07T00:00	7500	390	-29.4	-38.4	224	19	
2025-07-07T00:00	7520	389	-29.6	-38.2	222	19	
2025-07-07T00:00	7540	388	-29.8	-37.5	221	19	
2025-07-07T00:00	7560	387	-30.0	-37.2	220	19	
2025-07-07T00:00	7580	385	-30.2	-37.3	219	19	
2025-07-07T00:00	7600	384	-30.4	-37.5	219	19	
2025-07-07T00:00	7620	383	-30.6	-37.5	218	19	
2025-07-07T00:00	7640	382	-30.7	-37.5	218	19	
2025-07-07T00:00	7660	381	-30.9	-37.8	218	19	
2025-07-07T00:00	7680	380	-31.0	-38.5	217	19	
2025-07-07T00:00	7700	379	-31.2	-38.4	217	18	
2025-07-07T00:00	7720	378	-31.4	-38.4	216	18	
2025-07-07T00:00	7740	377	-31.6	-38.4	215	18	
2025-07-07T00:00	7760	376	-31.8	-38.5	214	18	
2025-07-07T00:00	7780	375	-31.9	-38.5	214	18	
2025-07-07T00:00	7800	374	-32.1	-38.5	213	17	
2025-07-07T00:00	7820	373	-32.3	-38.3	212	18	
2025-07-07T00:00	7840	372	-32.5	-38.3	211	18	
2025-07-07T00:00	7860	371	-32.7	-38.3	210	18	
2025-07-07T00:00	7880	370	-32.9	-38.3	209	18	
2025-07-07T00:00	7900	369	-33.0	-38.3	209	18	
2025-07-07T00:00	7920	367	-33.2	-37.9	208	18	
2025-07-07T00:00	7940	366	-33.4	-38.0	208	18	
2025-07-07T00:00	7960	365	-33.6	-38.0	209	19	
2025-07-07T00:00	7980	364	-33.8	-38.0	210	19	
2025-07-07T00:00	8000	363	-33.9	-37.7	211	19	
2025-07-07T00:00	8020	362	-34.1	-37.4	212	20	
2025-07-07T00:00	8040	361	-34.3	-37.7	212	20	
2025-07-07T00:00	8060	360	-34.5	-38.9	212	20	
2025-07-07T00:00	8080	359	-34.7	-38.8	212	20	
2025-07-07T00:00	8100	358	-34.9	-40.0	212	20	
2025-07-07T00:00	8120	357	-35.0	-44.5	212	20	
2025-07-07T00:00	8140	356	-35.2	-43.1	212	20	
2025-07-07T00:00	8160	355	-35.3	-45.0	212	20	
2025-07-07T00:00	8180	354	-35.5	-44.5	213	20	
2025-07-07T00:00	8200	353	-35.7	-44.8	213	20	
2025-07-07T00:00	8220	352	-35.9	-44.9	214	20	
2025-07-07T00:00	8240	351	-36.1	-45.9	215	20	
2025-07-07T00:00	8260	350	-36.2	-46.6	216	20	
2025-07-07T00:00	8280	349	-36.4	-47.1	216	19	
2025-07-07T00:00	8300	348	-36.5	-49.2	217	19	
2025-07-07T00:00	8320	347	-36.5	-51.9	216	19	
2025-07-07T00:00	8340	346	-36.6	-52.2	216	19	
2025-07-07T00:00	8360	345	-36.7	-51.7	215	19	
2025-07-07T00:00	8380	344	-36.8	-52.0	215	19	
2025-07-07T00:00	8400	343	-36.8	-52.6	214	19	
2025-07-07T00:00	8420	342	-36.9	-53.1	213	19	
2025-07-07T00:00	8440	341	-37.0	-53.3	213	19	
2025-07-07T00:00	8460	340	-37.2	-53.8	212	19	
2025-07-07T00:00	8480	339	-37.3	-54.0	212	19	
2025-07-07T00:00	8500	338	-37.5	-53.9	212	19	
2025-07-07T00:00	8520	337	-37.7	-54.2	212	19	
2025-07-07T00:00	8540	336	-37.8	-54.5	212	19	
2025-07-07T00:00	8560	335	-38.0	-54.5	213	19	
2025-07-07T00:00	8580	334	-38.2	-54.7	213	19	
2025-07-07T00:00	8600	333	-38.4	-55.0	214	19	
2025-07-07T00:00	8620	332	-38.6	-55.0	215	19	
2025-07-07T00:00	8640	331	-38.8	-55.1	216	18	
2025-07-07T00:00	8660	330	-39.0	-55.2	218	18	
2025-07-07T00:00	8680	329	-39.1	-55.5	219	18	
2025-07-07T00:00	8700	328	-39.3	-55.5	221	18	
2025-07-07T00:00	8720	327	-39.5	-55.6	223	17	
2025-07-07T00:00	8740	326	-39.7	-56.5	225	17	
2025-07-07T00:00	8760	325	-39.8	-57.1	226	17	
2025-07-07T00:00	8780	325	-39.9	-58.0	227	16	
2025-07-07T00:00	8800	324	-40.0	-58.3	228	16	
2025-07-07T00:00	8820	323	-40.1	-58.3	229	16	
2025-07-07T00:00	8840	322	-40.2	-59.0	230	16	
2025-07-07T00:00	8860	321	-40.1	-60.0	230	16	
2025-07-07T00:00	8880	320	-39.8	-60.5	231	15	
2025-07-07T00:00	8900	319	-39.7	-60.4	232	15	
2025-07-07T00:00	8920	318	-39.7	-60.4	235	15	
2025-07-07T00:00	8940	317	-39.7	-60.8	237	15	
2025-07-07T00:00	8960	316	-39.7	-61.0	239	15	
2025-07-07T00:00	8980	315	-39.6	-60.1	241	15	
2025-07-07T00:00	9000	314	-39.3	-55.3	244	15	
2025-07-07T00:00	9020	313	-39.3	-53.1	246	14	
2025-07-07T00:00	9040	312	-39.4	-52.4	247	14	
2025-07-07T00:00	9060	312	-39.6	-52.4	248	14	
2025-07-07T00:00	9080	311	-39.8	-53.1	249	14	
2025-07-07T00:00	9100	310	-40.0	-53.1	250	14	
2025-07-07T00:00	9120	309	-40.1	-52.6	250	14	
2025-07-07T00:00	9140	308	-40.3	-51.2	250	14	
2025-07-07T00:00	9160	307	-40.5	-47.9	250	14	
2025-07-07T00:00	9180	306	-40.6	-47.1	249	15	
2025-07-07T00:00	9200	305	-40.8	-47.1	249	15	
2025-07-07T00:00	9220	304	-41.0	-47.0	249	14	
2025-07-07T00:00	9240	303	-41.1	-47.1	248	14	
2025-07-07T00:00	9260	302	-41.3	-47.4	248	14	
2025-07-07T00:00	9280	302	-41.4	-47.6	247	14	
2025-07-07T00:00	9300	301	-41.5	-48.0	245	13	
2025-07-07T00:00	9320	300	-41.7	-49.0	244	13	
2025-07-07T00:00	9340	299	-41.7	-51.8	242	13	
2025-07-07T00:00	9360	298	-41.7	-55.3	239	13	
2025-07-07T00:00	9380	297	-41.6	-56.0	237	13	
2025-07-07T00:00	9400	296	-41.7	-53.0	235	13	
2025-07-07T00:00	9420	296	-41.7	-51.1	233	14	
2025-07-07T00:00	9440	295	-41.8	-54.8	231	14	
2025-07-07T00:00	9460	294	-42.0	-56.4	230	14	
2025-07-07T00:00	9480	293	-42.0	-56.4	230	14	
2025-07-07T00:00	9500	292	-42.0	-53.5	229	14	
2025-07-07T00:00	9520	291	-41.7	-52.6	229	14	
2025-07-07T00:00	9540	290	-41.5	-54.5	230	15	
2025-07-07T00:00	9560	289	-41.6	-54.8	231	15	
2025-07-07T00:00	9580	289	-41.8	-55.0	231	15	
2025-07-07T00:00	9600	288	-41.8	-55.9	232	16	
2025-07-07T00:00	9620	287	-41.7	-59.0	233	16	
2025-07-07T00:00	9640	286	-41.8	-60.2	234	16	
2025-07-07T00:00	9660	285	-41.7	-61.1	235	17	
2025-07-07T00:00	9680	284	-41.4	-60.6	236	17	
2025-07-07T00:00	9700	283	-41.3	-60.2	237	17	
2025-07-07T00:00	9720	283	-41.3	-61.2	238	17	
2025-07-07T00:00	9740	282	-41.3	-62.4	240	17	
2025-07-07T00:00	9760	281	-41.2	-64.5	241	17	
2025-07-07T00:00	9780	280	-41.1	-66.7	242	17	
2025-07-07T00:00	9800	279	-41.2	-68.5	244	18	
2025-07-07T00:00	9820	279	-41.1	-71.3	245	18	
2025-07-07T00:00	9840	278	-40.9	-73.4	246	18	
2025-07-07T00:00	9860	277	-41.0	-72.7	247	18	
2025-07-07T00:00	9880	276	-41.0	-72.3	249	18	
2025-07-07T00:00	9900	275	-40.9	-72.3	249	18	
2025-07-07T00:00	9920	274	-40.9	-72.4	249	18	
2025-07-07T00:00	9940	274	-41.1	-72.3	249	18	
2025-07-07T00:00	9960	273	-41.2	-72.4	249	18	
2025-07-07T00:00	9980	272	-41.4	-72.5	249	18	
2025-07-07T00:00	10000	271	-41.5	-72.6	248	18	
2025-07-07T00:00	10018	271	-41.7	-72.8	248	19	
2025-07-07T00:00	10050	269	-41.8	-72.8	249	19	
2025-07-07T00:00	10100	267	-42.2	-73.1	250	19	
2025-07-07T00:00	10150	265	-42.4	-73.2	251	18	
2025-07-07T00:00	10200	263	-42.5	-73.6	253	18	
2025-07-07T00:00	10250	261	-42.5	-73.7	255	17	
2025-07-07T00:00	10300	260	-42.5	-73.9	254	17	
2025-07-07T00:00	10350	258	-42.4	-74.1	252	17	
2025-07-07T00:00	10400	256	-42.2	-74.2	249	17	
2025-07-07T00:00	10450	254	-42.5	-74.3	247	18	
2025-07-07T00:00	10500	252	-42.8	-74.6	246	19	
2025-07-07T00:00	10550	250	-42.4	-74.8	248	19	
2025-07-07T00:00	10600	248	-42.3	-74.8	250	18	
2025-07-07T00:00	10650	246	-42.4	-74.8	252	18	
2025-07-07T00:00	10700	245	-42.6	-74.9	254	19	
2025-07-07T00:00	10750	243	-42.8	-75.1	256	19	
2025-07-07T00:00	10800	241	-42.9	-75.3	259	19	
2025-07-07T00:00	10850	239	-43.1	-75.3	262	19	
2025-07-07T00:00	10900	237	-43.2	-75.4	264	20	
2025-07-07T00:00	10950	236	-43.2	-75.4	264	20	
2025-07-07T00:00	11000	234	-43.1	-75.3	263	20	
2025-07-07T00:00	11050	232	-43.0	-75.4	264	19	
2025-07-07T00:00	11100	230	-43.0	-75.6	265	18	
2025-07-07T00:00	11150	229	-43.1	-75.6	267	18	
2025-07-07T00:00	11200	227	-42.8	-75.8	268	18	
2025-07-07T00:00	11250	225	-42.9	-76.0	266	18	
2025-07-07T00:00	11300	224	-42.8	-76.1	263	17	
2025-07-07T00:00	11350	222	-43.0	-76.1	263	17	
2025-07-07T00:00	11400	220	-43.0	-76.2	264	18	
2025-07-07T00:00	11450	219	-43.0	-76.3	263	18	
2025-07-07T00:00	11500	217	-43.0	-76.5	263	18	
2025-07-07T00:00	11550	216	-42.9	-76.6	265	18	
2025-07-07T00:00	11600	214	-43.1	-76.9	265	17	
2025-07-07T00:00	11650	212	-42.8	-77.1	264	16	
2025-07-07T00:00	11700	211	-42.7	-77.2	262	16	
2025-07-07T00:00	11750	209	-42.7	-77.3	261	16	
2025-07-07T00:00	11800	208	-42.9	-77.3	260	16	
2025-07-07T00:00	11850	206	-42.8	-77.2	256	15	
2025-07-07T00:00	11900	205	-43.3	-77.2	254	15	
2025-07-07T00:00	11950	203	-43.7	-77.4	254	15	
2025-07-07T00:00	12000	201	-44.2	-77.6	254	15	
2025-07-07T00:00	12050	200	-44.1	-77.8	254	15	
2025-07-07T00:00	12100	199	-44.1	-78.0	255	15	
2025-07-07T00:00	12150	197	-44.4	-78.1	257	14	
2025-07-07T00:00	12200	196	-44.5	-78.2	258	14	
2025-07-07T00:00	12250	194	-44.7	-78.2	259	15	
2025-07-07T00:00	12300	193	-44.9	-78.4	258	15	
2025-07-07T00:00	12350	191	-45.1	-78.5	255	16	
2025-07-07T00:00	12400	190	-45.3	-78.6	253	16	
2025-07-07T00:00	12450	188	-45.6	-78.7	250	17	
2025-07-07T00:00	12500	187	-45.8	-78.8	251	18	
2025-07-07T00:00	12550	186	-46.2	-79.0	252	19	
2025-07-07T00:00	12600	184	-46.4	-79.0	254	20	
2025-07-07T00:00	12650	183	-46.4	-79.1	255	21	
2025-07-07T00:00	12700	182	-46.3	-79.1	257	21	
2025-07-07T00:00	12750	180	-46.2	-79.2	258	21	
2025-07-07T00:00	12800	179	-46.4	-79.4	258	21	
2025-07-07T00:00	12850	177	-46.5	-79.5	258	21	
2025-07-07T00:00	12900	176	-46.5	-79.5	258	21	
2025-07-07T00:00	12950	175	-46.4	-79.7	260	20	
2025-07-07T00:00	13000	174	-46.2	-79.8	263	19	
2025-07-07T00:00	13050	172	-45.9	-79.7	266	19	
2025-07-07T00:00	13100	171	-46.0	-79.8	268	20	
2025-07-07T00:00	13150	170	-45.9	-79.7	269	21	
2025-07-07T00:00	13200	168	-46.2	-79.7	269	22	
2025-07-07T00:00	13250	167	-46.3	-79.7	268	22	
2025-07-07T00:00	13300	166	-46.4	-79.9	266	21	
2025-07-07T00:00	13350	165	-46.4	-79.9	265	20	
2025-07-07T00:00	13400	163	-46.7	-79.9	264	19	
2025-07-07T00:00	13450	162	-47.1	-80.1	261	18	
2025-07-07T00:00	13500	161	-47.5	-80.2	257	18	
2025-07-07T00:00	13550	160	-47.7	-80.4	252	17	
2025-07-07T00:00	13600	159	-47.8	-80.4	249	18	
2025-07-07T00:00	13650	157	-48.1	-80.6	247	18	
2025-07-07T00:00	13700	156	-47.9	-80.6	248	19	
2025-07-07T00:00	13750	155	-48.1	-80.6	249	20	
2025-07-07T00:00	13800	154	-48.3	-80.8	248	20	
2025-07-07T00:00	13850	153	-48.5	-80.8	247	21	
2025-07-07T00:00	13900	151	-48.9	-80.8	246	20	
2025-07-07T00:00	13950	150	-49.3	-81.0	245	20	
2025-07-07T00:00	14000	149	-49.1	-81.0	245	20	
2025-07-07T00:00	14050	148	-49.2	-81.0	247	20	
2025-07-07T00:00	14100	147	-49.5	-81.1	250	20	
2025-07-07T00:00	14150	146	-49.6	-81.2	252	20	
2025-07-07T00:00	14200	145	-49.7	-81.1	252	21	
2025-07-07T00:00	14250	144	-50.1	-81.2	253	21	
2025-07-07T00:00	14300	142	-50.6	-81.3	254	22	
2025-07-07T00:00	14350	141	-50.9	-81.4	256	22	
2025-07-07T00:00	14400	140	-51.0	-81.4	258	22	
2025-07-07T00:00	14450	139	-51.3	-81.6	258	21	
2025-07-07T00:00	14500	138	-51.4	-81.7	257	20	
2025-07-07T00:00	14550	137	-51.6	-81.8	255	20	
2025-07-07T00:00	14600	136	-51.7	-81.9	253	19	
2025-07-07T00:00	14650	135	-52.0	-81.9	251	18	
2025-07-07T00:00	14700	134	-52.3	-82.0	248	18	
2025-07-07T00:00	14750	133	-52.8	-82.2	247	17	
2025-07-07T00:00	14800	132	-52.9	-82.2	247	17	
2025-07-07T00:00	14850	131	-53.0	-82.3	248	16	
2025-07-07T00:00	14900	130	-53.4	-82.4	247	16	
2025-07-07T00:00	14950	129	-53.6	-82.5	246	16	
2025-07-07T00:00	15000	128	-53.6	-82.6	243	16	
2025-07-07T00:00	15050	127	-53.3	-82.6	242	17	
2025-07-07T00:00	15100	126	-53.2	-82.7	241	19	
2025-07-07T00:00	15150	125	-53.1	-82.6	242	20	
2025-07-07T00:00	15200	124	-53.3	-82.6	244	20	
2025-07-07T00:00	15250	123	-53.5	-82.6	247	20	
2025-07-07T00:00	15300	122	-53.8	-82.8	250	20	
2025-07-07T00:00	15350	121	-53.8	-82.9	252	20	
2025-07-07T00:00	15400	120	-53.4	-83.0	252	20	
2025-07-07T00:00	15450	119	-53.2	-83.1	252	20	
2025-07-07T00:00	15500	118	-53.0	-83.2	252	19	
2025-07-07T00:00	15550	117	-52.9	-83.2	252	18	
2025-07-07T00:00	15600	116	-53.1	-83.4	252	18	
2025-07-07T00:00	15650	116	-53.1	-83.5	253	17	
2025-07-07T00:00	15700	115	-52.4	-83.2	255	17	
2025-07-07T00:00	15750	114	-52.4	-83.4	258	16	
2025-07-07T00:00	15800	113	-52.1	-83.4	259	16	
2025-07-07T00:00	15850	112	-51.9	-83.0	258	15	
2025-07-07T00:00	15900	111	-52.1	-82.9	255	16	
2025-07-07T00:00	15950	110	-52.5	-82.9	252	16	
2025-07-07T00:00	16000	109	-52.9	-83.0	251	17	
2025-07-07T00:00	16050	109	-53.4	-83.1	251	17	
2025-07-07T00:00	16100	108	-53.3	-83.3	254	16	
2025-07-07T00:00	16150	107	-53.5	-83.6	257	15	
2025-07-07T00:00	16200	106	-53.7	-83.5	259	15	
2025-07-07T00:00	16250	105	-53.6	-83.5	258	15	
2025-07-07T00:00	16300	104	-53.5	-83.5	256	16	
2025-07-07T00:00	16350	104	-53.9	-83.8	254	16	
2025-07-07T00:00	16400	103	-53.9	-83.9	253	15	
2025-07-07T00:00	16450	102	-53.7	-83.9	253	14	
2025-07-07T00:00	16500	101	-53.5	-83.9	252	13	
2025-07-07T00:00	16550	100	-53.7	-83.9	251	12	
2025-07-07T00:00	16600	100	-54.1	-83.9	250	12	
2025-07-07T00:00	16650	99	-54.5	-84.1	250	13	
2025-07-07T00:00	16700	98	-54.9	-84.3	251	13	
2025-07-07T00:00	16750	97	-54.8	-84.4	253	13	
2025-07-07T00:00	16800	97	-54.8	-84.5	258	13	
2025-07-07T00:00	16850	96	-54.7	-84.5	262	13	
2025-07-07T00:00	16900	95	-54.5	-84.4	263	13	
2025-07-07T00:00	16950	94	-54.7	-84.6	263	13	
2025-07-07T00:00	17000	94	-54.6	-84.6	265	12	
2025-07-07T00:00	17050	93	-54.6	-84.5	268	11	
2025-07-07T00:00	17100	92	-54.8	-84.4	266	10	
2025-07-07T00:00	17150	91	-55.0	-84.6	259	10	
2025-07-07T00:00	17200	91	-55.0	-84.7	251	9	
2025-07-07T00:00	17250	90	-55.0	-84.7	246	9	
2025-07-07T00:00	17300	89	-55.1	-84.6	244	9	
2025-07-07T00:00	17350	89	-55.5	-84.7	246	9	
2025-07-07T00:00	17400	88	-56.0	-84.8	247	9	
2025-07-07T00:00	17450	87	-56.3	-84.9	247	9	
2025-07-07T00:00	17500	87	-56.6	-85.0	249	10	
2025-07-07T00:00	17550	86	-56.8	-85.1	251	10	
2025-07-07T00:00	17600	85	-56.9	-85.1	253	11	
2025-07-07T00:00	17650	85	-57.1	-85.3	255	11	
2025-07-07T00:00	17700	84	-57.2	-85.4	259	11	
2025-07-07T00:00	17750	83	-57.0	-85.7	263	11	
2025-07-07T00:00	17800	83	-56.0	-85.6	265	11	
2025-07-07T00:00	17850	82	-55.4	-85.5	262	11	
2025-07-07T00:00	17900	81	-54.6	-85.1	258	10	
2025-07-07T00:00	17950	81	-54.8	-85.1	255	9	
2025-07-07T00:00	18000	80	-54.9	-84.9	252	8	
2025-07-07T00:00	18050	79	-55.3	-84.9	249	8	
2025-07-07T00:00	18100	79	-55.7	-84.9	246	8	
2025-07-07T00:00	18150	78	-56.1	-85.0	243	8	
2025-07-07T00:00	18200	78	-56.6	-85.1	239	9	
2025-07-07T00:00	18250	77	-57.0	-85.2	237	10	
2025-07-07T00:00	18300	76	-57.4	-85.4	236	10	
2025-07-07T00:00	18350	76	-57.6	-85.4	237	10	
2025-07-07T00:00	18400	75	-57.7	-85.5	240	11	
2025-07-07T00:00	18450	75	-57.9	-85.6	244	11	
2025-07-07T00:00	18500	74	-57.7	-85.8	249	11	
2025-07-07T00:00	18550	73	-56.7	-85.7	255	11	
2025-07-07T00:00	18600	73	-56.0	-85.9	259	9	
2025-07-07T00:00	18650	72	-54.7	-85.6	256	7	
2025-07-07T00:00	18700	72	-53.7	-85.3	243	5	
2025-07-07T00:00	18750	71	-53.4	-85.1	224	4	
2025-07-07T00:00	18800	71	-53.3	-84.8	207	3	
2025-07-07T00:00	18850	70	-53.7	-84.7	195	3	
2025-07-07T00:00	18900	69	-54.0	-84.6	185	3	
2025-07-07T00:00	18950	69	-54.3	-84.6	181	3	
2025-07-07T00:00	19000	68	-54.5	-84.7	181	4	
2025-07-07T00:00	19050	68	-54.8	-84.8	181	4	
2025-07-07T00:00	19100	67	-55.2	-84.9	180	5	
2025-07-07T00:00	19150	67	-55.3	-84.9	178	5	
2025-07-07T00:00	19200	66	-55.7	-85.0	177	5	
2025-07-07T00:00	19250	66	-56.0	-85.1	177	5	
2025-07-07T00:00	19300	65	-56.4	-85.3	175	5	
2025-07-07T00:00	19350	65	-56.5	-85.4	171	6	
2025-07-07T00:00	19400	64	-56.7	-85.6	168	6	
2025-07-07T00:00	19450	64	-56.5	-85.8	173	5	
2025-07-07T00:00	19500	63	-55.9	-85.6	187	5	
2025-07-07T00:00	19550	63	-56.1	-85.6	204	4	
2025-07-07T00:00	19600	62	-56.2	-85.7	222	4	
2025-07-07T00:00	19650	62	-55.9	-85.6	244	4	
2025-07-07T00:00	19700	61	-55.7	-85.6	268	3	
2025-07-07T00:00	19750	61	-55.7	-85.5	291	3	
2025-07-07T00:00	19800	60	-55.6	-85.5	312	3	
2025-07-07T00:00	19850	60	-55.5	-85.5	342	3	
2025-07-07T00:00	19900	59	-55.4	-85.5	21	3	
2025-07-07T00:00	19950	59	-55.3	-85.4	47	3	
2025-07-07T00:00	20000	58	-55.4	-85.3	60	3	
2025-07-07T00:00	20050	58	-55.7		65	3	
2025-07-07T00:00	20100	58	-55.9		65	2	
2025-07-07T00:00	20150	57	-56.0		73	1	
2025-07-07T00:00	20200	57	-55.4		113	1	
2025-07-07T00:00	20250	56	-54.8		150	2	
2025-07-07T00:00	20300	56	-54.5		169	3	
2025-07-07T00:00	20350	55	-54.6		180	4	
2025-07-07T00:00	20400	55	-54.5		188	5	
2025-07-07T00:00	20450	54	-54.6		194	4	
2025-07-07T00:00	20500	54	-54.8		199	3	
2025-07-07T00:00	20550	54	-54.9		207	2	
2025-07-07T00:00	20600	53	-55.1		217	1	
2025-07-07T00:00	20650	53	-55.0		209	1	
2025-07-07T00:00	20700	52	-55.1		187	1	
2025-07-07T00:00	20750	52	-55.3		167	1	
2025-07-07T00:00	20800	52	-55.2		142	0	
2025-07-07T00:00	20850	51	-55.1		123	0	
2025-07-07T00:00	20900	51	-55.0		135	1	
2025-07-07T00:00	20950	50	-54.6		142	3	
2025-07-07T00:00	21000	50	-53.7		151	4	
2025-07-07T00:00	21050	50	-53.7		165	4	
2025-07-07T00:00	21100	49	-53.8		179	4	
2025-07-07T00:00	21150	49	-53.7		191	3	
2025-07-07T00:00	21200	48	-53.9		207	3	
2025-07-07T00:00	21250	48	-54.1		223	2	
2025-07-07T00:00	21300	48	-54.2		232	1	
2025-07-07T00:00	21350	47	-53.9		90	1	
2025-07-07T00:00	21400	47	-53.8		98	2	
2025-07-07T00:00	21450	47	-53.4		113	3	
2025-07-07T00:00	21500	46	-53.4		122	5	
2025-07-07T00:00	21550	46	-53.5		124	6	
2025-07-07T00:00	21600	46	-53.5		121	6	
2025-07-07T00:00	21650	45	-53.9		121	7	
2025-07-07T00:00	21700	45	-54.2		124	8	
2025-07-07T00:00	21750	44	-54.0		129	9	
2025-07-07T00:00	21800	44	-53.3		133	9	
2025-07-07T00:00	21850	44	-53.4		139	9	
2025-07-07T00:00	21900	43	-53.6		146	8	
2025-07-07T00:00	21950	43	-53.6		152	7	
2025-07-07T00:00	22000	43	-53.3		153	6	
2025-07-07T00:00	22050	42	-53.3		151	7	
2025-07-07T00:00	22100	42	-52.4		155	8	
2025-07-07T00:00	22150	42	-52.0		163	9	
2025-07-07T00:00	22200	41	-52.0		171	8	
2025-07-07T00:00	22250	41	-51.8		175	7	
2025-07-07T00:00	22300	41	-51.3		176	5	
2025-07-07T00:00	22350	41	-50.9		177	3	
2025-07-07T00:00	22400	40	-51.2		182	2	
2025-07-07T00:00	22450	40	-51.5		189	1	
2025-07-07T00:00	22500	40	-51.3		78	0	
2025-07-07T00:00	22550	39	-51.0		60	2	
2025-07-07T00:00	22600	39	-50.9		58	3	
2025-07-07T00:00	22650	39	-50.8		68	3	
2025-07-07T00:00	22700	38	-50.7		84	3	
2025-07-07T00:00	22750	38	-50.8		100	4	
2025-07-07T00:00	22800	38	-50.9		108	4	
2025-07-07T00:00	22850	38	-51.0		106	4	
2025-07-07T00:00	22900	37	-50.8		96	5	
2025-07-07T00:00	22950	37	-50.4		86	6	
2025-07-07T00:00	23000	37	-50.5		79	6	
2025-07-07T00:00	23050	36	-50.6		75	7	
2025-07-07T00:00	23100	36	-50.5		74	6	
2025-07-07T00:00	23150	36	-50.6		72	5	
2025-07-07T00:00	23200	36	-51.0		68	5	
2025-07-07T00:00	23250	35	-51.3		66	4	
2025-07-07T00:00	23300	35	-51.7		70	4	
2025-07-07T00:00	23350	35	-51.7		76	5	
2025-07-07T00:00	23400	34	-51.9		84	5	
2025-07-07T00:00	23450	34	-51.9		97	5	
2025-07-07T00:00	23500	34	-51.6		112	4	
2025-07-07T00:00	23550	34	-51.3		124	3	
2025-07-07T00:00	23600	33	-51.0		118	2	
2025-07-07T00:00	23650	33	-51.0		101	3	
2025-07-07T00:00	23700	33	-50.6		93	5	
2025-07-07T00:00	23750	33	-50.5		86	6	
2025-07-07T00:00	23800	32	-50.7		78	8	
2025-07-07T00:00	23850	32	-50.7		74	9	
2025-07-07T00:00	23900	32	-50.7		75	9	
2025-07-07T00:00	23950	32	-50.8		80	10	
2025-07-07T00:00	24000	31	-50.6		88	10	
2025-07-07T00:00	24050	31	-50.7		95	9	
2025-07-07T00:00	24100	31	-50.9		103	9	
2025-07-07T00:00	24150	31	-50.8		110	9	
2025-07-07T00:00	24200	30	-50.9		114	10	
2025-07-07T00:00	24250	30	-50.8		112	9	
2025-07-07T00:00	24300	30	-50.5		107	9	
2025-07-07T00:00	24350	30	-50.6		104	9	
2025-07-07T00:00	24400	30	-50.8		104	8	
2025-07-07T00:00	24450	29	-50.9		105	8	
2025-07-07T00:00	24500	29	-51.0		107	8	
2025-07-07T00:00	24550	29	-51.1		109	8	
2025-07-07T00:00	24600	29	-51.3		113	8	
2025-07-07T00:00	24650	28	-51.2		121	8	
2025-07-07T00:00	24700	28	-51.3		129	8	
2025-07-07T00:00	24750	28	-51.5		136	9	
2025-07-07T00:00	24800	28	-51.5		141	8	
2025-07-07T00:00	24850	28	-51.2		141	7	
2025-07-07T00:00	24900	27	-50.4		133	5	
2025-07-07T00:00	24950	27	-49.8		117	4	
2025-07-07T00:00	25000	27	-49.5		97	5	
2025-07-07T00:00	25050	27	-49.4		84	6	
2025-07-07T00:00	25100	27	-49.0		80	7	
2025-07-07T00:00	25150	26	-48.6		78	7	
2025-07-07T00:00	25200	26	-48.5		76	6	
2025-07-07T00:00	25250	26	-48.3		73	5	
2025-07-07T00:00	25300	26	-48.0		66	6	
2025-07-07T00:00	25350	26	-47.8		58	7	
2025-07-07T00:00	25400	25	-47.5		54	8	
2025-07-07T00:00	25450	25	-47.0		52	8	
2025-07-07T00:00	25500	25	-47.1		52	7	
2025-07-07T00:00	25550	25	-47.1		54	7	
2025-07-07T00:00	25600	25	-47.2		58	7	
2025-07-07T00:00	25650	24	-47.3		64	8	
2025-07-07T00:00	25700	24	-47.3		69	9	
2025-07-07T00:00	25750	24	-47.6		74	10	
2025-07-07T00:00	25800	24	-47.5		80	10	
2025-07-07T00:00	25850	24	-47.4		86	10	
2025-07-07T00:00	25900	24	-47.3		91	11	
2025-07-07T00:00	25950	23	-47.2		94	11	
2025-07-07T00:00	26000	23	-47.3		94	12	
2025-07-07T00:00	26050	23	-47.5		92	14	
2025-07-07T00:00	26100	23	-47.6		92	15	
2025-07-07T00:00	26150	23	-47.7		93	16	
2025-07-07T00:00	26200	22	-47.9		94	16	
2025-07-07T00:00	26250	22	-47.8		96	15	
2025-07-07T00:00	26300	22	-47.7		98	13	
2025-07-07T00:00	26350	22	-47.7		102	12	
2025-07-07T00:00	26400	22	-47.9		106	11	
2025-07-07T00:00	26450	22	-48.0		110	10	
2025-07-07T00:00	26500	21	-48.2		113	9	
2025-07-07T00:00	26550	21	-48.5		115	9	
2025-07-07T00:00	26600	21	-48.5		117	9	
2025-07-07T00:00	26650	21	-48.3		120	9	
2025-07-07T00:00	26700	21	-48.4		123	9	
2025-07-07T00:00	26750	21	-48.4		125	10	
2025-07-07T00:00	26800	21	-48.4		125	11	
2025-07-07T00:00	26850	20	-48.4		122	12	
2025-07-07T00:00	26900	20	-48.6		120	12	
2025-07-07T00:00	26950	20	-48.8		119	13	
2025-07-07T00:00	27000	20	-48.9		121	14	
2025-07-07T00:00	27050	20	-48.8		124	13	
2025-07-07T00:00	27100	20	-48.7		124	13	
2025-07-07T00:00	27150	19	-48.4		121	12	
2025-07-07T00:00	27200	19	-48.0		116	10	
2025-07-07T00:00	27250	19	-47.7		112	9	
2025-07-07T00:00	27300	19	-47.7		106	9	
2025-07-07T00:00	27350	19	-47.3		99	9	
2025-07-07T00:00	27400	19	-46.6		94	9	
2025-07-07T00:00	27450	19	-46.3		92	8	
2025-07-07T00:00	27500	18	-46.3		92	6	
2025-07-07T00:00	27550	18	-46.6		89	5	
2025-07-07T00:00	27600	18	-46.9		81	5	
2025-07-07T00:00	27650	18	-46.8		73	6	
2025-07-07T00:00	27700	18	-46.3		70	7	
2025-07-07T00:00	27750	18	-45.8		71	8	
2025-07-07T00:00	27800	18	-45.8		72	9	
2025-07-07T00:00	27850	18	-46.0		72	10	
2025-07-07T00:00	27900	17	-46.1		73	10	
2025-07-07T00:00	27950	17	-46.3		72	10	
2025-07-07T00:00	28000	17	-46.5		73	10	
2025-07-07T00:00	28050	17	-46.4		76	10	
2025-07-07T00:00	28100	17	-46.2		81	11	
2025-07-07T00:00	28150	17	-46.1		87	12	
2025-07-07T00:00	28200	17	-45.9		92	12	
2025-07-07T00:00	28250	16	-45.7		95	12	
2025-07-07T00:00	28300	16	-45.4		98	12	
2025-07-07T00:00	28350	16	-45.0		100	13	
2025-07-07T00:00	28400	16	-44.9		101	13	
2025-07-07T00:00	28450	16	-44.6		99	11	
2025-07-07T00:00	28500	16	-43.8		94	10	
2025-07-07T00:00	28550	16	-43.6		88	8	
2025-07-07T00:00	28600	16	-43.5		83	6	
2025-07-07T00:00	28650	16	-43.4		74	5	
2025-07-07T00:00	28700	15	-43.4		62	5	
2025-07-07T00:00	28750	15	-43.2		58	7	
2025-07-07T00:00	28800	15	-42.5		60	8	
2025-07-07T00:00	28850	15	-41.5		63	10	
2025-07-07T00:00	28900	15	-41.1		67	10	
2025-07-07T00:00	28950	15	-41.2		69	10	
2025-07-07T00:00	29000	15	-41.3		70	10	
2025-07-07T00:00	29050	15	-41.3		74	10	
2025-07-07T00:00	29100	15	-41.3		79	10	
2025-07-07T00:00	29150	14	-41.5		84	11	
2025-07-07T00:00	29200	14	-41.8		90	12	
2025-07-07T00:00	29250	14	-42.1		95	12	
2025-07-07T00:00	29300	14	-42.4		98	12	
2025-07-07T00:00	29350	14	-42.3		99	11	
2025-07-07T00:00	29400	14	-41.8		97	10	
2025-07-07T00:00	29450	14	-41.3		92	9	
2025-07-07T00:00	29500	14	-41.0		87	9	
2025-07-07T00:00	29550	14	-40.9		82	9	
2025-07-07T00:00	29600	13	-40.8		76	9	
2025-07-07T00:00	29650	13	-40.6		71	10	
2025-07-07T00:00	29700	13	-40.7		70	10	
2025-07-07T00:00	29750	13	-40.6		75	11	
2025-07-07T00:00	29800	13	-40.2		83	11	
2025-07-07T00:00	29850	13	-40.2		91	12	
2025-07-07T00:00	29900	13	-40.4		96	12	
2025-07-07T00:00	29950	13	-40.5		97	12	
2025-07-07T00:00	30000	13	-40.2		94	12	
2025-07-07T00:00	30050	13	-39.7		91	12	
2025-07-07T00:00	30100	13	-39.5		91	12	
2025-07-07T00:00	30150	12	-39.5		90	13	
2025-07-07T00:00	30200	12	-39.2		86	13	
2025-07-07T00:00	30250	12	-38.8		79	14	
2025-07-07T00:00	30300	12	-38.6		75	15	
2025-07-07T00:00	30350	12	-38.5		74	16	
2025-07-07T00:00	30400	12	-38.4		75	16	
2025-07-07T00:00	30450	12	-38.6		76	16	
2025-07-07T00:00	30500	12	-38.8		79	16	
2025-07-07T00:00	30550	12	-38.8		83	16	
2025-07-07T00:00	30600	12	-38.9		86	16	
2025-07-07T00:00	30650	12	-38.9		88	16	
2025-07-07T00:00	30700	11	-39.0		90	16	
2025-07-07T00:00	30750	11	-39.1		91	16	
2025-07-07T00:00	30800	11	-39.3		92	15	
2025-07-07T00:00	30850	11	-39.5		92	15	
2025-07-07T00:00	30900	11	-39.6		94	15	
2025-07-07T00:00	30950	11	-39.7		96	14	
2025-07-07T00:00	31000	11	-39.8		99	15	
2025-07-07T00:00	31050	11	-39.8		101	15	
2025-07-07T00:00	31100	11	-40.0		102	15	
2025-07-07T00:00	31150	11	-40.2		102	15	
2025-07-07T00:00	31200	11	-40.4		101	15	
2025-07-07T00:00	31250	11	-40.4		101	15	
2025-07-07T00:00	31300	11	-40.2		103	15	
2025-07-07T00:00	31350	10	-39.9		107	15	
2025-07-07T00:00	31400	10	-40.0		111	14	
2025-07-07T00:00	31450	10	-40.2		112	14	
2025-07-07T00:00	31500	10	-40.2		111	13	
2025-07-07T00:00	31550	10	-40.4		107	13	
2025-07-07T00:00	31600	10	-40.5		99	13	
2025-07-07T00:00	31650	10	-40.4		91	13	
2025-07-07T00:00	31700	10	-40.0		85	15	
2025-07-07T00:00	31750	10	-39.7		82	17	
2025-07-07T00:00	31800	10	-39.5		82	18	
2025-07-07T00:00	31850	10	-39.5		83	18	
2025-07-07T00:00	31900	10	-39.4		83	17	
2025-07-07T00:00	31950	10	-39.2		83	17	
2025-07-07T00:00	32000	9	-38.7		85	16	
2025-07-07T00:00	32050	9	-38.5		88	15	
2025-07-07T00:00	32100	9	-38.3		92	14	
2025-07-07T00:00	32150	9	-38.1		95	13	
2025-07-07T00:00	32200	9	-37.9		95	12	
2025-07-07T00:00	32250	9	-37.5		92	11	
2025-07-07T00:00	32300	9	-37.1		87	11	
2025-07-07T00:00	32350	9	-36.6		81	12	
2025-07-07T00:00	32400	9	-36.4		77	13	
2025-07-07T00:00	32450	9	-36.2		75	14	
2025-07-07T00:00	32500	9	-36.1		75	15	
2025-07-07T00:00	32550	9	-36.0		76	16	
2025-07-07T00:00	32600	9	-35.8		78	17	
2025-07-07T00:00	32650	9	-35.9		80	18	
2025-07-07T00:00	32700	9	-36.2		82	19	
2025-07-07T00:00	32750	9	-36.3		84	19	
2025-07-07T00:00	32800	8	-36.4		85	18	
2025-07-07T00:00	32850	8	-36.5		85	18	
2025-07-07T00:00	32900	8	-36.6		85	17	
2025-07-07T00:00	32950	8	-36.8		85	16	
2025-07-07T00:00	33000	8	-36.8		83	16	
2025-07-07T00:00	33050	8	-36.9		81	16	
2025-07-07T00:00	33100	8	-37.0		79	16	
2025-07-07T00:00	33150	8	-37.0		77	17	
2025-07-07T00:00	33200	8	-36.7		78	19	
2025-07-07T00:00	33250	8	-36.3		80	20	
2025-07-07T00:00	33300	8	-36.2		83	22	
2025-07-07T00:00	33350	8	-36.3		87	22	
2025-07-07T00:00	33400	8	-36.3		89	22	
2025-07-07T00:00	33450	8	-36.2		89	22	
2025-07-07T00:00	33500	8	-36.0		89	21	
2025-07-07T00:00	33550	8	-35.3		89	20	
2025-07-07T00:00	33600	8	-34.9		89	18	
2025-07-07T00:00	33650	7	-34.3		89	17	
2025-07-07T00:00	33700	7	-33.7		89	17	
2025-07-07T00:00	33750	7	-33.4		88	17	
2025-07-07T00:00	33800	7	-33.0		86	16	
2025-07-07T00:00	33850	7	-32.6		86	17	
2025-07-07T00:00	33900	7	-32.3		89	18	
2025-07-07T00:00	33950	7	-32.2		93	19	
2025-07-07T00:00	34000	7	-32.0		98	20	
2025-07-07T00:00	34050	7	-31.9		101	21	
2025-07-07T00:00	34100	7	-31.6		102	21	
2025-07-07T00:00	34150	7	-31.9		103	21	
2025-07-07T00:00	34200	7	-30.8		105	19	
2025-07-07T00:00	34250	7	-30.1		106	19	
2025-07-07T00:00	34300	7	-29.6		106	20	
2025-07-07T00:00	34350	7	-29.1		106	21	
2025-07-07T00:00	34400	7	-28.8		107	22	
2025-07-07T00:00	34450	7	-28.3		109	22	
2025-07-07T00:00	34500	7	-28.1		111	21	
2025-07-07T00:00	34550	7	-28.3		112	21	
2025-07-07T00:00	34600	7	-28.4		113	20	
2025-07-07T00:00	34650	7	-28.4		112	19	
2025-07-07T00:00	34700	6	-28.4		108	18	
2025-07-07T00:00	34750	6	-28.1		103	16	
2025-07-07T00:00	34800	6	-27.7		97	16	
2025-07-07T00:00	34850	6	-27.5		92	16	
2025-07-07T00:00	34900	6	-26.9		89	16	
2025-07-07T00:00	34950	6	-26.7		87	16	
2025-07-07T00:00	35000	6	-26.6		85	17	
2025-07-07T00:00	35050	6	-26.5		85	17	
2025-07-07T00:00	35100	6	-26.3		87	18	
2025-07-07T00:00	35150	6	-26.3		90	18	
2025-07-07T00:00	35200	6	-26.4		93	18	
2025-07-07T00:00	35250	6	-26.4		95	18	
2025-07-07T00:00	35300	6	-26.5		95	19	
2025-07-07T00:00	35350	6	-26.4		92	19	
2025-07-07T00:00	35400	6	-26.3		89	19	
2025-07-07T00:00	35450	6	-26.2		86	20	
2025-07-07T00:00	35500	6	-26.2		85	20	
2025-07-07T00:00	35550	6	-26.2		87	21	
2025-07-07T00:00	35600	6	-26.1		90	21	
2025-07-07T00:00	35650	6	-26.1		93	21	
2025-07-07T00:00	35700	6	-26.2		95	20	
2025-07-07T00:00	35750	6	-26.1		94	19	
2025-07-07T00:00	35800	6	-26.1		92	19	
2025-07-07T00:00	35850	6	-26.1		88	19	
2025-07-07T00:00	35900	5	-25.8		83	20	
2025-07-07T00:00	35950	5	-25.6		81	22	
2025-07-07T00:00	36000	5	-25.5		82	22	
2025-07-07T00:00	36050	5	-25.3		84	22	
2025-07-07T00:00	36100	5	-25.3		87	22	
2025-07-07T00:00	36150	5	-25.4		89	22	
2025-07-07T00:00	36200	5	-25.3		92	21	
2025-07-07T00:00	36250	5	-25.3		93	21	
2025-07-07T00:00	36300	5	-25.2		95	22	
2025-07-07T00:00	36350	5	-25.1		96	23	
2025-07-07T00:00	36400	5	-24.8		97	24	
2025-07-07T00:00	36450	5	-24.7		97	25	
2025-07-07T00:00	36500	5	-24.6		98	25	
2025-07-07T00:00	36550	5	-24.5		100	25	
2025-07-07T00:00	36600	5	-24.4		103	25	
2025-07-07T00:00	36650	5	-24.1		103	24	
2025-07-07T00:00	36700	5	-23.8		101	23	
2025-07-07T00:00	36750	5	-23.3		99	23	
2025-07-07T00:00	36800	5	-23.1		96	23	
2025-07-07T00:00	36850	5	-22.6		91	24	
2025-07-07T00:00	36900	5	-22.5		88	25	
2025-07-07T00:00	36950	5	-22.5		86	26	
2025-07-07T00:00	37000	5	-22.1		85	27	
2025-07-07T00:00	37050	5	-21.8		86	28	
2025-07-07T00:00	37100	5	-21.6		88	28	
2025-07-07T00:00	37150	5	-21.6		90	29	
2025-07-07T00:00	37200	5	-21.8		92	29	
2025-07-07T00:00	37250	5	-22.1		94	29	
2025-07-07T00:00	37300	5	-22.4		95	28	
2025-07-07T00:00	37350	4	-22.7		97	28	
2025-07-07T00:00	37400	4	-22.9		99	28	
2025-07-07T00:00	37450	4	-23.2		100	28	
2025-07-07T00:00	37500	4	-23.5		100	27	
2025-07-07T00:00	37550	4	-23.6		97	26	
2025-07-07T00:00	37600	4	-23.6		93	26	
2025-07-07T00:00	37650	4	-23.2		89	26	
2025-07-07T00:00	37700	4	-23.1		86	26	
2025-07-07T00:00	37750	4	-23.3		83	26	
2025-07-07T00:00	37800	4	-23.2		82	26	
2025-07-07T00:00	37850	4	-23.0		82	26	
2025-07-07T00:00	37900	4	-23.1		84	26	
2025-07-07T00:00	37950	4	-23.2		86	27	
2025-07-07T00:00	38000	4	-23.1		90	27	
2025-07-07T00:00	38050	4	-23.2		92	27	
2025-07-07T00:00	38100	4	-23.1		92	27	
2025-07-07T00:00	38150	4	-22.6		92	26	
2025-07-07T00:00	38200	4	-22.6		91	26	
2025-07-07T00:00	38250	4	-22.9		90	25	
2025-07-07T00:00	38300	4	-23.1		89	25	
2025-07-07T00:00	38350	4	-23.2		88	25	
2025-07-07T00:00	38400	4	-22.8		89	25	
2025-07-07T00:00	38450	4	-22.5		90	24	
2025-07-07T00:00	38500	4	-22.6		92	24	
2025-07-07T00:00	38550	4	-22.6		91	23	
2025-07-07T00:00	38600	4	-22.4		88	22	
2025-07-07T00:00	38650	4	-21.7		85	22	
2025-07-07T00:00	38700	4	-21.5		83	22	
2025-07-07T00:00	38750	4	-21.5		81	23	
2025-07-07T00:00	38800	4	-21.3		79	24	
2025-07-07T00:00	38850	4	-21.1		80	25	
2025-07-07T12:00	491	952	18.0	13.7	133	1	3.6
2025-07-07T12:00	501	950	18.3	12.2	227	3	3.6
2025-07-07T12:00	520	948	17.9	11.9	230	4	3.6
2025-07-07T12:00	540	946	17.7	11.9	229	5	3.6
2025-07-07T12:00	560	944	17.6	11.7	229	5	3.7
2025-07-07T12:00	580	942	17.4	11.8	230	6	3.7
2025-07-07T12:00	600	940	17.2	11.8	230	6	3.6
2025-07-07T12:00	620	938	17.0	11.7	231	6	3.6
2025-07-07T12:00	640	936	16.7	11.7	231	7	3.6
2025-07-07T12:00	660	933	16.6	11.3	232	7	3.6
2025-07-07T12:00	680	931	16.4	11.3	231	8	3.6
2025-07-07T12:00	700	929	16.3	10.9	231	8	3.6
2025-07-07T12:00	720	927	16.0	11.2	230	9	3.6
2025-07-07T12:00	740	924	15.8	11.2	229	9	3.6
2025-07-07T12:00	760	922	15.7	10.7	228	9	3.6
2025-07-07T12:00	780	920	15.7	9.9	228	10	3.6
2025-07-07T12:00	800	918	15.6	9.9	229	10	3.7
2025-07-07T12:00	820	916	15.4	10.0	229	10	3.7
2025-07-07T12:00	840	914	15.2	9.6	231	10	3.7
2025-07-07T12:00	860	911	15.3	8.7	232	10	3.7
2025-07-07T12:00	880	909	15.1	8.9	233	10	3.7
2025-07-07T12:00	900	907	14.8	9.0	235	10	3.7
2025-07-07T12:00	920	905	14.6	8.8	236	11	3.7
2025-07-07T12:00	940	903	14.5	8.3	237	11	3.7
2025-07-07T12:00	960	901	14.6	7.8	237	11	3.7
2025-07-07T12:00	980	898	14.4	7.9	237	11	3.8
2025-07-07T12:00	1000	896	14.3	7.7	237	12	3.8
2025-07-07T12:00	1020	894	14.2	7.6	237	12	3.8
2025-07-07T12:00	1040	892	14.0	7.6	237	12	3.8
2025-07-07T12:00	1060	890	13.9	7.4	237	13	3.8
2025-07-07T12:00	1080	888	13.7	7.4	237	13	3.8
2025-07-07T12:00	1100	886	13.6	7.1	236	13	3.9
2025-07-07T12:00	1120	884	13.4	7.0	236	13	3.9
2025-07-07T12:00	1140	881	13.2	6.9	236	13	3.9
2025-07-07T12:00	1160	879	13.1	6.8	236	13	3.9
2025-07-07T12:00	1180	878	12.9	6.8	236	13	3.9
2025-07-07T12:00	1200	876	12.7	6.7	236	14	3.9
2025-07-07T12:00	1220	873	12.6	6.6	235	13	3.9
2025-07-07T12:00	1240	871	12.4	6.6	236	13	3.9
2025-07-07T12:00	1260	869	12.1	6.7	236	14	3.9
2025-07-07T12:00	1280	867	12.0	6.4	236	14	3.9
2025-07-07T12:00	1300	865	11.9	6.4	236	13	3.9
2025-07-07T12:00	1320	863	11.7	6.4	235	13	3.9
2025-07-07T12:00	1340	861	11.6	6.3	235	13	3.9
2025-07-07T12:00	1360	859	11.3	6.2	234	13	3.9
2025-07-07T12:00	1380	857	11.2	6.2	234	13	3.9
2025-07-07T12:00	1400	855	11.0	6.2	233	13	3.9
2025-07-07T12:00	1420	853	10.7	6.2	233	14	3.9
2025-07-07T12:00	1440	851	10.6	5.9	233	14	3.9
2025-07-07T12:00	1460	849	10.4	5.9	233	14	3.9
2025-07-07T12:00	1480	847	10.3	5.8	233	14	3.9
2025-07-07T12:00	1500	845	10.2	5.7	233	14	3.9
2025-07-07T12:00	1520	843	10.1	5.7	233	14	3.9
2025-07-07T12:00	1540	841	9.9	5.7	233	14	3.9
2025-07-07T12:00	1560	838	9.7	5.5	234	14	3.9
2025-07-07T12:00	1580	836	9.5	5.5	234	15	3.9
2025-07-07T12:00	1600	834	9.3	5.5	234	15	3.9
2025-07-07T12:00	1620	832	9.2	5.3	234	15	3.9
2025-07-07T12:00	1640	830	9.1	5.1	234	15	3.9
2025-07-07T12:00	1660	828	8.9	5.1	234	15	3.9
2025-07-07T12:00	1680	827	8.8	5.1	234	15	3.9
2025-07-07T12:00	1700	825	8.6	5.0	233	15	3.9
2025-07-07T12:00	1720	823	8.4	5.0	233	15	3.9
2025-07-07T12:00	1740	820	8.2	4.8	233	15	3.9
2025-07-07T12:00	1760	818	8.1	4.7	232	15	3.9
2025-07-07T12:00	1780	817	7.9	4.6	232	15	3.9
2025-07-07T12:00	1800	815	7.8	4.4	231	15	3.9
2025-07-07T12:00	1820	813	7.8	3.9	231	15	3.9
2025-07-07T12:00	1840	811	7.7	3.7	231	15	3.9
2025-07-07T12:00	1860	809	7.5	3.7	231	15	3.9
2025-07-07T12:00	1880	807	7.3	3.5	231	15	3.9
2025-07-07T12:00	1900	805	7.1	3.4	231	15	3.9
2025-07-07T12:00	1920	803	7.0	3.4	231	15	3.9
2025-07-07T12:00	1940	801	6.8	3.3	232	15	3.9
2025-07-07T12:00	1960	799	6.6	3.2	232	15	3.9
2025-07-07T12:00	1980	797	6.5	3.2	233	15	3.9
2025-07-07T12:00	2000	795	6.2	3.1	234	15	4.0
2025-07-07T12:00	2020	793	6.1	2.8	234	15	3.9
2025-07-07T12:00	2040	791	6.0	2.4	235	15	3.9
2025-07-07T12:00	2060	789	5.9	2.2	236	15	3.9
2025-07-07T12:00	2080	787	5.8	2.1	237	15	3.9
2025-07-07T12:00	2100	785	5.6	2.0	237	15	4.0
2025-07-07T12:00	2120	783	5.5	2.0	238	16	4.0
2025-07-07T12:00	2140	781	5.3	1.6	238	16	4.0
2025-07-07T12:00	2160	780	5.2	1.3	239	16	4.0
2025-07-07T12:00	2180	778	5.2	1.2	239	16	4.0
2025-07-07T12:00	2200	776	5.2	0.7	239	16	4.0
2025-07-07T12:00	2220	774	5.2	0.5	240	16	4.0
2025-07-07T12:00	2240	772	5.0	0.4	240	16	4.0
2025-07-07T12:00	2260	770	4.8	0.3	240	16	4.0
2025-07-07T12:00	2280	768	4.6	0.2	239	16	4.0
2025-07-07T12:00	2300	766	4.5	0.2	239	16	4.0
2025-07-07T12:00	2320	765	4.4	0.1	239	16	4.0
2025-07-07T12:00	2340	763	4.1	0.0	239	16	4.0
2025-07-07T12:00	2360	761	4.1	-0.1	239	16	4.0
2025-07-07T12:00	2380	759	3.9	0.0	239	16	4.0
2025-07-07T12:00	2400	757	3.7	0.0	239	16	4.0
2025-07-07T12:00	2420	755	3.6	-0.1	240	16	4.0
2025-07-07T12:00	2440	753	3.4	-0.1	240	16	3.9
2025-07-07T12:00	2460	751	3.2	-0.2	240	16	3.9
2025-07-07T12:00	2480	750	3.0	-0.4	240	16	3.9
2025-07-07T12:00	2500	748	2.8	-1.0	239	16	3.9
2025-07-07T12:00	2520	746	2.8	-1.3	239	16	3.9
2025-07-07T12:00	2540	744	2.6	-1.3	240	15	3.9
2025-07-07T12:00	2560	742	2.6	-1.3	240	15	3.9
2025-07-07T12:00	2580	740	2.5	-1.4	240	15	4.0
2025-07-07T12:00	2600	739	2.3	-1.6	241	15	4.0
2025-07-07T12:00	2620	737	2.1	-1.8	241	14	3.9
2025-07-07T12:00	2640	735	1.9	-1.8	241	14	3.9
2025-07-07T12:00	2660	733	1.8	-1.6	240	14	3.9
2025-07-07T12:00	2680	731	1.7	-1.6	239	14	3.9
2025-07-07T12:00	2700	730	1.6	-1.4	238	14	3.9
2025-07-07T12:00	2720	728	1.5	-1.5	236	13	3.9
2025-07-07T12:00	2740	726	1.3	-1.5	235	14	3.9
2025-07-07T12:00	2760	724	1.2	-1.7	234	14	3.8
2025-07-07T12:00	2780	722	1.2	-1.9	234	14	3.8
2025-07-07T12:00	2800	720	1.0	-1.9	233	14	3.8
2025-07-07T12:00	2820	719	0.9	-2.2	233	14	3.8
2025-07-07T12:00	2840	717	0.8	-2.4	232	14	3.7
2025-07-07T12:00	2860	715	0.6	-2.5	232	14	3.8
2025-07-07T12:00	2880	714	0.5	-2.6	231	14	3.8
2025-07-07T12:00	2900	712	0.3	-2.7	231	14	3.8
2025-07-07T12:00	2920	710	0.1	-2.5	230	14	3.8
2025-07-07T12:00	2940	708	-0.1	-2.3	230	14	3.7
2025-07-07T12:00	2960	706	-0.2	-2.0	229	14	3.7
2025-07-07T12:00	2980	704	-0.4	-2.1	229	14	3.7
2025-07-07T12:00	3000	703	-0.4	-2.3	228	13	3.6
2025-07-07T12:00	3020	701	-0.5	-2.2	227	13	3.6
2025-07-07T12:00	3040	699	-0.6	-2.2	227	13	3.6
2025-07-07T12:00	3060	697	-0.8	-2.2	226	13	3.6
2025-07-07T12:00	3080	696	-0.9	-2.3	226	13	3.5
2025-07-07T12:00	3100	694	-1.1	-2.3	226	13	3.5
2025-07-07T12:00	3120	692	-1.2	-2.6	225	13	3.5
2025-07-07T12:00	3140	691	-1.3	-2.8	225	13	3.5
2025-07-07T12:00	3160	689	-1.6	-2.8	226	13	3.4
2025-07-07T12:00	3180	687	-1.8	-3.1	226	13	3.4
2025-07-07T12:00	3200	686	-1.9	-3.1	227	13	3.4
2025-07-07T12:00	3220	684	-2.1	-3.2	228	12	3.4
2025-07-07T12:00	3240	682	-2.1	-4.2	229	12	3.4
2025-07-07T12:00	3260	680	-2.1	-4.7	231	12	3.3
2025-07-07T12:00	3280	679	-2.0	-5.4	232	11	3.4
2025-07-07T12:00	3300	677	-2.1	-5.8	234	11	3.4
2025-07-07T12:00	3320	675	-2.2	-6.0	236	11	3.4
2025-07-07T12:00	3340	673	-2.3	-6.2	238	11	3.5
2025-07-07T12:00	3360	672	-2.4	-6.5	239	11	3.5
2025-07-07T12:00	3380	670	-2.3	-7.6	241	11	3.6
2025-07-07T12:00	3400	668	-2.2	-8.7	243	11	3.6
2025-07-07T12:00	3420	667	-2.2	-9.5	244	11	3.6
2025-07-07T12:00	3440	665	-2.2	-10.4	246	11	3.6
2025-07-07T12:00	3460	663	-2.4	-10.7	247	11	3.6
2025-07-07T12:00	3480	662	-2.5	-11.5	248	11	3.7
2025-07-07T12:00	3500	660	-2.6	-11.8	249	11	3.7
2025-07-07T12:00	3520	658	-2.7	-11.9	250	11	3.8
2025-07-07T12:00	3540	657	-2.8	-12.2	252	11	3.9
2025-07-07T12:00	3560	655	-2.9	-12.3	253	11	3.9
2025-07-07T12:00	3580	653	-3.1	-13.2	254	11	3.9
2025-07-07T12:00	3600	652	-3.1	-14.5	256	11	3.9
2025-07-07T12:00	3620	650	-3.3	-14.7	257	12	4.0
2025-07-07T12:00	3640	649	-3.2	-15.9	258	12	4.0
2025-07-07T12:00	3660	647	-3.2	-17.3	258	12	4.0
2025-07-07T12:00	3680	645	-3.3	-17.5	259	12	4.0
2025-07-07T12:00	3700	644	-3.5	-17.5	259	12	4.1
2025-07-07T12:00	3720	642	-3.7	-17.6	258	12	4.1
2025-07-07T12:00	3740	640	-3.8	-17.6	258	12	4.2
2025-07-07T12:00	3760	639	-4.0	-17.7	258	12	4.2
2025-07-07T12:00	3780	637	-4.2	-18.0	257	12	4.1
2025-07-07T12:00	3800	635	-4.3	-18.2	257	12	4.1
2025-07-07T12:00	3820	634	-4.5	-18.3	256	12	4.1
2025-07-07T12:00	3840	632	-4.7	-18.4	256	12	4.1
2025-07-07T12:00	3860	631	-4.8	-18.3	256	12	4.1
2025-07-07T12:00	3880	629	-5.0	-18.2	256	12	4.1
2025-07-07T12:00	3900	627	-5.2	-17.7	256	12	4.1
2025-07-07T12:00	3920	626	-5.3	-17.7	256	12	4.1
2025-07-07T12:00	3940	624	-5.5	-17.8	255	13	4.1
2025-07-07T12:00	3960	623	-5.6	-17.9	255	13	4.1
2025-07-07T12:00	3980	621	-5.8	-18.1	255	13	4.1
2025-07-07T12:00	4000	620	-5.9	-18.2	256	13	4.0
2025-07-07T12:00	4020	618	-6.1	-18.1	256	14	4.0
2025-07-07T12:00	4040	616	-6.4	-18.2	256	14	4.0
2025-07-07T12:00	4060	615	-6.5	-18.3	256	14	4.0
2025-07-07T12:00	4080	613	-6.7	-18.3	256	14	4.0
2025-07-07T12:00	4100	612	-6.8	-18.2	256	14	4.0
2025-07-07T12:00	4120	610	-6.9	-18.0	257	14	4.0
2025-07-07T12:00	4140	609	-7.0	-17.9	257	14	4.0
2025-07-07T12:00	4160	607	-7.2	-17.9	257	14	4.0
2025-07-07T12:00	4180	605	-7.4	-18.0	257	14	3.9
2025-07-07T12:00	4200	604	-7.5	-18.0	257	14	3.9
2025-07-07T12:00	4220	602	-7.7	-17.9	257	14	3.9
2025-07-07T12:00	4240	601	-7.9	-17.7	258	14	3.9
2025-07-07T12:00	4260	599	-8.0	-17.7	258	14	3.9
2025-07-07T12:00	4280	597	-8.2	-17.5	258	14	3.8
2025-07-07T12:00	4300	596	-8.4	-17.5	258	14	3.8
2025-07-07T12:00	4320	594	-8.5	-17.4	259	14	3.8
2025-07-07T12:00	4340	593	-8.7	-17.2	259	14	3.8
2025-07-07T12:00	4360	591	-8.8	-16.6	259	14	3.8
2025-07-07T12:00	4380	590	-9.0	-16.2	260	15	3.8
2025-07-07T12:00	4400	588	-9.1	-16.1	260	15	3.7
2025-07-07T12:00	4420	587	-9.4	-15.8	260	15	3.7
2025-07-07T12:00	4440	585	-9.6	-15.1	261	15	3.6
2025-07-07T12:00	4460	584	-9.7	-16.1	261	15	3.6
2025-07-07T12:00	4480	582	-9.7	-19.4	261	16	3.6
2025-07-07T12:00	4500	581	-9.8	-19.8	261	16	3.6
2025-07-07T12:00	4520	579	-9.9	-20.7	261	16	3.6
2025-07-07T12:00	4540	578	-10.0	-21.5	260	16	3.6
2025-07-07T12:00	4560	576	-9.8	-24.5	259	17	3.7
2025-07-07T12:00	4580	575	-9.8	-26.2	258	17	3.7
2025-07-07T12:00	4600	573	-9.8	-27.5	257	17	3.7
2025-07-07T12:00	4620	572	-9.8	-29.0	256	17	3.7
2025-07-07T12:00	4640	570	-9.8	-31.5	254	17	3.7
2025-07-07T12:00	4660	569	-9.9	-33.1	253	18	3.7
2025-07-07T12:00	4680	567	-10.0	-35.1	252	18	3.7
2025-07-07T12:00	4700	566	-10.1	-38.1	252	18	3.7
2025-07-07T12:00	4720	564	-10.2	-41.8	251	18	3.7
2025-07-07T12:00	4740	563	-10.2	-44.0	251	18	3.7
2025-07-07T12:00	4760	562	-10.4	-43.7	250	18	3.7
2025-07-07T12:00	4780	560	-10.4	-43.5	250	18	3.6
2025-07-07T12:00	4800	559	-10.3	-43.2	250	18	3.6
2025-07-07T12:00	4820	557	-10.4	-43.3	249	18	3.6
2025-07-07T12:00	4840	556	-10.5	-43.4	248	18	3.6
2025-07-07T12:00	4860	554	-10.5	-43.4	248	18	3.6
2025-07-07T12:00	4880	553	-10.5	-43.0	247	18	3.6
2025-07-07T12:00	4900	551	-10.6	-42.6	246	18	3.6
2025-07-07T12:00	4920	550	-10.8	-42.5	245	18	3.7
2025-07-07T12:00	4940	549	-10.8	-42.5	244	18	3.6
2025-07-07T12:00	4960	547	-11.0	-42.5	244	18	3.6
2025-07-07T12:00	4980	546	-11.3	-42.5	244	18	3.6
2025-07-07T12:00	5000	544	-11.4	-42.6	244	18	3.5
2025-07-07T12:00	5020	543	-11.5	-42.6	245	18	3.5
2025-07-07T12:00	5040	542	-11.8	-42.7	245	18	3.5
2025-07-07T12:00	5060	540	-11.9	-42.7	246	18	3.4
2025-07-07T12:00	5080	539	-12.1	-42.8	246	18	3.4
2025-07-07T12:00	5100	537	-12.3	-42.8	246	18	3.4
2025-07-07T12:00	5120	536	-12.4	-43.0	245	18	3.3
2025-07-07T12:00	5140	534	-12.4	-41.9	245	18	3.3
2025-07-07T12:00	5160	533	-12.5	-35.5	244	19	3.3
2025-07-07T12:00	5180	532	-12.6	-30.7	244	19	3.2
2025-07-07T12:00	5200	530	-12.6	-26.6	244	19	3.2
2025-07-07T12:00	5220	529	-12.6	-19.9	243	20	3.2
2025-07-07T12:00	5240	527	-12.7	-17.5	243	20	3.2
2025-07-07T12:00	5260	526	-12.9	-17.3	242	20	3.2
2025-07-07T12:00	5280	525	-13.1	-17.2	242	20	3.2
2025-07-07T12:00	5300	523	-13.3	-17.3	242	20	3.2
2025-07-07T12:00	5320	522	-13.5	-17.3	242	20	3.2
2025-07-07T12:00	5340	521	-13.7	-17.0	242	20	3.2
2025-07-07T12:00	5360	519	-13.9	-16.5	242	20	3.2
2025-07-07T12:00	5380	518	-14.0	-16.1	242	20	3.2
2025-07-07T12:00	5400	516	-14.2	-16.1	242	20	3.1
2025-07-07T12:00	5420	515	-14.3	-16.2	242	21	3.2
2025-07-07T12:00	5440	514	-14.5	-16.2	242	21	3.2
2025-07-07T12:00	5460	512	-14.7	-16.4	242	20	3.1
2025-07-07T12:00	5480	511	-14.8	-16.5	242	20	3.1
2025-07-07T12:00	5500	510	-15.1	-16.6	243	20	3.1
2025-07-07T12:00	5520	508	-15.3	-16.6	243	20	3.1
2025-07-07T12:00	5540	507	-15.5	-16.8	243	20	3.1
2025-07-07T12:00	5560	506	-15.6	-16.8	243	20	3.1
2025-07-07T12:00	5580	504	-15.8	-16.9	243	20	3.1
2025-07-07T12:00	5600	503	-16.0	-16.8	243	20	3.1
2025-07-07T12:00	5620	502	-16.2	-16.9	242	20	3.1
2025-07-07T12:00	5640	500	-16.4	-17.2	242	20	3.1
2025-07-07T12:00	5660	499	-16.4	-18.8	241	20	3.1
2025-07-07T12:00	5680	498	-16.3	-21.4	241	20	3.1
2025-07-07T12:00	5700	496	-16.0	-24.0	241	20	3.1
2025-07-07T12:00	5720	495	-16.1	-23.8	241	20	3.1
2025-07-07T12:00	5740	494	-16.2	-25.4	242	21	3.2
2025-07-07T12:00	5760	493	-16.2	-28.9	242	21	3.2
2025-07-07T12:00	5780	491	-15.8	-40.0	243	21	3.2
2025-07-07T12:00	5800	490	-15.8	-40.2	243	21	3.3
2025-07-07T12:00	5820	488	-15.9	-39.1	244	21	3.3
2025-07-07T12:00	5840	487	-16.0	-38.9	244	22	3.3
2025-07-07T12:00	5860	486	-16.2	-38.6	245	22	3.3
2025-07-07T12:00	5880	485	-16.3	-38.0	245	22	3.2
2025-07-07T12:00	5900	483	-16.5	-37.7	246	23	3.1
2025-07-07T12:00	5920	482	-16.7	-37.3	247	23	3.1
2025-07-07T12:00	5940	481	-16.8	-36.8	247	23	3.0
2025-07-07T12:00	5960	479	-17.0	-36.6	248	23	2.9
2025-07-07T12:00	5980	478	-17.1	-36.0	248	23	2.9
2025-07-07T12:00	6000	477	-17.4	-35.3	248	24	2.8
2025-07-07T12:00	6020	476	-17.5	-35.2	248	24	2.7
2025-07-07T12:00	6040	474	-17.6	-35.0	248	24	2.7
2025-07-07T12:00	6060	473	-17.8	-34.9	248	24	2.6
2025-07-07T12:00	6080	472	-18.0	-35.0	248	24	2.6
2025-07-07T12:00	6100	470	-18.1	-35.3	248	24	2.5
2025-07-07T12:00	6120	469	-18.3	-35.7	248	25	2.5
2025-07-07T12:00	6140	468	-18.3	-35.9	249	25	2.4
2025-07-07T12:00	6160	467	-18.5	-36.0	249	25	2.4
2025-07-07T12:00	6180	466	-18.7	-36.4	250	26	2.4
2025-07-07T12:00	6200	464	-18.7	-37.1	250	26	2.4
2025-07-07T12:00	6220	463	-18.7	-37.4	250	26	2.4
2025-07-07T12:00	6240	462	-18.7	-37.3	251	26	2.3
2025-07-07T12:00	6260	461	-18.8	-37.4	251	27	2.3
2025-07-07T12:00	6280	459	-18.9	-37.2	251	27	2.3
2025-07-07T12:00	6300	458	-19.0	-37.1	251	27	2.4
2025-07-07T12:00	6320	457	-19.1	-35.8	252	27	2.4
2025-07-07T12:00	6340	456	-19.1	-35.5	252	27	2.4
2025-07-07T12:00	6360	454	-19.2	-37.1	252	28	2.4
2025-07-07T12:00	6380	453	-19.3	-38.1	252	28	2.4
2025-07-07T12:00	6400	452	-19.5	-38.4	252	28	2.4
2025-07-07T12:00	6420	451	-19.5	-39.0	252	28	2.4
2025-07-07T12:00	6440	450	-19.7	-39.0	252	28	2.5
2025-07-07T12:00	6460	448	-19.9	-39.1	252	28	2.5
2025-07-07T12:00	6480	447	-20.1	-39.3	253	28	2.5
2025-07-07T12:00	6500	446	-20.2	-39.0	253	29	2.5
2025-07-07T12:00	6520	445	-20.3	-38.6	254	29	2.5
2025-07-07T12:00	6540	444	-20.5	-38.4	254	29	2.5
2025-07-07T12:00	6560	442	-20.7	-38.3	254	29	2.5
2025-07-07T12:00	6580	441	-20.8	-38.3	254	29	2.6
2025-07-07T12:00	6600	440	-21.0	-38.4	255	29	2.6
2025-07-07T12:00	6620	439	-21.1	-38.5	255	29	2.6
2025-07-07T12:00	6640	438	-21.3	-38.3	254	29	2.6
2025-07-07T12:00	6660	436	-21.5	-37.1	254	29	2.6
2025-07-07T12:00	6680	435	-21.7	-36.1	254	29	2.5
2025-07-07T12:00	6700	434	-21.8	-36.0	254	29	2.5
2025-07-07T12:00	6720	433	-22.0	-36.0	254	29	2.5
2025-07-07T12:00	6740	432	-22.1	-35.9	253	29	2.5
2025-07-07T12:00	6760	431	-22.3	-36.0	253	30	2.5
2025-07-07T12:00	6780	429	-22.5	-35.9	253	30	2.5
2025-07-07T12:00	6800	428	-22.7	-35.8	253	30	2.5
2025-07-07T12:00	6820	427	-22.9	-35.9	254	30	2.4
2025-07-07T12:00	6840	426	-23.1	-35.9	254	30	2.4
2025-07-07T12:00	6860	425	-23.3	-35.9	254	30	2.4
2025-07-07T12:00	6880	424	-23.4	-36.1	254	30	2.4
2025-07-07T12:00	6900	422	-23.5	-36.4	254	30	2.4
2025-07-07T12:00	6920	421	-23.7	-36.7	254	31	2.4
2025-07-07T12:00	6940	420	-23.8	-37.0	254	31	2.4
2025-07-07T12:00	6960	419	-23.9	-37.2	254	31	2.4
2025-07-07T12:00	6980	418	-24.0	-37.7	254	31	2.4
2025-07-07T12:00	7000	417	-24.1	-38.2	254	31	2.4
2025-07-07T12:00	7020	415	-24.2	-38.3	254	32	2.4
2025-07-07T12:00	7040	414	-24.3	-38.3	254	32	2.4
2025-07-07T12:00	7060	413	-24.5	-38.5	254	32	2.4
2025-07-07T12:00	7080	412	-24.5	-39.0	254	32	2.4
2025-07-07T12:00	7100	411	-24.7	-39.5	254	32	2.4
2025-07-07T12:00	7120	410	-24.9	-39.3	254	32	2.4
2025-07-07T12:00	7140	409	-25.0	-39.1	253	32	2.4
2025-07-07T12:00	7160	408	-25.2	-39.1	253	32	2.4
2025-07-07T12:00	7180	407	-25.3	-40.1	253	32	2.4
2025-07-07T12:00	7200	405	-25.4	-40.0	253	32	2.4
2025-07-07T12:00	7220	404	-25.5	-39.8	253	32	2.4
2025-07-07T12:00	7240	403	-25.7	-40.1	253	32	2.4
2025-07-07T12:00	7260	402	-25.8	-40.1	253	32	2.4
2025-07-07T12:00	7280	401	-26.0	-40.5	253	32	2.5
2025-07-07T12:00	7300	400	-26.2	-41.2	254	32	2.4
2025-07-07T12:00	7320	399	-26.4	-41.4	254	32	2.4
2025-07-07T12:00	7340	397	-26.5	-42.1	254	32	2.4
2025-07-07T12:00	7360	396	-26.6	-42.9	254	32	2.4
2025-07-07T12:00	7380	395	-26.7	-43.0	254	32	2.4
2025-07-07T12:00	7400	394	-26.9	-42.9	254	32	2.4
2025-07-07T12:00	7420	393	-27.1	-42.8	254	32	2.4
2025-07-07T12:00	7440	392	-27.2	-42.9	254	32	2.5
2025-07-07T12:00	7460	391	-27.4	-43.0	254	32	2.5
2025-07-07T12:00	7480	390	-27.6	-43.1	254	32	2.6
2025-07-07T12:00	7500	389	-27.7	-43.4	254	32	2.6
2025-07-07T12:00	7520	388	-27.9	-43.6	254	32	2.7
2025-07-07T12:00	7540	387	-28.0	-43.6	253	32	2.7
2025-07-07T12:00	7560	386	-28.2	-43.8	253	32	2.8
2025-07-07T12:00	7580	384	-28.3	-44.0	253	32	2.9
2025-07-07T12:00	7600	383	-28.5	-44.1	253	32	2.9
2025-07-07T12:00	7620	383	-28.6	-44.0	253	32	2.9
2025-07-07T12:00	7640	381	-28.8	-44.1	253	32	3.0
2025-07-07T12:00	7660	380	-29.0	-44.0	253	32	3.0
2025-07-07T12:00	7680	379	-29.2	-44.1	253	32	3.1
2025-07-07T12:00	7700	378	-29.4	-44.4	253	32	3.1
2025-07-07T12:00	7720	377	-29.6	-44.6	253	32	3.0
2025-07-07T12:00	7740	376	-29.6	-44.6	253	33	3.0
2025-07-07T12:00	7760	375	-29.8	-44.5	253	33	3.0
2025-07-07T12:00	7780	374	-30.0	-44.7	252	33	3.0
2025-07-07T12:00	7800	373	-30.1	-45.7	252	33	3.0
2025-07-07T12:00	7820	372	-30.2	-46.2	252	33	3.0
2025-07-07T12:00	7840	371	-30.3	-46.0	252	33	3.0
2025-07-07T12:00	7860	370	-30.4	-46.4	252	33	3.0
2025-07-07T12:00	7880	369	-30.5	-46.8	252	33	3.0
2025-07-07T12:00	7900	368	-30.7	-46.8	252	33	3.0
2025-07-07T12:00	7920	367	-30.9	-46.8	252	33	3.0
2025-07-07T12:00	7940	366	-31.0	-46.9	252	33	3.0
2025-07-07T12:00	7960	365	-31.2	-47.0	252	34	3.0
2025-07-07T12:00	7980	364	-31.4	-46.9	252	34	3.0
2025-07-07T12:00	8000	363	-31.6	-47.0	252	33	3.0
2025-07-07T12:00	8020	362	-31.8	-47.0	252	33	3.0
2025-07-07T12:00	8040	361	-32.0	-47.1	252	33	3.0
2025-07-07T12:00	8060	360	-32.2	-47.1	252	33	3.0
2025-07-07T12:00	8080	358	-32.4	-47.1	252	33	3.0
2025-07-07T12:00	8100	357	-32.6	-47.2	252	33	2.9
2025-07-07T12:00	8120	356	-32.8	-47.3	252	33	2.9
2025-07-07T12:00	8140	355	-33.0	-47.3	252	33	2.9
2025-07-07T12:00	8160	354	-33.2	-47.3	252	33	2.9
2025-07-07T12:00	8180	353	-33.4	-47.5	252	33	2.9
2025-07-07T12:00	8200	352	-33.6	-47.7	252	33	2.9
2025-07-07T12:00	8220	351	-33.8	-47.8	253	33	2.9
2025-07-07T12:00	8240	350	-34.0	-47.8	253	33	2.9
2025-07-07T12:00	8260	349	-34.1	-47.8	253	33	2.9
2025-07-07T12:00	8280	348	-34.3	-48.1	253	33	2.8
2025-07-07T12:00	8300	347	-34.6	-48.9	253	33	2.8
2025-07-07T12:00	8320	346	-34.8	-50.0	253	33	2.8
2025-07-07T12:00	8340	345	-34.9	-50.5	253	33	2.8
2025-07-07T12:00	8360	344	-35.1	-51.0	253	33	2.8
2025-07-07T12:00	8380	343	-35.2	-51.5	253	33	2.9
2025-07-07T12:00	8400	342	-35.1	-52.3	253	33	3.0
2025-07-07T12:00	8420	342	-35.2	-52.5	253	33	3.2
2025-07-07T12:00	8440	341	-35.4	-52.6	253	33	3.4
2025-07-07T12:00	8460	340	-35.4	-52.8	253	33	3.6
2025-07-07T12:00	8480	339	-35.5	-52.8	252	33	3.8
2025-07-07T12:00	8500	338	-35.7	-52.9	252	33	3.9
2025-07-07T12:00	8520	337	-35.9	-52.8	252	33	4.1
2025-07-07T12:00	8540	336	-36.1	-52.8	252	33	4.2
2025-07-07T12:00	8560	335	-36.3	-52.9	252	34	4.3
2025-07-07T12:00	8580	334	-36.5	-52.9	252	34	4.3
2025-07-07T12:00	8600	333	-36.7	-53.0	252	34	4.4
2025-07-07T12:00	8620	332	-36.9	-52.9	252	34	4.4
2025-07-07T12:00	8640	331	-37.0	-52.9	252	34	4.4
2025-07-07T12:00	8660	330	-37.2	-52.9	252	34	4.5
2025-07-07T12:00	8680	329	-37.4	-52.9	251	35	4.5
2025-07-07T12:00	8700	328	-37.6	-53.0	251	35	4.5
2025-07-07T12:00	8720	327	-37.8	-53.0	251	35	4.4
2025-07-07T12:00	8740	326	-38.0	-53.0	251	35	4.4
2025-07-07T12:00	8760	325	-38.2	-53.1	251	35	4.4
2025-07-07T12:00	8780	324	-38.4	-53.0	251	35	4.3
2025-07-07T12:00	8800	323	-38.5	-53.0	251	36	4.2
2025-07-07T12:00	8820	322	-38.7	-53.2	251	36	4.1
2025-07-07T12:00	8840	321	-38.8	-53.3	251	36	4.1
2025-07-07T12:00	8860	320	-39.0	-53.4	251	36	4.0
2025-07-07T12:00	8880	319	-39.2	-53.4	251	36	3.9
2025-07-07T12:00	8900	319	-39.3	-53.5	251	37	3.8
2025-07-07T12:00	8920	318	-39.5	-53.5	251	37	3.7
2025-07-07T12:00	8940	317	-39.7	-53.5	251	37	3.6
2025-07-07T12:00	8960	316	-39.9	-53.4	251	37	3.6
2025-07-07T12:00	8980	315	-40.0	-53.4	251	37	3.5
2025-07-07T12:00	9000	314	-40.1	-53.6	251	37	3.4
2025-07-07T12:00	9020	313	-40.3	-53.6	251	38	3.4
2025-07-07T12:00	9040	312	-40.5	-53.5	251	38	3.3
2025-07-07T12:00	9060	311	-40.7	-53.6	251	38	3.3
2025-07-07T12:00	9080	310	-40.9	-53.9	251	38	3.2
2025-07-07T12:00	9100	309	-41.0	-54.2	251	38	3.2
2025-07-07T12:00	9120	308	-41.1	-54.7	251	38	3.2
2025-07-07T12:00	9140	307	-41.3	-54.6	251	38	3.1
2025-07-07T12:00	9160	306	-41.4	-54.6	251	38	3.1
2025-07-07T12:00	9180	306	-41.6	-54.7	251	39	3.1
2025-07-07T12:00	9200	305	-41.7	-54.8	251	39	3.1
2025-07-07T12:00	9220	304	-41.9	-54.8	251	39	3.1
2025-07-07T12:00	9240	303	-42.0	-54.8	251	39	3.1
2025-07-07T12:00	9260	302	-42.2	-55.0	251	40	3.1
2025-07-07T12:00	9280	301	-42.2	-55.7	252	40	3.2
2025-07-07T12:00	9300	300	-42.1	-56.3	252	40	3.2
2025-07-07T12:00	9320	299	-42.1	-56.5	253	40	3.2
2025-07-07T12:00	9340	299	-42.2	-56.4	253	41	3.2
2025-07-07T12:00	9360	298	-42.3	-56.5	254	41	3.2
2025-07-07T12:00	9380	297	-42.3	-57.0	254	41	3.2
2025-07-07T12:00	9400	296	-42.2	-57.3	255	41	3.2
2025-07-07T12:00	9420	295	-42.1	-57.3	256	41	3.3
2025-07-07T12:00	9440	294	-42.1	-57.4	257	42	3.4
2025-07-07T12:00	9460	293	-42.1	-57.5	258	42	3.4
2025-07-07T12:00	9480	293	-42.1	-57.6	258	42	3.5
2025-07-07T12:00	9500	292	-42.2	-57.7	259	42	3.6
2025-07-07T12:00	9520	291	-42.3	-57.7	259	42	3.7
2025-07-07T12:00	9540	290	-42.4	-57.8	260	42	3.7
2025-07-07T12:00	9560	289	-42.5	-58.0	260	42	3.8
2025-07-07T12:00	9580	288	-42.6	-58.0	261	42	3.9
2025-07-07T12:00	9600	287	-42.7	-58.0	261	42	3.9
2025-07-07T12:00	9620	287	-42.9	-57.9	262	42	4.0
2025-07-07T12:00	9640	286	-43.0	-57.9	262	41	4.0
2025-07-07T12:00	9660	285	-43.2	-58.0	263	41	4.1
2025-07-07T12:00	9680	284	-43.3	-58.0	263	41	4.2
2025-07-07T12:00	9700	283	-43.5	-58.1	263	41	4.2
2025-07-07T12:00	9720	282	-43.5	-58.1	263	40	4.2
2025-07-07T12:00	9740	281	-43.6	-58.1	264	40	4.3
2025-07-07T12:00	9760	281	-43.6	-58.3	264	39	4.4
2025-07-07T12:00	9780	280	-43.7	-58.5	263	39	4.5
2025-07-07T12:00	9800	279	-43.8	-58.6	263	39	4.6
2025-07-07T12:00	9820	278	-43.8	-58.8	263	39	4.8
2025-07-07T12:00	9840	277	-43.7	-59.1	263	39	4.9
2025-07-07T12:00	9860	276	-43.7	-59.4	262	39	5.1
2025-07-07T12:00	9880	276	-43.8	-59.7	262	39	5.2
2025-07-07T12:00	9900	275	-43.8	-59.9	262	39	5.4
2025-07-07T12:00	9920	274	-43.8	-60.1	261	39	5.5
2025-07-07T12:00	9940	273	-43.8	-60.4	261	40	5.6
2025-07-07T12:00	9960	272	-43.9	-60.5	261	40	5.7
2025-07-07T12:00	9980	271	-43.9	-60.6	262	40	5.7
2025-07-07T12:00	10000	271	-44.1	-60.7	262	40	5.8
2025-07-07T12:00	10018	270	-44.2	-60.7	262	40	5.8
2025-07-07T12:00	10050	269	-44.3	-61.0	262	40	5.9
2025-07-07T12:00	10100	267	-44.4	-61.5	263	40	6.0
2025-07-07T12:00	10150	265	-44.4	-61.9	263	39	6.1
2025-07-07T12:00	10200	263	-44.5	-62.2	263	38	6.2
2025-07-07T12:00	10250	261	-44.7	-62.5	264	37	6.3
2025-07-07T12:00	10300	259	-44.9	-62.8	264	37	6.5
2025-07-07T12:00	10350	257	-45.1	-63.2	265	36	6.7
2025-07-07T12:00	10400	255	-44.9	-64.1	265	36	6.8
2025-07-07T12:00	10450	253	-44.5	-65.3	264	35	7.0
2025-07-07T12:00	10500	251	-44.7	-65.5	263	35	7.2
2025-07-07T12:00	10550	249	-44.9	-65.8	262	35	7.4
2025-07-07T12:00	10600	247	-45.2	-66.0	260	35	7.5
2025-07-07T12:00	10650	246	-45.1	-66.3	259	35	7.6
2025-07-07T12:00	10700	244	-45.2	-66.5	259	35	7.7
2025-07-07T12:00	10750	242	-45.4	-66.6	260	35	7.6
2025-07-07T12:00	10800	240	-45.5	-67.1	262	35	7.6
2025-07-07T12:00	10850	238	-45.7	-67.3	263	36	7.6
2025-07-07T12:00	10900	236	-45.9	-67.4	263	36	7.5
2025-07-07T12:00	10950	235	-46.0	-67.5	262	37	7.5
2025-07-07T12:00	11000	233	-46.2	-67.8	261	36	7.4
2025-07-07T12:00	11050	231	-46.2	-68.7	261	35	7.3
2025-07-07T12:00	11100	230	-45.7	-69.4	260	34	7.3
2025-07-07T12:00	11150	228	-45.5	-69.6	258	33	7.4
2025-07-07T12:00	11200	226	-45.6	-69.7	257	33	7.4
2025-07-07T12:00	11250	224	-45.5	-70.1	256	32	7.5
2025-07-07T12:00	11300	223	-45.5	-71.3	255	32	7.6
2025-07-07T12:00	11350	221	-45.0	-73.5	254	31	7.7
2025-07-07T12:00	11400	219	-44.1	-74.9	253	31	7.9
2025-07-07T12:00	11450	218	-44.0	-74.9	251	30	8.1
2025-07-07T12:00	11500	216	-44.2	-75.1	250	30	8.3
2025-07-07T12:00	11550	215	-44.5	-75.4	249	30	8.5
2025-07-07T12:00	11600	213	-44.7	-75.7	249	30	8.7
2025-07-07T12:00	11650	211	-44.7	-76.1	250	30	8.8
2025-07-07T12:00	11700	210	-44.7	-76.4	251	30	9.0
2025-07-07T12:00	11750	208	-44.8	-76.8	252	30	9.1
2025-07-07T12:00	11800	207	-44.7	-77.3	252	30	9.0
2025-07-07T12:00	11850	205	-44.6	-77.6	251	31	9.0
2025-07-07T12:00	11900	204	-44.9	-77.7	251	31	9.3
2025-07-07T12:00	11950	202	-45.1	-77.6	251	32	9.5
2025-07-07T12:00	12000	201	-45.4	-77.4	252	32	9.5
2025-07-07T12:00	12050	199	-45.5	-77.4	252	33	9.4
2025-07-07T12:00	12100	198	-45.5	-76.9	253	34	9.1
2025-07-07T12:00	12150	196	-45.5	-76.3	253	34	9.0
2025-07-07T12:00	12200	195	-45.3	-75.9	253	34	8.4
2025-07-07T12:00	12250	193	-45.1	-76.1	253	33	7.5
2025-07-07T12:00	12300	192	-45.0	-76.5	253	32	6.7
2025-07-07T12:00	12350	190	-45.0	-76.7	253	31	6.1
2025-07-07T12:00	12400	189	-44.9	-76.8	255	31	5.6
2025-07-07T12:00	12450	188	-45.0	-76.9	257	30	5.2
2025-07-07T12:00	12500	186	-45.3	-77.1	259	29	5.0
2025-07-07T12:00	12550	185	-45.4	-77.3	260	28	4.9
2025-07-07T12:00	12600	183	-45.3	-77.3	261	27	4.9
2025-07-07T12:00	12650	182	-45.4	-77.4	262	26	5.0
2025-07-07T12:00	12700	181	-45.6	-77.5	262	25	4.9
2025-07-07T12:00	12750	179	-45.9	-77.7	261	24	4.9
2025-07-07T12:00	12800	178	-46.1	-77.7	261	23	4.8
2025-07-07T12:00	12850	177	-46.3	-77.7	259	22	4.8
2025-07-07T12:00	12900	175	-46.4	-77.8	257	21	4.8
2025-07-07T12:00	12950	174	-46.3	-77.7	252	20	4.9
2025-07-07T12:00	13000	173	-46.1	-77.6	248	20	4.9
2025-07-07T12:00	13050	171	-46.2	-77.6	246	21	4.9
2025-07-07T12:00	13100	170	-46.4	-77.6	245	22	5.0
2025-07-07T12:00	13150	169	-46.7	-77.7	244	23	5.0
2025-07-07T12:00	13200	167	-47.2	-77.8	243	24	5.0
2025-07-07T12:00	13250	166	-47.6	-78.0	242	25	5.0
2025-07-07T12:00	13300	165	-47.8	-78.0	243	26	4.9
2025-07-07T12:00	13350	164	-48.0	-78.3	246	25	4.9
2025-07-07T12:00	13400	163	-47.7	-78.6	249	24	4.9
2025-07-07T12:00	13450	161	-47.3	-78.9	252	23	5.0
2025-07-07T12:00	13500	160	-47.0	-79.1	254	21	5.0
2025-07-07T12:00	13550	159	-47.0	-79.4	254	20	5.1
2025-07-07T12:00	13600	158	-46.7	-79.5	254	19	5.1
2025-07-07T12:00	13650	157	-46.6	-79.7	253	19	5.2
2025-07-07T12:00	13700	155	-46.8	-79.9	251	19	5.2
2025-07-07T12:00	13750	154	-47.0	-80.0	250	19	5.1
2025-07-07T12:00	13800	153	-47.3	-80.2	249	19	5.0
2025-07-07T12:00	13850	152	-47.7	-80.3	248	18	4.8
2025-07-07T12:00	13900	151	-48.2	-80.4	246	18	4.6
2025-07-07T12:00	13950	150	-48.5	-80.6	244	18	4.5
2025-07-07T12:00	14000	148	-48.9	-80.7	242	19	4.4
2025-07-07T12:00	14050	147	-49.2	-80.8	242	19	4.3
2025-07-07T12:00	14100	146	-49.4	-80.9	242	20	4.1
2025-07-07T12:00	14150	145	-49.7	-81.0	243	21	4.0
2025-07-07T12:00	14200	144	-50.1	-81.2	243	22	3.9
2025-07-07T12:00	14250	143	-50.3	-81.3	245	23	3.8
2025-07-07T12:00	14300	142	-50.4	-81.4	246	23	3.7
2025-07-07T12:00	14350	141	-50.4	-81.6	248	23	3.6
2025-07-07T12:00	14400	140	-50.6	-81.7	250	23	3.5
2025-07-07T12:00	14450	139	-50.7	-81.8	251	23	3.5
2025-07-07T12:00	14500	138	-50.8	-81.8	252	22	3.5
2025-07-07T12:00	14550	136	-50.9	-81.8	252	22	3.5
2025-07-07T12:00	14600	135	-51.1	-82.0	252	22	3.4
2025-07-07T12:00	14650	134	-51.4	-82.1	251	22	3.4
2025-07-07T12:00	14700	133	-51.3	-82.1	251	22	3.4
2025-07-07T12:00	14750	132	-51.4	-82.1	250	23	3.4
2025-07-07T12:00	14800	131	-51.8	-82.2	250	23	3.4
2025-07-07T12:00	14850	130	-52.2	-82.3	250	23	3.4
2025-07-07T12:00	14900	129	-52.6	-82.4	250	24	3.4
2025-07-07T12:00	14950	128	-53.1	-82.5	251	24	3.4
2025-07-07T12:00	15000	127	-53.5	-82.6	253	24	3.4
2025-07-07T12:00	15050	126	-53.6	-82.8	255	24	3.3
2025-07-07T12:00	15100	125	-53.9	-83.0	257	24	3.3
2025-07-07T12:00	15150	124	-54.2	-83.2	258	24	3.3
2025-07-07T12:00	15200	123	-54.2	-83.2	261	22	3.3
2025-07-07T12:00	15250	122	-54.1	-83.3	264	21	3.3
2025-07-07T12:00	15300	121	-53.8	-83.5	267	20	3.4
2025-07-07T12:00	15350	121	-53.3	-83.6	269	19	3.5
2025-07-07T12:00	15400	120	-52.8	-83.4	270	17	3.6
2025-07-07T12:00	15450	119	-53.0	-83.6	272	16	3.7
2025-07-07T12:00	15500	118	-52.9	-83.4	274	15	3.8
2025-07-07T12:00	15550	117	-53.0	-83.3	275	13	4.0
2025-07-07T12:00	15600	116	-53.3	-83.5	272	12	4.1
2025-07-07T12:00	15650	115	-53.4	-83.7	263	11	4.2
2025-07-07T12:00	15700	114	-53.4	-83.9	252	11	4.3
2025-07-07T12:00	15750	113	-53.0	-83.9	243	12	4.3
2025-07-07T12:00	15800	112	-52.5	-83.8	241	12	4.5
2025-07-07T12:00	15850	112	-52.0	-83.6	245	13	4.9
2025-07-07T12:00	15900	111	-52.0	-83.7	254	14	5.6
2025-07-07T12:00	15950	110	-51.5	-83.7	257	13	6.1
2025-07-07T12:00	16000	109	-51.0	-83.6	255	11	6.6
2025-07-07T12:00	16050	108	-50.8	-83.6	245	9	7.0
2025-07-07T12:00	16100	107	-50.7	-83.5	233	9	7.1
2025-07-07T12:00	16150	107	-50.7	-83.5	224	9	7.2
2025-07-07T12:00	16200	106	-51.1	-83.6	218	10	7.3
2025-07-07T12:00	16250	105	-51.4	-83.5	216	10	7.3
2025-07-07T12:00	16300	104	-51.9	-83.5	215	10	7.3
2025-07-07T12:00	16350	103	-52.3	-83.6	215	10	7.3
2025-07-07T12:00	16400	102	-52.8	-83.7	214	10	7.2
2025-07-07T12:00	16450	102	-53.2	-83.8	213	10	7.1
2025-07-07T12:00	16500	101	-53.7	-83.9	213	11	7.2
2025-07-07T12:00	16550	100	-54.2	-84.1	215	12	7.1
2025-07-07T12:00	16600	99	-54.6	-84.3	218	13	7.0
2025-07-07T12:00	16650	99	-54.6	-84.5	223	12	7.0
2025-07-07T12:00	16700	98	-54.6	-84.7	228	12	6.9
2025-07-07T12:00	16750	97	-54.3	-84.6	230	12	6.8
2025-07-07T12:00	16800	96	-54.3	-84.6	229	12	6.8
2025-07-07T12:00	16850	96	-54.6	-84.6	228	12	6.7
2025-07-07T12:00	16900	95	-55.0	-84.8	228	13	6.7
2025-07-07T12:00	16950	94	-55.0	-84.9	228	12	6.6
2025-07-07T12:00	17000	93	-54.7	-84.8	226	12	6.6
2025-07-07T12:00	17050	93	-55.0	-84.9	227	12	6.8
2025-07-07T12:00	17100	92	-55.1	-85.0	230	12	6.9
2025-07-07T12:00	17150	91	-55.0	-85.0	234	13	7.0
2025-07-07T12:00	17200	90	-55.0	-85.1	238	14	7.3
2025-07-07T12:00	17250	90	-54.7	-85.2	243	13	7.7
2025-07-07T12:00	17300	89	-54.2	-85.3	247	11	8.0
2025-07-07T12:00	17350	88	-53.4	-85.1	248	10	8.4
2025-07-07T12:00	17400	88	-52.8	-85.0	245	9	8.6
2025-07-07T12:00	17450	87	-52.5	-84.8	237	9	8.8
2025-07-07T12:00	17500	86	-52.3	-84.6	228	9	8.9
2025-07-07T12:00	17550	86	-52.4	-84.5	223	10	8.6
2025-07-07T12:00	17600	85	-52.6	-84.5	219	10	8.1
2025-07-07T12:00	17650	84	-52.9	-84.5	220	10	7.6
2025-07-07T12:00	17700	84	-53.3	-84.6	223	10	7.3
2025-07-07T12:00	17750	83	-53.7	-84.8	226	10	7.1
2025-07-07T12:00	17800	82	-53.5	-84.8	228	10	6.9
2025-07-07T12:00	17850	82	-53.4	-84.8	228	9	6.7
2025-07-07T12:00	17900	81	-53.7	-84.9	226	8	6.6
2025-07-07T12:00	17950	80	-53.8	-84.9	224	7	6.5
2025-07-07T12:00	18000	80	-53.9	-85.0	221	6	6.5
2025-07-07T12:00	18050	79	-54.1	-85.0	218	6	6.4
2025-07-07T12:00	18100	79	-54.4	-85.0	216	6	6.4
2025-07-07T12:00	18150	78	-54.6	-85.1	213	6	6.4
2025-07-07T12:00	18200	77	-54.7	-85.1	206	5	6.4
2025-07-07T12:00	18250	77	-54.5	-84.9	193	4	6.4
2025-07-07T12:00	18300	76	-54.5	-84.7	183	4	6.4
2025-07-07T12:00	18350	76	-55.1	-84.8	177	5	6.4
2025-07-07T12:00	18400	75	-55.5	-84.9	176	5	6.5
2025-07-07T12:00	18450	74	-56.0	-85.0	179	5	6.5
2025-07-07T12:00	18500	74	-56.5	-85.3	186	6	6.5
2025-07-07T12:00	18550	73	-56.3	-85.3	196	6	6.5
2025-07-07T12:00	18600	73	-56.3	-85.4	200	7	6.6
2025-07-07T12:00	18650	72	-56.5	-85.6	198	7	6.7
2025-07-07T12:00	18700	72	-56.6	-85.6	197	7	6.8
2025-07-07T12:00	18750	71	-56.9	-85.8	197	8	6.8
2025-07-07T12:00	18800	70	-57.2	-85.9	200	8	6.8
2025-07-07T12:00	18850	70	-57.3	-86.1	206	9	6.8
2025-07-07T12:00	18900	69	-56.8	-86.1	214	9	6.9
2025-07-07T12:00	18950	69	-56.5	-86.2	221	9	7.0
2025-07-07T12:00	19000	68	-56.3	-86.3	225	8	7.2
2025-07-07T12:00	19050	68	-56.0	-86.1	226	8	7.4
2025-07-07T12:00	19100	67	-56.4	-86.2	230	7	7.7
2025-07-07T12:00	19150	67	-56.4	-86.3	236	6	7.9
2025-07-07T12:00	19200	66	-55.7	-86.1	243	6	8.2
2025-07-07T12:00	19250	66	-55.5	-86.0	249	6	8.7
2025-07-07T12:00	19300	65	-55.7	-86.0	256	6	9.0
2025-07-07T12:00	19350	65	-55.7	-86.0	264	6	9.2
2025-07-07T12:00	19400	64	-55.5	-86.0	268	5	9.4
2025-07-07T12:00	19450	64	-55.5	-86.0	268	5	9.6
2025-07-07T12:00	19500	63	-55.4	-86.0	263	4	9.8
2025-07-07T12:00	19550	63	-55.5	-86.0	251	4	10.0
2025-07-07T12:00	19600	62	-55.3	-85.9	234	4	10.2
2025-07-07T12:00	19650	62	-55.5	-86.0	222	4	10.3
2025-07-07T12:00	19700	61	-55.5	-85.9	221	4	10.3
2025-07-07T12:00	19750	61	-55.4	-85.9	229	4	10.3
2025-07-07T12:00	19800	60	-55.5	-86.1	238	4	10.3
2025-07-07T12:00	19850	60	-55.2	-86.2	246	3	10.3
2025-07-07T12:00	19900	59	-55.0	-86.4	250	2	10.1
2025-07-07T12:00	19950	59	-54.0	-86.2	236	1	10.2
2025-07-07T12:00	20000	58	-53.4	-86.0	198	1	10.2
2025-07-07T12:00	20050	58	-53.3		181	2	10.2
2025-07-07T12:00	20100	57	-53.1		170	3	10.3
2025-07-07T12:00	20150	57	-53.1		160	3	10.5
2025-07-07T12:00	20200	57	-53.1		153	4	10.7
2025-07-07T12:00	20250	56	-52.9		153	5	10.9
2025-07-07T12:00	20300	56	-53.2		157	5	11.1
2025-07-07T12:00	20350	55	-53.6		167	5	11.3
2025-07-07T12:00	20400	55	-54.0		181	4	11.4
2025-07-07T12:00	20450	54	-53.9		202	4	11.3
2025-07-07T12:00	20500	54	-53.5		231	3	11.5
2025-07-07T12:00	20550	54	-53.1		263	2	11.7
2025-07-07T12:00	20600	53	-52.5		299	1	11.9
2025-07-07T12:00	20650	53	-52.0		8	1	11.9
2025-07-07T12:00	20700	52	-52.0		69	1	12.1
2025-07-07T12:00	20750	52	-52.3		91	2	12.1
2025-07-07T12:00	20800	52	-52.3		107	3	12.2
2025-07-07T12:00	20850	51	-52.1		126	4	12.2
2025-07-07T12:00	20900	51	-52.2		144	5	12.2
2025-07-07T12:00	20950	50	-52.4		156	6	12.3
2025-07-07T12:00	21000	50	-52.7		163	7	12.3
2025-07-07T12:00	21050	50	-52.8		166	7	12.3
2025-07-07T12:00	21100	49	-52.4		161	6	12.4
2025-07-07T12:00	21150	49	-52.0		148	6	12.6
2025-07-07T12:00	21200	48	-51.6		131	5	12.8
2025-07-07T12:00	21250	48	-51.5		116	5	12.8
2025-07-07T12:00	21300	48	-51.6		103	5	13.0
2025-07-07T12:00	21350	47	-51.3		92	5	13.1
2025-07-07T12:00	21400	47	-51.3		85	6	13.1
2025-07-07T12:00	21450	47	-51.6		80	6	13.1
2025-07-07T12:00	21500	46	-51.7		79	6	13.1
2025-07-07T12:00	21550	46	-51.8		82	7	13.2
2025-07-07T12:00	21600	46	-51.9		88	8	13.2
2025-07-07T12:00	21650	45	-52.1		94	8	13.3
2025-07-07T12:00	21700	45	-52.5		100	9	13.2
2025-07-07T12:00	21750	44	-52.7		104	9	13.2
2025-07-07T12:00	21800	44	-53.0		109	8	13.2
2025-07-07T12:00	21850	44	-53.1		113	8	13.2
2025-07-07T12:00	21900	43	-52.8		116	8	13.3
2025-07-07T12:00	21950	43	-52.8		121	8	13.3
2025-07-07T12:00	22000	43	-52.9		128	9	13.4
2025-07-07T12:00	22050	42	-52.7		135	9	13.4
2025-07-07T12:00	22100	42	-52.7		139	8	13.4
2025-07-07T12:00	22150	42	-53.0		141	7	13.5
2025-07-07T12:00	22200	41	-52.9		144	6	13.6
2025-07-07T12:00	22250	41	-52.6		145	6	13.6
2025-07-07T12:00	22300	41	-52.5		145	7	13.7
2025-07-07T12:00	22350	41	-52.3		143	8	13.7
2025-07-07T12:00	22400	40	-51.7		142	8	13.8
2025-07-07T12:00	22450	40	-51.3		144	8	13.8
2025-07-07T12:00	22500	40	-51.0		145	7	13.8
2025-07-07T12:00	22550	39	-50.7		142	7	13.9
2025-07-07T12:00	22600	39	-50.4		133	6	13.8
2025-07-07T12:00	22650	39	-50.0		125	7	13.8
2025-07-07T12:00	22700	38	-49.9		125	8	13.8
2025-07-07T12:00	22750	38	-50.1		132	8	13.8
2025-07-07T12:00	22800	38	-50.2		138	8	13.8
2025-07-07T12:00	22850	38	-50.4		142	7	13.8
2025-07-07T12:00	22900	37	-50.4		142	6	14.0
2025-07-07T12:00	22950	37	-50.4		138	6	14.0
2025-07-07T12:00	23000	37	-50.1		136	6	13.8
2025-07-07T12:00	23050	36	-49.9		139	7	13.8
2025-07-07T12:00	23100	36	-49.8		144	7	13.9
2025-07-07T12:00	23150	36	-49.6		145	7	13.9
2025-07-07T12:00	23200	36	-49.6		140	6	13.9
2025-07-07T12:00	23250	35	-49.6		130	5	13.9
2025-07-07T12:00	23300	35	-49.9		121	6	13.9
2025-07-07T12:00	23350	35	-50.0		117	6	13.8
2025-07-07T12:00	23400	35	-50.0		118	6	13.8
2025-07-07T12:00	23450	34	-50.0		123	6	13.7
2025-07-07T12:00	23500	34	-50.2		129	5	13.6
2025-07-07T12:00	23550	34	-50.4		133	5	13.6
2025-07-07T12:00	23600	33	-50.4		132	6	13.5
2025-07-07T12:00	23650	33	-50.6		130	6	13.4
2025-07-07T12:00	23700	33	-50.8		130	7	13.4
2025-07-07T12:00	23750	33	-51.1		130	7	13.1
2025-07-07T12:00	23800	32	-51.4		129	8	13.1
2025-07-07T12:00	23850	32	-51.5		127	8	13.0
2025-07-07T12:00	23900	32	-51.3		124	7	12.8
2025-07-07T12:00	23950	32	-51.0		123	7	12.7
2025-07-07T12:00	24000	31	-51.0		126	6	12.6
2025-07-07T12:00	24050	31	-51.3		132	5	12.4
2025-07-07T12:00	24100	31	-51.5		137	4	12.2
2025-07-07T12:00	24150	31	-51.4		139	4	12.1
2025-07-07T12:00	24200	31	-51.4		136	3	11.9
2025-07-07T12:00	24250	30	-51.5		131	3	11.6
2025-07-07T12:00	24300	30	-51.3		127	4	11.5
2025-07-07T12:00	24350	30	-51.3		122	5	11.5
2025-07-07T12:00	24400	30	-51.1		116	6	11.3
2025-07-07T12:00	24450	29	-50.8		111	7	11.3
2025-07-07T12:00	24500	29	-50.3		110	8	11.3
2025-07-07T12:00	24550	29	-49.8		112	9	11.4
2025-07-07T12:00	24600	29	-49.6		120	9	11.5
2025-07-07T12:00	24650	28	-49.3		128	10	11.6
2025-07-07T12:00	24700	28	-49.2		136	11	11.8
2025-07-07T12:00	24750	28	-49.3		142	11	11.9
2025-07-07T12:00	24800	28	-49.3		146	10	12.0
2025-07-07T12:00	24850	28	-49.1		146	8	12.1
2025-07-07T12:00	24900	27	-48.8		141	7	12.2
2025-07-07T12:00	24950	27	-48.5		133	7	12.4
2025-07-07T12:00	25000	27	-48.3		128	7	12.5
2025-07-07T12:00	25050	27	-48.2		125	7	12.7
2025-07-07T12:00	25100	27	-48.2		124	7	12.9
2025-07-07T12:00	25150	26	-48.1		122	7	12.9
2025-07-07T12:00	25200	26	-48.0		121	7	12.9
2025-07-07T12:00	25250	26	-48.2		123	6	12.9
2025-07-07T12:00	25300	26	-48.4		124	6	13.0
2025-07-07T12:00	25350	26	-48.5		122	5	13.0
2025-07-07T12:00	25400	25	-48.5		119	4	13.1
2025-07-07T12:00	25450	25	-48.2		111	3	13.1
2025-07-07T12:00	25500	25	-47.8		99	3	13.1
2025-07-07T12:00	25550	25	-47.6		91	3	13.2
2025-07-07T12:00	25600	25	-47.6		94	3	13.1
2025-07-07T12:00	25650	24	-47.4		106	3	13.2
2025-07-07T12:00	25700	24	-47.5		117	4	13.2
2025-07-07T12:00	25750	24	-47.7		122	5	13.1
2025-07-07T12:00	25800	24	-47.7		119	5	13.2
2025-07-07T12:00	25850	24	-47.7		108	5	13.2
2025-07-07T12:00	25900	24	-47.8		93	5	13.1
2025-07-07T12:00	25950	23	-47.8		80	6	13.0
2025-07-07T12:00	26000	23	-48.0		73	7	13.0
2025-07-07T12:00	26050	23	-48.1		69	8	12.8
2025-07-07T12:00	26100	23	-48.3		70	9	12.6
2025-07-07T12:00	26150	23	-48.3		73	10	12.6
2025-07-07T12:00	26200	22	-48.3		79	10	12.4
2025-07-07T12:00	26250	22	-48.5		84	10	12.3
2025-07-07T12:00	26300	22	-48.8		89	11	12.2
2025-07-07T12:00	26350	22	-49.1		92	12	12.0
2025-07-07T12:00	26400	22	-49.3		95	12	11.8
2025-07-07T12:00	26450	22	-49.5		97	13	11.7
2025-07-07T12:00	26500	21	-49.4		99	13	11.6
2025-07-07T12:00	26550	21	-49.2		100	13	11.5
2025-07-07T12:00	26600	21	-49.1		100	12	11.6
2025-07-07T12:00	26650	21	-49.0		101	12	11.8
2025-07-07T12:00	26700	21	-49.0		102	11	11.8
2025-07-07T12:00	26750	21	-48.9		103	9	11.8
2025-07-07T12:00	26800	21	-48.8		101	8	11.7
2025-07-07T12:00	26850	20	-48.6		95	7	11.6
2025-07-07T12:00	26900	20	-48.4		87	8	11.6
2025-07-07T12:00	26950	20	-48.4		85	8	11.5
2025-07-07T12:00	27000	20	-48.5		87	9	11.5
2025-07-07T12:00	27050	20	-48.6		91	10	11.5
2025-07-07T12:00	27100	20	-48.4		97	10	11.4
2025-07-07T12:00	27150	19	-48.1		102	10	11.3
2025-07-07T12:00	27200	19	-47.7		106	9	11.2
2025-07-07T12:00	27250	19	-47.2		111	9	11.1
2025-07-07T12:00	27300	19	-47.0		118	9	11.1
2025-07-07T12:00	27350	19	-47.0		121	8	11.0
2025-07-07T12:00	27400	19	-46.5		119	7	11.0
2025-07-07T12:00	27450	19	-45.9		113	6	10.9
2025-07-07T12:00	27500	18	-45.5		103	5	10.8
2025-07-07T12:00	27550	18	-45.1		98	5	10.8
2025-07-07T12:00	27600	18	-44.8		97	7	10.8
2025-07-07T12:00	27650	18	-44.8		95	9	10.9
2025-07-07T12:00	27700	18	-44.8		92	10	10.8
2025-07-07T12:00	27750	18	-44.6		91	11	10.8
2025-07-07T12:00	27800	18	-44.4		92	11	10.7
2025-07-07T12:00	27850	18	-44.6		92	10	10.7
2025-07-07T12:00	27900	17	-45.0		91	9	10.6
2025-07-07T12:00	27950	17	-45.0		88	9	10.5
2025-07-07T12:00	28000	17	-44.8		85	9	10.4
2025-07-07T12:00	28050	17	-44.6		85	10	10.3
2025-07-07T12:00	28100	17	-44.5		88	11	10.2
2025-07-07T12:00	28150	17	-44.5		92	12	10.3
2025-07-07T12:00	28200	17	-44.5		96	13	10.4
2025-07-07T12:00	28250	17	-44.3		100	13	10.6
2025-07-07T12:00	28300	16	-44.0		103	13	10.5
2025-07-07T12:00	28350	16	-43.9		105	13	10.4
2025-07-07T12:00	28400	16	-43.6		108	12	10.3
2025-07-07T12:00	28450	16	-43.4		110	11	10.3
2025-07-07T12:00	28500	16	-43.3		112	11	10.2
2025-07-07T12:00	28550	16	-43.2		112	11	10.2
2025-07-07T12:00	28600	16	-43.0		112	11	10.2
2025-07-07T12:00	28650	16	-42.7		111	11	10.1
2025-07-07T12:00	28700	15	-42.5		109	12	10.1
2025-07-07T12:00	28750	15	-42.5		107	13	9.9
2025-07-07T12:00	28800	15	-42.2		105	13	9.8
2025-07-07T12:00	28850	15	-41.9		104	12	9.8
2025-07-07T12:00	28900	15	-41.9		105	11	9.7
2025-07-07T12:00	28950	15	-42.0		108	10	9.7
2025-07-07T12:00	29000	15	-41.8		110	10	9.7
2025-07-07T12:00	29050	15	-41.6		110	9	9.7
2025-07-07T12:00	29100	15	-41.7		108	9	9.7
2025-07-07T12:00	29150	14	-41.5		106	9	9.7
2025-07-07T12:00	29200	14	-41.3		106	9	9.7
2025-07-07T12:00	29250	14	-41.0		107	8	9.5
2025-07-07T12:00	29300	14	-40.8		108	8	9.4
2025-07-07T12:00	29350	14	-40.6		107	8	9.4
2025-07-07T12:00	29400	14	-40.5		104	8	9.3
2025-07-07T12:00	29450	14	-40.6		98	8	9.4
2025-07-07T12:00	29500	14	-40.6		90	8	9.3
2025-07-07T12:00	29550	14	-40.5		85	9	9.2
2025-07-07T12:00	29600	14	-40.2		83	10	9.1
2025-07-07T12:00	29650	13	-40.1		85	12	9.0
2025-07-07T12:00	29700	13	-40.4		86	12	8.9
2025-07-07T12:00	29750	13	-40.5		85	13	9.0
2025-07-07T12:00	29800	13	-40.4		83	12	8.9
2025-07-07T12:00	29850	13	-40.4		83	12	8.9
2025-07-07T12:00	29900	13	-40.3		86	12	8.8
2025-07-07T12:00	29950	13	-40.5		91	12	8.9
2025-07-07T12:00	30000	13	-40.7		95	12	8.8
2025-07-07T12:00	30050	13	-40.5		97	11	8.7
2025-07-07T12:00	30100	13	-40.1		97	11	8.6
2025-07-07T12:00	30150	12	-39.8		97	11	8.6
2025-07-07T12:00	30200	12	-39.6		96	10	8.6
2025-07-07T12:00	30250	12	-39.3		95	10	8.6
2025-07-07T12:00	30300	12	-39.2		94	9	8.9
2025-07-07T12:00	30350	12	-39.1		93	9	8.9
2025-07-07T12:00	30400	12	-38.9		91	9	8.9
2025-07-07T12:00	30450	12	-38.8		88	10	8.8
2025-07-07T12:00	30500	12	-38.7		85	11	8.7
2025-07-07T12:00	30550	12	-38.5		85	12	8.6
2025-07-07T12:00	30600	12	-38.4		88	13	8.6
2025-07-07T12:00	30650	12	-38.4		92	14	8.5
2025-07-07T12:00	30700	12	-38.5		94	14	8.4
2025-07-07T12:00	30750	11	-38.3		94	14	8.4
2025-07-07T12:00	30800	11	-38.0		92	14	8.3
2025-07-07T12:00	30850	11	-37.8		91	14	8.3
2025-07-07T12:00	30900	11	-37.9		92	14	8.1
2025-07-07T12:00	30950	11	-38.0		94	14	8.1
2025-07-07T12:00	31000	11	-37.9		98	13	8.1
2025-07-07T12:00	31050	11	-38.0		102	13	7.9
2025-07-07T12:00	31100	11	-38.1		104	12	7.8
2025-07-07T12:00	31150	11	-38.1		101	11	7.7
2025-07-07T12:00	31200	11	-37.7		95	11	7.7
2025-07-07T12:00	31250	11	-37.3		89	12	7.6
2025-07-07T12:00	31300	11	-37.0		84	13	7.6
2025-07-07T12:00	31350	10	-36.7		82	15	7.6
2025-07-07T12:00	31400	10	-36.5		79	15	7.6
2025-07-07T12:00	31450	10	-36.4		76	16	7.6
2025-07-07T12:00	31500	10	-36.3		73	16	7.6
2025-07-07T12:00	31550	10	-36.0		71	16	7.6
2025-07-07T12:00	31600	10	-35.8		71	17	7.5
2025-07-07T12:00	31650	10	-35.7		73	18	7.5
2025-07-07T12:00	31700	10	-35.9		75	18	7.4
2025-07-07T12:00	31750	10	-36.0		77	18	7.3
2025-07-07T12:00	31800	10	-36.1		79	18	7.2
2025-07-07T12:00	31850	10	-36.1		81	18	7.2
2025-07-07T12:00	31900	10	-36.2		83	18	7.0
2025-07-07T12:00	31950	10	-36.2		84	17	7.0
2025-07-07T12:00	32000	10	-36.2		83	17	6.9
2025-07-07T12:00	32050	9	-36.3		81	16	6.9
2025-07-07T12:00	32100	9	-36.2		78	16	6.8
2025-07-07T12:00	32150	9	-35.9		77	16	6.7
2025-07-07T12:00	32200	9	-35.5		77	17	6.6
2025-07-07T12:00	32250	9	-35.1		80	17	6.5
2025-07-07T12:00	32300	9	-34.9		84	18	6.5
2025-07-07T12:00	32350	9	-35.0		89	18	
2025-07-07T12:00	32400	9	-35.1		92	19	
2025-07-07T12:00	32450	9	-35.1		94	19	
2025-07-07T12:00	32500	9	-35.0		95	19	
2025-07-07T12:00	32550	9	-34.9		95	18	
2025-07-07T12:00	32600	9	-34.8		96	17	
2025-07-07T12:00	32650	9	-34.8		97	16	
2025-07-07T12:00	32700	9	-34.9		97	15	
2025-07-07T12:00	32750	9	-35.0		96	15	
2025-07-07T12:00	32800	9	-35.0		97	16	
2025-07-07T12:00	32850	8	-34.8		99	18	
2025-07-07T12:00	32900	8	-34.7		100	19	
2025-07-08T00:00	491	956	12.8	11.2	170	2	
2025-07-08T00:00	520	953	12.8	11.0	183	3	
2025-07-08T00:00	540	951	12.8	10.6	186	3	
2025-07-08T00:00	560	949	12.8	10.3	189	4	
2025-07-08T00:00	580	946	12.8	10.2	194	4	
2025-07-08T00:00	600	944	12.7	10.1	197	4	
2025-07-08T00:00	620	942	12.6	9.9	202	4	
2025-07-08T00:00	640	939	12.6	9.6	207	4	
2025-07-08T00:00	660	937	12.5	9.7	212	4	
2025-07-08T00:00	680	935	12.3	9.7	217	4	
2025-07-08T00:00	700	933	12.1	9.5	220	4	
2025-07-08T00:00	720	931	12.0	9.4	223	4	
2025-07-08T00:00	740	928	11.9	9.3	226	4	
2025-07-08T00:00	760	926	12.0	9.1	229	4	
2025-07-08T00:00	780	924	12.0	8.9	231	4	
2025-07-08T00:00	800	922	12.0	8.9	233	5	
2025-07-08T00:00	820	920	11.8	8.9	235	5	
2025-07-08T00:00	840	917	11.7	8.9	237	5	
2025-07-08T00:00	860	915	11.6	8.7	240	6	
2025-07-08T00:00	880	913	11.5	8.7	244	6	
2025-07-08T00:00	900	911	11.3	8.8	249	6	
2025-07-08T00:00	920	909	11.2	8.8	254	6	
2025-07-08T00:00	940	907	11.0	8.6	260	6	
2025-07-08T00:00	960	904	10.8	8.6	264	6	
2025-07-08T00:00	980	902	10.6	8.6	268	6	
2025-07-08T00:00	1000	900	10.5	8.4	271	6	
2025-07-08T00:00	1020	898	10.5	8.3	272	6	
2025-07-08T00:00	1040	896	10.4	8.1	275	6	
2025-07-08T00:00	1060	894	10.3	8.0	278	6	
2025-07-08T00:00	1080	891	10.1	8.0	280	6	
2025-07-08T00:00	1100	889	9.9	7.8	281	6	
2025-07-08T00:00	1120	887	9.8	7.8	281	6	
2025-07-08T00:00	1140	885	9.5	7.8	281	6	
2025-07-08T00:00	1160	883	9.4	7.8	281	6	
2025-07-08T00:00	1180	881	9.2	7.7	283	6	
2025-07-08T00:00	1200	879	9.0	7.7	286	6	
2025-07-08T00:00	1220	877	8.8	7.6	291	6	
2025-07-08T00:00	1240	874	8.7	7.5	296	5	
2025-07-08T00:00	1260	872	8.6	7.4	299	5	
2025-07-08T00:00	1280	870	8.5	7.3	299	6	
2025-07-08T00:00	1300	868	8.3	7.2	299	6	
2025-07-08T00:00	1320	866	8.2	7.1	299	7	
2025-07-08T00:00	1340	864	8.1	7.1	300	7	
2025-07-08T00:00	1360	862	7.8	7.0	301	8	
2025-07-08T00:00	1380	860	7.7	7.0	303	8	
2025-07-08T00:00	1400	858	7.6	6.8	305	8	
2025-07-08T00:00	1420	855	7.5	6.6	309	8	
2025-07-08T00:00	1440	853	7.3	6.6	312	8	
2025-07-08T00:00	1460	851	7.2	6.5	314	8	
2025-07-08T00:00	1480	849	6.9	6.6	316	8	
2025-07-08T00:00	1500	847	6.8	6.4	318	8	
2025-07-08T00:00	1520	845	6.6	6.3	321	8	
2025-07-08T00:00	1540	843	6.7	5.9	324	8	
2025-07-08T00:00	1560	841	6.8	5.7	327	8	
2025-07-08T00:00	1580	839	6.6	5.6	330	7	
2025-07-08T00:00	1600	837	6.6	5.4	331	7	
2025-07-08T00:00	1620	835	6.4	5.4	330	7	
2025-07-08T00:00	1640	833	6.1	5.5	326	7	
2025-07-08T00:00	1660	831	5.8	5.6	323	7	
2025-07-08T00:00	1680	829	5.7	5.4	319	7	
2025-07-08T00:00	1700	827	5.5	5.3	317	7	
2025-07-08T00:00	1720	825	5.4	5.2	315	7	
2025-07-08T00:00	1740	823	5.3	5.1	313	7	
2025-07-08T00:00	1760	821	5.2	4.9	312	7	
2025-07-08T00:00	1780	819	5.0	4.8	311	6	
2025-07-08T00:00	1800	817	4.9	4.6	312	6	
2025-07-08T00:00	1820	815	4.8	4.6	315	5	
2025-07-08T00:00	1840	813	4.6	4.5	319	4	
2025-07-08T00:00	1860	811	4.5	4.5	322	5	
2025-07-08T00:00	1880	809	4.4	4.4	322	5	
2025-07-08T00:00	1900	807	4.3	4.3	322	6	
2025-07-08T00:00	1920	805	4.2	4.2	322	6	
2025-07-08T00:00	1940	803	4.1	4.1	321	6	
2025-07-08T00:00	1960	801	4.0	4.0	320	7	
2025-07-08T00:00	1980	799	3.8	3.8	320	7	
2025-07-08T00:00	2000	797	3.7	3.7	320	7	
2025-07-08T00:00	2020	795	3.7	3.7	320	7	
2025-07-08T00:00	2040	793	3.5	3.5	319	7	
2025-07-08T00:00	2060	791	3.4	3.4	319	7	
2025-07-08T00:00	2080	789	3.3	3.3	319	7	
2025-07-08T00:00	2100	787	3.2	3.2	319	7	
2025-07-08T00:00	2120	785	3.0	3.0	320	8	
2025-07-08T00:00	2140	784	3.0	3.0	320	8	
2025-07-08T00:00	2160	782	2.8	2.8	320	8	
2025-07-08T00:00	2180	780	2.7	2.7	320	9	
2025-07-08T00:00	2200	778	2.6	2.6	321	9	
2025-07-08T00:00	2220	776	2.5	2.5	322	9	
2025-07-08T00:00	2240	774	2.4	2.4	323	9	
2025-07-08T00:00	2260	772	2.3	2.3	324	9	
2025-07-08T00:00	2280	770	2.2	2.2	325	9	
2025-07-08T00:00	2300	768	2.0	2.0	326	9	
2025-07-08T00:00	2320	766	1.9	1.9	327	9	
2025-07-08T00:00	2340	764	1.7	1.7	328	9	
2025-07-08T00:00	2360	762	1.6	1.6	329	9	
2025-07-08T00:00	2380	761	1.5	1.5	330	9	
2025-07-08T00:00	2400	759	1.4	1.4	331	9	
2025-07-08T00:00	2420	757	1.1	1.1	332	9	
2025-07-08T00:00	2440	755	0.9	0.9	334	9	
2025-07-08T00:00	2460	753	1.0	1.0	335	9	
2025-07-08T00:00	2480	751	0.8	0.8	336	9	
2025-07-08T00:00	2500	749	0.7	0.7	336	9	
2025-07-08T00:00	2520	747	0.6	0.6	336	9	
2025-07-08T00:00	2540	746	0.5	0.5	335	9	
2025-07-08T00:00	2560	744	0.4	0.4	333	9	
2025-07-08T00:00	2580	742	0.3	0.3	332	10	
2025-07-08T00:00	2600	740	0.1	0.1	331	10	
2025-07-08T00:00	2620	738	0.0	0.0	330	10	
2025-07-08T00:00	2640	736	-0.1	-0.3	330	10	
2025-07-08T00:00	2660	735	-0.2	-0.6	330	10	
2025-07-08T00:00	2680	733	-0.2	-0.9	330	10	
2025-07-08T00:00	2700	731	-0.3	-0.9	331	10	
2025-07-08T00:00	2720	729	-0.5	-1.0	331	10	
2025-07-08T00:00	2740	727	-0.6	-1.2	332	10	
2025-07-08T00:00	2760	725	-0.7	-1.2	332	10	
2025-07-08T00:00	2780	724	-0.8	-1.3	332	10	
2025-07-08T00:00	2800	722	-0.9	-1.4	331	10	
2025-07-08T00:00	2820	720	-1.0	-1.5	330	10	
2025-07-08T00:00	2840	718	-1.1	-1.8	329	10	
2025-07-08T00:00	2860	716	-1.2	-1.8	327	10	
2025-07-08T00:00	2880	714	-1.2	-1.9	325	10	
2025-07-08T00:00	2900	713	-1.3	-2.0	323	9	
2025-07-08T00:00	2920	711	-1.4	-2.2	321	9	
2025-07-08T00:00	2940	709	-1.5	-2.5	320	9	
2025-07-08T00:00	2960	708	-1.5	-2.7	318	9	
2025-07-08T00:00	2980	706	-1.7	-2.7	318	9	
2025-07-08T00:00	3000	704	-1.9	-2.8	317	9	
2025-07-08T00:00	3020	702	-2.0	-2.9	318	9	
2025-07-08T00:00	3040	700	-2.2	-2.9	318	9	
2025-07-08T00:00	3060	699	-2.3	-3.0	319	9	
2025-07-08T00:00	3080	697	-2.5	-3.0	321	9	
2025-07-08T00:00	3100	695	-2.7	-3.1	322	10	
2025-07-08T00:00	3120	693	-2.8	-3.2	323	10	
2025-07-08T00:00	3140	692	-2.9	-3.3	325	10	
2025-07-08T00:00	3160	690	-3.1	-3.4	327	11	
2025-07-08T00:00	3180	688	-3.2	-3.6	328	11	
2025-07-08T00:00	3200	686	-3.3	-4.0	329	11	
2025-07-08T00:00	3220	685	-3.1	-4.1	329	11	
2025-07-08T00:00	3240	683	-3.1	-4.1	329	11	
2025-07-08T00:00	3260	681	-3.3	-4.2	328	10	
2025-07-08T00:00	3280	679	-3.4	-4.4	326	10	
2025-07-08T00:00	3300	678	-3.5	-4.6	325	10	
2025-07-08T00:00	3320	676	-3.7	-4.7	324	10	
2025-07-08T00:00	3340	674	-3.8	-5.0	325	9	
2025-07-08T00:00	3360	673	-3.8	-5.1	327	9	
2025-07-08T00:00	3380	671	-3.8	-5.5	329	9	
2025-07-08T00:00	3400	669	-3.8	-5.7	331	9	
2025-07-08T00:00	3420	667	-3.9	-5.8	333	9	
2025-07-08T00:00	3440	666	-4.0	-5.9	336	8	
2025-07-08T00:00	3460	664	-4.1	-6.1	337	9	
2025-07-08T00:00	3480	663	-4.2	-6.3	338	9	
2025-07-08T00:00	3500	661	-4.3	-6.5	338	9	
2025-07-08T00:00	3520	659	-4.4	-6.6	337	9	
2025-07-08T00:00	3540	657	-4.6	-6.6	335	9	
2025-07-08T00:00	3560	656	-4.7	-6.6	333	10	
2025-07-08T00:00	3580	654	-4.9	-6.7	330	10	
2025-07-08T00:00	3600	653	-5.0	-6.8	327	10	
2025-07-08T00:00	3620	651	-5.2	-6.9	325	10	
2025-07-08T00:00	3640	649	-5.4	-6.9	323	10	
2025-07-08T00:00	3660	647	-5.5	-7.0	323	10	
2025-07-08T00:00	3680	646	-5.7	-7.1	324	10	
2025-07-08T00:00	3700	644	-5.9	-7.1	325	10	
2025-07-08T00:00	3720	643	-6.1	-7.2	326	10	
2025-07-08T00:00	3740	641	-6.2	-7.2	326	9	
2025-07-08T00:00	3760	639	-6.4	-7.4	325	9	
2025-07-08T00:00	3780	638	-6.5	-7.4	324	9	
2025-07-08T00:00	3800	636	-6.6	-7.4	323	9	
2025-07-08T00:00	3820	635	-6.8	-7.5	322	9	
2025-07-08T00:00	3840	633	-7.0	-7.7	323	9	
2025-07-08T00:00	3860	631	-7.1	-7.9	324	9	
2025-07-08T00:00	3880	630	-7.2	-7.9	325	9	
2025-07-08T00:00	3900	628	-7.4	-7.9	326	9	
2025-07-08T00:00	3920	626	-7.6	-8.1	327	9	
2025-07-08T00:00	3940	625	-7.6	-8.5	327	9	
2025-07-08T00:00	3960	623	-7.8	-8.5	329	8	
2025-07-08T00:00	3980	622	-7.9	-8.5	330	8	
2025-07-08T00:00	4000	620	-8.0	-8.9	332	7	
2025-07-08T00:00	4020	618	-8.2	-8.9	335	7	
2025-07-08T00:00	4040	617	-8.3	-9.1	336	7	
2025-07-08T00:00	4060	615	-8.5	-9.2	338	7	
2025-07-08T00:00	4080	614	-8.7	-9.3	337	7	
2025-07-08T00:00	4100	612	-8.7	-9.4	337	7	
2025-07-08T00:00	4120	610	-8.7	-9.5	337	8	
2025-07-08T00:00	4140	609	-8.9	-9.6	337	8	
2025-07-08T00:00	4160	607	-9.1	-9.6	338	8	
2025-07-08T00:00	4180	606	-9.2	-9.7	339	9	
2025-07-08T00:00	4200	604	-9.4	-9.6	340	9	
2025-07-08T00:00	4220	602	-9.6	-9.6	341	8	
2025-07-08T00:00	4240	601	-9.7	-9.8	342	8	
2025-07-08T00:00	4260	600	-9.9	-9.9	341	8	
2025-07-08T00:00	4280	598	-10.0	-10.0	340	7	
2025-07-08T00:00	4300	596	-10.1	-10.1	339	7	
2025-07-08T00:00	4320	595	-10.2	-10.2	338	8	
2025-07-08T00:00	4340	593	-10.4	-10.4	338	8	
2025-07-08T00:00	4360	592	-10.5	-10.5	337	9	
2025-07-08T00:00	4380	590	-10.6	-10.6	336	9	
2025-07-08T00:00	4400	589	-10.8	-10.8	334	10	
2025-07-08T00:00	4420	587	-10.9	-10.9	332	10	
2025-07-08T00:00	4440	586	-11.0	-11.0	329	11	
2025-07-08T00:00	4460	584	-11.1	-11.2	327	11	
2025-07-08T00:00	4480	583	-11.2	-11.4	325	11	
2025-07-08T00:00	4500	581	-11.3	-11.5	324	11	
2025-07-08T00:00	4520	580	-11.5	-11.7	324	11	
2025-07-08T00:00	4540	578	-11.5	-12.1	324	11	
2025-07-08T00:00	4560	577	-11.7	-12.1	325	10	
2025-07-08T00:00	4580	575	-11.8	-12.3	326	10	
2025-07-08T00:00	4600	574	-12.0	-12.4	328	10	
2025-07-08T00:00	4620	572	-12.1	-12.4	330	10	
2025-07-08T00:00	4640	571	-12.3	-12.5	333	9	
2025-07-08T00:00	4660	569	-12.4	-12.6	335	9	
2025-07-08T00:00	4680	567	-12.5	-13.3	337	9	
2025-07-08T00:00	4700	566	-12.6	-13.7	337	9	
2025-07-08T00:00	4720	565	-12.8	-13.7	336	9	
2025-07-08T00:00	4740	563	-12.9	-13.7	334	8	
2025-07-08T00:00	4760	562	-13.1	-13.8	332	8	
2025-07-08T00:00	4780	560	-13.3	-13.8	329	9	
2025-07-08T00:00	4800	559	-13.5	-13.9	328	9	
2025-07-08T00:00	4820	557	-13.7	-13.9	328	9	
2025-07-08T00:00	4840	556	-13.8	-13.9	328	10	
2025-07-08T00:00	4860	554	-14.0	-14.0	328	10	
2025-07-08T00:00	4880	553	-14.1	-14.1	328	11	
2025-07-08T00:00	4900	551	-14.3	-14.3	328	11	
2025-07-08T00:00	4920	550	-14.4	-14.4	328	11	
2025-07-08T00:00	4940	549	-14.6	-14.6	327	10	
2025-07-08T00:00	4960	547	-14.8	-14.8	326	10	
2025-07-08T00:00	4980	546	-14.9	-14.9	325	11	
2025-07-08T00:00	5000	544	-15.1	-15.1	323	11	
2025-07-08T00:00	5020	543	-15.3	-15.3	322	12	
2025-07-08T00:00	5040	541	-15.5	-15.5	321	13	
2025-07-08T00:00	5060	540	-15.6	-15.6	321	13	
2025-07-08T00:00	5080	539	-15.7	-15.7	320	14	
2025-07-08T00:00	5100	537	-15.6	-16.5	320	14	
2025-07-08T00:00	5120	536	-15.3	-18.1	320	14	
2025-07-08T00:00	5140	534	-15.4	-19.4	319	15	
2025-07-08T00:00	5160	533	-15.5	-19.3	319	15	
2025-07-08T00:00	5180	531	-15.6	-19.4	319	15	
2025-07-08T00:00	5200	530	-15.7	-19.7	319	15	
2025-07-08T00:00	5220	529	-15.8	-20.0	320	15	
2025-07-08T00:00	5240	527	-15.9	-20.1	321	14	
2025-07-08T00:00	5260	526	-16.0	-20.1	322	14	
2025-07-08T00:00	5280	524	-16.1	-20.4	323	14	
2025-07-08T00:00	5300	523	-16.3	-21.3	325	14	
2025-07-08T00:00	5320	522	-16.4	-22.4	325	13	
2025-07-08T00:00	5340	520	-16.4	-21.3	325	13	
2025-07-08T00:00	5360	519	-16.6	-20.2	324	13	
2025-07-08T00:00	5380	517	-16.6	-18.9	323	13	
2025-07-08T00:00	5400	516	-16.8	-19.5	323	13	
2025-07-08T00:00	5420	515	-16.9	-19.9	324	14	
2025-07-08T00:00	5440	513	-17.0	-20.8	325	14	
2025-07-08T00:00	5460	512	-17.2	-21.0	326	14	
2025-07-08T00:00	5480	511	-17.4	-21.2	326	15	
2025-07-08T00:00	5500	509	-17.6	-21.6	326	15	
2025-07-08T00:00	5520	508	-17.7	-21.8	325	16	
2025-07-08T00:00	5540	507	-17.9	-21.7	324	16	
2025-07-08T00:00	5560	505	-18.0	-20.7	323	15	
2025-07-08T00:00	5580	504	-18.1	-20.4	320	15	
2025-07-08T00:00	5600	503	-18.1	-20.2	319	14	
2025-07-08T00:00	5620	501	-18.2	-20.3	317	14	
2025-07-08T00:00	5640	500	-18.4	-20.4	317	14	
2025-07-08T00:00	5660	499	-18.5	-20.6	317	14	
2025-07-08T00:00	5680	497	-18.6	-20.9	317	15	
2025-07-08T00:00	5700	496	-18.7	-21.1	318	15	
2025-07-08T00:00	5720	494	-18.9	-21.2	318	16	
2025-07-08T00:00	5740	493	-19.0	-21.4	318	16	
2025-07-08T00:00	5760	492	-19.2	-21.4	318	16	
2025-07-08T00:00	5780	490	-19.4	-21.5	319	16	
2025-07-08T00:00	5800	489	-19.1	-21.7	320	16	
2025-07-08T00:00	5820	488	-19.7	-22.1	322	16	
2025-07-08T00:00	5840	487	-19.9	-22.2	323	16	
2025-07-08T00:00	5860	485	-20.1	-22.7	323	16	
2025-07-08T00:00	5880	484	-20.3	-23.2	321	16	
2025-07-08T00:00	5900	483	-20.4	-23.4	318	16	
2025-07-08T00:00	5920	481	-20.6	-23.3	316	16	
2025-07-08T00:00	5940	480	-20.8	-23.4	314	16	
2025-07-08T00:00	5960	479	-21.0	-23.1	313	17	
2025-07-08T00:00	5980	477	-21.1	-23.0	313	18	
2025-07-08T00:00	6000	476	-21.3	-22.9	313	18	
2025-07-08T00:00	6020	475	-21.4	-23.2	314	19	
2025-07-08T00:00	6040	474	-21.4	-23.9	315	19	
2025-07-08T00:00	6060	472	-21.6	-24.2	315	19	
2025-07-08T00:00	6080	471	-21.8	-24.4	316	20	
2025-07-08T00:00	6100	470	-21.9	-24.6	316	20	
2025-07-08T00:00	6120	468	-22.1	-25.3	315	20	
2025-07-08T00:00	6140	467	-22.1	-27.8	315	20	
2025-07-08T00:00	6160	466	-22.1	-28.3	313	20	
2025-07-08T00:00	6180	465	-22.3	-28.1	311	20	
2025-07-08T00:00	6200	464	-22.4	-27.9	310	19	
2025-07-08T00:00	6220	462	-22.7	-28.1	309	19	
2025-07-08T00:00	6240	461	-22.9	-28.2	308	19	
2025-07-08T00:00	6260	459	-23.1	-28.1	308	19	
2025-07-08T00:00	6280	458	-23.2	-28.1	308	19	
2025-07-08T00:00	6300	457	-23.4	-28.1	307	19	
2025-07-08T00:00	6320	456	-23.6	-27.9	307	19	
2025-07-08T00:00	6340	455	-23.8	-27.7	306	19	
2025-07-08T00:00	6360	453	-23.8	-28.2	305	19	
2025-07-08T00:00	6380	452	-23.9	-28.7	305	19	
2025-07-08T00:00	6400	451	-24.0	-28.9	305	19	
2025-07-08T00:00	6420	450	-24.2	-29.5	306	19	
2025-07-08T00:00	6440	448	-24.3	-30.4	307	18	
2025-07-08T00:00	6460	447	-24.4	-30.5	307	18	
2025-07-08T00:00	6480	446	-24.6	-30.3	308	18	
2025-07-08T00:00	6500	445	-24.8	-29.4	308	18	
2025-07-08T00:00	6520	444	-24.9	-29.6	308	18	
2025-07-08T00:00	6540	442	-25.1	-29.7	308	18	
2025-07-08T00:00	6560	441	-25.3	-30.1	307	18	
2025-07-08T00:00	6580	440	-25.5	-30.6	307	18	
2025-07-08T00:00	6600	439	-25.7	-31.2	307	18	
2025-07-08T00:00	6620	437	-25.8	-32.6	308	18	
2025-07-08T00:00	6640	436	-25.9	-34.1	309	18	
2025-07-08T00:00	6660	435	-26.1	-32.2	310	18	
2025-07-08T00:00	6680	434	-26.2	-31.9	310	18	
2025-07-08T00:00	6700	433	-26.4	-33.4	311	17	
2025-07-08T00:00	6720	432	-26.5	-34.5	312	17	
2025-07-08T00:00	6740	430	-26.7	-35.6	313	18	
2025-07-08T00:00	6760	429	-26.8	-35.9	314	18	
2025-07-08T00:00	6780	428	-27.0	-37.0	315	18	
2025-07-08T00:00	6800	427	-27.1	-37.7	315	18	
2025-07-08T00:00	6820	426	-27.2	-38.6	316	18	
2025-07-08T00:00	6840	424	-27.3	-36.9	316	18	
2025-07-08T00:00	6860	423	-27.4	-34.3	315	18	
2025-07-08T00:00	6880	422	-27.5	-33.5	315	18	
2025-07-08T00:00	6900	421	-27.7	-32.8	314	18	
2025-07-08T00:00	6920	420	-27.8	-32.7	314	18	
2025-07-08T00:00	6940	418	-27.9	-33.0	313	18	
2025-07-08T00:00	6960	417	-28.1	-33.5	313	18	
2025-07-08T00:00	6980	416	-28.2	-33.6	312	18	
2025-07-08T00:00	7000	415	-28.4	-33.8	312	18	
2025-07-08T00:00	7020	414	-28.6	-34.1	311	18	
2025-07-08T00:00	7040	413	-28.8	-34.0	310	18	
2025-07-08T00:00	7060	411	-28.9	-34.1	309	18	
2025-07-08T00:00	7080	410	-29.1	-34.2	309	18	
2025-07-08T00:00	7100	409	-29.3	-34.1	308	18	
2025-07-08T00:00	7120	408	-29.4	-33.7	308	18	
2025-07-08T00:00	7140	407	-29.5	-33.6	308	18	
2025-07-08T00:00	7160	406	-29.6	-33.5	309	18	
2025-07-08T00:00	7180	405	-29.8	-34.1	309	18	
2025-07-08T00:00	7200	403	-29.9	-34.9	310	18	
2025-07-08T00:00	7220	402	-30.1	-35.5	311	18	
2025-07-08T00:00	7240	401	-30.2	-36.0	311	18	
2025-07-08T00:00	7260	400	-30.3	-35.7	311	18	
2025-07-08T00:00	7280	399	-30.4	-37.3	312	18	
2025-07-08T00:00	7300	398	-30.5	-37.8	312	17	
2025-07-08T00:00	7320	397	-30.6	-38.0	313	17	
2025-07-08T00:00	7340	396	-30.7	-37.7	314	17	
2025-07-08T00:00	7360	395	-30.8	-37.5	315	17	
2025-07-08T00:00	7380	393	-31.0	-37.8	317	17	
2025-07-08T00:00	7400	392	-31.1	-37.8	319	17	
2025-07-08T00:00	7420	391	-31.0	-38.0	321	17	
2025-07-08T00:00	7440	390	-31.1	-37.9	323	17	
2025-07-08T00:00	7460	389	-31.2	-38.1	323	17	
2025-07-08T00:00	7480	388	-31.3	-38.2	323	17	
2025-07-08T00:00	7500	387	-31.5	-38.9	323	17	
2025-07-08T00:00	7520	386	-31.6	-39.2	322	17	
2025-07-08T00:00	7540	385	-31.8	-40.5	322	16	
2025-07-08T00:00	7560	384	-31.9	-41.4	322	17	
2025-07-08T00:00	7580	382	-32.1	-41.2	322	17	
2025-07-08T00:00	7600	381	-32.3	-41.1	322	17	
2025-07-08T00:00	7620	380	-32.4	-41.3	322	17	
2025-07-08T00:00	7640	379	-32.6	-42.2	322	17	
2025-07-08T00:00	7660	378	-32.7	-41.9	322	17	
2025-07-08T00:00	7680	377	-32.9	-41.3	323	17	
2025-07-08T00:00	7700	376	-33.0	-41.8	323	17	
2025-07-08T00:00	7720	375	-33.1	-42.1	324	17	
2025-07-08T00:00	7740	374	-33.2	-41.5	324	17	
2025-07-08T00:00	7760	373	-33.4	-41.6	323	17	
2025-07-08T00:00	7780	372	-33.6	-41.8	323	17	
2025-07-08T00:00	7800	371	-33.6	-42.0	323	17	
2025-07-08T00:00	7820	370	-33.8	-42.4	323	17	
2025-07-08T00:00	7840	369	-33.9	-43.1	324	17	
2025-07-08T00:00	7860	368	-33.9	-43.7	325	17	
2025-07-08T00:00	7880	366	-33.9	-44.1	326	17	
2025-07-08T00:00	7900	365	-34.1	-44.3	327	17	
2025-07-08T00:00	7920	364	-34.2	-44.5	328	17	
2025-07-08T00:00	7940	363	-34.3	-44.7	328	17	
2025-07-08T00:00	7960	362	-34.4	-45.2	329	17	
2025-07-08T00:00	7980	361	-34.5	-45.3	329	17	
2025-07-08T00:00	8000	360	-34.7	-45.2	329	17	
2025-07-08T00:00	8020	359	-34.9	-45.3	330	17	
2025-07-08T00:00	8040	358	-35.1	-45.4	330	16	
2025-07-08T00:00	8060	357	-35.3	-45.2	330	16	
2025-07-08T00:00	8080	356	-35.4	-45.4	330	16	
2025-07-08T00:00	8100	355	-35.6	-45.7	330	17	
2025-07-08T00:00	8120	354	-35.8	-45.8	330	17	
2025-07-08T00:00	8140	353	-36.0	-45.8	331	17	
2025-07-08T00:00	8160	352	-36.2	-45.8	331	17	
2025-07-08T00:00	8180	351	-36.4	-45.9	331	17	
2025-07-08T00:00	8200	350	-36.6	-46.1	332	17	
2025-07-08T00:00	8220	349	-36.8	-46.1	332	17	
2025-07-08T00:00	8240	348	-36.9	-46.1	332	16	
2025-07-08T00:00	8260	347	-37.1	-46.0	332	16	
2025-07-08T00:00	8280	346	-37.3	-45.9	333	16	
2025-07-08T00:00	8300	345	-37.5	-46.1	334	16	
2025-07-08T00:00	8320	344	-37.6	-46.5	335	16	
2025-07-08T00:00	8340	343	-37.8	-46.9	335	16	
2025-07-08T00:00	8360	342	-37.9	-47.7	336	16	
2025-07-08T00:00	8380	341	-38.1	-47.7	336	16	
2025-07-08T00:00	8400	340	-38.2	-47.9	337	16	
2025-07-08T00:00	8420	339	-38.4	-48.4	337	16	
2025-07-08T00:00	8440	338	-38.5	-48.6	337	16	
2025-07-08T00:00	8460	337	-38.7	-48.7	337	16	
2025-07-08T00:00	8480	336	-38.9	-48.9	337	16	
2025-07-08T00:00	8500	335	-39.1	-49.0	337	16	
2025-07-08T00:00	8520	334	-39.3	-49.0	337	16	
2025-07-08T00:00	8540	333	-39.4	-49.3	336	16	
2025-07-08T00:00	8560	332	-39.6	-49.4	335	16	
2025-07-08T00:00	8580	331	-39.8	-49.5	335	16	
2025-07-08T00:00	8600	330	-40.0	-49.5	333	16	
2025-07-08T00:00	8620	329	-40.2	-49.5	332	16	
2025-07-08T00:00	8640	328	-40.3	-49.9	331	16	
2025-07-08T00:00	8660	327	-40.4	-50.1	330	17	
2025-07-08T00:00	8680	326	-40.5	-50.3	329	17	
2025-07-08T00:00	8700	325	-40.7	-50.2	329	17	
2025-07-08T00:00	8720	325	-40.8	-50.4	328	17	
2025-07-08T00:00	8740	324	-41.0	-50.5	328	17	
2025-07-08T00:00	8760	323	-41.2	-50.8	327	18	
2025-07-08T00:00	8780	322	-41.3	-51.3	327	18	
2025-07-08T00:00	8800	321	-41.5	-51.3	326	18	
2025-07-08T00:00	8820	320	-41.6	-51.4	326	18	
2025-07-08T00:00	8840	319	-41.8	-51.7	327	18	
2025-07-08T00:00	8860	318	-42.0	-51.8	328	18	
2025-07-08T00:00	8880	317	-42.1	-51.8	329	18	
2025-07-08T00:00	8900	316	-42.3	-51.9	331	18	
2025-07-08T00:00	8920	315	-42.4	-52.3	332	18	
2025-07-08T00:00	8940	314	-42.4	-53.0	333	17	
2025-07-08T00:00	8960	313	-42.4	-53.4	333	17	
2025-07-08T00:00	8980	312	-42.5	-53.4	333	16	
2025-07-08T00:00	9000	311	-42.6	-53.7	332	15	
2025-07-08T00:00	9020	310	-42.6	-54.3	330	14	
2025-07-08T00:00	9040	310	-42.4	-54.7	329	14	
2025-07-08T00:00	9060	309	-42.4	-55.0	329	13	
2025-07-08T00:00	9080	308	-42.6	-55.2	329	12	
2025-07-08T00:00	9100	307	-42.6	-55.5	330	12	
2025-07-08T00:00	9120	306	-42.7	-55.7	331	12	
2025-07-08T00:00	9140	305	-42.8	-56.1	331	12	
2025-07-08T00:00	9160	304	-42.8	-56.5	331	11	
2025-07-08T00:00	9180	303	-43.0	-56.8	330	11	
2025-07-08T00:00	9200	302	-43.0	-57.5	328	11	
2025-07-08T00:00	9220	301	-43.1	-57.6	325	11	
2025-07-08T00:00	9240	300	-43.3	-57.7	324	11	
2025-07-08T00:00	9260	300	-43.5	-57.7	321	11	
2025-07-08T00:00	9280	299	-43.6	-57.8	319	11	
2025-07-08T00:00	9300	298	-43.7	-58.3	317	11	
2025-07-08T00:00	9320	297	-43.8	-58.9	315	11	
2025-07-08T00:00	9340	296	-43.9	-58.8	313	11	
2025-07-08T00:00	9360	295	-44.1	-58.8	311	11	
2025-07-08T00:00	9380	294	-44.2	-59.0	309	11	
2025-07-08T00:00	9400	293	-44.4	-59.3	308	11	
2025-07-08T00:00	9420	293	-44.5	-59.9	306	11	
2025-07-08T00:00	9440	292	-44.5	-60.6	305	11	
2025-07-08T00:00	9460	291	-44.6	-61.0	305	12	
2025-07-08T00:00	9480	290	-44.7	-61.1	305	12	
2025-07-08T00:00	9500	289	-44.9	-61.3	305	12	
2025-07-08T00:00	9520	288	-44.9	-62.0	307	12	
2025-07-08T00:00	9540	287	-44.5	-62.8	308	13	
2025-07-08T00:00	9560	286	-44.4	-62.9	309	13	
2025-07-08T00:00	9580	286	-44.5	-62.8	309	13	
2025-07-08T00:00	9600	285	-44.5	-62.8	308	13	
2025-07-08T00:00	9620	284	-44.7	-63.0	306	13	
2025-07-08T00:00	9640	283	-44.8	-63.4	304	12	
2025-07-08T00:00	9660	282	-44.7	-64.6	302	12	
2025-07-08T00:00	9680	281	-44.7	-65.7	299	12	
2025-07-08T00:00	9700	281	-44.8	-65.6	297	13	
2025-07-08T00:00	9720	280	-44.8	-65.7	295	13	
2025-07-08T00:00	9740	279	-44.7	-66.4	295	13	
2025-07-08T00:00	9760	278	-44.6	-67.5	295	13	
2025-07-08T00:00	9780	277	-44.4	-68.5	295	13	
2025-07-08T00:00	9800	276	-44.1	-68.8	296	13	
2025-07-08T00:00	9820	276	-43.8	-68.6	297	12	
2025-07-08T00:00	9840	275	-43.8	-68.8	297	12	
2025-07-08T00:00	9860	274	-43.7	-68.8	297	11	
2025-07-08T00:00	9880	273	-43.7	-69.0	297	11	
2025-07-08T00:00	9900	272	-43.8	-69.1	297	11	
2025-07-08T00:00	9920	271	-43.9	-69.4	296	11	
2025-07-08T00:00	9940	271	-43.9	-69.4	296	11	
2025-07-08T00:00	9960	270	-44.0	-69.8	295	11	
2025-07-08T00:00	9980	269	-44.2	-69.9	295	11	
2025-07-08T00:00	10000	268	-44.4	-69.9	295	11	
2025-07-08T00:00	10018	267	-44.6	-70.0	294	11	
2025-07-08T00:00	10050	266	-44.8	-70.2	293	11	
2025-07-08T00:00	10100	264	-44.7	-69.4	290	12	
2025-07-08T00:00	10150	262	-44.3	-70.1	289	13	
2025-07-08T00:00	10200	260	-44.2	-70.3	291	13	
2025-07-08T00:00	10250	258	-43.9	-69.1	288	13	
2025-07-08T00:00	10300	256	-43.3	-69.8	281	13	
2025-07-08T00:00	10350	255	-43.0	-71.7	280	13	
2025-07-08T00:00	10400	253	-42.7	-71.4	285	13	
2025-07-08T00:00	10450	251	-42.8	-71.5	288	14	
2025-07-08T00:00	10500	249	-42.7	-72.5	287	15	
2025-07-08T00:00	10550	247	-42.4	-73.3	288	16	
2025-07-08T00:00	10600	245	-42.0	-73.7	290	16	
2025-07-08T00:00	10650	244	-42.2	-73.8	291	16	
2025-07-08T00:00	10700	242	-42.5	-73.8	293	16	
2025-07-08T00:00	10750	240	-42.6	-74.1	296	15	
2025-07-08T00:00	10800	238	-42.9	-74.3	295	15	
2025-07-08T00:00	10850	236	-42.7	-74.6	294	16	
2025-07-08T00:00	10900	235	-42.8	-74.7	292	16	
2025-07-08T00:00	10950	233	-42.9	-75.0	291	16	
2025-07-08T00:00	11000	231	-42.8	-75.2	291	16	
2025-07-08T00:00	11050	229	-42.9	-75.3	293	15	
2025-07-08T00:00	11100	228	-43.0	-75.8	294	15	
2025-07-08T00:00	11150	226	-43.1	-75.8	293	15	
2025-07-08T00:00	11200	224	-43.1	-75.7	292	15	
2025-07-08T00:00	11250	223	-43.3	-76.3	294	15	
2025-07-08T00:00	11300	221	-43.4	-76.7	297	15	
2025-07-08T00:00	11350	220	-43.4	-76.1	299	16	
2025-07-08T00:00	11400	218	-43.4	-76.1	299	16	
2025-07-08T00:00	11450	216	-43.7	-76.2	298	17	
2025-07-08T00:00	11500	215	-43.7	-76.4	296	16	
2025-07-08T00:00	11550	213	-43.0	-76.5	293	17	
2025-07-08T00:00	11600	211	-43.0	-76.8	290	17	
2025-07-08T00:00	11650	210	-43.1	-76.6	289	17	
2025-07-08T00:00	11700	208	-43.3	-76.6	291	17	
2025-07-08T00:00	11750	207	-43.5	-76.9	293	16	
2025-07-08T00:00	11800	205	-43.7	-76.9	292	15	
2025-07-08T00:00	11850	204	-43.9	-77.1	288	14	
2025-07-08T00:00	11900	202	-43.9	-77.2	286	13	
2025-07-08T00:00	11950	201	-43.8	-76.6	286	13	
2025-07-08T00:00	12000	199	-43.9	-77.1	285	12	
2025-07-08T00:00	12050	198	-44.1	-77.5	279	12	
2025-07-08T00:00	12100	196	-44.3	-77.6	272	11	
2025-07-08T00:00	12150	195	-44.6	-78.0	269	11	
2025-07-08T00:00	12200	193	-44.9	-77.9	267	10	
2025-07-08T00:00	12250	192	-45.4	-78.0	266	11	
2025-07-08T00:00	12300	191	-45.8	-78.1	263	11	
2025-07-08T00:00	12350	189	-46.3	-78.5	261	12	
2025-07-08T00:00	12400	188	-46.6	-78.6	260	13	
2025-07-08T00:00	12450	186	-46.8	-78.7	259	13	
2025-07-08T00:00	12500	185	-47.1	-78.9	257	15	
2025-07-08T00:00	12550	183	-47.4	-79.1	256	16	
2025-07-08T00:00	12600	182	-47.6	-79.3	257	17	
2025-07-08T00:00	12650	181	-47.8	-79.3	259	18	
2025-07-08T00:00	12700	179	-47.7	-79.4	260	18	
2025-07-08T00:00	12750	178	-47.6	-79.5	262	17	
2025-07-08T00:00	12800	177	-47.1	-79.6	266	17	
2025-07-08T00:00	12850	175	-47.4	-79.5	268	17	
2025-07-08T00:00	12900	174	-47.4	-79.7	268	18	
2025-07-08T00:00	12950	173	-47.2	-79.6	266	18	
2025-07-08T00:00	13000	171	-47.4	-79.7	264	19	
2025-07-08T00:00	13050	170	-47.5	-79.8	264	19	
2025-07-08T00:00	13100	169	-47.8	-79.9	267	19	
2025-07-08T00:00	13150	168	-47.3	-80.1	270	18	
2025-07-08T00:00	13200	166	-46.6	-79.5	271	18	
2025-07-08T00:00	13250	165	-46.4	-79.7	269	19	
2025-07-08T00:00	13300	164	-46.5	-79.6	268	20	
2025-07-08T00:00	13350	163	-46.7	-79.7	267	20	
2025-07-08T00:00	13400	161	-46.8	-79.7	266	20	
2025-07-08T00:00	13450	160	-46.7	-79.8	267	19	
2025-07-08T00:00	13500	159	-46.9	-79.8	269	19	
2025-07-08T00:00	13550	158	-47.1	-80.0	269	18	
2025-07-08T00:00	13600	157	-46.9	-80.1	267	18	
2025-07-08T00:00	13650	155	-46.9	-79.8	264	18	
2025-07-08T00:00	13700	154	-47.1	-80.0	262	18	
2025-07-08T00:00	13750	153	-47.0	-80.1	261	18	
2025-07-08T00:00	13800	152	-46.8	-80.1	263	19	
2025-07-08T00:00	13850	151	-46.6	-80.2	265	18	
2025-07-08T00:00	13900	150	-46.1	-80.1	268	17	
2025-07-08T00:00	13950	149	-46.0	-79.9	270	17	
2025-07-08T00:00	14000	147	-46.1	-79.8	268	16	
2025-07-08T00:00	14050	146	-46.3	-79.9	267	16	
2025-07-08T00:00	14100	145	-46.5	-79.8	268	15	
2025-07-08T00:00	14150	144	-46.7	-80.1	270	14	
2025-07-08T00:00	14200	143	-46.6	-80.0	272	15	
2025-07-08T00:00	14250	142	-46.8	-80.1	275	15	
2025-07-08T00:00	14300	141	-47.1	-80.4	277	15	
2025-07-08T00:00	14350	140	-47.0	-80.4	275	14	
2025-07-08T00:00	14400	139	-46.8	-80.3	272	13	
2025-07-08T00:00	14450	138	-47.2	-80.5	268	12	
2025-07-08T00:00	14500	137	-47.5	-80.5	263	11	
2025-07-08T00:00	14550	136	-47.8	-80.6	259	10	
2025-07-08T00:00	14600	135	-48.2	-80.6	257	10	
2025-07-08T00:00	14650	134	-48.6	-80.8	259	11	
2025-07-08T00:00	14700	133	-48.9	-81.1	262	11	
2025-07-08T00:00	14750	132	-48.7	-81.2	262	12	
2025-07-08T00:00	14800	131	-48.8	-81.3	259	12	
2025-07-08T00:00	14850	130	-48.5	-81.4	255	12	
2025-07-08T00:00	14900	129	-48.4	-81.2	252	13	
2025-07-08T00:00	14950	128	-48.5	-80.9	251	13	
2025-07-08T00:00	15000	127	-48.8	-81.0	250	14	
2025-07-08T00:00	15050	126	-49.3	-81.2	250	14	
2025-07-08T00:00	15100	125	-49.8	-81.3	251	15	
2025-07-08T00:00	15150	124	-50.2	-81.4	253	15	
2025-07-08T00:00	15200	123	-50.7	-81.6	254	15	
2025-07-08T00:00	15250	122	-51.1	-81.8	255	15	
2025-07-08T00:00	15300	121	-51.6	-82.0	255	16	
2025-07-08T00:00	15350	120	-51.9	-82.2	256	17	
2025-07-08T00:00	15400	119	-52.2	-82.6	258	17	
2025-07-08T00:00	15450	118	-51.6	-82.7	260	16	
2025-07-08T00:00	15500	117	-50.7	-82.6	261	14	
2025-07-08T00:00	15550	116	-50.6	-82.5	263	13	
2025-07-08T00:00	15600	116	-50.7	-82.3	265	12	
2025-07-08T00:00	15650	115	-51.0	-82.4	269	10	
2025-07-08T00:00	15700	114	-51.0	-82.5	269	9	
2025-07-08T00:00	15750	113	-50.8	-82.5	263	8	
2025-07-08T00:00	15800	112	-51.0	-82.6	253	7	
2025-07-08T00:00	15850	111	-51.2	-82.6	244	7	
2025-07-08T00:00	15900	110	-51.4	-82.7	234	8	
2025-07-08T00:00	15950	109	-51.4	-82.6	224	9	
2025-07-08T00:00	16000	109	-51.7	-82.9	218	9	
2025-07-08T00:00	16050	108	-51.5	-82.8	217	9	
2025-07-08T00:00	16100	107	-51.9	-82.8	219	9	
2025-07-08T00:00	16150	106	-52.2	-82.8	222	9	
2025-07-08T00:00	16200	105	-52.6	-83.1	225	9	
2025-07-08T00:00	16250	104	-53.0	-83.3	231	9	
2025-07-08T00:00	16300	104	-53.3	-83.3	236	10	
2025-07-08T00:00	16350	103	-53.8	-83.5	239	10	
2025-07-08T00:00	16400	102	-54.1	-83.6	241	11	
2025-07-08T00:00	16450	101	-54.1	-83.7	244	11	
2025-07-08T00:00	16500	100	-54.4	-83.8	249	11	
2025-07-08T00:00	16550	100	-54.8	-83.9	253	12	
2025-07-08T00:00	16600	99	-55.3	-84.0	257	11	
2025-07-08T00:00	16650	98	-55.6	-84.3	259	11	
2025-07-08T00:00	16700	97	-55.5	-84.3	259	10	
2025-07-08T00:00	16750	97	-55.7	-84.4	259	10	
2025-07-08T00:00	16800	96	-55.9	-84.5	258	10	
2025-07-08T00:00	16850	95	-55.7	-84.6	255	11	
2025-07-08T00:00	16900	94	-55.4	-84.5	251	11	
2025-07-08T00:00	16950	94	-55.5	-84.3	245	12	
2025-07-08T00:00	17000	93	-55.8	-84.3	243	12	
2025-07-08T00:00	17050	92	-56.1	-84.4	245	13	
2025-07-08T00:00	17100	91	-56.2	-84.8	247	13	
2025-07-08T00:00	17150	91	-55.5	-84.7	246	14	
2025-07-08T00:00	17200	90	-54.8	-84.5	244	14	
2025-07-08T00:00	17250	89	-54.9	-84.6	245	13	
2025-07-08T00:00	17300	89	-54.8	-84.5	248	14	
2025-07-08T00:00	17350	88	-55.2	-84.6	249	14	
2025-07-08T00:00	17400	87	-55.3	-84.6	249	14	
2025-07-08T00:00	17450	87	-55.5	-84.6	249	14	
2025-07-08T00:00	17500	86	-55.6	-84.9	252	14	
2025-07-08T00:00	17550	85	-55.1	-84.9	258	13	
2025-07-08T00:00	17600	85	-54.7	-85.0	262	13	
2025-07-08T00:00	17650	84	-54.4	-85.0	262	13	
2025-07-08T00:00	17700	83	-53.7	-84.9	260	13	
2025-07-08T00:00	17750	83	-53.1	-84.6	258	14	
2025-07-08T00:00	17800	82	-52.6	-84.4	259	14	
2025-07-08T00:00	17850	81	-52.7	-84.4	263	12	
2025-07-08T00:00	17900	81	-52.1	-84.0	270	11	
2025-07-08T00:00	17950	80	-51.7	-83.8	277	9	
2025-07-08T00:00	18000	79	-51.8	-83.8	286	7	
2025-07-08T00:00	18050	79	-51.7	-83.6	298	5	
2025-07-08T00:00	18100	78	-51.9	-83.4	307	4	
2025-07-08T00:00	18150	78	-52.4	-83.4	311	4	
2025-07-08T00:00	18200	77	-52.8	-83.5	309	3	
2025-07-08T00:00	18250	76	-53.2	-83.5	303	2	
2025-07-08T00:00	18300	76	-53.7	-83.5	283	1	
2025-07-08T00:00	18350	75	-54.1	-83.4	206	1	
2025-07-08T00:00	18400	75	-54.0	-83.2	176	2	
2025-07-08T00:00	18450	74	-54.1	-83.5	172	2	
2025-07-08T00:00	18500	74	-54.5	-84.0	175	2	
2025-07-08T00:00	18550	73	-54.6	-84.4	197	1	
2025-07-08T00:00	18600	72	-54.5	-84.2	237	1	
2025-07-08T00:00	18650	72	-54.9	-84.3	248	2	
2025-07-08T00:00	18700	71	-54.9	-84.3	242	2	
2025-07-08T00:00	18750	71	-54.4	-84.4	236	2	
2025-07-08T00:00	18800	70	-54.4	-84.9	230	1	
2025-07-08T00:00	18850	70	-53.9	-84.9	150	0	
2025-07-08T00:00	18900	69	-53.8	-85.0	87	1	
2025-07-08T00:00	18950	69	-53.4	-84.9	99	2	
2025-07-08T00:00	19000	68	-52.9	-84.5	112	3	
2025-07-08T00:00	19050	68	-52.9	-84.5	128	4	
2025-07-08T00:00	19100	67	-52.9	-84.7	139	5	
2025-07-08T00:00	19150	66	-51.7	-84.0	142	7	
2025-07-08T00:00	19200	66	-51.7	-84.0	140	8	
2025-07-08T00:00	19250	65	-52.2	-83.9	136	8	
2025-07-08T00:00	19300	65	-52.5	-84.0	132	8	
2025-07-08T00:00	19350	64	-52.7	-84.0	130	8	
2025-07-08T00:00	19400	64	-52.9	-84.1	128	8	
2025-07-08T00:00	19450	63	-53.1	-84.2	130	8	
2025-07-08T00:00	19500	63	-53.3	-84.3	133	8	
2025-07-08T00:00	19550	62	-53.6	-84.4	138	9	
2025-07-08T00:00	19600	62	-53.8	-84.5	142	9	
2025-07-08T00:00	19650	62	-54.0	-84.6	146	8	
2025-07-08T00:00	19700	61	-54.0	-84.8	149	7	
2025-07-08T00:00	19750	61	-53.8	-84.9	153	6	
2025-07-08T00:00	19800	60	-53.0	-84.6	157	7	
2025-07-08T00:00	19850	60	-53.0	-84.6	161	7	
2025-07-08T00:00	19900	59	-53.3	-84.6	163	6	
2025-07-08T00:00	19950	59	-53.3	-84.4	163	5	
2025-07-08T00:00	20000	58	-53.3	-84.3	161	4	
2025-07-08T00:00	20050	58	-53.7		164	2	
2025-07-08T00:00	20100	57	-53.9		192	1	
2025-07-08T00:00	20150	57	-53.9		234	1	
2025-07-08T00:00	20200	56	-53.7		244	0	
2025-07-08T00:00	20250	56	-53.5		76	0	
2025-07-08T00:00	20300	56	-53.5		60	1	
2025-07-08T00:00	20350	55	-53.6		42	1	
2025-07-08T00:00	20400	55	-53.5		23	2	
2025-07-08T00:00	20450	54	-53.6		18	3	
2025-07-08T00:00	20500	54	-53.6		24	3	
2025-07-08T00:00	20550	53	-53.6		36	3	
2025-07-08T00:00	20600	53	-53.6		59	3	
2025-07-08T00:00	20650	53	-53.9		88	4	
2025-07-08T00:00	20700	52	-53.7		101	5	
2025-07-08T00:00	20750	52	-52.5		106	5	
2025-07-08T00:00	20800	51	-52.3		112	5	
2025-07-08T00:00	20850	51	-52.7		122	5	
2025-07-08T00:00	20900	51	-53.1		135	5	
2025-07-08T00:00	20950	50	-53.4		150	5	
2025-07-08T00:00	21000	50	-53.5		161	6	
2025-07-08T00:00	21050	49	-53.7		169	6	
2025-07-08T00:00	21100	49	-53.8		174	6	
2025-07-08T00:00	21150	49	-54.1		179	5	
2025-07-08T00:00	21200	48	-54.2		185	3	
2025-07-08T00:00	21250	48	-54.3		191	2	
2025-07-08T00:00	21300	48	-54.2		194	1	
2025-07-08T00:00	21350	47	-54.4		199	1	
2025-07-08T00:00	21400	47	-54.1		199	1	
2025-07-08T00:00	21450	46	-53.7		178	1	
2025-07-08T00:00	21500	46	-53.1		82	1	
2025-07-08T00:00	21550	46	-52.8		62	3	
2025-07-08T00:00	21600	45	-52.8		67	4	
2025-07-08T00:00	21650	45	-52.4		82	5	
2025-07-08T00:00	21700	45	-52.3		98	5	
2025-07-08T00:00	21750	44	-52.5		112	6	
2025-07-08T00:00	21800	44	-52.6		122	6	
2025-07-08T00:00	21850	44	-52.4		130	5	
2025-07-08T00:00	21900	43	-52.4		134	4	
2025-07-08T00:00	21950	43	-52.5		133	3	
2025-07-08T00:00	22000	43	-52.7		126	3	
2025-07-08T00:00	22050	42	-52.7		108	3	
2025-07-08T00:00	22100	42	-52.6		87	3	
2025-07-08T00:00	22150	42	-52.2		69	4	
2025-07-08T00:00	22200	41	-52.0		55	5	
2025-07-08T00:00	22250	41	-52.0		46	5	
2025-07-08T00:00	22300	41	-51.9		42	5	
2025-07-08T00:00	22350	40	-51.6		47	5	
2025-07-08T00:00	22400	40	-51.8		57	6	
2025-07-08T00:00	22450	40	-51.9		72	7	
2025-07-08T00:00	22500	40	-51.7		87	8	
2025-07-08T00:00	22550	39	-51.7		98	9	
2025-07-08T00:00	22600	39	-51.4		106	9	
2025-07-08T00:00	22650	39	-51.4		113	10	
2025-07-08T00:00	22700	38	-51.2		116	10	
2025-07-08T00:00	22750	38	-51.2		118	10	
2025-07-08T00:00	22800	38	-51.4		118	8	
2025-07-08T00:00	22850	37	-50.8		116	7	
2025-07-08T00:00	22900	37	-50.3		117	8	
2025-07-08T00:00	22950	37	-50.1		122	9	
2025-07-08T00:00	23000	37	-50.0		128	10	
2025-07-08T00:00	23050	36	-50.1		134	10	
2025-07-08T00:00	23100	36	-50.3		139	9	
2025-07-08T00:00	23150	36	-50.3		140	7	
2025-07-08T00:00	23200	35	-50.1		136	5	
2025-07-08T00:00	23250	35	-50.1		132	4	
2025-07-08T00:00	23300	35	-50.0		132	4	
2025-07-08T00:00	23350	35	-50.1		131	5	
2025-07-08T00:00	23400	34	-50.2		124	5	
2025-07-08T00:00	23450	34	-50.2		114	4	
2025-07-08T00:00	23500	34	-50.3		109	4	
2025-07-08T00:00	23550	34	-50.3		113	5	
2025-07-08T00:00	23600	33	-50.3		117	6	
2025-07-08T00:00	23650	33	-50.4		117	7	
2025-07-08T00:00	23700	33	-50.4		115	7	
2025-07-08T00:00	23750	33	-50.4		114	7	
2025-07-08T00:00	23800	32	-50.7		116	7	
2025-07-08T00:00	23850	32	-50.7		119	7	
2025-07-08T00:00	23900	32	-50.9		124	7	
2025-07-08T00:00	23950	32	-51.2		130	7	
2025-07-08T00:00	24000	31	-50.8		136	7	
2025-07-08T00:00	24050	31	-50.8		141	8	
2025-07-08T00:00	24100	31	-51.1		145	7	
2025-07-08T00:00	24150	31	-51.1		147	6	
2025-07-08T00:00	24200	30	-50.8		139	4	
2025-07-08T00:00	24250	30	-50.3		111	4	
2025-07-08T00:00	24300	30	-50.2		90	5	
2025-07-08T00:00	24350	30	-50.2		84	6	
2025-07-08T00:00	24400	30	-50.4		88	8	
2025-07-08T00:00	24450	29	-50.5		94	9	
2025-07-08T00:00	24500	29	-50.6		99	10	
2025-07-08T00:00	24550	29	-50.7		100	11	
2025-07-08T00:00	24600	29	-50.6		100	12	
2025-07-08T00:00	24650	28	-50.9		101	12	
2025-07-08T00:00	24700	28	-51.1		101	12	
2025-07-08T00:00	24750	28	-51.1		101	10	
2025-07-08T00:00	24800	28	-51.0		104	9	
2025-07-08T00:00	24850	28	-50.8		109	8	
2025-07-08T00:00	24900	27	-51.0		114	7	
2025-07-08T00:00	24950	27	-50.6		114	6	
2025-07-08T00:00	25000	27	-50.4		108	5	
2025-07-08T00:00	25050	27	-49.9		102	5	
2025-07-08T00:00	25100	27	-49.5		96	6	
2025-07-08T00:00	25150	26	-49.2		92	8	
2025-07-08T00:00	25200	26	-48.9		93	8	
2025-07-08T00:00	25250	26	-49.0		97	8	
2025-07-08T00:00	25300	26	-49.2		99	7	
2025-07-08T00:00	25350	26	-49.2		96	6	
2025-07-08T00:00	25400	25	-49.2		92	7	
2025-07-08T00:00	25450	25	-49.0		91	8	
2025-07-08T00:00	25500	25	-48.5		91	8	
2025-07-08T00:00	25550	25	-48.0		92	8	
2025-07-08T00:00	25600	25	-47.6		92	8	
2025-07-08T00:00	25650	24	-47.4		89	7	
2025-07-08T00:00	25700	24	-47.3		82	7	
2025-07-08T00:00	25750	24	-47.0		71	6	
2025-07-08T00:00	25800	24	-47.0		60	6	
2025-07-08T00:00	25850	24	-46.7		59	6	
2025-07-08T00:00	25900	23	-46.5		63	6	
2025-07-08T00:00	25950	23	-46.3		67	6	
2025-07-08T00:00	26000	23	-46.6		68	6	
2025-07-08T00:00	26050	23	-46.5		67	6	
2025-07-08T00:00	26100	23	-46.4		69	7	
2025-07-08T00:00	26150	23	-46.5		72	7	
2025-07-08T00:00	26200	22	-46.6		77	8	
2025-07-08T00:00	26250	22	-46.6		83	8	
2025-07-08T00:00	26300	22	-46.5		89	9	
2025-07-08T00:00	26350	22	-46.5		94	9	
2025-07-08T00:00	26400	22	-46.4		97	8	
2025-07-08T00:00	26450	22	-46.4		97	8	
2025-07-08T00:00	26500	21	-46.4		96	7	
2025-07-08T00:00	26550	21	-46.4		92	7	
2025-07-08T00:00	26600	21	-46.7		89	7	
2025-07-08T00:00	26650	21	-46.8		88	9	
2025-07-08T00:00	26700	21	-46.7		89	10	
2025-07-08T00:00	26750	21	-46.8		90	12	
2025-07-08T00:00	26800	20	-46.7		91	12	
2025-07-08T00:00	26850	20	-46.3		90	11	
2025-07-08T00:00	26900	20	-46.0		88	11	
2025-07-08T00:00	26950	20	-46.1		87	12	
2025-07-08T00:00	27000	20	-46.1		90	12	
2025-07-08T00:00	27050	20	-46.2		95	14	
2025-07-08T00:00	27100	20	-46.1		100	15	
2025-07-08T00:00	27150	19	-46.0		105	16	
2025-07-08T00:00	27200	19	-46.2		108	16	
2025-07-08T00:00	27250	19	-46.3		110	15	
2025-07-08T00:00	27300	19	-46.3		111	13	
2025-07-08T00:00	27350	19	-45.8		110	12	
2025-07-08T00:00	27400	19	-45.5		106	10	
2025-07-08T00:00	27450	19	-45.3		99	10	
2025-07-08T00:00	27500	18	-45.2		92	10	
2025-07-08T00:00	27550	18	-44.9		89	11	
2025-07-08T00:00	27600	18	-44.8		87	12	
2025-07-08T00:00	27650	18	-44.7		84	12	
2025-07-08T00:00	27700	18	-44.5		80	12	
2025-07-08T00:00	27750	18	-44.2		76	12	
2025-07-08T00:00	27800	18	-43.9		73	12	
2025-07-08T00:00	27850	18	-44.1		74	13	
2025-07-08T00:00	27900	17	-44.1		76	14	
2025-07-08T00:00	27950	17	-44.1		79	14	
2025-07-08T00:00	28000	17	-44.0		84	15	
2025-07-08T00:00	28050	17	-44.0		89	16	
2025-07-08T00:00	28100	17	-44.1		93	16	
2025-07-08T00:00	28150	17	-44.1		97	17	
2025-07-08T00:00	28200	17	-44.1		99	17	
2025-07-08T00:00	28250	16	-44.2		99	17	
2025-07-08T00:00	28300	16	-43.7		98	15	
2025-07-08T00:00	28350	16	-43.0		100	14	
2025-07-08T00:00	28400	16	-43.1		103	14	
2025-07-08T00:00	28450	16	-43.2		106	14	
2025-07-08T00:00	28500	16	-43.0		108	14	
2025-07-08T00:00	28550	16	-42.5		109	14	
2025-07-08T00:00	28600	16	-42.2		109	13	
2025-07-08T00:00	28650	16	-42.3		109	12	
2025-07-08T00:00	28700	15	-42.4		109	12	
2025-07-08T00:00	28750	15	-42.4		107	11	
2025-07-08T00:00	28800	15	-42.6		102	11	
2025-07-08T00:00	28850	15	-42.5		95	11	
2025-07-08T00:00	28900	15	-42.3		92	12	
2025-07-08T00:00	28950	15	-42.2		92	13	
2025-07-08T00:00	29000	15	-42.2		95	14	
2025-07-08T00:00	29050	15	-42.4		100	15	
2025-07-08T00:00	29100	15	-42.5		104	15	
2025-07-08T00:00	29150	14	-42.4		107	15	
2025-07-08T00:00	29200	14	-42.1		109	14	
2025-07-08T00:00	29250	14	-42.0		109	13	
2025-07-08T00:00	29300	14	-41.8		111	12	
2025-07-08T00:00	29350	14	-41.6		112	12	
2025-07-08T00:00	29400	14	-41.7		111	11	
2025-07-08T00:00	29450	14	-41.6		110	11	
2025-07-08T00:00	29500	14	-41.4		108	11	
2025-07-08T00:00	29550	14	-41.3		107	11	
2025-07-08T00:00	29600	14	-41.0		105	10	
2025-07-08T00:00	29650	13	-40.6		100	10	
2025-07-08T00:00	29700	13	-40.5		95	10	
2025-07-08T00:00	29750	13	-40.4		94	11	
2025-07-08T00:00	29800	13	-40.2		95	12	
2025-07-08T00:00	29850	13	-40.1		99	13	
2025-07-08T00:00	29900	13	-40.0		104	13	
2025-07-08T00:00	29950	13	-39.8		109	14	
2025-07-08T00:00	30000	13	-39.6		113	13	
2025-07-08T00:00	30050	13	-39.5		114	13	
2025-07-08T00:00	30100	13	-39.0		110	12	
2025-07-08T00:00	30150	12	-38.4		104	11	
2025-07-08T00:00	30200	12	-37.9		99	11	
2025-07-08T00:00	30250	12	-37.7		95	11	
2025-07-08T00:00	30300	12	-37.5		95	11	
2025-07-08T00:00	30350	12	-37.5		97	11	
2025-07-08T00:00	30400	12	-37.7		101	11	
2025-07-08T00:00	30450	12	-37.8		103	12	
2025-07-08T00:00	30500	12	-37.8		103	12	
2025-07-08T00:00	30550	12	-37.8		100	13	
2025-07-08T00:00	30600	12	-37.3		96	13	
2025-07-08T00:00	30650	12	-37.0		94	13	
2025-07-08T00:00	30700	12	-37.0		92	12	
2025-07-08T00:00	30750	11	-37.1		91	12	
2025-07-08T00:00	30800	11	-37.2		92	11	
2025-07-08T00:00	30850	11	-37.4		93	11	
2025-07-08T00:00	30900	11	-37.6		95	10	
2025-07-08T00:00	30950	11	-37.8		95	10	
2025-07-08T00:00	31000	11	-38.1		92	9	
2025-07-08T00:00	31050	11	-38.1		87	10	
2025-07-08T00:00	31100	11	-38.0		80	10	
2025-07-08T00:00	31150	11	-37.9		75	12	
2025-07-08T00:00	31200	11	-38.0		73	12	
2025-07-08T00:00	31250	11	-38.1		72	12	
2025-07-08T00:00	31300	11	-38.1		73	11	
2025-07-08T00:00	31350	10	-38.3		77	10	
2025-07-08T00:00	31400	10	-38.5		81	9	
2025-07-08T00:00	31450	10	-38.4		83	9	
2025-07-08T00:00	31500	10	-38.3		79	9	
2025-07-08T00:00	31550	10	-38.0		71	10	
2025-07-08T00:00	31600	10	-38.0		64	11	
2025-07-08T00:00	31650	10	-37.9		60	12	
2025-07-08T00:00	31700	10	-37.9		58	13	
2025-07-08T00:00	31750	10	-37.9		58	14	
2025-07-08T00:00	31800	10	-37.8		61	14	
2025-07-08T00:00	31850	10	-37.6		65	14	
2025-07-08T00:00	31900	10	-37.4		71	13	
2025-07-08T00:00	31950	10	-37.5		75	13	
2025-07-08T00:00	32000	10	-37.3		77	13	
2025-07-08T00:00	32050	9	-37.3		76	14	
2025-07-08T00:00	32100	9	-37.3		76	15	
2025-07-08T00:00	32150	9	-37.3		76	16	
2025-07-08T00:00	32200	9	-37.2		74	15	
2025-07-08T00:00	32250	9	-37.3		70	15	
2025-07-08T00:00	32300	9	-37.4		66	14	
2025-07-08T00:00	32350	9	-37.2		62	14	
2025-07-08T00:00	32400	9	-36.8		61	14	
2025-07-08T00:00	32450	9	-36.6		62	15	
2025-07-08T00:00	32500	9	-36.3		66	16	
2025-07-08T00:00	32550	9	-36.1		70	17	
2025-07-08T00:00	32600	9	-36.0		74	17	
2025-07-08T00:00	32650	9	-36.0		76	18	
2025-07-08T00:00	32700	9	-35.8		78	18	
2025-07-08T00:00	32750	9	-35.6		79	18	
2025-07-08T00:00	32800	8	-35.6		80	18	
2025-07-08T00:00	32850	8	-35.8		81	17	
2025-07-08T00:00	32900	8	-36.0		81	17	
2025-07-08T00:00	32950	8	-36.0		80	17	
2025-07-08T00:00	33000	8	-35.8		80	18	
2025-07-08T00:00	33050	8	-35.7		82	19	
2025-07-08T00:00	33100	8	-35.4		85	19	
2025-07-08T00:00	33150	8	-35.1		90	20	
2025-07-08T00:00	33200	8	-35.3		92	20	
2025-07-08T00:00	33250	8	-35.2		93	20	
2025-07-08T00:00	33300	8	-34.8		91	18	
2025-07-08T00:00	33350	8	-34.8		89	17	
2025-07-08T00:00	33400	8	-34.9		87	16	
2025-07-08T00:00	33450	8	-34.9		86	16	
2025-07-08T00:00	33500	8	-34.7		87	17	
2025-07-08T00:00	33550	8	-34.7		89	18	
2025-07-08T00:00	33600	8	-34.7		92	18	
2025-07-08T00:00	33650	8	-34.5		93	19	
2025-07-08T00:00	33700	7	-33.9		93	19	
2025-07-08T00:00	33750	7	-33.2		93	18	
2025-07-08T00:00	33800	7	-33.2		95	18	
2025-07-08T00:00	33850	7	-33.3		98	19	
2025-07-08T00:00	33900	7	-33.1		98	19	
2025-07-08T00:00	33950	7	-32.6		97	18	
2025-07-08T00:00	34000	7	-32.0		95	17	
2025-07-08T00:00	34050	7	-31.8		95	15	
2025-07-08T00:00	34100	7	-31.7		95	14	
2025-07-08T00:00	34150	7	-31.7		94	13	
2025-07-08T00:00	34200	7	-31.5		91	13	
2025-07-08T00:00	34250	7	-31.1		90	13	
2025-07-08T00:00	34300	7	-30.7		89	15	
2025-07-08T00:00	34350	7	-30.8		90	16	
2025-07-08T00:00	34400	7	-30.9		91	17	
2025-07-08T00:00	34450	7	-30.8		94	19	
2025-07-08T00:00	34500	7	-30.8		97	20	
2025-07-08T00:00	34550	7	-30.6		100	22	
2025-07-08T00:00	34600	7	-30.6		103	22	
2025-07-08T00:00	34650	7	-30.8		105	23	
2025-07-08T00:00	34700	6	-30.8		106	22	
2025-07-08T00:00	34750	6	-30.7		108	21	
2025-07-08T00:00	34800	6	-30.7		109	20	
2025-07-08T00:00	34850	6	-30.4		109	18	
2025-07-08T00:00	34900	6	-30.0		106	17	
2025-07-08T00:00	34950	6	-29.9		103	16	
2025-07-08T00:00	35000	6	-29.4		99	16	
2025-07-08T00:00	35050	6	-29.1		94	15	
2025-07-08T00:00	35100	6	-29.0		88	16	
2025-07-08T00:00	35150	6	-28.6		86	16	
2025-07-08T00:00	35200	6	-28.2		87	17	
2025-07-08T00:00	35250	6	-28.0		89	18	
2025-07-08T00:00	35300	6	-27.9		90	19	
2025-07-08T00:00	35350	6	-27.6		91	20	
2025-07-08T00:00	35400	6	-27.3		93	21	
2025-07-08T00:00	35450	6	-27.4		94	21	
2025-07-08T00:00	35500	6	-27.4		94	21	
2025-07-08T00:00	35550	6	-27.3		92	20	
2025-07-08T00:00	35600	6	-26.9		90	20	
2025-07-08T00:00	35650	6	-26.6		88	20	
2025-07-08T00:00	35700	6	-26.4		85	20	
2025-07-08T00:00	35750	6	-26.2		84	21	
2025-07-08T00:00	35800	6	-26.1		84	21	
2025-07-08T00:00	35850	6	-26.0		84	22	
2025-07-08T00:00	35900	5	-26.0		85	22	
2025-07-08T00:00	35950	5	-25.9		87	23	
2025-07-08T00:00	36000	5	-26.1		89	23	
2025-07-08T00:00	36050	5	-26.2		92	24	
2025-07-08T00:00	36100	5	-26.3		94	24	
2025-07-08T00:00	36150	5	-26.2		95	23	
2025-07-08T00:00	36200	5	-26.2		96	23	
2025-07-08T00:00	36250	5	-26.3		97	23	
2025-07-08T00:00	36300	5	-26.5		98	23	
2025-07-08T00:00	36350	5	-26.6		98	24	
2025-07-08T00:00	36400	5	-26.6		97	24	
2025-07-08T00:00	36450	5	-26.5		95	24	
2025-07-08T00:00	36500	5	-26.9		92	23	
2025-07-08T00:00	36550	5	-26.3		90	23	
2025-07-08T00:00	36600	5	-26.1		88	22	
2025-07-08T00:00	36650	5	-26.0		87	21	
2025-07-08T00:00	36700	5	-25.8		86	21	
2025-07-08T00:00	36750	5	-25.7		86	20	
2025-07-08T00:00	36800	5	-25.5		86	20	
2025-07-08T00:00	36850	5	-25.3		85	20	
2025-07-08T00:00	36900	5	-25.2		84	20	
2025-07-08T00:00	36950	5	-25.1		84	20	
2025-07-08T00:00	37000	5	-24.9		85	21	
2025-07-08T00:00	37050	5	-24.8		86	22	
2025-07-08T00:00	37100	5	-25.0		87	24	
2025-07-08T00:00	37150	5	-25.2		88	25	
2025-07-08T00:00	37200	5	-25.2		88	24	
2025-07-08T00:00	37250	5	-25.3		87	23	
2025-07-08T00:00	37300	5	-25.3		88	22	
2025-07-08T00:00	37350	4	-25.2		91	22	
2025-07-08T00:00	37400	4	-25.2		94	22	
2025-07-08T00:00	37450	4	-25.3		97	21	
2025-07-08T00:00	37500	4	-25.4		98	21	
2025-07-08T12:00	491	959	15.9	4.3	332	3	
2025-07-08T12:00	501	958	15.5	5.6	333	2	
2025-07-08T12:00	520	956	15.3	5.1	331	2	
2025-07-08T12:00	540	954	14.7	4.6	326	2	
2025-07-08T12:00	560	952	14.6	4.6	320	2	
2025-07-08T12:00	580	949	14.5	4.6	314	3	
2025-07-08T12:00	600	947	14.3	4.5	307	3	
2025-07-08T12:00	620	945	14.2	4.6	301	3	
2025-07-08T12:00	640	942	14.1	4.7	295	3	
2025-07-08T12:00	660	940	13.9	4.7	289	3	
2025-07-08T12:00	680	938	13.7	4.7	286	3	
2025-07-08T12:00	700	936	13.6	4.7	283	3	
2025-07-08T12:00	720	933	13.3	4.6	281	3	
2025-07-08T12:00	740	931	13.1	4.6	279	3	
2025-07-08T12:00	760	929	12.9	4.6	277	3	
2025-07-08T12:00	780	927	12.7	4.5	275	3	
2025-07-08T12:00	800	925	12.5	4.4	274	3	
2025-07-08T12:00	820	923	12.3	4.3	272	3	
2025-07-08T12:00	840	921	12.2	4.3	271	3	
2025-07-08T12:00	860	918	12.0	4.3	270	3	
2025-07-08T12:00	880	916	11.9	4.3	269	3	
2025-07-08T12:00	900	914	11.6	4.2	268	3	
2025-07-08T12:00	920	912	11.4	4.3	267	3	
2025-07-08T12:00	940	909	11.2	4.2	267	3	
2025-07-08T12:00	960	907	11.0	4.0	267	3	
2025-07-08T12:00	980	905	10.8	3.5	267	3	
2025-07-08T12:00	1000	903	10.4	2.7	268	3	
2025-07-08T12:00	1020	901	10.3	2.6	268	3	
2025-07-08T12:00	1040	899	10.1	2.8	270	3	
2025-07-08T12:00	1060	896	9.8	2.9	271	3	
2025-07-08T12:00	1080	894	9.6	3.2	273	3	
2025-07-08T12:00	1100	892	9.4	3.3	275	3	
2025-07-08T12:00	1120	890	9.3	3.2	278	3	
2025-07-08T12:00	1140	888	9.1	3.2	279	3	
2025-07-08T12:00	1160	885	8.8	3.1	282	3	
2025-07-08T12:00	1180	883	8.6	3.0	283	3	
2025-07-08T12:00	1200	881	8.5	3.0	282	3	
2025-07-08T12:00	1220	879	8.3	3.0	280	3	
2025-07-08T12:00	1240	877	8.1	3.0	277	3	
2025-07-08T12:00	1260	875	7.9	2.8	273	3	
2025-07-08T12:00	1280	873	7.7	3.0	268	3	
2025-07-08T12:00	1300	871	7.5	2.9	262	3	
2025-07-08T12:00	1320	869	7.3	2.8	258	3	
2025-07-08T12:00	1340	867	7.2	2.7	253	4	
2025-07-08T12:00	1360	864	7.0	2.7	251	4	
2025-07-08T12:00	1380	862	6.8	2.7	249	4	
2025-07-08T12:00	1400	860	6.6	2.7	248	4	
2025-07-08T12:00	1420	858	6.4	2.6	248	4	
2025-07-08T12:00	1440	856	6.2	2.5	249	4	
2025-07-08T12:00	1460	854	6.0	2.4	249	4	
2025-07-08T12:00	1480	852	5.8	2.5	250	4	
2025-07-08T12:00	1500	850	5.6	2.4	250	4	
2025-07-08T12:00	1520	848	5.4	2.5	249	4	
2025-07-08T12:00	1540	846	5.2	2.4	248	5	
2025-07-08T12:00	1560	844	5.0	2.3	247	5	
2025-07-08T12:00	1580	842	4.8	2.1	247	5	
2025-07-08T12:00	1600	840	4.6	1.9	246	4	
2025-07-08T12:00	1620	838	4.4	2.0	246	4	
2025-07-08T12:00	1640	835	4.2	2.1	245	4	
2025-07-08T12:00	1660	833	4.0	2.1	245	4	
2025-07-08T12:00	1680	831	3.9	2.0	244	3	
2025-07-08T12:00	1700	829	3.8	0.8	244	3	
2025-07-08T12:00	1720	827	3.7	0.6	247	3	
2025-07-08T12:00	1740	825	3.5	0.6	252	3	
2025-07-08T12:00	1760	823	3.4	0.4	258	3	
2025-07-08T12:00	1780	821	3.1	0.8	266	4	
2025-07-08T12:00	1800	819	2.9	0.8	272	4	
2025-07-08T12:00	1820	817	2.6	0.8	278	4	
2025-07-08T12:00	1840	815	2.4	0.7	282	5	
2025-07-08T12:00	1860	813	2.3	0.7	284	5	
2025-07-08T12:00	1880	811	2.1	0.6	285	5	
2025-07-08T12:00	1900	809	1.9	0.6	286	5	
2025-07-08T12:00	1920	807	1.7	0.6	287	5	
2025-07-08T12:00	1940	805	1.5	0.4	288	5	
2025-07-08T12:00	1960	803	1.4	0.2	288	5	
2025-07-08T12:00	1980	801	1.3	0.0	290	5	
2025-07-08T12:00	2000	799	1.2	-0.2	290	5	
2025-07-08T12:00	2020	797	1.0	-0.3	292	5	
2025-07-08T12:00	2040	795	0.8	-0.8	293	6	
2025-07-08T12:00	2060	793	0.7	-1.0	294	6	
2025-07-08T12:00	2080	791	0.6	-1.2	295	6	
2025-07-08T12:00	2100	789	0.6	-1.7	297	6	
2025-07-08T12:00	2120	787	0.6	-2.6	298	6	
2025-07-08T12:00	2140	785	0.6	-2.8	299	6	
2025-07-08T12:00	2160	783	0.4	-2.8	300	6	
2025-07-08T12:00	2180	781	0.2	-2.9	299	6	
2025-07-08T12:00	2200	780	0.0	-3.0	298	6	
2025-07-08T12:00	2220	778	-0.1	-3.2	298	6	
2025-07-08T12:00	2240	776	-0.3	-3.2	297	6	
2025-07-08T12:00	2260	774	-0.4	-3.5	296	6	
2025-07-08T12:00	2280	772	-0.6	-3.5	296	6	
2025-07-08T12:00	2300	770	-0.7	-3.6	296	6	
2025-07-08T12:00	2320	768	-0.8	-3.6	297	6	
2025-07-08T12:00	2340	766	-0.9	-3.7	298	6	
2025-07-08T12:00	2360	764	-1.1	-3.8	299	6	
2025-07-08T12:00	2380	762	-1.3	-3.6	300	6	
2025-07-08T12:00	2400	760	-1.5	-3.7	300	6	
2025-07-08T12:00	2420	758	-1.7	-3.7	300	6	
2025-07-08T12:00	2440	756	-1.9	-3.5	300	7	
2025-07-08T12:00	2460	754	-2.0	-3.4	299	7	
2025-07-08T12:00	2480	753	-2.2	-3.5	299	7	
2025-07-08T12:00	2500	751	-2.4	-3.5	298	7	
2025-07-08T12:00	2520	749	-2.5	-3.6	298	7	
2025-07-08T12:00	2540	747	-2.7	-3.7	298	6	
2025-07-08T12:00	2560	745	-2.9	-3.7	299	6	
2025-07-08T12:00	2580	743	-3.0	-3.8	300	5	
2025-07-08T12:00	2600	741	-3.2	-3.8	300	5	
2025-07-08T12:00	2620	739	-3.4	-4.0	302	5	
2025-07-08T12:00	2640	738	-3.6	-4.1	302	5	
2025-07-08T12:00	2660	736	-3.7	-4.2	303	4	
2025-07-08T12:00	2680	734	-3.9	-4.5	304	4	
2025-07-08T12:00	2700	732	-4.1	-4.6	305	4	
2025-07-08T12:00	2720	730	-4.2	-4.7	305	4	
2025-07-08T12:00	2740	728	-4.4	-4.9	305	4	
2025-07-08T12:00	2760	726	-4.5	-5.0	305	3	
2025-07-08T12:00	2780	725	-4.7	-4.9	304	3	
2025-07-08T12:00	2800	723	-4.8	-4.9	302	3	
2025-07-08T12:00	2820	721	-5.0	-5.0	300	3	
2025-07-08T12:00	2840	719	-5.1	-5.1	298	3	
2025-07-08T12:00	2860	717	-5.3	-5.3	296	4	
2025-07-08T12:00	2880	715	-5.4	-5.4	295	4	
2025-07-08T12:00	2900	714	-5.5	-5.5	294	4	
2025-07-08T12:00	2920	712	-5.6	-5.6	294	4	
2025-07-08T12:00	2940	710	-5.7	-5.7	294	4	
2025-07-08T12:00	2960	708	-5.9	-5.9	294	4	
2025-07-08T12:00	2980	707	-6.0	-6.0	295	4	
2025-07-08T12:00	3000	705	-6.1	-6.1	295	4	
2025-07-08T12:00	3020	703	-6.3	-6.3	295	4	
2025-07-08T12:00	3040	701	-6.5	-6.6	292	4	
2025-07-08T12:00	3060	699	-6.7	-8.3	289	4	
2025-07-08T12:00	3080	697	-6.7	-9.7	285	4	
2025-07-08T12:00	3100	696	-6.7	-9.9	280	4	
2025-07-08T12:00	3120	694	-6.8	-10.4	275	4	
2025-07-08T12:00	3140	692	-6.7	-11.2	270	4	
2025-07-08T12:00	3160	690	-6.5	-12.9	265	4	
2025-07-08T12:00	3180	688	-6.3	-13.1	262	4	
2025-07-08T12:00	3200	687	-6.4	-13.1	261	4	
2025-07-08T12:00	3220	685	-6.6	-12.7	262	3	
2025-07-08T12:00	3240	683	-6.9	-12.9	265	4	
2025-07-08T12:00	3260	681	-7.1	-13.1	268	4	
2025-07-08T12:00	3280	680	-7.3	-13.3	270	4	
2025-07-08T12:00	3300	678	-7.4	-13.7	272	4	
2025-07-08T12:00	3320	676	-7.5	-14.1	273	4	
2025-07-08T12:00	3340	674	-7.7	-14.4	273	4	
2025-07-08T12:00	3360	673	-7.7	-15.6	272	4	
2025-07-08T12:00	3380	671	-7.8	-16.0	271	5	
2025-07-08T12:00	3400	670	-7.9	-16.0	269	5	
2025-07-08T12:00	3420	668	-8.1	-16.0	267	5	
2025-07-08T12:00	3440	666	-8.4	-15.9	265	5	
2025-07-08T12:00	3460	664	-8.5	-16.0	265	5	
2025-07-08T12:00	3480	662	-8.7	-16.0	266	5	
2025-07-08T12:00	3500	661	-8.9	-16.2	268	5	
2025-07-08T12:00	3520	659	-9.1	-16.2	271	5	
2025-07-08T12:00	3540	657	-9.2	-16.3	275	6	
2025-07-08T12:00	3560	656	-9.4	-16.5	279	6	
2025-07-08T12:00	3580	654	-9.4	-17.0	283	6	
2025-07-08T12:00	3600	652	-9.5	-17.1	286	7	
2025-07-08T12:00	3620	651	-9.6	-17.6	289	7	
2025-07-08T12:00	3640	649	-9.8	-17.9	292	7	
2025-07-08T12:00	3660	647	-9.9	-17.6	295	7	
2025-07-08T12:00	3680	646	-10.1	-17.2	297	8	
2025-07-08T12:00	3700	644	-10.3	-16.5	300	8	
2025-07-08T12:00	3720	642	-10.3	-14.4	302	8	
2025-07-08T12:00	3740	641	-10.4	-14.0	303	8	
2025-07-08T12:00	3760	639	-10.6	-14.3	304	9	
2025-07-08T12:00	3780	637	-10.8	-13.9	305	9	
2025-07-08T12:00	3800	636	-11.0	-13.2	305	9	
2025-07-08T12:00	3820	634	-11.2	-13.7	306	9	
2025-07-08T12:00	3840	632	-11.4	-14.1	306	9	
2025-07-08T12:00	3860	631	-11.5	-13.4	306	9	
2025-07-08T12:00	3880	629	-11.6	-12.4	307	9	
2025-07-08T12:00	3900	627	-11.8	-12.4	308	9	
2025-07-08T12:00	3920	626	-12.0	-12.5	308	9	
2025-07-08T12:00	3940	624	-12.1	-12.5	309	9	
2025-07-08T12:00	3960	622	-12.3	-12.6	310	9	
2025-07-08T12:00	3980	621	-12.5	-12.7	311	9	
2025-07-08T12:00	4000	619	-12.6	-12.8	314	9	
2025-07-08T12:00	4020	618	-12.8	-12.8	316	9	
2025-07-08T12:00	4040	616	-12.9	-13.1	318	9	
2025-07-08T12:00	4060	614	-13.1	-13.1	320	9	
2025-07-08T12:00	4080	613	-13.3	-13.3	323	10	
2025-07-08T12:00	4100	611	-13.4	-13.4	324	10	
2025-07-08T12:00	4120	610	-13.5	-13.5	324	10	
2025-07-08T12:00	4140	608	-13.7	-13.8	323	10	
2025-07-08T12:00	4160	606	-13.6	-14.7	321	10	
2025-07-08T12:00	4180	605	-13.6	-14.8	318	11	
2025-07-08T12:00	4200	603	-13.9	-14.5	316	11	
2025-07-08T12:00	4220	602	-14.1	-14.7	314	11	
2025-07-08T12:00	4240	600	-14.1	-15.2	313	11	
2025-07-08T12:00	4260	599	-14.2	-15.2	311	12	
2025-07-08T12:00	4280	597	-14.4	-15.4	310	12	
2025-07-08T12:00	4300	595	-14.5	-15.6	308	12	
2025-07-08T12:00	4320	594	-14.6	-15.6	306	12	
2025-07-08T12:00	4340	592	-14.8	-15.8	304	12	
2025-07-08T12:00	4360	591	-15.0	-16.0	302	11	
2025-07-08T12:00	4380	589	-15.2	-16.4	300	11	
2025-07-08T12:00	4400	588	-15.4	-16.4	298	11	
2025-07-08T12:00	4420	586	-15.5	-16.7	297	10	
2025-07-08T12:00	4440	584	-15.7	-16.6	296	10	
2025-07-08T12:00	4460	583	-15.9	-16.6	297	10	
2025-07-08T12:00	4480	581	-16.2	-16.8	298	9	
2025-07-08T12:00	4500	580	-16.4	-16.7	299	9	
2025-07-08T12:00	4520	578	-16.5	-17.0	300	9	
2025-07-08T12:00	4540	577	-16.6	-17.4	301	10	
2025-07-08T12:00	4560	575	-16.8	-17.4	301	10	
2025-07-08T12:00	4580	574	-17.0	-17.4	301	10	
2025-07-08T12:00	4600	572	-17.1	-18.0	300	10	
2025-07-08T12:00	4620	571	-17.2	-18.2	299	10	
2025-07-08T12:00	4640	569	-17.2	-19.1	297	11	
2025-07-08T12:00	4660	567	-17.1	-20.0	297	11	
2025-07-08T12:00	4680	566	-17.2	-20.0	296	11	
2025-07-08T12:00	4700	565	-17.3	-19.9	296	12	
2025-07-08T12:00	4720	563	-17.5	-20.2	296	12	
2025-07-08T12:00	4740	561	-17.7	-20.2	296	13	
2025-07-08T12:00	4760	560	-17.8	-20.2	296	13	
2025-07-08T12:00	4780	558	-18.0	-20.2	297	14	
2025-07-08T12:00	4800	557	-18.1	-20.2	299	14	
2025-07-08T12:00	4820	555	-18.4	-20.2	301	14	
2025-07-08T12:00	4840	554	-18.5	-20.5	303	14	
2025-07-08T12:00	4860	553	-18.6	-20.6	305	14	
2025-07-08T12:00	4880	551	-18.7	-20.5	307	14	
2025-07-08T12:00	4900	550	-18.8	-20.4	308	14	
2025-07-08T12:00	4920	548	-18.9	-20.6	309	14	
2025-07-08T12:00	4940	547	-19.1	-20.7	310	13	
2025-07-08T12:00	4960	545	-19.2	-20.7	310	13	
2025-07-08T12:00	4980	544	-19.4	-20.7	311	12	
2025-07-08T12:00	5000	542	-19.6	-20.8	312	12	
2025-07-08T12:00	5020	541	-19.8	-20.8	314	11	
2025-07-08T12:00	5040	539	-20.0	-20.9	315	11	
2025-07-08T12:00	5060	538	-20.1	-21.2	316	11	
2025-07-08T12:00	5080	536	-20.3	-21.6	317	12	
2025-07-08T12:00	5100	535	-20.5	-21.8	318	12	
2025-07-08T12:00	5120	534	-20.7	-21.5	317	13	
2025-07-08T12:00	5140	532	-20.8	-21.7	316	13	
2025-07-08T12:00	5160	531	-21.0	-21.8	316	14	
2025-07-08T12:00	5180	529	-21.2	-22.2	315	14	
2025-07-08T12:00	5200	528	-21.3	-23.0	315	15	
2025-07-08T12:00	5220	526	-21.4	-23.3	314	16	
2025-07-08T12:00	5240	525	-21.4	-23.2	313	16	
2025-07-08T12:00	5260	524	-21.4	-23.1	313	16	
2025-07-08T12:00	5280	522	-21.5	-22.9	312	17	
2025-07-08T12:00	5300	521	-21.7	-22.9	311	17	
2025-07-08T12:00	5320	519	-21.9	-22.7	311	17	
2025-07-08T12:00	5340	518	-22.1	-23.2	310	17	
2025-07-08T12:00	5360	516	-22.3	-22.7	309	17	
2025-07-08T12:00	5380	515	-22.4	-22.5	308	18	
2025-07-08T12:00	5400	514	-22.6	-22.7	307	18	
2025-07-08T12:00	5420	512	-22.7	-22.9	306	18	
2025-07-08T12:00	5440	511	-22.9	-23.1	305	19	
2025-07-08T12:00	5460	509	-23.0	-23.6	305	19	
2025-07-08T12:00	5480	508	-23.1	-24.0	305	20	
2025-07-08T12:00	5500	507	-23.2	-24.3	305	20	
2025-07-08T12:00	5520	505	-23.0	-26.1	306	20	
2025-07-08T12:00	5540	504	-22.9	-27.0	307	20	
2025-07-08T12:00	5560	502	-23.1	-27.1	308	21	
2025-07-08T12:00	5580	501	-23.2	-27.2	309	21	
2025-07-08T12:00	5600	500	-23.4	-27.4	310	21	
2025-07-08T12:00	5620	499	-23.6	-27.5	311	21	
2025-07-08T12:00	5640	497	-23.8	-27.7	311	22	
2025-07-08T12:00	5660	496	-23.9	-27.6	311	22	
2025-07-08T12:00	5680	494	-24.2	-27.7	311	22	
2025-07-08T12:00	5700	493	-24.4	-27.9	310	22	
2025-07-08T12:00	5720	492	-24.5	-28.0	310	22	
2025-07-08T12:00	5740	490	-24.7	-28.2	309	21	
2025-07-08T12:00	5760	489	-24.9	-28.2	307	21	
2025-07-08T12:00	5780	487	-25.0	-28.6	306	20	
2025-07-08T12:00	5800	486	-25.1	-28.8	305	20	
2025-07-08T12:00	5820	485	-25.3	-28.8	304	20	
2025-07-08T12:00	5840	484	-25.5	-28.7	303	20	
2025-07-08T12:00	5860	482	-25.6	-28.5	303	20	
2025-07-08T12:00	5880	481	-25.7	-28.5	304	19	
2025-07-08T12:00	5900	480	-25.7	-28.7	305	19	
2025-07-08T12:00	5920	478	-25.7	-30.1	306	19	
2025-07-08T12:00	5940	477	-25.7	-30.8	307	19	
2025-07-08T12:00	5960	476	-25.9	-30.7	308	19	
2025-07-08T12:00	5980	474	-26.1	-30.6	309	20	
2025-07-08T12:00	6000	473	-26.2	-30.6	310	20	
2025-07-08T12:00	6020	472	-26.4	-31.1	310	20	
2025-07-08T12:00	6040	470	-26.6	-31.3	311	21	
2025-07-08T12:00	6060	469	-26.7	-31.3	311	21	
2025-07-08T12:00	6080	468	-26.9	-31.8	312	22	
2025-07-08T12:00	6100	466	-27.1	-32.0	313	22	
2025-07-08T12:00	6120	465	-27.2	-33.1	313	23	
2025-07-08T12:00	6140	464	-27.4	-34.0	313	23	
2025-07-08T12:00	6160	463	-27.6	-33.7	313	24	
2025-07-08T12:00	6180	461	-27.8	-34.5	312	24	
2025-07-08T12:00	6200	460	-27.9	-35.3	311	24	
2025-07-08T12:00	6220	459	-28.1	-36.8	311	24	
2025-07-08T12:00	6240	457	-28.2	-38.8	311	24	
2025-07-08T12:00	6260	456	-28.3	-39.0	311	24	
2025-07-08T12:00	6280	455	-28.5	-39.2	311	24	
2025-07-08T12:00	6300	454	-28.6	-39.8	311	24	
2025-07-08T12:00	6320	452	-28.7	-39.8	311	24	
2025-07-08T12:00	6340	451	-28.9	-40.5	311	24	
2025-07-08T12:00	6360	450	-29.0	-41.5	311	24	
2025-07-08T12:00	6380	449	-29.1	-41.8	312	23	
2025-07-08T12:00	6400	448	-29.2	-42.2	312	23	
2025-07-08T12:00	6420	446	-29.4	-42.3	313	23	
2025-07-08T12:00	6440	445	-29.6	-42.5	314	22	
2025-07-08T12:00	6460	444	-29.7	-42.7	314	22	
2025-07-08T12:00	6480	442	-29.9	-42.7	315	22	
2025-07-08T12:00	6500	441	-30.1	-42.6	316	22	
2025-07-08T12:00	6520	440	-30.2	-42.7	316	23	
2025-07-08T12:00	6540	439	-30.3	-43.1	317	23	
2025-07-08T12:00	6560	438	-30.4	-43.7	317	24	
2025-07-08T12:00	6580	436	-30.5	-44.0	317	24	
2025-07-08T12:00	6600	435	-30.7	-44.4	317	25	
2025-07-08T12:00	6620	434	-30.9	-45.0	317	25	
2025-07-08T12:00	6640	433	-31.1	-45.4	317	26	
2025-07-08T12:00	6660	431	-31.2	-46.1	317	25	
2025-07-08T12:00	6680	430	-31.4	-46.3	317	25	
2025-07-08T12:00	6700	429	-31.6	-46.3	317	25	
2025-07-08T12:00	6720	428	-31.8	-47.0	317	25	
2025-07-08T12:00	6740	426	-32.0	-47.9	317	24	
2025-07-08T12:00	6760	425	-32.1	-48.5	317	24	
2025-07-08T12:00	6780	424	-32.2	-48.8	318	24	
2025-07-08T12:00	6800	423	-32.4	-49.1	318	25	
2025-07-08T12:00	6820	422	-32.6	-49.5	318	25	
2025-07-08T12:00	6840	421	-32.7	-50.2	318	25	
2025-07-08T12:00	6860	419	-32.8	-50.5	319	25	
2025-07-08T12:00	6880	418	-32.9	-50.3	319	26	
2025-07-08T12:00	6900	417	-33.1	-50.2	319	26	
2025-07-08T12:00	6920	416	-33.2	-50.9	319	26	
2025-07-08T12:00	6940	415	-33.4	-51.7	319	26	
2025-07-08T12:00	6960	414	-33.6	-52.8	319	26	
2025-07-08T12:00	6980	412	-33.7	-53.5	319	26	
2025-07-08T12:00	7000	411	-33.8	-53.4	319	26	
2025-07-08T12:00	7020	410	-34.0	-53.1	319	26	
2025-07-08T12:00	7040	409	-34.3	-52.9	318	26	
2025-07-08T12:00	7060	407	-34.4	-52.1	318	26	
2025-07-08T12:00	7080	406	-34.3	-53.4	318	26	
2025-07-08T12:00	7100	405	-34.3	-54.8	318	26	
2025-07-08T12:00	7120	404	-34.2	-55.7	318	26	
2025-07-08T12:00	7140	403	-34.2	-55.3	317	26	
2025-07-08T12:00	7160	402	-34.2	-55.0	317	26	
2025-07-08T12:00	7180	400	-34.4	-55.0	317	27	
2025-07-08T12:00	7200	399	-34.5	-55.1	317	27	
2025-07-08T12:00	7220	398	-34.6	-55.1	317	27	
2025-07-08T12:00	7240	397	-34.8	-55.1	317	27	
2025-07-08T12:00	7260	396	-34.9	-54.9	317	27	
2025-07-08T12:00	7280	395	-35.0	-54.9	317	27	
2025-07-08T12:00	7300	394	-35.2	-54.8	318	27	
2025-07-08T12:00	7320	393	-35.4	-54.9	318	28	
2025-07-08T12:00	7340	391	-35.6	-54.9	318	28	
2025-07-08T12:00	7360	390	-35.7	-54.5	319	28	
2025-07-08T12:00	7380	389	-35.7	-54.2	319	29	
2025-07-08T12:00	7400	388	-35.5	-54.0	319	29	
2025-07-08T12:00	7420	387	-35.6	-54.0	319	29	
2025-07-08T12:00	7440	386	-35.7	-54.1	319	30	
2025-07-08T12:00	7460	385	-35.8	-54.0	320	30	
2025-07-08T12:00	7480	384	-35.8	-54.1	320	31	
2025-07-08T12:00	7500	383	-35.9	-54.0	321	31	
2025-07-08T12:00	7520	381	-35.9	-53.9	321	31	
2025-07-08T12:00	7540	380	-35.9	-54.1	322	31	
2025-07-08T12:00	7560	379	-36.0	-54.5	322	32	
2025-07-08T12:00	7580	378	-36.0	-54.7	322	31	
2025-07-08T12:00	7600	377	-36.0	-55.3	322	31	
2025-07-08T12:00	7620	376	-35.9	-56.0	322	31	
2025-07-08T12:00	7640	375	-36.0	-56.3	321	30	
2025-07-08T12:00	7660	374	-36.0	-56.4	320	30	
2025-07-08T12:00	7680	373	-36.1	-57.1	319	29	
2025-07-08T12:00	7700	372	-36.0	-57.8	318	29	
2025-07-08T12:00	7720	371	-35.9	-58.6	317	28	
2025-07-08T12:00	7740	369	-35.8	-59.7	316	28	
2025-07-08T12:00	7760	368	-35.9	-59.9	315	28	
2025-07-08T12:00	7780	367	-35.9	-60.0	315	27	
2025-07-08T12:00	7800	366	-35.8	-60.6	314	28	
2025-07-08T12:00	7820	365	-35.4	-61.7	313	28	
2025-07-08T12:00	7840	364	-35.2	-62.0	313	28	
2025-07-08T12:00	7860	363	-35.1	-62.2	313	28	
2025-07-08T12:00	7880	362	-35.1	-62.3	313	28	
2025-07-08T12:00	7900	361	-35.2	-62.4	314	28	
2025-07-08T12:00	7920	360	-35.3	-62.5	314	28	
2025-07-08T12:00	7940	359	-35.4	-62.6	315	28	
2025-07-08T12:00	7960	358	-35.5	-62.6	316	28	
2025-07-08T12:00	7980	357	-35.6	-62.7	317	28	
2025-07-08T12:00	8000	356	-35.7	-62.7	317	28	
2025-07-08T12:00	8020	355	-35.8	-62.8	318	28	
2025-07-08T12:00	8040	354	-35.8	-62.9	318	28	
2025-07-08T12:00	8060	353	-35.7	-63.2	317	28	
2025-07-08T12:00	8080	352	-35.6	-63.5	316	28	
2025-07-08T12:00	8100	351	-35.4	-63.7	315	28	
2025-07-08T12:00	8120	350	-35.3	-64.0	314	29	
2025-07-08T12:00	8140	349	-35.3	-64.1	313	29	
2025-07-08T12:00	8160	348	-35.3	-64.2	312	29	
2025-07-08T12:00	8180	347	-35.3	-64.4	312	30	
2025-07-08T12:00	8200	346	-35.5	-64.6	312	30	
2025-07-08T12:00	8220	345	-35.6	-64.6	312	30	
2025-07-08T12:00	8240	344	-35.7	-64.6	312	30	
2025-07-08T12:00	8260	343	-35.8	-64.8	312	30	
2025-07-08T12:00	8280	342	-35.9	-64.9	312	31	
2025-07-08T12:00	8300	341	-36.0	-65.2	311	31	
2025-07-08T12:00	8320	340	-36.0	-65.3	311	31	
2025-07-08T12:00	8340	339	-36.1	-65.4	311	31	
2025-07-08T12:00	8360	338	-36.1	-65.4	311	31	
2025-07-08T12:00	8380	337	-36.2	-65.2	311	31	
2025-07-08T12:00	8400	336	-36.3	-65.1	311	31	
2025-07-08T12:00	8420	335	-36.4	-65.1	311	31	
2025-07-08T12:00	8440	334	-36.5	-65.1	311	31	
2025-07-08T12:00	8460	333	-36.5	-65.2	312	31	
2025-07-08T12:00	8480	332	-36.4	-65.3	312	31	
2025-07-08T12:00	8500	331	-36.5	-65.3	312	31	
2025-07-08T12:00	8520	330	-36.5	-65.4	311	31	
2025-07-08T12:00	8540	329	-36.4	-65.8	311	31	
2025-07-08T12:00	8560	328	-36.3	-66.1	310	31	
2025-07-08T12:00	8580	327	-36.2	-66.3	309	30	
2025-07-08T12:00	8600	327	-36.1	-66.2	308	30	
2025-07-08T12:00	8620	326	-36.1	-65.9	307	30	
2025-07-08T12:00	8640	325	-36.1	-65.7	307	31	
2025-07-08T12:00	8660	324	-36.1	-65.3	306	31	
2025-07-08T12:00	8680	323	-36.1	-65.3	307	31	
2025-07-08T12:00	8700	322	-36.2	-65.1	307	31	
2025-07-08T12:00	8720	321	-36.2	-64.7	307	32	
2025-07-08T12:00	8740	320	-36.2	-64.3	308	32	
2025-07-08T12:00	8760	319	-36.3	-64.2	308	32	
2025-07-08T12:00	8780	318	-36.3	-64.2	308	32	
2025-07-08T12:00	8800	317	-36.4	-64.1	309	32	
2025-07-08T12:00	8820	316	-36.5	-64.2	309	32	
2025-07-08T12:00	8840	315	-36.5	-64.3	309	32	
2025-07-08T12:00	8860	314	-36.4	-65.1	308	31	
2025-07-08T12:00	8880	314	-36.0	-67.7	308	31	
2025-07-08T12:00	8900	313	-35.7	-69.8	308	31	
2025-07-08T12:00	8920	312	-35.6	-69.4	307	31	
2025-07-08T12:00	8940	311	-35.5	-69.4	307	30	
2025-07-08T12:00	8960	310	-35.6	-69.4	307	30	
2025-07-08T12:00	8980	309	-35.8	-69.2	306	30	
2025-07-08T12:00	9000	308	-35.7	-69.1	307	30	
2025-07-08T12:00	9020	307	-35.6	-69.0	307	29	
2025-07-08T12:00	9040	306	-35.6	-69.4	307	29	
2025-07-08T12:00	9060	306	-35.6	-69.6	307	29	
2025-07-08T12:00	9080	305	-35.7	-69.7	307	28	
2025-07-08T12:00	9100	304	-35.7	-70.0	307	28	
2025-07-08T12:00	9120	303	-35.7	-70.2	307	28	
2025-07-08T12:00	9140	302	-35.5	-69.9	307	28	
2025-07-08T12:00	9160	301	-35.6	-69.2	307	28	
2025-07-08T12:00	9180	300	-35.7	-68.8	307	28	
2025-07-08T12:00	9200	299	-35.8	-68.5	307	29	
2025-07-08T12:00	9220	299	-35.9	-68.2	307	29	
2025-07-08T12:00	9240	298	-36.0	-67.6	307	29	
2025-07-08T12:00	9260	297	-36.1	-67.6	307	30	
2025-07-08T12:00	9280	296	-36.2	-68.2	307	30	
2025-07-08T12:00	9300	295	-36.3	-68.7	307	30	
2025-07-08T12:00	9320	294	-36.5	-69.3	307	31	
2025-07-08T12:00	9340	293	-36.4	-69.6	307	31	
2025-07-08T12:00	9360	293	-36.4	-69.8	307	31	
2025-07-08T12:00	9380	292	-36.5	-70.0	306	31	
2025-07-08T12:00	9400	291	-36.6	-70.3	306	31	
2025-07-08T12:00	9420	290	-36.7	-70.5	307	31	
2025-07-08T12:00	9440	289	-36.8	-70.7	307	31	
2025-07-08T12:00	9460	289	-36.9	-71.2	307	31	
2025-07-08T12:00	9480	288	-37.0	-71.6	307	30	
2025-07-08T12:00	9500	287	-36.9	-71.5	308	30	
2025-07-08T12:00	9520	286	-36.9	-71.1	308	29	
2025-07-08T12:00	9540	285	-36.9	-70.9	308	29	
2025-07-08T12:00	9560	284	-36.9	-70.9	309	29	
2025-07-08T12:00	9580	284	-37.0	-70.9	309	28	
2025-07-08T12:00	9600	283	-37.2	-71.3	310	28	
2025-07-08T12:00	9620	282	-37.2	-71.5	310	28	
2025-07-08T12:00	9640	281	-37.1	-71.9	310	28	
2025-07-08T12:00	9660	280	-37.1	-72.1	310	28	
2025-07-08T12:00	9680	279	-37.2	-72.3	309	28	
2025-07-08T12:00	9700	279	-37.1	-72.7	309	28	
2025-07-08T12:00	9720	278	-36.9	-73.1	308	28	
2025-07-08T12:00	9740	277	-36.9	-73.1	308	28	
2025-07-08T12:00	9760	276	-37.0	-73.1	308	28	
2025-07-08T12:00	9780	275	-37.0	-73.3	308	28	
2025-07-08T12:00	9800	275	-37.0	-73.3	308	28	
2025-07-08T12:00	9820	274	-36.8	-73.6	308	28	
2025-07-08T12:00	9840	273	-36.8	-73.9	308	28	
2025-07-08T12:00	9860	272	-36.8	-74.2	308	28	
2025-07-08T12:00	9880	271	-36.9	-74.3	309	28	
2025-07-08T12:00	9900	271	-36.9	-74.3	309	28	
2025-07-08T12:00	9920	270	-36.8	-74.6	309	28	
2025-07-08T12:00	9940	269	-37.0	-74.5	309	28	
2025-07-08T12:00	9960	268	-37.1	-74.5	308	29	
2025-07-08T12:00	9980	268	-37.3	-74.5	308	29	
2025-07-08T12:00	10000	267	-37.5	-74.6	307	29	
2025-07-08T12:00	10018	266	-37.6	-74.8	307	29	
2025-07-08T12:00	10050	265	-37.6	-75.0	306	29	
2025-07-08T12:00	10100	263	-38.0	-75.2	306	30	
2025-07-08T12:00	10150	261	-38.4	-75.5	306	30	
2025-07-08T12:00	10200	259	-38.7	-75.7	307	31	
2025-07-08T12:00	10250	257	-38.9	-75.8	309	31	
2025-07-08T12:00	10300	255	-38.8	-76.2	310	30	
2025-07-08T12:00	10350	254	-38.8	-76.1	310	29	
2025-07-08T12:00	10400	252	-38.9	-76.1	308	28	
2025-07-08T12:00	10450	250	-38.9	-76.2	306	28	
2025-07-08T12:00	10500	248	-39.1	-76.1	303	28	
2025-07-08T12:00	10550	246	-39.2	-76.4	302	28	
2025-07-08T12:00	10600	244	-39.4	-76.4	300	28	
2025-07-08T12:00	10650	243	-39.6	-76.4	299	28	
2025-07-08T12:00	10700	241	-39.8	-76.6	298	28	
2025-07-08T12:00	10750	239	-40.0	-76.8	299	28	
2025-07-08T12:00	10800	237	-39.8	-77.3	301	29	
2025-07-08T12:00	10850	236	-40.2	-77.5	302	29	
2025-07-08T12:00	10900	234	-40.6	-77.6	304	30	
2025-07-08T12:00	10950	232	-41.0	-77.9	305	31	
2025-07-08T12:00	11000	231	-41.4	-78.1	305	31	
2025-07-08T12:00	11050	229	-41.7	-78.5	305	31	
2025-07-08T12:00	11100	227	-41.8	-78.7	305	31	
2025-07-08T12:00	11150	225	-41.6	-78.8	304	29	
2025-07-08T12:00	11200	224	-41.8	-79.1	303	28	
2025-07-08T12:00	11250	222	-42.2	-79.0	302	28	
2025-07-08T12:00	11300	221	-42.5	-79.2	302	28	
2025-07-08T12:00	11350	219	-42.3	-79.2	303	27	
2025-07-08T12:00	11400	217	-42.3	-79.5	304	27	
2025-07-08T12:00	11450	216	-42.2	-79.5	304	27	
2025-07-08T12:00	11500	214	-42.2	-79.6	303	26	
2025-07-08T12:00	11550	213	-42.3	-79.8	302	26	
2025-07-08T12:00	11600	211	-42.2	-79.9	301	25	
2025-07-08T12:00	11650	209	-42.2	-79.9	301	25	
2025-07-08T12:00	11700	208	-42.1	-79.9	302	25	
2025-07-08T12:00	11750	206	-42.4	-80.0	303	26	
2025-07-08T12:00	11800	205	-42.6	-80.1	304	26	
2025-07-08T12:00	11850	203	-42.7	-80.2	305	26	
2025-07-08T12:00	11900	202	-42.9	-80.2	305	25	
2025-07-08T12:00	11950	200	-42.9	-80.6	304	23	
2025-07-08T12:00	12000	199	-42.8	-80.6	302	22	
2025-07-08T12:00	12050	197	-42.8	-80.5	301	20	
2025-07-08T12:00	12100	196	-42.6	-80.8	299	19	
2025-07-08T12:00	12150	194	-42.3	-80.8	296	18	
2025-07-08T12:00	12200	193	-42.5	-80.9	295	18	
2025-07-08T12:00	12250	192	-42.9	-80.8	295	18	
2025-07-08T12:00	12300	190	-43.3	-80.8	296	19	
2025-07-08T12:00	12350	189	-43.7	-81.1	296	19	
2025-07-08T12:00	12400	187	-44.1	-81.3	297	20	
2025-07-08T12:00	12450	186	-44.3	-81.2	300	20	
2025-07-08T12:00	12500	185	-44.4	-81.5	305	20	
2025-07-08T12:00	12550	183	-44.1	-81.6	310	19	
2025-07-08T12:00	12600	182	-43.8	-81.8	313	18	
2025-07-08T12:00	12650	180	-43.7	-81.7	315	17	
2025-07-08T12:00	12700	179	-44.0	-81.6	316	17	
2025-07-08T12:00	12750	178	-44.3	-81.8	317	16	
2025-07-08T12:00	12800	176	-44.7	-81.7	317	15	
2025-07-08T12:00	12850	175	-44.9	-81.9	317	14	
2025-07-08T12:00	12900	174	-45.3	-82.0	315	14	
2025-07-08T12:00	12950	173	-45.6	-82.0	311	13	
2025-07-08T12:00	13000	171	-46.0	-82.2	307	13	
2025-07-08T12:00	13050	170	-46.2	-82.3	304	14	
2025-07-08T12:00	13100	169	-45.8	-82.4	305	14	
2025-07-08T12:00	13150	168	-45.9	-82.4	307	15	
2025-07-08T12:00	13200	166	-46.2	-82.5	309	16	
2025-07-08T12:00	13250	165	-46.5	-82.6	309	17	
2025-07-08T12:00	13300	164	-46.4	-82.7	306	17	
2025-07-08T12:00	13350	163	-46.5	-82.7	302	17	
2025-07-08T12:00	13400	161	-46.8	-82.8	299	16	
2025-07-08T12:00	13450	160	-47.2	-82.8	296	16	
2025-07-08T12:00	13500	159	-47.6	-82.9	291	15	
2025-07-08T12:00	13550	158	-47.7	-83.1	286	15	
2025-07-08T12:00	13600	157	-47.8	-83.1	283	15	
2025-07-08T12:00	13650	155	-48.1	-83.2	281	15	
2025-07-08T12:00	13700	154	-48.5	-83.2	279	15	
2025-07-08T12:00	13750	153	-48.8	-83.4	279	15	
2025-07-08T12:00	13800	152	-49.0	-83.6	279	15	
2025-07-08T12:00	13850	151	-48.7	-83.7	275	15	
2025-07-08T12:00	13900	150	-48.8	-83.8	272	14	
2025-07-08T12:00	13950	148	-49.0	-83.7	270	14	
2025-07-08T12:00	14000	147	-49.2	-83.8	271	14	
2025-07-08T12:00	14050	146	-49.4	-83.8	274	14	
2025-07-08T12:00	14100	145	-49.8	-83.9	279	15	
2025-07-08T12:00	14150	144	-50.1	-84.0	282	15	
2025-07-08T12:00	14200	143	-50.3	-84.0	286	16	
2025-07-08T12:00	14250	142	-50.5	-84.1	291	17	
2025-07-08T12:00	14300	141	-50.7	-84.2	295	17	
2025-07-08T12:00	14350	140	-50.9	-84.2	297	17	
2025-07-08T12:00	14400	139	-51.1	-84.3	298	16	
2025-07-08T12:00	14450	137	-51.1	-84.4	296	16	
2025-07-08T12:00	14500	136	-51.1	-84.4	294	15	
2025-07-08T12:00	14550	135	-51.4	-84.5	292	15	
2025-07-08T12:00	14600	134	-51.8	-84.6	290	16	
2025-07-08T12:00	14650	133	-52.3	-84.6	289	16	
2025-07-08T12:00	14700	132	-52.8	-84.7	289	16	
2025-07-08T12:00	14750	131	-52.8	-84.8	292	17	
2025-07-08T12:00	14800	130	-52.6	-84.9	296	17	
2025-07-08T12:00	14850	129	-52.6	-85.1	297	17	
2025-07-08T12:00	14900	128	-52.2	-85.1	296	18	
2025-07-08T12:00	14950	127	-52.2	-85.1	293	19	
2025-07-08T12:00	15000	126	-51.6	-85.3	289	20	
2025-07-08T12:00	15050	125	-50.7	-85.3	287	20	
2025-07-08T12:00	15100	124	-50.4	-85.3	289	18	
2025-07-08T12:00	15150	123	-49.8	-85.2	294	17	
2025-07-08T12:00	15200	122	-49.9	-85.3	299	15	
2025-07-08T12:00	15250	121	-49.2	-85.3	302	13	
2025-07-08T12:00	15300	120	-48.1	-85.1	301	11	
2025-07-08T12:00	15350	120	-48.1	-85.2	294	10	
2025-07-08T12:00	15400	119	-48.1	-85.0	285	8	
2025-07-08T12:00	15450	118	-48.2	-84.9	276	7	
2025-07-08T12:00	15500	117	-48.5	-84.8	265	6	
2025-07-08T12:00	15550	116	-48.8	-84.8	253	6	
2025-07-08T12:00	15600	115	-49.3	-84.8	243	6	
2025-07-08T12:00	15650	114	-49.6	-84.9	241	6	
2025-07-08T12:00	15700	113	-49.8	-85.0	245	7	
2025-07-08T12:00	15750	113	-50.1	-85.1	247	8	
2025-07-08T12:00	15800	112	-50.4	-85.3	247	9	
2025-07-08T12:00	15850	111	-50.2	-85.2	246	9	
2025-07-08T12:00	15900	110	-50.6	-85.2	247	10	
2025-07-08T12:00	15950	109	-50.8	-85.3	251	10	
2025-07-08T12:00	16000	108	-51.0	-85.3	257	10	
2025-07-08T12:00	16050	108	-51.2	-85.4	260	11	
2025-07-08T12:00	16100	107	-51.4	-85.5	263	11	
2025-07-08T12:00	16150	106	-51.4	-85.5	268	11	
2025-07-08T12:00	16200	105	-51.5	-85.7	274	11	
2025-07-08T12:00	16250	104	-51.4	-85.7	279	11	
2025-07-08T12:00	16300	103	-51.3	-85.8	284	11	
2025-07-08T12:00	16350	103	-51.1	-86.0	288	13	
2025-07-08T12:00	16400	102	-50.7	-85.8	288	14	
2025-07-08T12:00	16450	101	-50.7	-85.7	288	15	
2025-07-08T12:00	16500	100	-51.0	-85.7	289	15	
2025-07-08T12:00	16550	100	-51.3	-85.6	291	16	
2025-07-08T12:00	16600	99	-51.7	-85.8	294	16	
2025-07-08T12:00	16650	98	-52.0	-86.0	299	15	
2025-07-08T12:00	16700	97	-51.9	-86.0	303	14	
2025-07-08T12:00	16750	97	-51.9	-86.0	305	13	
2025-07-08T12:00	16800	96	-51.9	-85.9	305	12	
2025-07-08T12:00	16850	95	-52.3	-85.9	307	11	
2025-07-08T12:00	16900	94	-52.6	-86.1	314	9	
2025-07-08T12:00	16950	94	-52.3	-86.3	322	8	
2025-07-08T12:00	17000	93	-52.0	-86.3	326	7	
2025-07-08T12:00	17050	92	-52.0	-86.2	326	6	
2025-07-08T12:00	17100	91	-52.3	-86.1	325	5	
2025-07-08T12:00	17150	91	-52.7	-86.1	324	4	
2025-07-08T12:00	17200	90	-53.0	-86.2	317	4	
2025-07-08T12:00	17250	89	-53.4	-86.3	298	3	
2025-07-08T12:00	17300	89	-53.6	-86.4	270	4	
2025-07-08T12:00	17350	88	-53.8	-86.5	255	5	
2025-07-08T12:00	17400	87	-54.0	-86.6	252	5	
2025-07-08T12:00	17450	87	-54.0	-86.6	257	5	
2025-07-08T12:00	17500	86	-54.0	-86.7	267	5	
2025-07-08T12:00	17550	85	-54.0	-86.9	274	5	
2025-07-08T12:00	17600	85	-53.7	-87.0	271	4	
2025-07-08T12:00	17650	84	-53.2	-86.9	260	4	
2025-07-08T12:00	17700	83	-53.3	-86.8	253	3	
2025-07-08T12:00	17750	83	-53.6	-86.7	257	4	
2025-07-08T12:00	17800	82	-53.7	-86.8	262	4	
2025-07-08T12:00	17850	81	-53.6	-86.8	265	5	
2025-07-08T12:00	17900	81	-53.5	-86.9	264	5	
2025-07-08T12:00	17950	80	-53.6	-86.9	262	5	
2025-07-08T12:00	18000	79	-53.8	-86.9	261	4	
2025-07-08T12:00	18050	79	-53.7	-86.9	264	4	
2025-07-08T12:00	18100	78	-53.8	-86.9	266	3	
2025-07-08T12:00	18150	78	-53.9	-87.0	266	3	
2025-07-08T12:00	18200	77	-53.8	-87.0	263	2	
2025-07-08T12:00	18250	76	-53.7	-86.9	259	1	
2025-07-08T12:00	18300	76	-54.0	-87.0	257	2	
2025-07-08T12:00	18350	75	-54.1	-87.0	256	3	
2025-07-08T12:00	18400	75	-54.2	-87.0	257	4	
2025-07-08T12:00	18450	74	-54.3	-87.0	261	5	
2025-07-08T12:00	18500	74	-54.2	-87.1	266	4	
2025-07-08T12:00	18550	73	-54.1	-87.1	268	4	
2025-07-08T12:00	18600	72	-53.8	-87.0	262	2	
2025-07-08T12:00	18650	72	-53.9	-87.0	205	1	
2025-07-08T12:00	18700	71	-53.9	-86.9	155	2	
2025-07-08T12:00	18750	71	-54.1	-86.9	154	2	
2025-07-08T12:00	18800	70	-54.3	-87.1	167	2	
2025-07-08T12:00	18850	70	-54.2	-87.4	194	2	
2025-07-08T12:00	18900	69	-53.6	-87.5	232	1	
2025-07-08T12:00	18950	69	-53.2	-87.6	293	1	
2025-07-08T12:00	19000	68	-52.9	-87.6	355	1	
2025-07-08T12:00	19050	67	-52.5	-87.5	35	1	
2025-07-08T12:00	19100	67	-52.3	-87.4	80	2	
2025-07-08T12:00	19150	66	-52.4	-87.2	108	2	
2025-07-08T12:00	19200	66	-52.7	-87.1	120	3	
2025-07-08T12:00	19250	65	-52.9	-87.0	123	3	
2025-07-08T12:00	19300	65	-53.4	-87.1	125	4	
2025-07-08T12:00	19350	64	-53.8	-87.0	131	4	
2025-07-08T12:00	19400	64	-54.2	-87.2	145	4	
2025-07-08T12:00	19450	63	-54.5	-87.4	164	4	
2025-07-08T12:00	19500	63	-54.8	-87.6	178	4	
2025-07-08T12:00	19550	62	-54.8	-87.8	185	5	
2025-07-08T12:00	19600	62	-54.4	-87.8	187	5	
2025-07-08T12:00	19650	61	-54.2	-87.8	188	4	
2025-07-08T12:00	19700	61	-54.3	-87.9	188	3	
2025-07-08T12:00	19750	61	-54.2	-87.9	172	2	
2025-07-08T12:00	19800	60	-53.8	-87.9	137	2	
2025-07-08T12:00	19850	60	-53.5	-87.9	117	1	
2025-07-08T12:00	19900	59	-53.0	-87.8	135	1	
2025-07-08T12:00	19950	59	-52.9	-87.7	141	1	
2025-07-08T12:00	20000	58	-53.1	-87.8	144	2	
2025-07-08T12:00	20050	58	-52.9		155	3	
2025-07-08T12:00	20100	57	-52.7		166	4	
2025-07-08T12:00	20150	57	-52.8		176	4	
2025-07-08T12:00	20200	56	-52.5		183	3	
2025-07-08T12:00	20250	56	-52.3		186	2	
2025-07-08T12:00	20300	56	-52.6		183	1	
2025-07-08T12:00	20350	55	-53.0		159	1	
2025-07-08T12:00	20400	55	-53.3		55	1	
2025-07-08T12:00	20450	54	-53.6		45	2	
2025-07-08T12:00	20500	54	-53.2		51	3	
2025-07-08T12:00	20550	53	-52.7		65	3	
2025-07-08T12:00	20600	53	-52.7		84	3	
2025-07-08T12:00	20650	53	-52.7		105	3	
2025-07-08T12:00	20700	52	-52.4		125	2	
2025-07-08T12:00	20750	52	-52.6		157	2	
2025-07-08T12:00	20800	51	-52.7		193	2	
2025-07-08T12:00	20850	51	-52.7		206	3	
2025-07-08T12:00	20900	51	-52.7		200	3	
2025-07-08T12:00	20950	50	-52.2		174	2	
2025-07-08T12:00	21000	50	-52.1		124	2	
2025-07-08T12:00	21050	49	-52.1		89	2	
2025-07-08T12:00	21100	49	-52.3		75	3	
2025-07-08T12:00	21150	49	-52.3		68	4	
2025-07-08T12:00	21200	48	-52.5		69	2	
2025-07-08T12:00	21250	48	-52.6		96	1	
2025-07-08T12:00	21300	48	-52.2		223	1	
2025-07-08T12:00	21350	47	-52.0		244	2	
2025-07-08T12:00	21400	47	-52.0		264	2	
2025-07-08T12:00	21450	47	-51.9		323	1	
2025-07-08T12:00	21500	46	-51.6		31	2	
2025-07-08T12:00	21550	46	-51.5		51	3	
2025-07-08T12:00	21600	45	-51.6		65	4	
2025-07-08T12:00	21650	45	-51.7		80	4	
2025-07-08T12:00	21700	45	-51.9		94	5	
2025-07-08T12:00	21750	44	-51.9		106	6	
2025-07-08T12:00	21800	44	-51.9		115	6	
2025-07-08T12:00	21850	44	-51.7		122	6	
2025-07-08T12:00	21900	43	-51.6		128	5	
2025-07-08T12:00	21950	43	-51.5		133	5	
2025-07-08T12:00	22000	43	-51.3		132	5	
2025-07-08T12:00	22050	42	-51.0		130	5	
2025-07-08T12:00	22100	42	-50.6		130	4	
2025-07-08T12:00	22150	42	-50.6		130	3	
2025-07-08T12:00	22200	41	-50.9		121	2	
2025-07-08T12:00	22250	41	-51.0		82	1	
2025-07-08T12:00	22300	41	-51.1		19	2	
2025-07-08T12:00	22350	41	-51.1		22	3	
2025-07-08T12:00	22400	40	-50.7		39	4	
2025-07-08T12:00	22450	40	-50.6		56	5	
2025-07-08T12:00	22500	40	-50.6		69	7	
2025-07-08T12:00	22550	39	-50.7		76	8	
2025-07-08T12:00	22600	39	-50.7		79	9	
2025-07-08T12:00	22650	39	-50.6		81	9	
2025-07-08T12:00	22700	38	-50.7		81	8	
2025-07-08T12:00	22750	38	-50.8		81	7	
2025-07-08T12:00	22800	38	-50.8		85	7	
2025-07-08T12:00	22850	38	-50.7		92	8	
2025-07-08T12:00	22900	37	-50.8		101	8	
2025-07-08T12:00	22950	37	-50.8		109	9	
2025-07-08T12:00	23000	37	-50.9		114	10	
2025-07-08T12:00	23050	36	-50.9		117	10	
2025-07-08T12:00	23100	36	-50.8		119	10	
2025-07-08T12:00	23150	36	-50.6		120	9	
2025-07-08T12:00	23200	36	-50.5		120	9	
2025-07-08T12:00	23250	35	-50.5		117	9	
2025-07-08T12:00	23300	35	-50.6		113	9	
2025-07-08T12:00	23350	35	-50.7		108	9	
2025-07-08T12:00	23400	34	-50.9		105	9	
2025-07-08T12:00	23450	34	-50.9		105	10	
2025-07-08T12:00	23500	34	-51.0		109	10	
2025-07-08T12:00	23550	34	-51.2		115	11	
2025-07-08T12:00	23600	33	-51.4		119	11	
2025-07-08T12:00	23650	33	-51.5		122	11	
2025-07-08T12:00	23700	33	-51.7		122	10	
2025-07-08T12:00	23750	33	-51.9		119	10	
2025-07-08T12:00	23800	32	-51.9		114	10	
2025-07-08T12:00	23850	32	-51.8		108	10	
2025-07-08T12:00	23900	32	-51.7		104	11	
2025-07-08T12:00	23950	32	-51.4		105	11	
2025-07-08T12:00	24000	31	-51.3		110	12	
2025-07-08T12:00	24050	31	-51.3		117	12	
2025-07-08T12:00	24100	31	-51.2		123	12	
2025-07-08T12:00	24150	31	-51.0		127	11	
2025-07-08T12:00	24200	30	-51.2		129	10	
2025-07-08T12:00	24250	30	-51.2		130	11	
2025-07-08T12:00	24300	30	-51.2		132	11	
2025-07-08T12:00	24350	30	-51.4		134	12	
2025-07-08T12:00	24400	30	-51.7		133	12	
2025-07-08T12:00	24450	29	-51.6		129	12	
2025-07-08T12:00	24500	29	-51.2		125	12	
2025-07-08T12:00	24550	29	-50.8		124	11	
2025-07-08T12:00	24600	29	-50.4		124	10	
2025-07-08T12:00	24650	28	-50.2		124	9	
2025-07-08T12:00	24700	28	-50.1		121	8	
2025-07-08T12:00	24750	28	-50.0		115	8	
2025-07-08T12:00	24800	28	-49.8		112	7	
2025-07-08T12:00	24850	28	-49.7		111	6	
2025-07-08T12:00	24900	27	-49.6		107	6	
2025-07-08T12:00	24950	27	-49.4		99	6	
2025-07-08T12:00	25000	27	-49.4		92	6	
2025-07-08T12:00	25050	27	-49.3		89	7	
2025-07-08T12:00	25100	27	-49.0		90	8	
2025-07-08T12:00	25150	26	-48.9		94	8	
2025-07-08T12:00	25200	26	-48.8		98	8	
2025-07-08T12:00	25250	26	-48.7		102	8	
2025-07-08T12:00	25300	26	-48.8		104	7	
2025-07-08T12:00	25350	26	-48.8		104	7	
2025-07-08T12:00	25400	25	-48.9		100	6	
2025-07-08T12:00	25450	25	-48.9		90	6	
2025-07-08T12:00	25500	25	-48.8		83	7	
2025-07-08T12:00	25550	25	-48.8		84	8	
2025-07-08T12:00	25600	25	-48.8		90	9	
2025-07-08T12:00	25650	24	-48.9		98	9	
2025-07-08T12:00	25700	24	-48.9		108	9	
2025-07-08T12:00	25750	24	-49.0		117	10	
2025-07-08T12:00	25800	24	-48.7		122	9	
2025-07-08T12:00	25850	24	-48.0		125	9	
2025-07-08T12:00	25900	23	-47.5		126	8	
2025-07-08T12:00	25950	23	-47.5		119	8	
2025-07-08T12:00	26000	23	-47.3		109	8	
2025-07-08T12:00	26050	23	-47.1		104	9	
2025-07-08T12:00	26100	23	-46.7		106	10	
2025-07-08T12:00	26150	23	-46.3		109	10	
2025-07-08T12:00	26200	22	-46.2		107	10	
2025-07-08T12:00	26250	22	-46.1		102	10	
2025-07-08T12:00	26300	22	-45.4		96	10	
2025-07-08T12:00	26350	22	-44.8		94	10	
2025-07-08T12:00	26400	22	-44.6		94	8	
2025-07-08T12:00	26450	22	-44.7		96	7	
2025-07-08T12:00	26500	21	-45.0		97	6	
2025-07-08T12:00	26550	21	-45.1		93	6	
2025-07-08T12:00	26600	21	-45.1		85	7	
2025-07-08T12:00	26650	21	-45.2		79	8	
2025-07-08T12:00	26700	21	-45.3		75	8	
2025-07-08T12:00	26750	21	-45.4		72	8	
2025-07-08T12:00	26800	21	-45.4		71	9	
2025-07-08T12:00	26850	20	-45.4		70	10	
2025-07-08T12:00	26900	20	-45.4		70	11	
2025-07-08T12:00	26950	20	-45.4		71	13	
2025-07-08T12:00	27000	20	-45.6		72	14	
2025-07-08T12:00	27050	20	-45.7		75	14	
2025-07-08T12:00	27100	20	-45.9		77	15	
2025-07-08T12:00	27150	19	-45.8		79	16	
2025-07-08T12:00	27200	19	-45.5		82	16	
2025-07-08T12:00	27250	19	-45.3		85	16	
2025-07-08T12:00	27300	19	-45.4		88	16	
2025-07-08T12:00	27350	19	-45.5		90	14	
2025-07-08T12:00	27400	19	-45.6		91	13	
2025-07-08T12:00	27450	19	-45.6		94	12	
2025-07-08T12:00	27500	18	-45.7		97	12	
2025-07-08T12:00	27550	18	-45.8		99	11	
2025-07-08T12:00	27600	18	-45.9		98	10	
2025-07-08T12:00	27650	18	-46.0		95	11	
2025-07-08T12:00	27700	18	-45.8		94	12	
2025-07-08T12:00	27750	18	-45.2		95	13	
2025-07-08T12:00	27800	18	-44.7		98	14	
2025-07-08T12:00	27850	18	-44.7		102	15	
2025-07-08T12:00	27900	17	-44.7		107	15	
2025-07-08T12:00	27950	17	-44.8		112	14	
2025-07-08T12:00	28000	17	-44.9		117	13	
2025-07-08T12:00	28050	17	-44.9		120	12	
2025-07-08T12:00	28100	17	-44.7		120	11	
2025-07-08T12:00	28150	17	-44.3		114	10	
2025-07-08T12:00	28200	17	-43.8		109	10	
2025-07-08T12:00	28250	17	-43.5		105	10	
2025-07-08T12:00	28300	16	-43.3		104	10	
2025-07-08T12:00	28350	16	-43.2		103	10	
2025-07-08T12:00	28400	16	-43.2		105	10	
2025-07-08T12:00	28450	16	-43.3		110	11	
2025-07-08T12:00	28500	16	-43.3		114	12	
2025-07-08T12:00	28550	16	-43.1		115	11	
2025-07-08T12:00	28600	16	-42.8		112	10	
2025-07-08T12:00	28650	16	-42.6		105	9	
2025-07-08T12:00	28700	15	-42.3		96	8	
2025-07-08T12:00	28750	15	-41.8		91	8	
2025-07-08T12:00	28800	15	-41.5		93	9	
2025-07-08T12:00	28850	15	-41.3		99	9	
2025-07-08T12:00	28900	15	-41.2		105	9	
2025-07-08T12:00	28950	15	-41.1		108	10	
2025-07-08T12:00	29000	15	-40.9		110	9	
2025-07-08T12:00	29050	15	-40.6		110	8	
2025-07-08T12:00	29100	15	-40.4		107	8	
2025-07-08T12:00	29150	14	-40.3		100	7	
2025-07-08T12:00	29200	14	-40.3		92	7	
2025-07-08T12:00	29250	14	-40.2		92	7	
2025-07-08T12:00	29300	14	-40.2		99	7	
2025-07-08T12:00	29350	14	-40.2		109	8	
2025-07-08T12:00	29400	14	-40.3		117	8	
2025-07-08T12:00	29450	14	-40.6		120	8	
2025-07-08T12:00	29500	14	-40.6		116	8	
2025-07-08T12:00	29550	14	-40.6		109	8	
2025-07-08T12:00	29600	14	-40.6		101	7	
2025-07-08T12:00	29650	13	-40.8		93	8	
2025-07-08T12:00	29700	13	-40.9		86	9	
2025-07-08T12:00	29750	13	-41.0		83	11	
2025-07-08T12:00	29800	13	-40.9		85	12	
2025-07-08T12:00	29850	13	-40.5		90	14	
2025-07-08T12:00	29900	13	-40.2		97	14	
2025-07-08T12:00	29950	13	-39.9		102	14	
2025-07-08T12:00	30000	13	-39.7		105	12	
2025-07-08T12:00	30050	13	-39.6		108	10	
2025-07-08T12:00	30100	13	-39.4		106	9	
2025-07-08T12:00	30150	12	-39.2		100	9	
2025-07-08T12:00	30200	12	-38.8		95	10	
2025-07-08T12:00	30250	12	-38.2		96	12	
2025-07-08T12:00	30300	12	-37.8		99	14	
2025-07-08T12:00	30350	12	-37.7		101	15	
2025-07-08T12:00	30400	12	-37.7		103	15	
2025-07-08T12:00	30450	12	-37.6		105	15	
2025-07-08T12:00	30500	12	-37.4		107	15	
2025-07-08T12:00	30550	12	-37.3		107	15	
2025-07-08T12:00	30600	12	-37.1		107	14	
2025-07-08T12:00	30650	12	-36.6		107	14	
2025-07-08T12:00	30700	12	-36.2		107	14	
2025-07-08T12:00	30750	11	-35.9		109	13	
2025-07-08T12:00	30800	11	-35.9		111	13	
2025-07-08T12:00	30850	11	-35.6		111	13	
2025-07-08T12:00	30900	11	-35.3		108	13	
2025-07-08T12:00	30950	11	-35.2		103	13	
2025-07-08T12:00	31000	11	-35.2		99	13	
2025-07-08T12:00	31050	11	-35.3		96	13	
2025-07-08T12:00	31100	11	-35.4		95	13	
2025-07-08T12:00	31150	11	-35.5		95	13	
2025-07-08T12:00	31200	11	-35.5		96	14	
2025-07-08T12:00	31250	11	-35.6		97	14	
2025-07-08T12:00	31300	11	-35.5		100	15	
2025-07-08T12:00	31350	10	-35.0		104	15	
2025-07-08T12:00	31400	10	-34.9		109	15	
2025-07-08T12:00	31450	10	-35.1		114	15	
2025-07-08T12:00	31500	10	-35.4		119	15	
2025-07-08T12:00	31550	10	-35.6		124	14	
2025-07-08T12:00	31600	10	-35.7		127	13	
2025-07-08T12:00	31650	10	-35.7		127	12	
2025-07-08T12:00	31700	10	-35.4		124	11	
2025-07-08T12:00	31750	10	-35.1		117	11	
2025-07-08T12:00	31800	10	-35.0		107	10	
2025-07-08T12:00	31850	10	-35.0		97	10	
2025-07-08T12:00	31900	10	-35.0		89	11	
2025-07-08T12:00	31950	10	-34.8		84	11	
2025-07-08T12:00	32000	10	-34.6		85	12	
2025-07-08T12:00	32050	9	-34.5		89	12	
2025-07-08T12:00	32100	9	-34.5		95	11	
2025-07-08T12:00	32150	9	-34.7		100	11	
2025-07-08T12:00	32200	9	-35.0		100	11	
2025-07-08T12:00	32250	9	-35.0		95	12	
2025-07-08T12:00	32300	9	-34.8		88	12	
2025-07-08T12:00	32350	9	-34.7		83	13	
2025-07-08T12:00	32400	9	-34.6		81	14	
2025-07-08T12:00	32450	9	-34.4		81	14	
2025-07-09T00:00	491	964	10.5	8.3	170	0	
2025-07-09T00:00	501	962	10.9	8.4	210	1	
2025-07-09T00:00	520	961	11.4	8.4	215	2	
2025-07-09T00:00	540	958	11.5	8.3	217	2	
2025-07-09T00:00	560	956	11.6	8.3	218	2	
2025-07-09T00:00	580	954	11.7	7.9	220	3	
2025-07-09T00:00	600	952	11.7	7.7	222	3	
2025-07-09T00:00	620	949	11.6	8.0	222	3	
2025-07-09T00:00	640	947	11.6	7.6	220	3	
2025-07-09T00:00	660	945	11.6	7.4	218	3	
2025-07-09T00:00	680	943	11.8	7.0	217	3	
2025-07-09T00:00	700	941	11.9	6.9	218	3	
2025-07-09T00:00	720	938	11.7	6.8	221	3	
2025-07-09T00:00	740	936	11.6	6.7	225	3	
2025-07-09T00:00	760	934	11.4	6.5	231	3	
2025-07-09T00:00	780	931	11.3	6.1	237	4	
2025-07-09T00:00	800	929	11.1	6.1	242	4	
2025-07-09T00:00	820	927	11.0	6.0	246	4	
2025-07-09T00:00	840	925	11.0	5.9	249	4	
2025-07-09T00:00	860	923	10.9	5.8	251	3	
2025-07-09T00:00	880	920	10.8	5.6	253	3	
2025-07-09T00:00	900	918	10.7	5.3	255	3	
2025-07-09T00:00	920	916	10.7	5.0	256	3	
2025-07-09T00:00	940	914	10.5	5.0	257	3	
2025-07-09T00:00	960	912	10.3	4.9	258	3	
2025-07-09T00:00	980	909	10.1	4.9	258	3	
2025-07-09T00:00	1000	907	9.9	4.8	259	2	
2025-07-09T00:00	1020	905	9.8	4.7	262	2	
2025-07-09T00:00	1040	903	9.6	4.6	266	2	
2025-07-09T00:00	1060	901	9.5	4.6	273	2	
2025-07-09T00:00	1080	898	9.3	4.4	282	1	
2025-07-09T00:00	1100	896	9.2	4.3	297	1	
2025-07-09T00:00	1120	894	9.0	4.1	301	1	
2025-07-09T00:00	1140	892	8.9	4.0	292	1	
2025-07-09T00:00	1160	890	8.7	3.8	270	1	
2025-07-09T00:00	1180	888	8.5	3.7	241	1	
2025-07-09T00:00	1200	886	8.4	3.6	220	1	
2025-07-09T00:00	1220	883	8.2	3.4	203	1	
2025-07-09T00:00	1240	881	8.0	3.3	190	1	
2025-07-09T00:00	1260	879	7.8	3.2	179	1	
2025-07-09T00:00	1280	877	7.7	3.1	168	1	
2025-07-09T00:00	1300	875	7.6	3.0	158	1	
2025-07-09T00:00	1320	873	7.4	3.0	148	1	
2025-07-09T00:00	1340	871	7.2	2.9	134	1	
2025-07-09T00:00	1360	869	7.0	2.8	105	0	
2025-07-09T00:00	1380	867	6.9	2.8	48	0	
2025-07-09T00:00	1400	864	6.7	2.8	15	1	
2025-07-09T00:00	1420	862	6.6	2.7	5	1	
2025-07-09T00:00	1440	860	6.5	2.7	3	1	
2025-07-09T00:00	1460	858	6.3	2.7	4	1	
2025-07-09T00:00	1480	856	6.1	2.6	8	1	
2025-07-09T00:00	1500	854	5.9	2.6	21	1	
2025-07-09T00:00	1520	852	5.8	2.7	60	1	
2025-07-09T00:00	1540	850	5.6	2.7	112	1	
2025-07-09T00:00	1560	848	5.5	2.4	128	2	
2025-07-09T00:00	1580	846	5.3	2.4	127	2	
2025-07-09T00:00	1600	844	5.2	2.1	120	3	
2025-07-09T00:00	1620	842	5.1	2.0	109	3	
2025-07-09T00:00	1640	839	5.0	2.0	98	3	
2025-07-09T00:00	1660	837	4.9	1.9	87	3	
2025-07-09T00:00	1680	835	4.8	1.8	76	2	
2025-07-09T00:00	1700	833	4.7	1.5	66	2	
2025-07-09T00:00	1720	831	4.6	1.5	58	3	
2025-07-09T00:00	1740	829	4.5	1.5	53	3	
2025-07-09T00:00	1760	827	4.3	1.6	47	3	
2025-07-09T00:00	1780	825	4.1	1.5	44	3	
2025-07-09T00:00	1800	823	4.0	1.4	40	3	
2025-07-09T00:00	1820	821	3.9	1.4	38	3	
2025-07-09T00:00	1840	819	3.8	1.2	38	3	
2025-07-09T00:00	1860	817	3.6	1.0	39	4	
2025-07-09T00:00	1880	815	3.5	0.8	41	4	
2025-07-09T00:00	1900	813	3.3	0.9	40	4	
2025-07-09T00:00	1920	811	3.2	1.0	37	5	
2025-07-09T00:00	1940	809	3.0	0.9	31	5	
2025-07-09T00:00	1960	807	2.9	0.9	22	5	
2025-07-09T00:00	1980	805	2.8	0.6	14	6	
2025-07-09T00:00	2000	803	2.7	0.3	8	6	
2025-07-09T00:00	2020	801	2.5	0.2	5	7	
2025-07-09T00:00	2040	799	2.4	-0.1	5	7	
2025-07-09T00:00	2060	797	2.2	0.0	7	7	
2025-07-09T00:00	2080	795	2.1	0.0	9	7	
2025-07-09T00:00	2100	793	1.9	0.0	10	8	
2025-07-09T00:00	2120	791	1.7	0.0	12	8	
2025-07-09T00:00	2140	789	1.6	-0.1	13	8	
2025-07-09T00:00	2160	787	1.4	-0.2	13	8	
2025-07-09T00:00	2180	785	1.2	-0.2	13	8	
2025-07-09T00:00	2200	783	1.0	-0.4	14	8	
2025-07-09T00:00	2220	781	0.9	-0.6	14	7	
2025-07-09T00:00	2240	779	0.9	-1.0	15	7	
2025-07-09T00:00	2260	778	0.7	-1.1	15	6	
2025-07-09T00:00	2280	776	0.6	-1.3	15	6	
2025-07-09T00:00	2300	774	0.4	-1.5	14	5	
2025-07-09T00:00	2320	772	0.2	-1.7	11	5	
2025-07-09T00:00	2340	770	0.1	-1.8	7	5	
2025-07-09T00:00	2360	768	-0.1	-1.8	1	5	
2025-07-09T00:00	2380	766	-0.3	-1.8	355	4	
2025-07-09T00:00	2400	764	-0.5	-1.8	349	5	
2025-07-09T00:00	2420	762	-0.7	-1.8	347	5	
2025-07-09T00:00	2440	760	-0.9	-1.9	347	6	
2025-07-09T00:00	2460	758	-1.1	-2.0	349	6	
2025-07-09T00:00	2480	757	-1.2	-2.2	352	6	
2025-07-09T00:00	2500	755	-1.4	-2.3	355	6	
2025-07-09T00:00	2520	753	-1.6	-2.5	357	5	
2025-07-09T00:00	2540	751	-1.7	-2.3	359	5	
2025-07-09T00:00	2560	749	-1.8	-2.5	359	5	
2025-07-09T00:00	2580	747	-2.0	-2.7	358	5	
2025-07-09T00:00	2600	745	-2.0	-3.3	358	5	
2025-07-09T00:00	2620	743	-2.2	-3.5	357	5	
2025-07-09T00:00	2640	741	-2.4	-3.6	358	6	
2025-07-09T00:00	2660	739	-2.4	-3.8	359	6	
2025-07-09T00:00	2680	738	-2.6	-3.8	0	7	
2025-07-09T00:00	2700	736	-2.7	-4.0	1	7	
2025-07-09T00:00	2720	734	-2.8	-4.2	2	7	
2025-07-09T00:00	2740	732	-3.0	-4.4	4	7	
2025-07-09T00:00	2760	730	-3.1	-4.6	7	7	
2025-07-09T00:00	2780	729	-3.0	-5.1	9	7	
2025-07-09T00:00	2800	727	-3.1	-5.2	11	7	
2025-07-09T00:00	2820	725	-3.3	-5.2	14	7	
2025-07-09T00:00	2840	723	-3.4	-5.1	14	6	
2025-07-09T00:00	2860	721	-3.6	-5.2	14	6	
2025-07-09T00:00	2880	719	-3.8	-5.3	14	6	
2025-07-09T00:00	2900	718	-3.9	-5.3	13	6	
2025-07-09T00:00	2920	716	-4.1	-5.3	12	6	
2025-07-09T00:00	2940	714	-4.3	-5.4	12	6	
2025-07-09T00:00	2960	712	-4.5	-5.4	12	6	
2025-07-09T00:00	2980	710	-4.6	-5.5	12	6	
2025-07-09T00:00	3000	708	-4.8	-5.5	12	7	
2025-07-09T00:00	3020	707	-4.9	-5.6	13	7	
2025-07-09T00:00	3040	705	-5.0	-5.6	13	7	
2025-07-09T00:00	3060	703	-5.2	-5.7	14	7	
2025-07-09T00:00	3080	701	-5.4	-5.7	14	6	
2025-07-09T00:00	3100	700	-5.5	-5.9	14	6	
2025-07-09T00:00	3120	698	-5.7	-6.0	12	5	
2025-07-09T00:00	3140	696	-5.9	-6.1	9	5	
2025-07-09T00:00	3160	694	-6.0	-6.2	3	4	
2025-07-09T00:00	3180	692	-5.9	-6.7	354	4	
2025-07-09T00:00	3200	691	-5.4	-7.8	341	4	
2025-07-09T00:00	3220	689	-5.1	-8.8	332	5	
2025-07-09T00:00	3240	687	-5.0	-9.6	329	6	
2025-07-09T00:00	3260	686	-5.0	-10.5	331	7	
2025-07-09T00:00	3280	684	-5.0	-11.2	334	8	
2025-07-09T00:00	3300	682	-5.0	-11.9	337	9	
2025-07-09T00:00	3320	680	-4.7	-14.5	341	9	
2025-07-09T00:00	3340	678	-4.4	-16.2	343	10	
2025-07-09T00:00	3360	677	-4.3	-17.0	346	10	
2025-07-09T00:00	3380	675	-4.2	-18.1	349	10	
2025-07-09T00:00	3400	673	-4.0	-19.4	351	11	
2025-07-09T00:00	3420	672	-3.9	-20.1	352	11	
2025-07-09T00:00	3440	670	-3.9	-19.9	353	11	
2025-07-09T00:00	3460	668	-3.9	-18.5	353	11	
2025-07-09T00:00	3480	667	-4.0	-18.0	353	11	
2025-07-09T00:00	3500	665	-4.1	-18.1	352	11	
2025-07-09T00:00	3520	663	-4.2	-18.8	352	11	
2025-07-09T00:00	3540	662	-4.4	-19.0	350	11	
2025-07-09T00:00	3560	660	-4.5	-19.3	349	11	
2025-07-09T00:00	3580	658	-4.7	-20.2	348	11	
2025-07-09T00:00	3600	656	-4.8	-20.3	347	11	
2025-07-09T00:00	3620	655	-4.9	-20.2	346	11	
2025-07-09T00:00	3640	653	-5.0	-20.6	345	12	
2025-07-09T00:00	3660	651	-5.1	-21.5	344	12	
2025-07-09T00:00	3680	650	-5.2	-21.9	344	12	
2025-07-09T00:00	3700	648	-5.3	-21.8	343	13	
2025-07-09T00:00	3720	646	-5.5	-21.0	342	13	
2025-07-09T00:00	3740	645	-5.6	-20.1	342	13	
2025-07-09T00:00	3760	643	-5.7	-20.5	341	13	
2025-07-09T00:00	3780	642	-5.8	-22.0	341	13	
2025-07-09T00:00	3800	640	-5.8	-27.1	342	13	
2025-07-09T00:00	3820	638	-5.7	-26.6	344	13	
2025-07-09T00:00	3840	637	-5.9	-25.2	347	13	
2025-07-09T00:00	3860	635	-6.1	-24.2	350	13	
2025-07-09T00:00	3880	633	-6.2	-24.6	352	13	
2025-07-09T00:00	3900	632	-6.3	-27.6	353	13	
2025-07-09T00:00	3920	630	-6.4	-31.0	353	13	
2025-07-09T00:00	3940	629	-6.4	-27.7	352	13	
2025-07-09T00:00	3960	627	-6.6	-17.5	351	13	
2025-07-09T00:00	3980	625	-6.7	-17.1	349	13	
2025-07-09T00:00	4000	624	-6.8	-17.8	347	13	
2025-07-09T00:00	4020	622	-6.9	-18.0	346	13	
2025-07-09T00:00	4040	621	-7.1	-17.3	345	13	
2025-07-09T00:00	4060	619	-7.2	-17.1	345	13	
2025-07-09T00:00	4080	617	-7.4	-16.9	345	13	
2025-07-09T00:00	4100	616	-7.6	-16.6	345	13	
2025-07-09T00:00	4120	614	-7.7	-16.4	345	13	
2025-07-09T00:00	4140	613	-7.9	-16.4	346	13	
2025-07-09T00:00	4160	611	-8.1	-16.5	347	12	
2025-07-09T00:00	4180	609	-8.3	-16.5	349	12	
2025-07-09T00:00	4200	608	-8.5	-16.7	350	12	
2025-07-09T00:00	4220	606	-8.7	-16.6	351	12	
2025-07-09T00:00	4240	605	-8.8	-16.7	352	12	
2025-07-09T00:00	4260	603	-9.0	-16.5	352	13	
2025-07-09T00:00	4280	602	-9.2	-16.0	352	13	
2025-07-09T00:00	4300	600	-9.3	-16.4	352	13	
2025-07-09T00:00	4320	599	-9.3	-17.3	351	14	
2025-07-09T00:00	4340	597	-9.2	-20.5	351	14	
2025-07-09T00:00	4360	596	-8.9	-25.4	352	15	
2025-07-09T00:00	4380	594	-8.7	-28.7	352	15	
2025-07-09T00:00	4400	593	-8.7	-30.0	352	15	
2025-07-09T00:00	4420	591	-8.4	-32.0	352	15	
2025-07-09T00:00	4440	589	-8.3	-31.7	352	16	
2025-07-09T00:00	4460	588	-8.4	-30.8	352	16	
2025-07-09T00:00	4480	586	-8.6	-30.1	352	16	
2025-07-09T00:00	4500	585	-8.7	-28.3	351	16	
2025-07-09T00:00	4520	583	-8.8	-25.8	350	17	
2025-07-09T00:00	4540	582	-9.0	-26.0	347	17	
2025-07-09T00:00	4560	580	-9.1	-26.1	345	18	
2025-07-09T00:00	4580	579	-9.2	-26.6	343	19	
2025-07-09T00:00	4600	577	-9.3	-27.4	341	19	
2025-07-09T00:00	4620	576	-9.3	-27.2	340	19	
2025-07-09T00:00	4640	574	-9.4	-27.2	339	19	
2025-07-09T00:00	4660	573	-9.4	-29.5	340	20	
2025-07-09T00:00	4680	571	-9.4	-34.1	340	20	
2025-07-09T00:00	4700	570	-9.4	-38.5	343	20	
2025-07-09T00:00	4720	568	-9.4	-41.1	344	20	
2025-07-09T00:00	4740	567	-9.3	-39.8	346	21	
2025-07-09T00:00	4760	565	-9.4	-36.8	348	21	
2025-07-09T00:00	4780	564	-9.3	-35.4	349	21	
2025-07-09T00:00	4800	563	-9.4	-33.5	349	22	
2025-07-09T00:00	4820	561	-9.4	-31.7	349	22	
2025-07-09T00:00	4840	560	-9.6	-30.1	350	22	
2025-07-09T00:00	4860	558	-9.8	-28.2	350	22	
2025-07-09T00:00	4880	557	-9.9	-27.5	350	22	
2025-07-09T00:00	4900	555	-10.1	-27.4	350	22	
2025-07-09T00:00	4920	554	-10.3	-27.3	350	22	
2025-07-09T00:00	4940	553	-10.5	-26.3	349	22	
2025-07-09T00:00	4960	551	-10.7	-25.4	349	22	
2025-07-09T00:00	4980	550	-10.9	-25.2	349	22	
2025-07-09T00:00	5000	548	-11.1	-25.1	349	22	
2025-07-09T00:00	5020	547	-11.3	-24.2	348	22	
2025-07-09T00:00	5040	545	-11.5	-23.7	348	22	
2025-07-09T00:00	5060	544	-11.7	-23.7	347	22	
2025-07-09T00:00	5080	542	-11.8	-23.6	346	23	
2025-07-09T00:00	5100	541	-11.9	-23.3	346	23	
2025-07-09T00:00	5120	540	-12.1	-23.4	345	23	
2025-07-09T00:00	5140	538	-12.3	-23.3	344	23	
2025-07-09T00:00	5160	537	-12.3	-23.3	344	23	
2025-07-09T00:00	5180	535	-12.2	-23.6	344	23	
2025-07-09T00:00	5200	534	-12.3	-23.7	345	23	
2025-07-09T00:00	5220	533	-12.5	-23.8	345	23	
2025-07-09T00:00	5240	531	-12.6	-24.0	346	22	
2025-07-09T00:00	5260	530	-12.8	-24.0	347	22	
2025-07-09T00:00	5280	528	-12.9	-24.2	347	23	
2025-07-09T00:00	5300	527	-13.0	-24.8	347	23	
2025-07-09T00:00	5320	526	-13.0	-25.7	347	23	
2025-07-09T00:00	5340	524	-13.1	-26.2	347	23	
2025-07-09T00:00	5360	523	-13.2	-26.6	346	23	
2025-07-09T00:00	5380	521	-13.3	-26.8	346	23	
2025-07-09T00:00	5400	520	-13.5	-27.1	346	24	
2025-07-09T00:00	5420	519	-13.6	-27.4	346	24	
2025-07-09T00:00	5440	517	-13.8	-27.7	345	25	
2025-07-09T00:00	5460	516	-13.9	-28.1	345	25	
2025-07-09T00:00	5480	515	-14.0	-28.3	345	26	
2025-07-09T00:00	5500	514	-14.0	-28.3	345	26	
2025-07-09T00:00	5520	512	-14.2	-28.4	345	26	
2025-07-09T00:00	5540	511	-14.2	-28.9	345	26	
2025-07-09T00:00	5560	509	-14.2	-30.1	345	26	
2025-07-09T00:00	5580	508	-14.2	-31.4	345	27	
2025-07-09T00:00	5600	507	-14.3	-32.2	345	27	
2025-07-09T00:00	5620	505	-14.4	-32.1	344	27	
2025-07-09T00:00	5640	504	-14.6	-31.7	344	27	
2025-07-09T00:00	5660	503	-14.6	-31.8	343	27	
2025-07-09T00:00	5680	501	-14.7	-31.7	342	27	
2025-07-09T00:00	5700	500	-14.8	-31.9	341	27	
2025-07-09T00:00	5720	499	-14.9	-32.6	340	27	
2025-07-09T00:00	5740	497	-14.8	-33.6	340	27	
2025-07-09T00:00	5760	496	-14.9	-33.9	340	27	
2025-07-09T00:00	5780	495	-15.1	-34.3	340	27	
2025-07-09T00:00	5800	494	-15.2	-34.8	340	27	
2025-07-09T00:00	5820	492	-15.3	-35.1	340	27	
2025-07-09T00:00	5840	491	-15.5	-34.8	341	27	
2025-07-09T00:00	5860	490	-15.6	-35.5	341	28	
2025-07-09T00:00	5880	488	-15.8	-36.2	341	28	
2025-07-09T00:00	5900	487	-15.9	-36.2	341	28	
2025-07-09T00:00	5920	486	-16.1	-36.0	341	28	
2025-07-09T00:00	5940	484	-16.3	-35.8	340	28	
2025-07-09T00:00	5960	483	-16.5	-36.0	340	28	
2025-07-09T00:00	5980	482	-16.6	-36.1	339	28	
2025-07-09T00:00	6000	481	-16.8	-36.4	339	28	
2025-07-09T00:00	6020	479	-16.9	-37.6	339	28	
2025-07-09T00:00	6040	478	-17.0	-38.7	339	28	
2025-07-09T00:00	6060	477	-17.1	-38.8	339	28	
2025-07-09T00:00	6080	475	-17.2	-39.4	340	28	
2025-07-09T00:00	6100	474	-17.3	-39.9	340	28	
2025-07-09T00:00	6120	473	-17.5	-40.2	340	28	
2025-07-09T00:00	6140	472	-17.7	-40.2	340	28	
2025-07-09T00:00	6160	470	-17.9	-40.2	340	28	
2025-07-09T00:00	6180	469	-18.1	-40.2	341	28	
2025-07-09T00:00	6200	468	-18.2	-40.3	341	28	
2025-07-09T00:00	6220	467	-18.4	-40.3	341	28	
2025-07-09T00:00	6240	465	-18.6	-40.4	342	29	
2025-07-09T00:00	6260	464	-18.8	-40.6	342	29	
2025-07-09T00:00	6280	463	-19.0	-40.6	342	29	
2025-07-09T00:00	6300	462	-19.2	-40.8	342	29	
2025-07-09T00:00	6320	460	-19.4	-40.8	342	29	
2025-07-09T00:00	6340	459	-19.5	-40.6	342	29	
2025-07-09T00:00	6360	458	-19.7	-40.2	341	28	
2025-07-09T00:00	6380	457	-19.8	-39.8	340	28	
2025-07-09T00:00	6400	456	-20.0	-39.1	339	29	
2025-07-09T00:00	6420	454	-20.2	-39.6	338	29	
2025-07-09T00:00	6440	453	-20.3	-42.3	338	29	
2025-07-09T00:00	6460	452	-20.4	-45.1	337	29	
2025-07-09T00:00	6480	450	-20.5	-47.9	337	30	
2025-07-09T00:00	6500	449	-20.6	-49.0	338	30	
2025-07-09T00:00	6520	448	-20.8	-48.8	338	30	
2025-07-09T00:00	6540	447	-21.0	-48.7	338	30	
2025-07-09T00:00	6560	446	-21.1	-48.7	339	31	
2025-07-09T00:00	6580	444	-21.3	-48.5	339	31	
2025-07-09T00:00	6600	443	-21.5	-47.3	340	32	
2025-07-09T00:00	6620	442	-21.5	-45.9	340	33	
2025-07-09T00:00	6640	441	-21.6	-45.9	340	33	
2025-07-09T00:00	6660	440	-21.5	-46.0	340	34	
2025-07-09T00:00	6680	439	-21.5	-46.3	340	34	
2025-07-09T00:00	6700	437	-21.5	-46.2	340	34	
2025-07-09T00:00	6720	436	-21.5	-45.6	340	35	
2025-07-09T00:00	6740	435	-21.5	-46.2	340	35	
2025-07-09T00:00	6760	434	-21.5	-46.0	340	35	
2025-07-09T00:00	6780	432	-21.5	-46.1	340	35	
2025-07-09T00:00	6800	431	-21.6	-47.0	341	35	
2025-07-09T00:00	6820	430	-21.7	-47.2	341	35	
2025-07-09T00:00	6840	429	-21.8	-47.5	341	36	
2025-07-09T00:00	6860	428	-21.9	-48.0	341	36	
2025-07-09T00:00	6880	427	-21.9	-48.7	341	36	
2025-07-09T00:00	6900	426	-21.9	-49.1	341	37	
2025-07-09T00:00	6920	425	-21.9	-49.2	341	37	
2025-07-09T00:00	6940	423	-21.9	-49.4	340	37	
2025-07-09T00:00	6960	422	-22.0	-49.8	340	38	
2025-07-09T00:00	6980	421	-22.1	-49.9	339	38	
2025-07-09T00:00	7000	420	-22.2	-49.9	339	38	
2025-07-09T00:00	7020	419	-22.4	-49.9	339	37	
2025-07-09T00:00	7040	418	-22.5	-49.6	339	37	
2025-07-09T00:00	7060	416	-22.7	-49.1	338	37	
2025-07-09T00:00	7080	415	-22.9	-49.0	338	37	
2025-07-09T00:00	7100	414	-23.0	-49.2	338	37	
2025-07-09T00:00	7120	413	-23.2	-49.1	338	37	
2025-07-09T00:00	7140	412	-23.4	-48.9	338	37	
2025-07-09T00:00	7160	411	-23.5	-48.8	338	37	
2025-07-09T00:00	7180	410	-23.7	-47.7	338	37	
2025-07-09T00:00	7200	409	-23.9	-46.5	338	37	
2025-07-09T00:00	7220	407	-24.0	-46.2	338	37	
2025-07-09T00:00	7240	406	-24.2	-45.3	338	37	
2025-07-09T00:00	7260	405	-24.3	-43.2	339	38	
2025-07-09T00:00	7280	404	-24.4	-42.6	339	38	
2025-07-09T00:00	7300	403	-24.5	-43.5	339	38	
2025-07-09T00:00	7320	402	-24.6	-44.7	339	39	
2025-07-09T00:00	7340	401	-24.7	-46.5	339	39	
2025-07-09T00:00	7360	400	-24.7	-48.2	339	39	
2025-07-09T00:00	7380	398	-24.7	-48.3	339	40	
2025-07-09T00:00	7400	397	-24.8	-47.9	338	40	
2025-07-09T00:00	7420	396	-24.9	-47.8	338	40	
2025-07-09T00:00	7440	395	-25.1	-47.4	337	40	
2025-07-09T00:00	7460	394	-25.2	-47.1	337	40	
2025-07-09T00:00	7480	393	-25.4	-46.5	337	40	
2025-07-09T00:00	7500	392	-25.5	-45.9	336	39	
2025-07-09T00:00	7520	391	-25.6	-46.3	336	40	
2025-07-09T00:00	7540	390	-25.7	-45.5	337	40	
2025-07-09T00:00	7560	389	-25.8	-44.6	337	40	
2025-07-09T00:00	7580	388	-25.9	-43.9	337	40	
2025-07-09T00:00	7600	387	-26.1	-43.5	338	40	
2025-07-09T00:00	7620	385	-26.3	-43.2	338	41	
2025-07-09T00:00	7640	384	-26.4	-43.0	338	41	
2025-07-09T00:00	7660	383	-26.5	-42.8	338	41	
2025-07-09T00:00	7680	382	-26.6	-43.2	338	42	
2025-07-09T00:00	7700	381	-26.8	-43.9	337	42	
2025-07-09T00:00	7720	380	-26.7	-44.9	337	42	
2025-07-09T00:00	7740	379	-26.7	-43.9	336	42	
2025-07-09T00:00	7760	378	-26.8	-43.3	335	42	
2025-07-09T00:00	7780	377	-26.8	-43.5	335	42	
2025-07-09T00:00	7800	376	-26.9	-44.6	334	42	
2025-07-09T00:00	7820	375	-26.9	-46.0	334	42	
2025-07-09T00:00	7840	374	-27.0	-46.1	334	42	
2025-07-09T00:00	7860	373	-27.2	-46.2	335	43	
2025-07-09T00:00	7880	372	-27.3	-46.6	335	43	
2025-07-09T00:00	7900	371	-27.5	-47.2	335	43	
2025-07-09T00:00	7920	370	-27.6	-47.5	335	43	
2025-07-09T00:00	7940	369	-27.8	-47.8	335	43	
2025-07-09T00:00	7960	368	-27.9	-47.6	335	43	
2025-07-09T00:00	7980	367	-28.1	-47.7	335	43	
2025-07-09T00:00	8000	366	-28.2	-47.5	334	43	
2025-07-09T00:00	8020	365	-28.4	-47.3	334	43	
2025-07-09T00:00	8040	364	-28.6	-47.0	334	43	
2025-07-09T00:00	8060	363	-28.8	-46.6	334	43	
2025-07-09T00:00	8080	362	-29.0	-46.5	334	42	
2025-07-09T00:00	8100	361	-29.1	-46.5	334	42	
2025-07-09T00:00	8120	360	-29.2	-47.1	334	42	
2025-07-09T00:00	8140	359	-29.4	-47.3	334	42	
2025-07-09T00:00	8160	358	-29.6	-47.3	334	42	
2025-07-09T00:00	8180	357	-29.8	-47.3	334	42	
2025-07-09T00:00	8200	356	-30.0	-47.2	334	42	
2025-07-09T00:00	8220	355	-30.2	-47.2	334	43	
2025-07-09T00:00	8240	354	-30.4	-47.3	334	43	
2025-07-09T00:00	8260	353	-30.5	-47.3	334	43	
2025-07-09T00:00	8280	352	-30.7	-47.3	334	43	
2025-07-09T00:00	8300	351	-31.0	-47.4	334	43	
2025-07-09T00:00	8320	350	-31.2	-47.5	334	43	
2025-07-09T00:00	8340	349	-31.3	-47.5	334	43	
2025-07-09T00:00	8360	348	-31.5	-47.3	333	43	
2025-07-09T00:00	8380	347	-31.7	-47.2	333	43	
2025-07-09T00:00	8400	346	-31.9	-47.3	333	43	
2025-07-09T00:00	8420	345	-32.1	-47.5	333	43	
2025-07-09T00:00	8440	344	-32.3	-48.1	333	43	
2025-07-09T00:00	8460	343	-32.4	-48.4	333	43	
2025-07-09T00:00	8480	342	-32.6	-48.6	332	43	
2025-07-09T00:00	8500	341	-32.8	-48.7	332	43	
2025-07-09T00:00	8520	340	-33.0	-48.9	332	43	
2025-07-09T00:00	8540	339	-33.1	-49.0	332	43	
2025-07-09T00:00	8560	338	-33.3	-49.2	332	44	
2025-07-09T00:00	8580	337	-33.5	-49.6	332	44	
2025-07-09T00:00	8600	336	-33.6	-49.8	332	44	
2025-07-09T00:00	8620	335	-33.7	-49.9	331	43	
2025-07-09T00:00	8640	334	-33.9	-50.0	331	43	
2025-07-09T00:00	8660	333	-34.1	-50.0	331	43	
2025-07-09T00:00	8680	332	-34.3	-50.1	331	43	
2025-07-09T00:00	8700	331	-34.4	-50.2	330	43	
2025-07-09T00:00	8720	330	-34.6	-50.6	330	43	
2025-07-09T00:00	8740	329	-34.6	-51.2	330	43	
2025-07-09T00:00	8760	328	-34.8	-50.9	330	42	
2025-07-09T00:00	8780	327	-34.9	-50.8	329	42	
2025-07-09T00:00	8800	327	-35.0	-50.9	329	42	
2025-07-09T00:00	8820	326	-35.1	-51.5	329	42	
2025-07-09T00:00	8840	325	-35.2	-51.8	329	42	
2025-07-09T00:00	8860	324	-35.3	-52.0	329	43	
2025-07-09T00:00	8880	323	-35.4	-52.0	328	43	
2025-07-09T00:00	8900	322	-35.6	-52.1	328	43	
2025-07-09T00:00	8920	321	-35.7	-52.4	328	43	
2025-07-09T00:00	8940	320	-35.8	-52.5	328	43	
2025-07-09T00:00	8960	319	-36.0	-52.6	328	43	
2025-07-09T00:00	8980	318	-36.2	-52.6	328	43	
2025-07-09T00:00	9000	317	-36.4	-52.6	327	44	
2025-07-09T00:00	9020	316	-36.6	-52.7	327	44	
2025-07-09T00:00	9040	315	-36.8	-53.1	327	44	
2025-07-09T00:00	9060	315	-37.0	-53.3	327	44	
2025-07-09T00:00	9080	314	-37.1	-53.9	326	44	
2025-07-09T00:00	9100	313	-37.3	-54.7	326	44	
2025-07-09T00:00	9120	312	-37.4	-55.1	326	44	
2025-07-09T00:00	9140	311	-37.5	-55.6	326	44	
2025-07-09T00:00	9160	310	-37.6	-56.0	326	44	
2025-07-09T00:00	9180	309	-37.7	-55.9	326	44	
2025-07-09T00:00	9200	308	-37.8	-55.9	326	44	
2025-07-09T00:00	9220	307	-37.9	-56.0	326	44	
2025-07-09T00:00	9240	307	-38.1	-56.2	326	45	
2025-07-09T00:00	9260	306	-38.3	-56.3	326	45	
2025-07-09T00:00	9280	305	-38.4	-56.4	326	45	
2025-07-09T00:00	9300	304	-38.6	-56.5	326	45	
2025-07-09T00:00	9320	303	-38.8	-56.6	326	44	
2025-07-09T00:00	9340	302	-38.9	-56.7	326	44	
2025-07-09T00:00	9360	301	-39.1	-56.6	326	44	
2025-07-09T00:00	9380	300	-39.3	-56.7	327	44	
2025-07-09T00:00	9400	299	-39.4	-56.6	327	45	
2025-07-09T00:00	9420	298	-39.6	-56.5	327	45	
2025-07-09T00:00	9440	298	-39.7	-56.3	327	45	
2025-07-09T00:00	9460	297	-39.8	-55.7	327	45	
2025-07-09T00:00	9480	296	-40.0	-54.7	327	45	
2025-07-09T00:00	9500	295	-40.0	-54.0	328	45	
2025-07-09T00:00	9520	294	-40.0	-55.0	328	44	
2025-07-09T00:00	9540	293	-40.0	-55.6	328	44	
2025-07-09T00:00	9560	293	-40.1	-56.4	328	44	
2025-07-09T00:00	9580	292	-40.0	-58.4	327	44	
2025-07-09T00:00	9600	291	-40.0	-59.0	327	44	
2025-07-09T00:00	9620	290	-40.1	-58.5	327	44	
2025-07-09T00:00	9640	289	-40.2	-57.8	327	44	
2025-07-09T00:00	9660	288	-40.2	-57.1	326	44	
2025-07-09T00:00	9680	287	-40.2	-55.8	326	45	
2025-07-09T00:00	9700	287	-40.2	-56.1	326	45	
2025-07-09T00:00	9720	286	-40.3	-56.6	325	45	
2025-07-09T00:00	9740	285	-40.4	-56.5	325	45	
2025-07-09T00:00	9760	284	-40.6	-56.7	325	45	
2025-07-09T00:00	9780	283	-40.8	-56.6	324	45	
2025-07-09T00:00	9800	282	-41.0	-56.4	324	46	
2025-07-09T00:00	9820	282	-41.2	-56.5	324	46	
2025-07-09T00:00	9840	281	-41.4	-56.6	324	46	
2025-07-09T00:00	9860	280	-41.6	-56.6	324	45	
2025-07-09T00:00	9880	279	-41.8	-56.5	323	45	
2025-07-09T00:00	9900	278	-41.9	-56.4	323	45	
2025-07-09T00:00	9920	277	-42.1	-56.1	323	45	
2025-07-09T00:00	9940	277	-42.2	-55.9	323	45	
2025-07-09T00:00	9960	276	-42.4	-55.8	322	45	
2025-07-09T00:00	9980	275	-42.6	-55.7	322	45	
2025-07-09T00:00	10000	274	-42.8	-55.7	322	45	
2025-07-09T00:00	10018	274	-42.9	-55.7	322	45	
2025-07-09T00:00	10050	272	-43.3	-55.7	322	46	
2025-07-09T00:00	10100	270	-43.8	-55.8	322	46	
2025-07-09T00:00	10150	268	-44.2	-55.8	321	46	
2025-07-09T00:00	10200	266	-44.3	-56.8	321	46	
2025-07-09T00:00	10250	264	-44.7	-57.2	322	46	
2025-07-09T00:00	10300	262	-44.9	-57.7	322	46	
2025-07-09T00:00	10350	260	-45.4	-57.6	322	46	
2025-07-09T00:00	10400	258	-45.7	-58.0	322	46	
2025-07-09T00:00	10450	256	-46.0	-58.3	321	45	
2025-07-09T00:00	10500	254	-46.3	-58.6	320	45	
2025-07-09T00:00	10550	252	-46.7	-58.9	319	46	
2025-07-09T00:00	10600	251	-46.9	-60.1	318	46	
2025-07-09T00:00	10650	249	-47.0	-60.1	317	46	
2025-07-09T00:00	10700	247	-47.1	-61.5	317	46	
2025-07-09T00:00	10750	245	-47.0	-65.1	316	45	
2025-07-09T00:00	10800	243	-46.9	-67.2	317	44	
2025-07-09T00:00	10850	241	-46.9	-67.4	317	44	
2025-07-09T00:00	10900	240	-47.1	-66.9	317	43	
2025-07-09T00:00	10950	238	-47.1	-66.0	317	42	
2025-07-09T00:00	11000	236	-47.2	-66.1	318	42	
2025-07-09T00:00	11050	234	-47.1	-66.7	318	42	
2025-07-09T00:00	11100	232	-47.3	-67.2	317	42	
2025-07-09T00:00	11150	231	-47.4	-67.6	317	42	
2025-07-09T00:00	11200	229	-47.6	-67.1	317	42	
2025-07-09T00:00	11250	227	-47.8	-67.4	318	41	
2025-07-09T00:00	11300	225	-47.6	-68.6	318	40	
2025-07-09T00:00	11350	224	-47.5	-68.9	318	40	
2025-07-09T00:00	11400	222	-47.8	-69.3	318	39	
2025-07-09T00:00	11450	220	-47.9	-69.7	319	39	
2025-07-09T00:00	11500	219	-47.9	-69.6	320	38	
2025-07-09T00:00	11550	217	-48.1	-69.9	320	38	
2025-07-09T00:00	11600	215	-48.1	-70.9	320	38	
2025-07-09T00:00	11650	214	-48.2	-71.3	319	38	
2025-07-09T00:00	11700	212	-48.1	-71.6	318	37	
2025-07-09T00:00	11750	211	-48.0	-71.9	318	37	
2025-07-09T00:00	11800	209	-48.4	-72.2	319	36	
2025-07-09T00:00	11850	207	-48.5	-72.4	320	36	
2025-07-09T00:00	11900	206	-48.7	-72.6	320	35	
2025-07-09T00:00	11950	204	-49.0	-72.8	320	35	
2025-07-09T00:00	12000	203	-49.1	-73.1	320	35	
2025-07-09T00:00	12050	201	-49.2	-73.3	321	35	
2025-07-09T00:00	12100	200	-49.5	-73.5	320	35	
2025-07-09T00:00	12150	198	-49.7	-73.8	319	34	
2025-07-09T00:00	12200	197	-49.7	-74.1	319	33	
2025-07-09T00:00	12250	195	-49.3	-74.3	319	32	
2025-07-09T00:00	12300	194	-49.4	-74.5	319	32	
2025-07-09T00:00	12350	192	-49.6	-74.7	319	32	
2025-07-09T00:00	12400	191	-49.8	-74.8	320	32	
2025-07-09T00:00	12450	189	-50.1	-74.9	318	32	
2025-07-09T00:00	12500	188	-50.5	-75.0	317	33	
2025-07-09T00:00	12550	186	-50.7	-75.1	316	33	
2025-07-09T00:00	12600	185	-50.9	-75.3	315	33	
2025-07-09T00:00	12650	183	-51.0	-75.5	316	32	
2025-07-09T00:00	12700	182	-51.2	-75.5	316	32	
2025-07-09T00:00	12750	181	-51.5	-75.6	315	31	
2025-07-09T00:00	12800	179	-51.9	-75.7	314	30	
2025-07-09T00:00	12850	178	-52.1	-75.8	313	29	
2025-07-09T00:00	12900	177	-52.1	-76.1	311	28	
2025-07-09T00:00	12950	175	-52.2	-76.7	309	28	
2025-07-09T00:00	13000	174	-52.2	-77.2	308	28	
2025-07-09T00:00	13050	173	-52.4	-77.1	307	28	
2025-07-09T00:00	13100	171	-52.6	-77.4	306	28	
2025-07-09T00:00	13150	170	-52.5	-77.9	306	28	
2025-07-09T00:00	13200	169	-52.7	-78.0	306	28	
2025-07-09T00:00	13250	167	-52.8	-78.6	307	27	
2025-07-09T00:00	13300	166	-52.8	-79.3	308	27	
2025-07-09T00:00	13350	165	-52.7	-79.8	309	26	
2025-07-09T00:00	13400	163	-53.0	-80.1	309	26	
2025-07-09T00:00	13450	162	-52.9	-80.4	306	25	
2025-07-09T00:00	13500	161	-52.9	-80.6	304	25	
2025-07-09T00:00	13550	160	-52.7	-80.8	304	25	
2025-07-09T00:00	13600	158	-51.9	-80.5	305	26	
2025-07-09T00:00	13650	157	-51.7	-80.4	305	26	
2025-07-09T00:00	13700	156	-51.6	-80.7	306	25	
2025-07-09T00:00	13750	155	-51.4	-80.8	305	25	
2025-07-09T00:00	13800	154	-51.5	-81.0	304	24	
2025-07-09T00:00	13850	152	-51.5	-81.1	302	24	
2025-07-09T00:00	13900	151	-51.6	-81.1	303	24	
2025-07-09T00:00	13950	150	-51.9	-81.2	305	24	
2025-07-09T00:00	14000	149	-52.2	-81.3	306	24	
2025-07-09T00:00	14050	148	-52.4	-81.4	305	23	
2025-07-09T00:00	14100	147	-52.6	-81.6	305	23	
2025-07-09T00:00	14150	146	-52.9	-81.8	306	22	
2025-07-09T00:00	14200	144	-52.7	-81.7	307	22	
2025-07-09T00:00	14250	143	-52.9	-81.9	306	21	
2025-07-09T00:00	14300	142	-53.0	-82.0	304	20	
2025-07-09T00:00	14350	141	-53.1	-81.9	302	19	
2025-07-09T00:00	14400	140	-53.3	-82.0	299	19	
2025-07-09T00:00	14450	139	-53.6	-82.2	299	20	
2025-07-09T00:00	14500	138	-53.7	-82.1	299	21	
2025-07-09T00:00	14550	137	-53.8	-82.3	297	20	
2025-07-09T00:00	14600	136	-53.9	-82.4	295	20	
2025-07-09T00:00	14650	135	-53.9	-82.5	296	19	
2025-07-09T00:00	14700	134	-53.5	-82.5	302	19	
2025-07-09T00:00	14750	133	-53.3	-82.5	308	19	
2025-07-09T00:00	14800	132	-53.4	-82.5	312	19	
2025-07-09T00:00	14850	131	-53.5	-82.4	313	19	
2025-07-09T00:00	14900	130	-53.7	-82.5	310	18	
2025-07-09T00:00	14950	129	-53.7	-82.6	305	17	
2025-07-09T00:00	15000	128	-53.6	-82.7	301	16	
2025-07-09T00:00	15050	127	-53.5	-82.6	301	16	
2025-07-09T00:00	15100	126	-53.2	-82.7	305	15	
2025-07-09T00:00	15150	125	-52.8	-82.6	309	14	
2025-07-09T00:00	15200	124	-52.6	-82.4	310	14	
2025-07-09T00:00	15250	123	-52.7	-82.4	309	13	
2025-07-09T00:00	15300	122	-53.0	-82.5	308	12	
2025-07-09T00:00	15350	121	-53.1	-82.4	308	12	
2025-07-09T00:00	15400	120	-53.4	-82.5	310	13	
2025-07-09T00:00	15450	119	-53.8	-82.6	311	14	
2025-07-09T00:00	15500	118	-54.2	-82.7	313	14	
2025-07-09T00:00	15550	117	-54.6	-82.9	315	14	
2025-07-09T00:00	15600	116	-55.0	-83.0	316	15	
2025-07-09T00:00	15650	115	-55.5	-83.2	315	15	
2025-07-09T00:00	15700	114	-55.7	-83.4	317	15	
2025-07-09T00:00	15750	113	-55.8	-83.5	320	14	
2025-07-09T00:00	15800	113	-55.7	-83.7	324	13	
2025-07-09T00:00	15850	112	-55.4	-83.6	327	12	
2025-07-09T00:00	15900	111	-55.4	-83.7	327	11	
2025-07-09T00:00	15950	110	-55.2	-83.5	324	11	
2025-07-09T00:00	16000	109	-55.5	-83.5	318	10	
2025-07-09T00:00	16050	108	-55.9	-83.7	308	11	
2025-07-09T00:00	16100	107	-55.6	-84.1	296	11	
2025-07-09T00:00	16150	107	-54.1	-83.8	283	10	
2025-07-09T00:00	16200	106	-53.1	-83.4	275	9	
2025-07-09T00:00	16250	105	-52.9	-83.1	274	9	
2025-07-09T00:00	16300	104	-53.1	-83.0	278	8	
2025-07-09T00:00	16350	103	-53.4	-82.9	285	8	
2025-07-09T00:00	16400	103	-53.6	-83.0	292	7	
2025-07-09T00:00	16450	102	-53.9	-83.1	296	7	
2025-07-09T00:00	16500	101	-53.9	-83.4	295	6	
2025-07-09T00:00	16550	100	-53.1	-83.1	286	5	
2025-07-09T00:00	16600	99	-53.1	-83.1	274	6	
2025-07-09T00:00	16650	99	-53.1	-83.0	265	7	
2025-07-09T00:00	16700	98	-53.0	-83.0	258	7	
2025-07-09T00:00	16750	97	-52.9	-83.0	252	7	
2025-07-09T00:00	16800	96	-52.9	-83.0	243	8	
2025-07-09T00:00	16850	96	-52.8	-83.0	236	9	
2025-07-09T00:00	16900	95	-52.6	-82.8	233	9	
2025-07-09T00:00	16950	94	-52.7	-82.8	235	9	
2025-07-09T00:00	17000	93	-53.1	-82.8	243	8	
2025-07-09T00:00	17050	93	-53.5	-82.9	253	7	
2025-07-09T00:00	17100	92	-53.7	-83.1	263	7	
2025-07-09T00:00	17150	91	-53.9	-83.2	271	8	
2025-07-09T00:00	17200	90	-54.2	-83.2	276	8	
2025-07-09T00:00	17250	90	-54.5	-83.3	276	9	
2025-07-09T00:00	17300	89	-54.8	-83.4	276	9	
2025-07-09T00:00	17350	88	-55.2	-83.6	279	10	
2025-07-09T00:00	17400	88	-55.6	-83.8	282	10	
2025-07-09T00:00	17450	87	-55.8	-83.9	285	11	
2025-07-09T00:00	17500	86	-56.1	-84.1	286	12	
2025-07-09T00:00	17550	86	-56.1	-84.2	288	12	
2025-07-09T00:00	17600	85	-56.1	-84.3	290	11	
2025-07-09T00:00	17650	84	-55.8	-84.1	293	10	
2025-07-09T00:00	17700	84	-56.0	-84.3	294	9	
2025-07-09T00:00	17750	83	-56.2	-84.3	292	8	
2025-07-09T00:00	17800	82	-56.3	-84.4	285	7	
2025-07-09T00:00	17850	82	-56.2	-84.3	277	8	
2025-07-09T00:00	17900	81	-56.4	-84.4	271	9	
2025-07-09T00:00	17950	80	-56.7	-84.5	268	10	
2025-07-09T00:00	18000	80	-57.0	-84.9	269	11	
2025-07-09T00:00	18050	79	-56.0	-84.7	274	10	
2025-07-09T00:00	18100	79	-55.1	-84.6	282	9	
2025-07-09T00:00	18150	78	-54.4	-84.3	289	8	
2025-07-09T00:00	18200	77	-54.0	-83.9	298	7	
2025-07-09T00:00	18250	77	-54.1	-83.9	310	7	
2025-07-09T00:00	18300	76	-54.0	-83.8	314	6	
2025-07-09T00:00	18350	76	-53.6	-83.7	307	4	
2025-07-09T00:00	18400	75	-53.3	-83.6	297	3	
2025-07-09T00:00	18450	74	-53.0	-83.4	292	3	
2025-07-09T00:00	18500	74	-53.2	-83.4	293	4	
2025-07-09T00:00	18550	73	-53.4	-83.3	294	5	
2025-07-09T00:00	18600	73	-53.6	-83.3	293	5	
2025-07-09T00:00	18650	72	-54.0	-83.5	292	6	
2025-07-09T00:00	18700	72	-54.1	-83.6	293	7	
2025-07-09T00:00	18750	71	-54.3	-83.8	298	7	
2025-07-09T00:00	18800	70	-54.1	-83.8	308	6	
2025-07-09T00:00	18850	70	-53.8	-83.9	322	5	
2025-07-09T00:00	18900	69	-53.2	-83.7	330	5	
2025-07-09T00:00	18950	69	-53.1	-83.5	330	4	
2025-07-09T00:00	19000	68	-53.3	-83.4	330	4	
2025-07-09T00:00	19050	68	-53.5	-83.4	336	3	
2025-07-09T00:00	19100	67	-54.0	-83.6	339	3	
2025-07-09T00:00	19150	67	-54.1	-83.7	337	4	
2025-07-09T00:00	19200	66	-54.2	-83.9	344	4	
2025-07-09T00:00	19250	66	-54.1	-84.0	10	3	
2025-07-09T00:00	19300	65	-53.7	-83.8	45	3	
2025-07-09T00:00	19350	65	-53.5	-83.6	65	4	
2025-07-09T00:00	19400	64	-53.8	-83.6	75	4	
2025-07-09T00:00	19450	64	-54.2	-83.7	81	4	
2025-07-09T00:00	19500	63	-54.7	-83.8	86	4	
2025-07-09T00:00	19550	63	-55.1	-83.9	94	4	
2025-07-09T00:00	19600	62	-55.5	-84.1	104	4	
2025-07-09T00:00	19650	62	-55.9	-84.4	117	4	
2025-07-09T00:00	19700	61	-56.0	-84.6	121	3	
2025-07-09T00:00	19750	61	-56.0	-84.8	108	2	
2025-07-09T00:00	19800	60	-55.4	-84.7	76	2	
2025-07-09T00:00	19850	60	-55.1	-84.6	46	2	
2025-07-09T00:00	19900	59	-55.0	-84.6	35	1	
2025-07-09T00:00	19950	59	-54.7	-84.5	52	2	
2025-07-09T00:00	20000	58	-54.2	-84.3	63	4	
2025-07-09T00:00	20050	58	-53.9		68	5	
2025-07-09T00:00	20100	57	-53.8		76	6	
2025-07-09T00:00	20150	57	-53.6		88	8	
2025-07-09T00:00	20200	57	-53.5		97	9	
2025-07-09T00:00	20250	56	-53.5		103	9	
2025-07-09T00:00	20300	56	-53.5		106	8	
2025-07-09T00:00	20350	55	-53.8		104	7	
2025-07-09T00:00	20400	55	-53.8		99	6	
2025-07-09T00:00	20450	54	-54.1		91	5	
2025-07-09T00:00	20500	54	-54.4		76	3	
2025-07-09T00:00	20550	54	-54.4		54	3	
2025-07-09T00:00	20600	53	-54.0		42	3	
2025-07-09T00:00	20650	53	-53.6		51	3	
2025-07-09T00:00	20700	52	-53.4		74	4	
2025-07-09T00:00	20750	52	-53.2		94	4	
2025-07-09T00:00	20800	52	-53.3		106	5	
2025-07-09T00:00	20850	51	-53.5		113	6	
2025-07-09T00:00	20900	51	-53.7		119	7	
2025-07-09T00:00	20950	50	-53.9		125	7	
2025-07-09T00:00	21000	50	-54.2		132	7	
2025-07-09T00:00	21050	50	-54.0		139	6	
2025-07-09T00:00	21100	49	-53.7		147	6	
2025-07-09T00:00	21150	49	-53.9		153	5	
2025-07-09T00:00	21200	48	-54.2		158	5	
2025-07-09T00:00	21250	48	-54.5		165	5	
2025-07-09T00:00	21300	48	-54.8		170	4	
2025-07-09T00:00	21350	47	-55.1		167	3	
2025-07-09T00:00	21400	47	-54.9		156	3	
2025-07-09T00:00	21450	47	-54.4		157	2	
2025-07-09T00:00	21500	46	-54.2		163	2	
2025-07-09T00:00	21550	46	-53.7		100	0	
2025-07-09T00:00	21600	46	-53.0		48	1	
2025-07-09T00:00	21650	45	-52.7		55	2	
2025-07-09T00:00	21700	45	-52.7		66	3	
2025-07-09T00:00	21750	44	-52.8		75	3	
2025-07-09T00:00	21800	44	-52.9		86	3	
2025-07-09T00:00	21850	44	-52.7		95	3	
2025-07-09T00:00	21900	43	-52.9		94	4	
2025-07-09T00:00	21950	43	-52.4		91	5	
2025-07-09T00:00	22000	43	-52.3		91	7	
2025-07-09T00:00	22050	42	-52.4		94	8	
2025-07-09T00:00	22100	42	-52.5		99	9	
2025-07-09T00:00	22150	42	-52.6		105	10	
2025-07-09T00:00	22200	41	-52.5		112	10	
2025-07-09T00:00	22250	41	-52.6		118	9	
2025-07-09T00:00	22300	41	-52.6		122	7	
2025-07-09T00:00	22350	41	-52.4		120	6	
2025-07-09T00:00	22400	40	-52.0		109	5	
2025-07-09T00:00	22450	40	-51.7		97	4	
2025-07-09T00:00	22500	40	-51.6		87	4	
2025-07-09T00:00	22550	39	-51.5		79	5	
2025-07-09T00:00	22600	39	-51.0		72	5	
2025-07-09T00:00	22650	39	-51.0		70	7	
2025-07-09T00:00	22700	38	-50.9		72	8	
2025-07-09T00:00	22750	38	-51.0		77	8	
2025-07-09T00:00	22800	38	-51.1		88	9	
2025-07-09T00:00	22850	38	-51.1		99	9	
2025-07-09T00:00	22900	37	-51.4		108	10	
2025-07-09T00:00	22950	37	-51.5		113	10	
2025-07-09T00:00	23000	37	-51.3		117	10	
2025-07-09T00:00	23050	36	-51.4		119	9	
2025-07-09T00:00	23100	36	-51.4		118	9	
2025-07-09T00:00	23150	36	-51.4		118	9	
2025-07-09T00:00	23200	36	-51.5		119	9	
2025-07-09T00:00	23250	35	-51.2		120	8	
2025-07-09T00:00	23300	35	-51.3		118	8	
2025-07-09T00:00	23350	35	-51.4		114	7	
2025-07-09T00:00	23400	34	-51.4		113	7	
2025-07-09T00:00	23450	34	-51.4		117	6	
2025-07-09T00:00	23500	34	-51.5		123	6	
2025-07-09T00:00	23550	34	-51.7		128	6	
2025-07-09T00:00	23600	33	-51.8		130	5	
2025-07-09T00:00	23650	33	-51.8		129	5	
2025-07-09T00:00	23700	33	-52.0		126	5	
2025-07-09T00:00	23750	33	-52.3		122	5	
2025-07-09T00:00	23800	32	-52.5		114	5	
2025-07-09T00:00	23850	32	-52.6		106	6	
2025-07-09T00:00	23900	32	-52.7		101	6	
2025-07-09T00:00	23950	32	-52.7		99	8	
2025-07-09T00:00	24000	31	-52.2		96	9	
2025-07-09T00:00	24050	31	-51.8		93	9	
2025-07-09T00:00	24100	31	-51.6		90	9	
2025-07-09T00:00	24150	31	-51.8		86	8	
2025-07-09T00:00	24200	30	-51.8		85	8	
2025-07-09T00:00	24250	30	-51.9		90	7	
2025-07-09T00:00	24300	30	-52.2		97	8	
2025-07-09T00:00	24350	30	-52.4		103	8	
2025-07-09T00:00	24400	30	-52.7		108	9	
2025-07-09T00:00	24450	29	-52.8		111	9	
2025-07-09T00:00	24500	29	-52.6		111	9	
2025-07-09T00:00	24550	29	-52.4		107	10	
2025-07-09T00:00	24600	29	-52.1		100	10	
2025-07-09T00:00	24650	28	-51.8		95	10	
2025-07-09T00:00	24700	28	-51.7		93	10	
2025-07-09T00:00	24750	28	-51.6		94	10	
2025-07-09T00:00	24800	28	-51.8		97	11	
2025-07-09T00:00	24850	28	-51.6		101	11	
2025-07-09T00:00	24900	27	-51.6		106	10	
2025-07-09T00:00	24950	27	-51.4		106	9	
2025-07-09T00:00	25000	27	-50.9		102	9	
2025-07-09T00:00	25050	27	-50.7		96	8	
2025-07-09T00:00	25100	27	-50.6		90	8	
2025-07-09T00:00	25150	26	-50.3		84	8	
2025-07-09T00:00	25200	26	-50.0		78	7	
2025-07-09T00:00	25250	26	-49.6		74	7	
2025-07-09T00:00	25300	26	-49.5		72	8	
2025-07-09T00:00	25350	26	-49.4		70	8	
2025-07-09T00:00	25400	25	-49.2		68	9	
2025-07-09T00:00	25450	25	-49.1		69	9	
2025-07-09T00:00	25500	25	-49.0		72	10	
2025-07-09T00:00	25550	25	-49.0		76	11	
2025-07-09T00:00	25600	25	-49.1		80	12	
2025-07-09T00:00	25650	24	-49.1		84	12	
2025-07-09T00:00	25700	24	-48.9		88	12	
2025-07-09T00:00	25750	24	-48.9		93	12	
2025-07-09T00:00	25800	24	-48.6		97	11	
2025-07-09T00:00	25850	24	-48.3		100	11	
2025-07-09T00:00	25900	23	-48.3		101	10	
2025-07-09T00:00	25950	23	-48.2		98	10	
2025-07-09T00:00	26000	23	-47.8		93	10	
2025-07-09T00:00	26050	23	-47.3		91	11	
2025-07-09T00:00	26100	23	-46.9		93	10	
2025-07-09T00:00	26150	23	-46.9		97	9	
2025-07-09T00:00	26200	22	-47.0		101	8	
2025-07-09T00:00	26250	22	-47.0		100	9	
2025-07-09T00:00	26300	22	-46.7		98	9	
2025-07-09T00:00	26350	22	-46.4		98	10	
2025-07-09T00:00	26400	22	-46.2		97	10	
2025-07-09T00:00	26450	22	-45.9		92	9	
2025-07-09T00:00	26500	21	-45.8		86	8	
2025-07-09T00:00	26550	21	-45.6		75	6	
2025-07-09T00:00	26600	21	-45.4		61	6	
2025-07-09T00:00	26650	21	-45.5		44	6	
2025-07-09T00:00	26700	21	-45.7		30	6	
2025-07-09T00:00	26750	21	-45.7		22	7	
2025-07-09T00:00	26800	20	-45.8		20	8	
2025-07-09T00:00	26850	20	-45.9		25	9	
2025-07-09T00:00	26900	20	-45.7		31	10	
2025-07-09T00:00	26950	20	-45.7		37	11	
2025-07-09T00:00	27000	20	-45.7		42	12	
2025-07-09T00:00	27050	20	-45.9		46	13	
2025-07-09T00:00	27100	20	-45.7		50	14	
2025-07-09T00:00	27150	19	-45.9		54	15	
2025-07-09T00:00	27200	19	-46.1		57	15	
2025-07-09T00:00	27250	19	-46.3		61	15	
2025-07-09T00:00	27300	19	-46.3		64	15	
2025-07-09T00:00	27350	19	-45.9		66	14	
2025-07-09T00:00	27400	19	-45.6		69	14	
2025-07-09T00:00	27450	19	-45.6		72	13	
2025-07-09T00:00	27500	18	-45.6		75	12	
2025-07-09T00:00	27550	18	-45.7		77	11	
2025-07-09T00:00	27600	18	-45.7		76	11	
2025-07-09T00:00	27650	18	-45.8		76	12	
2025-07-09T00:00	27700	18	-46.0		77	13	
2025-07-09T00:00	27750	18	-46.1		80	13	
2025-07-09T00:00	27800	18	-45.9		82	14	
2025-07-09T00:00	27850	18	-45.6		85	13	
2025-07-09T00:00	27900	17	-45.6		89	13	
2025-07-09T00:00	27950	17	-45.4		95	12	
2025-07-09T00:00	28000	17	-45.1		100	11	
2025-07-09T00:00	28050	17	-44.4		101	10	
2025-07-09T00:00	28100	17	-44.2		100	9	
2025-07-09T00:00	28150	17	-43.9		98	9	
2025-07-09T00:00	28200	17	-43.6		94	9	
2025-07-09T00:00	28250	16	-43.2		92	10	
2025-07-09T00:00	28300	16	-43.0		92	10	
2025-07-09T00:00	28350	16	-42.8		93	10	
2025-07-09T00:00	28400	16	-42.3		93	9	
2025-07-09T00:00	28450	16	-41.9		89	8	
2025-07-09T00:00	28500	16	-41.6		84	7	
2025-07-09T00:00	28550	16	-41.5		78	6	
2025-07-09T00:00	28600	16	-41.6		76	7	
2025-07-09T00:00	28650	16	-41.2		79	8	
2025-07-09T00:00	28700	15	-41.3		83	10	
2025-07-09T00:00	28750	15	-41.4		88	11	
2025-07-09T00:00	28800	15	-41.5		92	11	
2025-07-09T00:00	28850	15	-41.3		93	11	
2025-07-09T00:00	28900	15	-40.9		91	10	
2025-07-09T00:00	28950	15	-40.3		89	10	
2025-07-09T00:00	29000	15	-40.1		90	10	
2025-07-09T00:00	29050	15	-40.0		93	11	
2025-07-09T00:00	29100	15	-39.8		96	12	
2025-07-09T00:00	29150	14	-39.9		97	13	
2025-07-09T00:00	29200	14	-39.7		96	12	
2025-07-09T00:00	29250	14	-39.7		92	12	
2025-07-09T00:00	29300	14	-39.8		88	11	
2025-07-09T00:00	29350	14	-40.0		83	11	
2025-07-09T00:00	29400	14	-40.0		77	11	
2025-07-09T00:00	29450	14	-39.9		73	11	
2025-07-09T00:00	29500	14	-39.9		70	12	
2025-07-09T00:00	29550	14	-40.1		71	13	
2025-07-09T00:00	29600	14	-40.2		73	14	
2025-07-09T00:00	29650	13	-40.4		78	14	
2025-07-09T00:00	29700	13	-40.7		82	14	
2025-07-09T00:00	29750	13	-40.9		88	14	
2025-07-09T00:00	29800	13	-40.8		92	13	
2025-07-09T00:00	29850	13	-40.8		94	12	
2025-07-09T00:00	29900	13	-40.7		94	11	
2025-07-09T00:00	29950	13	-40.6		92	10	
2025-07-09T00:00	30000	13	-40.7		88	10	
2025-07-09T00:00	30050	13	-40.5		84	10	
2025-07-09T00:00	30100	13	-40.3		81	10	
2025-07-09T00:00	30150	12	-40.2		78	10	
2025-07-09T00:00	30200	12	-40.1		76	10	
2025-07-09T00:00	30250	12	-40.1		75	10	
2025-07-09T00:00	30300	12	-40.0		77	10	
2025-07-09T00:00	30350	12	-39.9		81	10	
2025-07-09T00:00	30400	12	-40.0		85	10	
2025-07-09T00:00	30450	12	-40.1		85	11	
2025-07-09T00:00	30500	12	-39.9		84	12	
2025-07-09T00:00	30550	12	-39.5		84	12	
2025-07-09T00:00	30600	12	-39.2		86	13	
2025-07-09T00:00	30650	12	-39.2		90	14	
2025-07-09T00:00	30700	12	-39.3		94	14	
2025-07-09T00:00	30750	11	-39.5		98	13	
2025-07-09T00:00	30800	11	-39.6		101	13	
2025-07-09T00:00	30850	11	-39.6		99	13	
2025-07-09T00:00	30900	11	-39.2		95	14	
2025-07-09T00:00	30950	11	-38.6		91	15	
2025-07-09T00:00	31000	11	-38.4		87	16	
2025-07-09T00:00	31050	11	-38.2		84	17	
2025-07-09T00:00	31100	11	-37.8		83	19	
2025-07-09T00:00	31150	11	-37.7		84	20	
2025-07-09T00:00	31200	11	-37.6		86	20	
2025-07-09T00:00	31250	11	-37.7		88	20	
2025-07-09T00:00	31300	11	-37.7		90	20	
2025-07-09T00:00	31350	10	-37.8		92	18	
2025-07-09T00:00	31400	10	-37.9		93	17	
2025-07-09T00:00	31450	10	-38.1		94	16	
2025-07-09T00:00	31500	10	-37.9		95	16	
2025-07-09T00:00	31550	10	-37.4		94	16	
2025-07-09T00:00	31600	10	-37.3		93	17	
2025-07-09T00:00	31650	10	-37.1		93	18	
2025-07-09T00:00	31700	10	-36.9		92	18	
2025-07-09T00:00	31750	10	-36.7		93	18	
2025-07-09T00:00	31800	10	-36.7		93	17	
2025-07-09T00:00	31850	10	-36.7		93	16	
2025-07-09T00:00	31900	10	-36.7		91	15	
2025-07-09T00:00	31950	10	-36.8		89	14	
2025-07-09T00:00	32000	10	-36.9		88	13	
2025-07-09T00:00	32050	9	-37.0		86	13	
2025-07-09T00:00	32100	9	-37.1		84	14	
2025-07-09T00:00	32150	9	-36.8		82	15	
2025-07-09T00:00	32200	9	-36.7		82	16	
2025-07-09T00:00	32250	9	-36.7		82	16	
2025-07-09T00:00	32300	9	-36.6		83	15	
2025-07-09T00:00	32350	9	-36.5		83	14	
2025-07-09T00:00	32400	9	-36.6		81	14	
2025-07-09T00:00	32450	9	-36.4		79	16	
2025-07-09T00:00	32500	9	-36.4		76	17	
2025-07-09T00:00	32550	9	-36.4		74	18	
2025-07-09T00:00	32600	9	-36.3		73	18	
2025-07-09T00:00	32650	9	-36.3		71	17	
2025-07-09T00:00	32700	9	-36.4		68	16	
2025-07-09T00:00	32750	9	-36.4		66	15	
2025-07-09T00:00	32800	8	-36.4		65	14	
2025-07-09T00:00	32850	8	-36.1		67	15	
2025-07-09T00:00	32900	8	-35.8		70	16	
2025-07-09T00:00	32950	8	-36.0		72	17	
2025-07-09T00:00	33000	8	-36.1		75	19	
2025-07-09T00:00	33050	8	-36.0		79	19	
2025-07-09T00:00	33100	8	-36.0		82	20	
2025-07-09T00:00	33150	8	-36.0		85	20	
2025-07-09T00:00	33200	8	-35.7		85	19	
2025-07-09T00:00	33250	8	-35.4		83	18	
2025-07-09T00:00	33300	8	-35.2		81	17	
2025-07-09T00:00	33350	8	-35.0		81	17	
2025-07-09T00:00	33400	8	-34.6		80	18	
2025-07-09T00:00	33450	8	-34.2		77	19	
2025-07-09T00:00	33500	8	-33.7		74	19	
2025-07-09T00:00	33550	8	-33.3		72	19	
2025-07-09T00:00	33600	8	-33.0		71	18	
2025-07-09T00:00	33650	8	-33.2		69	18	
2025-07-09T00:00	33700	7	-33.3		68	18	
2025-07-09T00:00	33750	7	-33.1		69	18	
2025-07-09T00:00	33800	7	-33.2		72	19	
2025-07-09T00:00	33850	7	-33.4		75	20	
2025-07-09T00:00	33900	7	-33.6		79	21	
2025-07-09T00:00	33950	7	-33.7		82	21	
2025-07-09T00:00	34000	7	-33.8		84	21	
2025-07-09T00:00	34050	7	-33.5		83	21	
2025-07-09T00:00	34100	7	-32.8		81	21	
2025-07-09T00:00	34150	7	-32.6		79	22	
2025-07-09T00:00	34200	7	-32.5		80	22	
2025-07-09T00:00	34250	7	-32.5		83	23	
2025-07-09T00:00	34300	7	-32.7		85	23	
2025-07-09T00:00	34350	7	-32.8		87	23	
2025-07-09T00:00	34400	7	-32.6		88	23	
2025-07-09T00:00	34450	7	-32.2		89	22	
2025-07-09T00:00	34500	7	-31.9		91	22	
2025-07-09T00:00	34550	7	-31.5		94	22	
2025-07-09T00:00	34600	7	-31.1		98	22	
2025-07-09T00:00	34650	7	-30.9		100	21	
2025-07-09T00:00	34700	6	-30.9		99	21	
2025-07-09T00:00	34750	6	-31.0		97	19	
2025-07-09T00:00	34800	6	-30.8		95	19	
2025-07-09T00:00	34850	6	-30.5		93	18	
2025-07-09T00:00	34900	6	-30.1		88	17	
2025-07-09T00:00	34950	6	-29.5		82	17	
2025-07-09T00:00	35000	6	-29.1		77	16	
2025-07-09T00:00	35050	6	-28.9		72	16	
2025-07-09T00:00	35100	6	-28.8		71	17	
2025-07-09T00:00	35150	6	-28.5		72	17	
2025-07-09T00:00	35200	6	-28.5		72	18	
2025-07-09T00:00	35250	6	-28.5		70	19	
2025-07-09T00:00	35300	6	-28.4		69	19	
2025-07-09T00:00	35350	6	-28.0		70	19	
2025-07-09T00:00	35400	6	-27.5		73	19	
2025-07-09T00:00	35450	6	-27.8		76	19	
2025-07-09T00:00	35500	6	-28.2		79	18	
2025-07-09T00:00	35550	6	-28.5		84	18	
2025-07-09T00:00	35600	6	-28.5		88	19	
2025-07-09T00:00	35650	6	-28.5		90	19	
2025-07-09T00:00	35700	6	-28.2		92	19	
2025-07-09T00:00	35750	6	-28.0		93	19	
2025-07-09T00:00	35800	6	-28.0		93	19	
2025-07-09T00:00	35850	6	-28.1		91	20	
2025-07-09T00:00	35900	5	-28.0		89	19	
2025-07-09T00:00	35950	5	-27.7		87	19	
2025-07-09T00:00	36000	5	-27.3		84	18	
2025-07-09T00:00	36050	5	-27.2		81	17	
2025-07-09T00:00	36100	5	-27.2		79	17	
2025-07-09T00:00	36150	5	-27.3		76	17	
2025-07-09T00:00	36200	5	-27.2		75	18	
2025-07-09T00:00	36250	5	-26.9		78	19	
2025-07-09T00:00	36300	5	-26.7		81	21	
2025-07-09T00:00	36350	5	-26.6		84	22	
2025-07-09T00:00	36400	5	-26.3		86	23	
2025-07-09T00:00	36450	5	-26.0		88	23	
2025-07-09T00:00	36500	5	-25.8		89	22	
2025-07-09T00:00	36550	5	-25.6		89	21	
2025-07-09T00:00	36600	5	-25.3		87	20	
2025-07-09T00:00	36650	5	-25.0		85	19	
2025-07-09T00:00	36700	5	-25.0		83	18	
2025-07-09T00:00	36750	5	-24.8		83	17	
2025-07-09T00:00	36800	5	-24.9		84	16	
2025-07-09T00:00	36850	5	-24.7		83	16	
2025-07-09T00:00	36900	5	-24.8		80	16	
2025-07-09T00:00	36950	5	-24.8		76	16	
2025-07-09T00:00	37000	5	-24.9		74	17	
2025-07-09T00:00	37050	5	-24.8		72	17	
2025-07-09T00:00	37100	5	-24.6		73	18	
2025-07-09T00:00	37150	5	-24.4		76	18	
2025-07-09T00:00	37200	5	-23.9		78	18	
2025-07-09T00:00	37250	5	-23.6		78	19	
2025-07-09T00:00	37300	5	-23.5		76	20	
2025-07-09T00:00	37350	4	-23.4		75	21	
2025-07-09T00:00	37400	4	-23.2		75	23	
2025-07-09T00:00	37450	4	-22.8		76	25	
2025-07-09T00:00	37500	4	-22.6		78	26	
2025-07-09T00:00	37550	4	-22.8		80	27	
2025-07-09T00:00	37600	4	-23.0		82	28	
2025-07-09T00:00	37650	4	-22.4		83	27	
2025-07-09T00:00	37700	4	-22.1		83	27	
2025-07-09T00:00	37750	4	-22.0		83	26	
2025-07-09T00:00	37800	4	-21.8		82	26	
2025-07-09T00:00	37850	4	-21.5		81	27	
2025-07-09T00:00	37900	4	-21.0		81	26	
2025-07-09T00:00	37950	4	-20.9		82	25	
2025-07-09T00:00	38000	4	-21.1		83	24	
2025-07-09T00:00	38050	4	-21.2		84	23	
2025-07-09T00:00	38100	4	-21.3		86	23	
2025-07-09T00:00	38150	4	-21.6		86	23	
2025-07-09T00:00	38200	4	-21.9		86	24	
2025-07-09T00:00	38250	4	-21.6		86	25	
2025-07-09T00:00	38300	4	-21.0		87	25	
2025-07-09T12:00	491	965	19.5	3.2	337	4	4.9
2025-07-09T12:00	501	963	18.6	2.5	5	2	4.9
2025-07-09T12:00	520	961	17.8	2.4	9	3	5.0
2025-07-09T12:00	540	959	17.5	2.6	7	3	5.0
2025-07-09T12:00	560	957	17.3	2.8	6	4	5.0
2025-07-09T12:00	580	955	17.1	2.9	5	4	4.9
2025-07-09T12:00	600	952	16.9	2.5	5	4	4.9
2025-07-09T12:00	620	950	16.7	2.4	5	5	5.0
2025-07-09T12:00	640	948	16.5	2.5	6	5	5.0
2025-07-09T12:00	660	946	16.3	2.7	8	5	5.0
2025-07-09T12:00	680	943	16.1	3.0	10	5	5.0
2025-07-09T12:00	700	941	15.8	3.1	11	5	5.0
2025-07-09T12:00	720	939	15.7	3.1	13	4	5.0
2025-07-09T12:00	740	937	15.5	3.2	13	4	5.0
2025-07-09T12:00	760	935	15.3	3.2	13	4	5.0
2025-07-09T12:00	780	932	15.2	2.6	12	4	4.9
2025-07-09T12:00	800	930	15.0	2.3	11	4	4.9
2025-07-09T12:00	820	928	14.8	2.6	10	4	4.9
2025-07-09T12:00	840	926	14.6	2.6	9	3	4.9
2025-07-09T12:00	860	924	14.3	3.0	8	3	5.0
2025-07-09T12:00	880	922	14.1	3.2	8	3	4.9
2025-07-09T12:00	900	919	14.0	3.1	9	2	4.9
2025-07-09T12:00	920	917	13.9	2.9	11	2	4.9
2025-07-09T12:00	940	915	13.7	3.2	14	1	4.9
2025-07-09T12:00	960	913	13.5	3.2	9	1	4.9
2025-07-09T12:00	980	910	13.2	3.4	360	1	4.9
2025-07-09T12:00	1000	908	13.0	3.4	352	2	4.8
2025-07-09T12:00	1020	906	12.9	3.0	348	2	4.8
2025-07-09T12:00	1040	904	12.6	2.9	349	2	4.8
2025-07-09T12:00	1060	902	12.5	3.0	359	3	4.8
2025-07-09T12:00	1080	900	12.3	3.1	15	3	4.8
2025-07-09T12:00	1100	897	12.1	3.0	26	3	4.8
2025-07-09T12:00	1120	895	11.9	2.5	31	4	4.7
2025-07-09T12:00	1140	893	11.8	2.5	35	5	4.7
2025-07-09T12:00	1160	891	11.5	2.1	36	5	4.7
2025-07-09T12:00	1180	889	11.3	2.6	37	5	4.7
2025-07-09T12:00	1200	887	11.2	2.8	38	5	4.7
2025-07-09T12:00	1220	885	11.0	2.6	39	5	4.7
2025-07-09T12:00	1240	883	10.7	3.1	40	4	4.7
2025-07-09T12:00	1260	881	10.6	3.0	41	3	4.7
2025-07-09T12:00	1280	879	10.4	2.8	44	2	4.7
2025-07-09T12:00	1300	876	10.2	2.3	45	2	4.7
2025-07-09T12:00	1320	874	10.1	2.0	42	1	4.7
2025-07-09T12:00	1340	872	9.9	2.5	30	1	4.7
2025-07-09T12:00	1360	870	9.7	2.6	10	1	4.7
2025-07-09T12:00	1380	868	9.4	3.1	356	1	4.7
2025-07-09T12:00	1400	866	9.1	2.8	351	1	4.7
2025-07-09T12:00	1420	864	9.0	2.7	352	2	4.6
2025-07-09T12:00	1440	862	8.8	2.5	355	2	4.6
2025-07-09T12:00	1460	860	8.6	2.5	0	2	4.6
2025-07-09T12:00	1480	858	8.5	2.6	8	3	4.5
2025-07-09T12:00	1500	856	8.2	2.7	15	3	4.5
2025-07-09T12:00	1520	853	8.0	2.7	24	3	4.6
2025-07-09T12:00	1540	851	7.8	2.5	32	4	4.5
2025-07-09T12:00	1560	849	7.7	2.4	38	4	4.6
2025-07-09T12:00	1580	847	7.6	2.2	43	5	4.5
2025-07-09T12:00	1600	845	7.4	2.0	47	5	4.5
2025-07-09T12:00	1620	843	7.2	2.1	48	5	4.5
2025-07-09T12:00	1640	841	6.9	2.4	46	5	4.5
2025-07-09T12:00	1660	839	6.7	2.1	42	5	4.6
2025-07-09T12:00	1680	837	6.5	2.3	38	5	4.5
2025-07-09T12:00	1700	835	6.3	2.2	34	4	4.5
2025-07-09T12:00	1720	833	6.1	2.1	32	4	4.5
2025-07-09T12:00	1740	831	5.9	2.2	30	4	4.5
2025-07-09T12:00	1760	829	5.7	2.2	27	4	4.5
2025-07-09T12:00	1780	827	5.5	2.1	24	4	4.5
2025-07-09T12:00	1800	825	5.5	0.5	19	4	4.4
2025-07-09T12:00	1820	823	5.4	-0.1	16	4	4.4
2025-07-09T12:00	1840	821	5.2	-0.2	11	4	4.4
2025-07-09T12:00	1860	819	5.4	-2.9	8	4	4.4
2025-07-09T12:00	1880	817	5.3	-2.8	5	4	4.4
2025-07-09T12:00	1900	815	5.1	-3.1	5	4	4.5
2025-07-09T12:00	1920	813	5.0	-3.2	6	4	4.5
2025-07-09T12:00	1940	811	4.8	-3.3	7	5	4.4
2025-07-09T12:00	1960	809	4.7	-3.3	11	5	4.4
2025-07-09T12:00	1980	807	4.5	-3.4	17	4	4.5
2025-07-09T12:00	2000	805	4.3	-3.5	25	4	4.5
2025-07-09T12:00	2020	803	4.3	-3.7	33	4	4.4
2025-07-09T12:00	2040	801	4.2	-3.9	40	4	4.4
2025-07-09T12:00	2060	799	4.1	-4.2	46	5	4.4
2025-07-09T12:00	2080	797	3.9	-4.4	49	5	4.4
2025-07-09T12:00	2100	795	3.8	-4.5	51	5	4.4
2025-07-09T12:00	2120	793	3.6	-4.7	52	5	4.4
2025-07-09T12:00	2140	791	3.4	-4.7	54	5	4.3
2025-07-09T12:00	2160	789	3.3	-4.8	57	5	4.4
2025-07-09T12:00	2180	787	3.2	-5.2	61	5	4.4
2025-07-09T12:00	2200	785	3.0	-5.4	65	5	4.3
2025-07-09T12:00	2220	784	2.9	-5.4	69	5	4.3
2025-07-09T12:00	2240	781	2.7	-5.6	74	5	4.3
2025-07-09T12:00	2260	779	2.5	-5.6	81	4	4.3
2025-07-09T12:00	2280	778	2.3	-5.8	89	3	4.3
2025-07-09T12:00	2300	776	2.1	-6.0	99	2	4.2
2025-07-09T12:00	2320	774	1.9	-6.0	108	1	4.2
2025-07-09T12:00	2340	772	1.7	-5.7	90	1	4.2
2025-07-09T12:00	2360	770	1.6	-5.9	14	1	4.2
2025-07-09T12:00	2380	768	1.3	-5.3	4	2	4.2
2025-07-09T12:00	2400	766	1.1	-4.3	5	3	4.1
2025-07-09T12:00	2420	764	1.2	-2.9	7	4	4.0
2025-07-09T12:00	2440	762	2.1	-4.0	9	5	3.9
2025-07-09T12:00	2460	760	2.9	-5.3	10	5	3.9
2025-07-09T12:00	2480	759	3.1	-5.5	9	5	3.9
2025-07-09T12:00	2500	757	3.3	-5.7	4	4	3.8
2025-07-09T12:00	2520	755	3.2	-5.6	354	4	3.8
2025-07-09T12:00	2540	753	3.1	-5.7	339	3	3.7
2025-07-09T12:00	2560	751	3.6	-6.7	325	3	3.6
2025-07-09T12:00	2580	749	3.7	-8.0	316	3	3.5
2025-07-09T12:00	2600	747	3.6	-8.3	313	3	3.4
2025-07-09T12:00	2620	746	3.5	-7.9	312	3	3.4
2025-07-09T12:00	2640	744	3.5	-7.3	314	2	3.4
2025-07-09T12:00	2660	742	3.5	-7.6	318	2	3.3
2025-07-09T12:00	2680	740	3.4	-7.9	324	2	3.3
2025-07-09T12:00	2700	738	3.3	-8.0	329	3	3.3
2025-07-09T12:00	2720	736	3.2	-8.1	333	3	3.3
2025-07-09T12:00	2740	735	3.0	-8.2	338	4	3.3
2025-07-09T12:00	2760	733	2.9	-8.3	343	5	3.2
2025-07-09T12:00	2780	731	2.7	-8.3	347	6	3.2
2025-07-09T12:00	2800	729	2.5	-8.3	350	6	3.2
2025-07-09T12:00	2820	728	2.4	-8.7	353	7	3.1
2025-07-09T12:00	2840	726	2.3	-8.8	355	8	3.2
2025-07-09T12:00	2860	724	2.1	-8.8	355	9	3.2
2025-07-09T12:00	2880	722	2.0	-8.9	354	9	3.2
2025-07-09T12:00	2900	720	1.8	-8.9	352	9	3.2
2025-07-09T12:00	2920	718	1.6	-8.9	350	10	3.2
2025-07-09T12:00	2940	717	1.4	-9.1	348	10	3.2
2025-07-09T12:00	2960	715	1.3	-9.2	347	10	3.3
2025-07-09T12:00	2980	713	1.2	-9.7	347	10	3.3
2025-07-09T12:00	3000	711	1.0	-10.3	348	10	3.3
2025-07-09T12:00	3020	710	0.9	-10.3	350	10	3.3
2025-07-09T12:00	3040	708	0.8	-10.5	354	10	3.3
2025-07-09T12:00	3060	706	0.7	-11.1	357	10	3.3
2025-07-09T12:00	3080	704	0.7	-11.5	1	10	3.3
2025-07-09T12:00	3100	703	0.5	-11.8	7	9	3.3
2025-07-09T12:00	3120	701	0.4	-12.1	11	9	3.4
2025-07-09T12:00	3140	699	0.2	-12.3	15	8	3.4
2025-07-09T12:00	3160	697	0.1	-13.3	17	8	3.4
2025-07-09T12:00	3180	695	0.1	-14.4	19	8	3.4
2025-07-09T12:00	3200	694	0.1	-17.4	20	8	3.5
2025-07-09T12:00	3220	692	0.3	-23.3	20	8	3.6
2025-07-09T12:00	3240	690	0.3	-25.9	21	8	3.7
2025-07-09T12:00	3260	688	0.4	-30.2	20	7	3.9
2025-07-09T12:00	3280	687	0.4	-30.0	18	7	4.0
2025-07-09T12:00	3300	685	0.4	-31.0	16	7	4.1
2025-07-09T12:00	3320	684	0.2	-31.0	11	6	4.2
2025-07-09T12:00	3340	682	0.1	-34.0	5	6	4.3
2025-07-09T12:00	3360	680	0.1	-36.6	358	6	4.4
2025-07-09T12:00	3380	678	0.1	-36.9	352	6	4.4
2025-07-09T12:00	3400	677	0.0	-35.7	348	6	4.5
2025-07-09T12:00	3420	675	-0.1	-35.0	346	6	4.6
2025-07-09T12:00	3440	673	0.0	-35.1	344	7	4.7
2025-07-09T12:00	3460	672	-0.2	-35.4	343	7	4.8
2025-07-09T12:00	3480	670	-0.3	-35.9	342	7	5.0
2025-07-09T12:00	3500	668	-0.4	-37.2	341	7	5.1
2025-07-09T12:00	3520	666	-0.6	-37.6	340	8	5.1
2025-07-09T12:00	3540	665	-0.7	-37.5	340	8	5.1
2025-07-09T12:00	3560	663	-0.8	-37.6	340	8	5.2
2025-07-09T12:00	3580	662	-0.9	-37.7	340	8	5.2
2025-07-09T12:00	3600	660	-0.9	-38.3	340	9	5.3
2025-07-09T12:00	3620	658	-1.1	-39.5	340	9	5.3
2025-07-09T12:00	3640	657	-1.3	-40.4	340	9	5.2
2025-07-09T12:00	3660	655	-1.4	-40.4	340	9	5.2
2025-07-09T12:00	3680	653	-1.5	-41.0	341	10	5.1
2025-07-09T12:00	3700	652	-1.6	-41.5	342	10	5.0
2025-07-09T12:00	3720	650	-1.7	-41.8	343	10	4.9
2025-07-09T12:00	3740	648	-1.8	-42.0	345	11	4.8
2025-07-09T12:00	3760	647	-1.9	-42.3	345	11	4.7
2025-07-09T12:00	3780	645	-2.0	-42.8	345	11	4.5
2025-07-09T12:00	3800	643	-2.1	-42.9	345	12	4.5
2025-07-09T12:00	3820	642	-2.2	-42.4	345	12	4.4
2025-07-09T12:00	3840	640	-2.2	-41.3	344	12	4.3
2025-07-09T12:00	3860	639	-2.3	-40.1	344	12	4.2
2025-07-09T12:00	3880	637	-2.4	-40.0	343	12	4.1
2025-07-09T12:00	3900	636	-2.4	-39.7	343	12	4.2
2025-07-09T12:00	3920	634	-2.5	-37.7	341	11	4.2
2025-07-09T12:00	3940	632	-2.6	-38.0	340	11	4.1
2025-07-09T12:00	3960	631	-2.7	-38.9	338	11	4.2
2025-07-09T12:00	3980	629	-2.8	-37.9	335	11	4.3
2025-07-09T12:00	4000	628	-2.8	-38.7	334	11	4.4
2025-07-09T12:00	4020	626	-2.9	-39.2	333	11	4.4
2025-07-09T12:00	4040	624	-3.0	-38.7	333	10	4.5
2025-07-09T12:00	4060	623	-3.1	-30.8	333	11	4.5
2025-07-09T12:00	4080	621	-3.2	-26.0	334	11	4.5
2025-07-09T12:00	4100	620	-3.3	-26.6	335	11	4.5
2025-07-09T12:00	4120	618	-3.6	-30.6	335	11	4.5
2025-07-09T12:00	4140	616	-3.5	-27.8	335	11	4.4
2025-07-09T12:00	4160	615	-3.7	-28.1	335	10	4.5
2025-07-09T12:00	4180	613	-3.8	-28.0	335	10	4.5
2025-07-09T12:00	4200	612	-3.9	-28.5	335	11	4.5
2025-07-09T12:00	4220	610	-3.9	-29.2	335	11	4.5
2025-07-09T12:00	4240	609	-3.9	-30.7	335	11	4.5
2025-07-09T12:00	4260	607	-3.9	-31.9	337	12	4.4
2025-07-09T12:00	4280	606	-4.0	-32.6	338	12	4.4
2025-07-09T12:00	4300	604	-3.9	-33.0	340	12	4.4
2025-07-09T12:00	4320	603	-3.9	-32.5	341	12	4.4
2025-07-09T12:00	4340	601	-4.0	-30.7	342	12	4.3
2025-07-09T12:00	4360	600	-4.0	-30.6	341	11	4.1
2025-07-09T12:00	4380	598	-4.2	-31.1	339	11	3.9
2025-07-09T12:00	4400	596	-4.3	-31.3	337	10	3.7
2025-07-09T12:00	4420	595	-4.4	-31.7	336	10	3.6
2025-07-09T12:00	4440	594	-4.5	-31.9	336	9	3.5
2025-07-09T12:00	4460	592	-4.6	-32.0	337	9	3.4
2025-07-09T12:00	4480	591	-4.8	-32.0	340	10	3.4
2025-07-09T12:00	4500	589	-4.8	-32.2	342	10	3.4
2025-07-09T12:00	4520	588	-5.1	-32.8	344	10	3.3
2025-07-09T12:00	4540	586	-5.2	-35.3	344	10	3.3
2025-07-09T12:00	4560	584	-5.3	-34.9	346	10	3.4
2025-07-09T12:00	4580	583	-5.4	-35.1	347	9	3.5
2025-07-09T12:00	4600	581	-5.6	-34.7	348	9	3.6
2025-07-09T12:00	4620	580	-5.7	-34.6	349	9	3.6
2025-07-09T12:00	4640	578	-5.9	-34.5	349	9	3.6
2025-07-09T12:00	4660	577	-5.9	-34.1	349	9	3.7
2025-07-09T12:00	4680	576	-5.9	-35.3	348	9	3.9
2025-07-09T12:00	4700	574	-5.8	-36.9	347	10	4.1
2025-07-09T12:00	4720	573	-5.8	-39.9	345	10	4.3
2025-07-09T12:00	4740	571	-5.8	-38.4	344	11	5.0
2025-07-09T12:00	4760	570	-5.7	-35.5	343	11	5.5
2025-07-09T12:00	4780	568	-5.7	-33.8	342	12	5.6
2025-07-09T12:00	4800	567	-5.6	-32.1	341	12	5.5
2025-07-09T12:00	4820	565	-5.7	-31.0	340	13	5.2
2025-07-09T12:00	4840	564	-5.8	-30.5	340	13	4.9
2025-07-09T12:00	4860	562	-5.9	-29.5	339	14	4.6
2025-07-09T12:00	4880	561	-6.1	-29.4	338	14	4.3
2025-07-09T12:00	4900	560	-6.3	-29.3	338	14	4.1
2025-07-09T12:00	4920	558	-6.4	-29.4	338	14	3.9
2025-07-09T12:00	4940	557	-6.5	-29.4	337	13	3.8
2025-07-09T12:00	4960	555	-6.7	-28.9	337	13	3.7
2025-07-09T12:00	4980	554	-6.8	-28.0	338	12	3.6
2025-07-09T12:00	5000	552	-7.0	-27.7	339	11	3.5
2025-07-09T12:00	5020	551	-7.2	-27.1	340	11	3.4
2025-07-09T12:00	5040	550	-7.3	-26.6	342	10	3.3
2025-07-09T12:00	5060	548	-7.4	-26.5	345	10	3.2
2025-07-09T12:00	5080	547	-7.5	-25.7	346	10	3.2
2025-07-09T12:00	5100	546	-7.6	-25.1	346	10	3.1
2025-07-09T12:00	5120	544	-7.8	-25.4	345	10	3.0
2025-07-09T12:00	5140	543	-7.9	-25.8	343	11	3.0
2025-07-09T12:00	5160	541	-8.2	-25.6	340	11	2.9
2025-07-09T12:00	5180	540	-8.4	-25.0	337	12	2.9
2025-07-09T12:00	5200	539	-8.5	-24.3	335	12	2.9
2025-07-09T12:00	5220	537	-8.8	-23.4	333	13	2.9
2025-07-09T12:00	5240	536	-8.9	-23.0	331	13	2.9
2025-07-09T12:00	5260	534	-9.1	-22.8	330	13	2.9
2025-07-09T12:00	5280	533	-9.2	-22.6	330	13	2.9
2025-07-09T12:00	5300	532	-9.3	-22.5	330	13	2.9
2025-07-09T12:00	5320	530	-9.4	-22.2	331	13	2.8
2025-07-09T12:00	5340	529	-9.6	-22.2	333	13	2.8
2025-07-09T12:00	5360	527	-9.8	-22.2	334	14	2.7
2025-07-09T12:00	5380	526	-9.9	-22.4	336	14	2.7
2025-07-09T12:00	5400	525	-10.0	-22.5	337	14	2.6
2025-07-09T12:00	5420	523	-10.2	-22.6	338	15	2.7
2025-07-09T12:00	5440	522	-10.3	-23.1	339	15	2.7
2025-07-09T12:00	5460	521	-10.4	-25.0	339	16	2.8
2025-07-09T12:00	5480	519	-10.4	-24.1	340	16	2.9
2025-07-09T12:00	5500	518	-10.5	-21.8	340	16	3.0
2025-07-09T12:00	5520	517	-10.6	-19.9	341	16	3.1
2025-07-09T12:00	5540	515	-10.6	-19.5	340	16	3.2
2025-07-09T12:00	5560	514	-10.7	-19.2	339	16	3.2
2025-07-09T12:00	5580	513	-10.8	-18.6	338	15	3.2
2025-07-09T12:00	5600	511	-10.9	-18.5	337	15	3.1
2025-07-09T12:00	5620	510	-11.0	-18.5	335	15	3.1
2025-07-09T12:00	5640	509	-11.0	-18.5	334	15	3.0
2025-07-09T12:00	5660	507	-11.1	-18.6	334	15	2.9
2025-07-09T12:00	5680	506	-11.3	-18.9	333	15	2.9
2025-07-09T12:00	5700	505	-11.4	-19.1	333	15	2.8
2025-07-09T12:00	5720	503	-11.5	-19.6	333	15	2.8
2025-07-09T12:00	5740	502	-11.6	-20.1	333	15	2.8
2025-07-09T12:00	5760	501	-11.7	-20.5	334	15	2.8
2025-07-09T12:00	5780	500	-11.9	-20.8	335	15	2.7
2025-07-09T12:00	5800	498	-12.0	-21.1	335	15	2.7
2025-07-09T12:00	5820	497	-12.1	-21.3	335	15	2.8
2025-07-09T12:00	5840	495	-12.3	-21.4	334	15	2.8
2025-07-09T12:00	5860	494	-12.5	-21.6	334	15	2.8
2025-07-09T12:00	5880	493	-12.6	-21.6	333	15	2.8
2025-07-09T12:00	5900	492	-12.8	-21.8	332	15	2.8
2025-07-09T12:00	5920	490	-12.9	-21.9	331	15	2.8
2025-07-09T12:00	5940	489	-13.1	-21.8	330	16	2.8
2025-07-09T12:00	5960	488	-13.2	-21.9	329	16	2.8
2025-07-09T12:00	5980	487	-13.4	-21.9	328	16	2.8
2025-07-09T12:00	6000	485	-13.6	-21.8	328	16	2.8
2025-07-09T12:00	6020	484	-13.8	-21.7	327	16	2.8
2025-07-09T12:00	6040	482	-14.0	-21.6	327	16	2.8
2025-07-09T12:00	6060	481	-14.1	-21.6	327	16	2.7
2025-07-09T12:00	6080	480	-14.3	-21.6	327	16	2.7
2025-07-09T12:00	6100	479	-14.5	-21.4	326	16	2.6
2025-07-09T12:00	6120	478	-14.7	-21.5	326	16	2.5
2025-07-09T12:00	6140	476	-14.9	-21.7	326	16	2.5
2025-07-09T12:00	6160	475	-15.0	-22.3	325	15	2.5
2025-07-09T12:00	6180	474	-15.1	-22.5	325	15	2.5
2025-07-09T12:00	6200	473	-15.3	-22.6	324	15	2.4
2025-07-09T12:00	6220	471	-15.4	-22.7	324	15	2.4
2025-07-09T12:00	6240	470	-15.7	-23.0	323	15	2.4
2025-07-09T12:00	6260	469	-15.8	-23.5	324	16	2.5
2025-07-09T12:00	6280	468	-16.0	-23.4	324	16	2.6
2025-07-09T12:00	6300	466	-16.2	-23.5	324	16	2.6
2025-07-09T12:00	6320	465	-16.3	-23.6	324	15	2.6
2025-07-09T12:00	6340	464	-16.5	-23.7	325	15	2.7
2025-07-09T12:00	6360	463	-16.7	-23.7	325	15	2.7
2025-07-09T12:00	6380	461	-16.9	-23.6	325	15	2.7
2025-07-09T12:00	6400	460	-17.0	-23.7	325	15	2.7
2025-07-09T12:00	6420	459	-17.2	-23.6	325	15	2.7
2025-07-09T12:00	6440	458	-17.5	-23.5	325	15	2.7
2025-07-09T12:00	6460	456	-17.7	-23.5	324	15	2.7
2025-07-09T12:00	6480	455	-17.9	-23.7	324	15	2.6
2025-07-09T12:00	6500	454	-18.0	-23.8	323	15	2.6
2025-07-09T12:00	6520	453	-18.3	-23.5	322	15	2.6
2025-07-09T12:00	6540	452	-18.4	-23.6	322	16	2.6
2025-07-09T12:00	6560	450	-18.7	-23.6	322	16	2.6
2025-07-09T12:00	6580	449	-18.8	-23.8	322	16	2.6
2025-07-09T12:00	6600	448	-19.0	-23.7	322	16	2.6
2025-07-09T12:00	6620	447	-19.2	-23.8	323	16	2.5
2025-07-09T12:00	6640	446	-19.3	-24.1	323	16	2.4
2025-07-09T12:00	6660	444	-19.5	-24.2	324	16	2.4
2025-07-09T12:00	6680	443	-19.6	-24.9	323	15	2.4
2025-07-09T12:00	6700	442	-19.7	-25.3	322	15	2.4
2025-07-09T12:00	6720	441	-19.8	-26.0	321	15	2.5
2025-07-09T12:00	6740	440	-20.0	-26.7	320	15	2.5
2025-07-09T12:00	6760	438	-20.0	-27.9	318	15	2.6
2025-07-09T12:00	6780	437	-20.2	-28.4	317	15	2.8
2025-07-09T12:00	6800	436	-20.3	-30.6	316	15	2.9
2025-07-09T12:00	6820	435	-20.3	-33.5	316	15	3.0
2025-07-09T12:00	6840	434	-20.4	-34.3	315	15	3.2
2025-07-09T12:00	6860	433	-20.6	-34.1	315	15	3.5
2025-07-09T12:00	6880	431	-20.7	-33.7	315	15	3.6
2025-07-09T12:00	6900	430	-20.9	-33.7	315	16	3.7
2025-07-09T12:00	6920	429	-21.1	-33.6	315	16	3.8
2025-07-09T12:00	6940	428	-21.2	-33.7	315	16	3.9
2025-07-09T12:00	6960	427	-21.3	-34.2	316	16	3.9
2025-07-09T12:00	6980	426	-21.5	-34.5	317	16	4.0
2025-07-09T12:00	7000	424	-21.6	-35.2	318	16	4.1
2025-07-09T12:00	7020	423	-21.8	-35.9	318	16	4.1
2025-07-09T12:00	7040	422	-21.9	-36.3	318	16	4.0
2025-07-09T12:00	7060	421	-22.1	-36.9	317	16	4.0
2025-07-09T12:00	7080	420	-22.3	-37.1	317	17	4.0
2025-07-09T12:00	7100	419	-22.4	-36.9	316	17	3.9
2025-07-09T12:00	7120	417	-22.5	-36.7	316	17	3.9
2025-07-09T12:00	7140	416	-22.7	-36.3	316	18	3.8
2025-07-09T12:00	7160	415	-22.9	-34.4	316	18	3.7
2025-07-09T12:00	7180	414	-23.1	-33.8	316	18	3.7
2025-07-09T12:00	7200	413	-23.2	-33.7	316	18	3.6
2025-07-09T12:00	7220	412	-23.4	-33.8	316	18	3.5
2025-07-09T12:00	7240	411	-23.6	-35.0	316	18	3.5
2025-07-09T12:00	7260	410	-23.7	-36.0	317	18	3.5
2025-07-09T12:00	7280	409	-23.8	-36.1	319	18	3.5
2025-07-09T12:00	7300	407	-23.9	-36.3	321	18	3.5
2025-07-09T12:00	7320	406	-24.0	-36.8	322	19	3.5
2025-07-09T12:00	7340	405	-24.1	-38.1	324	19	3.5
2025-07-09T12:00	7360	404	-24.2	-39.7	325	19	3.6
2025-07-09T12:00	7380	403	-24.3	-40.9	325	19	3.7
2025-07-09T12:00	7400	402	-24.5	-41.5	325	19	3.8
2025-07-09T12:00	7420	401	-24.6	-36.6	324	19	3.9
2025-07-09T12:00	7440	400	-24.7	-33.0	323	19	3.8
2025-07-09T12:00	7460	399	-24.9	-33.3	322	19	3.6
2025-07-09T12:00	7480	397	-25.1	-33.6	321	19	3.4
2025-07-09T12:00	7500	396	-25.3	-34.8	321	20	3.2
2025-07-09T12:00	7520	395	-25.4	-35.2	321	20	3.1
2025-07-09T12:00	7540	394	-25.5	-37.1	322	20	3.1
2025-07-09T12:00	7560	393	-25.7	-35.1	322	21	3.0
2025-07-09T12:00	7580	392	-25.9	-34.3	322	21	3.1
2025-07-09T12:00	7600	391	-26.1	-34.7	322	21	3.0
2025-07-09T12:00	7620	390	-26.3	-34.9	322	21	2.9
2025-07-09T12:00	7640	389	-26.5	-34.8	322	21	2.9
2025-07-09T12:00	7660	388	-26.6	-35.0	321	21	2.8
2025-07-09T12:00	7680	387	-26.8	-35.5	320	21	2.8
2025-07-09T12:00	7700	386	-26.9	-35.6	319	20	2.8
2025-07-09T12:00	7720	385	-27.1	-35.3	318	21	2.7
2025-07-09T12:00	7740	383	-27.3	-35.5	318	21	2.7
2025-07-09T12:00	7760	382	-27.4	-35.7	318	21	2.7
2025-07-09T12:00	7780	381	-27.7	-35.5	318	21	2.7
2025-07-09T12:00	7800	380	-27.8	-35.5	317	21	2.7
2025-07-09T12:00	7820	379	-28.1	-35.5	317	21	2.6
2025-07-09T12:00	7840	378	-28.2	-35.7	316	20	2.6
2025-07-09T12:00	7860	377	-28.2	-35.8	315	20	2.6
2025-07-09T12:00	7880	376	-28.4	-38.1	314	20	2.6
2025-07-09T12:00	7900	375	-28.6	-40.9	314	20	2.7
2025-07-09T12:00	7920	374	-28.8	-43.5	314	19	2.8
2025-07-09T12:00	7940	373	-28.9	-44.1	314	19	2.9
2025-07-09T12:00	7960	372	-29.1	-43.9	314	19	3.1
2025-07-09T12:00	7980	371	-29.3	-43.7	314	19	3.2
2025-07-09T12:00	8000	370	-29.4	-44.0	314	20	3.3
2025-07-09T12:00	8020	369	-29.6	-44.4	315	20	3.3
2025-07-09T12:00	8040	368	-29.8	-44.4	315	20	3.3
2025-07-09T12:00	8060	367	-29.9	-44.6	315	20	3.4
2025-07-09T12:00	8080	366	-30.1	-44.7	314	20	3.4
2025-07-09T12:00	8100	365	-30.3	-45.1	314	20	3.4
2025-07-09T12:00	8120	364	-30.4	-45.0	314	20	3.4
2025-07-09T12:00	8140	363	-30.6	-42.9	314	20	3.4
2025-07-09T12:00	8160	362	-30.8	-42.9	314	21	3.4
2025-07-09T12:00	8180	360	-31.0	-40.4	314	21	3.4
2025-07-09T12:00	8200	360	-31.1	-39.5	315	21	3.3
2025-07-09T12:00	8220	358	-31.3	-40.0	315	21	3.3
2025-07-09T12:00	8240	357	-31.5	-40.3	315	21	3.2
2025-07-09T12:00	8260	356	-31.6	-40.1	315	21	3.1
2025-07-09T12:00	8280	355	-31.7	-41.0	315	21	3.1
2025-07-09T12:00	8300	355	-31.9	-41.0	315	21	3.1
2025-07-09T12:00	8320	353	-32.1	-41.3	315	21	3.1
2025-07-09T12:00	8340	352	-32.3	-41.6	316	21	3.1
2025-07-09T12:00	8360	351	-32.5	-42.0	316	21	3.0
2025-07-09T12:00	8380	350	-32.6	-42.1	316	21	3.0
2025-07-09T12:00	8400	349	-32.8	-42.4	317	21	3.0
2025-07-09T12:00	8420	348	-33.0	-42.4	317	21	3.0
2025-07-09T12:00	8440	348	-33.1	-42.6	317	20	3.0
2025-07-09T12:00	8460	347	-33.3	-42.5	316	20	3.0
2025-07-09T12:00	8480	346	-33.4	-43.2	316	20	3.1
2025-07-09T12:00	8500	344	-33.5	-43.8	316	20	3.1
2025-07-09T12:00	8520	344	-33.7	-43.9	316	20	3.1
2025-07-09T12:00	8540	343	-33.8	-43.9	315	20	3.1
2025-07-09T12:00	8560	342	-33.9	-43.8	315	20	3.1
2025-07-09T12:00	8580	341	-34.1	-43.8	315	20	3.1
2025-07-09T12:00	8600	340	-34.3	-43.7	315	20	3.1
2025-07-09T12:00	8620	339	-34.4	-44.2	316	20	3.2
2025-07-09T12:00	8640	338	-34.6	-44.6	316	21	3.2
2025-07-09T12:00	8660	337	-34.8	-44.5	317	21	3.2
2025-07-09T12:00	8680	336	-34.9	-44.6	317	21	3.2
2025-07-09T12:00	8700	335	-35.1	-45.0	317	21	3.2
2025-07-09T12:00	8720	334	-35.3	-44.9	317	21	3.3
2025-07-09T12:00	8740	333	-35.6	-45.0	316	21	3.3
2025-07-09T12:00	8760	332	-35.7	-45.2	316	21	3.3
2025-07-09T12:00	8780	331	-35.9	-45.1	316	21	3.4
2025-07-09T12:00	8800	330	-36.0	-45.1	317	21	3.4
2025-07-09T12:00	8820	329	-36.2	-45.0	317	21	3.4
2025-07-09T12:00	8840	328	-36.4	-44.9	317	21	3.4
2025-07-09T12:00	8860	327	-36.6	-45.0	317	21	3.4
2025-07-09T12:00	8880	326	-36.7	-45.3	317	21	3.4
2025-07-09T12:00	8900	325	-37.0	-45.1	317	21	3.5
2025-07-09T12:00	8920	324	-37.1	-45.3	317	21	3.5
2025-07-09T12:00	8940	323	-37.4	-45.3	317	21	3.5
2025-07-09T12:00	8960	323	-37.5	-45.1	317	21	3.5
2025-07-09T12:00	8980	322	-37.7	-45.3	317	21	3.4
2025-07-09T12:00	9000	321	-37.8	-45.6	317	21	3.2
2025-07-09T12:00	9020	320	-38.0	-45.6	317	21	3.2
2025-07-09T12:00	9040	319	-38.2	-45.5	317	21	3.1
2025-07-09T12:00	9060	318	-38.4	-45.5	317	21	3.0
2025-07-09T12:00	9080	317	-38.6	-45.4	317	21	3.0
2025-07-09T12:00	9100	316	-38.7	-45.6	316	21	2.9
2025-07-09T12:00	9120	315	-38.9	-45.8	316	21	2.9
2025-07-09T12:00	9140	314	-39.1	-45.9	316	21	2.9
2025-07-09T12:00	9160	313	-39.3	-46.1	316	21	2.8
2025-07-09T12:00	9180	312	-39.4	-46.1	316	21	2.8
2025-07-09T12:00	9200	311	-39.5	-46.7	316	21	2.8
2025-07-09T12:00	9220	310	-39.8	-46.8	317	20	2.8
2025-07-09T12:00	9240	310	-39.9	-47.3	318	20	2.8
2025-07-09T12:00	9260	309	-40.0	-48.5	319	20	2.8
2025-07-09T12:00	9280	308	-40.0	-49.5	319	20	2.8
2025-07-09T12:00	9300	307	-40.2	-49.1	319	20	2.8
2025-07-09T12:00	9320	306	-40.3	-49.7	318	20	2.8
2025-07-09T12:00	9340	305	-40.5	-50.1	318	20	2.9
2025-07-09T12:00	9360	304	-40.7	-49.7	318	20	2.9
2025-07-09T12:00	9380	303	-40.8	-49.6	318	20	2.9
2025-07-09T12:00	9400	302	-41.0	-49.5	318	20	2.9
2025-07-09T12:00	9420	301	-41.1	-49.9	318	20	2.9
2025-07-09T12:00	9440	301	-41.2	-51.0	318	21	2.9
2025-07-09T12:00	9460	300	-41.4	-51.0	319	21	2.9
2025-07-09T12:00	9480	299	-41.6	-50.7	319	21	3.0
2025-07-09T12:00	9500	298	-41.7	-50.8	319	21	3.0
2025-07-09T12:00	9520	297	-41.8	-50.9	320	21	3.0
2025-07-09T12:00	9540	296	-41.9	-51.2	320	21	3.0
2025-07-09T12:00	9560	295	-42.1	-51.4	320	21	3.0
2025-07-09T12:00	9580	295	-42.2	-51.6	319	21	3.0
2025-07-09T12:00	9600	294	-42.4	-52.0	319	21	2.9
2025-07-09T12:00	9620	293	-42.5	-52.4	318	20	3.0
2025-07-09T12:00	9640	292	-42.6	-52.6	318	20	3.0
2025-07-09T12:00	9660	291	-42.7	-52.8	318	20	2.9
2025-07-09T12:00	9680	290	-42.8	-54.2	318	20	2.9
2025-07-09T12:00	9700	289	-43.0	-54.9	318	20	2.9
2025-07-09T12:00	9720	289	-43.1	-55.1	318	20	2.9
2025-07-09T12:00	9740	288	-43.2	-55.4	318	20	2.9
2025-07-09T12:00	9760	287	-43.4	-55.8	317	20	3.0
2025-07-09T12:00	9780	286	-43.5	-56.7	317	20	3.0
2025-07-09T12:00	9800	285	-43.7	-57.5	316	20	3.1
2025-07-09T12:00	9820	284	-43.8	-57.1	316	21	3.1
2025-07-09T12:00	9840	283	-44.0	-56.8	315	21	3.1
2025-07-09T12:00	9860	283	-44.1	-56.2	314	21	3.0
2025-07-09T12:00	9880	282	-44.3	-56.4	314	21	3.0
2025-07-09T12:00	9900	281	-44.5	-56.0	314	21	2.9
2025-07-09T12:00	9920	280	-44.6	-56.2	314	21	2.8
2025-07-09T12:00	9940	279	-44.7	-56.7	314	20	2.7
2025-07-09T12:00	9960	278	-44.8	-56.7	314	20	2.6
2025-07-09T12:00	9980	277	-45.1	-56.1	314	20	2.6
2025-07-09T12:00	10000	277	-45.3	-55.9	314	20	2.5
2025-07-09T12:00	10018	276	-45.4	-56.0	314	20	2.4
2025-07-09T12:00	10050	275	-45.7	-56.3	313	20	2.3
2025-07-09T12:00	10100	273	-46.0	-56.8	313	20	2.2
2025-07-09T12:00	10150	270	-46.3	-58.7	313	20	2.4
2025-07-09T12:00	10200	268	-46.8	-59.4	314	20	2.8
2025-07-09T12:00	10250	266	-47.1	-59.0	313	21	2.7
2025-07-09T12:00	10300	264	-47.5	-58.8	313	21	2.7
2025-07-09T12:00	10350	263	-47.8	-56.9	313	21	3.0
2025-07-09T12:00	10400	260	-48.2	-58.0	315	21	3.2
2025-07-09T12:00	10450	258	-48.3	-60.2	315	21	3.5
2025-07-09T12:00	10500	257	-48.5	-59.9	313	22	3.8
2025-07-09T12:00	10550	255	-48.9	-60.0	311	23	4.1
2025-07-09T12:00	10600	253	-49.3	-60.0	310	23	4.2
2025-07-09T12:00	10650	251	-49.6	-59.7	310	24	4.3
2025-07-09T12:00	10700	249	-49.9	-58.4	311	24	4.3
2025-07-09T12:00	10750	247	-50.4	-57.7	311	24	4.1
2025-07-09T12:00	10800	245	-50.7	-57.8	309	24	3.8
2025-07-09T12:00	10850	243	-50.7	-59.5	308	25	3.5
2025-07-09T12:00	10900	241	-50.8	-61.0	306	25	3.4
2025-07-09T12:00	10950	239	-50.6	-62.8	307	25	3.5
2025-07-09T12:00	11000	238	-50.4	-64.1	308	24	3.8
2025-07-09T12:00	11050	236	-50.5	-64.4	308	24	4.3
2025-07-09T12:00	11100	234	-50.5	-64.9	306	24	4.7
2025-07-09T12:00	11150	232	-50.4	-65.2	306	26	5.1
2025-07-09T12:00	11200	230	-50.5	-65.6	305	27	5.4
2025-07-09T12:00	11250	229	-50.5	-65.9	305	28	5.6
2025-07-09T12:00	11300	227	-50.8	-65.8	304	29	5.9
2025-07-09T12:00	11350	225	-50.8	-66.2	305	29	6.1
2025-07-09T12:00	11400	224	-50.8	-66.7	306	29	6.2
2025-07-09T12:00	11450	222	-50.7	-67.4	308	29	6.0
2025-07-09T12:00	11500	220	-50.8	-67.7	309	28	5.7
2025-07-09T12:00	11550	218	-50.9	-68.2	310	28	5.4
2025-07-09T12:00	11600	217	-50.8	-69.6	308	27	5.1
2025-07-09T12:00	11650	215	-50.4	-72.6	306	27	5.2
2025-07-09T12:00	11700	213	-49.9	-74.5	304	28	5.8
2025-07-09T12:00	11750	212	-49.7	-74.6	302	29	6.3
2025-07-09T12:00	11800	210	-49.7	-74.1	301	30	6.6
2025-07-09T12:00	11850	209	-49.4	-73.8	300	30	6.4
2025-07-09T12:00	11900	207	-49.1	-74.2	301	31	6.0
2025-07-09T12:00	11950	205	-49.2	-74.1	302	31	5.7
2025-07-09T12:00	12000	204	-49.1	-74.4	303	30	5.4
2025-07-09T12:00	12050	202	-48.9	-74.8	303	30	5.2
2025-07-09T12:00	12100	201	-48.8	-75.4	302	29	5.2
2025-07-09T12:00	12150	199	-49.0	-75.7	301	29	5.4
2025-07-09T12:00	12200	198	-49.0	-75.8	301	30	5.6
2025-07-09T12:00	12250	196	-49.1	-76.1	301	30	5.6
2025-07-09T12:00	12300	195	-49.3	-76.1	302	31	5.7
2025-07-09T12:00	12350	193	-49.2	-76.5	302	31	5.7
2025-07-09T12:00	12400	192	-48.9	-77.0	303	30	5.7
2025-07-09T12:00	12450	190	-48.8	-77.5	303	29	6.0
2025-07-09T12:00	12500	189	-48.9	-77.8	303	28	6.5
2025-07-09T12:00	12550	187	-49.1	-78.0	303	27	6.8
2025-07-09T12:00	12600	186	-49.2	-78.1	302	26	7.0
2025-07-09T12:00	12650	185	-49.6	-78.2	300	25	7.0
2025-07-09T12:00	12700	183	-50.0	-78.4	298	25	7.1
2025-07-09T12:00	12750	182	-50.1	-78.6	297	26	7.1
2025-07-09T12:00	12800	180	-50.1	-78.7	297	27	7.1
2025-07-09T12:00	12850	179	-50.2	-78.5	297	27	7.0
2025-07-09T12:00	12900	178	-50.5	-78.8	297	28	7.0
2025-07-09T12:00	12950	176	-50.8	-79.1	298	29	6.9
2025-07-09T12:00	13000	175	-51.0	-79.3	299	29	7.0
2025-07-09T12:00	13050	174	-51.1	-79.3	300	28	7.0
2025-07-09T12:00	13100	172	-51.2	-78.6	300	28	6.8
2025-07-09T12:00	13150	171	-51.3	-78.3	299	28	6.3
2025-07-09T12:00	13200	170	-51.2	-78.7	299	28	5.9
2025-07-09T12:00	13250	168	-51.0	-79.3	300	27	5.9
2025-07-09T12:00	13300	167	-50.9	-79.4	303	26	5.9
2025-07-09T12:00	13350	166	-50.9	-79.4	305	25	5.8
2025-07-09T12:00	13400	165	-51.1	-79.6	307	24	5.7
2025-07-09T12:00	13450	163	-51.2	-79.7	307	23	5.6
2025-07-09T12:00	13500	162	-51.5	-79.8	307	22	5.5
2025-07-09T12:00	13550	161	-51.5	-80.0	307	22	5.2
2025-07-09T12:00	13600	160	-51.5	-79.9	308	22	4.9
2025-07-09T12:00	13650	158	-51.6	-80.0	308	22	4.3
2025-07-09T12:00	13700	157	-52.0	-80.1	307	22	3.7
2025-07-09T12:00	13750	156	-52.3	-80.2	305	23	3.3
2025-07-09T12:00	13800	155	-52.5	-80.3	303	24	3.0
2025-07-09T12:00	13850	153	-52.3	-80.6	302	25	2.8
2025-07-09T12:00	13900	152	-52.3	-80.7	302	25	2.8
2025-07-09T12:00	13950	151	-52.6	-80.8	302	25	2.8
2025-07-09T12:00	14000	150	-52.9	-80.8	304	26	2.8
2025-07-09T12:00	14050	149	-53.2	-80.9	306	25	2.8
2025-07-09T12:00	14100	148	-53.3	-81.0	309	25	2.8
2025-07-09T12:00	14150	147	-53.5	-81.2	311	24	3.1
2025-07-09T12:00	14200	145	-53.6	-81.5	313	23	3.6
2025-07-09T12:00	14250	144	-53.9	-81.6	313	22	3.9
2025-07-09T12:00	14300	143	-54.3	-81.6	312	22	3.9
2025-07-09T12:00	14350	142	-54.7	-81.8	310	21	3.7
2025-07-09T12:00	14400	141	-55.1	-82.0	308	20	3.6
2025-07-09T12:00	14450	140	-55.3	-82.4	307	19	3.4
2025-07-09T12:00	14500	139	-55.5	-82.6	307	18	3.2
2025-07-09T12:00	14550	138	-55.9	-82.9	308	16	3.1
2025-07-09T12:00	14600	137	-56.2	-83.0	306	16	3.0
2025-07-09T12:00	14650	135	-56.2	-83.2	303	15	2.9
2025-07-09T12:00	14700	134	-56.3	-83.1	300	16	2.9
2025-07-09T12:00	14750	133	-56.4	-83.1	299	17	2.9
2025-07-09T12:00	14800	132	-56.7	-83.1	299	18	2.9
2025-07-09T12:00	14850	131	-56.8	-83.1	299	18	3.0
2025-07-09T12:00	14900	130	-56.8	-83.1	300	19	3.1
2025-07-09T12:00	14950	129	-56.7	-83.2	302	20	3.2
2025-07-09T12:00	15000	128	-56.7	-83.4	303	21	3.3
2025-07-09T12:00	15050	127	-56.7	-83.6	301	21	3.5
2025-07-09T12:00	15100	126	-56.3	-83.7	300	22	3.8
2025-07-09T12:00	15150	125	-56.3	-83.9	300	22	4.2
2025-07-09T12:00	15200	124	-56.2	-83.9	302	22	4.5
2025-07-09T12:00	15250	123	-56.2	-83.9	304	21	4.6
2025-07-09T12:00	15300	122	-56.4	-83.9	307	20	4.6
2025-07-09T12:00	15350	121	-56.5	-83.9	307	18	4.6
2025-07-09T12:00	15400	120	-56.4	-83.7	305	17	4.5
2025-07-09T12:00	15450	119	-56.8	-83.7	302	17	4.5
2025-07-09T12:00	15500	119	-56.9	-83.8	299	16	4.4
2025-07-09T12:00	15550	118	-57.1	-84.0	297	16	4.4
2025-07-09T12:00	15600	117	-57.1	-84.3	295	15	4.8
2025-07-09T12:00	15650	116	-57.1	-84.5	294	15	5.4
2025-07-09T12:00	15700	115	-56.8	-84.4	292	15	5.6
2025-07-09T12:00	15750	114	-56.5	-84.4	291	16	5.9
2025-07-09T12:00	15800	113	-56.2	-84.4	293	16	6.1
2025-07-09T12:00	15850	112	-56.1	-84.5	297	16	6.4
2025-07-09T12:00	15900	111	-56.0	-84.4	302	15	6.8
2025-07-09T12:00	15950	110	-56.1	-84.5	307	14	7.1
2025-07-09T12:00	16000	110	-56.3	-84.6	309	13	7.3
2025-07-09T12:00	16050	109	-56.0	-84.5	309	13	7.3
2025-07-09T12:00	16100	108	-56.2	-84.5	308	12	7.3
2025-07-09T12:00	16150	107	-56.4	-84.5	310	12	7.3
2025-07-09T12:00	16200	106	-56.5	-84.6	315	12	7.2
2025-07-09T12:00	16250	105	-56.7	-84.7	319	12	7.1
2025-07-09T12:00	16300	104	-56.7	-84.7	319	11	7.1
2025-07-09T12:00	16350	104	-56.9	-84.8	316	10	7.1
2025-07-09T12:00	16400	103	-56.8	-84.8	312	10	7.2
2025-07-09T12:00	16450	102	-56.8	-84.8	310	10	7.2
2025-07-09T12:00	16500	101	-56.9	-85.0	308	11	7.3
2025-07-09T12:00	16550	100	-56.6	-85.0	306	12	7.4
2025-07-09T12:00	16600	100	-56.5	-85.0	304	11	7.5
2025-07-09T12:00	16650	99	-56.2	-84.9	305	10	7.5
2025-07-09T12:00	16700	98	-56.1	-84.9	305	9	7.5
2025-07-09T12:00	16750	97	-56.3	-84.9	302	8	7.8
2025-07-09T12:00	16800	97	-56.3	-84.9	301	8	8.0
2025-07-09T12:00	16850	96	-56.5	-85.0	302	7	8.0
2025-07-09T12:00	16900	95	-56.6	-85.0	305	6	8.1
2025-07-09T12:00	16950	94	-56.4	-85.1	307	6	8.2
2025-07-09T12:00	17000	94	-56.1	-85.0	300	5	8.3
2025-07-09T12:00	17050	93	-56.2	-85.0	287	6	8.3
2025-07-09T12:00	17100	92	-56.4	-85.0	279	6	8.3
2025-07-09T12:00	17150	91	-56.5	-84.9	278	7	8.4
2025-07-09T12:00	17200	91	-56.7	-85.0	283	7	8.5
2025-07-09T12:00	17250	90	-57.0	-85.1	293	7	8.5
2025-07-09T12:00	17300	89	-57.2	-85.3	301	7	8.5
2025-07-09T12:00	17350	89	-56.9	-85.4	305	6	8.5
2025-07-09T12:00	17400	88	-56.4	-85.3	302	5	8.5
2025-07-09T12:00	17450	87	-56.0	-85.3	295	5	8.5
2025-07-09T12:00	17500	86	-56.0	-85.2	298	5	8.6
2025-07-09T12:00	17550	86	-55.8	-85.2	308	5	8.7
2025-07-09T12:00	17600	85	-55.6	-85.1	313	4	8.8
2025-07-09T12:00	17650	84	-55.6	-85.0	304	3	9.0
2025-07-09T12:00	17700	84	-55.8	-85.0	287	4	9.1
2025-07-09T12:00	17750	83	-56.0	-85.0	280	5	9.1
2025-07-09T12:00	17800	82	-56.2	-85.2	281	6	9.2
2025-07-09T12:00	17850	82	-56.0	-85.2	288	6	9.2
2025-07-09T12:00	17900	81	-55.7	-85.2	297	5	9.1
2025-07-09T12:00	17950	81	-55.5	-85.2	305	5	9.0
2025-07-09T12:00	18000	80	-55.3	-85.2	306	4	9.0
2025-07-09T12:00	18050	79	-55.3	-85.2	297	3	8.9
2025-07-09T12:00	18100	79	-55.0	-85.1	285	2	8.9
2025-07-09T12:00	18150	78	-54.8	-85.0	278	2	9.1
2025-07-09T12:00	18200	77	-54.6	-84.8	263	2	9.4
2025-07-09T12:00	18250	77	-54.9	-84.9	243	3	9.6
2025-07-09T12:00	18300	76	-55.1	-84.8	238	4	9.8
2025-07-09T12:00	18350	76	-55.4	-84.8	242	4	9.9
2025-07-09T12:00	18400	75	-55.6	-85.1	251	4	10.0
2025-07-09T12:00	18450	74	-55.3	-85.0	263	4	10.1
2025-07-09T12:00	18500	74	-55.4	-85.1	278	4	10.1
2025-07-09T12:00	18550	73	-55.3	-85.1	293	5	10.2
2025-07-09T12:00	18600	73	-55.3	-85.2	304	6	10.3
2025-07-09T12:00	18650	72	-54.9	-85.3	317	5	10.1
2025-07-09T12:00	18700	72	-54.3	-85.0	339	4	10.1
2025-07-09T12:00	18750	71	-54.1	-84.9	5	3	10.2
2025-07-09T12:00	18800	71	-54.1	-84.8	31	3	9.9
2025-07-09T12:00	18850	70	-54.3	-84.7	51	2	10.0
2025-07-09T12:00	18900	69	-54.7	-84.7	76	2	10.0
2025-07-09T12:00	18950	69	-55.0	-84.8	108	1	9.7
2025-07-09T12:00	19000	68	-55.1	-84.8	144	1	9.8
2025-07-09T12:00	19050	68	-55.4	-84.9	176	1	9.6
2025-07-09T12:00	19100	67	-55.6	-84.9	204	1	9.3
2025-07-09T12:00	19150	67	-55.8	-85.1	317	1	9.1
2025-07-09T12:00	19200	66	-55.6	-85.3	331	2	9.1
2025-07-09T12:00	19250	66	-55.2	-85.3	328	2	9.0
2025-07-09T12:00	19300	65	-54.7	-85.2	324	3	9.2
2025-07-09T12:00	19350	65	-54.8	-85.2	325	3	9.6
2025-07-09T12:00	19400	64	-55.0	-85.2	336	3	9.4
2025-07-09T12:00	19450	64	-55.1	-85.2	1	3	9.4
2025-07-09T12:00	19500	63	-55.0	-85.1	37	3	9.4
2025-07-09T12:00	19550	63	-55.1	-85.1	62	3	9.5
2025-07-09T12:00	19600	62	-55.4	-85.2	82	4	9.7
2025-07-09T12:00	19650	62	-55.7	-85.2	97	5	9.8
2025-07-09T12:00	19700	61	-56.0	-85.4	108	5	9.7
2025-07-09T12:00	19750	61	-56.2	-85.6	116	6	9.5
2025-07-09T12:00	19800	60	-55.7	-85.5	124	5	9.7
2025-07-09T12:00	19850	60	-55.6	-85.7	138	4	9.6
2025-07-09T12:00	19900	59	-55.3	-85.7	163	3	9.6
2025-07-09T12:00	19950	59	-54.8	-85.7	185	2	9.8
2025-07-09T12:00	20000	58	-53.8	-85.4	205	1	9.9
2025-07-09T12:00	20050	58	-53.6		280	1	10.2
2025-07-09T12:00	20100	57	-53.7		326	2	10.2
2025-07-09T12:00	20150	57	-53.9		341	2	10.3
2025-07-09T12:00	20200	57	-54.3		349	3	10.5
2025-07-09T12:00	20250	56	-54.5		354	4	10.6
2025-07-09T12:00	20300	56	-54.7		360	5	10.4
2025-07-09T12:00	20350	55	-54.8		9	6	10.6
2025-07-09T12:00	20400	55	-54.6		20	6	10.7
2025-07-09T12:00	20450	54	-54.7		37	5	10.6
2025-07-09T12:00	20500	54	-54.8		56	5	10.7
2025-07-09T12:00	20550	54	-55.0		71	5	10.8
2025-07-09T12:00	20600	53	-54.6		77	4	10.9
2025-07-09T12:00	20650	53	-53.8		74	3	11.0
2025-07-09T12:00	20700	52	-52.9		68	4	11.2
2025-07-09T12:00	20750	52	-52.7		68	4	11.7
2025-07-09T12:00	20800	52	-52.4		73	5	12.1
2025-07-09T12:00	20850	51	-52.4		82	5	12.4
2025-07-09T12:00	20900	51	-52.6		90	6	12.5
2025-07-09T12:00	20950	50	-52.7		96	7	12.7
2025-07-09T12:00	21000	50	-52.8		102	8	12.8
2025-07-09T12:00	21050	50	-52.7		106	9	12.9
2025-07-09T12:00	21100	49	-53.0		110	9	13.0
2025-07-09T12:00	21150	49	-52.8		113	9	13.1
2025-07-09T12:00	21200	48	-52.4		116	9	13.3
2025-07-09T12:00	21250	48	-52.3		119	9	13.4
2025-07-09T12:00	21300	48	-52.2		119	9	13.3
2025-07-09T12:00	21350	47	-52.0		120	9	13.6
2025-07-09T12:00	21400	47	-52.0		123	9	13.8
2025-07-09T12:00	21450	47	-51.9		129	9	13.6
2025-07-09T12:00	21500	46	-52.0		135	9	13.6
2025-07-09T12:00	21550	46	-52.2		144	8	13.7
2025-07-09T12:00	21600	46	-52.1		154	7	13.8
2025-07-09T12:00	21650	45	-52.2		160	6	13.7
2025-07-09T12:00	21700	45	-52.3		158	5	13.6
2025-07-09T12:00	21750	45	-52.1		140	3	13.6
2025-07-09T12:00	21800	44	-51.8		117	2	13.7
2025-07-09T12:00	21850	44	-51.7		98	1	13.8
2025-07-09T12:00	21900	43	-51.6		85	1	13.8
2025-07-09T12:00	21950	43	-51.6		78	2	14.0
2025-07-09T12:00	22000	43	-51.4		80	3	14.1
2025-07-09T12:00	22050	42	-51.3		87	5	14.0
2025-07-09T12:00	22100	42	-51.3		95	6	14.1
2025-07-09T12:00	22150	42	-51.2		102	8	14.0
2025-07-09T12:00	22200	42	-51.0		108	8	14.0
2025-07-09T12:00	22250	41	-51.0		111	7	14.2
2025-07-09T12:00	22300	41	-50.8		112	7	14.1
2025-07-09T12:00	22350	41	-50.4		109	7	14.0
2025-07-09T12:00	22400	40	-50.7		102	7	14.1
2025-07-09T12:00	22450	40	-50.8		93	7	14.2
2025-07-09T12:00	22500	40	-51.0		83	8	14.0
2025-07-09T12:00	22550	39	-51.0		74	8	14.2
2025-07-09T12:00	22600	39	-51.2		67	9	14.2
2025-07-09T12:00	22650	39	-51.2		64	10	14.0
2025-07-09T12:00	22700	38	-50.7		67	11	14.1
2025-07-09T12:00	22750	38	-50.4		73	11	14.1
2025-07-09T12:00	22800	38	-50.7		79	12	14.1
2025-07-09T12:00	22850	38	-51.0		85	12	14.0
2025-07-09T12:00	22900	37	-51.0		91	12	13.9
2025-07-09T12:00	22950	37	-51.0		97	12	14.0
2025-07-09T12:00	23000	37	-51.0		103	12	14.0
2025-07-09T12:00	23050	36	-51.3		108	12	13.9
2025-07-09T12:00	23100	36	-51.6		113	12	13.9
2025-07-09T12:00	23150	36	-51.8		118	11	13.7
2025-07-09T12:00	23200	36	-51.8		124	11	13.7
2025-07-09T12:00	23250	35	-51.9		129	10	13.7
2025-07-09T12:00	23300	35	-52.2		135	9	13.8
2025-07-09T12:00	23350	35	-51.9		141	8	13.6
2025-07-09T12:00	23400	35	-51.9		145	7	13.7
2025-07-09T12:00	23450	34	-51.6		147	6	13.4
2025-07-09T12:00	23500	34	-51.3		147	4	13.3
2025-07-09T12:00	23550	34	-51.2		148	3	13.3
2025-07-09T12:00	23600	33	-51.3		150	3	13.2
2025-07-09T12:00	23650	33	-51.4		147	3	13.0
2025-07-09T12:00	23700	33	-51.5		133	3	13.0
2025-07-09T12:00	23750	33	-51.5		112	4	12.9
2025-07-09T12:00	23800	32	-51.4		100	5	12.8
2025-07-09T12:00	23850	32	-51.4		97	6	12.8
2025-07-09T12:00	23900	32	-51.3		101	6	12.5
2025-07-09T12:00	23950	32	-51.5		107	5	12.4
2025-07-09T12:00	24000	31	-51.8		112	4	12.1
2025-07-09T12:00	24050	31	-51.9		109	3	11.9
2025-07-09T12:00	24100	31	-51.8		88	3	11.7
2025-07-09T12:00	24150	31	-51.5		69	4	11.5
2025-07-09T12:00	24200	31	-51.3		65	6	11.5
2025-07-09T12:00	24250	30	-51.4		67	8	11.2
2025-07-09T12:00	24300	30	-51.5		71	9	11.1
2025-07-09T12:00	24350	30	-51.6		77	11	11.1
2025-07-09T12:00	24400	30	-51.6		85	11	10.9
2025-07-09T12:00	24450	29	-51.5		93	11	11.0
2025-07-09T12:00	24500	29	-51.3		98	11	10.9
2025-07-09T12:00	24550	29	-51.2		101	10	10.9
2025-07-09T12:00	24600	29	-51.3		104	9	10.9
2025-07-09T12:00	24650	28	-51.6		108	8	10.8
2025-07-09T12:00	24700	28	-52.1		110	7	10.8
2025-07-09T12:00	24750	28	-52.0		109	6	10.7
2025-07-09T12:00	24800	28	-52.1		106	5	10.7
2025-07-09T12:00	24850	28	-52.1		96	4	10.7
2025-07-09T12:00	24900	27	-52.0		75	4	10.6
2025-07-09T12:00	24950	27	-51.7		63	5	10.6
2025-07-09T12:00	25000	27	-51.8		63	7	10.7
2025-07-09T12:00	25050	27	-51.8		68	8	10.8
2025-07-09T12:00	25100	27	-51.6		74	11	10.8
2025-07-09T12:00	25150	26	-51.1		81	13	10.9
2025-07-09T12:00	25200	26	-50.9		88	14	11.0
2025-07-09T12:00	25250	26	-50.9		96	15	11.1
2025-07-09T12:00	25300	26	-50.7		102	15	11.1
2025-07-09T12:00	25350	26	-50.6		106	14	11.1
2025-07-09T12:00	25400	25	-50.4		109	13	11.3
2025-07-09T12:00	25450	25	-50.3		111	12	11.4
2025-07-09T12:00	25500	25	-50.1		107	11	11.6
2025-07-09T12:00	25550	25	-49.9		101	11	11.8
2025-07-09T12:00	25600	25	-49.7		97	12	12.0
2025-07-09T12:00	25650	24	-49.4		98	13	12.4
2025-07-09T12:00	25700	24	-49.0		101	14	12.4
2025-07-09T12:00	25750	24	-48.5		104	14	12.7
2025-07-09T12:00	25800	24	-48.3		107	14	12.8
2025-07-09T12:00	25850	24	-47.9		108	13	13.0
2025-07-09T12:00	25900	24	-47.9		108	13	13.2
2025-07-09T12:00	25950	23	-47.8		106	12	13.2
2025-07-09T12:00	26000	23	-47.6		100	12	13.2
2025-07-09T12:00	26050	23	-47.6		96	12	13.2
2025-07-09T12:00	26100	23	-47.4		95	13	13.2
2025-07-09T12:00	26150	23	-47.5		96	14	13.2
2025-07-09T12:00	26200	22	-47.6		99	15	13.1
2025-07-09T12:00	26250	22	-47.9		103	16	13.0
2025-07-09T12:00	26300	22	-48.1		106	16	13.2
2025-07-09T12:00	26350	22	-47.8		109	16	13.1
2025-07-09T12:00	26400	22	-47.8		109	15	12.8
2025-07-09T12:00	26450	22	-47.7		110	15	12.8
2025-07-09T12:00	26500	21	-47.5		112	15	12.9
2025-07-09T12:00	26550	21	-47.4		113	16	12.7
2025-07-09T12:00	26600	21	-47.5		115	16	12.6
2025-07-09T12:00	26650	21	-47.4		116	16	12.6
2025-07-09T12:00	26700	21	-47.6		117	15	12.5
2025-07-09T12:00	26750	21	-47.4		116	14	12.3
2025-07-09T12:00	26800	21	-47.2		114	13	12.2
2025-07-09T12:00	26850	20	-47.0		114	12	12.1
2025-07-09T12:00	26900	20	-46.7		116	12	12.1
2025-07-09T12:00	26950	20	-46.6		119	12	12.0
2025-07-09T12:00	27000	20	-46.6		121	13	11.9
2025-07-09T12:00	27050	20	-46.4		121	13	11.8
2025-07-09T12:00	27100	20	-46.2		119	12	11.8
2025-07-09T12:00	27150	19	-46.0		118	12	11.8
2025-07-09T12:00	27200	19	-45.7		116	11	11.6
2025-07-09T12:00	27250	19	-45.7		115	11	11.6
2025-07-09T12:00	27300	19	-45.2		113	9	11.6
2025-07-09T12:00	27350	19	-44.7		111	8	11.4
2025-07-09T12:00	27400	19	-44.4		107	7	11.5
2025-07-09T12:00	27450	19	-44.2		103	5	11.5
2025-07-09T12:00	27500	18	-44.3		98	4	11.5
2025-07-09T12:00	27550	18	-44.4		88	4	11.5
2025-07-09T12:00	27600	18	-44.6		75	4	11.3
2025-07-09T12:00	27650	18	-44.7		67	5	11.3
2025-07-09T12:00	27700	18	-44.6		67	6	11.1
2025-07-09T12:00	27750	18	-44.7		71	7	11.1
2025-07-09T12:00	27800	18	-44.3		76	8	11.2
2025-07-09T12:00	27850	18	-43.6		81	9	11.3
2025-07-09T12:00	27900	17	-43.4		83	9	11.2
2025-07-09T12:00	27950	17	-43.1		84	9	11.1
2025-07-09T12:00	28000	17	-43.0		83	10	11.1
2025-07-09T12:00	28050	17	-43.1		83	10	11.2
2025-07-09T12:00	28100	17	-42.9		85	11	11.2
2025-07-09T12:00	28150	17	-42.7		86	11	11.3
2025-07-09T12:00	28200	17	-42.6		88	11	11.3
2025-07-09T12:00	28250	17	-42.6		89	10	11.3
2025-07-09T12:00	28300	16	-42.6		89	10	11.4
2025-07-09T12:00	28350	16	-42.5		87	9	11.4
2025-07-09T12:00	28400	16	-42.3		81	9	11.4
2025-07-09T12:00	28450	16	-42.3		75	9	11.6
2025-07-09T12:00	28500	16	-42.4		72	10	11.4
2025-07-09T12:00	28550	16	-42.3		73	11	11.7
2025-07-09T12:00	28600	16	-42.3		78	12	11.5
2025-07-09T12:00	28650	16	-42.3		82	12	11.4
2025-07-09T12:00	28700	15	-42.2		86	13	11.2
2025-07-09T12:00	28750	15	-42.0		89	13	11.2
2025-07-09T12:00	28800	15	-41.8		90	13	11.2
2025-07-09T12:00	28850	15	-41.7		91	13	11.3
2025-07-09T12:00	28900	15	-41.7		92	13	11.1
2025-07-09T12:00	28950	15	-41.5		93	13	11.0
2025-07-09T12:00	29000	15	-41.4		94	13	11.0
2025-07-09T12:00	29050	15	-41.2		95	13	10.9
2025-07-09T12:00	29100	15	-41.2		96	13	10.9
2025-07-09T12:00	29150	14	-41.1		98	14	10.8
2025-07-09T12:00	29200	14	-41.1		100	14	10.7
2025-07-09T12:00	29250	14	-41.0		102	14	10.6
2025-07-09T12:00	29300	14	-41.0		104	15	10.6
2025-07-09T12:00	29350	14	-41.0		107	16	10.6
2025-07-09T12:00	29400	14	-41.0		108	16	10.6
2025-07-09T12:00	29450	14	-40.7		107	16	10.7
2025-07-09T12:00	29500	14	-40.6		106	15	10.6
2025-07-09T12:00	29550	14	-40.5		105	15	10.5
2025-07-09T12:00	29600	14	-40.6		105	14	10.4
2025-07-09T12:00	29650	13	-40.8		106	14	10.3
2025-07-09T12:00	29700	13	-40.8		108	13	10.2
2025-07-09T12:00	29750	13	-40.9		108	12	10.1
2025-07-09T12:00	29800	13	-41.0		105	11	10.1
2025-07-09T12:00	29850	13	-40.9		101	10	10.0
2025-07-09T12:00	29900	13	-41.1		97	10	9.8
2025-07-09T12:00	29950	13	-41.1		96	10	9.8
2025-07-09T12:00	30000	13	-40.7		99	10	9.7
2025-07-09T12:00	30050	13	-40.4		100	10	9.6
2025-07-09T12:00	30100	13	-40.3		98	10	9.5
2025-07-09T12:00	30150	12	-40.0		95	11	9.4
2025-07-09T12:00	30200	12	-39.8		95	12	9.3
2025-07-09T12:00	30250	12	-39.6		98	12	9.3
2025-07-09T12:00	30300	12	-39.6		102	13	9.1
2025-07-09T12:00	30350	12	-39.6		104	12	9.1
2025-07-09T12:00	30400	12	-39.6		102	11	9.0
2025-07-09T12:00	30450	12	-39.5		96	10	8.9
2025-07-09T12:00	30500	12	-39.3		88	9	9.0
2025-07-09T12:00	30550	12	-39.2		82	9	8.9
2025-07-09T12:00	30600	12	-38.8		79	10	8.9
2025-07-09T12:00	30650	12	-38.6		82	11	8.8
2025-07-09T12:00	30700	12	-38.5		88	12	8.8
2025-07-09T12:00	30750	11	-38.7		94	14	8.7
2025-07-09T12:00	30800	11	-38.8		101	14	8.6
2025-07-09T12:00	30850	11	-39.0		107	15	8.5
2025-07-09T12:00	30900	11	-39.2		110	16	8.5
2025-07-09T12:00	30950	11	-39.0		111	15	8.4
2025-07-09T12:00	31000	11	-38.8		110	14	8.4
2025-07-09T12:00	31050	11	-38.6		106	13	8.3
2025-07-09T12:00	31100	11	-38.4		101	12	8.3
2025-07-09T12:00	31150	11	-38.2		94	11	8.2
2025-07-09T12:00	31200	11	-37.8		89	10	8.1
2025-07-09T12:00	31250	11	-37.5		89	10	8.1
2025-07-09T12:00	31300	11	-37.4		92	10	8.1
2025-07-09T12:00	31350	10	-37.3		92	11	8.0
2025-07-09T12:00	31400	10	-37.1		90	11	7.9
2025-07-09T12:00	31450	10	-36.9		88	11	7.8
2025-07-09T12:00	31500	10	-37.0		86	12	7.8
2025-07-09T12:00	31550	10	-37.0		85	12	7.8
2025-07-09T12:00	31600	10	-36.8		82	13	7.7
2025-07-09T12:00	31650	10	-36.5		80	13	7.6
2025-07-09T12:00	31700	10	-36.5		79	13	7.6
2025-07-09T12:00	31750	10	-36.5		79	13	7.6
2025-07-09T12:00	31800	10	-36.5		81	12	7.5
2025-07-09T12:00	31850	10	-36.7		81	12	7.5
2025-07-09T12:00	31900	10	-36.8		77	11	
2025-07-09T12:00	31950	10	-36.7		72	12	
2025-07-09T12:00	32000	10	-36.6		68	12	
2025-07-09T12:00	32050	9	-36.2		67	12	
2025-07-09T12:00	32100	9	-36.3		69	12	
2025-07-09T12:00	32150	9	-36.4		70	12	
2025-07-09T12:00	32200	9	-36.4		72	12	
2025-07-09T12:00	32250	9	-36.3		73	13	
2025-07-09T12:00	32300	9	-36.1		73	13	
2025-07-09T12:00	32350	9	-36.0		72	14	
2025-07-09T12:00	32400	9	-35.9		73	15	
2025-07-09T12:00	32450	9	-35.8		74	16	
2025-07-09T12:00	32500	9	-35.9		77	16	
2025-07-09T12:00	32550	9	-36.1		79	16	
2025-07-09T12:00	32600	9	-36.2		81	16	
2025-07-09T12:00	32650	9	-36.4		82	15	
2025-07-09T12:00	32700	9	-36.5		82	15	
2025-07-09T12:00	32750	9	-36.7		80	14	
2025-07-09T12:00	32800	8	-36.8		77	13	
2025-07-09T12:00	32850	8	-36.9		74	14	
2025-07-09T12:00	32900	8	-36.9		76	14	
2025-07-09T12:00	32950	8	-36.8		81	14	
2025-07-09T12:00	33000	8	-36.7		86	15	
2025-07-09T12:00	33050	8	-36.5		90	16	
2025-07-09T12:00	33100	8	-36.6		92	16	
2025-07-09T12:00	33150	8	-36.5		92	16	
2025-07-09T12:00	33200	8	-36.5		92	16	
2025-07-09T12:00	33250	8	-36.5		92	16	
2025-07-09T12:00	33300	8	-36.5		94	16	
2025-07-09T12:00	33350	8	-36.5		96	16	
2025-07-09T12:00	33400	8	-36.4		100	15	
2025-07-09T12:00	33450	8	-36.4		103	15	
2025-07-09T12:00	33500	8	-36.4		104	14	
2025-07-09T12:00	33550	8	-36.2		102	14	
2025-07-09T12:00	33600	8	-36.1		99	14	
2025-07-09T12:00	33650	8	-36.1		98	14	
2025-07-09T12:00	33700	7	-36.1		100	15	
2025-07-09T12:00	33750	7	-35.9		102	16	
2025-07-10T00:00	491	965	12.9	8.6	21	1	
2025-07-10T00:00	520	961	14.7	8.5	70	3	
2025-07-10T00:00	540	959	14.9	8.3	70	4	
2025-07-10T00:00	560	957	15.1	8.1	69	4	
2025-07-10T00:00	580	954	15.2	8.1	68	5	
2025-07-10T00:00	600	952	15.2	8.0	67	6	
2025-07-10T00:00	620	950	15.5	8.0	65	6	
2025-07-10T00:00	640	948	15.6	8.0	63	7	
2025-07-10T00:00	660	945	15.5	8.0	61	7	
2025-07-10T00:00	680	943	15.3	7.9	58	7	
2025-07-10T00:00	700	941	15.2	7.8	56	7	
2025-07-10T00:00	720	939	15.0	7.8	54	7	
2025-07-10T00:00	740	937	14.8	7.8	53	7	
2025-07-10T00:00	760	934	14.7	7.8	53	7	
2025-07-10T00:00	780	932	14.5	7.7	53	7	
2025-07-10T00:00	800	930	14.3	7.7	54	7	
2025-07-10T00:00	820	928	14.1	7.7	55	7	
2025-07-10T00:00	840	926	13.9	7.7	55	7	
2025-07-10T00:00	860	924	13.8	7.6	56	7	
2025-07-10T00:00	880	921	13.6	7.5	56	8	
2025-07-10T00:00	900	919	13.5	7.4	56	8	
2025-07-10T00:00	920	917	13.4	7.4	55	8	
2025-07-10T00:00	940	915	13.3	7.2	54	8	
2025-07-10T00:00	960	912	13.2	7.1	54	8	
2025-07-10T00:00	980	910	13.2	6.9	54	8	
2025-07-10T00:00	1000	908	13.2	6.4	55	8	
2025-07-10T00:00	1020	906	13.2	6.2	57	8	
2025-07-10T00:00	1040	904	13.1	6.1	58	8	
2025-07-10T00:00	1060	902	12.9	6.1	59	8	
2025-07-10T00:00	1080	900	12.7	6.0	60	8	
2025-07-10T00:00	1100	898	12.6	5.9	61	8	
2025-07-10T00:00	1120	895	12.4	5.8	61	9	
2025-07-10T00:00	1140	893	12.2	5.9	61	9	
2025-07-10T00:00	1160	891	12.1	5.8	61	9	
2025-07-10T00:00	1180	889	11.9	5.7	61	9	
2025-07-10T00:00	1200	887	11.7	5.6	62	9	
2025-07-10T00:00	1220	885	11.6	5.6	63	9	
2025-07-10T00:00	1240	883	11.4	5.5	65	9	
2025-07-10T00:00	1260	880	11.2	5.4	67	9	
2025-07-10T00:00	1280	878	11.0	5.4	70	9	
2025-07-10T00:00	1300	876	10.9	5.3	72	9	
2025-07-10T00:00	1320	874	10.8	5.3	74	9	
2025-07-10T00:00	1340	872	10.6	5.2	76	9	
2025-07-10T00:00	1360	870	10.5	5.1	77	9	
2025-07-10T00:00	1380	868	10.3	5.1	77	9	
2025-07-10T00:00	1400	866	10.1	5.1	77	9	
2025-07-10T00:00	1420	864	10.0	5.0	77	8	
2025-07-10T00:00	1440	862	9.8	5.0	76	8	
2025-07-10T00:00	1460	860	9.7	4.9	75	8	
2025-07-10T00:00	1480	857	9.6	4.8	73	8	
2025-07-10T00:00	1500	855	9.4	4.8	72	8	
2025-07-10T00:00	1520	853	9.3	4.8	70	8	
2025-07-10T00:00	1540	851	9.2	4.7	67	7	
2025-07-10T00:00	1560	850	9.1	4.7	65	7	
2025-07-10T00:00	1580	847	9.0	4.8	63	7	
2025-07-10T00:00	1600	845	8.8	4.6	61	7	
2025-07-10T00:00	1620	843	8.7	4.5	59	6	
2025-07-10T00:00	1640	841	8.6	4.5	58	6	
2025-07-10T00:00	1660	839	8.5	4.4	56	5	
2025-07-10T00:00	1680	837	8.4	4.3	55	5	
2025-07-10T00:00	1700	835	8.3	4.2	55	5	
2025-07-10T00:00	1720	833	8.1	4.2	53	4	
2025-07-10T00:00	1740	831	8.0	4.1	51	4	
2025-07-10T00:00	1760	829	7.8	4.1	49	4	
2025-07-10T00:00	1780	827	7.6	4.0	46	3	
2025-07-10T00:00	1800	825	7.5	3.9	45	3	
2025-07-10T00:00	1820	823	7.4	3.9	45	2	
2025-07-10T00:00	1840	821	7.3	3.8	48	2	
2025-07-10T00:00	1860	819	7.4	3.5	53	2	
2025-07-10T00:00	1880	817	7.5	3.3	58	1	
2025-07-10T00:00	1900	815	7.4	3.2	64	1	
2025-07-10T00:00	1920	813	7.3	3.1	68	1	
2025-07-10T00:00	1940	811	7.1	3.0	70	1	
2025-07-10T00:00	1960	809	7.0	2.9	65	1	
2025-07-10T00:00	1980	807	6.9	2.8	53	1	
2025-07-10T00:00	2000	805	6.7	2.5	21	0	
2025-07-10T00:00	2020	803	6.7	2.2	343	0	
2025-07-10T00:00	2040	801	6.6	1.9	319	0	
2025-07-10T00:00	2060	800	6.6	1.4	307	1	
2025-07-10T00:00	2080	798	6.5	0.9	296	1	
2025-07-10T00:00	2100	795	6.4	0.0	281	1	
2025-07-10T00:00	2120	794	6.5	-1.6	263	0	
2025-07-10T00:00	2140	792	6.8	-4.4	239	1	
2025-07-10T00:00	2160	790	7.0	-5.6	219	1	
2025-07-10T00:00	2180	788	7.0	-5.9	210	1	
2025-07-10T00:00	2200	786	7.0	-6.9	206	1	
2025-07-10T00:00	2220	784	7.0	-8.0	205	1	
2025-07-10T00:00	2240	782	6.9	-7.5	206	1	
2025-07-10T00:00	2260	780	6.7	-7.2	209	2	
2025-07-10T00:00	2280	778	6.6	-7.8	215	2	
2025-07-10T00:00	2300	776	6.5	-7.8	220	2	
2025-07-10T00:00	2320	775	6.3	-7.8	225	2	
2025-07-10T00:00	2340	773	6.2	-8.0	232	2	
2025-07-10T00:00	2360	771	6.0	-8.3	237	2	
2025-07-10T00:00	2380	769	6.0	-9.2	242	2	
2025-07-10T00:00	2400	767	6.0	-10.8	249	2	
2025-07-10T00:00	2420	765	5.9	-15.2	257	2	
2025-07-10T00:00	2440	763	6.0	-19.4	267	2	
2025-07-10T00:00	2460	761	5.9	-21.6	280	2	
2025-07-10T00:00	2480	760	5.8	-24.2	294	2	
2025-07-10T00:00	2500	758	5.7	-28.6	306	2	
2025-07-10T00:00	2520	756	5.6	-31.4	315	2	
2025-07-10T00:00	2540	754	5.5	-34.3	321	2	
2025-07-10T00:00	2560	752	5.4	-34.8	326	3	
2025-07-10T00:00	2580	750	5.3	-35.1	329	3	
2025-07-10T00:00	2600	749	5.3	-35.2	333	3	
2025-07-10T00:00	2620	747	5.1	-35.5	336	3	
2025-07-10T00:00	2640	745	5.0	-35.6	340	3	
2025-07-10T00:00	2660	743	4.9	-35.5	344	3	
2025-07-10T00:00	2680	741	4.7	-35.5	348	4	
2025-07-10T00:00	2700	739	4.6	-35.5	351	4	
2025-07-10T00:00	2720	737	4.4	-35.7	354	4	
2025-07-10T00:00	2740	736	4.2	-35.9	358	4	
2025-07-10T00:00	2760	734	4.1	-36.2	2	3	
2025-07-10T00:00	2780	732	3.9	-36.3	5	3	
2025-07-10T00:00	2800	730	3.9	-36.5	8	3	
2025-07-10T00:00	2820	728	3.7	-36.5	10	3	
2025-07-10T00:00	2840	726	3.5	-36.5	9	3	
2025-07-10T00:00	2860	725	3.4	-36.5	6	3	
2025-07-10T00:00	2880	723	3.2	-36.6	1	3	
2025-07-10T00:00	2900	721	3.1	-36.7	354	3	
2025-07-10T00:00	2920	719	3.1	-36.9	346	3	
2025-07-10T00:00	2940	718	3.0	-37.3	342	3	
2025-07-10T00:00	2960	716	3.0	-37.6	339	4	
2025-07-10T00:00	2980	714	3.0	-37.2	337	4	
2025-07-10T00:00	3000	712	2.9	-36.6	338	4	
2025-07-10T00:00	3020	711	2.9	-34.3	340	4	
2025-07-10T00:00	3040	709	2.8	-33.7	342	4	
2025-07-10T00:00	3060	707	2.6	-33.3	346	4	
2025-07-10T00:00	3080	705	2.5	-31.8	349	4	
2025-07-10T00:00	3100	704	2.4	-29.0	352	4	
2025-07-10T00:00	3120	702	2.3	-28.3	354	4	
2025-07-10T00:00	3140	700	2.2	-27.1	355	4	
2025-07-10T00:00	3160	698	2.1	-24.7	356	5	
2025-07-10T00:00	3180	697	1.9	-23.1	357	5	
2025-07-10T00:00	3200	695	1.8	-22.5	358	5	
2025-07-10T00:00	3220	693	1.6	-22.0	359	5	
2025-07-10T00:00	3240	691	1.5	-26.4	360	5	
2025-07-10T00:00	3260	690	1.5	-29.7	1	5	
2025-07-10T00:00	3280	688	1.4	-28.2	2	5	
2025-07-10T00:00	3300	686	1.3	-26.7	2	5	
2025-07-10T00:00	3320	685	1.2	-25.7	2	5	
2025-07-10T00:00	3340	683	1.1	-27.8	2	5	
2025-07-10T00:00	3360	681	0.9	-30.3	1	5	
2025-07-10T00:00	3380	679	0.8	-30.8	360	5	
2025-07-10T00:00	3400	678	0.6	-30.6	359	5	
2025-07-10T00:00	3420	676	0.5	-30.2	359	5	
2025-07-10T00:00	3440	675	0.4	-33.6	358	5	
2025-07-10T00:00	3460	673	0.4	-31.3	358	6	
2025-07-10T00:00	3480	671	0.3	-29.0	358	6	
2025-07-10T00:00	3500	670	0.2	-28.1	357	6	
2025-07-10T00:00	3520	668	0.1	-27.1	357	6	
2025-07-10T00:00	3540	666	0.0	-27.2	357	6	
2025-07-10T00:00	3560	664	0.0	-27.9	356	6	
2025-07-10T00:00	3580	663	0.0	-27.9	356	6	
2025-07-10T00:00	3600	661	-0.1	-27.6	355	6	
2025-07-10T00:00	3620	659	-0.1	-29.2	354	6	
2025-07-10T00:00	3640	658	-0.1	-29.8	352	7	
2025-07-10T00:00	3660	656	-0.2	-30.0	349	7	
2025-07-10T00:00	3680	655	-0.3	-29.8	346	7	
2025-07-10T00:00	3700	653	-0.4	-30.2	343	8	
2025-07-10T00:00	3720	651	-0.3	-27.8	339	8	
2025-07-10T00:00	3740	650	-0.3	-23.2	336	8	
2025-07-10T00:00	3760	648	-0.5	-19.5	334	8	
2025-07-10T00:00	3780	646	-0.6	-12.7	334	8	
2025-07-10T00:00	3800	645	-0.8	-8.6	334	8	
2025-07-10T00:00	3820	643	-0.9	-6.9	335	8	
2025-07-10T00:00	3840	642	-1.2	-6.3	336	8	
2025-07-10T00:00	3860	640	-1.3	-7.3	338	8	
2025-07-10T00:00	3880	638	-1.3	-8.5	339	9	
2025-07-10T00:00	3900	637	-1.2	-8.9	340	9	
2025-07-10T00:00	3920	635	-1.2	-9.4	340	9	
2025-07-10T00:00	3940	634	-1.2	-9.8	340	9	
2025-07-10T00:00	3960	632	-1.4	-9.9	340	9	
2025-07-10T00:00	3980	630	-1.6	-9.9	340	9	
2025-07-10T00:00	4000	629	-1.7	-9.9	339	9	
2025-07-10T00:00	4020	627	-1.8	-9.9	338	9	
2025-07-10T00:00	4040	626	-2.0	-9.4	337	9	
2025-07-10T00:00	4060	624	-2.1	-9.4	336	9	
2025-07-10T00:00	4080	622	-2.3	-9.1	336	9	
2025-07-10T00:00	4100	621	-2.5	-8.9	335	9	
2025-07-10T00:00	4120	619	-2.7	-9.2	334	9	
2025-07-10T00:00	4140	618	-2.8	-9.4	332	9	
2025-07-10T00:00	4160	616	-3.0	-9.6	331	9	
2025-07-10T00:00	4180	615	-3.1	-10.1	329	9	
2025-07-10T00:00	4200	613	-3.2	-10.9	327	9	
2025-07-10T00:00	4220	612	-3.3	-11.1	324	9	
2025-07-10T00:00	4240	610	-3.4	-11.8	322	9	
2025-07-10T00:00	4260	608	-3.6	-11.9	321	9	
2025-07-10T00:00	4280	607	-3.7	-11.6	320	9	
2025-07-10T00:00	4300	605	-3.8	-11.0	319	9	
2025-07-10T00:00	4320	604	-3.9	-10.9	318	9	
2025-07-10T00:00	4340	602	-4.1	-10.5	317	9	
2025-07-10T00:00	4360	601	-4.2	-10.3	316	9	
2025-07-10T00:00	4380	599	-4.3	-10.8	316	9	
2025-07-10T00:00	4400	598	-4.4	-11.4	317	8	
2025-07-10T00:00	4420	596	-4.5	-12.1	318	8	
2025-07-10T00:00	4440	595	-4.7	-12.0	319	9	
2025-07-10T00:00	4460	593	-4.8	-12.1	320	9	
2025-07-10T00:00	4480	592	-5.0	-12.1	320	9	
2025-07-10T00:00	4500	590	-5.2	-12.2	320	9	
2025-07-10T00:00	4520	589	-5.3	-12.4	319	9	
2025-07-10T00:00	4540	587	-5.5	-13.4	318	9	
2025-07-10T00:00	4560	586	-5.6	-13.8	317	10	
2025-07-10T00:00	4580	584	-5.7	-15.8	317	10	
2025-07-10T00:00	4600	583	-5.8	-18.8	317	10	
2025-07-10T00:00	4620	581	-5.9	-19.3	318	10	
2025-07-10T00:00	4640	580	-6.0	-19.8	318	10	
2025-07-10T00:00	4660	578	-6.1	-20.2	319	10	
2025-07-10T00:00	4680	577	-6.3	-20.3	320	10	
2025-07-10T00:00	4700	575	-6.4	-19.5	321	10	
2025-07-10T00:00	4720	574	-6.7	-15.7	323	10	
2025-07-10T00:00	4740	573	-6.8	-15.5	325	10	
2025-07-10T00:00	4760	571	-7.0	-15.0	327	10	
2025-07-10T00:00	4780	570	-7.1	-15.3	330	10	
2025-07-10T00:00	4800	568	-7.3	-15.9	333	10	
2025-07-10T00:00	4820	567	-7.4	-16.6	336	9	
2025-07-10T00:00	4840	565	-7.6	-17.5	336	10	
2025-07-10T00:00	4860	564	-7.6	-19.0	336	10	
2025-07-10T00:00	4880	562	-7.7	-22.6	336	10	
2025-07-10T00:00	4900	561	-7.7	-27.8	335	10	
2025-07-10T00:00	4920	559	-7.8	-30.1	336	10	
2025-07-10T00:00	4940	558	-7.9	-29.3	336	10	
2025-07-10T00:00	4960	556	-8.0	-27.4	336	10	
2025-07-10T00:00	4980	555	-8.1	-27.1	337	9	
2025-07-10T00:00	5000	554	-8.3	-28.1	337	9	
2025-07-10T00:00	5020	552	-8.4	-25.8	338	9	
2025-07-10T00:00	5040	551	-8.5	-24.4	338	9	
2025-07-10T00:00	5060	549	-8.6	-23.2	338	9	
2025-07-10T00:00	5080	548	-8.8	-22.0	338	9	
2025-07-10T00:00	5100	546	-9.0	-21.2	339	9	
2025-07-10T00:00	5120	545	-9.1	-22.4	339	9	
2025-07-10T00:00	5140	544	-9.3	-22.5	340	9	
2025-07-10T00:00	5160	542	-9.5	-22.5	340	10	
2025-07-10T00:00	5180	541	-9.6	-23.1	341	10	
2025-07-10T00:00	5200	539	-9.8	-23.5	341	10	
2025-07-10T00:00	5220	538	-9.9	-23.8	341	10	
2025-07-10T00:00	5240	537	-10.1	-24.2	341	10	
2025-07-10T00:00	5260	535	-10.2	-24.9	342	10	
2025-07-10T00:00	5280	534	-10.4	-26.5	342	10	
2025-07-10T00:00	5300	532	-10.5	-27.5	342	10	
2025-07-10T00:00	5320	531	-10.5	-26.5	342	9	
2025-07-10T00:00	5340	530	-10.7	-25.0	342	9	
2025-07-10T00:00	5360	528	-10.9	-22.5	341	9	
2025-07-10T00:00	5380	527	-11.0	-22.3	339	8	
2025-07-10T00:00	5400	526	-11.1	-22.9	338	8	
2025-07-10T00:00	5420	524	-11.2	-23.0	337	8	
2025-07-10T00:00	5440	523	-11.4	-23.1	336	8	
2025-07-10T00:00	5460	522	-11.5	-23.2	336	8	
2025-07-10T00:00	5480	520	-11.7	-23.0	335	8	
2025-07-10T00:00	5500	519	-11.9	-22.8	335	8	
2025-07-10T00:00	5520	517	-12.1	-22.4	334	8	
2025-07-10T00:00	5540	516	-12.3	-22.0	332	8	
2025-07-10T00:00	5560	515	-12.4	-22.3	330	7	
2025-07-10T00:00	5580	514	-12.6	-22.2	328	7	
2025-07-10T00:00	5600	512	-12.7	-22.7	326	7	
2025-07-10T00:00	5620	511	-12.9	-22.8	325	7	
2025-07-10T00:00	5640	510	-13.1	-22.8	325	7	
2025-07-10T00:00	5660	508	-13.2	-23.2	326	7	
2025-07-10T00:00	5680	507	-13.4	-23.4	327	7	
2025-07-10T00:00	5700	505	-13.5	-23.6	329	8	
2025-07-10T00:00	5720	504	-13.7	-23.4	332	8	
2025-07-10T00:00	5740	503	-13.8	-23.4	335	8	
2025-07-10T00:00	5760	501	-14.0	-24.2	339	7	
2025-07-10T00:00	5780	500	-14.1	-23.7	344	7	
2025-07-10T00:00	5800	499	-14.3	-23.6	348	7	
2025-07-10T00:00	5820	498	-14.4	-23.8	350	6	
2025-07-10T00:00	5840	496	-14.5	-24.0	351	6	
2025-07-10T00:00	5860	495	-14.7	-24.5	351	6	
2025-07-10T00:00	5880	494	-14.7	-25.6	350	6	
2025-07-10T00:00	5900	492	-14.8	-25.6	348	6	
2025-07-10T00:00	5920	491	-15.0	-25.5	348	6	
2025-07-10T00:00	5940	490	-15.1	-25.6	348	6	
2025-07-10T00:00	5960	488	-15.3	-26.1	349	5	
2025-07-10T00:00	5980	487	-15.3	-28.3	350	5	
2025-07-10T00:00	6000	486	-15.4	-29.1	351	5	
2025-07-10T00:00	6020	485	-15.4	-28.7	351	5	
2025-07-10T00:00	6040	483	-15.6	-27.4	351	5	
2025-07-10T00:00	6060	482	-15.8	-27.0	350	5	
2025-07-10T00:00	6080	481	-16.0	-26.6	349	5	
2025-07-10T00:00	6100	479	-16.2	-25.9	348	5	
2025-07-10T00:00	6120	478	-16.4	-25.7	348	5	
2025-07-10T00:00	6140	477	-16.5	-25.8	349	5	
2025-07-10T00:00	6160	476	-16.7	-25.8	351	5	
2025-07-10T00:00	6180	474	-16.9	-25.8	352	5	
2025-07-10T00:00	6200	473	-17.1	-25.8	354	5	
2025-07-10T00:00	6220	472	-17.4	-25.6	354	5	
2025-07-10T00:00	6240	471	-17.5	-25.5	352	5	
2025-07-10T00:00	6260	469	-17.7	-25.5	349	4	
2025-07-10T00:00	6280	468	-17.9	-25.5	345	4	
2025-07-10T00:00	6300	467	-18.1	-25.6	341	4	
2025-07-10T00:00	6320	466	-18.3	-25.6	337	4	
2025-07-10T00:00	6340	464	-18.5	-25.6	334	5	
2025-07-10T00:00	6360	463	-18.7	-25.6	333	5	
2025-07-10T00:00	6380	462	-18.9	-25.7	333	5	
2025-07-10T00:00	6400	461	-19.1	-25.9	333	5	
2025-07-10T00:00	6420	459	-19.3	-26.1	333	6	
2025-07-10T00:00	6440	458	-19.5	-26.1	333	6	
2025-07-10T00:00	6460	457	-19.6	-26.3	333	6	
2025-07-10T00:00	6480	456	-19.9	-26.7	333	6	
2025-07-10T00:00	6500	454	-20.0	-27.0	334	6	
2025-07-10T00:00	6520	453	-20.2	-27.4	337	6	
2025-07-10T00:00	6540	452	-20.4	-27.4	340	6	
2025-07-10T00:00	6560	451	-20.6	-27.4	345	6	
2025-07-10T00:00	6580	450	-20.8	-27.5	349	6	
2025-07-10T00:00	6600	448	-20.8	-29.3	351	6	
2025-07-10T00:00	6620	447	-20.8	-33.3	352	7	
2025-07-10T00:00	6640	446	-20.5	-39.2	351	7	
2025-07-10T00:00	6660	445	-20.3	-38.6	351	7	
2025-07-10T00:00	6680	443	-20.4	-32.8	350	7	
2025-07-10T00:00	6700	442	-20.6	-34.2	348	7	
2025-07-10T00:00	6720	441	-20.7	-35.7	347	6	
2025-07-10T00:00	6740	440	-20.9	-38.1	348	6	
2025-07-10T00:00	6760	439	-21.0	-37.2	350	6	
2025-07-10T00:00	6780	438	-21.2	-38.3	352	6	
2025-07-10T00:00	6800	436	-21.4	-38.3	355	6	
2025-07-10T00:00	6820	435	-21.6	-36.7	357	6	
2025-07-10T00:00	6840	434	-21.8	-35.0	359	7	
2025-07-10T00:00	6860	433	-21.9	-34.6	360	7	
2025-07-10T00:00	6880	432	-22.1	-34.6	0	7	
2025-07-10T00:00	6900	431	-22.3	-34.4	1	6	
2025-07-10T00:00	6920	429	-22.5	-33.6	360	6	
2025-07-10T00:00	6940	428	-22.6	-33.3	358	5	
2025-07-10T00:00	6960	427	-22.7	-34.3	356	5	
2025-07-10T00:00	6980	426	-22.7	-35.8	353	4	
2025-07-10T00:00	7000	425	-22.8	-38.3	351	4	
2025-07-10T00:00	7020	423	-22.7	-41.2	349	4	
2025-07-10T00:00	7040	422	-22.6	-42.9	350	3	
2025-07-10T00:00	7060	421	-22.4	-43.9	353	3	
2025-07-10T00:00	7080	420	-22.5	-39.6	356	3	
2025-07-10T00:00	7100	419	-22.7	-40.9	2	3	
2025-07-10T00:00	7120	418	-22.7	-45.0	6	3	
2025-07-10T00:00	7140	417	-22.7	-41.7	9	4	
2025-07-10T00:00	7160	416	-22.9	-39.4	11	4	
2025-07-10T00:00	7180	414	-23.1	-37.6	12	4	
2025-07-10T00:00	7200	413	-23.3	-37.6	11	4	
2025-07-10T00:00	7220	412	-23.5	-37.6	10	4	
2025-07-10T00:00	7240	411	-23.7	-37.8	8	4	
2025-07-10T00:00	7260	410	-23.9	-37.2	5	4	
2025-07-10T00:00	7280	409	-24.1	-36.4	2	4	
2025-07-10T00:00	7300	408	-24.2	-36.0	1	4	
2025-07-10T00:00	7320	406	-24.3	-36.2	0	4	
2025-07-10T00:00	7340	405	-24.5	-36.1	0	5	
2025-07-10T00:00	7360	404	-24.6	-35.4	2	5	
2025-07-10T00:00	7380	403	-24.9	-34.3	3	5	
2025-07-10T00:00	7400	402	-25.0	-33.9	5	5	
2025-07-10T00:00	7420	401	-25.2	-33.2	6	6	
2025-07-10T00:00	7440	400	-25.4	-32.7	7	6	
2025-07-10T00:00	7460	399	-25.6	-32.9	9	6	
2025-07-10T00:00	7480	398	-25.7	-32.4	10	6	
2025-07-10T00:00	7500	397	-25.9	-33.0	10	6	
2025-07-10T00:00	7520	395	-26.0	-34.4	11	5	
2025-07-10T00:00	7540	394	-26.1	-34.6	11	5	
2025-07-10T00:00	7560	393	-26.3	-33.9	9	4	
2025-07-10T00:00	7580	392	-26.5	-33.8	8	4	
2025-07-10T00:00	7600	391	-26.7	-34.0	6	4	
2025-07-10T00:00	7620	390	-26.8	-34.4	5	4	
2025-07-10T00:00	7640	389	-27.0	-34.5	5	4	
2025-07-10T00:00	7660	388	-27.2	-35.0	7	4	
2025-07-10T00:00	7680	387	-27.3	-35.5	11	4	
2025-07-10T00:00	7700	386	-27.4	-36.1	15	4	
2025-07-10T00:00	7720	385	-27.5	-36.2	18	4	
2025-07-10T00:00	7740	384	-27.7	-36.3	21	4	
2025-07-10T00:00	7760	383	-27.8	-36.4	22	5	
2025-07-10T00:00	7780	381	-28.0	-36.6	22	5	
2025-07-10T00:00	7800	380	-28.2	-36.5	22	5	
2025-07-10T00:00	7820	379	-28.4	-36.8	20	5	
2025-07-10T00:00	7840	378	-28.5	-37.8	20	5	
2025-07-10T00:00	7860	377	-28.7	-38.7	19	5	
2025-07-10T00:00	7880	376	-28.8	-39.1	19	5	
2025-07-10T00:00	7900	375	-29.0	-39.5	19	5	
2025-07-10T00:00	7920	374	-29.1	-39.8	19	5	
2025-07-10T00:00	7940	373	-29.2	-40.4	20	5	
2025-07-10T00:00	7960	372	-29.3	-41.0	20	5	
2025-07-10T00:00	7980	371	-29.4	-40.9	20	6	
2025-07-10T00:00	8000	370	-29.5	-41.0	19	6	
2025-07-10T00:00	8020	369	-29.6	-42.6	19	6	
2025-07-10T00:00	8040	368	-29.7	-44.1	19	6	
2025-07-10T00:00	8060	367	-29.8	-44.9	19	6	
2025-07-10T00:00	8080	366	-29.9	-44.7	20	5	
2025-07-10T00:00	8100	365	-30.1	-44.6	19	5	
2025-07-10T00:00	8120	364	-30.3	-44.3	19	5	
2025-07-10T00:00	8140	363	-30.6	-44.4	16	5	
2025-07-10T00:00	8160	362	-30.8	-44.2	11	5	
2025-07-10T00:00	8180	361	-30.9	-44.1	7	5	
2025-07-10T00:00	8200	360	-31.1	-44.0	5	5	
2025-07-10T00:00	8220	359	-31.3	-44.0	5	6	
2025-07-10T00:00	8240	358	-31.4	-44.2	7	6	
2025-07-10T00:00	8260	357	-31.7	-44.3	9	6	
2025-07-10T00:00	8280	356	-31.8	-44.4	12	6	
2025-07-10T00:00	8300	355	-32.0	-44.6	15	6	
2025-07-10T00:00	8320	354	-32.2	-44.4	17	6	
2025-07-10T00:00	8340	353	-32.4	-44.6	17	6	
2025-07-10T00:00	8360	352	-32.6	-44.7	17	6	
2025-07-10T00:00	8380	351	-32.8	-44.6	17	6	
2025-07-10T00:00	8400	350	-33.0	-44.7	17	6	
2025-07-10T00:00	8420	349	-33.2	-45.0	17	6	
2025-07-10T00:00	8440	348	-33.3	-45.2	17	6	
2025-07-10T00:00	8460	347	-33.5	-45.1	17	6	
2025-07-10T00:00	8480	346	-33.7	-44.9	18	6	
2025-07-10T00:00	8500	345	-33.8	-44.4	18	7	
2025-07-10T00:00	8520	344	-34.0	-44.0	19	7	
2025-07-10T00:00	8540	343	-34.2	-44.1	19	7	
2025-07-10T00:00	8560	342	-34.3	-44.5	19	7	
2025-07-10T00:00	8580	341	-34.5	-44.5	19	6	
2025-07-10T00:00	8600	340	-34.6	-44.7	19	6	
2025-07-10T00:00	8620	339	-34.8	-44.8	18	6	
2025-07-10T00:00	8640	338	-35.0	-44.8	17	6	
2025-07-10T00:00	8660	337	-35.2	-44.8	17	5	
2025-07-10T00:00	8680	336	-35.4	-44.9	16	5	
2025-07-10T00:00	8700	335	-35.5	-45.1	15	5	
2025-07-10T00:00	8720	334	-35.7	-45.3	13	5	
2025-07-10T00:00	8740	333	-35.9	-45.6	12	5	
2025-07-10T00:00	8760	332	-36.0	-46.2	11	5	
2025-07-10T00:00	8780	331	-36.1	-46.3	10	5	
2025-07-10T00:00	8800	330	-36.3	-46.3	10	5	
2025-07-10T00:00	8820	329	-36.5	-46.7	10	5	
2025-07-10T00:00	8840	328	-36.6	-47.1	10	5	
2025-07-10T00:00	8860	327	-36.7	-47.4	12	5	
2025-07-10T00:00	8880	326	-36.9	-47.3	13	5	
2025-07-10T00:00	8900	325	-37.1	-47.3	16	5	
2025-07-10T00:00	8920	324	-37.3	-47.2	20	5	
2025-07-10T00:00	8940	323	-37.5	-47.2	22	5	
2025-07-10T00:00	8960	323	-37.7	-47.5	24	6	
2025-07-10T00:00	8980	322	-37.9	-47.6	24	6	
2025-07-10T00:00	9000	321	-38.0	-47.8	24	6	
2025-07-10T00:00	9020	320	-38.2	-47.9	23	6	
2025-07-10T00:00	9040	319	-38.4	-48.0	23	6	
2025-07-10T00:00	9060	318	-38.6	-48.0	23	6	
2025-07-10T00:00	9080	317	-38.8	-48.1	22	6	
2025-07-10T00:00	9100	316	-38.9	-48.2	22	6	
2025-07-10T00:00	9120	315	-39.1	-48.2	22	6	
2025-07-10T00:00	9140	314	-39.3	-48.3	23	6	
2025-07-10T00:00	9160	313	-39.5	-48.5	23	6	
2025-07-10T00:00	9180	312	-39.6	-48.9	24	6	
2025-07-10T00:00	9200	311	-39.7	-49.1	25	6	
2025-07-10T00:00	9220	311	-39.9	-49.2	26	6	
2025-07-10T00:00	9240	310	-40.1	-49.1	26	6	
2025-07-10T00:00	9260	309	-40.3	-49.0	27	6	
2025-07-10T00:00	9280	308	-40.5	-49.2	28	6	
2025-07-10T00:00	9300	307	-40.7	-49.3	29	5	
2025-07-10T00:00	9320	306	-40.8	-49.2	30	5	
2025-07-10T00:00	9340	305	-41.0	-49.5	31	4	
2025-07-10T00:00	9360	304	-41.2	-49.6	33	4	
2025-07-10T00:00	9380	303	-41.4	-49.3	35	4	
2025-07-10T00:00	9400	302	-41.6	-49.6	36	4	
2025-07-10T00:00	9420	302	-41.7	-49.9	36	4	
2025-07-10T00:00	9440	301	-41.9	-50.4	35	4	
2025-07-10T00:00	9460	300	-41.9	-51.2	32	5	
2025-07-10T00:00	9480	299	-42.0	-51.6	30	5	
2025-07-10T00:00	9500	298	-42.1	-51.8	28	6	
2025-07-10T00:00	9520	297	-42.2	-52.2	27	6	
2025-07-10T00:00	9540	296	-42.4	-52.8	26	6	
2025-07-10T00:00	9560	295	-42.5	-52.9	26	7	
2025-07-10T00:00	9580	295	-42.6	-53.1	26	7	
2025-07-10T00:00	9600	294	-42.7	-53.7	27	7	
2025-07-10T00:00	9620	293	-42.8	-54.2	28	7	
2025-07-10T00:00	9640	292	-42.9	-54.6	29	7	
2025-07-10T00:00	9660	291	-43.0	-54.7	29	7	
2025-07-10T00:00	9680	290	-43.1	-54.8	29	6	
2025-07-10T00:00	9700	289	-43.3	-55.0	30	6	
2025-07-10T00:00	9720	288	-43.5	-55.1	30	6	
2025-07-10T00:00	9740	288	-43.6	-55.1	30	6	
2025-07-10T00:00	9760	287	-43.8	-55.1	30	6	
2025-07-10T00:00	9780	286	-44.0	-55.1	30	5	
2025-07-10T00:00	9800	285	-44.2	-55.3	29	5	
2025-07-10T00:00	9820	284	-44.3	-55.4	27	5	
2025-07-10T00:00	9840	283	-44.4	-55.5	25	5	
2025-07-10T00:00	9860	283	-44.6	-55.6	22	5	
2025-07-10T00:00	9880	282	-44.7	-56.2	20	5	
2025-07-10T00:00	9900	281	-44.6	-56.9	18	5	
2025-07-10T00:00	9920	280	-44.7	-57.4	16	5	
2025-07-10T00:00	9940	279	-44.7	-57.9	15	5	
2025-07-10T00:00	9960	278	-44.8	-58.1	14	5	
2025-07-10T00:00	9980	277	-44.8	-58.3	14	6	
2025-07-10T00:00	10000	277	-44.9	-58.4	14	6	
2025-07-10T00:00	10018	276	-45.0	-58.6	14	6	
2025-07-10T00:00	10050	275	-45.0	-59.2	15	7	
2025-07-10T00:00	10100	272	-45.3	-59.3	17	7	
2025-07-10T00:00	10150	271	-45.7	-59.3	19	7	
2025-07-10T00:00	10200	269	-46.1	-59.6	16	7	
2025-07-10T00:00	10250	266	-46.5	-59.7	13	6	
2025-07-10T00:00	10300	264	-46.8	-60.3	13	6	
2025-07-10T00:00	10350	263	-47.3	-59.9	19	6	
2025-07-10T00:00	10400	260	-47.8	-59.8	22	6	
2025-07-10T00:00	10450	258	-48.2	-59.6	20	6	
2025-07-10T00:00	10500	256	-48.2	-60.0	16	6	
2025-07-10T00:00	10550	255	-48.4	-60.4	10	7	
2025-07-10T00:00	10600	253	-48.8	-61.2	5	7	
2025-07-10T00:00	10650	251	-48.9	-61.6	358	6	
2025-07-10T00:00	10700	249	-49.1	-61.4	350	6	
2025-07-10T00:00	10750	247	-49.1	-62.8	344	6	
2025-07-10T00:00	10800	245	-49.1	-63.5	344	6	
2025-07-10T00:00	10850	243	-49.5	-63.3	346	7	
2025-07-10T00:00	10900	241	-49.6	-64.0	345	8	
2025-07-10T00:00	10950	240	-49.9	-64.3	343	8	
2025-07-10T00:00	11000	238	-50.4	-64.1	341	8	
2025-07-10T00:00	11050	236	-50.1	-65.9	344	8	
2025-07-10T00:00	11100	234	-50.0	-66.8	347	9	
2025-07-10T00:00	11150	232	-49.9	-68.2	346	9	
2025-07-10T00:00	11200	231	-49.4	-71.0	344	9	
2025-07-10T00:00	11250	229	-49.3	-71.8	342	9	
2025-07-10T00:00	11300	227	-49.6	-71.1	339	9	
2025-07-10T00:00	11350	225	-49.7	-70.0	331	9	
2025-07-10T00:00	11400	224	-49.8	-69.8	321	9	
2025-07-10T00:00	11450	222	-49.8	-69.4	313	10	
2025-07-10T00:00	11500	220	-50.0	-69.8	312	11	
2025-07-10T00:00	11550	219	-50.0	-70.3	314	12	
2025-07-10T00:00	11600	217	-50.0	-70.6	316	12	
2025-07-10T00:00	11650	215	-50.0	-71.1	318	13	
2025-07-10T00:00	11700	214	-50.0	-71.3	318	13	
2025-07-10T00:00	11750	212	-50.2	-71.7	318	13	
2025-07-10T00:00	11800	210	-50.0	-72.3	315	13	
2025-07-10T00:00	11850	209	-50.1	-73.1	310	13	
2025-07-10T00:00	11900	207	-50.0	-74.6	306	14	
2025-07-10T00:00	11950	206	-49.7	-76.7	304	15	
2025-07-10T00:00	12000	204	-49.5	-77.1	304	15	
2025-07-10T00:00	12050	202	-49.6	-76.9	305	16	
2025-07-10T00:00	12100	201	-49.6	-77.1	308	15	
2025-07-10T00:00	12150	199	-49.6	-77.2	310	16	
2025-07-10T00:00	12200	198	-49.8	-77.3	310	16	
2025-07-10T00:00	12250	196	-50.2	-77.6	310	17	
2025-07-10T00:00	12300	195	-50.2	-78.3	310	18	
2025-07-10T00:00	12350	193	-49.7	-78.6	310	18	
2025-07-10T00:00	12400	192	-49.4	-77.4	309	18	
2025-07-10T00:00	12450	190	-49.2	-76.8	308	17	
2025-07-10T00:00	12500	189	-49.3	-77.3	308	16	
2025-07-10T00:00	12550	188	-49.2	-77.6	307	16	
2025-07-10T00:00	12600	186	-48.8	-78.3	306	17	
2025-07-10T00:00	12650	185	-48.6	-78.7	306	18	
2025-07-10T00:00	12700	183	-48.9	-79.1	307	18	
2025-07-10T00:00	12750	182	-49.0	-79.6	309	18	
2025-07-10T00:00	12800	181	-49.0	-80.0	310	17	
2025-07-10T00:00	12850	179	-49.2	-80.4	309	17	
2025-07-10T00:00	12900	178	-49.1	-80.8	306	17	
2025-07-10T00:00	12950	176	-49.4	-81.2	305	17	
2025-07-10T00:00	13000	175	-49.7	-81.4	305	17	
2025-07-10T00:00	13050	174	-50.0	-81.3	307	18	
2025-07-10T00:00	13100	172	-50.1	-81.6	307	18	
2025-07-10T00:00	13150	171	-50.1	-81.6	306	18	
2025-07-10T00:00	13200	170	-50.0	-81.5	305	18	
2025-07-10T00:00	13250	169	-50.4	-81.8	305	18	
2025-07-10T00:00	13300	167	-50.4	-81.9	305	18	
2025-07-10T00:00	13350	166	-50.4	-82.1	305	18	
2025-07-10T00:00	13400	165	-50.7	-82.3	305	17	
2025-07-10T00:00	13450	163	-50.8	-82.5	306	17	
2025-07-10T00:00	13500	162	-50.8	-82.4	305	17	
2025-07-10T00:00	13550	161	-50.8	-82.2	303	17	
2025-07-10T00:00	13600	160	-51.0	-82.3	300	17	
2025-07-10T00:00	13650	158	-51.1	-82.3	298	18	
2025-07-10T00:00	13700	157	-51.1	-82.2	297	18	
2025-07-10T00:00	13750	156	-51.5	-82.4	298	18	
2025-07-10T00:00	13800	155	-51.8	-82.4	299	18	
2025-07-10T00:00	13850	154	-51.8	-82.5	300	18	
2025-07-10T00:00	13900	152	-51.9	-82.9	301	18	
2025-07-10T00:00	13950	151	-52.0	-82.8	302	19	
2025-07-10T00:00	14000	150	-52.0	-82.9	303	19	
2025-07-10T00:00	14050	149	-52.2	-83.0	302	19	
2025-07-10T00:00	14100	148	-52.5	-83.1	303	20	
2025-07-10T00:00	14150	147	-52.7	-83.2	304	20	
2025-07-10T00:00	14200	146	-52.8	-83.1	306	20	
2025-07-10T00:00	14250	144	-52.9	-83.1	308	20	
2025-07-10T00:00	14300	143	-52.9	-83.1	310	20	
2025-07-10T00:00	14350	142	-53.0	-82.9	312	19	
2025-07-10T00:00	14400	141	-52.7	-82.7	313	19	
2025-07-10T00:00	14450	140	-52.8	-82.8	314	19	
2025-07-10T00:00	14500	139	-53.1	-82.9	316	19	
2025-07-10T00:00	14550	138	-53.5	-83.1	319	18	
2025-07-10T00:00	14600	137	-53.7	-83.1	320	18	
2025-07-10T00:00	14650	136	-54.0	-83.2	320	16	
2025-07-10T00:00	14700	135	-54.1	-83.5	320	15	
2025-07-10T00:00	14750	134	-54.0	-83.7	319	14	
2025-07-10T00:00	14800	133	-54.1	-83.7	318	13	
2025-07-10T00:00	14850	132	-54.3	-83.4	316	13	
2025-07-10T00:00	14900	131	-54.4	-83.5	313	13	
2025-07-10T00:00	14950	130	-54.7	-83.7	309	12	
2025-07-10T00:00	15000	129	-55.0	-83.9	305	13	
2025-07-10T00:00	15050	128	-55.3	-84.1	301	12	
2025-07-10T00:00	15100	127	-55.5	-84.4	298	12	
2025-07-10T00:00	15150	126	-55.3	-84.8	295	12	
2025-07-10T00:00	15200	125	-55.2	-85.0	291	12	
2025-07-10T00:00	15250	124	-55.2	-85.2	286	11	
2025-07-10T00:00	15300	123	-55.2	-85.2	283	11	
2025-07-10T00:00	15350	122	-55.2	-85.0	284	12	
2025-07-10T00:00	15400	121	-55.6	-85.1	286	13	
2025-07-10T00:00	15450	120	-55.8	-85.1	288	13	
2025-07-10T00:00	15500	119	-55.7	-85.0	291	14	
2025-07-10T00:00	15550	118	-55.8	-85.0	294	15	
2025-07-10T00:00	15600	117	-55.8	-85.0	296	15	
2025-07-10T00:00	15650	116	-55.9	-85.2	301	15	
2025-07-10T00:00	15700	115	-55.3	-85.4	309	14	
2025-07-10T00:00	15750	114	-55.3	-85.4	316	13	
2025-07-10T00:00	15800	113	-55.7	-85.4	318	12	
2025-07-10T00:00	15850	112	-55.9	-85.4	316	11	
2025-07-10T00:00	15900	112	-55.9	-85.4	311	12	
2025-07-10T00:00	15950	111	-55.9	-85.4	306	12	
2025-07-10T00:00	16000	110	-56.0	-85.6	306	13	
2025-07-10T00:00	16050	109	-55.9	-85.7	312	13	
2025-07-10T00:00	16100	108	-55.9	-85.9	317	13	
2025-07-10T00:00	16150	107	-55.9	-86.0	320	12	
2025-07-10T00:00	16200	106	-56.0	-86.1	320	10	
2025-07-10T00:00	16250	106	-56.3	-86.0	316	9	
2025-07-10T00:00	16300	105	-56.7	-86.2	309	9	
2025-07-10T00:00	16350	104	-57.0	-86.2	300	8	
2025-07-10T00:00	16400	103	-57.2	-86.3	289	8	
2025-07-10T00:00	16450	102	-57.5	-86.5	283	9	
2025-07-10T00:00	16500	102	-57.2	-86.5	283	11	
2025-07-10T00:00	16550	101	-57.1	-86.6	287	11	
2025-07-10T00:00	16600	100	-56.9	-86.5	289	11	
2025-07-10T00:00	16650	99	-57.1	-86.5	291	11	
2025-07-10T00:00	16700	98	-57.3	-86.6	292	12	
2025-07-10T00:00	16750	98	-57.2	-86.7	294	11	
2025-07-10T00:00	16800	97	-57.2	-86.9	298	10	
2025-07-10T00:00	16850	96	-56.6	-86.8	304	8	
2025-07-10T00:00	16900	95	-56.1	-86.7	308	8	
2025-07-10T00:00	16950	95	-56.2	-86.7	306	9	
2025-07-10T00:00	17000	94	-56.2	-86.8	305	9	
2025-07-10T00:00	17050	93	-55.6	-86.6	304	10	
2025-07-10T00:00	17100	92	-55.4	-86.6	303	10	
2025-07-10T00:00	17150	92	-55.6	-86.6	303	11	
2025-07-10T00:00	17200	91	-55.4	-86.5	302	11	
2025-07-10T00:00	17250	90	-55.6	-86.6	303	10	
2025-07-10T00:00	17300	90	-55.7	-86.6	306	10	
2025-07-10T00:00	17350	89	-55.8	-86.6	311	9	
2025-07-10T00:00	17400	88	-56.1	-86.7	311	9	
2025-07-10T00:00	17450	87	-56.2	-86.7	309	8	
2025-07-10T00:00	17500	87	-56.4	-86.8	312	7	
2025-07-10T00:00	17550	86	-56.4	-86.8	313	6	
2025-07-10T00:00	17600	85	-56.3	-87.0	303	6	
2025-07-10T00:00	17650	85	-56.1	-87.0	297	7	
2025-07-10T00:00	17700	84	-56.2	-87.0	298	8	
2025-07-10T00:00	17750	83	-56.0	-86.8	302	8	
2025-07-10T00:00	17800	83	-56.3	-86.9	311	9	
2025-07-10T00:00	17850	82	-56.3	-87.0	319	9	
2025-07-10T00:00	17900	81	-56.1	-87.0	325	9	
2025-07-10T00:00	17950	81	-56.2	-87.0	333	9	
2025-07-10T00:00	18000	80	-56.0	-87.0	341	8	
2025-07-10T00:00	18050	80	-56.0	-87.0	347	8	
2025-07-10T00:00	18100	79	-55.8	-87.1	352	6	
2025-07-10T00:00	18150	78	-55.9	-87.0	1	5	
2025-07-10T00:00	18200	78	-56.0	-87.0	354	4	
2025-07-10T00:00	18250	77	-55.9	-87.1	330	3	
2025-07-10T00:00	18300	76	-55.6	-87.1	312	3	
2025-07-10T00:00	18350	76	-55.7	-87.1	312	4	
2025-07-10T00:00	18400	75	-55.2	-87.1	316	4	
2025-07-10T00:00	18450	75	-54.6	-86.9	328	4	
2025-07-10T00:00	18500	74	-54.7	-86.8	346	4	
2025-07-10T00:00	18550	74	-54.8	-86.7	1	4	
2025-07-10T00:00	18600	73	-55.0	-86.8	15	5	
2025-07-10T00:00	18650	72	-54.9	-86.9	36	4	
2025-07-10T00:00	18700	72	-54.7	-86.8	48	3	
2025-07-10T00:00	18750	71	-55.0	-86.7	63	2	
2025-07-10T00:00	18800	71	-55.4	-86.8	123	1	
2025-07-10T00:00	18850	70	-55.8	-87.0	200	1	
2025-07-10T00:00	18900	70	-55.9	-87.1	274	1	
2025-07-10T00:00	18950	69	-55.7	-87.2	319	2	
2025-07-10T00:00	19000	69	-55.3	-87.1	331	2	
2025-07-10T00:00	19050	68	-55.3	-87.1	328	1	
2025-07-10T12:00	491	963	22.4	8.9	349	6	
2025-07-10T12:00	501	962	21.9	9.2	11	4	
2025-07-10T12:00	520	960	20.4	8.3	20	4	
2025-07-10T12:00	540	958	19.7	7.9	18	5	
2025-07-10T12:00	560	956	19.4	7.8	18	6	
2025-07-10T12:00	580	954	19.2	7.7	18	6	
2025-07-10T12:00	600	952	19.0	7.6	18	7	
2025-07-10T12:00	620	949	18.8	7.7	18	7	
2025-07-10T12:00	640	947	18.7	7.7	19	8	
2025-07-10T12:00	660	945	18.5	7.7	21	8	
2025-07-10T12:00	680	942	18.3	7.7	23	8	
2025-07-10T12:00	700	941	18.2	7.6	27	8	
2025-07-10T12:00	720	938	18.1	7.4	31	8	
2025-07-10T12:00	740	936	17.9	7.5	35	8	
2025-07-10T12:00	760	934	17.8	7.5	39	8	
2025-07-10T12:00	780	931	17.5	7.4	43	7	
2025-07-10T12:00	800	929	17.3	7.4	46	7	
2025-07-10T12:00	820	927	17.2	7.1	49	7	
2025-07-10T12:00	840	925	17.0	7.0	51	7	
2025-07-10T12:00	860	923	16.8	6.8	52	7	
2025-07-10T12:00	880	921	16.7	6.7	53	7	
2025-07-10T12:00	900	918	16.4	6.7	53	7	
2025-07-10T12:00	920	917	16.3	6.7	53	7	
2025-07-10T12:00	940	914	16.1	6.7	52	7	
2025-07-10T12:00	960	912	15.9	6.7	52	7	
2025-07-10T12:00	980	910	15.7	6.5	50	7	
2025-07-10T12:00	1000	908	15.5	6.4	50	7	
2025-07-10T12:00	1020	906	15.3	6.7	50	7	
2025-07-10T12:00	1040	904	15.0	6.9	50	7	
2025-07-10T12:00	1060	902	14.8	6.9	52	7	
2025-07-10T12:00	1080	899	14.7	6.8	53	7	
2025-07-10T12:00	1100	897	14.5	6.7	55	7	
2025-07-10T12:00	1120	895	14.3	6.8	58	7	
2025-07-10T12:00	1140	893	14.1	6.7	60	7	
2025-07-10T12:00	1160	891	13.9	6.5	63	7	
2025-07-10T12:00	1180	889	13.7	6.6	66	7	
2025-07-10T12:00	1200	887	13.5	6.5	68	6	
2025-07-10T12:00	1220	884	13.4	6.1	69	6	
2025-07-10T12:00	1240	882	13.2	6.2	67	6	
2025-07-10T12:00	1260	880	13.1	5.4	65	6	
2025-07-10T12:00	1280	878	13.2	4.2	62	6	
2025-07-10T12:00	1300	876	13.0	4.0	58	5	
2025-07-10T12:00	1320	874	12.9	4.0	55	5	
2025-07-10T12:00	1340	872	12.6	4.4	51	5	
2025-07-10T12:00	1360	870	12.4	4.3	48	5	
2025-07-10T12:00	1380	868	12.2	3.8	46	5	
2025-07-10T12:00	1400	866	12.1	3.3	44	5	
2025-07-10T12:00	1420	864	11.9	2.8	43	5	
2025-07-10T12:00	1440	862	11.8	2.6	42	5	
2025-07-10T12:00	1460	859	11.7	1.4	42	5	
2025-07-10T12:00	1480	857	11.5	1.2	41	5	
2025-07-10T12:00	1500	856	11.4	1.2	41	5	
2025-07-10T12:00	1520	854	11.2	1.0	41	5	
2025-07-10T12:00	1540	852	11.0	0.9	41	5	
2025-07-10T12:00	1560	849	10.8	0.9	41	5	
2025-07-10T12:00	1580	847	10.6	0.1	40	5	
2025-07-10T12:00	1600	845	10.4	0.7	38	5	
2025-07-10T12:00	1620	843	10.2	0.7	36	5	
2025-07-10T12:00	1640	841	10.0	0.1	33	5	
2025-07-10T12:00	1660	839	9.9	-0.7	31	5	
2025-07-10T12:00	1680	837	9.8	-1.3	31	6	
2025-07-10T12:00	1700	835	9.6	-1.3	31	6	
2025-07-10T12:00	1720	833	9.5	-1.8	33	6	
2025-07-10T12:00	1740	831	9.3	-2.2	36	6	
2025-07-10T12:00	1760	829	9.2	-2.6	39	6	
2025-07-10T12:00	1780	827	9.1	-3.1	42	5	
2025-07-10T12:00	1800	825	9.1	-4.0	45	5	
2025-07-10T12:00	1820	823	9.0	-4.1	46	5	
2025-07-10T12:00	1840	821	8.8	-4.3	48	5	
2025-07-10T12:00	1860	819	8.8	-5.0	48	5	
2025-07-10T12:00	1880	817	8.7	-5.2	48	5	
2025-07-10T12:00	1900	815	8.5	-5.5	49	5	
2025-07-10T12:00	1920	813	8.4	-5.6	50	5	
2025-07-10T12:00	1940	811	8.2	-5.8	51	5	
2025-07-10T12:00	1960	809	8.1	-6.0	54	6	
2025-07-10T12:00	1980	807	7.9	-6.0	56	6	
2025-07-10T12:00	2000	805	7.7	-6.1	58	6	
2025-07-10T12:00	2020	804	7.6	-6.2	61	6	
2025-07-10T12:00	2040	801	7.5	-6.6	63	5	
2025-07-10T12:00	2060	800	7.6	-7.4	65	5	
2025-07-10T12:00	2080	798	7.5	-8.0	67	5	
2025-07-10T12:00	2100	796	7.4	-8.8	68	5	
2025-07-10T12:00	2120	794	7.5	-11.2	70	5	
2025-07-10T12:00	2140	792	7.6	-14.7	72	4	
2025-07-10T12:00	2160	790	7.9	-20.5	73	4	
2025-07-10T12:00	2180	788	8.1	-23.6	73	4	
2025-07-10T12:00	2200	786	8.0	-24.4	72	4	
2025-07-10T12:00	2220	784	7.8	-24.9	71	4	
2025-07-10T12:00	2240	782	7.7	-25.7	68	5	
2025-07-10T12:00	2260	780	7.6	-26.0	66	5	
2025-07-10T12:00	2280	778	7.4	-26.1	64	5	
2025-07-10T12:00	2300	777	7.3	-26.3	64	5	
2025-07-10T12:00	2320	775	7.1	-26.5	64	5	
2025-07-10T12:00	2340	773	7.1	-26.7	66	5	
2025-07-10T12:00	2360	771	7.2	-25.4	68	5	
2025-07-10T12:00	2380	769	7.1	-23.7	70	5	
2025-07-10T12:00	2400	767	7.1	-22.1	72	5	
2025-07-10T12:00	2420	765	7.0	-20.8	73	5	
2025-07-10T12:00	2440	763	7.0	-20.5	73	4	
2025-07-10T12:00	2460	762	6.9	-20.2	72	4	
2025-07-10T12:00	2480	760	6.8	-19.7	70	4	
2025-07-10T12:00	2500	758	6.7	-19.7	66	4	
2025-07-10T12:00	2520	756	6.6	-20.2	62	4	
2025-07-10T12:00	2540	754	6.5	-20.0	57	4	
2025-07-10T12:00	2560	752	6.4	-20.0	53	4	
2025-07-10T12:00	2580	751	6.2	-20.0	52	4	
2025-07-10T12:00	2600	749	6.1	-20.1	51	4	
2025-07-10T12:00	2620	747	5.9	-20.1	50	3	
2025-07-10T12:00	2640	745	5.8	-20.1	51	3	
2025-07-10T12:00	2660	743	5.7	-20.1	51	3	
2025-07-10T12:00	2680	741	5.6	-20.2	49	3	
2025-07-10T12:00	2700	740	5.5	-20.3	47	3	
2025-07-10T12:00	2720	738	5.4	-20.3	43	3	
2025-07-10T12:00	2740	736	5.3	-20.3	40	3	
2025-07-10T12:00	2760	734	5.2	-20.4	38	4	
2025-07-10T12:00	2780	732	5.1	-19.9	37	4	
2025-07-10T12:00	2800	730	4.9	-19.4	36	4	
2025-07-10T12:00	2820	729	4.8	-19.6	35	5	
2025-07-10T12:00	2840	727	4.7	-19.8	35	5	
2025-07-10T12:00	2860	725	4.5	-19.9	33	5	
2025-07-10T12:00	2880	723	4.4	-20.0	31	5	
2025-07-10T12:00	2900	721	4.2	-20.1	28	5	
2025-07-10T12:00	2920	720	4.1	-20.1	25	5	
2025-07-10T12:00	2940	718	4.0	-20.2	21	6	
2025-07-10T12:00	2960	716	3.8	-20.3	18	6	
2025-07-10T12:00	2980	715	3.6	-20.4	15	6	
2025-07-10T12:00	3000	713	3.6	-21.1	14	6	
2025-07-10T12:00	3020	711	3.5	-22.4	15	6	
2025-07-10T12:00	3040	709	3.4	-22.4	16	6	
2025-07-10T12:00	3060	708	3.2	-22.6	17	6	
2025-07-10T12:00	3080	706	3.2	-24.4	18	6	
2025-07-10T12:00	3100	704	3.0	-24.9	20	6	
2025-07-10T12:00	3120	702	2.9	-25.3	21	6	
2025-07-10T12:00	3140	700	2.9	-25.7	22	6	
2025-07-10T12:00	3160	699	2.8	-26.0	22	6	
2025-07-10T12:00	3180	697	2.8	-26.4	24	6	
2025-07-10T12:00	3200	695	2.9	-27.0	25	6	
2025-07-10T12:00	3220	694	2.9	-27.1	27	6	
2025-07-10T12:00	3240	692	2.8	-28.0	29	6	
2025-07-10T12:00	3260	690	2.7	-29.2	30	6	
2025-07-10T12:00	3280	689	2.6	-28.3	29	6	
2025-07-10T12:00	3300	687	2.6	-23.1	27	6	
2025-07-10T12:00	3320	685	2.6	-13.3	22	6	
2025-07-10T12:00	3340	684	2.5	-8.2	17	6	
2025-07-10T12:00	3360	682	2.4	-6.0	12	6	
2025-07-10T12:00	3380	680	2.2	-6.4	8	6	
2025-07-10T12:00	3400	678	2.2	-6.8	7	6	
2025-07-10T12:00	3420	677	2.2	-7.8	7	6	
2025-07-10T12:00	3440	675	2.2	-8.6	8	6	
2025-07-10T12:00	3460	673	2.2	-8.7	10	7	
2025-07-10T12:00	3480	672	2.1	-8.4	11	7	
2025-07-10T12:00	3500	670	2.0	-8.5	11	7	
2025-07-10T12:00	3520	668	1.8	-8.4	11	8	
2025-07-10T12:00	3540	667	1.7	-8.1	11	8	
2025-07-10T12:00	3560	665	1.5	-8.0	10	8	
2025-07-10T12:00	3580	663	1.4	-7.9	9	8	
2025-07-10T12:00	3600	662	1.2	-7.9	8	7	
2025-07-10T12:00	3620	660	1.1	-8.3	6	7	
2025-07-10T12:00	3640	658	1.0	-8.7	3	7	
2025-07-10T12:00	3660	657	0.8	-8.7	360	8	
2025-07-10T12:00	3680	655	0.6	-8.6	357	8	
2025-07-10T12:00	3700	654	0.4	-8.6	355	8	
2025-07-10T12:00	3720	652	0.3	-8.7	354	8	
2025-07-10T12:00	3740	650	0.1	-8.8	354	8	
2025-07-10T12:00	3760	649	-0.1	-8.8	355	8	
2025-07-10T12:00	3780	647	-0.2	-9.2	356	8	
2025-07-10T12:00	3800	645	-0.3	-9.8	358	8	
2025-07-10T12:00	3820	644	-0.4	-9.8	359	8	
2025-07-10T12:00	3840	642	-0.5	-9.8	360	7	
2025-07-10T12:00	3860	641	-0.5	-10.4	360	7	
2025-07-10T12:00	3880	639	-0.6	-10.6	358	7	
2025-07-10T12:00	3900	637	-0.7	-11.2	358	7	
2025-07-10T12:00	3920	636	-0.6	-12.8	356	6	
2025-07-10T12:00	3940	634	-0.6	-14.5	356	7	
2025-07-10T12:00	3960	633	-0.6	-14.8	356	7	
2025-07-10T12:00	3980	631	-0.7	-15.0	356	7	
2025-07-10T12:00	4000	629	-0.8	-16.1	357	7	
2025-07-10T12:00	4020	628	-0.9	-14.7	357	7	
2025-07-10T12:00	4040	626	-1.1	-13.9	358	7	
2025-07-10T12:00	4060	625	-1.2	-13.3	359	7	
2025-07-10T12:00	4080	623	-1.4	-13.5	359	7	
2025-07-10T12:00	4100	622	-1.5	-13.6	0	7	
2025-07-10T12:00	4120	620	-1.7	-12.9	2	8	
2025-07-10T12:00	4140	619	-1.9	-12.9	2	8	
2025-07-10T12:00	4160	617	-2.1	-13.1	2	8	
2025-07-10T12:00	4180	615	-2.3	-13.0	2	8	
2025-07-10T12:00	4200	614	-2.5	-12.9	2	8	
2025-07-10T12:00	4220	612	-2.6	-12.9	0	9	
2025-07-10T12:00	4240	611	-2.8	-13.2	359	9	
2025-07-10T12:00	4260	609	-3.0	-13.3	358	9	
2025-07-10T12:00	4280	608	-3.1	-13.0	356	8	
2025-07-10T12:00	4300	606	-3.3	-13.2	355	8	
2025-07-10T12:00	4320	605	-3.4	-13.7	354	8	
2025-07-10T12:00	4340	603	-3.6	-14.2	354	8	
2025-07-10T12:00	4360	602	-3.7	-14.4	354	8	
2025-07-10T12:00	4380	600	-3.9	-14.1	355	8	
2025-07-10T12:00	4400	599	-4.0	-14.2	357	8	
2025-07-10T12:00	4420	597	-4.2	-14.4	357	8	
2025-07-10T12:00	4440	595	-4.3	-14.5	358	8	
2025-07-10T12:00	4460	594	-4.5	-14.5	357	8	
2025-07-10T12:00	4480	592	-4.7	-14.6	355	8	
2025-07-10T12:00	4500	591	-4.8	-14.6	353	8	
2025-07-10T12:00	4520	590	-4.9	-15.6	352	9	
2025-07-10T12:00	4540	588	-5.0	-16.7	350	9	
2025-07-10T12:00	4560	587	-5.1	-16.6	348	10	
2025-07-10T12:00	4580	585	-5.3	-15.9	347	10	
2025-07-10T12:00	4600	583	-5.5	-15.8	345	10	
2025-07-10T12:00	4620	582	-5.7	-16.2	342	10	
2025-07-10T12:00	4640	580	-5.8	-18.4	340	10	
2025-07-10T12:00	4660	579	-5.8	-19.4	338	10	
2025-07-10T12:00	4680	578	-5.9	-18.7	337	11	
2025-07-10T12:00	4700	576	-6.0	-18.1	338	11	
2025-07-10T12:00	4720	575	-6.1	-18.3	338	11	
2025-07-10T12:00	4740	573	-6.3	-18.7	340	11	
2025-07-10T12:00	4760	572	-6.4	-18.5	341	11	
2025-07-10T12:00	4780	570	-6.6	-18.4	342	11	
2025-07-10T12:00	4800	569	-6.7	-18.7	343	10	
2025-07-10T12:00	4820	567	-6.9	-19.0	342	10	
2025-07-10T12:00	4840	566	-7.0	-19.1	341	10	
2025-07-10T12:00	4860	564	-7.2	-19.3	340	10	
2025-07-10T12:00	4880	563	-7.3	-19.3	340	10	
2025-07-10T12:00	4900	562	-7.4	-19.9	339	11	
2025-07-10T12:00	4920	560	-7.6	-21.2	339	11	
2025-07-10T12:00	4940	559	-7.6	-22.9	339	11	
2025-07-10T12:00	4960	557	-7.4	-26.0	340	12	
2025-07-10T12:00	4980	556	-7.5	-26.5	342	12	
2025-07-10T12:00	5000	554	-7.6	-26.0	344	12	
2025-07-10T12:00	5020	553	-7.7	-24.9	346	11	
2025-07-10T12:00	5040	552	-7.7	-26.9	348	11	
2025-07-10T12:00	5060	550	-7.7	-25.3	349	11	
2025-07-10T12:00	5080	549	-7.7	-22.9	350	10	
2025-07-10T12:00	5100	547	-7.8	-23.2	351	10	
2025-07-10T12:00	5120	546	-7.9	-23.0	351	10	
2025-07-10T12:00	5140	544	-8.1	-23.2	351	10	
2025-07-10T12:00	5160	543	-8.2	-23.7	350	10	
2025-07-10T12:00	5180	542	-8.3	-24.3	350	10	
2025-07-10T12:00	5200	540	-8.4	-25.1	349	11	
2025-07-10T12:00	5220	539	-8.4	-26.7	348	11	
2025-07-10T12:00	5240	537	-8.4	-30.5	347	11	
2025-07-10T12:00	5260	536	-8.3	-32.8	345	11	
2025-07-10T12:00	5280	535	-8.2	-30.5	343	11	
2025-07-10T12:00	5300	533	-8.2	-29.7	342	12	
2025-07-10T12:00	5320	532	-8.2	-30.0	341	12	
2025-07-10T12:00	5340	531	-8.3	-28.4	340	12	
2025-07-10T12:00	5360	529	-8.4	-26.0	341	12	
2025-07-10T12:00	5380	528	-8.5	-26.0	341	12	
2025-07-10T12:00	5400	526	-8.7	-26.4	342	12	
2025-07-10T12:00	5420	525	-8.8	-26.0	342	12	
2025-07-10T12:00	5440	524	-8.9	-25.5	343	12	
2025-07-10T12:00	5460	523	-9.1	-25.0	343	12	
2025-07-10T12:00	5480	521	-9.2	-25.9	343	12	
2025-07-10T12:00	5500	520	-9.4	-26.0	342	12	
2025-07-10T12:00	5520	518	-9.6	-25.7	342	12	
2025-07-10T12:00	5540	517	-9.7	-25.5	342	12	
2025-07-10T12:00	5560	516	-9.9	-25.1	342	12	
2025-07-10T12:00	5580	514	-10.1	-25.6	342	12	
2025-07-10T12:00	5600	513	-10.3	-25.9	342	12	
2025-07-10T12:00	5620	512	-10.4	-26.1	342	12	
2025-07-10T12:00	5640	510	-10.6	-26.4	341	12	
2025-07-10T12:00	5660	509	-10.8	-26.8	340	12	
2025-07-10T12:00	5680	508	-10.9	-27.1	339	12	
2025-07-10T12:00	5700	506	-11.1	-26.9	338	11	
2025-07-10T12:00	5720	505	-11.3	-27.1	337	11	
2025-07-10T12:00	5740	504	-11.5	-26.8	336	11	
2025-07-10T12:00	5760	502	-11.7	-26.2	336	11	
2025-07-10T12:00	5780	501	-11.8	-26.5	337	11	
2025-07-10T12:00	5800	500	-11.9	-26.8	338	11	
2025-07-10T12:00	5820	499	-12.0	-25.1	341	11	
2025-07-10T12:00	5840	497	-11.8	-35.3	344	11	
2025-07-10T12:00	5860	496	-11.6	-44.0	346	11	
2025-07-10T12:00	5880	495	-11.7	-42.7	348	11	
2025-07-10T12:00	5900	493	-11.8	-42.8	350	11	
2025-07-10T12:00	5920	492	-11.9	-42.8	352	11	
2025-07-10T12:00	5940	491	-12.0	-42.3	352	11	
2025-07-10T12:00	5960	490	-12.1	-34.9	352	11	
2025-07-10T12:00	5980	488	-12.3	-27.1	351	11	
2025-07-10T12:00	6000	487	-12.5	-25.5	349	11	
2025-07-10T12:00	6020	486	-12.7	-24.9	348	11	
2025-07-10T12:00	6040	485	-12.9	-25.0	347	11	
2025-07-10T12:00	6060	483	-13.1	-23.7	348	11	
2025-07-10T12:00	6080	482	-13.3	-23.1	348	11	
2025-07-10T12:00	6100	481	-13.4	-23.4	349	12	
2025-07-10T12:00	6120	479	-13.5	-23.9	349	12	
2025-07-10T12:00	6140	478	-13.7	-24.5	349	12	
2025-07-10T12:00	6160	477	-13.8	-24.6	349	12	
2025-07-10T12:00	6180	476	-14.0	-24.8	349	12	
2025-07-10T12:00	6200	474	-14.1	-25.7	348	12	
2025-07-10T12:00	6220	473	-14.2	-28.8	347	13	
2025-07-10T12:00	6240	472	-14.3	-33.5	346	13	
2025-07-10T12:00	6260	471	-14.4	-27.9	345	13	
2025-07-10T12:00	6280	469	-14.5	-25.1	344	13	
2025-07-10T12:00	6300	468	-14.7	-26.4	343	13	
2025-07-10T12:00	6320	467	-14.7	-29.2	343	13	
2025-07-10T12:00	6340	466	-14.7	-28.4	343	14	
2025-07-10T12:00	6360	465	-14.8	-29.2	344	14	
2025-07-10T12:00	6380	463	-15.0	-29.0	345	14	
2025-07-10T12:00	6400	462	-15.1	-27.4	346	14	
2025-07-10T12:00	6420	461	-15.3	-26.0	347	14	
2025-07-10T12:00	6440	460	-15.4	-27.7	347	14	
2025-07-10T12:00	6460	458	-15.5	-27.3	348	13	
2025-07-10T12:00	6480	457	-15.6	-28.0	347	14	
2025-07-10T12:00	6500	456	-15.6	-29.4	347	14	
2025-07-10T12:00	6520	455	-15.7	-29.7	348	14	
2025-07-10T12:00	6540	454	-15.9	-29.8	348	14	
2025-07-10T12:00	6560	452	-16.0	-29.9	348	14	
2025-07-10T12:00	6580	451	-16.2	-30.1	348	14	
2025-07-10T12:00	6600	450	-16.4	-30.6	348	14	
2025-07-10T12:00	6620	449	-16.5	-31.2	347	15	
2025-07-10T12:00	6640	447	-16.7	-31.5	346	14	
2025-07-10T12:00	6660	446	-16.9	-32.1	345	14	
2025-07-10T12:00	6680	445	-17.0	-32.2	345	14	
2025-07-10T12:00	6700	444	-17.2	-32.7	344	14	
2025-07-10T12:00	6720	443	-17.4	-32.9	344	14	
2025-07-10T12:00	6740	442	-17.5	-33.8	344	15	
2025-07-10T12:00	6760	440	-17.6	-34.6	345	15	
2025-07-10T12:00	6780	439	-17.7	-33.9	345	15	
2025-07-10T12:00	6800	438	-17.9	-32.0	345	15	
2025-07-10T12:00	6820	437	-18.0	-31.7	345	15	
2025-07-10T12:00	6840	436	-18.2	-32.2	345	15	
2025-07-10T12:00	6860	435	-18.4	-32.4	344	16	
2025-07-10T12:00	6880	433	-18.5	-32.4	344	16	
2025-07-10T12:00	6900	432	-18.7	-32.6	344	16	
2025-07-10T12:00	6920	431	-18.9	-33.0	343	15	
2025-07-10T12:00	6940	430	-19.1	-33.3	343	15	
2025-07-10T12:00	6960	429	-19.3	-33.6	342	15	
2025-07-10T12:00	6980	428	-19.4	-33.8	342	15	
2025-07-10T12:00	7000	426	-19.6	-33.2	341	16	
2025-07-10T12:00	7020	425	-19.8	-32.9	341	16	
2025-07-10T12:00	7040	424	-19.9	-33.0	342	16	
2025-07-10T12:00	7060	423	-20.1	-33.3	342	17	
2025-07-10T12:00	7080	422	-20.3	-34.2	343	17	
2025-07-10T12:00	7100	421	-20.4	-36.1	344	17	
2025-07-10T12:00	7120	420	-20.5	-36.7	345	18	
2025-07-10T12:00	7140	418	-20.6	-36.8	346	18	
2025-07-10T12:00	7160	417	-20.8	-37.2	347	18	
2025-07-10T12:00	7180	416	-20.9	-38.1	348	18	
2025-07-10T12:00	7200	415	-21.0	-38.6	348	18	
2025-07-10T12:00	7220	414	-21.1	-38.9	349	18	
2025-07-10T12:00	7240	413	-21.3	-39.1	348	18	
2025-07-10T12:00	7260	412	-21.4	-39.5	348	18	
2025-07-10T12:00	7280	411	-21.6	-40.1	348	18	
2025-07-10T12:00	7300	410	-21.8	-40.4	347	18	
2025-07-10T12:00	7320	408	-22.0	-40.4	347	19	
2025-07-10T12:00	7340	407	-22.2	-40.4	347	19	
2025-07-10T12:00	7360	406	-22.3	-40.4	347	19	
2025-07-10T12:00	7380	405	-22.5	-39.6	346	19	
2025-07-10T12:00	7400	404	-22.7	-38.7	346	20	
2025-07-10T12:00	7420	403	-22.9	-38.3	346	20	
2025-07-10T12:00	7440	402	-23.1	-38.1	346	20	
2025-07-10T12:00	7460	401	-23.3	-37.9	346	20	
2025-07-10T12:00	7480	400	-23.4	-37.9	346	20	
2025-07-10T12:00	7500	399	-23.6	-38.0	347	20	
2025-07-10T12:00	7520	398	-23.8	-38.0	348	20	
2025-07-10T12:00	7540	396	-24.0	-38.6	349	20	
2025-07-10T12:00	7560	395	-24.2	-38.5	350	20	
2025-07-10T12:00	7580	394	-24.4	-38.4	351	20	
2025-07-10T12:00	7600	393	-24.6	-38.5	351	20	
2025-07-10T12:00	7620	392	-24.8	-38.4	352	20	
2025-07-10T12:00	7640	391	-25.0	-38.3	352	20	
2025-07-10T12:00	7660	390	-25.2	-38.5	352	19	
2025-07-10T12:00	7680	389	-25.3	-38.7	351	19	
2025-07-10T12:00	7700	388	-25.5	-38.8	350	19	
2025-07-10T12:00	7720	387	-25.7	-39.5	348	19	
2025-07-10T12:00	7740	385	-25.9	-39.6	346	18	
2025-07-10T12:00	7760	384	-26.0	-39.6	345	18	
2025-07-10T12:00	7780	383	-26.2	-39.7	344	18	
2025-07-10T12:00	7800	382	-26.4	-39.5	343	18	
2025-07-10T12:00	7820	381	-26.6	-39.6	342	18	
2025-07-10T12:00	7840	380	-26.7	-39.8	342	19	
2025-07-10T12:00	7860	379	-26.9	-40.7	342	19	
2025-07-10T12:00	7880	378	-27.0	-41.0	342	19	
2025-07-10T12:00	7900	377	-27.1	-40.0	342	19	
2025-07-10T12:00	7920	376	-27.3	-39.6	342	19	
2025-07-10T12:00	7940	375	-27.5	-39.4	342	19	
2025-07-10T12:00	7960	374	-27.7	-39.2	342	18	
2025-07-10T12:00	7980	373	-27.9	-39.0	342	18	
2025-07-10T12:00	8000	372	-28.1	-39.2	342	18	
2025-07-10T12:00	8020	371	-28.2	-39.4	342	18	
2025-07-10T12:00	8040	370	-28.4	-39.8	342	18	
2025-07-10T12:00	8060	369	-28.5	-40.2	342	18	
2025-07-10T12:00	8080	368	-28.7	-40.4	342	18	
2025-07-10T12:00	8100	367	-28.9	-40.6	342	18	
2025-07-10T12:00	8120	366	-29.1	-40.6	342	18	
2025-07-10T12:00	8140	365	-29.3	-40.8	343	19	
2025-07-10T12:00	8160	364	-29.4	-41.2	343	19	
2025-07-10T12:00	8180	363	-29.5	-42.2	343	19	
2025-07-10T12:00	8200	362	-29.7	-43.0	343	19	
2025-07-10T12:00	8220	361	-29.8	-43.3	343	19	
2025-07-10T12:00	8240	360	-29.9	-43.6	343	19	
2025-07-10T12:00	8260	359	-30.0	-44.1	343	19	
2025-07-10T12:00	8280	358	-30.1	-44.5	343	19	
2025-07-10T12:00	8300	357	-30.2	-44.3	343	19	
2025-07-10T12:00	8320	356	-30.4	-44.1	342	19	
2025-07-10T12:00	8340	355	-30.6	-43.9	342	18	
2025-07-10T12:00	8360	354	-30.8	-44.2	341	18	
2025-07-10T12:00	8380	353	-30.9	-44.2	340	18	
2025-07-10T12:00	8400	352	-31.0	-44.0	339	19	
2025-07-10T12:00	8420	351	-31.2	-43.9	339	19	
2025-07-10T12:00	8440	350	-31.4	-44.1	339	19	
2025-07-10T12:00	8460	349	-31.6	-44.4	339	19	
2025-07-10T12:00	8480	348	-31.8	-44.3	340	19	
2025-07-10T12:00	8500	347	-32.0	-44.2	340	19	
2025-07-10T12:00	8520	346	-32.1	-44.6	341	20	
2025-07-10T12:00	8540	345	-32.3	-45.1	342	19	
2025-07-10T12:00	8560	344	-32.4	-45.9	342	20	
2025-07-10T12:00	8580	343	-32.5	-46.5	343	20	
2025-07-10T12:00	8600	342	-32.7	-46.5	343	20	
2025-07-10T12:00	8620	341	-32.8	-47.0	344	20	
2025-07-10T12:00	8640	340	-32.9	-47.4	344	20	
2025-07-10T12:00	8660	339	-33.1	-48.1	344	20	
2025-07-10T12:00	8680	338	-33.2	-49.3	344	20	
2025-07-10T12:00	8700	337	-33.3	-49.8	344	20	
2025-07-10T12:00	8720	336	-33.5	-49.3	343	20	
2025-07-10T12:00	8740	335	-33.6	-49.2	343	20	
2025-07-10T12:00	8760	334	-33.8	-49.8	342	20	
2025-07-10T12:00	8780	333	-33.9	-50.3	342	20	
2025-07-10T12:00	8800	332	-34.0	-50.1	341	20	
2025-07-10T12:00	8820	331	-34.2	-50.0	341	20	
2025-07-10T12:00	8840	330	-34.4	-50.0	341	20	
2025-07-10T12:00	8860	329	-34.6	-50.3	341	20	
2025-07-10T12:00	8880	328	-34.7	-49.8	341	19	
2025-07-10T12:00	8900	327	-34.8	-49.1	341	19	
2025-07-10T12:00	8920	327	-34.9	-49.3	341	19	
2025-07-10T12:00	8940	326	-34.9	-49.6	341	19	
2025-07-10T12:00	8960	325	-35.1	-49.6	340	19	
2025-07-10T12:00	8980	324	-35.3	-49.5	340	19	
2025-07-10T12:00	9000	323	-35.5	-49.2	339	19	
2025-07-10T12:00	9020	322	-35.6	-49.5	339	19	
2025-07-10T12:00	9040	321	-35.8	-50.3	338	19	
2025-07-10T12:00	9060	320	-35.9	-50.7	337	19	
2025-07-10T12:00	9080	319	-36.1	-50.8	337	20	
2025-07-10T12:00	9100	318	-36.3	-50.8	337	20	
2025-07-10T12:00	9120	317	-36.4	-50.8	337	20	
2025-07-10T12:00	9140	316	-36.6	-51.0	337	20	
2025-07-10T12:00	9160	315	-36.8	-51.2	337	19	
2025-07-10T12:00	9180	315	-36.9	-51.2	337	19	
2025-07-10T12:00	9200	314	-37.1	-51.0	337	19	
2025-07-10T12:00	9220	313	-37.3	-50.8	337	19	
2025-07-10T12:00	9240	312	-37.4	-50.9	337	19	
2025-07-10T12:00	9260	311	-37.6	-51.0	337	19	
2025-07-10T12:00	9280	310	-37.8	-50.9	336	19	
2025-07-10T12:00	9300	309	-38.0	-51.2	336	19	
2025-07-10T12:00	9320	308	-38.1	-51.1	335	19	
2025-07-10T12:00	9340	307	-38.3	-50.5	335	19	
2025-07-10T12:00	9360	306	-38.5	-50.3	334	19	
2025-07-10T12:00	9380	305	-38.7	-50.4	334	19	
2025-07-10T12:00	9400	305	-38.9	-50.2	334	19	
2025-07-10T12:00	9420	304	-39.1	-50.1	334	19	
2025-07-10T12:00	9440	303	-39.2	-49.9	334	19	
2025-07-10T12:00	9460	302	-39.4	-49.3	334	20	
2025-07-10T12:00	9480	301	-39.6	-47.5	334	20	
2025-07-10T12:00	9500	300	-39.8	-48.1	334	20	
2025-07-10T12:00	9520	299	-39.9	-49.6	334	20	
2025-07-10T12:00	9540	298	-40.0	-50.8	334	19	
2025-07-10T12:00	9560	298	-40.2	-51.0	335	20	
2025-07-10T12:00	9580	297	-40.3	-51.1	335	20	
2025-07-10T12:00	9600	296	-40.5	-51.3	335	20	
2025-07-10T12:00	9620	295	-40.6	-51.7	335	20	
2025-07-10T12:00	9640	294	-40.8	-51.8	335	19	
2025-07-10T12:00	9660	293	-41.0	-52.0	335	19	
2025-07-10T12:00	9680	292	-41.2	-52.3	335	19	
2025-07-10T12:00	9700	292	-41.3	-52.7	335	19	
2025-07-10T12:00	9720	291	-41.5	-52.9	335	19	
2025-07-10T12:00	9740	290	-41.7	-52.9	335	19	
2025-07-10T12:00	9760	289	-41.8	-52.8	335	19	
2025-07-10T12:00	9780	288	-42.0	-52.8	335	19	
2025-07-10T12:00	9800	287	-42.2	-52.8	335	19	
2025-07-10T12:00	9820	286	-42.4	-53.3	335	20	
2025-07-10T12:00	9840	286	-42.5	-54.4	334	20	
2025-07-10T12:00	9860	285	-42.6	-55.3	334	20	
2025-07-10T12:00	9880	284	-42.8	-55.3	334	20	
2025-07-10T12:00	9900	283	-43.0	-55.2	334	20	
2025-07-10T12:00	9920	282	-43.2	-55.4	334	20	
2025-07-10T12:00	9940	281	-43.3	-55.5	334	20	
2025-07-10T12:00	9960	281	-43.4	-55.4	334	20	
2025-07-10T12:00	9980	280	-43.6	-55.3	333	20	
2025-07-10T12:00	10000	279	-43.8	-55.3	333	20	
2025-07-10T12:00	10018	278	-44.0	-55.5	333	20	
2025-07-10T12:00	10050	277	-44.2	-55.3	333	20	
2025-07-10T12:00	10100	275	-44.6	-55.6	332	20	
2025-07-10T12:00	10150	273	-45.1	-55.6	331	20	
2025-07-10T12:00	10200	271	-45.6	-55.9	331	20	
2025-07-10T12:00	10250	269	-46.0	-56.1	330	20	
2025-07-10T12:00	10300	267	-46.4	-56.2	331	20	
2025-07-10T12:00	10350	265	-46.8	-56.8	331	20	
2025-07-10T12:00	10400	263	-47.2	-57.4	332	20	
2025-07-10T12:00	10450	261	-47.7	-58.0	333	20	
2025-07-10T12:00	10500	259	-48.0	-58.5	332	20	
2025-07-10T12:00	10550	257	-48.5	-58.5	332	21	
2025-07-10T12:00	10600	255	-48.9	-58.6	331	21	
2025-07-10T12:00	10650	253	-49.4	-58.7	330	21	
2025-07-10T12:00	10700	251	-49.9	-58.1	330	21	
2025-07-10T12:00	10750	249	-50.3	-58.2	329	22	
2025-07-10T12:00	10800	247	-50.7	-58.7	330	22	
2025-07-10T12:00	10850	245	-51.1	-58.7	331	22	
2025-07-10T12:00	10900	243	-51.6	-58.9	330	22	
2025-07-10T12:00	10950	241	-52.0	-59.3	329	21	
2025-07-10T12:00	11000	239	-52.4	-59.2	328	21	
2025-07-10T12:00	11050	238	-52.8	-59.7	327	21	
2025-07-10T12:00	11100	236	-53.2	-59.8	327	21	
2025-07-10T12:00	11150	234	-53.7	-59.8	326	22	
2025-07-10T12:00	11200	232	-54.2	-59.8	327	22	
2025-07-10T12:00	11250	230	-54.6	-60.2	329	22	
2025-07-10T12:00	11300	229	-55.0	-60.7	329	22	
2025-07-10T12:00	11350	227	-55.4	-60.6	328	22	
2025-07-10T12:00	11400	225	-55.8	-60.7	328	22	
2025-07-10T12:00	11450	223	-56.3	-61.4	328	22	
2025-07-10T12:00	11500	222	-56.6	-62.1	327	22	
2025-07-10T12:00	11550	220	-56.9	-62.3	327	22	
2025-07-10T12:00	11600	218	-57.4	-62.4	326	21	
2025-07-10T12:00	11650	216	-57.8	-62.7	326	21	
2025-07-10T12:00	11700	215	-58.1	-63.1	326	20	
2025-07-10T12:00	11750	213	-58.4	-63.4	326	20	
2025-07-10T12:00	11800	211	-58.8	-64.0	324	20	
2025-07-10T12:00	11850	210	-59.1	-64.7	321	21	
2025-07-10T12:00	11900	208	-59.0	-65.5	320	22	
2025-07-10T12:00	11950	206	-57.9	-66.4	321	23	
2025-07-10T12:00	12000	205	-57.5	-67.6	323	23	
2025-07-10T12:00	12050	203	-57.4	-68.3	325	23	
2025-07-10T12:00	12100	201	-56.8	-71.2	328	22	
2025-07-10T12:00	12150	200	-56.4	-73.7	330	22	
2025-07-10T12:00	12200	198	-56.0	-74.1	328	21	
2025-07-10T12:00	12250	197	-55.4	-74.0	323	20	
2025-07-10T12:00	12300	195	-54.6	-73.2	320	21	
2025-07-10T12:00	12350	194	-54.3	-72.8	321	21	
2025-07-10T12:00	12400	192	-54.5	-73.3	323	21	
2025-07-10T12:00	12450	191	-54.1	-75.3	325	19	
2025-07-10T12:00	12500	189	-53.4	-77.9	325	19	
2025-07-10T12:00	12550	188	-52.9	-78.4	321	18	
2025-07-10T12:00	12600	186	-52.6	-79.2	316	19	
2025-07-10T12:00	12650	185	-52.1	-80.1	314	20	
2025-07-10T12:00	12700	183	-52.3	-80.0	315	20	
2025-07-10T12:00	12750	182	-52.6	-79.7	316	20	
2025-07-10T12:00	12800	181	-52.4	-77.9	318	19	
2025-07-10T12:00	12850	179	-52.6	-76.4	319	19	
2025-07-10T12:00	12900	178	-52.7	-75.7	319	19	
2025-07-10T12:00	12950	176	-52.8	-75.6	317	19	
2025-07-10T12:00	13000	175	-53.1	-75.9	317	19	
2025-07-10T12:00	13050	174	-53.2	-76.3	317	19	
2025-07-10T12:00	13100	172	-53.3	-78.1	316	19	
2025-07-10T12:00	13150	171	-53.1	-79.6	313	18	
2025-07-10T12:00	13200	170	-52.8	-79.8	311	18	
2025-07-10T12:00	13250	168	-52.9	-80.2	310	18	
2025-07-10T12:00	13300	167	-52.9	-81.2	310	18	
2025-07-10T12:00	13350	166	-52.7	-81.5	311	18	
2025-07-10T12:00	13400	165	-52.8	-81.6	314	18	
2025-07-10T12:00	13450	163	-52.8	-81.6	315	17	
2025-07-10T12:00	13500	162	-52.7	-81.7	314	17	
2025-07-10T12:00	13550	161	-52.3	-81.7	311	17	
2025-07-10T12:00	13600	160	-52.0	-81.7	309	17	
2025-07-10T12:00	13650	158	-52.0	-81.8	308	17	
2025-07-10T12:00	13700	157	-52.0	-81.9	309	18	
2025-07-10T12:00	13750	156	-52.1	-82.0	311	17	
2025-07-10T12:00	13800	155	-52.2	-82.1	312	17	
2025-07-10T12:00	13850	153	-51.8	-82.1	312	18	
2025-07-10T12:00	13900	152	-51.8	-82.1	311	17	
2025-07-10T12:00	13950	151	-52.0	-82.1	311	17	
2025-07-10T12:00	14000	150	-52.2	-82.0	310	16	
2025-07-10T12:00	14050	149	-52.3	-81.7	306	16	
2025-07-10T12:00	14100	148	-52.6	-81.7	303	16	
2025-07-10T12:00	14150	147	-52.9	-81.7	304	16	
2025-07-10T12:00	14200	145	-53.1	-81.7	307	16	
2025-07-10T12:00	14250	144	-53.0	-81.7	310	16	
2025-07-10T12:00	14300	143	-53.0	-81.8	312	16	
2025-07-10T12:00	14350	142	-53.2	-81.9	310	16	
2025-07-10T12:00	14400	141	-53.3	-81.9	307	16	
2025-07-10T12:00	14450	140	-53.5	-81.9	305	17	
2025-07-10T12:00	14500	139	-53.7	-81.9	306	18	
2025-07-10T12:00	14550	138	-54.0	-81.9	309	19	
2025-07-10T12:00	14600	137	-53.9	-81.9	312	19	
2025-07-10T12:00	14650	136	-54.0	-81.9	313	19	
2025-07-10T12:00	14700	135	-54.1	-82.0	315	18	
2025-07-10T12:00	14750	134	-54.2	-81.9	318	18	
2025-07-10T12:00	14800	132	-54.4	-81.9	320	17	
2025-07-10T12:00	14850	131	-54.5	-81.8	320	17	
2025-07-10T12:00	14900	130	-54.5	-81.8	320	17	
2025-07-10T12:00	14950	129	-54.7	-82.1	321	16	
2025-07-10T12:00	15000	128	-55.0	-82.4	320	15	
2025-07-10T12:00	15050	127	-55.2	-82.7	318	14	
2025-07-10T12:00	15100	126	-55.5	-82.9	315	14	
2025-07-10T12:00	15150	125	-55.8	-83.1	311	13	
2025-07-10T12:00	15200	124	-55.9	-83.2	309	13	
2025-07-10T12:00	15250	123	-55.8	-83.4	309	13	
2025-07-10T12:00	15300	122	-56.0	-83.7	309	13	
2025-07-10T12:00	15350	122	-56.2	-83.9	309	12	
2025-07-10T12:00	15400	121	-56.3	-83.9	309	12	
2025-07-10T12:00	15450	120	-56.7	-84.0	309	12	
2025-07-10T12:00	15500	119	-56.9	-83.6	311	13	
2025-07-10T12:00	15550	118	-56.8	-83.2	311	14	
2025-07-10T12:00	15600	117	-56.7	-83.1	309	14	
2025-07-10T12:00	15650	116	-56.6	-83.2	305	13	
2025-07-10T12:00	15700	115	-56.7	-83.6	303	13	
2025-07-10T12:00	15750	114	-56.7	-84.0	305	13	
2025-07-10T12:00	15800	113	-56.5	-84.3	308	13	
2025-07-10T12:00	15850	112	-56.6	-84.5	309	13	
2025-07-10T12:00	15900	111	-56.5	-84.4	308	13	
2025-07-10T12:00	15950	111	-56.5	-84.6	309	14	
2025-07-10T12:00	16000	110	-56.4	-84.7	311	15	
2025-07-10T12:00	16050	109	-56.1	-84.6	315	15	
2025-07-10T12:00	16100	108	-56.1	-84.7	319	15	
2025-07-10T12:00	16150	107	-56.2	-84.7	322	14	
2025-07-10T12:00	16200	106	-56.2	-84.6	324	13	
2025-07-10T12:00	16250	105	-56.5	-84.6	325	13	
2025-07-10T12:00	16300	105	-56.5	-84.6	325	13	
2025-07-10T12:00	16350	104	-56.6	-84.7	326	13	
2025-07-10T12:00	16400	103	-56.6	-84.9	329	12	
2025-07-10T12:00	16450	102	-56.4	-84.9	332	11	
2025-07-10T12:00	16500	101	-56.5	-85.0	335	10	
2025-07-10T12:00	16550	101	-56.6	-85.1	336	9	
2025-07-10T12:00	16600	100	-56.5	-85.1	337	8	
2025-07-10T12:00	16650	99	-56.2	-85.1	334	7	
2025-07-10T12:00	16700	98	-56.3	-85.1	328	6	
2025-07-10T12:00	16750	97	-56.3	-85.1	324	7	
2025-07-10T12:00	16800	97	-56.2	-85.1	327	7	
2025-07-10T12:00	16850	96	-56.1	-85.3	330	8	
2025-07-10T12:00	16900	95	-55.6	-85.2	329	8	
2025-07-10T12:00	16950	94	-55.2	-85.2	322	8	
2025-07-10T12:00	17000	94	-54.8	-85.1	316	8	
2025-07-10T12:00	17050	93	-54.6	-84.9	322	8	
2025-07-10T12:00	17100	92	-54.7	-84.8	334	8	
2025-07-10T12:00	17150	92	-54.8	-84.9	347	7	
2025-07-10T12:00	17200	91	-54.7	-84.9	358	6	
2025-07-10T12:00	17250	90	-54.5	-84.9	7	5	
2025-07-10T12:00	17300	89	-54.4	-84.8	11	3	
2025-07-10T12:00	17350	89	-54.6	-84.7	5	3	
2025-07-10T12:00	17400	88	-54.9	-84.8	355	2	
2025-07-10T12:00	17450	87	-55.0	-84.8	349	2	
2025-07-10T12:00	17500	87	-55.1	-84.9	4	1	
2025-07-10T12:00	17550	86	-55.4	-85.0	78	1	
2025-07-10T12:00	17600	85	-55.6	-85.0	140	1	
2025-07-10T12:00	17650	85	-55.8	-85.1	199	1	
2025-07-10T12:00	17700	84	-55.8	-85.3	235	1	
2025-07-10T12:00	17750	83	-55.5	-85.3	251	1	
2025-07-10T12:00	17800	83	-55.4	-85.1	258	1	
2025-07-10T12:00	17850	82	-55.6	-85.2	284	2	
2025-07-10T12:00	17900	81	-55.6	-85.2	306	3	
2025-07-10T12:00	17950	81	-55.7	-85.2	313	4	
2025-07-10T12:00	18000	80	-55.9	-85.3	317	5	
2025-07-10T12:00	18050	79	-56.0	-85.3	322	5	
2025-07-10T12:00	18100	79	-56.1	-85.4	329	4	
2025-07-10T12:00	18150	78	-56.3	-85.5	335	3	
2025-07-10T12:00	18200	78	-56.1	-85.5	332	2	
2025-07-10T12:00	18250	77	-56.3	-85.5	304	1	
2025-07-10T12:00	18300	76	-56.7	-85.5	263	1	
2025-07-10T12:00	18350	76	-57.1	-85.6	248	2	
2025-07-10T12:00	18400	75	-57.5	-85.7	259	2	
2025-07-10T12:00	18450	75	-57.6	-85.9	287	2	
2025-07-10T12:00	18500	74	-57.5	-86.0	305	2	
2025-07-10T12:00	18550	73	-57.4	-86.0	301	1	
2025-07-10T12:00	18600	73	-57.5	-86.0	292	1	
2025-07-10T12:00	18650	72	-57.5	-86.0	301	2	
2025-07-10T12:00	18700	72	-57.5	-86.2	313	3	
2025-07-10T12:00	18750	71	-57.2	-86.1	323	5	
2025-07-10T12:00	18800	71	-56.9	-86.1	330	5	
2025-07-10T12:00	18850	70	-56.6	-86.1	336	5	
2025-07-10T12:00	18900	69	-56.4	-86.0	338	4	
2025-07-10T12:00	18950	69	-56.4	-86.0	339	4	
2025-07-10T12:00	19000	68	-56.1	-86.0	345	3	
2025-07-10T12:00	19050	68	-55.8	-85.8	359	3	
2025-07-10T12:00	19100	67	-55.9	-85.8	12	3	
2025-07-10T12:00	19150	67	-56.0	-85.9	17	3	
2025-07-10T12:00	19200	66	-55.6	-85.8	15	3	
2025-07-10T12:00	19250	66	-55.4	-85.9	16	3	
2025-07-10T12:00	19300	65	-54.8	-85.8	21	4	
2025-07-10T12:00	19350	65	-54.4	-85.5	27	4	
2025-07-10T12:00	19400	64	-54.4	-85.4	38	3	
2025-07-10T12:00	19450	64	-54.6	-85.3	60	3	
2025-07-10T12:00	19500	63	-54.9	-85.3	86	3	
2025-07-10T12:00	19550	63	-55.1	-85.4	100	2	
2025-07-10T12:00	19600	62	-55.4	-85.4	95	2	
2025-07-10T12:00	19650	62	-55.7	-85.5	73	2	
2025-07-10T12:00	19700	61	-56.1	-85.6	44	2	
2025-07-10T12:00	19750	61	-56.4	-85.8	28	2	
2025-07-10T12:00	19800	60	-56.6	-86.0	25	3	
2025-07-10T12:00	19850	60	-56.5	-86.2	32	3	
2025-07-10T12:00	19900	59	-55.9	-86.1	49	3	
2025-07-10T12:00	19950	59	-55.3	-86.1	71	2	
2025-07-10T12:00	20000	58	-55.1	-86.0	89	3	
2025-07-10T12:00	20050	58	-54.9		101	3	
2025-07-10T12:00	20100	58	-54.9		110	3	
2025-07-10T12:00	20150	57	-55.2		120	3	
2025-07-10T12:00	20200	57	-55.2		130	3	
2025-07-10T12:00	20250	56	-55.1		129	1	
2025-07-10T12:00	20300	56	-54.8		82	1	
2025-07-10T12:00	20350	55	-54.7		52	1	
2025-07-10T12:00	20400	55	-54.5		64	1	
2025-07-10T12:00	20450	54	-54.8		62	2	
2025-07-10T12:00	20500	54	-54.9		47	3	
2025-07-10T12:00	20550	54	-54.4		40	6	
2025-07-10T12:00	20600	53	-54.2		42	7	
2025-07-10T12:00	20650	53	-54.1		49	7	
2025-07-10T12:00	20700	52	-53.7		60	6	
2025-07-10T12:00	20750	52	-53.4		72	5	
2025-07-10T12:00	20800	52	-53.3		82	4	
2025-07-10T12:00	20850	51	-53.5		85	3	
2025-07-10T12:00	20900	51	-53.6		76	3	
2025-07-10T12:00	20950	50	-53.1		65	4	
2025-07-10T12:00	21000	50	-52.7		60	5	
2025-07-10T12:00	21050	50	-52.7		58	6	
2025-07-10T12:00	21100	49	-53.0		56	7	
2025-07-10T12:00	21150	49	-53.0		55	8	
2025-07-10T12:00	21200	48	-53.1		53	9	
2025-07-10T12:00	21250	48	-53.2		51	9	
2025-07-10T12:00	21300	48	-53.3		52	8	
2025-07-10T12:00	21350	47	-53.6		58	8	
2025-07-10T12:00	21400	47	-54.0		66	8	
2025-07-10T12:00	21450	47	-54.0		71	9	
2025-07-10T12:00	21500	46	-53.8		73	10	
2025-07-10T12:00	21550	46	-53.6		73	11	
2025-07-10T12:00	21600	46	-53.6		74	12	
2025-07-10T12:00	21650	45	-53.8		77	12	
2025-07-10T12:00	21700	45	-53.9		82	13	
2025-07-10T12:00	21750	45	-54.1		88	13	
2025-07-10T12:00	21800	44	-53.9		94	13	
2025-07-10T12:00	21850	44	-53.9		100	12	
2025-07-10T12:00	21900	43	-54.1		105	12	
2025-07-10T12:00	21950	43	-54.4		110	11	
2025-07-10T12:00	22000	43	-54.6		115	10	
2025-07-10T12:00	22050	42	-54.7		116	9	
2025-07-10T12:00	22100	42	-54.7		113	7	
2025-07-10T12:00	22150	42	-54.6		105	6	
2025-07-10T12:00	22200	41	-54.2		97	6	
2025-07-10T12:00	22250	41	-53.9		94	7	
2025-07-10T12:00	22300	41	-53.2		96	8	
2025-07-10T12:00	22350	41	-52.9		99	8	
2025-07-10T12:00	22400	40	-52.7		99	8	
2025-07-10T12:00	22450	40	-52.4		96	7	
2025-07-10T12:00	22500	40	-52.1		90	7	
2025-07-10T12:00	22550	39	-51.8		82	6	
2025-07-10T12:00	22600	39	-51.2		77	6	
2025-07-10T12:00	22650	39	-50.7		73	6	
2025-07-10T12:00	22700	38	-50.4		69	6	
2025-07-10T12:00	22750	38	-50.4		65	7	
2025-07-10T12:00	22800	38	-50.5		64	9	
2025-07-10T12:00	22850	38	-50.5		65	10	
2025-07-10T12:00	22900	37	-50.7		68	11	
2025-07-10T12:00	22950	37	-50.9		70	12	
2025-07-10T12:00	23000	37	-51.2		72	12	
2025-07-10T12:00	23050	36	-51.3		75	13	
2025-07-10T12:00	23100	36	-51.3		81	13	
2025-07-10T12:00	23150	36	-51.3		89	14	
2025-07-10T12:00	23200	36	-51.5		95	14	
2025-07-10T12:00	23250	35	-51.6		101	13	
2025-07-10T12:00	23300	35	-51.6		107	12	
2025-07-10T12:00	23350	35	-51.3		115	10	
2025-07-10T12:00	23400	34	-51.2		121	8	
2025-07-10T12:00	23450	34	-51.0		124	7	
2025-07-10T12:00	23500	34	-51.0		120	6	
2025-07-10T12:00	23550	34	-50.9		110	6	
2025-07-10T12:00	23600	33	-50.8		100	5	
2025-07-10T12:00	23650	33	-50.7		95	6	
2025-07-10T12:00	23700	33	-50.6		95	6	
2025-07-10T12:00	23750	33	-50.6		95	6	
2025-07-10T12:00	23800	32	-50.7		94	5	
2025-07-10T12:00	23850	32	-50.6		90	5	
2025-07-10T12:00	23900	32	-50.8		87	4	
2025-07-10T12:00	23950	32	-50.9		86	5	
2025-07-10T12:00	24000	31	-51.0		85	5	
2025-07-10T12:00	24050	31	-51.0		81	7	
2025-07-10T12:00	24100	31	-51.0		78	8	
2025-07-10T12:00	24150	31	-51.0		76	10	
2025-07-10T12:00	24200	30	-50.8		77	12	
2025-07-10T12:00	24250	30	-50.6		81	12	
2025-07-10T12:00	24300	30	-50.6		88	12	
2025-07-10T12:00	24350	30	-50.9		92	11	
2025-07-10T12:00	24400	30	-50.9		94	10	
2025-07-10T12:00	24450	29	-50.9		98	10	
2025-07-10T12:00	24500	29	-51.0		104	9	
2025-07-10T12:00	24550	29	-51.0		108	8	
2025-07-10T12:00	24600	29	-51.1		112	8	
2025-07-10T12:00	24650	28	-51.1		111	7	
2025-07-10T12:00	24700	28	-51.1		104	7	
2025-07-10T12:00	24750	28	-51.2		92	6	
2025-07-10T12:00	24800	28	-51.1		84	7	
2025-07-10T12:00	24850	28	-51.0		84	9	
2025-07-10T12:00	24900	27	-50.9		88	10	
2025-07-10T12:00	24950	27	-50.8		92	11	
2025-07-10T12:00	25000	27	-51.0		96	12	
2025-07-10T12:00	25050	27	-51.2		98	13	
2025-07-10T12:00	25100	27	-51.4		101	13	
2025-07-10T12:00	25150	26	-51.4		104	14	
2025-07-10T12:00	25200	26	-51.5		107	14	
2025-07-10T12:00	25250	26	-51.4		110	14	
2025-07-10T12:00	25300	26	-51.3		112	12	
2025-07-10T12:00	25350	26	-51.4		112	11	
2025-07-10T12:00	25400	25	-51.2		108	9	
2025-07-10T12:00	25450	25	-50.9		103	9	
2025-07-10T12:00	25500	25	-50.6		99	10	
2025-07-10T12:00	25550	25	-50.1		96	11	
2025-07-10T12:00	25600	25	-49.6		93	10	
2025-07-10T12:00	25650	24	-49.3		90	9	
2025-07-10T12:00	25700	24	-49.2		85	9	
2025-07-10T12:00	25750	24	-49.1		79	9	
2025-07-10T12:00	25800	24	-49.0		74	9	
2025-07-10T12:00	25850	24	-48.8		70	11	
2025-07-10T12:00	25900	23	-48.7		71	12	
2025-07-10T12:00	25950	23	-48.6		73	12	
2025-07-10T12:00	26000	23	-48.5		73	13	
2025-07-10T12:00	26050	23	-48.2		72	13	
2025-07-10T12:00	26100	23	-48.1		72	14	
2025-07-10T12:00	26150	23	-47.9		73	15	
2025-07-10T12:00	26200	22	-47.9		76	15	
2025-07-10T12:00	26250	22	-47.9		80	15	
2025-07-10T12:00	26300	22	-47.9		82	14	
2025-07-10T12:00	26350	22	-47.9		83	15	
2025-07-10T12:00	26400	22	-48.0		85	15	
2025-07-10T12:00	26450	22	-48.2		87	15	
2025-07-10T12:00	26500	21	-48.2		89	15	
2025-07-10T12:00	26550	21	-48.2		89	16	
2025-07-10T12:00	26600	21	-48.2		90	17	
2025-07-10T12:00	26650	21	-48.0		92	17	
2025-07-10T12:00	26700	21	-48.1		95	17	
2025-07-10T12:00	26750	21	-48.3		99	17	
2025-07-10T12:00	26800	20	-48.4		102	18	
2025-07-10T12:00	26850	20	-48.4		104	18	
2025-07-10T12:00	26900	20	-48.2		107	18	
2025-07-10T12:00	26950	20	-48.1		111	18	
2025-07-10T12:00	27000	20	-47.8		115	17	
2025-07-10T12:00	27050	20	-47.7		119	17	
2025-07-10T12:00	27100	20	-47.7		122	16	
2025-07-10T12:00	27150	19	-47.6		125	15	
2025-07-10T12:00	27200	19	-47.5		127	14	
2025-07-10T12:00	27250	19	-47.3		127	13	
2025-07-10T12:00	27300	19	-47.1		127	13	
2025-07-10T12:00	27350	19	-46.9		127	14	
2025-07-10T12:00	27400	19	-46.9		127	14	
2025-07-10T12:00	27450	19	-46.7		127	14	
2025-07-10T12:00	27500	18	-46.4		125	13	
2025-07-10T12:00	27550	18	-46.1		123	12	
2025-07-10T12:00	27600	18	-46.1		121	11	
2025-07-10T12:00	27650	18	-45.9		116	10	
2025-07-10T12:00	27700	18	-45.5		109	10	
2025-07-10T12:00	27750	18	-45.2		104	11	
2025-07-10T12:00	27800	18	-45.0		101	13	
2025-07-10T12:00	27850	17	-45.1		102	14	
2025-07-10T12:00	27900	17	-45.0		104	15	
2025-07-10T12:00	27950	17	-44.7		107	15	
2025-07-10T12:00	28000	17	-44.4		109	14	
2025-07-10T12:00	28050	17	-44.0		108	14	
2025-07-10T12:00	28100	17	-43.7		106	13	
2025-07-10T12:00	28150	17	-43.5		104	12	
2025-07-10T12:00	28200	17	-43.6		102	12	
2025-07-10T12:00	28250	16	-43.7		99	12	
2025-07-10T12:00	28300	16	-43.8		96	13	
2025-07-10T12:00	28350	16	-43.7		95	14	
2025-07-10T12:00	28400	16	-43.7		95	16	
2025-07-10T12:00	28450	16	-43.7		96	16	
2025-07-10T12:00	28500	16	-43.7		100	16	
2025-07-10T12:00	28550	16	-43.7		105	17	
2025-07-10T12:00	28600	16	-43.5		109	17	
2025-07-10T12:00	28650	16	-43.4		111	17	
2025-07-10T12:00	28700	15	-42.9		111	15	
2025-07-10T12:00	28750	15	-42.6		109	14	
2025-07-10T12:00	28800	15	-42.5		107	14	
2025-07-10T12:00	28850	15	-42.2		105	13	
2025-07-10T12:00	28900	15	-42.1		104	14	
2025-07-10T12:00	28950	15	-41.9		105	14	
2025-07-10T12:00	29000	15	-41.8		108	15	
2025-07-10T12:00	29050	15	-41.8		111	16	
2025-07-10T12:00	29100	15	-41.8		113	16	
2025-07-10T12:00	29150	14	-41.8		114	16	
2025-07-10T12:00	29200	14	-41.8		114	15	
2025-07-10T12:00	29250	14	-41.7		112	14	
2025-07-10T12:00	29300	14	-41.7		107	13	
2025-07-10T12:00	29350	14	-41.8		102	12	
2025-07-10T12:00	29400	14	-41.8		99	11	
2025-07-10T12:00	29450	14	-41.6		101	11	
2025-07-10T12:00	29500	14	-41.5		105	12	
2025-07-10T12:00	29550	14	-41.5		110	12	
2025-07-10T12:00	29600	13	-41.6		115	11	
2025-07-10T12:00	29650	13	-41.8		118	11	
2025-07-10T12:00	29700	13	-41.8		116	10	
2025-07-10T12:00	29750	13	-41.6		113	9	
2025-07-10T12:00	29800	13	-41.5		110	9	
2025-07-10T12:00	29850	13	-41.3		106	10	
2025-07-10T12:00	29900	13	-41.2		101	11	
2025-07-10T12:00	29950	13	-41.0		94	11	
2025-07-10T12:00	30000	13	-40.9		87	11	
2025-07-10T12:00	30050	13	-40.9		83	11	
2025-07-10T12:00	30100	13	-40.7		81	12	
2025-07-10T12:00	30150	12	-40.5		81	12	
2025-07-10T12:00	30200	12	-40.4		83	12	
2025-07-10T12:00	30250	12	-40.3		84	12	
2025-07-10T12:00	30300	12	-40.4		86	12	
2025-07-10T12:00	30350	12	-40.3		90	11	
2025-07-10T12:00	30400	12	-40.2		97	11	
2025-07-10T12:00	30450	12	-40.1		103	11	
2025-07-10T12:00	30500	12	-40.0		103	11	
2025-07-10T12:00	30550	12	-39.8		97	10	
2025-07-10T12:00	30600	12	-39.6		88	11	
2025-07-10T12:00	30650	12	-39.5		82	11	
2025-07-10T12:00	30700	11	-39.5		78	12	
2025-07-10T12:00	30750	11	-39.6		77	13	
2025-07-10T12:00	30800	11	-39.7		78	14	
2025-07-10T12:00	30850	11	-39.8		80	16	
2025-07-10T12:00	30900	11	-39.9		83	17	
2025-07-10T12:00	30950	11	-40.0		86	19	
2025-07-10T12:00	31000	11	-40.1		89	20	
2025-07-10T12:00	31050	11	-40.1		91	20	
2025-07-10T12:00	31100	11	-40.1		92	20	
2025-07-10T12:00	31150	11	-39.9		92	20	
2025-07-10T12:00	31200	11	-39.7		91	18	
2025-07-10T12:00	31250	11	-39.7		90	17	
2025-07-10T12:00	31300	11	-39.7		89	17	
2025-07-10T12:00	31350	10	-39.8		90	16	
2025-07-10T12:00	31400	10	-39.9		93	16	
2025-07-10T12:00	31450	10	-40.0		95	15	
2025-07-10T12:00	31500	10	-40.0		97	15	
2025-07-10T12:00	31550	10	-39.9		97	15	
2025-07-10T12:00	31600	10	-39.9		97	15	
2025-07-10T12:00	31650	10	-39.7		98	15	
2025-07-10T12:00	31700	10	-39.5		97	15	
2025-07-10T12:00	31750	10	-39.3		96	15	
2025-07-10T12:00	31800	10	-39.1		95	16	
2025-07-10T12:00	31850	10	-38.9		96	16	
2025-07-10T12:00	31900	10	-38.8		99	16	
2025-07-10T12:00	31950	10	-38.9		100	15	
2025-07-10T12:00	32000	9	-38.9		100	14	
2025-07-10T12:00	32050	9	-38.6		98	12	
2025-07-10T12:00	32100	9	-38.4		96	10	
2025-07-10T12:00	32150	9	-38.2		94	9	
2025-07-10T12:00	32200	9	-38.2		90	8	
2025-07-10T12:00	32250	9	-38.1		84	8	
2025-07-10T12:00	32300	9	-37.7		79	9	
2025-07-10T12:00	32350	9	-37.3		77	10	
2025-07-10T12:00	32400	9	-37.1		78	11	
2025-07-10T12:00	32450	9	-36.8		80	13	
2025-07-10T12:00	32500	9	-36.6		83	15	
2025-07-10T12:00	32550	9	-36.6		85	17	
2025-07-10T12:00	32600	9	-36.5		88	17	
2025-07-10T12:00	32650	9	-36.2		92	17	
2025-07-10T12:00	32700	9	-36.1		96	17	
2025-07-10T12:00	32750	9	-36.2		101	16	
2025-07-10T12:00	32800	8	-36.4		104	15	
2025-07-10T12:00	32850	8	-36.4		106	14	
2025-07-10T12:00	32900	8	-36.4		105	14	
2025-07-10T12:00	32950	8	-36.3		102	14	
2025-07-10T12:00	33000	8	-36.3		97	14	
2025-07-10T12:00	33050	8	-36.1		92	14	
2025-07-10T12:00	33100	8	-35.9		87	14	
2025-07-10T12:00	33150	8	-35.8		84	15	
2025-07-10T12:00	33200	8	-35.7		81	15	
2025-07-10T12:00	33250	8	-35.7		79	16	
2025-07-10T12:00	33300	8	-35.6		78	18	
2025-07-10T12:00	33350	8	-35.6		78	18	
2025-07-10T12:00	33400	8	-35.6		78	18	
2025-07-10T12:00	33450	8	-35.5		76	17	
2025-07-10T12:00	33500	8	-35.5		75	16	
2025-07-10T12:00	33550	8	-35.3		73	16	
2025-07-10T12:00	33600	8	-35.1		72	16	
2025-07-10T12:00	33650	7	-34.8		72	16	
2025-07-10T12:00	33700	7	-34.4		73	17	
2025-07-10T12:00	33750	7	-34.2		75	18	
2025-07-10T12:00	33800	7	-34.2		79	19	
2025-07-10T12:00	33850	7	-34.2		83	20	
2025-07-10T12:00	33900	7	-34.1		87	20	
2025-07-10T12:00	33950	7	-33.9		90	19	
2025-07-10T12:00	34000	7	-33.8		93	17	
2025-07-10T12:00	34050	7	-33.5		94	16	
2025-07-10T12:00	34100	7	-33.3		93	16	
2025-07-10T12:00	34150	7	-33.2		91	17	
2025-07-10T12:00	34200	7	-33.0		88	18	
2025-07-10T12:00	34250	7	-32.9		87	19	
2025-07-10T12:00	34300	7	-32.8		87	20	
2025-07-10T12:00	34350	7	-32.4		87	21	
2025-07-10T12:00	34400	7	-31.9		88	21	
2025-07-10T12:00	34450	7	-31.5		88	20	
2025-07-10T12:00	34500	7	-31.2		87	19	
2025-07-10T12:00	34550	7	-31.0		85	18	
2025-07-10T12:00	34600	7	-31.0		84	17	
2025-07-10T12:00	34650	6	-30.9		82	17	
2025-07-10T12:00	34700	6	-30.6		78	17	
2025-07-10T12:00	34750	6	-30.2		75	18	
2025-07-10T12:00	34800	6	-30.0		73	19	
2025-07-10T12:00	34850	6	-29.8		73	21	
2025-07-10T12:00	34900	6	-29.9		75	22	
2025-07-10T12:00	34950	6	-29.9		77	23	
2025-07-10T12:00	35000	6	-30.0		80	24	
2025-07-10T12:00	35050	6	-30.1		83	24	
2025-07-10T12:00	35100	6	-30.3		85	25	
2025-07-10T12:00	35150	6	-30.4		89	26	
2025-07-10T12:00	35200	6	-30.5		92	26	
2025-07-10T12:00	35250	6	-30.3		94	25	
2025-07-10T12:00	35300	6	-30.1		97	23	
2025-07-10T12:00	35350	6	-29.9		99	22	
2025-07-10T12:00	35400	6	-29.9		102	21	
2025-07-10T12:00	35450	6	-30.1		105	20	
2025-07-10T12:00	35500	6	-30.3		107	20	
2025-07-10T12:00	35550	6	-30.3		106	19	
2025-07-10T12:00	35600	6	-30.2		104	20	
2025-07-10T12:00	35650	6	-30.1		102	21	
2025-07-10T12:00	35700	6	-30.0		103	22	
2025-07-10T12:00	35750	6	-30.0		105	21	
2025-07-11T00:00	491	962	14.4	9.2	194	1	
2025-07-11T00:00	501	960	15.6	9.4	86	1	
2025-07-11T00:00	520	959	16.4	9.4	77	2	
2025-07-11T00:00	540	957	17.4	9.0	76	2	
2025-07-11T00:00	560	954	18.0	8.9	73	3	
2025-07-11T00:00	580	952	18.1	8.9	70	3	
2025-07-11T00:00	600	950	18.2	8.8	67	4	
2025-07-11T00:00	620	947	18.2	8.8	64	5	
2025-07-11T00:00	640	945	18.3	8.7	61	5	
2025-07-11T00:00	660	943	18.3	8.7	60	6	
2025-07-11T00:00	680	941	18.2	8.7	58	6	
2025-07-11T00:00	700	939	18.2	8.6	58	7	
2025-07-11T00:00	720	936	18.1	8.3	57	7	
2025-07-11T00:00	740	934	18.0	8.3	57	7	
2025-07-11T00:00	760	932	17.9	8.1	56	7	
2025-07-11T00:00	780	930	17.8	7.8	56	7	
2025-07-11T00:00	800	928	17.7	7.7	56	7	
2025-07-11T00:00	820	925	17.5	7.7	55	8	
2025-07-11T00:00	840	923	17.4	7.5	55	8	
2025-07-11T00:00	860	921	17.3	7.1	55	8	
2025-07-11T00:00	880	919	17.3	7.1	55	9	
2025-07-11T00:00	900	917	17.4	7.1	56	9	
2025-07-11T00:00	920	915	17.4	7.3	56	9	
2025-07-11T00:00	940	913	17.2	7.5	57	9	
2025-07-11T00:00	960	911	17.1	7.5	58	9	
2025-07-11T00:00	980	909	16.9	7.6	59	9	
2025-07-11T00:00	1000	906	16.7	7.5	59	8	
2025-07-11T00:00	1020	904	16.5	7.5	59	8	
2025-07-11T00:00	1040	902	16.3	7.5	59	9	
2025-07-11T00:00	1060	900	16.1	7.5	59	9	
2025-07-11T00:00	1080	898	15.9	7.4	58	9	
2025-07-11T00:00	1100	896	15.7	7.4	58	9	
2025-07-11T00:00	1120	893	15.5	7.4	57	9	
2025-07-11T00:00	1140	891	15.3	7.2	56	9	
2025-07-11T00:00	1160	889	15.1	7.1	56	9	
2025-07-11T00:00	1180	887	15.0	6.9	56	9	
2025-07-11T00:00	1200	885	14.8	6.5	57	9	
2025-07-11T00:00	1220	883	14.7	6.3	59	9	
2025-07-11T00:00	1240	881	14.5	6.1	61	8	
2025-07-11T00:00	1260	879	14.3	5.8	65	8	
2025-07-11T00:00	1280	877	14.1	5.7	68	8	
2025-07-11T00:00	1300	875	13.9	5.5	71	8	
2025-07-11T00:00	1320	873	13.8	4.8	73	8	
2025-07-11T00:00	1340	871	13.7	4.4	75	8	
2025-07-11T00:00	1360	869	13.7	4.0	75	8	
2025-07-11T00:00	1380	867	13.6	4.0	75	9	
2025-07-11T00:00	1400	865	13.4	3.9	76	9	
2025-07-11T00:00	1420	863	13.3	3.8	76	9	
2025-07-11T00:00	1440	860	13.1	3.5	76	9	
2025-07-11T00:00	1460	858	13.1	3.1	76	9	
2025-07-11T00:00	1480	856	12.9	3.0	76	9	
2025-07-11T00:00	1500	854	12.8	3.1	75	9	
2025-07-11T00:00	1520	852	12.6	2.9	74	8	
2025-07-11T00:00	1540	850	12.5	2.8	73	8	
2025-07-11T00:00	1560	848	12.4	2.9	72	8	
2025-07-11T00:00	1580	846	12.2	2.8	72	7	
2025-07-11T00:00	1600	844	12.0	2.8	71	7	
2025-07-11T00:00	1620	842	11.8	2.8	71	7	
2025-07-11T00:00	1640	840	11.6	2.7	70	7	
2025-07-11T00:00	1660	838	11.4	2.7	69	7	
2025-07-11T00:00	1680	836	11.2	2.7	68	7	
2025-07-11T00:00	1700	834	11.0	2.6	66	6	
2025-07-11T00:00	1720	832	10.8	2.6	65	6	
2025-07-11T00:00	1740	830	10.7	2.6	64	6	
2025-07-11T00:00	1760	828	10.5	2.6	63	6	
2025-07-11T00:00	1780	826	10.3	2.7	63	6	
2025-07-11T00:00	1800	824	10.1	2.8	62	6	
2025-07-11T00:00	1820	822	9.9	2.8	61	6	
2025-07-11T00:00	1840	820	9.7	3.0	58	5	
2025-07-11T00:00	1860	818	9.5	3.1	55	5	
2025-07-11T00:00	1880	816	9.4	3.1	51	5	
2025-07-11T00:00	1900	814	9.2	3.1	48	4	
2025-07-11T00:00	1920	812	9.2	2.5	45	4	
2025-07-11T00:00	1940	810	9.1	2.3	44	5	
2025-07-11T00:00	1960	808	8.9	2.2	45	5	
2025-07-11T00:00	1980	806	8.8	2.0	47	5	
2025-07-11T00:00	2000	804	8.6	1.6	49	5	
2025-07-11T00:00	2020	803	8.5	1.2	52	5	
2025-07-11T00:00	2040	801	8.4	-0.1	56	5	
2025-07-11T00:00	2060	799	8.4	-2.6	61	5	
2025-07-11T00:00	2080	797	8.5	-3.9	66	4	
2025-07-11T00:00	2100	795	8.5	-4.9	71	3	
2025-07-11T00:00	2120	793	8.9	-10.4	75	3	
2025-07-11T00:00	2140	791	9.6	-19.9	77	3	
2025-07-11T00:00	2160	789	9.7	-23.0	75	3	
2025-07-11T00:00	2180	787	9.8	-22.3	71	3	
2025-07-11T00:00	2200	785	9.8	-22.3	66	3	
2025-07-11T00:00	2220	783	9.7	-22.1	62	2	
2025-07-11T00:00	2240	781	9.6	-21.7	60	2	
2025-07-11T00:00	2260	780	9.6	-21.9	61	2	
2025-07-11T00:00	2280	778	9.4	-21.6	63	2	
2025-07-11T00:00	2300	776	9.3	-21.3	66	2	
2025-07-11T00:00	2320	774	9.2	-21.2	67	2	
2025-07-11T00:00	2340	772	9.0	-21.2	66	1	
2025-07-11T00:00	2360	770	8.8	-21.2	63	2	
2025-07-11T00:00	2380	768	8.6	-21.2	62	2	
2025-07-11T00:00	2400	766	8.4	-20.9	62	2	
2025-07-11T00:00	2420	765	8.2	-21.0	63	2	
2025-07-11T00:00	2440	763	8.0	-20.8	64	2	
2025-07-11T00:00	2460	761	7.9	-20.8	64	2	
2025-07-11T00:00	2480	759	7.9	-20.3	63	2	
2025-07-11T00:00	2500	757	7.8	-19.6	62	2	
2025-07-11T00:00	2520	755	7.7	-19.4	61	2	
2025-07-11T00:00	2540	754	7.5	-19.3	60	2	
2025-07-11T00:00	2560	752	7.3	-18.7	58	2	
2025-07-11T00:00	2580	750	7.3	-16.6	54	2	
2025-07-11T00:00	2600	748	7.2	-15.8	46	2	
2025-07-11T00:00	2620	746	7.0	-13.9	36	2	
2025-07-11T00:00	2640	744	6.9	-11.3	30	2	
2025-07-11T00:00	2660	742	6.8	-9.5	25	2	
2025-07-11T00:00	2680	741	6.7	-7.5	21	2	
2025-07-11T00:00	2700	739	6.6	-7.2	14	2	
2025-07-11T00:00	2720	737	6.4	-6.6	6	2	
2025-07-11T00:00	2740	735	6.3	-4.8	359	2	
2025-07-11T00:00	2760	734	6.1	-3.6	349	2	
2025-07-11T00:00	2780	732	5.9	-3.7	341	2	
2025-07-11T00:00	2800	730	5.7	-3.9	336	2	
2025-07-11T00:00	2820	728	5.6	-3.9	333	2	
2025-07-11T00:00	2840	726	5.4	-4.2	331	3	
2025-07-11T00:00	2860	725	5.4	-4.4	332	3	
2025-07-11T00:00	2880	723	5.3	-4.4	336	3	
2025-07-11T00:00	2900	721	5.1	-4.4	340	3	
2025-07-11T00:00	2920	719	4.9	-4.4	343	3	
2025-07-11T00:00	2940	718	4.8	-4.8	346	4	
2025-07-11T00:00	2960	716	4.7	-5.6	346	4	
2025-07-11T00:00	2980	714	4.7	-8.0	346	4	
2025-07-11T00:00	3000	712	4.7	-10.1	344	4	
2025-07-11T00:00	3020	711	4.7	-10.6	342	5	
2025-07-11T00:00	3040	709	4.6	-10.1	341	5	
2025-07-11T00:00	3060	707	4.5	-10.0	341	6	
2025-07-11T00:00	3080	705	4.4	-9.6	343	6	
2025-07-11T00:00	3100	704	4.3	-9.2	345	6	
2025-07-11T00:00	3120	702	4.3	-9.6	347	6	
2025-07-11T00:00	3140	700	4.2	-10.3	349	6	
2025-07-11T00:00	3160	698	4.0	-11.0	351	6	
2025-07-11T00:00	3180	697	3.9	-11.6	352	5	
2025-07-11T00:00	3200	695	3.8	-11.9	355	5	
2025-07-11T00:00	3220	693	3.6	-12.2	357	5	
2025-07-11T00:00	3240	692	3.5	-15.3	1	5	
2025-07-11T00:00	3260	690	3.5	-16.6	5	5	
2025-07-11T00:00	3280	688	3.5	-14.9	10	5	
2025-07-11T00:00	3300	687	3.4	-14.1	16	5	
2025-07-11T00:00	3320	685	3.3	-13.0	22	6	
2025-07-11T00:00	3340	683	3.2	-13.0	25	6	
2025-07-11T00:00	3360	682	3.2	-15.0	27	6	
2025-07-11T00:00	3380	680	3.2	-17.1	30	6	
2025-07-11T00:00	3400	678	3.1	-19.5	31	6	
2025-07-11T00:00	3420	677	3.2	-19.8	31	6	
2025-07-11T00:00	3440	675	3.1	-17.8	30	6	
2025-07-11T00:00	3460	673	3.0	-16.9	29	5	
2025-07-11T00:00	3480	672	2.9	-16.5	27	5	
2025-07-11T00:00	3500	670	2.8	-15.3	23	5	
2025-07-11T00:00	3520	668	2.7	-13.7	20	5	
2025-07-11T00:00	3540	666	2.7	-14.6	19	5	
2025-07-11T00:00	3560	665	2.6	-15.6	19	5	
2025-07-11T00:00	3580	663	2.4	-16.4	20	6	
2025-07-11T00:00	3600	662	2.2	-18.1	21	6	
2025-07-11T00:00	3620	660	2.2	-20.2	22	6	
2025-07-11T00:00	3640	658	2.0	-20.2	23	6	
2025-07-11T00:00	3660	657	1.9	-20.3	22	6	
2025-07-11T00:00	3680	655	1.7	-20.4	20	6	
2025-07-11T00:00	3700	653	1.6	-21.1	18	7	
2025-07-11T00:00	3720	652	1.6	-21.7	16	7	
2025-07-11T00:00	3740	650	1.5	-21.0	15	7	
2025-07-11T00:00	3760	649	1.4	-18.6	14	7	
2025-07-11T00:00	3780	647	1.3	-17.0	13	7	
2025-07-11T00:00	3800	645	1.1	-17.3	11	7	
2025-07-11T00:00	3820	644	1.0	-17.8	8	7	
2025-07-11T00:00	3840	642	0.8	-16.7	6	7	
2025-07-11T00:00	3860	641	0.6	-17.4	3	7	
2025-07-11T00:00	3880	639	0.4	-16.6	359	7	
2025-07-11T00:00	3900	637	0.2	-15.6	356	7	
2025-07-11T00:00	3920	636	0.1	-12.1	354	7	
2025-07-11T00:00	3940	634	-0.1	-8.5	352	6	
2025-07-11T00:00	3960	633	-0.1	-9.0	353	6	
2025-07-11T00:00	3980	631	-0.3	-9.4	355	6	
2025-07-11T00:00	4000	629	-0.4	-9.4	358	6	
2025-07-11T00:00	4020	628	-0.5	-9.5	2	6	
2025-07-11T00:00	4040	626	-0.7	-9.4	4	6	
2025-07-11T00:00	4060	625	-0.8	-8.4	6	7	
2025-07-11T00:00	4080	623	-1.0	-8.2	8	7	
2025-07-11T00:00	4100	622	-1.2	-8.1	10	7	
2025-07-11T00:00	4120	620	-1.3	-8.1	10	7	
2025-07-11T00:00	4140	618	-1.4	-8.2	10	7	
2025-07-11T00:00	4160	617	-1.6	-8.2	10	7	
2025-07-11T00:00	4180	615	-1.8	-7.8	9	8	
2025-07-11T00:00	4200	614	-1.9	-7.8	7	8	
2025-07-11T00:00	4220	612	-2.1	-7.8	6	9	
2025-07-11T00:00	4240	611	-2.3	-8.0	4	9	
2025-07-11T00:00	4260	609	-2.4	-8.2	1	9	
2025-07-11T00:00	4280	608	-2.5	-8.7	359	9	
2025-07-11T00:00	4300	606	-2.5	-9.1	358	9	
2025-07-11T00:00	4320	605	-2.6	-9.2	357	9	
2025-07-11T00:00	4340	603	-2.7	-9.2	356	9	
2025-07-11T00:00	4360	602	-2.9	-9.1	356	9	
2025-07-11T00:00	4380	600	-3.0	-9.2	357	9	
2025-07-11T00:00	4400	599	-3.0	-9.5	357	9	
2025-07-11T00:00	4420	597	-3.1	-9.6	357	9	
2025-07-11T00:00	4440	596	-3.3	-9.9	357	9	
2025-07-11T00:00	4460	594	-3.4	-10.1	355	9	
2025-07-11T00:00	4480	593	-3.5	-10.4	354	9	
2025-07-11T00:00	4500	591	-3.6	-10.7	352	9	
2025-07-11T00:00	4520	590	-3.8	-11.1	351	9	
2025-07-11T00:00	4540	588	-3.9	-11.6	350	9	
2025-07-11T00:00	4560	587	-4.1	-11.6	349	9	
2025-07-11T00:00	4580	585	-4.2	-11.7	349	9	
2025-07-11T00:00	4600	584	-4.3	-11.5	348	9	
2025-07-11T00:00	4620	582	-4.4	-11.6	346	8	
2025-07-11T00:00	4640	581	-4.6	-11.8	344	8	
2025-07-11T00:00	4660	579	-4.7	-11.8	343	8	
2025-07-11T00:00	4680	578	-4.8	-12.3	342	8	
2025-07-11T00:00	4700	576	-4.9	-12.4	342	9	
2025-07-11T00:00	4720	575	-5.1	-11.9	342	9	
2025-07-11T00:00	4740	573	-5.3	-12.0	343	9	
2025-07-11T00:00	4760	572	-5.5	-12.1	344	9	
2025-07-11T00:00	4780	570	-5.6	-12.3	345	10	
2025-07-11T00:00	4800	569	-5.7	-12.5	345	10	
2025-07-11T00:00	4820	568	-5.9	-12.6	346	10	
2025-07-11T00:00	4840	566	-6.0	-12.8	346	9	
2025-07-11T00:00	4860	565	-6.2	-12.9	346	9	
2025-07-11T00:00	4880	563	-6.3	-12.9	346	9	
2025-07-11T00:00	4900	562	-6.4	-13.4	345	9	
2025-07-11T00:00	4920	560	-6.5	-13.9	344	9	
2025-07-11T00:00	4940	559	-6.7	-14.1	344	9	
2025-07-11T00:00	4960	557	-6.8	-13.9	344	9	
2025-07-11T00:00	4980	556	-7.0	-13.7	345	10	
2025-07-11T00:00	5000	555	-7.2	-13.6	346	10	
2025-07-11T00:00	5020	553	-7.3	-14.0	346	10	
2025-07-11T00:00	5040	552	-7.4	-14.1	347	11	
2025-07-11T00:00	5060	550	-7.6	-14.5	347	11	
2025-07-11T00:00	5080	549	-7.7	-15.3	347	11	
2025-07-11T00:00	5100	547	-7.8	-15.1	347	12	
2025-07-11T00:00	5120	546	-7.9	-15.0	346	12	
2025-07-11T00:00	5140	545	-8.0	-15.4	344	12	
2025-07-11T00:00	5160	543	-8.2	-15.2	343	12	
2025-07-11T00:00	5180	542	-8.4	-15.3	342	12	
2025-07-11T00:00	5200	540	-8.6	-15.4	341	11	
2025-07-11T00:00	5220	539	-8.8	-15.4	340	11	
2025-07-11T00:00	5240	538	-8.9	-15.5	341	11	
2025-07-11T00:00	5260	536	-9.1	-15.7	341	11	
2025-07-11T00:00	5280	535	-9.3	-15.9	342	11	
2025-07-11T00:00	5300	534	-9.4	-16.1	342	11	
2025-07-11T00:00	5320	532	-9.6	-16.6	341	11	
2025-07-11T00:00	5340	531	-9.7	-16.8	340	12	
2025-07-11T00:00	5360	529	-9.8	-16.5	339	12	
2025-07-11T00:00	5380	528	-9.9	-17.5	338	12	
2025-07-11T00:00	5400	527	-10.0	-17.8	337	12	
2025-07-11T00:00	5420	526	-10.1	-18.5	336	12	
2025-07-11T00:00	5440	524	-10.2	-18.9	335	11	
2025-07-11T00:00	5460	523	-10.2	-19.3	336	11	
2025-07-11T00:00	5480	521	-10.3	-19.4	338	10	
2025-07-11T00:00	5500	520	-10.4	-20.4	341	10	
2025-07-11T00:00	5520	519	-10.5	-22.7	343	10	
2025-07-11T00:00	5540	517	-10.6	-24.1	345	10	
2025-07-11T00:00	5560	516	-10.7	-23.9	346	10	
2025-07-11T00:00	5580	515	-10.8	-23.5	346	10	
2025-07-11T00:00	5600	513	-10.9	-22.6	347	10	
2025-07-11T00:00	5620	512	-11.1	-21.1	346	10	
2025-07-11T00:00	5640	510	-11.2	-21.0	346	11	
2025-07-11T00:00	5660	509	-11.4	-20.0	346	11	
2025-07-11T00:00	5680	508	-11.5	-20.5	345	11	
2025-07-11T00:00	5700	507	-11.7	-20.9	344	11	
2025-07-11T00:00	5720	505	-11.8	-22.8	342	12	
2025-07-11T00:00	5740	504	-11.8	-24.8	341	12	
2025-07-11T00:00	5760	502	-11.9	-24.9	340	12	
2025-07-11T00:00	5780	501	-12.1	-22.4	339	12	
2025-07-11T00:00	5800	500	-12.2	-22.7	338	12	
2025-07-11T00:00	5820	499	-12.4	-21.9	338	12	
2025-07-11T00:00	5840	497	-12.6	-22.1	338	11	
2025-07-11T00:00	5860	496	-12.9	-21.5	339	11	
2025-07-11T00:00	5880	495	-13.0	-21.5	340	11	
2025-07-11T00:00	5900	493	-13.2	-21.7	341	11	
2025-07-11T00:00	5920	492	-13.4	-21.8	342	11	
2025-07-11T00:00	5940	491	-13.6	-22.0	342	11	
2025-07-11T00:00	5960	490	-13.8	-22.0	342	11	
2025-07-11T00:00	5980	488	-14.0	-22.7	342	11	
2025-07-11T00:00	6000	487	-14.1	-23.1	341	12	
2025-07-11T00:00	6020	486	-14.3	-24.7	341	12	
2025-07-11T00:00	6040	485	-14.3	-26.6	340	12	
2025-07-11T00:00	6060	483	-14.4	-27.2	340	13	
2025-07-11T00:00	6080	482	-14.6	-28.0	339	13	
2025-07-11T00:00	6100	481	-14.6	-29.5	339	14	
2025-07-11T00:00	6120	479	-14.5	-32.2	338	14	
2025-07-11T00:00	6140	478	-14.5	-34.3	337	14	
2025-07-11T00:00	6160	477	-14.5	-35.6	336	14	
2025-07-11T00:00	6180	476	-14.6	-35.6	335	14	
2025-07-11T00:00	6200	474	-14.7	-35.6	334	14	
2025-07-11T00:00	6220	473	-14.9	-35.5	333	13	
2025-07-11T00:00	6240	472	-15.0	-35.7	333	13	
2025-07-11T00:00	6260	470	-15.2	-36.0	334	13	
2025-07-11T00:00	6280	469	-15.3	-36.0	335	13	
2025-07-11T00:00	6300	468	-15.4	-36.1	336	13	
2025-07-11T00:00	6320	467	-15.6	-36.3	336	13	
2025-07-11T00:00	6340	466	-15.7	-36.8	337	13	
2025-07-11T00:00	6360	464	-15.9	-37.0	337	13	
2025-07-11T00:00	6380	463	-16.0	-37.5	338	13	
2025-07-11T00:00	6400	462	-16.1	-38.0	338	14	
2025-07-11T00:00	6420	461	-16.2	-37.8	340	14	
2025-07-11T00:00	6440	459	-16.3	-37.4	341	14	
2025-07-11T00:00	6460	458	-16.5	-37.3	343	14	
2025-07-11T00:00	6480	457	-16.7	-37.3	344	13	
2025-07-11T00:00	6500	456	-16.9	-37.4	345	13	
2025-07-11T00:00	6520	455	-17.0	-37.4	345	13	
2025-07-11T00:00	6540	453	-17.2	-37.5	345	13	
2025-07-11T00:00	6560	452	-17.3	-37.8	345	13	
2025-07-11T00:00	6580	451	-17.4	-37.8	343	13	
2025-07-11T00:00	6600	450	-17.6	-37.9	341	13	
2025-07-11T00:00	6620	449	-17.8	-38.0	339	13	
2025-07-11T00:00	6640	447	-17.9	-38.0	338	12	
2025-07-11T00:00	6660	446	-18.1	-38.2	337	12	
2025-07-11T00:00	6680	445	-18.3	-38.3	336	12	
2025-07-11T00:00	6700	444	-18.4	-38.5	335	12	
2025-07-11T00:00	6720	442	-18.6	-38.8	334	12	
2025-07-11T00:00	6740	441	-18.7	-38.8	333	11	
2025-07-11T00:00	6760	440	-18.8	-39.0	332	11	
2025-07-11T00:00	6780	439	-18.9	-39.2	331	11	
2025-07-11T00:00	6800	438	-19.0	-39.6	328	11	
2025-07-11T00:00	6820	437	-19.1	-40.1	326	10	
2025-07-11T00:00	6840	436	-19.2	-40.5	324	10	
2025-07-11T00:00	6860	434	-19.2	-40.8	322	10	
2025-07-11T00:00	6880	433	-19.3	-41.2	320	10	
2025-07-11T00:00	6900	432	-19.4	-41.4	319	10	
2025-07-11T00:00	6920	431	-19.4	-41.5	318	10	
2025-07-11T00:00	6940	430	-19.6	-41.5	318	11	
2025-07-11T00:00	6960	428	-19.8	-41.7	318	11	
2025-07-11T00:00	6980	427	-19.9	-41.7	318	11	
2025-07-11T00:00	7000	426	-20.1	-41.7	319	12	
2025-07-11T00:00	7020	425	-20.2	-41.8	319	12	
2025-07-11T00:00	7040	424	-20.4	-41.8	320	12	
2025-07-11T00:00	7060	423	-20.6	-41.8	320	12	
2025-07-11T00:00	7080	422	-20.7	-41.9	320	12	
2025-07-11T00:00	7100	421	-20.9	-41.8	319	12	
2025-07-11T00:00	7120	419	-21.1	-41.8	318	12	
2025-07-11T00:00	7140	418	-21.3	-41.8	318	12	
2025-07-11T00:00	7160	417	-21.5	-41.8	317	12	
2025-07-11T00:00	7180	416	-21.6	-41.9	318	12	
2025-07-11T00:00	7200	415	-21.8	-41.9	318	13	
2025-07-11T00:00	7220	414	-22.0	-42.0	318	13	
2025-07-11T00:00	7240	413	-22.2	-41.9	318	13	
2025-07-11T00:00	7260	411	-22.4	-42.0	318	13	
2025-07-11T00:00	7280	410	-22.6	-42.0	319	13	
2025-07-11T00:00	7300	409	-22.8	-42.0	319	13	
2025-07-11T00:00	7320	408	-22.9	-42.1	319	13	
2025-07-11T00:00	7340	407	-23.1	-41.2	320	13	
2025-07-11T00:00	7360	406	-23.3	-39.9	320	13	
2025-07-11T00:00	7380	405	-23.5	-39.8	321	13	
2025-07-11T00:00	7400	404	-23.7	-39.3	322	13	
2025-07-11T00:00	7420	403	-23.9	-39.0	322	13	
2025-07-11T00:00	7440	401	-24.1	-38.9	322	12	
2025-07-11T00:00	7460	400	-24.3	-38.8	323	12	
2025-07-11T00:00	7480	399	-24.4	-38.7	323	12	
2025-07-11T00:00	7500	398	-24.7	-38.7	323	12	
2025-07-11T00:00	7520	397	-24.8	-39.3	322	12	
2025-07-11T00:00	7540	396	-24.9	-41.0	322	11	
2025-07-11T00:00	7560	395	-25.1	-41.7	321	11	
2025-07-11T00:00	7580	394	-25.3	-42.0	321	11	
2025-07-11T00:00	7600	393	-25.5	-42.2	321	12	
2025-07-11T00:00	7620	392	-25.7	-42.1	321	12	
2025-07-11T00:00	7640	391	-25.9	-42.1	321	12	
2025-07-11T00:00	7660	389	-26.0	-42.1	321	12	
2025-07-11T00:00	7680	388	-26.2	-41.1	321	12	
2025-07-11T00:00	7700	387	-26.4	-38.8	321	12	
2025-07-11T00:00	7720	386	-26.6	-39.1	321	12	
2025-07-11T00:00	7740	385	-26.8	-39.5	321	12	
2025-07-11T00:00	7760	384	-27.0	-39.7	320	12	
2025-07-11T00:00	7780	383	-27.2	-39.6	320	12	
2025-07-11T00:00	7800	382	-27.4	-39.4	319	12	
2025-07-11T00:00	7820	381	-27.6	-39.6	319	12	
2025-07-11T00:00	7840	380	-27.8	-39.5	319	12	
2025-07-11T00:00	7860	379	-28.0	-39.7	320	11	
2025-07-11T00:00	7880	378	-28.2	-39.7	320	11	
2025-07-11T00:00	7900	377	-28.3	-39.7	320	11	
2025-07-11T00:00	7920	376	-28.5	-39.5	321	11	
2025-07-11T00:00	7940	375	-28.7	-39.5	321	11	
2025-07-11T00:00	7960	374	-29.0	-39.5	321	12	
2025-07-11T00:00	7980	373	-29.1	-39.2	321	12	
2025-07-11T00:00	8000	372	-29.3	-38.5	321	12	
2025-07-11T00:00	8020	370	-29.5	-38.4	321	12	
2025-07-11T00:00	8040	369	-29.7	-38.9	321	13	
2025-07-11T00:00	8060	368	-29.9	-39.3	321	13	
2025-07-11T00:00	8080	367	-29.9	-40.5	321	13	
2025-07-11T00:00	8100	366	-29.9	-42.5	321	13	
2025-07-11T00:00	8120	365	-30.1	-42.1	321	13	
2025-07-11T00:00	8140	364	-30.3	-41.9	321	13	
2025-07-11T00:00	8160	363	-30.4	-42.1	321	12	
2025-07-11T00:00	8180	362	-30.6	-42.3	322	12	
2025-07-11T00:00	8200	361	-30.8	-42.3	324	12	
2025-07-11T00:00	8220	360	-31.0	-42.3	325	12	
2025-07-11T00:00	8240	359	-31.1	-42.6	326	12	
2025-07-11T00:00	8260	358	-31.3	-43.0	327	12	
2025-07-11T00:00	8280	357	-31.5	-43.2	328	12	
2025-07-11T00:00	8300	356	-31.7	-43.2	328	12	
2025-07-11T00:00	8320	355	-31.9	-43.3	328	12	
2025-07-11T00:00	8340	354	-32.0	-43.9	328	13	
2025-07-11T00:00	8360	353	-32.2	-44.4	328	13	
2025-07-11T00:00	8380	352	-32.3	-44.4	327	13	
2025-07-11T00:00	8400	351	-32.5	-44.6	327	13	
2025-07-11T00:00	8420	350	-32.6	-44.7	327	13	
2025-07-11T00:00	8440	349	-32.8	-44.9	326	13	
2025-07-11T00:00	8460	348	-32.9	-45.3	326	13	
2025-07-11T00:00	8480	347	-33.0	-46.7	325	13	
2025-07-11T00:00	8500	346	-33.1	-47.2	324	14	
2025-07-11T00:00	8520	345	-33.1	-46.6	324	14	
2025-07-11T00:00	8540	344	-33.3	-45.9	323	14	
2025-07-11T00:00	8560	343	-33.5	-47.1	323	14	
2025-07-11T00:00	8580	342	-33.6	-49.8	323	14	
2025-07-11T00:00	8600	341	-33.7	-49.3	323	15	
2025-07-11T00:00	8620	340	-33.9	-49.1	324	15	
2025-07-11T00:00	8640	339	-34.1	-50.2	325	15	
2025-07-11T00:00	8660	338	-34.2	-50.1	326	15	
2025-07-11T00:00	8680	337	-34.4	-49.6	327	15	
2025-07-11T00:00	8700	336	-34.6	-50.4	327	15	
2025-07-11T00:00	8720	335	-34.8	-51.0	328	15	
2025-07-11T00:00	8740	334	-34.9	-50.9	328	15	
2025-07-11T00:00	8760	334	-35.1	-50.7	327	15	
2025-07-11T00:00	8780	333	-35.2	-50.0	327	15	
2025-07-11T00:00	8800	332	-35.4	-49.0	326	14	
2025-07-11T00:00	8820	331	-35.6	-48.2	325	15	
2025-07-11T00:00	8840	330	-35.8	-47.9	323	15	
2025-07-11T00:00	8860	329	-36.0	-48.0	322	15	
2025-07-11T00:00	8880	328	-36.2	-48.0	322	15	
2025-07-11T00:00	8900	327	-36.4	-48.1	321	15	
2025-07-11T00:00	8920	326	-36.5	-47.7	321	15	
2025-07-11T00:00	8940	325	-36.6	-47.4	321	15	
2025-07-11T00:00	8960	324	-36.8	-47.4	321	15	
2025-07-11T00:00	8980	323	-36.9	-47.5	322	15	
2025-07-11T00:00	9000	322	-37.1	-47.6	322	15	
2025-07-11T00:00	9020	321	-37.3	-47.7	323	15	
2025-07-11T00:00	9040	320	-37.4	-48.1	324	15	
2025-07-11T00:00	9060	319	-37.6	-49.5	324	15	
2025-07-11T00:00	9080	319	-37.7	-50.0	324	16	
2025-07-11T00:00	9100	318	-37.8	-50.0	324	16	
2025-07-11T00:00	9120	317	-38.0	-49.8	324	15	
2025-07-11T00:00	9140	316	-38.2	-49.7	324	15	
2025-07-11T00:00	9160	315	-38.4	-49.8	324	15	
2025-07-11T00:00	9180	314	-38.6	-49.7	324	15	
2025-07-11T00:00	9200	313	-38.8	-49.7	324	15	
2025-07-11T00:00	9220	312	-39.0	-49.7	325	15	
2025-07-11T00:00	9240	311	-39.2	-50.2	325	15	
2025-07-11T00:00	9260	310	-39.4	-50.5	326	15	
2025-07-11T00:00	9280	309	-39.5	-50.7	326	16	
2025-07-11T00:00	9300	309	-39.6	-50.9	326	16	
2025-07-11T00:00	9320	308	-39.8	-51.1	326	16	
2025-07-11T00:00	9340	307	-40.0	-51.3	327	16	
2025-07-11T00:00	9360	306	-40.2	-52.0	326	16	
2025-07-11T00:00	9380	305	-40.3	-52.2	326	16	
2025-07-11T00:00	9400	304	-40.5	-52.0	326	16	
2025-07-11T00:00	9420	303	-40.7	-52.2	326	16	
2025-07-11T00:00	9440	302	-40.8	-52.8	326	16	
2025-07-11T00:00	9460	301	-41.0	-53.2	326	16	
2025-07-11T00:00	9480	300	-41.1	-53.3	326	16	
2025-07-11T00:00	9500	299	-41.3	-53.1	326	15	
2025-07-11T00:00	9520	299	-41.4	-52.9	326	15	
2025-07-11T00:00	9540	298	-41.6	-52.9	326	15	
2025-07-11T00:00	9560	297	-41.8	-53.2	326	15	
2025-07-11T00:00	9580	296	-41.9	-53.4	326	15	
2025-07-11T00:00	9600	295	-42.1	-53.7	326	15	
2025-07-11T00:00	9620	294	-42.2	-53.8	326	15	
2025-07-11T00:00	9640	293	-42.4	-53.5	326	15	
2025-07-11T00:00	9660	292	-42.6	-53.3	326	15	
2025-07-11T00:00	9680	292	-42.8	-53.5	326	15	
2025-07-11T00:00	9700	291	-42.9	-53.9	327	15	
2025-07-11T00:00	9720	290	-43.0	-54.3	327	15	
2025-07-11T00:00	9740	289	-43.2	-54.9	327	15	
2025-07-11T00:00	9760	288	-43.2	-55.4	327	15	
2025-07-11T00:00	9780	287	-43.3	-55.3	327	15	
2025-07-11T00:00	9800	287	-43.4	-55.0	327	15	
2025-07-11T00:00	9820	286	-43.6	-55.0	327	16	
2025-07-11T00:00	9840	285	-43.7	-55.6	327	16	
2025-07-11T00:00	9860	284	-43.8	-57.1	327	15	
2025-07-11T00:00	9880	283	-43.9	-57.1	327	15	
2025-07-11T00:00	9900	282	-44.1	-56.3	327	15	
2025-07-11T00:00	9920	281	-44.3	-56.0	327	15	
2025-07-11T00:00	9940	281	-44.4	-56.2	326	16	
2025-07-11T00:00	9960	280	-44.6	-56.5	326	16	
2025-07-11T00:00	9980	279	-44.8	-56.8	325	16	
2025-07-11T00:00	10000	278	-44.9	-57.2	325	17	
2025-07-11T00:00	10018	277	-45.0	-57.1	324	17	
2025-07-11T00:00	10050	276	-45.2	-56.3	324	17	
2025-07-11T00:00	10100	274	-45.7	-55.6	323	17	
2025-07-11T00:00	10150	272	-46.1	-56.2	321	17	
2025-07-11T00:00	10200	270	-46.4	-54.3	320	17	
2025-07-11T00:00	10250	268	-46.8	-54.0	319	17	
2025-07-11T00:00	10300	266	-47.2	-54.2	318	17	
2025-07-11T00:00	10350	264	-47.6	-55.6	318	17	
2025-07-11T00:00	10400	262	-48.0	-57.2	319	17	
2025-07-11T00:00	10450	260	-48.5	-57.0	319	17	
2025-07-11T00:00	10500	258	-48.9	-56.9	319	18	
2025-07-11T00:00	10550	256	-49.4	-55.9	319	18	
2025-07-11T00:00	10600	254	-49.8	-55.9	320	17	
2025-07-11T00:00	10650	252	-50.1	-56.8	323	17	
2025-07-11T00:00	10700	250	-50.5	-57.6	326	17	
2025-07-11T00:00	10750	248	-50.9	-58.1	327	17	
2025-07-11T00:00	10800	246	-51.3	-58.1	325	17	
2025-07-11T00:00	10850	244	-51.8	-58.1	323	17	
2025-07-11T00:00	10900	242	-52.2	-58.6	321	17	
2025-07-11T00:00	10950	241	-52.4	-59.1	320	17	
2025-07-11T00:00	11000	239	-52.6	-59.6	319	17	
2025-07-11T00:00	11050	237	-53.0	-59.8	320	17	
2025-07-11T00:00	11100	235	-53.0	-60.6	322	17	
2025-07-11T00:00	11150	233	-53.2	-61.0	323	17	
2025-07-11T00:00	11200	231	-53.6	-61.0	322	16	
2025-07-11T00:00	11250	230	-54.0	-61.2	321	16	
2025-07-11T00:00	11300	228	-54.4	-61.5	320	16	
2025-07-11T00:00	11350	226	-54.8	-61.6	319	15	
2025-07-11T00:00	11400	224	-55.1	-62.3	318	15	
2025-07-11T00:00	11450	223	-55.2	-63.0	317	16	
2025-07-11T00:00	11500	221	-55.3	-63.2	316	16	
2025-07-11T00:00	11550	219	-55.3	-64.1	315	17	
2025-07-11T00:00	11600	217	-55.1	-66.8	312	17	
2025-07-11T00:00	11650	216	-55.0	-69.0	311	18	
2025-07-11T00:00	11700	214	-54.9	-69.8	313	18	
2025-07-11T00:00	11750	212	-55.1	-68.9	315	18	
2025-07-11T00:00	11800	211	-55.2	-68.0	315	18	
2025-07-11T00:00	11850	209	-55.3	-65.9	314	19	
2025-07-11T00:00	11900	207	-55.3	-67.5	314	20	
2025-07-11T00:00	11950	206	-55.0	-72.9	314	22	
2025-07-11T00:00	12000	204	-54.1	-75.5	312	23	
2025-07-11T00:00	12050	203	-53.5	-75.1	309	23	
2025-07-11T00:00	12100	201	-52.9	-75.2	305	22	
2025-07-11T00:00	12150	200	-52.9	-75.5	307	23	
2025-07-11T00:00	12200	198	-52.5	-76.0	312	23	
2025-07-11T00:00	12250	196	-52.2	-76.8	316	23	
2025-07-11T00:00	12300	195	-51.6	-77.5	318	23	
2025-07-11T00:00	12350	193	-51.4	-77.8	318	23	
2025-07-11T00:00	12400	192	-51.1	-78.0	318	23	
2025-07-11T00:00	12450	190	-51.0	-78.1	316	23	
2025-07-11T00:00	12500	189	-51.0	-78.4	316	22	
2025-07-11T00:00	12550	188	-51.0	-78.4	317	22	
2025-07-11T00:00	12600	186	-51.4	-78.5	316	21	
2025-07-11T00:00	12650	185	-51.7	-78.6	314	21	
2025-07-11T00:00	12700	183	-51.8	-78.7	313	22	
2025-07-11T00:00	12750	182	-51.9	-78.9	313	22	
2025-07-11T00:00	12800	181	-51.8	-79.2	315	21	
2025-07-11T00:00	12850	179	-51.6	-79.4	318	20	
2025-07-11T00:00	12900	178	-51.5	-79.6	321	20	
2025-07-11T00:00	12950	176	-51.4	-79.8	321	19	
2025-07-11T00:00	13000	175	-51.3	-79.8	320	18	
2025-07-11T00:00	13050	174	-51.5	-79.8	319	17	
2025-07-11T00:00	13100	172	-51.8	-79.7	317	17	
2025-07-11T00:00	13150	171	-52.0	-79.9	313	18	
2025-07-11T00:00	13200	170	-52.3	-80.0	310	19	
2025-07-11T00:00	13250	168	-52.6	-80.1	308	19	
2025-07-11T00:00	13300	167	-52.7	-80.3	308	19	
2025-07-11T00:00	13350	166	-52.8	-80.4	310	19	
2025-07-11T00:00	13400	165	-53.0	-80.5	312	19	
2025-07-11T00:00	13450	163	-53.0	-80.6	313	19	
2025-07-11T00:00	13500	162	-53.0	-80.6	313	19	
2025-07-11T00:00	13550	161	-53.2	-80.8	312	20	
2025-07-11T00:00	13600	159	-53.2	-81.0	311	21	
2025-07-11T00:00	13650	158	-53.4	-81.1	308	21	
2025-07-11T00:00	13700	157	-53.6	-81.2	307	21	
2025-07-11T00:00	13750	156	-53.6	-81.3	307	20	
2025-07-11T00:00	13800	155	-53.6	-81.5	307	20	
2025-07-11T00:00	13850	153	-53.5	-81.5	307	20	
2025-07-11T00:00	13900	152	-53.6	-81.6	308	20	
2025-07-11T00:00	13950	151	-53.6	-81.7	310	21	
2025-07-11T00:00	14000	150	-53.3	-81.7	314	21	
2025-07-11T00:00	14050	149	-52.7	-81.7	317	21	
2025-07-11T00:00	14100	148	-52.7	-81.7	317	21	
2025-07-11T00:00	14150	146	-52.8	-81.6	319	21	
2025-07-11T00:00	14200	145	-53.0	-81.6	319	20	
2025-07-11T00:00	14250	144	-53.2	-81.7	318	19	
2025-07-11T00:00	14300	143	-53.6	-82.0	314	18	
2025-07-11T00:00	14350	142	-53.5	-81.9	309	18	
2025-07-11T00:00	14400	141	-53.7	-82.1	306	18	
2025-07-11T00:00	14450	140	-53.3	-81.9	306	19	
2025-07-11T00:00	14500	139	-53.5	-81.7	306	19	
2025-07-11T00:00	14550	138	-53.6	-81.6	306	19	
2025-07-11T00:00	14600	137	-53.9	-81.6	307	19	
2025-07-11T00:00	14650	135	-54.1	-81.8	308	19	
2025-07-11T00:00	14700	134	-54.3	-81.9	311	20	
2025-07-11T00:00	14750	133	-54.6	-81.9	314	20	
2025-07-11T00:00	14800	132	-54.7	-81.9	317	19	
2025-07-11T00:00	14850	131	-54.9	-82.0	318	19	
2025-07-11T00:00	14900	130	-55.0	-82.1	319	18	
2025-07-11T00:00	14950	129	-55.2	-82.3	318	18	
2025-07-11T00:00	15000	128	-55.1	-82.3	318	17	
2025-07-11T00:00	15050	127	-55.2	-82.3	318	17	
2025-07-11T00:00	15100	126	-55.4	-82.4	317	17	
2025-07-11T00:00	15150	125	-55.5	-82.4	317	17	
2025-07-11T00:00	15200	124	-55.8	-82.5	317	16	
2025-07-11T00:00	15250	123	-56.0	-82.6	316	15	
2025-07-11T00:00	15300	122	-56.2	-82.8	314	15	
2025-07-11T00:00	15350	121	-56.2	-82.9	314	16	
2025-07-11T00:00	15400	120	-56.2	-83.0	315	17	
2025-07-11T00:00	15450	120	-56.2	-82.9	315	17	
2025-07-11T00:00	15500	119	-56.5	-83.0	314	17	
2025-07-11T00:00	15550	118	-56.7	-83.1	312	16	
2025-07-11T00:00	15600	117	-56.8	-83.2	310	16	
2025-07-11T00:00	15650	116	-56.8	-83.5	308	16	
2025-07-11T00:00	15700	115	-56.4	-83.6	310	16	
2025-07-11T00:00	15750	114	-55.9	-83.5	313	17	
2025-07-11T00:00	15800	113	-55.6	-83.5	316	16	
2025-07-11T00:00	15850	112	-55.6	-83.5	318	16	
2025-07-11T00:00	15900	111	-55.8	-83.5	319	15	
2025-07-11T00:00	15950	110	-55.9	-83.5	322	14	
2025-07-11T00:00	16000	110	-56.0	-83.4	324	13	
2025-07-11T00:00	16050	109	-55.9	-83.3	322	12	
2025-07-11T00:00	16100	108	-56.1	-83.5	315	12	
2025-07-11T00:00	16150	107	-56.2	-83.8	307	12	
2025-07-11T00:00	16200	106	-55.9	-83.8	306	13	
2025-07-11T00:00	16250	105	-55.9	-83.8	307	13	
2025-07-11T00:00	16300	105	-55.9	-83.8	311	14	
2025-07-11T00:00	16350	104	-55.9	-83.8	316	13	
2025-07-11T00:00	16400	103	-55.9	-83.9	322	13	
2025-07-11T00:00	16450	102	-55.7	-83.8	326	12	
2025-07-11T00:00	16500	101	-55.8	-83.7	330	11	
2025-07-11T00:00	16550	101	-56.2	-83.9	333	10	
2025-07-11T00:00	16600	100	-56.5	-84.0	334	9	
2025-07-11T00:00	16650	99	-56.5	-84.1	330	9	
2025-07-11T00:00	16700	98	-56.4	-84.2	326	9	
2025-07-11T00:00	16750	97	-56.3	-84.3	327	9	
2025-07-11T00:00	16800	97	-56.0	-84.3	329	9	
2025-07-11T00:00	16850	96	-55.5	-84.2	330	9	
2025-07-11T00:00	16900	95	-55.4	-84.1	326	9	
2025-07-11T00:00	16950	94	-55.5	-84.0	322	9	
2025-07-11T00:00	17000	94	-55.8	-84.1	319	9	
2025-07-11T00:00	17050	93	-55.6	-84.1	318	8	
2025-07-11T00:00	17100	92	-55.5	-84.1	315	8	
2025-07-11T00:00	17150	91	-55.4	-84.1	311	8	
2025-07-11T00:00	17200	91	-55.3	-84.0	311	9	
2025-07-11T00:00	17250	90	-55.4	-84.2	316	9	
2025-07-11T00:00	17300	89	-54.9	-84.0	323	9	
2025-07-11T00:00	17350	89	-54.7	-84.0	330	9	
2025-07-11T00:00	17400	88	-54.4	-83.8	336	8	
2025-07-11T00:00	17450	87	-54.3	-83.7	343	8	
2025-07-11T00:00	17500	87	-54.6	-83.8	347	7	
2025-07-11T00:00	17550	86	-54.7	-83.8	347	7	
2025-07-11T00:00	17600	85	-54.8	-83.7	343	6	
2025-07-11T00:00	17650	85	-55.0	-83.8	338	5	
2025-07-11T00:00	17700	84	-55.2	-83.9	337	5	
2025-07-11T00:00	17750	83	-55.5	-84.1	341	4	
2025-07-11T00:00	17800	83	-55.3	-84.0	340	4	
2025-07-11T00:00	17850	82	-55.4	-84.1	330	4	
2025-07-11T00:00	17900	81	-55.4	-84.2	321	4	
2025-07-11T00:00	17950	81	-55.0	-84.2	318	2	
2025-07-11T00:00	18000	80	-54.2	-83.9	324	2	
2025-07-11T00:00	18050	79	-54.6	-83.9	339	1	
2025-07-11T00:00	18100	79	-54.8	-83.9	359	1	
2025-07-11T00:00	18150	78	-54.7	-83.8	12	2	
2025-07-11T00:00	18200	78	-54.8	-83.9	19	3	
2025-07-11T00:00	18250	77	-55.2	-84.0	29	3	
2025-07-11T00:00	18300	76	-55.4	-84.1	55	3	
2025-07-11T00:00	18350	76	-55.5	-84.2	83	3	
2025-07-11T00:00	18400	75	-55.5	-84.2	96	3	
2025-07-11T00:00	18450	75	-55.8	-84.3	101	3	
2025-07-11T00:00	18500	74	-55.8	-84.3	111	2	
2025-07-11T00:00	18550	73	-56.0	-84.3	136	1	
2025-07-11T00:00	18600	73	-56.2	-84.5	189	1	
2025-07-11T00:00	18650	72	-56.2	-84.5	239	2	
2025-07-11T00:00	18700	72	-56.0	-84.4	261	3	
2025-07-11T00:00	18750	71	-56.3	-84.5	273	4	
2025-07-11T00:00	18800	71	-56.6	-84.6	282	5	
2025-07-11T00:00	18850	70	-56.7	-84.7	289	4	
2025-07-11T00:00	18900	70	-56.7	-84.7	292	3	
2025-07-11T00:00	18950	69	-56.8	-84.8	293	2	
2025-07-11T00:00	19000	68	-56.6	-84.8	300	3	
2025-07-11T00:00	19050	68	-56.6	-84.9	312	4	
2025-07-11T00:00	19100	67	-56.6	-85.0	325	5	
2025-07-11T00:00	19150	67	-55.8	-84.7	340	5	
2025-07-11T00:00	19200	66	-55.9	-84.8	357	5	
2025-07-11T00:00	19250	66	-55.7	-84.7	16	4	
2025-07-11T00:00	19300	65	-55.3	-84.5	34	4	
2025-07-11T00:00	19350	65	-55.3	-84.4	51	2	
2025-07-11T00:00	19400	64	-55.2	-84.4	77	1	
2025-07-11T00:00	19450	64	-55.1	-84.5	92	1	
2025-07-11T00:00	19500	63	-54.6	-84.2	82	1	
2025-07-11T00:00	19550	63	-54.8	-84.2	70	1	
2025-07-11T00:00	19600	62	-55.0	-84.3	65	2	
2025-07-11T00:00	19650	62	-55.1	-84.3	57	2	
2025-07-11T00:00	19700	61	-54.9	-84.2	47	3	
2025-07-11T00:00	19750	61	-55.0	-84.4	33	2	
2025-07-11T00:00	19800	60	-55.0	-84.3	11	2	
2025-07-11T00:00	19850	60	-55.2	-84.3	347	2	
2025-07-11T00:00	19900	59	-55.6	-84.5	343	2	
2025-07-11T00:00	19950	59	-55.7	-84.6	0	3	
2025-07-11T00:00	20000	58	-55.4	-84.6	25	3	
2025-07-11T00:00	20050	58	-55.1		46	4	
2025-07-11T00:00	20100	58	-55.1		61	4	
2025-07-11T00:00	20150	57	-55.2		68	4	
2025-07-11T00:00	20200	57	-55.0		68	5	
2025-07-11T00:00	20250	56	-54.8		64	5	
2025-07-11T00:00	20300	56	-54.9		63	5	
2025-07-11T00:00	20350	55	-55.2		67	4	
2025-07-11T00:00	20400	55	-55.1		75	4	
2025-07-11T00:00	20450	55	-55.2		77	4	
2025-07-11T00:00	20500	54	-55.3		65	3	
2025-07-11T00:00	20550	54	-55.2		41	3	
2025-07-11T00:00	20600	53	-55.2		22	5	
2025-07-11T00:00	20650	53	-54.9		18	6	
2025-07-11T00:00	20700	52	-54.4		26	7	
2025-07-11T00:00	20750	52	-54.2		42	7	
2025-07-11T00:00	20800	52	-54.0		59	7	
2025-07-11T00:00	20850	51	-54.2		74	7	
2025-07-11T00:00	20900	51	-54.3		88	7	
2025-07-11T00:00	20950	50	-54.5		104	7	
2025-07-11T00:00	21000	50	-54.1		116	6	
2025-07-11T00:00	21050	50	-53.8		119	4	
2025-07-11T00:00	21100	49	-53.6		110	3	
2025-07-11T00:00	21150	49	-53.2		98	3	
2025-07-11T00:00	21200	48	-52.7		94	3	
2025-07-11T00:00	21250	48	-52.8		91	4	
2025-07-11T00:00	21300	48	-52.9		87	4	
2025-07-11T00:00	21350	47	-53.2		86	4	
2025-07-11T00:00	21400	47	-53.6		87	4	
2025-07-11T00:00	21450	47	-53.6		80	4	
2025-07-11T00:00	21500	46	-53.8		65	4	
2025-07-11T00:00	21550	46	-54.0		56	6	
2025-07-11T00:00	21600	46	-54.1		55	7	
2025-07-11T00:00	21650	45	-54.1		60	9	
2025-07-11T00:00	21700	45	-54.2		69	10	
2025-07-11T00:00	21750	45	-54.3		77	11	
2025-07-11T00:00	21800	44	-54.5		85	12	
2025-07-11T00:00	21850	44	-54.6		92	12	
2025-07-11T00:00	21900	43	-54.6		99	12	
2025-07-11T00:00	21950	43	-54.4		106	11	
2025-07-11T00:00	22000	43	-54.2		115	10	
2025-07-11T00:00	22050	42	-54.1		124	10	
2025-07-11T00:00	22100	42	-54.0		131	9	
2025-07-11T00:00	22150	42	-53.8		132	7	
2025-07-11T00:00	22200	41	-53.7		124	6	
2025-07-11T00:00	22250	41	-53.6		101	5	
2025-07-11T00:00	22300	41	-53.6		81	6	
2025-07-11T00:00	22350	41	-53.5		77	7	
2025-07-11T00:00	22400	40	-53.2		81	9	
2025-07-11T00:00	22450	40	-52.7		87	10	
2025-07-11T00:00	22500	40	-52.7		91	10	
2025-07-11T00:00	22550	39	-52.8		93	10	
2025-07-11T00:00	22600	39	-52.7		92	9	
2025-07-11T00:00	22650	39	-52.7		86	9	
2025-07-11T00:00	22700	38	-52.4		80	8	
2025-07-11T00:00	22750	38	-52.3		75	8	
2025-07-11T00:00	22800	38	-52.2		74	8	
2025-07-11T00:00	22850	38	-52.1		75	9	
2025-07-11T00:00	22900	37	-52.0		77	9	
2025-07-11T00:00	22950	37	-52.1		76	9	
2025-07-11T00:00	23000	37	-51.9		73	10	
2025-07-11T00:00	23050	36	-51.9		69	10	
2025-07-11T00:00	23100	36	-51.7		66	11	
2025-07-11T00:00	23150	36	-51.8		66	12	
2025-07-11T00:00	23200	36	-52.1		68	13	
2025-07-11T00:00	23250	35	-52.2		73	14	
2025-07-11T00:00	23300	35	-52.3		79	14	
2025-07-11T00:00	23350	35	-52.5		84	14	
2025-07-11T00:00	23400	34	-52.5		87	14	
2025-07-11T00:00	23450	34	-52.0		88	14	
2025-07-11T00:00	23500	34	-51.6		88	14	
2025-07-11T00:00	23550	34	-51.5		89	14	
2025-07-11T00:00	23600	33	-51.2		89	14	
2025-07-11T00:00	23650	33	-51.1		90	13	
2025-07-11T00:00	23700	33	-51.3		90	13	
2025-07-11T00:00	23750	33	-51.4		90	12	
2025-07-11T00:00	23800	32	-51.4		88	11	
2025-07-11T00:00	23850	32	-51.5		82	10	
2025-07-11T00:00	23900	32	-51.5		74	10	
2025-07-11T00:00	23950	32	-51.3		70	11	
2025-07-11T00:00	24000	31	-51.3		69	11	
2025-07-11T00:00	24050	31	-51.2		72	12	
2025-07-11T00:00	24100	31	-51.1		76	13	
2025-07-11T00:00	24150	31	-51.1		79	13	
2025-07-11T00:00	24200	30	-51.1		82	14	
2025-07-11T00:00	24250	30	-51.1		85	15	
2025-07-11T00:00	24300	30	-51.2		89	15	
2025-07-11T00:00	24350	30	-51.2		91	14	
2025-07-11T00:00	24400	30	-51.1		91	12	
2025-07-11T00:00	24450	29	-51.2		93	10	
2025-07-11T00:00	24500	29	-51.1		94	8	
2025-07-11T00:00	24550	29	-51.2		95	7	
2025-07-11T00:00	24600	29	-51.4		94	7	
2025-07-11T00:00	24650	28	-51.3		95	8	
2025-07-11T00:00	24700	28	-51.0		95	10	
2025-07-11T00:00	24750	28	-50.8		95	12	
2025-07-11T00:00	24800	28	-50.9		95	13	
2025-07-11T00:00	24850	28	-50.7		96	13	
2025-07-11T00:00	24900	27	-50.2		98	12	
2025-07-11T00:00	24950	27	-50.1		99	12	
2025-07-11T00:00	25000	27	-50.1		98	11	
2025-07-11T00:00	25050	27	-49.4		95	11	
2025-07-11T00:00	25100	27	-49.0		92	12	
2025-07-11T00:00	25150	26	-48.4		87	12	
2025-07-11T00:00	25200	26	-48.1		82	11	
2025-07-11T00:00	25250	26	-47.9		78	10	
2025-07-11T00:00	25300	26	-47.8		76	10	
2025-07-11T00:00	25350	26	-47.7		77	11	
2025-07-11T00:00	25400	25	-47.6		81	12	
2025-07-11T00:00	25450	25	-47.5		86	13	
2025-07-11T00:00	25500	25	-47.6		89	13	
2025-07-11T00:00	25550	25	-47.4		89	12	
2025-07-11T00:00	25600	25	-46.9		88	12	
2025-07-11T00:00	25650	24	-46.5		88	12	
2025-07-11T00:00	25700	24	-46.3		88	12	
2025-07-11T00:00	25750	24	-46.3		88	12	
2025-07-11T00:00	25800	24	-46.5		88	12	
2025-07-11T00:00	25850	24	-46.7		89	12	
2025-07-11T00:00	25900	24	-46.9		89	13	
2025-07-11T00:00	25950	23	-47.1		90	13	
2025-07-11T00:00	26000	23	-47.2		91	13	
2025-07-11T00:00	26050	23	-47.4		93	14	
2025-07-11T00:00	26100	23	-47.5		96	14	
2025-07-11T00:00	26150	23	-47.5		96	13	
2025-07-11T00:00	26200	22	-47.4		94	12	
2025-07-11T00:00	26250	22	-47.5		92	11	
2025-07-11T00:00	26300	22	-47.3		89	10	
2025-07-11T00:00	26350	22	-47.1		87	10	
2025-07-11T00:00	26400	22	-47.0		87	11	
2025-07-11T00:00	26450	22	-47.1		89	11	
2025-07-11T00:00	26500	21	-47.2		90	11	
2025-07-11T00:00	26550	21	-47.5		92	12	
2025-07-11T00:00	26600	21	-47.4		93	12	
2025-07-11T00:00	26650	21	-47.6		94	12	
2025-07-11T00:00	26700	21	-47.6		95	12	
2025-07-11T00:00	26750	21	-47.4		95	13	
2025-07-11T00:00	26800	21	-47.4		94	12	
2025-07-11T00:00	26850	20	-47.3		91	12	
2025-07-11T00:00	26900	20	-47.1		86	11	
2025-07-11T00:00	26950	20	-46.5		79	12	
2025-07-11T00:00	27000	20	-46.2		76	13	
2025-07-11T00:00	27050	20	-46.0		77	13	
2025-07-11T00:00	27100	20	-45.9		81	14	
2025-07-11T00:00	27150	19	-45.9		87	14	
2025-07-11T00:00	27200	19	-46.1		93	15	
2025-07-11T00:00	27250	19	-46.3		100	16	
2025-07-11T00:00	27300	19	-46.4		105	16	
2025-07-11T00:00	27350	19	-46.5		108	17	
2025-07-11T00:00	27400	19	-46.6		109	17	
2025-07-11T00:00	27450	19	-46.6		108	17	
2025-07-11T00:00	27500	18	-46.7		106	16	
2025-07-11T00:00	27550	18	-46.7		102	16	
2025-07-11T00:00	27600	18	-46.4		97	15	
2025-07-11T00:00	27650	18	-46.4		94	15	
2025-07-11T00:00	27700	18	-46.6		94	15	
2025-07-11T00:00	27750	18	-46.5		96	15	
2025-07-11T00:00	27800	18	-46.5		99	15	
2025-07-11T00:00	27850	18	-46.5		101	14	
2025-07-11T00:00	27900	17	-46.7		104	14	
2025-07-11T00:00	27950	17	-46.6		106	13	
2025-07-11T00:00	28000	17	-46.5		106	11	
2025-07-11T00:00	28050	17	-46.4		103	10	
2025-07-11T00:00	28100	17	-46.3		99	10	
2025-07-11T00:00	28150	17	-46.0		96	10	
2025-07-11T00:00	28200	17	-45.6		95	12	
2025-07-11T00:00	28250	16	-45.6		96	13	
2025-07-11T00:00	28300	16	-45.6		97	14	
2025-07-11T00:00	28350	16	-45.5		96	14	
2025-07-11T00:00	28400	16	-45.3		95	14	
2025-07-11T00:00	28450	16	-45.2		94	14	
2025-07-11T00:00	28500	16	-45.1		92	14	
2025-07-11T00:00	28550	16	-44.9		90	13	
2025-07-11T00:00	28600	16	-44.6		87	13	
2025-07-11T00:00	28650	16	-44.3		85	13	
2025-07-11T00:00	28700	15	-44.2		85	13	
2025-07-11T00:00	28750	15	-44.1		88	13	
2025-07-11T00:00	28800	15	-44.2		91	13	
2025-07-11T00:00	28850	15	-44.2		92	14	
2025-07-11T00:00	28900	15	-44.2		93	15	
2025-07-11T00:00	28950	15	-44.1		94	16	
2025-07-11T00:00	29000	15	-44.0		95	17	
2025-07-11T00:00	29050	15	-44.0		95	16	
2025-07-11T00:00	29100	15	-43.8		95	16	
2025-07-11T00:00	29150	14	-43.7		96	16	
2025-07-11T00:00	29200	14	-43.8		99	15	
2025-07-11T00:00	29250	14	-43.8		103	16	
2025-07-11T00:00	29300	14	-43.7		106	16	
2025-07-11T00:00	29350	14	-43.6		109	16	
2025-07-11T00:00	29400	14	-43.6		111	16	
2025-07-11T00:00	29450	14	-43.5		113	15	
2025-07-11T00:00	29500	14	-43.5		112	15	
2025-07-11T00:00	29550	14	-43.3		107	14	
2025-07-11T00:00	29600	13	-43.2		101	13	
2025-07-11T00:00	29650	13	-43.0		96	12	
2025-07-11T00:00	29700	13	-42.5		91	12	
2025-07-11T00:00	29750	13	-42.0		86	13	
2025-07-11T00:00	29800	13	-41.4		82	13	
2025-07-11T00:00	29850	13	-41.4		79	13	
2025-07-11T00:00	29900	13	-41.6		78	13	
2025-07-11T00:00	29950	13	-41.7		80	13	
2025-07-11T00:00	30000	13	-41.9		84	13	
2025-07-11T00:00	30050	13	-42.0		89	13	
2025-07-11T00:00	30100	13	-42.2		96	12	
2025-07-11T00:00	30150	12	-42.3		102	12	
2025-07-11T00:00	30200	12	-42.4		105	12	
2025-07-11T00:00	30250	12	-42.5		105	11	
2025-07-11T00:00	30300	12	-42.2		103	10	
2025-07-11T00:00	30350	12	-41.9		100	10	
2025-07-11T00:00	30400	12	-41.8		96	9	
2025-07-11T00:00	30450	12	-41.9		88	9	
2025-07-11T00:00	30500	12	-42.1		77	10	
2025-07-11T00:00	30550	12	-41.7		65	11	
2025-07-11T00:00	30600	12	-41.2		61	12	
2025-07-11T00:00	30650	12	-41.1		63	13	
2025-07-11T00:00	30700	11	-40.9		68	15	
2025-07-11T00:00	30750	11	-40.8		73	16	
2025-07-11T00:00	30800	11	-40.8		76	17	
2025-07-11T00:00	30850	11	-40.7		76	17	
2025-07-11T00:00	30900	11	-40.3		75	16	
2025-07-11T00:00	30950	11	-40.2		74	16	
2025-07-11T00:00	31000	11	-40.3		75	16	
2025-07-11T00:00	31050	11	-40.4		76	16	
2025-07-11T00:00	31100	11	-40.5		77	16	
2025-07-11T00:00	31150	11	-40.5		79	16	
2025-07-11T00:00	31200	11	-40.7		82	17	
2025-07-11T00:00	31250	11	-40.6		83	17	
2025-07-11T00:00	31300	10	-40.5		84	17	
2025-07-11T00:00	31350	10	-40.3		83	17	
2025-07-11T00:00	31400	10	-40.0		83	18	
2025-07-11T00:00	31450	10	-39.7		85	19	
2025-07-11T00:00	31500	10	-39.7		87	19	
2025-07-11T00:00	31550	10	-39.6		88	19	
2025-07-11T00:00	31600	10	-39.4		89	18	
2025-07-11T00:00	31650	10	-39.4		89	16	
2025-07-11T00:00	31700	10	-39.4		90	15	
2025-07-11T00:00	31750	10	-39.4		90	14	
2025-07-11T00:00	31800	10	-39.3		89	14	
2025-07-11T00:00	31850	10	-39.3		87	15	
2025-07-11T00:00	31900	10	-39.4		86	16	
2025-07-11T00:00	31950	10	-39.3		84	16	
2025-07-11T00:00	32000	9	-39.3		83	17	
2025-07-11T00:00	32050	9	-39.2		81	17	
2025-07-11T00:00	32100	9	-39.2		77	17	
2025-07-11T00:00	32150	9	-38.9		73	18	
2025-07-11T00:00	32200	9	-38.8		69	19	
2025-07-11T00:00	32250	9	-38.5		66	20	
2025-07-11T00:00	32300	9	-38.2		65	20	
2025-07-11T00:00	32350	9	-37.8		66	21	
2025-07-11T00:00	32400	9	-37.6		68	21	
2025-07-11T00:00	32450	9	-37.5		71	21	
2025-07-11T00:00	32500	9	-37.8		74	20	
2025-07-11T00:00	32550	9	-38.0		77	20	
2025-07-11T00:00	32600	9	-38.2		81	19	
2025-07-11T00:00	32650	9	-38.4		84	19	
2025-07-11T00:00	32700	9	-38.6		85	19	
2025-07-11T00:00	32750	8	-38.5		83	19	
2025-07-11T00:00	32800	8	-38.3		80	19	
2025-07-11T00:00	32850	8	-38.3		77	20	
2025-07-11T00:00	32900	8	-38.1		76	20	
2025-07-11T00:00	32950	8	-37.9		77	20	
2025-07-11T00:00	33000	8	-37.6		79	20	
2025-07-11T00:00	33050	8	-37.7		83	20	
2025-07-11T00:00	33100	8	-37.8		85	20	
2025-07-11T00:00	33150	8	-37.7		87	21	
2025-07-11T00:00	33200	8	-37.6		87	21	
2025-07-11T00:00	33250	8	-37.6		86	21	
2025-07-11T00:00	33300	8	-37.6		85	21	
2025-07-11T00:00	33350	8	-37.6		84	21	
2025-07-11T00:00	33400	8	-37.6		83	20	
2025-07-11T00:00	33450	8	-37.4		82	20	
2025-07-11T00:00	33500	8	-36.6		82	20	
2025-07-11T00:00	33550	8	-36.2		80	20	
2025-07-11T00:00	33600	8	-36.0		79	22	
2025-07-11T00:00	33650	7	-35.7		79	23	
2025-07-11T00:00	33700	7	-35.5		79	24	
2025-07-11T00:00	33750	7	-35.3		80	24	
2025-07-11T00:00	33800	7	-35.3		82	23	
2025-07-11T00:00	33850	7	-35.4		85	22	
2025-07-11T00:00	33900	7	-35.6		88	21	
2025-07-11T00:00	33950	7	-35.6		91	20	
2025-07-11T00:00	34000	7	-35.4		92	20	
2025-07-11T00:00	34050	7	-35.6		90	20	
2025-07-11T00:00	34100	7	-35.3		85	21	
2025-07-11T00:00	34150	7	-35.2		81	22	
2025-07-11T00:00	34200	7	-34.9		79	23	
2025-07-11T00:00	34250	7	-34.6		79	24	
2025-07-11T00:00	34300	7	-34.5		80	24	
2025-07-11T00:00	34350	7	-34.7		81	23	
2025-07-11T00:00	34400	7	-34.7		83	23	
2025-07-11T00:00	34450	7	-34.7		82	23	
2025-07-11T00:00	34500	7	-34.2		80	24	
2025-07-11T00:00	34550	7	-33.8		78	24	
2025-07-11T00:00	34600	7	-33.8		77	25	
2025-07-11T00:00	34650	6	-33.9		77	26	
2025-07-11T00:00	34700	6	-33.8		78	28	
2025-07-11T00:00	34750	6	-33.9		81	29	
2025-07-11T00:00	34800	6	-33.9		84	29	
2025-07-11T00:00	34850	6	-34.0		87	30	
2025-07-11T00:00	34900	6	-33.9		89	30	
2025-07-11T00:00	34950	6	-33.9		90	30	
2025-07-11T00:00	35000	6	-33.5		89	30	
2025-07-11T00:00	35050	6	-33.0		88	29	
2025-07-11T00:00	35100	6	-32.7		89	27	
2025-07-11T00:00	35150	6	-32.4		91	27	
2025-07-11T00:00	35200	6	-32.4		92	27	
2025-07-11T00:00	35250	6	-32.3		91	27	
2025-07-11T00:00	35300	6	-32.2		90	28	
2025-07-11T00:00	35350	6	-32.2		90	28	
2025-07-11T00:00	35400	6	-32.0		91	27	
2025-07-11T00:00	35450	6	-31.9		93	25	
2025-07-11T00:00	35500	6	-31.9		94	24	
2025-07-11T00:00	35550	6	-31.8		94	22	
2025-07-11T00:00	35600	6	-31.5		94	21	
2025-07-11T00:00	35650	6	-31.4		92	21	
2025-07-11T00:00	35700	6	-31.3		90	21	
2025-07-11T00:00	35750	6	-31.0		87	21	
2025-07-11T00:00	35800	5	-30.9		86	23	
2025-07-11T00:00	35850	5	-30.7		87	24	
2025-07-11T00:00	35900	5	-30.7		89	25	
2025-07-11T00:00	35950	5	-30.8		91	26	
2025-07-11T00:00	36000	5	-30.7		94	26	
2025-07-11T00:00	36050	5	-30.9		96	26	
2025-07-11T00:00	36100	5	-30.8		98	25	
2025-07-11T00:00	36150	5	-30.8		99	24	
2025-07-11T00:00	36200	5	-30.7		97	23	
2025-07-11T00:00	36250	5	-30.0		94	22	
2025-07-11T00:00	36300	5	-29.0		91	22	
2025-07-11T00:00	36350	5	-28.5		90	23	
2025-07-11T12:00	491	960	25.1	8.6	36	5	5.8
2025-07-11T12:00	501	959	24.2	8.2	49	4	5.8
2025-07-11T12:00	520	957	23.7	8.0	48	4	5.9
2025-07-11T12:00	540	955	23.2	7.7	44	5	5.8
2025-07-11T12:00	560	952	22.6	7.3	41	6	5.8
2025-07-11T12:00	580	950	22.2	7.0	39	6	5.8
2025-07-11T12:00	600	948	21.9	7.0	39	6	5.8
2025-07-11T12:00	620	946	21.7	6.8	40	6	5.8
2025-07-11T12:00	640	944	21.6	7.0	42	6	5.8
2025-07-11T12:00	660	942	21.1	6.7	44	7	5.8
2025-07-11T12:00	680	939	20.9	6.6	45	7	5.9
2025-07-11T12:00	700	937	20.8	6.6	46	7	5.9
2025-07-11T12:00	720	935	20.6	6.6	46	7	5.8
2025-07-11T12:00	740	933	20.4	6.8	46	7	5.8
2025-07-11T12:00	760	931	20.2	6.6	46	7	5.8
2025-07-11T12:00	780	928	20.0	6.5	45	7	5.8
2025-07-11T12:00	800	926	19.8	6.4	44	7	5.8
2025-07-11T12:00	820	924	19.7	6.4	42	6	5.8
2025-07-11T12:00	840	922	19.5	6.4	39	6	5.9
2025-07-11T12:00	860	920	19.2	6.3	36	5	5.8
2025-07-11T12:00	880	918	19.1	6.1	33	5	5.8
2025-07-11T12:00	900	916	19.1	5.9	29	4	5.8
2025-07-11T12:00	920	913	19.0	5.9	28	4	5.8
2025-07-11T12:00	940	911	18.9	5.9	30	4	5.8
2025-07-11T12:00	960	909	18.4	6.1	34	4	5.8
2025-07-11T12:00	980	907	18.2	6.0	38	4	5.7
2025-07-11T12:00	1000	905	18.0	6.1	41	4	5.7
2025-07-11T12:00	1020	903	17.7	6.1	44	5	5.7
2025-07-11T12:00	1040	901	17.5	6.1	46	5	5.7
2025-07-11T12:00	1060	899	17.4	6.0	49	5	5.7
2025-07-11T12:00	1080	897	17.2	6.1	52	5	5.7
2025-07-11T12:00	1100	894	17.0	6.1	55	5	5.7
2025-07-11T12:00	1120	892	16.8	5.9	57	5	5.7
2025-07-11T12:00	1140	890	16.6	5.9	60	6	5.7
2025-07-11T12:00	1160	888	16.5	5.7	61	6	5.7
2025-07-11T12:00	1180	886	16.4	5.3	62	6	5.7
2025-07-11T12:00	1200	884	16.3	5.0	63	5	5.7
2025-07-11T12:00	1220	882	16.1	5.1	64	5	5.6
2025-07-11T12:00	1240	880	15.9	5.1	64	5	5.6
2025-07-11T12:00	1260	878	15.8	5.0	64	5	5.6
2025-07-11T12:00	1280	876	15.6	5.0	64	5	5.6
2025-07-11T12:00	1300	874	15.3	4.9	64	5	5.6
2025-07-11T12:00	1320	872	15.1	4.9	64	5	5.5
2025-07-11T12:00	1340	870	14.9	4.7	64	5	5.5
2025-07-11T12:00	1360	868	14.7	5.0	64	5	5.5
2025-07-11T12:00	1380	865	14.5	5.0	64	5	5.5
2025-07-11T12:00	1400	863	14.4	4.5	64	5	5.4
2025-07-11T12:00	1420	861	14.2	4.7	65	5	5.4
2025-07-11T12:00	1440	860	14.0	4.7	65	6	5.4
2025-07-11T12:00	1460	858	13.8	5.4	66	6	5.5
2025-07-11T12:00	1480	855	13.6	4.8	67	6	5.4
2025-07-11T12:00	1500	853	13.4	4.4	69	5	5.4
2025-07-11T12:00	1520	851	13.3	4.3	70	5	5.4
2025-07-11T12:00	1540	849	13.0	4.3	71	5	5.4
2025-07-11T12:00	1560	847	12.8	4.3	71	4	5.4
2025-07-11T12:00	1580	845	12.6	4.4	71	4	5.4
2025-07-11T12:00	1600	843	12.4	4.1	70	4	5.4
2025-07-11T12:00	1620	841	12.2	4.2	67	4	5.3
2025-07-11T12:00	1640	839	12.0	3.9	65	4	5.4
2025-07-11T12:00	1660	837	11.9	3.8	62	4	5.4
2025-07-11T12:00	1680	835	11.8	3.6	59	4	5.3
2025-07-11T12:00	1700	833	11.7	3.5	55	4	5.3
2025-07-11T12:00	1720	831	11.6	3.4	50	4	5.3
2025-07-11T12:00	1740	829	11.4	3.2	45	4	5.2
2025-07-11T12:00	1760	827	11.2	3.5	41	4	5.2
2025-07-11T12:00	1780	825	11.0	3.7	39	4	5.2
2025-07-11T12:00	1800	823	10.7	3.5	38	4	5.1
2025-07-11T12:00	1820	821	10.5	3.4	39	3	5.1
2025-07-11T12:00	1840	819	10.4	2.2	44	3	5.1
2025-07-11T12:00	1860	817	10.4	1.5	50	2	5.1
2025-07-11T12:00	1880	816	10.5	0.5	57	2	5.0
2025-07-11T12:00	1900	813	10.6	-0.9	65	2	5.0
2025-07-11T12:00	1920	812	10.4	-0.8	70	2	4.9
2025-07-11T12:00	1940	810	10.2	-1.2	69	1	4.9
2025-07-11T12:00	1960	808	10.1	-1.7	61	1	4.8
2025-07-11T12:00	1980	806	10.0	-2.1	50	2	4.7
2025-07-11T12:00	2000	804	9.9	-1.7	41	2	4.7
2025-07-11T12:00	2020	802	10.0	-1.5	37	2	4.6
2025-07-11T12:00	2040	800	10.2	-1.7	36	3	4.5
2025-07-11T12:00	2060	798	10.3	-2.9	35	3	4.4
2025-07-11T12:00	2080	796	10.3	-3.4	34	3	4.3
2025-07-11T12:00	2100	794	10.1	-4.9	34	3	4.4
2025-07-11T12:00	2120	792	10.0	-6.0	34	3	4.4
2025-07-11T12:00	2140	790	10.0	-10.3	33	3	4.4
2025-07-11T12:00	2160	788	10.1	-14.7	32	3	4.5
2025-07-11T12:00	2180	786	10.2	-12.2	31	3	4.8
2025-07-11T12:00	2200	785	10.3	-10.0	30	3	5.0
2025-07-11T12:00	2220	783	10.1	-9.9	29	3	5.1
2025-07-11T12:00	2240	781	9.9	-9.6	30	3	5.3
2025-07-11T12:00	2260	779	9.7	-9.0	31	3	5.3
2025-07-11T12:00	2280	777	9.4	-5.8	32	4	5.4
2025-07-11T12:00	2300	775	9.2	-2.5	34	4	5.3
2025-07-11T12:00	2320	773	9.0	-1.3	35	4	5.2
2025-07-11T12:00	2340	771	8.8	-0.7	36	4	5.1
2025-07-11T12:00	2360	770	8.6	-0.8	35	3	5.0
2025-07-11T12:00	2380	768	8.4	-0.5	34	3	4.8
2025-07-11T12:00	2400	766	8.1	-0.6	32	3	4.7
2025-07-11T12:00	2420	764	8.0	0.1	30	3	4.6
2025-07-11T12:00	2440	762	7.8	0.9	29	3	4.5
2025-07-11T12:00	2460	760	7.7	1.0	29	3	4.3
2025-07-11T12:00	2480	758	7.4	1.2	29	3	4.1
2025-07-11T12:00	2500	756	7.2	1.2	30	3	4.0
2025-07-11T12:00	2520	755	7.1	1.1	30	3	3.9
2025-07-11T12:00	2540	753	6.9	0.9	30	3	3.8
2025-07-11T12:00	2560	751	6.8	1.0	30	4	3.7
2025-07-11T12:00	2580	749	6.5	1.1	29	4	3.7
2025-07-11T12:00	2600	748	6.3	0.9	29	4	3.6
2025-07-11T12:00	2620	746	6.1	0.6	28	4	3.5
2025-07-11T12:00	2640	744	5.9	0.5	26	4	3.5
2025-07-11T12:00	2660	742	5.9	-0.6	26	4	3.5
2025-07-11T12:00	2680	740	5.9	-1.4	25	4	3.6
2025-07-11T12:00	2700	739	5.7	-2.2	25	3	3.6
2025-07-11T12:00	2720	737	5.6	-2.9	25	3	3.7
2025-07-11T12:00	2740	735	5.6	-4.2	26	3	3.8
2025-07-11T12:00	2760	733	5.5	-4.4	28	3	3.9
2025-07-11T12:00	2780	731	5.4	-4.4	30	3	4.0
2025-07-11T12:00	2800	730	5.4	-4.1	33	3	4.1
2025-07-11T12:00	2820	728	5.3	-3.9	35	4	4.2
2025-07-11T12:00	2840	726	5.1	-3.7	37	4	4.2
2025-07-11T12:00	2860	724	5.0	-3.5	37	4	4.3
2025-07-11T12:00	2880	722	4.8	-3.3	36	4	4.3
2025-07-11T12:00	2900	720	4.5	-3.1	34	4	4.3
2025-07-11T12:00	2920	719	4.3	-3.2	33	4	4.3
2025-07-11T12:00	2940	717	4.2	-3.0	31	4	4.2
2025-07-11T12:00	2960	715	4.0	-2.4	30	4	4.2
2025-07-11T12:00	2980	714	3.8	-1.4	29	4	4.1
2025-07-11T12:00	3000	712	3.6	-2.5	29	4	4.0
2025-07-11T12:00	3020	710	3.6	-3.1	29	4	3.9
2025-07-11T12:00	3040	709	3.6	-3.1	28	4	3.9
2025-07-11T12:00	3060	707	3.4	-2.6	28	4	3.8
2025-07-11T12:00	3080	705	3.2	-1.4	26	4	3.8
2025-07-11T12:00	3100	703	3.1	-2.0	24	4	3.7
2025-07-11T12:00	3120	702	3.0	-2.9	21	4	3.6
2025-07-11T12:00	3140	700	2.9	-4.1	17	4	3.6
2025-07-11T12:00	3160	698	2.8	-4.6	13	4	3.6
2025-07-11T12:00	3180	696	2.7	-5.1	9	4	3.6
2025-07-11T12:00	3200	694	2.6	-5.7	5	4	3.7
2025-07-11T12:00	3220	693	2.5	-7.0	2	5	3.7
2025-07-11T12:00	3240	691	2.7	-10.9	359	5	3.8
2025-07-11T12:00	3260	689	2.8	-11.1	357	5	3.9
2025-07-11T12:00	3280	687	2.7	-11.2	356	5	4.1
2025-07-11T12:00	3300	686	2.5	-12.7	357	5	4.2
2025-07-11T12:00	3320	684	2.4	-13.2	357	6	4.3
2025-07-11T12:00	3340	682	2.3	-13.6	358	6	4.5
2025-07-11T12:00	3360	681	2.3	-10.2	358	6	4.6
2025-07-11T12:00	3380	679	2.3	-7.6	358	6	4.6
2025-07-11T12:00	3400	678	2.2	-8.1	358	6	4.5
2025-07-11T12:00	3420	676	2.0	-8.3	358	6	4.4
2025-07-11T12:00	3440	674	1.8	-8.6	357	6	4.3
2025-07-11T12:00	3460	673	1.6	-8.6	356	6	4.3
2025-07-11T12:00	3480	671	1.4	-8.9	356	6	4.3
2025-07-11T12:00	3500	669	1.3	-8.1	356	6	4.3
2025-07-11T12:00	3520	668	1.1	-6.5	355	6	4.2
2025-07-11T12:00	3540	666	0.9	-5.9	356	6	4.2
2025-07-11T12:00	3560	664	0.7	-5.1	356	6	4.1
2025-07-11T12:00	3580	662	0.4	-4.8	357	6	3.9
2025-07-11T12:00	3600	661	0.2	-4.6	358	6	3.8
2025-07-11T12:00	3620	659	0.1	-4.9	359	6	3.7
2025-07-11T12:00	3640	658	-0.1	-5.3	0	5	3.6
2025-07-11T12:00	3660	656	-0.2	-5.3	1	5	3.5
2025-07-11T12:00	3680	654	-0.4	-5.0	2	5	3.4
2025-07-11T12:00	3700	653	-0.6	-4.8	3	5	3.4
2025-07-11T12:00	3720	651	-0.8	-4.6	2	5	3.3
2025-07-11T12:00	3740	649	-0.9	-4.9	1	5	3.2
2025-07-11T12:00	3760	648	-0.9	-5.1	359	5	3.1
2025-07-11T12:00	3780	646	-1.0	-4.9	357	5	3.1
2025-07-11T12:00	3800	645	-1.1	-5.3	356	5	3.0
2025-07-11T12:00	3820	643	-1.1	-6.3	355	6	3.0
2025-07-11T12:00	3840	641	-1.1	-6.8	355	6	2.9
2025-07-11T12:00	3860	640	-1.2	-6.5	356	6	2.9
2025-07-11T12:00	3880	638	-1.4	-6.2	357	6	3.0
2025-07-11T12:00	3900	637	-1.6	-6.1	358	6	3.0
2025-07-11T12:00	3920	635	-1.9	-6.0	360	6	3.0
2025-07-11T12:00	3940	633	-2.0	-6.0	0	6	2.9
2025-07-11T12:00	3960	632	-2.2	-6.1	1	6	2.9
2025-07-11T12:00	3980	630	-2.3	-6.1	0	6	2.9
2025-07-11T12:00	4000	629	-2.4	-6.6	359	7	2.8
2025-07-11T12:00	4020	627	-2.5	-6.7	358	7	2.8
2025-07-11T12:00	4040	625	-2.7	-6.8	356	7	2.8
2025-07-11T12:00	4060	624	-2.8	-7.2	355	7	2.8
2025-07-11T12:00	4080	622	-2.9	-7.5	354	7	2.8
2025-07-11T12:00	4100	621	-3.1	-7.6	353	7	2.9
2025-07-11T12:00	4120	619	-3.2	-7.7	353	7	2.9
2025-07-11T12:00	4140	618	-3.4	-7.6	354	7	2.9
2025-07-11T12:00	4160	616	-3.6	-7.7	355	7	2.9
2025-07-11T12:00	4180	614	-3.7	-7.9	355	7	2.9
2025-07-11T12:00	4200	613	-3.9	-8.0	356	7	2.9
2025-07-11T12:00	4220	611	-4.1	-8.0	356	7	2.9
2025-07-11T12:00	4240	610	-4.1	-8.1	355	7	2.9
2025-07-11T12:00	4260	608	-4.3	-8.4	354	7	3.0
2025-07-11T12:00	4280	607	-4.5	-8.6	353	7	3.0
2025-07-11T12:00	4300	605	-4.7	-8.8	352	7	3.0
2025-07-11T12:00	4320	604	-4.7	-9.1	351	7	2.9
2025-07-11T12:00	4340	602	-4.9	-9.1	351	8	3.0
2025-07-11T12:00	4360	600	-5.1	-9.6	351	8	3.0
2025-07-11T12:00	4380	599	-5.0	-10.6	352	8	2.9
2025-07-11T12:00	4400	598	-5.0	-13.5	353	9	3.0
2025-07-11T12:00	4420	596	-4.9	-17.2	354	9	3.1
2025-07-11T12:00	4440	595	-5.0	-18.5	355	9	3.3
2025-07-11T12:00	4460	593	-5.0	-18.5	355	9	3.5
2025-07-11T12:00	4480	591	-5.2	-18.0	355	9	3.7
2025-07-11T12:00	4500	590	-5.3	-18.1	355	9	3.8
2025-07-11T12:00	4520	588	-5.4	-15.8	354	9	3.9
2025-07-11T12:00	4540	587	-5.6	-13.3	354	9	4.0
2025-07-11T12:00	4560	586	-5.7	-12.0	352	9	4.1
2025-07-11T12:00	4580	584	-5.9	-12.0	351	10	4.0
2025-07-11T12:00	4600	582	-6.0	-12.1	350	10	3.9
2025-07-11T12:00	4620	581	-6.2	-12.8	348	10	3.9
2025-07-11T12:00	4640	579	-6.3	-13.3	348	10	3.9
2025-07-11T12:00	4660	578	-6.4	-13.7	347	10	3.8
2025-07-11T12:00	4680	577	-6.5	-14.0	346	10	3.8
2025-07-11T12:00	4700	575	-6.6	-14.3	344	10	3.8
2025-07-11T12:00	4720	574	-6.6	-14.5	343	10	3.8
2025-07-11T12:00	4740	572	-6.8	-14.9	342	10	3.8
2025-07-11T12:00	4760	571	-7.0	-14.6	340	9	3.7
2025-07-11T12:00	4780	569	-7.1	-12.9	339	10	3.8
2025-07-11T12:00	4800	568	-7.2	-13.1	339	10	3.7
2025-07-11T12:00	4820	566	-7.3	-13.2	338	10	3.6
2025-07-11T12:00	4840	565	-7.6	-13.4	338	10	3.6
2025-07-11T12:00	4860	563	-7.6	-13.8	339	10	3.5
2025-07-11T12:00	4880	562	-7.7	-14.7	339	10	3.5
2025-07-11T12:00	4900	560	-7.8	-15.9	339	10	3.4
2025-07-11T12:00	4920	559	-7.8	-15.5	339	10	3.4
2025-07-11T12:00	4940	558	-7.9	-15.7	339	10	3.4
2025-07-11T12:00	4960	556	-8.0	-16.2	339	10	3.4
2025-07-11T12:00	4980	555	-8.1	-16.4	339	10	3.4
2025-07-11T12:00	5000	553	-8.3	-16.5	339	10	3.4
2025-07-11T12:00	5020	552	-8.4	-17.2	339	10	3.4
2025-07-11T12:00	5040	551	-8.4	-17.4	339	10	3.4
2025-07-11T12:00	5060	549	-8.6	-15.8	340	10	3.4
2025-07-11T12:00	5080	548	-8.8	-15.6	340	10	3.4
2025-07-11T12:00	5100	546	-9.0	-15.7	341	10	3.4
2025-07-11T12:00	5120	545	-9.1	-15.9	342	10	3.4
2025-07-11T12:00	5140	543	-9.3	-15.9	343	10	3.3
2025-07-11T12:00	5160	542	-9.5	-16.0	344	10	3.3
2025-07-11T12:00	5180	541	-9.6	-16.0	345	10	3.3
2025-07-11T12:00	5200	539	-9.8	-16.0	346	11	3.3
2025-07-11T12:00	5220	538	-10.0	-16.0	346	11	3.3
2025-07-11T12:00	5240	536	-10.2	-16.2	347	11	3.3
2025-07-11T12:00	5260	535	-10.4	-16.3	347	11	3.3
2025-07-11T12:00	5280	534	-10.6	-16.4	347	12	3.3
2025-07-11T12:00	5300	532	-10.7	-17.0	347	12	3.2
2025-07-11T12:00	5320	531	-10.9	-17.9	347	12	3.2
2025-07-11T12:00	5340	529	-11.0	-18.4	347	12	3.3
2025-07-11T12:00	5360	528	-11.1	-18.5	347	12	3.3
2025-07-11T12:00	5380	527	-11.3	-18.6	347	12	3.3
2025-07-11T12:00	5400	525	-11.3	-18.3	347	11	3.3
2025-07-11T12:00	5420	524	-11.5	-18.3	346	11	3.3
2025-07-11T12:00	5440	522	-11.7	-18.5	346	11	3.2
2025-07-11T12:00	5460	521	-11.9	-18.8	346	11	3.2
2025-07-11T12:00	5480	520	-11.9	-19.2	345	11	3.1
2025-07-11T12:00	5500	519	-12.0	-19.8	345	11	3.1
2025-07-11T12:00	5520	517	-12.1	-20.5	345	11	3.2
2025-07-11T12:00	5540	516	-12.3	-20.7	344	11	3.2
2025-07-11T12:00	5560	515	-12.4	-21.8	344	11	3.2
2025-07-11T12:00	5580	513	-12.5	-22.7	343	11	3.3
2025-07-11T12:00	5600	512	-12.7	-22.8	343	11	3.4
2025-07-11T12:00	5620	510	-12.8	-22.4	342	11	3.4
2025-07-11T12:00	5640	509	-13.0	-22.9	341	11	3.5
2025-07-11T12:00	5660	508	-13.1	-22.7	340	11	3.5
2025-07-11T12:00	5680	506	-13.2	-21.9	339	11	3.5
2025-07-11T12:00	5700	505	-13.2	-22.6	338	11	3.5
2025-07-11T12:00	5720	504	-13.3	-23.3	338	11	3.5
2025-07-11T12:00	5740	502	-13.5	-23.0	337	12	3.5
2025-07-11T12:00	5760	501	-13.7	-23.0	337	12	3.5
2025-07-11T12:00	5780	500	-13.7	-22.1	336	12	3.5
2025-07-11T12:00	5800	499	-13.9	-21.7	336	12	3.5
2025-07-11T12:00	5820	497	-14.1	-21.7	336	12	3.4
2025-07-11T12:00	5840	496	-14.2	-22.1	336	12	3.4
2025-07-11T12:00	5860	495	-14.3	-22.4	336	12	3.3
2025-07-11T12:00	5880	493	-14.3	-22.5	335	12	3.3
2025-07-11T12:00	5900	492	-14.6	-22.4	335	12	3.3
2025-07-11T12:00	5920	491	-14.7	-22.6	334	12	3.3
2025-07-11T12:00	5940	490	-14.8	-23.0	333	12	3.3
2025-07-11T12:00	5960	488	-15.1	-23.1	332	12	3.3
2025-07-11T12:00	5980	487	-15.3	-23.2	331	12	3.3
2025-07-11T12:00	6000	486	-15.4	-23.4	330	12	3.3
2025-07-11T12:00	6020	484	-15.6	-23.5	329	12	3.3
2025-07-11T12:00	6040	483	-15.7	-23.7	328	12	3.3
2025-07-11T12:00	6060	482	-15.9	-23.6	327	12	3.3
2025-07-11T12:00	6080	480	-16.0	-23.6	327	12	3.3
2025-07-11T12:00	6100	479	-16.2	-23.8	328	12	3.3
2025-07-11T12:00	6120	478	-16.3	-24.0	328	13	3.3
2025-07-11T12:00	6140	477	-16.5	-23.9	330	13	3.3
2025-07-11T12:00	6160	475	-16.7	-23.6	330	13	3.3
2025-07-11T12:00	6180	474	-16.9	-23.2	331	13	3.3
2025-07-11T12:00	6200	473	-17.0	-23.4	332	13	3.3
2025-07-11T12:00	6220	471	-17.2	-23.8	332	13	3.3
2025-07-11T12:00	6240	470	-17.3	-23.7	333	13	3.3
2025-07-11T12:00	6260	469	-17.5	-23.5	333	13	3.3
2025-07-11T12:00	6280	468	-17.7	-24.0	334	13	3.3
2025-07-11T12:00	6300	467	-17.7	-24.7	334	13	3.3
2025-07-11T12:00	6320	465	-17.8	-24.8	334	14	3.2
2025-07-11T12:00	6340	464	-17.9	-24.9	334	14	3.2
2025-07-11T12:00	6360	463	-18.0	-25.2	334	14	3.2
2025-07-11T12:00	6380	462	-18.1	-25.5	333	14	3.2
2025-07-11T12:00	6400	460	-18.4	-25.2	333	14	3.1
2025-07-11T12:00	6420	459	-18.6	-24.8	333	14	3.1
2025-07-11T12:00	6440	458	-18.8	-24.8	333	14	3.1
2025-07-11T12:00	6460	457	-18.9	-24.9	332	14	3.1
2025-07-11T12:00	6480	455	-19.2	-24.8	332	13	3.1
2025-07-11T12:00	6500	454	-19.4	-25.1	331	13	3.1
2025-07-11T12:00	6520	453	-19.5	-25.1	331	13	3.1
2025-07-11T12:00	6540	452	-19.6	-25.0	331	13	3.1
2025-07-11T12:00	6560	451	-19.8	-25.7	331	13	3.1
2025-07-11T12:00	6580	449	-20.0	-25.8	331	14	3.0
2025-07-11T12:00	6600	448	-20.2	-26.0	332	14	3.0
2025-07-11T12:00	6620	447	-20.4	-26.2	333	14	3.0
2025-07-11T12:00	6640	446	-20.5	-26.3	333	14	3.0
2025-07-11T12:00	6660	444	-20.6	-26.5	333	14	2.9
2025-07-11T12:00	6680	443	-20.7	-27.1	334	14	2.9
2025-07-11T12:00	6700	442	-20.8	-27.2	334	14	2.9
2025-07-11T12:00	6720	441	-21.0	-27.1	334	14	2.9
2025-07-11T12:00	6740	440	-21.2	-26.9	333	14	2.9
2025-07-11T12:00	6760	438	-21.3	-26.9	333	14	2.9
2025-07-11T12:00	6780	437	-21.4	-26.8	333	15	2.9
2025-07-11T12:00	6800	436	-21.7	-27.0	332	14	2.9
2025-07-11T12:00	6820	435	-21.8	-27.0	332	14	2.9
2025-07-11T12:00	6840	434	-22.0	-26.8	332	14	2.9
2025-07-11T12:00	6860	433	-22.3	-26.9	331	14	2.8
2025-07-11T12:00	6880	431	-22.5	-27.1	331	14	2.8
2025-07-11T12:00	6900	430	-22.7	-27.0	332	14	2.8
2025-07-11T12:00	6920	429	-22.9	-26.8	332	14	2.8
2025-07-11T12:00	6940	428	-23.0	-26.7	333	14	2.8
2025-07-11T12:00	6960	427	-23.2	-27.0	333	14	2.8
2025-07-11T12:00	6980	426	-23.4	-27.1	334	14	2.8
2025-07-11T12:00	7000	424	-23.6	-27.6	334	14	2.8
2025-07-11T12:00	7020	423	-23.7	-27.7	334	14	2.8
2025-07-11T12:00	7040	422	-23.8	-27.8	334	14	2.8
2025-07-11T12:00	7060	421	-24.0	-28.0	334	14	2.8
2025-07-11T12:00	7080	420	-24.1	-28.4	333	14	2.8
2025-07-11T12:00	7100	419	-24.2	-28.7	333	14	2.8
2025-07-11T12:00	7120	418	-24.3	-28.7	333	14	2.8
2025-07-11T12:00	7140	417	-24.4	-28.9	333	14	2.8
2025-07-11T12:00	7160	415	-24.6	-29.4	332	14	2.9
2025-07-11T12:00	7180	414	-24.7	-30.0	332	14	2.9
2025-07-11T12:00	7200	413	-24.8	-30.1	332	14	2.9
2025-07-11T12:00	7220	412	-24.9	-30.7	331	14	3.0
2025-07-11T12:00	7240	411	-25.0	-31.0	331	15	3.1
2025-07-11T12:00	7260	410	-25.2	-30.8	330	15	3.1
2025-07-11T12:00	7280	409	-25.3	-30.8	330	15	3.2
2025-07-11T12:00	7300	407	-25.4	-31.7	329	15	3.2
2025-07-11T12:00	7320	406	-25.6	-31.8	329	15	3.2
2025-07-11T12:00	7340	405	-25.8	-32.0	329	16	3.2
2025-07-11T12:00	7360	404	-25.9	-32.3	328	16	3.3
2025-07-11T12:00	7380	403	-26.0	-32.1	328	16	3.3
2025-07-11T12:00	7400	402	-26.2	-32.2	328	16	3.4
2025-07-11T12:00	7420	400	-26.4	-32.4	327	16	3.4
2025-07-11T12:00	7440	400	-26.4	-33.1	327	16	3.4
2025-07-11T12:00	7460	398	-26.6	-33.4	327	16	3.5
2025-07-11T12:00	7480	397	-26.8	-33.4	327	16	3.5
2025-07-11T12:00	7500	396	-26.9	-33.8	328	16	3.6
2025-07-11T12:00	7520	395	-27.1	-33.7	328	16	3.6
2025-07-11T12:00	7540	394	-27.3	-33.8	328	16	3.7
2025-07-11T12:00	7560	393	-27.4	-34.4	329	16	3.7
2025-07-11T12:00	7580	392	-27.4	-36.0	329	16	3.7
2025-07-11T12:00	7600	391	-27.4	-37.5	329	16	3.7
2025-07-11T12:00	7620	390	-27.5	-38.5	329	16	3.7
2025-07-11T12:00	7640	389	-27.7	-38.7	330	16	3.7
2025-07-11T12:00	7660	388	-27.8	-38.9	330	16	3.6
2025-07-11T12:00	7680	386	-27.9	-39.5	330	15	3.6
2025-07-11T12:00	7700	385	-28.2	-40.1	329	15	3.5
2025-07-11T12:00	7720	384	-28.3	-40.5	329	15	3.5
2025-07-11T12:00	7740	383	-28.4	-41.2	329	15	3.5
2025-07-11T12:00	7760	382	-28.6	-42.0	328	14	3.4
2025-07-11T12:00	7780	381	-28.7	-42.8	327	14	3.4
2025-07-11T12:00	7800	380	-28.9	-43.4	326	14	3.4
2025-07-11T12:00	7820	379	-29.0	-43.9	326	14	3.4
2025-07-11T12:00	7840	378	-29.0	-44.2	325	13	3.4
2025-07-11T12:00	7860	377	-29.2	-44.6	325	13	3.4
2025-07-11T12:00	7880	376	-29.3	-45.2	325	13	3.4
2025-07-11T12:00	7900	375	-29.4	-45.6	325	13	3.4
2025-07-11T12:00	7920	374	-29.6	-45.6	325	13	3.4
2025-07-11T12:00	7940	373	-29.7	-46.2	325	13	3.4
2025-07-11T12:00	7960	372	-29.7	-47.7	325	14	3.4
2025-07-11T12:00	7980	370	-29.8	-48.3	326	14	3.4
2025-07-11T12:00	8000	370	-29.9	-48.6	326	14	3.4
2025-07-11T12:00	8020	368	-29.9	-49.6	327	14	3.3
2025-07-11T12:00	8040	367	-30.0	-49.5	328	14	3.3
2025-07-11T12:00	8060	366	-30.1	-49.5	328	14	3.2
2025-07-11T12:00	8080	365	-30.3	-49.4	329	14	3.2
2025-07-11T12:00	8100	364	-30.4	-49.5	329	15	3.1
2025-07-11T12:00	8120	363	-30.6	-49.6	330	15	3.0
2025-07-11T12:00	8140	362	-30.8	-49.7	330	15	3.0
2025-07-11T12:00	8160	361	-30.9	-49.9	330	15	2.9
2025-07-11T12:00	8180	360	-31.1	-49.9	330	15	2.9
2025-07-11T12:00	8200	359	-31.3	-49.9	331	15	2.9
2025-07-11T12:00	8220	358	-31.4	-49.9	331	15	2.8
2025-07-11T12:00	8240	357	-31.6	-49.7	331	15	2.8
2025-07-11T12:00	8260	356	-31.7	-48.8	332	15	2.8
2025-07-11T12:00	8280	355	-31.9	-48.5	332	15	2.8
2025-07-11T12:00	8300	354	-32.1	-48.6	333	15	2.8
2025-07-11T12:00	8320	353	-32.3	-48.1	333	16	2.9
2025-07-11T12:00	8340	352	-32.4	-47.1	334	16	2.9
2025-07-11T12:00	8360	351	-32.5	-46.8	334	16	2.9
2025-07-11T12:00	8380	350	-32.6	-45.9	334	16	2.9
2025-07-11T12:00	8400	349	-32.8	-44.2	335	16	3.0
2025-07-11T12:00	8420	348	-32.9	-43.2	335	16	3.0
2025-07-11T12:00	8440	347	-33.0	-43.3	335	16	3.0
2025-07-11T12:00	8460	346	-33.2	-44.0	335	16	3.1
2025-07-11T12:00	8480	345	-33.3	-44.6	335	16	3.1
2025-07-11T12:00	8500	344	-33.5	-44.2	335	16	3.1
2025-07-11T12:00	8520	343	-33.7	-41.9	335	16	3.1
2025-07-11T12:00	8540	342	-33.8	-41.0	335	16	3.1
2025-07-11T12:00	8560	341	-34.0	-41.4	335	16	3.1
2025-07-11T12:00	8580	340	-34.2	-41.9	335	16	3.1
2025-07-11T12:00	8600	339	-34.3	-42.4	335	16	3.1
2025-07-11T12:00	8620	338	-34.4	-43.4	335	16	3.1
2025-07-11T12:00	8640	337	-34.7	-45.8	335	16	3.1
2025-07-11T12:00	8660	337	-34.8	-50.3	335	16	3.0
2025-07-11T12:00	8680	336	-34.8	-50.2	334	16	3.0
2025-07-11T12:00	8700	335	-35.0	-49.5	334	16	3.0
2025-07-11T12:00	8720	334	-35.1	-49.4	334	16	3.0
2025-07-11T12:00	8740	333	-35.3	-49.3	334	16	3.0
2025-07-11T12:00	8760	332	-35.5	-49.3	334	16	2.9
2025-07-11T12:00	8780	331	-35.7	-48.9	334	16	3.0
2025-07-11T12:00	8800	330	-35.9	-48.1	334	17	2.9
2025-07-11T12:00	8820	329	-36.0	-46.5	335	17	2.9
2025-07-11T12:00	8840	328	-36.2	-45.9	335	17	3.0
2025-07-11T12:00	8860	327	-36.2	-45.9	336	17	3.0
2025-07-11T12:00	8880	326	-36.3	-45.7	336	17	3.0
2025-07-11T12:00	8900	325	-36.5	-45.2	336	17	3.1
2025-07-11T12:00	8920	324	-36.6	-44.6	337	17	3.1
2025-07-11T12:00	8940	323	-36.8	-44.7	337	17	3.2
2025-07-11T12:00	8960	322	-36.9	-45.6	337	17	3.3
2025-07-11T12:00	8980	321	-37.0	-45.9	338	17	3.4
2025-07-11T12:00	9000	320	-37.2	-45.9	338	17	3.4
2025-07-11T12:00	9020	320	-37.4	-45.9	338	17	3.4
2025-07-11T12:00	9040	319	-37.6	-46.0	339	17	3.5
2025-07-11T12:00	9060	318	-37.8	-46.2	339	17	3.5
2025-07-11T12:00	9080	317	-37.9	-46.5	340	17	3.6
2025-07-11T12:00	9100	316	-38.0	-47.1	340	17	3.6
2025-07-11T12:00	9120	315	-38.1	-47.0	340	17	3.6
2025-07-11T12:00	9140	314	-38.3	-47.1	340	17	3.6
2025-07-11T12:00	9160	313	-38.5	-47.1	340	17	3.6
2025-07-11T12:00	9180	312	-38.6	-46.9	340	17	3.6
2025-07-11T12:00	9200	311	-38.8	-47.3	340	17	3.5
2025-07-11T12:00	9220	310	-38.9	-47.7	340	17	3.5
2025-07-11T12:00	9240	309	-39.0	-48.1	340	17	3.5
2025-07-11T12:00	9260	308	-39.2	-47.9	340	17	3.5
2025-07-11T12:00	9280	307	-39.4	-47.9	340	17	3.4
2025-07-11T12:00	9300	307	-39.6	-48.5	340	17	3.4
2025-07-11T12:00	9320	306	-39.7	-49.1	339	17	3.4
2025-07-11T12:00	9340	305	-39.8	-49.1	339	16	3.3
2025-07-11T12:00	9360	304	-40.0	-48.8	339	16	3.3
2025-07-11T12:00	9380	303	-40.2	-48.7	339	16	3.3
2025-07-11T12:00	9400	302	-40.3	-49.2	339	16	3.3
2025-07-11T12:00	9420	301	-40.5	-49.6	339	16	3.3
2025-07-11T12:00	9440	300	-40.6	-48.1	339	16	3.3
2025-07-11T12:00	9460	300	-40.8	-45.9	339	16	3.3
2025-07-11T12:00	9480	299	-41.0	-45.1	339	16	3.2
2025-07-11T12:00	9500	298	-41.2	-45.6	338	16	3.2
2025-07-11T12:00	9520	297	-41.3	-47.1	338	16	3.1
2025-07-11T12:00	9540	296	-41.5	-47.5	338	16	3.0
2025-07-11T12:00	9560	295	-41.7	-46.3	338	16	3.0
2025-07-11T12:00	9580	294	-41.8	-45.5	338	16	2.9
2025-07-11T12:00	9600	293	-42.0	-45.8	338	16	2.9
2025-07-11T12:00	9620	293	-42.1	-46.3	338	16	2.9
2025-07-11T12:00	9640	292	-42.2	-46.7	338	16	2.9
2025-07-11T12:00	9660	291	-42.3	-47.5	337	16	2.8
2025-07-11T12:00	9680	290	-42.4	-48.1	337	16	2.8
2025-07-11T12:00	9700	289	-42.6	-48.3	337	16	2.8
2025-07-11T12:00	9720	288	-42.7	-48.5	337	16	2.7
2025-07-11T12:00	9740	287	-42.9	-49.1	337	16	2.7
2025-07-11T12:00	9760	287	-43.0	-50.1	338	16	2.6
2025-07-11T12:00	9780	286	-43.1	-51.1	338	16	2.6
2025-07-11T12:00	9800	285	-43.3	-51.7	338	16	2.5
2025-07-11T12:00	9820	284	-43.5	-52.3	339	16	2.5
2025-07-11T12:00	9840	283	-43.6	-53.6	339	16	2.4
2025-07-11T12:00	9860	282	-43.6	-55.4	340	16	2.4
2025-07-11T12:00	9880	281	-43.8	-55.0	341	16	2.5
2025-07-11T12:00	9900	281	-43.9	-53.7	341	16	2.6
2025-07-11T12:00	9920	280	-44.1	-52.8	342	16	2.7
2025-07-11T12:00	9940	279	-44.4	-52.5	342	17	2.8
2025-07-11T12:00	9960	278	-44.5	-52.7	343	17	2.8
2025-07-11T12:00	9980	277	-44.6	-52.9	343	17	2.9
2025-07-11T12:00	10000	277	-44.8	-53.2	344	17	2.9
2025-07-11T12:00	10018	276	-44.9	-53.3	344	17	3.0
2025-07-11T12:00	10050	274	-45.2	-53.7	344	17	3.0
2025-07-11T12:00	10100	272	-45.6	-54.0	345	17	3.0
2025-07-11T12:00	10150	270	-46.0	-54.6	345	17	3.1
2025-07-11T12:00	10200	268	-46.4	-55.0	345	17	3.1
2025-07-11T12:00	10250	266	-46.8	-55.4	346	17	3.1
2025-07-11T12:00	10300	264	-47.2	-55.8	346	18	3.1
2025-07-11T12:00	10350	262	-47.7	-55.6	346	18	3.1
2025-07-11T12:00	10400	260	-48.1	-55.9	346	18	3.1
2025-07-11T12:00	10450	258	-48.5	-56.6	346	18	3.0
2025-07-11T12:00	10500	256	-48.9	-56.8	346	17	3.0
2025-07-11T12:00	10550	254	-49.3	-57.0	346	17	3.0
2025-07-11T12:00	10600	253	-49.7	-57.6	345	17	3.0
2025-07-11T12:00	10650	251	-50.2	-57.6	342	16	3.0
2025-07-11T12:00	10700	249	-50.4	-58.4	339	16	3.0
2025-07-11T12:00	10750	247	-50.8	-58.5	337	16	3.0
2025-07-11T12:00	10800	245	-51.2	-58.3	335	17	2.9
2025-07-11T12:00	10850	243	-51.6	-58.9	334	17	2.9
2025-07-11T12:00	10900	241	-51.6	-59.7	333	16	3.0
2025-07-11T12:00	10950	239	-51.9	-60.2	331	16	3.2
2025-07-11T12:00	11000	237	-52.1	-61.1	330	16	3.3
2025-07-11T12:00	11050	236	-52.1	-61.9	330	16	3.4
2025-07-11T12:00	11100	234	-52.5	-61.8	329	17	3.2
2025-07-11T12:00	11150	232	-52.9	-61.6	329	17	3.0
2025-07-11T12:00	11200	230	-53.1	-61.8	328	17	2.9
2025-07-11T12:00	11250	229	-53.0	-62.3	325	17	3.0
2025-07-11T12:00	11300	227	-52.8	-63.5	321	17	3.3
2025-07-11T12:00	11350	225	-52.8	-65.2	317	17	3.6
2025-07-11T12:00	11400	223	-53.1	-65.9	314	17	3.7
2025-07-11T12:00	11450	222	-53.1	-67.0	312	18	3.8
2025-07-11T12:00	11500	220	-52.7	-66.4	311	18	4.0
2025-07-11T12:00	11550	218	-52.6	-66.6	313	19	4.4
2025-07-11T12:00	11600	216	-52.5	-67.9	316	20	4.7
2025-07-11T12:00	11650	215	-51.8	-69.3	319	20	5.1
2025-07-11T12:00	11700	213	-51.5	-70.2	322	20	5.4
2025-07-11T12:00	11750	211	-51.7	-70.2	324	20	5.8
2025-07-11T12:00	11800	210	-51.8	-70.5	326	20	5.9
2025-07-11T12:00	11850	208	-51.6	-71.1	328	20	6.1
2025-07-11T12:00	11900	207	-51.3	-71.3	327	19	6.2
2025-07-11T12:00	11950	205	-51.4	-71.7	325	18	6.2
2025-07-11T12:00	12000	204	-51.4	-72.1	323	18	6.3
2025-07-11T12:00	12050	202	-51.4	-72.7	320	17	6.2
2025-07-11T12:00	12100	200	-51.4	-73.0	318	16	6.2
2025-07-11T12:00	12150	199	-51.2	-73.5	314	16	6.1
2025-07-11T12:00	12200	197	-51.0	-74.3	311	17	6.0
2025-07-11T12:00	12250	196	-51.0	-74.8	308	17	6.2
2025-07-11T12:00	12300	194	-51.2	-76.0	306	18	6.4
2025-07-11T12:00	12350	193	-51.0	-77.7	304	18	6.8
2025-07-11T12:00	12400	191	-51.2	-78.0	304	19	7.1
2025-07-11T12:00	12450	190	-51.3	-78.2	305	19	7.4
2025-07-11T12:00	12500	188	-51.4	-78.4	307	19	7.6
2025-07-11T12:00	12550	187	-50.8	-78.3	309	19	7.7
2025-07-11T12:00	12600	186	-50.6	-78.5	310	19	7.6
2025-07-11T12:00	12650	184	-50.8	-78.7	311	19	7.4
2025-07-11T12:00	12700	183	-51.2	-78.8	310	19	7.3
2025-07-11T12:00	12750	181	-51.1	-79.1	308	18	7.2
2025-07-11T12:00	12800	180	-50.8	-79.4	305	18	7.1
2025-07-11T12:00	12850	178	-51.1	-79.6	305	18	7.1
2025-07-11T12:00	12900	177	-51.3	-79.8	306	18	7.0
2025-07-11T12:00	12950	176	-50.9	-80.2	308	18	7.0
2025-07-11T12:00	13000	174	-50.9	-81.0	309	17	7.2
2025-07-11T12:00	13050	173	-50.7	-81.2	307	17	7.4
2025-07-11T12:00	13100	172	-50.8	-81.4	305	18	7.7
2025-07-11T12:00	13150	170	-50.6	-81.5	303	18	7.9
2025-07-11T12:00	13200	169	-50.7	-81.7	302	18	8.1
2025-07-11T12:00	13250	168	-51.0	-81.6	302	18	8.1
2025-07-11T12:00	13300	167	-51.4	-81.4	303	18	8.2
2025-07-11T12:00	13350	165	-51.5	-80.9	303	19	8.0
2025-07-11T12:00	13400	164	-51.6	-80.4	303	19	7.5
2025-07-11T12:00	13450	163	-51.5	-80.5	304	18	6.6
2025-07-11T12:00	13500	162	-51.5	-80.8	304	18	6.0
2025-07-11T12:00	13550	160	-51.5	-80.9	304	18	5.7
2025-07-11T12:00	13600	159	-51.4	-80.8	305	17	5.7
2025-07-11T12:00	13650	158	-51.7	-80.9	306	17	5.5
2025-07-11T12:00	13700	157	-51.8	-81.3	307	17	5.3
2025-07-11T12:00	13750	155	-52.0	-81.8	306	18	5.2
2025-07-11T12:00	13800	154	-52.0	-82.2	304	18	5.4
2025-07-11T12:00	13850	153	-52.2	-82.4	302	18	5.8
2025-07-11T12:00	13900	152	-52.4	-82.7	301	18	6.1
2025-07-11T12:00	13950	151	-52.9	-82.9	300	18	6.3
2025-07-11T12:00	14000	150	-53.2	-83.0	299	18	6.6
2025-07-11T12:00	14050	148	-53.4	-83.2	298	18	6.9
2025-07-11T12:00	14100	147	-53.6	-83.4	297	19	6.9
2025-07-11T12:00	14150	146	-53.5	-83.4	297	19	7.2
2025-07-11T12:00	14200	145	-53.5	-83.5	298	19	7.2
2025-07-11T12:00	14250	144	-53.5	-83.6	298	18	7.2
2025-07-11T12:00	14300	143	-53.5	-83.6	297	18	7.1
2025-07-11T12:00	14350	142	-53.6	-83.7	297	18	7.1
2025-07-11T12:00	14400	141	-53.7	-83.7	297	18	7.1
2025-07-11T12:00	14450	139	-54.0	-83.6	297	17	7.0
2025-07-11T12:00	14500	138	-54.3	-83.7	297	17	6.9
2025-07-11T12:00	14550	137	-54.4	-83.7	296	16	6.6
2025-07-11T12:00	14600	136	-54.5	-83.6	295	16	6.3
2025-07-11T12:00	14650	135	-54.6	-83.5	295	16	5.9
2025-07-11T12:00	14700	134	-54.7	-83.4	297	16	5.5
2025-07-11T12:00	14750	133	-54.9	-83.6	298	16	5.2
2025-07-11T12:00	14800	132	-54.7	-83.8	297	16	5.0
2025-07-11T12:00	14850	131	-54.7	-83.9	296	17	5.0
2025-07-11T12:00	14900	130	-54.8	-84.0	295	17	5.1
2025-07-11T12:00	14950	129	-54.7	-83.7	294	18	5.1
2025-07-11T12:00	15000	128	-54.9	-83.6	294	19	4.8
2025-07-11T12:00	15050	127	-55.3	-83.6	294	19	4.4
2025-07-11T12:00	15100	126	-55.5	-83.7	296	18	4.2
2025-07-11T12:00	15150	125	-55.5	-83.7	298	17	4.0
2025-07-11T12:00	15200	124	-55.4	-83.9	298	16	4.0
2025-07-11T12:00	15250	123	-55.1	-84.1	297	16	3.8
2025-07-11T12:00	15300	122	-55.2	-84.2	296	17	3.7
2025-07-11T12:00	15350	121	-55.1	-84.3	296	16	3.6
2025-07-11T12:00	15400	120	-54.9	-84.5	296	16	3.6
2025-07-11T12:00	15450	119	-54.9	-84.5	296	16	3.6
2025-07-11T12:00	15500	118	-55.0	-84.6	299	16	3.6
2025-07-11T12:00	15550	117	-54.8	-84.4	301	16	3.7
2025-07-11T12:00	15600	116	-54.8	-84.2	302	16	4.0
2025-07-11T12:00	15650	116	-55.1	-84.2	302	16	4.3
2025-07-11T12:00	15700	115	-55.4	-84.4	303	16	4.6
2025-07-11T12:00	15750	114	-55.3	-84.6	306	16	4.7
2025-07-11T12:00	15800	113	-55.3	-84.8	306	16	4.7
2025-07-11T12:00	15850	112	-55.5	-85.0	305	15	4.7
2025-07-11T12:00	15900	111	-55.7	-85.1	303	14	4.7
2025-07-11T12:00	15950	110	-55.7	-85.1	305	14	4.9
2025-07-11T12:00	16000	109	-55.6	-85.2	310	14	5.1
2025-07-11T12:00	16050	108	-55.7	-85.2	315	15	5.2
2025-07-11T12:00	16100	108	-56.0	-85.2	316	16	5.3
2025-07-11T12:00	16150	107	-56.2	-85.3	316	16	5.4
2025-07-11T12:00	16200	106	-56.0	-85.4	318	15	5.7
2025-07-11T12:00	16250	105	-56.1	-85.7	321	14	6.1
2025-07-11T12:00	16300	104	-55.7	-85.7	325	13	6.5
2025-07-11T12:00	16350	103	-55.6	-85.7	327	13	6.5
2025-07-11T12:00	16400	103	-55.6	-85.6	327	13	6.4
2025-07-11T12:00	16450	102	-55.4	-85.6	328	13	6.2
2025-07-11T12:00	16500	101	-55.2	-85.7	332	13	6.1
2025-07-11T12:00	16550	100	-55.0	-85.5	338	13	6.0
2025-07-11T12:00	16600	100	-55.2	-85.6	342	14	6.0
2025-07-11T12:00	16650	99	-55.4	-85.7	346	14	6.0
2025-07-11T12:00	16700	98	-55.6	-85.7	349	14	6.0
2025-07-11T12:00	16750	97	-56.0	-85.8	353	13	6.1
2025-07-11T12:00	16800	96	-56.4	-85.8	355	12	6.2
2025-07-11T12:00	16850	96	-56.8	-85.9	354	11	6.3
2025-07-11T12:00	16900	95	-56.8	-86.0	353	10	6.5
2025-07-11T12:00	16950	94	-56.8	-86.2	352	9	6.8
2025-07-11T12:00	17000	93	-56.6	-86.4	353	8	7.1
2025-07-11T12:00	17050	93	-56.0	-86.3	354	8	7.4
2025-07-11T12:00	17100	92	-55.9	-86.4	351	7	7.2
2025-07-11T12:00	17150	91	-55.4	-86.3	343	5	7.4
2025-07-11T12:00	17200	91	-55.1	-86.2	325	3	7.9
2025-07-11T12:00	17250	90	-55.1	-86.0	303	3	8.4
2025-07-11T12:00	17300	89	-55.1	-86.3	308	4	8.7
2025-07-11T12:00	17350	88	-54.3	-86.1	326	6	8.9
2025-07-11T12:00	17400	88	-54.2	-86.2	342	7	9.1
2025-07-11T12:00	17450	87	-53.7	-86.1	357	7	9.3
2025-07-11T12:00	17500	86	-53.1	-85.9	13	7	9.4
2025-07-11T12:00	17550	86	-53.2	-85.7	28	8	9.7
2025-07-11T12:00	17600	85	-53.5	-85.6	37	9	9.9
2025-07-11T12:00	17650	84	-53.8	-85.6	47	9	10.0
2025-07-11T12:00	17700	84	-53.9	-85.6	56	8	10.0
2025-07-11T12:00	17750	83	-54.0	-85.7	64	7	10.1
2025-07-11T12:00	17800	82	-54.1	-85.9	70	5	10.1
2025-07-11T12:00	17850	82	-53.9	-85.9	71	4	10.1
2025-07-11T12:00	17900	81	-54.0	-85.8	67	3	10.1
2025-07-11T12:00	17950	81	-54.2	-85.9	60	3	10.1
2025-07-11T12:00	18000	80	-54.4	-86.0	52	3	10.1
2025-07-11T12:00	18050	79	-54.6	-86.1	50	3	10.0
2025-07-11T12:00	18100	79	-54.4	-86.2	49	3	9.9
2025-07-11T12:00	18150	78	-54.2	-86.2	46	3	9.8
2025-07-11T12:00	18200	77	-54.3	-86.2	51	4	9.8
2025-07-11T12:00	18250	77	-54.4	-86.1	60	4	9.8
2025-07-11T12:00	18300	76	-54.5	-86.1	64	5	10.0
2025-07-11T12:00	18350	76	-54.5	-86.2	66	6	10.2
2025-07-11T12:00	18400	75	-54.5	-86.3	75	6	10.3
2025-07-11T12:00	18450	75	-54.8	-86.4	85	7	10.4
2025-07-11T12:00	18500	74	-55.1	-86.4	94	7	10.4
2025-07-11T12:00	18550	73	-55.1	-86.4	101	7	10.5
2025-07-11T12:00	18600	73	-55.1	-86.6	108	6	10.6
2025-07-11T12:00	18650	72	-55.1	-86.5	115	5	10.7
2025-07-11T12:00	18700	72	-55.2	-86.6	120	5	10.9
2025-07-11T12:00	18750	71	-55.4	-86.7	128	4	11.0
2025-07-11T12:00	18800	71	-55.3	-86.7	142	4	11.1
2025-07-11T12:00	18850	70	-55.5	-86.7	154	5	11.2
2025-07-11T12:00	18900	69	-55.9	-86.6	166	4	11.1
2025-07-11T12:00	18950	69	-56.0	-86.8	179	4	10.9
2025-07-11T12:00	19000	68	-55.6	-87.0	198	3	10.7
2025-07-11T12:00	19050	68	-55.2	-87.0	222	3	10.2
2025-07-11T12:00	19100	67	-55.1	-86.9	244	3	9.9
2025-07-11T12:00	19150	67	-55.2	-86.9	260	3	9.7
2025-07-11T12:00	19200	66	-55.1	-86.7	285	3	9.6
2025-07-11T12:00	19250	66	-55.2	-86.8	330	2	9.7
2025-07-11T12:00	19300	65	-55.0	-86.9	20	3	9.7
2025-07-11T12:00	19350	65	-54.8	-87.1	57	4	9.8
2025-07-11T12:00	19400	64	-54.6	-87.0	76	4	9.8
2025-07-11T12:00	19450	64	-54.4	-87.1	89	4	9.9
2025-07-11T12:00	19500	63	-54.2	-87.0	94	4	9.9
2025-07-11T12:00	19550	63	-53.9	-86.9	87	3	10.0
2025-07-11T12:00	19600	62	-53.9	-86.9	78	3	10.2
2025-07-11T12:00	19650	62	-54.1	-86.7	64	3	10.3
2025-07-11T12:00	19700	61	-54.2	-86.7	42	3	10.3
2025-07-11T12:00	19750	61	-54.4	-86.9	35	4	10.4
2025-07-11T12:00	19800	60	-54.1	-86.9	39	5	10.4
2025-07-11T12:00	19850	60	-54.0	-86.9	47	6	10.5
2025-07-11T12:00	19900	59	-54.0	-87.0	58	7	10.5
2025-07-11T12:00	19950	59	-54.0	-87.0	68	7	10.6
2025-07-11T12:00	20000	58	-54.1	-87.0	78	6	10.7
2025-07-11T12:00	20050	58	-54.3		87	6	10.8
2025-07-11T12:00	20100	58	-54.6		92	7	10.9
2025-07-11T12:00	20150	57	-54.9		93	8	11.0
2025-07-11T12:00	20200	57	-55.3		93	9	11.0
2025-07-11T12:00	20250	56	-55.5		96	10	11.0
2025-07-11T12:00	20300	56	-55.5		105	10	11.0
2025-07-11T12:00	20350	55	-55.6		116	9	11.0
2025-07-11T12:00	20400	55	-55.8		121	8	11.0
2025-07-11T12:00	20450	54	-55.8		119	7	11.0
2025-07-11T12:00	20500	54	-55.7		116	5	11.2
2025-07-11T12:00	20550	54	-55.2		108	3	11.4
2025-07-11T12:00	20600	53	-54.8		82	2	11.6
2025-07-11T12:00	20650	53	-54.3		67	3	11.8
2025-07-11T12:00	20700	52	-53.7		70	4	12.1
2025-07-11T12:00	20750	52	-53.7		77	5	12.3
2025-07-11T12:00	20800	52	-53.8		85	6	12.5
2025-07-11T12:00	20850	51	-53.7		93	6	12.7
2025-07-11T12:00	20900	51	-53.5		97	6	12.8
2025-07-11T12:00	20950	50	-53.0		98	6	13.0
2025-07-11T12:00	21000	50	-52.4		97	8	13.5
2025-07-11T12:00	21050	50	-51.9		96	9	13.9
2025-07-11T12:00	21100	49	-51.6		95	10	14.3
2025-07-11T12:00	21150	49	-51.5		94	10	14.5
2025-07-11T12:00	21200	48	-51.7		94	10	14.7
2025-07-11T12:00	21250	48	-51.7		95	10	14.8
2025-07-11T12:00	21300	48	-51.4		93	10	14.8
2025-07-11T12:00	21350	47	-51.3		86	10	14.8
2025-07-11T12:00	21400	47	-51.3		79	10	14.8
2025-07-11T12:00	21450	47	-51.1		76	11	14.9
2025-07-11T12:00	21500	46	-51.2		80	11	15.0
2025-07-11T12:00	21550	46	-51.5		85	11	15.1
2025-07-11T12:00	21600	46	-51.7		88	11	15.0
2025-07-11T12:00	21650	45	-52.0		91	12	14.9
2025-07-11T12:00	21700	45	-52.1		93	12	14.9
2025-07-11T12:00	21750	45	-52.0		98	12	15.1
2025-07-11T12:00	21800	44	-52.0		103	13	15.1
2025-07-11T12:00	21850	44	-52.2		108	14	15.0
2025-07-11T12:00	21900	44	-52.3		112	14	14.9
2025-07-11T12:00	21950	43	-52.3		117	13	14.9
2025-07-11T12:00	22000	43	-52.3		123	11	14.9
2025-07-11T12:00	22050	43	-52.0		129	10	14.9
2025-07-11T12:00	22100	42	-51.8		134	8	14.9
2025-07-11T12:00	22150	42	-52.0		133	7	14.9
2025-07-11T12:00	22200	42	-52.1		126	7	14.9
2025-07-11T12:00	22250	41	-52.0		118	8	14.8
2025-07-11T12:00	22300	41	-51.8		115	10	14.8
2025-07-11T12:00	22350	41	-51.8		117	11	14.8
2025-07-11T12:00	22400	40	-51.8		122	12	14.7
2025-07-11T12:00	22450	40	-52.0		128	12	14.6
2025-07-11T12:00	22500	40	-52.2		133	12	14.5
2025-07-11T12:00	22550	39	-52.2		137	12	14.6
2025-07-11T12:00	22600	39	-52.0		140	10	14.7
2025-07-11T12:00	22650	39	-52.1		141	9	14.9
2025-07-11T12:00	22700	38	-52.1		141	8	14.7
2025-07-11T12:00	22750	38	-52.1		136	7	14.7
2025-07-11T12:00	22800	38	-52.1		125	5	14.6
2025-07-11T12:00	22850	38	-52.1		109	5	14.7
2025-07-11T12:00	22900	37	-52.1		93	5	14.6
2025-07-11T12:00	22950	37	-52.0		86	6	14.5
2025-07-11T12:00	23000	37	-52.0		88	7	14.5
2025-07-11T12:00	23050	36	-51.9		96	8	14.6
2025-07-11T12:00	23100	36	-51.8		104	8	14.4
2025-07-11T12:00	23150	36	-51.7		108	8	14.4
2025-07-11T12:00	23200	36	-51.6		109	8	14.5
2025-07-11T12:00	23250	35	-51.5		109	8	14.5
2025-07-11T12:00	23300	35	-51.8		110	9	14.4
2025-07-11T12:00	23350	35	-51.9		113	9	14.5
2025-07-11T12:00	23400	35	-51.8		117	9	14.4
2025-07-11T12:00	23450	34	-51.8		121	9	14.4
2025-07-11T12:00	23500	34	-51.7		125	9	14.4
2025-07-11T12:00	23550	34	-51.6		127	9	14.3
2025-07-11T12:00	23600	33	-51.4		129	9	14.4
2025-07-11T12:00	23650	33	-51.4		131	8	14.3
2025-07-11T12:00	23700	33	-51.5		133	7	14.2
2025-07-11T12:00	23750	33	-51.6		134	7	14.0
2025-07-11T12:00	23800	32	-51.6		131	7	13.6
2025-07-11T12:00	23850	32	-51.8		126	7	13.2
2025-07-11T12:00	23900	32	-52.1		120	8	12.9
2025-07-11T12:00	23950	32	-52.1		116	8	12.5
2025-07-11T12:00	24000	31	-52.2		115	8	12.2
2025-07-11T12:00	24050	31	-52.1		115	9	12.0
2025-07-11T12:00	24100	31	-52.0		118	10	11.9
2025-07-11T12:00	24150	31	-52.2		121	10	11.7
2025-07-11T12:00	24200	31	-52.5		124	11	11.6
2025-07-11T12:00	24250	30	-52.4		126	12	11.6
2025-07-11T12:00	24300	30	-52.2		127	11	11.6
2025-07-11T12:00	24350	30	-51.9		128	10	11.6
2025-07-11T12:00	24400	30	-51.8		128	9	11.7
2025-07-11T12:00	24450	29	-51.7		129	7	11.7
2025-07-11T12:00	24500	29	-51.7		132	6	11.7
2025-07-11T12:00	24550	29	-51.9		133	5	11.7
2025-07-11T12:00	24600	29	-52.1		133	4	11.7
2025-07-11T12:00	24650	28	-51.9		128	3	11.7
2025-07-11T12:00	24700	28	-51.9		116	3	11.7
2025-07-11T12:00	24750	28	-51.5		105	3	11.7
2025-07-11T12:00	24800	28	-51.5		101	5	11.8
2025-07-11T12:00	24850	28	-51.6		103	6	11.9
2025-07-11T12:00	24900	27	-51.8		107	7	11.9
2025-07-11T12:00	24950	27	-51.9		109	8	12.0
2025-07-11T12:00	25000	27	-51.9		108	9	11.9
2025-07-11T12:00	25050	27	-51.8		107	10	11.9
2025-07-11T12:00	25100	27	-51.7		106	9	12.0
2025-07-11T12:00	25150	26	-51.6		105	9	12.0
2025-07-11T12:00	25200	26	-51.4		104	9	12.1
2025-07-11T12:00	25250	26	-51.1		102	8	12.3
2025-07-11T12:00	25300	26	-50.5		98	7	12.5
2025-07-11T12:00	25350	26	-50.4		90	6	12.7
2025-07-11T12:00	25400	25	-50.5		75	6	13.0
2025-07-11T12:00	25450	25	-50.2		65	7	13.1
2025-07-11T12:00	25500	25	-49.8		62	9	13.3
2025-07-11T12:00	25550	25	-49.7		64	11	13.4
2025-07-11T12:00	25600	25	-49.7		68	12	13.4
2025-07-11T12:00	25650	24	-49.5		72	13	13.4
2025-07-11T12:00	25700	24	-49.5		75	14	13.5
2025-07-11T12:00	25750	24	-49.5		77	14	13.5
2025-07-11T12:00	25800	24	-49.5		78	14	13.6
2025-07-11T12:00	25850	24	-49.5		77	14	13.6
2025-07-11T12:00	25900	23	-49.4		77	14	13.5
2025-07-11T12:00	25950	23	-49.4		78	14	13.5
2025-07-11T12:00	26000	23	-49.5		78	14	13.5
2025-07-11T12:00	26050	23	-49.7		77	14	13.5
2025-07-11T12:00	26100	23	-49.8		77	14	13.3
2025-07-11T12:00	26150	23	-49.9		78	13	13.3
2025-07-11T12:00	26200	22	-49.9		80	12	13.4
2025-07-11T12:00	26250	22	-49.6		80	12	13.3
2025-07-11T12:00	26300	22	-49.5		79	13	13.2
2025-07-11T12:00	26350	22	-49.3		79	14	13.1
2025-07-11T12:00	26400	22	-49.1		82	15	13.1
2025-07-11T12:00	26450	22	-49.0		83	15	12.9
2025-07-11T12:00	26500	21	-48.6		82	16	12.9
2025-07-11T12:00	26550	21	-48.3		81	16	12.8
2025-07-11T12:00	26600	21	-48.1		82	16	12.8
2025-07-11T12:00	26650	21	-47.9		85	16	12.8
2025-07-11T12:00	26700	21	-47.6		89	16	12.7
2025-07-11T12:00	26750	21	-47.3		94	16	12.8
2025-07-11T12:00	26800	20	-47.1		95	15	12.8
2025-07-11T12:00	26850	20	-47.0		94	15	12.9
2025-07-11T12:00	26900	20	-46.8		93	15	12.9
2025-07-11T12:00	26950	20	-46.7		95	16	12.9
2025-07-11T12:00	27000	20	-46.8		97	16	13.0
2025-07-11T12:00	27050	20	-47.0		99	17	13.0
2025-07-11T12:00	27100	20	-47.1		101	18	12.9
2025-07-11T12:00	27150	19	-47.4		103	18	12.9
2025-07-11T12:00	27200	19	-47.3		104	17	12.8
2025-07-11T12:00	27250	19	-47.2		105	16	12.7
2025-07-11T12:00	27300	19	-46.9		108	15	12.7
2025-07-11T12:00	27350	19	-46.8		110	15	12.7
2025-07-11T12:00	27400	19	-46.8		111	15	12.7
2025-07-11T12:00	27450	19	-46.7		112	15	12.6
2025-07-11T12:00	27500	18	-46.7		113	14	12.5
2025-07-11T12:00	27550	18	-46.5		114	12	12.4
2025-07-11T12:00	27600	18	-46.3		114	11	12.4
2025-07-11T12:00	27650	18	-46.2		113	10	12.4
2025-07-11T12:00	27700	18	-45.8		111	9	12.4
2025-07-11T12:00	27750	18	-45.7		106	8	12.4
2025-07-11T12:00	27800	18	-45.6		98	8	12.4
2025-07-11T12:00	27850	17	-45.6		90	8	12.4
2025-07-11T12:00	27900	17	-45.5		87	10	12.3
2025-07-11T12:00	27950	17	-45.4		87	10	12.3
2025-07-11T12:00	28000	17	-45.5		87	11	12.3
2025-07-11T12:00	28050	17	-45.4		85	11	12.3
2025-07-11T12:00	28100	17	-45.2		83	12	12.2
2025-07-11T12:00	28150	17	-45.1		83	13	12.1
2025-07-11T12:00	28200	17	-44.7		85	13	12.1
2025-07-11T12:00	28250	16	-44.3		87	13	12.1
2025-07-11T12:00	28300	16	-44.3		86	13	12.1
2025-07-11T12:00	28350	16	-44.5		81	12	12.1
2025-07-11T12:00	28400	16	-44.6		76	13	12.1
2025-07-11T12:00	28450	16	-44.3		74	14	11.9
2025-07-11T12:00	28500	16	-44.1		74	15	11.8
2025-07-11T12:00	28550	16	-44.3		76	17	11.7
2025-07-11T12:00	28600	16	-44.5		78	18	11.6
2025-07-11T12:00	28650	16	-44.3		78	18	11.6
2025-07-11T12:00	28700	15	-44.0		76	17	11.5
2025-07-11T12:00	28750	15	-44.2		73	16	11.4
2025-07-11T12:00	28800	15	-44.3		73	16	11.2
2025-07-11T12:00	28850	15	-44.2		75	16	11.1
2025-07-11T12:00	28900	15	-44.2		77	16	11.0
2025-07-11T12:00	28950	15	-44.2		80	16	11.0
2025-07-11T12:00	29000	15	-44.1		84	17	10.9
2025-07-11T12:00	29050	15	-44.0		89	18	10.8
2025-07-11T12:00	29100	15	-43.9		92	20	10.7
2025-07-11T12:00	29150	14	-43.9		95	20	10.6
2025-07-11T12:00	29200	14	-43.6		97	20	10.5
2025-07-11T12:00	29250	14	-43.6		99	21	10.5
2025-07-11T12:00	29300	14	-43.4		101	21	10.4
2025-07-11T12:00	29350	14	-43.2		103	21	10.4
2025-07-11T12:00	29400	14	-42.8		103	19	10.4
2025-07-11T12:00	29450	14	-42.3		101	18	10.4
2025-07-11T12:00	29500	14	-42.2		97	17	10.2
2025-07-11T12:00	29550	14	-41.9		95	17	10.2
2025-07-11T12:00	29600	13	-41.9		97	17	10.2
2025-07-11T12:00	29650	13	-41.9		102	18	10.1
2025-07-11T12:00	29700	13	-42.0		108	19	10.0
2025-07-11T12:00	29750	13	-42.2		114	20	9.9
2025-07-11T12:00	29800	13	-42.3		118	21	9.9
2025-07-11T12:00	29850	13	-42.1		121	21	9.9
2025-07-11T12:00	29900	13	-41.7		122	21	9.8
2025-07-11T12:00	29950	13	-41.5		122	19	9.8
2025-07-11T12:00	30000	13	-41.1		121	17	9.8
2025-07-11T12:00	30050	13	-41.0		119	16	9.7
2025-07-11T12:00	30100	13	-40.8		116	14	9.7
2025-07-11T12:00	30150	12	-40.5		115	14	9.7
2025-07-11T12:00	30200	12	-40.3		114	13	9.6
2025-07-11T12:00	30250	12	-40.4		111	13	9.6
2025-07-11T12:00	30300	12	-40.2		106	13	9.5
2025-07-11T12:00	30350	12	-40.2		100	13	9.5
2025-07-11T12:00	30400	12	-40.0		96	14	9.5
2025-07-11T12:00	30450	12	-40.0		95	15	9.5
2025-07-11T12:00	30500	12	-40.0		97	16	9.4
2025-07-11T12:00	30550	12	-39.9		101	17	9.4
2025-07-11T12:00	30600	12	-39.9		105	17	9.2
2025-07-11T12:00	30650	12	-39.6		104	17	9.2
2025-07-11T12:00	30700	11	-39.1		98	16	9.1
2025-07-11T12:00	30750	11	-38.8		92	16	9.0
2025-07-11T12:00	30800	11	-38.5		88	17	8.9
2025-07-11T12:00	30850	11	-38.2		87	18	8.8
2025-07-11T12:00	30900	11	-38.2		85	20	8.7
2025-07-11T12:00	30950	11	-38.2		86	21	8.6
2025-07-11T12:00	31000	11	-38.2		88	22	8.6
2025-07-11T12:00	31050	11	-38.2		92	21	8.5
2025-07-11T12:00	31100	11	-38.4		97	20	8.5
2025-07-11T12:00	31150	11	-38.6		101	20	8.4
2025-07-11T12:00	31200	11	-38.5		101	20	8.4
2025-07-11T12:00	31250	11	-38.3		98	20	8.4
2025-07-11T12:00	31300	10	-38.1		97	20	8.3
2025-07-11T12:00	31350	10	-37.9		96	20	8.3
2025-07-11T12:00	31400	10	-37.6		94	20	8.1
2025-07-11T12:00	31450	10	-37.3		92	20	8.1
2025-07-11T12:00	31500	10	-36.9		93	20	8.0
2025-07-11T12:00	31550	10	-36.8		96	19	7.9
2025-07-11T12:00	31600	10	-36.7		98	18	7.9
2025-07-11T12:00	31650	10	-36.7		100	18	7.8
2025-07-11T12:00	31700	10	-36.8		103	17	7.8
2025-07-11T12:00	31750	10	-36.9		106	17	7.7
2025-07-11T12:00	31800	10	-36.9		106	18	7.6
2025-07-11T12:00	31850	10	-36.7		104	18	7.6
2025-07-11T12:00	31900	10	-36.4		101	18	7.5
2025-07-11T12:00	31950	10	-36.1		98	18	7.4
2025-07-11T12:00	32000	9	-36.0		94	18	7.3
2025-07-11T12:00	32050	9	-35.9		90	19	7.3
2025-07-11T12:00	32100	9	-35.7		88	20	7.2
2025-07-11T12:00	32150	9	-35.3		88	20	7.1
2025-07-11T12:00	32200	9	-35.1		91	20	7.1
2025-07-11T12:00	32250	9	-34.7		95	20	7.0
2025-07-11T12:00	32300	9	-34.4		97	18	6.9
2025-07-11T12:00	32350	9	-34.2		98	18	6.9
2025-07-11T12:00	32400	9	-34.2		97	18	6.8
2025-07-11T12:00	32450	9	-33.9		96	19	6.8
2025-07-11T12:00	32500	9	-33.8		95	19	6.7
2025-07-11T12:00	32550	9	-33.6		94	19	6.7
2025-07-11T12:00	32600	9	-33.4		94	20	6.6
2025-07-11T12:00	32650	9	-33.3		94	21	6.6
2025-07-11T12:00	32700	9	-33.1		94	22	6.5
2025-07-11T12:00	32750	9	-32.8		93	22	6.5
2025-07-11T12:00	32800	8	-32.5		92	21	6.4
2025-07-11T12:00	32850	8	-32.3		89	22	6.3
2025-07-11T12:00	32900	8	-32.2		87	23	6.3
2025-07-11T12:00	32950	8	-32.3		86	24	6.2
2025-07-11T12:00	33000	8	-32.6		89	25	6.2
2025-07-11T12:00	33050	8	-32.8		92	25	6.1
2025-07-11T12:00	33100	8	-32.8		95	25	6.0
2025-07-11T12:00	33150	8	-32.8		98	24	6.0
2025-07-11T12:00	33200	8	-33.3		101	24	5.9
2025-07-11T12:00	33250	8	-33.5		103	24	5.8
2025-07-11T12:00	33300	8	-33.4		106	23	5.8
2025-07-11T12:00	33350	8	-33.8		109	23	5.7
2025-07-11T12:00	33400	8	-34.3		111	22	5.7
2025-07-11T12:00	33450	8	-34.5		112	21	5.6
2025-07-11T12:00	33500	8	-34.2		112	20	5.6
2025-07-11T12:00	33550	8	-33.9		111	20	5.5
2025-07-11T12:00	33600	8	-33.8		110	20	5.5
2025-07-11T12:00	33650	7	-34.1		111	20	5.5
2025-07-11T12:00	33700	7	-34.2		111	21	5.4
2025-07-11T12:00	33750	7	-34.0		109	21	5.4
2025-07-11T12:00	33800	7	-33.8		107	21	5.3
2025-07-11T12:00	33850	7	-33.8		103	22	5.2
2025-07-11T12:00	33900	7	-33.7		101	22	5.2
2025-07-11T12:00	33950	7	-33.6		101	22	5.1
2025-07-11T12:00	34000	7	-33.7		103	21	5.1
2025-07-11T12:00	34050	7	-34.1		106	21	5.0
2025-07-11T12:00	34100	7	-34.4		109	21	5.0
2025-07-11T12:00	34150	7	-34.4		111	20	5.0
2025-07-11T12:00	34200	7	-34.0		111	20	
2025-07-11T12:00	34250	7	-33.6		110	20	
2025-07-11T12:00	34300	7	-33.3		107	20	
2025-07-11T12:00	34350	7	-32.8		104	19	
2025-07-11T12:00	34400	7	-32.7		100	19	
2025-07-11T12:00	34450	7	-32.5		97	19	
2025-07-11T12:00	34500	7	-32.3		96	19	
2025-07-12T00:00	491	958	17.4	11.2	2	1	
2025-07-12T00:00	501	956	17.8	11.0	50	1	
2025-07-12T00:00	520	955	18.6	10.8	68	2	
2025-07-12T00:00	540	953	19.4	10.3	71	3	
2025-07-12T00:00	560	951	19.5	10.2	74	3	
2025-07-12T00:00	580	948	19.4	10.1	77	4	
2025-07-12T00:00	600	946	19.6	9.9	79	4	
2025-07-12T00:00	620	944	19.6	9.8	81	5	
2025-07-12T00:00	640	942	19.7	9.7	81	6	
2025-07-12T00:00	660	940	19.6	9.7	81	6	
2025-07-12T00:00	680	937	19.5	9.6	81	7	
2025-07-12T00:00	700	935	19.6	9.4	79	7	
2025-07-12T00:00	720	933	19.6	9.5	78	7	
2025-07-12T00:00	740	931	19.5	9.6	76	8	
2025-07-12T00:00	760	928	19.3	9.6	75	8	
2025-07-12T00:00	780	926	19.2	9.4	74	8	
2025-07-12T00:00	800	924	19.0	9.3	74	9	
2025-07-12T00:00	820	922	18.9	9.3	73	9	
2025-07-12T00:00	840	920	18.7	9.4	72	9	
2025-07-12T00:00	860	918	18.5	9.4	71	9	
2025-07-12T00:00	880	916	18.3	9.4	70	9	
2025-07-12T00:00	900	914	18.2	9.2	69	9	
2025-07-12T00:00	920	912	18.1	9.1	68	9	
2025-07-12T00:00	940	909	17.9	9.0	66	9	
2025-07-12T00:00	960	907	17.9	9.0	65	9	
2025-07-12T00:00	980	905	17.7	9.0	64	9	
2025-07-12T00:00	1000	903	17.5	9.0	62	9	
2025-07-12T00:00	1020	901	17.3	9.0	61	8	
2025-07-12T00:00	1040	899	17.2	9.0	59	8	
2025-07-12T00:00	1060	897	17.0	8.9	58	8	
2025-07-12T00:00	1080	895	16.8	8.7	56	8	
2025-07-12T00:00	1100	893	16.6	8.6	54	8	
2025-07-12T00:00	1120	890	16.4	8.7	53	8	
2025-07-12T00:00	1140	888	16.2	8.8	53	8	
2025-07-12T00:00	1160	886	16.0	8.9	53	8	
2025-07-12T00:00	1180	884	15.8	9.0	54	8	
2025-07-12T00:00	1200	882	15.7	8.8	55	8	
2025-07-12T00:00	1220	880	15.5	8.7	57	7	
2025-07-12T00:00	1240	878	15.4	8.4	58	7	
2025-07-12T00:00	1260	876	15.3	8.3	59	7	
2025-07-12T00:00	1280	874	15.2	8.5	59	7	
2025-07-12T00:00	1300	872	15.0	8.6	58	7	
2025-07-12T00:00	1320	870	14.8	8.7	58	7	
2025-07-12T00:00	1340	868	14.7	8.6	58	7	
2025-07-12T00:00	1360	866	14.5	8.5	58	6	
2025-07-12T00:00	1380	864	14.4	8.3	59	6	
2025-07-12T00:00	1400	862	14.2	7.8	59	6	
2025-07-12T00:00	1420	860	14.1	7.4	59	6	
2025-07-12T00:00	1440	857	14.0	7.6	59	6	
2025-07-12T00:00	1460	856	13.9	7.7	59	6	
2025-07-12T00:00	1480	854	13.7	7.4	59	6	
2025-07-12T00:00	1500	851	13.6	7.4	60	6	
2025-07-12T00:00	1520	850	13.5	7.4	60	5	
2025-07-12T00:00	1540	847	13.3	7.3	61	5	
2025-07-12T00:00	1560	845	13.1	7.2	61	5	
2025-07-12T00:00	1580	843	12.9	7.1	61	5	
2025-07-12T00:00	1600	842	12.8	7.0	61	5	
2025-07-12T00:00	1620	839	12.6	6.8	60	5	
2025-07-12T00:00	1640	837	12.5	6.4	58	5	
2025-07-12T00:00	1660	836	12.3	6.3	58	4	
2025-07-12T00:00	1680	833	12.1	6.3	57	4	
2025-07-12T00:00	1700	831	12.0	6.4	58	4	
2025-07-12T00:00	1720	829	11.9	6.1	60	4	
2025-07-12T00:00	1740	828	11.8	5.7	62	4	
2025-07-12T00:00	1760	826	11.6	5.5	64	4	
2025-07-12T00:00	1780	824	11.5	5.4	66	4	
2025-07-12T00:00	1800	822	11.3	5.2	67	4	
2025-07-12T00:00	1820	820	11.2	4.7	67	4	
2025-07-12T00:00	1840	818	11.1	4.4	67	4	
2025-07-12T00:00	1860	816	11.1	3.7	65	3	
2025-07-12T00:00	1880	814	11.1	3.4	64	3	
2025-07-12T00:00	1900	812	11.0	3.1	63	3	
2025-07-12T00:00	1920	810	10.8	2.9	63	3	
2025-07-12T00:00	1940	808	10.6	3.0	63	3	
2025-07-12T00:00	1960	806	10.5	3.0	63	3	
2025-07-12T00:00	1980	804	10.3	2.9	63	3	
2025-07-12T00:00	2000	802	10.2	2.9	63	2	
2025-07-12T00:00	2020	800	10.0	2.7	62	2	
2025-07-12T00:00	2040	798	9.8	2.6	61	2	
2025-07-12T00:00	2060	796	9.7	2.2	61	2	
2025-07-12T00:00	2080	794	9.7	2.1	62	2	
2025-07-12T00:00	2100	793	9.5	3.0	64	1	
2025-07-12T00:00	2120	791	9.3	3.2	67	1	
2025-07-12T00:00	2140	789	9.1	3.7	69	1	
2025-07-12T00:00	2160	787	8.9	4.1	71	0	
2025-07-12T00:00	2180	785	9.0	3.5	257	0	
2025-07-12T00:00	2200	783	9.2	2.8	258	1	
2025-07-12T00:00	2220	781	9.5	2.2	260	1	
2025-07-12T00:00	2240	779	9.7	1.9	263	2	
2025-07-12T00:00	2260	777	9.7	1.7	265	2	
2025-07-12T00:00	2280	775	9.7	1.4	266	2	
2025-07-12T00:00	2300	774	9.6	1.3	268	2	
2025-07-12T00:00	2320	772	9.5	1.2	270	2	
2025-07-12T00:00	2340	770	9.3	1.1	273	2	
2025-07-12T00:00	2360	768	9.2	1.1	278	1	
2025-07-12T00:00	2380	766	9.0	1.0	286	1	
2025-07-12T00:00	2400	764	8.8	1.0	297	1	
2025-07-12T00:00	2420	762	8.6	0.9	308	1	
2025-07-12T00:00	2440	761	8.4	0.7	314	2	
2025-07-12T00:00	2460	759	8.2	0.6	320	2	
2025-07-12T00:00	2480	757	8.1	0.1	324	2	
2025-07-12T00:00	2500	755	8.0	-0.5	329	3	
2025-07-12T00:00	2520	753	7.9	-0.7	334	3	
2025-07-12T00:00	2540	751	7.8	-1.0	339	4	
2025-07-12T00:00	2560	750	7.7	-1.2	345	4	
2025-07-12T00:00	2580	748	7.6	-1.5	350	4	
2025-07-12T00:00	2600	746	7.4	-1.5	354	4	
2025-07-12T00:00	2620	744	7.2	-1.6	357	4	
2025-07-12T00:00	2640	742	7.0	-1.7	358	4	
2025-07-12T00:00	2660	741	6.9	-1.7	357	4	
2025-07-12T00:00	2680	739	6.7	-1.7	355	4	
2025-07-12T00:00	2700	737	6.5	-1.7	352	4	
2025-07-12T00:00	2720	735	6.4	-1.7	350	4	
2025-07-12T00:00	2740	734	6.2	-1.7	347	4	
2025-07-12T00:00	2760	732	6.1	-2.1	345	4	
2025-07-12T00:00	2780	730	6.0	-2.7	344	4	
2025-07-12T00:00	2800	728	5.8	-2.5	343	4	
2025-07-12T00:00	2820	726	5.6	-2.3	342	4	
2025-07-12T00:00	2840	725	5.5	-2.3	342	4	
2025-07-12T00:00	2860	723	5.4	-3.4	342	4	
2025-07-12T00:00	2880	721	5.3	-3.3	342	4	
2025-07-12T00:00	2900	719	5.1	-3.2	341	4	
2025-07-12T00:00	2920	717	4.9	-3.2	341	4	
2025-07-12T00:00	2940	716	4.7	-3.4	340	4	
2025-07-12T00:00	2960	714	4.6	-3.4	338	4	
2025-07-12T00:00	2980	712	4.4	-3.7	336	4	
2025-07-12T00:00	3000	711	4.3	-4.3	331	4	
2025-07-12T00:00	3020	709	4.1	-4.4	326	4	
2025-07-12T00:00	3040	707	3.9	-4.7	323	4	
2025-07-12T00:00	3060	705	3.7	-4.4	322	4	
2025-07-12T00:00	3080	704	3.5	-4.4	323	4	
2025-07-12T00:00	3100	702	3.4	-4.2	327	4	
2025-07-12T00:00	3120	700	3.1	-4.3	331	4	
2025-07-12T00:00	3140	698	2.9	-4.2	337	4	
2025-07-12T00:00	3160	697	2.8	-4.0	342	4	
2025-07-12T00:00	3180	695	2.5	-4.0	347	4	
2025-07-12T00:00	3200	693	2.3	-3.9	350	4	
2025-07-12T00:00	3220	691	2.1	-3.9	352	4	
2025-07-12T00:00	3240	690	1.9	-3.9	353	4	
2025-07-12T00:00	3260	688	1.7	-4.0	353	5	
2025-07-12T00:00	3280	686	1.6	-4.0	354	5	
2025-07-12T00:00	3300	685	1.4	-4.0	354	5	
2025-07-12T00:00	3320	683	1.1	-4.0	355	5	
2025-07-12T00:00	3340	681	1.0	-4.1	356	5	
2025-07-12T00:00	3360	680	0.8	-4.1	358	4	
2025-07-12T00:00	3380	678	0.5	-4.0	0	4	
2025-07-12T00:00	3400	676	0.4	-4.2	2	4	
2025-07-12T00:00	3420	675	0.2	-4.3	3	4	
2025-07-12T00:00	3440	673	0.0	-4.6	5	4	
2025-07-12T00:00	3460	671	-0.2	-4.7	6	4	
2025-07-12T00:00	3480	669	-0.3	-4.7	6	4	
2025-07-12T00:00	3500	668	-0.5	-4.8	5	4	
2025-07-12T00:00	3520	666	-0.7	-4.8	3	4	
2025-07-12T00:00	3540	664	-0.9	-4.9	2	4	
2025-07-12T00:00	3560	663	-1.1	-4.9	358	4	
2025-07-12T00:00	3580	661	-1.3	-5.0	354	4	
2025-07-12T00:00	3600	660	-1.5	-5.0	350	4	
2025-07-12T00:00	3620	658	-1.7	-5.0	343	4	
2025-07-12T00:00	3640	656	-1.9	-5.0	335	4	
2025-07-12T00:00	3660	654	-2.0	-5.2	328	4	
2025-07-12T00:00	3680	653	-2.2	-5.2	321	4	
2025-07-12T00:00	3700	651	-2.3	-5.7	318	4	
2025-07-12T00:00	3720	650	-2.4	-6.9	316	4	
2025-07-12T00:00	3740	648	-2.3	-9.9	318	5	
2025-07-12T00:00	3760	646	-2.2	-11.4	321	5	
2025-07-12T00:00	3780	645	-2.0	-16.7	327	5	
2025-07-12T00:00	3800	643	-1.7	-20.1	332	6	
2025-07-12T00:00	3820	642	-1.7	-18.4	336	6	
2025-07-12T00:00	3840	640	-1.8	-19.9	341	7	
2025-07-12T00:00	3860	638	-1.8	-23.0	343	7	
2025-07-12T00:00	3880	636	-1.7	-23.6	346	7	
2025-07-12T00:00	3900	635	-1.6	-21.0	347	7	
2025-07-12T00:00	3920	633	-1.5	-21.3	348	7	
2025-07-12T00:00	3940	632	-1.4	-28.5	349	7	
2025-07-12T00:00	3960	631	-1.3	-26.9	349	7	
2025-07-12T00:00	3980	629	-1.5	-26.3	350	7	
2025-07-12T00:00	4000	627	-1.7	-25.9	349	7	
2025-07-12T00:00	4020	626	-2.0	-21.6	349	6	
2025-07-12T00:00	4040	624	-2.2	-20.9	349	6	
2025-07-12T00:00	4060	622	-2.3	-22.1	348	6	
2025-07-12T00:00	4080	621	-2.5	-24.6	348	6	
2025-07-12T00:00	4100	619	-2.7	-21.8	349	6	
2025-07-12T00:00	4120	618	-2.8	-19.2	350	6	
2025-07-12T00:00	4140	616	-3.0	-18.3	352	6	
2025-07-12T00:00	4160	615	-3.1	-19.8	353	6	
2025-07-12T00:00	4180	613	-2.9	-24.5	355	7	
2025-07-12T00:00	4200	612	-2.9	-29.2	356	7	
2025-07-12T00:00	4220	610	-2.9	-36.3	355	7	
2025-07-12T00:00	4240	608	-2.9	-36.1	354	7	
2025-07-12T00:00	4260	607	-3.0	-29.6	353	7	
2025-07-12T00:00	4280	605	-3.1	-27.5	350	7	
2025-07-12T00:00	4300	604	-3.3	-27.3	349	7	
2025-07-12T00:00	4320	602	-3.5	-27.1	349	7	
2025-07-12T00:00	4340	601	-3.7	-27.0	349	8	
2025-07-12T00:00	4360	600	-3.9	-26.9	350	8	
2025-07-12T00:00	4380	598	-4.1	-26.9	351	8	
2025-07-12T00:00	4400	596	-4.3	-26.8	351	8	
2025-07-12T00:00	4420	595	-4.4	-26.8	350	8	
2025-07-12T00:00	4440	593	-4.6	-27.2	348	8	
2025-07-12T00:00	4460	592	-4.7	-27.4	346	9	
2025-07-12T00:00	4480	590	-4.9	-27.1	343	9	
2025-07-12T00:00	4500	589	-5.0	-26.6	341	9	
2025-07-12T00:00	4520	587	-5.2	-26.6	339	9	
2025-07-12T00:00	4540	585	-5.3	-27.1	338	9	
2025-07-12T00:00	4560	584	-5.4	-28.2	338	9	
2025-07-12T00:00	4580	583	-5.4	-31.0	338	9	
2025-07-12T00:00	4600	581	-5.5	-35.8	339	9	
2025-07-12T00:00	4620	580	-5.6	-36.8	341	9	
2025-07-12T00:00	4640	578	-5.7	-36.3	342	8	
2025-07-12T00:00	4660	577	-5.8	-35.8	344	8	
2025-07-12T00:00	4680	575	-6.0	-35.4	346	9	
2025-07-12T00:00	4700	574	-6.1	-35.0	347	9	
2025-07-12T00:00	4720	572	-6.3	-35.0	349	9	
2025-07-12T00:00	4740	571	-6.5	-35.0	350	9	
2025-07-12T00:00	4760	570	-6.6	-35.2	351	9	
2025-07-12T00:00	4780	568	-6.6	-35.4	352	9	
2025-07-12T00:00	4800	566	-6.8	-35.8	352	9	
2025-07-12T00:00	4820	565	-6.9	-36.0	353	9	
2025-07-12T00:00	4840	564	-7.1	-36.1	354	9	
2025-07-12T00:00	4860	562	-7.3	-36.1	354	10	
2025-07-12T00:00	4880	561	-7.4	-36.2	354	10	
2025-07-12T00:00	4900	559	-7.5	-36.4	353	10	
2025-07-12T00:00	4920	558	-7.7	-36.3	353	10	
2025-07-12T00:00	4940	556	-7.9	-36.3	353	11	
2025-07-12T00:00	4960	555	-8.0	-36.2	353	11	
2025-07-12T00:00	4980	553	-8.2	-36.6	353	11	
2025-07-12T00:00	5000	552	-8.2	-37.4	353	11	
2025-07-12T00:00	5020	551	-8.3	-38.1	353	11	
2025-07-12T00:00	5040	549	-8.4	-39.1	353	12	
2025-07-12T00:00	5060	548	-8.4	-38.7	352	11	
2025-07-12T00:00	5080	546	-8.6	-38.6	352	11	
2025-07-12T00:00	5100	545	-8.7	-39.1	351	11	
2025-07-12T00:00	5120	544	-8.7	-39.6	350	11	
2025-07-12T00:00	5140	542	-8.8	-40.0	350	11	
2025-07-12T00:00	5160	541	-9.0	-39.6	350	11	
2025-07-12T00:00	5180	539	-9.2	-37.4	349	11	
2025-07-12T00:00	5200	538	-9.3	-38.1	349	12	
2025-07-12T00:00	5220	537	-9.5	-39.5	349	11	
2025-07-12T00:00	5240	535	-9.7	-40.8	348	11	
2025-07-12T00:00	5260	534	-9.8	-41.5	347	11	
2025-07-12T00:00	5280	532	-10.0	-41.2	346	11	
2025-07-12T00:00	5300	531	-10.1	-41.2	345	11	
2025-07-12T00:00	5320	530	-10.3	-41.4	343	11	
2025-07-12T00:00	5340	528	-10.4	-41.5	342	11	
2025-07-12T00:00	5360	527	-10.5	-41.5	341	10	
2025-07-12T00:00	5380	526	-10.7	-41.6	340	11	
2025-07-12T00:00	5400	524	-10.9	-41.9	340	11	
2025-07-12T00:00	5420	523	-11.0	-41.8	340	11	
2025-07-12T00:00	5440	521	-11.1	-41.6	339	11	
2025-07-12T00:00	5460	520	-11.2	-41.9	339	11	
2025-07-12T00:00	5480	519	-11.4	-41.4	339	11	
2025-07-12T00:00	5500	517	-11.5	-41.4	340	11	
2025-07-12T00:00	5520	516	-11.7	-42.1	340	11	
2025-07-12T00:00	5540	515	-11.8	-42.2	341	10	
2025-07-12T00:00	5560	514	-11.9	-42.3	342	10	
2025-07-12T00:00	5580	512	-12.0	-42.4	342	10	
2025-07-12T00:00	5600	511	-12.2	-42.5	342	10	
2025-07-12T00:00	5620	509	-12.4	-42.5	343	10	
2025-07-12T00:00	5640	508	-12.6	-42.6	342	10	
2025-07-12T00:00	5660	507	-12.8	-42.7	341	10	
2025-07-12T00:00	5680	506	-12.9	-42.8	340	11	
2025-07-12T00:00	5700	504	-13.0	-42.5	339	11	
2025-07-12T00:00	5720	503	-13.2	-42.5	338	11	
2025-07-12T00:00	5740	501	-13.4	-42.5	337	10	
2025-07-12T00:00	5760	500	-13.6	-42.5	336	10	
2025-07-12T00:00	5780	499	-13.8	-42.5	336	10	
2025-07-12T00:00	5800	498	-13.9	-42.1	337	9	
2025-07-12T00:00	5820	496	-14.1	-41.0	337	9	
2025-07-12T00:00	5840	495	-14.3	-40.2	338	9	
2025-07-12T00:00	5860	493	-14.5	-39.7	340	9	
2025-07-12T00:00	5880	492	-14.7	-39.9	341	9	
2025-07-12T00:00	5900	491	-14.8	-40.3	341	9	
2025-07-12T00:00	5920	490	-15.0	-40.9	340	9	
2025-07-12T00:00	5940	488	-15.1	-41.0	338	9	
2025-07-12T00:00	5960	487	-15.3	-40.9	337	10	
2025-07-12T00:00	5980	486	-15.5	-40.8	335	10	
2025-07-12T00:00	6000	485	-15.6	-41.0	333	10	
2025-07-12T00:00	6020	483	-15.6	-40.7	331	10	
2025-07-12T00:00	6040	482	-15.7	-40.1	329	10	
2025-07-12T00:00	6060	481	-15.8	-39.6	329	10	
2025-07-12T00:00	6080	479	-16.0	-39.4	329	10	
2025-07-12T00:00	6100	478	-16.1	-39.2	329	10	
2025-07-12T00:00	6120	477	-16.3	-38.9	329	10	
2025-07-12T00:00	6140	475	-16.4	-38.7	329	10	
2025-07-12T00:00	6160	474	-16.5	-38.0	329	10	
2025-07-12T00:00	6180	473	-16.7	-37.2	328	9	
2025-07-12T00:00	6200	472	-16.8	-37.1	328	9	
2025-07-12T00:00	6220	471	-16.9	-37.1	327	9	
2025-07-12T00:00	6240	469	-17.1	-37.2	325	9	
2025-07-12T00:00	6260	468	-17.3	-37.1	324	9	
2025-07-12T00:00	6280	467	-17.5	-37.4	322	8	
2025-07-12T00:00	6300	466	-17.6	-37.6	321	8	
2025-07-12T00:00	6320	464	-17.8	-37.8	320	8	
2025-07-12T00:00	6340	463	-17.9	-39.7	320	8	
2025-07-12T00:00	6360	462	-18.0	-40.6	320	8	
2025-07-12T00:00	6380	461	-18.1	-41.4	320	8	
2025-07-12T00:00	6400	459	-18.2	-41.2	321	8	
2025-07-12T00:00	6420	458	-18.4	-41.0	322	8	
2025-07-12T00:00	6440	457	-18.5	-40.8	324	8	
2025-07-12T00:00	6460	456	-18.7	-40.6	327	8	
2025-07-12T00:00	6480	454	-18.9	-40.6	329	8	
2025-07-12T00:00	6500	453	-19.0	-40.7	331	8	
2025-07-12T00:00	6520	452	-19.2	-40.6	333	9	
2025-07-12T00:00	6540	451	-19.4	-40.8	334	9	
2025-07-12T00:00	6560	450	-19.5	-41.4	335	9	
2025-07-12T00:00	6580	448	-19.7	-41.4	336	9	
2025-07-12T00:00	6600	447	-19.8	-40.9	336	9	
2025-07-12T00:00	6620	446	-20.0	-41.2	336	9	
2025-07-12T00:00	6640	445	-20.1	-41.3	336	9	
2025-07-12T00:00	6660	444	-20.2	-41.5	336	9	
2025-07-12T00:00	6680	442	-20.4	-41.7	338	9	
2025-07-12T00:00	6700	441	-20.5	-42.1	340	9	
2025-07-12T00:00	6720	440	-20.6	-42.4	341	9	
2025-07-12T00:00	6740	439	-20.8	-43.0	342	9	
2025-07-12T00:00	6760	438	-20.8	-44.0	343	9	
2025-07-12T00:00	6780	436	-20.8	-45.0	344	8	
2025-07-12T00:00	6800	435	-20.9	-45.0	344	8	
2025-07-12T00:00	6820	434	-21.0	-45.3	343	8	
2025-07-12T00:00	6840	433	-21.1	-45.5	343	8	
2025-07-12T00:00	6860	432	-21.2	-45.6	342	8	
2025-07-12T00:00	6880	431	-21.4	-45.6	341	8	
2025-07-12T00:00	6900	429	-21.6	-45.8	341	9	
2025-07-12T00:00	6920	428	-21.7	-45.9	341	9	
2025-07-12T00:00	6940	427	-21.9	-46.0	340	9	
2025-07-12T00:00	6960	426	-22.0	-46.1	339	9	
2025-07-12T00:00	6980	425	-22.2	-46.3	337	10	
2025-07-12T00:00	7000	424	-22.3	-46.6	335	10	
2025-07-12T00:00	7020	422	-22.4	-46.8	334	11	
2025-07-12T00:00	7040	421	-22.6	-46.9	334	11	
2025-07-12T00:00	7060	420	-22.7	-47.3	334	11	
2025-07-12T00:00	7080	419	-22.9	-47.5	335	11	
2025-07-12T00:00	7100	418	-23.0	-47.8	335	12	
2025-07-12T00:00	7120	417	-23.1	-48.4	335	12	
2025-07-12T00:00	7140	416	-23.2	-48.9	336	12	
2025-07-12T00:00	7160	414	-23.3	-48.8	336	12	
2025-07-12T00:00	7180	413	-23.4	-48.5	336	12	
2025-07-12T00:00	7200	412	-23.5	-48.3	336	12	
2025-07-12T00:00	7220	411	-23.6	-48.4	335	12	
2025-07-12T00:00	7240	410	-23.8	-48.2	335	12	
2025-07-12T00:00	7260	409	-23.9	-47.2	334	12	
2025-07-12T00:00	7280	408	-24.0	-46.2	334	12	
2025-07-12T00:00	7300	407	-24.2	-45.7	333	12	
2025-07-12T00:00	7320	405	-24.4	-45.9	333	12	
2025-07-12T00:00	7340	404	-24.6	-45.9	333	11	
2025-07-12T00:00	7360	403	-24.8	-45.9	333	11	
2025-07-12T00:00	7380	402	-24.9	-46.0	334	11	
2025-07-12T00:00	7400	401	-25.1	-46.2	335	11	
2025-07-12T00:00	7420	400	-25.3	-46.4	336	11	
2025-07-12T00:00	7440	399	-25.4	-46.5	337	11	
2025-07-12T00:00	7460	398	-25.6	-46.6	337	10	
2025-07-12T00:00	7480	397	-25.8	-47.0	338	10	
2025-07-12T00:00	7500	395	-25.9	-47.2	337	10	
2025-07-12T00:00	7520	394	-26.0	-47.2	336	10	
2025-07-12T00:00	7540	393	-26.2	-47.2	335	10	
2025-07-12T00:00	7560	392	-26.4	-47.3	333	10	
2025-07-12T00:00	7580	391	-26.5	-47.4	331	10	
2025-07-12T00:00	7600	390	-26.6	-47.6	330	10	
2025-07-12T00:00	7620	389	-26.8	-47.8	330	10	
2025-07-12T00:00	7640	388	-26.9	-47.9	330	11	
2025-07-12T00:00	7660	387	-27.1	-48.1	330	11	
2025-07-12T00:00	7680	386	-27.3	-47.0	331	11	
2025-07-12T00:00	7700	385	-27.4	-45.6	330	11	
2025-07-12T00:00	7720	384	-27.6	-45.5	330	11	
2025-07-12T00:00	7740	383	-27.8	-44.5	329	11	
2025-07-12T00:00	7760	382	-28.0	-43.5	329	11	
2025-07-12T00:00	7780	380	-28.2	-43.5	329	11	
2025-07-12T00:00	7800	379	-28.4	-43.9	329	11	
2025-07-12T00:00	7820	378	-28.5	-45.7	329	11	
2025-07-12T00:00	7840	377	-28.7	-46.3	329	11	
2025-07-12T00:00	7860	376	-28.8	-45.6	329	11	
2025-07-12T00:00	7880	375	-29.0	-45.5	328	11	
2025-07-12T00:00	7900	374	-29.2	-45.7	328	11	
2025-07-12T00:00	7920	373	-29.3	-46.0	327	11	
2025-07-12T00:00	7940	372	-29.6	-46.1	327	11	
2025-07-12T00:00	7960	371	-29.7	-46.2	327	11	
2025-07-12T00:00	7980	370	-29.9	-45.7	327	11	
2025-07-12T00:00	8000	369	-30.1	-45.6	328	11	
2025-07-12T00:00	8020	368	-30.3	-46.4	328	11	
2025-07-12T00:00	8040	367	-30.4	-47.2	329	11	
2025-07-12T00:00	8060	366	-30.6	-43.7	329	11	
2025-07-12T00:00	8080	365	-30.8	-42.3	329	11	
2025-07-12T00:00	8100	364	-31.0	-42.8	329	11	
2025-07-12T00:00	8120	363	-31.2	-42.4	329	11	
2025-07-12T00:00	8140	362	-31.4	-42.7	329	11	
2025-07-12T00:00	8160	361	-31.5	-43.3	329	11	
2025-07-12T00:00	8180	360	-31.6	-43.1	329	11	
2025-07-12T00:00	8200	359	-31.8	-43.1	330	11	
2025-07-12T00:00	8220	358	-32.0	-43.0	330	11	
2025-07-12T00:00	8240	357	-32.2	-43.1	330	11	
2025-07-12T00:00	8260	356	-32.3	-43.0	330	10	
2025-07-12T00:00	8280	355	-32.5	-42.1	331	10	
2025-07-12T00:00	8300	354	-32.7	-41.8	331	10	
2025-07-12T00:00	8320	353	-32.9	-41.3	331	10	
2025-07-12T00:00	8340	352	-33.1	-40.8	330	11	
2025-07-12T00:00	8360	351	-33.3	-40.3	330	11	
2025-07-12T00:00	8380	350	-33.5	-40.2	330	11	
2025-07-12T00:00	8400	349	-33.7	-40.2	329	12	
2025-07-12T00:00	8420	348	-33.8	-41.7	329	12	
2025-07-12T00:00	8440	347	-33.9	-42.3	328	12	
2025-07-12T00:00	8460	346	-34.1	-41.6	328	13	
2025-07-12T00:00	8480	345	-34.2	-41.1	327	13	
2025-07-12T00:00	8500	344	-34.3	-40.9	327	13	
2025-07-12T00:00	8520	343	-34.5	-41.1	326	13	
2025-07-12T00:00	8540	342	-34.7	-41.1	326	13	
2025-07-12T00:00	8560	341	-34.9	-41.1	325	13	
2025-07-12T00:00	8580	340	-35.1	-41.0	325	13	
2025-07-12T00:00	8600	339	-35.3	-40.9	325	13	
2025-07-12T00:00	8620	338	-35.5	-41.0	324	14	
2025-07-12T00:00	8640	337	-35.7	-41.2	323	14	
2025-07-12T00:00	8660	336	-35.8	-41.1	322	14	
2025-07-12T00:00	8680	335	-36.0	-41.1	321	14	
2025-07-12T00:00	8700	334	-36.1	-41.4	320	14	
2025-07-12T00:00	8720	333	-36.3	-42.2	319	14	
2025-07-12T00:00	8740	332	-36.4	-43.4	318	14	
2025-07-12T00:00	8760	331	-36.5	-43.7	318	14	
2025-07-12T00:00	8780	330	-36.7	-44.2	319	14	
2025-07-12T00:00	8800	329	-36.8	-44.2	319	14	
2025-07-12T00:00	8820	328	-37.0	-44.2	319	14	
2025-07-12T00:00	8840	327	-37.2	-44.6	319	14	
2025-07-12T00:00	8860	326	-37.3	-45.6	319	14	
2025-07-12T00:00	8880	325	-37.4	-46.6	319	14	
2025-07-12T00:00	8900	324	-37.6	-47.0	319	14	
2025-07-12T00:00	8920	323	-37.7	-47.3	319	14	
2025-07-12T00:00	8940	323	-37.8	-48.1	319	14	
2025-07-12T00:00	8960	322	-38.0	-49.4	320	15	
2025-07-12T00:00	8980	321	-38.1	-50.0	320	15	
2025-07-12T00:00	9000	320	-38.3	-50.3	320	15	
2025-07-12T00:00	9020	319	-38.4	-50.6	321	15	
2025-07-12T00:00	9040	318	-38.6	-50.2	321	16	
2025-07-12T00:00	9060	317	-38.8	-50.1	321	16	
2025-07-12T00:00	9080	316	-38.9	-50.7	321	16	
2025-07-12T00:00	9100	315	-39.1	-51.1	321	16	
2025-07-12T00:00	9120	314	-39.2	-51.6	321	17	
2025-07-12T00:00	9140	313	-39.4	-52.4	321	17	
2025-07-12T00:00	9160	312	-39.5	-53.1	320	17	
2025-07-12T00:00	9180	312	-39.6	-54.5	320	17	
2025-07-12T00:00	9200	311	-39.7	-55.1	320	18	
2025-07-12T00:00	9220	310	-39.8	-54.3	319	18	
2025-07-12T00:00	9240	309	-40.0	-53.6	319	18	
2025-07-12T00:00	9260	308	-40.1	-53.7	319	18	
2025-07-12T00:00	9280	307	-40.2	-54.3	318	18	
2025-07-12T00:00	9300	306	-40.3	-55.1	318	18	
2025-07-12T00:00	9320	305	-40.4	-55.5	318	18	
2025-07-12T00:00	9340	304	-40.5	-56.0	318	19	
2025-07-12T00:00	9360	303	-40.7	-55.9	318	19	
2025-07-12T00:00	9380	303	-40.8	-55.9	318	19	
2025-07-12T00:00	9400	302	-40.9	-55.9	318	19	
2025-07-12T00:00	9420	301	-41.0	-56.0	318	20	
2025-07-12T00:00	9440	300	-41.1	-56.1	318	20	
2025-07-12T00:00	9460	299	-41.3	-56.1	318	20	
2025-07-12T00:00	9480	298	-41.5	-56.2	317	20	
2025-07-12T00:00	9500	297	-41.6	-56.3	317	20	
2025-07-12T00:00	9520	296	-41.8	-56.4	317	20	
2025-07-12T00:00	9540	295	-41.9	-56.4	317	21	
2025-07-12T00:00	9560	295	-42.0	-56.3	317	21	
2025-07-12T00:00	9580	294	-42.2	-56.2	316	21	
2025-07-12T00:00	9600	293	-42.4	-56.2	315	21	
2025-07-12T00:00	9620	292	-42.6	-56.1	314	21	
2025-07-12T00:00	9640	291	-42.7	-56.1	314	21	
2025-07-12T00:00	9660	290	-42.9	-56.2	313	21	
2025-07-12T00:00	9680	289	-43.0	-56.3	312	21	
2025-07-12T00:00	9700	289	-43.1	-56.4	312	21	
2025-07-12T00:00	9720	288	-43.3	-56.4	312	21	
2025-07-12T00:00	9740	287	-43.5	-56.3	311	21	
2025-07-12T00:00	9760	286	-43.7	-56.3	311	22	
2025-07-12T00:00	9780	285	-43.8	-56.3	311	22	
2025-07-12T00:00	9800	284	-44.0	-56.3	311	22	
2025-07-12T00:00	9820	283	-44.1	-56.2	311	22	
2025-07-12T00:00	9840	283	-44.3	-56.1	310	23	
2025-07-12T00:00	9860	282	-44.5	-56.0	310	23	
2025-07-12T00:00	9880	281	-44.6	-56.0	310	23	
2025-07-12T00:00	9900	280	-44.7	-56.1	309	23	
2025-07-12T00:00	9920	279	-44.9	-56.1	309	24	
2025-07-12T00:00	9940	278	-45.1	-56.1	309	24	
2025-07-12T00:00	9960	278	-45.3	-56.0	309	25	
2025-07-12T00:00	9980	277	-45.5	-55.9	309	25	
2025-07-12T00:00	10000	276	-45.6	-55.8	309	26	
2025-07-12T00:00	10018	275	-45.7	-55.8	309	26	
2025-07-12T00:00	10050	274	-45.8	-55.8	308	26	
2025-07-12T00:00	10100	272	-46.0	-55.7	306	27	
2025-07-12T00:00	10150	270	-46.1	-56.7	305	27	
2025-07-12T00:00	10200	268	-46.5	-56.4	306	28	
2025-07-12T00:00	10250	266	-46.9	-56.7	306	28	
2025-07-12T00:00	10300	264	-47.3	-57.7	306	28	
2025-07-12T00:00	10350	262	-47.6	-58.5	306	27	
2025-07-12T00:00	10400	260	-47.9	-58.4	306	27	
2025-07-12T00:00	10450	258	-48.2	-59.1	306	27	
2025-07-12T00:00	10500	256	-48.5	-59.3	306	27	
2025-07-12T00:00	10550	254	-48.7	-59.6	307	27	
2025-07-12T00:00	10600	252	-49.1	-59.7	308	26	
2025-07-12T00:00	10650	250	-49.4	-60.1	310	26	
2025-07-12T00:00	10700	248	-49.8	-60.5	311	26	
2025-07-12T00:00	10750	246	-50.1	-61.0	312	25	
2025-07-12T00:00	10800	244	-50.3	-61.6	312	24	
2025-07-12T00:00	10850	243	-50.6	-62.3	312	24	
2025-07-12T00:00	10900	241	-51.0	-62.7	312	23	
2025-07-12T00:00	10950	239	-51.2	-64.0	311	22	
2025-07-12T00:00	11000	237	-51.4	-65.1	309	22	
2025-07-12T00:00	11050	235	-51.6	-64.6	308	21	
2025-07-12T00:00	11100	233	-51.6	-66.2	306	21	
2025-07-12T00:00	11150	232	-51.5	-65.9	305	22	
2025-07-12T00:00	11200	230	-51.6	-64.7	305	21	
2025-07-12T00:00	11250	228	-51.7	-65.2	308	21	
2025-07-12T00:00	11300	226	-51.4	-65.9	308	21	
2025-07-12T00:00	11350	224	-51.6	-65.9	307	21	
2025-07-12T00:00	11400	223	-52.0	-65.9	307	21	
2025-07-12T00:00	11450	221	-51.7	-66.8	308	20	
2025-07-12T00:00	11500	219	-51.4	-67.8	310	20	
2025-07-12T00:00	11550	218	-51.2	-68.0	308	21	
2025-07-12T00:00	11600	216	-51.7	-67.9	304	21	
2025-07-12T00:00	11650	214	-51.9	-67.9	303	21	
2025-07-12T00:00	11700	213	-52.0	-68.2	304	20	
2025-07-12T00:00	11750	211	-52.3	-68.5	306	20	
2025-07-12T00:00	11800	209	-52.5	-68.8	308	21	
2025-07-12T00:00	11850	208	-52.6	-69.6	309	21	
2025-07-12T00:00	11900	206	-51.7	-71.1	306	20	
2025-07-12T00:00	11950	205	-50.8	-72.5	300	19	
2025-07-12T00:00	12000	203	-50.5	-73.2	296	20	
2025-07-12T00:00	12050	202	-50.5	-73.6	297	21	
2025-07-12T00:00	12100	200	-50.1	-73.7	301	21	
2025-07-12T00:00	12150	198	-49.6	-73.9	303	21	
2025-07-12T00:00	12200	197	-49.4	-74.8	305	19	
2025-07-12T00:00	12250	196	-48.9	-75.7	307	18	
2025-07-12T00:00	12300	194	-49.0	-75.9	310	16	
2025-07-12T00:00	12350	192	-49.1	-75.9	311	15	
2025-07-12T00:00	12400	191	-49.5	-76.0	312	15	
2025-07-12T00:00	12450	190	-49.9	-76.0	313	14	
2025-07-12T00:00	12500	188	-50.3	-76.2	316	13	
2025-07-12T00:00	12550	187	-50.7	-76.4	318	13	
2025-07-12T00:00	12600	185	-50.8	-76.6	316	12	
2025-07-12T00:00	12650	184	-50.7	-76.9	311	13	
2025-07-12T00:00	12700	182	-50.9	-77.3	308	14	
2025-07-12T00:00	12750	181	-51.3	-77.4	306	15	
2025-07-12T00:00	12800	180	-51.8	-77.6	306	16	
2025-07-12T00:00	12850	178	-52.1	-77.8	306	16	
2025-07-12T00:00	12900	177	-51.3	-78.2	307	16	
2025-07-12T00:00	12950	176	-50.8	-78.5	309	16	
2025-07-12T00:00	13000	174	-51.2	-78.6	312	16	
2025-07-12T00:00	13050	173	-51.3	-78.7	314	16	
2025-07-12T00:00	13100	172	-51.6	-78.9	314	16	
2025-07-12T00:00	13150	170	-51.7	-79.2	312	17	
2025-07-12T00:00	13200	169	-51.7	-79.8	309	17	
2025-07-12T00:00	13250	168	-51.5	-80.5	307	16	
2025-07-12T00:00	13300	166	-51.4	-80.7	308	14	
2025-07-12T00:00	13350	165	-51.1	-80.8	309	13	
2025-07-12T00:00	13400	164	-50.6	-80.6	305	13	
2025-07-12T00:00	13450	163	-50.3	-80.5	301	13	
2025-07-12T00:00	13500	161	-50.6	-80.5	300	14	
2025-07-12T00:00	13550	160	-50.3	-80.5	302	14	
2025-07-12T00:00	13600	159	-50.3	-80.6	302	15	
2025-07-12T00:00	13650	158	-50.6	-80.7	301	16	
2025-07-12T00:00	13700	156	-50.8	-80.8	301	16	
2025-07-12T00:00	13750	155	-51.2	-80.9	302	16	
2025-07-12T00:00	13800	154	-51.4	-81.1	304	16	
2025-07-12T00:00	13850	153	-51.5	-81.1	306	16	
2025-07-12T00:00	13900	152	-51.6	-81.1	307	16	
2025-07-12T00:00	13950	151	-51.6	-80.9	308	16	
2025-07-12T00:00	14000	149	-51.7	-81.0	310	15	
2025-07-12T00:00	14050	148	-51.5	-81.1	309	14	
2025-07-12T00:00	14100	147	-51.7	-81.1	308	13	
2025-07-12T00:00	14150	146	-51.9	-81.1	307	13	
2025-07-12T00:00	14200	145	-51.6	-81.5	306	12	
2025-07-12T00:00	14250	144	-51.4	-81.7	303	12	
2025-07-12T00:00	14300	143	-51.4	-81.7	301	12	
2025-07-12T00:00	14350	142	-51.4	-81.7	301	12	
2025-07-12T00:00	14400	140	-51.5	-81.6	299	12	
2025-07-12T00:00	14450	139	-51.4	-81.6	296	12	
2025-07-12T00:00	14500	138	-51.4	-81.6	295	11	
2025-07-12T00:00	14550	137	-51.4	-81.5	297	11	
2025-07-12T00:00	14600	136	-51.6	-81.6	300	11	
2025-07-12T00:00	14650	135	-51.8	-81.7	302	11	
2025-07-12T00:00	14700	134	-51.6	-81.9	301	10	
2025-07-12T00:00	14750	133	-51.4	-81.8	299	10	
2025-07-12T00:00	14800	132	-51.7	-81.9	298	9	
2025-07-12T00:00	14850	131	-51.9	-81.9	298	9	
2025-07-12T00:00	14900	130	-52.1	-82.0	298	10	
2025-07-12T00:00	14950	129	-52.3	-82.2	293	10	
2025-07-12T00:00	15000	128	-52.4	-82.3	285	10	
2025-07-12T00:00	15050	127	-51.9	-82.3	277	10	
2025-07-12T00:00	15100	126	-52.1	-82.3	276	10	
2025-07-12T00:00	15150	125	-52.3	-82.4	279	10	
2025-07-12T00:00	15200	124	-52.4	-82.4	280	11	
2025-07-12T00:00	15250	123	-52.6	-82.4	281	12	
2025-07-12T00:00	15300	122	-52.8	-82.3	282	13	
2025-07-12T00:00	15350	121	-52.6	-82.3	283	12	
2025-07-12T00:00	15400	120	-52.7	-82.4	284	12	
2025-07-12T00:00	15450	119	-52.7	-82.5	283	11	
2025-07-12T00:00	15500	118	-53.0	-82.6	281	11	
2025-07-12T00:00	15550	118	-53.1	-82.6	283	11	
2025-07-12T00:00	15600	117	-53.3	-82.7	286	11	
2025-07-12T00:00	15650	116	-53.6	-82.8	290	11	
2025-07-12T00:00	15700	115	-53.8	-82.9	294	11	
2025-07-12T00:00	15750	114	-53.7	-82.9	297	11	
2025-07-12T00:00	15800	113	-53.9	-83.0	299	10	
2025-07-12T00:00	15850	112	-53.9	-83.0	299	9	
2025-07-12T00:00	15900	111	-54.3	-83.2	298	8	
2025-07-12T00:00	15950	110	-54.5	-83.3	294	8	
2025-07-12T00:00	16000	110	-54.6	-83.3	291	7	
2025-07-12T00:00	16050	109	-54.9	-83.4	288	7	
2025-07-12T00:00	16100	108	-55.2	-83.4	286	7	
2025-07-12T00:00	16150	107	-55.5	-83.6	282	7	
2025-07-12T00:00	16200	106	-55.7	-83.8	280	7	
2025-07-12T00:00	16250	105	-55.6	-83.8	282	7	
2025-07-12T00:00	16300	105	-55.8	-83.9	287	7	
2025-07-12T00:00	16350	104	-56.0	-84.0	293	8	
2025-07-12T00:00	16400	103	-56.2	-84.1	299	8	
2025-07-12T00:00	16450	102	-56.2	-84.1	299	8	
2025-07-12T00:00	16500	101	-56.0	-84.1	293	7	
2025-07-12T00:00	16550	101	-56.3	-84.2	287	7	
2025-07-12T00:00	16600	100	-56.4	-84.2	286	7	
2025-07-12T00:00	16650	99	-56.6	-84.5	295	7	
2025-07-12T00:00	16700	98	-56.0	-84.4	315	7	
2025-07-12T00:00	16750	97	-55.8	-84.4	331	7	
2025-07-12T00:00	16800	97	-55.7	-84.3	337	7	
2025-07-12T00:00	16850	96	-55.9	-84.3	334	7	
2025-07-12T00:00	16900	95	-56.1	-84.4	325	6	
2025-07-12T00:00	16950	94	-56.3	-84.5	314	5	
2025-07-12T00:00	17000	94	-55.9	-84.4	304	6	
2025-07-12T00:00	17050	93	-55.9	-84.5	297	7	
2025-07-12T00:00	17100	92	-56.2	-84.6	295	8	
2025-07-12T00:00	17150	91	-56.1	-84.6	297	8	
2025-07-12T00:00	17200	91	-55.9	-84.5	300	8	
2025-07-12T00:00	17250	90	-55.8	-84.5	304	7	
2025-07-12T00:00	17300	89	-55.9	-84.5	312	7	
2025-07-12T00:00	17350	89	-56.1	-84.5	320	7	
2025-07-12T00:00	17400	88	-56.5	-84.6	324	6	
2025-07-12T00:00	17450	87	-56.5	-84.7	320	6	
2025-07-12T00:00	17500	87	-56.2	-84.6	311	6	
2025-07-12T00:00	17550	86	-56.3	-84.7	307	6	
2025-07-12T00:00	17600	85	-56.2	-84.7	311	7	
2025-07-12T00:00	17650	85	-56.0	-84.6	317	8	
2025-07-12T00:00	17700	84	-56.2	-84.6	320	8	
2025-07-12T00:00	17750	83	-56.5	-84.7	322	9	
2025-07-12T00:00	17800	83	-56.8	-84.9	326	9	
2025-07-12T00:00	17850	82	-56.6	-84.8	334	10	
2025-07-12T00:00	17900	81	-56.5	-84.9	344	9	
2025-07-12T00:00	17950	81	-56.3	-84.9	352	8	
2025-07-12T00:00	18000	80	-56.1	-84.9	2	6	
2025-07-12T00:00	18050	79	-55.8	-84.7	16	4	
2025-07-12T00:00	18100	79	-55.9	-84.8	38	3	
2025-07-12T00:00	18150	78	-55.6	-84.7	36	3	
2025-07-12T00:00	18200	78	-55.2	-84.6	17	4	
2025-07-12T00:00	18250	77	-54.9	-84.6	16	5	
2025-07-12T00:00	18300	76	-54.7	-84.5	26	6	
2025-07-12T00:00	18350	76	-54.4	-84.2	34	7	
2025-07-12T00:00	18400	75	-54.6	-84.2	41	7	
2025-07-12T00:00	18450	75	-55.1	-84.2	50	7	
2025-07-12T00:00	18500	74	-55.4	-84.4	63	7	
2025-07-12T00:00	18550	73	-55.2	-84.3	73	7	
2025-07-12T00:00	18600	73	-55.2	-84.4	81	7	
2025-07-12T00:00	18650	72	-55.5	-84.4	92	7	
2025-07-12T00:00	18700	72	-55.8	-84.5	103	6	
2025-07-12T00:00	18750	71	-56.1	-84.7	110	6	
2025-07-12T00:00	18800	71	-55.9	-84.8	113	5	
2025-07-12T00:00	18850	70	-55.6	-84.9	116	4	
2025-07-12T00:00	18900	69	-55.0	-84.7	117	4	
2025-07-12T00:00	18950	69	-54.7	-84.6	106	4	
2025-07-12T00:00	19000	68	-54.5	-84.5	88	4	
2025-07-12T00:00	19050	68	-54.3	-84.4	76	5	
2025-07-12T00:00	19100	67	-54.4	-84.4	73	5	
2025-07-12T00:00	19150	67	-54.0	-84.1	77	5	
2025-07-12T00:00	19200	66	-54.2	-84.2	78	4	
2025-07-12T00:00	19250	66	-54.5	-84.3	75	5	
2025-07-12T00:00	19300	65	-54.4	-84.3	75	6	
2025-07-12T00:00	19350	65	-54.1	-84.5	80	7	
2025-07-12T00:00	19400	64	-53.3	-84.1	88	8	
2025-07-12T00:00	19450	64	-53.2	-84.0	96	9	
2025-07-12T00:00	19500	63	-53.5	-83.8	103	9	
2025-07-12T00:00	19550	63	-53.9	-83.8	109	9	
2025-07-12T00:00	19600	62	-54.2	-84.0	114	9	
2025-07-12T00:00	19650	62	-54.4	-84.2	115	9	
2025-07-12T00:00	19700	61	-54.3	-84.3	113	8	
2025-07-12T00:00	19750	61	-54.0	-84.1	112	8	
2025-07-12T00:00	19800	60	-54.1	-84.1	113	8	
2025-07-12T00:00	19850	60	-54.4	-84.1	116	8	
2025-07-12T00:00	19900	59	-54.7	-84.3	115	8	
2025-07-12T00:00	19950	59	-54.9	-84.4	111	8	
2025-07-12T00:00	20000	59	-54.8	-84.4	105	8	
2025-07-12T00:00	20050	58	-54.8		101	8	
2025-07-12T00:00	20100	58	-54.8		100	9	
2025-07-12T00:00	20150	57	-54.9		99	9	
2025-07-12T00:00	20200	57	-55.0		97	9	
2025-07-12T00:00	20250	56	-55.0		96	9	
2025-07-12T00:00	20300	56	-54.8		100	9	
2025-07-12T00:00	20350	55	-54.8		108	9	
2025-07-12T00:00	20400	55	-55.0		114	9	
2025-07-12T00:00	20450	55	-55.0		116	8	
2025-07-12T00:00	20500	54	-54.6		115	7	
2025-07-12T00:00	20550	54	-54.4		114	7	
2025-07-12T00:00	20600	53	-54.3		116	8	
2025-07-12T00:00	20650	53	-54.1		118	9	
2025-07-12T00:00	20700	52	-53.6		115	9	
2025-07-12T00:00	20750	52	-53.0		108	9	
2025-07-12T00:00	20800	52	-52.7		101	9	
2025-07-12T00:00	20850	51	-52.4		95	9	
2025-07-12T00:00	20900	51	-52.3		90	10	
2025-07-12T00:00	20950	50	-52.2		82	10	
2025-07-12T00:00	21000	50	-52.0		75	10	
2025-07-12T00:00	21050	50	-52.1		75	11	
2025-07-12T00:00	21100	49	-52.1		80	12	
2025-07-12T00:00	21150	49	-52.1		87	12	
2025-07-12T00:00	21200	49	-52.4		96	11	
2025-07-12T00:00	21250	48	-52.6		107	10	
2025-07-12T00:00	21300	48	-52.6		118	9	
2025-07-12T00:00	21350	47	-52.4		127	8	
2025-07-12T00:00	21400	47	-52.4		133	8	
2025-07-12T00:00	21450	47	-52.4		138	7	
2025-07-12T00:00	21500	46	-52.6		143	7	
2025-07-12T00:00	21550	46	-53.0		147	6	
2025-07-12T00:00	21600	46	-53.0		143	6	
2025-07-12T00:00	21650	45	-52.9		127	6	
2025-07-12T00:00	21700	45	-52.9		111	7	
2025-07-12T00:00	21750	45	-53.1		99	9	
2025-07-12T00:00	21800	44	-53.1		93	10	
2025-07-12T00:00	21850	44	-53.1		92	12	
2025-07-12T00:00	21900	44	-52.9		94	14	
2025-07-12T00:00	21950	43	-53.0		99	15	
2025-07-12T00:00	22000	43	-53.2		104	14	
2025-07-12T00:00	22050	43	-52.9		110	13	
2025-07-12T00:00	22100	42	-52.8		117	11	
2025-07-12T00:00	22150	42	-52.8		119	10	
2025-07-12T00:00	22200	42	-52.7		114	11	
2025-07-12T00:00	22250	41	-52.4		108	12	
2025-07-12T00:00	22300	41	-52.4		106	13	
2025-07-12T00:00	22350	41	-51.8		109	12	
2025-07-12T00:00	22400	40	-51.7		114	11	
2025-07-12T00:00	22450	40	-51.5		121	10	
2025-07-12T00:00	22500	40	-51.5		128	9	
2025-07-12T00:00	22550	39	-51.5		134	7	
2025-07-12T00:00	22600	39	-51.5		135	6	
2025-07-12T00:00	22650	39	-50.8		124	5	
2025-07-12T00:00	22700	38	-50.4		109	5	
2025-07-12T00:00	22750	38	-50.4		98	6	
2025-07-12T00:00	22800	38	-50.4		94	7	
2025-07-12T00:00	22850	38	-50.1		95	8	
2025-07-12T00:00	22900	37	-49.9		98	8	
2025-07-12T00:00	22950	37	-50.0		100	9	
2025-07-12T00:00	23000	37	-50.3		100	9	
2025-07-12T00:00	23050	36	-50.4		98	10	
2025-07-12T00:00	23100	36	-50.6		99	10	
2025-07-12T00:00	23150	36	-50.8		101	10	
2025-07-12T00:00	23200	36	-51.1		105	10	
2025-07-12T00:00	23250	35	-51.4		107	11	
2025-07-12T00:00	23300	35	-51.7		109	11	
2025-07-12T00:00	23350	35	-51.6		111	12	
2025-07-12T00:00	23400	35	-51.7		113	13	
2025-07-12T00:00	23450	34	-51.6		115	13	
2025-07-12T00:00	23500	34	-51.5		118	13	
2025-07-12T00:00	23550	34	-51.8		121	13	
2025-07-12T00:00	23600	34	-52.1		122	12	
2025-07-12T00:00	23650	33	-52.0		122	13	
2025-07-12T00:00	23700	33	-52.2		121	13	
2025-07-12T00:00	23750	33	-52.3		122	12	
2025-07-12T00:00	23800	32	-52.2		124	11	
2025-07-12T00:00	23850	32	-52.2		126	9	
2025-07-12T00:00	23900	32	-51.9		125	7	
2025-07-12T00:00	23950	32	-51.7		123	6	
2025-07-12T00:00	24000	32	-51.8		119	6	
2025-07-12T00:00	24050	31	-51.6		115	6	
2025-07-12T00:00	24100	31	-51.5		114	6	
2025-07-12T00:00	24150	31	-51.3		119	7	
2025-07-12T00:00	24200	31	-50.7		126	7	
2025-07-12T00:00	24250	30	-50.4		130	8	
2025-07-12T00:00	24300	30	-49.8		128	8	
2025-07-12T00:00	24350	30	-49.6		122	8	
2025-07-12T00:00	24400	30	-49.5		116	8	
2025-07-12T00:00	24450	29	-49.4		111	8	
2025-07-12T00:00	24500	29	-49.3		109	8	
2025-07-12T00:00	24550	29	-49.3		110	7	
2025-07-12T00:00	24600	29	-49.3		113	7	
2025-07-12T00:00	24650	29	-49.6		118	6	
2025-07-12T00:00	24700	28	-49.5		122	6	
2025-07-12T00:00	24750	28	-49.2		119	5	
2025-07-12T00:00	24800	28	-49.2		108	4	
2025-07-12T00:00	24850	28	-49.1		88	3	
2025-07-12T00:00	24900	27	-48.9		63	3	
2025-07-12T00:00	24950	27	-48.9		46	4	
2025-07-12T00:00	25000	27	-48.8		42	5	
2025-07-12T00:00	25050	27	-48.6		46	6	
2025-07-12T00:00	25100	27	-48.4		53	7	
2025-07-12T00:00	25150	26	-48.3		59	7	
2025-07-12T00:00	25200	26	-48.4		66	8	
2025-07-12T00:00	25250	26	-48.5		74	8	
2025-07-12T00:00	25300	26	-48.5		80	8	
2025-07-12T00:00	25350	26	-48.5		85	9	
2025-07-12T00:00	25400	25	-48.9		87	9	
2025-07-12T00:00	25450	25	-49.0		84	9	
2025-07-12T00:00	25500	25	-48.9		80	9	
2025-07-12T00:00	25550	25	-48.6		77	9	
2025-07-12T00:00	25600	25	-48.7		80	10	
2025-07-12T00:00	25650	24	-48.6		86	10	
2025-07-12T00:00	25700	24	-48.5		91	10	
2025-07-12T00:00	25750	24	-48.5		93	10	
2025-07-12T00:00	25800	24	-48.4		93	10	
2025-07-12T00:00	25850	24	-48.3		93	10	
2025-07-12T00:00	25900	24	-48.1		92	9	
2025-07-12T00:00	25950	23	-47.6		88	9	
2025-07-12T00:00	26000	23	-47.3		81	9	
2025-07-12T00:00	26050	23	-47.2		75	10	
2025-07-12T00:00	26100	23	-47.3		73	10	
2025-07-12T00:00	26150	23	-47.4		73	11	
2025-07-12T00:00	26200	23	-47.4		73	12	
2025-07-12T00:00	26250	22	-47.5		74	13	
2025-07-12T00:00	26300	22	-47.4		73	13	
2025-07-12T00:00	26350	22	-47.1		73	14	
2025-07-12T00:00	26400	22	-46.9		72	15	
2025-07-12T00:00	26450	22	-47.0		71	16	
2025-07-12T00:00	26500	22	-46.7		70	18	
2025-07-12T00:00	26550	21	-46.2		69	19	
2025-07-12T00:00	26600	21	-45.8		69	20	
2025-07-12T00:00	26650	21	-45.8		71	20	
2025-07-12T00:00	26700	21	-45.9		73	20	
2025-07-12T00:00	26750	21	-46.0		77	20	
2025-07-12T00:00	26800	21	-46.1		82	20	
2025-07-12T00:00	26850	20	-46.3		87	20	
2025-07-12T00:00	26900	20	-46.6		93	19	
2025-07-12T00:00	26950	20	-46.8		98	19	
2025-07-12T00:00	27000	20	-46.8		100	18	
2025-07-12T00:00	27050	20	-46.5		97	17	
2025-07-12T00:00	27100	20	-46.1		94	17	
2025-07-12T00:00	27150	20	-45.9		92	17	
2025-07-12T00:00	27200	19	-45.6		90	18	
2025-07-12T00:00	27250	19	-45.3		90	18	
2025-07-12T00:00	27300	19	-45.3		91	18	
2025-07-12T00:00	27350	19	-45.3		93	18	
2025-07-12T00:00	27400	19	-45.2		95	17	
2025-07-12T00:00	27450	19	-45.0		96	17	
2025-07-12T00:00	27500	19	-44.8		98	18	
2025-07-12T00:00	27550	18	-44.8		101	18	
2025-07-12T00:00	27600	18	-44.8		104	17	
2025-07-12T00:00	27650	18	-44.9		105	16	
2025-07-12T00:00	27700	18	-44.8		104	15	
2025-07-12T00:00	27750	18	-44.7		102	14	
2025-07-12T00:00	27800	18	-44.6		101	13	
2025-07-12T00:00	27850	18	-44.3		105	13	
2025-07-12T00:00	27900	17	-44.0		111	14	
2025-07-12T00:00	27950	17	-44.1		115	14	
2025-07-12T00:00	28000	17	-44.2		116	14	
2025-07-12T00:00	28050	17	-44.0		113	14	
2025-07-12T00:00	28100	17	-43.8		108	14	
2025-07-12T00:00	28150	17	-43.6		104	14	
2025-07-12T00:00	28200	17	-43.5		102	14	
2025-07-12T00:00	28250	17	-43.4		101	14	
2025-07-12T00:00	28300	16	-43.5		101	15	
2025-07-12T00:00	28350	16	-43.6		102	15	
2025-07-12T00:00	28400	16	-43.7		104	15	
2025-07-12T00:00	28450	16	-43.9		105	15	
2025-07-12T00:00	28500	16	-44.0		107	15	
2025-07-12T00:00	28550	16	-44.0		108	15	
2025-07-12T00:00	28600	16	-44.2		109	16	
2025-07-12T00:00	28650	16	-44.4		108	16	
2025-07-12T00:00	28700	15	-44.6		106	16	
2025-07-12T00:00	28750	15	-44.6		103	15	
2025-07-12T00:00	28800	15	-44.7		101	16	
2025-07-12T00:00	28850	15	-44.6		99	17	
2025-07-12T00:00	28900	15	-44.7		98	17	
2025-07-12T00:00	28950	15	-44.9		98	17	
2025-07-12T00:00	29000	15	-45.0		99	17	
2025-07-12T00:00	29050	15	-45.0		101	17	
2025-07-12T00:00	29100	15	-44.9		103	16	
2025-07-12T00:00	29150	14	-44.8		105	16	
2025-07-12T00:00	29200	14	-44.9		107	15	
2025-07-12T00:00	29250	14	-44.8		108	14	
2025-07-12T00:00	29300	14	-44.8		109	13	
2025-07-12T00:00	29350	14	-44.3		108	12	
2025-07-12T00:00	29400	14	-44.0		105	11	
2025-07-12T00:00	29450	14	-44.0		100	11	
2025-07-12T00:00	29500	14	-43.7		95	12	
2025-07-12T00:00	29550	14	-43.5		92	13	
2025-07-12T00:00	29600	14	-43.3		93	14	
2025-07-12T00:00	29650	13	-43.3		95	14	
2025-07-12T00:00	29700	13	-43.2		99	14	
2025-07-12T00:00	29750	13	-43.0		103	13	
2025-07-12T00:00	29800	13	-42.8		104	12	
2025-07-12T00:00	29850	13	-42.9		101	11	
2025-07-12T00:00	29900	13	-42.9		97	12	
2025-07-12T00:00	29950	13	-42.7		93	13	
2025-07-12T00:00	30000	13	-42.7		92	14	
2025-07-12T00:00	30050	13	-42.5		92	15	
2025-07-12T00:00	30100	13	-42.4		91	16	
2025-07-12T00:00	30150	12	-42.3		89	16	
2025-07-12T00:00	30200	12	-41.9		86	17	
2025-07-12T00:00	30250	12	-41.7		83	17	
2025-07-12T00:00	30300	12	-41.5		80	18	
2025-07-12T00:00	30350	12	-41.3		80	18	
2025-07-12T00:00	30400	12	-41.0		80	19	
2025-07-12T00:00	30450	12	-41.0		82	19	
2025-07-12T00:00	30500	12	-40.9		83	19	
2025-07-12T00:00	30550	12	-40.8		85	19	
2025-07-12T00:00	30600	12	-40.7		87	19	
2025-07-12T00:00	30650	12	-40.8		88	19	
2025-07-12T00:00	30700	12	-40.8		87	19	
2025-07-12T00:00	30750	11	-40.8		85	20	
2025-07-12T00:00	30800	11	-40.8		84	20	
2025-07-12T00:00	30850	11	-40.7		84	21	
2025-07-12T00:00	30900	11	-40.9		85	21	
2025-07-12T00:00	30950	11	-40.8		87	21	
2025-07-12T00:00	31000	11	-40.4		87	21	
2025-07-12T00:00	31050	11	-40.2		86	21	
2025-07-12T00:00	31100	11	-40.1		84	21	
2025-07-12T00:00	31150	11	-40.0		84	21	
2025-07-12T00:00	31200	11	-39.8		85	21	
2025-07-12T00:00	31250	11	-39.7		88	20	
2025-07-12T00:00	31300	11	-39.9		93	20	
2025-07-12T00:00	31350	10	-40.2		96	20	
2025-07-12T00:00	31400	10	-40.0		98	19	
2025-07-12T00:00	31450	10	-39.4		98	18	
2025-07-12T00:00	31500	10	-39.0		99	17	
2025-07-12T00:00	31550	10	-38.9		100	18	
2025-07-12T00:00	31600	10	-38.7		101	19	
2025-07-12T00:00	31650	10	-38.6		101	21	
2025-07-12T00:00	31700	10	-38.4		100	22	
2025-07-12T00:00	31750	10	-38.4		101	22	
2025-07-12T00:00	31800	10	-38.1		102	22	
2025-07-12T00:00	31850	10	-37.9		104	21	
2025-07-12T00:00	31900	10	-37.8		105	18	
2025-07-12T00:00	31950	10	-37.7		104	16	
2025-07-12T00:00	32000	10	-37.7		101	15	
2025-07-12T00:00	32050	9	-37.4		96	13	
2025-07-12T00:00	32100	9	-37.4		91	13	
2025-07-12T00:00	32150	9	-37.4		88	13	
2025-07-12T00:00	32200	9	-37.2		89	14	
2025-07-12T00:00	32250	9	-37.2		90	16	
2025-07-12T00:00	32300	9	-37.2		91	18	
2025-07-12T00:00	32350	9	-37.1		91	18	
2025-07-12T00:00	32400	9	-37.0		91	18	
2025-07-12T00:00	32450	9	-36.7		91	18	
2025-07-12T00:00	32500	9	-36.4		91	17	
2025-07-12T00:00	32550	9	-36.1		91	17	
2025-07-12T00:00	32600	9	-36.1		92	18	
2025-07-12T00:00	32650	9	-35.9		92	18	
2025-07-12T00:00	32700	9	-35.7		91	19	
2025-07-12T00:00	32750	9	-35.6		91	20	
2025-07-12T00:00	32800	8	-35.6		90	20	
2025-07-12T00:00	32850	8	-35.6		88	20	
2025-07-12T00:00	32900	8	-35.7		85	19	
2025-07-12T00:00	32950	8	-35.6		81	19	
2025-07-12T00:00	33000	8	-35.4		78	18	
2025-07-12T00:00	33050	8	-35.4		79	18	
2025-07-12T00:00	33100	8	-35.4		82	17	
2025-07-12T00:00	33150	8	-35.4		84	17	
2025-07-12T00:00	33200	8	-35.3		85	17	
2025-07-12T00:00	33250	8	-35.2		84	18	
2025-07-12T00:00	33300	8	-35.1		83	18	
2025-07-12T00:00	33350	8	-35.1		83	18	
2025-07-12T00:00	33400	8	-35.1		83	18	
2025-07-12T00:00	33450	8	-35.1		83	18	
2025-07-12T00:00	33500	8	-35.0		81	19	
2025-07-12T00:00	33550	8	-34.9		79	19	
2025-07-12T00:00	33600	8	-34.9		78	20	
2025-07-12T00:00	33650	8	-34.7		77	21	
2025-07-12T00:00	33700	7	-34.6		77	23	
2025-07-12T00:00	33750	7	-34.5		78	24	
2025-07-12T00:00	33800	7	-34.6		79	25	
2025-07-12T00:00	33850	7	-34.3		81	26	
2025-07-12T00:00	33900	7	-34.1		83	25	
2025-07-12T00:00	33950	7	-34.0		86	24	
2025-07-12T00:00	34000	7	-34.2		89	23	
2025-07-12T00:00	34050	7	-34.4		90	23	
2025-07-12T00:00	34100	7	-34.5		90	22	
2025-07-12T00:00	34150	7	-34.1		90	21	
2025-07-12T00:00	34200	7	-34.0		90	20	
2025-07-12T00:00	34250	7	-33.9		92	19	
2025-07-12T00:00	34300	7	-34.0		94	18	
2025-07-12T00:00	34350	7	-33.9		94	17	
2025-07-12T00:00	34400	7	-33.7		90	16	
2025-07-12T00:00	34450	7	-33.4		86	17	
2025-07-12T00:00	34500	7	-33.1		83	18	
2025-07-12T00:00	34550	7	-32.5		82	19	
2025-07-12T00:00	34600	7	-32.1		84	21	
2025-07-12T00:00	34650	7	-31.8		87	22	
2025-07-12T00:00	34700	6	-31.5		88	23	
2025-07-12T00:00	34750	6	-31.5		88	23	
2025-07-12T00:00	34800	6	-31.2		86	24	
2025-07-12T00:00	34850	6	-30.8		84	24	
2025-07-12T00:00	34900	6	-30.7		82	24	
2025-07-12T00:00	34950	6	-30.1		82	25	
2025-07-12T00:00	35000	6	-29.7		84	25	
2025-07-12T00:00	35050	6	-29.7		86	26	
2025-07-12T00:00	35100	6	-29.4		87	26	
2025-07-12T00:00	35150	6	-29.1		85	26	
2025-07-12T00:00	35200	6	-28.7		82	25	
2025-07-12T00:00	35250	6	-28.4		80	24	
2025-07-12T00:00	35300	6	-27.9		79	25	
2025-07-12T00:00	35350	6	-27.4		81	26	
2025-07-12T00:00	35400	6	-27.3		82	27	
2025-07-12T00:00	35450	6	-27.2		84	29	
2025-07-12T00:00	35500	6	-27.2		86	29	
2025-07-12T00:00	35550	6	-27.2		88	30	
2025-07-12T00:00	35600	6	-27.3		90	31	
2025-07-12T00:00	35650	6	-27.4		93	31	
2025-07-12T00:00	35700	6	-27.5		95	31	
2025-07-12T00:00	35750	6	-27.5		98	30	
2025-07-12T00:00	35800	6	-27.4		100	28	
2025-07-12T00:00	35850	5	-27.3		101	27	
2025-07-12T00:00	35900	5	-26.9		101	27	
2025-07-12T00:00	35950	5	-26.5		102	27	
2025-07-12T00:00	36000	5	-26.3		102	28	
2025-07-12T00:00	36050	5	-26.4		102	29	
2025-07-12T00:00	36100	5	-26.5		103	29	
2025-07-12T12:00	491	956	27.1	10.3	355	3	
2025-07-12T12:00	501	955	26.2	10.4	8	1	
2025-07-12T12:00	520	953	24.9	10.2	7	1	
2025-07-12T12:00	540	951	24.4	9.8	358	1	
2025-07-12T12:00	560	948	24.1	9.7	352	1	
2025-07-12T12:00	580	946	24.0	9.6	350	1	
2025-07-12T12:00	600	944	23.8	9.5	350	1	
2025-07-12T12:00	620	942	23.5	9.5	354	2	
2025-07-12T12:00	640	940	23.2	9.4	0	2	
2025-07-12T12:00	660	938	23.0	9.3	6	2	
2025-07-12T12:00	680	936	22.8	9.3	10	2	
2025-07-12T12:00	700	933	22.6	9.3	13	2	
2025-07-12T12:00	720	931	22.4	9.2	15	1	
2025-07-12T12:00	740	929	22.3	9.2	19	1	
2025-07-12T12:00	760	927	22.1	9.3	31	0	
2025-07-12T12:00	780	925	21.9	9.2	80	0	
2025-07-12T12:00	800	923	21.8	9.3	131	1	
2025-07-12T12:00	820	921	21.7	9.3	139	1	
2025-07-12T12:00	840	918	21.5	9.2	139	1	
2025-07-12T12:00	860	916	21.3	9.2	139	1	
2025-07-12T12:00	880	914	21.1	9.2	141	2	
2025-07-12T12:00	900	912	20.9	9.2	144	2	
2025-07-12T12:00	920	910	20.8	9.3	148	2	
2025-07-12T12:00	940	908	20.6	9.2	157	1	
2025-07-12T12:00	960	906	20.3	9.2	168	1	
2025-07-12T12:00	980	904	20.0	8.9	184	1	
2025-07-12T12:00	1000	902	19.9	9.0	199	1	
2025-07-12T12:00	1020	899	19.6	8.9	205	1	
2025-07-12T12:00	1040	898	19.4	8.9	207	1	
2025-07-12T12:00	1060	895	19.4	9.0	202	1	
2025-07-12T12:00	1080	893	19.1	8.9	186	1	
2025-07-12T12:00	1100	891	18.8	8.8	156	0	
2025-07-12T12:00	1120	889	18.7	8.8	124	0	
2025-07-12T12:00	1140	887	18.5	8.8	106	1	
2025-07-12T12:00	1160	885	18.4	8.7	101	1	
2025-07-12T12:00	1180	883	18.2	8.8	104	1	
2025-07-12T12:00	1200	881	18.0	8.8	110	1	
2025-07-12T12:00	1220	879	17.8	8.8	118	1	
2025-07-12T12:00	1240	877	17.6	8.7	128	1	
2025-07-12T12:00	1260	875	17.4	8.6	138	1	
2025-07-12T12:00	1280	873	17.1	8.6	147	1	
2025-07-12T12:00	1300	870	16.8	8.5	150	1	
2025-07-12T12:00	1320	869	16.7	8.5	147	1	
2025-07-12T12:00	1340	867	16.5	8.4	140	1	
2025-07-12T12:00	1360	865	16.3	8.5	125	1	
2025-07-12T12:00	1380	862	16.1	8.4	107	1	
2025-07-12T12:00	1400	860	15.9	8.4	94	1	
2025-07-12T12:00	1420	859	15.7	8.4	86	1	
2025-07-12T12:00	1440	857	15.5	8.5	80	1	
2025-07-12T12:00	1460	854	15.3	8.3	74	1	
2025-07-12T12:00	1480	853	15.1	8.3	70	1	
2025-07-12T12:00	1500	850	14.9	8.1	65	1	
2025-07-12T12:00	1520	849	14.7	8.2	62	1	
2025-07-12T12:00	1540	847	14.5	8.2	49	0	
2025-07-12T12:00	1560	844	14.3	7.9	275	0	
2025-07-12T12:00	1580	842	14.4	5.8	261	1	
2025-07-12T12:00	1600	840	14.3	5.7	261	1	
2025-07-12T12:00	1620	839	14.0	6.1	263	1	
2025-07-12T12:00	1640	837	13.9	6.0	267	2	
2025-07-12T12:00	1660	834	13.8	4.4	272	2	
2025-07-12T12:00	1680	833	13.8	4.2	276	2	
2025-07-12T12:00	1700	831	13.6	5.3	278	2	
2025-07-12T12:00	1720	828	13.3	5.2	279	2	
2025-07-12T12:00	1740	826	13.1	5.2	279	2	
2025-07-12T12:00	1760	824	13.0	4.5	279	2	
2025-07-12T12:00	1780	823	13.0	2.7	278	2	
2025-07-12T12:00	1800	821	12.9	1.8	277	2	
2025-07-12T12:00	1820	819	12.7	1.6	277	2	
2025-07-12T12:00	1840	817	12.6	1.7	276	3	
2025-07-12T12:00	1860	815	12.4	1.2	275	3	
2025-07-12T12:00	1880	813	12.3	0.7	274	3	
2025-07-12T12:00	1900	811	12.2	0.2	272	3	
2025-07-12T12:00	1920	809	12.1	0.1	270	4	
2025-07-12T12:00	1940	807	11.9	0.1	269	4	
2025-07-12T12:00	1960	805	11.7	0.0	268	3	
2025-07-12T12:00	1980	803	11.5	0.0	270	3	
2025-07-12T12:00	2000	801	11.3	0.0	273	3	
2025-07-12T12:00	2020	800	11.1	0.0	276	3	
2025-07-12T12:00	2040	798	10.9	0.1	276	3	
2025-07-12T12:00	2060	796	10.7	0.0	274	4	
2025-07-12T12:00	2080	794	10.6	-0.1	271	4	
2025-07-12T12:00	2100	792	10.4	-0.1	267	4	
2025-07-12T12:00	2120	790	10.2	0.2	264	4	
2025-07-12T12:00	2140	788	10.0	0.7	263	4	
2025-07-12T12:00	2160	786	9.9	1.1	263	5	
2025-07-12T12:00	2180	784	9.6	2.1	263	5	
2025-07-12T12:00	2200	782	9.5	2.1	264	6	
2025-07-12T12:00	2220	780	9.3	1.9	265	6	
2025-07-12T12:00	2240	779	9.2	1.6	266	6	
2025-07-12T12:00	2260	777	9.1	0.2	266	6	
2025-07-12T12:00	2280	775	9.2	-1.3	266	6	
2025-07-12T12:00	2300	773	9.1	-1.7	264	6	
2025-07-12T12:00	2320	771	9.0	-2.4	259	7	
2025-07-12T12:00	2340	769	8.9	-2.5	254	7	
2025-07-12T12:00	2360	767	8.7	-2.6	250	7	
2025-07-12T12:00	2380	765	8.6	-2.7	248	8	
2025-07-12T12:00	2400	764	8.4	-2.7	247	8	
2025-07-12T12:00	2420	762	8.3	-2.8	247	9	
2025-07-12T12:00	2440	760	8.2	-2.8	248	9	
2025-07-12T12:00	2460	758	8.0	-3.0	248	8	
2025-07-12T12:00	2480	756	7.9	-2.9	247	8	
2025-07-12T12:00	2500	754	7.7	-3.1	244	7	
2025-07-12T12:00	2520	753	7.5	-3.2	242	7	
2025-07-12T12:00	2540	751	7.4	-3.1	240	7	
2025-07-12T12:00	2560	749	7.2	-2.7	236	7	
2025-07-12T12:00	2580	747	7.0	-2.6	234	7	
2025-07-12T12:00	2600	745	6.8	-2.7	233	7	
2025-07-12T12:00	2620	744	6.6	-2.6	233	8	
2025-07-12T12:00	2640	742	6.4	-2.6	233	8	
2025-07-12T12:00	2660	740	6.3	-2.7	234	8	
2025-07-12T12:00	2680	738	6.1	-2.4	235	8	
2025-07-12T12:00	2700	736	5.9	-2.3	236	8	
2025-07-12T12:00	2720	735	5.7	-2.5	237	7	
2025-07-12T12:00	2740	733	5.5	-2.6	239	7	
2025-07-12T12:00	2760	731	5.4	-3.0	241	7	
2025-07-12T12:00	2780	729	5.2	-3.5	244	7	
2025-07-12T12:00	2800	727	5.1	-3.6	247	7	
2025-07-12T12:00	2820	726	5.0	-4.7	249	7	
2025-07-12T12:00	2840	724	5.1	-5.7	251	7	
2025-07-12T12:00	2860	722	4.9	-5.2	253	8	
2025-07-12T12:00	2880	720	4.8	-4.9	254	8	
2025-07-12T12:00	2900	719	4.7	-4.7	256	8	
2025-07-12T12:00	2920	717	4.6	-4.2	258	8	
2025-07-12T12:00	2940	715	4.4	-4.2	259	8	
2025-07-12T12:00	2960	713	4.3	-4.2	261	8	
2025-07-12T12:00	2980	711	4.1	-4.2	262	8	
2025-07-12T12:00	3000	710	3.9	-4.2	263	7	
2025-07-12T12:00	3020	708	3.8	-4.1	263	7	
2025-07-12T12:00	3040	706	3.6	-4.2	262	7	
2025-07-12T12:00	3060	704	3.4	-4.2	261	7	
2025-07-12T12:00	3080	703	3.2	-4.3	260	8	
2025-07-12T12:00	3100	701	3.1	-4.2	260	8	
2025-07-12T12:00	3120	699	2.9	-4.2	259	8	
2025-07-12T12:00	3140	698	2.7	-4.5	259	8	
2025-07-12T12:00	3160	696	2.6	-4.9	259	8	
2025-07-12T12:00	3180	694	2.5	-5.4	260	8	
2025-07-12T12:00	3200	692	2.5	-6.3	259	7	
2025-07-12T12:00	3220	691	2.4	-6.4	259	7	
2025-07-12T12:00	3240	689	2.4	-7.2	258	7	
2025-07-12T12:00	3260	688	2.3	-7.6	257	7	
2025-07-12T12:00	3280	686	2.2	-7.9	256	7	
2025-07-12T12:00	3300	684	2.1	-8.1	256	7	
2025-07-12T12:00	3320	682	1.9	-8.5	259	7	
2025-07-12T12:00	3340	681	1.8	-8.9	263	6	
2025-07-12T12:00	3360	679	1.6	-9.3	268	6	
2025-07-12T12:00	3380	677	1.5	-9.4	274	6	
2025-07-12T12:00	3400	675	1.4	-9.2	281	6	
2025-07-12T12:00	3420	674	1.3	-9.2	288	6	
2025-07-12T12:00	3440	672	1.1	-9.1	292	6	
2025-07-12T12:00	3460	671	1.1	-8.9	294	6	
2025-07-12T12:00	3480	669	0.9	-8.8	296	6	
2025-07-12T12:00	3500	667	0.8	-8.3	296	6	
2025-07-12T12:00	3520	665	0.6	-8.4	297	6	
2025-07-12T12:00	3540	664	0.4	-8.5	297	6	
2025-07-12T12:00	3560	662	0.3	-8.6	298	6	
2025-07-12T12:00	3580	660	0.2	-9.0	299	6	
2025-07-12T12:00	3600	659	0.1	-9.1	300	7	
2025-07-12T12:00	3620	657	-0.1	-9.5	301	7	
2025-07-12T12:00	3640	656	-0.1	-10.7	302	7	
2025-07-12T12:00	3660	654	-0.2	-11.6	302	7	
2025-07-12T12:00	3680	652	-0.4	-11.7	301	7	
2025-07-12T12:00	3700	651	-0.5	-10.7	299	7	
2025-07-12T12:00	3720	649	-0.6	-10.0	297	7	
2025-07-12T12:00	3740	648	-0.8	-9.9	295	7	
2025-07-12T12:00	3760	646	-0.9	-9.9	293	7	
2025-07-12T12:00	3780	644	-1.2	-10.0	293	7	
2025-07-12T12:00	3800	643	-1.3	-11.9	293	7	
2025-07-12T12:00	3820	641	-1.3	-15.2	295	6	
2025-07-12T12:00	3840	639	-1.3	-21.5	297	6	
2025-07-12T12:00	3860	638	-1.4	-24.4	299	6	
2025-07-12T12:00	3880	636	-1.5	-28.0	300	6	
2025-07-12T12:00	3900	635	-1.6	-29.1	302	7	
2025-07-12T12:00	3920	633	-1.7	-29.2	303	7	
2025-07-12T12:00	3940	631	-1.9	-28.8	304	7	
2025-07-12T12:00	3960	630	-2.0	-28.7	304	7	
2025-07-12T12:00	3980	628	-2.2	-28.8	305	8	
2025-07-12T12:00	4000	627	-2.3	-28.8	305	8	
2025-07-12T12:00	4020	625	-2.4	-28.6	304	8	
2025-07-12T12:00	4040	623	-2.6	-28.7	302	7	
2025-07-12T12:00	4060	622	-2.8	-28.7	300	7	
2025-07-12T12:00	4080	620	-3.0	-28.9	298	7	
2025-07-12T12:00	4100	619	-3.0	-28.9	295	7	
2025-07-12T12:00	4120	617	-3.2	-29.0	294	7	
2025-07-12T12:00	4140	616	-3.3	-29.3	292	7	
2025-07-12T12:00	4160	614	-3.5	-29.9	291	7	
2025-07-12T12:00	4180	612	-3.6	-30.9	291	7	
2025-07-12T12:00	4200	611	-3.7	-31.1	291	6	
2025-07-12T12:00	4220	609	-3.9	-31.2	291	6	
2025-07-12T12:00	4240	608	-4.0	-31.8	292	6	
2025-07-12T12:00	4260	606	-4.1	-32.8	295	5	
2025-07-12T12:00	4280	605	-4.2	-33.3	299	5	
2025-07-12T12:00	4300	603	-4.2	-34.0	305	5	
2025-07-12T12:00	4320	602	-4.3	-35.5	311	5	
2025-07-12T12:00	4340	600	-4.4	-35.8	315	5	
2025-07-12T12:00	4360	599	-4.5	-35.2	317	5	
2025-07-12T12:00	4380	597	-4.6	-35.7	319	5	
2025-07-12T12:00	4400	596	-4.8	-36.5	319	5	
2025-07-12T12:00	4420	594	-4.9	-36.8	318	6	
2025-07-12T12:00	4440	593	-5.1	-36.7	317	6	
2025-07-12T12:00	4460	591	-5.3	-36.9	315	6	
2025-07-12T12:00	4480	590	-5.4	-37.1	313	6	
2025-07-12T12:00	4500	588	-5.6	-37.6	310	6	
2025-07-12T12:00	4520	587	-5.7	-38.0	308	6	
2025-07-12T12:00	4540	585	-5.9	-38.1	305	6	
2025-07-12T12:00	4560	584	-6.0	-38.2	303	6	
2025-07-12T12:00	4580	582	-6.2	-38.4	301	6	
2025-07-12T12:00	4600	581	-6.3	-37.8	299	6	
2025-07-12T12:00	4620	579	-6.5	-36.8	299	6	
2025-07-12T12:00	4640	578	-6.6	-36.2	299	5	
2025-07-12T12:00	4660	576	-6.8	-35.6	301	5	
2025-07-12T12:00	4680	575	-6.9	-35.7	303	5	
2025-07-12T12:00	4700	573	-7.1	-35.0	307	4	
2025-07-12T12:00	4720	572	-7.2	-35.7	311	4	
2025-07-12T12:00	4740	570	-7.3	-36.5	315	4	
2025-07-12T12:00	4760	569	-7.5	-38.9	317	4	
2025-07-12T12:00	4780	568	-7.6	-39.0	319	4	
2025-07-12T12:00	4800	566	-7.8	-37.8	318	4	
2025-07-12T12:00	4820	565	-8.0	-36.3	316	4	
2025-07-12T12:00	4840	563	-8.1	-35.4	311	4	
2025-07-12T12:00	4860	562	-8.3	-35.5	306	4	
2025-07-12T12:00	4880	560	-8.4	-36.0	301	4	
2025-07-12T12:00	4900	559	-8.5	-36.2	297	5	
2025-07-12T12:00	4920	557	-8.7	-36.2	296	5	
2025-07-12T12:00	4940	556	-8.8	-36.5	298	6	
2025-07-12T12:00	4960	554	-8.8	-39.0	300	6	
2025-07-12T12:00	4980	553	-8.8	-41.3	301	7	
2025-07-12T12:00	5000	552	-8.8	-41.9	302	7	
2025-07-12T12:00	5020	550	-8.9	-42.3	302	8	
2025-07-12T12:00	5040	549	-9.0	-42.8	302	8	
2025-07-12T12:00	5060	547	-9.1	-43.0	302	8	
2025-07-12T12:00	5080	546	-9.2	-43.2	303	9	
2025-07-12T12:00	5100	544	-9.2	-43.1	303	9	
2025-07-12T12:00	5120	543	-9.3	-43.1	304	9	
2025-07-12T12:00	5140	542	-9.4	-42.8	304	9	
2025-07-12T12:00	5160	540	-9.5	-42.3	305	9	
2025-07-12T12:00	5180	539	-9.5	-41.6	304	9	
2025-07-12T12:00	5200	537	-9.6	-40.5	303	9	
2025-07-12T12:00	5220	536	-9.8	-40.3	302	9	
2025-07-12T12:00	5240	535	-10.0	-40.0	301	9	
2025-07-12T12:00	5260	533	-10.2	-39.2	300	8	
2025-07-12T12:00	5280	532	-10.3	-37.0	299	8	
2025-07-12T12:00	5300	530	-10.4	-34.7	299	8	
2025-07-12T12:00	5320	529	-10.5	-34.9	297	8	
2025-07-12T12:00	5340	528	-10.7	-36.2	296	8	
2025-07-12T12:00	5360	526	-10.8	-36.5	294	8	
2025-07-12T12:00	5380	525	-11.0	-36.4	293	8	
2025-07-12T12:00	5400	524	-11.1	-37.5	292	8	
2025-07-12T12:00	5420	522	-11.2	-37.9	292	9	
2025-07-12T12:00	5440	521	-11.4	-36.6	293	9	
2025-07-12T12:00	5460	520	-11.5	-35.6	293	9	
2025-07-12T12:00	5480	518	-11.6	-35.5	295	9	
2025-07-12T12:00	5500	517	-11.8	-35.5	296	9	
2025-07-12T12:00	5520	515	-11.9	-35.6	298	9	
2025-07-12T12:00	5540	514	-12.0	-36.1	299	9	
2025-07-12T12:00	5560	513	-12.1	-36.7	300	9	
2025-07-12T12:00	5580	511	-12.3	-36.9	300	9	
2025-07-12T12:00	5600	510	-12.4	-38.1	300	9	
2025-07-12T12:00	5620	509	-12.5	-36.5	299	9	
2025-07-12T12:00	5640	507	-12.7	-36.4	298	10	
2025-07-12T12:00	5660	506	-12.8	-36.5	297	10	
2025-07-12T12:00	5680	505	-12.9	-36.8	295	10	
2025-07-12T12:00	5700	504	-13.0	-36.8	293	10	
2025-07-12T12:00	5720	502	-13.1	-37.5	292	10	
2025-07-12T12:00	5740	501	-13.2	-38.4	290	9	
2025-07-12T12:00	5760	499	-13.3	-38.5	289	9	
2025-07-12T12:00	5780	498	-13.5	-38.6	289	9	
2025-07-12T12:00	5800	497	-13.6	-38.0	290	8	
2025-07-12T12:00	5820	496	-13.8	-37.4	291	8	
2025-07-12T12:00	5840	494	-14.0	-37.4	292	8	
2025-07-12T12:00	5860	493	-14.2	-37.6	293	8	
2025-07-12T12:00	5880	492	-14.3	-37.3	294	8	
2025-07-12T12:00	5900	490	-14.5	-37.1	296	8	
2025-07-12T12:00	5920	489	-14.7	-37.1	296	8	
2025-07-12T12:00	5940	488	-14.9	-37.2	297	8	
2025-07-12T12:00	5960	486	-15.0	-37.7	298	8	
2025-07-12T12:00	5980	485	-15.1	-37.4	299	8	
2025-07-12T12:00	6000	484	-15.2	-36.8	300	8	
2025-07-12T12:00	6020	483	-15.3	-36.8	301	8	
2025-07-12T12:00	6040	481	-15.4	-37.0	301	9	
2025-07-12T12:00	6060	480	-15.5	-38.2	300	9	
2025-07-12T12:00	6080	479	-15.7	-41.2	300	9	
2025-07-12T12:00	6100	478	-15.8	-41.9	299	10	
2025-07-12T12:00	6120	476	-15.9	-41.2	299	10	
2025-07-12T12:00	6140	475	-15.9	-40.8	298	10	
2025-07-12T12:00	6160	474	-16.0	-41.3	297	10	
2025-07-12T12:00	6180	473	-16.1	-43.7	296	10	
2025-07-12T12:00	6200	471	-16.1	-43.6	294	10	
2025-07-12T12:00	6220	470	-16.3	-43.4	292	9	
2025-07-12T12:00	6240	469	-16.5	-43.4	291	9	
2025-07-12T12:00	6260	468	-16.6	-44.2	289	9	
2025-07-12T12:00	6280	466	-16.6	-44.9	288	9	
2025-07-12T12:00	6300	465	-16.7	-44.4	287	9	
2025-07-12T12:00	6320	464	-16.8	-44.2	288	9	
2025-07-12T12:00	6340	463	-17.0	-44.1	290	9	
2025-07-12T12:00	6360	461	-17.2	-44.2	292	9	
2025-07-12T12:00	6380	460	-17.3	-44.3	294	9	
2025-07-12T12:00	6400	459	-17.4	-44.0	296	10	
2025-07-12T12:00	6420	458	-17.5	-43.8	297	10	
2025-07-12T12:00	6440	456	-17.5	-45.0	298	10	
2025-07-12T12:00	6460	455	-17.6	-45.1	299	10	
2025-07-12T12:00	6480	454	-17.6	-45.3	298	10	
2025-07-12T12:00	6500	453	-17.7	-45.5	298	10	
2025-07-12T12:00	6520	452	-17.8	-45.9	297	10	
2025-07-12T12:00	6540	450	-17.9	-46.4	297	10	
2025-07-12T12:00	6560	449	-18.0	-46.7	297	10	
2025-07-12T12:00	6580	448	-18.1	-45.1	297	10	
2025-07-12T12:00	6600	447	-18.2	-43.0	298	10	
2025-07-12T12:00	6620	446	-18.3	-42.3	299	10	
2025-07-12T12:00	6640	444	-18.4	-41.9	300	10	
2025-07-12T12:00	6660	443	-18.6	-42.3	300	10	
2025-07-12T12:00	6680	442	-18.8	-42.8	301	10	
2025-07-12T12:00	6700	441	-19.0	-43.4	301	10	
2025-07-12T12:00	6720	440	-19.1	-43.8	302	10	
2025-07-12T12:00	6740	439	-19.3	-43.7	302	10	
2025-07-12T12:00	6760	437	-19.5	-43.5	303	10	
2025-07-12T12:00	6780	436	-19.6	-43.3	304	10	
2025-07-12T12:00	6800	435	-19.8	-42.9	304	10	
2025-07-12T12:00	6820	434	-20.0	-42.1	304	10	
2025-07-12T12:00	6840	433	-20.1	-41.0	304	10	
2025-07-12T12:00	6860	431	-20.3	-40.3	303	10	
2025-07-12T12:00	6880	430	-20.5	-39.6	302	10	
2025-07-12T12:00	6900	429	-20.6	-40.6	300	10	
2025-07-12T12:00	6920	428	-20.6	-43.3	298	11	
2025-07-12T12:00	6940	427	-20.8	-42.9	297	11	
2025-07-12T12:00	6960	426	-21.0	-42.7	297	11	
2025-07-12T12:00	6980	424	-21.1	-42.7	297	11	
2025-07-12T12:00	7000	423	-21.2	-43.0	298	12	
2025-07-12T12:00	7020	422	-21.3	-43.3	298	12	
2025-07-12T12:00	7040	421	-21.3	-42.4	299	12	
2025-07-12T12:00	7060	420	-21.5	-42.3	299	12	
2025-07-12T12:00	7080	419	-21.6	-42.0	299	12	
2025-07-12T12:00	7100	418	-21.8	-42.0	299	11	
2025-07-12T12:00	7120	416	-22.0	-41.7	299	11	
2025-07-12T12:00	7140	415	-22.2	-42.1	298	11	
2025-07-12T12:00	7160	414	-22.3	-42.8	298	11	
2025-07-12T12:00	7180	413	-22.5	-43.9	298	11	
2025-07-12T12:00	7200	412	-22.6	-44.0	298	11	
2025-07-12T12:00	7220	411	-22.8	-44.1	298	11	
2025-07-12T12:00	7240	410	-22.9	-44.2	299	12	
2025-07-12T12:00	7260	409	-23.1	-44.1	300	12	
2025-07-12T12:00	7280	408	-23.3	-44.1	300	12	
2025-07-12T12:00	7300	407	-23.5	-43.7	300	12	
2025-07-12T12:00	7320	405	-23.7	-43.5	299	12	
2025-07-12T12:00	7340	404	-23.9	-42.9	299	12	
2025-07-12T12:00	7360	403	-24.1	-43.1	298	12	
2025-07-12T12:00	7380	402	-24.2	-43.2	296	12	
2025-07-12T12:00	7400	401	-24.4	-43.2	295	12	
2025-07-12T12:00	7420	400	-24.6	-43.4	295	12	
2025-07-12T12:00	7440	399	-24.8	-43.6	294	12	
2025-07-12T12:00	7460	398	-24.9	-43.7	294	12	
2025-07-12T12:00	7480	397	-25.1	-43.6	294	12	
2025-07-12T12:00	7500	395	-25.3	-44.4	295	12	
2025-07-12T12:00	7520	394	-25.4	-45.8	296	11	
2025-07-12T12:00	7540	393	-25.6	-47.1	298	11	
2025-07-12T12:00	7560	392	-25.7	-47.2	299	11	
2025-07-12T12:00	7580	391	-25.9	-46.9	301	12	
2025-07-12T12:00	7600	390	-26.1	-46.6	302	12	
2025-07-12T12:00	7620	389	-26.2	-46.4	303	12	
2025-07-12T12:00	7640	388	-26.4	-46.3	303	12	
2025-07-12T12:00	7660	387	-26.6	-46.4	303	12	
2025-07-12T12:00	7680	386	-26.7	-46.8	302	12	
2025-07-12T12:00	7700	385	-26.8	-47.3	302	12	
2025-07-12T12:00	7720	384	-26.9	-47.6	301	12	
2025-07-12T12:00	7740	383	-27.0	-47.9	300	12	
2025-07-12T12:00	7760	381	-27.1	-48.8	298	13	
2025-07-12T12:00	7780	380	-27.2	-49.3	297	13	
2025-07-12T12:00	7800	379	-27.3	-49.7	295	13	
2025-07-12T12:00	7820	378	-27.5	-50.0	294	13	
2025-07-12T12:00	7840	377	-27.6	-50.7	293	14	
2025-07-12T12:00	7860	376	-27.7	-51.0	293	14	
2025-07-12T12:00	7880	375	-27.8	-50.7	292	14	
2025-07-12T12:00	7900	374	-27.9	-50.5	292	14	
2025-07-12T12:00	7920	373	-28.1	-50.1	292	14	
2025-07-12T12:00	7940	372	-28.3	-49.2	292	14	
2025-07-12T12:00	7960	371	-28.4	-49.2	292	14	
2025-07-12T12:00	7980	370	-28.6	-49.5	292	14	
2025-07-12T12:00	8000	369	-28.8	-49.4	291	13	
2025-07-12T12:00	8020	368	-29.0	-49.3	291	13	
2025-07-12T12:00	8040	367	-29.2	-49.5	290	13	
2025-07-12T12:00	8060	366	-29.3	-49.9	289	13	
2025-07-12T12:00	8080	365	-29.5	-50.4	289	13	
2025-07-12T12:00	8100	364	-29.7	-50.3	288	12	
2025-07-12T12:00	8120	363	-29.9	-50.4	288	12	
2025-07-12T12:00	8140	362	-30.1	-50.3	288	13	
2025-07-12T12:00	8160	361	-30.3	-50.2	289	13	
2025-07-12T12:00	8180	360	-30.4	-50.7	290	13	
2025-07-12T12:00	8200	359	-30.6	-50.8	291	13	
2025-07-12T12:00	8220	358	-30.7	-50.2	292	13	
2025-07-12T12:00	8240	357	-30.9	-49.8	292	13	
2025-07-12T12:00	8260	356	-31.1	-49.6	292	13	
2025-07-12T12:00	8280	355	-31.2	-50.1	292	13	
2025-07-12T12:00	8300	354	-31.4	-50.4	291	12	
2025-07-12T12:00	8320	353	-31.6	-50.7	290	12	
2025-07-12T12:00	8340	352	-31.8	-50.8	290	12	
2025-07-12T12:00	8360	351	-31.9	-50.2	289	12	
2025-07-12T12:00	8380	350	-32.1	-49.7	288	12	
2025-07-12T12:00	8400	349	-32.3	-49.5	288	12	
2025-07-12T12:00	8420	348	-32.4	-49.5	288	12	
2025-07-12T12:00	8440	347	-32.6	-49.6	288	12	
2025-07-12T12:00	8460	346	-32.8	-49.8	289	12	
2025-07-12T12:00	8480	345	-33.0	-49.9	290	12	
2025-07-12T12:00	8500	344	-33.1	-50.2	291	12	
2025-07-12T12:00	8520	343	-33.2	-50.7	292	12	
2025-07-12T12:00	8540	342	-33.3	-51.2	294	12	
2025-07-12T12:00	8560	341	-33.4	-51.3	295	12	
2025-07-12T12:00	8580	340	-33.5	-51.5	296	12	
2025-07-12T12:00	8600	339	-33.7	-51.8	297	11	
2025-07-12T12:00	8620	338	-33.8	-52.1	298	11	
2025-07-12T12:00	8640	337	-33.9	-52.4	298	11	
2025-07-12T12:00	8660	336	-34.1	-52.7	299	11	
2025-07-12T12:00	8680	335	-34.2	-52.9	299	10	
2025-07-12T12:00	8700	334	-34.4	-53.0	300	10	
2025-07-12T12:00	8720	333	-34.6	-53.1	301	10	
2025-07-12T12:00	8740	332	-34.8	-53.1	301	10	
2025-07-12T12:00	8760	331	-34.9	-53.3	300	10	
2025-07-12T12:00	8780	330	-35.0	-53.4	300	10	
2025-07-12T12:00	8800	329	-35.2	-53.4	298	10	
2025-07-12T12:00	8820	328	-35.4	-53.6	297	10	
2025-07-12T12:00	8840	327	-35.5	-54.1	295	10	
2025-07-12T12:00	8860	327	-35.7	-54.4	294	10	
2025-07-12T12:00	8880	326	-35.9	-54.4	292	10	
2025-07-12T12:00	8900	325	-36.0	-54.4	290	10	
2025-07-12T12:00	8920	324	-36.2	-54.6	288	11	
2025-07-12T12:00	8940	323	-36.3	-54.9	288	11	
2025-07-12T12:00	8960	322	-36.5	-55.0	288	11	
2025-07-12T12:00	8980	321	-36.6	-55.1	288	12	
2025-07-12T12:00	9000	320	-36.7	-55.0	288	12	
2025-07-12T12:00	9020	319	-36.9	-55.1	288	12	
2025-07-12T12:00	9040	318	-37.0	-55.6	288	12	
2025-07-12T12:00	9060	317	-37.1	-56.0	287	12	
2025-07-12T12:00	9080	316	-37.3	-56.2	287	12	
2025-07-12T12:00	9100	315	-37.4	-56.3	286	11	
2025-07-12T12:00	9120	315	-37.5	-56.8	285	11	
2025-07-12T12:00	9140	314	-37.6	-57.0	284	10	
2025-07-12T12:00	9160	313	-37.7	-57.4	284	10	
2025-07-12T12:00	9180	312	-37.8	-57.6	283	10	
2025-07-12T12:00	9200	311	-38.0	-57.9	283	10	
2025-07-12T12:00	9220	310	-38.1	-58.2	283	10	
2025-07-12T12:00	9240	309	-38.2	-58.4	284	10	
2025-07-12T12:00	9260	308	-38.2	-58.4	284	10	
2025-07-12T12:00	9280	307	-38.4	-58.4	283	10	
2025-07-12T12:00	9300	306	-38.6	-58.4	283	10	
2025-07-12T12:00	9320	305	-38.7	-58.5	282	10	
2025-07-12T12:00	9340	305	-38.9	-58.5	282	10	
2025-07-12T12:00	9360	304	-39.1	-58.6	281	10	
2025-07-12T12:00	9380	303	-39.2	-58.8	281	10	
2025-07-12T12:00	9400	302	-39.4	-58.8	281	9	
2025-07-12T12:00	9420	301	-39.6	-58.6	282	9	
2025-07-12T12:00	9440	300	-39.8	-58.4	282	9	
2025-07-12T12:00	9460	299	-39.9	-58.7	283	9	
2025-07-12T12:00	9480	298	-40.1	-58.9	283	9	
2025-07-12T12:00	9500	298	-40.3	-58.8	283	9	
2025-07-12T12:00	9520	297	-40.5	-58.6	283	9	
2025-07-12T12:00	9540	296	-40.7	-58.3	282	9	
2025-07-12T12:00	9560	295	-40.9	-58.2	282	10	
2025-07-12T12:00	9580	294	-41.1	-58.5	282	10	
2025-07-12T12:00	9600	293	-41.3	-58.1	282	10	
2025-07-12T12:00	9620	292	-41.4	-57.9	282	10	
2025-07-12T12:00	9640	291	-41.6	-58.1	283	10	
2025-07-12T12:00	9660	291	-41.8	-58.3	284	10	
2025-07-12T12:00	9680	290	-41.9	-58.9	285	10	
2025-07-12T12:00	9700	289	-42.0	-59.3	287	10	
2025-07-12T12:00	9720	288	-42.2	-59.3	290	10	
2025-07-12T12:00	9740	287	-42.3	-59.4	292	10	
2025-07-12T12:00	9760	286	-42.4	-59.4	295	10	
2025-07-12T12:00	9780	286	-42.6	-59.4	296	10	
2025-07-12T12:00	9800	285	-42.8	-59.4	298	10	
2025-07-12T12:00	9820	284	-43.0	-59.5	298	11	
2025-07-12T12:00	9840	283	-43.2	-59.4	298	11	
2025-07-12T12:00	9860	282	-43.4	-59.4	298	11	
2025-07-12T12:00	9880	281	-43.5	-59.5	298	11	
2025-07-12T12:00	9900	280	-43.7	-59.4	298	11	
2025-07-12T12:00	9920	280	-43.9	-59.6	299	11	
2025-07-12T12:00	9940	279	-44.0	-59.7	300	11	
2025-07-12T12:00	9960	278	-44.2	-59.9	301	11	
2025-07-12T12:00	9980	277	-44.3	-59.9	301	11	
2025-07-12T12:00	10000	276	-44.4	-60.0	302	11	
2025-07-12T12:00	10018	276	-44.6	-60.1	302	11	
2025-07-12T12:00	10050	274	-44.9	-59.9	302	11	
2025-07-12T12:00	10100	272	-45.2	-59.2	301	10	
2025-07-12T12:00	10150	270	-45.5	-59.1	301	10	
2025-07-12T12:00	10200	268	-45.8	-59.4	303	11	
2025-07-12T12:00	10250	266	-46.3	-59.6	304	11	
2025-07-12T12:00	10300	264	-46.7	-59.4	304	10	
2025-07-12T12:00	10350	262	-47.1	-59.8	302	10	
2025-07-12T12:00	10400	260	-47.6	-60.1	299	10	
2025-07-12T12:00	10450	258	-48.0	-60.2	295	11	
2025-07-12T12:00	10500	256	-48.5	-60.5	292	12	
2025-07-12T12:00	10550	254	-48.8	-61.3	291	12	
2025-07-12T12:00	10600	253	-48.9	-62.4	292	13	
2025-07-12T12:00	10650	250	-49.4	-62.4	294	14	
2025-07-12T12:00	10700	249	-49.8	-62.6	294	15	
2025-07-12T12:00	10750	247	-50.1	-62.6	293	16	
2025-07-12T12:00	10800	245	-50.4	-62.6	292	16	
2025-07-12T12:00	10850	243	-50.6	-63.1	290	16	
2025-07-12T12:00	10900	241	-50.6	-64.0	288	17	
2025-07-12T12:00	10950	239	-50.8	-65.3	285	17	
2025-07-12T12:00	11000	237	-51.1	-66.1	284	18	
2025-07-12T12:00	11050	236	-51.4	-65.2	283	19	
2025-07-12T12:00	11100	234	-51.8	-62.9	281	20	
2025-07-12T12:00	11150	232	-52.1	-62.4	280	20	
2025-07-12T12:00	11200	230	-52.1	-63.2	282	19	
2025-07-12T12:00	11250	228	-52.4	-64.5	284	19	
2025-07-12T12:00	11300	227	-52.7	-65.8	285	19	
2025-07-12T12:00	11350	225	-53.0	-66.3	284	19	
2025-07-12T12:00	11400	223	-53.3	-65.9	283	19	
2025-07-12T12:00	11450	221	-53.4	-65.8	283	18	
2025-07-12T12:00	11500	220	-53.2	-67.8	283	17	
2025-07-12T12:00	11550	218	-53.0	-70.4	283	17	
2025-07-12T12:00	11600	216	-52.3	-69.9	284	17	
2025-07-12T12:00	11650	215	-52.1	-68.9	283	17	
2025-07-12T12:00	11700	213	-51.9	-69.9	281	17	
2025-07-12T12:00	11750	211	-51.9	-70.4	278	17	
2025-07-12T12:00	11800	210	-52.0	-71.4	274	18	
2025-07-12T12:00	11850	208	-52.0	-71.4	271	18	
2025-07-12T12:00	11900	207	-52.3	-70.9	272	18	
2025-07-12T12:00	11950	205	-52.3	-71.2	274	18	
2025-07-12T12:00	12000	203	-52.1	-71.9	275	18	
2025-07-12T12:00	12050	202	-52.3	-72.0	276	17	
2025-07-12T12:00	12100	200	-52.7	-72.4	275	16	
2025-07-12T12:00	12150	199	-53.0	-73.6	275	15	
2025-07-12T12:00	12200	197	-53.4	-75.4	278	15	
2025-07-12T12:00	12250	196	-53.5	-76.9	283	15	
2025-07-12T12:00	12300	194	-53.5	-77.4	288	14	
2025-07-12T12:00	12350	193	-53.6	-77.9	291	14	
2025-07-12T12:00	12400	191	-53.8	-78.3	292	14	
2025-07-12T12:00	12450	190	-53.5	-77.5	292	14	
2025-07-12T12:00	12500	188	-53.6	-76.4	292	15	
2025-07-12T12:00	12550	187	-54.0	-76.1	293	16	
2025-07-12T12:00	12600	185	-54.2	-75.7	293	18	
2025-07-12T12:00	12650	184	-54.2	-76.1	295	18	
2025-07-12T12:00	12700	182	-54.0	-76.8	297	17	
2025-07-12T12:00	12750	181	-53.7	-77.3	299	15	
2025-07-12T12:00	12800	180	-53.4	-77.8	300	15	
2025-07-12T12:00	12850	178	-52.7	-78.3	300	14	
2025-07-12T12:00	12900	177	-51.7	-78.8	300	14	
2025-07-12T12:00	12950	175	-51.5	-79.2	300	14	
2025-07-12T12:00	13000	174	-50.5	-79.5	299	13	
2025-07-12T12:00	13050	173	-50.1	-79.6	297	12	
2025-07-12T12:00	13100	171	-49.7	-79.8	294	11	
2025-07-12T12:00	13150	170	-49.0	-80.1	292	10	
2025-07-12T12:00	13200	169	-48.7	-80.3	290	9	
2025-07-12T12:00	13250	168	-48.7	-80.2	291	9	
2025-07-12T12:00	13300	166	-48.7	-80.0	292	8	
2025-07-12T12:00	13350	165	-48.8	-80.0	293	8	
2025-07-12T12:00	13400	164	-49.0	-80.1	292	9	
2025-07-12T12:00	13450	163	-49.0	-80.0	291	9	
2025-07-12T12:00	13500	161	-49.4	-80.2	290	10	
2025-07-12T12:00	13550	160	-49.6	-80.3	287	10	
2025-07-12T12:00	13600	159	-49.6	-80.4	282	9	
2025-07-12T12:00	13650	158	-49.3	-80.2	277	10	
2025-07-12T12:00	13700	156	-49.6	-80.3	273	10	
2025-07-12T12:00	13750	155	-49.7	-80.4	269	10	
2025-07-12T12:00	13800	154	-49.9	-80.5	265	11	
2025-07-12T12:00	13850	153	-50.2	-80.7	263	11	
2025-07-12T12:00	13900	152	-50.4	-80.6	263	11	
2025-07-12T12:00	13950	151	-50.6	-80.8	262	10	
2025-07-12T12:00	14000	149	-50.8	-81.1	260	10	
2025-07-12T12:00	14050	148	-50.9	-81.2	258	10	
2025-07-12T12:00	14100	147	-51.1	-81.3	256	9	
2025-07-12T12:00	14150	146	-51.5	-81.4	253	9	
2025-07-12T12:00	14200	145	-51.8	-81.5	250	10	
2025-07-12T12:00	14250	144	-51.9	-81.7	248	11	
2025-07-12T12:00	14300	143	-51.8	-81.6	249	12	
2025-07-12T12:00	14350	142	-52.1	-81.6	251	12	
2025-07-12T12:00	14400	140	-52.6	-81.5	254	12	
2025-07-12T12:00	14450	139	-53.0	-81.6	256	12	
2025-07-12T12:00	14500	138	-53.4	-81.7	258	12	
2025-07-12T12:00	14550	137	-53.6	-81.9	260	12	
2025-07-12T12:00	14600	136	-53.1	-82.2	262	11	
2025-07-12T12:00	14650	135	-52.8	-82.5	265	11	
2025-07-12T12:00	14700	134	-52.7	-82.5	265	10	
2025-07-12T12:00	14750	133	-52.6	-82.4	262	9	
2025-07-12T12:00	14800	132	-52.5	-82.3	256	9	
2025-07-12T12:00	14850	131	-52.5	-82.3	253	9	
2025-07-12T12:00	14900	130	-52.8	-82.3	253	9	
2025-07-12T12:00	14950	129	-52.9	-82.3	256	10	
2025-07-12T12:00	15000	128	-53.2	-82.4	259	10	
2025-07-12T12:00	15050	127	-53.6	-82.5	258	10	
2025-07-12T12:00	15100	126	-53.7	-82.7	256	10	
2025-07-12T12:00	15150	125	-53.7	-82.8	255	10	
2025-07-12T12:00	15200	124	-53.5	-83.0	255	11	
2025-07-12T12:00	15250	123	-53.3	-83.0	256	11	
2025-07-12T12:00	15300	122	-53.3	-82.9	260	11	
2025-07-12T12:00	15350	121	-53.0	-82.7	267	11	
2025-07-12T12:00	15400	120	-52.8	-82.7	271	11	
2025-07-12T12:00	15450	119	-52.8	-82.8	268	11	
2025-07-12T12:00	15500	118	-52.5	-82.5	261	11	
2025-07-12T12:00	15550	118	-52.9	-82.5	256	12	
2025-07-12T12:00	15600	117	-53.2	-82.6	257	12	
2025-07-12T12:00	15650	116	-53.2	-82.7	263	11	
2025-07-12T12:00	15700	115	-53.4	-82.8	270	11	
2025-07-12T12:00	15750	114	-53.7	-82.9	276	10	
2025-07-12T12:00	15800	113	-54.0	-83.0	282	9	
2025-07-12T12:00	15850	112	-53.9	-83.2	283	8	
2025-07-12T12:00	15900	111	-53.9	-83.2	276	7	
2025-07-12T12:00	15950	110	-53.9	-83.2	267	7	
2025-07-12T12:00	16000	110	-54.2	-83.3	258	7	
2025-07-12T12:00	16050	109	-54.6	-83.3	251	8	
2025-07-12T12:00	16100	108	-55.0	-83.5	247	9	
2025-07-12T12:00	16150	107	-55.2	-83.8	245	10	
2025-07-12T12:00	16200	106	-54.8	-83.5	248	11	
2025-07-12T12:00	16250	105	-55.1	-83.7	255	11	
2025-07-12T12:00	16300	105	-54.9	-83.8	260	12	
2025-07-12T12:00	16350	104	-54.5	-83.9	261	12	
2025-07-12T12:00	16400	103	-54.1	-83.9	260	12	
2025-07-12T12:00	16450	102	-54.1	-83.7	263	11	
2025-07-12T12:00	16500	101	-54.3	-83.7	270	10	
2025-07-12T12:00	16550	101	-54.2	-83.8	279	9	
2025-07-12T12:00	16600	100	-53.9	-83.7	286	9	
2025-07-12T12:00	16650	99	-53.6	-83.5	289	9	
2025-07-12T12:00	16700	98	-54.0	-83.5	290	10	
2025-07-12T12:00	16750	97	-54.5	-83.4	288	10	
2025-07-12T12:00	16800	97	-54.9	-83.7	288	10	
2025-07-12T12:00	16850	96	-55.0	-84.0	292	10	
2025-07-12T12:00	16900	95	-54.8	-83.9	298	10	
2025-07-12T12:00	16950	94	-54.9	-83.8	302	10	
2025-07-12T12:00	17000	94	-55.3	-84.0	305	9	
2025-07-12T12:00	17050	93	-55.4	-84.4	308	8	
2025-07-12T12:00	17100	92	-54.6	-84.1	313	8	
2025-07-12T12:00	17150	92	-54.5	-84.2	320	7	
2025-07-12T12:00	17200	91	-54.2	-84.0	333	5	
2025-07-12T12:00	17250	90	-54.4	-83.9	354	4	
2025-07-12T12:00	17300	89	-54.2	-83.8	15	3	
2025-07-12T12:00	17350	89	-53.9	-83.7	14	2	
2025-07-12T12:00	17400	88	-54.2	-83.7	316	1	
2025-07-12T12:00	17450	87	-54.2	-83.7	254	2	
2025-07-12T12:00	17500	87	-54.2	-83.9	240	3	
2025-07-12T12:00	17550	86	-54.2	-83.9	248	3	
2025-07-12T12:00	17600	85	-53.9	-83.8	269	3	
2025-07-12T12:00	17650	85	-53.8	-83.7	296	3	
2025-07-12T12:00	17700	84	-53.7	-83.6	326	2	
2025-07-12T12:00	17750	83	-54.0	-83.7	350	2	
2025-07-12T12:00	17800	83	-54.2	-83.7	10	3	
2025-07-12T12:00	17850	82	-54.2	-83.7	31	4	
2025-07-12T12:00	17900	81	-54.4	-83.8	43	5	
2025-07-12T12:00	17950	81	-54.4	-83.8	48	6	
2025-07-12T12:00	18000	80	-54.4	-83.9	52	6	
2025-07-12T12:00	18050	80	-54.5	-83.9	63	4	
2025-07-12T12:00	18100	79	-54.9	-83.9	85	3	
2025-07-12T12:00	18150	78	-55.2	-83.9	105	3	
2025-07-12T12:00	18200	78	-55.4	-83.9	118	3	
2025-07-12T12:00	18250	77	-55.7	-84.3	129	2	
2025-07-12T12:00	18300	76	-55.9	-84.5	114	1	
2025-07-12T12:00	18350	76	-55.3	-84.4	59	1	
2025-07-12T12:00	18400	75	-55.2	-84.4	54	3	
2025-07-12T12:00	18450	75	-55.2	-84.3	56	4	
2025-07-12T12:00	18500	74	-55.1	-84.2	60	5	
2025-07-12T12:00	18550	74	-55.4	-84.2	67	7	
2025-07-12T12:00	18600	73	-55.6	-84.1	73	8	
2025-07-12T12:00	18650	72	-55.8	-84.2	79	9	
2025-07-12T12:00	18700	72	-55.9	-84.4	83	9	
2025-07-12T12:00	18750	71	-55.9	-84.4	86	9	
2025-07-12T12:00	18800	71	-56.1	-84.5	91	9	
2025-07-12T12:00	18850	70	-56.2	-84.5	97	9	
2025-07-12T12:00	18900	70	-56.6	-84.7	101	9	
2025-07-12T12:00	18950	69	-56.6	-84.6	106	9	
2025-07-12T12:00	19000	69	-56.7	-84.6	111	8	
2025-07-12T12:00	19050	68	-57.0	-85.0	116	7	
2025-07-12T12:00	19100	67	-57.0	-85.2	120	5	
2025-07-12T12:00	19150	67	-56.1	-85.1	116	4	
2025-07-12T12:00	19200	66	-55.5	-85.0	94	4	
2025-07-12T12:00	19250	66	-54.8	-84.8	80	5	
2025-07-12T12:00	19300	65	-54.2	-84.4	82	7	
2025-07-12T12:00	19350	65	-54.2	-84.3	86	9	
2025-07-12T12:00	19400	64	-54.5	-84.1	91	10	
2025-07-12T12:00	19450	64	-54.8	-84.1	95	11	
2025-07-12T12:00	19500	63	-54.9	-84.1	101	12	
2025-07-12T12:00	19550	63	-55.2	-84.3	110	11	
2025-07-12T12:00	19600	62	-55.2	-84.4	119	10	
2025-07-12T12:00	19650	62	-55.0	-84.3	125	10	
2025-07-12T12:00	19700	61	-55.0	-84.3	126	10	
2025-07-12T12:00	19750	61	-55.0	-84.4	123	10	
2025-07-12T12:00	19800	60	-54.9	-84.4	121	10	
2025-07-12T12:00	19850	60	-54.7	-84.4	120	10	
2025-07-12T12:00	19900	60	-54.5	-84.3	121	11	
2025-07-12T12:00	19950	59	-54.4	-84.3	122	11	
2025-07-12T12:00	20000	59	-54.1	-84.3	124	11	
2025-07-12T12:00	20050	58	-53.9		126	10	
2025-07-12T12:00	20100	58	-54.0		125	9	
2025-07-12T12:00	20150	57	-54.3		123	9	
2025-07-12T12:00	20200	57	-54.2		119	9	
2025-07-12T12:00	20250	56	-53.7		119	10	
2025-07-12T12:00	20300	56	-53.3		123	10	
2025-07-12T12:00	20350	55	-53.0		127	10	
2025-07-12T12:00	20400	55	-53.0		128	9	
2025-07-12T12:00	20450	55	-52.7		125	9	
2025-07-12T12:00	20500	54	-52.4		122	9	
2025-07-12T12:00	20550	54	-52.1		124	10	
2025-07-12T12:00	20600	53	-51.7		129	10	
2025-07-12T12:00	20650	53	-51.7		135	9	
2025-07-12T12:00	20700	53	-51.4		139	8	
2025-07-12T12:00	20750	52	-51.3		140	7	
2025-07-12T12:00	20800	52	-51.3		143	7	
2025-07-12T12:00	20850	51	-51.2		145	6	
2025-07-12T12:00	20900	51	-51.0		144	6	
2025-07-12T12:00	20950	51	-51.0		139	6	
2025-07-12T12:00	21000	50	-51.1		134	6	
2025-07-12T12:00	21050	50	-51.2		131	7	
2025-07-12T12:00	21100	49	-51.3		128	8	
2025-07-12T12:00	21150	49	-51.5		126	8	
2025-07-12T12:00	21200	49	-51.7		125	9	
2025-07-12T12:00	21250	48	-51.6		125	10	
2025-07-12T12:00	21300	48	-51.3		125	11	
2025-07-12T12:00	21350	48	-51.1		126	12	
2025-07-12T12:00	21400	47	-50.7		128	11	
2025-07-12T12:00	21450	47	-50.3		130	10	
2025-07-12T12:00	21500	46	-50.1		132	9	
2025-07-12T12:00	21550	46	-50.4		136	9	
2025-07-12T12:00	21600	46	-50.6		139	8	
2025-07-12T12:00	21650	45	-50.7		140	9	
2025-07-12T12:00	21700	45	-50.9		139	9	
2025-07-12T12:00	21750	45	-51.1		135	9	
2025-07-12T12:00	21800	44	-51.2		133	9	
2025-07-12T12:00	21850	44	-51.2		135	8	
2025-07-12T12:00	21900	44	-51.3		140	8	
2025-07-12T12:00	21950	43	-51.3		142	8	
2025-07-12T12:00	22000	43	-51.4		141	8	
2025-07-12T12:00	22050	43	-51.3		139	8	
2025-07-12T12:00	22100	42	-51.3		138	7	
2025-07-12T12:00	22150	42	-51.6		134	7	
2025-07-12T12:00	22200	42	-51.8		128	8	
2025-07-12T12:00	22250	41	-52.1		124	9	
2025-07-12T12:00	22300	41	-52.2		120	9	
2025-07-12T12:00	22350	41	-52.3		117	9	
2025-07-12T12:00	22400	40	-52.5		115	10	
2025-07-12T12:00	22450	40	-52.6		117	10	
2025-07-12T12:00	22500	40	-52.4		123	10	
2025-07-12T12:00	22550	40	-52.7		128	11	
2025-07-12T12:00	22600	39	-52.9		132	11	
2025-07-12T12:00	22650	39	-53.1		135	11	
2025-07-12T12:00	22700	39	-53.2		138	11	
2025-07-12T12:00	22750	38	-53.2		141	11	
2025-07-12T12:00	22800	38	-52.9		146	10	
2025-07-12T12:00	22850	38	-52.7		150	8	
2025-07-12T12:00	22900	37	-52.6		152	6	
2025-07-12T12:00	22950	37	-52.1		142	4	
2025-07-12T12:00	23000	37	-51.8		118	4	
2025-07-12T12:00	23050	37	-51.8		100	4	
2025-07-12T12:00	23100	36	-51.8		95	6	
2025-07-12T12:00	23150	36	-51.6		98	8	
2025-07-12T12:00	23200	36	-51.6		103	9	
2025-07-12T12:00	23250	35	-51.6		109	9	
2025-07-12T12:00	23300	35	-51.6		113	10	
2025-07-12T12:00	23350	35	-51.4		115	10	
2025-07-12T12:00	23400	35	-51.3		116	10	
2025-07-12T12:00	23450	34	-51.3		116	10	
2025-07-12T12:00	23500	34	-51.2		114	10	
2025-07-12T12:00	23550	34	-51.1		112	9	
2025-07-12T12:00	23600	34	-51.2		110	8	
2025-07-12T12:00	23650	33	-51.3		107	9	
2025-07-12T12:00	23700	33	-51.4		105	10	
2025-07-12T12:00	23750	33	-51.6		106	11	
2025-07-12T12:00	23800	33	-51.7		111	11	
2025-07-12T12:00	23850	32	-51.7		116	11	
2025-07-12T12:00	23900	32	-51.6		121	10	
2025-07-12T12:00	23950	32	-51.5		122	9	
2025-07-12T12:00	24000	32	-51.5		118	8	
2025-07-12T12:00	24050	31	-51.6		111	7	
2025-07-12T12:00	24100	31	-51.7		101	7	
2025-07-12T12:00	24150	31	-51.6		93	7	
2025-07-12T12:00	24200	31	-51.4		90	7	
2025-07-12T12:00	24250	30	-51.3		92	8	
2025-07-12T12:00	24300	30	-51.3		98	9	
2025-07-12T12:00	24350	30	-51.3		105	9	
2025-07-12T12:00	24400	30	-51.3		112	10	
2025-07-12T12:00	24450	29	-51.3		120	11	
2025-07-12T12:00	24500	29	-51.2		126	12	
2025-07-12T12:00	24550	29	-51.3		128	11	
2025-07-12T12:00	24600	29	-50.9		123	9	
2025-07-12T12:00	24650	29	-50.4		112	8	
2025-07-12T12:00	24700	28	-49.6		98	8	
2025-07-12T12:00	24750	28	-49.3		86	9	
2025-07-12T12:00	24800	28	-49.1		79	10	
2025-07-12T12:00	24850	28	-48.6		79	11	
2025-07-12T12:00	24900	28	-48.1		82	12	
2025-07-12T12:00	24950	27	-47.8		85	12	
2025-07-12T12:00	25000	27	-47.6		88	12	
2025-07-12T12:00	25050	27	-47.6		92	12	
2025-07-12T12:00	25100	27	-47.8		96	11	
2025-07-12T12:00	25150	26	-47.5		100	10	
2025-07-12T12:00	25200	26	-47.4		105	10	
2025-07-12T12:00	25250	26	-47.5		108	11	
2025-07-12T12:00	25300	26	-47.4		110	11	
2025-07-12T12:00	25350	26	-47.1		108	11	
2025-07-12T12:00	25400	26	-46.6		104	9	
2025-07-12T12:00	25450	25	-46.3		98	9	
2025-07-12T12:00	25500	25	-45.9		94	9	
2025-07-12T12:00	25550	25	-45.7		93	10	
2025-07-12T12:00	25600	25	-45.8		95	11	
2025-07-12T12:00	25650	25	-46.0		96	11	
2025-07-12T12:00	25700	24	-46.0		100	11	
2025-07-12T12:00	25750	24	-45.9		104	11	
2025-07-12T12:00	25800	24	-45.8		107	10	
2025-07-12T12:00	25850	24	-45.6		105	9	
2025-07-12T12:00	25900	24	-45.5		102	9	
2025-07-12T12:00	25950	23	-45.2		98	8	
2025-07-12T12:00	26000	23	-45.2		93	8	
2025-07-12T12:00	26050	23	-45.4		88	9	
2025-07-12T12:00	26100	23	-45.5		86	9	
2025-07-12T12:00	26150	23	-45.7		86	10	
2025-07-12T12:00	26200	23	-46.0		88	10	
2025-07-12T12:00	26250	22	-46.3		92	10	
2025-07-12T12:00	26300	22	-46.6		99	10	
2025-07-12T12:00	26350	22	-46.7		107	10	
2025-07-12T12:00	26400	22	-46.5		111	10	
2025-07-12T12:00	26450	22	-46.4		111	10	
2025-07-12T12:00	26500	22	-46.4		108	10	
2025-07-12T12:00	26550	21	-46.4		105	10	
2025-07-12T12:00	26600	21	-46.6		102	10	
2025-07-12T12:00	26650	21	-46.8		101	12	
2025-07-12T12:00	26700	21	-47.0		100	13	
2025-07-12T12:00	26750	21	-46.9		99	14	
2025-07-12T12:00	26800	21	-46.8		98	15	
2025-07-12T12:00	26850	21	-47.0		97	15	
2025-07-12T12:00	26900	20	-47.1		96	15	
2025-07-12T12:00	26950	20	-47.2		96	14	
2025-07-12T12:00	27000	20	-47.3		97	14	
2025-07-12T12:00	27050	20	-47.3		99	13	
2025-07-12T12:00	27100	20	-47.2		102	13	
2025-07-12T12:00	27150	20	-47.0		105	13	
2025-07-12T12:00	27200	19	-47.0		107	13	
2025-07-12T12:00	27250	19	-46.8		106	14	
2025-07-12T12:00	27300	19	-46.6		104	15	
2025-07-12T12:00	27350	19	-46.5		102	16	
2025-07-12T12:00	27400	19	-46.5		100	17	
2025-07-12T12:00	27450	19	-46.6		99	17	
2025-07-12T12:00	27500	19	-46.5		99	17	
2025-07-12T12:00	27550	18	-46.3		100	17	
2025-07-12T12:00	27600	18	-46.2		102	16	
2025-07-12T12:00	27650	18	-46.1		102	16	
2025-07-12T12:00	27700	18	-46.1		100	16	
2025-07-12T12:00	27750	18	-45.7		99	17	
2025-07-12T12:00	27800	18	-45.4		101	17	
2025-07-12T12:00	27850	18	-45.5		105	17	
2025-07-12T12:00	27900	18	-45.5		110	17	
2025-07-12T12:00	27950	17	-45.7		112	18	
2025-07-12T12:00	28000	17	-45.8		111	18	
2025-07-12T12:00	28050	17	-45.5		108	19	
2025-07-12T12:00	28100	17	-45.0		106	19	
2025-07-12T12:00	28150	17	-44.5		106	19	
2025-07-12T12:00	28200	17	-44.1		107	18	
2025-07-12T12:00	28250	17	-43.8		106	18	
2025-07-12T12:00	28300	16	-43.9		105	18	
2025-07-12T12:00	28350	16	-43.9		103	19	
2025-07-12T12:00	28400	16	-43.8		104	19	
2025-07-12T12:00	28450	16	-43.5		106	19	
2025-07-12T12:00	28500	16	-43.0		109	18	
2025-07-12T12:00	28550	16	-42.9		111	17	
2025-07-12T12:00	28600	16	-42.6		110	17	
2025-07-12T12:00	28650	16	-42.3		111	16	
2025-07-12T12:00	28700	16	-42.1		112	16	
2025-07-12T12:00	28750	15	-41.7		112	17	
2025-07-12T12:00	28800	15	-41.3		110	18	
2025-07-12T12:00	28850	15	-41.3		109	18	
2025-07-12T12:00	28900	15	-41.2		110	18	
2025-07-12T12:00	28950	15	-41.1		112	18	
2025-07-12T12:00	29000	15	-40.8		116	17	
2025-07-12T12:00	29050	15	-40.7		120	16	
2025-07-12T12:00	29100	15	-40.7		123	15	
2025-07-12T12:00	29150	15	-40.7		124	15	
2025-07-12T12:00	29200	14	-40.5		124	14	
2025-07-12T12:00	29250	14	-40.3		122	14	
2025-07-12T12:00	29300	14	-40.1		120	14	
2025-07-12T12:00	29350	14	-39.9		118	13	
2025-07-12T12:00	29400	14	-39.8		115	13	
2025-07-12T12:00	29450	14	-39.7		110	12	
2025-07-12T12:00	29500	14	-39.7		104	12	
2025-07-12T12:00	29550	14	-39.6		97	12	
2025-07-12T12:00	29600	14	-39.6		93	13	
2025-07-12T12:00	29650	14	-39.4		91	14	
2025-07-12T12:00	29700	13	-39.4		91	15	
2025-07-12T12:00	29750	13	-39.6		91	16	
2025-07-12T12:00	29800	13	-39.9		92	16	
2025-07-12T12:00	29850	13	-40.0		91	16	
2025-07-12T12:00	29900	13	-40.1		91	17	
2025-07-12T12:00	29950	13	-40.2		92	17	
2025-07-12T12:00	30000	13	-40.3		93	18	
2025-07-12T12:00	30050	13	-40.4		96	19	
2025-07-12T12:00	30100	13	-40.1		99	18	
2025-07-12T12:00	30150	13	-39.7		102	17	
2025-07-12T12:00	30200	12	-39.6		103	16	
2025-07-12T12:00	30250	12	-39.4		101	15	
2025-07-12T12:00	30300	12	-39.1		99	16	
2025-07-12T12:00	30350	12	-38.8		98	16	
2025-07-12T12:00	30400	12	-38.8		99	16	
2025-07-12T12:00	30450	12	-38.8		99	16	
2025-07-12T12:00	30500	12	-38.6		97	16	
2025-07-12T12:00	30550	12	-38.3		95	17	
2025-07-12T12:00	30600	12	-38.2		94	18	
2025-07-12T12:00	30650	12	-38.1		93	18	
2025-07-12T12:00	30700	12	-38.1		92	18	
2025-07-12T12:00	30750	12	-38.0		92	18	
2025-07-12T12:00	30800	11	-38.1		93	19	
2025-07-12T12:00	30850	11	-38.2		95	20	
2025-07-12T12:00	30900	11	-38.3		98	20	
2025-07-12T12:00	30950	11	-38.5		102	21	
2025-07-12T12:00	31000	11	-38.7		106	22	
2025-07-12T12:00	31050	11	-38.7		108	22	
2025-07-12T12:00	31100	11	-38.6		109	21	
2025-07-12T12:00	31150	11	-38.5		108	20	
2025-07-12T12:00	31200	11	-38.3		106	18	
2025-07-12T12:00	31250	11	-38.1		101	17	
2025-07-12T12:00	31300	11	-37.7		98	17	
2025-07-12T12:00	31350	11	-37.3		98	18	
2025-07-12T12:00	31400	10	-37.1		99	19	
2025-07-12T12:00	31450	10	-36.7		99	20	
2025-07-12T12:00	31500	10	-36.5		97	19	
2025-07-12T12:00	31550	10	-36.1		94	18	
2025-07-12T12:00	31600	10	-35.7		90	17	
2025-07-12T12:00	31650	10	-35.4		87	17	
2025-07-12T12:00	31700	10	-35.0		89	18	
2025-07-12T12:00	31750	10	-34.8		93	19	
2025-07-12T12:00	31800	10	-34.7		98	20	
2025-07-12T12:00	31850	10	-34.7		101	19	
2025-07-12T12:00	31900	10	-34.5		101	19	
2025-07-12T12:00	31950	10	-34.4		100	18	
2025-07-12T12:00	32000	10	-34.5		99	18	
2025-07-12T12:00	32050	10	-34.4		98	18	
2025-07-12T12:00	32100	9	-34.3		99	18	
2025-07-12T12:00	32150	9	-34.4		99	18	
2025-07-12T12:00	32200	9	-34.4		100	17	
2025-07-12T12:00	32250	9	-34.5		100	16	
2025-07-12T12:00	32300	9	-34.5		100	15	
2025-07-12T12:00	32350	9	-34.6		99	15	
2025-07-12T12:00	32400	9	-34.6		98	16	
2025-07-12T12:00	32450	9	-34.5		97	17	
2025-07-12T12:00	32500	9	-34.5		98	18	
2025-07-12T12:00	32550	9	-34.4		99	20	
2025-07-12T12:00	32600	9	-34.6		101	21	
2025-07-12T12:00	32650	9	-34.7		103	21	
2025-07-12T12:00	32700	9	-34.8		105	21	
2025-07-12T12:00	32750	9	-34.9		106	21	
2025-07-12T12:00	32800	9	-35.2		108	20	
2025-07-12T12:00	32850	9	-35.3		110	19	
2025-07-12T12:00	32900	8	-35.1		110	18	
2025-07-12T12:00	32950	8	-35.0		107	17	
2025-07-12T12:00	33000	8	-34.9		103	16	
2025-07-12T12:00	33050	8	-34.7		100	15	
2025-07-12T12:00	33100	8	-34.6		99	15	
2025-07-12T12:00	33150	8	-34.6		100	14	
2025-07-12T12:00	33200	8	-34.6		102	15	
2025-07-12T12:00	33250	8	-34.5		101	16	
2025-07-12T12:00	33300	8	-34.3		99	16	
2025-07-12T12:00	33350	8	-33.8		96	16	
2025-07-12T12:00	33400	8	-33.1		94	15	
2025-07-12T12:00	33450	8	-32.5		92	16	
2025-07-12T12:00	33500	8	-31.9		92	17	
2025-07-12T12:00	33550	8	-31.4		94	18	
2025-07-12T12:00	33600	8	-30.9		96	18	
2025-07-12T12:00	33650	8	-30.4		98	18	
2025-07-12T12:00	33700	8	-30.1		100	17	
2025-07-12T12:00	33750	7	-29.9		101	16	
2025-07-12T12:00	33800	7	-29.6		99	15	
2025-07-12T12:00	33850	7	-29.5		95	14	
2025-07-12T12:00	33900	7	-29.2		92	15	
2025-07-12T12:00	33950	7	-29.0		90	16	
2025-07-12T12:00	34000	7	-28.8		91	17	
2025-07-12T12:00	34050	7	-28.9		93	19	
2025-07-12T12:00	34100	7	-28.9		97	20	
2025-07-12T12:00	34150	7	-29.0		100	20	
2025-07-12T12:00	34200	7	-28.9		102	19	
2025-07-12T12:00	34250	7	-28.7		103	18	
2025-07-12T12:00	34300	7	-28.5		102	18	
2025-07-12T12:00	34350	7	-28.4		101	19	
2025-07-12T12:00	34400	7	-28.4		101	20	
2025-07-12T12:00	34450	7	-28.3		102	21	
2025-07-12T12:00	34500	7	-28.3		105	22	
2025-07-12T12:00	34550	7	-28.4		107	23	
2025-07-12T12:00	34600	7	-28.4		107	23	
2025-07-12T12:00	34650	7	-28.5		108	22	
2025-07-12T12:00	34700	7	-28.5		107	22	
2025-07-12T12:00	34750	7	-28.7		107	21	
2025-07-12T12:00	34800	6	-28.8		106	20	
2025-07-12T12:00	34850	6	-28.8		105	20	
2025-07-12T12:00	34900	6	-28.9		103	20	
2025-07-12T12:00	34950	6	-28.9		102	20	
2025-07-12T12:00	35000	6	-29.1		102	19	
2025-07-12T12:00	35050	6	-29.3		103	20	
2025-07-12T12:00	35100	6	-29.6		104	20	
2025-07-12T12:00	35150	6	-29.8		106	20	
2025-07-12T12:00	35200	6	-29.9		107	21	
2025-07-12T12:00	35250	6	-29.7		108	21	
2025-07-13T00:00	491	956	16.7	11.6	197	1	
2025-07-13T00:00	501	954	18.5	11.6	258	1	
2025-07-13T00:00	520	953	19.6	11.5	285	1	
2025-07-13T00:00	540	951	19.9	10.6	308	1	
2025-07-13T00:00	560	948	20.3	10.4	339	1	
2025-07-13T00:00	580	946	20.2	10.1	360	1	
2025-07-13T00:00	600	944	20.2	9.2	11	2	
2025-07-13T00:00	620	942	20.2	8.9	17	3	
2025-07-13T00:00	640	940	20.2	8.1	20	3	
2025-07-13T00:00	660	937	20.4	7.4	20	3	
2025-07-13T00:00	680	935	20.3	7.2	19	3	
2025-07-13T00:00	700	933	20.2	7.4	17	3	
2025-07-13T00:00	720	931	20.3	8.1	18	3	
2025-07-13T00:00	740	929	20.2	8.4	23	3	
2025-07-13T00:00	760	927	20.2	8.9	30	3	
2025-07-13T00:00	780	925	20.1	8.9	37	3	
2025-07-13T00:00	800	922	19.9	8.8	45	3	
2025-07-13T00:00	820	920	19.8	8.8	52	3	
2025-07-13T00:00	840	918	19.7	8.7	59	3	
2025-07-13T00:00	860	916	19.7	8.9	66	2	
2025-07-13T00:00	880	914	19.8	9.2	74	2	
2025-07-13T00:00	900	912	19.8	9.4	81	2	
2025-07-13T00:00	920	909	19.7	9.5	83	2	
2025-07-13T00:00	940	907	19.7	9.7	79	2	
2025-07-13T00:00	960	905	19.7	9.8	72	2	
2025-07-13T00:00	980	903	19.7	9.8	65	2	
2025-07-13T00:00	1000	901	19.8	9.3	61	2	
2025-07-13T00:00	1020	899	19.7	8.9	60	3	
2025-07-13T00:00	1040	897	19.5	8.7	60	3	
2025-07-13T00:00	1060	895	19.4	8.6	61	3	
2025-07-13T00:00	1080	893	19.2	8.4	61	3	
2025-07-13T00:00	1100	891	19.1	7.9	60	2	
2025-07-13T00:00	1120	889	19.0	8.0	61	2	
2025-07-13T00:00	1140	887	18.8	8.0	64	2	
2025-07-13T00:00	1160	884	18.6	7.9	67	3	
2025-07-13T00:00	1180	882	18.4	7.8	70	3	
2025-07-13T00:00	1200	880	18.3	7.7	69	3	
2025-07-13T00:00	1220	878	18.1	7.7	68	3	
2025-07-13T00:00	1240	876	17.9	7.6	65	2	
2025-07-13T00:00	1260	874	17.8	7.7	64	2	
2025-07-13T00:00	1280	872	17.6	7.7	66	2	
2025-07-13T00:00	1300	870	17.4	7.7	76	1	
2025-07-13T00:00	1320	868	17.3	7.7	92	1	
2025-07-13T00:00	1340	866	17.1	7.7	113	1	
2025-07-13T00:00	1360	864	17.0	7.8	130	2	
2025-07-13T00:00	1380	862	17.1	7.9	142	2	
2025-07-13T00:00	1400	860	17.0	8.0	149	2	
2025-07-13T00:00	1420	858	16.8	8.0	150	2	
2025-07-13T00:00	1440	856	16.6	8.2	144	2	
2025-07-13T00:00	1460	854	16.4	8.4	138	2	
2025-07-13T00:00	1480	852	16.2	8.5	137	2	
2025-07-13T00:00	1500	850	16.1	9.1	142	3	
2025-07-13T00:00	1520	848	16.0	9.1	152	3	
2025-07-13T00:00	1540	846	15.9	9.0	164	3	
2025-07-13T00:00	1560	844	15.9	8.6	175	3	
2025-07-13T00:00	1580	842	15.9	8.4	188	3	
2025-07-13T00:00	1600	840	15.8	8.4	197	3	
2025-07-13T00:00	1620	838	15.7	8.2	203	3	
2025-07-13T00:00	1640	836	15.5	8.2	208	3	
2025-07-13T00:00	1660	834	15.3	8.1	211	3	
2025-07-13T00:00	1680	832	15.2	8.1	214	4	
2025-07-13T00:00	1700	830	15.0	8.1	216	4	
2025-07-13T00:00	1720	828	14.8	8.2	218	4	
2025-07-13T00:00	1740	826	14.6	8.1	220	4	
2025-07-13T00:00	1760	824	14.4	8.2	222	4	
2025-07-13T00:00	1780	822	14.2	8.2	224	4	
2025-07-13T00:00	1800	820	14.1	8.3	225	4	
2025-07-13T00:00	1820	818	13.9	8.2	226	4	
2025-07-13T00:00	1840	817	13.7	8.4	224	4	
2025-07-13T00:00	1860	815	13.5	8.4	222	4	
2025-07-13T00:00	1880	813	13.3	8.4	218	4	
2025-07-13T00:00	1900	811	13.1	8.5	215	4	
2025-07-13T00:00	1920	809	13.0	8.4	213	5	
2025-07-13T00:00	1940	807	12.8	8.5	212	5	
2025-07-13T00:00	1960	805	12.6	8.4	212	5	
2025-07-13T00:00	1980	803	12.5	8.3	214	5	
2025-07-13T00:00	2000	801	12.3	8.2	215	6	
2025-07-13T00:00	2020	799	12.1	8.3	217	6	
2025-07-13T00:00	2040	797	11.9	8.3	219	6	
2025-07-13T00:00	2060	796	11.7	8.3	221	6	
2025-07-13T00:00	2080	794	11.6	8.1	224	7	
2025-07-13T00:00	2100	792	11.5	8.0	227	7	
2025-07-13T00:00	2120	790	11.3	8.0	230	8	
2025-07-13T00:00	2140	788	11.1	7.9	231	8	
2025-07-13T00:00	2160	786	10.9	7.8	231	9	
2025-07-13T00:00	2180	784	10.8	7.7	229	9	
2025-07-13T00:00	2200	782	10.6	7.6	227	9	
2025-07-13T00:00	2220	780	10.5	7.5	225	9	
2025-07-13T00:00	2240	779	10.3	7.4	223	9	
2025-07-13T00:00	2260	777	10.2	7.3	224	9	
2025-07-13T00:00	2280	775	10.0	7.2	225	9	
2025-07-13T00:00	2300	773	9.8	7.1	227	9	
2025-07-13T00:00	2320	771	9.6	7.0	230	9	
2025-07-13T00:00	2340	769	9.5	6.9	234	10	
2025-07-13T00:00	2360	767	9.3	6.9	237	10	
2025-07-13T00:00	2380	766	9.1	6.7	239	10	
2025-07-13T00:00	2400	764	9.0	6.4	240	10	
2025-07-13T00:00	2420	762	8.9	6.2	240	11	
2025-07-13T00:00	2440	760	8.8	5.7	239	11	
2025-07-13T00:00	2460	758	8.6	5.4	238	11	
2025-07-13T00:00	2480	756	8.5	5.2	238	11	
2025-07-13T00:00	2500	755	8.3	5.0	238	11	
2025-07-13T00:00	2520	753	8.2	4.9	239	10	
2025-07-13T00:00	2540	751	8.0	4.8	240	10	
2025-07-13T00:00	2560	749	7.8	4.5	240	10	
2025-07-13T00:00	2580	747	7.6	4.2	241	11	
2025-07-13T00:00	2600	745	7.4	4.3	241	11	
2025-07-13T00:00	2620	744	7.3	4.2	240	11	
2025-07-13T00:00	2640	742	7.1	3.9	239	11	
2025-07-13T00:00	2660	740	6.9	3.8	238	12	
2025-07-13T00:00	2680	738	6.8	3.3	237	12	
2025-07-13T00:00	2700	736	6.6	3.4	235	12	
2025-07-13T00:00	2720	735	6.4	3.3	234	12	
2025-07-13T00:00	2740	733	6.3	3.2	233	12	
2025-07-13T00:00	2760	731	6.1	3.3	233	12	
2025-07-13T00:00	2780	729	5.9	3.2	234	11	
2025-07-13T00:00	2800	728	5.7	3.0	236	11	
2025-07-13T00:00	2820	726	5.5	3.1	239	11	
2025-07-13T00:00	2840	724	5.3	2.9	243	11	
2025-07-13T00:00	2860	722	5.1	3.1	246	11	
2025-07-13T00:00	2880	720	5.1	2.7	248	11	
2025-07-13T00:00	2900	719	5.0	2.1	250	11	
2025-07-13T00:00	2920	717	4.9	1.7	252	11	
2025-07-13T00:00	2940	715	4.8	1.1	253	11	
2025-07-13T00:00	2960	713	4.7	0.8	253	11	
2025-07-13T00:00	2980	712	4.5	0.6	254	11	
2025-07-13T00:00	3000	710	4.4	0.7	255	11	
2025-07-13T00:00	3020	708	4.2	0.7	256	11	
2025-07-13T00:00	3040	707	4.0	0.4	257	11	
2025-07-13T00:00	3060	705	3.9	-0.2	257	11	
2025-07-13T00:00	3080	703	3.7	-0.6	257	11	
2025-07-13T00:00	3100	701	3.6	-1.1	257	11	
2025-07-13T00:00	3120	700	3.5	-2.5	257	11	
2025-07-13T00:00	3140	698	3.4	-3.2	256	11	
2025-07-13T00:00	3160	696	3.2	-3.2	256	11	
2025-07-13T00:00	3180	694	3.0	-3.3	255	11	
2025-07-13T00:00	3200	693	2.8	-3.7	255	10	
2025-07-13T00:00	3220	691	2.7	-4.8	255	10	
2025-07-13T00:00	3240	689	2.5	-5.4	254	9	
2025-07-13T00:00	3260	687	2.4	-6.7	254	9	
2025-07-13T00:00	3280	686	2.3	-6.7	255	9	
2025-07-13T00:00	3300	684	2.1	-6.6	256	9	
2025-07-13T00:00	3320	683	1.9	-6.9	258	9	
2025-07-13T00:00	3340	681	1.8	-7.1	260	10	
2025-07-13T00:00	3360	679	1.7	-6.9	262	10	
2025-07-13T00:00	3380	677	1.6	-6.9	263	10	
2025-07-13T00:00	3400	676	1.4	-7.3	263	10	
2025-07-13T00:00	3420	674	1.4	-8.5	262	10	
2025-07-13T00:00	3440	672	1.3	-7.7	261	10	
2025-07-13T00:00	3460	671	1.3	-7.3	260	10	
2025-07-13T00:00	3480	669	1.3	-7.5	259	10	
2025-07-13T00:00	3500	667	1.3	-7.7	258	10	
2025-07-13T00:00	3520	666	1.2	-7.7	258	10	
2025-07-13T00:00	3540	664	1.0	-7.8	257	10	
2025-07-13T00:00	3560	662	0.9	-7.9	257	10	
2025-07-13T00:00	3580	661	0.9	-8.5	257	10	
2025-07-13T00:00	3600	659	0.8	-8.3	256	10	
2025-07-13T00:00	3620	658	0.6	-8.0	255	10	
2025-07-13T00:00	3640	656	0.5	-7.9	255	10	
2025-07-13T00:00	3660	654	0.3	-8.0	254	10	
2025-07-13T00:00	3680	653	0.1	-8.1	254	10	
2025-07-13T00:00	3700	651	0.0	-8.2	254	10	
2025-07-13T00:00	3720	649	-0.2	-7.7	254	9	
2025-07-13T00:00	3740	648	-0.3	-7.0	254	9	
2025-07-13T00:00	3760	646	-0.5	-6.9	254	9	
2025-07-13T00:00	3780	645	-0.7	-6.6	255	9	
2025-07-13T00:00	3800	643	-0.9	-6.6	255	10	
2025-07-13T00:00	3820	641	-1.1	-6.3	255	10	
2025-07-13T00:00	3840	640	-1.3	-5.9	255	10	
2025-07-13T00:00	3860	638	-1.4	-5.8	255	10	
2025-07-13T00:00	3880	637	-1.6	-5.6	255	10	
2025-07-13T00:00	3900	635	-1.8	-6.3	254	9	
2025-07-13T00:00	3920	633	-1.9	-6.5	254	9	
2025-07-13T00:00	3940	632	-2.1	-6.1	254	9	
2025-07-13T00:00	3960	630	-2.2	-6.6	255	9	
2025-07-13T00:00	3980	629	-2.3	-7.6	256	9	
2025-07-13T00:00	4000	627	-2.4	-8.1	258	9	
2025-07-13T00:00	4020	625	-2.6	-8.7	259	9	
2025-07-13T00:00	4040	624	-2.6	-9.6	261	9	
2025-07-13T00:00	4060	622	-2.7	-10.2	262	8	
2025-07-13T00:00	4080	621	-2.9	-10.9	263	8	
2025-07-13T00:00	4100	619	-2.9	-11.5	263	8	
2025-07-13T00:00	4120	618	-3.0	-11.2	262	8	
2025-07-13T00:00	4140	616	-3.2	-11.0	262	8	
2025-07-13T00:00	4160	614	-3.4	-10.7	262	7	
2025-07-13T00:00	4180	613	-3.5	-11.0	263	7	
2025-07-13T00:00	4200	611	-3.7	-10.9	266	6	
2025-07-13T00:00	4220	610	-3.8	-11.1	269	6	
2025-07-13T00:00	4240	608	-4.0	-11.3	272	6	
2025-07-13T00:00	4260	607	-4.1	-11.9	276	7	
2025-07-13T00:00	4280	605	-4.2	-12.4	277	7	
2025-07-13T00:00	4300	604	-4.3	-12.4	277	7	
2025-07-13T00:00	4320	602	-4.4	-12.7	277	8	
2025-07-13T00:00	4340	600	-4.5	-13.1	276	8	
2025-07-13T00:00	4360	599	-4.5	-13.8	275	8	
2025-07-13T00:00	4380	598	-4.5	-14.4	274	8	
2025-07-13T00:00	4400	596	-4.6	-14.5	272	8	
2025-07-13T00:00	4420	595	-4.7	-14.6	270	8	
2025-07-13T00:00	4440	593	-4.9	-14.8	267	8	
2025-07-13T00:00	4460	591	-5.0	-15.0	265	8	
2025-07-13T00:00	4480	590	-5.2	-14.9	264	8	
2025-07-13T00:00	4500	588	-5.4	-14.9	263	8	
2025-07-13T00:00	4520	587	-5.6	-15.0	264	8	
2025-07-13T00:00	4540	585	-5.7	-15.1	265	8	
2025-07-13T00:00	4560	584	-5.9	-15.2	267	8	
2025-07-13T00:00	4580	583	-6.0	-15.6	269	8	
2025-07-13T00:00	4600	581	-6.1	-15.5	271	8	
2025-07-13T00:00	4620	579	-6.2	-15.4	272	9	
2025-07-13T00:00	4640	578	-6.2	-16.3	271	9	
2025-07-13T00:00	4660	577	-6.2	-17.2	269	9	
2025-07-13T00:00	4680	575	-6.3	-17.7	268	9	
2025-07-13T00:00	4700	574	-6.4	-17.9	267	9	
2025-07-13T00:00	4720	572	-6.6	-18.4	267	9	
2025-07-13T00:00	4740	571	-6.7	-18.6	268	9	
2025-07-13T00:00	4760	569	-6.9	-18.4	269	9	
2025-07-13T00:00	4780	568	-7.1	-18.3	271	9	
2025-07-13T00:00	4800	566	-7.2	-18.3	274	9	
2025-07-13T00:00	4820	565	-7.4	-18.3	276	9	
2025-07-13T00:00	4840	564	-7.6	-18.2	277	9	
2025-07-13T00:00	4860	562	-7.8	-18.2	278	9	
2025-07-13T00:00	4880	561	-7.9	-18.2	278	9	
2025-07-13T00:00	4900	559	-8.1	-18.5	277	9	
2025-07-13T00:00	4920	558	-8.1	-18.5	276	8	
2025-07-13T00:00	4940	556	-8.2	-17.2	275	8	
2025-07-13T00:00	4960	555	-8.4	-17.7	274	8	
2025-07-13T00:00	4980	553	-8.5	-19.5	273	8	
2025-07-13T00:00	5000	552	-8.5	-21.3	273	8	
2025-07-13T00:00	5020	551	-8.6	-21.5	274	8	
2025-07-13T00:00	5040	549	-8.6	-22.7	276	8	
2025-07-13T00:00	5060	548	-8.7	-22.6	278	9	
2025-07-13T00:00	5080	546	-8.8	-21.4	280	9	
2025-07-13T00:00	5100	545	-8.9	-21.2	282	9	
2025-07-13T00:00	5120	543	-9.0	-21.4	283	9	
2025-07-13T00:00	5140	542	-9.1	-21.7	283	9	
2025-07-13T00:00	5160	541	-9.2	-22.1	283	9	
2025-07-13T00:00	5180	539	-9.3	-21.6	282	9	
2025-07-13T00:00	5200	538	-9.4	-21.7	279	9	
2025-07-13T00:00	5220	536	-9.6	-21.7	277	9	
2025-07-13T00:00	5240	535	-9.8	-21.9	276	9	
2025-07-13T00:00	5260	534	-9.9	-22.0	275	9	
2025-07-13T00:00	5280	532	-10.1	-22.4	275	9	
2025-07-13T00:00	5300	531	-10.3	-22.7	275	10	
2025-07-13T00:00	5320	530	-10.5	-23.0	275	10	
2025-07-13T00:00	5340	528	-10.7	-23.3	275	10	
2025-07-13T00:00	5360	527	-10.9	-23.5	275	10	
2025-07-13T00:00	5380	526	-11.0	-23.5	274	10	
2025-07-13T00:00	5400	524	-11.2	-23.1	272	10	
2025-07-13T00:00	5420	523	-11.4	-22.7	270	10	
2025-07-13T00:00	5440	521	-11.5	-22.9	268	11	
2025-07-13T00:00	5460	520	-11.6	-23.1	265	11	
2025-07-13T00:00	5480	519	-11.8	-23.2	264	11	
2025-07-13T00:00	5500	517	-11.9	-23.3	262	11	
2025-07-13T00:00	5520	516	-12.1	-23.4	261	11	
2025-07-13T00:00	5540	515	-12.2	-23.6	259	11	
2025-07-13T00:00	5560	513	-12.4	-23.7	258	10	
2025-07-13T00:00	5580	512	-12.6	-23.9	257	10	
2025-07-13T00:00	5600	510	-12.7	-24.2	257	10	
2025-07-13T00:00	5620	509	-12.8	-25.3	258	10	
2025-07-13T00:00	5640	508	-13.0	-26.2	258	10	
2025-07-13T00:00	5660	506	-13.1	-26.9	259	10	
2025-07-13T00:00	5680	505	-13.1	-26.6	260	10	
2025-07-13T00:00	5700	504	-13.1	-28.6	261	10	
2025-07-13T00:00	5720	503	-12.9	-34.1	260	10	
2025-07-13T00:00	5740	501	-13.0	-36.3	258	10	
2025-07-13T00:00	5760	500	-13.1	-37.5	256	10	
2025-07-13T00:00	5780	499	-13.2	-39.1	255	10	
2025-07-13T00:00	5800	497	-13.3	-40.0	255	10	
2025-07-13T00:00	5820	496	-13.3	-40.5	254	10	
2025-07-13T00:00	5840	495	-13.2	-40.9	255	10	
2025-07-13T00:00	5860	493	-13.2	-41.4	256	10	
2025-07-13T00:00	5880	492	-13.3	-41.3	256	10	
2025-07-13T00:00	5900	491	-13.4	-40.6	256	10	
2025-07-13T00:00	5920	490	-13.5	-40.4	256	10	
2025-07-13T00:00	5940	488	-13.6	-40.4	255	10	
2025-07-13T00:00	5960	487	-13.8	-40.3	254	11	
2025-07-13T00:00	5980	486	-13.9	-40.4	252	11	
2025-07-13T00:00	6000	484	-14.0	-40.6	251	11	
2025-07-13T00:00	6020	483	-14.2	-40.7	250	11	
2025-07-13T00:00	6040	482	-14.2	-41.6	249	11	
2025-07-13T00:00	6060	481	-14.3	-42.1	249	11	
2025-07-13T00:00	6080	479	-14.4	-42.5	249	11	
2025-07-13T00:00	6100	478	-14.5	-43.0	249	11	
2025-07-13T00:00	6120	477	-14.6	-43.7	250	11	
2025-07-13T00:00	6140	476	-14.6	-43.8	250	11	
2025-07-13T00:00	6160	474	-14.6	-43.4	250	10	
2025-07-13T00:00	6180	473	-14.8	-43.5	250	10	
2025-07-13T00:00	6200	472	-15.0	-43.8	250	9	
2025-07-13T00:00	6220	471	-15.1	-44.2	249	9	
2025-07-13T00:00	6240	469	-15.3	-44.2	247	9	
2025-07-13T00:00	6260	468	-15.4	-43.3	247	9	
2025-07-13T00:00	6280	467	-15.6	-42.9	246	9	
2025-07-13T00:00	6300	466	-15.7	-43.8	245	9	
2025-07-13T00:00	6320	464	-15.9	-44.5	245	10	
2025-07-13T00:00	6340	463	-16.0	-44.8	245	10	
2025-07-13T00:00	6360	462	-16.1	-45.2	244	9	
2025-07-13T00:00	6380	461	-16.3	-45.8	244	9	
2025-07-13T00:00	6400	459	-16.3	-45.7	244	9	
2025-07-13T00:00	6420	458	-16.4	-45.5	244	9	
2025-07-13T00:00	6440	457	-16.6	-45.8	245	9	
2025-07-13T00:00	6460	456	-16.7	-46.4	246	9	
2025-07-13T00:00	6480	455	-16.8	-46.8	248	9	
2025-07-13T00:00	6500	453	-16.9	-46.6	250	9	
2025-07-13T00:00	6520	452	-17.1	-46.5	252	9	
2025-07-13T00:00	6540	451	-17.2	-46.7	253	9	
2025-07-13T00:00	6560	450	-17.4	-46.7	254	9	
2025-07-13T00:00	6580	449	-17.6	-46.7	256	9	
2025-07-13T00:00	6600	447	-17.8	-46.5	257	9	
2025-07-13T00:00	6620	446	-18.0	-46.4	257	9	
2025-07-13T00:00	6640	445	-18.2	-46.7	258	9	
2025-07-13T00:00	6660	444	-18.3	-46.7	259	9	
2025-07-13T00:00	6680	443	-18.4	-46.4	261	9	
2025-07-13T00:00	6700	441	-18.5	-45.8	262	9	
2025-07-13T00:00	6720	440	-18.7	-45.3	263	9	
2025-07-13T00:00	6740	439	-18.8	-45.5	263	9	
2025-07-13T00:00	6760	438	-19.0	-45.7	262	9	
2025-07-13T00:00	6780	437	-19.1	-45.1	261	9	
2025-07-13T00:00	6800	435	-19.3	-43.8	260	9	
2025-07-13T00:00	6820	434	-19.5	-43.5	258	9	
2025-07-13T00:00	6840	433	-19.6	-44.6	257	9	
2025-07-13T00:00	6860	432	-19.8	-44.0	256	9	
2025-07-13T00:00	6880	431	-19.9	-42.0	256	9	
2025-07-13T00:00	6900	430	-20.1	-41.2	257	9	
2025-07-13T00:00	6920	429	-20.2	-41.6	257	9	
2025-07-13T00:00	6940	427	-20.3	-42.6	258	10	
2025-07-13T00:00	6960	426	-20.4	-42.6	259	10	
2025-07-13T00:00	6980	425	-20.6	-42.5	259	10	
2025-07-13T00:00	7000	424	-20.8	-42.7	259	10	
2025-07-13T00:00	7020	423	-20.9	-42.6	259	11	
2025-07-13T00:00	7040	422	-21.1	-42.7	259	11	
2025-07-13T00:00	7060	420	-21.3	-42.9	258	11	
2025-07-13T00:00	7080	419	-21.5	-43.0	257	12	
2025-07-13T00:00	7100	418	-21.6	-43.8	256	12	
2025-07-13T00:00	7120	417	-21.7	-44.8	255	12	
2025-07-13T00:00	7140	416	-21.9	-44.8	252	12	
2025-07-13T00:00	7160	415	-22.0	-45.5	251	12	
2025-07-13T00:00	7180	414	-22.1	-45.7	250	12	
2025-07-13T00:00	7200	412	-22.3	-45.4	249	12	
2025-07-13T00:00	7220	411	-22.3	-45.3	249	11	
2025-07-13T00:00	7240	410	-22.3	-45.8	250	11	
2025-07-13T00:00	7260	409	-22.5	-45.9	252	11	
2025-07-13T00:00	7280	408	-22.6	-46.2	254	11	
2025-07-13T00:00	7300	407	-22.8	-46.6	256	11	
2025-07-13T00:00	7320	406	-22.9	-46.9	256	10	
2025-07-13T00:00	7340	405	-23.1	-47.5	256	10	
2025-07-13T00:00	7360	404	-23.2	-47.9	256	10	
2025-07-13T00:00	7380	403	-23.3	-48.4	255	10	
2025-07-13T00:00	7400	401	-23.5	-48.2	254	10	
2025-07-13T00:00	7420	400	-23.6	-48.4	254	10	
2025-07-13T00:00	7440	399	-23.7	-48.6	255	10	
2025-07-13T00:00	7460	398	-23.9	-48.8	255	10	
2025-07-13T00:00	7480	397	-24.1	-49.0	256	10	
2025-07-13T00:00	7500	396	-24.3	-49.1	258	10	
2025-07-13T00:00	7520	395	-24.4	-49.3	260	10	
2025-07-13T00:00	7540	394	-24.6	-49.3	261	10	
2025-07-13T00:00	7560	393	-24.8	-49.5	261	10	
2025-07-13T00:00	7580	392	-25.0	-49.6	262	10	
2025-07-13T00:00	7600	391	-25.2	-49.5	262	11	
2025-07-13T00:00	7620	390	-25.3	-49.3	262	11	
2025-07-13T00:00	7640	388	-25.5	-49.0	261	11	
2025-07-13T00:00	7660	387	-25.5	-49.2	260	11	
2025-07-13T00:00	7680	386	-25.6	-49.5	260	11	
2025-07-13T00:00	7700	385	-25.8	-49.6	259	11	
2025-07-13T00:00	7720	384	-25.9	-50.2	259	11	
2025-07-13T00:00	7740	383	-26.0	-50.9	258	11	
2025-07-13T00:00	7760	382	-26.0	-51.5	258	11	
2025-07-13T00:00	7780	381	-26.2	-51.6	258	11	
2025-07-13T00:00	7800	380	-26.3	-51.6	258	11	
2025-07-13T00:00	7820	379	-26.4	-51.8	259	11	
2025-07-13T00:00	7840	378	-26.5	-51.9	260	11	
2025-07-13T00:00	7860	377	-26.7	-51.8	261	11	
2025-07-13T00:00	7880	376	-26.8	-51.9	261	11	
2025-07-13T00:00	7900	375	-27.0	-51.9	262	12	
2025-07-13T00:00	7920	374	-27.1	-52.0	263	12	
2025-07-13T00:00	7940	373	-27.3	-52.2	263	12	
2025-07-13T00:00	7960	372	-27.4	-52.2	264	12	
2025-07-13T00:00	7980	371	-27.5	-52.2	264	12	
2025-07-13T00:00	8000	370	-27.6	-52.1	265	12	
2025-07-13T00:00	8020	369	-27.8	-51.9	265	12	
2025-07-13T00:00	8040	367	-27.9	-51.8	266	12	
2025-07-13T00:00	8060	366	-28.1	-51.5	266	12	
2025-07-13T00:00	8080	365	-28.2	-51.0	266	13	
2025-07-13T00:00	8100	364	-28.3	-50.9	266	13	
2025-07-13T00:00	8120	363	-28.5	-50.9	267	13	
2025-07-13T00:00	8140	362	-28.7	-50.9	267	13	
2025-07-13T00:00	8160	361	-28.8	-51.1	268	13	
2025-07-13T00:00	8180	360	-29.0	-51.2	269	13	
2025-07-13T00:00	8200	359	-29.2	-51.2	269	12	
2025-07-13T00:00	8220	358	-29.3	-51.2	270	12	
2025-07-13T00:00	8240	357	-29.5	-51.2	270	12	
2025-07-13T00:00	8260	356	-29.6	-51.2	270	12	
2025-07-13T00:00	8280	355	-29.8	-51.3	269	13	
2025-07-13T00:00	8300	354	-30.0	-50.4	269	13	
2025-07-13T00:00	8320	353	-30.2	-48.0	268	13	
2025-07-13T00:00	8340	352	-30.4	-47.9	268	13	
2025-07-13T00:00	8360	351	-30.6	-48.3	267	13	
2025-07-13T00:00	8380	350	-30.7	-48.4	268	13	
2025-07-13T00:00	8400	349	-30.9	-47.8	268	13	
2025-07-13T00:00	8420	348	-31.1	-47.5	268	13	
2025-07-13T00:00	8440	347	-31.3	-47.0	269	13	
2025-07-13T00:00	8460	347	-31.5	-47.1	269	13	
2025-07-13T00:00	8480	346	-31.7	-47.1	270	13	
2025-07-13T00:00	8500	344	-31.9	-47.1	270	13	
2025-07-13T00:00	8520	344	-32.1	-47.8	270	13	
2025-07-13T00:00	8540	343	-32.2	-48.8	270	13	
2025-07-13T00:00	8560	342	-32.4	-48.5	270	13	
2025-07-13T00:00	8580	341	-32.6	-48.3	269	13	
2025-07-13T00:00	8600	340	-32.8	-48.8	269	12	
2025-07-13T00:00	8620	339	-32.9	-48.9	269	12	
2025-07-13T00:00	8640	338	-33.1	-48.9	268	12	
2025-07-13T00:00	8660	337	-33.3	-49.0	268	12	
2025-07-13T00:00	8680	336	-33.5	-49.4	268	12	
2025-07-13T00:00	8700	335	-33.7	-49.3	267	12	
2025-07-13T00:00	8720	334	-33.8	-48.8	267	12	
2025-07-13T00:00	8740	333	-34.0	-48.9	267	12	
2025-07-13T00:00	8760	332	-34.2	-48.9	267	12	
2025-07-13T00:00	8780	331	-34.4	-48.9	268	12	
2025-07-13T00:00	8800	330	-34.5	-48.9	268	12	
2025-07-13T00:00	8820	329	-34.7	-49.0	268	12	
2025-07-13T00:00	8840	328	-34.9	-49.2	268	12	
2025-07-13T00:00	8860	327	-35.0	-49.0	268	12	
2025-07-13T00:00	8880	326	-35.2	-49.0	268	12	
2025-07-13T00:00	8900	325	-35.4	-49.1	268	12	
2025-07-13T00:00	8920	324	-35.5	-49.6	269	12	
2025-07-13T00:00	8940	324	-35.6	-50.2	269	12	
2025-07-13T00:00	8960	323	-35.7	-50.5	270	12	
2025-07-13T00:00	8980	322	-35.9	-50.5	271	12	
2025-07-13T00:00	9000	321	-36.1	-50.5	271	12	
2025-07-13T00:00	9020	320	-36.2	-50.7	272	12	
2025-07-13T00:00	9040	319	-36.4	-50.8	272	12	
2025-07-13T00:00	9060	318	-36.5	-50.9	272	12	
2025-07-13T00:00	9080	317	-36.7	-51.0	271	12	
2025-07-13T00:00	9100	316	-36.9	-51.3	270	12	
2025-07-13T00:00	9120	315	-37.0	-51.7	269	12	
2025-07-13T00:00	9140	314	-37.1	-52.3	269	12	
2025-07-13T00:00	9160	313	-37.2	-53.1	268	12	
2025-07-13T00:00	9180	312	-37.3	-53.3	269	12	
2025-07-13T00:00	9200	312	-37.5	-53.5	269	12	
2025-07-13T00:00	9220	311	-37.7	-53.6	270	12	
2025-07-13T00:00	9240	310	-37.9	-53.7	270	12	
2025-07-13T00:00	9260	309	-38.1	-53.9	271	12	
2025-07-13T00:00	9280	308	-38.3	-54.2	272	12	
2025-07-13T00:00	9300	307	-38.4	-54.5	272	13	
2025-07-13T00:00	9320	306	-38.6	-54.7	274	13	
2025-07-13T00:00	9340	305	-38.8	-54.8	275	13	
2025-07-13T00:00	9360	304	-38.9	-54.9	276	13	
2025-07-13T00:00	9380	304	-39.0	-54.9	277	13	
2025-07-13T00:00	9400	303	-39.2	-54.9	278	13	
2025-07-13T00:00	9420	302	-39.4	-55.0	278	13	
2025-07-13T00:00	9440	301	-39.6	-55.3	279	13	
2025-07-13T00:00	9460	300	-39.7	-55.4	278	13	
2025-07-13T00:00	9480	299	-39.8	-55.5	278	13	
2025-07-13T00:00	9500	298	-40.0	-55.7	277	13	
2025-07-13T00:00	9520	297	-40.1	-55.8	277	13	
2025-07-13T00:00	9540	297	-40.2	-56.4	277	14	
2025-07-13T00:00	9560	296	-40.3	-56.5	277	14	
2025-07-13T00:00	9580	295	-40.5	-56.4	277	14	
2025-07-13T00:00	9600	294	-40.6	-56.7	277	13	
2025-07-13T00:00	9620	293	-40.7	-57.2	278	13	
2025-07-13T00:00	9640	292	-40.9	-57.2	278	13	
2025-07-13T00:00	9660	291	-41.0	-57.1	278	13	
2025-07-13T00:00	9680	291	-41.2	-57.2	278	13	
2025-07-13T00:00	9700	290	-41.4	-57.4	279	13	
2025-07-13T00:00	9720	289	-41.5	-57.7	279	13	
2025-07-13T00:00	9740	288	-41.6	-57.8	280	13	
2025-07-13T00:00	9760	287	-41.8	-58.0	281	13	
2025-07-13T00:00	9780	286	-41.9	-58.2	281	13	
2025-07-13T00:00	9800	285	-42.0	-58.2	282	12	
2025-07-13T00:00	9820	284	-42.2	-58.3	282	12	
2025-07-13T00:00	9840	284	-42.3	-58.6	282	12	
2025-07-13T00:00	9860	283	-42.5	-58.7	281	12	
2025-07-13T00:00	9880	282	-42.6	-58.7	281	12	
2025-07-13T00:00	9900	281	-42.8	-58.8	281	12	
2025-07-13T00:00	9920	280	-43.0	-58.8	282	12	
2025-07-13T00:00	9940	279	-43.1	-58.8	283	12	
2025-07-13T00:00	9960	279	-43.3	-58.8	283	12	
2025-07-13T00:00	9980	278	-43.5	-58.9	284	12	
2025-07-13T00:00	10000	277	-43.6	-59.2	285	12	
2025-07-13T00:00	10018	276	-43.7	-59.4	286	13	
2025-07-13T00:00	10050	275	-44.0	-59.5	287	13	
2025-07-13T00:00	10100	273	-44.3	-59.8	288	14	
2025-07-13T00:00	10150	271	-44.6	-60.6	288	15	
2025-07-13T00:00	10200	269	-45.0	-61.1	286	16	
2025-07-13T00:00	10250	267	-45.2	-61.3	283	16	
2025-07-13T00:00	10300	265	-45.5	-61.3	280	16	
2025-07-13T00:00	10350	263	-45.7	-61.2	279	15	
2025-07-13T00:00	10400	261	-46.0	-61.3	279	15	
2025-07-13T00:00	10450	259	-46.3	-61.6	279	16	
2025-07-13T00:00	10500	257	-46.7	-61.5	278	17	
2025-07-13T00:00	10550	255	-47.2	-61.4	276	18	
2025-07-13T00:00	10600	253	-47.6	-61.6	276	18	
2025-07-13T00:00	10650	251	-48.0	-61.4	278	17	
2025-07-13T00:00	10700	249	-48.4	-61.7	279	17	
2025-07-13T00:00	10750	248	-48.8	-61.7	278	18	
2025-07-13T00:00	10800	246	-49.2	-61.7	278	18	
2025-07-13T00:00	10850	244	-49.5	-60.9	278	19	
2025-07-13T00:00	10900	242	-49.8	-59.9	277	20	
2025-07-13T00:00	10950	240	-50.2	-60.0	278	20	
2025-07-13T00:00	11000	238	-50.7	-60.2	279	20	
2025-07-13T00:00	11050	236	-51.1	-60.5	279	20	
2025-07-13T00:00	11100	235	-51.5	-61.2	281	20	
2025-07-13T00:00	11150	233	-51.8	-61.8	282	20	
2025-07-13T00:00	11200	231	-52.2	-62.0	283	20	
2025-07-13T00:00	11250	229	-52.6	-62.0	283	20	
2025-07-13T00:00	11300	227	-53.1	-61.9	284	20	
2025-07-13T00:00	11350	226	-53.4	-62.0	286	20	
2025-07-13T00:00	11400	224	-53.8	-62.4	287	20	
2025-07-13T00:00	11450	222	-54.0	-62.7	289	21	
2025-07-13T00:00	11500	221	-54.3	-62.9	290	21	
2025-07-13T00:00	11550	219	-54.6	-63.3	293	21	
2025-07-13T00:00	11600	217	-54.8	-64.5	294	20	
2025-07-13T00:00	11650	215	-54.7	-65.5	294	18	
2025-07-13T00:00	11700	214	-54.6	-65.9	292	17	
2025-07-13T00:00	11750	212	-54.6	-65.7	292	16	
2025-07-13T00:00	11800	210	-54.6	-64.8	292	15	
2025-07-13T00:00	11850	209	-54.3	-66.3	293	14	
2025-07-13T00:00	11900	207	-53.4	-68.7	296	15	
2025-07-13T00:00	11950	206	-53.1	-68.4	302	16	
2025-07-13T00:00	12000	204	-52.9	-69.0	306	15	
2025-07-13T00:00	12050	202	-52.6	-70.4	309	14	
2025-07-13T00:00	12100	201	-52.8	-71.5	309	12	
2025-07-13T00:00	12150	199	-53.1	-72.1	307	11	
2025-07-13T00:00	12200	198	-53.5	-72.3	302	10	
2025-07-13T00:00	12250	196	-53.5	-73.4	291	10	
2025-07-13T00:00	12300	195	-52.6	-75.9	281	10	
2025-07-13T00:00	12350	193	-51.4	-76.7	275	10	
2025-07-13T00:00	12400	192	-50.7	-77.5	269	11	
2025-07-13T00:00	12450	190	-50.1	-78.2	262	11	
2025-07-13T00:00	12500	189	-50.4	-78.0	254	12	
2025-07-13T00:00	12550	187	-50.2	-77.9	250	13	
2025-07-13T00:00	12600	186	-49.5	-78.1	250	13	
2025-07-13T00:00	12650	184	-49.5	-78.3	252	13	
2025-07-13T00:00	12700	183	-49.6	-78.5	252	13	
2025-07-13T00:00	12750	182	-49.4	-78.8	251	13	
2025-07-13T00:00	12800	180	-49.6	-78.9	250	14	
2025-07-13T00:00	12850	179	-49.6	-79.1	249	14	
2025-07-13T00:00	12900	178	-49.5	-79.5	250	13	
2025-07-13T00:00	12950	176	-49.3	-79.6	254	13	
2025-07-13T00:00	13000	175	-49.4	-79.7	260	13	
2025-07-13T00:00	13050	174	-49.6	-79.9	263	14	
2025-07-13T00:00	13100	172	-49.3	-80.2	263	14	
2025-07-13T00:00	13150	171	-48.7	-80.5	263	14	
2025-07-13T00:00	13200	170	-48.8	-80.5	261	13	
2025-07-13T00:00	13250	168	-49.2	-80.5	260	13	
2025-07-13T00:00	13300	167	-49.6	-80.6	258	13	
2025-07-13T00:00	13350	166	-49.9	-80.6	259	12	
2025-07-13T00:00	13400	165	-50.0	-81.0	262	11	
2025-07-13T00:00	13450	163	-49.8	-81.0	262	12	
2025-07-13T00:00	13500	162	-50.0	-81.3	262	13	
2025-07-13T00:00	13550	161	-49.9	-81.6	263	13	
2025-07-13T00:00	13600	160	-49.7	-81.7	263	12	
2025-07-13T00:00	13650	158	-49.8	-81.9	263	12	
2025-07-13T00:00	13700	157	-49.9	-81.9	263	13	
2025-07-13T00:00	13750	156	-50.2	-81.9	264	14	
2025-07-13T00:00	13800	155	-50.6	-82.0	265	13	
2025-07-13T00:00	13850	154	-50.6	-82.1	266	12	
2025-07-13T00:00	13900	152	-50.3	-82.4	269	11	
2025-07-13T00:00	13950	151	-50.2	-82.3	272	11	
2025-07-13T00:00	14000	150	-50.6	-82.2	274	12	
2025-07-13T00:00	14050	149	-51.0	-82.3	273	12	
2025-07-13T00:00	14100	148	-51.4	-82.6	271	13	
2025-07-13T00:00	14150	147	-51.6	-82.4	268	13	
2025-07-13T00:00	14200	145	-51.8	-82.3	267	13	
2025-07-13T00:00	14250	144	-51.8	-82.7	265	13	
2025-07-13T00:00	14300	143	-51.8	-82.5	264	14	
2025-07-13T00:00	14350	142	-51.7	-82.3	263	14	
2025-07-13T00:00	14400	141	-52.0	-82.1	263	14	
2025-07-13T00:00	14450	140	-52.3	-82.2	263	14	
2025-07-13T00:00	14500	139	-52.6	-82.5	264	14	
2025-07-13T00:00	14550	138	-52.6	-82.5	265	14	
2025-07-13T00:00	14600	137	-52.7	-82.6	267	13	
2025-07-13T00:00	14650	136	-52.9	-83.0	268	13	
2025-07-13T00:00	14700	135	-52.9	-83.1	268	13	
2025-07-13T00:00	14750	134	-52.8	-83.1	266	12	
2025-07-13T00:00	14800	133	-52.7	-83.4	261	12	
2025-07-13T00:00	14850	132	-52.8	-83.7	257	12	
2025-07-13T00:00	14900	131	-52.7	-83.8	259	13	
2025-07-13T00:00	14950	130	-52.3	-83.5	262	14	
2025-07-13T00:00	15000	129	-52.6	-83.5	262	14	
2025-07-13T00:00	15050	128	-52.9	-83.6	263	14	
2025-07-13T00:00	15100	127	-52.9	-83.7	263	13	
2025-07-13T00:00	15150	126	-52.6	-83.9	265	13	
2025-07-13T00:00	15200	125	-52.2	-83.8	267	12	
2025-07-13T00:00	15250	124	-52.5	-83.8	268	12	
2025-07-13T00:00	15300	123	-52.7	-83.9	266	12	
2025-07-13T00:00	15350	122	-52.8	-83.9	268	12	
2025-07-13T00:00	15400	121	-52.7	-83.9	271	12	
2025-07-13T00:00	15450	120	-53.0	-83.9	274	12	
2025-07-13T00:00	15500	119	-53.4	-84.0	275	12	
2025-07-13T00:00	15550	118	-53.7	-84.2	277	12	
2025-07-13T00:00	15600	117	-53.7	-84.1	281	11	
2025-07-13T00:00	15650	116	-53.7	-84.2	285	10	
2025-07-13T00:00	15700	115	-53.6	-84.2	287	10	
2025-07-13T00:00	15750	114	-53.7	-84.2	286	10	
2025-07-13T00:00	15800	114	-53.8	-84.4	286	10	
2025-07-13T00:00	15850	113	-53.9	-84.4	288	10	
2025-07-13T00:00	15900	112	-53.9	-84.5	291	9	
2025-07-13T00:00	15950	111	-53.8	-84.5	294	9	
2025-07-13T00:00	16000	110	-53.9	-84.4	296	8	
2025-07-13T00:00	16050	109	-54.1	-84.6	296	7	
2025-07-13T00:00	16100	108	-54.3	-84.6	295	5	
2025-07-13T00:00	16150	107	-54.6	-84.7	288	4	
2025-07-13T00:00	16200	107	-54.8	-84.8	269	4	
2025-07-13T00:00	16250	106	-54.8	-85.0	246	4	
2025-07-13T00:00	16300	105	-54.7	-85.0	237	5	
2025-07-13T00:00	16350	104	-54.9	-85.2	240	5	
2025-07-13T00:00	16400	103	-54.4	-85.1	247	6	
2025-07-13T00:00	16450	103	-54.2	-85.1	253	7	
2025-07-13T00:00	16500	102	-54.3	-85.2	260	8	
2025-07-13T00:00	16550	101	-54.2	-85.3	258	7	
2025-07-13T00:00	16600	100	-53.4	-85.2	243	6	
2025-07-13T00:00	16650	99	-53.2	-85.1	227	6	
2025-07-13T00:00	16700	99	-53.3	-85.0	221	6	
2025-07-13T00:00	16750	98	-53.1	-84.9	226	6	
2025-07-13T00:00	16800	97	-53.2	-85.0	234	6	
2025-07-13T00:00	16850	96	-53.4	-85.1	236	7	
2025-07-13T00:00	16900	96	-53.3	-85.1	235	7	
2025-07-13T00:00	16950	95	-53.4	-85.1	234	8	
2025-07-13T00:00	17000	94	-53.7	-85.1	233	9	
2025-07-13T00:00	17050	93	-53.9	-85.1	234	9	
2025-07-13T00:00	17100	93	-54.2	-85.2	237	9	
2025-07-13T00:00	17150	92	-54.5	-85.4	240	8	
2025-07-13T00:00	17200	91	-54.5	-85.4	239	8	
2025-07-13T00:00	17250	91	-54.6	-85.6	237	7	
2025-07-13T00:00	17300	90	-54.6	-85.6	235	7	
2025-07-13T00:00	17350	89	-55.0	-85.6	233	6	
2025-07-13T00:00	17400	88	-55.1	-85.7	230	5	
2025-07-13T00:00	17450	88	-54.9	-85.7	224	5	
2025-07-13T00:00	17500	87	-55.0	-85.8	216	5	
2025-07-13T00:00	17550	86	-54.7	-85.8	209	6	
2025-07-13T00:00	17600	86	-54.7	-85.9	202	7	
2025-07-13T00:00	17650	85	-54.3	-85.7	200	7	
2025-07-13T00:00	17700	84	-54.5	-85.9	202	7	
2025-07-13T00:00	17750	84	-54.2	-86.1	199	7	
2025-07-13T00:00	17800	83	-52.9	-85.8	190	6	
2025-07-13T00:00	17850	82	-52.4	-85.6	181	6	
2025-07-13T00:00	17900	82	-52.5	-85.3	176	6	
2025-07-13T00:00	17950	81	-52.9	-85.2	174	6	
2025-07-13T00:00	18000	81	-53.3	-85.2	177	6	
2025-07-13T00:00	18050	80	-53.6	-85.4	185	6	
2025-07-13T00:00	18100	79	-53.6	-85.5	192	7	
2025-07-13T00:00	18150	79	-53.6	-85.5	194	8	
2025-07-13T00:00	18200	78	-53.9	-85.5	197	9	
2025-07-13T00:00	18250	77	-54.2	-85.7	203	9	
2025-07-13T00:00	18300	77	-54.2	-85.8	209	9	
2025-07-13T00:00	18350	76	-54.0	-85.8	217	8	
2025-07-13T00:00	18400	76	-53.9	-85.9	226	7	
2025-07-13T00:00	18450	75	-53.6	-85.8	239	6	
2025-07-13T00:00	18500	75	-53.2	-85.7	256	5	
2025-07-13T00:00	18550	74	-53.3	-85.7	279	4	
2025-07-13T00:00	18600	73	-53.3	-85.7	303	4	
2025-07-13T00:00	18650	73	-53.2	-85.6	326	4	
2025-07-13T00:00	18700	72	-53.1	-85.5	343	4	
2025-07-13T00:00	18750	72	-53.5	-85.5	357	4	
2025-07-13T00:00	18800	71	-53.9	-85.6	10	3	
2025-07-13T00:00	18850	71	-54.3	-85.7	26	3	
2025-07-13T00:00	18900	70	-54.6	-85.9	52	3	
2025-07-13T00:00	18950	70	-55.0	-86.1	92	2	
2025-07-13T00:00	19000	69	-54.7	-86.3	141	3	
2025-07-13T00:00	19050	68	-54.0	-86.3	167	3	
2025-07-13T00:00	19100	68	-53.7	-86.2	179	3	
2025-07-13T00:00	19150	67	-53.7	-86.1	185	3	
2025-07-13T00:00	19200	67	-53.5	-86.0	183	2	
2025-07-13T00:00	19250	66	-53.2	-85.9	145	1	
2025-07-13T00:00	19300	66	-53.1	-85.8	110	2	
2025-07-13T00:00	19350	65	-53.2	-85.8	106	3	
2025-07-13T00:00	19400	65	-53.2	-85.8	103	4	
2025-07-13T00:00	19450	64	-53.5	-85.8	98	5	
2025-07-13T00:00	19500	64	-53.9	-85.9	95	5	
2025-07-13T00:00	19550	63	-53.9	-86.0	97	5	
2025-07-13T00:00	19600	63	-54.0	-85.9	101	5	
2025-07-13T00:00	19650	62	-54.2	-86.0	99	4	
2025-07-13T00:00	19700	62	-54.5	-86.1	90	4	
2025-07-13T00:00	19750	61	-54.5	-86.2	83	4	
2025-07-13T00:00	19800	61	-54.5	-86.3	85	4	
2025-07-13T00:00	19850	60	-54.5	-86.3	94	4	
2025-07-13T00:00	19900	60	-54.4	-86.3	101	4	
2025-07-13T00:00	19950	59	-54.4	-86.4	103	4	
2025-07-13T00:00	20000	59	-54.3	-86.3	98	5	
2025-07-13T00:00	20050	59	-54.5		89	5	
2025-07-13T00:00	20100	58	-54.4		81	6	
2025-07-13T00:00	20150	58	-54.5		77	6	
2025-07-13T00:00	20200	57	-54.6		81	7	
2025-07-13T00:00	20250	57	-54.5		91	7	
2025-07-13T00:00	20300	56	-54.7		100	9	
2025-07-13T00:00	20350	56	-54.5		107	9	
2025-07-13T00:00	20400	55	-54.6		116	10	
2025-07-13T00:00	20450	55	-54.8		124	10	
2025-07-13T00:00	20500	55	-54.9		130	10	
2025-07-13T00:00	20550	54	-54.7		134	10	
2025-07-13T00:00	20600	54	-54.3		139	9	
2025-07-13T00:00	20650	53	-54.1		140	8	
2025-07-13T00:00	20700	53	-54.0		138	8	
2025-07-13T00:00	20750	52	-53.7		141	8	
2025-07-13T00:00	20800	52	-53.5		149	7	
2025-07-13T00:00	20850	52	-53.6		151	6	
2025-07-13T00:00	20900	51	-53.4		146	6	
2025-07-13T00:00	20950	51	-52.9		138	7	
2025-07-13T00:00	21000	50	-52.7		132	8	
2025-07-13T00:00	21050	50	-53.0		127	9	
2025-07-13T00:00	21100	50	-53.3		126	10	
2025-07-13T00:00	21150	49	-53.2		125	10	
2025-07-13T00:00	21200	49	-53.4		126	11	
2025-07-13T00:00	21250	49	-53.8		128	11	
2025-07-13T00:00	21300	48	-54.1		132	11	
2025-07-13T00:00	21350	48	-53.9		138	10	
2025-07-13T00:00	21400	47	-53.9		142	8	
2025-07-13T00:00	21450	47	-53.9		144	7	
2025-07-13T00:00	21500	47	-53.9		143	5	
2025-07-13T00:00	21550	46	-53.3		141	5	
2025-07-13T00:00	21600	46	-53.0		139	5	
2025-07-13T00:00	21650	46	-53.1		130	5	
2025-07-13T00:00	21700	45	-52.8		123	6	
2025-07-13T00:00	21750	45	-52.7		118	7	
2025-07-13T00:00	21800	45	-52.6		115	7	
2025-07-13T00:00	21850	44	-52.5		113	6	
2025-07-13T00:00	21900	44	-52.0		113	5	
2025-07-13T00:00	21950	44	-51.9		114	4	
2025-07-13T00:00	22000	43	-52.0		117	3	
2025-07-13T00:00	22050	43	-52.1		111	2	
2025-07-13T00:00	22100	43	-51.8		97	4	
2025-07-13T00:00	22150	42	-51.9		92	5	
2025-07-13T00:00	22200	42	-52.1		93	7	
2025-07-13T00:00	22250	42	-52.3		97	8	
2025-07-13T00:00	22300	41	-52.4		96	8	
2025-07-13T00:00	22350	41	-52.0		91	8	
2025-07-13T00:00	22400	41	-51.7		86	8	
2025-07-13T00:00	22450	40	-51.6		83	9	
2025-07-13T00:00	22500	40	-51.7		81	9	
2025-07-13T00:00	22550	40	-51.8		80	9	
2025-07-13T00:00	22600	39	-52.0		83	9	
2025-07-13T00:00	22650	39	-51.9		89	9	
2025-07-13T00:00	22700	39	-52.0		99	9	
2025-07-13T00:00	22750	38	-52.3		108	9	
2025-07-13T00:00	22800	38	-52.7		116	10	
2025-07-13T00:00	22850	38	-53.0		122	9	
2025-07-13T00:00	22900	38	-53.0		123	9	
2025-07-13T00:00	22950	37	-52.1		117	8	
2025-07-13T00:00	23000	37	-51.6		107	8	
2025-07-13T00:00	23050	37	-51.0		100	9	
2025-07-13T00:00	23100	36	-50.5		96	9	
2025-07-13T00:00	23150	36	-50.4		97	10	
2025-07-13T00:00	23200	36	-50.5		99	10	
2025-07-13T00:00	23250	36	-50.8		98	10	
2025-07-13T00:00	23300	35	-50.9		97	10	
2025-07-13T00:00	23350	35	-50.8		96	10	
2025-07-13T00:00	23400	35	-50.9		93	10	
2025-07-13T00:00	23450	35	-51.0		90	9	
2025-07-13T00:00	23500	34	-50.9		92	9	
2025-07-13T00:00	23550	34	-50.6		102	9	
2025-07-13T00:00	23600	34	-50.2		110	10	
2025-07-13T00:00	23650	34	-50.4		116	11	
2025-07-13T00:00	23700	33	-50.6		120	12	
2025-07-13T00:00	23750	33	-50.9		125	12	
2025-07-13T00:00	23800	33	-51.2		130	13	
2025-07-13T00:00	23850	32	-51.6		134	13	
2025-07-13T00:00	23900	32	-51.8		134	13	
2025-07-13T00:00	23950	32	-51.6		132	12	
2025-07-13T00:00	24000	32	-51.5		130	11	
2025-07-13T00:00	24050	32	-51.3		128	10	
2025-07-13T00:00	24100	31	-51.5		126	10	
2025-07-13T00:00	24150	31	-51.5		122	9	
2025-07-13T00:00	24200	31	-51.7		119	8	
2025-07-13T00:00	24250	31	-51.6		114	7	
2025-07-13T00:00	24300	30	-51.6		111	7	
2025-07-13T00:00	24350	30	-51.7		111	7	
2025-07-13T00:00	24400	30	-51.8		112	7	
2025-07-13T00:00	24450	30	-51.8		111	8	
2025-07-13T00:00	24500	29	-51.6		111	9	
2025-07-13T00:00	24550	29	-51.0		113	10	
2025-07-13T00:00	24600	29	-51.1		119	11	
2025-07-13T00:00	24650	29	-51.1		127	11	
2025-07-13T00:00	24700	29	-51.2		135	11	
2025-07-13T00:00	24750	28	-51.3		140	10	
2025-07-13T00:00	24800	28	-51.0		141	9	
2025-07-13T00:00	24850	28	-50.7		137	7	
2025-07-13T00:00	24900	28	-50.5		132	7	
2025-07-13T00:00	24950	27	-50.4		126	7	
2025-07-13T00:00	25000	27	-50.2		115	7	
2025-07-13T00:00	25050	27	-49.9		102	7	
2025-07-13T00:00	25100	27	-49.7		89	8	
2025-07-13T00:00	25150	27	-49.2		81	8	
2025-07-13T00:00	25200	26	-48.9		78	9	
2025-07-13T00:00	25250	26	-48.7		72	10	
2025-07-13T00:00	25300	26	-48.0		68	12	
2025-07-13T00:00	25350	26	-47.5		69	13	
2025-07-13T00:00	25400	26	-47.3		74	15	
2025-07-13T00:00	25450	25	-47.0		79	15	
2025-07-13T00:00	25500	25	-47.1		83	16	
2025-07-13T00:00	25550	25	-47.3		87	16	
2025-07-13T00:00	25600	25	-47.5		90	16	
2025-07-13T00:00	25650	25	-47.5		93	16	
2025-07-13T00:00	25700	24	-47.4		94	15	
2025-07-13T00:00	25750	24	-47.6		92	15	
2025-07-13T00:00	25800	24	-47.6		90	15	
2025-07-13T00:00	25850	24	-47.5		88	15	
2025-07-13T00:00	25900	24	-47.3		90	15	
2025-07-13T00:00	25950	24	-46.8		92	15	
2025-07-13T00:00	26000	23	-46.7		94	14	
2025-07-13T00:00	26050	23	-46.7		94	14	
2025-07-13T00:00	26100	23	-46.6		91	13	
2025-07-13T00:00	26150	23	-46.4		86	12	
2025-07-13T00:00	26200	23	-46.1		80	12	
2025-07-13T00:00	26250	23	-45.9		78	12	
2025-07-13T00:00	26300	22	-45.8		80	12	
2025-07-13T00:00	26350	22	-45.7		84	13	
2025-07-13T00:00	26400	22	-45.9		88	13	
2025-07-13T00:00	26450	22	-45.9		88	14	
2025-07-13T00:00	26500	22	-45.4		85	15	
2025-07-13T00:00	26550	22	-45.1		83	16	
2025-07-13T00:00	26600	21	-44.7		84	16	
2025-07-13T00:00	26650	21	-44.4		84	16	
2025-07-13T00:00	26700	21	-44.2		82	15	
2025-07-13T00:00	26750	21	-44.0		81	14	
2025-07-13T00:00	26800	21	-43.8		84	15	
2025-07-13T00:00	26850	21	-43.7		88	16	
2025-07-13T00:00	26900	20	-43.5		88	16	
2025-07-13T00:00	26950	20	-43.2		86	16	
2025-07-13T00:00	27000	20	-43.1		84	15	
2025-07-13T00:00	27050	20	-42.8		84	15	
2025-07-13T00:00	27100	20	-42.5		86	16	
2025-07-13T00:00	27150	20	-42.5		88	17	
2025-07-13T00:00	27200	20	-42.6		91	17	
2025-07-13T00:00	27250	19	-42.8		95	18	
2025-07-13T00:00	27300	19	-43.1		99	19	
2025-07-13T00:00	27350	19	-43.2		102	19	
2025-07-13T00:00	27400	19	-42.9		104	18	
2025-07-13T00:00	27450	19	-42.9		102	17	
2025-07-13T00:00	27500	19	-42.8		99	16	
2025-07-13T00:00	27550	19	-42.6		96	17	
2025-07-13T00:00	27600	18	-42.3		94	19	
2025-07-13T00:00	27650	18	-42.3		95	20	
2025-07-13T00:00	27700	18	-42.4		96	21	
2025-07-13T00:00	27750	18	-42.2		97	20	
2025-07-13T00:00	27800	18	-42.0		97	18	
2025-07-13T00:00	27850	18	-41.8		95	16	
2025-07-13T00:00	27900	18	-42.0		94	15	
2025-07-13T00:00	27950	17	-42.0		93	14	
2025-07-13T00:00	28000	17	-42.1		91	15	
2025-07-13T00:00	28050	17	-42.1		91	15	
2025-07-13T00:00	28100	17	-42.4		94	17	
2025-07-13T00:00	28150	17	-42.4		99	17	
2025-07-13T00:00	28200	17	-42.3		103	18	
2025-07-13T00:00	28250	17	-42.1		105	18	
2025-07-13T00:00	28300	17	-41.8		104	17	
2025-07-13T00:00	28350	16	-41.5		102	17	
2025-07-13T00:00	28400	16	-41.1		100	16	
2025-07-13T00:00	28450	16	-40.8		99	16	
2025-07-13T00:00	28500	16	-40.5		97	15	
2025-07-13T00:00	28550	16	-40.5		95	15	
2025-07-13T00:00	28600	16	-40.5		93	16	
2025-07-13T00:00	28650	16	-40.4		92	17	
2025-07-13T00:00	28700	16	-40.5		93	18	
2025-07-13T00:00	28750	16	-40.8		94	19	
2025-07-13T00:00	28800	15	-40.9		95	19	
2025-07-13T00:00	28850	15	-41.0		97	19	
2025-07-13T00:00	28900	15	-41.2		101	19	
2025-07-13T00:00	28950	15	-41.2		104	18	
2025-07-13T00:00	29000	15	-41.3		108	18	
2025-07-13T00:00	29050	15	-41.7		113	17	
2025-07-13T00:00	29100	15	-41.9		117	17	
2025-07-13T00:00	29150	15	-42.1		120	16	
2025-07-13T00:00	29200	15	-41.9		121	15	
2025-07-13T00:00	29250	14	-41.8		122	14	
2025-07-13T00:00	29300	14	-41.8		120	13	
2025-07-13T00:00	29350	14	-41.6		118	12	
2025-07-13T00:00	29400	14	-41.5		114	11	
2025-07-13T00:00	29450	14	-41.4		109	11	
2025-07-13T00:00	29500	14	-41.3		106	11	
2025-07-13T00:00	29550	14	-41.4		104	11	
2025-07-13T00:00	29600	14	-41.4		103	12	
2025-07-13T00:00	29650	14	-41.5		103	12	
2025-07-13T00:00	29700	14	-41.6		102	13	
2025-07-13T00:00	29750	13	-41.5		100	13	
2025-07-13T00:00	29800	13	-41.4		99	13	
2025-07-13T00:00	29850	13	-41.4		98	13	
2025-07-13T00:00	29900	13	-41.4		98	13	
2025-07-13T00:00	29950	13	-41.3		99	12	
2025-07-13T00:00	30000	13	-41.3		100	12	
2025-07-13T00:00	30050	13	-41.3		99	11	
2025-07-13T00:00	30100	13	-41.4		98	11	
2025-07-13T00:00	30150	13	-41.5		98	10	
2025-07-13T00:00	30200	13	-41.5		99	10	
2025-07-13T00:00	30250	12	-41.4		98	9	
2025-07-13T00:00	30300	12	-41.4		94	10	
2025-07-13T00:00	30350	12	-41.2		90	11	
2025-07-13T00:00	30400	12	-41.0		88	13	
2025-07-13T00:00	30450	12	-40.9		90	14	
2025-07-13T00:00	30500	12	-40.9		92	15	
2025-07-13T00:00	30550	12	-40.9		95	14	
2025-07-13T00:00	30600	12	-40.9		95	13	
2025-07-13T00:00	30650	12	-40.7		93	13	
2025-07-13T00:00	30700	12	-40.6		94	14	
2025-07-13T00:00	30750	12	-40.5		95	16	
2025-07-13T00:00	30800	11	-40.4		98	18	
2025-07-13T00:00	30850	11	-40.2		101	19	
2025-07-13T00:00	30900	11	-40.3		105	19	
2025-07-13T00:00	30950	11	-40.4		108	19	
2025-07-13T00:00	31000	11	-40.3		110	19	
2025-07-13T00:00	31050	11	-40.2		112	18	
2025-07-13T00:00	31100	11	-40.2		112	16	
2025-07-13T00:00	31150	11	-40.2		113	15	
2025-07-13T00:00	31200	11	-40.1		113	14	
2025-07-13T00:00	31250	11	-40.2		113	13	
2025-07-13T00:00	31300	11	-40.2		111	12	
2025-07-13T00:00	31350	11	-40.4		108	12	
2025-07-13T00:00	31400	11	-40.5		105	12	
2025-07-13T00:00	31450	10	-40.5		102	12	
2025-07-13T00:00	31500	10	-40.5		101	13	
2025-07-13T00:00	31550	10	-40.6		101	14	
2025-07-13T00:00	31600	10	-40.6		102	16	
2025-07-13T00:00	31650	10	-40.7		103	16	
2025-07-13T00:00	31700	10	-40.3		104	16	
2025-07-13T00:00	31750	10	-40.0		104	16	
2025-07-13T00:00	31800	10	-39.6		103	16	
2025-07-13T00:00	31850	10	-39.4		102	16	
2025-07-13T00:00	31900	10	-39.2		100	17	
2025-07-13T00:00	31950	10	-38.9		99	17	
2025-07-13T00:00	32000	10	-38.5		100	17	
2025-07-13T00:00	32050	10	-38.2		102	17	
2025-07-13T00:00	32100	10	-37.8		100	16	
2025-07-13T00:00	32150	9	-37.3		93	15	
2025-07-13T00:00	32200	9	-36.9		85	14	
2025-07-13T00:00	32250	9	-36.4		80	15	
2025-07-13T00:00	32300	9	-36.1		79	15	
2025-07-13T00:00	32350	9	-36.0		80	15	
2025-07-13T00:00	32400	9	-36.1		82	15	
2025-07-13T00:00	32450	9	-36.1		85	15	
2025-07-13T00:00	32500	9	-36.1		88	16	
2025-07-13T00:00	32550	9	-36.1		88	17	
2025-07-13T00:00	32600	9	-36.2		88	18	
2025-07-13T00:00	32650	9	-36.4		88	19	
2025-07-13T00:00	32700	9	-36.6		91	20	
2025-07-13T00:00	32750	9	-36.6		93	21	
2025-07-13T00:00	32800	9	-36.6		96	21	
2025-07-13T00:00	32850	9	-36.5		97	20	
2025-07-13T00:00	32900	8	-36.4		97	19	
2025-07-13T00:00	32950	8	-36.4		95	18	
2025-07-13T00:00	33000	8	-36.6		94	17	
2025-07-13T00:00	33050	8	-36.6		93	16	
2025-07-13T00:00	33100	8	-36.6		92	15	
2025-07-13T00:00	33150	8	-36.5		90	15	
2025-07-13T00:00	33200	8	-36.3		88	16	
2025-07-13T00:00	33250	8	-36.2		85	16	
2025-07-13T00:00	33300	8	-36.2		83	17	
2025-07-13T00:00	33350	8	-36.0		81	18	
2025-07-13T00:00	33400	8	-35.9		79	19	
2025-07-13T00:00	33450	8	-35.7		76	20	
2025-07-13T00:00	33500	8	-35.6		75	21	
2025-07-13T00:00	33550	8	-35.3		76	23	
2025-07-13T00:00	33600	8	-35.0		78	23	
2025-07-13T00:00	33650	8	-34.7		81	23	
2025-07-13T00:00	33700	8	-34.0		83	21	
2025-07-13T00:00	33750	7	-33.9		83	20	
2025-07-13T00:00	33800	7	-33.7		81	19	
2025-07-13T00:00	33850	7	-33.3		78	19	
2025-07-13T00:00	33900	7	-33.2		76	20	
2025-07-13T00:00	33950	7	-33.1		78	21	
2025-07-13T00:00	34000	7	-32.8		81	23	
2025-07-13T00:00	34050	7	-32.7		84	24	
2025-07-13T00:00	34100	7	-32.5		87	24	
2025-07-13T00:00	34150	7	-32.2		89	23	
2025-07-13T00:00	34200	7	-32.1		90	23	
2025-07-13T00:00	34250	7	-32.1		90	23	
2025-07-13T00:00	34300	7	-31.7		90	23	
2025-07-13T00:00	34350	7	-31.3		88	23	
2025-07-13T00:00	34400	7	-30.8		86	23	
2025-07-13T00:00	34450	7	-30.5		84	23	
2025-07-13T00:00	34500	7	-30.3		80	23	
2025-07-13T00:00	34550	7	-30.0		79	23	
2025-07-13T00:00	34600	7	-29.6		78	24	
2025-07-13T00:00	34650	7	-29.2		79	25	
2025-07-13T00:00	34700	7	-29.1		80	26	
2025-07-13T00:00	34750	6	-29.3		80	26	
2025-07-13T00:00	34800	6	-29.3		80	25	
2025-07-13T00:00	34850	6	-29.3		80	25	
2025-07-13T00:00	34900	6	-29.4		80	25	
2025-07-13T00:00	34950	6	-29.5		80	25	
2025-07-13T00:00	35000	6	-29.5		80	25	
2025-07-13T00:00	35050	6	-29.5		80	25	
2025-07-13T00:00	35100	6	-29.4		79	25	
2025-07-13T00:00	35150	6	-29.3		79	24	
2025-07-13T00:00	35200	6	-29.0		80	24	
2025-07-13T00:00	35250	6	-28.8		81	24	
2025-07-13T00:00	35300	6	-28.8		80	23	
2025-07-13T00:00	35350	6	-28.7		78	23	
2025-07-13T00:00	35400	6	-28.3		73	23	
2025-07-13T00:00	35450	6	-27.9		69	24	
2025-07-13T00:00	35500	6	-27.4		68	25	
2025-07-13T00:00	35550	6	-26.5		72	25	
2025-07-13T00:00	35600	6	-26.3		77	26	
2025-07-13T00:00	35650	6	-26.3		81	27	
2025-07-13T00:00	35700	6	-26.3		84	27	
2025-07-13T00:00	35750	6	-26.2		85	26	
2025-07-13T00:00	35800	6	-26.2		84	25	
2025-07-13T00:00	35850	6	-26.2		83	25	
2025-07-13T00:00	35900	6	-26.0		82	25	
2025-07-13T00:00	35950	6	-25.9		82	25	
2025-07-13T00:00	36000	5	-25.8		82	26	
2025-07-13T00:00	36050	5	-25.6		83	26	
2025-07-13T00:00	36100	5	-25.4		85	26	
2025-07-13T00:00	36150	5	-25.2		87	26	
2025-07-13T00:00	36200	5	-25.0		87	26	
2025-07-13T00:00	36250	5	-24.7		85	26	
2025-07-13T00:00	36300	5	-24.4		83	27	
2025-07-13T00:00	36350	5	-24.3		81	28	
2025-07-13T00:00	36400	5	-24.1		80	29	
2025-07-13T00:00	36450	5	-23.6		81	29	
2025-07-13T00:00	36500	5	-23.5		83	28	
2025-07-13T00:00	36550	5	-23.5		85	27	
2025-07-13T00:00	36600	5	-23.3		87	26	
2025-07-13T00:00	36650	5	-23.2		88	27	
2025-07-13T00:00	36700	5	-22.8		89	28	
2025-07-13T00:00	36750	5	-22.4		89	30	
2025-07-13T00:00	36800	5	-22.0		89	30	
2025-07-13T00:00	36850	5	-22.1		91	30	
2025-07-13T00:00	36900	5	-22.2		94	29	
2025-07-13T00:00	36950	5	-22.1		95	30	
2025-07-13T00:00	37000	5	-21.8		95	30	
2025-07-13T00:00	37050	5	-21.8		94	29	
2025-07-13T00:00	37100	5	-21.8		94	28	
2025-07-13T00:00	37150	5	-21.8		95	27	
2025-07-13T00:00	37200	5	-21.9		95	25	
2025-07-13T00:00	37250	5	-21.8		96	24	
2025-07-13T00:00	37300	5	-21.8		96	23	
2025-07-13T00:00	37350	5	-21.7		95	23	
2025-07-13T00:00	37400	5	-21.4		94	22	
2025-07-13T00:00	37450	4	-21.1		93	21	
2025-07-13T00:00	37500	4	-21.0		94	21	
2025-07-13T00:00	37550	4	-20.9		95	21	
2025-07-13T00:00	37600	4	-20.8		95	21	
2025-07-13T00:00	37650	4	-20.9		94	20	
2025-07-13T00:00	37700	4	-20.9		92	20	
2025-07-13T00:00	37750	4	-20.6		90	19	
2025-07-13T00:00	37800	4	-20.2		89	18	
2025-07-13T00:00	37850	4	-20.2		89	17	
2025-07-13T00:00	37900	4	-20.3		91	16	
2025-07-13T12:00	491	957	24.8	16.5	39	1	
2025-07-13T12:00	501	955	24.4	16.8	39	1	
2025-07-13T12:00	520	954	23.6	16.7	36	1	
2025-07-13T12:00	540	951	23.2	16.0	32	1	
2025-07-13T12:00	560	949	22.9	15.8	28	1	
2025-07-13T12:00	580	947	22.8	15.8	26	1	
2025-07-13T12:00	600	945	22.6	15.5	28	1	
2025-07-13T12:00	620	943	22.3	15.3	36	1	
2025-07-13T12:00	640	940	22.1	15.3	60	0	
2025-07-13T12:00	660	938	21.8	15.0	123	0	
2025-07-13T12:00	680	936	21.6	15.0	154	1	
2025-07-13T12:00	700	934	21.4	14.9	164	1	
2025-07-13T12:00	720	932	21.2	14.8	172	2	
2025-07-13T12:00	740	930	21.0	15.0	181	2	
2025-07-13T12:00	760	928	20.9	14.9	190	2	
2025-07-13T12:00	780	926	20.7	14.9	197	2	
2025-07-13T12:00	800	923	20.5	14.8	202	2	
2025-07-13T12:00	820	921	20.3	14.7	204	2	
2025-07-13T12:00	840	919	20.1	14.6	201	2	
2025-07-13T12:00	860	917	19.9	14.6	195	2	
2025-07-13T12:00	880	915	19.7	14.5	185	2	
2025-07-13T12:00	900	913	19.5	14.3	173	2	
2025-07-13T12:00	920	911	19.3	14.2	162	2	
2025-07-13T12:00	940	909	19.2	14.2	154	2	
2025-07-13T12:00	960	906	19.0	14.2	146	2	
2025-07-13T12:00	980	904	18.8	14.2	142	2	
2025-07-13T12:00	1000	902	18.6	14.1	140	2	
2025-07-13T12:00	1020	900	18.4	14.0	140	2	
2025-07-13T12:00	1040	898	18.2	14.1	141	2	
2025-07-13T12:00	1060	896	18.0	14.0	142	2	
2025-07-13T12:00	1080	894	17.8	14.0	144	2	
2025-07-13T12:00	1100	892	17.6	14.0	147	3	
2025-07-13T12:00	1120	890	17.4	13.8	147	3	
2025-07-13T12:00	1140	888	17.3	13.7	147	3	
2025-07-13T12:00	1160	886	17.1	13.7	147	3	
2025-07-13T12:00	1180	883	16.9	13.5	147	3	
2025-07-13T12:00	1200	881	16.7	13.6	148	4	
2025-07-13T12:00	1220	879	16.5	13.6	150	4	
2025-07-13T12:00	1240	877	16.3	13.7	153	4	
2025-07-13T12:00	1260	875	16.1	13.7	159	4	
2025-07-13T12:00	1280	873	16.0	13.7	167	4	
2025-07-13T12:00	1300	871	15.8	13.5	179	4	
2025-07-13T12:00	1320	869	15.7	13.3	190	5	
2025-07-13T12:00	1340	867	15.5	13.4	198	5	
2025-07-13T12:00	1360	865	15.4	12.8	204	5	
2025-07-13T12:00	1380	863	15.4	12.1	210	6	
2025-07-13T12:00	1400	861	15.2	12.4	213	6	
2025-07-13T12:00	1420	859	15.0	12.2	215	7	
2025-07-13T12:00	1440	857	15.0	11.6	215	7	
2025-07-13T12:00	1460	855	15.1	10.9	215	7	
2025-07-13T12:00	1480	853	15.0	10.5	214	7	
2025-07-13T12:00	1500	851	14.9	10.6	213	8	
2025-07-13T12:00	1520	849	14.7	10.5	213	8	
2025-07-13T12:00	1540	847	14.5	10.4	212	8	
2025-07-13T12:00	1560	845	14.4	10.2	212	8	
2025-07-13T12:00	1580	843	14.2	10.1	212	8	
2025-07-13T12:00	1600	841	14.0	10.0	213	8	
2025-07-13T12:00	1620	839	13.9	9.6	215	9	
2025-07-13T12:00	1640	837	13.8	9.6	216	9	
2025-07-13T12:00	1660	835	13.6	9.3	218	9	
2025-07-13T12:00	1680	833	13.5	9.1	220	9	
2025-07-13T12:00	1700	831	13.3	9.1	222	9	
2025-07-13T12:00	1720	829	13.1	8.9	224	9	
2025-07-13T12:00	1740	827	13.0	8.6	226	8	
2025-07-13T12:00	1760	825	13.0	7.8	229	8	
2025-07-13T12:00	1780	823	13.1	6.9	231	8	
2025-07-13T12:00	1800	821	13.1	6.9	233	8	
2025-07-13T12:00	1820	819	13.0	7.1	235	8	
2025-07-13T12:00	1840	817	12.8	7.4	237	8	
2025-07-13T12:00	1860	816	12.7	7.5	238	8	
2025-07-13T12:00	1880	814	12.5	7.5	239	8	
2025-07-13T12:00	1900	812	12.4	7.4	241	8	
2025-07-13T12:00	1920	810	12.2	7.4	242	8	
2025-07-13T12:00	1940	808	12.0	7.4	244	8	
2025-07-13T12:00	1960	805	11.8	7.3	245	8	
2025-07-13T12:00	1980	804	11.7	7.1	247	8	
2025-07-13T12:00	2000	802	11.5	7.3	248	8	
2025-07-13T12:00	2020	800	11.4	7.4	250	8	
2025-07-13T12:00	2040	798	11.4	7.6	251	8	
2025-07-13T12:00	2060	796	11.2	7.7	251	8	
2025-07-13T12:00	2080	794	11.1	7.6	251	9	
2025-07-13T12:00	2100	792	11.0	7.4	251	9	
2025-07-13T12:00	2120	790	10.9	6.9	251	9	
2025-07-13T12:00	2140	788	10.7	6.8	251	9	
2025-07-13T12:00	2160	787	10.6	6.2	251	10	
2025-07-13T12:00	2180	785	10.5	5.4	251	10	
2025-07-13T12:00	2200	783	10.4	5.1	251	9	
2025-07-13T12:00	2220	781	10.2	5.1	250	9	
2025-07-13T12:00	2240	779	10.0	5.2	249	9	
2025-07-13T12:00	2260	777	9.9	5.0	247	9	
2025-07-13T12:00	2280	775	9.7	5.4	246	9	
2025-07-13T12:00	2300	773	9.5	5.5	245	9	
2025-07-13T12:00	2320	771	9.3	5.8	246	9	
2025-07-13T12:00	2340	770	9.1	6.1	247	9	
2025-07-13T12:00	2360	768	8.9	6.3	247	9	
2025-07-13T12:00	2380	766	8.8	6.1	247	9	
2025-07-13T12:00	2400	764	8.7	5.6	247	9	
2025-07-13T12:00	2420	762	8.6	5.4	246	9	
2025-07-13T12:00	2440	760	8.4	5.5	245	9	
2025-07-13T12:00	2460	759	8.2	5.3	245	9	
2025-07-13T12:00	2480	757	8.2	5.0	245	9	
2025-07-13T12:00	2500	755	8.2	4.7	246	9	
2025-07-13T12:00	2520	753	8.0	4.6	248	9	
2025-07-13T12:00	2540	751	8.0	3.8	249	9	
2025-07-13T12:00	2560	749	7.9	2.9	250	9	
2025-07-13T12:00	2580	748	7.8	2.5	251	9	
2025-07-13T12:00	2600	746	7.6	2.4	251	9	
2025-07-13T12:00	2620	744	7.5	2.2	249	9	
2025-07-13T12:00	2640	742	7.3	2.1	247	9	
2025-07-13T12:00	2660	740	7.2	2.0	244	9	
2025-07-13T12:00	2680	739	7.0	2.1	240	9	
2025-07-13T12:00	2700	737	6.8	2.0	237	8	
2025-07-13T12:00	2720	735	6.6	2.1	234	8	
2025-07-13T12:00	2740	733	6.5	2.3	233	8	
2025-07-13T12:00	2760	732	6.4	2.2	232	7	
2025-07-13T12:00	2780	730	6.3	1.9	232	7	
2025-07-13T12:00	2800	728	6.3	2.1	233	7	
2025-07-13T12:00	2820	726	6.1	2.2	236	7	
2025-07-13T12:00	2840	725	5.9	2.1	239	7	
2025-07-13T12:00	2860	723	5.7	2.2	242	7	
2025-07-13T12:00	2880	721	5.5	2.1	245	7	
2025-07-13T12:00	2900	719	5.3	2.1	248	7	
2025-07-13T12:00	2920	717	5.1	2.0	250	7	
2025-07-13T12:00	2940	716	5.0	1.9	249	7	
2025-07-13T12:00	2960	714	4.8	2.0	247	7	
2025-07-13T12:00	2980	712	4.6	2.0	244	7	
2025-07-13T12:00	3000	710	4.4	1.9	242	7	
2025-07-13T12:00	3020	709	4.3	1.7	240	8	
2025-07-13T12:00	3040	707	4.2	1.6	241	8	
2025-07-13T12:00	3060	705	4.0	1.5	242	8	
2025-07-13T12:00	3080	704	3.9	1.6	244	8	
2025-07-13T12:00	3100	702	3.7	1.4	247	8	
2025-07-13T12:00	3120	700	3.5	1.4	249	8	
2025-07-13T12:00	3140	698	3.4	1.1	251	8	
2025-07-13T12:00	3160	697	3.3	1.0	252	8	
2025-07-13T12:00	3180	695	3.2	0.8	251	8	
2025-07-13T12:00	3200	693	3.1	0.7	250	8	
2025-07-13T12:00	3220	692	2.9	0.6	249	8	
2025-07-13T12:00	3240	690	2.7	0.6	249	8	
2025-07-13T12:00	3260	688	2.5	0.5	248	9	
2025-07-13T12:00	3280	686	2.4	0.4	248	9	
2025-07-13T12:00	3300	685	2.2	0.2	249	9	
2025-07-13T12:00	3320	683	2.0	0.2	250	9	
2025-07-13T12:00	3340	681	1.9	0.0	250	9	
2025-07-13T12:00	3360	680	1.7	0.0	251	8	
2025-07-13T12:00	3380	678	1.6	-0.2	250	8	
2025-07-13T12:00	3400	676	1.6	-0.4	250	8	
2025-07-13T12:00	3420	675	1.4	-0.4	249	8	
2025-07-13T12:00	3440	673	1.3	-0.4	249	8	
2025-07-13T12:00	3460	671	1.1	-0.6	249	8	
2025-07-13T12:00	3480	669	1.0	-0.7	249	9	
2025-07-13T12:00	3500	668	0.8	-0.8	250	9	
2025-07-13T12:00	3520	666	0.6	-0.8	250	9	
2025-07-13T12:00	3540	665	0.4	-0.9	252	9	
2025-07-13T12:00	3560	663	0.3	-1.0	254	9	
2025-07-13T12:00	3580	661	0.2	-1.2	256	9	
2025-07-13T12:00	3600	660	0.0	-1.2	258	9	
2025-07-13T12:00	3620	658	-0.1	-1.4	260	8	
2025-07-13T12:00	3640	656	-0.2	-1.8	261	8	
2025-07-13T12:00	3660	655	-0.2	-2.0	262	8	
2025-07-13T12:00	3680	653	-0.3	-2.3	263	8	
2025-07-13T12:00	3700	652	-0.4	-2.8	264	8	
2025-07-13T12:00	3720	650	-0.6	-3.1	265	9	
2025-07-13T12:00	3740	648	-0.7	-3.4	266	9	
2025-07-13T12:00	3760	647	-0.9	-3.5	268	9	
2025-07-13T12:00	3780	645	-1.0	-3.7	269	9	
2025-07-13T12:00	3800	643	-1.1	-4.2	271	9	
2025-07-13T12:00	3820	642	-1.2	-4.4	274	9	
2025-07-13T12:00	3840	640	-1.4	-4.6	276	9	
2025-07-13T12:00	3860	638	-1.6	-4.7	277	9	
2025-07-13T12:00	3880	637	-1.7	-4.9	278	9	
2025-07-13T12:00	3900	635	-1.8	-5.1	278	9	
2025-07-13T12:00	3920	634	-2.0	-5.6	278	9	
2025-07-13T12:00	3940	632	-2.2	-5.8	277	9	
2025-07-13T12:00	3960	630	-2.3	-6.3	276	9	
2025-07-13T12:00	3980	629	-2.5	-6.4	276	9	
2025-07-13T12:00	4000	627	-2.7	-6.3	276	10	
2025-07-13T12:00	4020	626	-2.9	-6.8	276	10	
2025-07-13T12:00	4040	624	-3.0	-7.2	275	10	
2025-07-13T12:00	4060	623	-3.2	-7.5	275	10	
2025-07-13T12:00	4080	621	-3.3	-7.8	275	10	
2025-07-13T12:00	4100	619	-3.4	-8.8	275	9	
2025-07-13T12:00	4120	618	-3.5	-9.8	276	9	
2025-07-13T12:00	4140	617	-3.7	-10.1	276	9	
2025-07-13T12:00	4160	615	-3.7	-10.3	277	8	
2025-07-13T12:00	4180	613	-3.7	-11.5	278	8	
2025-07-13T12:00	4200	612	-3.8	-11.9	278	8	
2025-07-13T12:00	4220	610	-3.9	-11.8	277	8	
2025-07-13T12:00	4240	609	-4.1	-11.8	276	8	
2025-07-13T12:00	4260	607	-4.2	-11.8	275	8	
2025-07-13T12:00	4280	606	-4.4	-11.6	275	8	
2025-07-13T12:00	4300	604	-4.6	-11.5	275	9	
2025-07-13T12:00	4320	602	-4.8	-11.3	276	9	
2025-07-13T12:00	4340	601	-5.0	-10.6	278	9	
2025-07-13T12:00	4360	600	-5.1	-10.4	280	9	
2025-07-13T12:00	4380	598	-5.2	-10.9	281	10	
2025-07-13T12:00	4400	596	-5.2	-11.0	282	10	
2025-07-13T12:00	4420	595	-5.2	-11.2	282	10	
2025-07-13T12:00	4440	593	-5.4	-11.4	280	10	
2025-07-13T12:00	4460	592	-5.5	-11.5	279	10	
2025-07-13T12:00	4480	590	-5.6	-11.7	276	10	
2025-07-13T12:00	4500	589	-5.7	-12.1	272	10	
2025-07-13T12:00	4520	587	-5.8	-12.8	270	10	
2025-07-13T12:00	4540	586	-5.9	-13.0	267	10	
2025-07-13T12:00	4560	584	-6.0	-13.0	266	9	
2025-07-13T12:00	4580	583	-6.2	-13.1	265	9	
2025-07-13T12:00	4600	581	-6.3	-13.0	265	9	
2025-07-13T12:00	4620	580	-6.4	-13.1	265	9	
2025-07-13T12:00	4640	579	-6.5	-13.1	266	9	
2025-07-13T12:00	4660	577	-6.7	-12.9	267	9	
2025-07-13T12:00	4680	575	-6.9	-13.0	267	9	
2025-07-13T12:00	4700	574	-7.1	-13.1	268	9	
2025-07-13T12:00	4720	572	-7.3	-13.4	269	9	
2025-07-13T12:00	4740	571	-7.4	-13.8	270	9	
2025-07-13T12:00	4760	570	-7.5	-14.5	270	9	
2025-07-13T12:00	4780	568	-7.7	-14.6	271	9	
2025-07-13T12:00	4800	567	-7.8	-15.1	272	9	
2025-07-13T12:00	4820	565	-8.0	-15.5	273	9	
2025-07-13T12:00	4840	564	-8.2	-15.6	274	10	
2025-07-13T12:00	4860	562	-8.4	-15.8	275	10	
2025-07-13T12:00	4880	561	-8.5	-16.2	274	10	
2025-07-13T12:00	4900	559	-8.7	-17.1	273	10	
2025-07-13T12:00	4920	558	-8.7	-18.5	272	10	
2025-07-13T12:00	4940	557	-8.8	-19.8	270	10	
2025-07-13T12:00	4960	555	-8.9	-20.6	268	10	
2025-07-13T12:00	4980	554	-9.0	-20.3	266	10	
2025-07-13T12:00	5000	552	-9.1	-19.6	264	10	
2025-07-13T12:00	5020	551	-9.2	-20.4	264	10	
2025-07-13T12:00	5040	549	-9.1	-24.4	263	10	
2025-07-13T12:00	5060	548	-9.2	-26.0	263	10	
2025-07-13T12:00	5080	547	-9.3	-24.9	263	10	
2025-07-13T12:00	5100	545	-9.4	-25.0	263	10	
2025-07-13T12:00	5120	544	-9.5	-23.3	263	10	
2025-07-13T12:00	5140	542	-9.6	-23.3	262	11	
2025-07-13T12:00	5160	541	-9.8	-24.9	262	11	
2025-07-13T12:00	5180	539	-9.9	-24.4	261	11	
2025-07-13T12:00	5200	538	-10.1	-23.1	260	11	
2025-07-13T12:00	5220	537	-10.3	-22.1	259	11	
2025-07-13T12:00	5240	535	-10.4	-21.1	258	11	
2025-07-13T12:00	5260	534	-10.6	-20.6	256	11	
2025-07-13T12:00	5280	533	-10.8	-20.3	255	11	
2025-07-13T12:00	5300	531	-10.9	-20.1	255	11	
2025-07-13T12:00	5320	530	-10.9	-20.9	255	11	
2025-07-13T12:00	5340	528	-10.7	-22.8	255	11	
2025-07-13T12:00	5360	527	-10.5	-23.5	256	11	
2025-07-13T12:00	5380	526	-10.5	-23.9	257	11	
2025-07-13T12:00	5400	524	-10.5	-24.6	257	11	
2025-07-13T12:00	5420	523	-10.6	-25.3	258	11	
2025-07-13T12:00	5440	522	-10.7	-26.2	258	11	
2025-07-13T12:00	5460	520	-10.6	-28.8	257	11	
2025-07-13T12:00	5480	519	-10.7	-29.9	257	11	
2025-07-13T12:00	5500	517	-10.7	-31.5	256	11	
2025-07-13T12:00	5520	516	-10.7	-32.7	256	11	
2025-07-13T12:00	5540	515	-10.8	-32.2	255	11	
2025-07-13T12:00	5560	513	-10.9	-32.4	255	11	
2025-07-13T12:00	5580	512	-11.0	-33.9	255	11	
2025-07-13T12:00	5600	511	-11.0	-34.9	255	11	
2025-07-13T12:00	5620	509	-11.0	-34.4	255	11	
2025-07-13T12:00	5640	508	-11.0	-35.3	254	11	
2025-07-13T12:00	5660	507	-11.1	-36.2	253	11	
2025-07-13T12:00	5680	506	-11.3	-36.2	253	11	
2025-07-13T12:00	5700	504	-11.4	-36.3	252	11	
2025-07-13T12:00	5720	503	-11.4	-38.0	252	11	
2025-07-13T12:00	5740	502	-11.5	-38.2	252	11	
2025-07-13T12:00	5760	500	-11.6	-39.0	253	11	
2025-07-13T12:00	5780	499	-11.8	-39.4	254	11	
2025-07-13T12:00	5800	498	-12.0	-39.9	255	11	
2025-07-13T12:00	5820	496	-12.1	-40.3	256	11	
2025-07-13T12:00	5840	495	-12.2	-40.3	256	11	
2025-07-13T12:00	5860	494	-12.3	-40.0	256	11	
2025-07-13T12:00	5880	493	-12.4	-39.9	256	11	
2025-07-13T12:00	5900	491	-12.6	-40.0	256	11	
2025-07-13T12:00	5920	490	-12.7	-40.4	256	11	
2025-07-13T12:00	5940	489	-12.7	-41.7	256	11	
2025-07-13T12:00	5960	487	-12.8	-40.9	256	11	
2025-07-13T12:00	5980	486	-12.9	-39.5	255	11	
2025-07-13T12:00	6000	485	-13.0	-40.1	255	10	
2025-07-13T12:00	6020	483	-13.2	-40.9	254	10	
2025-07-13T12:00	6040	482	-13.4	-41.7	254	10	
2025-07-13T12:00	6060	481	-13.5	-43.1	253	10	
2025-07-13T12:00	6080	480	-13.7	-45.1	252	10	
2025-07-13T12:00	6100	478	-13.8	-45.1	252	10	
2025-07-13T12:00	6120	477	-13.9	-45.4	252	10	
2025-07-13T12:00	6140	476	-14.1	-45.9	252	10	
2025-07-13T12:00	6160	475	-14.2	-46.3	252	10	
2025-07-13T12:00	6180	473	-14.3	-46.4	251	10	
2025-07-13T12:00	6200	472	-14.4	-45.8	251	10	
2025-07-13T12:00	6220	471	-14.5	-45.1	252	10	
2025-07-13T12:00	6240	470	-14.6	-41.7	252	9	
2025-07-13T12:00	6260	468	-14.7	-39.8	252	9	
2025-07-13T12:00	6280	467	-14.9	-37.7	253	9	
2025-07-13T12:00	6300	466	-15.1	-37.8	254	9	
2025-07-13T12:00	6320	465	-15.3	-37.5	255	9	
2025-07-13T12:00	6340	463	-15.5	-37.2	256	9	
2025-07-13T12:00	6360	462	-15.6	-36.3	257	9	
2025-07-13T12:00	6380	461	-15.8	-35.8	259	9	
2025-07-13T12:00	6400	460	-15.9	-35.2	260	10	
2025-07-13T12:00	6420	459	-16.1	-34.7	262	10	
2025-07-13T12:00	6440	458	-16.3	-34.4	263	10	
2025-07-13T12:00	6460	456	-16.5	-34.4	265	10	
2025-07-13T12:00	6480	455	-16.5	-35.5	266	10	
2025-07-13T12:00	6500	454	-16.5	-37.8	266	11	
2025-07-13T12:00	6520	453	-16.6	-36.0	265	11	
2025-07-13T12:00	6540	451	-16.7	-34.2	264	11	
2025-07-13T12:00	6560	450	-16.8	-34.2	263	12	
2025-07-13T12:00	6580	449	-16.9	-38.6	262	12	
2025-07-13T12:00	6600	448	-17.0	-41.9	261	12	
2025-07-13T12:00	6620	447	-17.0	-41.0	260	12	
2025-07-13T12:00	6640	445	-17.1	-37.4	259	12	
2025-07-13T12:00	6660	444	-17.2	-37.6	258	12	
2025-07-13T12:00	6680	443	-17.3	-38.2	257	12	
2025-07-13T12:00	6700	442	-17.5	-38.6	256	12	
2025-07-13T12:00	6720	441	-17.6	-38.3	255	12	
2025-07-13T12:00	6740	440	-17.8	-38.0	255	12	
2025-07-13T12:00	6760	438	-18.0	-37.6	254	12	
2025-07-13T12:00	6780	437	-18.2	-37.6	255	12	
2025-07-13T12:00	6800	436	-18.3	-35.8	255	11	
2025-07-13T12:00	6820	435	-18.5	-35.3	256	11	
2025-07-13T12:00	6840	434	-18.6	-36.3	258	11	
2025-07-13T12:00	6860	433	-18.7	-37.1	260	11	
2025-07-13T12:00	6880	431	-18.9	-37.9	262	11	
2025-07-13T12:00	6900	430	-19.1	-39.4	263	11	
2025-07-13T12:00	6920	429	-19.2	-41.0	263	11	
2025-07-13T12:00	6940	428	-19.4	-41.9	264	11	
2025-07-13T12:00	6960	427	-19.5	-41.0	264	11	
2025-07-13T12:00	6980	426	-19.7	-40.9	264	11	
2025-07-13T12:00	7000	424	-19.8	-41.2	264	11	
2025-07-13T12:00	7020	423	-20.0	-37.4	265	11	
2025-07-13T12:00	7040	422	-20.1	-37.9	266	11	
2025-07-13T12:00	7060	421	-20.2	-39.8	268	11	
2025-07-13T12:00	7080	420	-20.3	-40.3	269	11	
2025-07-13T12:00	7100	419	-20.4	-38.9	272	11	
2025-07-13T12:00	7120	418	-20.5	-40.3	274	11	
2025-07-13T12:00	7140	416	-20.6	-42.4	276	11	
2025-07-13T12:00	7160	415	-20.7	-44.2	277	11	
2025-07-13T12:00	7180	414	-20.8	-46.4	278	11	
2025-07-13T12:00	7200	413	-20.8	-46.2	279	11	
2025-07-13T12:00	7220	412	-21.0	-45.6	279	11	
2025-07-13T12:00	7240	411	-21.1	-45.6	280	11	
2025-07-13T12:00	7260	410	-21.2	-45.5	280	12	
2025-07-13T12:00	7280	409	-21.4	-45.4	280	12	
2025-07-13T12:00	7300	408	-21.5	-45.4	281	12	
2025-07-13T12:00	7320	406	-21.7	-45.4	281	12	
2025-07-13T12:00	7340	405	-21.9	-45.0	281	12	
2025-07-13T12:00	7360	404	-22.0	-43.9	281	12	
2025-07-13T12:00	7380	403	-22.2	-43.4	280	12	
2025-07-13T12:00	7400	402	-22.4	-43.5	279	12	
2025-07-13T12:00	7420	401	-22.6	-43.7	278	12	
2025-07-13T12:00	7440	400	-22.8	-44.3	277	13	
2025-07-13T12:00	7460	399	-23.0	-43.0	276	13	
2025-07-13T12:00	7480	398	-23.2	-43.1	275	13	
2025-07-13T12:00	7500	396	-23.3	-43.6	275	13	
2025-07-13T12:00	7520	395	-23.5	-45.0	275	13	
2025-07-13T12:00	7540	395	-23.6	-45.5	275	14	
2025-07-13T12:00	7560	393	-23.8	-45.9	274	14	
2025-07-13T12:00	7580	392	-24.0	-46.2	274	14	
2025-07-13T12:00	7600	391	-24.2	-46.2	274	14	
2025-07-13T12:00	7620	390	-24.4	-46.0	274	14	
2025-07-13T12:00	7640	389	-24.6	-45.4	273	14	
2025-07-13T12:00	7660	388	-24.8	-44.7	273	14	
2025-07-13T12:00	7680	387	-25.0	-43.5	273	14	
2025-07-13T12:00	7700	386	-25.2	-43.0	272	14	
2025-07-13T12:00	7720	385	-25.3	-43.1	272	14	
2025-07-13T12:00	7740	384	-25.5	-42.0	272	14	
2025-07-13T12:00	7760	383	-25.7	-42.2	271	14	
2025-07-13T12:00	7780	382	-25.9	-42.2	270	14	
2025-07-13T12:00	7800	381	-26.1	-42.2	270	14	
2025-07-13T12:00	7820	380	-26.3	-41.6	270	14	
2025-07-13T12:00	7840	379	-26.5	-40.1	270	14	
2025-07-13T12:00	7860	377	-26.7	-40.9	270	14	
2025-07-13T12:00	7880	376	-26.8	-42.4	271	13	
2025-07-13T12:00	7900	375	-27.0	-42.3	271	13	
2025-07-13T12:00	7920	374	-27.2	-41.1	271	13	
2025-07-13T12:00	7940	373	-27.3	-40.8	271	14	
2025-07-13T12:00	7960	372	-27.5	-41.1	271	14	
2025-07-13T12:00	7980	371	-27.7	-41.1	271	14	
2025-07-13T12:00	8000	370	-27.9	-40.8	270	14	
2025-07-13T12:00	8020	369	-28.1	-40.7	270	14	
2025-07-13T12:00	8040	368	-28.3	-40.9	270	14	
2025-07-13T12:00	8060	367	-28.4	-40.9	269	14	
2025-07-13T12:00	8080	366	-28.6	-41.6	269	15	
2025-07-13T12:00	8100	365	-28.7	-42.7	268	15	
2025-07-13T12:00	8120	364	-28.8	-42.9	268	15	
2025-07-13T12:00	8140	363	-29.0	-43.4	267	15	
2025-07-13T12:00	8160	362	-29.1	-45.7	267	15	
2025-07-13T12:00	8180	361	-29.2	-48.8	267	15	
2025-07-13T12:00	8200	360	-29.3	-49.6	266	15	
2025-07-13T12:00	8220	359	-29.5	-49.7	266	15	
2025-07-13T12:00	8240	358	-29.6	-48.2	266	15	
2025-07-13T12:00	8260	357	-29.8	-47.4	266	15	
2025-07-13T12:00	8280	356	-29.9	-47.3	265	15	
2025-07-13T12:00	8300	355	-30.1	-47.4	265	15	
2025-07-13T12:00	8320	354	-30.2	-47.4	265	15	
2025-07-13T12:00	8340	353	-30.4	-47.6	264	14	
2025-07-13T12:00	8360	352	-30.5	-48.3	264	14	
2025-07-13T12:00	8380	351	-30.7	-48.7	264	14	
2025-07-13T12:00	8400	350	-30.9	-48.7	264	14	
2025-07-13T12:00	8420	349	-31.0	-48.8	264	14	
2025-07-13T12:00	8440	348	-31.2	-49.0	264	14	
2025-07-13T12:00	8460	347	-31.3	-49.4	264	14	
2025-07-13T12:00	8480	346	-31.5	-49.1	264	14	
2025-07-13T12:00	8500	345	-31.7	-49.3	264	14	
2025-07-13T12:00	8520	344	-31.9	-50.2	264	14	
2025-07-13T12:00	8540	343	-32.1	-50.6	263	14	
2025-07-13T12:00	8560	342	-32.3	-51.9	263	14	
2025-07-13T12:00	8580	341	-32.4	-52.2	262	14	
2025-07-13T12:00	8600	340	-32.6	-51.6	262	14	
2025-07-13T12:00	8620	339	-32.8	-51.5	262	14	
2025-07-13T12:00	8640	338	-32.9	-52.1	262	15	
2025-07-13T12:00	8660	337	-33.1	-52.4	263	15	
2025-07-13T12:00	8680	336	-33.3	-52.5	264	15	
2025-07-13T12:00	8700	335	-33.4	-53.3	264	15	
2025-07-13T12:00	8720	334	-33.6	-53.8	265	15	
2025-07-13T12:00	8740	334	-33.8	-54.1	266	15	
2025-07-13T12:00	8760	333	-33.9	-53.8	266	15	
2025-07-13T12:00	8780	332	-34.0	-53.4	267	15	
2025-07-13T12:00	8800	331	-34.2	-53.2	267	15	
2025-07-13T12:00	8820	330	-34.4	-53.0	268	15	
2025-07-13T12:00	8840	329	-34.6	-52.7	268	15	
2025-07-13T12:00	8860	328	-34.8	-52.2	268	15	
2025-07-13T12:00	8880	327	-34.9	-51.9	268	16	
2025-07-13T12:00	8900	326	-35.1	-52.0	268	16	
2025-07-13T12:00	8920	325	-35.3	-51.7	268	16	
2025-07-13T12:00	8940	324	-35.4	-51.7	267	16	
2025-07-13T12:00	8960	323	-35.6	-51.9	267	16	
2025-07-13T12:00	8980	322	-35.7	-52.1	266	17	
2025-07-13T12:00	9000	321	-35.8	-52.4	265	17	
2025-07-13T12:00	9020	320	-36.0	-52.6	265	17	
2025-07-13T12:00	9040	319	-36.1	-52.9	265	17	
2025-07-13T12:00	9060	319	-36.3	-53.0	264	17	
2025-07-13T12:00	9080	318	-36.5	-53.3	264	17	
2025-07-13T12:00	9100	317	-36.6	-53.5	263	17	
2025-07-13T12:00	9120	316	-36.8	-53.5	262	17	
2025-07-13T12:00	9140	315	-37.0	-53.8	261	17	
2025-07-13T12:00	9160	314	-37.1	-54.0	261	17	
2025-07-13T12:00	9180	313	-37.3	-54.0	260	17	
2025-07-13T12:00	9200	312	-37.5	-54.2	260	17	
2025-07-13T12:00	9220	311	-37.6	-55.0	260	17	
2025-07-13T12:00	9240	310	-37.7	-55.5	260	17	
2025-07-13T12:00	9260	309	-37.8	-55.6	260	17	
2025-07-13T12:00	9280	309	-38.0	-55.8	259	17	
2025-07-13T12:00	9300	308	-38.0	-56.2	259	17	
2025-07-13T12:00	9320	307	-38.2	-56.2	258	17	
2025-07-13T12:00	9340	306	-38.3	-56.3	258	17	
2025-07-13T12:00	9360	305	-38.4	-56.4	257	17	
2025-07-13T12:00	9380	304	-38.6	-56.5	257	17	
2025-07-13T12:00	9400	303	-38.7	-56.5	257	17	
2025-07-13T12:00	9420	302	-38.8	-56.4	256	17	
2025-07-13T12:00	9440	302	-39.0	-56.5	256	18	
2025-07-13T12:00	9460	301	-39.1	-56.7	256	18	
2025-07-13T12:00	9480	300	-39.3	-56.7	256	18	
2025-07-13T12:00	9500	299	-39.5	-56.8	256	18	
2025-07-13T12:00	9520	298	-39.7	-56.9	255	18	
2025-07-13T12:00	9540	297	-39.8	-57.1	255	18	
2025-07-13T12:00	9560	296	-39.9	-57.3	255	18	
2025-07-13T12:00	9580	295	-40.1	-57.6	256	18	
2025-07-13T12:00	9600	295	-40.2	-57.6	256	18	
2025-07-13T12:00	9620	294	-40.4	-57.6	257	18	
2025-07-13T12:00	9640	293	-40.5	-57.9	257	18	
2025-07-13T12:00	9660	292	-40.6	-57.8	257	17	
2025-07-13T12:00	9680	291	-40.8	-57.8	258	18	
2025-07-13T12:00	9700	290	-41.0	-57.7	258	18	
2025-07-13T12:00	9720	289	-41.2	-57.6	258	18	
2025-07-13T12:00	9740	288	-41.4	-57.5	258	18	
2025-07-13T12:00	9760	288	-41.5	-57.8	258	18	
2025-07-13T12:00	9780	287	-41.6	-58.0	259	18	
2025-07-13T12:00	9800	286	-41.8	-58.2	259	19	
2025-07-13T12:00	9820	285	-41.9	-58.3	259	19	
2025-07-13T12:00	9840	284	-42.0	-58.4	259	19	
2025-07-13T12:00	9860	283	-42.2	-58.6	259	19	
2025-07-13T12:00	9880	283	-42.3	-58.7	259	20	
2025-07-13T12:00	9900	282	-42.3	-59.0	260	20	
2025-07-13T12:00	9920	281	-42.4	-59.2	260	20	
2025-07-13T12:00	9940	280	-42.6	-59.2	261	20	
2025-07-13T12:00	9960	279	-42.7	-59.3	261	20	
2025-07-13T12:00	9980	278	-42.8	-59.5	262	20	
2025-07-13T12:00	10000	278	-42.9	-59.6	263	20	
2025-07-13T12:00	10018	277	-43.0	-59.8	264	20	
2025-07-13T12:00	10050	276	-43.2	-59.9	265	20	
2025-07-13T12:00	10100	274	-43.5	-60.1	265	19	
2025-07-13T12:00	10150	271	-43.6	-60.6	265	19	
2025-07-13T12:00	10200	269	-44.0	-60.7	265	19	
2025-07-13T12:00	10250	267	-44.4	-60.9	267	19	
2025-07-13T12:00	10300	266	-44.8	-61.3	269	19	
2025-07-13T12:00	10350	264	-45.2	-61.6	271	20	
2025-07-13T12:00	10400	261	-45.6	-61.8	273	20	
2025-07-13T12:00	10450	260	-45.9	-61.7	275	20	
2025-07-13T12:00	10500	258	-46.2	-61.5	277	21	
2025-07-13T12:00	10550	256	-46.4	-61.6	276	21	
2025-07-13T12:00	10600	254	-46.3	-61.7	274	22	
2025-07-13T12:00	10650	252	-46.6	-62.2	272	22	
2025-07-13T12:00	10700	250	-46.7	-62.4	270	22	
2025-07-13T12:00	10750	248	-47.0	-62.5	270	22	
2025-07-13T12:00	10800	246	-47.4	-62.7	271	22	
2025-07-13T12:00	10850	244	-47.8	-62.7	272	21	
2025-07-13T12:00	10900	242	-48.0	-62.9	271	21	
2025-07-13T12:00	10950	241	-48.1	-62.9	269	22	
2025-07-13T12:00	11000	239	-48.3	-63.1	270	22	
2025-07-13T12:00	11050	237	-48.0	-63.3	273	23	
2025-07-13T12:00	11100	235	-48.1	-63.4	277	23	
2025-07-13T12:00	11150	234	-48.3	-63.5	280	23	
2025-07-13T12:00	11200	232	-48.5	-63.5	281	24	
2025-07-13T12:00	11250	230	-48.8	-63.7	283	23	
2025-07-13T12:00	11300	228	-48.9	-64.1	285	23	
2025-07-13T12:00	11350	226	-48.9	-64.5	287	23	
2025-07-13T12:00	11400	225	-49.2	-64.6	288	23	
2025-07-13T12:00	11450	223	-49.5	-64.6	288	23	
2025-07-13T12:00	11500	221	-49.6	-65.0	287	23	
2025-07-13T12:00	11550	220	-49.6	-65.8	286	23	
2025-07-13T12:00	11600	218	-49.3	-66.7	284	23	
2025-07-13T12:00	11650	216	-49.3	-67.1	283	22	
2025-07-13T12:00	11700	215	-49.6	-66.7	282	22	
2025-07-13T12:00	11750	213	-50.0	-66.4	282	21	
2025-07-13T12:00	11800	211	-50.4	-66.4	282	20	
2025-07-13T12:00	11850	210	-50.8	-66.3	283	20	
2025-07-13T12:00	11900	208	-51.1	-66.5	283	19	
2025-07-13T12:00	11950	207	-50.9	-67.3	282	19	
2025-07-13T12:00	12000	205	-50.4	-68.3	281	20	
2025-07-13T12:00	12050	203	-49.9	-69.8	282	22	
2025-07-13T12:00	12100	202	-49.8	-71.8	284	24	
2025-07-13T12:00	12150	200	-49.6	-73.4	285	26	
2025-07-13T12:00	12200	199	-49.8	-74.3	286	26	
2025-07-13T12:00	12250	197	-49.6	-75.0	287	25	
2025-07-13T12:00	12300	196	-49.4	-75.3	288	25	
2025-07-13T12:00	12350	194	-49.2	-75.4	289	24	
2025-07-13T12:00	12400	193	-49.3	-75.7	291	24	
2025-07-13T12:00	12450	191	-49.5	-76.1	291	23	
2025-07-13T12:00	12500	190	-49.7	-76.3	291	22	
2025-07-13T12:00	12550	188	-49.7	-76.6	289	21	
2025-07-13T12:00	12600	187	-49.9	-77.0	286	21	
2025-07-13T12:00	12650	186	-50.0	-77.3	285	20	
2025-07-13T12:00	12700	184	-50.0	-77.6	285	20	
2025-07-13T12:00	12750	183	-49.4	-78.0	286	20	
2025-07-13T12:00	12800	181	-49.6	-78.2	287	20	
2025-07-13T12:00	12850	180	-49.8	-78.3	287	19	
2025-07-13T12:00	12900	179	-49.5	-78.4	285	18	
2025-07-13T12:00	12950	177	-49.1	-78.6	282	18	
2025-07-13T12:00	13000	176	-49.0	-78.6	278	17	
2025-07-13T12:00	13050	175	-49.1	-78.6	275	17	
2025-07-13T12:00	13100	173	-49.1	-78.7	273	17	
2025-07-13T12:00	13150	172	-49.1	-78.8	272	16	
2025-07-13T12:00	13200	171	-49.2	-78.9	274	16	
2025-07-13T12:00	13250	169	-49.6	-79.0	276	15	
2025-07-13T12:00	13300	168	-50.0	-79.1	278	14	
2025-07-13T12:00	13350	167	-49.9	-79.1	278	13	
2025-07-13T12:00	13400	166	-50.1	-79.3	274	13	
2025-07-13T12:00	13450	164	-50.2	-79.5	269	14	
2025-07-13T12:00	13500	163	-50.3	-79.5	265	15	
2025-07-13T12:00	13550	162	-50.4	-79.5	263	16	
2025-07-13T12:00	13600	161	-50.8	-79.7	261	17	
2025-07-13T12:00	13650	159	-51.3	-79.8	259	18	
2025-07-13T12:00	13700	158	-51.8	-80.0	260	18	
2025-07-13T12:00	13750	157	-52.1	-80.1	262	19	
2025-07-13T12:00	13800	156	-52.4	-80.2	264	19	
2025-07-13T12:00	13850	154	-52.5	-80.4	264	19	
2025-07-13T12:00	13900	153	-52.7	-80.6	264	19	
2025-07-13T12:00	13950	152	-52.8	-80.7	264	19	
2025-07-13T12:00	14000	151	-53.1	-80.9	265	19	
2025-07-13T12:00	14050	150	-53.4	-81.1	268	19	
2025-07-13T12:00	14100	149	-53.2	-81.2	269	19	
2025-07-13T12:00	14150	147	-53.2	-81.3	270	18	
2025-07-13T12:00	14200	146	-53.3	-81.4	272	18	
2025-07-13T12:00	14250	145	-53.4	-81.5	274	18	
2025-07-13T12:00	14300	144	-53.5	-81.7	272	17	
2025-07-13T12:00	14350	143	-53.4	-81.6	269	17	
2025-07-13T12:00	14400	142	-53.4	-81.5	265	17	
2025-07-13T12:00	14450	141	-53.8	-81.6	262	17	
2025-07-13T12:00	14500	140	-53.8	-81.6	260	17	
2025-07-13T12:00	14550	139	-54.0	-81.6	260	16	
2025-07-13T12:00	14600	137	-54.4	-81.7	260	16	
2025-07-13T12:00	14650	136	-54.7	-81.9	259	16	
2025-07-13T12:00	14700	135	-54.7	-82.0	258	16	
2025-07-13T12:00	14750	134	-54.9	-82.1	259	17	
2025-07-13T12:00	14800	133	-55.0	-82.2	262	17	
2025-07-13T12:00	14850	132	-55.0	-82.5	264	18	
2025-07-13T12:00	14900	131	-54.8	-82.6	267	18	
2025-07-13T12:00	14950	130	-54.7	-82.5	268	18	
2025-07-13T12:00	15000	129	-54.7	-82.5	267	18	
2025-07-13T12:00	15050	128	-54.5	-82.4	268	17	
2025-07-13T12:00	15100	127	-54.2	-82.2	273	17	
2025-07-13T12:00	15150	126	-54.3	-82.2	276	17	
2025-07-13T12:00	15200	125	-54.6	-82.3	277	16	
2025-07-13T12:00	15250	124	-54.6	-82.4	278	16	
2025-07-13T12:00	15300	123	-54.5	-82.5	280	15	
2025-07-13T12:00	15350	122	-54.4	-82.6	283	14	
2025-07-13T12:00	15400	121	-54.2	-82.8	282	13	
2025-07-13T12:00	15450	120	-53.5	-82.6	276	13	
2025-07-13T12:00	15500	119	-53.3	-82.4	272	14	
2025-07-13T12:00	15550	118	-53.3	-82.3	273	15	
2025-07-13T12:00	15600	118	-53.3	-82.1	275	15	
2025-07-13T12:00	15650	117	-53.7	-82.2	278	14	
2025-07-13T12:00	15700	116	-54.0	-82.3	279	14	
2025-07-13T12:00	15750	115	-53.8	-82.4	280	13	
2025-07-13T12:00	15800	114	-53.9	-82.4	283	12	
2025-07-13T12:00	15850	113	-54.1	-82.5	284	11	
2025-07-13T12:00	15900	112	-54.2	-82.5	282	10	
2025-07-13T12:00	15950	111	-54.2	-82.6	274	9	
2025-07-13T12:00	16000	110	-54.1	-82.7	264	9	
2025-07-13T12:00	16050	110	-54.0	-82.6	256	10	
2025-07-13T12:00	16100	109	-54.2	-82.6	251	11	
2025-07-13T12:00	16150	108	-54.5	-82.7	247	12	
2025-07-13T12:00	16200	107	-54.7	-82.7	246	13	
2025-07-13T12:00	16250	106	-54.9	-82.9	248	14	
2025-07-13T12:00	16300	105	-54.9	-82.9	253	14	
2025-07-13T12:00	16350	105	-55.2	-83.1	258	14	
2025-07-13T12:00	16400	104	-55.2	-83.1	263	14	
2025-07-13T12:00	16450	103	-55.3	-83.1	266	13	
2025-07-13T12:00	16500	102	-55.6	-83.2	270	12	
2025-07-13T12:00	16550	101	-55.9	-83.3	273	11	
2025-07-13T12:00	16600	101	-56.2	-83.4	276	10	
2025-07-13T12:00	16650	100	-56.5	-83.6	280	9	
2025-07-13T12:00	16700	99	-56.7	-83.7	282	8	
2025-07-13T12:00	16750	98	-56.8	-83.8	277	8	
2025-07-13T12:00	16800	97	-56.9	-83.9	268	8	
2025-07-13T12:00	16850	97	-56.9	-84.0	262	9	
2025-07-13T12:00	16900	96	-57.1	-84.2	262	9	
2025-07-13T12:00	16950	95	-56.5	-84.2	263	9	
2025-07-13T12:00	17000	94	-56.0	-84.1	262	10	
2025-07-13T12:00	17050	94	-56.1	-84.0	260	10	
2025-07-13T12:00	17100	93	-56.2	-84.1	255	8	
2025-07-13T12:00	17150	92	-55.9	-84.1	247	7	
2025-07-13T12:00	17200	92	-55.2	-83.9	244	7	
2025-07-13T12:00	17250	91	-54.8	-83.8	245	7	
2025-07-13T12:00	17300	90	-54.9	-83.7	250	7	
2025-07-13T12:00	17350	89	-55.1	-83.9	256	6	
2025-07-13T12:00	17400	89	-54.7	-83.6	252	5	
2025-07-13T12:00	17450	88	-54.6	-83.7	229	4	
2025-07-13T12:00	17500	87	-53.9	-83.5	204	4	
2025-07-13T12:00	17550	87	-53.7	-83.4	191	5	
2025-07-13T12:00	17600	86	-54.0	-83.3	183	5	
2025-07-13T12:00	17650	85	-54.4	-83.3	179	6	
2025-07-13T12:00	17700	85	-54.8	-83.3	178	6	
2025-07-13T12:00	17750	84	-55.2	-83.4	178	6	
2025-07-13T12:00	17800	83	-55.6	-83.7	177	5	
2025-07-13T12:00	17850	83	-55.5	-83.9	176	4	
2025-07-13T12:00	17900	82	-55.2	-83.8	177	3	
2025-07-13T12:00	17950	81	-55.4	-83.9	176	2	
2025-07-13T12:00	18000	81	-55.6	-83.8	160	1	
2025-07-13T12:00	18050	80	-55.7	-84.0	101	1	
2025-07-13T12:00	18100	79	-55.7	-84.0	57	1	
2025-07-13T12:00	18150	79	-55.5	-84.0	67	1	
2025-07-13T12:00	18200	78	-55.5	-84.0	114	1	
2025-07-13T12:00	18250	78	-55.6	-84.0	151	2	
2025-07-13T12:00	18300	77	-55.5	-84.1	171	3	
2025-07-13T12:00	18350	76	-55.4	-84.1	182	4	
2025-07-13T12:00	18400	76	-55.1	-83.9	189	5	
2025-07-13T12:00	18450	75	-55.0	-84.0	197	5	
2025-07-13T12:00	18500	75	-54.9	-83.9	206	5	
2025-07-13T12:00	18550	74	-55.0	-84.0	216	5	
2025-07-13T12:00	18600	73	-54.7	-83.8	225	5	
2025-07-13T12:00	18650	73	-54.5	-83.9	229	5	
2025-07-13T12:00	18700	72	-54.1	-83.8	230	5	
2025-07-13T12:00	18750	72	-53.5	-83.6	228	4	
2025-07-13T12:00	18800	71	-53.4	-83.6	222	3	
2025-07-13T12:00	18850	71	-52.9	-83.2	203	2	
2025-07-13T12:00	18900	70	-53.0	-83.1	172	2	
2025-07-13T12:00	18950	70	-53.3	-83.0	158	3	
2025-07-13T12:00	19000	69	-53.7	-83.1	159	4	
2025-07-13T12:00	19050	69	-53.9	-83.3	163	4	
2025-07-13T12:00	19100	68	-53.8	-83.3	161	3	
2025-07-13T12:00	19150	67	-54.0	-83.4	153	4	
2025-07-13T12:00	19200	67	-54.2	-83.4	146	4	
2025-07-13T12:00	19250	66	-54.4	-83.6	142	5	
2025-07-13T12:00	19300	66	-54.5	-83.7	139	6	
2025-07-13T12:00	19350	65	-54.4	-83.8	139	6	
2025-07-13T12:00	19400	65	-53.8	-83.8	143	7	
2025-07-13T12:00	19450	64	-53.3	-83.5	149	8	
2025-07-13T12:00	19500	64	-53.5	-83.4	154	9	
2025-07-13T12:00	19550	63	-53.9	-83.4	156	9	
2025-07-13T12:00	19600	63	-54.1	-83.5	155	9	
2025-07-13T12:00	19650	62	-54.1	-83.6	156	9	
2025-07-13T12:00	19700	62	-54.1	-83.6	158	8	
2025-07-13T12:00	19750	61	-54.1	-83.6	160	7	
2025-07-13T12:00	19800	61	-54.2	-83.7	157	5	
2025-07-13T12:00	19850	60	-54.0	-83.7	155	5	
2025-07-13T12:00	19900	60	-53.6	-83.6	160	5	
2025-07-13T12:00	19950	60	-53.7	-83.6	168	5	
2025-07-13T12:00	20000	59	-53.7	-83.6	172	5	
2025-07-13T12:00	20050	59	-53.4		167	4	
2025-07-13T12:00	20100	58	-53.3		153	3	
2025-07-13T12:00	20150	58	-53.4		139	3	
2025-07-13T12:00	20200	57	-53.4		125	4	
2025-07-13T12:00	20250	57	-53.6		111	4	
2025-07-13T12:00	20300	56	-53.1		108	5	
2025-07-13T12:00	20350	56	-53.0		112	6	
2025-07-13T12:00	20400	56	-53.0		119	7	
2025-07-13T12:00	20450	55	-53.2		125	8	
2025-07-13T12:00	20500	55	-53.4		130	8	
2025-07-13T12:00	20550	54	-53.4		135	7	
2025-07-13T12:00	20600	54	-53.2		142	7	
2025-07-13T12:00	20650	53	-52.9		153	6	
2025-07-13T12:00	20700	53	-53.0		159	6	
2025-07-13T12:00	20750	53	-53.1		159	5	
2025-07-13T12:00	20800	52	-53.0		150	4	
2025-07-13T12:00	20850	52	-52.8		137	4	
2025-07-13T12:00	20900	51	-52.7		123	5	
2025-07-13T12:00	20950	51	-52.6		113	6	
2025-07-13T12:00	21000	51	-52.3		105	7	
2025-07-13T12:00	21050	50	-52.1		100	8	
2025-07-13T12:00	21100	50	-52.2		102	9	
2025-07-13T12:00	21150	49	-52.3		107	10	
2025-07-13T12:00	21200	49	-52.3		115	10	
2025-07-13T12:00	21250	49	-52.6		122	11	
2025-07-13T12:00	21300	48	-52.6		128	11	
2025-07-13T12:00	21350	48	-52.8		134	11	
2025-07-13T12:00	21400	48	-53.0		140	11	
2025-07-13T12:00	21450	47	-53.2		146	11	
2025-07-13T12:00	21500	47	-53.1		150	11	
2025-07-13T12:00	21550	46	-53.0		151	10	
2025-07-13T12:00	21600	46	-52.8		146	8	
2025-07-13T12:00	21650	46	-52.6		138	8	
2025-07-13T12:00	21700	45	-52.5		133	8	
2025-07-13T12:00	21750	45	-52.1		136	9	
2025-07-13T12:00	21800	45	-51.9		143	10	
2025-07-13T12:00	21850	44	-51.9		150	11	
2025-07-13T12:00	21900	44	-52.2		156	11	
2025-07-13T12:00	21950	44	-52.5		161	11	
2025-07-13T12:00	22000	43	-52.5		166	11	
2025-07-13T12:00	22050	43	-51.9		169	10	
2025-07-13T12:00	22100	43	-52.0		171	10	
2025-07-13T12:00	22150	42	-52.4		172	9	
2025-07-13T12:00	22200	42	-52.7		171	8	
2025-07-13T12:00	22250	42	-53.0		167	7	
2025-07-13T12:00	22300	41	-53.1		156	6	
2025-07-13T12:00	22350	41	-53.1		140	5	
2025-07-13T12:00	22400	41	-53.1		126	5	
2025-07-13T12:00	22450	40	-53.1		117	5	
2025-07-13T12:00	22500	40	-53.1		110	6	
2025-07-13T12:00	22550	40	-52.6		101	6	
2025-07-13T12:00	22600	39	-52.3		95	7	
2025-07-13T12:00	22650	39	-52.5		92	8	
2025-07-13T12:00	22700	39	-52.7		95	9	
2025-07-13T12:00	22750	39	-52.7		101	10	
2025-07-13T12:00	22800	38	-52.6		110	10	
2025-07-13T12:00	22850	38	-52.6		117	9	
2025-07-13T12:00	22900	38	-52.7		122	9	
2025-07-13T12:00	22950	37	-52.7		125	8	
2025-07-13T12:00	23000	37	-52.5		128	8	
2025-07-13T12:00	23050	37	-52.6		130	8	
2025-07-13T12:00	23100	37	-52.6		131	8	
2025-07-13T12:00	23150	36	-52.4		131	8	
2025-07-13T12:00	23200	36	-52.2		130	8	
2025-07-13T12:00	23250	36	-52.1		126	8	
2025-07-13T12:00	23300	35	-51.7		123	8	
2025-07-13T12:00	23350	35	-51.5		122	7	
2025-07-13T12:00	23400	35	-51.5		124	7	
2025-07-13T12:00	23450	35	-51.6		124	6	
2025-07-13T12:00	23500	34	-51.7		122	6	
2025-07-13T12:00	23550	34	-51.5		118	6	
2025-07-13T12:00	23600	34	-51.4		114	6	
2025-07-13T12:00	23650	34	-51.3		112	6	
2025-07-13T12:00	23700	33	-51.3		114	7	
2025-07-13T12:00	23750	33	-51.2		117	8	
2025-07-13T12:00	23800	33	-51.2		119	9	
2025-07-13T12:00	23850	33	-51.2		118	9	
2025-07-13T12:00	23900	32	-51.3		117	9	
2025-07-13T12:00	23950	32	-51.3		119	8	
2025-07-13T12:00	24000	32	-51.0		121	6	
2025-07-13T12:00	24050	32	-51.0		123	5	
2025-07-13T12:00	24100	31	-50.9		118	5	
2025-07-13T12:00	24150	31	-50.5		111	5	
2025-07-13T12:00	24200	31	-50.2		108	6	
2025-07-13T12:00	24250	31	-50.2		108	7	
2025-07-13T12:00	24300	30	-50.0		109	8	
2025-07-13T12:00	24350	30	-49.9		107	8	
2025-07-13T12:00	24400	30	-50.0		105	8	
2025-07-13T12:00	24450	30	-50.1		107	8	
2025-07-13T12:00	24500	29	-49.9		113	7	
2025-07-13T12:00	24550	29	-49.7		117	7	
2025-07-13T12:00	24600	29	-49.5		117	7	
2025-07-13T12:00	24650	29	-49.6		114	6	
2025-07-13T12:00	24700	29	-49.6		114	6	
2025-07-13T12:00	24750	28	-49.3		118	6	
2025-07-13T12:00	24800	28	-49.1		124	6	
2025-07-13T12:00	24850	28	-48.9		128	7	
2025-07-13T12:00	24900	28	-48.9		126	7	
2025-07-13T12:00	24950	28	-49.0		121	7	
2025-07-13T12:00	25000	27	-48.8		117	7	
2025-07-13T12:00	25050	27	-48.5		114	7	
2025-07-13T12:00	25100	27	-48.4		108	6	
2025-07-13T12:00	25150	27	-48.2		104	6	
2025-07-13T12:00	25200	26	-48.1		105	7	
2025-07-13T12:00	25250	26	-48.0		109	8	
2025-07-13T12:00	25300	26	-48.0		111	9	
2025-07-13T12:00	25350	26	-47.7		108	9	
2025-07-13T12:00	25400	26	-47.4		102	8	
2025-07-13T12:00	25450	25	-47.5		95	8	
2025-07-13T12:00	25500	25	-47.7		88	8	
2025-07-13T12:00	25550	25	-47.9		86	9	
2025-07-13T12:00	25600	25	-47.9		88	9	
2025-07-13T12:00	25650	25	-48.0		92	10	
2025-07-13T12:00	25700	25	-48.2		99	10	
2025-07-13T12:00	25750	24	-48.5		107	10	
2025-07-13T12:00	25800	24	-48.5		115	11	
2025-07-13T12:00	25850	24	-48.4		122	11	
2025-07-13T12:00	25900	24	-48.3		128	10	
2025-07-13T12:00	25950	24	-48.2		131	9	
2025-07-13T12:00	26000	23	-48.1		129	8	
2025-07-13T12:00	26050	23	-48.0		121	7	
2025-07-13T12:00	26100	23	-47.9		112	7	
2025-07-13T12:00	26150	23	-47.8		104	8	
2025-07-13T12:00	26200	23	-47.8		98	8	
2025-07-13T12:00	26250	23	-47.8		91	8	
2025-07-13T12:00	26300	22	-47.8		84	8	
2025-07-13T12:00	26350	22	-47.8		79	9	
2025-07-13T12:00	26400	22	-47.8		77	10	
2025-07-13T12:00	26450	22	-47.8		79	12	
2025-07-13T12:00	26500	22	-47.8		83	14	
2025-07-13T12:00	26550	22	-47.7		87	15	
2025-07-13T12:00	26600	21	-47.5		91	15	
2025-07-13T12:00	26650	21	-47.2		93	16	
2025-07-13T12:00	26700	21	-46.8		94	16	
2025-07-13T12:00	26750	21	-46.6		95	16	
2025-07-13T12:00	26800	21	-46.6		97	15	
2025-07-13T12:00	26850	21	-46.6		98	15	
2025-07-13T12:00	26900	20	-46.5		99	15	
2025-07-13T12:00	26950	20	-46.1		97	14	
2025-07-13T12:00	27000	20	-45.9		93	14	
2025-07-13T12:00	27050	20	-45.6		86	14	
2025-07-13T12:00	27100	20	-45.2		81	15	
2025-07-13T12:00	27150	20	-45.0		81	16	
2025-07-13T12:00	27200	20	-45.0		84	16	
2025-07-13T12:00	27250	19	-45.0		89	17	
2025-07-13T12:00	27300	19	-45.1		93	17	
2025-07-13T12:00	27350	19	-45.2		97	16	
2025-07-13T12:00	27400	19	-45.5		101	15	
2025-07-13T12:00	27450	19	-45.7		104	14	
2025-07-13T12:00	27500	19	-45.7		106	13	
2025-07-13T12:00	27550	19	-45.6		107	12	
2025-07-13T12:00	27600	18	-45.7		107	11	
2025-07-13T12:00	27650	18	-45.8		106	10	
2025-07-13T12:00	27700	18	-45.9		102	10	
2025-07-13T12:00	27750	18	-46.0		94	10	
2025-07-13T12:00	27800	18	-45.9		89	11	
2025-07-13T12:00	27850	18	-45.9		87	12	
2025-07-13T12:00	27900	18	-45.9		89	13	
2025-07-13T12:00	27950	17	-46.0		93	13	
2025-07-13T12:00	28000	17	-46.2		95	12	
2025-07-13T12:00	28050	17	-46.3		95	13	
2025-07-13T12:00	28100	17	-46.1		93	13	
2025-07-13T12:00	28150	17	-46.0		94	14	
2025-07-13T12:00	28200	17	-46.0		97	14	
2025-07-13T12:00	28250	17	-46.0		101	15	
2025-07-13T12:00	28300	17	-45.8		105	16	
2025-07-13T12:00	28350	16	-45.8		107	17	
2025-07-13T12:00	28400	16	-45.6		108	18	
2025-07-13T12:00	28450	16	-45.6		110	18	
2025-07-13T12:00	28500	16	-45.1		112	17	
2025-07-13T12:00	28550	16	-44.8		116	15	
2025-07-13T12:00	28600	16	-44.6		117	14	
2025-07-13T12:00	28650	16	-44.3		113	14	
2025-07-13T12:00	28700	16	-43.9		106	15	
2025-07-13T12:00	28750	16	-43.6		103	15	
2025-07-13T12:00	28800	15	-43.3		103	14	
2025-07-13T12:00	28850	15	-43.2		105	14	
2025-07-13T12:00	28900	15	-43.3		106	15	
2025-07-13T12:00	28950	15	-43.2		108	16	
2025-07-13T12:00	29000	15	-43.0		111	16	
2025-07-13T12:00	29050	15	-42.7		111	15	
2025-07-13T12:00	29100	15	-42.5		111	14	
2025-07-13T12:00	29150	15	-42.3		109	14	
2025-07-13T12:00	29200	15	-42.2		109	13	
2025-07-13T12:00	29250	14	-42.0		109	14	
2025-07-13T12:00	29300	14	-41.7		109	14	
2025-07-13T12:00	29350	14	-41.4		107	13	
2025-07-13T12:00	29400	14	-41.1		104	13	
2025-07-13T12:00	29450	14	-41.0		101	12	
2025-07-13T12:00	29500	14	-40.9		98	12	
2025-07-13T12:00	29550	14	-40.8		95	11	
2025-07-13T12:00	29600	14	-40.8		93	11	
2025-07-13T12:00	29650	14	-40.9		92	12	
2025-07-13T12:00	29700	13	-40.9		91	13	
2025-07-13T12:00	29750	13	-40.9		92	14	
2025-07-13T12:00	29800	13	-40.9		94	15	
2025-07-13T12:00	29850	13	-41.0		97	15	
2025-07-13T12:00	29900	13	-41.1		100	16	
2025-07-13T12:00	29950	13	-41.3		102	16	
2025-07-13T12:00	30000	13	-41.3		101	15	
2025-07-13T12:00	30050	13	-40.9		97	14	
2025-07-13T12:00	30100	13	-40.7		91	13	
2025-07-13T12:00	30150	13	-40.6		84	12	
2025-07-13T12:00	30200	13	-40.6		80	12	
2025-07-13T12:00	30250	12	-40.6		79	13	
2025-07-13T12:00	30300	12	-40.4		80	15	
2025-07-13T12:00	30350	12	-40.3		81	16	
2025-07-13T12:00	30400	12	-40.2		80	17	
2025-07-13T12:00	30450	12	-40.2		78	17	
2025-07-13T12:00	30500	12	-40.2		77	17	
2025-07-13T12:00	30550	12	-40.2		80	17	
2025-07-13T12:00	30600	12	-40.1		86	17	
2025-07-13T12:00	30650	12	-40.1		92	17	
2025-07-13T12:00	30700	12	-40.2		98	18	
2025-07-13T12:00	30750	12	-40.2		104	18	
2025-07-13T12:00	30800	11	-40.1		108	17	
2025-07-13T12:00	30850	11	-39.9		109	17	
2025-07-13T12:00	30900	11	-39.6		107	17	
2025-07-13T12:00	30950	11	-39.3		104	16	
2025-07-13T12:00	31000	11	-39.0		102	16	
2025-07-13T12:00	31050	11	-38.6		99	16	
2025-07-13T12:00	31100	11	-38.2		96	16	
2025-07-13T12:00	31150	11	-37.9		94	16	
2025-07-13T12:00	31200	11	-37.8		94	17	
2025-07-13T12:00	31250	11	-37.7		95	17	
2025-07-13T12:00	31300	11	-37.7		96	18	
2025-07-13T12:00	31350	11	-37.6		97	18	
2025-07-13T12:00	31400	11	-37.4		98	19	
2025-07-13T12:00	31450	10	-37.2		99	18	
2025-07-13T12:00	31500	10	-37.1		101	18	
2025-07-13T12:00	31550	10	-37.1		102	17	
2025-07-13T12:00	31600	10	-37.2		104	16	
2025-07-13T12:00	31650	10	-37.3		105	15	
2025-07-13T12:00	31700	10	-37.4		105	15	
2025-07-13T12:00	31750	10	-37.5		103	15	
2025-07-13T12:00	31800	10	-37.5		98	16	
2025-07-13T12:00	31850	10	-37.4		94	16	
2025-07-13T12:00	31900	10	-37.4		92	17	
2025-07-13T12:00	31950	10	-37.3		91	18	
2025-07-13T12:00	32000	10	-37.1		91	20	
2025-07-13T12:00	32050	10	-37.1		92	21	
2025-07-13T12:00	32100	9	-37.3		93	22	
2025-07-13T12:00	32150	9	-37.4		94	22	
2025-07-13T12:00	32200	9	-37.1		94	22	
2025-07-13T12:00	32250	9	-36.9		95	21	
2025-07-13T12:00	32300	9	-36.7		97	20	
2025-07-13T12:00	32350	9	-36.7		99	19	
2025-07-13T12:00	32400	9	-36.6		101	19	
2025-07-13T12:00	32450	9	-36.5		102	19	
2025-07-13T12:00	32500	9	-36.4		103	19	
2025-07-13T12:00	32550	9	-36.4		104	20	
2025-07-13T12:00	32600	9	-36.3		105	20	
2025-07-13T12:00	32650	9	-36.2		108	20	
2025-07-13T12:00	32700	9	-36.1		112	19	
2025-07-13T12:00	32750	9	-36.0		115	18	
2025-07-13T12:00	32800	9	-36.0		115	17	
2025-07-13T12:00	32850	9	-36.0		113	16	
2025-07-13T12:00	32900	8	-35.9		108	15	
2025-07-13T12:00	32950	8	-35.6		102	14	
2025-07-13T12:00	33000	8	-35.2		98	14	
2025-07-13T12:00	33050	8	-34.9		96	14	
2025-07-13T12:00	33100	8	-34.8		94	15	
2025-07-13T12:00	33150	8	-34.8		92	15	
2025-07-13T12:00	33200	8	-34.7		90	16	
2025-07-13T12:00	33250	8	-34.6		90	16	
2025-07-13T12:00	33300	8	-34.5		92	17	
2025-07-13T12:00	33350	8	-34.4		93	17	
2025-07-13T12:00	33400	8	-34.4		93	16	
2025-07-13T12:00	33450	8	-34.4		91	15	
2025-07-13T12:00	33500	8	-34.2		88	14	
2025-07-13T12:00	33550	8	-33.8		84	13	
2025-07-13T12:00	33600	8	-33.5		81	13	
2025-07-13T12:00	33650	8	-33.3		79	14	
2025-07-13T12:00	33700	8	-33.2		79	15	
2025-07-13T12:00	33750	7	-33.1		80	16	
2025-07-13T12:00	33800	7	-33.0		83	16	
2025-07-13T12:00	33850	7	-32.8		84	17	
2025-07-13T12:00	33900	7	-32.7		82	17	
2025-07-13T12:00	33950	7	-32.4		79	17	
2025-07-13T12:00	34000	7	-32.1		77	17	
2025-07-13T12:00	34050	7	-31.9		79	17	
2025-07-13T12:00	34100	7	-31.7		81	18	
2025-07-13T12:00	34150	7	-31.4		81	18	
2025-07-13T12:00	34200	7	-31.1		78	18	
2025-07-13T12:00	34250	7	-30.8		74	18	
2025-07-13T12:00	34300	7	-30.6		70	17	
2025-07-13T12:00	34350	7	-30.7		68	17	
2025-07-13T12:00	34400	7	-30.9		68	17	
2025-07-13T12:00	34450	7	-31.0		69	17	
2025-07-13T12:00	34500	7	-31.1		69	17	
2025-07-13T12:00	34550	7	-31.1		69	18	
2025-07-13T12:00	34600	7	-31.0		68	18	
2025-07-13T12:00	34650	7	-30.8		68	17	
2025-07-13T12:00	34700	7	-30.7		68	17	
2025-07-14T00:00	491	960	18.8	16.0	255	2	
2025-07-14T00:00	501	959	18.3	16.5	233	3	
2025-07-14T00:00	520	957	18.7	15.8	225	3	
2025-07-14T00:00	540	955	19.3	15.2	222	4	
2025-07-14T00:00	560	953	19.4	15.0	218	5	
2025-07-14T00:00	580	951	19.3	15.0	213	5	
2025-07-14T00:00	600	949	19.1	14.9	209	5	
2025-07-14T00:00	620	946	19.0	14.8	205	5	
2025-07-14T00:00	640	944	18.9	14.7	200	5	
2025-07-14T00:00	660	942	18.7	14.6	196	5	
2025-07-14T00:00	680	940	18.9	14.3	192	5	
2025-07-14T00:00	700	937	19.1	14.0	188	5	
2025-07-14T00:00	720	936	19.5	13.4	185	5	
2025-07-14T00:00	740	933	19.8	13.2	183	5	
2025-07-14T00:00	760	931	19.7	13.1	182	4	
2025-07-14T00:00	780	929	19.6	12.9	186	4	
2025-07-14T00:00	800	927	19.5	12.9	192	3	
2025-07-14T00:00	820	924	19.2	12.9	201	3	
2025-07-14T00:00	840	922	19.1	12.8	211	3	
2025-07-14T00:00	860	920	18.9	12.7	221	3	
2025-07-14T00:00	880	918	18.7	12.7	230	3	
2025-07-14T00:00	900	916	18.5	12.5	236	3	
2025-07-14T00:00	920	914	18.4	12.4	241	3	
2025-07-14T00:00	940	912	18.2	12.3	244	3	
2025-07-14T00:00	960	910	18.3	11.7	244	3	
2025-07-14T00:00	980	908	18.5	11.4	242	3	
2025-07-14T00:00	1000	905	18.7	11.5	239	3	
2025-07-14T00:00	1020	903	18.6	11.5	235	4	
2025-07-14T00:00	1040	901	18.4	11.5	233	4	
2025-07-14T00:00	1060	899	18.3	11.4	234	4	
2025-07-14T00:00	1080	897	18.1	11.4	239	4	
2025-07-14T00:00	1100	895	18.0	11.2	244	4	
2025-07-14T00:00	1120	893	18.0	11.1	250	4	
2025-07-14T00:00	1140	891	17.8	11.1	257	4	
2025-07-14T00:00	1160	888	17.7	11.0	260	4	
2025-07-14T00:00	1180	886	17.6	11.0	262	4	
2025-07-14T00:00	1200	884	17.5	10.9	264	4	
2025-07-14T00:00	1220	882	17.4	10.8	266	4	
2025-07-14T00:00	1240	880	17.3	10.7	268	4	
2025-07-14T00:00	1260	878	17.2	10.7	270	4	
2025-07-14T00:00	1280	876	17.0	10.7	271	4	
2025-07-14T00:00	1300	874	16.8	10.9	271	4	
2025-07-14T00:00	1320	872	16.7	10.8	271	4	
2025-07-14T00:00	1340	870	16.5	10.9	270	4	
2025-07-14T00:00	1360	868	16.3	10.9	270	4	
2025-07-14T00:00	1380	866	16.1	10.8	270	4	
2025-07-14T00:00	1400	864	15.9	10.8	270	4	
2025-07-14T00:00	1420	862	15.7	10.8	270	4	
2025-07-14T00:00	1440	860	15.5	10.9	270	4	
2025-07-14T00:00	1460	858	15.3	10.7	270	4	
2025-07-14T00:00	1480	856	15.1	10.7	269	4	
2025-07-14T00:00	1500	854	14.9	10.6	268	4	
2025-07-14T00:00	1520	852	14.7	10.7	267	4	
2025-07-14T00:00	1540	850	14.5	10.6	266	4	
2025-07-14T00:00	1560	848	14.3	10.6	265	5	
2025-07-14T00:00	1580	846	14.1	10.5	265	5	
2025-07-14T00:00	1600	844	13.9	10.5	265	5	
2025-07-14T00:00	1620	842	13.7	10.5	266	5	
2025-07-14T00:00	1640	840	13.5	10.6	268	6	
2025-07-14T00:00	1660	838	13.3	10.6	270	6	
2025-07-14T00:00	1680	836	13.1	10.6	272	6	
2025-07-14T00:00	1700	834	12.9	10.5	274	6	
2025-07-14T00:00	1720	832	12.7	10.6	277	6	
2025-07-14T00:00	1740	830	12.5	10.9	280	6	
2025-07-14T00:00	1760	828	12.4	11.0	283	6	
2025-07-14T00:00	1780	826	12.4	11.1	285	6	
2025-07-14T00:00	1800	824	12.2	10.9	287	6	
2025-07-14T00:00	1820	822	12.0	10.9	290	6	
2025-07-14T00:00	1840	820	11.9	10.9	291	6	
2025-07-14T00:00	1860	818	11.7	10.8	293	6	
2025-07-14T00:00	1880	816	11.5	10.9	292	6	
2025-07-14T00:00	1900	814	11.3	10.8	289	6	
2025-07-14T00:00	1920	812	11.2	10.7	284	5	
2025-07-14T00:00	1940	810	11.1	10.4	279	5	
2025-07-14T00:00	1960	809	11.0	10.1	273	5	
2025-07-14T00:00	1980	807	10.8	10.0	268	5	
2025-07-14T00:00	2000	805	10.6	9.9	262	5	
2025-07-14T00:00	2020	803	10.4	9.7	260	5	
2025-07-14T00:00	2040	801	10.2	9.6	259	5	
2025-07-14T00:00	2060	799	10.0	9.5	260	5	
2025-07-14T00:00	2080	797	9.8	9.5	261	5	
2025-07-14T00:00	2100	795	9.7	9.3	262	5	
2025-07-14T00:00	2120	793	9.5	9.3	262	5	
2025-07-14T00:00	2140	791	9.3	9.2	262	5	
2025-07-14T00:00	2160	789	9.1	9.0	261	5	
2025-07-14T00:00	2180	787	9.0	9.0	259	5	
2025-07-14T00:00	2200	786	8.9	8.9	258	5	
2025-07-14T00:00	2220	784	8.7	8.7	256	6	
2025-07-14T00:00	2240	782	8.7	8.6	255	5	
2025-07-14T00:00	2260	780	8.5	8.5	255	6	
2025-07-14T00:00	2280	778	8.3	8.3	257	6	
2025-07-14T00:00	2300	776	8.2	8.2	259	6	
2025-07-14T00:00	2320	774	8.1	8.1	262	6	
2025-07-14T00:00	2340	772	8.2	8.2	266	6	
2025-07-14T00:00	2360	770	8.2	8.2	269	6	
2025-07-14T00:00	2380	769	8.1	8.1	273	6	
2025-07-14T00:00	2400	767	8.0	8.0	276	6	
2025-07-14T00:00	2420	765	7.9	7.9	278	7	
2025-07-14T00:00	2440	763	7.8	7.8	280	7	
2025-07-14T00:00	2460	761	7.7	7.7	281	7	
2025-07-14T00:00	2480	759	7.6	7.6	282	7	
2025-07-14T00:00	2500	757	7.5	7.5	284	7	
2025-07-14T00:00	2520	756	7.4	7.4	285	8	
2025-07-14T00:00	2540	754	7.3	7.3	287	8	
2025-07-14T00:00	2560	752	7.2	7.2	289	7	
2025-07-14T00:00	2580	750	7.1	7.1	290	7	
2025-07-14T00:00	2600	748	6.8	6.4	286	7	
2025-07-14T00:00	2620	747	6.6	6.3	279	6	
2025-07-14T00:00	2640	745	6.3	6.2	273	6	
2025-07-14T00:00	2660	743	6.1	6.0	272	6	
2025-07-14T00:00	2680	741	6.0	6.0	274	6	
2025-07-14T00:00	2700	739	5.8	5.8	280	6	
2025-07-14T00:00	2720	738	5.7	5.7	286	6	
2025-07-14T00:00	2740	736	5.5	5.5	292	6	
2025-07-14T00:00	2760	734	5.3	5.3	295	7	
2025-07-14T00:00	2780	732	5.3	5.3	297	7	
2025-07-14T00:00	2800	730	5.3	5.3	298	8	
2025-07-14T00:00	2820	729	5.3	5.3	296	8	
2025-07-14T00:00	2840	727	5.1	5.1	292	8	
2025-07-14T00:00	2860	725	4.9	4.9	285	8	
2025-07-14T00:00	2880	723	4.8	4.8	277	8	
2025-07-14T00:00	2900	722	4.8	4.8	269	8	
2025-07-14T00:00	2920	720	4.6	4.6	263	8	
2025-07-14T00:00	2940	718	4.6	4.6	260	9	
2025-07-14T00:00	2960	716	4.4	4.4	260	10	
2025-07-14T00:00	2980	715	4.2	4.2	261	11	
2025-07-14T00:00	3000	713	4.2	4.2	262	11	
2025-07-14T00:00	3020	711	4.1	4.1	263	12	
2025-07-14T00:00	3040	709	4.1	4.1	263	12	
2025-07-14T00:00	3060	707	4.4	4.4	263	11	
2025-07-14T00:00	3080	706	4.2	4.2	262	11	
2025-07-14T00:00	3100	704	4.0	4.0	261	11	
2025-07-14T00:00	3120	702	3.9	3.9	258	11	
2025-07-14T00:00	3140	701	3.7	3.7	256	11	
2025-07-14T00:00	3160	699	3.6	3.6	253	12	
2025-07-14T00:00	3180	697	3.4	3.4	251	12	
2025-07-14T00:00	3200	695	3.3	3.3	250	11	
2025-07-14T00:00	3220	694	3.2	3.2	250	10	
2025-07-14T00:00	3240	692	3.2	3.2	250	9	
2025-07-14T00:00	3260	690	3.1	3.1	249	8	
2025-07-14T00:00	3280	689	2.9	2.9	246	8	
2025-07-14T00:00	3300	687	2.8	2.8	244	9	
2025-07-14T00:00	3320	685	2.8	2.8	245	10	
2025-07-14T00:00	3340	684	2.7	2.7	246	12	
2025-07-14T00:00	3360	682	2.6	2.6	247	12	
2025-07-14T00:00	3380	680	2.5	2.5	247	12	
2025-07-14T00:00	3400	679	2.4	2.4	246	11	
2025-07-14T00:00	3420	677	2.3	2.3	245	11	
2025-07-14T00:00	3440	675	2.2	2.2	244	10	
2025-07-14T00:00	3460	674	2.0	2.0	243	10	
2025-07-14T00:00	3480	672	1.8	1.8	243	9	
2025-07-14T00:00	3500	670	1.7	1.7	244	9	
2025-07-14T00:00	3520	669	1.6	1.6	245	8	
2025-07-14T00:00	3540	667	1.5	1.5	246	8	
2025-07-14T00:00	3560	665	1.4	1.4	246	8	
2025-07-14T00:00	3580	664	1.3	1.3	247	8	
2025-07-14T00:00	3600	662	1.2	1.2	246	8	
2025-07-14T00:00	3620	660	1.1	1.1	245	9	
2025-07-14T00:00	3640	659	0.9	0.9	245	9	
2025-07-14T00:00	3660	657	0.8	0.8	245	9	
2025-07-14T00:00	3680	655	0.8	0.8	246	9	
2025-07-14T00:00	3700	654	0.7	0.7	249	8	
2025-07-14T00:00	3720	652	0.5	0.5	252	8	
2025-07-14T00:00	3740	651	0.5	0.5	253	7	
2025-07-14T00:00	3760	649	0.4	0.4	253	7	
2025-07-14T00:00	3780	647	0.2	0.2	251	8	
2025-07-14T00:00	3800	646	0.2	0.2	249	8	
2025-07-14T00:00	3820	644	0.0	0.0	248	8	
2025-07-14T00:00	3840	643	-0.1	-0.1	248	9	
2025-07-14T00:00	3860	641	-0.2	-0.2	248	9	
2025-07-14T00:00	3880	639	-0.2	-0.2	250	9	
2025-07-14T00:00	3900	638	-0.3	-0.3	253	9	
2025-07-14T00:00	3920	636	-0.4	-0.4	255	9	
2025-07-14T00:00	3940	634	-0.5	-0.5	257	9	
2025-07-14T00:00	3960	633	-0.6	-0.6	258	9	
2025-07-14T00:00	3980	631	-0.7	-0.7	259	9	
2025-07-14T00:00	4000	630	-0.8	-0.8	260	9	
2025-07-14T00:00	4020	628	-0.9	-0.9	261	9	
2025-07-14T00:00	4040	627	-1.0	-1.0	262	9	
2025-07-14T00:00	4060	625	-1.1	-1.1	263	9	
2025-07-14T00:00	4080	624	-1.3	-1.3	265	9	
2025-07-14T00:00	4100	622	-1.4	-1.4	267	8	
2025-07-14T00:00	4120	620	-1.4	-1.4	269	8	
2025-07-14T00:00	4140	619	-1.6	-1.6	270	8	
2025-07-14T00:00	4160	617	-1.7	-1.7	271	7	
2025-07-14T00:00	4180	616	-1.8	-1.8	270	7	
2025-07-14T00:00	4200	614	-1.9	-1.9	269	7	
2025-07-14T00:00	4220	613	-2.0	-2.0	266	7	
2025-07-14T00:00	4240	611	-2.1	-2.1	263	7	
2025-07-14T00:00	4260	610	-2.1	-2.1	261	8	
2025-07-14T00:00	4280	608	-2.2	-2.2	258	8	
2025-07-14T00:00	4300	607	-2.3	-2.3	256	9	
2025-07-14T00:00	4320	605	-2.4	-2.4	254	10	
2025-07-14T00:00	4340	603	-2.4	-2.4	253	10	
2025-07-14T00:00	4360	602	-2.5	-2.5	253	10	
2025-07-14T00:00	4380	600	-2.6	-2.6	253	10	
2025-07-14T00:00	4400	599	-2.7	-2.7	253	10	
2025-07-14T00:00	4420	597	-2.8	-2.8	253	10	
2025-07-14T00:00	4440	596	-2.8	-2.8	253	9	
2025-07-14T00:00	4460	594	-2.8	-2.9	253	9	
2025-07-14T00:00	4480	593	-3.0	-3.0	253	8	
2025-07-14T00:00	4500	591	-3.0	-3.0	253	8	
2025-07-14T00:00	4520	590	-3.1	-3.1	252	7	
2025-07-14T00:00	4540	589	-3.2	-3.3	251	7	
2025-07-14T00:00	4560	587	-3.4	-3.4	251	7	
2025-07-14T00:00	4580	586	-3.4	-3.4	251	7	
2025-07-14T00:00	4600	584	-3.5	-3.5	251	7	
2025-07-14T00:00	4620	583	-3.5	-3.6	252	7	
2025-07-14T00:00	4640	581	-3.5	-3.7	254	8	
2025-07-14T00:00	4660	580	-3.6	-3.8	255	8	
2025-07-14T00:00	4680	578	-3.7	-3.9	257	8	
2025-07-14T00:00	4700	577	-3.8	-4.0	258	8	
2025-07-14T00:00	4720	575	-4.0	-4.0	258	8	
2025-07-14T00:00	4740	574	-4.1	-4.1	258	8	
2025-07-14T00:00	4760	572	-4.3	-4.3	257	9	
2025-07-14T00:00	4780	571	-4.4	-4.4	256	9	
2025-07-14T00:00	4800	569	-4.5	-4.5	254	9	
2025-07-14T00:00	4820	568	-4.6	-4.6	252	10	
2025-07-14T00:00	4840	567	-4.7	-4.7	251	10	
2025-07-14T00:00	4860	565	-4.8	-4.8	250	11	
2025-07-14T00:00	4880	564	-4.9	-4.9	249	11	
2025-07-14T00:00	4900	562	-5.1	-5.1	249	12	
2025-07-14T00:00	4920	561	-5.2	-5.2	248	12	
2025-07-14T00:00	4940	559	-5.2	-5.2	248	12	
2025-07-14T00:00	4960	558	-5.3	-5.3	248	11	
2025-07-14T00:00	4980	556	-5.4	-5.4	247	11	
2025-07-14T00:00	5000	555	-5.5	-5.5	247	10	
2025-07-14T00:00	5020	554	-5.5	-5.7	247	10	
2025-07-14T00:00	5040	552	-5.6	-5.6	247	9	
2025-07-14T00:00	5060	551	-5.7	-5.7	248	9	
2025-07-14T00:00	5080	550	-5.9	-5.9	249	8	
2025-07-14T00:00	5100	548	-6.2	-6.2	251	7	
2025-07-14T00:00	5120	547	-6.2	-6.2	254	7	
2025-07-14T00:00	5140	545	-6.3	-6.3	257	7	
2025-07-14T00:00	5160	544	-6.4	-6.4	260	6	
2025-07-14T00:00	5180	542	-6.5	-6.5	262	7	
2025-07-14T00:00	5200	541	-6.6	-6.6	264	7	
2025-07-14T00:00	5220	540	-6.8	-6.8	265	7	
2025-07-14T00:00	5240	538	-6.9	-6.9	266	7	
2025-07-14T00:00	5260	537	-6.9	-6.9	265	8	
2025-07-14T00:00	5280	536	-7.4	-7.4	265	9	
2025-07-14T00:00	5300	534	-7.6	-7.6	264	9	
2025-07-14T00:00	5320	533	-7.6	-7.6	262	10	
2025-07-14T00:00	5340	532	-7.6	-7.6	260	11	
2025-07-14T00:00	5360	530	-7.8	-7.8	256	11	
2025-07-14T00:00	5380	529	-8.2	-8.3	253	11	
2025-07-14T00:00	5400	527	-8.3	-8.7	250	12	
2025-07-14T00:00	5420	526	-8.4	-8.8	245	11	
2025-07-14T00:00	5440	525	-8.5	-8.9	240	11	
2025-07-14T00:00	5460	523	-8.6	-8.8	236	10	
2025-07-14T00:00	5480	522	-8.7	-9.2	233	9	
2025-07-14T00:00	5500	521	-8.8	-9.4	233	8	
2025-07-14T00:00	5520	519	-9.0	-9.6	235	8	
2025-07-14T00:00	5540	518	-9.1	-9.7	239	8	
2025-07-14T00:00	5560	517	-9.2	-9.7	243	8	
2025-07-14T00:00	5580	515	-9.4	-9.8	246	8	
2025-07-14T00:00	5600	514	-9.5	-9.8	249	9	
2025-07-14T00:00	5620	513	-9.6	-9.9	250	9	
2025-07-14T00:00	5640	511	-9.8	-10.0	251	9	
2025-07-14T00:00	5660	510	-9.9	-10.1	251	10	
2025-07-14T00:00	5680	509	-10.0	-10.3	251	10	
2025-07-14T00:00	5700	507	-10.1	-10.3	250	10	
2025-07-14T00:00	5720	506	-10.2	-10.4	250	10	
2025-07-14T00:00	5740	505	-10.3	-10.5	250	10	
2025-07-14T00:00	5760	503	-10.4	-10.6	251	10	
2025-07-14T00:00	5780	502	-10.6	-10.9	252	10	
2025-07-14T00:00	5800	501	-10.7	-11.0	254	11	
2025-07-14T00:00	5820	500	-10.8	-11.0	255	11	
2025-07-14T00:00	5840	498	-10.8	-11.1	258	11	
2025-07-14T00:00	5860	497	-11.0	-11.2	260	11	
2025-07-14T00:00	5880	496	-11.1	-11.4	262	11	
2025-07-14T00:00	5900	495	-11.3	-11.4	262	11	
2025-07-14T00:00	5920	493	-11.4	-11.5	263	11	
2025-07-14T00:00	5940	492	-11.5	-11.5	262	11	
2025-07-14T00:00	5960	491	-11.6	-11.6	260	11	
2025-07-14T00:00	5980	489	-11.8	-11.8	258	11	
2025-07-14T00:00	6000	488	-11.9	-12.1	255	11	
2025-07-14T00:00	6020	487	-12.0	-12.3	253	11	
2025-07-14T00:00	6040	485	-12.2	-12.5	252	11	
2025-07-14T00:00	6060	484	-12.2	-12.6	251	12	
2025-07-14T00:00	6080	483	-12.3	-12.8	252	12	
2025-07-14T00:00	6100	482	-12.5	-12.9	253	12	
2025-07-14T00:00	6120	480	-12.6	-13.1	254	12	
2025-07-14T00:00	6140	479	-12.7	-13.3	256	13	
2025-07-14T00:00	6160	478	-12.9	-13.4	258	13	
2025-07-14T00:00	6180	477	-13.0	-13.5	260	13	
2025-07-14T00:00	6200	475	-13.1	-13.8	261	13	
2025-07-14T00:00	6220	474	-13.3	-13.9	261	13	
2025-07-14T00:00	6240	473	-13.4	-14.1	262	13	
2025-07-14T00:00	6260	472	-13.5	-14.3	261	13	
2025-07-14T00:00	6280	470	-13.6	-14.5	260	12	
2025-07-14T00:00	6300	469	-13.7	-14.6	258	12	
2025-07-14T00:00	6320	468	-13.9	-14.8	256	11	
2025-07-14T00:00	6340	467	-14.0	-14.8	254	11	
2025-07-14T00:00	6360	465	-14.1	-14.8	252	10	
2025-07-14T00:00	6380	464	-14.2	-15.1	250	10	
2025-07-14T00:00	6400	463	-14.3	-15.2	249	9	
2025-07-14T00:00	6420	462	-14.5	-15.4	248	9	
2025-07-14T00:00	6440	461	-14.6	-15.6	250	9	
2025-07-14T00:00	6460	459	-14.8	-15.7	252	9	
2025-07-14T00:00	6480	458	-14.9	-15.9	253	10	
2025-07-14T00:00	6500	457	-15.0	-16.1	255	10	
2025-07-14T00:00	6520	456	-15.2	-16.3	255	11	
2025-07-14T00:00	6540	455	-15.3	-16.5	255	11	
2025-07-14T00:00	6560	453	-15.4	-16.6	255	12	
2025-07-14T00:00	6580	452	-15.6	-16.8	255	12	
2025-07-14T00:00	6600	451	-15.7	-16.9	255	12	
2025-07-14T00:00	6620	450	-15.8	-17.1	255	12	
2025-07-14T00:00	6640	449	-15.9	-17.3	256	12	
2025-07-14T00:00	6660	447	-16.1	-17.3	257	11	
2025-07-14T00:00	6680	446	-16.2	-17.5	258	11	
2025-07-14T00:00	6700	445	-16.3	-17.7	259	10	
2025-07-14T00:00	6720	444	-16.4	-17.8	258	10	
2025-07-14T00:00	6740	443	-16.6	-17.8	257	9	
2025-07-14T00:00	6760	441	-16.7	-17.8	255	9	
2025-07-14T00:00	6780	440	-16.9	-18.0	253	8	
2025-07-14T00:00	6800	439	-17.0	-17.9	252	8	
2025-07-14T00:00	6820	438	-17.2	-17.7	252	8	
2025-07-14T00:00	6840	437	-17.3	-17.9	252	9	
2025-07-14T00:00	6860	436	-17.4	-18.1	251	10	
2025-07-14T00:00	6880	434	-17.6	-18.5	250	11	
2025-07-14T00:00	6900	433	-17.7	-18.9	249	11	
2025-07-14T00:00	6920	432	-17.9	-18.6	248	12	
2025-07-14T00:00	6940	431	-18.0	-18.5	246	13	
2025-07-14T00:00	6960	430	-18.1	-18.4	245	14	
2025-07-14T00:00	6980	429	-18.2	-18.8	245	14	
2025-07-14T00:00	7000	428	-18.4	-18.9	245	14	
2025-07-14T00:00	7020	426	-18.5	-19.0	247	14	
2025-07-14T00:00	7040	425	-18.7	-19.2	250	14	
2025-07-14T00:00	7060	424	-18.8	-19.4	253	13	
2025-07-14T00:00	7080	423	-18.9	-19.5	257	13	
2025-07-14T00:00	7100	422	-19.1	-19.5	261	12	
2025-07-14T00:00	7120	421	-19.2	-19.7	264	12	
2025-07-14T00:00	7140	420	-19.4	-20.0	265	12	
2025-07-14T00:00	7160	418	-19.5	-20.2	264	12	
2025-07-14T00:00	7180	417	-19.9	-21.0	262	11	
2025-07-14T00:00	7200	416	-20.1	-21.2	259	11	
2025-07-14T00:00	7220	415	-20.1	-21.1	257	12	
2025-07-14T00:00	7240	414	-20.2	-21.2	254	12	
2025-07-14T00:00	7260	413	-20.6	-22.0	253	12	
2025-07-14T00:00	7280	412	-20.8	-22.4	253	12	
2025-07-14T00:00	7300	411	-21.0	-22.7	254	12	
2025-07-14T00:00	7320	410	-21.2	-23.0	256	12	
2025-07-14T00:00	7340	408	-21.3	-23.0	258	12	
2025-07-14T00:00	7360	407	-21.4	-23.6	260	12	
2025-07-14T00:00	7380	406	-21.7	-25.0	261	11	
2025-07-14T00:00	7400	405	-21.8	-25.2	262	12	
2025-07-14T00:00	7420	404	-21.8	-24.9	262	12	
2025-07-14T00:00	7440	403	-22.1	-26.3	261	12	
2025-07-14T00:00	7460	402	-22.3	-27.2	261	12	
2025-07-14T00:00	7480	401	-22.5	-28.2	261	12	
2025-07-14T00:00	7500	400	-22.4	-25.6	262	12	
2025-07-14T00:00	7520	398	-22.6	-26.9	264	12	
2025-07-14T00:00	7540	397	-22.8	-26.0	266	13	
2025-07-14T00:00	7560	396	-23.0	-27.6	268	13	
2025-07-14T00:00	7580	395	-23.4	-30.4	271	13	
2025-07-14T00:00	7600	394	-23.5	-30.8	272	13	
2025-07-14T00:00	7620	393	-23.6	-30.6	274	14	
2025-07-14T00:00	7640	392	-23.8	-31.5	275	14	
2025-07-14T00:00	7660	391	-23.9	-31.2	276	14	
2025-07-14T00:00	7680	390	-24.0	-30.6	277	14	
2025-07-14T00:00	7700	389	-24.1	-31.3	278	15	
2025-07-14T00:00	7720	388	-24.2	-31.4	278	15	
2025-07-14T00:00	7740	387	-24.3	-32.2	278	15	
2025-07-14T00:00	7760	386	-24.5	-31.3	278	16	
2025-07-14T00:00	7780	385	-24.6	-31.1	277	16	
2025-07-14T00:00	7800	384	-24.8	-33.6	277	16	
2025-07-14T00:00	7820	383	-25.0	-36.5	276	16	
2025-07-14T00:00	7840	381	-25.2	-39.3	275	16	
2025-07-14T00:00	7860	380	-25.2	-33.4	275	17	
2025-07-14T00:00	7880	379	-25.2	-29.4	274	17	
2025-07-14T00:00	7900	378	-25.2	-27.7	273	17	
2025-07-14T00:00	7920	377	-25.2	-27.9	272	16	
2025-07-14T00:00	7940	376	-25.4	-28.2	270	16	
2025-07-14T00:00	7960	375	-25.5	-28.9	269	16	
2025-07-14T00:00	7980	374	-25.7	-29.3	268	16	
2025-07-14T00:00	8000	373	-25.8	-29.6	266	16	
2025-07-14T00:00	8020	372	-26.0	-29.7	266	16	
2025-07-14T00:00	8040	371	-26.2	-29.9	266	17	
2025-07-14T00:00	8060	370	-26.3	-30.2	265	17	
2025-07-14T00:00	8080	369	-26.5	-30.4	265	18	
2025-07-14T00:00	8100	368	-26.7	-30.5	265	18	
2025-07-14T00:00	8120	367	-26.9	-30.3	264	18	
2025-07-14T00:00	8140	366	-27.1	-30.5	263	18	
2025-07-14T00:00	8160	365	-27.2	-30.9	262	18	
2025-07-14T00:00	8180	364	-27.4	-31.7	261	18	
2025-07-14T00:00	8200	363	-27.5	-32.9	259	18	
2025-07-14T00:00	8220	362	-27.6	-34.5	257	18	
2025-07-14T00:00	8240	361	-27.7	-34.9	256	17	
2025-07-14T00:00	8260	360	-27.8	-35.1	255	17	
2025-07-14T00:00	8280	359	-28.0	-35.3	254	17	
2025-07-14T00:00	8300	358	-27.9	-36.3	253	17	
2025-07-14T00:00	8320	357	-28.0	-36.9	253	17	
2025-07-14T00:00	8340	356	-28.1	-37.6	252	17	
2025-07-14T00:00	8360	355	-28.2	-37.7	252	17	
2025-07-14T00:00	8380	354	-28.3	-37.8	252	18	
2025-07-14T00:00	8400	353	-28.4	-37.8	252	18	
2025-07-14T00:00	8420	352	-28.6	-37.8	253	18	
2025-07-14T00:00	8440	351	-28.8	-37.7	253	18	
2025-07-14T00:00	8460	350	-29.0	-37.7	253	18	
2025-07-14T00:00	8480	349	-29.1	-37.8	253	18	
2025-07-14T00:00	8500	348	-29.3	-37.9	253	18	
2025-07-14T00:00	8520	347	-29.5	-38.0	253	18	
2025-07-14T00:00	8540	346	-29.6	-38.3	253	18	
2025-07-14T00:00	8560	345	-29.8	-38.4	254	18	
2025-07-14T00:00	8580	344	-30.0	-38.5	254	18	
2025-07-14T00:00	8600	343	-30.1	-38.7	255	18	
2025-07-14T00:00	8620	342	-30.3	-38.7	255	18	
2025-07-14T00:00	8640	341	-30.5	-38.7	255	18	
2025-07-14T00:00	8660	340	-30.6	-38.9	255	18	
2025-07-14T00:00	8680	339	-30.7	-39.2	255	18	
2025-07-14T00:00	8700	338	-30.8	-39.6	254	18	
2025-07-14T00:00	8720	337	-30.9	-39.9	254	18	
2025-07-14T00:00	8740	337	-31.0	-39.9	254	18	
2025-07-14T00:00	8760	336	-31.2	-40.0	254	18	
2025-07-14T00:00	8780	335	-31.4	-40.1	254	18	
2025-07-14T00:00	8800	334	-31.6	-40.1	254	18	
2025-07-14T00:00	8820	333	-31.8	-40.1	254	18	
2025-07-14T00:00	8840	332	-32.0	-40.2	255	18	
2025-07-14T00:00	8860	331	-32.2	-40.2	255	18	
2025-07-14T00:00	8880	330	-32.3	-40.3	256	18	
2025-07-14T00:00	8900	329	-32.5	-40.2	256	18	
2025-07-14T00:00	8920	328	-32.7	-39.6	256	18	
2025-07-14T00:00	8940	327	-32.8	-38.6	256	19	
2025-07-14T00:00	8960	326	-33.0	-38.3	256	19	
2025-07-14T00:00	8980	325	-33.1	-38.0	256	19	
2025-07-14T00:00	9000	324	-33.3	-37.8	256	19	
2025-07-14T00:00	9020	323	-33.4	-37.5	256	20	
2025-07-14T00:00	9040	323	-33.5	-38.1	256	20	
2025-07-14T00:00	9060	322	-33.7	-37.7	256	20	
2025-07-14T00:00	9080	321	-33.8	-37.5	256	19	
2025-07-14T00:00	9100	320	-33.9	-38.3	256	19	
2025-07-14T00:00	9120	319	-34.0	-39.3	256	19	
2025-07-14T00:00	9140	318	-34.2	-39.4	255	19	
2025-07-14T00:00	9160	317	-34.4	-40.0	254	19	
2025-07-14T00:00	9180	316	-34.5	-39.7	254	19	
2025-07-14T00:00	9200	315	-34.7	-39.7	253	20	
2025-07-14T00:00	9220	314	-34.8	-40.2	253	20	
2025-07-14T00:00	9240	313	-35.0	-40.7	253	20	
2025-07-14T00:00	9260	313	-35.2	-40.6	254	19	
2025-07-14T00:00	9280	312	-35.4	-40.2	254	19	
2025-07-14T00:00	9300	311	-35.6	-40.2	254	19	
2025-07-14T00:00	9320	310	-35.7	-40.3	254	19	
2025-07-14T00:00	9340	309	-35.9	-40.4	254	19	
2025-07-14T00:00	9360	308	-36.1	-40.5	255	19	
2025-07-14T00:00	9380	307	-36.2	-40.7	254	19	
2025-07-14T00:00	9400	306	-36.4	-40.9	254	19	
2025-07-14T00:00	9420	305	-36.6	-40.9	254	19	
2025-07-14T00:00	9440	304	-36.8	-41.0	254	19	
2025-07-14T00:00	9460	304	-37.0	-41.2	253	19	
2025-07-14T00:00	9480	303	-37.1	-41.4	253	19	
2025-07-14T00:00	9500	302	-37.3	-41.6	253	19	
2025-07-14T00:00	9520	301	-37.5	-41.7	253	19	
2025-07-14T00:00	9540	300	-37.6	-41.9	252	19	
2025-07-14T00:00	9560	299	-37.8	-42.0	252	18	
2025-07-14T00:00	9580	298	-38.0	-42.1	252	18	
2025-07-14T00:00	9600	298	-38.2	-42.3	252	18	
2025-07-14T00:00	9620	297	-38.3	-42.5	252	18	
2025-07-14T00:00	9640	296	-38.5	-42.7	252	18	
2025-07-14T00:00	9660	295	-38.7	-42.8	252	18	
2025-07-14T00:00	9680	294	-38.9	-42.8	251	18	
2025-07-14T00:00	9700	293	-39.1	-42.9	251	18	
2025-07-14T00:00	9720	292	-39.3	-42.9	251	18	
2025-07-14T00:00	9740	292	-39.5	-43.0	251	18	
2025-07-14T00:00	9760	291	-39.7	-43.0	251	18	
2025-07-14T00:00	9780	290	-39.9	-43.1	251	18	
2025-07-14T00:00	9800	289	-40.0	-43.2	251	18	
2025-07-14T00:00	9820	288	-40.3	-43.3	251	19	
2025-07-14T00:00	9840	287	-40.4	-43.6	251	19	
2025-07-14T00:00	9860	286	-40.6	-44.0	251	19	
2025-07-14T00:00	9880	286	-40.8	-44.3	251	19	
2025-07-14T00:00	9900	285	-41.0	-44.3	251	19	
2025-07-14T00:00	9920	284	-41.2	-44.4	251	19	
2025-07-14T00:00	9940	283	-41.3	-44.5	251	19	
2025-07-14T00:00	9960	282	-41.5	-44.9	252	19	
2025-07-14T00:00	9980	281	-41.7	-45.4	252	19	
2025-07-14T00:00	10000	281	-41.8	-45.9	253	19	
2025-07-14T00:00	10018	280	-41.9	-46.4	253	19	
2025-07-14T00:00	10050	278	-42.2	-46.4	253	19	
2025-07-14T00:00	10100	277	-42.6	-46.4	253	18	
2025-07-14T00:00	10150	274	-43.1	-46.6	253	18	
2025-07-14T00:00	10200	272	-43.5	-46.8	252	19	
2025-07-14T00:00	10250	270	-43.8	-47.9	253	19	
2025-07-14T00:00	10300	268	-43.8	-50.5	252	19	
2025-07-14T00:00	10350	266	-44.2	-50.4	250	20	
2025-07-14T00:00	10400	264	-44.6	-51.1	251	20	
2025-07-14T00:00	10450	262	-44.6	-54.5	254	20	
2025-07-14T00:00	10500	260	-44.3	-59.6	260	21	
2025-07-14T00:00	10550	259	-43.9	-60.9	261	20	
2025-07-14T00:00	10600	257	-43.6	-61.3	259	20	
2025-07-14T00:00	10650	255	-43.6	-61.9	261	19	
2025-07-14T00:00	10700	253	-43.5	-62.0	263	18	
2025-07-14T00:00	10750	251	-43.9	-61.9	265	16	
2025-07-14T00:00	10800	249	-44.3	-61.5	267	15	
2025-07-14T00:00	10850	247	-44.6	-60.9	268	14	
2025-07-14T00:00	10900	245	-44.8	-60.8	268	14	
2025-07-14T00:00	10950	244	-45.1	-61.1	267	13	
2025-07-14T00:00	11000	242	-45.6	-61.2	266	13	
2025-07-14T00:00	11050	240	-46.0	-61.2	264	13	
2025-07-14T00:00	11100	238	-46.5	-61.3	262	13	
2025-07-14T00:00	11150	236	-46.8	-61.7	260	13	
2025-07-14T00:00	11200	235	-47.2	-62.0	259	14	
2025-07-14T00:00	11250	233	-47.6	-62.2	258	16	
2025-07-14T00:00	11300	231	-47.9	-62.6	257	17	
2025-07-14T00:00	11350	229	-48.0	-63.5	258	18	
2025-07-14T00:00	11400	228	-48.2	-64.0	258	18	
2025-07-14T00:00	11450	226	-48.5	-64.3	260	19	
2025-07-14T00:00	11500	224	-48.8	-64.6	261	19	
2025-07-14T00:00	11550	222	-49.1	-65.3	262	20	
2025-07-14T00:00	11600	221	-49.2	-65.6	264	20	
2025-07-14T00:00	11650	219	-49.4	-65.9	265	21	
2025-07-14T00:00	11700	217	-49.6	-66.5	263	21	
2025-07-14T00:00	11750	216	-49.6	-67.2	264	22	
2025-07-14T00:00	11800	214	-49.4	-67.8	265	22	
2025-07-14T00:00	11850	212	-49.7	-67.7	266	23	
2025-07-14T00:00	11900	211	-50.0	-67.5	265	23	
2025-07-14T00:00	11950	209	-49.9	-68.3	263	24	
2025-07-14T00:00	12000	208	-49.6	-69.9	261	25	
2025-07-14T00:00	12050	206	-49.7	-70.4	262	26	
2025-07-14T00:00	12100	205	-50.0	-70.2	264	27	
2025-07-14T00:00	12150	203	-48.9	-71.8	265	26	
2025-07-14T00:00	12200	201	-48.2	-71.5	265	25	
2025-07-14T00:00	12250	200	-48.4	-71.5	263	24	
2025-07-14T00:00	12300	198	-48.2	-72.1	261	23	
2025-07-14T00:00	12350	197	-48.1	-72.6	259	23	
2025-07-14T00:00	12400	195	-48.0	-73.2	259	23	
2025-07-14T00:00	12450	194	-48.1	-74.2	259	23	
2025-07-14T00:00	12500	192	-47.9	-74.1	259	24	
2025-07-14T00:00	12550	191	-47.8	-73.7	258	25	
2025-07-14T00:00	12600	190	-47.6	-73.1	258	27	
2025-07-14T00:00	12650	188	-47.7	-74.3	258	28	
2025-07-14T00:00	12700	187	-47.8	-75.3	257	30	
2025-07-14T00:00	12750	185	-47.9	-74.9	257	31	
2025-07-14T00:00	12800	184	-48.2	-75.0	257	32	
2025-07-14T00:00	12850	182	-48.6	-74.9	256	33	
2025-07-14T00:00	12900	181	-48.8	-75.2	257	34	
2025-07-14T00:00	12950	180	-49.0	-75.4	258	33	
2025-07-14T00:00	13000	178	-49.1	-75.6	259	33	
2025-07-14T00:00	13050	177	-49.4	-75.8	259	31	
2025-07-14T00:00	13100	176	-49.6	-76.3	260	29	
2025-07-14T00:00	13150	174	-49.7	-76.5	259	28	
2025-07-14T00:00	13200	173	-50.0	-76.6	259	27	
2025-07-14T00:00	13250	172	-50.3	-76.6	260	26	
2025-07-14T00:00	13300	170	-50.5	-76.6	261	25	
2025-07-14T00:00	13350	169	-50.8	-76.8	263	25	
2025-07-14T00:00	13400	168	-51.1	-77.1	266	25	
2025-07-14T00:00	13450	167	-51.3	-77.4	268	25	
2025-07-14T00:00	13500	165	-51.5	-77.7	268	24	
2025-07-14T00:00	13550	164	-51.6	-77.6	266	24	
2025-07-14T00:00	13600	163	-51.7	-77.9	263	24	
2025-07-14T00:00	13650	161	-51.9	-78.0	262	23	
2025-07-14T00:00	13700	160	-52.2	-78.0	260	23	
2025-07-14T00:00	13750	159	-52.6	-77.9	258	22	
2025-07-14T00:00	13800	158	-53.0	-77.9	257	22	
2025-07-14T00:00	13850	157	-53.4	-78.1	255	21	
2025-07-14T00:00	13900	155	-53.6	-78.7	252	20	
2025-07-14T00:00	13950	154	-53.8	-78.8	249	20	
2025-07-14T00:00	14000	153	-54.0	-78.9	246	20	
2025-07-14T00:00	14050	152	-53.9	-78.8	245	21	
2025-07-14T00:00	14100	151	-53.6	-78.5	247	22	
2025-07-14T00:00	14150	149	-53.8	-78.3	249	22	
2025-07-14T00:00	14200	148	-53.9	-78.8	251	22	
2025-07-14T00:00	14250	147	-54.1	-79.2	252	22	
2025-07-14T00:00	14300	146	-53.8	-79.0	252	21	
2025-07-14T00:00	14350	145	-53.7	-79.1	252	19	
2025-07-14T00:00	14400	144	-53.5	-79.5	251	20	
2025-07-14T00:00	14450	143	-53.5	-79.2	251	21	
2025-07-14T00:00	14500	141	-53.4	-79.2	251	21	
2025-07-14T00:00	14550	140	-53.5	-78.8	251	21	
2025-07-14T00:00	14600	139	-53.9	-79.7	252	22	
2025-07-14T00:00	14650	138	-54.1	-79.8	253	21	
2025-07-14T00:00	14700	137	-54.0	-79.5	255	20	
2025-07-14T00:00	14750	136	-54.1	-79.3	258	19	
2025-07-14T00:00	14800	135	-54.5	-79.8	260	19	
2025-07-14T00:00	14850	134	-54.8	-80.1	262	18	
2025-07-14T00:00	14900	133	-55.1	-80.2	264	18	
2025-07-14T00:00	14950	132	-55.3	-80.3	265	17	
2025-07-14T00:00	15000	131	-55.5	-79.9	264	16	
2025-07-14T00:00	15050	130	-55.7	-80.0	264	16	
2025-07-14T00:00	15100	129	-55.7	-80.1	266	16	
2025-07-14T00:00	15150	128	-55.8	-80.2	265	15	
2025-07-14T00:00	15200	127	-55.8	-80.5	262	14	
2025-07-14T00:00	15250	126	-56.0	-80.4	259	14	
2025-07-14T00:00	15300	125	-56.1	-80.6	255	14	
2025-07-14T00:00	15350	124	-56.2	-81.2	251	15	
2025-07-14T00:00	15400	123	-56.2	-80.0	252	15	
2025-07-14T00:00	15450	122	-56.2	-79.7	255	15	
2025-07-14T00:00	15500	121	-56.5	-81.0	257	15	
2025-07-14T00:00	15550	120	-56.7	-81.1	258	15	
2025-07-14T00:00	15600	119	-56.8	-81.3	257	14	
2025-07-14T00:00	15650	118	-57.1	-81.4	254	13	
2025-07-14T00:00	15700	117	-57.0	-81.0	249	13	
2025-07-14T00:00	15750	116	-57.1	-81.4	248	13	
2025-07-14T00:00	15800	115	-57.0	-81.4	250	14	
2025-07-14T00:00	15850	114	-56.8	-81.0	247	14	
2025-07-14T00:00	15900	114	-57.0	-81.1	245	14	
2025-07-14T00:00	15950	113	-57.2	-81.9	247	14	
2025-07-14T00:00	16000	112	-57.0	-82.0	250	14	
2025-07-14T00:00	16050	111	-56.9	-81.9	250	15	
2025-07-14T00:00	16100	110	-57.1	-81.8	247	15	
2025-07-14T00:00	16150	109	-57.0	-81.4	244	16	
2025-07-14T00:00	16200	108	-57.1	-81.7	242	16	
2025-07-14T00:00	16250	107	-57.5	-82.2	241	17	
2025-07-14T00:00	16300	107	-57.8	-82.3	242	18	
2025-07-14T00:00	16350	106	-57.8	-82.2	244	19	
2025-07-14T00:00	16400	105	-57.4	-82.1	247	19	
2025-07-14T00:00	16450	104	-57.1	-81.9	250	19	
2025-07-14T00:00	16500	103	-56.8	-81.3	254	17	
2025-07-14T00:00	16550	102	-56.8	-80.9	257	15	
2025-07-14T00:00	16600	102	-56.7	-81.3	259	14	
2025-07-14T00:00	16650	101	-56.4	-81.8	258	14	
2025-07-14T00:00	16700	100	-56.7	-81.9	255	14	
2025-07-14T00:00	16750	99	-57.0	-81.1	252	15	
2025-07-14T00:00	16800	98	-57.1	-81.6	249	15	
2025-07-14T00:00	16850	98	-57.4	-82.5	247	16	
2025-07-14T00:00	16900	97	-57.4	-82.6	249	16	
2025-07-14T00:00	16950	96	-57.3	-82.8	252	17	
2025-07-14T00:00	17000	95	-57.5	-82.8	258	16	
2025-07-14T00:00	17050	95	-57.4	-82.5	264	15	
2025-07-14T00:00	17100	94	-57.1	-82.5	268	14	
2025-07-14T00:00	17150	93	-57.1	-82.8	271	13	
2025-07-14T00:00	17200	92	-57.3	-82.8	274	12	
2025-07-14T00:00	17250	92	-57.5	-82.9	279	11	
2025-07-14T00:00	17300	91	-57.5	-83.0	286	9	
2025-07-14T00:00	17350	90	-57.4	-82.9	291	8	
2025-07-14T00:00	17400	90	-57.5	-82.8	294	7	
2025-07-14T00:00	17450	89	-57.8	-82.9	298	7	
2025-07-14T00:00	17500	88	-58.0	-82.9	302	6	
2025-07-14T00:00	17550	87	-58.3	-83.1	305	4	
2025-07-14T00:00	17600	87	-58.4	-83.3	301	2	
2025-07-14T00:00	17650	86	-58.4	-83.2	271	1	
2025-07-14T00:00	17700	85	-58.7	-83.5	219	2	
2025-07-14T00:00	17750	85	-58.9	-83.5	206	3	
2025-07-14T00:00	17800	84	-58.8	-83.4	214	3	
2025-07-14T00:00	17850	83	-59.0	-83.6	221	5	
2025-07-14T00:00	17900	83	-59.0	-83.7	222	6	
2025-07-14T00:00	17950	82	-58.7	-83.6	222	6	
2025-07-14T00:00	18000	81	-58.7	-83.5	226	7	
2025-07-14T00:00	18050	81	-59.1	-83.5	231	8	
2025-07-14T00:00	18100	80	-58.9	-83.9	234	8	
2025-07-14T00:00	18150	79	-57.9	-83.7	226	7	
2025-07-14T00:00	18200	79	-57.5	-83.7	214	7	
2025-07-14T00:00	18250	78	-57.6	-83.4	207	8	
2025-07-14T00:00	18300	78	-57.8	-83.2	209	8	
2025-07-14T00:00	18350	77	-57.6	-83.1	218	8	
2025-07-14T00:00	18400	76	-57.5	-83.2	228	9	
2025-07-14T00:00	18450	76	-57.2	-83.1	235	9	
2025-07-14T00:00	18500	75	-57.4	-83.2	240	8	
2025-07-14T00:00	18550	75	-57.2	-82.5	244	7	
2025-07-14T00:00	18600	74	-57.3	-82.6	253	6	
2025-07-14T00:00	18650	73	-57.6	-82.8	264	5	
2025-07-14T00:00	18700	73	-57.5	-82.3	268	3	
2025-07-14T00:00	18750	72	-57.3	-82.6	254	2	
2025-07-14T00:00	18800	72	-57.4	-83.3	219	2	
2025-07-14T00:00	18850	71	-57.6	-83.4	205	3	
2025-07-14T00:00	18900	71	-57.7	-83.4	204	4	
2025-07-14T00:00	18950	70	-57.9	-83.5	204	5	
2025-07-14T00:00	19000	69	-57.6	-83.3	204	5	
2025-07-14T00:00	19050	69	-57.0	-82.9	211	5	
2025-07-14T00:00	19100	68	-57.2	-82.6	225	4	
2025-07-14T00:00	19150	68	-57.3	-82.7	231	4	
2025-07-14T00:00	19200	67	-57.5	-83.5	217	4	
2025-07-14T00:00	19250	67	-57.1	-83.7	194	4	
2025-07-14T00:00	19300	66	-57.0	-83.7	184	5	
2025-07-14T00:00	19350	66	-57.3	-83.5	182	6	
2025-07-14T00:00	19400	65	-57.5	-83.6	187	6	
2025-07-14T00:00	19450	65	-57.2	-83.3	199	5	
2025-07-14T00:00	19500	64	-57.2	-83.2	210	4	
2025-07-14T00:00	19550	64	-56.6	-83.2	199	2	
2025-07-14T00:00	19600	63	-55.9	-83.1	151	2	
2025-07-14T00:00	19650	63	-55.7	-82.7	138	3	
2025-07-14T00:00	19700	62	-55.7	-82.3	145	5	
2025-07-14T00:00	19750	62	-56.0	-82.4	154	5	
2025-07-14T00:00	19800	61	-55.9	-82.7	163	5	
2025-07-14T00:00	19850	61	-55.8	-82.9	169	5	
2025-07-14T00:00	19900	60	-55.7	-82.9	166	5	
2025-07-14T00:00	19950	60	-55.1	-82.7	160	5	
2025-07-14T00:00	20000	59	-54.7	-82.5	158	5	
2025-07-14T00:00	20050	59	-54.8		151	4	
2025-07-14T00:00	20100	58	-54.8		141	4	
2025-07-14T00:00	20150	58	-54.9		127	3	
2025-07-14T00:00	20200	57	-55.2		107	2	
2025-07-14T00:00	20250	57	-55.3		101	3	
2025-07-14T00:00	20300	57	-55.0		118	4	
2025-07-14T00:00	20350	56	-54.6		127	4	
2025-07-14T00:00	20400	56	-54.9		134	5	
2025-07-14T00:00	20450	55	-55.4		145	5	
2025-07-14T00:00	20500	55	-55.6		147	5	
2025-07-14T00:00	20550	54	-55.0		127	3	
2025-07-14T00:00	20600	54	-54.7		91	3	
2025-07-14T00:00	20650	54	-54.4		80	4	
2025-07-14T00:00	20700	53	-54.2		89	5	
2025-07-14T00:00	20750	53	-54.2		103	4	
2025-07-14T00:00	20800	52	-54.2		113	4	
2025-07-14T00:00	20850	52	-54.3		128	4	
2025-07-14T00:00	20900	52	-54.2		151	4	
2025-07-14T00:00	20950	51	-53.9		160	4	
2025-07-14T00:00	21000	51	-53.3		146	3	
2025-07-14T00:00	21050	50	-53.3		112	2	
2025-07-14T00:00	21100	50	-53.4		72	3	
2025-07-14T00:00	21150	50	-53.1		61	5	
2025-07-14T00:00	21200	49	-53.2		62	6	
2025-07-14T00:00	21250	49	-53.3		64	7	
2025-07-14T00:00	21300	48	-53.2		69	8	
2025-07-14T00:00	21350	48	-52.9		77	8	
2025-07-14T00:00	21400	48	-53.1		85	8	
2025-07-14T00:00	21450	47	-53.3		91	9	
2025-07-14T00:00	21500	47	-53.1		92	9	
2025-07-14T00:00	21550	47	-53.1		93	8	
2025-07-14T00:00	21600	46	-53.0		94	7	
2025-07-14T00:00	21650	46	-52.8		90	8	
2025-07-14T00:00	21700	46	-52.8		84	9	
2025-07-14T00:00	21750	45	-53.0		85	10	
2025-07-14T00:00	21800	45	-52.8		92	11	
2025-07-14T00:00	21850	44	-52.6		98	12	
2025-07-14T00:00	21900	44	-52.8		102	13	
2025-07-14T00:00	21950	44	-52.8		105	13	
2025-07-14T00:00	22000	43	-52.7		109	11	
2025-07-14T00:00	22050	43	-52.6		111	9	
2025-07-14T00:00	22100	43	-52.1		108	7	
2025-07-14T00:00	22150	42	-51.9		105	6	
2025-07-14T00:00	22200	42	-51.4		110	7	
2025-07-14T00:00	22250	42	-51.6		117	9	
2025-07-14T00:00	22300	41	-51.8		121	9	
2025-07-14T00:00	22350	41	-52.1		121	10	
2025-07-14T00:00	22400	41	-51.9		117	9	
2025-07-14T00:00	22450	41	-51.8		109	9	
2025-07-14T00:00	22500	40	-51.7		99	8	
2025-07-14T00:00	22550	40	-51.7		91	8	
2025-07-14T00:00	22600	40	-51.9		85	8	
2025-07-14T00:00	22650	39	-51.9		82	9	
2025-07-14T00:00	22700	39	-51.8		84	10	
2025-07-14T00:00	22750	39	-51.8		89	11	
2025-07-14T00:00	22800	38	-51.8		95	11	
2025-07-14T00:00	22850	38	-51.6		100	11	
2025-07-14T00:00	22900	38	-51.6		106	10	
2025-07-14T00:00	22950	38	-51.8		111	10	
2025-07-14T00:00	23000	37	-52.0		117	8	
2025-07-14T00:00	23050	37	-51.7		126	7	
2025-07-14T00:00	23100	37	-51.7		133	6	
2025-07-14T00:00	23150	36	-51.7		129	6	
2025-07-14T00:00	23200	36	-51.5		121	7	
2025-07-14T00:00	23250	36	-51.5		117	8	
2025-07-14T00:00	23300	36	-51.7		118	8	
2025-07-14T00:00	23350	35	-51.8		119	8	
2025-07-14T00:00	23400	35	-51.8		114	7	
2025-07-14T00:00	23450	35	-51.7		102	7	
2025-07-14T00:00	23500	34	-51.6		88	7	
2025-07-14T00:00	23550	34	-51.6		82	8	
2025-07-14T00:00	23600	34	-51.4		83	9	
2025-07-14T00:00	23650	34	-51.0		89	9	
2025-07-14T00:00	23700	33	-51.1		96	9	
2025-07-14T00:00	23750	33	-51.2		102	9	
2025-07-14T00:00	23800	33	-51.0		103	9	
2025-07-14T00:00	23850	33	-50.6		103	10	
2025-07-14T00:00	23900	32	-50.1		106	11	
2025-07-14T00:00	23950	32	-50.1		109	11	
2025-07-14T00:00	24000	32	-50.1		112	9	
2025-07-14T00:00	24050	32	-49.8		116	8	
2025-07-14T00:00	24100	31	-49.9		118	7	
2025-07-14T00:00	24150	31	-50.0		116	7	
2025-07-14T00:00	24200	31	-50.2		108	7	
2025-07-14T00:00	24250	31	-50.2		95	8	
2025-07-14T00:00	24300	30	-49.9		88	9	
2025-07-14T00:00	24350	30	-49.6		89	9	
2025-07-14T00:00	24400	30	-49.4		96	10	
2025-07-14T00:00	24450	30	-49.5		105	10	
2025-07-14T00:00	24500	30	-49.7		114	10	
2025-07-14T00:00	24550	29	-50.0		120	10	
2025-07-14T00:00	24600	29	-50.3		125	11	
2025-07-14T00:00	24650	29	-50.6		125	10	
2025-07-14T00:00	24700	29	-50.3		122	9	
2025-07-14T00:00	24750	28	-50.3		120	7	
2025-07-14T00:00	24800	28	-50.1		124	6	
2025-07-14T00:00	24850	28	-50.0		129	6	
2025-07-14T00:00	24900	28	-50.1		131	5	
2025-07-14T00:00	24950	28	-50.2		134	5	
2025-07-14T00:00	25000	27	-50.1		135	5	
2025-07-14T00:00	25050	27	-49.8		132	6	
2025-07-14T00:00	25100	27	-49.4		122	6	
2025-07-14T00:00	25150	27	-49.3		111	6	
2025-07-14T00:00	25200	27	-49.2		106	6	
2025-07-14T00:00	25250	26	-49.0		110	6	
2025-07-14T00:00	25300	26	-48.9		115	6	
2025-07-14T00:00	25350	26	-49.1		116	6	
2025-07-14T00:00	25400	26	-49.3		108	6	
2025-07-14T00:00	25450	26	-49.1		96	8	
2025-07-14T00:00	25500	25	-48.8		91	10	
2025-07-14T00:00	25550	25	-48.6		90	11	
2025-07-14T00:00	25600	25	-48.3		91	11	
2025-07-14T00:00	25650	25	-48.2		93	10	
2025-07-14T00:00	25700	25	-48.5		93	9	
2025-07-14T00:00	25750	24	-48.7		94	7	
2025-07-14T00:00	25800	24	-48.8		92	6	
2025-07-14T00:00	25850	24	-48.5		83	5	
2025-07-14T00:00	25900	24	-48.3		69	5	
2025-07-14T00:00	25950	24	-48.1		59	6	
2025-07-14T00:00	26000	24	-47.6		56	8	
2025-07-14T00:00	26050	23	-47.2		56	10	
2025-07-14T00:00	26100	23	-47.1		57	11	
2025-07-14T00:00	26150	23	-47.2		60	12	
2025-07-14T00:00	26200	23	-47.4		63	12	
2025-07-14T00:00	26250	23	-47.6		67	12	
2025-07-14T00:00	26300	22	-47.8		70	12	
2025-07-14T00:00	26350	22	-48.0		75	12	
2025-07-14T00:00	26400	22	-48.0		79	12	
2025-07-14T00:00	26450	22	-48.2		82	12	
2025-07-14T00:00	26500	22	-47.9		82	11	
2025-07-14T00:00	26550	22	-47.6		81	11	
2025-07-14T00:00	26600	21	-47.1		83	12	
2025-07-14T00:00	26650	21	-46.9		84	11	
2025-07-14T00:00	26700	21	-46.7		81	11	
2025-07-14T00:00	26750	21	-46.6		76	11	
2025-07-14T00:00	26800	21	-46.2		71	11	
2025-07-14T00:00	26850	21	-45.9		69	12	
2025-07-14T00:00	26900	21	-45.7		69	13	
2025-07-14T00:00	26950	20	-45.6		72	14	
2025-07-14T00:00	27000	20	-45.5		78	15	
2025-07-14T00:00	27050	20	-45.4		85	16	
2025-07-14T00:00	27100	20	-45.5		91	16	
2025-07-14T00:00	27150	20	-45.5		97	17	
2025-07-14T00:00	27200	20	-45.5		101	17	
2025-07-14T00:00	27250	19	-45.5		103	16	
2025-07-14T00:00	27300	19	-45.2		104	15	
2025-07-14T00:00	27350	19	-45.2		104	13	
2025-07-14T00:00	27400	19	-45.4		103	12	
2025-07-14T00:00	27450	19	-45.6		99	10	
2025-07-14T00:00	27500	19	-45.5		91	9	
2025-07-14T00:00	27550	19	-45.3		86	9	
2025-07-14T00:00	27600	18	-45.4		84	10	
2025-07-14T00:00	27650	18	-45.0		86	11	
2025-07-14T00:00	27700	18	-45.0		88	11	
2025-07-14T00:00	27750	18	-45.2		91	12	
2025-07-14T00:00	27800	18	-45.5		93	11	
2025-07-14T00:00	27850	18	-45.6		95	11	
2025-07-14T00:00	27900	18	-45.6		95	12	
2025-07-14T00:00	27950	18	-45.6		93	12	
2025-07-14T00:00	28000	17	-45.6		90	12	
2025-07-14T00:00	28050	17	-45.6		88	13	
2025-07-14T00:00	28100	17	-45.4		89	13	
2025-07-14T00:00	28150	17	-45.2		92	14	
2025-07-14T00:00	28200	17	-45.1		97	13	
2025-07-14T00:00	28250	17	-44.9		100	12	
2025-07-14T00:00	28300	17	-44.8		98	10	
2025-07-14T00:00	28350	17	-44.6		90	9	
2025-07-14T00:00	28400	16	-44.1		76	8	
2025-07-14T00:00	28450	16	-43.5		66	10	
2025-07-14T00:00	28500	16	-43.5		63	11	
2025-07-14T00:00	28550	16	-43.5		64	13	
2025-07-14T00:00	28600	16	-43.3		67	15	
2025-07-14T00:00	28650	16	-43.2		69	15	
2025-07-14T00:00	28700	16	-43.4		71	15	
2025-07-14T00:00	28750	16	-43.5		74	14	
2025-07-14T00:00	28800	15	-43.5		79	14	
2025-07-14T00:00	28850	15	-43.5		84	13	
2025-07-14T00:00	28900	15	-43.6		87	12	
2025-07-14T00:00	28950	15	-43.6		89	12	
2025-07-14T00:00	29000	15	-43.4		89	12	
2025-07-14T00:00	29050	15	-43.4		87	12	
2025-07-14T00:00	29100	15	-43.1		85	12	
2025-07-14T00:00	29150	15	-42.9		82	12	
2025-07-14T00:00	29200	15	-43.0		80	11	
2025-07-14T00:00	29250	14	-43.0		77	11	
2025-07-14T00:00	29300	14	-42.9		75	12	
2025-07-14T00:00	29350	14	-42.7		74	12	
2025-07-14T00:00	29400	14	-42.5		73	11	
2025-07-14T00:00	29450	14	-42.5		76	10	
2025-07-14T00:00	29500	14	-42.6		82	10	
2025-07-14T00:00	29550	14	-42.6		88	10	
2025-07-14T00:00	29600	14	-42.6		91	11	
2025-07-14T00:00	29650	14	-42.5		92	11	
2025-07-14T00:00	29700	14	-42.3		90	11	
2025-07-14T00:00	29750	13	-42.3		84	10	
2025-07-14T00:00	29800	13	-41.9		76	10	
2025-07-14T00:00	29850	13	-41.5		68	10	
2025-07-14T00:00	29900	13	-41.3		63	11	
2025-07-14T00:00	29950	13	-41.3		61	11	
2025-07-14T00:00	30000	13	-41.1		66	12	
2025-07-14T00:00	30050	13	-40.8		72	12	
2025-07-14T00:00	30100	13	-40.8		77	12	
2025-07-14T00:00	30150	13	-40.7		76	11	
2025-07-14T00:00	30200	13	-40.6		69	11	
2025-07-14T00:00	30250	12	-40.4		62	11	
2025-07-14T00:00	30300	12	-40.4		61	12	
2025-07-14T00:00	30350	12	-40.5		61	12	
2025-07-14T00:00	30400	12	-40.5		61	13	
2025-07-14T00:00	30450	12	-40.4		65	14	
2025-07-14T00:00	30500	12	-40.4		70	15	
2025-07-14T00:00	30550	12	-40.6		75	16	
2025-07-14T00:00	30600	12	-40.8		79	16	
2025-07-14T00:00	30650	12	-40.9		81	16	
2025-07-14T00:00	30700	12	-41.1		83	16	
2025-07-14T00:00	30750	12	-41.4		83	16	
2025-07-14T00:00	30800	11	-41.7		83	15	
2025-07-14T00:00	30850	11	-41.6		84	15	
2025-07-14T00:00	30900	11	-41.6		85	14	
2025-07-14T00:00	30950	11	-41.6		83	13	
2025-07-14T00:00	31000	11	-41.8		79	13	
2025-07-14T00:00	31050	11	-41.8		74	13	
2025-07-14T00:00	31100	11	-41.4		71	14	
2025-07-14T00:00	31150	11	-41.3		67	15	
2025-07-14T00:00	31200	11	-41.1		64	16	
2025-07-14T00:00	31250	11	-40.9		64	17	
2025-07-14T00:00	31300	11	-40.7		68	17	
2025-07-14T00:00	31350	11	-40.2		75	16	
2025-07-14T00:00	31400	11	-40.3		80	16	
2025-07-14T00:00	31450	10	-40.2		80	15	
2025-07-14T00:00	31500	10	-39.9		77	13	
2025-07-14T00:00	31550	10	-39.9		74	12	
2025-07-14T00:00	31600	10	-40.1		67	11	
2025-07-14T00:00	31650	10	-39.9		61	11	
2025-07-14T00:00	31700	10	-39.5		57	12	
2025-07-14T00:00	31750	10	-39.1		56	14	
2025-07-14T00:00	31800	10	-39.0		56	16	
2025-07-14T00:00	31850	10	-38.8		56	18	
2025-07-14T00:00	31900	10	-38.7		54	19	
2025-07-14T00:00	31950	10	-38.7		54	20	
2025-07-14T00:00	32000	10	-39.0		54	21	
2025-07-14T00:00	32050	10	-39.1		55	21	
2025-07-14T00:00	32100	9	-39.3		56	21	
2025-07-14T00:00	32150	9	-39.5		58	21	
2025-07-14T00:00	32200	9	-39.7		62	20	
2025-07-14T00:00	32250	9	-39.8		65	20	
2025-07-14T00:00	32300	9	-40.0		69	19	
2025-07-14T00:00	32350	9	-40.1		73	19	
2025-07-14T00:00	32400	9	-40.1		76	18	
2025-07-14T00:00	32450	9	-40.1		79	17	
2025-07-14T00:00	32500	9	-40.0		82	16	
2025-07-14T00:00	32550	9	-39.9		87	15	
2025-07-14T00:00	32600	9	-39.6		92	13	
2025-07-14T00:00	32650	9	-39.0		91	12	
2025-07-14T00:00	32700	9	-38.5		85	12	
2025-07-14T00:00	32750	9	-38.4		79	13	
2025-07-14T00:00	32800	9	-38.0		77	14	
2025-07-14T00:00	32850	9	-37.8		76	15	
2025-07-14T00:00	32900	8	-38.0		74	17	
2025-07-14T00:00	32950	8	-38.0		72	18	
2025-07-14T00:00	33000	8	-38.1		73	19	
2025-07-14T00:00	33050	8	-38.2		75	20	
2025-07-14T00:00	33100	8	-38.3		78	21	
2025-07-14T00:00	33150	8	-38.2		80	21	
2025-07-14T00:00	33200	8	-38.0		82	21	
2025-07-14T00:00	33250	8	-38.1		83	19	
2025-07-14T00:00	33300	8	-37.8		84	17	
2025-07-14T00:00	33350	8	-37.8		86	16	
2025-07-14T00:00	33400	8	-37.8		87	14	
2025-07-14T00:00	33450	8	-37.5		83	14	
2025-07-14T00:00	33500	8	-37.0		78	14	
2025-07-14T00:00	33550	8	-36.5		75	14	
2025-07-14T00:00	33600	8	-36.0		75	15	
2025-07-14T00:00	33650	8	-36.0		76	17	
2025-07-14T00:00	33700	8	-35.9		76	18	
2025-07-14T00:00	33750	7	-35.9		77	19	
2025-07-14T00:00	33800	7	-35.9		78	19	
2025-07-14T00:00	33850	7	-36.0		79	18	
2025-07-14T00:00	33900	7	-36.0		80	18	
2025-07-14T00:00	33950	7	-36.0		78	18	
2025-07-14T00:00	34000	7	-35.5		75	18	
2025-07-14T00:00	34050	7	-35.1		73	19	
2025-07-14T00:00	34100	7	-34.7		73	19	
2025-07-14T00:00	34150	7	-34.5		74	19	
2025-07-14T00:00	34200	7	-34.4		73	19	
2025-07-14T00:00	34250	7	-34.3		70	19	
2025-07-14T00:00	34300	7	-34.0		67	20	
2025-07-14T00:00	34350	7	-33.8		63	20	
2025-07-14T00:00	34400	7	-33.7		61	21	
2025-07-14T00:00	34450	7	-33.2		62	22	
2025-07-14T00:00	34500	7	-32.9		64	22	
2025-07-14T00:00	34550	7	-32.5		68	23	
2025-07-14T00:00	34600	7	-32.5		70	23	
2025-07-14T00:00	34650	7	-32.3		70	24	
2025-07-14T00:00	34700	7	-32.2		69	23	
2025-07-14T00:00	34750	6	-31.9		67	23	
2025-07-14T00:00	34800	6	-31.8		64	22	
2025-07-14T00:00	34850	6	-31.3		64	23	
2025-07-14T00:00	34900	6	-30.9		67	24	
2025-07-14T00:00	34950	6	-30.8		69	25	
2025-07-14T00:00	35000	6	-30.7		71	26	
2025-07-14T00:00	35050	6	-30.4		72	26	
2025-07-14T00:00	35100	6	-30.4		73	25	
2025-07-14T00:00	35150	6	-30.6		73	24	
2025-07-14T00:00	35200	6	-30.6		74	22	
2025-07-14T00:00	35250	6	-30.6		74	21	
2025-07-14T00:00	35300	6	-30.6		73	21	
2025-07-14T00:00	35350	6	-30.4		70	21	
2025-07-14T00:00	35400	6	-29.8		66	22	
2025-07-14T00:00	35450	6	-29.8		63	23	
2025-07-14T00:00	35500	6	-29.6		61	24	
2025-07-14T00:00	35550	6	-29.4		62	24	
2025-07-14T00:00	35600	6	-29.3		65	25	
2025-07-14T00:00	35650	6	-29.0		69	26	
2025-07-14T00:00	35700	6	-28.9		72	26	
2025-07-14T00:00	35750	6	-28.9		75	26	
2025-07-14T00:00	35800	6	-28.8		76	25	
2025-07-14T00:00	35850	6	-28.5		78	25	
2025-07-14T00:00	35900	6	-28.2		78	25	
2025-07-14T00:00	35950	5	-27.8		77	26	
2025-07-14T00:00	36000	5	-27.7		75	25	
2025-07-14T00:00	36050	5	-27.2		74	25	
2025-07-14T00:00	36100	5	-27.2		75	25	
2025-07-14T00:00	36150	5	-26.9		77	26	
2025-07-14T00:00	36200	5	-27.4		80	27	
2025-07-14T00:00	36250	5	-27.1		82	27	
2025-07-14T00:00	36300	5	-27.2		84	27	
2025-07-14T00:00	36350	5	-27.3		86	28	
2025-07-14T00:00	36400	5	-27.5		88	28	
2025-07-14T00:00	36450	5	-27.4		90	27	
2025-07-14T00:00	36500	5	-27.2		91	25	
2025-07-14T00:00	36550	5	-27.1		92	24	
2025-07-14T00:00	36600	5	-27.1		94	23	
2025-07-14T00:00	36650	5	-27.1		94	24	
2025-07-14T00:00	36700	5	-26.9		94	25	
2025-07-14T00:00	36750	5	-27.0		94	26	
2025-07-14T00:00	36800	5	-27.2		94	27	
2025-07-14T00:00	36850	5	-27.0		94	27	
2025-07-14T00:00	36900	5	-26.7		95	27	
2025-07-14T00:00	36950	5	-26.7		96	25	
2025-07-14T00:00	37000	5	-26.7		96	24	
2025-07-14T00:00	37050	5	-26.7		94	23	
2025-07-14T00:00	37100	5	-26.1		91	23	
2025-07-14T00:00	37150	5	-25.5		90	23	
2025-07-14T00:00	37200	5	-25.2		91	23	
2025-07-14T00:00	37250	5	-25.2		92	23	
2025-07-14T00:00	37300	5	-24.9		94	23	
2025-07-14T00:00	37350	5	-24.6		96	23	
2025-07-14T00:00	37400	4	-24.6		96	23	
2025-07-14T00:00	37450	4	-24.4		93	24	
2025-07-14T00:00	37500	4	-24.2		91	25	
2025-07-14T12:00	491	964	24.5	14.9	264	5	4.9
2025-07-14T12:00	501	963	24.4	15.1	225	3	4.9
2025-07-14T12:00	520	960	23.8	14.4	222	4	4.9
2025-07-14T12:00	540	958	23.7	14.1	219	5	4.9
2025-07-14T12:00	560	956	23.4	13.9	217	5	4.9
2025-07-14T12:00	580	954	23.3	13.8	215	6	4.9
2025-07-14T12:00	600	952	23.0	13.7	215	6	5.0
2025-07-14T12:00	620	950	22.8	13.6	217	6	5.0
2025-07-14T12:00	640	948	22.5	13.6	221	6	5.0
2025-07-14T12:00	660	945	22.3	13.5	226	6	5.0
2025-07-14T12:00	680	943	22.1	13.4	231	6	5.0
2025-07-14T12:00	700	941	22.0	13.4	237	6	5.1
2025-07-14T12:00	720	939	21.8	13.3	241	6	5.0
2025-07-14T12:00	740	937	21.5	13.5	243	6	5.0
2025-07-14T12:00	760	935	21.5	13.4	244	7	5.0
2025-07-14T12:00	780	933	21.2	13.3	243	7	5.1
2025-07-14T12:00	800	931	21.1	13.2	242	7	5.1
2025-07-14T12:00	820	928	21.0	13.1	239	7	5.1
2025-07-14T12:00	840	926	20.8	13.2	237	7	5.1
2025-07-14T12:00	860	924	20.6	13.1	235	7	5.1
2025-07-14T12:00	880	922	20.5	13.0	234	7	5.1
2025-07-14T12:00	900	920	20.4	13.1	233	7	5.1
2025-07-14T12:00	920	918	20.1	13.1	233	7	5.1
2025-07-14T12:00	940	915	19.8	13.0	233	7	5.1
2025-07-14T12:00	960	913	19.6	12.8	234	7	5.1
2025-07-14T12:00	980	911	19.3	12.8	235	7	5.1
2025-07-14T12:00	1000	909	19.1	12.8	236	7	5.1
2025-07-14T12:00	1020	907	19.0	12.9	236	7	5.1
2025-07-14T12:00	1040	905	18.8	12.9	236	7	5.1
2025-07-14T12:00	1060	903	18.6	12.7	235	7	5.1
2025-07-14T12:00	1080	900	18.4	12.6	234	7	5.1
2025-07-14T12:00	1100	898	18.1	12.8	232	7	5.0
2025-07-14T12:00	1120	896	17.9	12.9	230	7	5.1
2025-07-14T12:00	1140	894	17.7	12.8	228	7	5.1
2025-07-14T12:00	1160	892	17.6	12.7	227	7	5.0
2025-07-14T12:00	1180	890	17.3	12.6	226	7	5.0
2025-07-14T12:00	1200	888	17.1	12.5	225	7	5.0
2025-07-14T12:00	1220	886	16.9	12.2	225	7	5.0
2025-07-14T12:00	1240	884	16.7	12.1	225	7	5.0
2025-07-14T12:00	1260	882	16.5	12.2	225	7	5.0
2025-07-14T12:00	1280	880	16.4	12.4	226	7	5.0
2025-07-14T12:00	1300	878	16.3	12.3	227	7	5.0
2025-07-14T12:00	1320	876	16.1	12.4	228	7	5.0
2025-07-14T12:00	1340	874	15.9	12.4	229	6	5.0
2025-07-14T12:00	1360	872	15.7	12.6	231	6	5.0
2025-07-14T12:00	1380	870	15.5	12.5	233	6	5.0
2025-07-14T12:00	1400	867	15.2	12.3	234	6	5.0
2025-07-14T12:00	1420	865	15.0	12.2	235	6	5.0
2025-07-14T12:00	1440	863	14.8	12.2	237	6	5.0
2025-07-14T12:00	1460	861	14.6	12.1	238	6	5.0
2025-07-14T12:00	1480	859	14.5	12.1	239	6	4.9
2025-07-14T12:00	1500	857	14.3	12.1	240	6	4.9
2025-07-14T12:00	1520	855	14.1	12.1	241	6	4.9
2025-07-14T12:00	1540	853	14.0	12.0	242	6	4.9
2025-07-14T12:00	1560	851	13.7	12.0	243	7	4.8
2025-07-14T12:00	1580	849	13.6	12.0	244	7	4.9
2025-07-14T12:00	1600	847	13.4	12.0	244	7	4.8
2025-07-14T12:00	1620	845	13.1	11.9	245	7	4.8
2025-07-14T12:00	1640	843	12.9	11.9	245	7	4.8
2025-07-14T12:00	1660	841	12.8	11.7	244	7	4.8
2025-07-14T12:00	1680	839	12.6	11.7	244	7	4.8
2025-07-14T12:00	1700	837	12.3	11.8	243	6	4.8
2025-07-14T12:00	1720	835	12.1	11.7	241	6	4.8
2025-07-14T12:00	1740	833	11.9	11.4	240	6	4.8
2025-07-14T12:00	1760	831	11.8	11.3	238	6	4.8
2025-07-14T12:00	1780	829	11.6	11.2	238	6	4.8
2025-07-14T12:00	1800	827	11.4	11.1	238	6	4.8
2025-07-14T12:00	1820	825	11.2	10.9	239	6	4.8
2025-07-14T12:00	1840	823	11.1	10.8	241	6	4.8
2025-07-14T12:00	1860	821	10.9	10.6	243	7	4.8
2025-07-14T12:00	1880	819	10.8	10.5	244	7	4.7
2025-07-14T12:00	1900	817	10.7	10.0	246	7	4.7
2025-07-14T12:00	1920	815	10.4	10.1	247	7	4.8
2025-07-14T12:00	1940	814	10.4	9.2	248	7	4.8
2025-07-14T12:00	1960	812	10.5	8.3	248	7	4.8
2025-07-14T12:00	1980	810	10.5	7.8	249	7	4.8
2025-07-14T12:00	2000	808	10.3	7.9	250	7	4.8
2025-07-14T12:00	2020	806	10.2	7.5	251	7	4.9
2025-07-14T12:00	2040	804	10.1	7.3	253	8	4.9
2025-07-14T12:00	2060	802	9.9	7.1	254	8	4.9
2025-07-14T12:00	2080	800	9.8	6.9	255	8	4.9
2025-07-14T12:00	2100	798	9.7	6.6	255	8	4.9
2025-07-14T12:00	2120	796	9.6	6.7	255	9	5.0
2025-07-14T12:00	2140	794	9.5	6.7	254	9	5.0
2025-07-14T12:00	2160	793	9.4	6.6	253	9	5.0
2025-07-14T12:00	2180	791	9.3	6.5	252	9	4.9
2025-07-14T12:00	2200	789	9.1	6.5	252	9	4.9
2025-07-14T12:00	2220	787	8.9	6.4	252	9	4.9
2025-07-14T12:00	2240	785	8.7	6.2	254	9	4.9
2025-07-14T12:00	2260	783	8.6	5.1	256	9	4.9
2025-07-14T12:00	2280	781	8.4	4.8	258	9	4.9
2025-07-14T12:00	2300	779	8.2	4.8	260	8	4.9
2025-07-14T12:00	2320	777	8.1	5.2	261	8	4.9
2025-07-14T12:00	2340	775	7.8	5.4	262	8	5.0
2025-07-14T12:00	2360	773	7.6	5.6	263	8	5.0
2025-07-14T12:00	2380	772	7.5	5.4	262	8	5.0
2025-07-14T12:00	2400	770	7.4	5.5	261	8	5.0
2025-07-14T12:00	2420	768	7.2	5.4	260	8	5.0
2025-07-14T12:00	2440	766	7.2	4.1	258	8	5.0
2025-07-14T12:00	2460	764	7.2	3.4	257	9	5.0
2025-07-14T12:00	2480	762	7.1	2.7	256	9	5.0
2025-07-14T12:00	2500	760	7.0	2.7	255	9	5.0
2025-07-14T12:00	2520	759	6.9	2.5	255	9	5.0
2025-07-14T12:00	2540	757	6.7	2.6	256	9	5.0
2025-07-14T12:00	2560	755	6.5	2.5	257	9	5.0
2025-07-14T12:00	2580	753	6.3	2.4	258	9	5.0
2025-07-14T12:00	2600	751	6.2	2.3	258	9	5.0
2025-07-14T12:00	2620	749	6.1	2.5	257	9	5.0
2025-07-14T12:00	2640	748	6.0	2.6	256	9	5.0
2025-07-14T12:00	2660	746	5.9	2.7	255	9	4.9
2025-07-14T12:00	2680	744	5.8	2.7	255	9	4.9
2025-07-14T12:00	2700	742	5.5	2.5	255	9	4.9
2025-07-14T12:00	2720	740	5.4	2.4	256	9	4.8
2025-07-14T12:00	2740	738	5.2	2.4	258	9	4.8
2025-07-14T12:00	2760	737	5.0	2.3	259	9	4.9
2025-07-14T12:00	2780	735	5.0	2.3	259	9	4.9
2025-07-14T12:00	2800	733	4.8	2.3	258	8	4.8
2025-07-14T12:00	2820	731	4.6	2.1	257	8	4.8
2025-07-14T12:00	2840	729	4.6	2.1	257	8	4.8
2025-07-14T12:00	2860	727	4.5	2.2	258	8	4.7
2025-07-14T12:00	2880	726	4.3	2.2	259	8	4.7
2025-07-14T12:00	2900	724	4.2	1.9	260	9	4.7
2025-07-14T12:00	2920	722	4.2	1.9	262	9	4.6
2025-07-14T12:00	2940	721	4.1	1.8	263	10	4.6
2025-07-14T12:00	2960	719	4.1	1.6	265	10	4.6
2025-07-14T12:00	2980	717	4.0	1.5	265	10	4.5
2025-07-14T12:00	3000	715	3.7	1.5	266	11	4.6
2025-07-14T12:00	3020	714	3.5	1.3	267	11	4.6
2025-07-14T12:00	3040	712	3.5	0.8	268	11	4.6
2025-07-14T12:00	3060	710	3.5	0.5	268	11	4.5
2025-07-14T12:00	3080	708	3.5	0.3	268	11	4.4
2025-07-14T12:00	3100	706	3.5	0.2	267	11	4.3
2025-07-14T12:00	3120	705	3.2	0.3	267	11	4.3
2025-07-14T12:00	3140	703	3.0	0.2	267	11	4.3
2025-07-14T12:00	3160	701	3.0	0.1	267	11	4.3
2025-07-14T12:00	3180	700	2.8	0.0	267	11	4.2
2025-07-14T12:00	3200	698	2.6	-0.1	267	11	4.2
2025-07-14T12:00	3220	696	2.5	-0.6	267	11	4.2
2025-07-14T12:00	3240	694	2.5	-1.0	267	11	4.2
2025-07-14T12:00	3260	693	2.3	-1.2	268	11	4.2
2025-07-14T12:00	3280	691	2.1	-1.2	268	11	4.3
2025-07-14T12:00	3300	689	2.0	-1.2	268	11	4.3
2025-07-14T12:00	3320	687	1.9	-1.6	269	11	4.3
2025-07-14T12:00	3340	686	1.8	-2.0	269	11	4.3
2025-07-14T12:00	3360	684	1.6	-2.1	269	10	4.3
2025-07-14T12:00	3380	682	1.4	-2.1	270	10	4.3
2025-07-14T12:00	3400	681	1.3	-2.5	271	10	4.3
2025-07-14T12:00	3420	679	1.3	-3.3	272	10	4.3
2025-07-14T12:00	3440	677	1.5	-4.2	273	10	4.3
2025-07-14T12:00	3460	676	1.6	-4.3	274	10	4.3
2025-07-14T12:00	3480	674	1.5	-4.5	275	11	4.3
2025-07-14T12:00	3500	672	1.4	-4.8	276	11	4.2
2025-07-14T12:00	3520	671	1.3	-5.1	277	11	4.2
2025-07-14T12:00	3540	669	1.3	-5.5	277	11	4.1
2025-07-14T12:00	3560	667	1.1	-5.6	278	12	4.1
2025-07-14T12:00	3580	666	1.0	-5.9	278	12	4.1
2025-07-14T12:00	3600	664	0.9	-6.7	278	12	4.1
2025-07-14T12:00	3620	662	0.7	-6.7	278	12	4.1
2025-07-14T12:00	3640	661	0.5	-6.7	278	13	4.0
2025-07-14T12:00	3660	659	0.3	-6.6	278	13	4.0
2025-07-14T12:00	3680	657	0.3	-7.3	278	13	4.0
2025-07-14T12:00	3700	656	0.3	-7.9	278	13	4.0
2025-07-14T12:00	3720	654	0.1	-8.1	278	13	4.0
2025-07-14T12:00	3740	653	-0.2	-8.4	277	13	4.0
2025-07-14T12:00	3760	651	-0.2	-8.8	277	13	4.0
2025-07-14T12:00	3780	649	-0.3	-9.0	277	13	4.0
2025-07-14T12:00	3800	648	-0.5	-8.9	276	13	4.0
2025-07-14T12:00	3820	646	-0.7	-9.3	276	13	4.0
2025-07-14T12:00	3840	644	-0.9	-9.3	275	13	3.9
2025-07-14T12:00	3860	643	-1.0	-9.9	275	13	4.0
2025-07-14T12:00	3880	642	-0.9	-11.0	274	13	4.0
2025-07-14T12:00	3900	640	-1.0	-11.1	274	13	4.0
2025-07-14T12:00	3920	638	-1.1	-11.7	273	12	4.0
2025-07-14T12:00	3940	637	-1.3	-12.2	272	12	4.0
2025-07-14T12:00	3960	635	-1.5	-13.6	272	12	4.0
2025-07-14T12:00	3980	633	-1.6	-13.5	271	11	4.0
2025-07-14T12:00	4000	632	-1.8	-13.9	270	11	4.1
2025-07-14T12:00	4020	630	-2.0	-14.8	268	11	4.1
2025-07-14T12:00	4040	628	-2.2	-15.8	268	11	4.2
2025-07-14T12:00	4060	627	-2.2	-16.9	268	11	4.2
2025-07-14T12:00	4080	625	-2.0	-19.3	269	12	4.3
2025-07-14T12:00	4100	624	-1.9	-20.7	271	12	4.3
2025-07-14T12:00	4120	622	-2.1	-21.3	273	12	4.4
2025-07-14T12:00	4140	621	-2.1	-24.3	275	13	4.5
2025-07-14T12:00	4160	619	-2.2	-26.2	277	13	4.6
2025-07-14T12:00	4180	618	-2.3	-27.0	278	13	4.7
2025-07-14T12:00	4200	616	-2.4	-27.8	280	13	4.8
2025-07-14T12:00	4220	615	-2.6	-28.4	280	13	4.8
2025-07-14T12:00	4240	613	-2.7	-29.3	281	13	4.8
2025-07-14T12:00	4260	611	-2.9	-30.1	281	13	4.8
2025-07-14T12:00	4280	610	-2.9	-31.4	281	13	4.8
2025-07-14T12:00	4300	608	-2.9	-31.8	281	12	4.8
2025-07-14T12:00	4320	607	-3.0	-32.6	282	12	4.9
2025-07-14T12:00	4340	605	-2.9	-34.4	282	12	4.9
2025-07-14T12:00	4360	604	-2.9	-35.3	283	12	5.0
2025-07-14T12:00	4380	602	-2.8	-36.0	284	12	5.1
2025-07-14T12:00	4400	601	-2.9	-36.5	284	13	5.1
2025-07-14T12:00	4420	599	-2.9	-36.5	284	13	5.1
2025-07-14T12:00	4440	598	-2.9	-36.0	283	13	5.0
2025-07-14T12:00	4460	596	-2.9	-34.9	283	14	4.9
2025-07-14T12:00	4480	595	-3.1	-34.4	282	14	4.8
2025-07-14T12:00	4500	593	-3.3	-33.7	282	14	4.7
2025-07-14T12:00	4520	592	-3.5	-33.4	282	14	4.6
2025-07-14T12:00	4540	590	-3.7	-33.2	282	14	4.6
2025-07-14T12:00	4560	589	-3.8	-33.1	282	14	4.5
2025-07-14T12:00	4580	587	-4.0	-33.0	283	14	4.5
2025-07-14T12:00	4600	585	-4.3	-33.0	283	14	4.5
2025-07-14T12:00	4620	584	-4.4	-32.7	283	14	4.5
2025-07-14T12:00	4640	583	-4.6	-32.2	283	14	4.5
2025-07-14T12:00	4660	581	-4.7	-32.0	283	14	4.5
2025-07-14T12:00	4680	580	-4.8	-31.5	283	14	4.4
2025-07-14T12:00	4700	578	-5.0	-31.0	283	14	4.3
2025-07-14T12:00	4720	576	-5.2	-31.3	283	14	4.3
2025-07-14T12:00	4740	575	-5.4	-32.5	282	14	4.1
2025-07-14T12:00	4760	574	-5.5	-32.1	282	14	4.0
2025-07-14T12:00	4780	572	-5.7	-29.4	282	14	4.0
2025-07-14T12:00	4800	571	-5.9	-26.6	281	14	3.9
2025-07-14T12:00	4820	569	-6.1	-25.7	281	14	3.9
2025-07-14T12:00	4840	568	-6.2	-25.9	280	14	3.8
2025-07-14T12:00	4860	567	-6.4	-26.1	280	14	3.7
2025-07-14T12:00	4880	565	-6.6	-25.5	279	14	3.6
2025-07-14T12:00	4900	564	-6.8	-25.7	278	14	3.5
2025-07-14T12:00	4920	562	-6.9	-25.6	278	14	3.5
2025-07-14T12:00	4940	561	-7.0	-26.6	278	14	3.4
2025-07-14T12:00	4960	559	-7.0	-27.3	278	14	3.4
2025-07-14T12:00	4980	558	-7.1	-28.9	279	14	3.4
2025-07-14T12:00	5000	556	-7.2	-29.0	280	14	3.4
2025-07-14T12:00	5020	555	-7.2	-29.2	281	14	3.5
2025-07-14T12:00	5040	554	-7.6	-28.9	283	15	3.5
2025-07-14T12:00	5060	552	-7.8	-30.1	285	15	3.5
2025-07-14T12:00	5080	551	-7.7	-32.1	286	15	3.5
2025-07-14T12:00	5100	549	-7.7	-34.4	287	15	3.6
2025-07-14T12:00	5120	548	-7.8	-37.3	287	15	3.7
2025-07-14T12:00	5140	546	-7.7	-39.6	286	15	3.7
2025-07-14T12:00	5160	545	-7.6	-39.7	285	15	3.7
2025-07-14T12:00	5180	544	-7.8	-40.2	283	16	3.8
2025-07-14T12:00	5200	542	-7.8	-40.7	282	16	3.8
2025-07-14T12:00	5220	541	-7.9	-40.5	280	16	3.8
2025-07-14T12:00	5240	540	-8.0	-40.9	279	16	3.8
2025-07-14T12:00	5260	538	-8.2	-41.3	280	17	3.8
2025-07-14T12:00	5280	537	-8.3	-41.5	280	17	3.8
2025-07-14T12:00	5300	535	-8.4	-41.8	281	17	3.8
2025-07-14T12:00	5320	534	-8.4	-42.1	282	17	3.9
2025-07-14T12:00	5340	533	-8.5	-42.6	283	17	3.9
2025-07-14T12:00	5360	531	-8.5	-43.0	283	18	3.9
2025-07-14T12:00	5380	530	-8.5	-42.8	284	18	4.0
2025-07-14T12:00	5400	528	-8.6	-42.8	285	17	4.0
2025-07-14T12:00	5420	527	-8.7	-43.1	286	17	4.1
2025-07-14T12:00	5440	526	-8.9	-43.3	286	17	4.1
2025-07-14T12:00	5460	524	-9.1	-43.8	287	18	4.1
2025-07-14T12:00	5480	523	-9.1	-44.0	288	18	4.1
2025-07-14T12:00	5500	522	-9.3	-44.4	288	18	4.2
2025-07-14T12:00	5520	520	-9.4	-42.9	289	18	4.3
2025-07-14T12:00	5540	519	-9.5	-40.7	289	18	4.3
2025-07-14T12:00	5560	518	-9.7	-38.3	288	19	4.2
2025-07-14T12:00	5580	516	-9.9	-35.7	288	19	4.0
2025-07-14T12:00	5600	515	-10.1	-34.8	288	19	3.9
2025-07-14T12:00	5620	514	-10.1	-33.9	287	19	3.7
2025-07-14T12:00	5640	512	-10.3	-33.2	287	20	3.6
2025-07-14T12:00	5660	511	-10.5	-33.0	287	20	3.5
2025-07-14T12:00	5680	510	-10.6	-33.0	286	20	3.4
2025-07-14T12:00	5700	508	-10.8	-33.5	286	20	3.3
2025-07-14T12:00	5720	507	-11.1	-33.5	285	20	3.3
2025-07-14T12:00	5740	506	-11.3	-33.4	285	20	3.2
2025-07-14T12:00	5760	504	-11.5	-33.6	285	20	3.2
2025-07-14T12:00	5780	503	-11.7	-34.2	284	20	3.2
2025-07-14T12:00	5800	502	-11.8	-34.0	284	20	3.1
2025-07-14T12:00	5820	500	-12.0	-34.8	284	20	3.1
2025-07-14T12:00	5840	499	-12.1	-34.5	284	20	3.0
2025-07-14T12:00	5860	498	-12.2	-35.1	284	20	3.0
2025-07-14T12:00	5880	497	-12.4	-35.6	284	20	2.9
2025-07-14T12:00	5900	495	-12.7	-35.0	285	20	2.9
2025-07-14T12:00	5920	494	-12.9	-34.4	285	20	2.8
2025-07-14T12:00	5940	492	-13.1	-33.8	285	19	2.8
2025-07-14T12:00	5960	491	-13.2	-33.8	285	19	2.8
2025-07-14T12:00	5980	490	-13.3	-34.2	285	19	2.8
2025-07-14T12:00	6000	489	-13.4	-34.2	285	19	2.9
2025-07-14T12:00	6020	487	-13.5	-34.0	285	20	2.9
2025-07-14T12:00	6040	486	-13.8	-33.4	285	20	2.9
2025-07-14T12:00	6060	485	-14.0	-33.3	285	20	3.0
2025-07-14T12:00	6080	484	-14.1	-33.6	285	20	3.0
2025-07-14T12:00	6100	482	-14.3	-33.8	285	21	3.0
2025-07-14T12:00	6120	481	-14.5	-34.1	285	21	3.0
2025-07-14T12:00	6140	480	-14.7	-34.5	285	21	3.0
2025-07-14T12:00	6160	479	-14.8	-34.8	284	21	3.0
2025-07-14T12:00	6180	477	-15.0	-34.6	284	21	3.0
2025-07-14T12:00	6200	476	-15.2	-34.6	283	21	3.0
2025-07-14T12:00	6220	475	-15.3	-34.4	282	21	3.0
2025-07-14T12:00	6240	473	-15.4	-34.3	281	21	3.0
2025-07-14T12:00	6260	472	-15.5	-34.2	281	21	3.0
2025-07-14T12:00	6280	471	-15.6	-34.2	281	21	3.0
2025-07-14T12:00	6300	470	-15.8	-34.3	281	21	2.9
2025-07-14T12:00	6320	468	-16.1	-34.6	282	21	2.9
2025-07-14T12:00	6340	467	-16.3	-34.8	282	21	2.9
2025-07-14T12:00	6360	466	-16.4	-33.8	283	21	2.9
2025-07-14T12:00	6380	465	-16.6	-31.9	284	21	2.9
2025-07-14T12:00	6400	464	-16.6	-33.5	284	21	2.9
2025-07-14T12:00	6420	462	-16.5	-37.7	285	21	2.8
2025-07-14T12:00	6440	461	-16.6	-38.3	285	21	2.8
2025-07-14T12:00	6460	460	-16.8	-38.8	285	22	2.8
2025-07-14T12:00	6480	459	-17.0	-39.0	286	21	2.8
2025-07-14T12:00	6500	457	-17.1	-39.6	286	21	2.8
2025-07-14T12:00	6520	456	-17.3	-38.7	286	21	2.8
2025-07-14T12:00	6540	455	-17.6	-37.9	286	21	2.8
2025-07-14T12:00	6560	454	-17.8	-38.6	286	21	2.8
2025-07-14T12:00	6580	452	-18.0	-38.9	286	21	2.8
2025-07-14T12:00	6600	451	-18.1	-39.3	286	21	2.8
2025-07-14T12:00	6620	450	-18.3	-40.1	287	20	2.9
2025-07-14T12:00	6640	449	-18.5	-40.9	287	20	2.9
2025-07-14T12:00	6660	448	-18.7	-40.8	288	20	3.0
2025-07-14T12:00	6680	447	-18.8	-41.2	288	19	3.0
2025-07-14T12:00	6700	445	-18.9	-41.7	289	19	3.1
2025-07-14T12:00	6720	444	-19.1	-42.1	290	19	3.2
2025-07-14T12:00	6740	443	-19.3	-42.2	290	19	3.3
2025-07-14T12:00	6760	442	-19.5	-42.0	291	18	3.4
2025-07-14T12:00	6780	441	-19.7	-41.2	291	18	3.5
2025-07-14T12:00	6800	439	-19.8	-39.8	292	18	3.6
2025-07-14T12:00	6820	438	-20.0	-36.8	293	18	3.7
2025-07-14T12:00	6840	437	-20.1	-35.6	293	18	3.8
2025-07-14T12:00	6860	436	-20.3	-31.9	294	18	3.9
2025-07-14T12:00	6880	435	-20.4	-30.8	294	18	4.0
2025-07-14T12:00	6900	433	-20.6	-30.9	294	18	4.1
2025-07-14T12:00	6920	432	-20.8	-30.0	295	18	4.1
2025-07-14T12:00	6940	431	-20.9	-29.9	295	19	4.1
2025-07-14T12:00	6960	430	-21.0	-30.4	295	19	4.2
2025-07-14T12:00	6980	429	-21.2	-30.8	295	19	4.3
2025-07-14T12:00	7000	428	-21.3	-31.9	294	20	4.3
2025-07-14T12:00	7020	426	-21.3	-34.1	294	20	4.3
2025-07-14T12:00	7040	425	-21.3	-35.7	294	20	4.4
2025-07-14T12:00	7060	424	-21.3	-36.9	294	20	4.5
2025-07-14T12:00	7080	423	-21.4	-37.3	293	20	4.5
2025-07-14T12:00	7100	422	-21.5	-36.8	293	20	4.6
2025-07-14T12:00	7120	421	-21.6	-38.2	293	20	4.6
2025-07-14T12:00	7140	420	-21.7	-39.6	293	20	4.7
2025-07-14T12:00	7160	419	-21.8	-39.7	292	20	4.7
2025-07-14T12:00	7180	417	-22.0	-39.1	292	21	4.7
2025-07-14T12:00	7200	416	-22.1	-39.3	293	21	4.7
2025-07-14T12:00	7220	415	-22.0	-39.8	293	21	4.8
2025-07-14T12:00	7240	414	-22.0	-42.4	294	21	4.8
2025-07-14T12:00	7260	413	-22.1	-44.2	295	22	4.9
2025-07-14T12:00	7280	412	-22.2	-44.7	296	22	4.7
2025-07-14T12:00	7300	410	-22.3	-43.9	295	23	4.4
2025-07-14T12:00	7320	409	-22.4	-44.1	295	23	4.1
2025-07-14T12:00	7340	408	-22.4	-44.6	295	23	3.7
2025-07-14T12:00	7360	407	-22.5	-44.9	294	23	3.5
2025-07-14T12:00	7380	406	-22.7	-45.0	295	23	3.3
2025-07-14T12:00	7400	405	-22.8	-45.3	295	23	3.2
2025-07-14T12:00	7420	404	-23.0	-45.5	295	23	3.2
2025-07-14T12:00	7440	403	-23.1	-45.8	294	23	3.2
2025-07-14T12:00	7460	402	-23.2	-46.2	294	23	3.2
2025-07-14T12:00	7480	401	-23.4	-46.4	293	23	3.1
2025-07-14T12:00	7500	400	-23.6	-46.4	292	23	3.1
2025-07-14T12:00	7520	398	-23.8	-46.4	292	23	3.0
2025-07-14T12:00	7540	397	-24.0	-46.5	291	23	3.0
2025-07-14T12:00	7560	396	-24.2	-46.5	290	23	3.0
2025-07-14T12:00	7580	395	-24.4	-46.8	289	23	3.0
2025-07-14T12:00	7600	394	-24.5	-46.8	289	23	3.0
2025-07-14T12:00	7620	393	-24.6	-47.0	289	23	3.1
2025-07-14T12:00	7640	392	-24.8	-47.3	288	23	3.1
2025-07-14T12:00	7660	391	-25.0	-47.5	288	23	3.1
2025-07-14T12:00	7680	390	-25.1	-47.8	287	23	3.1
2025-07-14T12:00	7700	389	-25.3	-47.9	287	23	3.1
2025-07-14T12:00	7720	388	-25.5	-48.2	286	23	3.1
2025-07-14T12:00	7740	386	-25.6	-48.5	286	23	3.1
2025-07-14T12:00	7760	386	-25.6	-48.6	285	23	3.1
2025-07-14T12:00	7780	385	-25.8	-48.2	285	23	3.1
2025-07-14T12:00	7800	383	-25.9	-48.3	284	24	3.1
2025-07-14T12:00	7820	382	-26.2	-48.4	284	24	3.1
2025-07-14T12:00	7840	381	-26.4	-48.4	284	24	3.2
2025-07-14T12:00	7860	380	-26.6	-48.5	284	24	3.2
2025-07-14T12:00	7880	379	-26.6	-48.7	284	24	3.3
2025-07-14T12:00	7900	378	-26.7	-48.9	284	24	3.3
2025-07-14T12:00	7920	377	-27.0	-48.8	284	24	3.3
2025-07-14T12:00	7940	376	-27.2	-48.9	284	24	3.3
2025-07-14T12:00	7960	375	-27.4	-49.0	283	24	3.3
2025-07-14T12:00	7980	374	-27.6	-49.1	283	24	3.3
2025-07-14T12:00	8000	373	-27.7	-49.3	283	24	3.3
2025-07-14T12:00	8020	372	-27.8	-49.5	282	24	3.3
2025-07-14T12:00	8040	371	-28.1	-49.1	282	24	3.3
2025-07-14T12:00	8060	370	-28.2	-49.1	281	24	3.3
2025-07-14T12:00	8080	369	-28.4	-49.5	281	24	3.3
2025-07-14T12:00	8100	368	-28.6	-49.6	281	24	3.3
2025-07-14T12:00	8120	367	-28.7	-49.8	280	24	3.3
2025-07-14T12:00	8140	366	-28.9	-49.9	280	24	3.3
2025-07-14T12:00	8160	365	-29.1	-50.1	280	24	3.3
2025-07-14T12:00	8180	364	-29.2	-50.3	280	23	3.2
2025-07-14T12:00	8200	363	-29.4	-50.4	280	23	3.2
2025-07-14T12:00	8220	362	-29.5	-50.4	280	23	3.2
2025-07-14T12:00	8240	361	-29.8	-50.4	279	24	3.2
2025-07-14T12:00	8260	360	-29.9	-50.3	279	24	3.2
2025-07-14T12:00	8280	359	-30.0	-50.1	279	24	3.2
2025-07-14T12:00	8300	358	-30.1	-50.1	278	24	3.2
2025-07-14T12:00	8320	357	-30.1	-51.3	278	25	3.2
2025-07-14T12:00	8340	356	-30.1	-51.9	277	25	3.2
2025-07-14T12:00	8360	355	-30.3	-51.8	277	25	3.2
2025-07-14T12:00	8380	354	-30.4	-52.1	276	25	3.2
2025-07-14T12:00	8400	353	-30.6	-53.2	276	26	3.2
2025-07-14T12:00	8420	352	-30.7	-54.6	275	26	3.2
2025-07-14T12:00	8440	351	-30.7	-54.6	275	26	3.2
2025-07-14T12:00	8460	350	-30.8	-53.6	275	26	3.2
2025-07-14T12:00	8480	349	-31.0	-53.0	274	26	3.1
2025-07-14T12:00	8500	348	-31.0	-52.7	274	26	3.1
2025-07-14T12:00	8520	347	-31.1	-53.7	275	25	3.0
2025-07-14T12:00	8540	346	-31.2	-53.4	275	25	3.0
2025-07-14T12:00	8560	345	-31.3	-52.6	275	25	2.9
2025-07-14T12:00	8580	344	-31.4	-52.2	276	25	2.9
2025-07-14T12:00	8600	343	-31.4	-52.5	276	25	2.9
2025-07-14T12:00	8620	342	-31.5	-53.0	276	25	2.8
2025-07-14T12:00	8640	341	-31.6	-52.6	276	25	2.8
2025-07-14T12:00	8660	340	-31.7	-52.4	276	25	2.8
2025-07-14T12:00	8680	339	-31.9	-52.4	276	25	2.8
2025-07-14T12:00	8700	338	-32.1	-52.3	276	25	2.8
2025-07-14T12:00	8720	337	-32.3	-52.3	276	26	2.7
2025-07-14T12:00	8740	336	-32.4	-52.3	276	26	2.7
2025-07-14T12:00	8760	335	-32.5	-52.3	276	26	2.7
2025-07-14T12:00	8780	334	-32.7	-52.5	276	26	2.7
2025-07-14T12:00	8800	333	-32.9	-53.1	276	26	2.7
2025-07-14T12:00	8820	332	-33.2	-53.9	277	26	2.7
2025-07-14T12:00	8840	331	-33.3	-53.3	277	25	2.6
2025-07-14T12:00	8860	330	-33.5	-52.8	278	25	2.6
2025-07-14T12:00	8880	329	-33.6	-52.8	278	25	2.6
2025-07-14T12:00	8900	329	-33.8	-53.0	278	25	2.6
2025-07-14T12:00	8920	328	-34.0	-53.2	279	25	2.6
2025-07-14T12:00	8940	327	-34.2	-53.0	279	25	2.5
2025-07-14T12:00	8960	326	-34.3	-53.1	280	25	2.5
2025-07-14T12:00	8980	325	-34.5	-53.2	280	25	2.5
2025-07-14T12:00	9000	324	-34.7	-53.2	281	25	2.5
2025-07-14T12:00	9020	323	-35.0	-53.3	281	25	2.5
2025-07-14T12:00	9040	322	-35.2	-53.8	282	25	2.5
2025-07-14T12:00	9060	321	-35.3	-53.9	282	25	2.5
2025-07-14T12:00	9080	320	-35.4	-54.2	282	25	2.5
2025-07-14T12:00	9100	319	-35.6	-54.5	282	24	2.5
2025-07-14T12:00	9120	318	-35.7	-55.0	282	24	2.5
2025-07-14T12:00	9140	317	-35.8	-54.4	281	24	2.5
2025-07-14T12:00	9160	317	-36.0	-53.6	281	24	2.5
2025-07-14T12:00	9180	316	-36.0	-53.4	280	23	2.5
2025-07-14T12:00	9200	315	-36.2	-53.8	280	23	2.5
2025-07-14T12:00	9220	314	-36.2	-54.3	280	23	2.5
2025-07-14T12:00	9240	313	-36.3	-55.1	279	23	2.6
2025-07-14T12:00	9260	312	-36.5	-55.3	279	23	2.6
2025-07-14T12:00	9280	311	-36.6	-55.0	279	23	2.6
2025-07-14T12:00	9300	310	-36.8	-55.0	279	23	2.6
2025-07-14T12:00	9320	309	-37.0	-55.3	278	23	2.6
2025-07-14T12:00	9340	308	-37.1	-55.5	278	23	2.7
2025-07-14T12:00	9360	308	-37.4	-55.4	277	23	2.7
2025-07-14T12:00	9380	307	-37.5	-55.3	277	23	2.7
2025-07-14T12:00	9400	306	-37.7	-55.4	276	23	2.7
2025-07-14T12:00	9420	305	-37.9	-55.6	276	23	2.7
2025-07-14T12:00	9440	304	-38.1	-55.7	275	23	2.7
2025-07-14T12:00	9460	303	-38.2	-55.7	275	23	2.7
2025-07-14T12:00	9480	302	-38.4	-55.8	274	23	2.7
2025-07-14T12:00	9500	301	-38.6	-56.2	274	23	2.7
2025-07-14T12:00	9520	300	-38.8	-56.8	274	23	2.7
2025-07-14T12:00	9540	299	-38.9	-57.3	274	23	2.7
2025-07-14T12:00	9560	298	-39.1	-57.8	274	23	2.7
2025-07-14T12:00	9580	298	-39.3	-57.9	273	23	2.7
2025-07-14T12:00	9600	297	-39.5	-58.4	273	23	2.7
2025-07-14T12:00	9620	296	-39.6	-59.7	273	23	2.8
2025-07-14T12:00	9640	295	-39.7	-60.1	273	23	2.8
2025-07-14T12:00	9660	294	-39.8	-60.3	273	23	2.8
2025-07-14T12:00	9680	293	-39.9	-60.6	273	23	2.9
2025-07-14T12:00	9700	293	-40.0	-60.5	273	23	2.9
2025-07-14T12:00	9720	292	-40.2	-60.1	273	23	2.9
2025-07-14T12:00	9740	291	-40.5	-59.7	273	23	2.9
2025-07-14T12:00	9760	290	-40.6	-59.6	272	23	2.9
2025-07-14T12:00	9780	289	-40.8	-59.7	272	23	2.9
2025-07-14T12:00	9800	288	-41.0	-59.6	272	23	2.9
2025-07-14T12:00	9820	287	-41.2	-59.5	272	23	3.0
2025-07-14T12:00	9840	287	-41.4	-59.4	272	23	2.9
2025-07-14T12:00	9860	286	-41.5	-59.1	272	23	2.9
2025-07-14T12:00	9880	285	-41.6	-58.9	272	23	2.9
2025-07-14T12:00	9900	284	-41.9	-58.8	273	22	2.9
2025-07-14T12:00	9920	283	-42.2	-58.8	273	22	2.9
2025-07-14T12:00	9940	282	-42.4	-58.6	273	22	2.9
2025-07-14T12:00	9960	282	-42.6	-58.0	273	22	2.9
2025-07-14T12:00	9980	281	-42.8	-57.0	273	22	2.8
2025-07-14T12:00	10000	280	-43.0	-56.4	273	22	2.8
2025-07-14T12:00	10018	279	-43.1	-56.5	273	22	2.8
2025-07-14T12:00	10050	278	-43.4	-56.6	273	23	2.8
2025-07-14T12:00	10100	276	-43.8	-57.1	272	23	2.8
2025-07-14T12:00	10150	274	-44.3	-57.5	273	23	2.8
2025-07-14T12:00	10200	272	-44.6	-58.7	274	23	2.8
2025-07-14T12:00	10250	270	-45.1	-58.6	275	22	2.8
2025-07-14T12:00	10300	268	-45.5	-59.0	276	22	2.8
2025-07-14T12:00	10350	266	-45.8	-59.5	277	22	2.8
2025-07-14T12:00	10400	264	-46.1	-58.7	277	22	2.8
2025-07-14T12:00	10450	262	-46.5	-58.0	277	22	2.7
2025-07-14T12:00	10500	260	-47.0	-57.5	277	22	2.6
2025-07-14T12:00	10550	258	-47.4	-58.5	277	22	2.5
2025-07-14T12:00	10600	256	-47.5	-61.5	277	22	2.5
2025-07-14T12:00	10650	254	-47.7	-62.0	276	22	2.5
2025-07-14T12:00	10700	252	-48.1	-61.7	276	21	2.6
2025-07-14T12:00	10750	250	-48.4	-62.1	275	21	2.7
2025-07-14T12:00	10800	248	-48.8	-62.0	274	21	2.7
2025-07-14T12:00	10850	246	-49.2	-62.1	274	21	2.8
2025-07-14T12:00	10900	244	-49.4	-62.4	274	21	2.8
2025-07-14T12:00	10950	242	-49.8	-62.5	272	21	3.0
2025-07-14T12:00	11000	241	-49.9	-62.9	270	21	3.1
2025-07-14T12:00	11050	239	-49.7	-63.7	267	22	3.1
2025-07-14T12:00	11100	237	-49.7	-64.0	264	22	3.2
2025-07-14T12:00	11150	235	-49.9	-64.2	261	23	3.4
2025-07-14T12:00	11200	233	-50.0	-64.4	259	24	3.5
2025-07-14T12:00	11250	232	-50.2	-64.4	259	25	3.6
2025-07-14T12:00	11300	230	-50.6	-64.5	259	25	3.7
2025-07-14T12:00	11350	228	-50.9	-64.3	260	25	3.8
2025-07-14T12:00	11400	226	-51.3	-64.4	261	25	3.8
2025-07-14T12:00	11450	225	-51.4	-65.0	262	25	3.9
2025-07-14T12:00	11500	223	-51.6	-65.1	262	25	3.9
2025-07-14T12:00	11550	221	-51.9	-65.3	262	25	4.0
2025-07-14T12:00	11600	219	-52.1	-65.7	262	24	4.0
2025-07-14T12:00	11650	218	-52.1	-66.0	261	24	4.1
2025-07-14T12:00	11700	216	-52.1	-66.4	260	25	4.1
2025-07-14T12:00	11750	214	-52.2	-66.7	258	25	4.2
2025-07-14T12:00	11800	213	-52.5	-66.7	256	26	4.3
2025-07-14T12:00	11850	211	-52.6	-67.5	255	26	4.4
2025-07-14T12:00	11900	210	-52.5	-68.0	255	27	4.6
2025-07-14T12:00	11950	208	-52.4	-68.3	256	28	4.7
2025-07-14T12:00	12000	206	-52.1	-68.6	257	29	4.9
2025-07-14T12:00	12050	205	-51.6	-69.1	258	29	5.2
2025-07-14T12:00	12100	203	-51.3	-70.7	259	29	5.5
2025-07-14T12:00	12150	202	-50.5	-74.6	260	28	5.9
2025-07-14T12:00	12200	200	-49.8	-77.3	259	27	6.6
2025-07-14T12:00	12250	199	-49.0	-78.6	257	27	7.1
2025-07-14T12:00	12300	197	-48.6	-78.8	255	28	7.5
2025-07-14T12:00	12350	196	-48.9	-78.4	255	28	7.8
2025-07-14T12:00	12400	194	-49.2	-78.1	255	29	8.2
2025-07-14T12:00	12450	193	-48.7	-78.1	254	29	8.2
2025-07-14T12:00	12500	191	-48.1	-78.2	252	29	8.2
2025-07-14T12:00	12550	190	-47.9	-78.3	250	29	8.1
2025-07-14T12:00	12600	188	-48.1	-78.5	250	28	8.1
2025-07-14T12:00	12650	187	-47.8	-78.8	251	28	8.1
2025-07-14T12:00	12700	185	-47.8	-78.8	252	27	7.9
2025-07-14T12:00	12750	184	-47.9	-78.8	252	26	7.8
2025-07-14T12:00	12800	183	-47.8	-78.7	251	26	7.7
2025-07-14T12:00	12850	181	-47.9	-78.6	251	25	7.7
2025-07-14T12:00	12900	180	-48.1	-78.4	250	25	7.4
2025-07-14T12:00	12950	179	-48.0	-78.3	250	24	7.0
2025-07-14T12:00	13000	177	-47.8	-78.7	251	24	6.4
2025-07-14T12:00	13050	176	-47.7	-79.0	252	25	5.9
2025-07-14T12:00	13100	175	-47.8	-79.1	253	25	5.0
2025-07-14T12:00	13150	173	-48.4	-79.2	254	26	4.4
2025-07-14T12:00	13200	172	-48.8	-79.3	253	26	3.8
2025-07-14T12:00	13250	171	-49.3	-79.4	253	26	3.3
2025-07-14T12:00	13300	169	-49.2	-79.5	252	25	3.1
2025-07-14T12:00	13350	168	-49.2	-79.6	253	24	2.9
2025-07-14T12:00	13400	167	-49.5	-79.7	254	24	2.9
2025-07-14T12:00	13450	165	-49.8	-79.8	254	24	2.8
2025-07-14T12:00	13500	164	-50.1	-79.8	253	23	2.8
2025-07-14T12:00	13550	163	-50.3	-80.0	253	23	2.7
2025-07-14T12:00	13600	162	-50.4	-80.1	252	23	2.7
2025-07-14T12:00	13650	160	-50.4	-79.8	251	22	2.8
2025-07-14T12:00	13700	159	-50.7	-79.8	251	22	2.8
2025-07-14T12:00	13750	158	-50.9	-80.2	251	23	2.9
2025-07-14T12:00	13800	157	-51.0	-80.6	252	23	3.0
2025-07-14T12:00	13850	156	-50.8	-80.5	253	24	3.0
2025-07-14T12:00	13900	155	-51.2	-80.7	254	25	3.0
2025-07-14T12:00	13950	153	-51.2	-80.9	254	26	3.0
2025-07-14T12:00	14000	152	-51.3	-81.0	253	26	3.0
2025-07-14T12:00	14050	151	-51.2	-81.1	252	27	3.0
2025-07-14T12:00	14100	150	-51.4	-81.2	250	26	3.0
2025-07-14T12:00	14150	149	-51.9	-81.2	249	26	3.1
2025-07-14T12:00	14200	147	-52.3	-81.4	251	27	3.0
2025-07-14T12:00	14250	146	-52.5	-81.5	254	27	3.0
2025-07-14T12:00	14300	145	-52.3	-81.6	257	28	3.0
2025-07-14T12:00	14350	144	-52.4	-81.6	260	27	3.0
2025-07-14T12:00	14400	143	-52.5	-82.0	261	26	3.1
2025-07-14T12:00	14450	142	-52.2	-81.8	262	25	3.2
2025-07-14T12:00	14500	141	-52.2	-81.8	262	23	3.2
2025-07-14T12:00	14550	140	-52.4	-81.9	261	23	3.3
2025-07-14T12:00	14600	139	-52.7	-81.9	260	21	3.3
2025-07-14T12:00	14650	138	-52.8	-81.8	260	20	3.4
2025-07-14T12:00	14700	136	-53.2	-81.8	260	19	3.5
2025-07-14T12:00	14750	135	-53.7	-82.0	259	18	3.5
2025-07-14T12:00	14800	134	-53.8	-82.0	258	17	3.6
2025-07-14T12:00	14850	133	-54.1	-82.0	256	16	3.6
2025-07-14T12:00	14900	132	-54.5	-82.1	254	15	3.6
2025-07-14T12:00	14950	131	-54.9	-82.3	252	15	3.6
2025-07-14T12:00	15000	130	-55.1	-82.3	250	15	3.7
2025-07-14T12:00	15050	129	-55.4	-82.3	247	15	3.7
2025-07-14T12:00	15100	128	-55.9	-82.5	243	15	3.7
2025-07-14T12:00	15150	127	-56.1	-82.6	239	16	3.7
2025-07-14T12:00	15200	126	-56.3	-82.6	237	17	3.7
2025-07-14T12:00	15250	125	-56.6	-82.8	237	18	3.7
2025-07-14T12:00	15300	124	-56.5	-83.1	240	18	3.7
2025-07-14T12:00	15350	123	-55.1	-83.1	243	18	3.9
2025-07-14T12:00	15400	122	-54.6	-83.3	245	18	4.0
2025-07-14T12:00	15450	121	-54.4	-83.2	246	17	4.1
2025-07-14T12:00	15500	120	-54.6	-83.3	247	16	4.2
2025-07-14T12:00	15550	119	-54.5	-83.2	247	15	4.3
2025-07-14T12:00	15600	119	-54.9	-83.4	248	14	4.3
2025-07-14T12:00	15650	118	-55.2	-83.4	248	14	4.4
2025-07-14T12:00	15700	117	-55.4	-83.4	244	13	4.5
2025-07-14T12:00	15750	116	-55.6	-83.6	240	13	4.5
2025-07-14T12:00	15800	115	-55.6	-83.6	238	12	4.6
2025-07-14T12:00	15850	114	-56.1	-83.7	236	12	4.6
2025-07-14T12:00	15900	113	-56.4	-83.7	232	12	4.7
2025-07-14T12:00	15950	112	-56.9	-83.7	228	12	4.7
2025-07-14T12:00	16000	111	-57.3	-83.9	224	13	4.7
2025-07-14T12:00	16050	110	-57.7	-84.0	222	13	4.6
2025-07-14T12:00	16100	110	-58.0	-84.2	223	14	4.6
2025-07-14T12:00	16150	109	-58.1	-84.3	225	15	4.5
2025-07-14T12:00	16200	108	-58.2	-84.5	227	16	4.5
2025-07-14T12:00	16250	107	-58.1	-84.7	227	16	4.4
2025-07-14T12:00	16300	106	-57.9	-84.8	228	16	4.3
2025-07-14T12:00	16350	105	-57.1	-84.8	227	17	4.0
2025-07-14T12:00	16400	104	-56.5	-84.6	225	18	3.8
2025-07-14T12:00	16450	104	-56.6	-84.7	228	18	3.7
2025-07-14T12:00	16500	103	-56.3	-84.9	232	16	3.7
2025-07-14T12:00	16550	102	-55.4	-84.7	235	14	3.8
2025-07-14T12:00	16600	101	-54.9	-84.6	239	13	4.0
2025-07-14T12:00	16650	100	-54.8	-84.5	245	11	4.1
2025-07-14T12:00	16700	100	-54.7	-84.4	250	10	4.1
2025-07-14T12:00	16750	99	-54.8	-84.4	254	10	4.2
2025-07-14T12:00	16800	98	-55.0	-84.4	253	9	4.2
2025-07-14T12:00	16850	97	-55.3	-84.5	248	9	4.2
2025-07-14T12:00	16900	97	-55.6	-84.5	243	9	4.2
2025-07-14T12:00	16950	96	-55.9	-84.6	238	10	4.2
2025-07-14T12:00	17000	95	-56.2	-84.7	235	11	4.2
2025-07-14T12:00	17050	94	-56.3	-84.9	234	11	4.2
2025-07-14T12:00	17100	94	-56.2	-84.9	230	10	4.2
2025-07-14T12:00	17150	93	-56.3	-85.0	225	9	4.3
2025-07-14T12:00	17200	92	-56.2	-84.9	217	8	4.5
2025-07-14T12:00	17250	91	-56.4	-84.9	206	8	4.7
2025-07-14T12:00	17300	91	-56.5	-85.0	197	8	5.2
2025-07-14T12:00	17350	90	-56.7	-85.1	196	9	5.6
2025-07-14T12:00	17400	89	-56.9	-85.2	199	9	5.9
2025-07-14T12:00	17450	89	-57.2	-85.3	203	10	6.1
2025-07-14T12:00	17500	88	-57.4	-85.4	206	11	6.2
2025-07-14T12:00	17550	87	-57.4	-85.4	207	12	6.4
2025-07-14T12:00	17600	86	-57.6	-85.5	207	13	6.6
2025-07-14T12:00	17650	86	-57.6	-85.7	207	12	6.7
2025-07-14T12:00	17700	85	-57.4	-85.7	208	11	7.0
2025-07-14T12:00	17750	84	-57.4	-85.7	210	10	7.2
2025-07-14T12:00	17800	84	-57.3	-85.8	212	11	7.3
2025-07-14T12:00	17850	83	-56.8	-85.7	212	11	7.4
2025-07-14T12:00	17900	82	-56.6	-85.6	213	11	7.6
2025-07-14T12:00	17950	82	-56.6	-85.7	217	9	7.7
2025-07-14T12:00	18000	81	-56.6	-85.6	221	8	7.8
2025-07-14T12:00	18050	81	-56.8	-85.6	223	6	7.8
2025-07-14T12:00	18100	80	-56.6	-85.7	219	6	7.9
2025-07-14T12:00	18150	79	-56.0	-85.8	210	6	8.1
2025-07-14T12:00	18200	79	-55.2	-85.5	204	6	8.3
2025-07-14T12:00	18250	78	-55.1	-85.4	200	6	8.6
2025-07-14T12:00	18300	77	-55.3	-85.3	198	7	8.7
2025-07-14T12:00	18350	77	-55.4	-85.2	195	7	8.8
2025-07-14T12:00	18400	76	-55.6	-85.2	194	7	8.9
2025-07-14T12:00	18450	76	-56.0	-85.2	196	8	9.0
2025-07-14T12:00	18500	75	-56.5	-85.3	199	8	9.1
2025-07-14T12:00	18550	74	-57.0	-85.5	203	9	9.0
2025-07-14T12:00	18600	74	-57.4	-85.6	206	10	8.9
2025-07-14T12:00	18650	73	-57.7	-85.7	209	10	8.9
2025-07-14T12:00	18700	73	-58.0	-85.9	214	10	8.8
2025-07-14T12:00	18750	72	-58.0	-86.0	220	10	8.8
2025-07-14T12:00	18800	72	-58.0	-86.0	230	9	8.7
2025-07-14T12:00	18850	71	-58.1	-86.1	239	8	8.6
2025-07-14T12:00	18900	70	-58.1	-86.2	240	7	8.5
2025-07-14T12:00	18950	70	-58.1	-86.3	229	6	8.3
2025-07-14T12:00	19000	69	-57.5	-86.3	220	6	8.1
2025-07-14T12:00	19050	69	-57.0	-86.4	225	5	8.0
2025-07-14T12:00	19100	68	-56.2	-86.2	226	4	8.1
2025-07-14T12:00	19150	68	-55.5	-86.0	202	2	8.3
2025-07-14T12:00	19200	67	-55.2	-85.7	166	2	8.6
2025-07-14T12:00	19250	67	-55.5	-85.8	144	3	8.9
2025-07-14T12:00	19300	66	-55.2	-85.5	139	3	9.0
2025-07-14T12:00	19350	66	-55.3	-85.6	140	4	9.1
2025-07-14T12:00	19400	65	-55.3	-85.5	137	4	9.2
2025-07-14T12:00	19450	65	-55.3	-85.5	127	3	9.3
2025-07-14T12:00	19500	64	-55.7	-85.6	114	3	9.4
2025-07-14T12:00	19550	64	-56.0	-85.7	117	3	9.4
2025-07-14T12:00	19600	63	-55.8	-85.7	141	3	9.5
2025-07-14T12:00	19650	63	-55.7	-85.7	162	3	9.5
2025-07-14T12:00	19700	62	-55.8	-85.7	173	2	9.6
2025-07-14T12:00	19750	62	-56.0	-85.6	187	2	9.6
2025-07-14T12:00	19800	61	-56.4	-85.7	224	1	9.6
2025-07-14T12:00	19850	61	-56.6	-86.0	269	1	9.6
2025-07-14T12:00	19900	60	-56.4	-86.1	241	1	9.5
2025-07-14T12:00	19950	60	-55.7	-86.0	158	1	9.6
2025-07-14T12:00	20000	59	-55.6	-86.1	145	2	9.7
2025-07-14T12:00	20050	59	-55.2		147	2	9.9
2025-07-14T12:00	20100	58	-54.8		155	3	10.0
2025-07-14T12:00	20150	58	-54.8		161	3	10.3
2025-07-14T12:00	20200	57	-55.0		161	3	10.4
2025-07-14T12:00	20250	57	-54.6		147	2	10.7
2025-07-14T12:00	20300	56	-54.2		130	2	10.9
2025-07-14T12:00	20350	56	-54.2		144	2	10.8
2025-07-14T12:00	20400	56	-54.0		160	3	11.0
2025-07-14T12:00	20450	55	-53.6		171	4	11.2
2025-07-14T12:00	20500	55	-53.8		176	5	11.4
2025-07-14T12:00	20550	54	-53.9		176	5	11.5
2025-07-14T12:00	20600	54	-54.1		166	4	11.9
2025-07-14T12:00	20650	54	-54.2		141	3	12.0
2025-07-14T12:00	20700	53	-54.2		110	3	11.9
2025-07-14T12:00	20750	53	-54.2		103	5	12.0
2025-07-14T12:00	20800	52	-53.9		108	6	12.3
2025-07-14T12:00	20850	52	-53.4		117	7	12.4
2025-07-14T12:00	20900	51	-53.6		127	7	12.7
2025-07-14T12:00	20950	51	-53.7		134	7	12.9
2025-07-14T12:00	21000	51	-53.7		139	7	13.0
2025-07-14T12:00	21050	50	-53.8		147	7	13.1
2025-07-14T12:00	21100	50	-53.9		153	7	13.3
2025-07-14T12:00	21150	50	-54.1		154	6	13.3
2025-07-14T12:00	21200	49	-53.7		144	5	13.3
2025-07-14T12:00	21250	49	-53.3		119	3	13.5
2025-07-14T12:00	21300	48	-53.3		88	3	13.5
2025-07-14T12:00	21350	48	-53.5		76	4	13.7
2025-07-14T12:00	21400	48	-53.4		81	5	13.9
2025-07-14T12:00	21450	47	-53.1		93	6	13.9
2025-07-14T12:00	21500	47	-53.0		102	6	14.0
2025-07-14T12:00	21550	47	-53.0		96	6	14.1
2025-07-14T12:00	21600	46	-52.5		78	6	14.1
2025-07-14T12:00	21650	46	-52.1		64	7	14.2
2025-07-14T12:00	21700	45	-51.9		61	9	14.2
2025-07-14T12:00	21750	45	-51.6		63	10	14.2
2025-07-14T12:00	21800	45	-51.8		65	11	14.3
2025-07-14T12:00	21850	44	-52.2		65	12	14.2
2025-07-14T12:00	21900	44	-52.7		69	13	14.1
2025-07-14T12:00	21950	44	-53.0		75	13	14.0
2025-07-14T12:00	22000	43	-53.0		81	12	14.0
2025-07-14T12:00	22050	43	-53.1		86	11	14.0
2025-07-14T12:00	22100	43	-53.3		91	10	13.9
2025-07-14T12:00	22150	42	-53.5		99	9	13.9
2025-07-14T12:00	22200	42	-53.6		106	10	13.9
2025-07-14T12:00	22250	42	-53.4		109	11	13.8
2025-07-14T12:00	22300	41	-53.2		111	12	13.8
2025-07-14T12:00	22350	41	-53.2		113	13	13.8
2025-07-14T12:00	22400	41	-53.3		119	13	13.7
2025-07-14T12:00	22450	40	-53.2		124	12	13.6
2025-07-14T12:00	22500	40	-53.1		129	11	13.7
2025-07-14T12:00	22550	40	-53.3		135	10	13.8
2025-07-14T12:00	22600	40	-53.5		145	9	13.9
2025-07-14T12:00	22650	39	-53.7		156	9	13.8
2025-07-14T12:00	22700	39	-53.9		162	8	13.6
2025-07-14T12:00	22750	39	-54.0		156	7	13.6
2025-07-14T12:00	22800	38	-53.6		139	7	13.6
2025-07-14T12:00	22850	38	-53.5		123	7	13.6
2025-07-14T12:00	22900	38	-53.4		114	8	13.6
2025-07-14T12:00	22950	37	-53.1		112	7	13.6
2025-07-14T12:00	23000	37	-52.9		113	6	13.7
2025-07-14T12:00	23050	37	-52.9		109	6	13.6
2025-07-14T12:00	23100	37	-52.8		103	7	13.4
2025-07-14T12:00	23150	36	-52.6		99	8	13.2
2025-07-14T12:00	23200	36	-52.7		100	10	13.0
2025-07-14T12:00	23250	36	-52.8		102	10	12.8
2025-07-14T12:00	23300	35	-52.7		103	10	12.7
2025-07-14T12:00	23350	35	-52.3		104	9	12.5
2025-07-14T12:00	23400	35	-52.4		105	8	12.5
2025-07-14T12:00	23450	35	-52.5		105	7	12.4
2025-07-14T12:00	23500	34	-52.7		105	6	12.5
2025-07-14T12:00	23550	34	-52.9		103	5	12.4
2025-07-14T12:00	23600	34	-52.8		100	5	12.4
2025-07-14T12:00	23650	34	-52.8		98	6	12.4
2025-07-14T12:00	23700	33	-52.9		98	5	12.4
2025-07-14T12:00	23750	33	-52.9		105	4	12.5
2025-07-14T12:00	23800	33	-53.1		113	3	12.6
2025-07-14T12:00	23850	33	-53.2		108	4	12.6
2025-07-14T12:00	23900	32	-53.1		100	6	12.7
2025-07-14T12:00	23950	32	-53.4		95	8	12.7
2025-07-14T12:00	24000	32	-53.4		91	9	12.6
2025-07-14T12:00	24050	32	-53.2		87	10	12.6
2025-07-14T12:00	24100	31	-52.9		88	11	12.6
2025-07-14T12:00	24150	31	-52.7		93	12	12.5
2025-07-14T12:00	24200	31	-52.9		98	12	12.6
2025-07-14T12:00	24250	31	-53.1		103	13	12.7
2025-07-14T12:00	24300	30	-53.3		107	13	12.6
2025-07-14T12:00	24350	30	-53.2		109	13	12.6
2025-07-14T12:00	24400	30	-52.6		108	14	12.6
2025-07-14T12:00	24450	30	-52.4		107	14	12.6
2025-07-14T12:00	24500	29	-52.3		104	14	12.6
2025-07-14T12:00	24550	29	-52.3		103	14	12.5
2025-07-14T12:00	24600	29	-52.3		105	14	12.5
2025-07-14T12:00	24650	29	-52.3		109	14	12.5
2025-07-14T12:00	24700	29	-52.0		114	13	12.4
2025-07-14T12:00	24750	28	-51.8		119	13	12.3
2025-07-14T12:00	24800	28	-51.9		127	13	12.3
2025-07-14T12:00	24850	28	-51.9		135	13	12.3
2025-07-14T12:00	24900	28	-51.6		141	12	12.3
2025-07-14T12:00	24950	27	-51.2		146	11	12.3
2025-07-14T12:00	25000	27	-50.9		149	8	12.5
2025-07-14T12:00	25050	27	-50.1		151	6	12.8
2025-07-14T12:00	25100	27	-49.3		154	5	13.2
2025-07-14T12:00	25150	27	-49.0		159	4	13.8
2025-07-14T12:00	25200	26	-49.1		159	3	13.9
2025-07-14T12:00	25250	26	-48.6		132	2	14.1
2025-07-14T12:00	25300	26	-48.3		72	2	14.1
2025-07-14T12:00	25350	26	-48.2		61	3	14.2
2025-07-14T12:00	25400	26	-48.1		65	5	14.2
2025-07-14T12:00	25450	25	-48.0		71	6	14.3
2025-07-14T12:00	25500	25	-48.0		76	7	14.2
2025-07-14T12:00	25550	25	-48.1		83	8	14.2
2025-07-14T12:00	25600	25	-48.2		93	8	14.2
2025-07-14T12:00	25650	25	-48.2		98	7	14.2
2025-07-14T12:00	25700	24	-48.2		92	6	14.2
2025-07-14T12:00	25750	24	-48.2		76	6	14.2
2025-07-14T12:00	25800	24	-48.2		67	6	14.2
2025-07-14T12:00	25850	24	-47.9		69	7	14.3
2025-07-14T12:00	25900	24	-47.9		79	7	14.3
2025-07-14T12:00	25950	24	-47.9		90	6	14.2
2025-07-14T12:00	26000	23	-47.9		91	5	14.1
2025-07-14T12:00	26050	23	-47.9		75	5	14.0
2025-07-14T12:00	26100	23	-47.6		60	6	14.0
2025-07-14T12:00	26150	23	-47.5		59	7	14.0
2025-07-14T12:00	26200	23	-47.3		64	8	13.9
2025-07-14T12:00	26250	23	-47.2		67	9	13.8
2025-07-14T12:00	26300	22	-47.1		68	9	13.7
2025-07-14T12:00	26350	22	-46.9		66	9	13.7
2025-07-14T12:00	26400	22	-46.7		65	10	13.7
2025-07-14T12:00	26450	22	-46.5		65	11	14.3
2025-07-14T12:00	26500	22	-46.4		65	12	14.6
2025-07-14T12:00	26550	22	-46.3		64	12	14.4
2025-07-14T12:00	26600	21	-46.2		61	12	14.2
2025-07-14T12:00	26650	21	-46.1		58	11	14.2
2025-07-14T12:00	26700	21	-46.1		57	10	14.1
2025-07-14T12:00	26750	21	-46.1		58	10	14.1
2025-07-14T12:00	26800	21	-45.9		59	10	14.0
2025-07-14T12:00	26850	21	-45.8		62	11	14.0
2025-07-14T12:00	26900	20	-45.6		68	12	14.0
2025-07-14T12:00	26950	20	-45.5		74	13	13.9
2025-07-14T12:00	27000	20	-45.6		77	14	13.8
2025-07-14T12:00	27050	20	-45.5		79	15	13.6
2025-07-14T12:00	27100	20	-45.4		80	16	13.1
2025-07-14T12:00	27150	20	-45.6		84	16	13.7
2025-07-14T12:00	27200	20	-45.7		87	16	13.6
2025-07-14T12:00	27250	19	-45.8		90	15	13.5
2025-07-14T12:00	27300	19	-45.9		91	14	13.4
2025-07-14T12:00	27350	19	-45.9		93	13	13.2
2025-07-14T12:00	27400	19	-45.9		94	13	12.7
2025-07-14T12:00	27450	19	-46.0		93	11	12.9
2025-07-14T12:00	27500	19	-46.0		88	11	13.1
2025-07-14T12:00	27550	19	-45.8		85	11	12.8
2025-07-14T12:00	27600	18	-45.5		86	11	12.5
2025-07-14T12:00	27650	18	-45.5		88	12	12.3
2025-07-14T12:00	27700	18	-45.7		90	13	12.4
2025-07-14T12:00	27750	18	-45.8		93	14	12.5
2025-07-14T12:00	27800	18	-45.9		93	13	12.2
2025-07-14T12:00	27850	18	-45.9		91	12	12.4
2025-07-14T12:00	27900	18	-45.9		87	10	12.3
2025-07-14T12:00	27950	17	-45.9		86	11	11.8
2025-07-14T12:00	28000	17	-45.4		86	12	12.0
2025-07-14T12:00	28050	17	-45.0		87	12	11.9
2025-07-14T12:00	28100	17	-44.5		86	12	11.8
2025-07-14T12:00	28150	17	-44.3		87	10	12.1
2025-07-14T12:00	28200	17	-44.3		89	8	11.4
2025-07-14T12:00	28250	17	-44.3		90	7	11.6
2025-07-14T12:00	28300	17	-44.4		84	7	11.5
2025-07-14T12:00	28350	16	-44.2		75	8	11.7
2025-07-14T12:00	28400	16	-44.0		72	10	11.3
2025-07-14T12:00	28450	16	-43.9		73	12	11.4
2025-07-14T12:00	28500	16	-43.9		77	14	11.3
2025-07-14T12:00	28550	16	-44.1		79	15	11.3
2025-07-14T12:00	28600	16	-44.3		82	16	11.2
2025-07-14T12:00	28650	16	-44.6		84	17	11.3
2025-07-14T12:00	28700	16	-44.7		85	16	11.0
2025-07-14T12:00	28750	15	-44.6		86	15	11.1
2025-07-14T12:00	28800	15	-44.6		88	14	10.9
2025-07-14T12:00	28850	15	-44.7		90	13	10.9
2025-07-14T12:00	28900	15	-45.0		95	11	10.8
2025-07-14T12:00	28950	15	-45.2		99	11	10.5
2025-07-14T12:00	29000	15	-45.4		96	10	10.4
2025-07-14T12:00	29050	15	-45.3		88	9	10.4
2025-07-14T12:00	29100	15	-45.1		79	8	10.4
2025-07-14T12:00	29150	15	-45.1		71	8	10.7
2025-07-14T12:00	29200	14	-45.3		66	9	10.4
2025-07-14T12:00	29250	14	-45.2		65	10	10.2
2025-07-14T12:00	29300	14	-45.1		67	12	10.3
2025-07-14T12:00	29350	14	-45.1		72	13	10.2
2025-07-14T12:00	29400	14	-45.1		76	13	10.2
2025-07-14T12:00	29450	14	-45.1		77	13	10.2
2025-07-14T12:00	29500	14	-45.1		77	12	10.0
2025-07-14T12:00	29550	14	-45.0		76	12	10.0
2025-07-14T12:00	29600	14	-44.9		76	12	9.9
2025-07-14T12:00	29650	14	-44.7		75	12	9.9
2025-07-14T12:00	29700	13	-44.6		74	13	9.9
2025-07-14T12:00	29750	13	-44.5		72	13	9.8
2025-07-14T12:00	29800	13	-43.8		70	13	9.8
2025-07-14T12:00	29850	13	-43.4		72	14	9.8
2025-07-14T12:00	29900	13	-43.4		77	14	9.7
2025-07-14T12:00	29950	13	-43.4		85	15	9.7
2025-07-14T12:00	30000	13	-43.5		90	15	9.7
2025-07-14T12:00	30050	13	-43.2		91	14	9.7
2025-07-14T12:00	30100	13	-42.6		88	14	9.5
2025-07-14T12:00	30150	13	-42.2		87	13	9.4
2025-07-14T12:00	30200	12	-42.0		87	13	9.4
2025-07-14T12:00	30250	12	-41.7		87	14	9.4
2025-07-14T12:00	30300	12	-41.3		86	15	9.3
2025-07-14T12:00	30350	12	-41.2		85	16	9.2
2025-07-14T12:00	30400	12	-41.2		83	17	9.2
2025-07-14T12:00	30450	12	-41.2		83	18	9.2
2025-07-14T12:00	30500	12	-41.2		85	19	9.0
2025-07-14T12:00	30550	12	-41.4		89	20	9.0
2025-07-14T12:00	30600	12	-41.3		92	19	8.9
2025-07-14T12:00	30650	12	-41.2		94	18	9.0
2025-07-14T12:00	30700	12	-41.1		95	17	8.8
2025-07-14T12:00	30750	12	-41.2		94	15	8.8
2025-07-14T12:00	30800	11	-41.2		90	13	8.6
2025-07-14T12:00	30850	11	-41.1		85	11	8.6
2025-07-14T12:00	30900	11	-41.1		80	11	8.6
2025-07-14T12:00	30950	11	-40.9		77	11	8.5
2025-07-14T12:00	31000	11	-40.6		78	12	8.5
2025-07-14T12:00	31050	11	-40.4		81	13	8.4
2025-07-14T12:00	31100	11	-40.4		82	13	8.4
2025-07-14T12:00	31150	11	-40.3		85	13	8.3
2025-07-14T12:00	31200	11	-40.1		88	13	8.2
2025-07-14T12:00	31250	11	-40.1		94	12	8.1
2025-07-14T12:00	31300	11	-40.2		97	12	8.0
2025-07-14T12:00	31350	11	-40.1		97	12	8.0
2025-07-14T12:00	31400	10	-39.5		91	12	8.0
2025-07-14T12:00	31450	10	-39.0		81	12	7.9
2025-07-14T12:00	31500	10	-38.7		73	12	8.0
2025-07-14T12:00	31550	10	-38.7		67	12	7.9
2025-07-14T12:00	31600	10	-38.9		62	11	7.9
2025-07-14T12:00	31650	10	-39.1		59	11	7.9
2025-07-14T12:00	31700	10	-39.3		56	10	7.9
2025-07-14T12:00	31750	10	-39.2		58	11	7.9
2025-07-14T12:00	31800	10	-39.0		62	12	7.8
2025-07-14T12:00	31850	10	-39.0		67	13	7.8
2025-07-14T12:00	31900	10	-39.1		72	13	7.7
2025-07-14T12:00	31950	10	-39.2		76	13	7.7
2025-07-14T12:00	32000	10	-39.1		82	13	7.7
2025-07-14T12:00	32050	10	-39.0		90	14	7.8
2025-07-14T12:00	32100	9	-38.9		95	14	7.6
2025-07-14T12:00	32150	9	-39.0		97	14	7.3
2025-07-14T12:00	32200	9	-38.8		96	14	7.2
2025-07-14T12:00	32250	9	-38.4		94	14	7.3
2025-07-14T12:00	32300	9	-38.4		92	13	7.1
2025-07-14T12:00	32350	9	-38.5		90	13	7.0
2025-07-14T12:00	32400	9	-38.6		87	12	6.9
2025-07-14T12:00	32450	9	-38.6		82	13	6.8
2025-07-14T12:00	32500	9	-38.3		78	13	6.8
2025-07-14T12:00	32550	9	-37.9		71	14	6.7
2025-07-14T12:00	32600	9	-37.7		66	14	6.6
2025-07-14T12:00	32650	9	-37.5		67	14	6.6
2025-07-14T12:00	32700	9	-37.3		71	14	6.6
2025-07-14T12:00	32750	9	-37.0		74	14	6.5
2025-07-14T12:00	32800	9	-36.7		75	15	6.6
2025-07-14T12:00	32850	8	-36.5		79	15	6.5
2025-07-14T12:00	32900	8	-36.4		86	15	6.4
2025-07-14T12:00	32950	8	-36.4		91	16	6.3
2025-07-14T12:00	33000	8	-36.4		94	16	6.3
2025-07-14T12:00	33050	8	-36.4		99	17	6.2
2025-07-14T12:00	33100	8	-36.5		103	17	6.1
2025-07-14T12:00	33150	8	-36.5		103	17	6.1
2025-07-14T12:00	33200	8	-36.1		99	16	6.0
2025-07-14T12:00	33250	8	-35.6		92	15	6.1
2025-07-14T12:00	33300	8	-35.2		84	14	6.1
2025-07-14T12:00	33350	8	-34.8		76	15	6.0
2025-07-14T12:00	33400	8	-34.5		72	16	5.9
2025-07-14T12:00	33450	8	-34.3		72	17	5.9
2025-07-14T12:00	33500	8	-34.2		76	17	5.7
2025-07-14T12:00	33550	8	-34.1		82	17	5.7
2025-07-14T12:00	33600	8	-34.0		85	17	5.8
2025-07-14T12:00	33650	8	-33.8		84	17	5.7
2025-07-14T12:00	33700	7	-33.7		84	16	5.7
2025-07-14T12:00	33750	7	-33.8		85	16	5.6
2025-07-14T12:00	33800	7	-34.2		84	15	5.5
2025-07-14T12:00	33850	7	-34.5		82	15	5.5
2025-07-14T12:00	33900	7	-34.8		79	15	5.4
2025-07-14T12:00	33950	7	-35.1		75	15	5.3
2025-07-14T12:00	34000	7	-35.4		72	15	5.4
2025-07-14T12:00	34050	7	-35.5		70	16	5.2
2025-07-14T12:00	34100	7	-35.7		73	16	5.2
2025-07-14T12:00	34150	7	-35.8		78	16	5.2
2025-07-14T12:00	34200	7	-35.8		85	16	5.2
2025-07-14T12:00	34250	7	-35.8		89	16	5.2
2025-07-14T12:00	34300	7	-35.6		87	15	5.1
2025-07-14T12:00	34350	7	-35.3		83	15	5.1
2025-07-14T12:00	34400	7	-35.0		81	15	5.0
2025-07-14T12:00	34450	7	-34.9		80	15	5.0
2025-07-14T12:00	34500	7	-35.0		80	15	5.0
2025-07-14T12:00	34550	7	-34.9		80	17	4.9
2025-07-14T12:00	34600	7	-34.9		79	19	4.9
2025-07-14T12:00	34650	7	-34.8		81	20	4.9
2025-07-14T12:00	34700	6	-34.6		84	21	4.8
2025-07-14T12:00	34750	6	-34.2		85	19	4.8
2025-07-14T12:00	34800	6	-33.9		85	18	4.7
2025-07-14T12:00	34850	6	-33.6		85	17	4.6
2025-07-14T12:00	34900	6	-33.3		85	17	4.6
2025-07-14T12:00	34950	6	-33.1		85	17	4.5
2025-07-15T00:00	491	964	20.3	13.7	206	4	
2025-07-15T00:00	501	963	20.6	13.7	209	4	
2025-07-15T00:00	520	961	20.8	13.5	211	4	
2025-07-15T00:00	540	959	21.0	13.1	211	5	
2025-07-15T00:00	560	957	21.1	12.9	212	6	
2025-07-15T00:00	580	955	21.0	12.9	213	7	
2025-07-15T00:00	600	952	20.7	12.7	214	8	
2025-07-15T00:00	620	950	21.1	12.4	215	9	
2025-07-15T00:00	640	948	20.9	12.4	216	9	
2025-07-15T00:00	660	946	20.7	12.4	216	9	
2025-07-15T00:00	680	943	20.5	12.4	216	9	
2025-07-15T00:00	700	941	20.5	12.3	216	10	
2025-07-15T00:00	720	939	20.4	12.2	216	10	
2025-07-15T00:00	740	937	20.2	12.1	215	10	
2025-07-15T00:00	760	935	20.3	11.8	215	10	
2025-07-15T00:00	780	932	20.4	11.7	216	11	
2025-07-15T00:00	800	930	20.3	11.7	217	11	
2025-07-15T00:00	820	928	20.2	11.6	218	11	
2025-07-15T00:00	840	926	20.2	11.5	220	11	
2025-07-15T00:00	860	924	20.3	11.3	223	11	
2025-07-15T00:00	880	922	20.1	11.4	226	11	
2025-07-15T00:00	900	920	20.0	11.2	230	10	
2025-07-15T00:00	920	918	20.3	11.0	234	10	
2025-07-15T00:00	940	915	20.2	11.0	237	10	
2025-07-15T00:00	960	913	19.9	11.0	239	10	
2025-07-15T00:00	980	911	19.8	11.0	241	9	
2025-07-15T00:00	1000	909	19.6	10.9	241	9	
2025-07-15T00:00	1020	907	19.4	10.9	241	9	
2025-07-15T00:00	1040	905	19.2	10.9	240	9	
2025-07-15T00:00	1060	903	19.0	10.9	238	9	
2025-07-15T00:00	1080	901	18.8	10.8	237	9	
2025-07-15T00:00	1100	899	18.6	10.8	235	9	
2025-07-15T00:00	1120	897	18.5	10.8	234	8	
2025-07-15T00:00	1140	894	18.3	10.7	234	8	
2025-07-15T00:00	1160	892	18.1	10.7	234	8	
2025-07-15T00:00	1180	890	17.9	10.6	235	9	
2025-07-15T00:00	1200	888	17.7	10.6	236	9	
2025-07-15T00:00	1220	886	17.5	10.6	236	9	
2025-07-15T00:00	1240	884	17.3	10.5	236	9	
2025-07-15T00:00	1260	882	17.1	10.5	236	9	
2025-07-15T00:00	1280	880	16.9	10.5	236	9	
2025-07-15T00:00	1300	878	16.8	10.5	236	8	
2025-07-15T00:00	1320	876	16.6	10.5	236	8	
2025-07-15T00:00	1340	874	16.5	10.5	236	8	
2025-07-15T00:00	1360	872	16.3	10.4	236	7	
2025-07-15T00:00	1380	870	16.2	10.4	237	7	
2025-07-15T00:00	1400	868	16.0	10.4	238	6	
2025-07-15T00:00	1420	866	15.9	10.5	238	6	
2025-07-15T00:00	1440	864	15.7	10.4	238	6	
2025-07-15T00:00	1460	862	15.5	10.3	238	6	
2025-07-15T00:00	1480	860	15.3	10.3	238	6	
2025-07-15T00:00	1500	858	15.1	10.3	238	6	
2025-07-15T00:00	1520	856	14.9	10.2	238	6	
2025-07-15T00:00	1540	853	14.7	10.3	239	5	
2025-07-15T00:00	1560	851	14.6	10.2	241	5	
2025-07-15T00:00	1580	850	14.4	10.2	243	5	
2025-07-15T00:00	1600	848	14.2	10.1	245	5	
2025-07-15T00:00	1620	846	14.0	10.1	249	5	
2025-07-15T00:00	1640	844	13.8	10.2	253	5	
2025-07-15T00:00	1660	841	13.5	10.2	256	4	
2025-07-15T00:00	1680	839	13.3	10.0	258	4	
2025-07-15T00:00	1700	837	13.2	10.0	260	4	
2025-07-15T00:00	1720	835	12.9	10.0	261	4	
2025-07-15T00:00	1740	833	12.7	9.9	260	4	
2025-07-15T00:00	1760	832	12.6	10.1	257	4	
2025-07-15T00:00	1780	830	12.4	10.1	251	4	
2025-07-15T00:00	1800	828	12.2	9.9	247	4	
2025-07-15T00:00	1820	826	12.1	9.9	245	4	
2025-07-15T00:00	1840	824	12.0	9.9	245	5	
2025-07-15T00:00	1860	822	11.9	9.8	247	5	
2025-07-15T00:00	1880	820	11.8	9.7	250	5	
2025-07-15T00:00	1900	818	11.6	9.6	254	5	
2025-07-15T00:00	1920	816	11.5	9.5	256	5	
2025-07-15T00:00	1940	814	11.3	9.5	258	5	
2025-07-15T00:00	1960	812	11.1	9.3	256	5	
2025-07-15T00:00	1980	810	10.9	9.4	252	5	
2025-07-15T00:00	2000	808	10.9	9.3	248	5	
2025-07-15T00:00	2020	806	10.7	9.2	244	4	
2025-07-15T00:00	2040	804	10.5	9.1	240	4	
2025-07-15T00:00	2060	802	10.4	9.0	237	4	
2025-07-15T00:00	2080	800	10.5	8.8	236	4	
2025-07-15T00:00	2100	798	10.3	8.8	236	4	
2025-07-15T00:00	2120	796	10.1	8.8	236	4	
2025-07-15T00:00	2140	794	9.9	8.7	236	4	
2025-07-15T00:00	2160	793	9.9	8.5	236	4	
2025-07-15T00:00	2180	791	9.8	8.4	236	4	
2025-07-15T00:00	2200	789	9.7	8.2	236	3	
2025-07-15T00:00	2220	787	9.6	8.2	236	3	
2025-07-15T00:00	2240	785	9.5	8.3	235	3	
2025-07-15T00:00	2260	783	9.3	8.1	233	3	
2025-07-15T00:00	2280	781	9.2	8.0	229	3	
2025-07-15T00:00	2300	779	9.3	7.9	222	3	
2025-07-15T00:00	2320	778	9.1	7.9	214	3	
2025-07-15T00:00	2340	776	8.9	7.8	205	4	
2025-07-15T00:00	2360	774	8.7	7.7	196	4	
2025-07-15T00:00	2380	772	8.6	7.5	189	5	
2025-07-15T00:00	2400	770	8.6	7.2	186	5	
2025-07-15T00:00	2420	768	8.4	7.2	185	5	
2025-07-15T00:00	2440	767	8.3	7.0	185	5	
2025-07-15T00:00	2460	765	8.1	6.9	187	5	
2025-07-15T00:00	2480	763	8.0	6.9	190	4	
2025-07-15T00:00	2500	761	7.8	6.9	193	4	
2025-07-15T00:00	2520	759	7.6	6.8	195	4	
2025-07-15T00:00	2540	757	7.5	6.6	197	4	
2025-07-15T00:00	2560	755	7.3	6.6	200	4	
2025-07-15T00:00	2580	754	7.2	6.6	204	4	
2025-07-15T00:00	2600	752	7.0	6.5	208	5	
2025-07-15T00:00	2620	750	6.8	6.4	214	5	
2025-07-15T00:00	2640	748	6.7	6.2	220	5	
2025-07-15T00:00	2660	746	6.7	5.8	225	6	
2025-07-15T00:00	2680	744	6.9	5.3	229	6	
2025-07-15T00:00	2700	743	6.8	5.1	232	7	
2025-07-15T00:00	2720	741	6.8	4.8	235	7	
2025-07-15T00:00	2740	739	6.8	4.5	237	7	
2025-07-15T00:00	2760	737	6.6	4.6	238	7	
2025-07-15T00:00	2780	735	6.4	4.6	239	7	
2025-07-15T00:00	2800	734	6.2	4.5	239	7	
2025-07-15T00:00	2820	732	6.1	4.3	240	7	
2025-07-15T00:00	2840	730	6.0	4.0	239	7	
2025-07-15T00:00	2860	728	6.0	3.5	239	7	
2025-07-15T00:00	2880	727	6.0	3.3	238	7	
2025-07-15T00:00	2900	725	5.9	3.0	238	7	
2025-07-15T00:00	2920	723	5.8	2.8	238	8	
2025-07-15T00:00	2940	721	5.7	2.8	238	8	
2025-07-15T00:00	2960	720	5.5	2.8	238	8	
2025-07-15T00:00	2980	718	5.3	2.7	239	8	
2025-07-15T00:00	3000	716	5.1	2.6	239	8	
2025-07-15T00:00	3020	714	5.0	2.5	240	8	
2025-07-15T00:00	3040	713	4.8	2.5	240	8	
2025-07-15T00:00	3060	711	4.6	2.4	240	8	
2025-07-15T00:00	3080	709	4.4	2.4	240	8	
2025-07-15T00:00	3100	707	4.2	2.3	239	8	
2025-07-15T00:00	3120	706	4.1	2.1	238	8	
2025-07-15T00:00	3140	704	3.9	2.1	237	8	
2025-07-15T00:00	3160	702	3.7	2.0	236	8	
2025-07-15T00:00	3180	700	3.6	1.9	235	8	
2025-07-15T00:00	3200	699	3.4	1.9	235	8	
2025-07-15T00:00	3220	697	3.2	1.8	236	8	
2025-07-15T00:00	3240	695	3.0	1.7	237	8	
2025-07-15T00:00	3260	694	2.9	1.4	239	8	
2025-07-15T00:00	3280	692	2.9	1.2	241	8	
2025-07-15T00:00	3300	690	2.8	1.0	242	8	
2025-07-15T00:00	3320	688	2.7	0.8	243	8	
2025-07-15T00:00	3340	687	2.4	0.8	244	8	
2025-07-15T00:00	3360	685	2.3	0.8	244	8	
2025-07-15T00:00	3380	683	2.2	0.5	244	8	
2025-07-15T00:00	3400	682	2.1	0.3	243	7	
2025-07-15T00:00	3420	680	2.0	0.2	242	7	
2025-07-15T00:00	3440	678	1.8	0.2	242	7	
2025-07-15T00:00	3460	677	1.6	0.1	241	7	
2025-07-15T00:00	3480	675	1.5	-0.1	240	8	
2025-07-15T00:00	3500	673	1.5	-0.1	240	8	
2025-07-15T00:00	3520	671	1.3	0.1	241	8	
2025-07-15T00:00	3540	670	1.1	0.4	241	9	
2025-07-15T00:00	3560	668	0.9	0.4	242	9	
2025-07-15T00:00	3580	666	0.7	0.4	243	9	
2025-07-15T00:00	3600	665	0.6	0.4	245	10	
2025-07-15T00:00	3620	663	0.3	0.3	247	10	
2025-07-15T00:00	3640	662	0.3	0.3	249	10	
2025-07-15T00:00	3660	660	0.2	0.2	251	10	
2025-07-15T00:00	3680	658	0.1	0.1	254	9	
2025-07-15T00:00	3700	657	0.0	0.0	255	10	
2025-07-15T00:00	3720	655	-0.1	-0.1	257	10	
2025-07-15T00:00	3740	653	-0.2	-0.2	257	10	
2025-07-15T00:00	3760	652	-0.3	-0.3	258	10	
2025-07-15T00:00	3780	650	-0.4	-0.4	258	10	
2025-07-15T00:00	3800	649	-0.5	-0.5	257	11	
2025-07-15T00:00	3820	647	-0.6	-0.6	257	11	
2025-07-15T00:00	3840	646	-0.7	-0.7	257	11	
2025-07-15T00:00	3860	644	-0.8	-0.8	256	11	
2025-07-15T00:00	3880	642	-0.9	-0.9	256	12	
2025-07-15T00:00	3900	640	-1.0	-1.0	255	12	
2025-07-15T00:00	3920	639	-1.1	-1.1	255	12	
2025-07-15T00:00	3940	637	-1.2	-1.2	255	12	
2025-07-15T00:00	3960	636	-1.3	-1.3	254	12	
2025-07-15T00:00	3980	634	-1.4	-1.4	254	12	
2025-07-15T00:00	4000	632	-1.5	-1.5	254	12	
2025-07-15T00:00	4020	631	-1.6	-1.6	254	13	
2025-07-15T00:00	4040	629	-1.6	-1.7	255	13	
2025-07-15T00:00	4060	628	-1.7	-1.8	255	13	
2025-07-15T00:00	4080	626	-1.9	-1.9	255	13	
2025-07-15T00:00	4100	625	-1.9	-2.0	255	13	
2025-07-15T00:00	4120	623	-2.1	-2.1	255	13	
2025-07-15T00:00	4140	622	-2.1	-2.1	255	13	
2025-07-15T00:00	4160	620	-2.3	-2.3	255	13	
2025-07-15T00:00	4180	618	-2.4	-2.4	256	13	
2025-07-15T00:00	4200	617	-2.5	-2.5	256	14	
2025-07-15T00:00	4220	615	-2.7	-2.7	257	14	
2025-07-15T00:00	4240	614	-2.8	-2.9	258	14	
2025-07-15T00:00	4260	612	-2.7	-2.9	259	14	
2025-07-15T00:00	4280	611	-2.7	-3.0	260	14	
2025-07-15T00:00	4300	609	-3.0	-3.1	260	14	
2025-07-15T00:00	4320	608	-3.2	-3.2	261	14	
2025-07-15T00:00	4340	606	-3.3	-3.3	261	14	
2025-07-15T00:00	4360	605	-3.5	-3.5	262	15	
2025-07-15T00:00	4380	603	-3.5	-3.5	261	15	
2025-07-15T00:00	4400	602	-3.6	-3.7	261	15	
2025-07-15T00:00	4420	600	-3.8	-3.9	260	15	
2025-07-15T00:00	4440	598	-3.9	-3.9	259	15	
2025-07-15T00:00	4460	597	-3.9	-4.1	259	15	
2025-07-15T00:00	4480	595	-4.0	-4.2	258	15	
2025-07-15T00:00	4500	594	-4.5	-4.6	259	15	
2025-07-15T00:00	4520	592	-4.4	-4.5	259	15	
2025-07-15T00:00	4540	591	-4.3	-4.9	260	15	
2025-07-15T00:00	4560	590	-4.7	-5.4	261	15	
2025-07-15T00:00	4580	588	-5.0	-5.7	262	15	
2025-07-15T00:00	4600	586	-5.2	-5.9	263	15	
2025-07-15T00:00	4620	585	-5.5	-6.3	263	16	
2025-07-15T00:00	4640	583	-5.8	-6.3	264	16	
2025-07-15T00:00	4660	582	-6.1	-6.7	264	16	
2025-07-15T00:00	4680	581	-6.3	-9.6	264	16	
2025-07-15T00:00	4700	579	-6.6	-9.5	263	17	
2025-07-15T00:00	4720	578	-6.8	-9.8	263	17	
2025-07-15T00:00	4740	576	-7.0	-11.2	262	17	
2025-07-15T00:00	4760	575	-7.3	-11.8	261	17	
2025-07-15T00:00	4780	573	-7.5	-11.2	260	17	
2025-07-15T00:00	4800	572	-7.7	-10.2	258	17	
2025-07-15T00:00	4820	570	-7.7	-9.6	258	17	
2025-07-15T00:00	4840	569	-7.1	-8.4	257	17	
2025-07-15T00:00	4860	567	-7.0	-8.4	257	17	
2025-07-15T00:00	4880	566	-7.0	-8.1	257	17	
2025-07-15T00:00	4900	564	-6.8	-7.8	258	16	
2025-07-15T00:00	4920	563	-6.8	-7.7	259	16	
2025-07-15T00:00	4940	561	-6.9	-7.9	260	16	
2025-07-15T00:00	4960	560	-7.1	-8.1	261	17	
2025-07-15T00:00	4980	558	-7.2	-8.2	261	17	
2025-07-15T00:00	5000	557	-7.3	-8.4	260	17	
2025-07-15T00:00	5020	556	-7.5	-8.4	259	18	
2025-07-15T00:00	5040	554	-7.5	-8.4	257	19	
2025-07-15T00:00	5060	553	-7.7	-8.7	256	19	
2025-07-15T00:00	5080	551	-7.8	-8.9	255	19	
2025-07-15T00:00	5100	550	-8.1	-9.7	256	19	
2025-07-15T00:00	5120	549	-8.4	-10.6	257	18	
2025-07-15T00:00	5140	547	-8.5	-10.8	259	18	
2025-07-15T00:00	5160	546	-8.6	-11.7	262	17	
2025-07-15T00:00	5180	544	-8.7	-12.2	264	16	
2025-07-15T00:00	5200	543	-8.9	-12.8	266	15	
2025-07-15T00:00	5220	542	-9.0	-12.6	268	15	
2025-07-15T00:00	5240	540	-9.1	-12.6	269	15	
2025-07-15T00:00	5260	539	-9.2	-12.4	270	15	
2025-07-15T00:00	5280	537	-9.3	-12.1	271	15	
2025-07-15T00:00	5300	536	-9.4	-12.3	271	15	
2025-07-15T00:00	5320	535	-9.6	-12.2	271	15	
2025-07-15T00:00	5340	533	-9.9	-13.2	270	15	
2025-07-15T00:00	5360	532	-10.1	-14.0	270	14	
2025-07-15T00:00	5380	531	-10.3	-16.1	270	14	
2025-07-15T00:00	5400	529	-10.4	-16.8	270	14	
2025-07-15T00:00	5420	528	-10.6	-16.8	272	14	
2025-07-15T00:00	5440	526	-10.6	-16.6	273	14	
2025-07-15T00:00	5460	525	-10.8	-17.6	274	15	
2025-07-15T00:00	5480	524	-10.8	-17.9	274	15	
2025-07-15T00:00	5500	522	-10.8	-18.4	275	15	
2025-07-15T00:00	5520	521	-10.9	-18.6	275	15	
2025-07-15T00:00	5540	519	-11.0	-18.9	276	15	
2025-07-15T00:00	5560	518	-11.0	-19.2	276	15	
2025-07-15T00:00	5580	517	-11.1	-18.9	276	15	
2025-07-15T00:00	5600	516	-10.9	-18.3	277	15	
2025-07-15T00:00	5620	514	-11.0	-18.3	277	15	
2025-07-15T00:00	5640	513	-11.1	-18.3	278	15	
2025-07-15T00:00	5660	512	-11.2	-18.2	278	15	
2025-07-15T00:00	5680	510	-11.3	-18.6	279	15	
2025-07-15T00:00	5700	509	-11.4	-18.0	279	16	
2025-07-15T00:00	5720	507	-11.6	-17.4	279	15	
2025-07-15T00:00	5740	506	-11.7	-17.3	279	15	
2025-07-15T00:00	5760	505	-11.6	-16.0	279	15	
2025-07-15T00:00	5780	504	-11.7	-15.9	279	15	
2025-07-15T00:00	5800	502	-11.8	-15.8	277	15	
2025-07-15T00:00	5820	501	-11.8	-16.0	274	15	
2025-07-15T00:00	5840	500	-11.9	-16.3	271	16	
2025-07-15T00:00	5860	498	-12.0	-16.7	269	16	
2025-07-15T00:00	5880	497	-12.0	-16.9	267	16	
2025-07-15T00:00	5900	496	-12.1	-17.1	265	16	
2025-07-15T00:00	5920	494	-12.2	-17.6	265	16	
2025-07-15T00:00	5940	493	-12.3	-18.1	264	16	
2025-07-15T00:00	5960	492	-12.3	-18.4	265	16	
2025-07-15T00:00	5980	491	-12.5	-18.5	265	16	
2025-07-15T00:00	6000	489	-12.6	-18.6	265	16	
2025-07-15T00:00	6020	488	-12.8	-18.7	264	16	
2025-07-15T00:00	6040	487	-12.9	-18.7	264	17	
2025-07-15T00:00	6060	485	-13.0	-18.8	264	17	
2025-07-15T00:00	6080	484	-13.2	-18.9	263	17	
2025-07-15T00:00	6100	483	-13.3	-19.0	263	17	
2025-07-15T00:00	6120	482	-13.4	-19.1	262	17	
2025-07-15T00:00	6140	480	-13.6	-19.1	261	17	
2025-07-15T00:00	6160	479	-13.7	-19.1	260	17	
2025-07-15T00:00	6180	478	-13.9	-19.2	259	17	
2025-07-15T00:00	6200	477	-14.0	-19.4	258	17	
2025-07-15T00:00	6220	475	-14.1	-19.8	256	17	
2025-07-15T00:00	6240	474	-14.2	-20.2	255	18	
2025-07-15T00:00	6260	473	-14.4	-20.5	254	18	
2025-07-15T00:00	6280	471	-14.6	-20.7	253	18	
2025-07-15T00:00	6300	470	-14.7	-20.8	253	18	
2025-07-15T00:00	6320	469	-14.8	-20.8	252	18	
2025-07-15T00:00	6340	468	-14.9	-20.6	252	18	
2025-07-15T00:00	6360	467	-15.1	-20.6	252	17	
2025-07-15T00:00	6380	465	-15.2	-20.5	252	17	
2025-07-15T00:00	6400	464	-15.4	-20.5	253	17	
2025-07-15T00:00	6420	463	-15.5	-20.5	253	17	
2025-07-15T00:00	6440	462	-15.7	-20.7	254	17	
2025-07-15T00:00	6460	461	-15.9	-20.7	255	17	
2025-07-15T00:00	6480	459	-16.0	-20.7	255	17	
2025-07-15T00:00	6500	458	-16.2	-20.9	256	17	
2025-07-15T00:00	6520	457	-16.4	-20.9	256	17	
2025-07-15T00:00	6540	456	-16.6	-20.9	257	17	
2025-07-15T00:00	6560	454	-16.8	-20.9	257	17	
2025-07-15T00:00	6580	453	-17.0	-20.8	258	17	
2025-07-15T00:00	6600	452	-17.1	-20.8	259	17	
2025-07-15T00:00	6620	451	-17.3	-20.8	261	17	
2025-07-15T00:00	6640	450	-17.4	-20.8	262	17	
2025-07-15T00:00	6660	449	-17.5	-20.4	264	17	
2025-07-15T00:00	6680	447	-17.5	-20.3	266	17	
2025-07-15T00:00	6700	446	-17.6	-20.7	268	16	
2025-07-15T00:00	6720	445	-17.6	-21.5	269	16	
2025-07-15T00:00	6740	444	-17.6	-22.0	271	17	
2025-07-15T00:00	6760	443	-17.7	-22.2	272	17	
2025-07-15T00:00	6780	441	-17.9	-22.9	272	17	
2025-07-15T00:00	6800	440	-18.0	-24.3	272	17	
2025-07-15T00:00	6820	439	-18.2	-24.3	272	17	
2025-07-15T00:00	6840	438	-18.4	-24.2	272	17	
2025-07-15T00:00	6860	436	-18.6	-24.3	272	18	
2025-07-15T00:00	6880	435	-18.7	-24.6	272	18	
2025-07-15T00:00	6900	434	-18.9	-25.0	272	18	
2025-07-15T00:00	6920	433	-19.1	-25.0	273	18	
2025-07-15T00:00	6940	432	-19.2	-25.1	274	18	
2025-07-15T00:00	6960	431	-19.4	-25.3	274	19	
2025-07-15T00:00	6980	430	-19.6	-25.6	275	19	
2025-07-15T00:00	7000	428	-19.8	-25.4	276	19	
2025-07-15T00:00	7020	427	-19.9	-26.1	277	19	
2025-07-15T00:00	7040	426	-20.0	-27.1	277	20	
2025-07-15T00:00	7060	425	-20.3	-27.2	278	20	
2025-07-15T00:00	7080	424	-20.4	-27.6	278	20	
2025-07-15T00:00	7100	423	-20.6	-27.5	280	20	
2025-07-15T00:00	7120	422	-20.7	-27.4	281	20	
2025-07-15T00:00	7140	420	-20.9	-27.5	283	20	
2025-07-15T00:00	7160	419	-20.9	-27.5	284	21	
2025-07-15T00:00	7180	418	-21.1	-27.6	285	21	
2025-07-15T00:00	7200	417	-21.2	-27.5	287	21	
2025-07-15T00:00	7220	416	-21.3	-27.2	288	21	
2025-07-15T00:00	7240	415	-21.5	-27.3	288	21	
2025-07-15T00:00	7260	414	-21.6	-26.5	287	21	
2025-07-15T00:00	7280	413	-21.6	-25.1	286	21	
2025-07-15T00:00	7300	411	-21.7	-23.9	285	22	
2025-07-15T00:00	7320	410	-21.8	-24.0	284	22	
2025-07-15T00:00	7340	409	-21.9	-24.1	284	22	
2025-07-15T00:00	7360	408	-22.0	-24.0	283	22	
2025-07-15T00:00	7380	407	-22.2	-23.9	282	22	
2025-07-15T00:00	7400	406	-22.3	-23.9	282	22	
2025-07-15T00:00	7420	405	-22.5	-23.9	281	22	
2025-07-15T00:00	7440	404	-22.6	-24.1	280	22	
2025-07-15T00:00	7460	403	-22.8	-24.2	280	22	
2025-07-15T00:00	7480	401	-23.0	-24.2	280	22	
2025-07-15T00:00	7500	400	-23.1	-24.4	280	21	
2025-07-15T00:00	7520	399	-23.3	-24.5	280	21	
2025-07-15T00:00	7540	398	-23.5	-24.7	282	21	
2025-07-15T00:00	7560	397	-23.5	-25.0	283	21	
2025-07-15T00:00	7580	396	-23.6	-25.1	283	21	
2025-07-15T00:00	7600	395	-23.6	-25.4	284	21	
2025-07-15T00:00	7620	394	-23.8	-25.9	283	21	
2025-07-15T00:00	7640	393	-23.9	-26.4	282	22	
2025-07-15T00:00	7660	392	-24.0	-26.5	281	22	
2025-07-15T00:00	7680	391	-24.2	-26.6	279	23	
2025-07-15T00:00	7700	389	-24.4	-26.7	278	23	
2025-07-15T00:00	7720	388	-24.5	-26.7	278	24	
2025-07-15T00:00	7740	387	-24.7	-26.8	279	24	
2025-07-15T00:00	7760	386	-24.9	-26.8	280	24	
2025-07-15T00:00	7780	385	-25.1	-27.0	280	24	
2025-07-15T00:00	7800	384	-25.3	-26.9	281	24	
2025-07-15T00:00	7820	383	-25.5	-27.0	281	24	
2025-07-15T00:00	7840	382	-25.6	-27.1	282	23	
2025-07-15T00:00	7860	381	-25.8	-27.1	281	23	
2025-07-15T00:00	7880	380	-26.0	-27.0	281	23	
2025-07-15T00:00	7900	379	-26.2	-27.2	280	22	
2025-07-15T00:00	7920	378	-26.3	-27.2	279	22	
2025-07-15T00:00	7940	377	-26.5	-27.2	279	23	
2025-07-15T00:00	7960	376	-26.7	-27.2	279	23	
2025-07-15T00:00	7980	375	-26.9	-27.4	279	22	
2025-07-15T00:00	8000	374	-27.0	-27.5	280	22	
2025-07-15T00:00	8020	373	-27.2	-27.5	280	21	
2025-07-15T00:00	8040	372	-27.4	-27.6	280	20	
2025-07-15T00:00	8060	371	-27.5	-28.0	280	20	
2025-07-15T00:00	8080	370	-27.7	-27.9	279	19	
2025-07-15T00:00	8100	369	-27.8	-28.0	279	19	
2025-07-15T00:00	8120	368	-28.0	-28.1	278	19	
2025-07-15T00:00	8140	367	-28.1	-28.3	278	19	
2025-07-15T00:00	8160	366	-28.2	-28.4	279	19	
2025-07-15T00:00	8180	365	-28.4	-28.5	281	19	
2025-07-15T00:00	8200	364	-28.6	-28.8	283	19	
2025-07-15T00:00	8220	362	-28.8	-29.1	285	20	
2025-07-15T00:00	8240	361	-28.9	-29.3	287	20	
2025-07-15T00:00	8260	360	-29.0	-29.5	288	21	
2025-07-15T00:00	8280	359	-29.2	-29.4	289	22	
2025-07-15T00:00	8300	358	-29.3	-30.4	289	23	
2025-07-15T00:00	8320	357	-29.5	-30.9	288	24	
2025-07-15T00:00	8340	357	-29.3	-33.5	287	25	
2025-07-15T00:00	8360	356	-29.3	-34.0	286	25	
2025-07-15T00:00	8380	355	-29.4	-34.2	285	25	
2025-07-15T00:00	8400	354	-29.5	-34.7	285	25	
2025-07-15T00:00	8420	352	-29.6	-34.8	286	25	
2025-07-15T00:00	8440	351	-29.7	-35.3	286	25	
2025-07-15T00:00	8460	350	-29.8	-35.9	286	25	
2025-07-15T00:00	8480	349	-29.9	-37.0	285	25	
2025-07-15T00:00	8500	349	-30.1	-38.5	285	25	
2025-07-15T00:00	8520	348	-30.3	-39.4	285	24	
2025-07-15T00:00	8540	347	-30.4	-39.9	285	24	
2025-07-15T00:00	8560	346	-30.5	-39.9	285	24	
2025-07-15T00:00	8580	345	-30.7	-40.1	286	24	
2025-07-15T00:00	8600	344	-30.8	-40.4	286	24	
2025-07-15T00:00	8620	343	-30.9	-40.5	287	24	
2025-07-15T00:00	8640	342	-31.1	-40.8	287	24	
2025-07-15T00:00	8660	341	-31.1	-40.8	286	24	
2025-07-15T00:00	8680	340	-31.3	-40.6	286	24	
2025-07-15T00:00	8700	339	-31.4	-40.8	286	24	
2025-07-15T00:00	8720	338	-31.6	-40.7	285	24	
2025-07-15T00:00	8740	337	-31.7	-40.6	285	24	
2025-07-15T00:00	8760	336	-31.9	-40.7	285	24	
2025-07-15T00:00	8780	335	-32.0	-40.7	285	24	
2025-07-15T00:00	8800	334	-32.2	-40.6	285	25	
2025-07-15T00:00	8820	333	-32.3	-40.7	286	25	
2025-07-15T00:00	8840	332	-32.5	-40.8	286	25	
2025-07-15T00:00	8860	331	-32.7	-40.9	286	25	
2025-07-15T00:00	8880	330	-32.8	-40.6	287	25	
2025-07-15T00:00	8900	329	-32.9	-40.5	287	24	
2025-07-15T00:00	8920	328	-33.1	-40.7	288	24	
2025-07-15T00:00	8940	328	-33.2	-41.1	288	24	
2025-07-15T00:00	8960	327	-33.4	-41.4	289	24	
2025-07-15T00:00	8980	326	-33.5	-42.1	289	24	
2025-07-15T00:00	9000	325	-33.7	-43.0	290	24	
2025-07-15T00:00	9020	324	-33.8	-43.3	290	24	
2025-07-15T00:00	9040	323	-34.0	-43.3	289	24	
2025-07-15T00:00	9060	322	-34.1	-43.4	289	24	
2025-07-15T00:00	9080	321	-34.3	-43.8	288	24	
2025-07-15T00:00	9100	320	-34.5	-44.0	288	24	
2025-07-15T00:00	9120	319	-34.6	-43.9	287	24	
2025-07-15T00:00	9140	318	-34.8	-43.8	287	24	
2025-07-15T00:00	9160	317	-34.9	-43.7	286	23	
2025-07-15T00:00	9180	316	-35.1	-43.7	286	23	
2025-07-15T00:00	9200	316	-35.3	-43.7	285	23	
2025-07-15T00:00	9220	315	-35.4	-43.8	285	23	
2025-07-15T00:00	9240	314	-35.6	-45.0	285	23	
2025-07-15T00:00	9260	313	-35.8	-45.7	285	23	
2025-07-15T00:00	9280	312	-35.9	-45.6	285	23	
2025-07-15T00:00	9300	311	-36.1	-45.6	285	23	
2025-07-15T00:00	9320	310	-36.2	-45.5	286	23	
2025-07-15T00:00	9340	309	-36.4	-45.9	286	24	
2025-07-15T00:00	9360	308	-36.5	-46.1	287	24	
2025-07-15T00:00	9380	308	-36.7	-46.1	287	24	
2025-07-15T00:00	9400	307	-36.9	-46.4	287	24	
2025-07-15T00:00	9420	306	-37.1	-46.6	287	24	
2025-07-15T00:00	9440	305	-37.3	-46.7	288	24	
2025-07-15T00:00	9460	304	-37.4	-47.3	288	24	
2025-07-15T00:00	9480	303	-37.6	-48.0	288	24	
2025-07-15T00:00	9500	302	-37.8	-48.0	288	24	
2025-07-15T00:00	9520	301	-38.0	-48.3	289	24	
2025-07-15T00:00	9540	300	-38.2	-48.2	289	24	
2025-07-15T00:00	9560	300	-38.4	-48.2	290	24	
2025-07-15T00:00	9580	299	-38.6	-48.6	290	24	
2025-07-15T00:00	9600	298	-38.8	-48.7	291	24	
2025-07-15T00:00	9620	297	-38.9	-49.3	291	24	
2025-07-15T00:00	9640	296	-39.1	-49.3	292	23	
2025-07-15T00:00	9660	295	-39.3	-49.4	292	23	
2025-07-15T00:00	9680	294	-39.5	-49.6	293	23	
2025-07-15T00:00	9700	294	-39.7	-49.7	293	24	
2025-07-15T00:00	9720	293	-39.8	-50.5	293	24	
2025-07-15T00:00	9740	292	-40.0	-50.3	293	24	
2025-07-15T00:00	9760	291	-40.2	-50.3	293	25	
2025-07-15T00:00	9780	290	-40.4	-50.6	294	25	
2025-07-15T00:00	9800	289	-40.6	-50.8	294	25	
2025-07-15T00:00	9820	288	-40.8	-50.9	294	25	
2025-07-15T00:00	9840	288	-40.9	-51.2	294	25	
2025-07-15T00:00	9860	287	-41.1	-51.3	293	25	
2025-07-15T00:00	9880	286	-41.3	-51.8	293	25	
2025-07-15T00:00	9900	285	-41.4	-52.3	293	25	
2025-07-15T00:00	9920	284	-41.6	-52.4	293	25	
2025-07-15T00:00	9940	283	-41.8	-52.6	293	25	
2025-07-15T00:00	9960	283	-41.9	-52.6	293	26	
2025-07-15T00:00	9980	282	-42.1	-52.7	293	26	
2025-07-15T00:00	10000	281	-42.3	-52.8	293	26	
2025-07-15T00:00	10018	280	-42.5	-52.9	293	26	
2025-07-15T00:00	10050	279	-42.8	-53.1	294	26	
2025-07-15T00:00	10100	277	-43.2	-53.2	293	26	
2025-07-15T00:00	10150	275	-43.7	-53.4	293	26	
2025-07-15T00:00	10200	273	-44.1	-53.5	292	26	
2025-07-15T00:00	10250	271	-44.6	-53.7	291	27	
2025-07-15T00:00	10300	269	-45.0	-53.8	291	27	
2025-07-15T00:00	10350	267	-45.4	-54.8	290	27	
2025-07-15T00:00	10400	265	-45.8	-55.4	291	28	
2025-07-15T00:00	10450	263	-46.2	-56.1	292	29	
2025-07-15T00:00	10500	261	-46.3	-57.5	293	30	
2025-07-15T00:00	10550	259	-46.6	-58.1	294	31	
2025-07-15T00:00	10600	257	-46.9	-57.9	295	31	
2025-07-15T00:00	10650	255	-47.3	-58.2	296	31	
2025-07-15T00:00	10700	253	-47.5	-58.2	297	31	
2025-07-15T00:00	10750	251	-47.6	-58.9	297	32	
2025-07-15T00:00	10800	249	-47.8	-58.5	297	33	
2025-07-15T00:00	10850	247	-48.1	-58.4	296	34	
2025-07-15T00:00	10900	245	-48.4	-58.8	295	35	
2025-07-15T00:00	10950	243	-48.6	-58.5	293	35	
2025-07-15T00:00	11000	242	-49.0	-58.6	292	36	
2025-07-15T00:00	11050	240	-49.5	-58.7	292	37	
2025-07-15T00:00	11100	238	-49.9	-58.4	292	38	
2025-07-15T00:00	11150	236	-50.4	-58.5	293	38	
2025-07-15T00:00	11200	234	-50.8	-58.9	294	39	
2025-07-15T00:00	11250	233	-51.1	-59.4	295	39	
2025-07-15T00:00	11300	231	-51.4	-59.6	297	39	
2025-07-15T00:00	11350	229	-51.6	-60.0	298	39	
2025-07-15T00:00	11400	227	-51.9	-60.3	299	40	
2025-07-15T00:00	11450	225	-52.2	-60.4	299	41	
2025-07-15T00:00	11500	224	-52.6	-60.7	301	41	
2025-07-15T00:00	11550	222	-52.9	-61.2	302	39	
2025-07-15T00:00	11600	220	-52.9	-62.1	303	38	
2025-07-15T00:00	11650	219	-52.7	-63.2	303	36	
2025-07-15T00:00	11700	217	-52.2	-64.2	302	33	
2025-07-15T00:00	11750	215	-52.3	-64.3	302	32	
2025-07-15T00:00	11800	214	-52.5	-64.6	302	30	
2025-07-15T00:00	11850	212	-52.3	-65.1	302	28	
2025-07-15T00:00	11900	210	-52.5	-65.4	301	26	
2025-07-15T00:00	11950	209	-52.6	-66.1	298	24	
2025-07-15T00:00	12000	207	-52.9	-66.3	295	22	
2025-07-15T00:00	12050	206	-53.4	-66.3	294	22	
2025-07-15T00:00	12100	204	-53.4	-66.5	293	22	
2025-07-15T00:00	12150	202	-53.7	-66.8	291	21	
2025-07-15T00:00	12200	201	-53.9	-67.2	287	19	
2025-07-15T00:00	12250	199	-54.1	-67.7	283	18	
2025-07-15T00:00	12300	198	-54.6	-67.8	281	18	
2025-07-15T00:00	12350	196	-55.0	-67.6	279	18	
2025-07-15T00:00	12400	195	-55.4	-67.8	276	18	
2025-07-15T00:00	12450	193	-55.8	-68.1	271	19	
2025-07-15T00:00	12500	192	-56.2	-68.2	266	20	
2025-07-15T00:00	12550	190	-56.2	-68.3	265	21	
2025-07-15T00:00	12600	188	-56.6	-68.6	265	23	
2025-07-15T00:00	12650	187	-56.9	-68.6	265	24	
2025-07-15T00:00	12700	186	-57.2	-68.8	263	25	
2025-07-15T00:00	12750	184	-57.6	-69.0	262	25	
2025-07-15T00:00	12800	183	-57.9	-69.1	260	26	
2025-07-15T00:00	12850	181	-58.3	-69.1	259	26	
2025-07-15T00:00	12900	180	-58.7	-69.4	258	28	
2025-07-15T00:00	12950	178	-59.0	-69.6	258	29	
2025-07-15T00:00	13000	177	-59.3	-69.7	259	30	
2025-07-15T00:00	13050	175	-59.6	-70.0	261	31	
2025-07-15T00:00	13100	174	-59.8	-70.2	264	32	
2025-07-15T00:00	13150	173	-60.0	-70.6	266	33	
2025-07-15T00:00	13200	171	-59.8	-71.2	270	33	
2025-07-15T00:00	13250	170	-58.9	-72.1	274	33	
2025-07-15T00:00	13300	169	-57.7	-73.0	277	33	
2025-07-15T00:00	13350	167	-57.2	-73.9	280	32	
2025-07-15T00:00	13400	166	-56.8	-74.9	283	29	
2025-07-15T00:00	13450	165	-56.1	-76.1	285	26	
2025-07-15T00:00	13500	163	-54.4	-76.0	286	24	
2025-07-15T00:00	13550	162	-54.6	-76.0	284	23	
2025-07-15T00:00	13600	161	-54.5	-75.8	281	21	
2025-07-15T00:00	13650	160	-54.6	-75.3	280	20	
2025-07-15T00:00	13700	158	-54.9	-75.7	278	18	
2025-07-15T00:00	13750	157	-55.1	-76.1	274	17	
2025-07-15T00:00	13800	156	-55.3	-75.8	269	18	
2025-07-15T00:00	13850	155	-55.6	-76.0	265	19	
2025-07-15T00:00	13900	153	-55.7	-76.3	263	20	
2025-07-15T00:00	13950	152	-55.4	-76.6	263	22	
2025-07-15T00:00	14000	151	-55.3	-76.7	264	23	
2025-07-15T00:00	14050	150	-55.3	-76.5	266	24	
2025-07-15T00:00	14100	149	-55.5	-76.7	267	25	
2025-07-15T00:00	14150	148	-55.6	-76.8	269	26	
2025-07-15T00:00	14200	146	-55.6	-77.0	272	26	
2025-07-15T00:00	14250	145	-55.4	-77.2	273	25	
2025-07-15T00:00	14300	144	-54.8	-76.6	273	24	
2025-07-15T00:00	14350	143	-54.3	-76.4	271	24	
2025-07-15T00:00	14400	142	-54.3	-76.5	268	23	
2025-07-15T00:00	14450	141	-54.6	-76.6	266	22	
2025-07-15T00:00	14500	140	-54.4	-76.3	265	23	
2025-07-15T00:00	14550	139	-54.5	-76.4	265	23	
2025-07-15T00:00	14600	138	-54.6	-76.5	265	22	
2025-07-15T00:00	14650	136	-54.8	-76.7	266	22	
2025-07-15T00:00	14700	135	-55.0	-77.0	264	23	
2025-07-15T00:00	14750	134	-55.0	-77.1	262	23	
2025-07-15T00:00	14800	133	-55.0	-77.2	262	24	
2025-07-15T00:00	14850	132	-54.7	-77.1	264	25	
2025-07-15T00:00	14900	131	-54.4	-77.0	266	24	
2025-07-15T00:00	14950	130	-53.9	-76.9	268	22	
2025-07-15T00:00	15000	129	-53.3	-76.5	267	22	
2025-07-15T00:00	15050	128	-53.2	-76.3	264	23	
2025-07-15T00:00	15100	127	-53.5	-76.4	263	24	
2025-07-15T00:00	15150	126	-53.9	-76.7	264	24	
2025-07-15T00:00	15200	125	-53.9	-76.7	266	23	
2025-07-15T00:00	15250	124	-53.3	-76.4	267	22	
2025-07-15T00:00	15300	123	-52.8	-76.1	266	21	
2025-07-15T00:00	15350	122	-52.9	-76.1	265	21	
2025-07-15T00:00	15400	121	-53.2	-76.1	264	20	
2025-07-15T00:00	15450	120	-53.4	-76.3	265	20	
2025-07-15T00:00	15500	120	-53.5	-76.4	267	20	
2025-07-15T00:00	15550	119	-53.6	-76.5	266	19	
2025-07-15T00:00	15600	118	-53.3	-76.4	265	19	
2025-07-15T00:00	15650	117	-53.3	-76.6	265	19	
2025-07-15T00:00	15700	116	-53.4	-76.7	266	20	
2025-07-15T00:00	15750	115	-53.6	-76.8	266	20	
2025-07-15T00:00	15800	114	-53.7	-76.8	266	19	
2025-07-15T00:00	15850	113	-53.4	-76.7	266	19	
2025-07-15T00:00	15900	112	-53.6	-76.9	266	18	
2025-07-15T00:00	15950	111	-53.5	-77.0	266	16	
2025-07-15T00:00	16000	111	-53.3	-76.9	266	15	
2025-07-15T00:00	16050	110	-53.2	-76.9	268	14	
2025-07-15T00:00	16100	109	-53.3	-76.9	268	13	
2025-07-15T00:00	16150	108	-53.3	-76.9	265	12	
2025-07-15T00:00	16200	107	-53.5	-77.0	261	11	
2025-07-15T00:00	16250	106	-53.9	-77.5	258	9	
2025-07-15T00:00	16300	106	-54.2	-78.0	256	9	
2025-07-15T00:00	16350	105	-54.6	-78.2	253	8	
2025-07-15T00:00	16400	104	-55.0	-78.1	249	8	
2025-07-15T00:00	16450	103	-55.3	-77.8	241	8	
2025-07-15T00:00	16500	102	-55.7	-77.9	235	8	
2025-07-15T00:00	16550	102	-55.9	-78.5	231	8	
2025-07-15T00:00	16600	101	-55.8	-78.7	228	8	
2025-07-15T00:00	16650	100	-56.1	-79.0	228	8	
2025-07-15T00:00	16700	99	-56.0	-79.0	229	8	
2025-07-15T00:00	16750	98	-55.6	-78.7	227	8	
2025-07-15T00:00	16800	98	-55.9	-78.9	223	8	
2025-07-15T00:00	16850	97	-56.4	-79.1	221	8	
2025-07-15T00:00	16900	96	-56.9	-79.4	221	8	
2025-07-15T00:00	16950	95	-57.3	-79.6	222	8	
2025-07-15T00:00	17000	95	-57.8	-80.0	224	8	
2025-07-15T00:00	17050	94	-58.2	-80.3	229	9	
2025-07-15T00:00	17100	93	-58.3	-80.3	235	10	
2025-07-15T00:00	17150	92	-58.0	-80.2	241	10	
2025-07-15T00:00	17200	92	-58.2	-80.3	246	11	
2025-07-15T00:00	17250	91	-58.5	-80.5	249	13	
2025-07-15T00:00	17300	90	-58.5	-80.6	252	15	
2025-07-15T00:00	17350	89	-58.6	-80.7	255	15	
2025-07-15T00:00	17400	89	-58.8	-81.0	257	14	
2025-07-15T00:00	17450	88	-58.5	-80.9	258	13	
2025-07-15T00:00	17500	87	-58.1	-80.7	255	12	
2025-07-15T00:00	17550	87	-57.6	-80.5	252	13	
2025-07-15T00:00	17600	86	-57.4	-80.4	251	14	
2025-07-15T00:00	17650	85	-57.2	-80.4	249	15	
2025-07-15T00:00	17700	85	-56.9	-80.2	250	17	
2025-07-15T00:00	17750	84	-57.3	-80.4	253	17	
2025-07-15T00:00	17800	83	-57.1	-80.3	258	15	
2025-07-15T00:00	17850	83	-56.5	-80.0	263	14	
2025-07-15T00:00	17900	82	-56.4	-80.0	266	13	
2025-07-15T00:00	17950	81	-56.4	-80.1	267	11	
2025-07-15T00:00	18000	81	-56.2	-80.1	265	10	
2025-07-15T00:00	18050	80	-55.7	-79.7	264	9	
2025-07-15T00:00	18100	79	-55.5	-79.6	263	7	
2025-07-15T00:00	18150	79	-55.5	-79.6	260	6	
2025-07-15T00:00	18200	78	-55.7	-79.8	260	5	
2025-07-15T00:00	18250	78	-55.8	-79.9	264	4	
2025-07-15T00:00	18300	77	-55.7	-79.9	268	2	
2025-07-15T00:00	18350	76	-55.6	-80.0	267	1	
2025-07-15T00:00	18400	76	-55.9	-80.2	253	1	
2025-07-15T00:00	18450	75	-56.2	-80.5	237	2	
2025-07-15T00:00	18500	75	-55.9	-80.3	224	3	
2025-07-15T00:00	18550	74	-55.6	-80.2	210	3	
2025-07-15T00:00	18600	73	-55.8	-80.4	204	4	
2025-07-15T00:00	18650	73	-55.7	-80.5	206	4	
2025-07-15T00:00	18700	72	-55.6	-80.6	215	4	
2025-07-15T00:00	18750	72	-55.6	-80.6	227	4	
2025-07-15T00:00	18800	71	-55.7	-80.6	239	4	
2025-07-15T00:00	18850	71	-56.1	-80.7	244	4	
2025-07-15T00:00	18900	70	-56.5	-80.8	247	5	
2025-07-15T00:00	18950	69	-56.4	-81.0	255	4	
2025-07-15T00:00	19000	69	-56.0	-80.9	266	4	
2025-07-15T00:00	19050	68	-56.1	-81.0	269	4	
2025-07-15T00:00	19100	68	-56.5	-81.1	266	4	
2025-07-15T00:00	19150	67	-56.8	-81.3	261	4	
2025-07-15T00:00	19200	67	-56.7	-81.1	257	4	
2025-07-15T00:00	19250	66	-56.9	-81.3	266	5	
2025-07-15T00:00	19300	66	-57.3	-81.5	285	4	
2025-07-15T00:00	19350	65	-57.2	-81.5	291	4	
2025-07-15T00:00	19400	65	-56.7	-81.4	270	3	
2025-07-15T00:00	19450	64	-56.5	-81.4	238	3	
2025-07-15T00:00	19500	64	-56.3	-81.0	233	5	
2025-07-15T00:00	19550	63	-56.2	-80.6	235	6	
2025-07-15T00:00	19600	63	-56.4	-80.9	240	6	
2025-07-15T00:00	19650	62	-56.6	-81.7	246	6	
2025-07-15T00:00	19700	62	-56.5	-82.0	252	5	
2025-07-15T00:00	19750	61	-56.4	-81.7	259	4	
2025-07-15T00:00	19800	61	-56.6	-81.7	271	4	
2025-07-15T00:00	19850	60	-56.8	-81.8	288	3	
2025-07-15T00:00	19900	60	-56.9	-81.8	307	3	
2025-07-15T00:00	19950	59	-56.7	-81.6	330	3	
2025-07-15T00:00	20000	59	-56.2	-81.2	358	3	
2025-07-15T00:00	20050	58	-55.9		26	3	
2025-07-15T00:00	20100	58	-55.8		44	2	
2025-07-15T00:00	20150	58	-55.7		54	2	
2025-07-15T00:00	20200	57	-55.4		48	1	
2025-07-15T00:00	20250	57	-55.6		333	1	
2025-07-15T00:00	20300	56	-55.5		321	2	
2025-07-15T00:00	20350	56	-55.5		333	2	
2025-07-15T00:00	20400	55	-55.3		359	2	
2025-07-15T00:00	20450	55	-55.3		38	2	
2025-07-15T00:00	20500	54	-55.3		68	3	
2025-07-15T00:00	20550	54	-55.2		85	3	
2025-07-15T00:00	20600	54	-55.2		104	3	
2025-07-15T00:00	20650	53	-55.0		140	2	
2025-07-15T00:00	20700	53	-55.2		167	3	
2025-07-15T00:00	20750	52	-55.2		172	2	
2025-07-15T00:00	20800	52	-55.0		146	2	
2025-07-15T00:00	20850	52	-54.8		86	2	
2025-07-15T00:00	20900	51	-54.6		69	4	
2025-07-15T00:00	20950	51	-54.8		66	5	
2025-07-15T00:00	21000	50	-54.7		70	6	
2025-07-15T00:00	21050	50	-54.7		79	6	
2025-07-15T00:00	21100	50	-54.8		91	6	
2025-07-15T00:00	21150	49	-55.0		104	6	
2025-07-15T00:00	21200	49	-55.0		117	6	
2025-07-15T00:00	21250	48	-54.6		129	6	
2025-07-15T00:00	21300	48	-54.8		144	5	
2025-07-15T00:00	21350	48	-54.8		162	4	
2025-07-15T00:00	21400	47	-54.9		180	3	
2025-07-15T00:00	21450	47	-55.2		204	2	
2025-07-15T00:00	21500	47	-54.7		249	2	
2025-07-15T00:00	21550	46	-54.3		301	2	
2025-07-15T00:00	21600	46	-54.3		328	2	
2025-07-15T00:00	21650	45	-54.5		349	3	
2025-07-15T00:00	21700	45	-54.6		12	3	
2025-07-15T00:00	21750	45	-54.2		33	3	
2025-07-15T00:00	21800	44	-54.1		45	3	
2025-07-15T00:00	21850	44	-53.9		34	3	
2025-07-15T00:00	21900	44	-53.9		21	4	
2025-07-15T00:00	21950	43	-53.5		21	6	
2025-07-15T00:00	22000	43	-53.4		28	6	
2025-07-15T00:00	22050	43	-53.2		38	7	
2025-07-15T00:00	22100	42	-53.1		46	7	
2025-07-15T00:00	22150	42	-53.2		51	7	
2025-07-15T00:00	22200	42	-53.3		52	8	
2025-07-15T00:00	22250	41	-53.2		54	9	
2025-07-15T00:00	22300	41	-53.1		60	9	
2025-07-15T00:00	22350	41	-53.3		68	9	
2025-07-15T00:00	22400	40	-53.5		76	9	
2025-07-15T00:00	22450	40	-53.6		83	9	
2025-07-15T00:00	22500	40	-53.8		90	9	
2025-07-15T00:00	22550	40	-54.0		96	9	
2025-07-15T00:00	22600	39	-54.3		99	8	
2025-07-15T00:00	22650	39	-54.3		99	7	
2025-07-15T00:00	22700	39	-54.5		97	6	
2025-07-15T00:00	22750	38	-54.5		93	5	
2025-07-15T00:00	22800	38	-54.6		87	5	
2025-07-15T00:00	22850	38	-54.6		80	5	
2025-07-15T00:00	22900	37	-54.5		76	6	
2025-07-15T00:00	22950	37	-54.1		75	7	
2025-07-15T00:00	23000	37	-54.0		78	9	
2025-07-15T00:00	23050	37	-54.1		81	10	
2025-07-15T00:00	23100	36	-54.1		86	11	
2025-07-15T00:00	23150	36	-53.8		91	10	
2025-07-15T00:00	23200	36	-53.5		97	9	
2025-07-15T00:00	23250	35	-53.5		101	8	
2025-07-15T00:00	23300	35	-53.7		102	8	
2025-07-15T00:00	23350	35	-53.4		100	8	
2025-07-15T00:00	23400	35	-53.3		100	8	
2025-07-15T00:00	23450	34	-53.1		97	8	
2025-07-15T00:00	23500	34	-52.9		90	7	
2025-07-15T00:00	23550	34	-52.7		82	6	
2025-07-15T00:00	23600	34	-52.2		76	6	
2025-07-15T00:00	23650	33	-51.8		71	6	
2025-07-15T00:00	23700	33	-51.8		65	6	
2025-07-15T00:00	23750	33	-51.8		59	7	
2025-07-15T00:00	23800	33	-51.9		56	7	
2025-07-15T00:00	23850	32	-52.1		53	8	
2025-07-15T00:00	23900	32	-52.2		54	8	
2025-07-15T00:00	23950	32	-52.3		60	9	
2025-07-15T00:00	24000	32	-52.4		67	10	
2025-07-15T00:00	24050	31	-52.6		76	10	
2025-07-15T00:00	24100	31	-52.9		84	11	
2025-07-15T00:00	24150	31	-53.2		90	11	
2025-07-15T00:00	24200	31	-53.2		94	11	
2025-07-15T00:00	24250	30	-52.5		94	11	
2025-07-15T00:00	24300	30	-52.2		90	10	
2025-07-15T00:00	24350	30	-51.9		84	9	
2025-07-15T00:00	24400	30	-51.5		77	9	
2025-07-15T00:00	24450	29	-51.4		74	9	
2025-07-15T00:00	24500	29	-51.7		74	10	
2025-07-15T00:00	24550	29	-51.9		76	10	
2025-07-15T00:00	24600	29	-52.0		80	11	
2025-07-15T00:00	24650	29	-52.2		85	11	
2025-07-15T00:00	24700	28	-52.5		90	11	
2025-07-15T00:00	24750	28	-52.6		94	11	
2025-07-15T00:00	24800	28	-52.6		99	10	
2025-07-15T00:00	24850	28	-52.7		100	10	
2025-07-15T00:00	24900	27	-52.6		99	9	
2025-07-15T00:00	24950	27	-52.0		95	9	
2025-07-15T00:00	25000	27	-51.5		90	9	
2025-07-15T00:00	25050	27	-51.1		88	10	
2025-07-15T00:00	25100	27	-50.7		86	10	
2025-07-15T00:00	25150	26	-50.3		82	10	
2025-07-15T00:00	25200	26	-50.2		76	9	
2025-07-15T00:00	25250	26	-50.3		69	8	
2025-07-15T00:00	25300	26	-50.1		63	8	
2025-07-15T00:00	25350	26	-50.0		58	9	
2025-07-15T00:00	25400	25	-50.2		55	10	
2025-07-15T00:00	25450	25	-50.1		57	11	
2025-07-15T00:00	25500	25	-50.1		62	12	
2025-07-15T00:00	25550	25	-50.3		69	12	
2025-07-15T00:00	25600	25	-50.5		77	12	
2025-07-15T00:00	25650	24	-50.6		83	13	
2025-07-15T00:00	25700	24	-50.7		87	13	
2025-07-15T00:00	25750	24	-50.4		88	13	
2025-07-15T00:00	25800	24	-50.2		89	13	
2025-07-15T00:00	25850	24	-50.1		90	13	
2025-07-15T00:00	25900	24	-50.2		92	12	
2025-07-15T00:00	25950	23	-50.1		94	11	
2025-07-15T00:00	26000	23	-50.1		93	10	
2025-07-15T00:00	26050	23	-50.0		91	9	
2025-07-15T00:00	26100	23	-49.9		88	9	
2025-07-15T00:00	26150	23	-49.6		85	9	
2025-07-15T00:00	26200	22	-49.4		81	10	
2025-07-15T00:00	26250	22	-49.4		77	9	
2025-07-15T00:00	26300	22	-49.3		76	9	
2025-07-15T00:00	26350	22	-49.1		79	10	
2025-07-15T00:00	26400	22	-48.8		83	11	
2025-07-15T00:00	26450	22	-48.6		87	11	
2025-07-15T00:00	26500	21	-48.6		90	12	
2025-07-15T00:00	26550	21	-48.7		92	11	
2025-07-15T00:00	26600	21	-48.7		95	10	
2025-07-15T00:00	26650	21	-48.8		95	10	
2025-07-15T00:00	26700	21	-49.0		92	9	
2025-07-15T00:00	26750	21	-48.8		84	10	
2025-07-15T00:00	26800	21	-48.6		75	10	
2025-07-15T00:00	26850	20	-48.4		68	11	
2025-07-15T00:00	26900	20	-48.2		66	12	
2025-07-15T00:00	26950	20	-48.2		68	12	
2025-07-15T00:00	27000	20	-48.1		71	13	
2025-07-15T00:00	27050	20	-48.2		72	13	
2025-07-15T00:00	27100	20	-48.4		73	14	
2025-07-15T00:00	27150	19	-48.8		76	14	
2025-07-15T00:00	27200	19	-48.9		79	13	
2025-07-15T00:00	27250	19	-48.9		81	12	
2025-07-15T00:00	27300	19	-48.7		80	11	
2025-07-15T00:00	27350	19	-48.6		77	12	
2025-07-15T00:00	27400	19	-48.4		77	13	
2025-07-15T00:00	27450	19	-48.4		77	13	
2025-07-15T00:00	27500	18	-48.2		77	13	
2025-07-15T00:00	27550	18	-47.9		76	11	
2025-07-15T00:00	27600	18	-47.8		72	10	
2025-07-15T00:00	27650	18	-47.7		70	10	
2025-07-15T00:00	27700	18	-47.5		74	11	
2025-07-15T00:00	27750	18	-47.4		83	13	
2025-07-15T00:00	27800	18	-47.5		88	14	
2025-07-15T00:00	27850	17	-47.1		89	14	
2025-07-15T00:00	27900	17	-46.9		85	13	
2025-07-15T00:00	27950	17	-46.5		78	13	
2025-07-15T00:00	28000	17	-46.2		72	13	
2025-07-15T00:00	28050	17	-46.2		68	14	
2025-07-15T00:00	28100	17	-46.0		66	15	
2025-07-15T00:00	28150	17	-45.5		67	15	
2025-07-15T00:00	28200	17	-45.4		71	14	
2025-07-15T00:00	28250	16	-45.4		76	14	
2025-07-15T00:00	28300	16	-45.4		80	14	
2025-07-15T00:00	28350	16	-45.4		84	14	
2025-07-15T00:00	28400	16	-45.3		88	14	
2025-07-15T00:00	28450	16	-45.2		90	14	
2025-07-15T00:00	28500	16	-45.0		90	14	
2025-07-15T00:00	28550	16	-44.6		87	14	
2025-07-15T00:00	28600	16	-44.4		84	14	
2025-07-15T00:00	28650	16	-44.3		82	14	
2025-07-15T00:00	28700	15	-44.3		85	13	
2025-07-15T00:00	28750	15	-44.3		90	13	
2025-07-15T00:00	28800	15	-44.4		94	12	
2025-07-15T00:00	28850	15	-44.6		95	12	
2025-07-15T00:00	28900	15	-44.7		93	12	
2025-07-15T00:00	28950	15	-44.7		91	11	
2025-07-15T00:00	29000	15	-44.5		89	11	
2025-07-15T00:00	29050	15	-44.3		88	12	
2025-07-15T00:00	29100	15	-44.3		87	12	
2025-07-15T00:00	29150	14	-44.4		88	11	
2025-07-15T00:00	29200	14	-44.4		89	11	
2025-07-15T00:00	29250	14	-44.4		91	11	
2025-07-15T00:00	29300	14	-44.5		91	11	
2025-07-15T00:00	29350	14	-44.7		90	10	
2025-07-15T00:00	29400	14	-45.1		89	10	
2025-07-15T00:00	29450	14	-45.2		89	10	
2025-07-15T00:00	29500	14	-45.2		90	10	
2025-07-15T00:00	29550	14	-45.2		88	10	
2025-07-15T00:00	29600	13	-45.1		85	10	
2025-07-15T00:00	29650	13	-45.0		82	11	
2025-07-15T00:00	29700	13	-45.0		81	12	
2025-07-15T00:00	29750	13	-45.1		81	12	
2025-07-15T00:00	29800	13	-45.0		83	13	
2025-07-15T00:00	29850	13	-45.0		85	13	
2025-07-15T00:00	29900	13	-44.8		89	13	
2025-07-15T00:00	29950	13	-44.9		92	12	
2025-07-15T00:00	30000	13	-45.0		96	11	
2025-07-15T00:00	30050	13	-45.1		99	11	
2025-07-15T00:00	30100	12	-45.3		100	11	
2025-07-15T00:00	30150	12	-45.2		97	11	
2025-07-15T00:00	30200	12	-45.0		93	11	
2025-07-15T00:00	30250	12	-44.8		89	11	
2025-07-15T00:00	30300	12	-44.4		86	11	
2025-07-15T00:00	30350	12	-44.3		84	11	
2025-07-15T00:00	30400	12	-44.3		81	12	
2025-07-15T00:00	30450	12	-44.5		79	12	
2025-07-15T00:00	30500	12	-44.3		79	13	
2025-07-15T00:00	30550	12	-44.2		81	13	
2025-07-15T00:00	30600	12	-44.3		84	14	
2025-07-15T00:00	30650	12	-44.2		87	14	
2025-07-15T00:00	30700	11	-44.0		89	13	
2025-07-15T00:00	30750	11	-43.8		91	12	
2025-07-15T00:00	30800	11	-43.6		93	12	
2025-07-15T00:00	30850	11	-43.3		92	11	
2025-07-15T00:00	30900	11	-43.0		87	11	
2025-07-15T00:00	30950	11	-42.8		81	11	
2025-07-15T00:00	31000	11	-42.7		79	12	
2025-07-15T00:00	31050	11	-42.6		80	12	
2025-07-15T00:00	31100	11	-42.5		81	12	
2025-07-15T00:00	31150	11	-42.4		83	12	
2025-07-15T00:00	31200	11	-42.1		84	12	
2025-07-15T00:00	31250	11	-42.1		84	13	
2025-07-15T00:00	31300	10	-41.9		83	13	
2025-07-15T00:00	31350	10	-41.7		81	14	
2025-07-15T00:00	31400	10	-41.6		78	15	
2025-07-15T00:00	31450	10	-41.4		74	15	
2025-07-15T00:00	31500	10	-41.0		71	16	
2025-07-15T00:00	31550	10	-41.0		71	16	
2025-07-15T00:00	31600	10	-40.9		71	17	
2025-07-15T00:00	31650	10	-40.8		73	17	
2025-07-15T00:00	31700	10	-40.4		73	17	
2025-07-15T00:00	31750	10	-40.4		73	16	
2025-07-15T00:00	31800	10	-40.6		72	16	
2025-07-15T00:00	31850	10	-40.7		71	16	
2025-07-15T00:00	31900	10	-40.4		71	17	
2025-07-15T00:00	31950	9	-40.1		72	17	
2025-07-15T00:00	32000	9	-39.9		74	17	
2025-07-15T00:00	32050	9	-39.5		77	16	
2025-07-15T00:00	32100	9	-39.1		79	15	
2025-07-15T00:00	32150	9	-38.9		79	14	
2025-07-15T00:00	32200	9	-38.5		77	13	
2025-07-15T00:00	32250	9	-38.0		73	13	
2025-07-15T00:00	32300	9	-38.1		68	13	
2025-07-15T00:00	32350	9	-37.8		65	13	
2025-07-15T00:00	32400	9	-37.5		65	14	
2025-07-15T12:00	491	964	23.1	14.4	241	2	
2025-07-15T12:00	501	962	22.9	14.6	228	1	
2025-07-15T12:00	520	961	22.3	14.3	224	2	
2025-07-15T12:00	540	958	22.1	14.1	225	2	
2025-07-15T12:00	560	956	21.9	13.9	225	2	
2025-07-15T12:00	580	954	21.7	13.9	225	2	
2025-07-15T12:00	600	952	21.5	13.7	225	3	
2025-07-15T12:00	620	950	21.4	13.4	226	3	
2025-07-15T12:00	640	948	21.2	13.3	227	3	
2025-07-15T12:00	660	945	21.0	13.3	229	4	
2025-07-15T12:00	680	943	20.8	13.2	231	4	
2025-07-15T12:00	700	941	20.6	13.3	234	4	
2025-07-15T12:00	720	939	20.3	13.4	237	5	
2025-07-15T12:00	740	937	20.2	13.3	242	5	
2025-07-15T12:00	760	934	20.0	13.2	246	5	
2025-07-15T12:00	780	932	19.8	13.2	250	6	
2025-07-15T12:00	800	930	19.7	12.9	253	6	
2025-07-15T12:00	820	928	19.6	12.7	255	6	
2025-07-15T12:00	840	925	19.4	12.3	257	6	
2025-07-15T12:00	860	923	19.3	11.7	259	7	
2025-07-15T12:00	880	922	19.2	11.7	260	7	
2025-07-15T12:00	900	919	19.0	12.1	260	7	
2025-07-15T12:00	920	917	18.8	12.2	261	7	
2025-07-15T12:00	940	915	18.6	12.0	261	7	
2025-07-15T12:00	960	913	18.4	11.9	261	7	
2025-07-15T12:00	980	911	18.2	11.8	261	7	
2025-07-15T12:00	1000	909	18.0	11.8	261	8	
2025-07-15T12:00	1020	906	17.8	11.9	261	8	
2025-07-15T12:00	1040	904	17.7	12.0	261	8	
2025-07-15T12:00	1060	903	17.5	12.0	261	8	
2025-07-15T12:00	1080	900	17.2	12.0	261	8	
2025-07-15T12:00	1100	898	17.1	11.9	261	8	
2025-07-15T12:00	1120	896	16.9	11.8	260	9	
2025-07-15T12:00	1140	894	16.7	11.7	260	9	
2025-07-15T12:00	1160	892	16.5	11.8	259	9	
2025-07-15T12:00	1180	890	16.3	11.8	259	9	
2025-07-15T12:00	1200	887	16.0	11.9	258	9	
2025-07-15T12:00	1220	885	15.9	11.6	258	9	
2025-07-15T12:00	1240	883	15.7	11.6	257	8	
2025-07-15T12:00	1260	881	15.5	11.7	256	8	
2025-07-15T12:00	1280	879	15.2	11.6	256	8	
2025-07-15T12:00	1300	877	15.1	11.7	255	8	
2025-07-15T12:00	1320	875	14.9	11.6	255	8	
2025-07-15T12:00	1340	873	14.7	11.7	254	8	
2025-07-15T12:00	1360	871	14.5	11.8	253	8	
2025-07-15T12:00	1380	869	14.3	11.7	252	8	
2025-07-15T12:00	1400	867	14.2	11.4	251	8	
2025-07-15T12:00	1420	865	14.1	11.2	250	8	
2025-07-15T12:00	1440	863	13.8	11.3	248	8	
2025-07-15T12:00	1460	861	13.6	11.4	246	8	
2025-07-15T12:00	1480	859	13.5	11.5	244	8	
2025-07-15T12:00	1500	857	13.2	11.5	242	8	
2025-07-15T12:00	1520	855	13.0	11.5	241	9	
2025-07-15T12:00	1540	853	12.9	11.2	241	9	
2025-07-15T12:00	1560	851	12.7	11.0	242	9	
2025-07-15T12:00	1580	849	12.6	10.9	243	9	
2025-07-15T12:00	1600	847	12.6	10.6	245	9	
2025-07-15T12:00	1620	845	12.4	10.7	246	10	
2025-07-15T12:00	1640	843	12.2	10.7	247	10	
2025-07-15T12:00	1660	841	12.0	10.6	248	10	
2025-07-15T12:00	1680	839	11.9	10.3	248	10	
2025-07-15T12:00	1700	837	11.8	10.2	247	10	
2025-07-15T12:00	1720	835	11.7	9.9	246	10	
2025-07-15T12:00	1740	833	11.5	9.6	244	10	
2025-07-15T12:00	1760	831	11.4	9.6	243	10	
2025-07-15T12:00	1780	829	11.2	9.7	242	10	
2025-07-15T12:00	1800	827	11.0	9.5	241	11	
2025-07-15T12:00	1820	825	10.9	9.0	240	11	
2025-07-15T12:00	1840	823	10.8	8.8	239	11	
2025-07-15T12:00	1860	821	10.6	8.9	238	11	
2025-07-15T12:00	1880	819	10.4	8.9	237	11	
2025-07-15T12:00	1900	817	10.3	8.7	235	11	
2025-07-15T12:00	1920	815	10.1	8.8	234	11	
2025-07-15T12:00	1940	813	9.8	9.1	232	12	
2025-07-15T12:00	1960	811	9.5	9.1	231	12	
2025-07-15T12:00	1980	809	9.7	7.8	231	12	
2025-07-15T12:00	2000	807	9.7	7.7	231	13	
2025-07-15T12:00	2020	805	9.8	7.3	232	13	
2025-07-15T12:00	2040	803	9.8	7.0	233	13	
2025-07-15T12:00	2060	801	9.5	7.0	234	13	
2025-07-15T12:00	2080	799	9.4	6.8	234	12	
2025-07-15T12:00	2100	798	9.3	6.8	234	12	
2025-07-15T12:00	2120	796	9.1	6.6	234	12	
2025-07-15T12:00	2140	793	9.0	6.6	234	12	
2025-07-15T12:00	2160	792	8.8	6.4	234	12	
2025-07-15T12:00	2180	790	8.6	6.1	234	12	
2025-07-15T12:00	2200	788	8.5	6.0	234	12	
2025-07-15T12:00	2220	786	8.3	5.9	234	12	
2025-07-15T12:00	2240	784	8.1	5.8	234	12	
2025-07-15T12:00	2260	782	7.9	5.9	234	12	
2025-07-15T12:00	2280	780	7.7	5.7	233	12	
2025-07-15T12:00	2300	779	7.6	5.7	233	13	
2025-07-15T12:00	2320	776	7.4	5.7	232	13	
2025-07-15T12:00	2340	775	7.4	5.5	231	13	
2025-07-15T12:00	2360	773	7.2	5.4	230	13	
2025-07-15T12:00	2380	771	7.0	5.3	228	13	
2025-07-15T12:00	2400	769	6.9	4.9	228	13	
2025-07-15T12:00	2420	767	6.8	4.9	227	13	
2025-07-15T12:00	2440	766	6.8	4.2	227	13	
2025-07-15T12:00	2460	763	7.1	3.2	227	13	
2025-07-15T12:00	2480	761	7.0	3.4	227	13	
2025-07-15T12:00	2500	760	6.8	3.4	227	13	
2025-07-15T12:00	2520	758	6.6	3.1	227	13	
2025-07-15T12:00	2540	756	6.7	2.5	226	13	
2025-07-15T12:00	2560	754	6.7	2.2	225	13	
2025-07-15T12:00	2580	752	6.7	1.9	224	13	
2025-07-15T12:00	2600	751	6.5	1.9	223	13	
2025-07-15T12:00	2620	749	6.4	1.7	223	13	
2025-07-15T12:00	2640	747	6.3	1.5	222	13	
2025-07-15T12:00	2660	745	6.1	1.5	221	13	
2025-07-15T12:00	2680	743	5.9	1.7	220	13	
2025-07-15T12:00	2700	741	5.8	1.4	220	14	
2025-07-15T12:00	2720	740	5.6	1.3	221	14	
2025-07-15T12:00	2740	738	5.5	1.1	222	14	
2025-07-15T12:00	2760	736	5.3	1.2	223	15	
2025-07-15T12:00	2780	734	5.1	1.5	224	15	
2025-07-15T12:00	2800	733	5.0	1.0	225	15	
2025-07-15T12:00	2820	731	4.8	0.6	226	14	
2025-07-15T12:00	2840	729	4.5	1.8	226	14	
2025-07-15T12:00	2860	727	4.3	1.7	227	14	
2025-07-15T12:00	2880	725	4.0	1.4	227	14	
2025-07-15T12:00	2900	724	3.7	3.0	226	13	
2025-07-15T12:00	2920	722	3.5	2.3	226	13	
2025-07-15T12:00	2940	720	3.3	2.8	226	13	
2025-07-15T12:00	2960	718	3.1	2.8	226	13	
2025-07-15T12:00	2980	717	2.9	2.6	227	13	
2025-07-15T12:00	3000	715	2.6	2.6	229	13	
2025-07-15T12:00	3020	713	2.5	1.2	232	13	
2025-07-15T12:00	3040	711	3.2	-3.3	234	13	
2025-07-15T12:00	3060	709	3.5	-3.7	236	13	
2025-07-15T12:00	3080	707	3.4	-3.7	240	13	
2025-07-15T12:00	3100	706	3.2	-3.8	242	13	
2025-07-15T12:00	3120	704	3.0	-3.6	245	13	
2025-07-15T12:00	3140	703	2.8	-4.0	247	13	
2025-07-15T12:00	3160	701	2.8	-4.4	249	13	
2025-07-15T12:00	3180	699	2.8	-5.3	250	13	
2025-07-15T12:00	3200	697	3.1	-6.2	250	13	
2025-07-15T12:00	3220	696	2.9	-6.3	249	13	
2025-07-15T12:00	3240	694	2.6	-5.9	248	13	
2025-07-15T12:00	3260	692	2.3	-5.8	246	13	
2025-07-15T12:00	3280	691	2.4	-6.6	246	14	
2025-07-15T12:00	3300	689	2.3	-7.1	245	14	
2025-07-15T12:00	3320	687	2.1	-7.1	245	14	
2025-07-15T12:00	3340	685	1.9	-7.1	245	14	
2025-07-15T12:00	3360	684	1.7	-7.1	246	14	
2025-07-15T12:00	3380	682	1.6	-7.1	247	13	
2025-07-15T12:00	3400	680	1.4	-7.2	248	13	
2025-07-15T12:00	3420	679	1.2	-7.5	250	13	
2025-07-15T12:00	3440	677	1.1	-8.8	252	13	
2025-07-15T12:00	3460	675	1.0	-9.2	254	13	
2025-07-15T12:00	3480	673	0.8	-9.3	255	13	
2025-07-15T12:00	3500	672	0.7	-9.5	256	14	
2025-07-15T12:00	3520	670	0.5	-9.7	255	14	
2025-07-15T12:00	3540	669	0.3	-10.2	255	14	
2025-07-15T12:00	3560	667	0.2	-12.6	254	14	
2025-07-15T12:00	3580	665	0.1	-18.2	254	14	
2025-07-15T12:00	3600	663	0.0	-14.8	254	14	
2025-07-15T12:00	3620	662	-0.1	-15.1	253	14	
2025-07-15T12:00	3640	660	-0.2	-14.9	254	14	
2025-07-15T12:00	3660	658	-0.3	-9.0	254	14	
2025-07-15T12:00	3680	657	-0.5	-6.8	254	14	
2025-07-15T12:00	3700	655	-0.6	-4.5	254	14	
2025-07-15T12:00	3720	654	-0.8	-3.1	254	14	
2025-07-15T12:00	3740	652	-1.0	-2.9	253	14	
2025-07-15T12:00	3760	651	-1.2	-2.5	253	14	
2025-07-15T12:00	3780	649	-1.4	-1.5	253	13	
2025-07-15T12:00	3800	647	-1.5	-1.6	253	13	
2025-07-15T12:00	3820	645	-1.7	-1.7	254	13	
2025-07-15T12:00	3840	644	-1.8	-1.9	257	13	
2025-07-15T12:00	3860	642	-2.0	-2.0	259	14	
2025-07-15T12:00	3880	641	-2.2	-2.2	262	15	
2025-07-15T12:00	3900	639	-2.3	-2.5	265	15	
2025-07-15T12:00	3920	637	-2.0	-5.3	267	16	
2025-07-15T12:00	3940	636	-1.2	-8.4	268	16	
2025-07-15T12:00	3960	634	-1.0	-11.5	269	17	
2025-07-15T12:00	3980	633	-0.8	-15.3	268	17	
2025-07-15T12:00	4000	631	-0.6	-18.9	266	17	
2025-07-15T12:00	4020	629	-0.6	-15.0	266	17	
2025-07-15T12:00	4040	628	-0.7	-14.3	264	17	
2025-07-15T12:00	4060	626	-0.7	-13.7	263	17	
2025-07-15T12:00	4080	625	-0.7	-14.7	263	17	
2025-07-15T12:00	4100	623	-0.8	-13.0	263	17	
2025-07-15T12:00	4120	621	-0.8	-12.2	262	17	
2025-07-15T12:00	4140	620	-0.9	-10.2	262	18	
2025-07-15T12:00	4160	618	-1.0	-9.4	262	18	
2025-07-15T12:00	4180	617	-1.1	-8.0	262	18	
2025-07-15T12:00	4200	615	-1.3	-6.5	262	18	
2025-07-15T12:00	4220	614	-1.4	-6.0	263	17	
2025-07-15T12:00	4240	612	-1.6	-6.0	264	17	
2025-07-15T12:00	4260	611	-1.7	-6.0	265	17	
2025-07-15T12:00	4280	609	-1.9	-6.1	267	16	
2025-07-15T12:00	4300	608	-2.1	-6.2	269	16	
2025-07-15T12:00	4320	606	-2.3	-6.2	269	17	
2025-07-15T12:00	4340	605	-2.4	-6.3	269	17	
2025-07-15T12:00	4360	603	-2.6	-6.2	269	17	
2025-07-15T12:00	4380	602	-2.6	-5.6	269	16	
2025-07-15T12:00	4400	600	-2.7	-6.0	269	16	
2025-07-15T12:00	4420	599	-2.7	-8.0	270	16	
2025-07-15T12:00	4440	597	-2.6	-11.4	271	16	
2025-07-15T12:00	4460	596	-2.6	-14.0	273	16	
2025-07-15T12:00	4480	594	-2.7	-14.5	273	17	
2025-07-15T12:00	4500	593	-2.8	-15.2	273	18	
2025-07-15T12:00	4520	591	-3.0	-15.5	272	18	
2025-07-15T12:00	4540	590	-3.1	-15.6	271	18	
2025-07-15T12:00	4560	588	-3.3	-15.6	270	18	
2025-07-15T12:00	4580	587	-3.4	-15.6	271	17	
2025-07-15T12:00	4600	585	-3.5	-15.1	271	17	
2025-07-15T12:00	4620	584	-3.6	-14.6	272	17	
2025-07-15T12:00	4640	582	-3.8	-14.6	274	17	
2025-07-15T12:00	4660	581	-4.0	-14.4	276	17	
2025-07-15T12:00	4680	579	-4.1	-14.4	277	17	
2025-07-15T12:00	4700	578	-4.3	-14.5	277	17	
2025-07-15T12:00	4720	576	-4.3	-14.8	277	17	
2025-07-15T12:00	4740	575	-4.3	-15.1	277	17	
2025-07-15T12:00	4760	574	-4.4	-15.4	276	17	
2025-07-15T12:00	4780	572	-4.5	-15.4	275	16	
2025-07-15T12:00	4800	571	-4.7	-15.6	274	16	
2025-07-15T12:00	4820	569	-4.8	-15.7	273	16	
2025-07-15T12:00	4840	568	-5.0	-15.5	272	16	
2025-07-15T12:00	4860	566	-5.2	-15.7	271	16	
2025-07-15T12:00	4880	565	-5.3	-15.9	270	16	
2025-07-15T12:00	4900	563	-5.4	-16.3	270	16	
2025-07-15T12:00	4920	562	-5.6	-16.5	269	16	
2025-07-15T12:00	4940	560	-5.7	-16.6	269	16	
2025-07-15T12:00	4960	559	-5.9	-16.9	270	17	
2025-07-15T12:00	4980	558	-6.0	-17.0	270	17	
2025-07-15T12:00	5000	556	-6.1	-17.4	271	18	
2025-07-15T12:00	5020	555	-6.2	-18.2	272	18	
2025-07-15T12:00	5040	553	-6.3	-18.2	273	18	
2025-07-15T12:00	5060	552	-6.4	-18.4	273	19	
2025-07-15T12:00	5080	551	-6.5	-18.5	273	19	
2025-07-15T12:00	5100	549	-6.6	-18.4	273	19	
2025-07-15T12:00	5120	548	-6.7	-18.5	273	19	
2025-07-15T12:00	5140	546	-6.8	-18.7	273	19	
2025-07-15T12:00	5160	545	-6.9	-18.8	273	18	
2025-07-15T12:00	5180	544	-7.0	-18.7	273	18	
2025-07-15T12:00	5200	542	-7.1	-18.7	274	18	
2025-07-15T12:00	5220	541	-7.3	-18.7	274	18	
2025-07-15T12:00	5240	539	-7.4	-18.8	274	18	
2025-07-15T12:00	5260	538	-7.6	-18.7	275	18	
2025-07-15T12:00	5280	537	-7.7	-19.3	276	18	
2025-07-15T12:00	5300	535	-7.8	-19.9	277	18	
2025-07-15T12:00	5320	534	-7.9	-20.3	277	18	
2025-07-15T12:00	5340	532	-8.0	-20.5	277	19	
2025-07-15T12:00	5360	531	-8.1	-20.5	278	19	
2025-07-15T12:00	5380	530	-8.2	-21.5	278	19	
2025-07-15T12:00	5400	528	-8.2	-23.1	277	19	
2025-07-15T12:00	5420	527	-8.4	-23.9	277	19	
2025-07-15T12:00	5440	526	-8.4	-26.1	277	19	
2025-07-15T12:00	5460	524	-8.4	-27.9	277	19	
2025-07-15T12:00	5480	523	-8.4	-29.5	277	19	
2025-07-15T12:00	5500	522	-8.5	-30.0	277	19	
2025-07-15T12:00	5520	520	-8.6	-30.2	277	19	
2025-07-15T12:00	5540	519	-8.7	-31.4	276	19	
2025-07-15T12:00	5560	518	-8.8	-32.3	276	19	
2025-07-15T12:00	5580	516	-8.9	-32.4	276	19	
2025-07-15T12:00	5600	515	-9.0	-32.0	276	20	
2025-07-15T12:00	5620	514	-9.1	-29.9	276	20	
2025-07-15T12:00	5640	512	-9.2	-21.6	276	20	
2025-07-15T12:00	5660	511	-9.3	-18.1	276	19	
2025-07-15T12:00	5680	510	-9.5	-17.4	275	19	
2025-07-15T12:00	5700	508	-9.7	-17.4	275	19	
2025-07-15T12:00	5720	507	-9.8	-17.4	275	20	
2025-07-15T12:00	5740	506	-10.0	-17.5	276	20	
2025-07-15T12:00	5760	504	-10.1	-17.7	276	20	
2025-07-15T12:00	5780	503	-10.3	-17.9	277	20	
2025-07-15T12:00	5800	502	-10.5	-17.8	278	20	
2025-07-15T12:00	5820	500	-10.6	-17.9	279	20	
2025-07-15T12:00	5840	499	-10.7	-18.2	279	20	
2025-07-15T12:00	5860	498	-10.9	-18.5	280	20	
2025-07-15T12:00	5880	496	-11.0	-18.7	280	20	
2025-07-15T12:00	5900	495	-11.1	-18.7	279	20	
2025-07-15T12:00	5920	494	-11.2	-18.5	278	21	
2025-07-15T12:00	5940	493	-11.3	-18.5	277	21	
2025-07-15T12:00	5960	492	-11.4	-18.4	277	21	
2025-07-15T12:00	5980	490	-11.5	-18.6	276	21	
2025-07-15T12:00	6000	489	-11.5	-19.0	276	22	
2025-07-15T12:00	6020	488	-11.6	-19.2	275	22	
2025-07-15T12:00	6040	486	-11.7	-19.5	275	22	
2025-07-15T12:00	6060	485	-11.7	-19.8	275	22	
2025-07-15T12:00	6080	484	-11.8	-20.0	276	22	
2025-07-15T12:00	6100	483	-11.9	-20.0	276	22	
2025-07-15T12:00	6120	481	-12.0	-20.2	276	22	
2025-07-15T12:00	6140	480	-12.2	-20.3	276	23	
2025-07-15T12:00	6160	479	-12.3	-20.5	276	23	
2025-07-15T12:00	6180	477	-12.4	-20.5	276	23	
2025-07-15T12:00	6200	476	-12.5	-20.5	275	23	
2025-07-15T12:00	6220	475	-12.7	-20.5	275	23	
2025-07-15T12:00	6240	474	-12.9	-20.6	274	23	
2025-07-15T12:00	6260	472	-13.1	-20.6	273	23	
2025-07-15T12:00	6280	471	-13.2	-20.6	273	23	
2025-07-15T12:00	6300	470	-13.4	-20.7	273	22	
2025-07-15T12:00	6320	469	-13.5	-20.7	273	22	
2025-07-15T12:00	6340	468	-13.7	-20.8	274	21	
2025-07-15T12:00	6360	466	-13.9	-20.9	275	21	
2025-07-15T12:00	6380	465	-14.1	-21.1	275	21	
2025-07-15T12:00	6400	464	-14.2	-21.3	276	21	
2025-07-15T12:00	6420	463	-14.2	-21.8	277	20	
2025-07-15T12:00	6440	461	-14.3	-22.2	278	20	
2025-07-15T12:00	6460	460	-14.4	-22.5	278	20	
2025-07-15T12:00	6480	459	-14.5	-22.7	278	21	
2025-07-15T12:00	6500	458	-14.6	-23.0	278	21	
2025-07-15T12:00	6520	456	-14.7	-23.3	278	21	
2025-07-15T12:00	6540	455	-14.8	-23.5	278	21	
2025-07-15T12:00	6560	454	-14.9	-23.8	278	22	
2025-07-15T12:00	6580	453	-15.0	-24.0	278	22	
2025-07-15T12:00	6600	452	-15.1	-24.2	278	22	
2025-07-15T12:00	6620	450	-15.3	-24.1	279	22	
2025-07-15T12:00	6640	449	-15.5	-24.0	279	22	
2025-07-15T12:00	6660	448	-15.6	-24.7	279	22	
2025-07-15T12:00	6680	447	-15.7	-25.2	280	22	
2025-07-15T12:00	6700	446	-15.8	-25.4	281	22	
2025-07-15T12:00	6720	445	-15.9	-25.7	281	22	
2025-07-15T12:00	6740	443	-16.0	-25.9	281	22	
2025-07-15T12:00	6760	442	-16.1	-26.4	281	22	
2025-07-15T12:00	6780	441	-16.2	-26.5	281	22	
2025-07-15T12:00	6800	440	-16.3	-25.7	281	22	
2025-07-15T12:00	6820	439	-16.4	-25.1	281	22	
2025-07-15T12:00	6840	438	-16.5	-25.5	281	22	
2025-07-15T12:00	6860	437	-16.7	-25.8	280	22	
2025-07-15T12:00	6880	435	-16.8	-26.0	279	22	
2025-07-15T12:00	6900	434	-17.0	-26.4	278	22	
2025-07-15T12:00	6920	433	-17.1	-27.4	277	22	
2025-07-15T12:00	6940	432	-17.2	-27.9	277	22	
2025-07-15T12:00	6960	431	-17.3	-27.5	276	22	
2025-07-15T12:00	6980	430	-17.5	-27.5	276	21	
2025-07-15T12:00	7000	428	-17.6	-27.6	275	22	
2025-07-15T12:00	7020	427	-17.7	-27.9	275	22	
2025-07-15T12:00	7040	426	-17.8	-28.7	275	22	
2025-07-15T12:00	7060	425	-18.0	-29.2	275	22	
2025-07-15T12:00	7080	424	-18.1	-29.0	275	22	
2025-07-15T12:00	7100	423	-18.3	-28.7	275	22	
2025-07-15T12:00	7120	422	-18.4	-28.6	275	22	
2025-07-15T12:00	7140	420	-18.6	-28.5	275	22	
2025-07-15T12:00	7160	419	-18.8	-28.5	275	22	
2025-07-15T12:00	7180	418	-19.0	-28.6	275	22	
2025-07-15T12:00	7200	417	-19.2	-28.4	276	22	
2025-07-15T12:00	7220	416	-19.3	-28.0	276	21	
2025-07-15T12:00	7240	415	-19.4	-28.7	277	21	
2025-07-15T12:00	7260	414	-19.5	-29.4	277	21	
2025-07-15T12:00	7280	413	-19.5	-30.1	278	21	
2025-07-15T12:00	7300	412	-19.6	-29.4	279	21	
2025-07-15T12:00	7320	410	-19.8	-29.0	279	21	
2025-07-15T12:00	7340	409	-20.0	-28.9	279	21	
2025-07-15T12:00	7360	408	-20.1	-28.8	279	22	
2025-07-15T12:00	7380	407	-20.3	-28.8	278	22	
2025-07-15T12:00	7400	406	-20.5	-28.8	278	22	
2025-07-15T12:00	7420	405	-20.7	-28.9	278	22	
2025-07-15T12:00	7440	404	-20.8	-28.9	278	22	
2025-07-15T12:00	7460	403	-21.0	-28.9	278	22	
2025-07-15T12:00	7480	402	-21.2	-28.7	278	22	
2025-07-15T12:00	7500	400	-21.4	-28.8	277	22	
2025-07-15T12:00	7520	399	-21.6	-29.0	277	22	
2025-07-15T12:00	7540	398	-21.7	-29.6	276	22	
2025-07-15T12:00	7560	397	-21.9	-29.9	275	22	
2025-07-15T12:00	7580	396	-22.0	-30.2	274	22	
2025-07-15T12:00	7600	395	-22.1	-30.2	273	22	
2025-07-15T12:00	7620	394	-22.3	-30.4	273	22	
2025-07-15T12:00	7640	393	-22.4	-30.6	273	22	
2025-07-15T12:00	7660	392	-22.6	-31.0	273	22	
2025-07-15T12:00	7680	391	-22.7	-31.4	273	22	
2025-07-15T12:00	7700	390	-22.9	-31.8	274	23	
2025-07-15T12:00	7720	389	-23.0	-32.4	274	23	
2025-07-15T12:00	7740	388	-23.1	-32.3	274	23	
2025-07-15T12:00	7760	387	-23.3	-32.0	275	23	
2025-07-15T12:00	7780	386	-23.4	-31.5	275	24	
2025-07-15T12:00	7800	384	-23.5	-31.9	276	24	
2025-07-15T12:00	7820	383	-23.6	-32.2	276	24	
2025-07-15T12:00	7840	382	-23.6	-32.4	276	24	
2025-07-15T12:00	7860	381	-23.8	-32.3	276	24	
2025-07-15T12:00	7880	380	-23.9	-32.1	277	24	
2025-07-15T12:00	7900	379	-24.1	-32.0	277	24	
2025-07-15T12:00	7920	378	-24.3	-32.0	277	24	
2025-07-15T12:00	7940	377	-24.4	-31.9	277	24	
2025-07-15T12:00	7960	376	-24.7	-31.8	278	24	
2025-07-15T12:00	7980	375	-24.9	-31.8	278	24	
2025-07-15T12:00	8000	374	-25.1	-31.8	278	24	
2025-07-15T12:00	8020	373	-25.2	-32.0	279	24	
2025-07-15T12:00	8040	372	-25.4	-31.9	279	24	
2025-07-15T12:00	8060	371	-25.6	-31.8	281	25	
2025-07-15T12:00	8080	370	-25.8	-31.9	281	25	
2025-07-15T12:00	8100	369	-25.9	-32.2	283	25	
2025-07-15T12:00	8120	368	-26.1	-32.5	284	25	
2025-07-15T12:00	8140	367	-26.3	-32.5	284	25	
2025-07-15T12:00	8160	366	-26.4	-32.7	285	25	
2025-07-15T12:00	8180	365	-26.6	-33.3	286	25	
2025-07-15T12:00	8200	364	-26.8	-33.1	286	25	
2025-07-15T12:00	8220	363	-26.9	-33.3	287	24	
2025-07-15T12:00	8240	362	-27.1	-33.4	287	24	
2025-07-15T12:00	8260	361	-27.2	-33.5	288	24	
2025-07-15T12:00	8280	360	-27.4	-33.6	288	24	
2025-07-15T12:00	8300	359	-27.6	-33.6	288	24	
2025-07-15T12:00	8320	358	-27.8	-33.9	289	25	
2025-07-15T12:00	8340	357	-27.9	-34.0	289	25	
2025-07-15T12:00	8360	356	-27.9	-35.2	290	26	
2025-07-15T12:00	8380	355	-27.8	-36.2	291	26	
2025-07-15T12:00	8400	354	-27.8	-36.8	291	27	
2025-07-15T12:00	8420	353	-27.9	-37.3	291	27	
2025-07-15T12:00	8440	352	-28.0	-37.8	291	27	
2025-07-15T12:00	8460	351	-28.1	-38.0	290	27	
2025-07-15T12:00	8480	350	-28.2	-38.2	290	27	
2025-07-15T12:00	8500	349	-28.3	-38.6	290	27	
2025-07-15T12:00	8520	348	-28.5	-39.1	289	27	
2025-07-15T12:00	8540	347	-28.6	-39.6	289	27	
2025-07-15T12:00	8560	346	-28.6	-40.2	288	28	
2025-07-15T12:00	8580	345	-28.7	-40.3	288	28	
2025-07-15T12:00	8600	344	-28.8	-40.7	287	28	
2025-07-15T12:00	8620	343	-28.9	-41.3	287	28	
2025-07-15T12:00	8640	342	-29.0	-41.7	286	28	
2025-07-15T12:00	8660	341	-29.2	-41.9	286	28	
2025-07-15T12:00	8680	340	-29.4	-42.0	286	28	
2025-07-15T12:00	8700	339	-29.5	-42.1	285	28	
2025-07-15T12:00	8720	338	-29.7	-42.1	285	28	
2025-07-15T12:00	8740	338	-29.8	-42.2	285	28	
2025-07-15T12:00	8760	337	-30.0	-42.2	285	28	
2025-07-15T12:00	8780	336	-30.1	-42.2	285	28	
2025-07-15T12:00	8800	335	-30.3	-41.8	285	28	
2025-07-15T12:00	8820	334	-30.5	-41.8	285	28	
2025-07-15T12:00	8840	333	-30.6	-41.7	285	28	
2025-07-15T12:00	8860	332	-30.8	-41.9	285	28	
2025-07-15T12:00	8880	331	-31.0	-42.2	285	28	
2025-07-15T12:00	8900	330	-31.1	-42.9	285	28	
2025-07-15T12:00	8920	329	-31.3	-43.4	285	28	
2025-07-15T12:00	8940	328	-31.4	-43.5	285	28	
2025-07-15T12:00	8960	327	-31.6	-43.4	285	28	
2025-07-15T12:00	8980	326	-31.7	-43.2	285	28	
2025-07-15T12:00	9000	325	-31.9	-43.2	285	29	
2025-07-15T12:00	9020	324	-32.1	-43.3	285	29	
2025-07-15T12:00	9040	324	-32.3	-43.5	285	29	
2025-07-15T12:00	9060	323	-32.5	-43.6	285	29	
2025-07-15T12:00	9080	322	-32.6	-43.7	286	29	
2025-07-15T12:00	9100	321	-32.8	-43.7	287	29	
2025-07-15T12:00	9120	320	-33.0	-43.6	288	29	
2025-07-15T12:00	9140	319	-33.2	-43.5	289	29	
2025-07-15T12:00	9160	318	-33.3	-43.4	289	30	
2025-07-15T12:00	9180	317	-33.4	-44.2	290	30	
2025-07-15T12:00	9200	316	-33.4	-45.6	290	30	
2025-07-15T12:00	9220	315	-33.6	-45.7	291	30	
2025-07-15T12:00	9240	314	-33.7	-45.7	291	30	
2025-07-15T12:00	9260	313	-33.9	-46.5	291	30	
2025-07-15T12:00	9280	313	-34.0	-47.2	291	30	
2025-07-15T12:00	9300	312	-34.2	-47.4	291	30	
2025-07-15T12:00	9320	311	-34.3	-47.7	290	30	
2025-07-15T12:00	9340	310	-34.5	-48.2	290	30	
2025-07-15T12:00	9360	309	-34.6	-48.1	290	31	
2025-07-15T12:00	9380	308	-34.8	-48.0	290	31	
2025-07-15T12:00	9400	307	-35.0	-47.9	289	31	
2025-07-15T12:00	9420	306	-35.1	-48.6	289	31	
2025-07-15T12:00	9440	306	-35.2	-49.3	289	31	
2025-07-15T12:00	9460	305	-35.3	-49.7	289	31	
2025-07-15T12:00	9480	304	-35.5	-49.9	288	31	
2025-07-15T12:00	9500	303	-35.6	-48.3	288	31	
2025-07-15T12:00	9520	302	-35.7	-47.9	288	32	
2025-07-15T12:00	9540	301	-35.9	-46.8	288	32	
2025-07-15T12:00	9560	300	-36.1	-47.0	288	32	
2025-07-15T12:00	9580	300	-36.1	-48.1	288	32	
2025-07-15T12:00	9600	299	-36.3	-49.2	288	32	
2025-07-15T12:00	9620	298	-36.5	-50.6	288	32	
2025-07-15T12:00	9640	297	-36.7	-50.2	288	32	
2025-07-15T12:00	9660	296	-36.9	-49.3	288	32	
2025-07-15T12:00	9680	295	-37.1	-49.8	288	32	
2025-07-15T12:00	9700	294	-37.3	-49.3	288	32	
2025-07-15T12:00	9720	294	-37.5	-48.8	288	32	
2025-07-15T12:00	9740	293	-37.7	-49.0	288	31	
2025-07-15T12:00	9760	292	-37.9	-49.3	288	31	
2025-07-15T12:00	9780	291	-38.0	-49.4	288	30	
2025-07-15T12:00	9800	290	-38.2	-49.6	287	30	
2025-07-15T12:00	9820	289	-38.4	-50.0	287	30	
2025-07-15T12:00	9840	288	-38.6	-49.9	286	30	
2025-07-15T12:00	9860	288	-38.8	-49.8	286	30	
2025-07-15T12:00	9880	287	-39.1	-49.6	286	30	
2025-07-15T12:00	9900	286	-39.3	-50.3	286	30	
2025-07-15T12:00	9920	285	-39.4	-50.5	286	30	
2025-07-15T12:00	9940	284	-39.6	-50.5	286	30	
2025-07-15T12:00	9960	283	-39.8	-50.5	287	30	
2025-07-15T12:00	9980	283	-40.0	-50.3	287	30	
2025-07-15T12:00	10000	282	-40.2	-50.5	287	30	
2025-07-15T12:00	10018	281	-40.4	-50.6	287	30	
2025-07-15T12:00	10050	280	-40.6	-50.5	287	30	
2025-07-15T12:00	10100	278	-41.1	-50.3	286	30	
2025-07-15T12:00	10150	276	-41.6	-50.4	286	31	
2025-07-15T12:00	10200	273	-42.1	-50.8	285	30	
2025-07-15T12:00	10250	271	-42.6	-50.8	285	30	
2025-07-15T12:00	10300	269	-43.1	-50.6	285	29	
2025-07-15T12:00	10350	267	-43.6	-50.6	286	29	
2025-07-15T12:00	10400	266	-44.0	-50.8	286	29	
2025-07-15T12:00	10450	263	-44.5	-51.0	286	29	
2025-07-15T12:00	10500	262	-45.0	-51.5	286	29	
2025-07-15T12:00	10550	260	-45.5	-51.4	285	29	
2025-07-15T12:00	10600	258	-46.0	-51.4	285	29	
2025-07-15T12:00	10650	256	-46.5	-52.4	286	29	
2025-07-15T12:00	10700	254	-46.9	-54.1	286	28	
2025-07-15T12:00	10750	252	-47.3	-54.2	285	28	
2025-07-15T12:00	10800	250	-47.8	-54.1	284	28	
2025-07-15T12:00	10850	248	-48.2	-54.1	283	28	
2025-07-15T12:00	10900	246	-48.6	-54.2	283	29	
2025-07-15T12:00	10950	244	-49.1	-54.2	282	29	
2025-07-15T12:00	11000	243	-49.5	-54.5	282	28	
2025-07-15T12:00	11050	241	-49.9	-54.8	281	28	
2025-07-15T12:00	11100	239	-50.3	-55.2	281	29	
2025-07-15T12:00	11150	237	-50.7	-55.5	281	29	
2025-07-15T12:00	11200	235	-51.1	-56.1	281	29	
2025-07-15T12:00	11250	233	-51.5	-56.6	281	30	
2025-07-15T12:00	11300	232	-51.9	-57.1	280	30	
2025-07-15T12:00	11350	230	-52.4	-57.5	280	31	
2025-07-15T12:00	11400	228	-52.8	-57.9	280	31	
2025-07-15T12:00	11450	226	-53.2	-58.3	279	31	
2025-07-15T12:00	11500	225	-53.6	-58.8	278	30	
2025-07-15T12:00	11550	223	-54.0	-59.1	277	30	
2025-07-15T12:00	11600	221	-54.3	-59.4	276	31	
2025-07-15T12:00	11650	219	-54.7	-59.5	275	31	
2025-07-15T12:00	11700	218	-54.8	-59.4	274	31	
2025-07-15T12:00	11750	216	-55.1	-59.8	272	31	
2025-07-15T12:00	11800	214	-55.4	-60.1	271	31	
2025-07-15T12:00	11850	213	-55.8	-60.4	270	31	
2025-07-15T12:00	11900	211	-56.2	-60.8	271	32	
2025-07-15T12:00	11950	209	-56.5	-61.0	271	33	
2025-07-15T12:00	12000	208	-56.8	-61.0	272	34	
2025-07-15T12:00	12050	206	-57.0	-61.1	273	35	
2025-07-15T12:00	12100	204	-57.4	-61.4	274	36	
2025-07-15T12:00	12150	203	-57.7	-60.9	274	36	
2025-07-15T12:00	12200	201	-58.0	-61.3	276	37	
2025-07-15T12:00	12250	200	-58.1	-62.1	278	37	
2025-07-15T12:00	12300	198	-58.3	-63.3	280	37	
2025-07-15T12:00	12350	196	-58.3	-65.4	279	37	
2025-07-15T12:00	12400	195	-58.6	-65.1	279	36	
2025-07-15T12:00	12450	193	-59.0	-65.0	279	36	
2025-07-15T12:00	12500	192	-59.4	-65.0	279	36	
2025-07-15T12:00	12550	190	-59.7	-65.5	278	36	
2025-07-15T12:00	12600	189	-59.1	-66.9	278	36	
2025-07-15T12:00	12650	187	-58.7	-68.4	281	35	
2025-07-15T12:00	12700	186	-58.2	-70.1	284	35	
2025-07-15T12:00	12750	184	-57.6	-70.9	286	35	
2025-07-15T12:00	12800	183	-57.5	-70.4	287	35	
2025-07-15T12:00	12850	181	-57.7	-70.2	288	34	
2025-07-15T12:00	12900	180	-57.8	-70.6	289	32	
2025-07-15T12:00	12950	179	-58.0	-71.3	290	30	
2025-07-15T12:00	13000	177	-58.3	-71.9	289	28	
2025-07-15T12:00	13050	176	-58.1	-72.4	287	26	
2025-07-15T12:00	13100	174	-57.9	-72.8	283	25	
2025-07-15T12:00	13150	173	-57.7	-73.3	279	25	
2025-07-15T12:00	13200	172	-57.2	-74.1	276	25	
2025-07-15T12:00	13250	170	-57.1	-74.7	274	26	
2025-07-15T12:00	13300	169	-57.5	-74.7	274	26	
2025-07-15T12:00	13350	168	-57.9	-74.6	275	26	
2025-07-15T12:00	13400	166	-58.4	-74.6	275	27	
2025-07-15T12:00	13450	165	-58.8	-74.7	276	27	
2025-07-15T12:00	13500	164	-59.1	-75.2	278	28	
2025-07-15T12:00	13550	162	-58.4	-76.1	281	28	
2025-07-15T12:00	13600	161	-58.1	-77.2	283	28	
2025-07-15T12:00	13650	160	-57.5	-78.4	284	27	
2025-07-15T12:00	13700	159	-57.1	-79.2	285	27	
2025-07-15T12:00	13750	157	-57.2	-79.2	286	26	
2025-07-15T12:00	13800	156	-57.4	-79.1	287	26	
2025-07-15T12:00	13850	155	-57.7	-79.1	288	26	
2025-07-15T12:00	13900	154	-57.9	-79.2	288	25	
2025-07-15T12:00	13950	152	-58.0	-79.4	286	24	
2025-07-15T12:00	14000	151	-58.1	-79.9	284	23	
2025-07-15T12:00	14050	150	-56.9	-80.6	282	22	
2025-07-15T12:00	14100	149	-56.3	-81.5	279	22	
2025-07-15T12:00	14150	148	-56.2	-82.0	276	22	
2025-07-15T12:00	14200	146	-56.1	-82.0	273	21	
2025-07-15T12:00	14250	145	-56.3	-81.9	271	21	
2025-07-15T12:00	14300	144	-56.6	-82.1	271	22	
2025-07-15T12:00	14350	143	-56.8	-82.2	271	23	
2025-07-15T12:00	14400	142	-56.6	-82.1	271	24	
2025-07-15T12:00	14450	141	-56.3	-82.2	271	23	
2025-07-15T12:00	14500	140	-56.5	-82.2	272	22	
2025-07-15T12:00	14550	139	-56.8	-82.4	274	21	
2025-07-15T12:00	14600	137	-56.9	-82.5	274	21	
2025-07-15T12:00	14650	136	-57.0	-82.7	271	21	
2025-07-15T12:00	14700	135	-57.2	-82.8	270	21	
2025-07-15T12:00	14750	134	-57.1	-82.9	271	21	
2025-07-15T12:00	14800	133	-56.8	-83.0	270	21	
2025-07-15T12:00	14850	132	-56.7	-83.0	270	21	
2025-07-15T12:00	14900	131	-56.7	-83.1	273	22	
2025-07-15T12:00	14950	130	-56.7	-83.1	276	22	
2025-07-15T12:00	15000	129	-56.6	-83.2	280	21	
2025-07-15T12:00	15050	128	-56.6	-83.2	283	21	
2025-07-15T12:00	15100	127	-56.7	-83.3	285	20	
2025-07-15T12:00	15150	126	-56.7	-83.3	284	19	
2025-07-15T12:00	15200	125	-56.8	-83.4	281	19	
2025-07-15T12:00	15250	124	-57.0	-83.4	278	20	
2025-07-15T12:00	15300	123	-57.2	-83.5	276	21	
2025-07-15T12:00	15350	122	-57.3	-83.6	276	22	
2025-07-15T12:00	15400	121	-57.3	-83.7	277	22	
2025-07-15T12:00	15450	120	-57.2	-83.7	280	22	
2025-07-15T12:00	15500	119	-57.1	-83.8	283	20	
2025-07-15T12:00	15550	118	-57.0	-83.7	285	19	
2025-07-15T12:00	15600	117	-57.0	-83.8	287	19	
2025-07-15T12:00	15650	116	-56.7	-83.8	288	18	
2025-07-15T12:00	15700	116	-56.4	-83.7	287	17	
2025-07-15T12:00	15750	115	-56.5	-83.8	284	17	
2025-07-15T12:00	15800	114	-56.4	-83.8	282	17	
2025-07-15T12:00	15850	113	-56.0	-83.7	280	18	
2025-07-15T12:00	15900	112	-56.2	-83.7	280	19	
2025-07-15T12:00	15950	111	-56.4	-83.8	281	18	
2025-07-15T12:00	16000	110	-55.8	-83.8	281	17	
2025-07-15T12:00	16050	109	-55.5	-83.7	279	15	
2025-07-15T12:00	16100	108	-55.6	-83.7	276	14	
2025-07-15T12:00	16150	108	-55.8	-83.6	272	13	
2025-07-15T12:00	16200	107	-56.1	-83.8	266	13	
2025-07-15T12:00	16250	106	-56.1	-84.0	261	14	
2025-07-15T12:00	16300	105	-55.6	-83.8	261	15	
2025-07-15T12:00	16350	104	-55.5	-83.9	264	16	
2025-07-15T12:00	16400	103	-55.0	-83.9	270	16	
2025-07-15T12:00	16450	103	-54.5	-83.8	275	16	
2025-07-15T12:00	16500	102	-53.9	-83.5	281	16	
2025-07-15T12:00	16550	101	-53.9	-83.4	288	16	
2025-07-15T12:00	16600	100	-54.1	-83.5	296	16	
2025-07-15T12:00	16650	100	-53.7	-83.3	302	15	
2025-07-15T12:00	16700	99	-53.8	-83.3	306	14	
2025-07-15T12:00	16750	98	-53.9	-83.3	308	13	
2025-07-15T12:00	16800	97	-54.2	-83.3	310	11	
2025-07-15T12:00	16850	96	-54.2	-83.3	311	9	
2025-07-15T12:00	16900	96	-54.5	-83.4	308	7	
2025-07-15T12:00	16950	95	-54.7	-83.4	299	7	
2025-07-15T12:00	17000	94	-55.1	-83.4	288	6	
2025-07-15T12:00	17050	94	-55.5	-83.5	280	7	
2025-07-15T12:00	17100	93	-56.0	-83.7	275	7	
2025-07-15T12:00	17150	92	-56.4	-83.9	272	8	
2025-07-15T12:00	17200	91	-56.8	-84.1	271	8	
2025-07-15T12:00	17250	91	-57.0	-84.3	270	8	
2025-07-15T12:00	17300	90	-56.7	-84.3	266	7	
2025-07-15T12:00	17350	89	-56.7	-84.4	262	8	
2025-07-15T12:00	17400	88	-57.0	-84.6	259	9	
2025-07-15T12:00	17450	88	-56.8	-84.5	259	10	
2025-07-15T12:00	17500	87	-56.8	-84.5	262	11	
2025-07-15T12:00	17550	86	-56.9	-84.6	267	11	
2025-07-15T12:00	17600	86	-56.7	-84.7	272	10	
2025-07-15T12:00	17650	85	-56.4	-84.6	275	8	
2025-07-15T12:00	17700	84	-56.4	-84.6	267	6	
2025-07-15T12:00	17750	84	-56.3	-84.6	249	5	
2025-07-15T12:00	17800	83	-56.2	-84.7	230	5	
2025-07-15T12:00	17850	82	-55.7	-84.6	227	5	
2025-07-15T12:00	17900	82	-55.4	-84.4	232	6	
2025-07-15T12:00	17950	81	-55.6	-84.3	233	6	
2025-07-15T12:00	18000	81	-56.0	-84.3	233	7	
2025-07-15T12:00	18050	80	-56.3	-84.4	236	6	
2025-07-15T12:00	18100	79	-56.6	-84.5	246	6	
2025-07-15T12:00	18150	79	-56.9	-84.6	258	6	
2025-07-15T12:00	18200	78	-57.1	-84.8	267	7	
2025-07-15T12:00	18250	77	-57.3	-84.9	273	7	
2025-07-15T12:00	18300	77	-57.1	-84.9	278	8	
2025-07-15T12:00	18350	76	-57.2	-85.1	281	7	
2025-07-15T12:00	18400	76	-57.1	-85.2	286	7	
2025-07-15T12:00	18450	75	-56.6	-85.0	292	5	
2025-07-15T12:00	18500	74	-56.6	-85.0	296	4	
2025-07-15T12:00	18550	74	-56.5	-85.0	294	3	
2025-07-15T12:00	18600	73	-56.3	-84.9	292	4	
2025-07-15T12:00	18650	73	-56.4	-84.9	295	4	
2025-07-15T12:00	18700	72	-56.4	-84.9	299	4	
2025-07-15T12:00	18750	72	-56.2	-84.9	309	3	
2025-07-15T12:00	18800	71	-55.8	-84.8	336	2	
2025-07-15T12:00	18850	70	-55.6	-84.7	22	1	
2025-07-15T12:00	18900	70	-55.7	-84.7	70	1	
2025-07-15T12:00	18950	69	-56.0	-84.8	116	2	
2025-07-15T12:00	19000	69	-55.5	-84.7	143	3	
2025-07-15T12:00	19050	68	-55.1	-84.6	160	4	
2025-07-15T12:00	19100	68	-55.3	-84.6	173	4	
2025-07-15T12:00	19150	67	-55.6	-84.5	185	4	
2025-07-15T12:00	19200	67	-55.9	-84.5	198	4	
2025-07-15T12:00	19250	66	-56.2	-84.6	208	5	
2025-07-15T12:00	19300	66	-56.5	-84.7	217	5	
2025-07-15T12:00	19350	65	-56.9	-84.9	222	5	
2025-07-15T12:00	19400	65	-56.8	-85.1	227	3	
2025-07-15T12:00	19450	64	-56.4	-85.0	230	2	
2025-07-15T12:00	19500	64	-56.4	-85.1	221	2	
2025-07-15T12:00	19550	63	-56.4	-85.1	212	3	
2025-07-15T12:00	19600	63	-56.2	-85.0	214	5	
2025-07-15T12:00	19650	62	-56.2	-85.1	223	6	
2025-07-15T12:00	19700	62	-55.9	-84.9	236	6	
2025-07-15T12:00	19750	61	-55.8	-84.9	250	6	
2025-07-15T12:00	19800	61	-55.7	-84.9	264	6	
2025-07-15T12:00	19850	60	-55.7	-84.9	277	6	
2025-07-15T12:00	19900	60	-55.7	-84.9	294	6	
2025-07-15T12:00	19950	59	-55.5	-84.8	314	6	
2025-07-15T12:00	20000	59	-55.4	-84.8	330	6	
2025-07-15T12:00	20050	58	-55.3		340	6	
2025-07-15T12:00	20100	58	-55.2		352	5	
2025-07-15T12:00	20150	57	-54.9		7	4	
2025-07-15T12:00	20200	57	-54.6		21	3	
2025-07-15T12:00	20250	57	-54.6		18	3	
2025-07-15T12:00	20300	56	-54.8		360	3	
2025-07-15T12:00	20350	56	-54.8		341	4	
2025-07-15T12:00	20400	55	-54.7		334	4	
2025-07-15T12:00	20450	55	-54.7		338	4	
2025-07-15T12:00	20500	54	-54.7		350	4	
2025-07-15T12:00	20550	54	-55.1		6	3	
2025-07-15T12:00	20600	53	-55.4		23	3	
2025-07-15T12:00	20650	53	-55.6		38	2	
2025-07-15T12:00	20700	53	-55.6		42	2	
2025-07-15T12:00	20750	52	-55.1		33	3	
2025-07-15T12:00	20800	52	-54.7		29	3	
2025-07-15T12:00	20850	51	-54.5		32	4	
2025-07-15T12:00	20900	51	-54.2		35	4	
2025-07-15T12:00	20950	51	-54.0		36	5	
2025-07-15T12:00	21000	50	-54.0		38	6	
2025-07-15T12:00	21050	50	-54.2		44	6	
2025-07-15T12:00	21100	49	-54.3		52	7	
2025-07-15T12:00	21150	49	-54.3		60	6	
2025-07-15T12:00	21200	49	-54.5		71	5	
2025-07-15T12:00	21250	48	-54.6		89	5	
2025-07-15T12:00	21300	48	-54.5		109	5	
2025-07-15T12:00	21350	48	-54.7		125	5	
2025-07-15T12:00	21400	47	-54.9		137	5	
2025-07-15T12:00	21450	47	-55.1		143	5	
2025-07-15T12:00	21500	46	-54.9		142	4	
2025-07-15T12:00	21550	46	-54.3		138	3	
2025-07-15T12:00	21600	46	-54.0		145	2	
2025-07-15T12:00	21650	45	-54.1		168	2	
2025-07-15T12:00	21700	45	-54.1		197	2	
2025-07-15T12:00	21750	45	-53.9		218	3	
2025-07-15T12:00	21800	44	-54.1		233	3	
2025-07-15T12:00	21850	44	-54.3		250	3	
2025-07-15T12:00	21900	44	-54.4		271	2	
2025-07-15T12:00	21950	43	-54.5		305	2	
2025-07-15T12:00	22000	43	-54.3		354	2	
2025-07-15T12:00	22050	43	-53.9		17	2	
2025-07-15T12:00	22100	42	-53.7		17	3	
2025-07-15T12:00	22150	42	-53.6		19	4	
2025-07-15T12:00	22200	42	-53.4		27	7	
2025-07-15T12:00	22250	41	-52.8		36	8	
2025-07-15T12:00	22300	41	-52.6		42	9	
2025-07-15T12:00	22350	41	-52.8		48	10	
2025-07-15T12:00	22400	40	-53.1		54	10	
2025-07-15T12:00	22450	40	-53.4		63	9	
2025-07-15T12:00	22500	40	-53.7		73	9	
2025-07-15T12:00	22550	39	-53.9		82	9	
2025-07-15T12:00	22600	39	-54.2		88	8	
2025-07-15T12:00	22650	39	-54.1		87	6	
2025-07-15T12:00	22700	39	-53.6		74	5	
2025-07-15T12:00	22750	38	-53.5		56	5	
2025-07-15T12:00	22800	38	-53.5		42	6	
2025-07-15T12:00	22850	38	-53.6		34	6	
2025-07-15T12:00	22900	37	-53.7		32	8	
2025-07-15T12:00	22950	37	-53.5		34	9	
2025-07-15T12:00	23000	37	-53.4		40	11	
2025-07-15T12:00	23050	37	-53.5		46	12	
2025-07-15T12:00	23100	36	-53.5		54	13	
2025-07-15T12:00	23150	36	-53.5		60	13	
2025-07-15T12:00	23200	36	-53.4		66	13	
2025-07-15T12:00	23250	35	-53.6		72	12	
2025-07-15T12:00	23300	35	-53.9		79	11	
2025-07-15T12:00	23350	35	-54.1		86	10	
2025-07-15T12:00	23400	35	-54.4		92	10	
2025-07-15T12:00	23450	34	-54.7		96	10	
2025-07-15T12:00	23500	34	-54.5		98	9	
2025-07-15T12:00	23550	34	-54.4		100	9	
2025-07-15T12:00	23600	33	-54.6		104	9	
2025-07-15T12:00	23650	33	-54.8		107	9	
2025-07-15T12:00	23700	33	-54.8		107	10	
2025-07-15T12:00	23750	33	-54.5		105	10	
2025-07-15T12:00	23800	32	-54.2		101	10	
2025-07-15T12:00	23850	32	-54.1		97	10	
2025-07-15T12:00	23900	32	-54.0		95	10	
2025-07-15T12:00	23950	32	-53.8		97	10	
2025-07-15T12:00	24000	31	-53.7		102	9	
2025-07-15T12:00	24050	31	-53.7		107	9	
2025-07-15T12:00	24100	31	-53.5		109	8	
2025-07-15T12:00	24150	31	-52.8		107	8	
2025-07-15T12:00	24200	31	-52.5		103	8	
2025-07-15T12:00	24250	30	-52.7		98	8	
2025-07-15T12:00	24300	30	-52.8		93	9	
2025-07-15T12:00	24350	30	-52.8		91	9	
2025-07-15T12:00	24400	30	-52.6		95	8	
2025-07-15T12:00	24450	29	-52.6		104	8	
2025-07-15T12:00	24500	29	-52.6		115	7	
2025-07-15T12:00	24550	29	-52.6		122	6	
2025-07-15T12:00	24600	29	-52.6		123	5	
2025-07-15T12:00	24650	28	-52.3		116	4	
2025-07-15T12:00	24700	28	-51.9		102	4	
2025-07-15T12:00	24750	28	-51.5		89	5	
2025-07-15T12:00	24800	28	-51.3		80	6	
2025-07-15T12:00	24850	28	-51.4		76	6	
2025-07-15T12:00	24900	27	-51.3		78	6	
2025-07-15T12:00	24950	27	-51.3		82	5	
2025-07-15T12:00	25000	27	-51.2		80	5	
2025-07-15T12:00	25050	27	-51.2		71	5	
2025-07-15T12:00	25100	27	-51.0		63	6	
2025-07-15T12:00	25150	26	-50.8		59	8	
2025-07-15T12:00	25200	26	-50.7		58	9	
2025-07-15T12:00	25250	26	-50.5		57	10	
2025-07-15T12:00	25300	26	-50.3		57	10	
2025-07-15T12:00	25350	26	-50.5		57	9	
2025-07-15T12:00	25400	25	-50.5		57	9	
2025-07-15T12:00	25450	25	-50.4		57	10	
2025-07-15T12:00	25500	25	-50.3		57	10	
2025-07-15T12:00	25550	25	-50.1		58	11	
2025-07-15T12:00	25600	25	-50.0		60	12	
2025-07-15T12:00	25650	24	-49.9		63	13	
2025-07-15T12:00	25700	24	-49.8		66	13	
2025-07-15T12:00	25750	24	-49.9		70	12	
2025-07-15T12:00	25800	24	-50.1		75	12	
2025-07-15T12:00	25850	24	-50.2		80	11	
2025-07-15T12:00	25900	23	-50.1		84	10	
2025-07-15T12:00	25950	23	-49.7		85	10	
2025-07-15T12:00	26000	23	-49.3		82	10	
2025-07-15T12:00	26050	23	-49.1		78	12	
2025-07-15T12:00	26100	23	-48.9		75	13	
2025-07-15T12:00	26150	23	-48.7		74	14	
2025-07-15T12:00	26200	22	-48.8		74	14	
2025-07-15T12:00	26250	22	-48.8		74	15	
2025-07-15T12:00	26300	22	-48.7		76	15	
2025-07-15T12:00	26350	22	-48.8		78	16	
2025-07-15T12:00	26400	22	-48.6		81	17	
2025-07-15T12:00	26450	22	-48.2		82	17	
2025-07-15T12:00	26500	21	-48.0		85	16	
2025-07-15T12:00	26550	21	-48.2		88	15	
2025-07-15T12:00	26600	21	-48.5		92	15	
2025-07-15T12:00	26650	21	-48.7		95	15	
2025-07-15T12:00	26700	21	-48.7		94	14	
2025-07-15T12:00	26750	21	-48.6		92	14	
2025-07-15T12:00	26800	20	-48.5		90	13	
2025-07-15T12:00	26850	20	-48.4		88	12	
2025-07-15T12:00	26900	20	-48.5		88	12	
2025-07-15T12:00	26950	20	-48.5		89	11	
2025-07-15T12:00	27000	20	-48.6		89	10	
2025-07-15T12:00	27050	20	-48.6		89	9	
2025-07-15T12:00	27100	20	-48.4		88	9	
2025-07-15T12:00	27150	19	-48.3		89	9	
2025-07-15T12:00	27200	19	-48.0		91	10	
2025-07-15T12:00	27250	19	-48.1		93	10	
2025-07-15T12:00	27300	19	-48.2		95	11	
2025-07-15T12:00	27350	19	-48.2		94	11	
2025-07-15T12:00	27400	19	-48.2		91	11	
2025-07-15T12:00	27450	19	-48.0		86	11	
2025-07-15T12:00	27500	18	-47.9		82	12	
2025-07-15T12:00	27550	18	-47.7		80	12	
2025-07-15T12:00	27600	18	-47.6		81	12	
2025-07-15T12:00	27650	18	-47.5		83	11	
2025-07-15T12:00	27700	18	-47.5		83	11	
2025-07-15T12:00	27750	18	-47.6		81	10	
2025-07-15T12:00	27800	18	-47.4		77	9	
2025-07-15T12:00	27850	17	-47.3		70	9	
2025-07-15T12:00	27900	17	-47.2		64	9	
2025-07-15T12:00	27950	17	-47.0		62	10	
2025-07-15T12:00	28000	17	-46.9		62	11	
2025-07-15T12:00	28050	17	-46.9		62	12	
2025-07-15T12:00	28100	17	-46.8		62	12	
2025-07-15T12:00	28150	17	-46.8		64	12	
2025-07-15T12:00	28200	17	-46.4		67	12	
2025-07-15T12:00	28250	16	-46.2		72	12	
2025-07-15T12:00	28300	16	-46.3		73	12	
2025-07-15T12:00	28350	16	-46.1		72	13	
2025-07-15T12:00	28400	16	-46.1		70	15	
2025-07-15T12:00	28450	16	-46.1		70	16	
2025-07-15T12:00	28500	16	-46.1		70	18	
2025-07-15T12:00	28550	16	-46.1		71	19	
2025-07-15T12:00	28600	16	-46.1		72	20	
2025-07-15T12:00	28650	15	-46.2		74	19	
2025-07-15T12:00	28700	15	-46.3		78	18	
2025-07-15T12:00	28750	15	-46.3		81	17	
2025-07-15T12:00	28800	15	-46.2		85	16	
2025-07-15T12:00	28850	15	-46.3		89	16	
2025-07-15T12:00	28900	15	-46.4		93	15	
2025-07-15T12:00	28950	15	-46.4		94	15	
2025-07-15T12:00	29000	15	-46.3		94	15	
2025-07-15T12:00	29050	15	-46.2		95	15	
2025-07-15T12:00	29100	14	-46.3		97	16	
2025-07-15T12:00	29150	14	-46.4		98	16	
2025-07-15T12:00	29200	14	-46.3		99	16	
2025-07-15T12:00	29250	14	-45.8		98	16	
2025-07-15T12:00	29300	14	-45.3		97	15	
2025-07-15T12:00	29350	14	-44.9		98	15	
2025-07-15T12:00	29400	14	-44.6		99	14	
2025-07-15T12:00	29450	14	-44.5		99	14	
2025-07-15T12:00	29500	14	-44.3		97	14	
2025-07-15T12:00	29550	14	-44.2		96	15	
2025-07-15T12:00	29600	13	-44.2		96	14	
2025-07-15T12:00	29650	13	-44.2		99	14	
2025-07-15T12:00	29700	13	-43.9		100	13	
2025-07-15T12:00	29750	13	-43.6		101	13	
2025-07-15T12:00	29800	13	-43.3		101	12	
2025-07-15T12:00	29850	13	-43.2		101	12	
2025-07-15T12:00	29900	13	-43.0		98	12	
2025-07-15T12:00	29950	13	-42.6		93	12	
2025-07-15T12:00	30000	13	-42.2		89	12	
2025-07-15T12:00	30050	13	-41.9		86	12	
2025-07-15T12:00	30100	12	-41.8		84	12	
2025-07-15T12:00	30150	12	-41.6		82	12	
2025-07-15T12:00	30200	12	-41.5		82	12	
2025-07-15T12:00	30250	12	-41.2		81	13	
2025-07-15T12:00	30300	12	-41.0		80	14	
2025-07-15T12:00	30350	12	-40.9		80	16	
2025-07-15T12:00	30400	12	-40.8		80	17	
2025-07-15T12:00	30450	12	-40.9		81	17	
2025-07-15T12:00	30500	12	-41.0		82	17	
2025-07-15T12:00	30550	12	-41.3		84	17	
2025-07-15T12:00	30600	12	-41.6		84	16	
2025-07-15T12:00	30650	11	-41.6		83	16	
2025-07-15T12:00	30700	11	-41.4		83	15	
2025-07-15T12:00	30750	11	-41.2		84	14	
2025-07-15T12:00	30800	11	-41.0		87	14	
2025-07-15T12:00	30850	11	-40.9		90	13	
2025-07-15T12:00	30900	11	-40.8		92	14	
2025-07-15T12:00	30950	11	-40.5		92	14	
2025-07-15T12:00	31000	11	-40.4		91	15	
2025-07-15T12:00	31050	11	-40.4		89	15	
2025-07-15T12:00	31100	11	-40.4		86	16	
2025-07-15T12:00	31150	11	-40.2		83	17	
2025-07-15T12:00	31200	11	-39.9		81	18	
2025-07-15T12:00	31250	11	-39.7		82	19	
2025-07-15T12:00	31300	10	-39.6		84	20	
2025-07-15T12:00	31350	10	-39.5		86	20	
2025-07-15T12:00	31400	10	-39.5		88	20	
2025-07-15T12:00	31450	10	-39.5		89	19	
2025-07-15T12:00	31500	10	-39.7		90	18	
2025-07-15T12:00	31550	10	-39.9		91	17	
2025-07-15T12:00	31600	10	-40.1		93	16	
2025-07-15T12:00	31650	10	-40.1		94	16	
2025-07-15T12:00	31700	10	-39.8		95	17	
2025-07-15T12:00	31750	10	-39.7		96	18	
2025-07-15T12:00	31800	10	-39.7		97	19	
2025-07-15T12:00	31850	10	-39.6		98	19	
2025-07-15T12:00	31900	10	-39.5		100	19	
2025-07-15T12:00	31950	9	-39.4		102	19	
2025-07-15T12:00	32000	9	-39.3		103	18	
2025-07-15T12:00	32050	9	-39.4		104	17	
2025-07-15T12:00	32100	9	-39.4		104	16	
2025-07-15T12:00	32150	9	-39.5		105	15	
2025-07-15T12:00	32200	9	-39.5		104	15	
2025-07-15T12:00	32250	9	-39.3		103	15	
2025-07-15T12:00	32300	9	-39.0		101	16	
2025-07-15T12:00	32350	9	-38.9		100	17	
2025-07-15T12:00	32400	9	-38.7		101	17	
2025-07-15T12:00	32450	9	-38.5		104	17	
2025-07-15T12:00	32500	9	-38.4		108	17	
2025-07-15T12:00	32550	9	-38.6		111	16	
2025-07-15T12:00	32600	9	-38.7		114	14	
2025-07-15T12:00	32650	9	-38.7		114	13	
2025-07-15T12:00	32700	9	-38.5		113	11	
2025-07-15T12:00	32750	8	-38.1		109	10	
2025-07-15T12:00	32800	8	-37.7		105	10	
2025-07-15T12:00	32850	8	-37.4		103	12	
2025-07-15T12:00	32900	8	-37.3		103	13	
2025-07-15T12:00	32950	8	-37.2		104	15	
2025-07-15T12:00	33000	8	-37.1		104	16	
2025-07-15T12:00	33050	8	-37.0		104	16	
2025-07-15T12:00	33100	8	-37.0		103	16	
2025-07-15T12:00	33150	8	-36.9		104	16	
2025-07-15T12:00	33200	8	-36.8		103	15	
2025-07-15T12:00	33250	8	-36.6		102	14	
2025-07-15T12:00	33300	8	-36.1		101	12	
2025-07-15T12:00	33350	8	-35.9		100	11	
2025-07-15T12:00	33400	8	-35.8		100	11	
2025-07-15T12:00	33450	8	-35.5		100	11	
2025-07-15T12:00	33500	8	-35.3		99	12	
2025-07-15T12:00	33550	8	-35.0		98	13	
2025-07-15T12:00	33600	7	-34.5		96	13	
2025-07-15T12:00	33650	7	-33.8		94	13	
2025-07-16T00:00	491	964	18.0	11.3	194	2	
2025-07-16T00:00	501	962	18.4	10.7	198	2	
2025-07-16T00:00	520	961	19.2	9.8	201	3	
2025-07-16T00:00	540	959	19.8	9.1	204	3	
2025-07-16T00:00	560	956	19.7	9.1	209	3	
2025-07-16T00:00	580	954	19.5	9.1	215	4	
2025-07-16T00:00	600	952	19.4	8.9	223	4	
2025-07-16T00:00	620	950	19.3	8.9	232	4	
2025-07-16T00:00	640	948	19.1	8.8	242	4	
2025-07-16T00:00	660	945	19.2	8.4	250	4	
2025-07-16T00:00	680	943	19.1	8.3	257	4	
2025-07-16T00:00	700	941	19.0	8.3	264	4	
2025-07-16T00:00	720	939	19.0	8.1	268	4	
2025-07-16T00:00	740	937	18.9	8.1	271	4	
2025-07-16T00:00	760	934	18.7	8.0	272	5	
2025-07-16T00:00	780	932	18.5	8.0	270	5	
2025-07-16T00:00	800	930	18.3	8.0	269	5	
2025-07-16T00:00	820	928	18.1	8.0	267	5	
2025-07-16T00:00	840	925	17.9	7.9	265	5	
2025-07-16T00:00	860	923	17.7	7.9	265	5	
2025-07-16T00:00	880	921	17.5	7.8	266	5	
2025-07-16T00:00	900	919	17.4	7.8	268	5	
2025-07-16T00:00	920	917	17.2	7.7	270	5	
2025-07-16T00:00	940	915	17.1	7.5	274	5	
2025-07-16T00:00	960	913	17.0	6.6	278	5	
2025-07-16T00:00	980	911	16.8	6.4	282	5	
2025-07-16T00:00	1000	908	16.7	6.2	284	5	
2025-07-16T00:00	1020	906	16.6	6.1	285	5	
2025-07-16T00:00	1040	904	16.4	6.1	284	4	
2025-07-16T00:00	1060	902	16.2	6.1	282	4	
2025-07-16T00:00	1080	900	16.0	6.3	280	4	
2025-07-16T00:00	1100	898	15.9	6.4	277	4	
2025-07-16T00:00	1120	896	15.7	6.4	274	4	
2025-07-16T00:00	1140	894	15.5	6.3	273	3	
2025-07-16T00:00	1160	892	15.4	6.3	272	3	
2025-07-16T00:00	1180	890	15.2	6.3	272	3	
2025-07-16T00:00	1200	887	15.0	6.2	272	3	
2025-07-16T00:00	1220	885	14.8	6.2	271	3	
2025-07-16T00:00	1240	883	14.7	6.1	270	3	
2025-07-16T00:00	1260	881	14.5	6.2	268	3	
2025-07-16T00:00	1280	879	14.3	6.1	266	3	
2025-07-16T00:00	1300	877	14.1	6.1	265	3	
2025-07-16T00:00	1320	875	13.9	6.0	263	4	
2025-07-16T00:00	1340	873	13.8	6.0	263	4	
2025-07-16T00:00	1360	871	13.6	5.8	263	4	
2025-07-16T00:00	1380	869	13.5	5.7	263	4	
2025-07-16T00:00	1400	867	13.3	5.7	264	4	
2025-07-16T00:00	1420	865	13.1	5.6	264	4	
2025-07-16T00:00	1440	863	12.9	5.6	265	4	
2025-07-16T00:00	1460	861	12.8	5.5	264	4	
2025-07-16T00:00	1480	859	12.6	5.5	263	4	
2025-07-16T00:00	1500	856	12.4	5.4	262	4	
2025-07-16T00:00	1520	855	12.2	5.4	261	5	
2025-07-16T00:00	1540	852	12.0	5.3	259	5	
2025-07-16T00:00	1560	850	11.8	5.3	256	5	
2025-07-16T00:00	1580	848	11.6	5.3	254	5	
2025-07-16T00:00	1600	846	11.5	5.1	251	5	
2025-07-16T00:00	1620	844	11.3	5.2	248	5	
2025-07-16T00:00	1640	842	11.2	5.4	246	4	
2025-07-16T00:00	1660	840	11.0	5.2	244	4	
2025-07-16T00:00	1680	838	10.8	5.4	243	4	
2025-07-16T00:00	1700	836	10.6	5.2	244	4	
2025-07-16T00:00	1720	834	10.4	5.2	245	4	
2025-07-16T00:00	1740	832	10.2	5.3	246	4	
2025-07-16T00:00	1760	830	10.0	5.2	247	4	
2025-07-16T00:00	1780	828	9.8	5.2	247	4	
2025-07-16T00:00	1800	826	9.6	5.1	247	4	
2025-07-16T00:00	1820	824	9.4	5.2	245	4	
2025-07-16T00:00	1840	822	9.2	5.1	243	5	
2025-07-16T00:00	1860	820	9.0	5.0	240	5	
2025-07-16T00:00	1880	818	8.9	5.0	238	5	
2025-07-16T00:00	1900	816	8.7	5.0	237	5	
2025-07-16T00:00	1920	814	8.5	5.0	237	6	
2025-07-16T00:00	1940	812	8.3	4.9	237	6	
2025-07-16T00:00	1960	811	8.4	4.6	236	7	
2025-07-16T00:00	1980	809	8.2	4.6	236	7	
2025-07-16T00:00	2000	806	8.0	4.5	234	7	
2025-07-16T00:00	2020	804	7.8	4.5	233	7	
2025-07-16T00:00	2040	802	7.6	4.5	232	7	
2025-07-16T00:00	2060	801	7.5	4.5	230	8	
2025-07-16T00:00	2080	799	7.3	4.5	229	8	
2025-07-16T00:00	2100	797	7.1	4.5	228	8	
2025-07-16T00:00	2120	795	6.9	4.5	227	8	
2025-07-16T00:00	2140	793	6.7	4.7	226	8	
2025-07-16T00:00	2160	791	6.6	4.7	225	9	
2025-07-16T00:00	2180	789	6.4	4.8	224	9	
2025-07-16T00:00	2200	787	6.2	4.9	223	9	
2025-07-16T00:00	2220	785	6.0	4.9	223	9	
2025-07-16T00:00	2240	783	5.8	5.1	223	10	
2025-07-16T00:00	2260	781	5.6	5.0	223	10	
2025-07-16T00:00	2280	780	5.5	5.0	223	10	
2025-07-16T00:00	2300	778	5.3	4.9	224	10	
2025-07-16T00:00	2320	776	5.2	4.9	225	10	
2025-07-16T00:00	2340	774	5.0	4.8	225	11	
2025-07-16T00:00	2360	772	4.8	4.4	226	11	
2025-07-16T00:00	2380	770	4.7	4.2	225	11	
2025-07-16T00:00	2400	768	4.6	4.1	225	11	
2025-07-16T00:00	2420	766	4.4	4.1	225	12	
2025-07-16T00:00	2440	764	4.3	4.0	224	12	
2025-07-16T00:00	2460	762	4.1	3.9	223	12	
2025-07-16T00:00	2480	761	3.9	3.8	222	12	
2025-07-16T00:00	2500	759	3.8	3.8	222	13	
2025-07-16T00:00	2520	757	3.6	3.6	222	13	
2025-07-16T00:00	2540	755	3.5	3.5	223	13	
2025-07-16T00:00	2560	753	3.2	2.7	224	12	
2025-07-16T00:00	2580	751	3.1	2.1	226	12	
2025-07-16T00:00	2600	750	3.2	0.6	228	13	
2025-07-16T00:00	2620	747	3.4	-0.8	230	13	
2025-07-16T00:00	2640	746	3.3	-0.9	232	13	
2025-07-16T00:00	2660	744	3.3	-2.7	234	13	
2025-07-16T00:00	2680	742	3.3	-3.6	236	13	
2025-07-16T00:00	2700	740	3.3	-4.8	237	13	
2025-07-16T00:00	2720	738	3.9	-9.4	239	13	
2025-07-16T00:00	2740	736	4.6	-15.4	240	12	
2025-07-16T00:00	2760	735	4.8	-17.9	242	12	
2025-07-16T00:00	2780	733	4.9	-20.3	243	12	
2025-07-16T00:00	2800	731	4.8	-20.9	245	11	
2025-07-16T00:00	2820	729	4.8	-21.3	248	11	
2025-07-16T00:00	2840	728	4.7	-21.8	250	11	
2025-07-16T00:00	2860	726	4.6	-23.1	253	11	
2025-07-16T00:00	2880	724	4.5	-24.0	256	11	
2025-07-16T00:00	2900	722	4.5	-27.7	259	11	
2025-07-16T00:00	2920	721	4.5	-30.4	261	11	
2025-07-16T00:00	2940	719	4.4	-30.4	264	11	
2025-07-16T00:00	2960	717	4.5	-30.5	266	12	
2025-07-16T00:00	2980	715	4.5	-31.6	268	12	
2025-07-16T00:00	3000	714	4.5	-33.8	270	12	
2025-07-16T00:00	3020	712	4.5	-35.5	272	12	
2025-07-16T00:00	3040	710	4.4	-35.9	274	13	
2025-07-16T00:00	3060	708	4.3	-35.8	276	13	
2025-07-16T00:00	3080	706	4.3	-34.2	277	13	
2025-07-16T00:00	3100	705	4.3	-32.8	278	13	
2025-07-16T00:00	3120	703	4.3	-32.2	279	13	
2025-07-16T00:00	3140	701	4.4	-33.4	280	13	
2025-07-16T00:00	3160	700	4.3	-34.2	280	13	
2025-07-16T00:00	3180	698	4.1	-34.3	280	13	
2025-07-16T00:00	3200	696	4.0	-34.5	280	13	
2025-07-16T00:00	3220	694	3.8	-34.5	280	13	
2025-07-16T00:00	3240	693	3.6	-34.5	280	13	
2025-07-16T00:00	3260	691	3.4	-34.6	279	13	
2025-07-16T00:00	3280	689	3.2	-34.7	278	13	
2025-07-16T00:00	3300	688	3.0	-35.0	277	12	
2025-07-16T00:00	3320	686	2.9	-31.6	276	12	
2025-07-16T00:00	3340	684	2.8	-16.7	275	12	
2025-07-16T00:00	3360	682	2.6	-10.3	273	12	
2025-07-16T00:00	3380	681	2.4	-5.9	272	11	
2025-07-16T00:00	3400	679	2.1	-4.3	271	11	
2025-07-16T00:00	3420	677	2.0	-4.0	271	11	
2025-07-16T00:00	3440	676	1.9	-1.2	271	11	
2025-07-16T00:00	3460	674	1.7	0.1	272	11	
2025-07-16T00:00	3480	673	1.5	0.2	274	11	
2025-07-16T00:00	3500	671	1.3	0.4	275	11	
2025-07-16T00:00	3520	669	1.2	0.5	275	12	
2025-07-16T00:00	3540	668	1.0	0.5	276	12	
2025-07-16T00:00	3560	666	0.8	0.5	277	12	
2025-07-16T00:00	3580	664	0.6	0.4	277	13	
2025-07-16T00:00	3600	663	0.5	0.3	277	13	
2025-07-16T00:00	3620	661	0.4	0.1	278	14	
2025-07-16T00:00	3640	659	0.5	-0.4	279	14	
2025-07-16T00:00	3660	658	0.8	-1.0	279	15	
2025-07-16T00:00	3680	656	1.2	-1.5	279	16	
2025-07-16T00:00	3700	654	1.2	-1.4	279	16	
2025-07-16T00:00	3720	653	1.1	-1.3	279	17	
2025-07-16T00:00	3740	651	1.0	-1.2	280	17	
2025-07-16T00:00	3760	649	0.8	-1.2	280	17	
2025-07-16T00:00	3780	648	0.7	-1.1	281	17	
2025-07-16T00:00	3800	646	0.6	-1.1	282	17	
2025-07-16T00:00	3820	645	0.5	-1.3	283	17	
2025-07-16T00:00	3840	643	0.4	-1.5	284	17	
2025-07-16T00:00	3860	641	0.6	-2.1	284	17	
2025-07-16T00:00	3880	640	0.6	-2.5	284	17	
2025-07-16T00:00	3900	638	0.6	-2.7	283	17	
2025-07-16T00:00	3920	637	0.5	-2.9	282	17	
2025-07-16T00:00	3940	635	0.5	-3.0	281	17	
2025-07-16T00:00	3960	633	0.4	-2.7	281	17	
2025-07-16T00:00	3980	632	0.3	-2.7	281	17	
2025-07-16T00:00	4000	630	0.2	-2.8	281	17	
2025-07-16T00:00	4020	629	0.0	-3.1	282	17	
2025-07-16T00:00	4040	627	-0.1	-3.3	283	17	
2025-07-16T00:00	4060	626	-0.3	-3.4	284	17	
2025-07-16T00:00	4080	624	-0.5	-3.6	284	16	
2025-07-16T00:00	4100	623	-0.7	-3.6	285	16	
2025-07-16T00:00	4120	621	-0.8	-3.9	286	17	
2025-07-16T00:00	4140	619	-0.9	-4.3	286	17	
2025-07-16T00:00	4160	618	-1.1	-4.4	287	17	
2025-07-16T00:00	4180	616	-1.2	-4.6	288	17	
2025-07-16T00:00	4200	615	-1.4	-4.6	289	17	
2025-07-16T00:00	4220	613	-1.5	-4.7	291	18	
2025-07-16T00:00	4240	612	-1.6	-5.2	292	18	
2025-07-16T00:00	4260	610	-1.6	-5.6	293	19	
2025-07-16T00:00	4280	609	-1.8	-5.6	294	20	
2025-07-16T00:00	4300	607	-1.9	-5.5	295	21	
2025-07-16T00:00	4320	606	-1.9	-5.5	295	21	
2025-07-16T00:00	4340	604	-2.0	-5.4	296	22	
2025-07-16T00:00	4360	603	-2.1	-5.4	296	22	
2025-07-16T00:00	4380	601	-2.3	-5.5	296	22	
2025-07-16T00:00	4400	599	-2.3	-5.8	295	22	
2025-07-16T00:00	4420	598	-2.4	-6.0	295	21	
2025-07-16T00:00	4440	597	-2.4	-6.2	296	21	
2025-07-16T00:00	4460	595	-2.5	-6.4	296	20	
2025-07-16T00:00	4480	593	-2.7	-6.6	297	20	
2025-07-16T00:00	4500	592	-2.8	-6.6	298	20	
2025-07-16T00:00	4520	590	-3.0	-6.7	299	19	
2025-07-16T00:00	4540	589	-3.1	-6.7	299	19	
2025-07-16T00:00	4560	588	-3.3	-6.8	299	19	
2025-07-16T00:00	4580	586	-3.5	-6.8	298	19	
2025-07-16T00:00	4600	584	-3.6	-7.0	297	19	
2025-07-16T00:00	4620	583	-3.7	-7.1	297	19	
2025-07-16T00:00	4640	582	-3.8	-7.2	297	19	
2025-07-16T00:00	4660	580	-3.9	-7.4	297	19	
2025-07-16T00:00	4680	579	-4.1	-7.6	297	20	
2025-07-16T00:00	4700	577	-4.2	-7.7	298	20	
2025-07-16T00:00	4720	576	-4.2	-7.9	299	20	
2025-07-16T00:00	4740	574	-4.2	-8.0	299	21	
2025-07-16T00:00	4760	573	-4.2	-8.3	299	21	
2025-07-16T00:00	4780	571	-4.2	-8.8	299	21	
2025-07-16T00:00	4800	570	-4.3	-9.1	298	21	
2025-07-16T00:00	4820	569	-4.4	-9.0	297	22	
2025-07-16T00:00	4840	567	-4.6	-8.8	296	21	
2025-07-16T00:00	4860	566	-4.7	-8.8	296	21	
2025-07-16T00:00	4880	564	-4.9	-8.8	296	21	
2025-07-16T00:00	4900	563	-5.0	-8.8	296	21	
2025-07-16T00:00	4920	561	-5.2	-8.6	297	21	
2025-07-16T00:00	4940	560	-5.4	-8.5	297	21	
2025-07-16T00:00	4960	558	-5.5	-8.5	298	21	
2025-07-16T00:00	4980	557	-5.7	-8.7	298	22	
2025-07-16T00:00	5000	556	-5.8	-8.9	297	22	
2025-07-16T00:00	5020	554	-5.9	-9.1	297	22	
2025-07-16T00:00	5040	553	-6.1	-9.2	296	22	
2025-07-16T00:00	5060	551	-6.2	-9.5	296	21	
2025-07-16T00:00	5080	550	-6.3	-10.2	296	21	
2025-07-16T00:00	5100	549	-6.4	-11.1	295	21	
2025-07-16T00:00	5120	547	-6.3	-12.0	295	20	
2025-07-16T00:00	5140	546	-6.2	-12.7	296	20	
2025-07-16T00:00	5160	545	-6.2	-12.8	296	20	
2025-07-16T00:00	5180	543	-6.3	-12.9	297	21	
2025-07-16T00:00	5200	542	-6.5	-13.2	297	21	
2025-07-16T00:00	5220	540	-6.7	-12.8	298	21	
2025-07-16T00:00	5240	539	-6.9	-12.3	298	22	
2025-07-16T00:00	5260	538	-7.0	-12.1	298	22	
2025-07-16T00:00	5280	536	-7.2	-12.1	299	22	
2025-07-16T00:00	5300	535	-7.4	-12.2	299	22	
2025-07-16T00:00	5320	533	-7.6	-12.2	298	22	
2025-07-16T00:00	5340	532	-7.8	-12.1	298	22	
2025-07-16T00:00	5360	531	-7.9	-12.3	298	23	
2025-07-16T00:00	5380	529	-8.1	-12.5	297	23	
2025-07-16T00:00	5400	528	-8.3	-12.7	297	23	
2025-07-16T00:00	5420	527	-8.4	-12.6	295	23	
2025-07-16T00:00	5440	525	-8.6	-12.7	295	23	
2025-07-16T00:00	5460	524	-8.8	-12.8	293	23	
2025-07-16T00:00	5480	522	-9.0	-12.8	292	23	
2025-07-16T00:00	5500	521	-9.2	-12.9	291	23	
2025-07-16T00:00	5520	520	-9.3	-13.0	291	23	
2025-07-16T00:00	5540	518	-9.5	-12.7	290	23	
2025-07-16T00:00	5560	517	-9.6	-13.0	289	23	
2025-07-16T00:00	5580	516	-9.7	-13.4	288	23	
2025-07-16T00:00	5600	515	-9.8	-13.1	287	23	
2025-07-16T00:00	5620	513	-10.0	-13.1	287	23	
2025-07-16T00:00	5640	512	-10.1	-13.4	287	23	
2025-07-16T00:00	5660	510	-10.2	-13.7	287	23	
2025-07-16T00:00	5680	509	-10.3	-13.9	288	24	
2025-07-16T00:00	5700	508	-10.5	-14.1	289	24	
2025-07-16T00:00	5720	507	-10.6	-14.2	290	24	
2025-07-16T00:00	5740	505	-10.8	-13.6	290	24	
2025-07-16T00:00	5760	504	-10.9	-13.3	290	23	
2025-07-16T00:00	5780	503	-11.0	-13.1	289	23	
2025-07-16T00:00	5800	501	-10.9	-13.4	289	23	
2025-07-16T00:00	5820	500	-10.6	-13.8	289	23	
2025-07-16T00:00	5840	499	-10.3	-14.3	288	23	
2025-07-16T00:00	5860	497	-10.2	-14.5	288	22	
2025-07-16T00:00	5880	496	-10.2	-14.4	289	22	
2025-07-16T00:00	5900	495	-10.4	-14.2	290	22	
2025-07-16T00:00	5920	493	-10.5	-14.3	291	22	
2025-07-16T00:00	5940	492	-10.6	-14.4	292	22	
2025-07-16T00:00	5960	491	-10.7	-14.7	293	22	
2025-07-16T00:00	5980	490	-10.7	-15.1	293	22	
2025-07-16T00:00	6000	489	-10.7	-15.7	293	23	
2025-07-16T00:00	6020	487	-10.7	-16.3	293	24	
2025-07-16T00:00	6040	486	-10.7	-16.4	293	25	
2025-07-16T00:00	6060	485	-10.9	-16.5	292	25	
2025-07-16T00:00	6080	483	-11.0	-16.5	292	26	
2025-07-16T00:00	6100	482	-11.1	-16.5	291	27	
2025-07-16T00:00	6120	481	-11.2	-16.3	291	27	
2025-07-16T00:00	6140	480	-11.4	-16.2	291	27	
2025-07-16T00:00	6160	478	-11.4	-16.2	291	27	
2025-07-16T00:00	6180	477	-11.4	-16.5	291	27	
2025-07-16T00:00	6200	476	-11.5	-17.0	291	27	
2025-07-16T00:00	6220	475	-11.7	-17.1	291	26	
2025-07-16T00:00	6240	473	-11.9	-17.2	292	25	
2025-07-16T00:00	6260	472	-12.0	-17.3	292	25	
2025-07-16T00:00	6280	471	-12.2	-17.3	291	25	
2025-07-16T00:00	6300	470	-12.4	-17.6	291	24	
2025-07-16T00:00	6320	468	-12.5	-18.2	290	24	
2025-07-16T00:00	6340	467	-12.6	-18.4	289	25	
2025-07-16T00:00	6360	466	-12.8	-18.6	289	25	
2025-07-16T00:00	6380	465	-12.9	-18.7	288	25	
2025-07-16T00:00	6400	463	-13.1	-18.6	288	25	
2025-07-16T00:00	6420	462	-13.3	-18.6	288	25	
2025-07-16T00:00	6440	461	-13.4	-18.6	288	25	
2025-07-16T00:00	6460	460	-13.6	-18.6	289	26	
2025-07-16T00:00	6480	459	-13.8	-18.6	289	26	
2025-07-16T00:00	6500	458	-14.0	-18.7	289	26	
2025-07-16T00:00	6520	456	-14.2	-18.7	289	26	
2025-07-16T00:00	6540	455	-14.4	-18.7	290	26	
2025-07-16T00:00	6560	454	-14.6	-18.8	290	26	
2025-07-16T00:00	6580	453	-14.7	-18.8	291	26	
2025-07-16T00:00	6600	452	-14.9	-18.8	291	26	
2025-07-16T00:00	6620	450	-15.1	-18.9	291	25	
2025-07-16T00:00	6640	449	-15.3	-19.1	291	25	
2025-07-16T00:00	6660	448	-15.5	-19.2	290	25	
2025-07-16T00:00	6680	447	-15.7	-19.3	290	25	
2025-07-16T00:00	6700	446	-15.8	-19.2	290	25	
2025-07-16T00:00	6720	444	-16.0	-19.2	290	25	
2025-07-16T00:00	6740	443	-16.2	-19.3	289	26	
2025-07-16T00:00	6760	442	-16.4	-19.3	289	26	
2025-07-16T00:00	6780	441	-16.6	-19.4	289	26	
2025-07-16T00:00	6800	440	-16.7	-19.7	289	26	
2025-07-16T00:00	6820	438	-16.8	-20.2	290	27	
2025-07-16T00:00	6840	437	-16.8	-20.2	291	27	
2025-07-16T00:00	6860	436	-17.0	-20.5	293	27	
2025-07-16T00:00	6880	435	-16.9	-21.1	294	27	
2025-07-16T00:00	6900	434	-17.1	-21.1	296	27	
2025-07-16T00:00	6920	433	-17.2	-21.1	297	27	
2025-07-16T00:00	6940	432	-17.4	-21.1	297	26	
2025-07-16T00:00	6960	430	-17.6	-21.2	296	26	
2025-07-16T00:00	6980	429	-17.8	-21.2	295	25	
2025-07-16T00:00	7000	428	-18.0	-21.2	294	25	
2025-07-16T00:00	7020	427	-18.2	-21.3	294	26	
2025-07-16T00:00	7040	426	-18.4	-21.4	294	26	
2025-07-16T00:00	7060	425	-18.6	-21.3	295	26	
2025-07-16T00:00	7080	424	-18.8	-21.4	295	26	
2025-07-16T00:00	7100	422	-19.0	-21.4	296	27	
2025-07-16T00:00	7120	421	-19.2	-21.5	296	27	
2025-07-16T00:00	7140	420	-19.3	-21.5	296	28	
2025-07-16T00:00	7160	419	-19.6	-21.5	296	28	
2025-07-16T00:00	7180	418	-19.7	-21.4	296	28	
2025-07-16T00:00	7200	417	-20.0	-21.5	296	28	
2025-07-16T00:00	7220	416	-20.2	-21.6	296	28	
2025-07-16T00:00	7240	415	-20.4	-21.5	296	28	
2025-07-16T00:00	7260	413	-20.6	-21.6	295	28	
2025-07-16T00:00	7280	412	-20.7	-21.6	295	28	
2025-07-16T00:00	7300	411	-20.9	-21.8	295	28	
2025-07-16T00:00	7320	410	-21.1	-22.1	295	28	
2025-07-16T00:00	7340	409	-21.3	-22.1	294	28	
2025-07-16T00:00	7360	408	-21.5	-22.1	294	28	
2025-07-16T00:00	7380	407	-21.7	-22.2	293	28	
2025-07-16T00:00	7400	406	-21.9	-22.5	292	28	
2025-07-16T00:00	7420	405	-22.1	-22.5	291	28	
2025-07-16T00:00	7440	403	-22.3	-22.6	291	28	
2025-07-16T00:00	7460	402	-22.5	-22.6	291	28	
2025-07-16T00:00	7480	401	-22.5	-22.6	291	28	
2025-07-16T00:00	7500	400	-22.7	-22.9	291	28	
2025-07-16T00:00	7520	399	-22.9	-22.9	292	29	
2025-07-16T00:00	7540	398	-23.1	-23.2	292	29	
2025-07-16T00:00	7560	397	-23.3	-23.5	293	29	
2025-07-16T00:00	7580	396	-23.4	-23.5	293	29	
2025-07-16T00:00	7600	395	-23.5	-23.7	293	30	
2025-07-16T00:00	7620	394	-23.4	-24.3	293	30	
2025-07-16T00:00	7640	393	-22.9	-25.7	293	30	
2025-07-16T00:00	7660	392	-22.7	-25.9	293	30	
2025-07-16T00:00	7680	391	-22.7	-26.1	293	31	
2025-07-16T00:00	7700	389	-22.8	-26.5	293	31	
2025-07-16T00:00	7720	388	-22.9	-27.2	293	31	
2025-07-16T00:00	7740	387	-22.9	-27.7	292	32	
2025-07-16T00:00	7760	386	-22.9	-28.0	292	32	
2025-07-16T00:00	7780	385	-23.0	-28.1	292	32	
2025-07-16T00:00	7800	384	-23.0	-28.1	292	32	
2025-07-16T00:00	7820	383	-23.1	-28.2	291	33	
2025-07-16T00:00	7840	382	-23.2	-28.4	291	33	
2025-07-16T00:00	7860	381	-23.3	-28.6	290	33	
2025-07-16T00:00	7880	380	-23.4	-28.9	290	33	
2025-07-16T00:00	7900	379	-23.6	-28.8	290	33	
2025-07-16T00:00	7920	378	-23.7	-28.7	289	33	
2025-07-16T00:00	7940	377	-23.9	-28.6	289	33	
2025-07-16T00:00	7960	376	-24.1	-28.7	289	33	
2025-07-16T00:00	7980	375	-24.3	-28.9	288	33	
2025-07-16T00:00	8000	374	-24.4	-29.3	288	33	
2025-07-16T00:00	8020	373	-24.5	-29.7	288	33	
2025-07-16T00:00	8040	372	-24.6	-30.0	287	33	
2025-07-16T00:00	8060	371	-24.8	-30.0	287	32	
2025-07-16T00:00	8080	370	-25.0	-30.2	287	32	
2025-07-16T00:00	8100	369	-25.1	-30.2	287	33	
2025-07-16T00:00	8120	368	-25.2	-29.9	287	33	
2025-07-16T00:00	8140	367	-25.4	-30.5	287	33	
2025-07-16T00:00	8160	366	-25.5	-30.9	287	33	
2025-07-16T00:00	8180	365	-25.6	-30.9	287	33	
2025-07-16T00:00	8200	364	-25.7	-31.2	287	33	
2025-07-16T00:00	8220	363	-25.8	-31.4	287	33	
2025-07-16T00:00	8240	362	-26.0	-31.6	288	34	
2025-07-16T00:00	8260	361	-26.2	-31.5	288	34	
2025-07-16T00:00	8280	360	-26.3	-31.7	288	34	
2025-07-16T00:00	8300	359	-26.5	-31.7	288	34	
2025-07-16T00:00	8320	358	-26.7	-31.9	289	34	
2025-07-16T00:00	8340	357	-26.8	-32.0	289	34	
2025-07-16T00:00	8360	356	-27.0	-31.9	289	34	
2025-07-16T00:00	8380	355	-27.2	-31.9	290	34	
2025-07-16T00:00	8400	354	-27.4	-32.0	290	34	
2025-07-16T00:00	8420	353	-27.5	-32.3	291	33	
2025-07-16T00:00	8440	352	-27.6	-32.3	291	33	
2025-07-16T00:00	8460	351	-27.8	-32.4	291	33	
2025-07-16T00:00	8480	350	-28.0	-32.4	292	33	
2025-07-16T00:00	8500	349	-28.2	-32.6	292	33	
2025-07-16T00:00	8520	348	-28.4	-32.7	292	33	
2025-07-16T00:00	8540	347	-28.6	-32.7	292	33	
2025-07-16T00:00	8560	346	-28.7	-32.7	292	33	
2025-07-16T00:00	8580	345	-28.9	-32.8	291	34	
2025-07-16T00:00	8600	344	-29.1	-32.8	291	34	
2025-07-16T00:00	8620	343	-29.3	-32.9	291	34	
2025-07-16T00:00	8640	342	-29.5	-33.2	290	34	
2025-07-16T00:00	8660	341	-29.6	-33.8	290	34	
2025-07-16T00:00	8680	340	-29.6	-34.4	290	34	
2025-07-16T00:00	8700	339	-29.7	-34.7	289	34	
2025-07-16T00:00	8720	338	-29.8	-35.4	288	34	
2025-07-16T00:00	8740	337	-29.8	-36.7	288	34	
2025-07-16T00:00	8760	336	-29.8	-36.9	287	34	
2025-07-16T00:00	8780	335	-29.9	-37.1	287	34	
2025-07-16T00:00	8800	334	-30.1	-37.2	286	34	
2025-07-16T00:00	8820	334	-30.2	-37.5	286	34	
2025-07-16T00:00	8840	333	-30.3	-38.7	286	34	
2025-07-16T00:00	8860	332	-30.3	-40.1	286	35	
2025-07-16T00:00	8880	331	-30.4	-40.8	286	35	
2025-07-16T00:00	8900	330	-30.5	-40.6	287	35	
2025-07-16T00:00	8920	329	-30.7	-40.5	287	34	
2025-07-16T00:00	8940	328	-30.8	-40.8	288	34	
2025-07-16T00:00	8960	327	-31.0	-40.9	288	34	
2025-07-16T00:00	8980	326	-31.1	-40.5	289	34	
2025-07-16T00:00	9000	325	-31.2	-41.6	289	34	
2025-07-16T00:00	9020	324	-31.2	-43.4	289	35	
2025-07-16T00:00	9040	323	-31.3	-43.8	290	35	
2025-07-16T00:00	9060	322	-31.5	-43.8	290	35	
2025-07-16T00:00	9080	321	-31.6	-44.1	291	34	
2025-07-16T00:00	9100	321	-31.8	-44.1	291	34	
2025-07-16T00:00	9120	320	-32.0	-44.1	292	34	
2025-07-16T00:00	9140	319	-32.2	-44.1	292	34	
2025-07-16T00:00	9160	318	-32.4	-44.3	293	34	
2025-07-16T00:00	9180	317	-32.6	-44.5	293	33	
2025-07-16T00:00	9200	316	-32.7	-44.7	293	33	
2025-07-16T00:00	9220	315	-32.9	-44.7	293	33	
2025-07-16T00:00	9240	314	-33.1	-44.8	293	33	
2025-07-16T00:00	9260	313	-33.3	-45.1	293	33	
2025-07-16T00:00	9280	313	-33.5	-45.2	294	33	
2025-07-16T00:00	9300	312	-33.6	-45.2	294	33	
2025-07-16T00:00	9320	311	-33.9	-45.3	294	33	
2025-07-16T00:00	9340	310	-34.0	-45.6	295	33	
2025-07-16T00:00	9360	309	-34.2	-45.8	295	34	
2025-07-16T00:00	9380	308	-34.4	-45.8	295	34	
2025-07-16T00:00	9400	307	-34.6	-45.8	295	34	
2025-07-16T00:00	9420	306	-34.8	-45.9	295	34	
2025-07-16T00:00	9440	305	-35.0	-46.1	295	34	
2025-07-16T00:00	9460	305	-35.2	-46.2	295	34	
2025-07-16T00:00	9480	304	-35.4	-46.1	295	34	
2025-07-16T00:00	9500	303	-35.5	-46.5	295	34	
2025-07-16T00:00	9520	302	-35.7	-46.8	295	34	
2025-07-16T00:00	9540	301	-35.8	-47.1	295	34	
2025-07-16T00:00	9560	300	-36.0	-47.2	296	34	
2025-07-16T00:00	9580	299	-36.2	-47.4	297	34	
2025-07-16T00:00	9600	299	-36.3	-47.5	298	34	
2025-07-16T00:00	9620	298	-36.5	-47.7	299	34	
2025-07-16T00:00	9640	297	-36.7	-47.7	300	34	
2025-07-16T00:00	9660	296	-36.9	-47.6	301	35	
2025-07-16T00:00	9680	295	-37.1	-48.0	301	35	
2025-07-16T00:00	9700	294	-37.2	-48.2	302	35	
2025-07-16T00:00	9720	293	-37.4	-48.2	302	35	
2025-07-16T00:00	9740	292	-37.6	-48.1	302	35	
2025-07-16T00:00	9760	292	-37.7	-48.2	303	35	
2025-07-16T00:00	9780	291	-37.9	-48.4	303	35	
2025-07-16T00:00	9800	290	-38.0	-48.5	303	36	
2025-07-16T00:00	9820	289	-38.2	-48.6	304	36	
2025-07-16T00:00	9840	288	-38.4	-48.7	304	36	
2025-07-16T00:00	9860	287	-38.6	-48.7	304	36	
2025-07-16T00:00	9880	287	-38.7	-48.7	304	37	
2025-07-16T00:00	9900	286	-38.9	-48.7	304	37	
2025-07-16T00:00	9920	285	-39.1	-48.9	304	37	
2025-07-16T00:00	9940	284	-39.2	-48.8	303	37	
2025-07-16T00:00	9960	283	-39.4	-48.9	303	38	
2025-07-16T00:00	9980	282	-39.5	-49.2	303	38	
2025-07-16T00:00	10000	282	-39.7	-49.1	303	39	
2025-07-16T00:00	10018	281	-39.8	-48.9	303	39	
2025-07-16T00:00	10050	280	-40.0	-48.6	303	39	
2025-07-16T00:00	10100	278	-40.4	-48.1	302	39	
2025-07-16T00:00	10150	276	-40.8	-47.8	302	39	
2025-07-16T00:00	10200	273	-41.3	-48.4	303	39	
2025-07-16T00:00	10250	271	-41.7	-48.8	304	39	
2025-07-16T00:00	10300	270	-42.1	-48.7	304	39	
2025-07-16T00:00	10350	267	-42.6	-48.8	305	40	
2025-07-16T00:00	10400	265	-43.1	-49.2	304	40	
2025-07-16T00:00	10450	263	-43.5	-49.5	303	41	
2025-07-16T00:00	10500	262	-43.8	-49.9	302	41	
2025-07-16T00:00	10550	260	-44.2	-50.0	301	41	
2025-07-16T00:00	10600	258	-44.6	-50.2	300	41	
2025-07-16T00:00	10650	256	-45.1	-50.1	301	41	
2025-07-16T00:00	10700	254	-45.6	-50.1	302	41	
2025-07-16T00:00	10750	252	-46.0	-50.2	302	41	
2025-07-16T00:00	10800	250	-46.5	-50.2	302	40	
2025-07-16T00:00	10850	248	-46.9	-49.8	302	40	
2025-07-16T00:00	10900	246	-47.4	-49.7	302	41	
2025-07-16T00:00	10950	245	-47.9	-50.0	301	41	
2025-07-16T00:00	11000	243	-48.4	-50.0	301	42	
2025-07-16T00:00	11050	241	-48.8	-51.0	301	42	
2025-07-16T00:00	11100	239	-49.1	-52.8	302	43	
2025-07-16T00:00	11150	237	-49.4	-53.5	302	43	
2025-07-16T00:00	11200	235	-49.7	-53.8	302	43	
2025-07-16T00:00	11250	234	-50.1	-54.1	301	43	
2025-07-16T00:00	11300	232	-50.5	-54.4	300	43	
2025-07-16T00:00	11350	230	-50.9	-55.0	299	43	
2025-07-16T00:00	11400	228	-51.3	-55.5	297	43	
2025-07-16T00:00	11450	226	-51.7	-55.8	297	43	
2025-07-16T00:00	11500	225	-52.1	-56.4	297	44	
2025-07-16T00:00	11550	223	-52.4	-57.2	297	44	
2025-07-16T00:00	11600	221	-52.7	-58.1	297	44	
2025-07-16T00:00	11650	220	-53.1	-58.7	297	44	
2025-07-16T00:00	11700	218	-53.5	-58.2	297	44	
2025-07-16T00:00	11750	216	-53.9	-58.3	297	43	
2025-07-16T00:00	11800	215	-54.2	-58.6	298	43	
2025-07-16T00:00	11850	213	-54.7	-58.7	298	43	
2025-07-16T00:00	11900	211	-55.2	-58.9	298	43	
2025-07-16T00:00	11950	210	-55.7	-59.1	298	43	
2025-07-16T00:00	12000	208	-56.2	-59.2	299	44	
2025-07-16T00:00	12050	206	-56.6	-59.5	299	44	
2025-07-16T00:00	12100	205	-57.1	-59.6	299	44	
2025-07-16T00:00	12150	203	-57.6	-59.7	299	44	
2025-07-16T00:00	12200	201	-58.1	-59.9	299	44	
2025-07-16T00:00	12250	200	-58.5	-60.4	298	44	
2025-07-16T00:00	12300	198	-58.6	-60.9	298	44	
2025-07-16T00:00	12350	197	-59.0	-61.5	299	44	
2025-07-16T00:00	12400	195	-59.4	-61.7	299	44	
2025-07-16T00:00	12450	194	-59.9	-62.1	299	44	
2025-07-16T00:00	12500	192	-60.3	-62.8	299	44	
2025-07-16T00:00	12550	190	-60.4	-63.9	300	44	
2025-07-16T00:00	12600	189	-60.4	-64.7	301	44	
2025-07-16T00:00	12650	187	-60.7	-65.0	303	43	
2025-07-16T00:00	12700	186	-61.0	-65.0	305	43	
2025-07-16T00:00	12750	184	-61.3	-65.5	307	43	
2025-07-16T00:00	12800	183	-61.4	-66.4	308	42	
2025-07-16T00:00	12850	182	-61.1	-67.6	307	40	
2025-07-16T00:00	12900	180	-60.7	-69.4	305	38	
2025-07-16T00:00	12950	179	-60.2	-71.1	302	38	
2025-07-16T00:00	13000	177	-59.8	-72.4	300	38	
2025-07-16T00:00	13050	176	-59.5	-72.9	300	39	
2025-07-16T00:00	13100	174	-59.4	-73.3	301	40	
2025-07-16T00:00	13150	173	-58.7	-74.2	304	39	
2025-07-16T00:00	13200	172	-57.8	-75.9	306	37	
2025-07-16T00:00	13250	170	-57.1	-77.2	307	36	
2025-07-16T00:00	13300	169	-57.1	-77.9	307	34	
2025-07-16T00:00	13350	168	-56.9	-78.7	307	33	
2025-07-16T00:00	13400	166	-56.1	-79.6	308	31	
2025-07-16T00:00	13450	165	-55.9	-80.1	309	30	
2025-07-16T00:00	13500	164	-55.3	-80.0	307	28	
2025-07-16T00:00	13550	162	-55.3	-80.1	305	26	
2025-07-16T00:00	13600	161	-55.6	-80.1	302	25	
2025-07-16T00:00	13650	160	-55.7	-80.1	300	25	
2025-07-16T00:00	13700	159	-55.7	-80.3	299	26	
2025-07-16T00:00	13750	157	-55.8	-80.4	299	26	
2025-07-16T00:00	13800	156	-55.9	-80.5	297	27	
2025-07-16T00:00	13850	155	-56.0	-80.5	294	27	
2025-07-16T00:00	13900	154	-56.2	-80.4	293	28	
2025-07-16T00:00	13950	153	-56.3	-80.4	293	28	
2025-07-16T00:00	14000	151	-56.5	-80.5	295	29	
2025-07-16T00:00	14050	150	-56.1	-80.5	296	30	
2025-07-16T00:00	14100	149	-56.2	-80.9	298	30	
2025-07-16T00:00	14150	148	-56.0	-81.2	300	31	
2025-07-16T00:00	14200	147	-55.9	-81.4	302	31	
2025-07-16T00:00	14250	145	-55.9	-81.6	303	31	
2025-07-16T00:00	14300	144	-56.0	-81.7	304	30	
2025-07-16T00:00	14350	143	-56.2	-81.8	305	29	
2025-07-16T00:00	14400	142	-56.4	-81.8	306	27	
2025-07-16T00:00	14450	141	-56.5	-81.8	306	26	
2025-07-16T00:00	14500	140	-56.6	-81.7	305	25	
2025-07-16T00:00	14550	139	-56.8	-81.7	304	24	
2025-07-16T00:00	14600	138	-57.2	-81.7	303	24	
2025-07-16T00:00	14650	137	-57.6	-81.9	300	23	
2025-07-16T00:00	14700	135	-57.9	-81.9	297	22	
2025-07-16T00:00	14750	134	-58.2	-81.9	294	21	
2025-07-16T00:00	14800	133	-58.4	-82.0	290	21	
2025-07-16T00:00	14850	132	-58.6	-82.3	288	21	
2025-07-16T00:00	14900	131	-58.6	-82.8	289	22	
2025-07-16T00:00	14950	130	-58.7	-83.1	291	22	
2025-07-16T00:00	15000	129	-58.7	-83.3	292	23	
2025-07-16T00:00	15050	128	-58.9	-83.4	293	24	
2025-07-16T00:00	15100	127	-59.0	-83.5	293	25	
2025-07-16T00:00	15150	126	-59.1	-83.6	293	25	
2025-07-16T00:00	15200	125	-59.3	-83.7	292	26	
2025-07-16T00:00	15250	124	-59.7	-83.9	293	26	
2025-07-16T00:00	15300	123	-59.6	-84.0	294	26	
2025-07-16T00:00	15350	122	-59.4	-84.2	296	26	
2025-07-16T00:00	15400	121	-59.0	-84.3	299	26	
2025-07-16T00:00	15450	120	-59.1	-84.4	302	25	
2025-07-16T00:00	15500	119	-59.2	-84.5	304	24	
2025-07-16T00:00	15550	118	-59.0	-84.6	304	23	
2025-07-16T00:00	15600	117	-58.9	-84.7	303	22	
2025-07-16T00:00	15650	116	-59.0	-84.6	301	22	
2025-07-16T00:00	15700	116	-59.2	-84.7	298	21	
2025-07-16T00:00	15750	115	-58.7	-84.8	295	21	
2025-07-16T00:00	15800	114	-58.1	-84.7	291	21	
2025-07-16T00:00	15850	113	-58.2	-84.7	289	22	
2025-07-16T00:00	15900	112	-58.5	-84.6	289	23	
2025-07-16T00:00	15950	111	-58.6	-84.8	291	24	
2025-07-16T00:00	16000	110	-58.2	-84.8	294	25	
2025-07-16T00:00	16050	109	-58.0	-84.7	296	25	
2025-07-16T00:00	16100	108	-58.1	-84.8	298	25	
2025-07-16T00:00	16150	108	-57.9	-84.8	301	23	
2025-07-16T00:00	16200	107	-57.5	-84.8	304	22	
2025-07-16T00:00	16250	106	-57.4	-84.7	306	20	
2025-07-16T00:00	16300	105	-57.4	-84.7	307	19	
2025-07-16T00:00	16350	104	-57.0	-84.6	308	18	
2025-07-16T00:00	16400	103	-56.8	-84.6	306	17	
2025-07-16T00:00	16450	103	-56.9	-84.6	303	16	
2025-07-16T00:00	16500	102	-56.8	-84.6	302	16	
2025-07-16T00:00	16550	101	-56.3	-84.6	303	16	
2025-07-16T00:00	16600	100	-56.0	-84.5	304	15	
2025-07-16T00:00	16650	99	-55.8	-84.6	305	14	
2025-07-16T00:00	16700	99	-54.9	-84.3	304	12	
2025-07-16T00:00	16750	98	-54.7	-84.4	303	10	
2025-07-16T00:00	16800	97	-53.7	-84.0	302	8	
2025-07-16T00:00	16850	96	-53.3	-83.7	297	7	
2025-07-16T00:00	16900	96	-53.6	-83.6	290	7	
2025-07-16T00:00	16950	95	-53.9	-83.6	282	6	
2025-07-16T00:00	17000	94	-54.2	-83.6	276	6	
2025-07-16T00:00	17050	93	-54.5	-83.7	272	6	
2025-07-16T00:00	17100	93	-54.9	-83.8	271	7	
2025-07-16T00:00	17150	92	-55.2	-83.9	269	8	
2025-07-16T00:00	17200	91	-55.6	-84.1	268	8	
2025-07-16T00:00	17250	90	-56.0	-84.2	269	9	
2025-07-16T00:00	17300	90	-56.2	-84.4	273	9	
2025-07-16T00:00	17350	89	-56.3	-84.4	276	9	
2025-07-16T00:00	17400	88	-56.5	-84.5	279	10	
2025-07-16T00:00	17450	88	-56.8	-84.6	282	10	
2025-07-16T00:00	17500	87	-57.3	-84.7	286	10	
2025-07-16T00:00	17550	86	-57.6	-84.8	291	10	
2025-07-16T00:00	17600	86	-58.0	-85.0	295	11	
2025-07-16T00:00	17650	85	-58.3	-85.4	300	11	
2025-07-16T00:00	17700	84	-57.7	-85.3	306	11	
2025-07-16T00:00	17750	84	-57.6	-85.5	310	11	
2025-07-16T00:00	17800	83	-56.6	-85.2	312	10	
2025-07-16T00:00	17850	82	-56.2	-84.9	314	10	
2025-07-16T00:00	17900	82	-56.4	-84.9	314	9	
2025-07-16T00:00	17950	81	-56.7	-84.8	313	8	
2025-07-16T00:00	18000	80	-57.1	-84.8	309	7	
2025-07-16T00:00	18050	80	-57.3	-84.9	304	7	
2025-07-16T00:00	18100	79	-57.6	-85.1	297	6	
2025-07-16T00:00	18150	78	-57.8	-85.1	288	5	
2025-07-16T00:00	18200	78	-58.2	-85.3	277	5	
2025-07-16T00:00	18250	77	-58.3	-85.5	266	6	
2025-07-16T00:00	18300	77	-58.0	-85.6	258	7	
2025-07-16T00:00	18350	76	-57.4	-85.5	253	7	
2025-07-16T00:00	18400	75	-57.3	-85.4	253	8	
2025-07-16T00:00	18450	75	-57.3	-85.4	254	9	
2025-07-16T00:00	18500	74	-57.2	-85.4	255	10	
2025-07-16T00:00	18550	74	-57.3	-85.4	259	11	
2025-07-16T00:00	18600	73	-57.3	-85.5	269	11	
2025-07-16T00:00	18650	72	-56.8	-85.6	284	10	
2025-07-16T00:00	18700	72	-56.1	-85.4	298	9	
2025-07-16T00:00	18750	71	-55.6	-85.3	308	8	
2025-07-16T00:00	18800	71	-55.2	-85.0	316	8	
2025-07-16T00:00	18850	70	-54.8	-84.7	325	8	
2025-07-16T00:00	18900	70	-55.0	-84.6	335	8	
2025-07-16T00:00	18950	69	-55.4	-84.6	344	7	
2025-07-16T00:00	19000	69	-55.6	-84.6	350	7	
2025-07-16T00:00	19050	68	-55.7	-84.7	352	7	
2025-07-16T00:00	19100	68	-55.9	-84.7	352	8	
2025-07-16T00:00	19150	67	-56.1	-84.9	353	7	
2025-07-16T00:00	19200	67	-56.2	-85.1	355	6	
2025-07-16T00:00	19250	66	-56.1	-85.2	354	5	
2025-07-16T00:00	19300	65	-55.9	-85.1	347	4	
2025-07-16T00:00	19350	65	-56.0	-85.1	342	4	
2025-07-16T00:00	19400	64	-55.8	-85.1	343	5	
2025-07-16T00:00	19450	64	-55.6	-85.0	344	5	
2025-07-16T00:00	19500	63	-55.4	-85.0	343	5	
2025-07-16T00:00	19550	63	-55.3	-85.0	341	4	
2025-07-16T00:00	19600	62	-55.1	-84.8	330	3	
2025-07-16T00:00	19650	62	-55.1	-84.7	305	2	
2025-07-16T00:00	19700	61	-55.3	-84.6	279	3	
2025-07-16T00:00	19750	61	-55.6	-84.8	268	3	
2025-07-16T00:00	19800	61	-55.5	-85.0	275	4	
2025-07-16T00:00	19850	60	-55.3	-84.9	285	5	
2025-07-16T00:00	19900	60	-55.2	-84.7	287	5	
2025-07-16T00:00	19950	59	-55.4	-84.7	284	6	
2025-07-16T00:00	20000	59	-55.8	-84.7	285	6	
2025-07-16T00:00	20050	58	-56.3		291	7	
2025-07-16T00:00	20100	58	-56.4		298	8	
2025-07-16T00:00	20150	57	-56.6		306	9	
2025-07-16T00:00	20200	57	-56.7		315	9	
2025-07-16T00:00	20250	56	-56.6		328	8	
2025-07-16T00:00	20300	56	-56.8		342	8	
2025-07-16T00:00	20350	56	-56.6		357	8	
2025-07-16T00:00	20400	55	-56.7		10	8	
2025-07-16T00:00	20450	55	-56.8		18	8	
2025-07-16T00:00	20500	54	-56.7		17	7	
2025-07-16T00:00	20550	54	-56.5		12	6	
2025-07-16T00:00	20600	53	-56.6		6	6	
2025-07-16T00:00	20650	53	-56.6		6	7	
2025-07-16T00:00	20700	53	-56.5		11	8	
2025-07-16T00:00	20750	52	-56.4		13	8	
2025-07-16T00:00	20800	52	-56.3		16	7	
2025-07-16T00:00	20850	51	-56.1		23	6	
2025-07-16T00:00	20900	51	-55.8		33	6	
2025-07-16T00:00	20950	51	-55.8		40	6	
2025-07-16T00:00	21000	50	-56.1		40	6	
2025-07-16T00:00	21050	50	-56.2		31	5	
2025-07-16T00:00	21100	49	-56.3		22	5	
2025-07-16T00:00	21150	49	-56.3		21	6	
2025-07-16T00:00	21200	49	-56.2		28	6	
2025-07-16T00:00	21250	48	-56.4		37	6	
2025-07-16T00:00	21300	48	-56.6		45	6	
2025-07-16T00:00	21350	47	-56.7		52	6	
2025-07-16T00:00	21400	47	-56.8		57	7	
2025-07-16T00:00	21450	47	-56.4		59	8	
2025-07-16T00:00	21500	46	-56.1		62	9	
2025-07-16T00:00	21550	46	-55.9		64	8	
2025-07-16T00:00	21600	46	-55.9		65	7	
2025-07-16T00:00	21650	45	-56.0		70	7	
2025-07-16T00:00	21700	45	-56.0		76	7	
2025-07-16T00:00	21750	45	-55.9		84	6	
2025-07-16T00:00	21800	44	-55.9		96	4	
2025-07-16T00:00	21850	44	-55.9		113	3	
2025-07-16T00:00	21900	43	-55.9		127	3	
2025-07-16T00:00	21950	43	-56.0		115	2	
2025-07-16T00:00	22000	43	-55.7		80	2	
2025-07-16T00:00	22050	42	-55.5		73	3	
2025-07-16T00:00	22100	42	-55.2		92	2	
2025-07-16T00:00	22150	42	-55.1		109	2	
2025-07-16T00:00	22200	41	-55.1		94	1	
2025-07-16T00:00	22250	41	-54.7		57	2	
2025-07-16T00:00	22300	41	-54.5		49	4	
2025-07-16T00:00	22350	41	-54.6		50	6	
2025-07-16T00:00	22400	40	-54.5		53	8	
2025-07-16T00:00	22450	40	-54.5		59	10	
2025-07-16T00:00	22500	40	-54.5		65	12	
2025-07-16T00:00	22550	39	-54.3		71	12	
2025-07-16T00:00	22600	39	-54.4		78	12	
2025-07-16T00:00	22650	39	-54.5		86	11	
2025-07-16T00:00	22700	38	-54.5		93	10	
2025-07-16T00:00	22750	38	-54.7		100	10	
2025-07-16T00:00	22800	38	-54.8		108	9	
2025-07-16T00:00	22850	37	-55.1		115	9	
2025-07-16T00:00	22900	37	-55.3		119	8	
2025-07-16T00:00	22950	37	-55.4		119	7	
2025-07-16T00:00	23000	37	-55.4		114	6	
2025-07-16T00:00	23050	36	-55.3		103	5	
2025-07-16T00:00	23100	36	-55.1		94	5	
2025-07-16T00:00	23150	36	-54.9		86	5	
2025-07-16T00:00	23200	35	-55.0		76	6	
2025-07-16T00:00	23250	35	-54.7		70	7	
2025-07-16T00:00	23300	35	-54.7		69	8	
2025-07-16T00:00	23350	35	-54.9		71	9	
2025-07-16T00:00	23400	34	-54.9		75	11	
2025-07-16T00:00	23450	34	-55.0		79	12	
2025-07-16T00:00	23500	34	-55.0		83	12	
2025-07-16T00:00	23550	34	-55.0		87	12	
2025-07-16T00:00	23600	33	-55.3		90	11	
2025-07-16T00:00	23650	33	-55.4		92	10	
2025-07-16T00:00	23700	33	-55.2		92	10	
2025-07-16T00:00	23750	33	-54.9		92	11	
2025-07-16T00:00	23800	32	-54.3		94	11	
2025-07-16T00:00	23850	32	-53.4		97	11	
2025-07-16T00:00	23900	32	-53.3		100	11	
2025-07-16T00:00	23950	32	-53.3		104	11	
2025-07-16T00:00	24000	31	-53.4		105	12	
2025-07-16T00:00	24050	31	-53.4		103	11	
2025-07-16T00:00	24100	31	-53.2		98	11	
2025-07-16T00:00	24150	31	-53.3		96	11	
2025-07-16T00:00	24200	30	-52.8		98	12	
2025-07-16T00:00	24250	30	-52.6		101	12	
2025-07-16T00:00	24300	30	-52.4		105	11	
2025-07-16T00:00	24350	30	-52.6		109	10	
2025-07-16T00:00	24400	29	-52.7		112	9	
2025-07-16T00:00	24450	29	-52.8		114	8	
2025-07-16T00:00	24500	29	-53.0		114	7	
2025-07-16T00:00	24550	29	-52.7		109	6	
2025-07-16T00:00	24600	29	-52.2		95	5	
2025-07-16T00:00	24650	28	-51.8		79	5	
2025-07-16T00:00	24700	28	-51.4		72	6	
2025-07-16T00:00	24750	28	-51.0		72	6	
2025-07-16T00:00	24800	28	-50.7		73	7	
2025-07-16T00:00	24850	27	-50.6		73	7	
2025-07-16T00:00	24900	27	-50.5		68	8	
2025-07-16T00:00	24950	27	-50.2		60	8	
2025-07-16T00:00	25000	27	-50.1		53	10	
2025-07-16T00:00	25050	27	-50.1		49	11	
2025-07-16T00:00	25100	26	-49.9		47	11	
2025-07-16T00:00	25150	26	-49.6		47	10	
2025-07-16T00:00	25200	26	-49.8		49	9	
2025-07-16T00:00	25250	26	-50.1		57	7	
2025-07-16T00:00	25300	26	-50.3		71	6	
2025-07-16T00:00	25350	25	-50.2		83	6	
2025-07-16T00:00	25400	25	-50.0		82	7	
2025-07-16T00:00	25450	25	-49.9		74	7	
2025-07-16T00:00	25500	25	-49.8		66	8	
2025-07-16T00:00	25550	25	-49.8		63	9	
2025-07-16T00:00	25600	24	-49.6		64	10	
2025-07-16T00:00	25650	24	-49.4		70	11	
2025-07-16T00:00	25700	24	-49.2		74	12	
2025-07-16T00:00	25750	24	-49.1		75	12	
2025-07-16T00:00	25800	24	-49.1		74	11	
2025-07-16T00:00	25850	24	-49.2		72	11	
2025-07-16T00:00	25900	23	-49.3		67	11	
2025-07-16T00:00	25950	23	-49.2		61	11	
2025-07-16T00:00	26000	23	-49.1		57	12	
2025-07-16T00:00	26050	23	-48.9		54	13	
2025-07-16T00:00	26100	23	-48.8		55	13	
2025-07-16T00:00	26150	22	-48.7		57	14	
2025-07-16T00:00	26200	22	-48.7		59	14	
2025-07-16T00:00	26250	22	-48.9		61	15	
2025-07-16T00:00	26300	22	-49.0		63	15	
2025-07-16T00:00	26350	22	-49.2		68	15	
2025-07-16T00:00	26400	22	-49.3		74	15	
2025-07-16T00:00	26450	21	-49.1		78	15	
2025-07-16T00:00	26500	21	-49.0		80	15	
2025-07-16T00:00	26550	21	-48.8		82	15	
2025-07-16T00:00	26600	21	-48.5		88	15	
2025-07-16T00:00	26650	21	-48.2		94	15	
2025-07-16T00:00	26700	21	-48.2		99	16	
2025-07-16T00:00	26750	21	-48.3		102	16	
2025-07-16T00:00	26800	20	-48.5		102	15	
2025-07-16T00:00	26850	20	-48.3		99	14	
2025-07-16T00:00	26900	20	-48.4		96	14	
2025-07-16T00:00	26950	20	-48.5		93	13	
2025-07-16T00:00	27000	20	-48.4		93	12	
2025-07-16T00:00	27050	20	-48.3		96	12	
2025-07-16T00:00	27100	19	-48.2		100	13	
2025-07-16T00:00	27150	19	-48.2		102	13	
2025-07-16T00:00	27200	19	-48.3		105	13	
2025-07-16T00:00	27250	19	-48.4		107	12	
2025-07-16T00:00	27300	19	-48.4		105	12	
2025-07-16T00:00	27350	19	-48.4		101	12	
2025-07-16T00:00	27400	19	-48.6		96	11	
2025-07-16T00:00	27450	18	-48.3		92	11	
2025-07-16T00:00	27500	18	-48.3		90	11	
2025-07-16T00:00	27550	18	-48.2		91	12	
2025-07-16T00:00	27600	18	-48.2		96	12	
2025-07-16T00:00	27650	18	-48.3		102	12	
2025-07-16T00:00	27700	18	-48.4		104	12	
2025-07-16T00:00	27750	18	-48.4		101	12	
2025-07-16T00:00	27800	18	-48.3		94	12	
2025-07-16T00:00	27850	17	-48.1		87	12	
2025-07-16T00:00	27900	17	-48.0		83	11	
2025-07-16T00:00	27950	17	-47.8		83	11	
2025-07-16T00:00	28000	17	-47.7		83	11	
2025-07-16T00:00	28050	17	-47.4		82	11	
2025-07-16T00:00	28100	17	-47.2		81	12	
2025-07-16T00:00	28150	17	-47.2		80	12	
2025-07-16T00:00	28200	16	-47.2		80	13	
2025-07-16T00:00	28250	16	-47.2		80	13	
2025-07-16T00:00	28300	16	-47.2		82	12	
2025-07-16T00:00	28350	16	-47.2		85	12	
2025-07-16T00:00	28400	16	-47.3		90	10	
2025-07-16T00:00	28450	16	-47.4		92	9	
2025-07-16T00:00	28500	16	-47.3		90	8	
2025-07-16T00:00	28550	16	-46.9		83	8	
2025-07-16T00:00	28600	16	-46.8		76	8	
2025-07-16T00:00	28650	15	-46.8		72	10	
2025-07-16T00:00	28700	15	-46.6		71	12	
2025-07-16T00:00	28750	15	-46.5		72	13	
2025-07-16T00:00	28800	15	-46.5		75	13	
2025-07-16T00:00	28850	15	-46.5		77	14	
2025-07-16T00:00	28900	15	-46.4		78	14	
2025-07-16T00:00	28950	15	-46.2		79	13	
2025-07-16T00:00	29000	15	-46.2		79	12	
2025-07-16T00:00	29050	14	-46.2		79	11	
2025-07-16T00:00	29100	14	-45.9		81	11	
2025-07-16T00:00	29150	14	-45.7		82	12	
2025-07-16T00:00	29200	14	-45.3		83	14	
2025-07-16T00:00	29250	14	-45.1		83	15	
2025-07-16T00:00	29300	14	-45.0		83	15	
2025-07-16T00:00	29350	14	-45.0		85	16	
2025-07-16T00:00	29400	14	-45.1		88	16	
2025-07-16T00:00	29450	14	-45.1		91	16	
2025-07-16T00:00	29500	14	-45.0		94	16	
2025-07-16T00:00	29550	13	-45.0		94	15	
2025-07-16T00:00	29600	13	-44.8		91	15	
2025-07-16T00:00	29650	13	-44.4		88	15	
2025-07-16T00:00	29700	13	-44.1		85	15	
2025-07-16T00:00	29750	13	-43.6		84	15	
2025-07-16T00:00	29800	13	-43.4		85	15	
2025-07-16T00:00	29850	13	-43.4		88	15	
2025-07-16T00:00	29900	13	-43.5		92	15	
2025-07-16T00:00	29950	13	-43.5		97	15	
2025-07-16T00:00	30000	13	-43.4		100	15	
2025-07-16T00:00	30050	12	-43.2		100	15	
2025-07-16T00:00	30100	12	-43.0		98	15	
2025-07-16T00:00	30150	12	-42.5		97	15	
2025-07-16T00:00	30200	12	-42.1		97	15	
2025-07-16T00:00	30250	12	-42.1		99	14	
2025-07-16T00:00	30300	12	-42.1		100	14	
2025-07-16T00:00	30350	12	-42.1		99	13	
2025-07-16T00:00	30400	12	-41.9		94	13	
2025-07-16T00:00	30450	12	-41.7		86	12	
2025-07-16T00:00	30500	12	-41.4		78	12	
2025-07-16T00:00	30550	12	-40.9		75	12	
2025-07-16T00:00	30600	12	-40.5		76	12	
2025-07-16T00:00	30650	11	-40.4		79	12	
2025-07-16T00:00	30700	11	-40.2		80	13	
2025-07-16T00:00	30750	11	-39.9		79	13	
2025-07-16T00:00	30800	11	-39.6		77	14	
2025-07-16T00:00	30850	11	-39.4		76	15	
2025-07-16T00:00	30900	11	-39.5		76	16	
2025-07-16T00:00	30950	11	-39.6		78	17	
2025-07-16T00:00	31000	11	-39.6		81	17	
2025-07-16T00:00	31050	11	-39.8		83	17	
2025-07-16T00:00	31100	11	-39.7		82	16	
2025-07-16T00:00	31150	11	-39.5		80	16	
2025-07-16T00:00	31200	11	-39.4		77	17	
2025-07-16T00:00	31250	10	-39.2		77	17	
2025-07-16T00:00	31300	10	-39.0		79	17	
2025-07-16T00:00	31350	10	-39.1		82	18	
2025-07-16T00:00	31400	10	-39.1		85	19	
2025-07-16T00:00	31450	10	-39.4		88	19	
2025-07-16T00:00	31500	10	-39.6		92	20	
2025-07-16T00:00	31550	10	-39.5		94	19	
2025-07-16T00:00	31600	10	-39.6		96	19	
2025-07-16T00:00	31650	10	-39.4		97	18	
2025-07-16T00:00	31700	10	-39.1		96	17	
2025-07-16T00:00	31750	10	-39.1		93	16	
2025-07-16T00:00	31800	10	-39.1		89	17	
2025-07-16T00:00	31850	10	-39.0		86	18	
2025-07-16T00:00	31900	10	-39.0		84	19	
2025-07-16T00:00	31950	9	-38.9		85	19	
2025-07-16T00:00	32000	9	-38.7		88	20	
2025-07-16T00:00	32050	9	-38.6		92	20	
2025-07-16T00:00	32100	9	-38.7		97	20	
2025-07-16T00:00	32150	9	-38.6		101	20	
2025-07-16T00:00	32200	9	-38.7		104	21	
2025-07-16T00:00	32250	9	-38.7		107	21	
2025-07-16T00:00	32300	9	-38.7		109	21	
2025-07-16T00:00	32350	9	-38.5		110	20	
2025-07-16T00:00	32400	9	-38.3		110	18	
2025-07-16T00:00	32450	9	-38.0		110	17	
2025-07-16T00:00	32500	9	-37.9		110	17	
2025-07-16T00:00	32550	9	-37.7		111	17	
2025-07-16T00:00	32600	9	-37.8		112	16	
2025-07-16T00:00	32650	9	-37.9		113	15	
2025-07-16T00:00	32700	8	-37.8		112	14	
2025-07-16T00:00	32750	8	-37.7		111	13	
2025-07-16T00:00	32800	8	-37.7		108	13	
2025-07-16T00:00	32850	8	-37.5		103	13	
2025-07-16T00:00	32900	8	-37.6		99	13	
2025-07-16T00:00	32950	8	-37.4		97	14	
2025-07-16T00:00	33000	8	-37.5		97	14	
2025-07-16T00:00	33050	8	-37.4		98	15	
2025-07-16T00:00	33100	8	-37.6		100	15	
2025-07-16T00:00	33150	8	-37.6		101	14	
2025-07-16T00:00	33200	8	-37.4		101	14	
2025-07-16T00:00	33250	8	-37.2		99	13	
2025-07-16T00:00	33300	8	-36.9		97	12	
2025-07-16T00:00	33350	8	-36.7		95	11	
2025-07-16T00:00	33400	8	-36.4		93	10	
2025-07-16T00:00	33450	8	-36.3		91	10	
2025-07-16T00:00	33500	8	-36.2		88	10	
2025-07-16T00:00	33550	7	-35.8		87	10	
2025-07-16T00:00	33600	7	-35.2		85	10	
2025-07-16T00:00	33650	7	-34.7		85	10	
2025-07-16T00:00	33700	7	-34.5		84	10	
2025-07-16T00:00	33750	7	-34.0		84	10	
2025-07-16T00:00	33800	7	-33.5		86	11	
2025-07-16T00:00	33850	7	-33.1		88	11	
2025-07-16T00:00	33900	7	-32.8		89	10	
2025-07-16T00:00	33950	7	-32.5		88	9	
2025-07-16T00:00	34000	7	-32.1		84	9	
2025-07-16T00:00	34050	7	-31.6		75	8	
2025-07-16T00:00	34100	7	-31.6		66	9	
2025-07-16T00:00	34150	7	-31.7		60	9	
2025-07-16T00:00	34200	7	-31.8		56	10	
2025-07-16T00:00	34250	7	-31.6		56	11	
2025-07-16T00:00	34300	7	-31.5		59	11	
2025-07-16T00:00	34350	7	-31.5		63	12	
2025-07-16T00:00	34400	7	-31.6		69	13	
2025-07-16T00:00	34450	7	-31.6		74	14	
2025-07-16T00:00	34500	7	-31.6		78	14	
2025-07-16T00:00	34550	6	-31.5		81	15	
2025-07-16T00:00	34600	6	-31.6		83	14	
2025-07-16T00:00	34650	6	-31.8		85	14	
2025-07-16T00:00	34700	6	-31.7		85	13	
2025-07-16T00:00	34750	6	-31.7		85	13	
2025-07-16T00:00	34800	6	-31.6		84	13	
2025-07-16T00:00	34850	6	-31.6		85	14	
2025-07-16T00:00	34900	6	-31.3		87	15	
2025-07-16T00:00	34950	6	-31.2		89	16	
2025-07-16T00:00	35000	6	-31.2		91	16	
2025-07-16T00:00	35050	6	-31.2		94	16	
2025-07-16T00:00	35100	6	-31.2		97	15	
2025-07-16T00:00	35150	6	-31.3		98	15	
2025-07-16T00:00	35200	6	-31.6		96	15	
2025-07-16T00:00	35250	6	-31.5		92	16	
2025-07-16T00:00	35300	6	-31.6		89	16	
2025-07-16T00:00	35350	6	-31.3		86	17	
2025-07-16T00:00	35400	6	-31.1		84	17	
2025-07-16T00:00	35450	6	-31.1		83	17	
2025-07-16T00:00	35500	6	-31.2		82	18	
2025-07-16T00:00	35550	6	-31.4		81	19	
2025-07-16T00:00	35600	6	-31.4		80	19	
2025-07-16T00:00	35650	6	-31.4		80	20	
2025-07-16T00:00	35700	6	-31.6		80	20	
2025-07-16T00:00	35750	5	-31.6		80	21	
2025-07-16T00:00	35800	5	-31.6		80	21	
2025-07-16T12:00	491	962	23.8	10.5	204	4	4.1
2025-07-16T12:00	501	961	22.6	10.0	225	4	4.2
2025-07-16T12:00	520	959	22.2	9.6	227	4	4.2
2025-07-16T12:00	540	957	21.8	9.4	227	5	4.2
2025-07-16T12:00	560	954	21.5	9.1	226	6	4.2
2025-07-16T12:00	580	952	21.3	9.1	225	7	4.2
2025-07-16T12:00	600	950	21.0	8.9	225	7	4.2
2025-07-16T12:00	620	948	20.8	8.8	224	8	4.2
2025-07-16T12:00	640	946	20.6	8.8	224	8	4.2
2025-07-16T12:00	660	944	20.5	8.9	223	8	4.2
2025-07-16T12:00	680	941	20.3	9.0	223	8	4.2
2025-07-16T12:00	700	939	20.1	9.0	223	8	4.2
2025-07-16T12:00	720	937	20.0	8.9	224	8	4.2
2025-07-16T12:00	740	935	19.8	8.8	224	8	4.2
2025-07-16T12:00	760	932	19.5	8.7	224	8	4.2
2025-07-16T12:00	780	930	19.3	8.6	224	8	4.2
2025-07-16T12:00	800	928	19.2	8.7	225	8	4.2
2025-07-16T12:00	820	926	19.0	8.6	225	8	4.2
2025-07-16T12:00	840	924	18.8	8.6	225	8	4.2
2025-07-16T12:00	860	922	18.5	8.5	225	8	4.2
2025-07-16T12:00	880	920	18.4	8.4	225	8	4.2
2025-07-16T12:00	900	918	18.1	8.4	225	8	4.2
2025-07-16T12:00	920	915	18.0	8.4	224	8	4.2
2025-07-16T12:00	940	913	17.8	8.4	223	7	4.2
2025-07-16T12:00	960	911	17.6	8.4	222	7	4.1
2025-07-16T12:00	980	909	17.3	8.4	222	7	4.2
2025-07-16T12:00	1000	907	17.2	8.4	221	7	4.2
2025-07-16T12:00	1020	905	17.0	8.3	222	7	4.2
2025-07-16T12:00	1040	902	16.8	8.3	224	7	4.2
2025-07-16T12:00	1060	901	16.6	8.3	227	6	4.2
2025-07-16T12:00	1080	898	16.4	8.3	231	6	4.2
2025-07-16T12:00	1100	896	16.2	8.2	236	6	4.2
2025-07-16T12:00	1120	894	16.0	8.3	240	6	4.1
2025-07-16T12:00	1140	892	15.8	8.2	244	6	4.1
2025-07-16T12:00	1160	890	15.6	8.2	247	6	4.1
2025-07-16T12:00	1180	888	15.5	8.3	250	6	4.1
2025-07-16T12:00	1200	886	15.3	8.3	250	6	4.2
2025-07-16T12:00	1220	884	15.1	8.2	248	6	4.1
2025-07-16T12:00	1240	882	14.9	8.1	246	6	4.1
2025-07-16T12:00	1260	880	14.7	8.0	242	6	4.1
2025-07-16T12:00	1280	877	14.5	8.0	239	6	4.2
2025-07-16T12:00	1300	875	14.3	8.0	237	7	4.1
2025-07-16T12:00	1320	873	14.1	7.9	236	7	4.1
2025-07-16T12:00	1340	871	13.9	7.8	235	7	4.1
2025-07-16T12:00	1360	869	13.7	7.8	235	7	4.1
2025-07-16T12:00	1380	867	13.5	7.8	236	7	4.1
2025-07-16T12:00	1400	865	13.3	7.8	237	7	4.0
2025-07-16T12:00	1420	863	13.1	7.8	239	8	4.0
2025-07-16T12:00	1440	861	12.9	7.8	240	8	4.0
2025-07-16T12:00	1460	859	12.8	7.6	241	8	4.0
2025-07-16T12:00	1480	857	12.6	7.6	241	8	4.0
2025-07-16T12:00	1500	855	12.4	7.7	241	8	4.0
2025-07-16T12:00	1520	853	12.2	7.6	240	8	4.0
2025-07-16T12:00	1540	851	12.0	7.5	239	8	4.0
2025-07-16T12:00	1560	849	11.8	7.5	238	8	4.0
2025-07-16T12:00	1580	847	11.6	7.5	237	8	4.0
2025-07-16T12:00	1600	845	11.4	7.6	237	8	4.0
2025-07-16T12:00	1620	843	11.2	7.5	237	8	4.0
2025-07-16T12:00	1640	841	11.1	7.4	237	8	4.0
2025-07-16T12:00	1660	839	10.9	7.4	237	8	4.0
2025-07-16T12:00	1680	837	10.7	7.3	237	8	4.0
2025-07-16T12:00	1700	835	10.5	7.3	236	8	4.0
2025-07-16T12:00	1720	833	10.3	7.3	235	8	4.0
2025-07-16T12:00	1740	831	10.1	7.2	233	7	4.0
2025-07-16T12:00	1760	829	9.9	7.2	232	7	4.0
2025-07-16T12:00	1780	827	9.7	7.1	230	7	4.0
2025-07-16T12:00	1800	825	9.8	6.6	228	6	4.0
2025-07-16T12:00	1820	823	10.0	6.4	225	6	3.9
2025-07-16T12:00	1840	821	9.9	6.2	224	6	3.9
2025-07-16T12:00	1860	819	9.6	6.4	225	6	3.8
2025-07-16T12:00	1880	817	9.3	6.4	227	6	3.8
2025-07-16T12:00	1900	815	9.1	6.3	228	6	3.8
2025-07-16T12:00	1920	813	8.9	6.2	230	7	3.7
2025-07-16T12:00	1940	811	8.6	6.6	232	7	3.7
2025-07-16T12:00	1960	809	8.3	6.9	234	7	3.7
2025-07-16T12:00	1980	807	8.0	6.8	237	7	3.8
2025-07-16T12:00	2000	805	7.8	6.7	241	7	3.8
2025-07-16T12:00	2020	803	7.6	6.7	245	8	3.8
2025-07-16T12:00	2040	801	7.3	6.7	250	8	3.8
2025-07-16T12:00	2060	799	7.2	6.3	255	9	3.8
2025-07-16T12:00	2080	797	7.3	5.7	258	9	3.8
2025-07-16T12:00	2100	796	7.5	5.1	260	10	3.7
2025-07-16T12:00	2120	794	8.2	3.2	262	11	3.7
2025-07-16T12:00	2140	792	8.7	3.6	264	11	3.5
2025-07-16T12:00	2160	790	8.9	4.5	267	11	3.4
2025-07-16T12:00	2180	788	8.9	4.2	269	10	3.3
2025-07-16T12:00	2200	786	8.8	4.1	271	10	3.2
2025-07-16T12:00	2220	784	8.7	4.1	272	11	3.1
2025-07-16T12:00	2240	782	8.5	4.1	272	11	3.1
2025-07-16T12:00	2260	780	8.3	3.9	271	11	3.1
2025-07-16T12:00	2280	778	8.3	3.4	269	12	3.1
2025-07-16T12:00	2300	776	8.3	3.3	266	12	3.1
2025-07-16T12:00	2320	774	8.2	3.3	265	12	3.1
2025-07-16T12:00	2340	773	8.1	3.3	264	12	3.1
2025-07-16T12:00	2360	771	8.0	3.4	265	11	3.1
2025-07-16T12:00	2380	769	7.9	3.5	268	11	3.1
2025-07-16T12:00	2400	767	7.7	3.6	271	10	3.1
2025-07-16T12:00	2420	765	7.5	3.8	274	10	3.1
2025-07-16T12:00	2440	763	7.3	4.2	279	9	3.1
2025-07-16T12:00	2460	761	7.2	4.3	283	9	3.0
2025-07-16T12:00	2480	760	7.2	4.3	287	9	3.0
2025-07-16T12:00	2500	758	7.0	4.5	289	9	2.9
2025-07-16T12:00	2520	756	6.9	4.4	290	9	2.8
2025-07-16T12:00	2540	754	6.7	4.3	291	9	2.8
2025-07-16T12:00	2560	752	6.6	4.1	291	9	2.7
2025-07-16T12:00	2580	750	6.5	4.0	290	9	2.7
2025-07-16T12:00	2600	749	6.4	3.8	289	9	2.7
2025-07-16T12:00	2620	747	6.2	3.7	288	9	2.7
2025-07-16T12:00	2640	745	6.2	3.4	287	9	2.6
2025-07-16T12:00	2660	743	6.1	3.2	286	9	2.6
2025-07-16T12:00	2680	741	5.9	3.1	286	10	2.7
2025-07-16T12:00	2700	739	5.8	3.1	285	11	2.7
2025-07-16T12:00	2720	738	5.7	2.9	285	11	2.7
2025-07-16T12:00	2740	736	5.6	2.8	285	12	2.7
2025-07-16T12:00	2760	734	5.6	2.9	285	12	2.7
2025-07-16T12:00	2780	733	5.5	3.0	286	13	2.7
2025-07-16T12:00	2800	731	5.3	3.1	287	12	2.7
2025-07-16T12:00	2820	729	5.1	3.1	289	12	2.8
2025-07-16T12:00	2840	727	4.9	3.2	292	12	2.8
2025-07-16T12:00	2860	725	4.7	3.3	294	11	2.8
2025-07-16T12:00	2880	723	4.6	3.3	296	11	2.9
2025-07-16T12:00	2900	722	4.6	3.3	298	11	2.9
2025-07-16T12:00	2920	720	4.5	3.2	299	11	2.9
2025-07-16T12:00	2940	718	4.4	3.1	299	11	2.9
2025-07-16T12:00	2960	717	4.2	3.1	300	11	2.9
2025-07-16T12:00	2980	715	4.0	3.0	300	11	2.9
2025-07-16T12:00	3000	713	3.9	2.9	301	11	2.9
2025-07-16T12:00	3020	711	3.7	2.8	301	11	2.9
2025-07-16T12:00	3040	709	3.5	2.8	302	11	2.8
2025-07-16T12:00	3060	708	3.3	2.7	303	11	2.8
2025-07-16T12:00	3080	706	3.3	2.4	303	11	2.9
2025-07-16T12:00	3100	704	3.4	2.0	303	11	2.9
2025-07-16T12:00	3120	702	3.2	2.0	304	11	2.9
2025-07-16T12:00	3140	701	3.1	1.8	303	11	3.0
2025-07-16T12:00	3160	699	2.9	1.7	303	11	3.0
2025-07-16T12:00	3180	697	2.8	1.5	303	11	3.0
2025-07-16T12:00	3200	696	2.6	1.4	302	12	3.1
2025-07-16T12:00	3220	694	2.5	1.3	302	12	3.1
2025-07-16T12:00	3240	692	2.4	1.0	302	12	3.1
2025-07-16T12:00	3260	691	2.3	0.9	302	12	3.1
2025-07-16T12:00	3280	689	2.1	0.6	303	13	3.1
2025-07-16T12:00	3300	687	2.0	0.5	303	13	3.1
2025-07-16T12:00	3320	685	1.9	0.2	304	13	3.2
2025-07-16T12:00	3340	683	1.9	-0.5	304	14	3.2
2025-07-16T12:00	3360	682	1.9	-0.9	305	14	3.2
2025-07-16T12:00	3380	680	1.8	-1.0	305	14	3.2
2025-07-16T12:00	3400	679	1.7	-1.0	305	14	3.2
2025-07-16T12:00	3420	677	1.5	-1.3	304	14	3.3
2025-07-16T12:00	3440	675	1.4	-1.6	303	14	3.3
2025-07-16T12:00	3460	673	1.3	-1.5	302	14	3.3
2025-07-16T12:00	3480	672	1.2	-1.5	301	15	3.2
2025-07-16T12:00	3500	670	1.2	-1.5	300	15	3.3
2025-07-16T12:00	3520	669	1.0	-1.7	300	15	3.3
2025-07-16T12:00	3540	667	0.9	-2.0	300	15	3.3
2025-07-16T12:00	3560	665	0.9	-2.2	300	15	3.3
2025-07-16T12:00	3580	664	0.8	-2.2	300	15	3.3
2025-07-16T12:00	3600	662	0.6	-2.3	300	15	3.3
2025-07-16T12:00	3620	660	0.4	-2.2	301	14	3.3
2025-07-16T12:00	3640	659	0.2	-2.1	302	14	3.3
2025-07-16T12:00	3660	657	0.1	-2.1	303	14	3.3
2025-07-16T12:00	3680	655	-0.1	-2.2	304	14	3.3
2025-07-16T12:00	3700	654	-0.3	-2.3	305	14	3.3
2025-07-16T12:00	3720	652	-0.5	-2.3	305	14	3.3
2025-07-16T12:00	3740	651	-0.7	-2.4	304	15	3.2
2025-07-16T12:00	3760	649	-0.8	-2.6	302	15	3.2
2025-07-16T12:00	3780	647	-1.0	-2.8	300	15	3.2
2025-07-16T12:00	3800	646	-1.1	-3.0	299	16	3.2
2025-07-16T12:00	3820	644	-1.2	-3.0	299	16	3.2
2025-07-16T12:00	3840	642	-1.4	-2.9	300	16	3.3
2025-07-16T12:00	3860	641	-1.6	-3.0	302	16	3.3
2025-07-16T12:00	3880	639	-1.8	-3.1	304	16	3.2
2025-07-16T12:00	3900	638	-1.9	-3.1	304	16	3.2
2025-07-16T12:00	3920	636	-2.0	-3.0	305	17	3.2
2025-07-16T12:00	3940	634	-2.3	-3.0	304	17	3.2
2025-07-16T12:00	3960	633	-2.4	-3.1	303	18	3.2
2025-07-16T12:00	3980	631	-2.5	-3.1	302	18	3.2
2025-07-16T12:00	4000	630	-2.6	-3.1	300	19	3.2
2025-07-16T12:00	4020	628	-2.8	-3.2	298	19	3.1
2025-07-16T12:00	4040	626	-2.9	-3.5	295	19	3.1
2025-07-16T12:00	4060	625	-3.0	-3.6	293	20	3.1
2025-07-16T12:00	4080	623	-3.2	-3.7	292	20	3.1
2025-07-16T12:00	4100	622	-3.3	-3.7	290	20	3.1
2025-07-16T12:00	4120	620	-3.4	-3.7	290	20	3.1
2025-07-16T12:00	4140	619	-3.5	-3.6	291	19	3.1
2025-07-16T12:00	4160	617	-3.6	-3.7	292	19	3.1
2025-07-16T12:00	4180	615	-3.8	-4.3	294	19	3.0
2025-07-16T12:00	4200	614	-3.8	-4.5	296	19	3.1
2025-07-16T12:00	4220	612	-3.9	-4.7	299	19	3.1
2025-07-16T12:00	4240	611	-4.1	-5.3	301	19	3.1
2025-07-16T12:00	4260	609	-4.3	-5.5	303	19	3.1
2025-07-16T12:00	4280	608	-4.3	-6.5	305	20	3.1
2025-07-16T12:00	4300	606	-4.0	-7.7	306	20	3.1
2025-07-16T12:00	4320	605	-4.2	-7.3	307	21	3.2
2025-07-16T12:00	4340	603	-4.3	-7.2	309	21	3.2
2025-07-16T12:00	4360	602	-4.4	-7.2	309	21	3.2
2025-07-16T12:00	4380	600	-4.4	-7.1	310	21	3.2
2025-07-16T12:00	4400	599	-4.4	-7.1	310	21	3.2
2025-07-16T12:00	4420	597	-4.2	-7.0	310	21	3.2
2025-07-16T12:00	4440	596	-4.2	-7.0	310	21	3.1
2025-07-16T12:00	4460	594	-4.4	-7.0	309	21	3.0
2025-07-16T12:00	4480	593	-4.6	-7.1	308	20	3.0
2025-07-16T12:00	4500	591	-4.7	-7.2	307	20	2.9
2025-07-16T12:00	4520	589	-4.8	-7.4	307	20	2.9
2025-07-16T12:00	4540	588	-4.9	-7.4	306	20	2.9
2025-07-16T12:00	4560	586	-5.1	-7.4	306	21	2.9
2025-07-16T12:00	4580	585	-5.1	-7.5	305	21	2.9
2025-07-16T12:00	4600	583	-5.2	-7.8	304	21	2.8
2025-07-16T12:00	4620	582	-5.2	-8.1	304	22	2.8
2025-07-16T12:00	4640	581	-5.3	-8.1	305	21	2.7
2025-07-16T12:00	4660	579	-5.5	-8.1	305	21	2.7
2025-07-16T12:00	4680	578	-5.7	-8.2	306	21	2.7
2025-07-16T12:00	4700	576	-5.8	-8.2	306	21	2.7
2025-07-16T12:00	4720	575	-6.0	-8.1	306	21	2.6
2025-07-16T12:00	4740	573	-6.1	-8.0	306	22	2.6
2025-07-16T12:00	4760	572	-6.2	-8.0	306	22	2.6
2025-07-16T12:00	4780	570	-6.4	-8.0	306	22	2.6
2025-07-16T12:00	4800	569	-6.5	-8.1	306	22	2.5
2025-07-16T12:00	4820	568	-6.5	-8.4	306	22	2.5
2025-07-16T12:00	4840	566	-6.6	-8.4	306	22	2.5
2025-07-16T12:00	4860	565	-6.8	-8.5	305	22	2.5
2025-07-16T12:00	4880	563	-7.0	-8.6	303	23	2.5
2025-07-16T12:00	4900	562	-7.1	-8.5	302	23	2.5
2025-07-16T12:00	4920	560	-7.3	-8.4	301	23	2.5
2025-07-16T12:00	4940	559	-7.3	-8.6	301	23	2.4
2025-07-16T12:00	4960	557	-7.4	-8.7	302	23	2.4
2025-07-16T12:00	4980	556	-7.6	-8.9	304	23	2.4
2025-07-16T12:00	5000	555	-7.7	-9.1	305	23	2.4
2025-07-16T12:00	5020	553	-7.9	-9.5	307	23	2.4
2025-07-16T12:00	5040	552	-8.1	-9.9	308	23	2.4
2025-07-16T12:00	5060	550	-8.2	-11.0	308	23	2.4
2025-07-16T12:00	5080	549	-8.3	-10.9	308	23	2.4
2025-07-16T12:00	5100	547	-8.5	-10.7	308	23	2.4
2025-07-16T12:00	5120	546	-8.6	-10.5	308	24	2.4
2025-07-16T12:00	5140	545	-8.7	-10.2	308	24	2.4
2025-07-16T12:00	5160	543	-8.7	-11.8	309	24	2.4
2025-07-16T12:00	5180	542	-8.5	-14.8	309	24	2.4
2025-07-16T12:00	5200	540	-8.5	-16.0	309	24	2.4
2025-07-16T12:00	5220	539	-8.5	-18.2	309	24	2.5
2025-07-16T12:00	5240	538	-8.6	-21.5	308	24	2.5
2025-07-16T12:00	5260	536	-8.6	-22.7	307	24	2.6
2025-07-16T12:00	5280	535	-8.6	-23.4	306	24	2.6
2025-07-16T12:00	5300	533	-8.7	-24.0	305	24	2.6
2025-07-16T12:00	5320	532	-8.8	-23.7	304	25	2.6
2025-07-16T12:00	5340	531	-8.9	-23.2	304	25	2.7
2025-07-16T12:00	5360	529	-9.0	-24.2	303	25	2.7
2025-07-16T12:00	5380	528	-9.1	-21.2	303	26	2.7
2025-07-16T12:00	5400	527	-9.1	-17.7	302	26	2.7
2025-07-16T12:00	5420	525	-9.3	-20.2	302	26	2.6
2025-07-16T12:00	5440	524	-9.3	-23.2	301	26	2.7
2025-07-16T12:00	5460	523	-9.4	-25.5	300	26	2.8
2025-07-16T12:00	5480	521	-9.5	-26.0	299	26	2.8
2025-07-16T12:00	5500	520	-9.5	-23.4	298	26	2.9
2025-07-16T12:00	5520	518	-9.6	-24.8	297	26	2.9
2025-07-16T12:00	5540	517	-9.7	-25.7	296	26	2.9
2025-07-16T12:00	5560	516	-9.8	-24.4	295	26	2.9
2025-07-16T12:00	5580	514	-10.0	-18.9	294	26	2.9
2025-07-16T12:00	5600	513	-10.0	-19.8	294	25	3.0
2025-07-16T12:00	5620	512	-10.0	-21.4	294	25	3.0
2025-07-16T12:00	5640	511	-10.0	-23.1	295	25	3.1
2025-07-16T12:00	5660	509	-10.2	-23.2	296	26	3.1
2025-07-16T12:00	5680	508	-10.4	-24.1	298	26	3.2
2025-07-16T12:00	5700	506	-10.5	-25.7	299	26	3.2
2025-07-16T12:00	5720	505	-10.6	-26.7	299	26	3.2
2025-07-16T12:00	5740	504	-10.8	-27.1	300	26	3.2
2025-07-16T12:00	5760	503	-10.9	-27.4	300	26	3.3
2025-07-16T12:00	5780	501	-11.1	-27.6	300	27	3.3
2025-07-16T12:00	5800	500	-11.2	-26.4	300	27	3.3
2025-07-16T12:00	5820	499	-11.3	-25.5	300	27	3.2
2025-07-16T12:00	5840	497	-11.5	-23.7	300	27	3.2
2025-07-16T12:00	5860	496	-11.7	-22.3	301	28	3.2
2025-07-16T12:00	5880	495	-11.8	-21.5	301	28	3.2
2025-07-16T12:00	5900	493	-12.0	-20.9	301	27	3.2
2025-07-16T12:00	5920	492	-12.2	-20.9	301	27	3.2
2025-07-16T12:00	5940	491	-12.3	-21.1	300	27	3.2
2025-07-16T12:00	5960	490	-12.4	-22.1	300	27	3.3
2025-07-16T12:00	5980	488	-12.3	-25.0	299	27	3.3
2025-07-16T12:00	6000	487	-12.4	-25.6	299	27	3.4
2025-07-16T12:00	6020	486	-12.5	-24.7	298	28	3.4
2025-07-16T12:00	6040	484	-12.7	-25.2	298	28	3.4
2025-07-16T12:00	6060	483	-12.7	-25.6	297	29	3.5
2025-07-16T12:00	6080	482	-12.7	-25.3	297	29	3.5
2025-07-16T12:00	6100	481	-12.8	-20.9	297	29	3.5
2025-07-16T12:00	6120	479	-12.8	-20.4	296	29	3.6
2025-07-16T12:00	6140	478	-12.8	-20.1	296	29	3.6
2025-07-16T12:00	6160	477	-12.8	-20.5	296	29	3.6
2025-07-16T12:00	6180	476	-12.7	-28.9	296	29	3.6
2025-07-16T12:00	6200	474	-12.8	-30.3	296	29	3.7
2025-07-16T12:00	6220	473	-12.9	-30.5	297	29	3.8
2025-07-16T12:00	6240	472	-13.0	-29.2	297	28	3.8
2025-07-16T12:00	6260	471	-13.2	-30.1	297	28	3.7
2025-07-16T12:00	6280	469	-13.2	-29.3	297	28	3.7
2025-07-16T12:00	6300	468	-13.3	-33.4	297	28	3.7
2025-07-16T12:00	6320	467	-13.4	-34.5	297	28	3.7
2025-07-16T12:00	6340	466	-13.5	-30.4	296	28	3.7
2025-07-16T12:00	6360	465	-13.7	-27.6	296	28	3.7
2025-07-16T12:00	6380	463	-13.9	-25.9	296	29	3.7
2025-07-16T12:00	6400	462	-14.1	-24.9	295	29	3.7
2025-07-16T12:00	6420	461	-14.2	-23.5	295	29	3.7
2025-07-16T12:00	6440	460	-14.3	-23.2	295	30	3.7
2025-07-16T12:00	6460	459	-14.5	-23.7	295	29	3.6
2025-07-16T12:00	6480	457	-14.6	-23.6	295	29	3.6
2025-07-16T12:00	6500	456	-14.7	-23.0	296	29	3.6
2025-07-16T12:00	6520	455	-15.0	-22.6	296	29	3.6
2025-07-16T12:00	6540	454	-15.2	-22.7	296	29	3.5
2025-07-16T12:00	6560	453	-15.3	-22.6	296	29	3.5
2025-07-16T12:00	6580	451	-15.5	-22.3	296	29	3.5
2025-07-16T12:00	6600	450	-15.6	-22.1	296	30	3.5
2025-07-16T12:00	6620	449	-15.8	-21.8	297	30	3.5
2025-07-16T12:00	6640	448	-15.9	-20.5	297	30	3.5
2025-07-16T12:00	6660	447	-16.0	-19.9	297	30	3.5
2025-07-16T12:00	6680	445	-16.1	-18.2	298	31	3.4
2025-07-16T12:00	6700	444	-16.3	-17.8	298	31	3.3
2025-07-16T12:00	6720	443	-16.4	-18.5	298	31	3.1
2025-07-16T12:00	6740	442	-16.5	-18.8	298	31	3.0
2025-07-16T12:00	6760	441	-16.6	-18.9	298	31	2.9
2025-07-16T12:00	6780	439	-16.8	-18.9	298	31	2.8
2025-07-16T12:00	6800	438	-17.0	-18.8	299	31	2.7
2025-07-16T12:00	6820	437	-17.0	-19.1	299	31	2.7
2025-07-16T12:00	6840	436	-17.2	-19.1	300	31	2.6
2025-07-16T12:00	6860	435	-17.3	-19.2	300	31	2.6
2025-07-16T12:00	6880	434	-17.4	-19.4	301	31	2.5
2025-07-16T12:00	6900	432	-17.4	-20.0	301	31	2.5
2025-07-16T12:00	6920	431	-17.5	-20.3	301	31	2.4
2025-07-16T12:00	6940	430	-17.6	-20.2	301	31	2.4
2025-07-16T12:00	6960	429	-17.8	-20.3	301	31	2.4
2025-07-16T12:00	6980	428	-18.0	-20.4	302	31	2.3
2025-07-16T12:00	7000	427	-18.1	-20.8	302	31	2.3
2025-07-16T12:00	7020	426	-18.1	-20.9	302	31	2.3
2025-07-16T12:00	7040	425	-18.4	-20.9	303	31	2.3
2025-07-16T12:00	7060	423	-18.6	-21.0	303	31	2.3
2025-07-16T12:00	7080	422	-18.8	-21.2	303	31	2.2
2025-07-16T12:00	7100	421	-18.9	-21.3	303	31	2.2
2025-07-16T12:00	7120	420	-19.1	-21.7	302	31	2.2
2025-07-16T12:00	7140	419	-19.1	-22.5	302	32	2.2
2025-07-16T12:00	7160	418	-19.3	-22.6	302	32	2.2
2025-07-16T12:00	7180	417	-19.4	-22.9	302	32	2.2
2025-07-16T12:00	7200	415	-19.6	-23.1	302	32	2.1
2025-07-16T12:00	7220	414	-19.7	-23.5	303	32	2.1
2025-07-16T12:00	7240	413	-19.9	-24.0	303	32	2.1
2025-07-16T12:00	7260	412	-20.0	-24.3	304	32	2.1
2025-07-16T12:00	7280	411	-20.1	-24.7	304	31	2.1
2025-07-16T12:00	7300	410	-20.3	-25.0	304	31	2.1
2025-07-16T12:00	7320	409	-20.5	-25.3	305	31	2.1
2025-07-16T12:00	7340	408	-20.6	-25.9	305	31	2.1
2025-07-16T12:00	7360	406	-20.7	-26.6	305	30	2.1
2025-07-16T12:00	7380	405	-20.8	-26.6	305	30	2.1
2025-07-16T12:00	7400	404	-20.9	-26.6	305	30	2.1
2025-07-16T12:00	7420	403	-21.0	-26.9	304	30	2.1
2025-07-16T12:00	7440	402	-21.1	-27.2	304	30	2.1
2025-07-16T12:00	7460	401	-21.1	-27.3	304	30	2.1
2025-07-16T12:00	7480	400	-21.3	-27.5	304	30	2.1
2025-07-16T12:00	7500	399	-21.5	-27.6	305	30	2.2
2025-07-16T12:00	7520	398	-21.6	-27.6	305	30	2.2
2025-07-16T12:00	7540	397	-21.8	-27.8	305	30	2.2
2025-07-16T12:00	7560	396	-22.0	-27.7	305	30	2.2
2025-07-16T12:00	7580	395	-22.2	-27.7	305	30	2.2
2025-07-16T12:00	7600	393	-22.4	-27.9	304	30	2.2
2025-07-16T12:00	7620	392	-22.6	-27.9	304	30	2.2
2025-07-16T12:00	7640	391	-22.7	-27.9	304	30	2.2
2025-07-16T12:00	7660	390	-23.0	-27.9	304	30	2.2
2025-07-16T12:00	7680	389	-23.1	-27.9	305	30	2.2
2025-07-16T12:00	7700	388	-23.3	-28.0	305	30	2.2
2025-07-16T12:00	7720	387	-23.5	-28.0	306	30	2.2
2025-07-16T12:00	7740	386	-23.7	-28.1	306	30	2.2
2025-07-16T12:00	7760	385	-23.9	-28.3	307	29	2.1
2025-07-16T12:00	7780	384	-24.0	-28.2	307	29	2.1
2025-07-16T12:00	7800	383	-24.1	-28.5	307	29	2.1
2025-07-16T12:00	7820	382	-24.4	-28.6	306	29	2.1
2025-07-16T12:00	7840	381	-24.5	-28.8	305	29	2.1
2025-07-16T12:00	7860	380	-24.7	-28.8	305	29	2.1
2025-07-16T12:00	7880	379	-24.8	-28.8	305	30	2.1
2025-07-16T12:00	7900	378	-24.9	-29.0	304	30	2.1
2025-07-16T12:00	7920	377	-25.1	-29.2	305	30	2.1
2025-07-16T12:00	7940	376	-25.1	-29.7	305	30	2.1
2025-07-16T12:00	7960	375	-25.0	-31.0	305	30	2.1
2025-07-16T12:00	7980	374	-24.7	-34.1	305	30	2.1
2025-07-16T12:00	8000	372	-24.5	-34.4	305	30	2.1
2025-07-16T12:00	8020	372	-24.7	-34.1	304	30	2.1
2025-07-16T12:00	8040	370	-24.8	-34.3	304	30	2.1
2025-07-16T12:00	8060	370	-24.8	-34.6	303	30	2.1
2025-07-16T12:00	8080	369	-24.8	-35.1	302	30	2.1
2025-07-16T12:00	8100	367	-24.9	-36.0	302	30	2.0
2025-07-16T12:00	8120	366	-24.9	-35.7	301	30	2.0
2025-07-16T12:00	8140	365	-24.9	-35.2	300	31	2.1
2025-07-16T12:00	8160	364	-25.0	-35.2	300	31	2.1
2025-07-16T12:00	8180	363	-25.1	-35.3	299	31	2.1
2025-07-16T12:00	8200	362	-25.3	-35.5	299	31	2.1
2025-07-16T12:00	8220	361	-25.5	-35.4	298	31	2.1
2025-07-16T12:00	8240	360	-25.7	-35.6	298	31	2.1
2025-07-16T12:00	8260	359	-25.8	-35.8	298	31	2.1
2025-07-16T12:00	8280	358	-26.0	-35.7	298	30	2.1
2025-07-16T12:00	8300	357	-26.2	-35.5	298	30	2.1
2025-07-16T12:00	8320	356	-26.4	-35.7	298	30	2.1
2025-07-16T12:00	8340	355	-26.6	-35.9	298	30	2.1
2025-07-16T12:00	8360	355	-26.8	-35.9	298	30	2.1
2025-07-16T12:00	8380	354	-26.9	-35.8	298	30	2.1
2025-07-16T12:00	8400	353	-27.1	-36.0	298	29	2.1
2025-07-16T12:00	8420	352	-27.2	-36.0	298	29	2.1
2025-07-16T12:00	8440	351	-27.5	-36.0	298	29	2.2
2025-07-16T12:00	8460	350	-27.7	-36.1	298	29	2.1
2025-07-16T12:00	8480	349	-27.9	-36.2	298	29	2.1
2025-07-16T12:00	8500	348	-28.1	-36.2	297	30	2.1
2025-07-16T12:00	8520	347	-28.1	-36.3	296	30	2.1
2025-07-16T12:00	8540	346	-28.2	-36.5	296	30	2.1
2025-07-16T12:00	8560	345	-28.4	-36.6	296	30	2.1
2025-07-16T12:00	8580	344	-28.6	-36.5	296	30	2.1
2025-07-16T12:00	8600	343	-28.8	-36.7	296	31	2.1
2025-07-16T12:00	8620	342	-29.0	-36.8	296	31	2.1
2025-07-16T12:00	8640	341	-29.2	-36.9	297	31	2.1
2025-07-16T12:00	8660	340	-29.4	-36.9	298	31	2.1
2025-07-16T12:00	8680	339	-29.5	-37.0	299	31	2.1
2025-07-16T12:00	8700	338	-29.7	-37.0	300	31	2.0
2025-07-16T12:00	8720	337	-29.9	-37.1	300	31	2.0
2025-07-16T12:00	8740	336	-30.1	-37.1	301	31	2.0
2025-07-16T12:00	8760	335	-30.3	-37.1	301	31	2.0
2025-07-16T12:00	8780	334	-30.5	-37.3	301	31	2.0
2025-07-16T12:00	8800	333	-30.7	-37.2	301	31	2.0
2025-07-16T12:00	8820	332	-30.8	-37.3	301	32	2.0
2025-07-16T12:00	8840	332	-31.1	-37.1	300	32	2.0
2025-07-16T12:00	8860	331	-31.2	-37.2	300	32	2.0
2025-07-16T12:00	8880	330	-31.4	-37.3	300	32	1.9
2025-07-16T12:00	8900	329	-31.6	-37.3	300	32	1.9
2025-07-16T12:00	8920	328	-31.7	-37.4	300	32	1.9
2025-07-16T12:00	8940	327	-31.9	-37.3	300	32	1.9
2025-07-16T12:00	8960	326	-32.1	-37.4	300	32	1.9
2025-07-16T12:00	8980	325	-32.2	-37.8	300	32	1.9
2025-07-16T12:00	9000	324	-32.4	-37.8	300	33	1.9
2025-07-16T12:00	9020	323	-32.6	-37.6	300	33	1.9
2025-07-16T12:00	9040	322	-32.7	-37.5	301	33	1.9
2025-07-16T12:00	9060	321	-32.9	-37.4	301	33	1.9
2025-07-16T12:00	9080	320	-33.0	-37.6	301	33	1.9
2025-07-16T12:00	9100	319	-33.2	-37.6	301	33	1.9
2025-07-16T12:00	9120	319	-33.4	-37.6	301	33	1.9
2025-07-16T12:00	9140	318	-33.6	-37.7	302	33	1.9
2025-07-16T12:00	9160	317	-33.7	-37.8	302	33	1.9
2025-07-16T12:00	9180	316	-33.9	-37.9	301	33	1.9
2025-07-16T12:00	9200	315	-34.1	-38.0	301	33	1.9
2025-07-16T12:00	9220	314	-34.3	-38.9	301	33	1.9
2025-07-16T12:00	9240	313	-34.5	-39.3	301	33	1.9
2025-07-16T12:00	9260	312	-34.6	-39.7	301	33	1.9
2025-07-16T12:00	9280	311	-34.8	-39.8	301	34	1.9
2025-07-16T12:00	9300	310	-34.9	-39.6	301	34	1.8
2025-07-16T12:00	9320	310	-35.0	-39.6	300	34	1.8
2025-07-16T12:00	9340	309	-35.2	-39.6	300	34	1.8
2025-07-16T12:00	9360	308	-35.4	-39.5	300	34	1.8
2025-07-16T12:00	9380	307	-35.5	-39.0	299	34	1.8
2025-07-16T12:00	9400	306	-35.8	-38.9	299	33	1.8
2025-07-16T12:00	9420	305	-35.9	-39.2	298	33	1.8
2025-07-16T12:00	9440	304	-36.1	-39.7	298	33	1.8
2025-07-16T12:00	9460	304	-36.3	-39.8	297	33	1.7
2025-07-16T12:00	9480	303	-36.5	-40.0	297	32	1.7
2025-07-16T12:00	9500	302	-36.6	-40.2	297	32	1.7
2025-07-16T12:00	9520	301	-36.8	-40.0	297	33	1.7
2025-07-16T12:00	9540	300	-37.0	-40.0	297	33	1.7
2025-07-16T12:00	9560	299	-37.2	-40.0	297	33	1.7
2025-07-16T12:00	9580	298	-37.4	-39.9	297	34	1.7
2025-07-16T12:00	9600	297	-37.6	-39.9	296	34	1.7
2025-07-16T12:00	9620	297	-37.8	-40.2	296	34	1.7
2025-07-16T12:00	9640	296	-38.0	-40.1	296	34	1.7
2025-07-16T12:00	9660	295	-38.2	-40.5	295	34	1.7
2025-07-16T12:00	9680	294	-38.2	-41.8	295	33	1.6
2025-07-16T12:00	9700	293	-38.3	-42.6	294	33	1.6
2025-07-16T12:00	9720	292	-38.4	-42.4	294	32	1.6
2025-07-16T12:00	9740	291	-38.5	-42.4	293	32	1.6
2025-07-16T12:00	9760	291	-38.6	-43.0	293	32	1.6
2025-07-16T12:00	9780	290	-38.8	-43.4	293	32	1.6
2025-07-16T12:00	9800	289	-38.9	-43.9	293	31	1.6
2025-07-16T12:00	9820	288	-39.1	-43.8	293	31	1.6
2025-07-16T12:00	9840	287	-39.3	-43.6	294	31	1.5
2025-07-16T12:00	9860	286	-39.4	-44.0	294	31	1.5
2025-07-16T12:00	9880	286	-39.6	-44.0	294	31	1.5
2025-07-16T12:00	9900	285	-39.7	-44.0	294	31	1.5
2025-07-16T12:00	9920	284	-40.0	-43.9	293	31	1.5
2025-07-16T12:00	9940	283	-40.2	-44.0	293	31	1.5
2025-07-16T12:00	9960	282	-40.3	-44.2	293	31	1.5
2025-07-16T12:00	9980	281	-40.5	-44.0	292	31	1.5
2025-07-16T12:00	10000	281	-40.7	-44.0	292	31	1.6
2025-07-16T12:00	10018	280	-40.9	-43.9	292	31	1.6
2025-07-16T12:00	10050	278	-41.3	-44.0	292	32	1.6
2025-07-16T12:00	10100	276	-41.7	-44.0	292	32	1.6
2025-07-16T12:00	10150	274	-42.1	-44.5	292	32	1.6
2025-07-16T12:00	10200	272	-42.6	-45.4	292	32	1.6
2025-07-16T12:00	10250	270	-43.0	-46.0	293	32	1.6
2025-07-16T12:00	10300	268	-43.4	-46.4	293	32	1.6
2025-07-16T12:00	10350	266	-43.7	-47.2	293	32	1.6
2025-07-16T12:00	10400	264	-44.2	-47.8	292	32	1.6
2025-07-16T12:00	10450	262	-44.5	-47.7	293	32	1.6
2025-07-16T12:00	10500	261	-45.0	-48.1	293	32	1.6
2025-07-16T12:00	10550	259	-45.5	-48.4	293	32	1.6
2025-07-16T12:00	10600	257	-45.9	-48.7	293	31	1.6
2025-07-16T12:00	10650	255	-46.4	-49.2	294	31	1.5
2025-07-16T12:00	10700	253	-46.8	-49.9	294	31	1.5
2025-07-16T12:00	10750	251	-47.1	-50.4	294	31	1.5
2025-07-16T12:00	10800	249	-47.5	-51.0	294	31	1.5
2025-07-16T12:00	10850	247	-48.0	-51.7	294	30	1.5
2025-07-16T12:00	10900	245	-48.5	-52.2	293	30	1.5
2025-07-16T12:00	10950	243	-48.9	-52.6	292	30	1.5
2025-07-16T12:00	11000	241	-49.3	-52.3	291	31	1.5
2025-07-16T12:00	11050	240	-49.7	-52.3	292	31	1.5
2025-07-16T12:00	11100	238	-50.1	-53.3	292	31	1.5
2025-07-16T12:00	11150	236	-50.4	-54.6	293	31	1.5
2025-07-16T12:00	11200	234	-50.8	-55.8	293	30	1.4
2025-07-16T12:00	11250	232	-51.1	-58.5	293	31	1.4
2025-07-16T12:00	11300	231	-51.3	-61.6	295	31	1.5
2025-07-16T12:00	11350	229	-51.4	-61.7	296	33	1.9
2025-07-16T12:00	11400	227	-51.6	-61.5	297	35	2.3
2025-07-16T12:00	11450	225	-51.5	-62.7	298	36	2.7
2025-07-16T12:00	11500	224	-51.6	-63.4	299	36	2.9
2025-07-16T12:00	11550	222	-51.8	-63.8	301	37	3.1
2025-07-16T12:00	11600	220	-52.0	-64.4	303	37	3.1
2025-07-16T12:00	11650	219	-52.1	-65.4	305	37	3.1
2025-07-16T12:00	11700	217	-52.1	-65.8	307	37	3.1
2025-07-16T12:00	11750	215	-52.4	-65.4	307	37	3.0
2025-07-16T12:00	11800	214	-52.7	-64.2	306	36	2.9
2025-07-16T12:00	11850	212	-53.1	-64.5	305	36	2.6
2025-07-16T12:00	11900	210	-53.2	-65.3	305	36	2.3
2025-07-16T12:00	11950	209	-53.4	-65.7	304	35	2.2
2025-07-16T12:00	12000	207	-53.6	-66.1	304	35	2.2
2025-07-16T12:00	12050	205	-54.0	-66.2	303	35	2.1
2025-07-16T12:00	12100	204	-54.5	-66.2	303	35	2.1
2025-07-16T12:00	12150	202	-55.0	-66.2	303	34	2.1
2025-07-16T12:00	12200	201	-55.4	-66.5	304	35	2.1
2025-07-16T12:00	12250	199	-55.2	-66.9	303	36	2.1
2025-07-16T12:00	12300	198	-54.9	-67.8	301	36	2.2
2025-07-16T12:00	12350	196	-55.0	-68.4	300	36	2.4
2025-07-16T12:00	12400	194	-55.5	-68.4	300	36	2.7
2025-07-16T12:00	12450	193	-55.7	-68.9	301	37	2.8
2025-07-16T12:00	12500	191	-55.5	-69.9	302	39	2.9
2025-07-16T12:00	12550	190	-55.1	-71.1	304	40	3.0
2025-07-16T12:00	12600	188	-54.8	-71.9	306	41	3.2
2025-07-16T12:00	12650	187	-54.4	-73.6	308	42	3.3
2025-07-16T12:00	12700	185	-54.4	-73.8	310	43	3.4
2025-07-16T12:00	12750	184	-54.7	-73.7	311	43	3.5
2025-07-16T12:00	12800	183	-54.7	-73.9	312	41	3.5
2025-07-16T12:00	12850	181	-54.6	-74.4	311	40	3.5
2025-07-16T12:00	12900	180	-54.7	-74.8	309	38	3.5
2025-07-16T12:00	12950	178	-54.9	-75.1	307	37	3.4
2025-07-16T12:00	13000	177	-54.8	-75.9	304	36	3.4
2025-07-16T12:00	13050	176	-54.4	-76.9	301	36	3.3
2025-07-16T12:00	13100	174	-53.8	-77.6	300	36	3.2
2025-07-16T12:00	13150	173	-53.9	-77.8	301	37	3.0
2025-07-16T12:00	13200	171	-54.0	-77.8	302	38	3.0
2025-07-16T12:00	13250	170	-54.1	-78.1	302	39	2.9
2025-07-16T12:00	13300	169	-54.4	-78.4	301	39	2.8
2025-07-16T12:00	13350	168	-54.6	-78.7	301	39	2.7
2025-07-16T12:00	13400	166	-54.7	-79.0	301	39	2.6
2025-07-16T12:00	13450	165	-54.5	-79.4	302	38	2.5
2025-07-16T12:00	13500	164	-54.4	-79.7	303	37	2.4
2025-07-16T12:00	13550	162	-54.5	-79.9	304	37	2.3
2025-07-16T12:00	13600	161	-54.9	-80.0	303	36	2.3
2025-07-16T12:00	13650	160	-55.2	-80.0	302	36	2.2
2025-07-16T12:00	13700	159	-55.4	-80.0	300	36	2.2
2025-07-16T12:00	13750	157	-55.5	-80.0	299	36	2.2
2025-07-16T12:00	13800	156	-55.6	-80.3	298	37	2.2
2025-07-16T12:00	13850	155	-55.7	-80.4	298	37	2.3
2025-07-16T12:00	13900	154	-55.9	-80.4	298	37	2.2
2025-07-16T12:00	13950	153	-55.8	-80.5	298	37	2.2
2025-07-16T12:00	14000	151	-55.9	-80.7	300	37	2.2
2025-07-16T12:00	14050	150	-55.8	-80.6	303	37	2.3
2025-07-16T12:00	14100	149	-55.7	-80.6	305	37	2.4
2025-07-16T12:00	14150	148	-56.0	-80.7	306	36	2.4
2025-07-16T12:00	14200	147	-56.5	-80.8	306	34	2.6
2025-07-16T12:00	14250	146	-56.7	-81.0	305	33	2.9
2025-07-16T12:00	14300	144	-56.3	-81.0	303	32	3.4
2025-07-16T12:00	14350	143	-56.2	-81.2	302	32	3.8
2025-07-16T12:00	14400	142	-56.3	-81.3	301	33	4.0
2025-07-16T12:00	14450	141	-56.5	-81.4	302	33	4.2
2025-07-16T12:00	14500	140	-56.5	-81.5	305	33	4.2
2025-07-16T12:00	14550	139	-56.4	-81.7	309	32	4.3
2025-07-16T12:00	14600	138	-56.4	-81.9	311	31	4.4
2025-07-16T12:00	14650	137	-56.6	-82.1	312	30	4.5
2025-07-16T12:00	14700	135	-57.0	-82.2	312	29	4.7
2025-07-16T12:00	14750	134	-57.3	-82.3	311	29	4.8
2025-07-16T12:00	14800	133	-57.6	-82.3	311	28	4.9
2025-07-16T12:00	14850	132	-58.1	-82.5	310	27	4.9
2025-07-16T12:00	14900	131	-58.4	-82.7	307	26	5.0
2025-07-16T12:00	14950	130	-58.6	-82.8	304	25	5.0
2025-07-16T12:00	15000	129	-58.6	-83.1	302	24	5.0
2025-07-16T12:00	15050	128	-58.2	-83.1	301	25	5.1
2025-07-16T12:00	15100	127	-57.5	-83.0	302	25	5.1
2025-07-16T12:00	15150	126	-57.4	-83.0	302	25	4.9
2025-07-16T12:00	15200	125	-57.8	-83.2	302	25	4.8
2025-07-16T12:00	15250	124	-57.5	-83.1	303	23	4.7
2025-07-16T12:00	15300	123	-57.7	-83.2	303	22	4.7
2025-07-16T12:00	15350	122	-58.1	-83.3	302	21	4.6
2025-07-16T12:00	15400	121	-58.2	-83.4	301	21	4.6
2025-07-16T12:00	15450	120	-58.3	-83.5	299	20	4.5
2025-07-16T12:00	15500	119	-58.3	-83.6	297	19	4.5
2025-07-16T12:00	15550	118	-58.2	-83.6	296	20	4.5
2025-07-16T12:00	15600	117	-58.1	-83.6	296	21	4.5
2025-07-16T12:00	15650	117	-57.7	-83.4	296	21	4.4
2025-07-16T12:00	15700	116	-57.9	-83.6	298	21	4.4
2025-07-16T12:00	15750	115	-57.9	-83.6	299	21	4.5
2025-07-16T12:00	15800	114	-57.9	-83.7	301	20	4.6
2025-07-16T12:00	15850	113	-57.9	-83.8	301	19	4.8
2025-07-16T12:00	15900	112	-57.8	-83.8	299	18	5.0
2025-07-16T12:00	15950	111	-58.0	-83.9	296	18	5.1
2025-07-16T12:00	16000	110	-58.4	-84.1	293	18	5.1
2025-07-16T12:00	16050	109	-58.5	-84.1	291	18	5.1
2025-07-16T12:00	16100	109	-58.7	-84.1	291	18	5.1
2025-07-16T12:00	16150	108	-59.0	-84.2	294	18	5.0
2025-07-16T12:00	16200	107	-59.4	-84.4	297	18	4.9
2025-07-16T12:00	16250	106	-59.4	-84.5	299	18	4.8
2025-07-16T12:00	16300	105	-59.4	-84.7	301	18	4.9
2025-07-16T12:00	16350	104	-59.3	-84.9	304	18	5.3
2025-07-16T12:00	16400	103	-58.6	-84.8	307	17	5.8
2025-07-16T12:00	16450	103	-58.3	-84.7	311	16	6.1
2025-07-16T12:00	16500	102	-58.4	-84.6	314	16	6.4
2025-07-16T12:00	16550	101	-58.7	-84.6	315	16	6.5
2025-07-16T12:00	16600	100	-59.1	-84.6	314	17	6.6
2025-07-16T12:00	16650	99	-59.3	-84.7	313	17	6.7
2025-07-16T12:00	16700	99	-59.5	-84.8	313	16	6.7
2025-07-16T12:00	16750	98	-59.7	-84.9	313	15	6.7
2025-07-16T12:00	16800	97	-60.1	-85.1	312	13	6.9
2025-07-16T12:00	16850	96	-60.0	-85.1	306	13	7.1
2025-07-16T12:00	16900	95	-59.9	-85.2	299	13	7.2
2025-07-16T12:00	16950	95	-60.0	-85.4	294	13	7.3
2025-07-16T12:00	17000	94	-59.6	-85.4	296	14	7.3
2025-07-16T12:00	17050	93	-58.6	-85.3	301	14	7.4
2025-07-16T12:00	17100	93	-57.8	-85.1	305	13	7.4
2025-07-16T12:00	17150	92	-57.7	-85.0	306	13	7.4
2025-07-16T12:00	17200	91	-57.5	-84.8	307	14	7.5
2025-07-16T12:00	17250	90	-57.3	-84.8	310	15	7.5
2025-07-16T12:00	17300	90	-56.8	-84.8	314	14	7.5
2025-07-16T12:00	17350	89	-56.3	-84.6	318	13	7.5
2025-07-16T12:00	17400	88	-56.1	-84.4	317	12	7.5
2025-07-16T12:00	17450	88	-56.5	-84.4	314	11	7.5
2025-07-16T12:00	17500	87	-56.9	-84.3	309	11	7.5
2025-07-16T12:00	17550	86	-57.3	-84.4	304	10	7.5
2025-07-16T12:00	17600	85	-57.9	-84.6	300	10	7.5
2025-07-16T12:00	17650	85	-58.1	-84.7	297	10	7.4
2025-07-16T12:00	17700	84	-58.3	-85.0	293	11	7.3
2025-07-16T12:00	17750	83	-58.3	-85.2	293	12	7.4
2025-07-16T12:00	17800	83	-57.7	-85.0	297	12	7.3
2025-07-16T12:00	17850	82	-57.7	-85.0	305	11	7.0
2025-07-16T12:00	17900	81	-57.9	-85.0	314	11	6.7
2025-07-16T12:00	17950	81	-57.9	-85.0	319	11	6.4
2025-07-16T12:00	18000	80	-57.9	-85.0	323	10	6.2
2025-07-16T12:00	18050	80	-58.0	-85.0	322	10	6.0
2025-07-16T12:00	18100	79	-58.1	-85.1	320	10	5.9
2025-07-16T12:00	18150	78	-58.2	-85.1	320	9	5.8
2025-07-16T12:00	18200	78	-58.2	-85.2	322	8	5.8
2025-07-16T12:00	18250	77	-57.9	-85.2	328	6	5.9
2025-07-16T12:00	18300	76	-57.5	-85.0	341	5	6.0
2025-07-16T12:00	18350	76	-57.7	-85.0	4	4	6.2
2025-07-16T12:00	18400	75	-58.0	-85.0	22	4	6.4
2025-07-16T12:00	18450	75	-58.4	-85.0	27	4	6.6
2025-07-16T12:00	18500	74	-58.8	-85.2	31	3	6.7
2025-07-16T12:00	18550	74	-59.0	-85.4	36	2	6.8
2025-07-16T12:00	18600	73	-58.8	-85.5	7	1	7.1
2025-07-16T12:00	18650	72	-58.4	-85.6	292	2	7.5
2025-07-16T12:00	18700	72	-58.1	-85.6	285	4	8.0
2025-07-16T12:00	18750	71	-57.7	-85.4	290	6	8.3
2025-07-16T12:00	18800	71	-57.4	-85.3	300	7	8.4
2025-07-16T12:00	18850	70	-57.1	-85.3	312	8	8.6
2025-07-16T12:00	18900	70	-56.6	-85.1	323	8	8.6
2025-07-16T12:00	18950	69	-56.4	-85.0	332	8	8.7
2025-07-16T12:00	19000	68	-56.0	-84.8	338	8	8.6
2025-07-16T12:00	19050	68	-55.9	-84.7	344	8	8.5
2025-07-16T12:00	19100	67	-56.0	-84.7	350	8	8.5
2025-07-16T12:00	19150	67	-56.0	-84.6	356	8	8.5
2025-07-16T12:00	19200	66	-56.4	-84.6	360	7	8.5
2025-07-16T12:00	19250	66	-56.7	-84.7	1	5	8.4
2025-07-16T12:00	19300	65	-56.8	-84.6	1	5	8.5
2025-07-16T12:00	19350	65	-57.3	-84.9	359	4	8.5
2025-07-16T12:00	19400	64	-57.5	-85.0	355	4	8.5
2025-07-16T12:00	19450	64	-57.9	-85.1	350	4	8.5
2025-07-16T12:00	19500	63	-58.2	-85.3	351	4	8.5
2025-07-16T12:00	19550	63	-58.1	-85.5	354	5	8.5
2025-07-16T12:00	19600	62	-57.5	-85.5	0	5	8.6
2025-07-16T12:00	19650	62	-56.9	-85.4	9	5	8.7
2025-07-16T12:00	19700	61	-56.5	-85.2	18	5	8.9
2025-07-16T12:00	19750	61	-56.7	-85.2	24	5	9.2
2025-07-16T12:00	19800	60	-56.4	-85.0	29	6	9.3
2025-07-16T12:00	19850	60	-56.5	-85.0	35	6	9.4
2025-07-16T12:00	19900	59	-56.4	-84.9	43	6	9.4
2025-07-16T12:00	19950	59	-56.6	-85.0	51	6	9.5
2025-07-16T12:00	20000	58	-56.6	-85.0	61	7	9.6
2025-07-16T12:00	20050	58	-56.4		69	7	9.6
2025-07-16T12:00	20100	58	-56.7		77	7	9.7
2025-07-16T12:00	20150	57	-56.7		80	6	9.7
2025-07-16T12:00	20200	57	-56.7		80	6	9.7
2025-07-16T12:00	20250	56	-56.8		80	5	9.8
2025-07-16T12:00	20300	56	-57.2		80	5	9.8
2025-07-16T12:00	20350	55	-57.7		82	5	9.8
2025-07-16T12:00	20400	55	-57.7		86	4	9.9
2025-07-16T12:00	20450	54	-57.3		94	3	10.0
2025-07-16T12:00	20500	54	-57.1		104	2	10.1
2025-07-16T12:00	20550	54	-57.0		105	1	10.2
2025-07-16T12:00	20600	53	-56.8		44	1	10.3
2025-07-16T12:00	20650	53	-56.5		42	1	10.4
2025-07-16T12:00	20700	52	-56.3		57	2	10.6
2025-07-16T12:00	20750	52	-56.2		65	2	10.7
2025-07-16T12:00	20800	52	-55.9		62	2	10.9
2025-07-16T12:00	20850	51	-55.6		51	2	11.0
2025-07-16T12:00	20900	51	-55.2		48	3	11.2
2025-07-16T12:00	20950	50	-55.1		53	4	11.2
2025-07-16T12:00	21000	50	-55.1		59	5	11.3
2025-07-16T12:00	21050	50	-55.1		63	4	11.5
2025-07-16T12:00	21100	49	-55.1		58	3	11.6
2025-07-16T12:00	21150	49	-55.0		41	2	11.8
2025-07-16T12:00	21200	48	-55.1		20	2	11.8
2025-07-16T12:00	21250	48	-55.2		18	3	11.8
2025-07-16T12:00	21300	48	-55.0		25	4	11.8
2025-07-16T12:00	21350	47	-54.9		35	6	11.9
2025-07-16T12:00	21400	47	-55.2		46	7	12.0
2025-07-16T12:00	21450	47	-55.1		59	8	12.1
2025-07-16T12:00	21500	46	-54.9		69	8	12.1
2025-07-16T12:00	21550	46	-54.8		75	7	12.2
2025-07-16T12:00	21600	45	-54.7		80	6	12.5
2025-07-16T12:00	21650	45	-54.5		81	6	12.6
2025-07-16T12:00	21700	45	-54.4		81	6	12.8
2025-07-16T12:00	21750	44	-54.2		82	5	12.9
2025-07-16T12:00	21800	44	-54.4		85	5	13.0
2025-07-16T12:00	21850	44	-54.5		85	6	13.2
2025-07-16T12:00	21900	43	-54.3		82	6	13.3
2025-07-16T12:00	21950	43	-54.3		80	6	13.3
2025-07-16T12:00	22000	43	-54.1		77	7	13.4
2025-07-16T12:00	22050	42	-54.2		77	8	13.4
2025-07-16T12:00	22100	42	-54.0		80	9	13.5
2025-07-16T12:00	22150	42	-54.0		83	10	13.5
2025-07-16T12:00	22200	41	-53.9		86	10	13.5
2025-07-16T12:00	22250	41	-53.9		90	10	13.6
2025-07-16T12:00	22300	41	-53.9		95	9	13.4
2025-07-16T12:00	22350	40	-53.8		99	8	13.5
2025-07-16T12:00	22400	40	-53.8		101	6	13.5
2025-07-16T12:00	22450	40	-53.9		98	6	13.4
2025-07-16T12:00	22500	39	-53.7		91	6	13.5
2025-07-16T12:00	22550	39	-53.6		85	6	13.5
2025-07-16T12:00	22600	39	-53.2		87	7	13.5
2025-07-16T12:00	22650	39	-52.8		91	8	13.5
2025-07-16T12:00	22700	38	-52.9		93	8	13.5
2025-07-16T12:00	22750	38	-52.8		94	8	13.4
2025-07-16T12:00	22800	38	-52.8		95	8	13.2
2025-07-16T12:00	22850	37	-52.9		96	8	13.0
2025-07-16T12:00	22900	37	-52.9		95	8	12.9
2025-07-16T12:00	22950	37	-53.0		92	8	12.7
2025-07-16T12:00	23000	37	-53.0		90	8	12.6
2025-07-16T12:00	23050	36	-53.0		89	9	12.3
2025-07-16T12:00	23100	36	-53.1		90	9	12.2
2025-07-16T12:00	23150	36	-53.2		93	10	12.1
2025-07-16T12:00	23200	35	-53.3		95	11	12.0
2025-07-16T12:00	23250	35	-53.3		94	11	11.9
2025-07-16T12:00	23300	35	-53.1		90	11	12.0
2025-07-16T12:00	23350	35	-53.3		85	10	11.9
2025-07-16T12:00	23400	34	-53.4		80	9	11.9
2025-07-16T12:00	23450	34	-53.3		75	8	11.9
2025-07-16T12:00	23500	34	-53.2		74	8	11.8
2025-07-16T12:00	23550	34	-53.3		77	9	11.9
2025-07-16T12:00	23600	33	-53.5		82	10	12.0
2025-07-16T12:00	23650	33	-53.6		88	11	12.0
2025-07-16T12:00	23700	33	-53.7		92	11	12.0
2025-07-16T12:00	23750	33	-53.9		96	12	12.0
2025-07-16T12:00	23800	32	-54.0		99	12	11.9
2025-07-16T12:00	23850	32	-53.8		99	12	11.8
2025-07-16T12:00	23900	32	-53.5		98	11	11.8
2025-07-16T12:00	23950	32	-53.1		97	11	11.7
2025-07-16T12:00	24000	31	-52.6		97	11	11.7
2025-07-16T12:00	24050	31	-52.3		97	11	11.8
2025-07-16T12:00	24100	31	-52.2		96	12	11.9
2025-07-16T12:00	24150	31	-52.1		93	12	12.0
2025-07-16T12:00	24200	30	-52.0		91	11	12.1
2025-07-16T12:00	24250	30	-51.8		90	11	12.3
2025-07-16T12:00	24300	30	-51.8		94	10	12.4
2025-07-16T12:00	24350	30	-51.8		100	10	12.6
2025-07-16T12:00	24400	29	-51.7		106	11	12.7
2025-07-16T12:00	24450	29	-51.7		111	11	12.7
2025-07-16T12:00	24500	29	-52.0		116	11	12.9
2025-07-16T12:00	24550	29	-52.0		119	10	13.0
2025-07-16T12:00	24600	29	-52.0		120	9	13.0
2025-07-16T12:00	24650	28	-52.2		117	8	12.9
2025-07-16T12:00	24700	28	-52.2		114	7	13.0
2025-07-16T12:00	24750	28	-52.1		111	7	13.0
2025-07-16T12:00	24800	28	-51.8		107	7	13.1
2025-07-16T12:00	24850	27	-51.4		99	7	13.1
2025-07-16T12:00	24900	27	-51.2		92	7	13.2
2025-07-16T12:00	24950	27	-50.9		91	8	13.2
2025-07-16T12:00	25000	27	-50.6		95	8	13.2
2025-07-16T12:00	25050	27	-50.6		101	8	13.2
2025-07-16T12:00	25100	26	-50.6		105	9	13.3
2025-07-16T12:00	25150	26	-50.5		106	10	13.3
2025-07-16T12:00	25200	26	-50.4		106	12	13.4
2025-07-16T12:00	25250	26	-50.3		107	12	13.4
2025-07-16T12:00	25300	26	-50.3		107	12	13.3
2025-07-16T12:00	25350	25	-50.3		105	12	13.3
2025-07-16T12:00	25400	25	-50.4		99	11	13.3
2025-07-16T12:00	25450	25	-50.3		92	11	13.3
2025-07-16T12:00	25500	25	-50.1		84	10	13.3
2025-07-16T12:00	25550	25	-50.3		77	10	13.3
2025-07-16T12:00	25600	24	-50.2		73	10	13.3
2025-07-16T12:00	25650	24	-50.0		73	9	13.2
2025-07-16T12:00	25700	24	-50.2		76	9	13.1
2025-07-16T12:00	25750	24	-50.4		79	9	13.0
2025-07-16T12:00	25800	24	-50.6		82	9	12.9
2025-07-16T12:00	25850	24	-50.5		85	9	12.9
2025-07-16T12:00	25900	23	-50.6		88	9	13.0
2025-07-16T12:00	25950	23	-50.5		91	9	13.0
2025-07-16T12:00	26000	23	-50.3		92	9	13.0
2025-07-16T12:00	26050	23	-49.9		88	8	13.1
2025-07-16T12:00	26100	23	-49.6		83	8	13.1
2025-07-16T12:00	26150	22	-49.7		77	7	13.2
2025-07-16T12:00	26200	22	-49.8		72	8	13.1
2025-07-16T12:00	26250	22	-49.6		69	9	13.0
2025-07-16T12:00	26300	22	-49.4		70	10	13.0
2025-07-16T12:00	26350	22	-49.4		71	11	13.0
2025-07-16T12:00	26400	22	-49.4		72	11	13.0
2025-07-16T12:00	26450	21	-49.4		73	12	12.8
2025-07-16T12:00	26500	21	-49.3		76	13	12.8
2025-07-16T12:00	26550	21	-49.3		81	14	12.8
2025-07-16T12:00	26600	21	-49.4		86	14	12.8
2025-07-16T12:00	26650	21	-49.3		90	14	12.8
2025-07-16T12:00	26700	21	-49.1		94	14	12.8
2025-07-16T12:00	26750	21	-48.8		97	15	12.8
2025-07-16T12:00	26800	20	-48.8		99	15	12.8
2025-07-16T12:00	26850	20	-48.6		101	14	12.8
2025-07-16T12:00	26900	20	-48.4		103	13	12.8
2025-07-16T12:00	26950	20	-48.5		103	12	12.8
2025-07-16T12:00	27000	20	-48.5		102	11	12.7
2025-07-16T12:00	27050	20	-48.3		101	11	12.7
2025-07-16T12:00	27100	19	-48.2		101	11	12.6
2025-07-16T12:00	27150	19	-48.1		103	12	12.6
2025-07-16T12:00	27200	19	-48.1		106	12	12.6
2025-07-16T12:00	27250	19	-48.2		110	12	12.6
2025-07-16T12:00	27300	19	-48.3		113	11	12.4
2025-07-16T12:00	27350	19	-48.3		114	11	12.4
2025-07-16T12:00	27400	19	-48.2		111	11	12.4
2025-07-16T12:00	27450	18	-48.1		107	11	12.3
2025-07-16T12:00	27500	18	-48.1		103	11	12.3
2025-07-16T12:00	27550	18	-48.2		103	12	12.2
2025-07-16T12:00	27600	18	-48.2		108	12	12.1
2025-07-16T12:00	27650	18	-48.4		112	12	11.9
2025-07-16T12:00	27700	18	-48.4		116	12	11.8
2025-07-16T12:00	27750	18	-48.2		120	12	11.6
2025-07-16T12:00	27800	17	-48.0		125	12	11.5
2025-07-16T12:00	27850	17	-47.9		129	11	11.4
2025-07-16T12:00	27900	17	-47.8		128	10	11.3
2025-07-16T12:00	27950	17	-47.4		122	9	11.3
2025-07-16T12:00	28000	17	-47.0		115	9	11.2
2025-07-16T12:00	28050	17	-46.9		115	9	11.3
2025-07-16T12:00	28100	17	-46.8		118	9	11.3
2025-07-16T12:00	28150	17	-46.8		123	9	11.3
2025-07-16T12:00	28200	16	-46.7		126	9	11.3
2025-07-16T12:00	28250	16	-46.6		129	9	11.2
2025-07-16T12:00	28300	16	-46.5		130	8	11.1
2025-07-16T12:00	28350	16	-46.6		128	7	11.1
2025-07-16T12:00	28400	16	-46.3		122	6	11.0
2025-07-16T12:00	28450	16	-46.3		115	6	10.9
2025-07-16T12:00	28500	16	-46.2		106	6	10.9
2025-07-16T12:00	28550	16	-46.2		100	6	10.8
2025-07-16T12:00	28600	16	-46.1		94	7	10.8
2025-07-16T12:00	28650	15	-45.6		89	7	10.7
2025-07-16T12:00	28700	15	-45.3		82	7	10.7
2025-07-16T12:00	28750	15	-45.0		75	7	10.7
2025-07-16T12:00	28800	15	-44.8		72	8	10.7
2025-07-16T12:00	28850	15	-44.6		74	10	10.8
2025-07-16T12:00	28900	15	-44.3		78	11	10.8
2025-07-16T12:00	28950	15	-44.1		82	11	10.7
2025-07-16T12:00	29000	15	-44.1		83	12	10.6
2025-07-16T12:00	29050	14	-44.2		83	12	10.6
2025-07-16T12:00	29100	14	-44.2		82	12	10.5
2025-07-16T12:00	29150	14	-44.2		81	12	10.4
2025-07-16T12:00	29200	14	-44.3		81	12	10.4
2025-07-16T12:00	29250	14	-44.3		79	12	10.3
2025-07-16T12:00	29300	14	-44.2		77	12	10.2
2025-07-16T12:00	29350	14	-44.2		74	11	10.1
2025-07-16T12:00	29400	14	-44.1		72	11	10.1
2025-07-16T12:00	29450	14	-44.0		72	11	10.1
2025-07-16T12:00	29500	14	-43.8		72	11	10.0
2025-07-16T12:00	29550	13	-43.3		74	11	10.0
2025-07-16T12:00	29600	13	-43.0		75	11	10.0
2025-07-16T12:00	29650	13	-43.1		77	10	10.0
2025-07-16T12:00	29700	13	-42.9		75	9	10.0
2025-07-16T12:00	29750	13	-42.7		73	10	10.0
2025-07-16T12:00	29800	13	-42.5		72	12	10.0
2025-07-16T12:00	29850	13	-42.4		73	13	9.9
2025-07-16T12:00	29900	13	-42.5		73	14	9.8
2025-07-16T12:00	29950	13	-42.5		74	15	9.7
2025-07-16T12:00	30000	13	-42.3		76	15	9.6
2025-07-16T12:00	30050	12	-42.2		80	15	9.6
2025-07-16T12:00	30100	12	-42.1		84	14	9.5
2025-07-16T12:00	30150	12	-42.0		87	13	9.4
2025-07-16T12:00	30200	12	-41.9		88	12	9.4
2025-07-16T12:00	30250	12	-41.7		86	11	9.3
2025-07-16T12:00	30300	12	-41.5		80	11	9.3
2025-07-16T12:00	30350	12	-41.1		74	11	9.3
2025-07-16T12:00	30400	12	-40.8		71	11	9.4
2025-07-16T12:00	30450	12	-40.6		73	11	9.4
2025-07-16T12:00	30500	12	-40.4		77	12	9.7
2025-07-16T12:00	30550	12	-40.2		82	12	9.9
2025-07-16T12:00	30600	12	-39.8		84	12	9.9
2025-07-16T12:00	30650	11	-39.4		85	10	9.8
2025-07-16T12:00	30700	11	-39.2		86	9	9.6
2025-07-16T12:00	30750	11	-39.1		86	9	9.4
2025-07-16T12:00	30800	11	-38.8		85	10	9.3
2025-07-16T12:00	30850	11	-38.6		83	11	9.3
2025-07-16T12:00	30900	11	-38.2		83	12	9.3
2025-07-16T12:00	30950	11	-38.1		85	12	9.1
2025-07-16T12:00	31000	11	-37.9		87	12	9.0
2025-07-16T12:00	31050	11	-37.8		86	12	8.8
2025-07-16T12:00	31100	11	-37.8		83	12	8.7
2025-07-16T12:00	31150	11	-37.7		84	13	8.6
2025-07-16T12:00	31200	11	-37.4		85	13	8.5
2025-07-17T00:00	491	962	18.8	14.3	199	2	
2025-07-17T00:00	501	960	18.9	14.4	196	3	
2025-07-17T00:00	520	959	18.7	14.4	195	3	
2025-07-17T00:00	540	957	18.6	14.2	195	4	
2025-07-17T00:00	560	955	18.5	14.0	195	4	
2025-07-17T00:00	580	952	18.3	13.9	196	5	
2025-07-17T00:00	600	950	18.2	13.8	198	5	
2025-07-17T00:00	620	948	18.1	13.8	200	5	
2025-07-17T00:00	640	946	17.8	13.8	203	6	
2025-07-17T00:00	660	944	17.7	13.6	206	6	
2025-07-17T00:00	680	941	17.9	13.2	208	6	
2025-07-17T00:00	700	939	18.0	13.0	210	6	
2025-07-17T00:00	720	937	17.9	12.8	211	6	
2025-07-17T00:00	740	935	17.8	12.7	213	6	
2025-07-17T00:00	760	933	17.7	12.5	214	6	
2025-07-17T00:00	780	930	17.5	12.5	216	6	
2025-07-17T00:00	800	928	17.3	12.5	217	6	
2025-07-17T00:00	820	926	17.1	12.4	220	6	
2025-07-17T00:00	840	924	16.9	12.5	222	6	
2025-07-17T00:00	860	922	16.8	12.3	223	6	
2025-07-17T00:00	880	920	16.7	12.1	226	7	
2025-07-17T00:00	900	917	16.6	12.0	227	7	
2025-07-17T00:00	920	915	16.5	11.9	230	8	
2025-07-17T00:00	940	913	16.4	11.9	232	8	
2025-07-17T00:00	960	911	16.2	11.8	234	8	
2025-07-17T00:00	980	909	16.0	11.8	236	9	
2025-07-17T00:00	1000	906	15.8	11.7	237	9	
2025-07-17T00:00	1020	904	15.8	11.7	238	8	
2025-07-17T00:00	1040	902	15.6	11.6	238	8	
2025-07-17T00:00	1060	900	15.5	11.5	237	8	
2025-07-17T00:00	1080	898	15.3	11.4	236	8	
2025-07-17T00:00	1100	896	15.1	11.4	235	8	
2025-07-17T00:00	1120	894	14.9	11.4	235	7	
2025-07-17T00:00	1140	892	14.8	11.3	234	7	
2025-07-17T00:00	1160	890	14.6	11.3	235	7	
2025-07-17T00:00	1180	888	14.5	11.2	236	7	
2025-07-17T00:00	1200	885	14.3	11.1	237	7	
2025-07-17T00:00	1220	883	14.1	11.1	238	7	
2025-07-17T00:00	1240	881	13.9	11.1	239	7	
2025-07-17T00:00	1260	879	13.8	11.0	240	7	
2025-07-17T00:00	1280	877	13.5	11.0	241	7	
2025-07-17T00:00	1300	875	13.4	10.9	242	7	
2025-07-17T00:00	1320	873	13.2	10.9	245	7	
2025-07-17T00:00	1340	871	13.0	10.9	248	7	
2025-07-17T00:00	1360	869	12.8	10.9	253	7	
2025-07-17T00:00	1380	867	12.6	10.8	256	7	
2025-07-17T00:00	1400	865	12.4	10.8	258	7	
2025-07-17T00:00	1420	863	12.2	10.7	258	8	
2025-07-17T00:00	1440	861	12.0	10.8	257	8	
2025-07-17T00:00	1460	859	11.8	10.7	257	8	
2025-07-17T00:00	1480	857	11.6	10.6	259	8	
2025-07-17T00:00	1500	855	11.3	10.6	262	8	
2025-07-17T00:00	1520	852	11.1	10.6	265	7	
2025-07-17T00:00	1540	850	11.0	10.6	268	7	
2025-07-17T00:00	1560	848	10.8	10.5	271	7	
2025-07-17T00:00	1580	846	10.8	10.3	273	7	
2025-07-17T00:00	1600	844	10.7	10.2	274	7	
2025-07-17T00:00	1620	842	10.5	10.3	275	7	
2025-07-17T00:00	1640	840	10.2	10.2	276	7	
2025-07-17T00:00	1660	838	10.2	9.9	275	7	
2025-07-17T00:00	1680	836	10.3	9.7	274	7	
2025-07-17T00:00	1700	834	10.1	9.7	272	7	
2025-07-17T00:00	1720	832	9.9	9.8	269	7	
2025-07-17T00:00	1740	830	9.8	9.6	267	7	
2025-07-17T00:00	1760	828	9.7	9.6	266	8	
2025-07-17T00:00	1780	826	9.8	9.2	266	7	
2025-07-17T00:00	1800	824	9.7	9.1	268	7	
2025-07-17T00:00	1820	822	9.4	9.2	270	7	
2025-07-17T00:00	1840	820	9.2	9.1	273	7	
2025-07-17T00:00	1860	818	9.1	9.1	276	6	
2025-07-17T00:00	1880	816	9.0	9.0	278	6	
2025-07-17T00:00	1900	815	8.9	8.9	280	6	
2025-07-17T00:00	1920	813	8.8	8.8	282	6	
2025-07-17T00:00	1940	811	8.7	8.7	284	7	
2025-07-17T00:00	1960	809	8.6	8.6	285	7	
2025-07-17T00:00	1980	807	8.5	8.5	286	7	
2025-07-17T00:00	2000	805	8.4	8.4	287	7	
2025-07-17T00:00	2020	803	8.3	8.3	288	8	
2025-07-17T00:00	2040	801	8.2	8.2	289	8	
2025-07-17T00:00	2060	799	8.1	8.1	290	8	
2025-07-17T00:00	2080	797	8.0	8.0	291	8	
2025-07-17T00:00	2100	795	7.9	7.9	292	9	
2025-07-17T00:00	2120	793	7.8	7.8	293	9	
2025-07-17T00:00	2140	791	7.7	7.7	294	9	
2025-07-17T00:00	2160	789	7.6	7.6	296	9	
2025-07-17T00:00	2180	787	7.5	7.5	299	10	
2025-07-17T00:00	2200	785	7.4	7.4	301	10	
2025-07-17T00:00	2220	783	7.3	7.3	304	10	
2025-07-17T00:00	2240	782	7.2	7.2	305	10	
2025-07-17T00:00	2260	780	7.1	7.1	305	10	
2025-07-17T00:00	2280	778	7.0	7.0	304	10	
2025-07-17T00:00	2300	776	6.9	6.9	304	10	
2025-07-17T00:00	2320	774	6.8	6.8	305	10	
2025-07-17T00:00	2340	772	6.7	6.7	307	10	
2025-07-17T00:00	2360	770	6.6	6.6	309	11	
2025-07-17T00:00	2380	769	6.5	6.5	311	11	
2025-07-17T00:00	2400	767	6.4	6.4	312	11	
2025-07-17T00:00	2420	765	6.2	6.2	312	11	
2025-07-17T00:00	2440	763	6.1	6.1	311	12	
2025-07-17T00:00	2460	761	6.0	6.0	310	11	
2025-07-17T00:00	2480	759	5.7	5.7	308	11	
2025-07-17T00:00	2500	758	5.4	5.3	308	11	
2025-07-17T00:00	2520	756	5.2	4.8	307	10	
2025-07-17T00:00	2540	754	5.2	4.5	307	10	
2025-07-17T00:00	2560	752	5.1	4.1	306	9	
2025-07-17T00:00	2580	750	5.0	3.8	306	9	
2025-07-17T00:00	2600	748	4.9	3.6	305	8	
2025-07-17T00:00	2620	746	4.8	3.3	303	8	
2025-07-17T00:00	2640	745	4.7	3.1	301	8	
2025-07-17T00:00	2660	743	4.5	3.0	300	8	
2025-07-17T00:00	2680	741	4.4	3.0	297	9	
2025-07-17T00:00	2700	739	4.2	2.8	296	10	
2025-07-17T00:00	2720	737	4.1	2.5	297	10	
2025-07-17T00:00	2740	735	4.1	2.1	299	11	
2025-07-17T00:00	2760	733	3.9	1.9	302	11	
2025-07-17T00:00	2780	732	3.8	2.0	305	11	
2025-07-17T00:00	2800	730	3.6	2.0	308	11	
2025-07-17T00:00	2820	728	3.5	2.0	308	11	
2025-07-17T00:00	2840	726	3.3	1.9	308	11	
2025-07-17T00:00	2860	725	3.1	1.8	307	11	
2025-07-17T00:00	2880	723	3.0	1.7	304	10	
2025-07-17T00:00	2900	721	2.8	1.6	302	10	
2025-07-17T00:00	2920	719	2.7	1.4	300	10	
2025-07-17T00:00	2940	718	2.6	1.2	298	10	
2025-07-17T00:00	2960	716	2.5	0.9	296	10	
2025-07-17T00:00	2980	714	2.4	0.5	296	10	
2025-07-17T00:00	3000	712	2.3	0.5	296	10	
2025-07-17T00:00	3020	711	2.2	0.2	297	10	
2025-07-17T00:00	3040	709	2.0	0.0	298	10	
2025-07-17T00:00	3060	707	2.0	-0.6	299	10	
2025-07-17T00:00	3080	705	2.0	-1.0	300	11	
2025-07-17T00:00	3100	704	1.9	-1.1	300	11	
2025-07-17T00:00	3120	702	1.7	-1.3	300	11	
2025-07-17T00:00	3140	700	1.6	-1.4	301	11	
2025-07-17T00:00	3160	698	1.3	-1.1	301	11	
2025-07-17T00:00	3180	697	1.1	-1.2	302	10	
2025-07-17T00:00	3200	695	1.0	-1.4	303	10	
2025-07-17T00:00	3220	693	0.9	-1.7	304	10	
2025-07-17T00:00	3240	692	0.8	-1.9	306	10	
2025-07-17T00:00	3260	690	0.8	-2.7	308	10	
2025-07-17T00:00	3280	688	0.7	-3.2	310	10	
2025-07-17T00:00	3300	686	0.7	-3.9	312	11	
2025-07-17T00:00	3320	685	0.6	-3.8	315	12	
2025-07-17T00:00	3340	683	0.5	-4.2	317	13	
2025-07-17T00:00	3360	681	0.4	-4.7	318	13	
2025-07-17T00:00	3380	680	0.3	-5.1	318	14	
2025-07-17T00:00	3400	678	0.3	-5.4	317	14	
2025-07-17T00:00	3420	676	0.3	-6.5	315	14	
2025-07-17T00:00	3440	674	0.4	-7.9	314	14	
2025-07-17T00:00	3460	673	0.3	-9.0	312	14	
2025-07-17T00:00	3480	671	0.3	-9.8	311	14	
2025-07-17T00:00	3500	669	0.1	-9.3	310	14	
2025-07-17T00:00	3520	668	0.0	-9.6	310	14	
2025-07-17T00:00	3540	666	-0.1	-11.0	310	14	
2025-07-17T00:00	3560	664	-0.2	-11.7	311	14	
2025-07-17T00:00	3580	663	-0.3	-12.3	312	14	
2025-07-17T00:00	3600	661	-0.4	-13.1	312	14	
2025-07-17T00:00	3620	659	-0.6	-14.1	313	14	
2025-07-17T00:00	3640	658	-0.6	-19.0	313	14	
2025-07-17T00:00	3660	656	-0.7	-23.3	313	14	
2025-07-17T00:00	3680	654	-0.9	-23.2	313	14	
2025-07-17T00:00	3700	653	-1.0	-23.5	312	14	
2025-07-17T00:00	3720	651	-1.1	-23.3	312	14	
2025-07-17T00:00	3740	649	-1.2	-23.6	312	15	
2025-07-17T00:00	3760	648	-1.4	-22.9	312	15	
2025-07-17T00:00	3780	646	-1.4	-22.2	312	15	
2025-07-17T00:00	3800	645	-1.4	-22.6	312	15	
2025-07-17T00:00	3820	643	-1.6	-22.6	312	16	
2025-07-17T00:00	3840	642	-1.7	-22.9	311	16	
2025-07-17T00:00	3860	640	-1.7	-24.7	311	15	
2025-07-17T00:00	3880	638	-1.8	-24.4	310	15	
2025-07-17T00:00	3900	636	-1.8	-28.8	309	15	
2025-07-17T00:00	3920	635	-1.9	-29.0	307	14	
2025-07-17T00:00	3940	633	-2.0	-28.7	306	14	
2025-07-17T00:00	3960	632	-2.1	-29.0	304	14	
2025-07-17T00:00	3980	630	-2.2	-28.8	303	14	
2025-07-17T00:00	4000	629	-2.4	-28.3	303	14	
2025-07-17T00:00	4020	627	-2.6	-27.4	303	14	
2025-07-17T00:00	4040	625	-2.8	-26.8	304	14	
2025-07-17T00:00	4060	624	-2.9	-24.6	306	14	
2025-07-17T00:00	4080	622	-3.1	-21.6	307	14	
2025-07-17T00:00	4100	621	-3.2	-22.4	308	14	
2025-07-17T00:00	4120	619	-3.2	-23.7	309	14	
2025-07-17T00:00	4140	617	-3.3	-22.3	310	14	
2025-07-17T00:00	4160	616	-3.4	-20.7	310	14	
2025-07-17T00:00	4180	614	-3.6	-19.0	309	14	
2025-07-17T00:00	4200	613	-3.8	-19.2	308	15	
2025-07-17T00:00	4220	611	-3.9	-19.2	308	15	
2025-07-17T00:00	4240	610	-4.0	-19.8	308	15	
2025-07-17T00:00	4260	608	-4.0	-20.5	310	16	
2025-07-17T00:00	4280	607	-4.1	-20.8	311	16	
2025-07-17T00:00	4300	605	-4.0	-20.8	312	16	
2025-07-17T00:00	4320	604	-4.1	-20.9	313	16	
2025-07-17T00:00	4340	602	-4.3	-20.2	314	17	
2025-07-17T00:00	4360	600	-4.3	-19.4	315	17	
2025-07-17T00:00	4380	599	-4.2	-19.6	315	18	
2025-07-17T00:00	4400	598	-3.9	-20.1	316	18	
2025-07-17T00:00	4420	596	-3.9	-19.4	317	18	
2025-07-17T00:00	4440	594	-4.0	-18.4	317	18	
2025-07-17T00:00	4460	593	-4.2	-18.3	316	18	
2025-07-17T00:00	4480	592	-4.3	-18.4	316	18	
2025-07-17T00:00	4500	590	-4.5	-18.5	316	18	
2025-07-17T00:00	4520	588	-4.6	-18.6	317	19	
2025-07-17T00:00	4540	587	-4.7	-18.5	317	19	
2025-07-17T00:00	4560	586	-4.9	-18.1	317	19	
2025-07-17T00:00	4580	584	-5.0	-17.9	317	19	
2025-07-17T00:00	4600	583	-5.2	-16.5	316	19	
2025-07-17T00:00	4620	581	-5.3	-16.6	316	19	
2025-07-17T00:00	4640	580	-5.4	-18.4	316	19	
2025-07-17T00:00	4660	578	-5.4	-22.0	317	19	
2025-07-17T00:00	4680	577	-5.4	-22.5	317	19	
2025-07-17T00:00	4700	575	-5.6	-22.1	318	20	
2025-07-17T00:00	4720	574	-5.7	-22.1	318	20	
2025-07-17T00:00	4740	572	-5.9	-22.3	317	20	
2025-07-17T00:00	4760	571	-6.1	-22.4	316	21	
2025-07-17T00:00	4780	569	-6.2	-21.8	315	21	
2025-07-17T00:00	4800	568	-6.4	-20.7	314	21	
2025-07-17T00:00	4820	567	-6.5	-19.2	313	21	
2025-07-17T00:00	4840	565	-6.6	-18.9	312	21	
2025-07-17T00:00	4860	564	-6.7	-17.9	312	21	
2025-07-17T00:00	4880	562	-6.7	-16.8	312	22	
2025-07-17T00:00	4900	561	-6.8	-15.3	313	22	
2025-07-17T00:00	4920	559	-6.9	-15.0	314	22	
2025-07-17T00:00	4940	558	-7.1	-16.0	315	22	
2025-07-17T00:00	4960	556	-7.2	-16.8	315	22	
2025-07-17T00:00	4980	555	-7.3	-16.8	315	22	
2025-07-17T00:00	5000	553	-7.4	-14.7	315	22	
2025-07-17T00:00	5020	552	-7.6	-12.8	314	22	
2025-07-17T00:00	5040	551	-7.7	-12.0	313	22	
2025-07-17T00:00	5060	549	-7.9	-12.6	312	22	
2025-07-17T00:00	5080	548	-7.9	-15.1	312	23	
2025-07-17T00:00	5100	546	-8.0	-16.6	312	23	
2025-07-17T00:00	5120	545	-8.1	-16.7	313	23	
2025-07-17T00:00	5140	544	-8.3	-16.5	314	24	
2025-07-17T00:00	5160	542	-8.4	-15.6	314	24	
2025-07-17T00:00	5180	541	-8.5	-13.4	315	24	
2025-07-17T00:00	5200	540	-8.6	-12.9	315	24	
2025-07-17T00:00	5220	538	-8.8	-12.8	315	24	
2025-07-17T00:00	5240	537	-9.0	-12.6	316	24	
2025-07-17T00:00	5260	535	-9.1	-12.5	316	24	
2025-07-17T00:00	5280	534	-9.3	-12.5	316	25	
2025-07-17T00:00	5300	533	-9.4	-12.7	316	25	
2025-07-17T00:00	5320	531	-9.5	-12.9	316	25	
2025-07-17T00:00	5340	530	-9.5	-12.1	317	25	
2025-07-17T00:00	5360	528	-9.3	-11.1	317	26	
2025-07-17T00:00	5380	527	-9.3	-10.6	318	26	
2025-07-17T00:00	5400	526	-9.6	-10.7	319	27	
2025-07-17T00:00	5420	524	-9.8	-10.7	319	27	
2025-07-17T00:00	5440	523	-9.9	-10.8	320	28	
2025-07-17T00:00	5460	522	-10.1	-10.7	320	28	
2025-07-17T00:00	5480	520	-10.3	-10.8	320	29	
2025-07-17T00:00	5500	519	-10.5	-10.8	320	29	
2025-07-17T00:00	5520	517	-10.8	-10.8	320	29	
2025-07-17T00:00	5540	516	-10.9	-11.0	319	29	
2025-07-17T00:00	5560	515	-10.8	-11.5	319	29	
2025-07-17T00:00	5580	514	-10.3	-12.2	319	29	
2025-07-17T00:00	5600	512	-10.3	-12.2	319	28	
2025-07-17T00:00	5620	511	-10.2	-13.5	318	28	
2025-07-17T00:00	5640	510	-10.2	-13.1	318	28	
2025-07-17T00:00	5660	508	-10.2	-11.9	317	28	
2025-07-17T00:00	5680	507	-10.3	-12.0	316	28	
2025-07-17T00:00	5700	506	-10.3	-12.2	315	28	
2025-07-17T00:00	5720	504	-10.4	-12.2	314	28	
2025-07-17T00:00	5740	503	-10.4	-12.3	314	28	
2025-07-17T00:00	5760	502	-10.6	-12.4	313	28	
2025-07-17T00:00	5780	500	-10.7	-12.4	313	29	
2025-07-17T00:00	5800	499	-10.8	-12.6	313	29	
2025-07-17T00:00	5820	498	-10.9	-12.7	313	30	
2025-07-17T00:00	5840	496	-11.0	-13.0	314	31	
2025-07-17T00:00	5860	495	-11.0	-13.2	314	31	
2025-07-17T00:00	5880	494	-11.0	-13.4	314	31	
2025-07-17T00:00	5900	493	-11.1	-13.9	315	31	
2025-07-17T00:00	5920	491	-11.3	-14.0	315	31	
2025-07-17T00:00	5940	490	-11.5	-13.9	315	31	
2025-07-17T00:00	5960	489	-11.7	-13.8	315	31	
2025-07-17T00:00	5980	488	-11.8	-13.9	316	31	
2025-07-17T00:00	6000	486	-12.0	-14.0	316	31	
2025-07-17T00:00	6020	485	-12.1	-14.1	315	31	
2025-07-17T00:00	6040	484	-12.3	-14.2	315	30	
2025-07-17T00:00	6060	483	-12.5	-14.2	315	30	
2025-07-17T00:00	6080	481	-12.7	-14.2	314	30	
2025-07-17T00:00	6100	480	-12.9	-14.2	313	30	
2025-07-17T00:00	6120	479	-13.0	-14.6	312	31	
2025-07-17T00:00	6140	477	-12.8	-15.3	312	31	
2025-07-17T00:00	6160	476	-12.9	-15.5	312	31	
2025-07-17T00:00	6180	475	-13.1	-15.5	312	31	
2025-07-17T00:00	6200	474	-13.3	-15.6	312	31	
2025-07-17T00:00	6220	472	-13.5	-15.7	312	31	
2025-07-17T00:00	6240	471	-13.6	-15.9	312	30	
2025-07-17T00:00	6260	470	-13.7	-15.9	312	30	
2025-07-17T00:00	6280	469	-13.8	-16.1	312	30	
2025-07-17T00:00	6300	468	-13.9	-16.3	312	30	
2025-07-17T00:00	6320	466	-14.1	-16.5	311	30	
2025-07-17T00:00	6340	465	-14.1	-16.6	311	30	
2025-07-17T00:00	6360	464	-14.2	-16.7	311	30	
2025-07-17T00:00	6380	463	-14.3	-17.1	311	30	
2025-07-17T00:00	6400	461	-14.5	-17.5	311	31	
2025-07-17T00:00	6420	460	-14.6	-17.9	312	31	
2025-07-17T00:00	6440	459	-14.7	-18.7	312	31	
2025-07-17T00:00	6460	458	-14.8	-18.6	313	30	
2025-07-17T00:00	6480	457	-14.9	-18.1	313	30	
2025-07-17T00:00	6500	455	-15.0	-18.3	314	30	
2025-07-17T00:00	6520	454	-15.0	-18.9	315	30	
2025-07-17T00:00	6540	453	-15.1	-19.0	315	30	
2025-07-17T00:00	6560	452	-15.2	-19.1	316	30	
2025-07-17T00:00	6580	451	-15.3	-19.5	316	30	
2025-07-17T00:00	6600	449	-15.4	-19.6	316	30	
2025-07-17T00:00	6620	448	-15.6	-19.7	316	30	
2025-07-17T00:00	6640	447	-15.7	-19.8	316	30	
2025-07-17T00:00	6660	446	-15.8	-20.1	316	30	
2025-07-17T00:00	6680	445	-15.9	-20.4	316	30	
2025-07-17T00:00	6700	443	-16.1	-21.0	315	30	
2025-07-17T00:00	6720	442	-16.1	-22.0	315	30	
2025-07-17T00:00	6740	441	-16.3	-22.1	315	31	
2025-07-17T00:00	6760	440	-16.5	-22.4	314	31	
2025-07-17T00:00	6780	439	-16.6	-22.6	314	31	
2025-07-17T00:00	6800	438	-16.8	-22.7	314	32	
2025-07-17T00:00	6820	436	-17.0	-22.7	314	32	
2025-07-17T00:00	6840	435	-17.2	-22.7	314	32	
2025-07-17T00:00	6860	434	-17.4	-22.9	314	32	
2025-07-17T00:00	6880	433	-17.5	-23.1	314	32	
2025-07-17T00:00	6900	432	-17.6	-24.2	314	33	
2025-07-17T00:00	6920	431	-17.8	-24.2	314	33	
2025-07-17T00:00	6940	430	-17.9	-26.2	313	33	
2025-07-17T00:00	6960	428	-18.1	-27.7	312	33	
2025-07-17T00:00	6980	427	-18.2	-26.8	312	33	
2025-07-17T00:00	7000	426	-18.5	-24.7	312	33	
2025-07-17T00:00	7020	425	-18.7	-23.9	311	33	
2025-07-17T00:00	7040	424	-18.8	-24.5	311	32	
2025-07-17T00:00	7060	423	-18.9	-24.8	311	32	
2025-07-17T00:00	7080	422	-19.0	-25.0	311	32	
2025-07-17T00:00	7100	420	-19.2	-24.9	312	32	
2025-07-17T00:00	7120	419	-19.3	-24.5	312	32	
2025-07-17T00:00	7140	418	-19.5	-24.8	312	32	
2025-07-17T00:00	7160	417	-19.7	-25.0	313	32	
2025-07-17T00:00	7180	416	-19.8	-24.8	313	33	
2025-07-17T00:00	7200	415	-20.0	-24.5	313	33	
2025-07-17T00:00	7220	414	-20.2	-24.4	312	33	
2025-07-17T00:00	7240	413	-20.4	-24.4	312	33	
2025-07-17T00:00	7260	411	-20.5	-24.9	311	33	
2025-07-17T00:00	7280	410	-20.7	-24.6	310	33	
2025-07-17T00:00	7300	409	-20.8	-24.9	310	33	
2025-07-17T00:00	7320	408	-21.0	-25.1	310	33	
2025-07-17T00:00	7340	407	-21.1	-25.3	310	33	
2025-07-17T00:00	7360	406	-21.2	-26.0	310	33	
2025-07-17T00:00	7380	405	-21.3	-27.0	310	33	
2025-07-17T00:00	7400	404	-21.5	-26.9	310	33	
2025-07-17T00:00	7420	403	-21.7	-27.0	310	33	
2025-07-17T00:00	7440	401	-21.9	-27.2	310	33	
2025-07-17T00:00	7460	400	-22.0	-27.3	311	33	
2025-07-17T00:00	7480	399	-22.2	-27.4	311	33	
2025-07-17T00:00	7500	398	-22.4	-27.6	310	33	
2025-07-17T00:00	7520	397	-22.5	-27.8	310	33	
2025-07-17T00:00	7540	396	-22.7	-27.9	310	33	
2025-07-17T00:00	7560	395	-22.9	-27.5	310	33	
2025-07-17T00:00	7580	394	-23.1	-27.2	310	33	
2025-07-17T00:00	7600	393	-23.3	-27.1	309	33	
2025-07-17T00:00	7620	392	-23.4	-27.1	309	33	
2025-07-17T00:00	7640	391	-23.6	-27.1	309	33	
2025-07-17T00:00	7660	390	-23.8	-27.2	309	33	
2025-07-17T00:00	7680	389	-24.0	-27.1	309	33	
2025-07-17T00:00	7700	387	-24.2	-26.9	310	33	
2025-07-17T00:00	7720	386	-24.4	-26.4	310	33	
2025-07-17T00:00	7740	385	-24.6	-26.5	310	33	
2025-07-17T00:00	7760	384	-24.8	-26.4	310	33	
2025-07-17T00:00	7780	383	-24.9	-26.9	310	33	
2025-07-17T00:00	7800	382	-25.0	-28.3	310	33	
2025-07-17T00:00	7820	381	-25.1	-28.6	310	33	
2025-07-17T00:00	7840	380	-25.3	-28.3	310	33	
2025-07-17T00:00	7860	379	-25.4	-27.9	310	33	
2025-07-17T00:00	7880	378	-25.6	-27.9	310	33	
2025-07-17T00:00	7900	377	-25.8	-28.0	310	33	
2025-07-17T00:00	7920	376	-26.0	-28.1	310	33	
2025-07-17T00:00	7940	375	-26.1	-28.3	310	33	
2025-07-17T00:00	7960	374	-26.3	-28.5	310	33	
2025-07-17T00:00	7980	373	-26.5	-28.6	310	33	
2025-07-17T00:00	8000	372	-26.6	-29.0	310	33	
2025-07-17T00:00	8020	371	-26.8	-29.6	310	33	
2025-07-17T00:00	8040	370	-26.9	-30.1	309	33	
2025-07-17T00:00	8060	369	-26.9	-30.3	309	33	
2025-07-17T00:00	8080	368	-27.0	-30.5	309	33	
2025-07-17T00:00	8100	367	-27.1	-31.5	309	33	
2025-07-17T00:00	8120	366	-27.3	-31.2	308	33	
2025-07-17T00:00	8140	365	-27.5	-31.0	308	33	
2025-07-17T00:00	8160	364	-27.6	-32.6	308	33	
2025-07-17T00:00	8180	363	-27.6	-36.4	308	33	
2025-07-17T00:00	8200	362	-27.7	-36.2	307	33	
2025-07-17T00:00	8220	361	-27.8	-34.2	307	33	
2025-07-17T00:00	8240	360	-27.9	-33.8	307	33	
2025-07-17T00:00	8260	359	-27.9	-34.8	306	33	
2025-07-17T00:00	8280	358	-27.9	-35.0	306	33	
2025-07-17T00:00	8300	357	-27.7	-36.1	306	33	
2025-07-17T00:00	8320	356	-27.6	-37.9	306	33	
2025-07-17T00:00	8340	355	-27.8	-38.1	306	34	
2025-07-17T00:00	8360	354	-27.9	-37.0	306	34	
2025-07-17T00:00	8380	353	-28.1	-36.6	306	35	
2025-07-17T00:00	8400	352	-28.2	-36.6	306	35	
2025-07-17T00:00	8420	351	-28.3	-36.9	307	35	
2025-07-17T00:00	8440	350	-28.5	-37.2	307	35	
2025-07-17T00:00	8460	349	-28.7	-36.5	307	36	
2025-07-17T00:00	8480	348	-28.8	-36.0	307	36	
2025-07-17T00:00	8500	347	-29.0	-35.7	307	36	
2025-07-17T00:00	8520	346	-29.1	-35.6	307	36	
2025-07-17T00:00	8540	345	-29.2	-35.9	307	36	
2025-07-17T00:00	8560	344	-29.4	-36.1	307	36	
2025-07-17T00:00	8580	343	-29.5	-36.3	307	36	
2025-07-17T00:00	8600	342	-29.7	-36.7	306	36	
2025-07-17T00:00	8620	341	-29.8	-37.2	306	36	
2025-07-17T00:00	8640	340	-29.9	-37.7	306	36	
2025-07-17T00:00	8660	339	-30.0	-38.6	307	36	
2025-07-17T00:00	8680	338	-30.0	-38.7	307	36	
2025-07-17T00:00	8700	337	-30.2	-38.4	307	36	
2025-07-17T00:00	8720	336	-30.3	-37.9	307	36	
2025-07-17T00:00	8740	335	-30.5	-37.9	307	36	
2025-07-17T00:00	8760	334	-30.7	-38.3	307	36	
2025-07-17T00:00	8780	333	-30.8	-38.5	307	36	
2025-07-17T00:00	8800	332	-31.0	-38.5	307	36	
2025-07-17T00:00	8820	331	-31.2	-38.7	307	36	
2025-07-17T00:00	8840	331	-31.2	-38.9	307	36	
2025-07-17T00:00	8860	330	-31.3	-39.0	307	36	
2025-07-17T00:00	8880	329	-31.5	-39.2	308	36	
2025-07-17T00:00	8900	328	-31.7	-39.6	308	36	
2025-07-17T00:00	8920	327	-31.8	-40.0	309	35	
2025-07-17T00:00	8940	326	-31.9	-41.4	309	35	
2025-07-17T00:00	8960	325	-31.9	-43.7	310	35	
2025-07-17T00:00	8980	324	-32.0	-44.6	311	35	
2025-07-17T00:00	9000	323	-32.1	-45.2	312	35	
2025-07-17T00:00	9020	322	-32.2	-45.1	312	35	
2025-07-17T00:00	9040	321	-32.4	-44.9	312	36	
2025-07-17T00:00	9060	320	-32.6	-44.9	313	36	
2025-07-17T00:00	9080	320	-32.7	-44.6	313	36	
2025-07-17T00:00	9100	319	-32.8	-44.5	313	36	
2025-07-17T00:00	9120	318	-33.0	-44.7	314	36	
2025-07-17T00:00	9140	317	-33.0	-45.8	314	36	
2025-07-17T00:00	9160	316	-33.1	-47.4	314	36	
2025-07-17T00:00	9180	315	-33.3	-47.7	315	36	
2025-07-17T00:00	9200	314	-33.4	-47.6	315	36	
2025-07-17T00:00	9220	313	-33.6	-47.6	315	36	
2025-07-17T00:00	9240	312	-33.7	-47.5	315	36	
2025-07-17T00:00	9260	311	-33.9	-47.6	316	36	
2025-07-17T00:00	9280	311	-34.1	-47.7	316	36	
2025-07-17T00:00	9300	310	-34.3	-47.7	316	36	
2025-07-17T00:00	9320	309	-34.5	-47.8	316	36	
2025-07-17T00:00	9340	308	-34.7	-48.0	316	35	
2025-07-17T00:00	9360	307	-34.9	-48.0	316	35	
2025-07-17T00:00	9380	306	-35.1	-48.1	316	35	
2025-07-17T00:00	9400	305	-35.3	-48.0	316	36	
2025-07-17T00:00	9420	305	-35.5	-48.0	316	36	
2025-07-17T00:00	9440	304	-35.7	-48.1	316	36	
2025-07-17T00:00	9460	303	-35.9	-48.2	316	36	
2025-07-17T00:00	9480	302	-36.1	-48.3	317	36	
2025-07-17T00:00	9500	301	-36.2	-48.4	317	36	
2025-07-17T00:00	9520	300	-36.4	-48.5	317	36	
2025-07-17T00:00	9540	299	-36.6	-48.4	317	36	
2025-07-17T00:00	9560	298	-36.8	-48.5	317	36	
2025-07-17T00:00	9580	297	-37.0	-48.4	317	35	
2025-07-17T00:00	9600	297	-37.2	-48.5	317	35	
2025-07-17T00:00	9620	296	-37.4	-48.6	317	35	
2025-07-17T00:00	9640	295	-37.5	-48.7	317	35	
2025-07-17T00:00	9660	294	-37.8	-48.9	317	35	
2025-07-17T00:00	9680	293	-37.9	-49.2	316	36	
2025-07-17T00:00	9700	292	-38.1	-49.2	316	36	
2025-07-17T00:00	9720	292	-38.3	-49.1	316	36	
2025-07-17T00:00	9740	291	-38.5	-49.1	316	36	
2025-07-17T00:00	9760	290	-38.7	-49.2	316	36	
2025-07-17T00:00	9780	289	-38.9	-49.1	316	36	
2025-07-17T00:00	9800	288	-39.1	-49.1	316	35	
2025-07-17T00:00	9820	287	-39.3	-49.2	316	35	
2025-07-17T00:00	9840	286	-39.5	-49.2	317	35	
2025-07-17T00:00	9860	286	-39.7	-49.3	318	35	
2025-07-17T00:00	9880	285	-39.8	-49.3	318	35	
2025-07-17T00:00	9900	284	-40.0	-49.3	318	35	
2025-07-17T00:00	9920	283	-40.2	-49.4	318	35	
2025-07-17T00:00	9940	282	-40.4	-49.5	318	35	
2025-07-17T00:00	9960	281	-40.6	-49.6	317	35	
2025-07-17T00:00	9980	281	-40.8	-49.6	317	35	
2025-07-17T00:00	10000	280	-41.0	-49.7	317	35	
2025-07-17T00:00	10018	279	-41.1	-49.8	317	35	
2025-07-17T00:00	10050	278	-41.5	-49.8	317	36	
2025-07-17T00:00	10100	276	-41.9	-49.8	317	36	
2025-07-17T00:00	10150	274	-42.3	-49.6	317	36	
2025-07-17T00:00	10200	272	-42.7	-50.1	316	36	
2025-07-17T00:00	10250	270	-43.2	-50.4	316	36	
2025-07-17T00:00	10300	268	-43.7	-51.0	316	36	
2025-07-17T00:00	10350	266	-44.1	-51.6	315	36	
2025-07-17T00:00	10400	264	-44.5	-52.1	315	36	
2025-07-17T00:00	10450	262	-44.8	-53.1	315	37	
2025-07-17T00:00	10500	260	-45.1	-52.9	315	38	
2025-07-17T00:00	10550	258	-45.4	-52.5	315	38	
2025-07-17T00:00	10600	256	-45.9	-52.4	314	38	
2025-07-17T00:00	10650	254	-46.3	-52.8	314	38	
2025-07-17T00:00	10700	252	-46.7	-53.1	313	38	
2025-07-17T00:00	10750	250	-47.2	-53.1	313	38	
2025-07-17T00:00	10800	248	-47.6	-53.2	311	38	
2025-07-17T00:00	10850	246	-47.8	-54.8	310	38	
2025-07-17T00:00	10900	245	-48.0	-54.7	309	38	
2025-07-17T00:00	10950	243	-48.4	-55.4	307	38	
2025-07-17T00:00	11000	241	-48.4	-58.2	307	38	
2025-07-17T00:00	11050	239	-48.8	-57.9	306	38	
2025-07-17T00:00	11100	237	-49.2	-58.3	305	38	
2025-07-17T00:00	11150	235	-49.6	-59.4	305	38	
2025-07-17T00:00	11200	234	-49.7	-60.6	306	38	
2025-07-17T00:00	11250	232	-50.0	-60.3	306	38	
2025-07-17T00:00	11300	230	-50.5	-60.2	306	38	
2025-07-17T00:00	11350	228	-51.0	-60.1	307	38	
2025-07-17T00:00	11400	227	-51.4	-60.3	308	38	
2025-07-17T00:00	11450	225	-51.1	-62.2	308	39	
2025-07-17T00:00	11500	223	-50.4	-64.7	307	39	
2025-07-17T00:00	11550	221	-50.2	-65.3	306	39	
2025-07-17T00:00	11600	220	-50.4	-65.2	307	40	
2025-07-17T00:00	11650	218	-50.6	-65.1	308	40	
2025-07-17T00:00	11700	216	-50.6	-65.7	309	40	
2025-07-17T00:00	11750	215	-50.5	-66.5	310	40	
2025-07-17T00:00	11800	213	-50.8	-66.9	312	39	
2025-07-17T00:00	11850	211	-50.9	-67.2	314	39	
2025-07-17T00:00	11900	210	-50.7	-68.1	313	38	
2025-07-17T00:00	11950	208	-50.5	-68.6	311	37	
2025-07-17T00:00	12000	207	-50.4	-69.1	308	36	
2025-07-17T00:00	12050	205	-50.6	-69.2	307	36	
2025-07-17T00:00	12100	204	-50.6	-69.2	305	37	
2025-07-17T00:00	12150	202	-50.7	-69.6	303	38	
2025-07-17T00:00	12200	200	-50.6	-70.6	302	38	
2025-07-17T00:00	12250	199	-50.4	-71.3	300	38	
2025-07-17T00:00	12300	197	-50.3	-72.3	298	38	
2025-07-17T00:00	12350	196	-50.3	-72.9	298	39	
2025-07-17T00:00	12400	194	-50.3	-73.0	299	39	
2025-07-17T00:00	12450	193	-50.3	-73.1	300	40	
2025-07-17T00:00	12500	191	-50.4	-72.8	300	40	
2025-07-17T00:00	12550	190	-50.5	-72.9	301	40	
2025-07-17T00:00	12600	188	-50.7	-73.3	302	39	
2025-07-17T00:00	12650	187	-50.6	-73.8	303	39	
2025-07-17T00:00	12700	186	-50.5	-74.5	304	39	
2025-07-17T00:00	12750	184	-50.1	-75.1	304	39	
2025-07-17T00:00	12800	183	-49.7	-75.7	305	38	
2025-07-17T00:00	12850	181	-49.7	-76.1	306	38	
2025-07-17T00:00	12900	180	-49.6	-77.4	307	37	
2025-07-17T00:00	12950	179	-49.6	-77.8	309	36	
2025-07-17T00:00	13000	177	-49.8	-77.9	309	35	
2025-07-17T00:00	13050	176	-50.0	-77.9	308	35	
2025-07-17T00:00	13100	175	-50.1	-77.8	306	36	
2025-07-17T00:00	13150	173	-50.5	-77.8	305	36	
2025-07-17T00:00	13200	172	-50.6	-77.9	305	36	
2025-07-17T00:00	13250	171	-50.6	-78.2	306	35	
2025-07-17T00:00	13300	169	-50.8	-78.4	308	34	
2025-07-17T00:00	13350	168	-51.1	-78.6	308	33	
2025-07-17T00:00	13400	167	-51.3	-79.0	307	33	
2025-07-17T00:00	13450	165	-51.6	-79.2	306	34	
2025-07-17T00:00	13500	164	-52.0	-79.4	305	34	
2025-07-17T00:00	13550	163	-52.4	-79.7	305	34	
2025-07-17T00:00	13600	162	-52.7	-79.7	305	34	
2025-07-17T00:00	13650	160	-52.9	-79.7	306	33	
2025-07-17T00:00	13700	159	-53.1	-79.9	307	32	
2025-07-17T00:00	13750	158	-53.4	-80.0	308	30	
2025-07-17T00:00	13800	157	-53.7	-80.2	309	29	
2025-07-17T00:00	13850	155	-54.1	-80.4	309	28	
2025-07-17T00:00	13900	154	-54.3	-80.4	308	27	
2025-07-17T00:00	13950	153	-54.4	-80.6	307	26	
2025-07-17T00:00	14000	152	-54.8	-80.7	306	26	
2025-07-17T00:00	14050	151	-55.1	-80.7	304	26	
2025-07-17T00:00	14100	150	-55.5	-80.8	303	25	
2025-07-17T00:00	14150	148	-55.8	-80.9	303	25	
2025-07-17T00:00	14200	147	-55.9	-81.0	304	26	
2025-07-17T00:00	14250	146	-56.1	-81.0	304	26	
2025-07-17T00:00	14300	145	-56.1	-81.1	304	26	
2025-07-17T00:00	14350	144	-56.1	-81.2	306	26	
2025-07-17T00:00	14400	143	-56.2	-81.3	308	26	
2025-07-17T00:00	14450	142	-56.5	-81.5	309	26	
2025-07-17T00:00	14500	140	-56.8	-81.6	310	27	
2025-07-17T00:00	14550	139	-57.1	-81.7	311	26	
2025-07-17T00:00	14600	138	-57.4	-81.9	311	26	
2025-07-17T00:00	14650	137	-57.7	-82.1	312	24	
2025-07-17T00:00	14700	136	-57.7	-82.1	311	24	
2025-07-17T00:00	14750	135	-57.9	-82.3	309	23	
2025-07-17T00:00	14800	134	-58.0	-82.4	305	23	
2025-07-17T00:00	14850	133	-57.9	-82.4	302	22	
2025-07-17T00:00	14900	132	-58.0	-82.5	301	22	
2025-07-17T00:00	14950	131	-57.8	-82.7	304	23	
2025-07-17T00:00	15000	130	-57.3	-82.9	306	21	
2025-07-17T00:00	15050	129	-56.9	-82.9	306	20	
2025-07-17T00:00	15100	128	-56.5	-82.9	304	19	
2025-07-17T00:00	15150	127	-56.5	-83.1	305	20	
2025-07-17T00:00	15200	126	-56.6	-83.2	306	19	
2025-07-17T00:00	15250	125	-56.5	-83.2	304	18	
2025-07-17T00:00	15300	124	-56.5	-83.3	299	18	
2025-07-17T00:00	15350	123	-56.3	-83.3	296	18	
2025-07-17T00:00	15400	122	-56.6	-83.4	293	19	
2025-07-17T00:00	15450	121	-56.9	-83.3	291	20	
2025-07-17T00:00	15500	120	-57.2	-83.3	291	20	
2025-07-17T00:00	15550	119	-57.3	-83.6	294	20	
2025-07-17T00:00	15600	118	-56.5	-83.5	298	20	
2025-07-17T00:00	15650	117	-56.4	-83.6	301	20	
2025-07-17T00:00	15700	116	-56.7	-83.5	302	19	
2025-07-17T00:00	15750	115	-57.1	-83.5	302	19	
2025-07-17T00:00	15800	114	-57.5	-83.7	302	18	
2025-07-17T00:00	15850	113	-57.8	-83.9	303	17	
2025-07-17T00:00	15900	113	-58.3	-84.0	304	17	
2025-07-17T00:00	15950	112	-58.7	-84.1	305	17	
2025-07-17T00:00	16000	111	-59.1	-84.2	306	17	
2025-07-17T00:00	16050	110	-59.6	-84.3	306	16	
2025-07-17T00:00	16100	109	-60.0	-84.4	304	16	
2025-07-17T00:00	16150	108	-60.5	-84.6	303	17	
2025-07-17T00:00	16200	107	-60.7	-84.8	303	17	
2025-07-17T00:00	16250	106	-60.9	-84.9	305	17	
2025-07-17T00:00	16300	106	-61.0	-85.0	306	16	
2025-07-17T00:00	16350	105	-61.1	-85.0	305	16	
2025-07-17T00:00	16400	104	-61.3	-85.2	305	16	
2025-07-17T00:00	16450	103	-61.4	-85.5	307	17	
2025-07-17T00:00	16500	102	-61.0	-85.6	308	18	
2025-07-17T00:00	16550	101	-60.5	-85.5	307	18	
2025-07-17T00:00	16600	101	-60.4	-85.7	307	17	
2025-07-17T00:00	16650	100	-60.5	-85.6	309	18	
2025-07-17T00:00	16700	99	-60.7	-85.7	309	18	
2025-07-17T00:00	16750	98	-60.7	-85.8	309	19	
2025-07-17T00:00	16800	97	-60.5	-85.8	310	20	
2025-07-17T00:00	16850	97	-60.1	-85.7	312	20	
2025-07-17T00:00	16900	96	-60.3	-86.0	314	20	
2025-07-17T00:00	16950	95	-59.7	-85.8	317	19	
2025-07-17T00:00	17000	94	-59.8	-86.1	319	18	
2025-07-17T00:00	17050	94	-59.2	-86.4	320	16	
2025-07-17T00:00	17100	93	-57.0	-85.7	323	14	
2025-07-17T00:00	17150	92	-56.5	-85.7	328	12	
2025-07-17T00:00	17200	91	-56.2	-85.3	332	11	
2025-07-17T00:00	17250	91	-56.3	-85.0	333	10	
2025-07-17T00:00	17300	90	-56.6	-84.8	332	10	
2025-07-17T00:00	17350	89	-56.9	-84.9	326	9	
2025-07-17T00:00	17400	89	-57.2	-85.0	319	9	
2025-07-17T00:00	17450	88	-56.8	-85.3	311	8	
2025-07-17T00:00	17500	87	-55.8	-85.0	302	6	
2025-07-17T00:00	17550	86	-55.6	-84.7	292	5	
2025-07-17T00:00	17600	86	-55.9	-84.7	280	5	
2025-07-17T00:00	17650	85	-56.2	-84.7	267	4	
2025-07-17T00:00	17700	84	-56.4	-84.7	259	4	
2025-07-17T00:00	17750	84	-56.6	-84.7	254	4	
2025-07-17T00:00	17800	83	-57.1	-84.8	249	4	
2025-07-17T00:00	17850	82	-57.6	-84.9	253	4	
2025-07-17T00:00	17900	82	-58.0	-85.2	268	4	
2025-07-17T00:00	17950	81	-58.1	-85.3	283	5	
2025-07-17T00:00	18000	81	-58.0	-85.2	294	5	
2025-07-17T00:00	18050	80	-58.4	-85.4	302	6	
2025-07-17T00:00	18100	79	-58.8	-85.5	311	7	
2025-07-17T00:00	18150	79	-59.2	-85.7	321	7	
2025-07-17T00:00	18200	78	-59.2	-85.7	326	8	
2025-07-17T00:00	18250	77	-59.4	-86.0	329	7	
2025-07-17T00:00	18300	77	-58.9	-85.9	335	6	
2025-07-17T00:00	18350	76	-58.7	-85.9	343	6	
2025-07-17T00:00	18400	76	-58.6	-85.7	350	6	
2025-07-17T00:00	18450	75	-58.9	-85.7	353	6	
2025-07-17T00:00	18500	74	-59.3	-85.8	347	6	
2025-07-17T00:00	18550	74	-59.6	-85.9	333	6	
2025-07-17T00:00	18600	73	-59.7	-85.9	320	7	
2025-07-17T00:00	18650	73	-59.9	-86.2	316	8	
2025-07-17T00:00	18700	72	-59.7	-86.3	317	9	
2025-07-17T00:00	18750	71	-59.2	-86.3	321	9	
2025-07-17T00:00	18800	71	-58.5	-86.2	327	9	
2025-07-17T00:00	18850	70	-57.9	-86.2	334	9	
2025-07-17T00:00	18900	70	-57.3	-86.1	340	9	
2025-07-17T00:00	18950	69	-56.2	-85.6	347	8	
2025-07-17T00:00	19000	69	-55.7	-85.5	358	7	
2025-07-17T00:00	19050	68	-55.4	-85.2	11	6	
2025-07-17T00:00	19100	68	-55.3	-84.9	20	6	
2025-07-17T00:00	19150	67	-55.7	-84.9	25	6	
2025-07-17T00:00	19200	67	-56.2	-84.9	28	5	
2025-07-17T00:00	19250	66	-56.5	-84.9	29	5	
2025-07-17T00:00	19300	66	-56.8	-85.0	28	6	
2025-07-17T00:00	19350	65	-57.2	-85.2	26	6	
2025-07-17T00:00	19400	64	-57.6	-85.3	24	6	
2025-07-17T00:00	19450	64	-58.0	-85.6	23	5	
2025-07-17T00:00	19500	63	-58.1	-85.8	28	4	
2025-07-17T00:00	19550	63	-57.6	-85.8	29	3	
2025-07-17T00:00	19600	62	-57.5	-85.9	13	3	
2025-07-17T00:00	19650	62	-57.0	-85.8	1	5	
2025-07-17T00:00	19700	61	-56.8	-85.8	357	6	
2025-07-17T00:00	19750	61	-56.3	-85.5	358	7	
2025-07-17T00:00	19800	61	-56.2	-85.3	360	7	
2025-07-17T00:00	19850	60	-56.5	-85.3	5	7	
2025-07-17T00:00	19900	60	-56.7	-85.2	9	7	
2025-07-17T00:00	19950	59	-56.9	-85.4	7	7	
2025-07-17T00:00	20000	59	-57.0	-85.4	4	8	
2025-07-17T00:00	20050	58	-56.8		6	9	
2025-07-17T00:00	20100	58	-56.5		13	9	
2025-07-17T00:00	20150	57	-56.2		24	8	
2025-07-17T00:00	20200	57	-56.3		39	8	
2025-07-17T00:00	20250	56	-55.9		48	8	
2025-07-17T00:00	20300	56	-55.9		55	9	
2025-07-17T00:00	20350	56	-55.7		59	9	
2025-07-17T00:00	20400	55	-56.1		63	8	
2025-07-17T00:00	20450	55	-56.2		64	8	
2025-07-17T00:00	20500	54	-56.1		61	7	
2025-07-17T00:00	20550	54	-56.2		61	7	
2025-07-17T00:00	20600	53	-56.2		65	7	
2025-07-17T00:00	20650	53	-56.1		69	6	
2025-07-17T00:00	20700	53	-56.2		67	5	
2025-07-17T00:00	20750	52	-56.2		64	5	
2025-07-17T00:00	20800	52	-56.1		68	5	
2025-07-17T00:00	20850	51	-56.2		76	6	
2025-07-17T00:00	20900	51	-56.4		82	7	
2025-07-17T00:00	20950	50	-56.6		82	7	
2025-07-17T00:00	21000	50	-57.0		76	7	
2025-07-17T00:00	21050	50	-56.5		66	6	
2025-07-17T00:00	21100	49	-56.5		53	6	
2025-07-17T00:00	21150	49	-56.4		41	7	
2025-07-17T00:00	21200	49	-56.4		38	8	
2025-07-17T00:00	21250	48	-56.2		43	8	
2025-07-17T00:00	21300	48	-56.0		49	9	
2025-07-17T00:00	21350	47	-55.9		56	8	
2025-07-17T00:00	21400	47	-56.2		65	8	
2025-07-17T00:00	21450	47	-56.3		75	8	
2025-07-17T00:00	21500	46	-56.4		86	7	
2025-07-17T00:00	21550	46	-56.6		95	7	
2025-07-17T00:00	21600	46	-56.8		96	6	
2025-07-17T00:00	21650	45	-56.8		90	6	
2025-07-17T00:00	21700	45	-56.7		82	7	
2025-07-17T00:00	21750	45	-56.6		78	7	
2025-07-17T00:00	21800	44	-56.6		78	8	
2025-07-17T00:00	21850	44	-56.7		80	9	
2025-07-17T00:00	21900	43	-56.7		82	10	
2025-07-17T00:00	21950	43	-56.6		86	11	
2025-07-17T00:00	22000	43	-56.4		91	11	
2025-07-17T00:00	22050	42	-56.1		96	11	
2025-07-17T00:00	22100	42	-55.9		100	10	
2025-07-17T00:00	22150	42	-55.8		102	9	
2025-07-17T00:00	22200	41	-55.7		102	8	
2025-07-17T00:00	22250	41	-55.3		104	8	
2025-07-17T00:00	22300	41	-54.9		108	8	
2025-07-17T00:00	22350	41	-54.9		108	7	
2025-07-17T00:00	22400	40	-55.0		102	7	
2025-07-17T00:00	22450	40	-54.7		93	8	
2025-07-17T00:00	22500	40	-54.4		89	9	
2025-07-17T00:00	22550	39	-54.1		89	10	
2025-07-17T00:00	22600	39	-54.0		92	11	
2025-07-17T00:00	22650	39	-53.9		94	10	
2025-07-17T00:00	22700	38	-53.9		96	10	
2025-07-17T00:00	22750	38	-54.3		97	9	
2025-07-17T00:00	22800	38	-54.3		97	9	
2025-07-17T00:00	22850	37	-54.3		96	9	
2025-07-17T00:00	22900	37	-54.3		98	8	
2025-07-17T00:00	22950	37	-54.2		100	8	
2025-07-17T00:00	23000	37	-54.2		100	7	
2025-07-17T00:00	23050	36	-54.2		95	6	
2025-07-17T00:00	23100	36	-54.1		91	7	
2025-07-17T00:00	23150	36	-54.3		93	7	
2025-07-17T00:00	23200	35	-54.2		100	7	
2025-07-17T00:00	23250	35	-53.9		109	6	
2025-07-17T00:00	23300	35	-53.6		115	6	
2025-07-17T00:00	23350	35	-53.3		112	5	
2025-07-17T00:00	23400	34	-53.4		104	5	
2025-07-17T00:00	23450	34	-53.3		96	6	
2025-07-17T00:00	23500	34	-53.1		90	8	
2025-07-17T00:00	23550	34	-53.1		89	9	
2025-07-17T00:00	23600	33	-53.1		94	9	
2025-07-17T00:00	23650	33	-53.0		102	10	
2025-07-17T00:00	23700	33	-53.1		111	10	
2025-07-17T00:00	23750	33	-53.4		117	10	
2025-07-17T00:00	23800	32	-53.5		117	9	
2025-07-17T00:00	23850	32	-53.5		109	7	
2025-07-17T00:00	23900	32	-52.9		94	6	
2025-07-17T00:00	23950	32	-51.8		80	6	
2025-07-17T00:00	24000	31	-51.7		70	7	
2025-07-17T00:00	24050	31	-51.7		66	8	
2025-07-17T00:00	24100	31	-51.5		66	10	
2025-07-17T00:00	24150	31	-51.0		68	12	
2025-07-17T00:00	24200	30	-50.8		72	12	
2025-07-17T00:00	24250	30	-50.7		76	12	
2025-07-17T00:00	24300	30	-50.5		79	12	
2025-07-17T00:00	24350	30	-50.5		83	11	
2025-07-17T00:00	24400	29	-50.7		86	10	
2025-07-17T00:00	24450	29	-50.3		83	10	
2025-07-17T00:00	24500	29	-49.7		78	10	
2025-07-17T00:00	24550	29	-49.6		76	10	
2025-07-17T00:00	24600	29	-49.6		76	11	
2025-07-17T00:00	24650	28	-49.7		77	11	
2025-07-17T00:00	24700	28	-49.9		79	11	
2025-07-17T00:00	24750	28	-49.9		84	11	
2025-07-17T00:00	24800	28	-50.2		89	10	
2025-07-17T00:00	24850	27	-50.2		89	9	
2025-07-17T00:00	24900	27	-49.8		82	9	
2025-07-17T00:00	24950	27	-49.5		75	10	
2025-07-17T00:00	25000	27	-49.4		70	10	
2025-07-17T00:00	25050	27	-49.2		71	11	
2025-07-17T00:00	25100	26	-49.3		74	11	
2025-07-17T00:00	25150	26	-49.4		76	11	
2025-07-17T00:00	25200	26	-49.7		77	10	
2025-07-17T00:00	25250	26	-49.9		76	10	
2025-07-17T00:00	25300	26	-50.1		72	9	
2025-07-17T00:00	25350	25	-50.0		70	10	
2025-07-17T00:00	25400	25	-50.0		71	10	
2025-07-17T00:00	25450	25	-50.1		76	10	
2025-07-17T00:00	25500	25	-50.0		80	10	
2025-07-17T00:00	25550	25	-50.0		82	10	
2025-07-17T00:00	25600	25	-50.0		84	11	
2025-07-17T00:00	25650	24	-49.9		85	12	
2025-07-17T00:00	25700	24	-49.8		87	13	
2025-07-17T00:00	25750	24	-49.7		90	14	
2025-07-17T00:00	25800	24	-49.6		92	14	
2025-07-17T00:00	25850	24	-49.3		93	14	
2025-07-17T00:00	25900	23	-49.2		94	13	
2025-07-17T00:00	25950	23	-49.2		98	11	
2025-07-17T00:00	26000	23	-49.4		104	11	
2025-07-17T00:00	26050	23	-49.5		108	11	
2025-07-17T00:00	26100	23	-49.4		109	11	
2025-07-17T00:00	26150	23	-49.3		108	12	
2025-07-17T00:00	26200	22	-49.2		106	11	
2025-07-17T00:00	26250	22	-49.2		106	10	
2025-07-17T00:00	26300	22	-49.1		105	9	
2025-07-17T00:00	26350	22	-48.9		104	9	
2025-07-17T00:00	26400	22	-48.7		104	9	
2025-07-17T00:00	26450	22	-48.5		105	9	
2025-07-17T00:00	26500	21	-48.3		107	10	
2025-07-17T00:00	26550	21	-48.3		108	11	
2025-07-17T00:00	26600	21	-48.2		109	11	
2025-07-17T00:00	26650	21	-48.2		110	12	
2025-07-17T00:00	26700	21	-48.1		113	12	
2025-07-17T00:00	26750	21	-47.5		116	12	
2025-07-17T00:00	26800	20	-47.3		117	13	
2025-07-17T00:00	26850	20	-47.3		117	13	
2025-07-17T00:00	26900	20	-47.2		116	13	
2025-07-17T00:00	26950	20	-47.2		114	12	
2025-07-17T00:00	27000	20	-47.2		113	12	
2025-07-17T00:00	27050	20	-47.2		111	11	
2025-07-17T00:00	27100	20	-47.2		110	12	
2025-07-17T00:00	27150	19	-47.0		109	12	
2025-07-17T00:00	27200	19	-46.8		107	12	
2025-07-17T00:00	27250	19	-46.7		106	12	
2025-07-17T00:00	27300	19	-46.3		108	11	
2025-07-17T00:00	27350	19	-46.5		115	11	
2025-07-17T00:00	27400	19	-46.8		120	12	
2025-07-17T00:00	27450	19	-47.1		120	11	
2025-07-17T00:00	27500	18	-46.7		115	10	
2025-07-17T00:00	27550	18	-46.4		107	9	
2025-07-17T00:00	27600	18	-46.0		99	9	
2025-07-17T00:00	27650	18	-45.7		93	9	
2025-07-17T00:00	27700	18	-45.4		93	10	
2025-07-17T00:00	27750	18	-45.2		98	11	
2025-07-17T00:00	27800	18	-45.1		105	12	
2025-07-17T00:00	27850	17	-45.1		110	13	
2025-07-17T00:00	27900	17	-45.0		112	13	
2025-07-17T00:00	27950	17	-45.1		113	13	
2025-07-17T00:00	28000	17	-45.2		112	12	
2025-07-17T00:00	28050	17	-45.3		112	11	
2025-07-17T00:00	28100	17	-45.3		113	11	
2025-07-17T00:00	28150	17	-45.3		115	11	
2025-07-17T00:00	28200	17	-45.3		114	10	
2025-07-17T00:00	28250	16	-45.4		110	9	
2025-07-17T00:00	28300	16	-45.4		106	9	
2025-07-17T00:00	28350	16	-45.4		104	8	
2025-07-17T00:00	28400	16	-45.4		100	8	
2025-07-17T00:00	28450	16	-45.3		94	7	
2025-07-17T00:00	28500	16	-45.0		88	8	
2025-07-17T00:00	28550	16	-44.7		90	8	
2025-07-17T00:00	28600	16	-44.5		98	8	
2025-07-17T00:00	28650	15	-44.3		102	8	
2025-07-17T00:00	28700	15	-44.1		97	9	
2025-07-17T00:00	28750	15	-43.8		90	10	
2025-07-17T00:00	28800	15	-43.7		90	10	
2025-07-17T00:00	28850	15	-43.5		95	11	
2025-07-17T00:00	28900	15	-43.3		103	10	
2025-07-17T00:00	28950	15	-43.5		114	10	
2025-07-17T00:00	29000	15	-43.5		123	9	
2025-07-17T00:00	29050	15	-43.5		124	9	
2025-07-17T00:00	29100	14	-43.5		115	8	
2025-07-17T00:00	29150	14	-43.5		102	9	
2025-07-17T00:00	29200	14	-43.4		92	9	
2025-07-17T00:00	29250	14	-43.7		86	10	
2025-07-17T00:00	29300	14	-43.7		85	11	
2025-07-17T00:00	29350	14	-43.7		88	11	
2025-07-17T00:00	29400	14	-44.0		92	12	
2025-07-17T00:00	29450	14	-44.3		94	12	
2025-07-17T00:00	29500	14	-44.6		94	12	
2025-07-17T00:00	29550	14	-44.7		94	12	
2025-07-17T00:00	29600	13	-44.6		98	12	
2025-07-17T00:00	29650	13	-44.4		104	11	
2025-07-17T00:00	29700	13	-44.2		113	10	
2025-07-17T00:00	29750	13	-43.9		119	9	
2025-07-17T00:00	29800	13	-43.9		120	9	
2025-07-17T00:00	29850	13	-43.7		117	9	
2025-07-17T00:00	29900	13	-43.2		109	8	
2025-07-17T00:00	29950	13	-42.6		100	8	
2025-07-17T00:00	30000	13	-42.4		93	9	
2025-07-17T00:00	30050	13	-42.4		89	10	
2025-07-17T00:00	30100	12	-42.2		89	11	
2025-07-17T00:00	30150	12	-42.1		92	11	
2025-07-17T00:00	30200	12	-41.8		98	11	
2025-07-17T00:00	30250	12	-41.6		105	10	
2025-07-17T00:00	30300	12	-41.4		109	10	
2025-07-17T00:00	30350	12	-41.2		109	11	
2025-07-17T00:00	30400	12	-41.2		106	11	
2025-07-17T00:00	30450	12	-41.2		105	11	
2025-07-17T00:00	30500	12	-41.1		105	10	
2025-07-17T00:00	30550	12	-41.3		106	9	
2025-07-17T00:00	30600	12	-41.5		104	8	
2025-07-17T00:00	30650	11	-41.4		99	8	
2025-07-17T00:00	30700	11	-41.0		95	9	
2025-07-17T00:00	30750	11	-40.7		94	10	
2025-07-17T00:00	30800	11	-40.8		95	11	
2025-07-17T00:00	30850	11	-40.9		97	11	
2025-07-17T00:00	30900	11	-40.9		101	11	
2025-07-17T00:00	30950	11	-40.8		103	10	
2025-07-17T00:00	31000	11	-40.8		104	9	
2025-07-17T00:00	31050	11	-40.4		105	8	
2025-07-17T00:00	31100	11	-40.4		109	8	
2025-07-17T00:00	31150	11	-40.2		112	8	
2025-07-17T00:00	31200	11	-40.2		110	8	
2025-07-17T00:00	31250	11	-40.0		105	9	
2025-07-17T00:00	31300	10	-40.1		99	9	
2025-07-17T00:00	31350	10	-40.0		95	11	
2025-07-17T00:00	31400	10	-39.7		94	12	
2025-07-17T00:00	31450	10	-39.5		93	12	
2025-07-17T00:00	31500	10	-39.2		92	12	
2025-07-17T00:00	31550	10	-38.7		89	12	
2025-07-17T00:00	31600	10	-38.4		85	12	
2025-07-17T00:00	31650	10	-37.9		81	12	
2025-07-17T00:00	31700	10	-37.6		78	12	
2025-07-17T00:00	31750	10	-37.3		78	13	
2025-07-17T00:00	31800	10	-37.3		78	13	
2025-07-17T00:00	31850	10	-37.2		77	15	
2025-07-17T00:00	31900	10	-37.1		74	16	
2025-07-17T00:00	31950	10	-37.0		71	18	
2025-07-17T00:00	32000	9	-36.9		70	19	
2025-07-17T00:00	32050	9	-36.8		71	18	
2025-07-17T00:00	32100	9	-36.4		74	17	
2025-07-17T00:00	32150	9	-36.2		77	16	
2025-07-17T00:00	32200	9	-36.2		79	15	
2025-07-17T00:00	32250	9	-36.4		79	15	
2025-07-17T00:00	32300	9	-36.5		78	16	
2025-07-17T00:00	32350	9	-36.6		75	18	
2025-07-17T00:00	32400	9	-36.5		74	20	
2025-07-17T00:00	32450	9	-36.4		75	21	
2025-07-17T00:00	32500	9	-36.2		77	22	
2025-07-17T00:00	32550	9	-36.3		80	22	
2025-07-17T00:00	32600	9	-36.3		82	21	
2025-07-17T00:00	32650	9	-36.2		84	20	
2025-07-17T00:00	32700	9	-36.3		86	19	
2025-07-17T00:00	32750	8	-36.3		87	19	
2025-07-17T00:00	32800	8	-36.2		87	19	
2025-07-17T00:00	32850	8	-36.1		87	19	
2025-07-17T00:00	32900	8	-36.1		87	20	
2025-07-17T00:00	32950	8	-36.2		87	20	
2025-07-17T00:00	33000	8	-36.4		88	21	
2025-07-17T00:00	33050	8	-36.6		90	21	
2025-07-17T00:00	33100	8	-36.5		92	21	
2025-07-17T00:00	33150	8	-36.2		93	21	
2025-07-17T00:00	33200	8	-36.1		94	20	
2025-07-17T00:00	33250	8	-36.0		95	20	
2025-07-17T00:00	33300	8	-35.8		97	21	
2025-07-17T00:00	33350	8	-35.8		97	23	
2025-07-17T00:00	33400	8	-35.3		98	24	
2025-07-17T00:00	33450	8	-35.1		99	24	
2025-07-17T00:00	33500	8	-34.7		99	23	
2025-07-17T00:00	33550	8	-34.7		99	22	
2025-07-17T00:00	33600	7	-34.8		98	21	
2025-07-17T00:00	33650	7	-34.8		96	21	
2025-07-17T00:00	33700	7	-34.6		92	21	
2025-07-17T00:00	33750	7	-34.2		89	21	
2025-07-17T00:00	33800	7	-34.1		87	21	
2025-07-17T00:00	33850	7	-34.0		86	21	
2025-07-17T00:00	33900	7	-34.1		87	22	
2025-07-17T00:00	33950	7	-34.0		89	24	
2025-07-17T00:00	34000	7	-33.9		92	25	
2025-07-17T00:00	34050	7	-33.5		94	25	
2025-07-17T00:00	34100	7	-33.6		96	24	
2025-07-17T00:00	34150	7	-33.5		97	23	
2025-07-17T00:00	34200	7	-33.1		97	21	
2025-07-17T00:00	34250	7	-33.2		96	20	
2025-07-17T00:00	34300	7	-33.1		94	21	
2025-07-17T00:00	34350	7	-32.7		93	21	
2025-07-17T00:00	34400	7	-32.4		92	20	
2025-07-17T00:00	34450	7	-32.0		90	19	
2025-07-17T00:00	34500	7	-31.7		88	20	
2025-07-17T00:00	34550	7	-31.4		88	20	
2025-07-17T00:00	34600	6	-31.4		88	21	
2025-07-17T00:00	34650	6	-31.4		89	22	
2025-07-17T00:00	34700	6	-31.4		91	23	
2025-07-17T00:00	34750	6	-31.4		92	23	
2025-07-17T00:00	34800	6	-31.3		92	22	
2025-07-17T00:00	34850	6	-30.9		91	21	
2025-07-17T00:00	34900	6	-30.4		89	19	
2025-07-17T00:00	34950	6	-29.8		86	18	
2025-07-17T00:00	35000	6	-29.6		81	18	
2025-07-17T00:00	35050	6	-29.4		75	18	
2025-07-17T00:00	35100	6	-29.1		71	18	
2025-07-17T00:00	35150	6	-29.0		67	19	
2025-07-17T00:00	35200	6	-28.8		65	20	
2025-07-17T00:00	35250	6	-28.4		67	21	
2025-07-17T00:00	35300	6	-28.3		70	22	
2025-07-17T00:00	35350	6	-28.3		75	23	
2025-07-17T00:00	35400	6	-28.4		80	24	
2025-07-17T00:00	35450	6	-28.5		85	24	
2025-07-17T00:00	35500	6	-28.4		89	25	
2025-07-17T00:00	35550	6	-28.5		93	25	
2025-07-17T00:00	35600	6	-28.6		95	25	
2025-07-17T00:00	35650	6	-28.5		96	25	
2025-07-17T00:00	35700	6	-28.6		96	24	
2025-07-17T00:00	35750	6	-28.5		96	24	
2025-07-17T00:00	35800	5	-28.1		96	24	
2025-07-17T00:00	35850	5	-27.9		96	23	
2025-07-17T00:00	35900	5	-27.8		95	23	
2025-07-17T00:00	35950	5	-27.5		93	23	
2025-07-17T00:00	36000	5	-27.3		92	23	
2025-07-17T00:00	36050	5	-27.1		92	24	
2025-07-17T00:00	36100	5	-27.1		94	24	
2025-07-17T00:00	36150	5	-27.3		96	23	
2025-07-17T00:00	36200	5	-27.4		98	23	
2025-07-17T00:00	36250	5	-27.6		100	22	
2025-07-17T00:00	36300	5	-27.3		99	22	
2025-07-17T00:00	36350	5	-27.1		99	21	
2025-07-17T00:00	36400	5	-27.0		99	21	
2025-07-17T00:00	36450	5	-27.1		99	22	
2025-07-17T12:00	491	961	22.8	11.8	334	1	
2025-07-17T12:00	501	960	22.1	10.9	20	1	
2025-07-17T12:00	520	958	21.4	10.3	25	1	
2025-07-17T12:00	540	956	21.1	10.0	21	2	
2025-07-17T12:00	560	954	20.9	9.9	18	2	
2025-07-17T12:00	580	952	20.7	9.8	15	2	
2025-07-17T12:00	600	950	20.6	9.8	14	3	
2025-07-17T12:00	620	948	20.4	9.8	13	3	
2025-07-17T12:00	640	945	20.2	9.8	10	3	
2025-07-17T12:00	660	943	20.0	9.8	7	3	
2025-07-17T12:00	680	941	19.8	9.8	4	3	
2025-07-17T12:00	700	939	19.6	9.7	3	3	
2025-07-17T12:00	720	936	19.4	9.7	5	3	
2025-07-17T12:00	740	934	19.2	9.7	8	2	
2025-07-17T12:00	760	932	19.0	9.7	12	2	
2025-07-17T12:00	780	930	18.8	9.6	15	2	
2025-07-17T12:00	800	928	18.7	9.6	16	2	
2025-07-17T12:00	820	925	18.5	9.6	14	2	
2025-07-17T12:00	840	923	18.3	9.5	9	2	
2025-07-17T12:00	860	921	18.1	9.5	2	2	
2025-07-17T12:00	880	919	17.9	9.6	353	2	
2025-07-17T12:00	900	917	17.7	9.5	346	3	
2025-07-17T12:00	920	915	17.6	9.4	340	3	
2025-07-17T12:00	940	913	17.4	9.4	333	3	
2025-07-17T12:00	960	910	17.2	9.4	328	3	
2025-07-17T12:00	980	908	17.0	9.4	324	4	
2025-07-17T12:00	1000	906	16.8	9.3	321	4	
2025-07-17T12:00	1020	904	16.7	9.3	319	4	
2025-07-17T12:00	1040	902	16.4	9.2	318	4	
2025-07-17T12:00	1060	900	16.2	9.2	317	4	
2025-07-17T12:00	1080	898	16.0	9.1	318	4	
2025-07-17T12:00	1100	896	15.8	9.1	320	4	
2025-07-17T12:00	1120	894	15.7	9.1	322	3	
2025-07-17T12:00	1140	892	15.5	9.0	325	3	
2025-07-17T12:00	1160	889	15.3	8.9	329	3	
2025-07-17T12:00	1180	887	15.1	8.7	331	3	
2025-07-17T12:00	1200	885	14.9	8.6	332	3	
2025-07-17T12:00	1220	883	14.7	8.6	331	3	
2025-07-17T12:00	1240	881	14.5	8.6	330	3	
2025-07-17T12:00	1260	879	14.3	8.5	327	3	
2025-07-17T12:00	1280	877	14.1	8.6	326	3	
2025-07-17T12:00	1300	875	13.9	8.6	324	3	
2025-07-17T12:00	1320	873	13.7	8.6	323	3	
2025-07-17T12:00	1340	871	13.5	8.6	321	3	
2025-07-17T12:00	1360	869	13.3	8.6	320	3	
2025-07-17T12:00	1380	867	13.1	8.5	319	3	
2025-07-17T12:00	1400	864	12.9	8.6	319	3	
2025-07-17T12:00	1420	862	12.7	8.5	318	3	
2025-07-17T12:00	1440	860	12.6	8.5	316	2	
2025-07-17T12:00	1460	858	12.4	8.5	313	2	
2025-07-17T12:00	1480	856	12.2	8.3	308	2	
2025-07-17T12:00	1500	854	11.9	8.2	302	2	
2025-07-17T12:00	1520	852	11.7	8.2	296	3	
2025-07-17T12:00	1540	850	11.6	8.3	290	3	
2025-07-17T12:00	1560	848	11.4	8.2	280	3	
2025-07-17T12:00	1580	846	11.0	8.1	268	2	
2025-07-17T12:00	1600	844	11.2	7.4	256	2	
2025-07-17T12:00	1620	842	11.2	7.2	246	3	
2025-07-17T12:00	1640	840	11.0	7.3	240	3	
2025-07-17T12:00	1660	838	10.8	7.3	236	3	
2025-07-17T12:00	1680	836	10.6	7.3	233	3	
2025-07-17T12:00	1700	834	10.4	7.2	231	3	
2025-07-17T12:00	1720	832	10.2	7.1	229	3	
2025-07-17T12:00	1740	830	10.0	7.2	228	4	
2025-07-17T12:00	1760	828	9.8	7.1	227	4	
2025-07-17T12:00	1780	826	9.7	6.8	226	4	
2025-07-17T12:00	1800	824	9.6	6.6	226	5	
2025-07-17T12:00	1820	822	9.3	6.8	226	5	
2025-07-17T12:00	1840	820	9.4	5.5	227	5	
2025-07-17T12:00	1860	818	9.8	3.5	229	6	
2025-07-17T12:00	1880	816	9.8	3.4	230	6	
2025-07-17T12:00	1900	814	9.6	3.1	231	5	
2025-07-17T12:00	1920	812	9.5	2.5	232	5	
2025-07-17T12:00	1940	810	9.5	1.0	234	5	
2025-07-17T12:00	1960	808	9.4	-0.1	236	5	
2025-07-17T12:00	1980	806	9.3	-0.7	239	4	
2025-07-17T12:00	2000	804	9.4	-1.7	244	4	
2025-07-17T12:00	2020	803	9.3	-1.7	249	4	
2025-07-17T12:00	2040	801	9.2	-2.6	254	4	
2025-07-17T12:00	2060	799	9.0	-2.8	258	4	
2025-07-17T12:00	2080	797	8.9	-3.3	261	4	
2025-07-17T12:00	2100	795	8.7	-3.6	263	4	
2025-07-17T12:00	2120	793	8.6	-4.1	264	4	
2025-07-17T12:00	2140	791	8.5	-4.7	265	4	
2025-07-17T12:00	2160	789	8.5	-5.1	265	4	
2025-07-17T12:00	2180	787	8.4	-5.7	266	4	
2025-07-17T12:00	2200	785	8.3	-5.9	266	4	
2025-07-17T12:00	2220	783	8.1	-6.0	266	4	
2025-07-17T12:00	2240	781	8.0	-6.1	266	3	
2025-07-17T12:00	2260	780	7.8	-6.1	265	3	
2025-07-17T12:00	2280	778	7.6	-6.3	263	3	
2025-07-17T12:00	2300	776	7.6	-7.1	262	3	
2025-07-17T12:00	2320	774	7.4	-7.5	264	2	
2025-07-17T12:00	2340	772	7.2	-7.9	269	3	
2025-07-17T12:00	2360	770	7.1	-8.8	275	3	
2025-07-17T12:00	2380	768	7.2	-9.6	280	3	
2025-07-17T12:00	2400	766	7.4	-9.7	286	3	
2025-07-17T12:00	2420	764	7.4	-9.9	288	3	
2025-07-17T12:00	2440	763	7.4	-10.0	290	4	
2025-07-17T12:00	2460	761	7.4	-10.8	292	3	
2025-07-17T12:00	2480	759	7.3	-11.2	296	3	
2025-07-17T12:00	2500	757	7.1	-11.3	303	3	
2025-07-17T12:00	2520	756	6.9	-11.3	316	3	
2025-07-17T12:00	2540	754	6.7	-11.2	329	3	
2025-07-17T12:00	2560	752	6.5	-11.2	338	4	
2025-07-17T12:00	2580	750	6.3	-11.6	344	5	
2025-07-17T12:00	2600	748	6.2	-11.6	347	5	
2025-07-17T12:00	2620	746	6.1	-11.2	347	5	
2025-07-17T12:00	2640	744	5.9	-10.9	347	5	
2025-07-17T12:00	2660	743	5.9	-9.4	345	5	
2025-07-17T12:00	2680	741	5.9	-9.4	343	6	
2025-07-17T12:00	2700	739	5.9	-9.7	340	6	
2025-07-17T12:00	2720	737	5.8	-9.8	338	6	
2025-07-17T12:00	2740	735	5.7	-9.8	335	6	
2025-07-17T12:00	2760	733	5.7	-10.5	333	6	
2025-07-17T12:00	2780	732	5.7	-11.1	330	6	
2025-07-17T12:00	2800	730	5.6	-11.2	326	6	
2025-07-17T12:00	2820	728	5.6	-11.4	323	7	
2025-07-17T12:00	2840	726	5.5	-11.6	320	7	
2025-07-17T12:00	2860	724	5.3	-11.6	318	7	
2025-07-17T12:00	2880	723	5.3	-12.1	317	7	
2025-07-17T12:00	2900	721	5.4	-13.3	317	7	
2025-07-17T12:00	2920	719	5.4	-14.8	318	7	
2025-07-17T12:00	2940	718	5.5	-15.3	321	7	
2025-07-17T12:00	2960	716	5.4	-15.7	324	7	
2025-07-17T12:00	2980	714	5.3	-16.5	326	7	
2025-07-17T12:00	3000	712	5.3	-16.6	327	7	
2025-07-17T12:00	3020	711	5.2	-17.0	328	7	
2025-07-17T12:00	3040	709	5.1	-18.7	329	7	
2025-07-17T12:00	3060	707	5.0	-19.9	331	7	
2025-07-17T12:00	3080	705	4.9	-20.2	333	7	
2025-07-17T12:00	3100	704	4.8	-19.4	336	7	
2025-07-17T12:00	3120	702	4.8	-20.1	341	7	
2025-07-17T12:00	3140	700	4.7	-19.5	343	7	
2025-07-17T12:00	3160	698	4.6	-18.9	343	7	
2025-07-17T12:00	3180	697	4.5	-18.6	341	7	
2025-07-17T12:00	3200	695	4.3	-18.3	337	7	
2025-07-17T12:00	3220	693	4.1	-18.0	335	7	
2025-07-17T12:00	3240	692	3.9	-18.2	333	7	
2025-07-17T12:00	3260	690	3.8	-18.4	332	8	
2025-07-17T12:00	3280	688	3.7	-19.4	332	8	
2025-07-17T12:00	3300	687	3.6	-20.3	332	8	
2025-07-17T12:00	3320	685	3.5	-21.0	332	8	
2025-07-17T12:00	3340	683	3.5	-21.7	331	9	
2025-07-17T12:00	3360	681	3.4	-22.3	330	9	
2025-07-17T12:00	3380	680	3.3	-22.4	329	9	
2025-07-17T12:00	3400	678	3.2	-23.0	329	9	
2025-07-17T12:00	3420	676	3.1	-23.6	329	9	
2025-07-17T12:00	3440	675	3.1	-25.0	330	8	
2025-07-17T12:00	3460	673	3.0	-25.5	332	8	
2025-07-17T12:00	3480	671	2.9	-26.1	334	8	
2025-07-17T12:00	3500	670	2.8	-26.5	335	8	
2025-07-17T12:00	3520	668	2.7	-26.5	335	8	
2025-07-17T12:00	3540	666	2.5	-26.4	334	9	
2025-07-17T12:00	3560	665	2.4	-26.5	333	9	
2025-07-17T12:00	3580	663	2.2	-26.7	332	9	
2025-07-17T12:00	3600	661	2.1	-27.1	332	9	
2025-07-17T12:00	3620	660	2.0	-27.5	333	10	
2025-07-17T12:00	3640	658	1.8	-27.6	333	10	
2025-07-17T12:00	3660	656	1.7	-27.7	333	10	
2025-07-17T12:00	3680	655	1.5	-27.8	333	11	
2025-07-17T12:00	3700	653	1.3	-27.9	333	11	
2025-07-17T12:00	3720	651	1.3	-28.4	333	12	
2025-07-17T12:00	3740	650	1.2	-28.8	333	12	
2025-07-17T12:00	3760	648	1.1	-27.5	333	12	
2025-07-17T12:00	3780	647	0.9	-26.2	333	12	
2025-07-17T12:00	3800	645	0.7	-25.6	332	12	
2025-07-17T12:00	3820	644	0.5	-24.3	330	12	
2025-07-17T12:00	3840	642	0.3	-23.6	328	12	
2025-07-17T12:00	3860	640	0.2	-23.3	325	12	
2025-07-17T12:00	3880	639	0.2	-23.7	323	12	
2025-07-17T12:00	3900	637	0.2	-24.0	321	12	
2025-07-17T12:00	3920	635	0.1	-24.1	320	12	
2025-07-17T12:00	3940	634	0.1	-25.2	322	12	
2025-07-17T12:00	3960	632	0.1	-26.9	324	12	
2025-07-17T12:00	3980	631	0.1	-26.4	328	11	
2025-07-17T12:00	4000	629	0.0	-27.1	331	11	
2025-07-17T12:00	4020	628	0.0	-27.0	333	11	
2025-07-17T12:00	4040	626	-0.1	-27.0	335	11	
2025-07-17T12:00	4060	624	-0.2	-27.2	337	11	
2025-07-17T12:00	4080	623	-0.3	-28.3	339	12	
2025-07-17T12:00	4100	621	-0.3	-33.0	340	12	
2025-07-17T12:00	4120	620	-0.4	-29.6	341	12	
2025-07-17T12:00	4140	618	-0.5	-25.3	341	13	
2025-07-17T12:00	4160	617	-0.5	-28.6	342	13	
2025-07-17T12:00	4180	615	-0.7	-28.8	342	14	
2025-07-17T12:00	4200	614	-0.8	-28.8	342	14	
2025-07-17T12:00	4220	612	-0.9	-28.1	341	15	
2025-07-17T12:00	4240	610	-0.9	-25.7	341	15	
2025-07-17T12:00	4260	609	-1.0	-25.9	340	15	
2025-07-17T12:00	4280	608	-1.1	-25.7	339	14	
2025-07-17T12:00	4300	606	-1.2	-24.8	339	14	
2025-07-17T12:00	4320	604	-1.4	-24.5	339	14	
2025-07-17T12:00	4340	603	-1.5	-24.5	340	14	
2025-07-17T12:00	4360	601	-1.7	-24.7	340	14	
2025-07-17T12:00	4380	600	-1.8	-24.8	340	14	
2025-07-17T12:00	4400	598	-1.9	-24.9	339	14	
2025-07-17T12:00	4420	597	-2.1	-24.8	338	14	
2025-07-17T12:00	4440	595	-2.2	-25.2	337	14	
2025-07-17T12:00	4460	594	-2.3	-25.6	336	15	
2025-07-17T12:00	4480	592	-2.4	-25.9	335	15	
2025-07-17T12:00	4500	591	-2.4	-26.1	334	15	
2025-07-17T12:00	4520	590	-2.5	-26.1	333	15	
2025-07-17T12:00	4540	588	-2.6	-25.8	332	15	
2025-07-17T12:00	4560	586	-2.7	-25.3	332	15	
2025-07-17T12:00	4580	585	-2.8	-24.5	331	15	
2025-07-17T12:00	4600	584	-3.0	-23.9	330	15	
2025-07-17T12:00	4620	582	-3.1	-23.4	330	15	
2025-07-17T12:00	4640	581	-3.2	-23.2	329	15	
2025-07-17T12:00	4660	579	-3.4	-23.0	329	15	
2025-07-17T12:00	4680	578	-3.5	-22.0	329	15	
2025-07-17T12:00	4700	576	-3.6	-19.0	328	15	
2025-07-17T12:00	4720	575	-3.7	-16.6	328	15	
2025-07-17T12:00	4740	573	-3.9	-15.3	328	15	
2025-07-17T12:00	4760	572	-4.0	-12.4	329	14	
2025-07-17T12:00	4780	570	-4.2	-11.7	329	14	
2025-07-17T12:00	4800	569	-4.3	-11.6	329	14	
2025-07-17T12:00	4820	567	-4.5	-11.6	329	14	
2025-07-17T12:00	4840	566	-4.7	-11.5	328	14	
2025-07-17T12:00	4860	565	-4.8	-10.7	327	14	
2025-07-17T12:00	4880	563	-5.0	-10.2	325	14	
2025-07-17T12:00	4900	562	-5.1	-11.5	324	14	
2025-07-17T12:00	4920	560	-5.0	-16.2	322	14	
2025-07-17T12:00	4940	559	-4.9	-21.2	320	14	
2025-07-17T12:00	4960	557	-4.9	-23.3	319	14	
2025-07-17T12:00	4980	556	-4.8	-23.6	318	14	
2025-07-17T12:00	5000	555	-4.7	-25.2	317	14	
2025-07-17T12:00	5020	553	-4.7	-25.9	317	15	
2025-07-17T12:00	5040	552	-4.8	-27.8	317	15	
2025-07-17T12:00	5060	550	-4.8	-29.6	317	15	
2025-07-17T12:00	5080	549	-4.9	-31.8	317	16	
2025-07-17T12:00	5100	548	-4.9	-32.8	317	16	
2025-07-17T12:00	5120	546	-4.9	-31.3	317	17	
2025-07-17T12:00	5140	545	-4.9	-28.0	318	17	
2025-07-17T12:00	5160	543	-5.0	-24.6	319	17	
2025-07-17T12:00	5180	542	-5.1	-23.7	320	16	
2025-07-17T12:00	5200	541	-5.3	-23.4	322	16	
2025-07-17T12:00	5220	539	-5.4	-23.1	324	16	
2025-07-17T12:00	5240	538	-5.6	-22.6	326	16	
2025-07-17T12:00	5260	537	-5.8	-22.0	327	16	
2025-07-17T12:00	5280	535	-5.9	-22.1	328	15	
2025-07-17T12:00	5300	534	-6.0	-22.5	330	16	
2025-07-17T12:00	5320	533	-6.2	-22.7	329	16	
2025-07-17T12:00	5340	531	-6.3	-22.9	329	16	
2025-07-17T12:00	5360	530	-6.4	-22.6	328	16	
2025-07-17T12:00	5380	528	-6.6	-21.7	326	16	
2025-07-17T12:00	5400	527	-6.8	-21.3	325	17	
2025-07-17T12:00	5420	526	-6.9	-20.9	324	17	
2025-07-17T12:00	5440	524	-7.1	-20.3	323	17	
2025-07-17T12:00	5460	523	-7.4	-18.6	322	17	
2025-07-17T12:00	5480	522	-7.5	-17.3	322	17	
2025-07-17T12:00	5500	520	-7.7	-16.4	322	17	
2025-07-17T12:00	5520	519	-8.0	-15.9	323	17	
2025-07-17T12:00	5540	518	-8.1	-16.0	323	17	
2025-07-17T12:00	5560	516	-8.3	-15.0	324	17	
2025-07-17T12:00	5580	515	-8.6	-15.1	324	17	
2025-07-17T12:00	5600	514	-8.7	-15.1	324	17	
2025-07-17T12:00	5620	512	-8.9	-15.0	324	17	
2025-07-17T12:00	5640	511	-9.1	-15.0	324	17	
2025-07-17T12:00	5660	510	-9.3	-14.9	323	17	
2025-07-17T12:00	5680	509	-9.5	-15.0	323	17	
2025-07-17T12:00	5700	507	-9.7	-15.2	323	18	
2025-07-17T12:00	5720	506	-9.8	-15.8	323	18	
2025-07-17T12:00	5740	505	-9.9	-18.3	323	18	
2025-07-17T12:00	5760	503	-9.9	-21.8	324	18	
2025-07-17T12:00	5780	502	-10.0	-21.3	324	19	
2025-07-17T12:00	5800	501	-10.1	-21.9	325	19	
2025-07-17T12:00	5820	499	-10.2	-24.4	325	19	
2025-07-17T12:00	5840	498	-10.2	-26.6	326	19	
2025-07-17T12:00	5860	497	-10.3	-27.1	326	19	
2025-07-17T12:00	5880	495	-10.4	-26.8	326	19	
2025-07-17T12:00	5900	494	-10.5	-26.5	326	19	
2025-07-17T12:00	5920	493	-10.6	-25.5	327	18	
2025-07-17T12:00	5940	492	-10.7	-24.7	327	18	
2025-07-17T12:00	5960	490	-10.9	-22.9	328	18	
2025-07-17T12:00	5980	489	-11.0	-22.1	328	18	
2025-07-17T12:00	6000	488	-11.2	-21.5	328	17	
2025-07-17T12:00	6020	486	-11.4	-20.8	329	17	
2025-07-17T12:00	6040	485	-11.5	-20.7	329	17	
2025-07-17T12:00	6060	484	-11.7	-20.5	329	17	
2025-07-17T12:00	6080	483	-11.8	-20.0	329	18	
2025-07-17T12:00	6100	482	-11.9	-19.2	330	18	
2025-07-17T12:00	6120	480	-12.1	-18.7	330	18	
2025-07-17T12:00	6140	479	-12.3	-18.5	330	18	
2025-07-17T12:00	6160	478	-12.4	-18.6	331	18	
2025-07-17T12:00	6180	476	-12.6	-18.9	331	18	
2025-07-17T12:00	6200	475	-12.7	-18.9	331	18	
2025-07-17T12:00	6220	474	-12.9	-18.9	330	19	
2025-07-17T12:00	6240	473	-13.1	-18.7	330	19	
2025-07-17T12:00	6260	471	-13.2	-18.1	329	20	
2025-07-17T12:00	6280	470	-13.3	-17.8	329	20	
2025-07-17T12:00	6300	469	-13.4	-17.8	328	21	
2025-07-17T12:00	6320	468	-13.4	-17.8	328	21	
2025-07-17T12:00	6340	466	-13.4	-17.7	327	22	
2025-07-17T12:00	6360	465	-13.5	-17.8	328	22	
2025-07-17T12:00	6380	464	-13.7	-17.8	328	22	
2025-07-17T12:00	6400	463	-13.9	-17.8	328	22	
2025-07-17T12:00	6420	462	-14.0	-17.9	329	22	
2025-07-17T12:00	6440	460	-14.2	-18.1	329	23	
2025-07-17T12:00	6460	459	-14.3	-18.2	328	23	
2025-07-17T12:00	6480	458	-14.5	-18.6	327	23	
2025-07-17T12:00	6500	457	-14.7	-18.7	326	23	
2025-07-17T12:00	6520	456	-14.9	-18.7	324	23	
2025-07-17T12:00	6540	454	-15.1	-18.7	323	24	
2025-07-17T12:00	6560	453	-15.2	-19.0	322	24	
2025-07-17T12:00	6580	452	-15.3	-19.2	321	24	
2025-07-17T12:00	6600	451	-15.5	-19.3	320	24	
2025-07-17T12:00	6620	450	-15.6	-19.4	320	24	
2025-07-17T12:00	6640	448	-15.7	-19.6	320	24	
2025-07-17T12:00	6660	447	-15.8	-19.9	320	24	
2025-07-17T12:00	6680	446	-15.8	-20.0	320	24	
2025-07-17T12:00	6700	445	-16.0	-20.1	320	24	
2025-07-17T12:00	6720	444	-16.1	-20.1	320	24	
2025-07-17T12:00	6740	442	-16.2	-20.7	321	24	
2025-07-17T12:00	6760	441	-16.4	-21.2	321	24	
2025-07-17T12:00	6780	440	-16.5	-21.3	321	24	
2025-07-17T12:00	6800	439	-16.6	-21.7	321	24	
2025-07-17T12:00	6820	438	-16.7	-22.0	321	24	
2025-07-17T12:00	6840	437	-16.7	-22.2	321	24	
2025-07-17T12:00	6860	436	-16.9	-22.2	321	24	
2025-07-17T12:00	6880	434	-17.0	-22.1	321	23	
2025-07-17T12:00	6900	433	-17.2	-22.1	321	23	
2025-07-17T12:00	6920	432	-17.4	-22.1	321	23	
2025-07-17T12:00	6940	431	-17.5	-22.2	321	23	
2025-07-17T12:00	6960	430	-17.5	-22.6	321	23	
2025-07-17T12:00	6980	428	-17.6	-22.7	321	23	
2025-07-17T12:00	7000	427	-17.8	-23.0	321	23	
2025-07-17T12:00	7020	426	-18.0	-23.1	321	23	
2025-07-17T12:00	7040	425	-18.1	-23.2	321	23	
2025-07-17T12:00	7060	424	-18.2	-23.2	321	23	
2025-07-17T12:00	7080	423	-18.4	-23.4	321	23	
2025-07-17T12:00	7100	422	-18.6	-23.5	321	23	
2025-07-17T12:00	7120	421	-18.7	-23.5	321	23	
2025-07-17T12:00	7140	419	-18.9	-23.7	321	23	
2025-07-17T12:00	7160	418	-19.0	-24.1	321	23	
2025-07-17T12:00	7180	417	-19.2	-24.1	321	23	
2025-07-17T12:00	7200	416	-19.4	-24.2	320	23	
2025-07-17T12:00	7220	415	-19.6	-24.4	320	23	
2025-07-17T12:00	7240	414	-19.7	-24.4	319	23	
2025-07-17T12:00	7260	413	-19.9	-24.4	318	23	
2025-07-17T12:00	7280	412	-20.1	-24.7	317	23	
2025-07-17T12:00	7300	410	-20.2	-24.7	317	23	
2025-07-17T12:00	7320	409	-20.4	-24.8	317	24	
2025-07-17T12:00	7340	408	-20.5	-25.0	317	24	
2025-07-17T12:00	7360	407	-20.7	-25.2	317	24	
2025-07-17T12:00	7380	406	-20.8	-25.9	317	24	
2025-07-17T12:00	7400	405	-20.9	-26.1	317	25	
2025-07-17T12:00	7420	404	-21.1	-26.1	317	25	
2025-07-17T12:00	7440	403	-21.2	-26.2	317	25	
2025-07-17T12:00	7460	402	-21.3	-26.2	317	25	
2025-07-17T12:00	7480	401	-21.5	-26.2	317	25	
2025-07-17T12:00	7500	400	-21.6	-26.3	317	25	
2025-07-17T12:00	7520	398	-21.7	-26.4	316	25	
2025-07-17T12:00	7540	397	-21.8	-26.4	316	25	
2025-07-17T12:00	7560	396	-22.0	-26.5	315	25	
2025-07-17T12:00	7580	395	-22.1	-26.8	315	25	
2025-07-17T12:00	7600	394	-22.2	-27.2	315	25	
2025-07-17T12:00	7620	393	-22.3	-27.3	315	25	
2025-07-17T12:00	7640	392	-22.5	-27.4	315	25	
2025-07-17T12:00	7660	391	-22.6	-28.0	315	25	
2025-07-17T12:00	7680	390	-22.8	-28.6	315	24	
2025-07-17T12:00	7700	389	-22.9	-28.7	315	24	
2025-07-17T12:00	7720	388	-23.1	-28.5	315	25	
2025-07-17T12:00	7740	387	-23.3	-28.5	315	25	
2025-07-17T12:00	7760	386	-23.5	-28.4	315	25	
2025-07-17T12:00	7780	385	-23.6	-28.5	315	25	
2025-07-17T12:00	7800	384	-23.8	-28.6	315	25	
2025-07-17T12:00	7820	383	-24.0	-28.8	315	26	
2025-07-17T12:00	7840	381	-24.2	-28.9	315	26	
2025-07-17T12:00	7860	380	-24.3	-28.9	315	26	
2025-07-17T12:00	7880	379	-24.5	-29.0	315	26	
2025-07-17T12:00	7900	378	-24.6	-29.2	315	26	
2025-07-17T12:00	7920	377	-24.8	-29.3	315	26	
2025-07-17T12:00	7940	376	-25.0	-29.7	315	26	
2025-07-17T12:00	7960	375	-25.1	-30.1	315	26	
2025-07-17T12:00	7980	374	-25.2	-30.4	315	26	
2025-07-17T12:00	8000	373	-25.3	-30.6	315	25	
2025-07-17T12:00	8020	372	-25.5	-30.6	316	25	
2025-07-17T12:00	8040	371	-25.7	-30.7	316	25	
2025-07-17T12:00	8060	370	-25.8	-30.9	317	25	
2025-07-17T12:00	8080	369	-26.0	-31.2	317	25	
2025-07-17T12:00	8100	368	-26.1	-31.3	318	25	
2025-07-17T12:00	8120	367	-26.3	-31.5	318	25	
2025-07-17T12:00	8140	366	-26.4	-31.8	318	25	
2025-07-17T12:00	8160	365	-26.6	-32.0	318	25	
2025-07-17T12:00	8180	364	-26.7	-32.5	317	25	
2025-07-17T12:00	8200	363	-26.9	-32.9	317	25	
2025-07-17T12:00	8220	362	-27.0	-33.1	317	25	
2025-07-17T12:00	8240	361	-27.2	-33.1	317	25	
2025-07-17T12:00	8260	360	-27.4	-33.1	317	25	
2025-07-17T12:00	8280	359	-27.6	-33.3	317	25	
2025-07-17T12:00	8300	358	-27.7	-33.2	317	25	
2025-07-17T12:00	8320	357	-27.9	-33.4	318	25	
2025-07-17T12:00	8340	356	-28.0	-33.7	318	25	
2025-07-17T12:00	8360	355	-28.1	-33.7	318	24	
2025-07-17T12:00	8380	354	-28.3	-33.8	319	24	
2025-07-17T12:00	8400	353	-28.5	-33.8	319	24	
2025-07-17T12:00	8420	352	-28.7	-34.0	319	25	
2025-07-17T12:00	8440	351	-28.8	-34.3	319	25	
2025-07-17T12:00	8460	350	-29.0	-34.4	319	25	
2025-07-17T12:00	8480	349	-29.2	-34.5	319	25	
2025-07-17T12:00	8500	348	-29.3	-34.9	318	25	
2025-07-17T12:00	8520	347	-29.5	-35.4	318	25	
2025-07-17T12:00	8540	346	-29.7	-35.5	318	25	
2025-07-17T12:00	8560	345	-29.9	-35.6	318	25	
2025-07-17T12:00	8580	344	-30.0	-35.6	318	25	
2025-07-17T12:00	8600	343	-30.2	-35.5	318	25	
2025-07-17T12:00	8620	342	-30.4	-35.5	317	25	
2025-07-17T12:00	8640	341	-30.6	-35.7	317	26	
2025-07-17T12:00	8660	340	-30.7	-36.0	316	26	
2025-07-17T12:00	8680	340	-30.8	-36.2	316	25	
2025-07-17T12:00	8700	339	-30.9	-36.1	315	26	
2025-07-17T12:00	8720	338	-31.1	-36.2	314	26	
2025-07-17T12:00	8740	337	-31.2	-36.2	314	25	
2025-07-17T12:00	8760	336	-31.3	-36.6	313	26	
2025-07-17T12:00	8780	335	-31.4	-36.8	313	26	
2025-07-17T12:00	8800	334	-31.6	-36.8	313	26	
2025-07-17T12:00	8820	333	-31.8	-36.8	313	26	
2025-07-17T12:00	8840	332	-31.9	-36.9	313	26	
2025-07-17T12:00	8860	331	-32.1	-37.0	313	26	
2025-07-17T12:00	8880	330	-32.2	-37.0	314	26	
2025-07-17T12:00	8900	329	-32.4	-37.0	314	27	
2025-07-17T12:00	8920	328	-32.6	-37.0	314	27	
2025-07-17T12:00	8940	327	-32.7	-37.3	315	27	
2025-07-17T12:00	8960	326	-32.8	-37.6	315	27	
2025-07-17T12:00	8980	325	-33.0	-38.3	315	27	
2025-07-17T12:00	9000	324	-33.1	-38.3	314	27	
2025-07-17T12:00	9020	323	-33.3	-38.3	314	27	
2025-07-17T12:00	9040	323	-33.5	-38.4	314	27	
2025-07-17T12:00	9060	322	-33.6	-38.3	313	27	
2025-07-17T12:00	9080	321	-33.8	-37.8	313	27	
2025-07-17T12:00	9100	320	-34.0	-37.4	313	27	
2025-07-17T12:00	9120	319	-34.2	-37.9	313	28	
2025-07-17T12:00	9140	318	-34.3	-38.6	313	28	
2025-07-17T12:00	9160	317	-34.4	-38.8	313	28	
2025-07-17T12:00	9180	316	-34.5	-38.9	314	28	
2025-07-17T12:00	9200	315	-34.7	-39.2	314	28	
2025-07-17T12:00	9220	314	-34.8	-39.5	314	28	
2025-07-17T12:00	9240	313	-35.0	-39.7	313	28	
2025-07-17T12:00	9260	313	-35.1	-39.9	313	28	
2025-07-17T12:00	9280	312	-35.3	-39.9	313	28	
2025-07-17T12:00	9300	311	-35.5	-40.6	312	29	
2025-07-17T12:00	9320	310	-35.6	-41.5	312	29	
2025-07-17T12:00	9340	309	-35.8	-41.5	312	29	
2025-07-17T12:00	9360	308	-36.0	-41.8	312	29	
2025-07-17T12:00	9380	307	-36.1	-42.4	312	29	
2025-07-17T12:00	9400	306	-36.3	-41.7	311	29	
2025-07-17T12:00	9420	306	-36.4	-42.0	311	28	
2025-07-17T12:00	9440	305	-36.6	-43.2	311	28	
2025-07-17T12:00	9460	304	-36.7	-42.4	311	28	
2025-07-17T12:00	9480	303	-36.9	-41.1	312	28	
2025-07-17T12:00	9500	302	-37.0	-41.5	312	28	
2025-07-17T12:00	9520	301	-37.2	-41.9	312	28	
2025-07-17T12:00	9540	300	-37.4	-41.9	312	28	
2025-07-17T12:00	9560	299	-37.5	-42.1	312	28	
2025-07-17T12:00	9580	298	-37.7	-42.3	313	29	
2025-07-17T12:00	9600	298	-37.8	-42.5	313	29	
2025-07-17T12:00	9620	297	-38.0	-42.7	312	29	
2025-07-17T12:00	9640	296	-38.0	-43.2	312	29	
2025-07-17T12:00	9660	295	-38.2	-43.6	312	29	
2025-07-17T12:00	9680	294	-38.3	-43.9	312	30	
2025-07-17T12:00	9700	293	-38.5	-44.4	312	30	
2025-07-17T12:00	9720	292	-38.6	-44.8	312	30	
2025-07-17T12:00	9740	292	-38.8	-45.1	312	30	
2025-07-17T12:00	9760	291	-39.0	-44.9	312	30	
2025-07-17T12:00	9780	290	-39.2	-45.3	312	30	
2025-07-17T12:00	9800	289	-39.4	-46.4	312	30	
2025-07-17T12:00	9820	288	-39.5	-47.0	312	30	
2025-07-17T12:00	9840	287	-39.8	-47.2	312	30	
2025-07-17T12:00	9860	287	-39.9	-46.3	312	30	
2025-07-17T12:00	9880	286	-40.1	-46.2	312	30	
2025-07-17T12:00	9900	285	-40.3	-46.0	312	30	
2025-07-17T12:00	9920	284	-40.5	-45.7	312	30	
2025-07-17T12:00	9940	283	-40.7	-45.9	312	30	
2025-07-17T12:00	9960	282	-40.9	-46.2	312	30	
2025-07-17T12:00	9980	281	-41.1	-46.2	312	31	
2025-07-17T12:00	10000	281	-41.2	-46.5	312	31	
2025-07-17T12:00	10018	280	-41.4	-46.5	312	31	
2025-07-17T12:00	10050	279	-41.6	-47.3	312	31	
2025-07-17T12:00	10100	277	-42.1	-47.7	312	31	
2025-07-17T12:00	10150	275	-42.5	-47.8	312	30	
2025-07-17T12:00	10200	273	-42.9	-47.9	312	30	
2025-07-17T12:00	10250	270	-43.4	-48.0	313	30	
2025-07-17T12:00	10300	269	-43.8	-48.2	314	30	
2025-07-17T12:00	10350	267	-44.2	-48.6	313	30	
2025-07-17T12:00	10400	265	-44.6	-49.5	313	30	
2025-07-17T12:00	10450	263	-45.0	-50.0	314	31	
2025-07-17T12:00	10500	261	-45.4	-50.1	314	31	
2025-07-17T12:00	10550	259	-45.9	-50.7	314	31	
2025-07-17T12:00	10600	257	-46.3	-51.2	312	32	
2025-07-17T12:00	10650	255	-46.5	-53.4	311	32	
2025-07-17T12:00	10700	253	-46.7	-55.4	311	33	
2025-07-17T12:00	10750	251	-46.7	-56.6	313	34	
2025-07-17T12:00	10800	249	-47.0	-55.9	314	34	
2025-07-17T12:00	10850	247	-47.5	-55.6	314	34	
2025-07-17T12:00	10900	245	-48.0	-55.2	314	34	
2025-07-17T12:00	10950	244	-48.5	-54.9	314	34	
2025-07-17T12:00	11000	242	-48.9	-54.3	314	34	
2025-07-17T12:00	11050	240	-49.4	-53.9	313	35	
2025-07-17T12:00	11100	238	-49.8	-54.4	312	35	
2025-07-17T12:00	11150	236	-50.1	-55.1	312	35	
2025-07-17T12:00	11200	234	-50.5	-55.3	311	35	
2025-07-17T12:00	11250	233	-50.8	-56.1	312	36	
2025-07-17T12:00	11300	231	-50.8	-58.9	313	37	
2025-07-17T12:00	11350	229	-50.7	-62.0	314	37	
2025-07-17T12:00	11400	227	-50.7	-64.2	315	37	
2025-07-17T12:00	11450	226	-50.9	-63.4	316	37	
2025-07-17T12:00	11500	224	-51.3	-63.5	317	37	
2025-07-17T12:00	11550	222	-51.7	-63.5	318	37	
2025-07-17T12:00	11600	220	-51.9	-63.5	318	37	
2025-07-17T12:00	11650	219	-51.9	-64.5	318	37	
2025-07-17T12:00	11700	217	-52.1	-64.8	317	37	
2025-07-17T12:00	11750	215	-52.4	-65.1	317	37	
2025-07-17T12:00	11800	214	-52.4	-65.6	317	37	
2025-07-17T12:00	11850	212	-52.2	-67.1	316	37	
2025-07-17T12:00	11900	210	-51.9	-68.6	315	37	
2025-07-17T12:00	11950	209	-52.0	-68.8	313	36	
2025-07-17T12:00	12000	207	-52.0	-69.2	311	37	
2025-07-17T12:00	12050	206	-51.8	-69.8	311	37	
2025-07-17T12:00	12100	204	-51.7	-69.6	312	37	
2025-07-17T12:00	12150	202	-51.9	-70.0	312	37	
2025-07-17T12:00	12200	201	-51.9	-70.6	311	37	
2025-07-17T12:00	12250	199	-51.7	-71.2	311	38	
2025-07-17T12:00	12300	198	-50.9	-72.5	311	40	
2025-07-17T12:00	12350	196	-50.7	-72.9	313	41	
2025-07-17T12:00	12400	195	-50.1	-73.4	314	42	
2025-07-17T12:00	12450	193	-50.2	-73.4	315	44	
2025-07-17T12:00	12500	192	-50.3	-73.7	315	44	
2025-07-17T12:00	12550	190	-50.3	-74.1	315	44	
2025-07-17T12:00	12600	189	-50.2	-74.5	316	44	
2025-07-17T12:00	12650	187	-50.2	-74.8	317	43	
2025-07-17T12:00	12700	186	-50.5	-74.9	318	42	
2025-07-17T12:00	12750	185	-50.7	-75.0	318	42	
2025-07-17T12:00	12800	183	-50.9	-75.2	317	42	
2025-07-17T12:00	12850	182	-51.0	-75.4	316	42	
2025-07-17T12:00	12900	180	-51.2	-75.5	316	42	
2025-07-17T12:00	12950	179	-51.5	-75.7	316	42	
2025-07-17T12:00	13000	178	-51.7	-75.9	316	42	
2025-07-17T12:00	13050	176	-51.9	-76.2	316	42	
2025-07-17T12:00	13100	175	-52.2	-76.6	316	41	
2025-07-17T12:00	13150	174	-52.5	-76.8	316	41	
2025-07-17T12:00	13200	172	-52.7	-77.2	315	40	
2025-07-17T12:00	13250	171	-52.7	-77.9	315	39	
2025-07-17T12:00	13300	170	-53.0	-77.8	315	38	
2025-07-17T12:00	13350	168	-53.3	-77.7	314	37	
2025-07-17T12:00	13400	167	-53.6	-77.7	313	36	
2025-07-17T12:00	13450	166	-53.8	-77.9	312	34	
2025-07-17T12:00	13500	164	-53.8	-78.4	310	33	
2025-07-17T12:00	13550	163	-53.7	-78.7	308	33	
2025-07-17T12:00	13600	162	-53.8	-79.1	306	33	
2025-07-17T12:00	13650	161	-53.9	-79.3	304	32	
2025-07-17T12:00	13700	159	-54.0	-79.5	303	33	
2025-07-17T12:00	13750	158	-54.3	-79.7	303	34	
2025-07-17T12:00	13800	157	-54.7	-79.8	303	34	
2025-07-17T12:00	13850	156	-55.2	-79.9	303	35	
2025-07-17T12:00	13900	154	-55.6	-80.1	303	35	
2025-07-17T12:00	13950	153	-56.1	-80.2	302	36	
2025-07-17T12:00	14000	152	-56.5	-80.3	302	37	
2025-07-17T12:00	14050	151	-56.9	-80.4	304	37	
2025-07-17T12:00	14100	150	-57.0	-80.5	306	37	
2025-07-17T12:00	14150	148	-56.8	-80.6	309	36	
2025-07-17T12:00	14200	147	-56.9	-80.7	311	35	
2025-07-17T12:00	14250	146	-57.1	-80.7	313	34	
2025-07-17T12:00	14300	145	-57.3	-80.8	314	33	
2025-07-17T12:00	14350	144	-57.6	-80.9	315	33	
2025-07-17T12:00	14400	143	-58.0	-81.0	315	32	
2025-07-17T12:00	14450	142	-58.3	-81.1	314	31	
2025-07-17T12:00	14500	140	-58.7	-81.2	315	30	
2025-07-17T12:00	14550	139	-58.9	-81.4	317	29	
2025-07-17T12:00	14600	138	-59.1	-81.5	320	28	
2025-07-17T12:00	14650	137	-59.4	-81.5	321	28	
2025-07-17T12:00	14700	136	-59.8	-81.7	320	28	
2025-07-17T12:00	14750	135	-60.1	-82.0	320	27	
2025-07-17T12:00	14800	134	-59.6	-82.0	322	26	
2025-07-17T12:00	14850	133	-59.2	-82.2	322	25	
2025-07-17T12:00	14900	132	-59.0	-82.3	321	23	
2025-07-17T12:00	14950	131	-59.1	-82.3	318	22	
2025-07-17T12:00	15000	130	-59.5	-82.5	313	21	
2025-07-17T12:00	15050	129	-59.4	-82.5	307	21	
2025-07-17T12:00	15100	128	-59.2	-82.8	303	22	
2025-07-17T12:00	15150	127	-58.6	-82.9	303	24	
2025-07-17T12:00	15200	126	-58.6	-83.1	303	25	
2025-07-17T12:00	15250	125	-58.7	-83.1	303	26	
2025-07-17T12:00	15300	124	-58.9	-83.2	305	27	
2025-07-17T12:00	15350	123	-58.9	-83.3	308	28	
2025-07-17T12:00	15400	122	-59.0	-83.5	313	27	
2025-07-17T12:00	15450	121	-58.9	-83.6	317	26	
2025-07-17T12:00	15500	120	-58.6	-83.6	321	25	
2025-07-17T12:00	15550	119	-58.5	-83.5	323	23	
2025-07-17T12:00	15600	118	-58.6	-83.5	325	22	
2025-07-17T12:00	15650	117	-58.9	-83.4	324	21	
2025-07-17T12:00	15700	116	-59.1	-83.6	323	20	
2025-07-17T12:00	15750	115	-59.4	-83.7	322	19	
2025-07-17T12:00	15800	114	-59.3	-83.7	322	18	
2025-07-17T12:00	15850	113	-59.4	-83.9	319	18	
2025-07-17T12:00	15900	112	-59.4	-84.0	315	18	
2025-07-17T12:00	15950	111	-59.2	-84.0	313	18	
2025-07-17T12:00	16000	111	-59.1	-84.0	314	18	
2025-07-17T12:00	16050	110	-58.7	-83.9	315	18	
2025-07-17T12:00	16100	109	-58.4	-83.9	315	18	
2025-07-17T12:00	16150	108	-58.2	-84.0	316	18	
2025-07-17T12:00	16200	107	-58.0	-83.8	319	17	
2025-07-17T12:00	16250	106	-57.9	-83.7	323	17	
2025-07-17T12:00	16300	105	-58.0	-83.7	327	17	
2025-07-17T12:00	16350	105	-58.2	-83.7	329	17	
2025-07-17T12:00	16400	104	-58.5	-83.7	330	17	
2025-07-17T12:00	16450	103	-58.9	-83.8	329	16	
2025-07-17T12:00	16500	102	-59.3	-84.0	329	15	
2025-07-17T12:00	16550	101	-59.5	-84.4	331	14	
2025-07-17T12:00	16600	100	-58.4	-84.1	333	13	
2025-07-17T12:00	16650	100	-58.4	-84.3	330	12	
2025-07-17T12:00	16700	99	-58.4	-84.4	326	11	
2025-07-17T12:00	16750	98	-58.1	-84.4	328	10	
2025-07-17T12:00	16800	97	-57.4	-84.3	334	8	
2025-07-17T12:00	16850	97	-57.1	-84.2	338	6	
2025-07-17T12:00	16900	96	-56.7	-84.0	343	5	
2025-07-17T12:00	16950	95	-56.6	-83.9	350	4	
2025-07-17T12:00	17000	94	-56.6	-83.8	354	3	
2025-07-17T12:00	17050	94	-56.9	-83.9	351	2	
2025-07-17T12:00	17100	93	-56.6	-84.0	345	1	
2025-07-17T12:00	17150	92	-55.9	-83.7	334	1	
2025-07-17T12:00	17200	91	-56.1	-83.7	290	1	
2025-07-17T12:00	17250	91	-56.4	-83.6	250	1	
2025-07-17T12:00	17300	90	-56.8	-83.7	239	3	
2025-07-17T12:00	17350	89	-57.0	-83.8	236	4	
2025-07-17T12:00	17400	89	-57.2	-83.9	236	5	
2025-07-17T12:00	17450	88	-57.5	-83.9	238	5	
2025-07-17T12:00	17500	87	-57.9	-84.0	240	5	
2025-07-17T12:00	17550	86	-58.4	-84.2	242	6	
2025-07-17T12:00	17600	86	-58.8	-84.3	244	7	
2025-07-17T12:00	17650	85	-59.3	-84.5	244	7	
2025-07-17T12:00	17700	84	-59.7	-84.6	245	8	
2025-07-17T12:00	17750	84	-60.1	-84.8	248	8	
2025-07-17T12:00	17800	83	-60.4	-85.1	257	8	
2025-07-17T12:00	17850	82	-60.1	-85.3	270	7	
2025-07-17T12:00	17900	82	-59.6	-85.2	282	7	
2025-07-17T12:00	17950	81	-59.4	-85.1	290	7	
2025-07-17T12:00	18000	80	-59.7	-85.2	297	7	
2025-07-17T12:00	18050	80	-59.4	-85.2	302	7	
2025-07-17T12:00	18100	79	-58.7	-84.9	302	7	
2025-07-17T12:00	18150	79	-58.8	-84.9	302	8	
2025-07-17T12:00	18200	78	-59.1	-84.9	306	8	
2025-07-17T12:00	18250	77	-59.3	-85.1	313	8	
2025-07-17T12:00	18300	77	-58.9	-85.1	322	8	
2025-07-17T12:00	18350	76	-58.6	-85.3	336	8	
2025-07-17T12:00	18400	75	-57.6	-85.1	352	8	
2025-07-17T12:00	18450	75	-56.4	-84.6	5	8	
2025-07-17T12:00	18500	74	-56.6	-84.5	14	8	
2025-07-17T12:00	18550	74	-56.7	-84.3	23	8	
2025-07-17T12:00	18600	73	-56.7	-84.1	35	7	
2025-07-17T12:00	18650	73	-56.8	-84.1	45	7	
2025-07-17T12:00	18700	72	-57.1	-84.2	53	6	
2025-07-17T12:00	18750	71	-57.6	-84.3	56	6	
2025-07-17T12:00	18800	71	-57.8	-84.5	57	5	
2025-07-17T12:00	18850	70	-57.8	-84.5	57	4	
2025-07-17T12:00	18900	70	-57.9	-84.5	55	3	
2025-07-17T12:00	18950	69	-58.2	-84.7	47	2	
2025-07-17T12:00	19000	69	-58.4	-84.8	22	2	
2025-07-17T12:00	19050	68	-58.5	-84.8	355	2	
2025-07-17T12:00	19100	68	-58.5	-85.0	353	2	
2025-07-17T12:00	19150	67	-58.1	-84.9	357	4	
2025-07-17T12:00	19200	66	-57.9	-84.9	3	4	
2025-07-17T12:00	19250	66	-57.6	-84.8	12	4	
2025-07-17T12:00	19300	65	-57.5	-84.7	25	3	
2025-07-17T12:00	19350	65	-57.6	-84.7	39	3	
2025-07-17T12:00	19400	64	-57.6	-84.7	55	3	
2025-07-17T12:00	19450	64	-57.5	-84.8	73	3	
2025-07-17T12:00	19500	63	-57.4	-84.8	83	4	
2025-07-17T12:00	19550	63	-57.3	-84.8	83	4	
2025-07-17T12:00	19600	62	-56.8	-84.6	74	3	
2025-07-17T12:00	19650	62	-56.7	-84.6	58	2	
2025-07-17T12:00	19700	61	-56.7	-84.5	46	1	
2025-07-17T12:00	19750	61	-56.8	-84.4	238	0	
2025-07-17T12:00	19800	60	-56.9	-84.4	247	1	
2025-07-17T12:00	19850	60	-57.2	-84.6	264	2	
2025-07-17T12:00	19900	60	-57.1	-84.6	274	4	
2025-07-17T12:00	19950	59	-57.1	-84.6	282	4	
2025-07-17T12:00	20000	59	-56.9	-84.6	293	4	
2025-07-17T12:00	20050	58	-56.9		309	4	
2025-07-17T12:00	20100	58	-56.9		331	3	
2025-07-17T12:00	20150	57	-56.8		1	3	
2025-07-17T12:00	20200	57	-56.5		21	4	
2025-07-17T12:00	20250	56	-56.3		29	4	
2025-07-17T12:00	20300	56	-56.2		29	4	
2025-07-17T12:00	20350	55	-56.2		27	4	
2025-07-17T12:00	20400	55	-56.3		32	4	
2025-07-17T12:00	20450	55	-56.2		48	3	
2025-07-17T12:00	20500	54	-56.0		76	2	
2025-07-17T12:00	20550	54	-56.0		90	1	
2025-07-17T12:00	20600	53	-55.3		68	2	
2025-07-17T12:00	20650	53	-55.0		52	3	
2025-07-17T12:00	20700	52	-55.2		47	4	
2025-07-17T12:00	20750	52	-55.2		45	4	
2025-07-17T12:00	20800	52	-55.2		41	4	
2025-07-17T12:00	20850	51	-55.2		29	3	
2025-07-17T12:00	20900	51	-55.4		14	3	
2025-07-17T12:00	20950	50	-55.4		19	3	
2025-07-17T12:00	21000	50	-55.3		39	4	
2025-07-17T12:00	21050	50	-55.5		57	4	
2025-07-17T12:00	21100	49	-55.6		70	5	
2025-07-17T12:00	21150	49	-55.7		82	5	
2025-07-17T12:00	21200	49	-55.7		94	5	
2025-07-17T12:00	21250	48	-55.5		105	5	
2025-07-17T12:00	21300	48	-55.6		107	5	
2025-07-17T12:00	21350	47	-55.6		104	5	
2025-07-17T12:00	21400	47	-55.2		97	4	
2025-07-17T12:00	21450	47	-55.0		82	3	
2025-07-17T12:00	21500	46	-54.8		60	3	
2025-07-17T12:00	21550	46	-54.6		51	4	
2025-07-17T12:00	21600	46	-54.6		51	5	
2025-07-17T12:00	21650	45	-54.4		51	6	
2025-07-17T12:00	21700	45	-54.2		52	6	
2025-07-17T12:00	21750	45	-54.2		56	6	
2025-07-17T12:00	21800	44	-54.4		62	7	
2025-07-17T12:00	21850	44	-54.1		68	8	
2025-07-17T12:00	21900	44	-53.9		75	8	
2025-07-17T12:00	21950	43	-53.7		82	8	
2025-07-17T12:00	22000	43	-53.6		93	8	
2025-07-17T12:00	22050	42	-53.7		105	7	
2025-07-17T12:00	22100	42	-53.9		117	7	
2025-07-17T12:00	22150	42	-54.0		119	7	
2025-07-17T12:00	22200	41	-53.9		111	6	
2025-07-17T12:00	22250	41	-53.8		101	5	
2025-07-17T12:00	22300	41	-53.8		97	5	
2025-07-17T12:00	22350	41	-53.9		97	5	
2025-07-17T12:00	22400	40	-54.1		93	5	
2025-07-17T12:00	22450	40	-54.2		84	5	
2025-07-17T12:00	22500	40	-54.2		77	6	
2025-07-17T12:00	22550	39	-54.3		75	7	
2025-07-17T12:00	22600	39	-54.3		77	8	
2025-07-17T12:00	22650	39	-54.1		80	10	
2025-07-17T12:00	22700	38	-53.8		83	12	
2025-07-17T12:00	22750	38	-53.6		86	14	
2025-07-17T12:00	22800	38	-53.8		89	15	
2025-07-17T12:00	22850	37	-53.6		92	16	
2025-07-17T12:00	22900	37	-53.6		96	16	
2025-07-17T12:00	22950	37	-53.8		100	16	
2025-07-17T12:00	23000	37	-54.1		104	15	
2025-07-17T12:00	23050	36	-54.2		108	15	
2025-07-17T12:00	23100	36	-54.4		111	15	
2025-07-17T12:00	23150	36	-54.7		113	14	
2025-07-17T12:00	23200	36	-54.8		114	12	
2025-07-17T12:00	23250	35	-54.6		116	11	
2025-07-17T12:00	23300	35	-54.5		119	10	
2025-07-17T12:00	23350	35	-54.4		121	9	
2025-07-17T12:00	23400	34	-54.1		120	9	
2025-07-17T12:00	23450	34	-53.5		115	9	
2025-07-17T12:00	23500	34	-53.4		108	8	
2025-07-17T12:00	23550	34	-53.5		105	9	
2025-07-17T12:00	23600	33	-53.4		108	10	
2025-07-17T12:00	23650	33	-53.1		114	12	
2025-07-17T12:00	23700	33	-52.9		122	13	
2025-07-17T12:00	23750	33	-52.9		128	13	
2025-07-17T12:00	23800	32	-52.8		132	12	
2025-07-17T12:00	23850	32	-52.6		135	11	
2025-07-17T12:00	23900	32	-52.4		136	9	
2025-07-17T12:00	23950	32	-52.3		133	7	
2025-07-17T12:00	24000	31	-52.3		126	6	
2025-07-17T12:00	24050	31	-52.2		110	5	
2025-07-17T12:00	24100	31	-52.1		90	5	
2025-07-17T12:00	24150	31	-52.1		77	6	
2025-07-17T12:00	24200	30	-52.0		73	8	
2025-07-17T12:00	24250	30	-51.8		76	9	
2025-07-17T12:00	24300	30	-51.6		82	9	
2025-07-17T12:00	24350	30	-51.5		92	9	
2025-07-17T12:00	24400	29	-51.5		104	9	
2025-07-17T12:00	24450	29	-51.5		113	9	
2025-07-17T12:00	24500	29	-51.4		117	8	
2025-07-17T12:00	24550	29	-51.3		116	7	
2025-07-17T12:00	24600	29	-51.1		110	6	
2025-07-17T12:00	24650	28	-51.0		103	6	
2025-07-17T12:00	24700	28	-50.7		96	7	
2025-07-17T12:00	24750	28	-50.4		96	7	
2025-07-17T12:00	24800	28	-50.3		102	7	
2025-07-17T12:00	24850	28	-50.0		110	7	
2025-07-17T12:00	24900	27	-49.8		113	7	
2025-07-17T12:00	24950	27	-49.5		117	7	
2025-07-17T12:00	25000	27	-48.7		123	7	
2025-07-17T12:00	25050	27	-48.6		131	7	
2025-07-17T12:00	25100	26	-48.8		136	7	
2025-07-17T12:00	25150	26	-48.9		133	7	
2025-07-17T12:00	25200	26	-48.8		123	7	
2025-07-17T12:00	25250	26	-48.9		110	7	
2025-07-17T12:00	25300	26	-49.1		98	8	
2025-07-17T12:00	25350	25	-49.4		91	9	
2025-07-17T12:00	25400	25	-49.3		88	9	
2025-07-17T12:00	25450	25	-49.2		89	10	
2025-07-17T12:00	25500	25	-49.1		91	11	
2025-07-17T12:00	25550	25	-49.0		94	11	
2025-07-17T12:00	25600	25	-49.0		96	11	
2025-07-17T12:00	25650	24	-49.0		95	11	
2025-07-17T12:00	25700	24	-48.9		94	12	
2025-07-17T12:00	25750	24	-48.9		94	13	
2025-07-17T12:00	25800	24	-48.9		95	13	
2025-07-17T12:00	25850	24	-48.8		98	12	
2025-07-17T12:00	25900	23	-48.9		103	11	
2025-07-17T12:00	25950	23	-49.1		106	10	
2025-07-17T12:00	26000	23	-49.3		107	10	
2025-07-17T12:00	26050	23	-49.5		106	9	
2025-07-17T12:00	26100	23	-49.6		103	9	
2025-07-17T12:00	26150	23	-49.5		100	9	
2025-07-17T12:00	26200	22	-49.4		98	10	
2025-07-17T12:00	26250	22	-49.4		97	11	
2025-07-17T12:00	26300	22	-49.5		97	11	
2025-07-17T12:00	26350	22	-49.4		98	11	
2025-07-17T12:00	26400	22	-49.1		98	10	
2025-07-17T12:00	26450	22	-48.8		93	8	
2025-07-17T12:00	26500	21	-48.2		85	8	
2025-07-17T12:00	26550	21	-47.6		80	9	
2025-07-17T12:00	26600	21	-47.3		81	10	
2025-07-17T12:00	26650	21	-47.4		85	12	
2025-07-17T12:00	26700	21	-47.4		92	13	
2025-07-17T12:00	26750	21	-47.3		97	13	
2025-07-17T12:00	26800	20	-47.0		100	12	
2025-07-17T12:00	26850	20	-46.7		100	10	
2025-07-17T12:00	26900	20	-46.5		97	9	
2025-07-17T12:00	26950	20	-46.3		93	9	
2025-07-17T12:00	27000	20	-46.1		93	10	
2025-07-17T12:00	27050	20	-46.0		96	12	
2025-07-17T12:00	27100	20	-46.1		102	14	
2025-07-17T12:00	27150	19	-46.3		107	15	
2025-07-17T12:00	27200	19	-46.0		111	15	
2025-07-17T12:00	27250	19	-45.7		116	15	
2025-07-17T12:00	27300	19	-45.6		119	14	
2025-07-17T12:00	27350	19	-45.6		121	13	
2025-07-17T12:00	27400	19	-45.4		120	12	
2025-07-17T12:00	27450	19	-45.2		120	12	
2025-07-17T12:00	27500	18	-45.2		121	11	
2025-07-17T12:00	27550	18	-45.2		122	11	
2025-07-17T12:00	27600	18	-45.2		120	10	
2025-07-17T12:00	27650	18	-45.2		114	9	
2025-07-17T12:00	27700	18	-45.2		104	8	
2025-07-17T12:00	27750	18	-45.2		94	8	
2025-07-17T12:00	27800	18	-45.1		88	9	
2025-07-17T12:00	27850	17	-45.2		86	10	
2025-07-17T12:00	27900	17	-45.2		88	11	
2025-07-17T12:00	27950	17	-45.3		92	12	
2025-07-17T12:00	28000	17	-45.4		98	12	
2025-07-17T12:00	28050	17	-45.5		102	12	
2025-07-17T12:00	28100	17	-45.5		105	12	
2025-07-17T12:00	28150	17	-45.5		105	11	
2025-07-17T12:00	28200	17	-45.4		105	10	
2025-07-17T12:00	28250	16	-45.3		107	10	
2025-07-17T12:00	28300	16	-45.3		111	10	
2025-07-17T12:00	28350	16	-45.0		116	10	
2025-07-17T12:00	28400	16	-44.8		119	11	
2025-07-17T12:00	28450	16	-44.8		119	11	
2025-07-17T12:00	28500	16	-44.5		116	11	
2025-07-17T12:00	28550	16	-44.1		112	10	
2025-07-17T12:00	28600	16	-43.9		105	9	
2025-07-17T12:00	28650	15	-43.7		99	9	
2025-07-17T12:00	28700	15	-43.6		96	9	
2025-07-17T12:00	28750	15	-43.3		98	10	
2025-07-17T12:00	28800	15	-42.8		104	12	
2025-07-17T12:00	28850	15	-42.6		108	13	
2025-07-17T12:00	28900	15	-42.3		109	13	
2025-07-17T12:00	28950	15	-41.8		106	13	
2025-07-17T12:00	29000	15	-41.4		103	12	
2025-07-17T12:00	29050	15	-41.3		102	12	
2025-07-17T12:00	29100	14	-41.2		104	12	
2025-07-17T12:00	29150	14	-41.3		104	13	
2025-07-17T12:00	29200	14	-41.4		104	14	
2025-07-17T12:00	29250	14	-41.3		103	14	
2025-07-17T12:00	29300	14	-41.3		104	15	
2025-07-17T12:00	29350	14	-41.1		104	14	
2025-07-17T12:00	29400	14	-41.0		105	14	
2025-07-17T12:00	29450	14	-41.0		108	13	
2025-07-17T12:00	29500	14	-41.0		110	13	
2025-07-17T12:00	29550	14	-40.7		111	12	
2025-07-17T12:00	29600	13	-40.5		111	12	
2025-07-17T12:00	29650	13	-40.2		108	13	
2025-07-17T12:00	29700	13	-40.0		105	13	
2025-07-17T12:00	29750	13	-40.1		103	14	
2025-07-17T12:00	29800	13	-40.1		102	16	
2025-07-17T12:00	29850	13	-40.1		102	17	
2025-07-17T12:00	29900	13	-40.0		102	18	
2025-07-17T12:00	29950	13	-40.0		104	18	
2025-07-17T12:00	30000	13	-39.8		108	19	
2025-07-17T12:00	30050	13	-39.8		113	18	
2025-07-17T12:00	30100	13	-40.0		118	18	
2025-07-17T12:00	30150	12	-40.1		122	18	
2025-07-17T12:00	30200	12	-40.0		126	18	
2025-07-17T12:00	30250	12	-40.1		129	18	
2025-07-17T12:00	30300	12	-40.3		133	17	
2025-07-17T12:00	30350	12	-40.3		136	17	
2025-07-17T12:00	30400	12	-40.2		137	16	
2025-07-17T12:00	30450	12	-40.1		136	14	
2025-07-17T12:00	30500	12	-39.8		132	13	
2025-07-17T12:00	30550	12	-39.6		125	13	
2025-07-17T12:00	30600	12	-39.7		118	12	
2025-07-17T12:00	30650	12	-39.8		112	11	
2025-07-17T12:00	30700	11	-39.7		110	11	
2025-07-17T12:00	30750	11	-39.6		112	11	
2025-07-17T12:00	30800	11	-39.5		116	11	
2025-07-17T12:00	30850	11	-39.4		120	11	
2025-07-17T12:00	30900	11	-39.3		124	12	
2025-07-17T12:00	30950	11	-39.3		127	12	
2025-07-17T12:00	31000	11	-39.2		128	12	
2025-07-17T12:00	31050	11	-39.1		126	12	
2025-07-17T12:00	31100	11	-38.8		122	11	
2025-07-17T12:00	31150	11	-38.5		116	11	
2025-07-17T12:00	31200	11	-38.3		108	11	
2025-07-17T12:00	31250	11	-38.5		102	11	
2025-07-17T12:00	31300	10	-38.6		96	12	
2025-07-17T12:00	31350	10	-38.6		91	12	
2025-07-17T12:00	31400	10	-38.6		89	13	
2025-07-17T12:00	31450	10	-38.3		91	14	
2025-07-17T12:00	31500	10	-37.9		95	14	
2025-07-17T12:00	31550	10	-37.7		100	15	
2025-07-17T12:00	31600	10	-37.6		104	16	
2025-07-17T12:00	31650	10	-37.6		108	16	
2025-07-17T12:00	31700	10	-37.8		110	16	
2025-07-17T12:00	31750	10	-37.7		109	16	
2025-07-17T12:00	31800	10	-37.3		106	15	
2025-07-17T12:00	31850	10	-36.9		104	14	
2025-07-17T12:00	31900	10	-36.5		103	14	
2025-07-17T12:00	31950	10	-36.1		106	14	
2025-07-17T12:00	32000	9	-36.0		108	14	
2025-07-17T12:00	32050	9	-35.7		108	14	
2025-07-17T12:00	32100	9	-35.4		107	13	
2025-07-17T12:00	32150	9	-35.1		105	13	
2025-07-17T12:00	32200	9	-34.9		105	14	
2025-07-17T12:00	32250	9	-34.6		104	14	
2025-07-17T12:00	32300	9	-34.1		101	13	
2025-07-17T12:00	32350	9	-33.6		95	13	
2025-07-17T12:00	32400	9	-33.3		86	12	
2025-07-17T12:00	32450	9	-33.1		77	13	
2025-07-17T12:00	32500	9	-32.6		71	14	
2025-07-17T12:00	32550	9	-32.0		68	16	
2025-07-17T12:00	32600	9	-31.5		68	17	
2025-07-17T12:00	32650	9	-31.4		71	17	
2025-07-17T12:00	32700	9	-31.4		76	18	
2025-07-17T12:00	32750	9	-31.5		81	18	
2025-07-17T12:00	32800	8	-31.5		87	18	
2025-07-17T12:00	32850	8	-31.6		92	18	
2025-07-17T12:00	32900	8	-31.8		97	18	
2025-07-17T12:00	32950	8	-32.0		102	18	
2025-07-17T12:00	33000	8	-32.0		105	18	
2025-07-17T12:00	33050	8	-31.7		104	18	
2025-07-17T12:00	33100	8	-31.5		102	17	
2025-07-17T12:00	33150	8	-31.3		103	17	
2025-07-17T12:00	33200	8	-31.1		107	17	
2025-07-17T12:00	33250	8	-30.9		111	17	
2025-07-17T12:00	33300	8	-31.0		116	16	
2025-07-17T12:00	33350	8	-31.3		119	16	
2025-07-17T12:00	33400	8	-31.3		119	15	
2025-07-17T12:00	33450	8	-31.4		118	14	
2025-07-17T12:00	33500	8	-31.5		116	13	
2025-07-17T12:00	33550	8	-31.6		113	12	
2025-07-17T12:00	33600	8	-31.6		111	12	
2025-07-17T12:00	33650	8	-31.6		111	13	
2025-07-17T12:00	33700	7	-31.6		113	14	
2025-07-17T12:00	33750	7	-31.5		115	15	
2025-07-17T12:00	33800	7	-31.7		116	15	
2025-07-17T12:00	33850	7	-31.9		117	16	
2025-07-17T12:00	33900	7	-32.1		117	16	
2025-07-17T12:00	33950	7	-32.2		114	17	
2025-07-17T12:00	34000	7	-32.2		112	18	
2025-07-17T12:00	34050	7	-32.2		111	19	
2025-07-17T12:00	34100	7	-32.0		112	20	
2025-07-17T12:00	34150	7	-31.7		113	21	
2025-07-17T12:00	34200	7	-31.6		115	20	
2025-07-17T12:00	34250	7	-31.5		117	20	
2025-07-17T12:00	34300	7	-31.3		120	18	
2025-07-17T12:00	34350	7	-31.1		122	17	
2025-07-17T12:00	34400	7	-30.9		123	16	
2025-07-17T12:00	34450	7	-31.0		126	16	
2025-07-17T12:00	34500	7	-31.2		129	15	
2025-07-17T12:00	34550	7	-31.6		133	15	
2025-07-17T12:00	34600	7	-31.8		136	15	
2025-07-17T12:00	34650	7	-31.9		139	14	
2025-07-17T12:00	34700	6	-31.9		142	13	
2025-07-17T12:00	34750	6	-31.9		144	12	
2025-07-17T12:00	34800	6	-31.8		141	10	
2025-07-17T12:00	34850	6	-31.7		134	10	
2025-07-17T12:00	34900	6	-31.4		124	10	
2025-07-17T12:00	34950	6	-31.1		119	11	
2025-07-17T12:00	35000	6	-30.7		116	12	
2025-07-17T12:00	35050	6	-30.3		113	12	
2025-07-17T12:00	35100	6	-29.9		110	13	
2025-07-17T12:00	35150	6	-29.5		105	13	
2025-07-17T12:00	35200	6	-29.2		102	13	
2025-07-17T12:00	35250	6	-29.0		100	14	
2025-07-17T12:00	35300	6	-28.8		99	16	
2025-07-17T12:00	35350	6	-28.5		98	17	
2025-07-17T12:00	35400	6	-28.2		98	18	
2025-07-17T12:00	35450	6	-27.9		99	17	
2025-07-17T12:00	35500	6	-27.9		102	17	
2025-07-17T12:00	35550	6	-28.0		107	17	
2025-07-17T12:00	35600	6	-28.1		110	17	
2025-07-17T12:00	35650	6	-28.0		114	18	
2025-07-17T12:00	35700	6	-27.8		117	19	
2025-07-17T12:00	35750	6	-28.0		121	19	
2025-07-17T12:00	35800	6	-28.3		125	20	
2025-07-17T12:00	35850	6	-28.6		127	20	
2025-07-17T12:00	35900	5	-28.5		129	20	
2025-07-18T00:00	491	961	15.2	12.7	191	0	
2025-07-18T00:00	501	959	17.1	11.8	208	1	
2025-07-18T00:00	520	957	18.1	11.9	213	1	
2025-07-18T00:00	540	955	18.6	11.6	214	1	
2025-07-18T00:00	560	953	18.6	11.5	212	1	
2025-07-18T00:00	580	951	18.7	11.4	167	0	
2025-07-18T00:00	600	948	18.8	11.5	71	0	
2025-07-18T00:00	620	946	18.8	11.2	63	1	
2025-07-18T00:00	640	944	18.8	11.0	61	1	
2025-07-18T00:00	660	942	18.7	10.8	60	2	
2025-07-18T00:00	680	940	18.7	10.7	59	2	
2025-07-18T00:00	700	938	18.6	10.4	59	2	
2025-07-18T00:00	720	935	18.6	10.3	60	2	
2025-07-18T00:00	740	933	18.4	10.3	63	2	
2025-07-18T00:00	760	931	18.4	10.3	72	2	
2025-07-18T00:00	780	929	18.3	10.3	77	3	
2025-07-18T00:00	800	927	18.4	10.2	79	3	
2025-07-18T00:00	820	925	18.5	10.1	79	4	
2025-07-18T00:00	840	922	18.4	9.9	78	5	
2025-07-18T00:00	860	920	18.3	9.7	76	5	
2025-07-18T00:00	880	918	18.1	9.5	74	6	
2025-07-18T00:00	900	916	18.0	9.4	72	6	
2025-07-18T00:00	920	914	18.0	9.0	70	6	
2025-07-18T00:00	940	912	17.8	9.0	69	6	
2025-07-18T00:00	960	910	17.7	9.2	68	6	
2025-07-18T00:00	980	907	17.5	9.1	68	6	
2025-07-18T00:00	1000	905	17.3	9.1	68	6	
2025-07-18T00:00	1020	903	17.2	9.1	68	6	
2025-07-18T00:00	1040	901	17.0	9.0	68	5	
2025-07-18T00:00	1060	899	16.8	8.9	68	5	
2025-07-18T00:00	1080	897	16.6	8.9	68	4	
2025-07-18T00:00	1100	895	16.4	8.9	69	4	
2025-07-18T00:00	1120	893	16.2	8.8	69	4	
2025-07-18T00:00	1140	890	16.0	8.9	69	4	
2025-07-18T00:00	1160	888	15.8	8.9	69	4	
2025-07-18T00:00	1180	886	15.8	9.0	68	4	
2025-07-18T00:00	1200	884	15.7	9.1	65	4	
2025-07-18T00:00	1220	882	15.6	9.1	61	4	
2025-07-18T00:00	1240	880	15.4	9.2	56	3	
2025-07-18T00:00	1260	878	15.2	9.2	51	3	
2025-07-18T00:00	1280	876	15.0	9.0	44	3	
2025-07-18T00:00	1300	874	14.9	9.0	36	2	
2025-07-18T00:00	1320	872	14.7	9.0	21	1	
2025-07-18T00:00	1340	870	14.5	8.7	4	1	
2025-07-18T00:00	1360	868	14.3	8.8	12	1	
2025-07-18T00:00	1380	866	14.1	8.9	30	1	
2025-07-18T00:00	1400	864	14.0	8.9	41	1	
2025-07-18T00:00	1420	861	13.8	9.1	46	2	
2025-07-18T00:00	1440	859	13.7	9.1	48	2	
2025-07-18T00:00	1460	858	13.5	9.0	49	2	
2025-07-18T00:00	1480	855	13.3	9.0	51	2	
2025-07-18T00:00	1500	853	13.1	8.9	54	2	
2025-07-18T00:00	1520	852	12.9	8.9	58	2	
2025-07-18T00:00	1540	850	12.8	8.9	65	1	
2025-07-18T00:00	1560	847	12.6	8.9	70	1	
2025-07-18T00:00	1580	845	12.5	8.8	66	1	
2025-07-18T00:00	1600	843	12.4	8.7	45	1	
2025-07-18T00:00	1620	841	12.5	8.3	7	1	
2025-07-18T00:00	1640	839	12.4	8.1	333	1	
2025-07-18T00:00	1660	837	12.4	8.0	310	2	
2025-07-18T00:00	1680	835	12.3	8.0	294	2	
2025-07-18T00:00	1700	833	12.2	8.0	286	3	
2025-07-18T00:00	1720	832	12.1	8.0	280	3	
2025-07-18T00:00	1740	830	11.9	8.0	276	3	
2025-07-18T00:00	1760	828	11.7	8.1	275	3	
2025-07-18T00:00	1780	825	11.5	7.8	274	3	
2025-07-18T00:00	1800	823	11.5	7.2	276	3	
2025-07-18T00:00	1820	822	11.5	6.5	277	3	
2025-07-18T00:00	1840	819	11.3	6.0	280	4	
2025-07-18T00:00	1860	817	11.2	5.2	282	4	
2025-07-18T00:00	1880	816	11.1	4.8	284	5	
2025-07-18T00:00	1900	814	11.0	3.7	288	5	
2025-07-18T00:00	1920	812	11.1	0.0	292	6	
2025-07-18T00:00	1940	810	11.2	-2.4	294	6	
2025-07-18T00:00	1960	808	11.3	-7.5	296	6	
2025-07-18T00:00	1980	806	11.3	-8.6	296	6	
2025-07-18T00:00	2000	804	11.4	-9.9	294	6	
2025-07-18T00:00	2020	802	11.5	-10.8	292	6	
2025-07-18T00:00	2040	800	11.4	-11.1	288	6	
2025-07-18T00:00	2060	798	11.2	-11.4	284	6	
2025-07-18T00:00	2080	796	11.2	-11.7	282	6	
2025-07-18T00:00	2100	794	11.1	-11.9	280	6	
2025-07-18T00:00	2120	793	11.1	-12.0	278	6	
2025-07-18T00:00	2140	791	10.9	-12.1	277	6	
2025-07-18T00:00	2160	789	10.8	-12.2	276	6	
2025-07-18T00:00	2180	787	10.7	-12.4	276	6	
2025-07-18T00:00	2200	785	10.6	-12.8	276	5	
2025-07-18T00:00	2220	783	10.6	-13.0	278	5	
2025-07-18T00:00	2240	781	10.5	-13.0	280	5	
2025-07-18T00:00	2260	779	10.3	-13.0	283	4	
2025-07-18T00:00	2280	777	10.2	-13.2	288	4	
2025-07-18T00:00	2300	776	10.2	-11.8	294	4	
2025-07-18T00:00	2320	774	10.0	-10.6	299	4	
2025-07-18T00:00	2340	772	9.8	-9.6	301	4	
2025-07-18T00:00	2360	770	9.7	-8.4	301	4	
2025-07-18T00:00	2380	768	9.5	-7.6	299	3	
2025-07-18T00:00	2400	766	9.3	-7.2	296	3	
2025-07-18T00:00	2420	764	9.1	-6.6	292	3	
2025-07-18T00:00	2440	762	9.0	-5.8	289	3	
2025-07-18T00:00	2460	761	8.8	-4.3	285	3	
2025-07-18T00:00	2480	759	8.6	-2.2	283	4	
2025-07-18T00:00	2500	757	8.4	-1.8	280	4	
2025-07-18T00:00	2520	755	8.3	-1.1	278	4	
2025-07-18T00:00	2540	754	8.1	-0.3	277	5	
2025-07-18T00:00	2560	751	7.8	0.8	276	5	
2025-07-18T00:00	2580	750	7.7	1.4	276	5	
2025-07-18T00:00	2600	748	7.5	1.0	276	5	
2025-07-18T00:00	2620	746	7.4	1.5	277	5	
2025-07-18T00:00	2640	744	7.3	2.0	279	5	
2025-07-18T00:00	2660	742	7.1	1.9	282	5	
2025-07-18T00:00	2680	741	6.9	1.9	284	5	
2025-07-18T00:00	2700	739	6.8	1.9	286	5	
2025-07-18T00:00	2720	737	6.6	1.7	286	6	
2025-07-18T00:00	2740	735	6.5	1.6	285	6	
2025-07-18T00:00	2760	733	6.4	1.5	283	6	
2025-07-18T00:00	2780	732	6.3	1.7	281	6	
2025-07-18T00:00	2800	730	6.1	1.6	278	6	
2025-07-18T00:00	2820	728	6.0	1.6	276	6	
2025-07-18T00:00	2840	726	5.9	1.7	275	7	
2025-07-18T00:00	2860	725	5.8	1.9	274	7	
2025-07-18T00:00	2880	723	5.7	2.0	274	7	
2025-07-18T00:00	2900	721	5.5	2.3	275	7	
2025-07-18T00:00	2920	719	5.3	2.4	277	7	
2025-07-18T00:00	2940	717	5.1	2.4	280	7	
2025-07-18T00:00	2960	716	5.0	2.3	283	6	
2025-07-18T00:00	2980	714	4.8	1.6	285	6	
2025-07-18T00:00	3000	712	4.8	0.4	285	6	
2025-07-18T00:00	3020	711	4.7	-1.9	285	7	
2025-07-18T00:00	3040	709	4.7	-2.0	285	7	
2025-07-18T00:00	3060	707	4.5	-1.0	285	7	
2025-07-18T00:00	3080	705	4.4	0.3	285	7	
2025-07-18T00:00	3100	704	4.3	0.2	286	7	
2025-07-18T00:00	3120	702	4.1	-0.4	286	7	
2025-07-18T00:00	3140	700	4.0	-0.8	287	7	
2025-07-18T00:00	3160	699	3.9	-1.1	288	6	
2025-07-18T00:00	3180	697	3.8	-1.3	289	6	
2025-07-18T00:00	3200	695	3.7	-1.9	292	6	
2025-07-18T00:00	3220	693	3.7	-3.3	296	6	
2025-07-18T00:00	3240	692	3.7	-4.0	300	6	
2025-07-18T00:00	3260	690	3.6	-4.7	303	5	
2025-07-18T00:00	3280	688	3.6	-6.6	304	6	
2025-07-18T00:00	3300	687	3.7	-9.9	304	6	
2025-07-18T00:00	3320	685	3.7	-11.0	302	6	
2025-07-18T00:00	3340	683	3.6	-13.5	300	6	
2025-07-18T00:00	3360	682	3.6	-16.7	296	6	
2025-07-18T00:00	3380	680	3.6	-17.3	293	6	
2025-07-18T00:00	3400	678	3.4	-16.9	290	6	
2025-07-18T00:00	3420	677	3.4	-16.8	289	6	
2025-07-18T00:00	3440	675	3.3	-18.4	289	7	
2025-07-18T00:00	3460	673	3.2	-17.8	290	7	
2025-07-18T00:00	3480	672	3.1	-17.4	292	8	
2025-07-18T00:00	3500	670	3.0	-20.0	295	8	
2025-07-18T00:00	3520	668	3.0	-23.8	298	8	
2025-07-18T00:00	3540	666	3.0	-27.8	301	8	
2025-07-18T00:00	3560	665	3.1	-32.0	306	8	
2025-07-18T00:00	3580	663	3.1	-31.7	312	8	
2025-07-18T00:00	3600	662	3.0	-24.6	316	8	
2025-07-18T00:00	3620	660	2.8	-18.0	319	8	
2025-07-18T00:00	3640	658	2.6	-13.0	322	8	
2025-07-18T00:00	3660	657	2.3	-9.9	324	8	
2025-07-18T00:00	3680	655	2.1	-9.7	326	8	
2025-07-18T00:00	3700	654	2.0	-9.1	326	7	
2025-07-18T00:00	3720	652	1.8	-9.0	326	7	
2025-07-18T00:00	3740	650	1.7	-10.1	325	8	
2025-07-18T00:00	3760	649	1.6	-11.1	324	8	
2025-07-18T00:00	3780	647	1.5	-11.7	325	8	
2025-07-18T00:00	3800	645	1.4	-11.8	325	8	
2025-07-18T00:00	3820	644	1.3	-13.5	325	9	
2025-07-18T00:00	3840	642	1.3	-15.7	325	9	
2025-07-18T00:00	3860	641	1.2	-14.9	324	8	
2025-07-18T00:00	3880	639	1.2	-15.1	323	8	
2025-07-18T00:00	3900	637	1.0	-15.1	321	8	
2025-07-18T00:00	3920	636	0.9	-16.1	320	8	
2025-07-18T00:00	3940	634	0.9	-16.8	321	8	
2025-07-18T00:00	3960	633	0.8	-16.0	322	8	
2025-07-18T00:00	3980	631	0.7	-15.5	324	8	
2025-07-18T00:00	4000	630	0.6	-15.8	325	8	
2025-07-18T00:00	4020	628	0.4	-16.1	325	8	
2025-07-18T00:00	4040	626	0.3	-13.0	325	9	
2025-07-18T00:00	4060	625	0.2	-12.6	324	9	
2025-07-18T00:00	4080	623	0.1	-13.7	323	8	
2025-07-18T00:00	4100	622	0.0	-13.9	323	8	
2025-07-18T00:00	4120	620	-0.1	-12.5	324	8	
2025-07-18T00:00	4140	619	-0.2	-12.3	325	8	
2025-07-18T00:00	4160	617	-0.3	-13.2	326	8	
2025-07-18T00:00	4180	616	-0.4	-13.3	326	9	
2025-07-18T00:00	4200	614	-0.5	-12.8	326	9	
2025-07-18T00:00	4220	613	-0.7	-12.7	325	10	
2025-07-18T00:00	4240	611	-0.9	-12.1	324	10	
2025-07-18T00:00	4260	609	-1.0	-12.1	324	10	
2025-07-18T00:00	4280	608	-1.2	-11.6	324	11	
2025-07-18T00:00	4300	606	-1.4	-10.4	325	11	
2025-07-18T00:00	4320	605	-1.4	-10.1	327	10	
2025-07-18T00:00	4340	603	-1.5	-10.6	329	10	
2025-07-18T00:00	4360	602	-1.6	-10.8	331	10	
2025-07-18T00:00	4380	600	-1.7	-10.0	332	10	
2025-07-18T00:00	4400	599	-1.8	-10.2	332	10	
2025-07-18T00:00	4420	597	-1.9	-10.7	331	10	
2025-07-18T00:00	4440	596	-2.0	-10.8	330	10	
2025-07-18T00:00	4460	594	-2.2	-10.9	329	10	
2025-07-18T00:00	4480	593	-2.4	-10.7	328	10	
2025-07-18T00:00	4500	591	-2.5	-10.3	328	11	
2025-07-18T00:00	4520	590	-2.7	-9.9	328	11	
2025-07-18T00:00	4540	588	-2.8	-9.8	328	11	
2025-07-18T00:00	4560	587	-2.9	-10.1	329	11	
2025-07-18T00:00	4580	585	-3.0	-10.2	329	11	
2025-07-18T00:00	4600	584	-3.1	-9.7	328	11	
2025-07-18T00:00	4620	582	-3.2	-9.8	328	11	
2025-07-18T00:00	4640	581	-3.3	-9.6	328	11	
2025-07-18T00:00	4660	579	-3.5	-9.1	328	11	
2025-07-18T00:00	4680	578	-3.6	-9.1	328	11	
2025-07-18T00:00	4700	577	-3.8	-9.4	329	11	
2025-07-18T00:00	4720	575	-3.9	-9.5	330	11	
2025-07-18T00:00	4740	574	-4.0	-9.6	330	11	
2025-07-18T00:00	4760	572	-4.1	-9.8	331	11	
2025-07-18T00:00	4780	571	-4.3	-10.2	331	11	
2025-07-18T00:00	4800	569	-4.4	-10.3	331	11	
2025-07-18T00:00	4820	568	-4.6	-10.3	330	11	
2025-07-18T00:00	4840	566	-4.7	-10.2	330	10	
2025-07-18T00:00	4860	565	-4.8	-10.4	329	10	
2025-07-18T00:00	4880	563	-4.8	-11.7	329	10	
2025-07-18T00:00	4900	562	-4.8	-12.5	327	10	
2025-07-18T00:00	4920	561	-4.8	-14.2	325	10	
2025-07-18T00:00	4940	559	-4.7	-17.4	324	10	
2025-07-18T00:00	4960	558	-4.7	-17.9	323	11	
2025-07-18T00:00	4980	556	-4.8	-19.1	323	11	
2025-07-18T00:00	5000	555	-4.9	-16.5	323	11	
2025-07-18T00:00	5020	554	-5.2	-12.7	323	11	
2025-07-18T00:00	5040	552	-5.4	-12.4	323	11	
2025-07-18T00:00	5060	551	-5.6	-12.5	323	12	
2025-07-18T00:00	5080	549	-5.7	-12.7	322	12	
2025-07-18T00:00	5100	548	-5.8	-12.9	321	12	
2025-07-18T00:00	5120	547	-5.8	-15.7	321	12	
2025-07-18T00:00	5140	545	-5.8	-16.2	321	13	
2025-07-18T00:00	5160	544	-5.9	-15.6	321	13	
2025-07-18T00:00	5180	542	-5.9	-15.7	321	13	
2025-07-18T00:00	5200	541	-5.9	-16.8	321	13	
2025-07-18T00:00	5220	540	-6.0	-17.5	321	13	
2025-07-18T00:00	5240	538	-6.1	-18.0	321	13	
2025-07-18T00:00	5260	537	-6.1	-18.4	320	13	
2025-07-18T00:00	5280	536	-6.2	-18.7	318	13	
2025-07-18T00:00	5300	534	-6.3	-19.5	318	13	
2025-07-18T00:00	5320	533	-6.3	-20.2	317	13	
2025-07-18T00:00	5340	531	-6.4	-20.7	317	12	
2025-07-18T00:00	5360	530	-6.6	-20.7	317	12	
2025-07-18T00:00	5380	529	-6.7	-20.8	317	12	
2025-07-18T00:00	5400	527	-6.8	-21.3	317	12	
2025-07-18T00:00	5420	526	-6.9	-22.0	317	11	
2025-07-18T00:00	5440	525	-7.0	-22.5	316	11	
2025-07-18T00:00	5460	523	-7.2	-22.6	315	11	
2025-07-18T00:00	5480	522	-7.2	-22.9	315	11	
2025-07-18T00:00	5500	521	-7.3	-23.1	314	11	
2025-07-18T00:00	5520	519	-7.4	-23.1	314	11	
2025-07-18T00:00	5540	518	-7.5	-23.3	316	11	
2025-07-18T00:00	5560	517	-7.6	-23.8	318	11	
2025-07-18T00:00	5580	515	-7.7	-24.1	320	12	
2025-07-18T00:00	5600	514	-7.8	-23.8	322	12	
2025-07-18T00:00	5620	513	-7.9	-23.5	323	12	
2025-07-18T00:00	5640	511	-8.0	-23.8	324	12	
2025-07-18T00:00	5660	510	-8.1	-24.0	324	12	
2025-07-18T00:00	5680	509	-8.2	-24.4	323	13	
2025-07-18T00:00	5700	507	-8.4	-24.7	322	13	
2025-07-18T00:00	5720	506	-8.5	-23.4	319	13	
2025-07-18T00:00	5740	505	-8.6	-19.4	317	13	
2025-07-18T00:00	5760	503	-8.8	-18.9	316	13	
2025-07-18T00:00	5780	502	-8.9	-18.3	315	13	
2025-07-18T00:00	5800	501	-9.1	-18.1	315	12	
2025-07-18T00:00	5820	500	-9.2	-18.4	314	12	
2025-07-18T00:00	5840	498	-9.2	-19.6	314	12	
2025-07-18T00:00	5860	497	-9.2	-20.1	314	12	
2025-07-18T00:00	5880	496	-9.4	-20.1	314	12	
2025-07-18T00:00	5900	494	-9.5	-20.1	314	12	
2025-07-18T00:00	5920	493	-9.6	-20.0	314	12	
2025-07-18T00:00	5940	492	-9.7	-20.0	314	12	
2025-07-18T00:00	5960	491	-9.9	-20.0	315	12	
2025-07-18T00:00	5980	489	-10.0	-20.0	316	12	
2025-07-18T00:00	6000	488	-10.2	-20.0	318	12	
2025-07-18T00:00	6020	487	-10.3	-20.0	319	12	
2025-07-18T00:00	6040	485	-10.4	-20.0	321	12	
2025-07-18T00:00	6060	484	-10.6	-20.0	322	12	
2025-07-18T00:00	6080	483	-10.8	-20.0	322	13	
2025-07-18T00:00	6100	482	-10.9	-20.1	322	13	
2025-07-18T00:00	6120	481	-11.0	-20.2	321	13	
2025-07-18T00:00	6140	479	-11.1	-20.4	320	14	
2025-07-18T00:00	6160	478	-11.3	-20.4	319	14	
2025-07-18T00:00	6180	477	-11.5	-20.6	318	14	
2025-07-18T00:00	6200	475	-11.6	-20.9	317	14	
2025-07-18T00:00	6220	474	-11.7	-21.8	316	14	
2025-07-18T00:00	6240	473	-11.8	-22.1	316	14	
2025-07-18T00:00	6260	472	-12.0	-22.4	316	14	
2025-07-18T00:00	6280	471	-12.2	-23.0	316	14	
2025-07-18T00:00	6300	469	-12.3	-23.1	315	14	
2025-07-18T00:00	6320	468	-12.4	-23.4	315	14	
2025-07-18T00:00	6340	467	-12.5	-26.6	313	14	
2025-07-18T00:00	6360	466	-12.5	-29.7	312	14	
2025-07-18T00:00	6380	464	-12.6	-25.9	311	14	
2025-07-18T00:00	6400	463	-12.8	-25.1	311	14	
2025-07-18T00:00	6420	462	-13.0	-24.5	311	14	
2025-07-18T00:00	6440	461	-13.1	-23.1	311	14	
2025-07-18T00:00	6460	460	-13.3	-22.9	311	14	
2025-07-18T00:00	6480	458	-13.5	-22.4	311	14	
2025-07-18T00:00	6500	457	-13.7	-21.5	311	14	
2025-07-18T00:00	6520	456	-13.7	-22.6	311	14	
2025-07-18T00:00	6540	455	-13.8	-24.1	311	14	
2025-07-18T00:00	6560	454	-13.9	-24.6	311	14	
2025-07-18T00:00	6580	452	-14.0	-25.0	311	14	
2025-07-18T00:00	6600	451	-14.2	-25.2	311	14	
2025-07-18T00:00	6620	450	-14.3	-25.5	312	14	
2025-07-18T00:00	6640	449	-14.5	-25.4	314	14	
2025-07-18T00:00	6660	448	-14.6	-25.3	315	14	
2025-07-18T00:00	6680	446	-14.8	-25.2	316	14	
2025-07-18T00:00	6700	445	-15.0	-25.3	316	14	
2025-07-18T00:00	6720	444	-15.1	-25.4	317	14	
2025-07-18T00:00	6740	443	-15.3	-25.3	317	14	
2025-07-18T00:00	6760	442	-15.5	-25.3	317	13	
2025-07-18T00:00	6780	441	-15.7	-25.2	317	13	
2025-07-18T00:00	6800	439	-15.9	-25.2	316	13	
2025-07-18T00:00	6820	438	-16.0	-25.2	316	13	
2025-07-18T00:00	6840	437	-16.2	-26.0	316	13	
2025-07-18T00:00	6860	436	-16.3	-26.6	316	12	
2025-07-18T00:00	6880	435	-16.5	-26.0	315	13	
2025-07-18T00:00	6900	434	-16.6	-25.5	315	13	
2025-07-18T00:00	6920	433	-16.8	-25.6	314	13	
2025-07-18T00:00	6940	431	-16.9	-25.8	314	13	
2025-07-18T00:00	6960	430	-17.1	-25.9	313	13	
2025-07-18T00:00	6980	429	-17.3	-26.1	312	14	
2025-07-18T00:00	7000	428	-17.4	-26.3	311	14	
2025-07-18T00:00	7020	427	-17.5	-26.3	311	14	
2025-07-18T00:00	7040	426	-17.7	-26.5	310	14	
2025-07-18T00:00	7060	425	-17.9	-26.5	310	14	
2025-07-18T00:00	7080	423	-18.0	-26.5	311	14	
2025-07-18T00:00	7100	422	-18.2	-26.6	311	15	
2025-07-18T00:00	7120	421	-18.3	-26.9	311	15	
2025-07-18T00:00	7140	420	-18.5	-27.0	311	15	
2025-07-18T00:00	7160	419	-18.7	-27.0	311	15	
2025-07-18T00:00	7180	418	-18.8	-27.2	310	15	
2025-07-18T00:00	7200	417	-19.0	-27.6	309	15	
2025-07-18T00:00	7220	416	-19.1	-27.9	308	15	
2025-07-18T00:00	7240	414	-19.3	-27.6	307	16	
2025-07-18T00:00	7260	413	-19.4	-27.6	307	16	
2025-07-18T00:00	7280	412	-19.5	-27.5	307	16	
2025-07-18T00:00	7300	411	-19.6	-28.2	308	16	
2025-07-18T00:00	7320	410	-19.7	-29.2	309	16	
2025-07-18T00:00	7340	409	-19.7	-30.7	311	17	
2025-07-18T00:00	7360	408	-19.8	-31.1	313	17	
2025-07-18T00:00	7380	406	-20.0	-30.4	314	17	
2025-07-18T00:00	7400	405	-20.1	-29.3	315	17	
2025-07-18T00:00	7420	404	-20.3	-29.4	316	17	
2025-07-18T00:00	7440	403	-20.5	-29.6	316	17	
2025-07-18T00:00	7460	402	-20.7	-29.8	316	17	
2025-07-18T00:00	7480	401	-20.9	-30.1	316	17	
2025-07-18T00:00	7500	400	-21.1	-30.1	315	17	
2025-07-18T00:00	7520	399	-21.2	-30.1	314	17	
2025-07-18T00:00	7540	398	-21.3	-32.7	313	17	
2025-07-18T00:00	7560	397	-21.4	-34.6	313	17	
2025-07-18T00:00	7580	396	-21.4	-35.4	312	17	
2025-07-18T00:00	7600	395	-21.6	-35.0	312	17	
2025-07-18T00:00	7620	394	-21.8	-34.8	311	17	
2025-07-18T00:00	7640	393	-21.9	-35.0	310	17	
2025-07-18T00:00	7660	392	-22.1	-35.3	310	17	
2025-07-18T00:00	7680	390	-22.2	-35.4	310	17	
2025-07-18T00:00	7700	389	-22.4	-35.4	310	17	
2025-07-18T00:00	7720	388	-22.6	-35.4	310	17	
2025-07-18T00:00	7740	387	-22.8	-35.2	310	17	
2025-07-18T00:00	7760	386	-23.0	-34.7	310	17	
2025-07-18T00:00	7780	385	-23.2	-34.4	310	17	
2025-07-18T00:00	7800	384	-23.4	-34.1	310	17	
2025-07-18T00:00	7820	383	-23.5	-34.2	310	18	
2025-07-18T00:00	7840	382	-23.7	-34.7	310	18	
2025-07-18T00:00	7860	381	-23.8	-35.2	310	18	
2025-07-18T00:00	7880	380	-24.0	-35.8	310	18	
2025-07-18T00:00	7900	379	-24.2	-36.1	310	18	
2025-07-18T00:00	7920	378	-24.3	-37.0	310	18	
2025-07-18T00:00	7940	377	-24.4	-37.3	311	19	
2025-07-18T00:00	7960	376	-24.6	-37.3	311	19	
2025-07-18T00:00	7980	375	-24.8	-37.4	311	19	
2025-07-18T00:00	8000	374	-24.9	-38.3	311	19	
2025-07-18T00:00	8020	373	-25.1	-38.7	310	19	
2025-07-18T00:00	8040	372	-25.2	-39.4	310	19	
2025-07-18T00:00	8060	371	-25.4	-39.6	309	19	
2025-07-18T00:00	8080	370	-25.5	-39.6	308	19	
2025-07-18T00:00	8100	369	-25.7	-39.9	307	19	
2025-07-18T00:00	8120	368	-25.8	-40.1	306	19	
2025-07-18T00:00	8140	367	-26.0	-40.1	304	19	
2025-07-18T00:00	8160	365	-26.2	-40.5	303	19	
2025-07-18T00:00	8180	364	-26.3	-41.2	303	19	
2025-07-18T00:00	8200	363	-26.5	-41.3	302	20	
2025-07-18T00:00	8220	362	-26.6	-41.6	302	20	
2025-07-18T00:00	8240	361	-26.8	-42.1	302	20	
2025-07-18T00:00	8260	360	-26.8	-43.1	302	20	
2025-07-18T00:00	8280	359	-27.0	-43.4	302	20	
2025-07-18T00:00	8300	359	-27.1	-43.5	302	20	
2025-07-18T00:00	8320	358	-27.3	-43.5	303	20	
2025-07-18T00:00	8340	357	-27.5	-43.6	303	20	
2025-07-18T00:00	8360	356	-27.7	-43.8	303	19	
2025-07-18T00:00	8380	355	-27.8	-44.4	303	19	
2025-07-18T00:00	8400	354	-27.8	-45.2	303	19	
2025-07-18T00:00	8420	353	-28.0	-45.4	303	19	
2025-07-18T00:00	8440	352	-28.2	-45.3	303	19	
2025-07-18T00:00	8460	351	-28.3	-45.2	303	19	
2025-07-18T00:00	8480	350	-28.5	-45.3	303	19	
2025-07-18T00:00	8500	349	-28.7	-45.3	304	19	
2025-07-18T00:00	8520	348	-28.9	-45.5	304	18	
2025-07-18T00:00	8540	347	-29.1	-45.6	304	18	
2025-07-18T00:00	8560	346	-29.3	-45.6	304	18	
2025-07-18T00:00	8580	345	-29.4	-46.1	304	18	
2025-07-18T00:00	8600	344	-29.4	-46.8	304	18	
2025-07-18T00:00	8620	343	-29.5	-47.2	305	18	
2025-07-18T00:00	8640	342	-29.5	-47.3	305	19	
2025-07-18T00:00	8660	341	-29.7	-47.1	306	19	
2025-07-18T00:00	8680	340	-29.9	-47.1	307	19	
2025-07-18T00:00	8700	339	-30.1	-47.3	307	19	
2025-07-18T00:00	8720	338	-30.3	-47.3	307	19	
2025-07-18T00:00	8740	337	-30.5	-47.3	307	19	
2025-07-18T00:00	8760	336	-30.6	-47.4	307	19	
2025-07-18T00:00	8780	335	-30.8	-47.4	306	19	
2025-07-18T00:00	8800	334	-31.0	-47.5	305	20	
2025-07-18T00:00	8820	333	-31.2	-47.5	304	20	
2025-07-18T00:00	8840	332	-31.4	-47.6	303	20	
2025-07-18T00:00	8860	331	-31.6	-47.7	302	20	
2025-07-18T00:00	8880	331	-31.7	-47.7	301	19	
2025-07-18T00:00	8900	330	-31.8	-48.4	300	19	
2025-07-18T00:00	8920	329	-31.9	-48.7	300	19	
2025-07-18T00:00	8940	328	-32.0	-48.7	299	19	
2025-07-18T00:00	8960	327	-32.1	-48.7	298	19	
2025-07-18T00:00	8980	326	-32.3	-48.8	298	19	
2025-07-18T00:00	9000	325	-32.5	-48.9	297	19	
2025-07-18T00:00	9020	324	-32.6	-49.0	297	20	
2025-07-18T00:00	9040	323	-32.8	-49.0	297	20	
2025-07-18T00:00	9060	322	-33.0	-48.9	296	20	
2025-07-18T00:00	9080	321	-33.2	-48.9	296	20	
2025-07-18T00:00	9100	320	-33.3	-48.8	296	20	
2025-07-18T00:00	9120	319	-33.5	-48.8	296	20	
2025-07-18T00:00	9140	318	-33.7	-48.7	297	20	
2025-07-18T00:00	9160	318	-33.9	-48.6	297	20	
2025-07-18T00:00	9180	317	-34.1	-48.6	297	20	
2025-07-18T00:00	9200	316	-34.3	-48.6	298	20	
2025-07-18T00:00	9220	315	-34.5	-48.7	298	19	
2025-07-18T00:00	9240	314	-34.7	-48.6	299	19	
2025-07-18T00:00	9260	313	-34.9	-48.6	299	19	
2025-07-18T00:00	9280	312	-35.1	-48.6	298	19	
2025-07-18T00:00	9300	311	-35.3	-48.6	298	19	
2025-07-18T00:00	9320	311	-35.4	-48.8	298	19	
2025-07-18T00:00	9340	310	-35.6	-48.7	297	19	
2025-07-18T00:00	9360	309	-35.8	-48.7	297	19	
2025-07-18T00:00	9380	308	-36.0	-48.7	297	19	
2025-07-18T00:00	9400	307	-36.2	-48.7	297	19	
2025-07-18T00:00	9420	306	-36.4	-48.7	297	19	
2025-07-18T00:00	9440	305	-36.6	-48.7	296	20	
2025-07-18T00:00	9460	304	-36.8	-48.7	296	20	
2025-07-18T00:00	9480	303	-37.0	-48.9	296	20	
2025-07-18T00:00	9500	303	-37.2	-49.2	296	20	
2025-07-18T00:00	9520	302	-37.4	-49.3	295	20	
2025-07-18T00:00	9540	301	-37.5	-49.7	295	20	
2025-07-18T00:00	9560	300	-37.7	-50.0	296	20	
2025-07-18T00:00	9580	299	-37.9	-50.0	296	20	
2025-07-18T00:00	9600	298	-38.1	-50.1	296	20	
2025-07-18T00:00	9620	297	-38.3	-50.4	296	20	
2025-07-18T00:00	9640	296	-38.5	-50.7	297	20	
2025-07-18T00:00	9660	296	-38.6	-50.8	297	20	
2025-07-18T00:00	9680	295	-38.8	-51.0	297	20	
2025-07-18T00:00	9700	294	-39.0	-51.2	298	20	
2025-07-18T00:00	9720	293	-39.2	-51.1	298	20	
2025-07-18T00:00	9740	292	-39.4	-51.5	299	20	
2025-07-18T00:00	9760	291	-39.5	-52.0	300	20	
2025-07-18T00:00	9780	290	-39.7	-52.2	301	21	
2025-07-18T00:00	9800	290	-39.9	-52.6	301	21	
2025-07-18T00:00	9820	289	-40.0	-53.7	302	21	
2025-07-18T00:00	9840	288	-40.1	-54.8	302	22	
2025-07-18T00:00	9860	287	-40.2	-55.3	302	22	
2025-07-18T00:00	9880	286	-40.3	-55.0	301	22	
2025-07-18T00:00	9900	285	-40.4	-54.9	301	22	
2025-07-18T00:00	9920	284	-40.6	-55.1	300	22	
2025-07-18T00:00	9940	284	-40.7	-55.6	300	22	
2025-07-18T00:00	9960	283	-40.8	-56.1	300	22	
2025-07-18T00:00	9980	282	-40.9	-56.5	300	22	
2025-07-18T00:00	10000	281	-41.0	-56.6	300	22	
2025-07-18T00:00	10018	281	-41.1	-56.7	300	22	
2025-07-18T00:00	10050	279	-41.3	-56.7	300	22	
2025-07-18T00:00	10100	277	-41.7	-56.6	300	22	
2025-07-18T00:00	10150	275	-42.2	-56.7	300	22	
2025-07-18T00:00	10200	273	-42.6	-56.7	299	22	
2025-07-18T00:00	10250	271	-42.9	-57.6	298	22	
2025-07-18T00:00	10300	269	-43.2	-57.9	297	23	
2025-07-18T00:00	10350	267	-43.5	-58.3	297	23	
2025-07-18T00:00	10400	265	-43.8	-59.8	296	23	
2025-07-18T00:00	10450	263	-44.1	-61.6	297	23	
2025-07-18T00:00	10500	261	-44.5	-62.3	297	23	
2025-07-18T00:00	10550	259	-44.9	-62.2	297	23	
2025-07-18T00:00	10600	257	-45.4	-62.6	297	23	
2025-07-18T00:00	10650	255	-45.7	-64.0	297	23	
2025-07-18T00:00	10700	253	-46.0	-64.5	297	23	
2025-07-18T00:00	10750	251	-46.3	-64.5	297	23	
2025-07-18T00:00	10800	250	-46.6	-64.5	297	23	
2025-07-18T00:00	10850	248	-47.0	-64.0	297	24	
2025-07-18T00:00	10900	246	-47.3	-62.7	298	24	
2025-07-18T00:00	10950	244	-47.8	-62.4	299	25	
2025-07-18T00:00	11000	242	-48.1	-62.7	299	25	
2025-07-18T00:00	11050	240	-48.4	-63.2	297	25	
2025-07-18T00:00	11100	239	-48.6	-63.4	295	24	
2025-07-18T00:00	11150	237	-48.9	-62.9	294	25	
2025-07-18T00:00	11200	235	-49.3	-62.6	294	25	
2025-07-18T00:00	11250	233	-49.5	-61.7	295	26	
2025-07-18T00:00	11300	231	-49.9	-60.7	293	26	
2025-07-18T00:00	11350	230	-50.3	-61.1	291	25	
2025-07-18T00:00	11400	228	-50.6	-63.4	290	25	
2025-07-18T00:00	11450	226	-50.9	-64.7	289	25	
2025-07-18T00:00	11500	224	-51.2	-63.4	289	27	
2025-07-18T00:00	11550	223	-51.4	-63.7	288	29	
2025-07-18T00:00	11600	221	-51.1	-65.7	285	31	
2025-07-18T00:00	11650	219	-50.5	-67.3	282	32	
2025-07-18T00:00	11700	218	-50.2	-67.8	281	34	
2025-07-18T00:00	11750	216	-50.0	-68.3	280	35	
2025-07-18T00:00	11800	214	-50.1	-68.7	279	36	
2025-07-18T00:00	11850	213	-50.1	-69.8	280	36	
2025-07-18T00:00	11900	211	-50.3	-70.0	280	37	
2025-07-18T00:00	11950	209	-50.3	-70.6	281	38	
2025-07-18T00:00	12000	208	-50.4	-71.1	281	39	
2025-07-18T00:00	12050	206	-50.6	-71.7	280	39	
2025-07-18T00:00	12100	205	-51.0	-72.4	279	39	
2025-07-18T00:00	12150	203	-51.0	-73.1	279	40	
2025-07-18T00:00	12200	201	-50.7	-74.0	278	40	
2025-07-18T00:00	12250	200	-50.9	-74.0	278	40	
2025-07-18T00:00	12300	198	-51.1	-73.9	278	40	
2025-07-18T00:00	12350	197	-51.3	-74.0	278	39	
2025-07-18T00:00	12400	195	-51.7	-74.1	278	39	
2025-07-18T00:00	12450	194	-52.0	-73.9	278	39	
2025-07-18T00:00	12500	192	-52.2	-74.1	279	38	
2025-07-18T00:00	12550	191	-52.3	-74.6	279	38	
2025-07-18T00:00	12600	189	-52.5	-75.0	279	37	
2025-07-18T00:00	12650	188	-52.6	-75.5	279	36	
2025-07-18T00:00	12700	187	-52.6	-75.8	279	35	
2025-07-18T00:00	12750	185	-52.7	-76.1	280	33	
2025-07-18T00:00	12800	184	-52.4	-76.6	280	32	
2025-07-18T00:00	12850	182	-52.2	-77.3	282	29	
2025-07-18T00:00	12900	181	-52.0	-77.5	283	27	
2025-07-18T00:00	12950	179	-51.9	-77.8	283	26	
2025-07-18T00:00	13000	178	-51.8	-77.9	282	25	
2025-07-18T00:00	13050	177	-52.1	-78.2	281	24	
2025-07-18T00:00	13100	175	-52.4	-78.3	279	24	
2025-07-18T00:00	13150	174	-52.7	-78.4	278	24	
2025-07-18T00:00	13200	173	-53.1	-78.5	277	24	
2025-07-18T00:00	13250	171	-53.4	-78.6	276	25	
2025-07-18T00:00	13300	170	-53.8	-78.6	275	26	
2025-07-18T00:00	13350	169	-54.2	-78.8	275	26	
2025-07-18T00:00	13400	167	-54.6	-79.0	276	27	
2025-07-18T00:00	13450	166	-54.9	-79.2	277	27	
2025-07-18T00:00	13500	165	-55.1	-79.5	277	28	
2025-07-18T00:00	13550	164	-55.5	-79.6	278	28	
2025-07-18T00:00	13600	162	-55.8	-79.8	280	28	
2025-07-18T00:00	13650	161	-55.9	-79.9	281	28	
2025-07-18T00:00	13700	160	-56.2	-80.0	282	29	
2025-07-18T00:00	13750	158	-56.4	-79.9	282	30	
2025-07-18T00:00	13800	157	-56.8	-79.9	283	30	
2025-07-18T00:00	13850	156	-57.1	-79.8	282	31	
2025-07-18T00:00	13900	155	-57.5	-79.8	282	31	
2025-07-18T00:00	13950	153	-57.9	-79.8	282	32	
2025-07-18T00:00	14000	152	-58.1	-80.0	284	31	
2025-07-18T00:00	14050	151	-57.9	-80.2	286	30	
2025-07-18T00:00	14100	150	-57.9	-80.5	286	29	
2025-07-18T00:00	14150	149	-58.1	-80.7	286	28	
2025-07-18T00:00	14200	147	-58.5	-80.8	285	27	
2025-07-18T00:00	14250	146	-58.8	-80.9	283	26	
2025-07-18T00:00	14300	145	-58.8	-81.2	281	24	
2025-07-18T00:00	14350	144	-58.2	-81.7	283	23	
2025-07-18T00:00	14400	143	-57.5	-82.2	285	24	
2025-07-18T00:00	14450	142	-57.0	-82.3	287	24	
2025-07-18T00:00	14500	141	-56.8	-82.4	288	25	
2025-07-18T00:00	14550	140	-56.6	-82.8	292	24	
2025-07-18T00:00	14600	138	-56.6	-83.0	296	23	
2025-07-18T00:00	14650	137	-56.3	-82.9	299	21	
2025-07-18T00:00	14700	136	-56.4	-82.8	301	21	
2025-07-18T00:00	14750	135	-56.8	-82.7	302	20	
2025-07-18T00:00	14800	134	-57.3	-82.8	302	20	
2025-07-18T00:00	14850	133	-57.8	-82.8	301	19	
2025-07-18T00:00	14900	132	-58.3	-82.9	298	18	
2025-07-18T00:00	14950	131	-58.6	-83.1	294	17	
2025-07-18T00:00	15000	130	-58.4	-83.1	292	15	
2025-07-18T00:00	15050	129	-58.1	-83.1	291	15	
2025-07-18T00:00	15100	128	-58.2	-83.3	289	15	
2025-07-18T00:00	15150	127	-58.2	-83.3	287	15	
2025-07-18T00:00	15200	126	-58.3	-83.4	284	15	
2025-07-18T00:00	15250	125	-58.3	-83.4	284	16	
2025-07-18T00:00	15300	124	-58.1	-83.1	285	17	
2025-07-18T00:00	15350	123	-58.1	-83.1	286	18	
2025-07-18T00:00	15400	122	-58.0	-83.2	289	17	
2025-07-18T00:00	15450	121	-57.7	-83.1	290	15	
2025-07-18T00:00	15500	120	-57.9	-83.2	291	14	
2025-07-18T00:00	15550	119	-58.1	-83.3	291	13	
2025-07-18T00:00	15600	118	-58.4	-83.3	290	13	
2025-07-18T00:00	15650	117	-58.8	-83.4	290	13	
2025-07-18T00:00	15700	116	-58.9	-83.5	291	14	
2025-07-18T00:00	15750	115	-59.1	-83.6	291	15	
2025-07-18T00:00	15800	114	-59.3	-83.8	288	15	
2025-07-18T00:00	15850	113	-59.4	-83.8	284	16	
2025-07-18T00:00	15900	113	-59.7	-83.9	284	16	
2025-07-18T00:00	15950	112	-59.7	-84.0	286	17	
2025-07-18T00:00	16000	111	-59.7	-84.0	288	18	
2025-07-18T00:00	16050	110	-59.6	-84.1	290	17	
2025-07-18T00:00	16100	109	-59.5	-84.3	296	17	
2025-07-18T00:00	16150	108	-59.1	-84.4	303	16	
2025-07-18T00:00	16200	107	-58.6	-84.3	309	15	
2025-07-18T00:00	16250	106	-58.8	-84.4	314	14	
2025-07-18T00:00	16300	106	-59.0	-84.5	318	13	
2025-07-18T00:00	16350	105	-59.2	-84.5	320	12	
2025-07-18T00:00	16400	104	-59.3	-84.6	318	10	
2025-07-18T00:00	16450	103	-59.4	-84.6	310	9	
2025-07-18T00:00	16500	102	-59.6	-84.8	301	8	
2025-07-18T00:00	16550	102	-59.9	-84.9	291	8	
2025-07-18T00:00	16600	101	-60.2	-85.0	280	8	
2025-07-18T00:00	16650	100	-60.3	-85.1	274	9	
2025-07-18T00:00	16700	99	-60.0	-85.0	276	10	
2025-07-18T00:00	16750	98	-60.1	-85.1	281	10	
2025-07-18T00:00	16800	97	-60.1	-85.2	287	10	
2025-07-18T00:00	16850	97	-59.9	-85.3	288	10	
2025-07-18T00:00	16900	96	-59.4	-85.5	284	10	
2025-07-18T00:00	16950	95	-59.1	-85.5	284	9	
2025-07-18T00:00	17000	94	-58.8	-85.5	289	9	
2025-07-18T00:00	17050	94	-58.2	-85.5	295	9	
2025-07-18T00:00	17100	93	-57.7	-85.2	299	9	
2025-07-18T00:00	17150	92	-57.4	-85.2	306	8	
2025-07-18T00:00	17200	92	-56.9	-84.9	310	6	
2025-07-18T00:00	17250	91	-57.0	-84.9	304	5	
2025-07-18T00:00	17300	90	-57.2	-84.9	295	5	
2025-07-18T00:00	17350	89	-57.2	-84.9	294	6	
2025-07-18T00:00	17400	89	-57.0	-84.9	296	5	
2025-07-18T00:00	17450	88	-56.8	-84.8	291	4	
2025-07-18T00:00	17500	87	-56.9	-84.8	265	3	
2025-07-18T00:00	17550	87	-57.0	-84.8	231	3	
2025-07-18T00:00	17600	86	-57.1	-84.8	210	3	
2025-07-18T00:00	17650	85	-57.3	-84.8	203	3	
2025-07-18T00:00	17700	85	-57.5	-84.9	209	3	
2025-07-18T00:00	17750	84	-57.7	-85.0	229	3	
2025-07-18T00:00	17800	83	-57.8	-85.1	256	3	
2025-07-18T00:00	17850	83	-57.5	-85.1	268	3	
2025-07-18T00:00	17900	82	-57.2	-85.1	256	2	
2025-07-18T00:00	17950	81	-56.9	-85.1	220	1	
2025-07-18T00:00	18000	81	-56.8	-85.2	213	2	
2025-07-18T00:00	18050	80	-56.4	-85.1	224	3	
2025-07-18T00:00	18100	79	-55.8	-84.8	234	3	
2025-07-18T00:00	18150	79	-55.6	-84.6	244	3	
2025-07-18T00:00	18200	78	-55.8	-84.6	257	2	
2025-07-18T00:00	18250	77	-55.8	-84.5	265	2	
2025-07-18T00:00	18300	77	-56.0	-84.5	267	3	
2025-07-18T00:00	18350	76	-56.3	-84.5	269	3	
2025-07-18T00:00	18400	76	-56.7	-84.7	270	3	
2025-07-18T00:00	18450	75	-57.0	-84.8	268	2	
2025-07-18T00:00	18500	74	-57.2	-84.8	270	2	
2025-07-18T00:00	18550	74	-57.3	-84.9	280	2	
2025-07-18T00:00	18600	73	-57.5	-85.1	285	3	
2025-07-18T00:00	18650	73	-57.8	-85.1	288	4	
2025-07-18T00:00	18700	72	-58.2	-85.2	296	4	
2025-07-18T00:00	18750	72	-58.6	-85.4	312	4	
2025-07-18T00:00	18800	71	-58.4	-85.4	329	4	
2025-07-18T00:00	18850	70	-58.3	-85.5	344	4	
2025-07-18T00:00	18900	70	-58.6	-85.6	2	3	
2025-07-18T00:00	18950	69	-58.7	-85.6	22	2	
2025-07-18T00:00	19000	69	-58.8	-85.7	48	1	
2025-07-18T00:00	19050	68	-58.6	-85.7	196	1	
2025-07-18T00:00	19100	68	-58.4	-85.7	209	3	
2025-07-18T00:00	19150	67	-58.4	-85.7	215	4	
2025-07-18T00:00	19200	67	-58.3	-85.7	218	4	
2025-07-18T00:00	19250	66	-57.9	-85.6	213	2	
2025-07-18T00:00	19300	66	-58.0	-85.7	188	1	
2025-07-18T00:00	19350	65	-57.6	-85.5	165	1	
2025-07-18T00:00	19400	65	-57.5	-85.4	156	1	
2025-07-18T00:00	19450	64	-57.9	-85.5	137	1	
2025-07-18T00:00	19500	64	-58.1	-85.5	115	2	
2025-07-18T00:00	19550	63	-58.3	-85.7	100	2	
2025-07-18T00:00	19600	63	-57.9	-85.6	84	2	
2025-07-18T00:00	19650	62	-58.0	-85.8	58	1	
2025-07-18T00:00	19700	62	-57.8	-85.7	358	0	
2025-07-18T00:00	19750	61	-57.9	-85.8	216	1	
2025-07-18T00:00	19800	61	-57.4	-85.7	186	2	
2025-07-18T00:00	19850	60	-57.2	-85.5	179	3	
2025-07-18T00:00	19900	60	-57.4	-85.4	177	4	
2025-07-18T00:00	19950	59	-57.6	-85.6	182	4	
2025-07-18T00:00	20000	59	-57.6	-85.7	193	4	
2025-07-18T00:00	20050	58	-57.1		206	4	
2025-07-18T00:00	20100	58	-57.1		216	5	
2025-07-18T00:00	20150	57	-57.1		224	5	
2025-07-18T00:00	20200	57	-57.4		233	5	
2025-07-18T00:00	20250	56	-57.4		244	5	
2025-07-18T00:00	20300	56	-57.6		257	5	
2025-07-18T00:00	20350	56	-57.5		274	4	
2025-07-18T00:00	20400	55	-57.3		299	4	
2025-07-18T00:00	20450	55	-57.0		324	3	
2025-07-18T00:00	20500	54	-56.5		349	2	
2025-07-18T00:00	20550	54	-56.3		15	2	
2025-07-18T00:00	20600	53	-56.4		32	2	
2025-07-18T00:00	20650	53	-56.6		38	1	
2025-07-18T00:00	20700	53	-56.6		359	1	
2025-07-18T00:00	20750	52	-56.4		293	1	
2025-07-18T00:00	20800	52	-56.5		287	2	
2025-07-18T00:00	20850	51	-56.3		296	2	
2025-07-18T00:00	20900	51	-56.3		321	2	
2025-07-18T00:00	20950	51	-56.2		355	2	
2025-07-18T00:00	21000	50	-56.1		22	3	
2025-07-18T00:00	21050	50	-56.1		36	4	
2025-07-18T00:00	21100	49	-56.0		44	4	
2025-07-18T00:00	21150	49	-56.3		41	4	
2025-07-18T00:00	21200	49	-56.2		31	5	
2025-07-18T00:00	21250	48	-56.0		25	6	
2025-07-18T00:00	21300	48	-55.7		25	7	
2025-07-18T00:00	21350	47	-54.9		29	8	
2025-07-18T00:00	21400	47	-54.3		37	8	
2025-07-18T00:00	21450	47	-53.8		45	8	
2025-07-18T00:00	21500	46	-53.4		51	8	
2025-07-18T00:00	21550	46	-53.2		57	8	
2025-07-18T00:00	21600	46	-53.1		61	8	
2025-07-18T00:00	21650	45	-53.1		63	8	
2025-07-18T00:00	21700	45	-53.1		64	9	
2025-07-18T00:00	21750	45	-53.0		65	9	
2025-07-18T00:00	21800	44	-53.3		67	9	
2025-07-18T00:00	21850	44	-53.6		71	9	
2025-07-18T00:00	21900	44	-53.8		76	9	
2025-07-18T00:00	21950	43	-54.0		80	9	
2025-07-18T00:00	22000	43	-53.9		81	9	
2025-07-18T00:00	22050	43	-53.6		81	8	
2025-07-18T00:00	22100	42	-53.5		82	8	
2025-07-18T00:00	22150	42	-53.3		86	8	
2025-07-18T00:00	22200	42	-53.4		91	8	
2025-07-18T00:00	22250	41	-53.7		95	7	
2025-07-18T00:00	22300	41	-53.4		95	6	
2025-07-18T00:00	22350	41	-53.0		90	5	
2025-07-18T00:00	22400	40	-52.9		81	5	
2025-07-18T00:00	22450	40	-52.8		74	4	
2025-07-18T00:00	22500	40	-52.8		70	5	
2025-07-18T00:00	22550	39	-52.7		69	5	
2025-07-18T00:00	22600	39	-52.8		68	6	
2025-07-18T00:00	22650	39	-52.9		66	8	
2025-07-18T00:00	22700	38	-53.2		66	9	
2025-07-18T00:00	22750	38	-53.4		69	11	
2025-07-18T00:00	22800	38	-53.5		72	12	
2025-07-18T00:00	22850	38	-53.7		76	13	
2025-07-18T00:00	22900	37	-53.9		80	14	
2025-07-18T00:00	22950	37	-54.3		87	14	
2025-07-18T00:00	23000	37	-54.4		94	15	
2025-07-18T00:00	23050	36	-54.2		100	14	
2025-07-18T00:00	23100	36	-54.0		104	13	
2025-07-18T00:00	23150	36	-53.9		108	13	
2025-07-18T00:00	23200	36	-53.9		111	12	
2025-07-18T00:00	23250	35	-53.7		112	12	
2025-07-18T00:00	23300	35	-53.3		113	10	
2025-07-18T00:00	23350	35	-53.2		113	10	
2025-07-18T00:00	23400	34	-52.8		110	10	
2025-07-18T00:00	23450	34	-52.3		107	12	
2025-07-18T00:00	23500	34	-52.1		105	13	
2025-07-18T00:00	23550	34	-51.8		106	13	
2025-07-18T00:00	23600	33	-51.6		111	13	
2025-07-18T00:00	23650	33	-51.6		119	13	
2025-07-18T00:00	23700	33	-51.5		127	14	
2025-07-18T00:00	23750	33	-51.5		132	14	
2025-07-18T00:00	23800	32	-51.5		135	14	
2025-07-18T00:00	23850	32	-51.5		136	13	
2025-07-18T00:00	23900	32	-51.5		138	11	
2025-07-18T00:00	23950	32	-51.3		138	10	
2025-07-18T00:00	24000	31	-51.1		133	8	
2025-07-18T00:00	24050	31	-50.8		126	8	
2025-07-18T00:00	24100	31	-50.4		119	9	
2025-07-18T00:00	24150	31	-50.3		115	10	
2025-07-18T00:00	24200	31	-50.3		113	11	
2025-07-18T00:00	24250	30	-50.1		114	11	
2025-07-18T00:00	24300	30	-50.3		117	11	
2025-07-18T00:00	24350	30	-50.4		120	11	
2025-07-18T00:00	24400	30	-50.6		121	10	
2025-07-18T00:00	24450	29	-50.7		120	10	
2025-07-18T00:00	24500	29	-50.5		119	10	
2025-07-18T00:00	24550	29	-50.3		119	10	
2025-07-18T00:00	24600	29	-50.3		121	10	
2025-07-18T00:00	24650	28	-50.0		121	11	
2025-07-18T00:00	24700	28	-49.8		118	12	
2025-07-18T00:00	24750	28	-49.7		116	12	
2025-07-18T00:00	24800	28	-49.7		121	13	
2025-07-18T00:00	24850	28	-49.4		130	13	
2025-07-18T00:00	24900	27	-49.3		137	13	
2025-07-18T00:00	24950	27	-49.2		143	12	
2025-07-18T00:00	25000	27	-48.8		147	11	
2025-07-18T00:00	25050	27	-48.6		149	10	
2025-07-18T00:00	25100	27	-48.7		149	10	
2025-07-18T00:00	25150	26	-48.8		147	9	
2025-07-18T00:00	25200	26	-48.1		140	8	
2025-07-18T00:00	25250	26	-47.9		133	8	
2025-07-18T00:00	25300	26	-47.8		129	7	
2025-07-18T00:00	25350	26	-47.8		132	7	
2025-07-18T00:00	25400	25	-47.8		138	6	
2025-07-18T00:00	25450	25	-48.1		144	5	
2025-07-18T00:00	25500	25	-48.4		141	4	
2025-07-18T00:00	25550	25	-48.3		127	4	
2025-07-18T00:00	25600	25	-48.1		116	5	
2025-07-18T00:00	25650	24	-48.3		110	5	
2025-07-18T00:00	25700	24	-48.5		108	5	
2025-07-18T00:00	25750	24	-48.5		113	5	
2025-07-18T00:00	25800	24	-48.4		121	5	
2025-07-18T00:00	25850	24	-48.4		126	4	
2025-07-18T00:00	25900	24	-48.3		121	3	
2025-07-18T00:00	25950	23	-48.0		102	3	
2025-07-18T00:00	26000	23	-48.0		73	3	
2025-07-18T00:00	26050	23	-47.9		57	4	
2025-07-18T00:00	26100	23	-47.8		59	5	
2025-07-18T00:00	26150	23	-47.6		66	6	
2025-07-18T00:00	26200	22	-47.3		70	6	
2025-07-18T00:00	26250	22	-47.1		66	7	
2025-07-18T00:00	26300	22	-46.9		59	8	
2025-07-18T00:00	26350	22	-46.7		53	9	
2025-07-18T00:00	26400	22	-46.5		54	9	
2025-07-18T00:00	26450	22	-45.9		62	9	
2025-07-18T00:00	26500	21	-45.5		74	8	
2025-07-18T00:00	26550	21	-45.7		86	8	
2025-07-18T00:00	26600	21	-45.9		95	8	
2025-07-18T00:00	26650	21	-46.1		98	9	
2025-07-18T00:00	26700	21	-45.9		94	9	
2025-07-18T00:00	26750	21	-45.6		88	10	
2025-07-18T00:00	26800	21	-45.5		82	11	
2025-07-18T00:00	26850	20	-45.3		76	11	
2025-07-18T00:00	26900	20	-45.1		73	12	
2025-07-18T00:00	26950	20	-44.7		74	13	
2025-07-18T00:00	27000	20	-44.5		80	14	
2025-07-18T00:00	27050	20	-44.4		87	14	
2025-07-18T00:00	27100	20	-44.7		93	14	
2025-07-18T00:00	27150	19	-44.9		98	13	
2025-07-18T00:00	27200	19	-45.2		103	13	
2025-07-18T00:00	27250	19	-45.2		106	13	
2025-07-18T00:00	27300	19	-44.9		110	12	
2025-07-18T00:00	27350	19	-44.9		112	12	
2025-07-18T00:00	27400	19	-44.9		115	10	
2025-07-18T00:00	27450	19	-44.8		115	9	
2025-07-18T00:00	27500	19	-44.7		110	8	
2025-07-18T00:00	27550	18	-44.2		103	8	
2025-07-18T00:00	27600	18	-44.1		99	9	
2025-07-18T00:00	27650	18	-44.0		98	10	
2025-07-18T00:00	27700	18	-44.0		99	10	
2025-07-18T00:00	27750	18	-44.1		98	11	
2025-07-18T00:00	27800	18	-44.3		98	11	
2025-07-18T00:00	27850	18	-44.3		99	11	
2025-07-18T00:00	27900	17	-44.3		100	11	
2025-07-18T00:00	27950	17	-44.3		101	11	
2025-07-18T00:00	28000	17	-44.3		101	11	
2025-07-18T00:00	28050	17	-44.3		99	11	
2025-07-18T00:00	28100	17	-44.1		95	11	
2025-07-18T00:00	28150	17	-43.8		91	11	
2025-07-18T00:00	28200	17	-43.7		89	11	
2025-07-18T00:00	28250	17	-43.6		88	11	
2025-07-18T00:00	28300	16	-43.6		90	11	
2025-07-18T00:00	28350	16	-43.6		93	11	
2025-07-18T00:00	28400	16	-43.4		93	10	
2025-07-18T00:00	28450	16	-43.3		86	10	
2025-07-18T00:00	28500	16	-43.1		78	10	
2025-07-18T00:00	28550	16	-42.7		72	11	
2025-07-18T00:00	28600	16	-42.6		68	12	
2025-07-18T00:00	28650	16	-42.6		65	13	
2025-07-18T00:00	28700	15	-42.5		65	14	
2025-07-18T00:00	28750	15	-42.3		69	15	
2025-07-18T00:00	28800	15	-42.1		74	15	
2025-07-18T00:00	28850	15	-42.3		79	15	
2025-07-18T00:00	28900	15	-42.5		84	15	
2025-07-18T00:00	28950	15	-42.7		89	14	
2025-07-18T00:00	29000	15	-42.4		92	14	
2025-07-18T00:00	29050	15	-42.4		94	14	
2025-07-18T00:00	29100	15	-42.2		94	13	
2025-07-18T00:00	29150	14	-41.9		93	13	
2025-07-18T00:00	29200	14	-41.7		95	12	
2025-07-18T00:00	29250	14	-41.8		97	12	
2025-07-18T00:00	29300	14	-41.9		99	12	
2025-07-18T00:00	29350	14	-41.7		100	12	
2025-07-18T00:00	29400	14	-41.5		99	13	
2025-07-18T00:00	29450	14	-41.3		97	13	
2025-07-18T00:00	29500	14	-41.2		96	13	
2025-07-18T00:00	29550	14	-41.1		97	13	
2025-07-18T00:00	29600	14	-41.1		98	12	
2025-07-18T00:00	29650	13	-41.2		99	12	
2025-07-18T00:00	29700	13	-41.2		99	12	
2025-07-18T00:00	29750	13	-41.2		97	13	
2025-07-18T00:00	29800	13	-41.0		93	14	
2025-07-18T00:00	29850	13	-40.9		89	15	
2025-07-18T00:00	29900	13	-40.8		85	16	
2025-07-18T00:00	29950	13	-41.1		82	17	
2025-07-18T00:00	30000	13	-41.0		80	18	
2025-07-18T00:00	30050	13	-40.6		79	17	
2025-07-18T00:00	30100	13	-40.3		80	17	
2025-07-18T00:00	30150	12	-40.3		83	16	
2025-07-18T00:00	30200	12	-40.4		86	15	
2025-07-18T00:00	30250	12	-40.6		88	15	
2025-07-18T00:00	30300	12	-40.7		90	14	
2025-07-18T00:00	30350	12	-40.8		90	13	
2025-07-18T00:00	30400	12	-40.6		92	12	
2025-07-18T00:00	30450	12	-40.7		95	12	
2025-07-18T00:00	30500	12	-40.7		97	12	
2025-07-18T00:00	30550	12	-40.7		96	13	
2025-07-18T00:00	30600	12	-40.1		93	14	
2025-07-18T00:00	30650	12	-40.1		90	15	
2025-07-18T00:00	30700	12	-40.2		88	16	
2025-07-18T00:00	30750	11	-39.9		88	17	
2025-07-18T00:00	30800	11	-39.9		88	17	
2025-07-18T00:00	30850	11	-39.9		89	17	
2025-07-18T00:00	30900	11	-39.7		91	17	
2025-07-18T00:00	30950	11	-39.5		95	16	
2025-07-18T00:00	31000	11	-39.3		99	16	
2025-07-18T00:00	31050	11	-39.0		105	15	
2025-07-18T00:00	31100	11	-39.1		110	15	
2025-07-18T00:00	31150	11	-38.7		111	14	
2025-07-18T00:00	31200	11	-38.6		108	13	
2025-07-18T00:00	31250	11	-38.4		102	12	
2025-07-18T00:00	31300	11	-37.8		96	12	
2025-07-18T00:00	31350	10	-37.4		92	12	
2025-07-18T00:00	31400	10	-37.4		89	12	
2025-07-18T00:00	31450	10	-37.5		87	13	
2025-07-18T00:00	31500	10	-37.6		86	14	
2025-07-18T00:00	31550	10	-37.5		87	15	
2025-07-18T00:00	31600	10	-37.7		89	16	
2025-07-18T00:00	31650	10	-37.7		93	16	
2025-07-18T00:00	31700	10	-37.9		97	16	
2025-07-18T00:00	31750	10	-38.1		101	15	
2025-07-18T00:00	31800	10	-38.1		102	15	
2025-07-18T00:00	31850	10	-38.0		102	15	
2025-07-18T00:00	31900	10	-37.7		103	14	
2025-07-18T00:00	31950	10	-37.5		106	14	
2025-07-18T00:00	32000	10	-37.5		110	14	
2025-07-18T00:00	32050	9	-37.4		114	14	
2025-07-18T00:00	32100	9	-37.5		117	15	
2025-07-18T00:00	32150	9	-37.5		119	15	
2025-07-18T00:00	32200	9	-37.6		120	14	
2025-07-18T00:00	32250	9	-37.3		121	13	
2025-07-18T00:00	32300	9	-37.1		120	12	
2025-07-18T00:00	32350	9	-36.4		117	11	
2025-07-18T00:00	32400	9	-35.6		111	11	
2025-07-18T00:00	32450	9	-35.4		104	11	
2025-07-18T00:00	32500	9	-35.2		98	11	
2025-07-18T00:00	32550	9	-35.1		97	12	
2025-07-18T00:00	32600	9	-35.1		97	12	
2025-07-18T00:00	32650	9	-35.1		97	13	
2025-07-18T00:00	32700	9	-34.9		97	13	
2025-07-18T00:00	32750	9	-34.8		97	13	
2025-07-18T00:00	32800	8	-34.8		97	13	
2025-07-18T00:00	32850	8	-34.7		98	13	
2025-07-18T00:00	32900	8	-34.6		99	13	
2025-07-18T00:00	32950	8	-34.7		100	13	
2025-07-18T00:00	33000	8	-34.9		101	14	
2025-07-18T00:00	33050	8	-34.9		101	15	
2025-07-18T00:00	33100	8	-34.8		103	15	
2025-07-18T00:00	33150	8	-34.5		106	15	
2025-07-18T00:00	33200	8	-34.2		110	15	
2025-07-18T00:00	33250	8	-34.3		114	15	
2025-07-18T00:00	33300	8	-34.6		120	15	
2025-07-18T00:00	33350	8	-34.7		125	15	
2025-07-18T00:00	33400	8	-34.6		128	14	
2025-07-18T00:00	33450	8	-34.4		127	14	
2025-07-18T00:00	33500	8	-34.2		121	14	
2025-07-18T00:00	33550	8	-33.4		113	14	
2025-07-18T00:00	33600	8	-32.9		106	15	
2025-07-18T00:00	33650	8	-32.8		102	15	
2025-07-18T00:00	33700	7	-32.5		100	16	
2025-07-18T00:00	33750	7	-32.4		100	16	
2025-07-18T00:00	33800	7	-32.3		100	17	
2025-07-18T00:00	33850	7	-32.2		101	17	
2025-07-18T00:00	33900	7	-31.8		101	17	
2025-07-18T00:00	33950	7	-31.4		101	16	
2025-07-18T00:00	34000	7	-31.2		100	16	
2025-07-18T00:00	34050	7	-31.2		98	15	
2025-07-18T00:00	34100	7	-31.3		94	14	
2025-07-18T00:00	34150	7	-31.3		89	14	
2025-07-18T00:00	34200	7	-31.1		86	14	
2025-07-18T00:00	34250	7	-30.8		86	14	
2025-07-18T00:00	34300	7	-30.5		85	14	
2025-07-18T00:00	34350	7	-30.1		81	14	
2025-07-18T00:00	34400	7	-29.5		75	15	
2025-07-18T00:00	34450	7	-29.1		71	16	
2025-07-18T00:00	34500	7	-28.8		70	17	
2025-07-18T00:00	34550	7	-28.6		73	18	
2025-07-18T00:00	34600	7	-28.5		78	18	
2025-07-18T00:00	34650	7	-28.5		81	18	
2025-07-18T00:00	34700	6	-28.5		82	18	
2025-07-18T00:00	34750	6	-28.5		81	18	
2025-07-18T00:00	34800	6	-28.4		79	19	
2025-07-18T00:00	34850	6	-28.4		78	20	
2025-07-18T00:00	34900	6	-28.3		78	21	
2025-07-18T00:00	34950	6	-28.0		79	22	
2025-07-18T00:00	35000	6	-27.7		81	22	
2025-07-18T00:00	35050	6	-27.5		82	22	
2025-07-18T00:00	35100	6	-27.4		83	22	
2025-07-18T00:00	35150	6	-27.6		84	21	
2025-07-18T00:00	35200	6	-27.6		86	21	
2025-07-18T00:00	35250	6	-27.3		87	21	
2025-07-18T00:00	35300	6	-27.3		86	20	
2025-07-18T00:00	35350	6	-27.4		83	20	
2025-07-18T00:00	35400	6	-27.5		79	20	
2025-07-18T00:00	35450	6	-27.2		76	20	
2025-07-18T00:00	35500	6	-27.2		75	20	
2025-07-18T00:00	35550	6	-27.2		75	21	
2025-07-18T00:00	35600	6	-27.2		76	22	
2025-07-18T00:00	35650	6	-27.3		78	22	
2025-07-18T00:00	35700	6	-27.4		81	23	
2025-07-18T00:00	35750	6	-27.5		84	22	
2025-07-18T00:00	35800	6	-27.4		86	22	
2025-07-18T00:00	35850	6	-27.6		87	21	
2025-07-18T00:00	35900	5	-27.8		88	21	
2025-07-18T00:00	35950	5	-27.8		87	22	
2025-07-18T00:00	36000	5	-27.7		86	22	
2025-07-18T00:00	36050	5	-27.4		86	22	
2025-07-18T00:00	36100	5	-27.2		86	21	
2025-07-18T00:00	36150	5	-27.1		87	20	
2025-07-18T00:00	36200	5	-26.9		87	20	
2025-07-18T00:00	36250	5	-26.7		87	20	
2025-07-18T00:00	36300	5	-26.5		87	20	
2025-07-18T00:00	36350	5	-26.4		86	20	
2025-07-18T00:00	36400	5	-26.0		86	20	
2025-07-18T00:00	36450	5	-25.8		86	21	
2025-07-18T00:00	36500	5	-25.8		85	21	
2025-07-18T00:00	36550	5	-25.5		84	22	
2025-07-18T00:00	36600	5	-25.3		82	23	
2025-07-18T00:00	36650	5	-25.0		82	25	
2025-07-18T00:00	36700	5	-24.9		83	27	
2025-07-18T00:00	36750	5	-25.0		85	28	
2025-07-18T00:00	36800	5	-25.2		87	29	
2025-07-18T00:00	36850	5	-25.4		90	30	
2025-07-18T00:00	36900	5	-25.7		91	29	
2025-07-18T00:00	36950	5	-25.6		92	28	
2025-07-18T00:00	37000	5	-25.2		92	26	
2025-07-18T00:00	37050	5	-25.4		91	24	
2025-07-18T00:00	37100	5	-25.4		91	23	
2025-07-18T00:00	37150	5	-25.4		89	22	
2025-07-18T00:00	37200	5	-25.5		89	21	
2025-07-18T12:00	491	958	25.2	12.1	18	1	3.5
2025-07-18T12:00	501	957	23.4	12.1	267	1	3.6
2025-07-18T12:00	520	955	22.9	11.6	266	1	3.9
2025-07-18T12:00	540	952	22.7	11.4	272	1	4.2
2025-07-18T12:00	560	950	22.5	11.4	267	1	4.4
2025-07-18T12:00	580	948	22.3	11.6	234	1	4.5
2025-07-18T12:00	600	946	22.2	11.5	215	1	4.7
2025-07-18T12:00	620	944	21.9	11.5	222	1	4.7
2025-07-18T12:00	640	942	21.8	11.3	236	1	4.7
2025-07-18T12:00	660	939	21.6	11.2	250	1	4.7
2025-07-18T12:00	680	937	21.5	11.1	265	1	4.7
2025-07-18T12:00	700	935	21.2	11.3	281	1	4.8
2025-07-18T12:00	720	933	21.1	11.0	294	1	4.8
2025-07-18T12:00	740	931	20.8	11.1	298	1	4.8
2025-07-18T12:00	760	929	20.6	11.2	293	1	4.8
2025-07-18T12:00	780	926	20.4	10.9	287	1	4.8
2025-07-18T12:00	800	924	20.2	10.9	283	1	4.8
2025-07-18T12:00	820	922	20.0	10.9	279	1	4.8
2025-07-18T12:00	840	920	19.8	11.0	270	1	4.8
2025-07-18T12:00	860	918	19.6	10.9	244	0	4.8
2025-07-18T12:00	880	916	19.5	10.6	196	0	4.8
2025-07-18T12:00	900	914	19.5	10.3	167	0	4.8
2025-07-18T12:00	920	912	19.2	10.8	155	0	4.8
2025-07-18T12:00	940	910	19.0	10.7	158	0	4.8
2025-07-18T12:00	960	907	18.8	10.3	173	0	4.8
2025-07-18T12:00	980	905	18.6	10.4	201	0	4.8
2025-07-18T12:00	1000	903	18.5	9.9	217	0	4.8
2025-07-18T12:00	1020	901	18.5	9.6	225	1	4.8
2025-07-18T12:00	1040	899	18.1	10.3	231	1	4.8
2025-07-18T12:00	1060	897	18.3	8.5	235	1	4.7
2025-07-18T12:00	1080	895	18.5	7.9	237	1	4.7
2025-07-18T12:00	1100	893	18.2	8.0	237	1	4.8
2025-07-18T12:00	1120	890	17.9	8.1	239	1	4.8
2025-07-18T12:00	1140	889	17.7	7.9	241	1	4.8
2025-07-18T12:00	1160	887	17.6	7.9	244	1	4.8
2025-07-18T12:00	1180	884	17.4	7.7	248	2	4.8
2025-07-18T12:00	1200	882	17.2	7.9	253	2	4.8
2025-07-18T12:00	1220	880	17.0	7.5	255	2	4.8
2025-07-18T12:00	1240	878	16.9	7.3	257	2	4.8
2025-07-18T12:00	1260	876	16.9	6.6	257	3	4.8
2025-07-18T12:00	1280	874	17.2	5.2	257	3	4.7
2025-07-18T12:00	1300	872	17.8	3.2	256	3	4.7
2025-07-18T12:00	1320	870	17.7	3.1	255	3	4.7
2025-07-18T12:00	1340	868	17.6	2.9	255	3	4.7
2025-07-18T12:00	1360	866	17.5	2.5	254	3	4.6
2025-07-18T12:00	1380	864	17.5	2.4	254	3	4.6
2025-07-18T12:00	1400	862	17.3	2.5	253	3	4.6
2025-07-18T12:00	1420	860	17.1	2.2	252	3	4.6
2025-07-18T12:00	1440	858	16.9	2.4	251	3	4.5
2025-07-18T12:00	1460	856	16.8	2.4	251	3	4.5
2025-07-18T12:00	1480	854	16.6	2.7	252	3	4.5
2025-07-18T12:00	1500	852	16.4	3.1	254	3	4.4
2025-07-18T12:00	1520	850	16.2	3.5	257	3	4.4
2025-07-18T12:00	1540	848	16.0	4.1	261	3	4.4
2025-07-18T12:00	1560	846	15.9	5.2	263	3	4.3
2025-07-18T12:00	1580	844	15.7	5.5	264	3	4.2
2025-07-18T12:00	1600	842	15.5	5.6	264	3	4.1
2025-07-18T12:00	1620	840	15.4	5.2	263	4	4.0
2025-07-18T12:00	1640	838	15.3	4.5	261	4	3.8
2025-07-18T12:00	1660	836	15.1	4.5	260	4	3.7
2025-07-18T12:00	1680	834	14.9	4.5	258	4	3.5
2025-07-18T12:00	1700	832	14.8	4.5	257	4	3.4
2025-07-18T12:00	1720	830	14.7	4.0	256	5	3.3
2025-07-18T12:00	1740	828	14.6	3.6	256	5	3.2
2025-07-18T12:00	1760	826	14.5	2.9	255	5	3.1
2025-07-18T12:00	1780	824	14.3	2.8	254	5	3.1
2025-07-18T12:00	1800	822	14.2	2.5	253	5	3.1
2025-07-18T12:00	1820	820	14.1	2.1	251	6	3.0
2025-07-18T12:00	1840	818	14.0	2.2	249	6	3.0
2025-07-18T12:00	1860	816	13.9	2.6	246	6	3.0
2025-07-18T12:00	1880	814	13.9	2.3	244	6	3.0
2025-07-18T12:00	1900	813	13.8	2.1	242	6	3.1
2025-07-18T12:00	1920	811	13.6	2.0	239	6	3.1
2025-07-18T12:00	1940	809	13.5	1.3	238	6	3.1
2025-07-18T12:00	1960	807	13.5	0.1	238	6	3.1
2025-07-18T12:00	1980	805	13.4	-0.9	238	6	3.2
2025-07-18T12:00	2000	803	13.4	-3.0	238	6	3.2
2025-07-18T12:00	2020	801	13.2	-3.1	239	5	3.3
2025-07-18T12:00	2040	799	13.1	-3.5	241	5	3.4
2025-07-18T12:00	2060	797	12.9	-3.7	243	5	3.5
2025-07-18T12:00	2080	795	12.8	-4.6	245	5	3.6
2025-07-18T12:00	2100	794	12.6	-4.7	247	5	3.6
2025-07-18T12:00	2120	792	12.4	-4.8	250	4	3.7
2025-07-18T12:00	2140	790	12.2	-4.8	253	4	3.7
2025-07-18T12:00	2160	788	12.1	-4.5	256	4	3.8
2025-07-18T12:00	2180	786	11.9	-3.7	260	4	3.8
2025-07-18T12:00	2200	784	11.7	-2.2	263	4	3.8
2025-07-18T12:00	2220	782	11.5	-1.8	266	4	3.8
2025-07-18T12:00	2240	780	11.2	-0.7	268	4	3.7
2025-07-18T12:00	2260	778	11.1	-0.1	272	5	3.6
2025-07-18T12:00	2280	776	10.9	0.2	275	5	3.5
2025-07-18T12:00	2300	774	10.7	0.0	278	5	3.4
2025-07-18T12:00	2320	773	10.7	-0.6	280	5	3.3
2025-07-18T12:00	2340	771	10.6	-0.8	280	5	3.3
2025-07-18T12:00	2360	769	10.5	-2.7	280	5	3.3
2025-07-18T12:00	2380	767	10.5	-5.8	279	5	3.3
2025-07-18T12:00	2400	765	10.4	-7.2	278	5	3.4
2025-07-18T12:00	2420	763	10.5	-13.9	278	5	3.6
2025-07-18T12:00	2440	762	10.5	-15.5	277	5	3.8
2025-07-18T12:00	2460	760	10.5	-15.8	276	5	4.1
2025-07-18T12:00	2480	758	10.6	-15.9	276	5	4.3
2025-07-18T12:00	2500	756	10.6	-16.0	275	5	4.6
2025-07-18T12:00	2520	755	10.5	-16.5	274	5	4.7
2025-07-18T12:00	2540	753	10.6	-15.4	273	5	4.9
2025-07-18T12:00	2560	751	10.5	-15.9	271	5	5.0
2025-07-18T12:00	2580	749	10.3	-16.5	269	5	5.1
2025-07-18T12:00	2600	747	10.1	-17.3	268	5	5.2
2025-07-18T12:00	2620	745	10.0	-18.1	267	5	5.3
2025-07-18T12:00	2640	744	9.9	-18.1	267	5	5.3
2025-07-18T12:00	2660	742	9.8	-18.5	267	5	5.4
2025-07-18T12:00	2680	740	9.7	-18.6	268	5	5.4
2025-07-18T12:00	2700	738	9.6	-18.4	269	5	5.5
2025-07-18T12:00	2720	736	9.4	-18.6	271	5	5.5
2025-07-18T12:00	2740	735	9.4	-16.5	272	5	5.6
2025-07-18T12:00	2760	733	9.3	-11.8	272	5	5.6
2025-07-18T12:00	2780	731	9.1	-8.7	272	6	5.6
2025-07-18T12:00	2800	729	8.8	-4.2	272	6	5.5
2025-07-18T12:00	2820	728	8.6	-3.6	271	6	5.2
2025-07-18T12:00	2840	726	8.4	-2.6	270	6	5.0
2025-07-18T12:00	2860	724	8.3	-2.1	269	6	4.8
2025-07-18T12:00	2880	722	8.1	-1.7	268	6	4.6
2025-07-18T12:00	2900	721	8.0	-1.3	268	6	4.5
2025-07-18T12:00	2920	719	7.7	-0.8	267	6	4.3
2025-07-18T12:00	2940	717	7.6	-0.8	267	6	4.2
2025-07-18T12:00	2960	715	7.4	-0.7	267	6	4.0
2025-07-18T12:00	2980	713	7.3	-0.9	267	6	4.0
2025-07-18T12:00	3000	712	7.2	-0.9	267	6	3.9
2025-07-18T12:00	3020	710	7.0	-0.7	267	6	3.9
2025-07-18T12:00	3040	709	6.9	-1.2	267	6	3.8
2025-07-18T12:00	3060	707	6.9	-2.3	268	5	3.8
2025-07-18T12:00	3080	705	6.8	-2.6	270	5	3.8
2025-07-18T12:00	3100	703	6.7	-3.9	271	5	3.8
2025-07-18T12:00	3120	702	6.6	-3.7	274	5	3.8
2025-07-18T12:00	3140	700	6.5	-3.1	276	5	3.8
2025-07-18T12:00	3160	698	6.3	-2.4	278	5	3.8
2025-07-18T12:00	3180	696	6.1	-2.4	278	6	3.8
2025-07-18T12:00	3200	695	6.0	-2.4	278	6	3.8
2025-07-18T12:00	3220	693	5.8	-2.4	278	6	3.7
2025-07-18T12:00	3240	691	5.7	-2.6	277	6	3.7
2025-07-18T12:00	3260	690	5.6	-2.9	277	6	3.7
2025-07-18T12:00	3280	688	5.4	-2.8	278	6	3.7
2025-07-18T12:00	3300	686	5.3	-2.9	279	6	3.7
2025-07-18T12:00	3320	685	5.1	-2.9	279	6	3.7
2025-07-18T12:00	3340	683	5.0	-3.0	280	6	3.7
2025-07-18T12:00	3360	681	4.8	-3.4	280	6	3.6
2025-07-18T12:00	3380	680	4.8	-3.7	279	6	3.7
2025-07-18T12:00	3400	678	4.7	-3.7	278	6	3.7
2025-07-18T12:00	3420	676	4.5	-3.7	276	7	3.7
2025-07-18T12:00	3440	675	4.4	-4.1	274	7	3.7
2025-07-18T12:00	3460	673	4.3	-5.2	273	6	3.7
2025-07-18T12:00	3480	671	4.3	-5.8	272	6	3.6
2025-07-18T12:00	3500	670	4.1	-5.6	271	6	3.6
2025-07-18T12:00	3520	668	3.9	-5.5	271	6	3.6
2025-07-18T12:00	3540	666	3.8	-5.8	271	6	3.6
2025-07-18T12:00	3560	665	3.7	-5.9	272	5	3.6
2025-07-18T12:00	3580	663	3.5	-6.2	273	5	3.5
2025-07-18T12:00	3600	661	3.4	-6.8	275	5	3.6
2025-07-18T12:00	3620	660	3.3	-7.2	278	5	3.6
2025-07-18T12:00	3640	658	3.0	-7.7	281	5	3.6
2025-07-18T12:00	3660	657	2.8	-8.2	285	5	3.6
2025-07-18T12:00	3680	655	2.7	-8.9	289	4	3.6
2025-07-18T12:00	3700	654	2.6	-9.7	294	4	3.7
2025-07-18T12:00	3720	652	2.5	-10.3	296	4	3.8
2025-07-18T12:00	3740	650	2.3	-10.6	300	4	3.8
2025-07-18T12:00	3760	649	2.2	-11.7	302	4	3.9
2025-07-18T12:00	3780	647	2.1	-14.6	304	4	4.0
2025-07-18T12:00	3800	645	2.0	-14.3	304	4	4.1
2025-07-18T12:00	3820	644	2.0	-11.4	304	4	4.1
2025-07-18T12:00	3840	642	1.8	-10.4	302	4	4.1
2025-07-18T12:00	3860	641	1.7	-10.2	298	4	4.0
2025-07-18T12:00	3880	639	1.7	-9.8	295	4	3.9
2025-07-18T12:00	3900	637	1.6	-9.8	292	4	3.8
2025-07-18T12:00	3920	636	1.4	-9.7	289	4	3.7
2025-07-18T12:00	3940	634	1.2	-9.6	288	4	3.6
2025-07-18T12:00	3960	633	1.2	-9.8	287	4	3.6
2025-07-18T12:00	3980	631	1.2	-10.6	286	4	3.5
2025-07-18T12:00	4000	630	1.1	-10.4	285	5	3.5
2025-07-18T12:00	4020	628	0.9	-10.1	284	5	3.5
2025-07-18T12:00	4040	626	0.7	-10.4	283	5	3.4
2025-07-18T12:00	4060	625	0.6	-10.3	282	5	3.4
2025-07-18T12:00	4080	623	0.5	-9.9	281	5	3.4
2025-07-18T12:00	4100	622	0.3	-9.8	280	6	3.4
2025-07-18T12:00	4120	620	0.1	-11.0	280	6	3.3
2025-07-18T12:00	4140	619	0.1	-11.3	280	6	3.3
2025-07-18T12:00	4160	617	-0.1	-10.1	280	6	3.3
2025-07-18T12:00	4180	616	-0.2	-10.3	281	6	3.3
2025-07-18T12:00	4200	614	-0.2	-11.1	282	6	3.2
2025-07-18T12:00	4220	612	-0.4	-10.9	282	6	3.2
2025-07-18T12:00	4240	611	-0.5	-10.9	282	6	3.2
2025-07-18T12:00	4260	609	-0.6	-10.9	282	6	3.2
2025-07-18T12:00	4280	608	-0.7	-11.0	281	6	3.2
2025-07-18T12:00	4300	606	-0.9	-10.9	280	6	3.2
2025-07-18T12:00	4320	605	-1.0	-10.9	280	6	3.2
2025-07-18T12:00	4340	603	-1.1	-10.8	280	6	3.2
2025-07-18T12:00	4360	602	-1.3	-11.2	280	6	3.2
2025-07-18T12:00	4380	600	-1.4	-11.6	281	6	3.1
2025-07-18T12:00	4400	599	-1.5	-12.0	282	6	3.1
2025-07-18T12:00	4420	597	-1.7	-11.7	283	6	3.1
2025-07-18T12:00	4440	596	-1.9	-11.6	284	6	3.1
2025-07-18T12:00	4460	594	-2.0	-12.1	285	6	3.1
2025-07-18T12:00	4480	593	-2.2	-12.7	285	6	3.1
2025-07-18T12:00	4500	591	-2.4	-13.6	283	6	3.1
2025-07-18T12:00	4520	590	-2.6	-14.0	282	6	3.2
2025-07-18T12:00	4540	588	-2.7	-15.0	281	7	3.2
2025-07-18T12:00	4560	587	-2.9	-16.2	280	7	3.3
2025-07-18T12:00	4580	585	-3.0	-17.5	280	7	3.3
2025-07-18T12:00	4600	584	-3.1	-19.8	280	7	3.4
2025-07-18T12:00	4620	582	-3.2	-24.8	281	7	3.5
2025-07-18T12:00	4640	581	-3.3	-24.8	283	7	3.6
2025-07-18T12:00	4660	580	-3.5	-19.9	285	7	3.8
2025-07-18T12:00	4680	578	-3.6	-20.3	287	8	3.8
2025-07-18T12:00	4700	577	-3.8	-21.4	288	8	3.9
2025-07-18T12:00	4720	575	-3.9	-25.4	288	8	3.9
2025-07-18T12:00	4740	574	-4.1	-28.0	288	8	3.9
2025-07-18T12:00	4760	572	-4.1	-26.2	287	9	4.0
2025-07-18T12:00	4780	571	-4.3	-25.3	287	9	4.1
2025-07-18T12:00	4800	569	-4.5	-25.7	287	9	4.1
2025-07-18T12:00	4820	568	-4.7	-22.9	286	9	4.1
2025-07-18T12:00	4840	566	-4.8	-17.7	286	9	4.1
2025-07-18T12:00	4860	565	-4.9	-14.6	285	9	4.1
2025-07-18T12:00	4880	564	-5.2	-14.5	285	9	3.9
2025-07-18T12:00	4900	562	-5.4	-14.7	284	9	3.8
2025-07-18T12:00	4920	561	-5.6	-14.5	283	9	3.7
2025-07-18T12:00	4940	559	-5.8	-14.0	283	10	3.6
2025-07-18T12:00	4960	558	-5.9	-14.4	282	10	3.5
2025-07-18T12:00	4980	556	-6.0	-16.7	281	10	3.4
2025-07-18T12:00	5000	555	-6.0	-18.0	281	10	3.4
2025-07-18T12:00	5020	554	-6.1	-18.2	280	10	3.4
2025-07-18T12:00	5040	552	-6.3	-17.9	279	10	3.3
2025-07-18T12:00	5060	551	-6.5	-17.3	279	10	3.3
2025-07-18T12:00	5080	549	-6.6	-17.0	278	10	3.3
2025-07-18T12:00	5100	548	-6.8	-16.9	278	10	3.2
2025-07-18T12:00	5120	547	-7.0	-17.0	278	10	3.2
2025-07-18T12:00	5140	545	-7.2	-16.9	278	10	3.1
2025-07-18T12:00	5160	544	-7.4	-16.9	278	11	3.1
2025-07-18T12:00	5180	542	-7.6	-17.1	278	11	3.1
2025-07-18T12:00	5200	541	-7.7	-17.2	278	11	3.1
2025-07-18T12:00	5220	540	-7.9	-17.1	278	11	3.2
2025-07-18T12:00	5240	538	-8.0	-18.0	277	11	3.2
2025-07-18T12:00	5260	537	-8.1	-18.3	277	11	3.2
2025-07-18T12:00	5280	535	-8.3	-17.9	277	11	3.2
2025-07-18T12:00	5300	534	-8.4	-18.6	277	11	3.2
2025-07-18T12:00	5320	533	-8.6	-19.8	278	11	3.2
2025-07-18T12:00	5340	531	-8.8	-19.8	278	11	3.3
2025-07-18T12:00	5360	530	-9.0	-19.2	278	11	3.3
2025-07-18T12:00	5380	528	-9.2	-18.9	278	11	3.2
2025-07-18T12:00	5400	527	-9.3	-17.9	279	11	3.2
2025-07-18T12:00	5420	526	-9.6	-17.6	279	11	3.2
2025-07-18T12:00	5440	524	-9.7	-17.4	279	11	3.1
2025-07-18T12:00	5460	523	-9.9	-17.3	279	11	3.1
2025-07-18T12:00	5480	522	-10.1	-17.0	279	11	3.1
2025-07-18T12:00	5500	520	-10.3	-16.9	279	11	3.0
2025-07-18T12:00	5520	519	-10.5	-17.3	279	11	3.0
2025-07-18T12:00	5540	518	-10.7	-18.1	280	11	3.0
2025-07-18T12:00	5560	516	-10.8	-19.2	280	11	3.0
2025-07-18T12:00	5580	515	-10.9	-19.1	281	11	3.0
2025-07-18T12:00	5600	514	-11.0	-19.5	281	11	3.0
2025-07-18T12:00	5620	512	-11.2	-19.6	282	11	3.1
2025-07-18T12:00	5640	511	-11.5	-19.3	283	11	3.1
2025-07-18T12:00	5660	510	-11.6	-19.5	284	11	3.2
2025-07-18T12:00	5680	508	-11.8	-19.5	284	11	3.2
2025-07-18T12:00	5700	507	-12.0	-19.4	284	11	3.2
2025-07-18T12:00	5720	506	-12.2	-18.9	284	11	3.3
2025-07-18T12:00	5740	504	-12.4	-18.8	284	11	3.3
2025-07-18T12:00	5760	503	-12.6	-18.9	283	12	3.4
2025-07-18T12:00	5780	502	-12.8	-18.8	283	12	3.4
2025-07-18T12:00	5800	500	-12.9	-18.8	281	12	3.5
2025-07-18T12:00	5820	499	-13.0	-18.7	280	12	3.5
2025-07-18T12:00	5840	498	-13.2	-18.7	279	12	3.6
2025-07-18T12:00	5860	496	-13.4	-18.6	278	13	3.6
2025-07-18T12:00	5880	495	-13.6	-18.8	278	13	3.7
2025-07-18T12:00	5900	494	-13.7	-19.0	277	13	3.7
2025-07-18T12:00	5920	493	-13.9	-19.1	277	13	3.7
2025-07-18T12:00	5940	491	-14.1	-19.3	278	13	3.7
2025-07-18T12:00	5960	490	-14.3	-19.4	278	13	3.7
2025-07-18T12:00	5980	489	-14.4	-19.2	279	13	3.7
2025-07-18T12:00	6000	487	-14.6	-18.5	280	13	3.7
2025-07-18T12:00	6020	486	-14.6	-18.2	280	13	3.7
2025-07-18T12:00	6040	485	-14.8	-18.5	281	13	3.7
2025-07-18T12:00	6060	484	-14.9	-19.2	282	13	3.6
2025-07-18T12:00	6080	482	-15.1	-19.4	282	13	3.6
2025-07-18T12:00	6100	481	-15.2	-19.3	283	13	3.6
2025-07-18T12:00	6120	480	-15.3	-19.1	283	13	3.6
2025-07-18T12:00	6140	479	-15.4	-19.6	284	13	3.6
2025-07-18T12:00	6160	477	-15.6	-20.4	284	13	3.6
2025-07-18T12:00	6180	476	-15.7	-21.7	285	13	3.6
2025-07-18T12:00	6200	475	-15.8	-23.6	286	13	3.6
2025-07-18T12:00	6220	473	-15.7	-26.2	286	13	3.6
2025-07-18T12:00	6240	472	-15.7	-28.7	287	13	3.6
2025-07-18T12:00	6260	471	-15.7	-29.6	288	13	3.6
2025-07-18T12:00	6280	470	-15.7	-29.2	288	13	3.7
2025-07-18T12:00	6300	469	-16.0	-28.8	289	13	3.7
2025-07-18T12:00	6320	467	-16.2	-28.9	289	13	3.7
2025-07-18T12:00	6340	466	-16.3	-28.0	290	13	3.7
2025-07-18T12:00	6360	465	-16.5	-25.6	290	13	3.7
2025-07-18T12:00	6380	463	-16.6	-24.7	290	13	3.7
2025-07-18T12:00	6400	462	-16.8	-25.2	290	13	3.6
2025-07-18T12:00	6420	461	-17.0	-25.2	290	13	3.5
2025-07-18T12:00	6440	460	-17.2	-25.4	290	13	3.5
2025-07-18T12:00	6460	458	-17.4	-25.3	290	13	3.5
2025-07-18T12:00	6480	457	-17.6	-25.3	290	13	3.4
2025-07-18T12:00	6500	456	-17.8	-25.3	290	14	3.4
2025-07-18T12:00	6520	455	-17.9	-25.4	290	14	3.3
2025-07-18T12:00	6540	454	-18.0	-25.4	289	14	3.3
2025-07-18T12:00	6560	452	-18.2	-25.9	289	14	3.3
2025-07-18T12:00	6580	451	-18.4	-26.5	289	15	3.3
2025-07-18T12:00	6600	450	-18.5	-28.3	288	15	3.3
2025-07-18T12:00	6620	449	-18.5	-32.0	288	15	3.3
2025-07-18T12:00	6640	448	-18.4	-32.7	287	15	3.4
2025-07-18T12:00	6660	446	-18.5	-32.1	287	15	3.5
2025-07-18T12:00	6680	445	-18.6	-30.1	287	15	3.6
2025-07-18T12:00	6700	444	-18.7	-28.5	286	15	3.6
2025-07-18T12:00	6720	443	-18.8	-30.5	286	16	3.6
2025-07-18T12:00	6740	442	-18.9	-31.2	286	16	3.6
2025-07-18T12:00	6760	441	-19.0	-30.9	286	16	3.6
2025-07-18T12:00	6780	439	-19.2	-31.0	285	16	3.6
2025-07-18T12:00	6800	438	-19.4	-31.2	285	16	3.6
2025-07-18T12:00	6820	437	-19.5	-31.3	285	16	3.6
2025-07-18T12:00	6840	436	-19.7	-31.3	284	16	3.6
2025-07-18T12:00	6860	435	-19.9	-31.3	284	16	3.6
2025-07-18T12:00	6880	434	-20.1	-31.8	284	16	3.6
2025-07-18T12:00	6900	432	-20.2	-32.2	284	16	3.6
2025-07-18T12:00	6920	431	-20.3	-32.3	283	17	3.5
2025-07-18T12:00	6940	430	-20.5	-32.5	283	17	3.5
2025-07-18T12:00	6960	429	-20.7	-32.9	283	17	3.5
2025-07-18T12:00	6980	428	-20.8	-33.3	283	17	3.5
2025-07-18T12:00	7000	426	-20.9	-33.2	283	17	3.5
2025-07-18T12:00	7020	425	-21.0	-33.0	283	18	3.5
2025-07-18T12:00	7040	424	-21.2	-32.9	283	18	3.5
2025-07-18T12:00	7060	423	-21.3	-32.9	284	18	3.5
2025-07-18T12:00	7080	422	-21.4	-33.2	284	18	3.5
2025-07-18T12:00	7100	421	-21.6	-33.6	285	18	3.5
2025-07-18T12:00	7120	419	-21.7	-34.4	286	18	3.5
2025-07-18T12:00	7140	418	-21.9	-34.8	286	19	3.5
2025-07-18T12:00	7160	417	-22.0	-35.1	287	19	3.5
2025-07-18T12:00	7180	416	-22.1	-35.2	287	19	3.5
2025-07-18T12:00	7200	415	-22.3	-35.1	288	19	3.5
2025-07-18T12:00	7220	414	-22.5	-35.1	289	19	3.5
2025-07-18T12:00	7240	413	-22.6	-35.7	289	19	3.4
2025-07-18T12:00	7260	412	-22.6	-36.9	290	19	3.4
2025-07-18T12:00	7280	410	-22.7	-37.1	290	19	3.3
2025-07-18T12:00	7300	409	-22.8	-37.7	291	20	3.2
2025-07-18T12:00	7320	408	-22.8	-39.5	291	20	3.1
2025-07-18T12:00	7340	407	-22.8	-40.7	291	20	3.1
2025-07-18T12:00	7360	406	-22.8	-41.2	291	20	3.0
2025-07-18T12:00	7380	405	-23.0	-41.5	291	20	3.0
2025-07-18T12:00	7400	404	-23.1	-41.8	291	20	2.9
2025-07-18T12:00	7420	403	-23.2	-41.8	291	20	2.8
2025-07-18T12:00	7440	402	-23.4	-41.9	291	20	2.7
2025-07-18T12:00	7460	401	-23.4	-42.2	291	20	2.7
2025-07-18T12:00	7480	400	-23.6	-42.1	291	20	2.7
2025-07-18T12:00	7500	398	-23.8	-42.1	291	20	2.8
2025-07-18T12:00	7520	397	-24.0	-42.3	291	20	2.8
2025-07-18T12:00	7540	396	-24.1	-42.6	292	20	2.8
2025-07-18T12:00	7560	395	-24.3	-42.6	292	20	2.8
2025-07-18T12:00	7580	394	-24.5	-42.8	292	20	2.8
2025-07-18T12:00	7600	393	-24.7	-42.8	292	20	2.7
2025-07-18T12:00	7620	392	-24.8	-42.9	292	20	2.7
2025-07-18T12:00	7640	391	-25.0	-43.1	292	20	2.7
2025-07-18T12:00	7660	390	-25.1	-43.3	292	20	2.7
2025-07-18T12:00	7680	389	-25.4	-43.2	292	20	2.8
2025-07-18T12:00	7700	387	-25.5	-43.0	292	20	2.8
2025-07-18T12:00	7720	386	-25.7	-43.1	292	20	2.9
2025-07-18T12:00	7740	385	-25.9	-43.2	292	20	2.9
2025-07-18T12:00	7760	384	-26.1	-43.2	292	20	3.0
2025-07-18T12:00	7780	383	-26.2	-43.3	292	20	3.0
2025-07-18T12:00	7800	382	-26.4	-43.3	292	20	3.1
2025-07-18T12:00	7820	381	-26.6	-43.3	291	20	3.1
2025-07-18T12:00	7840	380	-26.8	-43.4	291	20	3.2
2025-07-18T12:00	7860	379	-27.0	-43.4	290	20	3.2
2025-07-18T12:00	7880	378	-27.1	-43.7	290	20	3.2
2025-07-18T12:00	7900	377	-27.3	-44.0	290	20	3.1
2025-07-18T12:00	7920	376	-27.4	-44.0	289	21	3.1
2025-07-18T12:00	7940	375	-27.7	-43.9	289	21	3.0
2025-07-18T12:00	7960	374	-27.8	-44.2	289	21	2.9
2025-07-18T12:00	7980	373	-28.0	-44.3	290	21	2.8
2025-07-18T12:00	8000	372	-28.1	-44.4	290	21	2.7
2025-07-18T12:00	8020	371	-28.3	-44.5	290	21	2.7
2025-07-18T12:00	8040	370	-28.5	-44.8	290	21	2.7
2025-07-18T12:00	8060	369	-28.6	-45.4	291	21	2.7
2025-07-18T12:00	8080	368	-28.7	-45.7	291	21	2.8
2025-07-18T12:00	8100	367	-28.9	-45.7	291	21	3.0
2025-07-18T12:00	8120	366	-29.1	-45.6	290	21	3.1
2025-07-18T12:00	8140	365	-29.3	-45.8	290	21	3.3
2025-07-18T12:00	8160	364	-29.4	-46.0	290	20	3.4
2025-07-18T12:00	8180	363	-29.6	-46.4	289	20	3.5
2025-07-18T12:00	8200	362	-29.7	-47.1	289	20	3.6
2025-07-18T12:00	8220	361	-29.8	-48.1	288	20	3.7
2025-07-18T12:00	8240	360	-29.9	-47.7	288	20	3.9
2025-07-18T12:00	8260	359	-30.0	-46.9	288	20	4.0
2025-07-18T12:00	8280	357	-30.1	-47.2	287	20	4.1
2025-07-18T12:00	8300	356	-30.2	-47.9	287	20	4.3
2025-07-18T12:00	8320	355	-30.4	-48.3	287	20	4.4
2025-07-18T12:00	8340	354	-30.4	-48.9	287	21	4.6
2025-07-18T12:00	8360	353	-30.5	-50.2	288	21	4.7
2025-07-18T12:00	8380	352	-30.6	-50.5	288	21	4.8
2025-07-18T12:00	8400	351	-30.7	-50.4	288	21	4.9
2025-07-18T12:00	8420	350	-30.9	-50.4	288	21	4.8
2025-07-18T12:00	8440	349	-31.1	-50.6	288	22	4.7
2025-07-18T12:00	8460	349	-31.2	-51.0	289	21	4.5
2025-07-18T12:00	8480	348	-31.4	-51.1	289	21	4.4
2025-07-18T12:00	8500	347	-31.5	-51.4	288	21	4.1
2025-07-18T12:00	8520	346	-31.7	-51.5	288	21	3.9
2025-07-18T12:00	8540	345	-31.8	-51.3	288	21	3.7
2025-07-18T12:00	8560	344	-32.0	-51.1	288	21	3.5
2025-07-18T12:00	8580	343	-32.2	-51.1	288	21	3.4
2025-07-18T12:00	8600	342	-32.3	-51.0	288	21	3.3
2025-07-18T12:00	8620	341	-32.5	-50.8	288	21	3.3
2025-07-18T12:00	8640	340	-32.6	-50.8	288	21	3.3
2025-07-18T12:00	8660	339	-32.8	-50.8	288	21	3.3
2025-07-18T12:00	8680	338	-33.1	-50.7	288	21	3.3
2025-07-18T12:00	8700	337	-33.2	-50.5	289	21	3.3
2025-07-18T12:00	8720	336	-33.4	-50.7	289	21	3.3
2025-07-18T12:00	8740	335	-33.5	-51.3	288	21	3.3
2025-07-18T12:00	8760	334	-33.6	-52.0	288	21	3.2
2025-07-18T12:00	8780	333	-33.8	-51.9	288	21	3.2
2025-07-18T12:00	8800	332	-34.0	-51.9	287	21	3.1
2025-07-18T12:00	8820	331	-34.1	-52.0	287	21	3.0
2025-07-18T12:00	8840	330	-34.3	-52.2	287	21	3.0
2025-07-18T12:00	8860	329	-34.5	-52.2	287	21	2.9
2025-07-18T12:00	8880	328	-34.7	-52.2	287	21	2.9
2025-07-18T12:00	8900	327	-34.9	-52.2	287	21	2.8
2025-07-18T12:00	8920	326	-35.1	-52.3	287	21	2.8
2025-07-18T12:00	8940	326	-35.3	-52.3	287	21	2.8
2025-07-18T12:00	8960	325	-35.5	-52.3	288	21	2.7
2025-07-18T12:00	8980	324	-35.6	-52.2	288	21	2.7
2025-07-18T12:00	9000	323	-35.8	-51.9	288	21	2.6
2025-07-18T12:00	9020	322	-36.0	-51.7	288	21	2.5
2025-07-18T12:00	9040	321	-36.2	-51.7	288	21	2.5
2025-07-18T12:00	9060	320	-36.4	-51.5	289	21	2.5
2025-07-18T12:00	9080	319	-36.6	-51.4	289	21	2.4
2025-07-18T12:00	9100	318	-36.7	-51.4	289	21	2.4
2025-07-18T12:00	9120	317	-37.0	-51.2	290	21	2.4
2025-07-18T12:00	9140	316	-37.1	-51.3	290	21	2.4
2025-07-18T12:00	9160	315	-37.3	-51.3	290	21	2.3
2025-07-18T12:00	9180	314	-37.5	-50.9	290	21	2.3
2025-07-18T12:00	9200	313	-37.8	-50.7	290	21	2.3
2025-07-18T12:00	9220	313	-37.9	-51.1	290	21	2.3
2025-07-18T12:00	9240	312	-38.0	-51.5	289	21	2.3
2025-07-18T12:00	9260	311	-38.2	-51.5	289	21	2.2
2025-07-18T12:00	9280	310	-38.5	-51.5	289	21	2.2
2025-07-18T12:00	9300	309	-38.6	-51.4	288	21	2.2
2025-07-18T12:00	9320	308	-38.8	-51.5	288	21	2.2
2025-07-18T12:00	9340	307	-39.0	-51.7	288	21	2.2
2025-07-18T12:00	9360	306	-39.2	-51.7	288	21	2.2
2025-07-18T12:00	9380	306	-39.4	-51.6	288	21	2.1
2025-07-18T12:00	9400	305	-39.6	-51.5	288	21	2.2
2025-07-18T12:00	9420	304	-39.7	-51.7	288	21	2.2
2025-07-18T12:00	9440	303	-39.9	-51.8	288	21	2.2
2025-07-18T12:00	9460	302	-40.1	-51.7	288	21	2.1
2025-07-18T12:00	9480	301	-40.4	-51.6	288	22	2.1
2025-07-18T12:00	9500	300	-40.6	-51.6	288	22	2.1
2025-07-18T12:00	9520	299	-40.7	-51.9	288	22	2.1
2025-07-18T12:00	9540	298	-40.8	-52.2	288	22	2.1
2025-07-18T12:00	9560	297	-41.0	-52.5	288	22	2.1
2025-07-18T12:00	9580	297	-41.2	-52.8	288	22	2.1
2025-07-18T12:00	9600	296	-41.4	-52.8	288	22	2.1
2025-07-18T12:00	9620	295	-41.6	-52.6	288	22	2.1
2025-07-18T12:00	9640	294	-41.7	-52.8	288	22	2.1
2025-07-18T12:00	9660	293	-41.9	-53.0	287	23	2.1
2025-07-18T12:00	9680	292	-42.0	-52.9	287	23	2.1
2025-07-18T12:00	9700	291	-42.2	-52.8	287	22	2.1
2025-07-18T12:00	9720	290	-42.4	-53.2	286	23	2.0
2025-07-18T12:00	9740	290	-42.6	-53.7	286	23	2.0
2025-07-18T12:00	9760	289	-42.7	-53.8	285	23	2.0
2025-07-18T12:00	9780	288	-42.9	-53.7	285	23	2.0
2025-07-18T12:00	9800	287	-43.0	-53.6	285	23	2.0
2025-07-18T12:00	9820	286	-43.3	-53.8	285	23	2.0
2025-07-18T12:00	9840	285	-43.5	-54.0	285	23	2.0
2025-07-18T12:00	9860	285	-43.6	-54.5	286	24	2.0
2025-07-18T12:00	9880	284	-43.7	-55.1	286	24	2.1
2025-07-18T12:00	9900	283	-43.8	-55.3	287	24	2.1
2025-07-18T12:00	9920	282	-44.0	-55.1	287	24	2.2
2025-07-18T12:00	9940	281	-44.2	-54.8	287	25	2.2
2025-07-18T12:00	9960	280	-44.3	-55.0	287	25	2.2
2025-07-18T12:00	9980	280	-44.5	-55.3	287	25	2.3
2025-07-18T12:00	10000	279	-44.6	-55.4	287	25	2.3
2025-07-18T12:00	10018	278	-44.8	-55.4	288	26	2.3
2025-07-18T12:00	10050	277	-45.1	-55.3	288	26	2.3
2025-07-18T12:00	10100	275	-45.6	-55.4	289	26	2.3
2025-07-18T12:00	10150	272	-46.1	-55.8	290	26	2.4
2025-07-18T12:00	10200	270	-46.4	-56.6	290	26	2.4
2025-07-18T12:00	10250	268	-46.8	-57.9	290	25	2.5
2025-07-18T12:00	10300	266	-47.1	-59.1	289	25	2.7
2025-07-18T12:00	10350	264	-47.4	-59.3	289	25	2.8
2025-07-18T12:00	10400	262	-47.7	-59.3	288	25	2.9
2025-07-18T12:00	10450	260	-48.0	-59.1	289	25	2.9
2025-07-18T12:00	10500	258	-48.5	-58.3	289	25	2.9
2025-07-18T12:00	10550	256	-48.8	-58.9	289	25	2.8
2025-07-18T12:00	10600	254	-49.3	-59.0	289	26	2.9
2025-07-18T12:00	10650	252	-49.7	-59.1	290	26	2.9
2025-07-18T12:00	10700	251	-50.0	-58.6	290	26	2.9
2025-07-18T12:00	10750	249	-50.3	-59.2	290	27	3.0
2025-07-18T12:00	10800	247	-50.4	-61.1	291	27	3.2
2025-07-18T12:00	10850	245	-50.6	-62.5	291	28	3.5
2025-07-18T12:00	10900	243	-50.6	-62.7	292	29	3.9
2025-07-18T12:00	10950	241	-50.9	-62.5	293	30	4.3
2025-07-18T12:00	11000	239	-51.0	-63.3	293	31	4.5
2025-07-18T12:00	11050	238	-50.8	-64.4	294	32	4.7
2025-07-18T12:00	11100	236	-50.8	-64.9	294	32	4.9
2025-07-18T12:00	11150	234	-50.5	-66.2	294	33	5.1
2025-07-18T12:00	11200	232	-50.3	-67.7	293	33	5.3
2025-07-18T12:00	11250	230	-50.2	-68.6	293	34	5.6
2025-07-18T12:00	11300	229	-49.9	-69.1	294	34	5.9
2025-07-18T12:00	11350	227	-49.9	-68.4	294	34	6.0
2025-07-18T12:00	11400	225	-50.0	-68.4	296	34	6.1
2025-07-18T12:00	11450	223	-50.4	-68.0	296	34	6.1
2025-07-18T12:00	11500	222	-50.8	-67.7	297	33	6.0
2025-07-18T12:00	11550	220	-51.1	-67.5	296	32	5.9
2025-07-18T12:00	11600	218	-51.1	-68.7	294	31	5.8
2025-07-18T12:00	11650	217	-51.0	-69.9	292	30	5.8
2025-07-18T12:00	11700	215	-50.8	-70.5	290	29	5.7
2025-07-18T12:00	11750	213	-50.9	-69.9	288	29	5.7
2025-07-18T12:00	11800	212	-51.0	-69.8	287	29	5.6
2025-07-18T12:00	11850	210	-51.1	-70.3	286	28	5.5
2025-07-18T12:00	11900	208	-51.2	-70.7	285	27	5.5
2025-07-18T12:00	11950	207	-50.9	-71.7	284	26	5.4
2025-07-18T12:00	12000	205	-50.7	-72.2	284	25	5.3
2025-07-18T12:00	12050	204	-50.9	-72.4	282	24	5.2
2025-07-18T12:00	12100	202	-51.2	-72.9	280	24	5.1
2025-07-18T12:00	12150	201	-51.1	-73.4	278	25	5.2
2025-07-18T12:00	12200	199	-51.2	-74.0	276	25	5.3
2025-07-18T12:00	12250	198	-51.2	-74.3	276	26	5.5
2025-07-18T12:00	12300	196	-51.6	-74.4	277	26	5.6
2025-07-18T12:00	12350	194	-51.8	-74.7	279	27	5.7
2025-07-18T12:00	12400	193	-51.7	-75.2	281	27	5.8
2025-07-18T12:00	12450	192	-51.1	-75.7	282	27	5.9
2025-07-18T12:00	12500	190	-50.9	-76.0	281	28	5.9
2025-07-18T12:00	12550	189	-51.0	-76.1	280	29	5.9
2025-07-18T12:00	12600	187	-51.1	-76.3	280	29	5.8
2025-07-18T12:00	12650	186	-51.1	-76.4	280	30	5.9
2025-07-18T12:00	12700	184	-51.4	-76.5	280	30	5.8
2025-07-18T12:00	12750	183	-51.7	-76.7	282	30	5.8
2025-07-18T12:00	12800	181	-51.9	-77.2	283	29	5.7
2025-07-18T12:00	12850	180	-51.7	-77.6	284	28	5.6
2025-07-18T12:00	12900	179	-52.1	-77.9	285	27	5.6
2025-07-18T12:00	12950	177	-52.3	-78.2	286	26	5.6
2025-07-18T12:00	13000	176	-52.3	-78.5	286	25	5.5
2025-07-18T12:00	13050	175	-52.3	-78.7	286	23	5.3
2025-07-18T12:00	13100	173	-52.4	-78.7	285	22	5.1
2025-07-18T12:00	13150	172	-52.5	-78.6	285	21	4.8
2025-07-18T12:00	13200	171	-52.6	-78.6	286	20	4.6
2025-07-18T12:00	13250	169	-52.5	-78.6	287	20	4.5
2025-07-18T12:00	13300	168	-52.7	-78.8	287	19	4.5
2025-07-18T12:00	13350	167	-52.8	-78.5	286	18	4.4
2025-07-18T12:00	13400	165	-53.0	-78.2	283	17	4.4
2025-07-18T12:00	13450	164	-53.3	-77.9	280	17	4.2
2025-07-18T12:00	13500	163	-53.7	-77.8	277	18	4.0
2025-07-18T12:00	13550	162	-54.0	-77.8	274	18	3.9
2025-07-18T12:00	13600	160	-54.4	-78.0	272	19	3.7
2025-07-18T12:00	13650	159	-54.5	-78.6	271	19	3.6
2025-07-18T12:00	13700	158	-54.3	-79.8	271	19	3.5
2025-07-18T12:00	13750	157	-53.9	-80.8	271	18	3.5
2025-07-18T12:00	13800	155	-54.0	-81.7	271	17	3.6
2025-07-18T12:00	13850	154	-54.0	-81.9	269	17	3.9
2025-07-18T12:00	13900	153	-54.3	-81.9	268	17	4.1
2025-07-18T12:00	13950	152	-54.4	-82.1	267	18	4.4
2025-07-18T12:00	14000	151	-54.5	-82.1	267	19	4.6
2025-07-18T12:00	14050	149	-54.8	-82.1	267	20	4.8
2025-07-18T12:00	14100	148	-55.1	-82.2	266	22	5.0
2025-07-18T12:00	14150	147	-55.2	-82.5	265	22	5.1
2025-07-18T12:00	14200	146	-55.4	-82.7	265	23	5.1
2025-07-18T12:00	14250	145	-55.8	-82.9	265	23	5.3
2025-07-18T12:00	14300	144	-55.9	-83.1	266	22	5.4
2025-07-18T12:00	14350	143	-55.4	-83.1	268	21	5.6
2025-07-18T12:00	14400	141	-55.2	-83.1	270	20	5.9
2025-07-18T12:00	14450	140	-55.3	-83.3	271	20	5.9
2025-07-18T12:00	14500	139	-55.4	-83.4	271	19	6.0
2025-07-18T12:00	14550	138	-55.2	-83.6	269	18	6.0
2025-07-18T12:00	14600	137	-55.0	-83.5	265	17	6.1
2025-07-18T12:00	14650	136	-54.9	-83.4	262	17	6.1
2025-07-18T12:00	14700	135	-54.9	-83.6	260	17	6.2
2025-07-18T12:00	14750	134	-54.6	-83.6	261	18	6.2
2025-07-18T12:00	14800	133	-54.5	-83.5	262	18	6.3
2025-07-18T12:00	14850	132	-54.5	-83.2	263	17	6.1
2025-07-18T12:00	14900	131	-54.3	-82.9	261	18	5.4
2025-07-18T12:00	14950	130	-53.7	-82.6	260	18	4.7
2025-07-18T12:00	15000	129	-54.0	-82.8	261	19	4.4
2025-07-18T12:00	15050	128	-54.4	-82.9	258	20	4.2
2025-07-18T12:00	15100	127	-54.7	-82.9	255	20	4.2
2025-07-18T12:00	15150	126	-54.8	-83.2	256	20	4.2
2025-07-18T12:00	15200	125	-54.4	-83.2	260	19	4.2
2025-07-18T12:00	15250	124	-54.3	-83.3	265	17	4.2
2025-07-18T12:00	15300	123	-54.2	-83.5	270	16	4.3
2025-07-18T12:00	15350	122	-53.5	-83.3	275	15	4.4
2025-07-18T12:00	15400	121	-53.5	-83.4	279	13	4.4
2025-07-18T12:00	15450	120	-53.5	-83.5	282	11	4.5
2025-07-18T12:00	15500	119	-53.8	-83.6	285	9	4.5
2025-07-18T12:00	15550	118	-54.1	-83.5	287	9	4.5
2025-07-18T12:00	15600	117	-54.4	-83.5	285	9	4.5
2025-07-18T12:00	15650	116	-54.7	-83.6	283	9	4.5
2025-07-18T12:00	15700	115	-55.2	-83.7	279	9	4.5
2025-07-18T12:00	15750	115	-55.6	-83.8	273	8	4.5
2025-07-18T12:00	15800	114	-56.0	-83.9	264	8	4.5
2025-07-18T12:00	15850	113	-56.1	-84.2	256	9	4.4
2025-07-18T12:00	15900	112	-56.0	-84.2	251	10	4.4
2025-07-18T12:00	15950	111	-56.1	-84.3	248	11	4.4
2025-07-18T12:00	16000	110	-56.5	-84.3	247	11	4.3
2025-07-18T12:00	16050	109	-56.8	-84.5	249	12	4.2
2025-07-18T12:00	16100	108	-57.1	-84.6	250	12	4.1
2025-07-18T12:00	16150	108	-57.3	-84.7	252	12	4.0
2025-07-18T12:00	16200	107	-57.6	-84.9	255	11	4.0
2025-07-18T12:00	16250	106	-57.6	-85.0	260	11	4.0
2025-07-18T12:00	16300	105	-57.4	-85.0	264	10	4.1
2025-07-18T12:00	16350	104	-57.6	-85.0	267	10	4.1
2025-07-18T12:00	16400	103	-57.8	-85.1	268	10	4.1
2025-07-18T12:00	16450	103	-57.8	-85.3	268	10	4.2
2025-07-18T12:00	16500	102	-57.4	-85.3	268	10	4.5
2025-07-18T12:00	16550	101	-57.3	-85.3	268	10	4.8
2025-07-18T12:00	16600	100	-57.5	-85.3	270	10	4.9
2025-07-18T12:00	16650	99	-57.9	-85.4	273	10	5.0
2025-07-18T12:00	16700	99	-58.1	-85.5	276	10	5.1
2025-07-18T12:00	16750	98	-57.9	-85.6	276	9	5.1
2025-07-18T12:00	16800	97	-57.9	-85.7	275	8	5.1
2025-07-18T12:00	16850	96	-58.2	-85.7	275	7	5.1
2025-07-18T12:00	16900	96	-58.3	-85.7	273	6	5.1
2025-07-18T12:00	16950	95	-58.4	-85.7	264	5	5.2
2025-07-18T12:00	17000	94	-58.7	-85.9	255	6	5.2
2025-07-18T12:00	17050	93	-58.7	-86.2	256	6	5.2
2025-07-18T12:00	17100	93	-58.1	-86.2	260	7	5.4
2025-07-18T12:00	17150	92	-57.5	-86.1	260	7	5.5
2025-07-18T12:00	17200	91	-57.4	-86.0	255	6	5.5
2025-07-18T12:00	17250	90	-57.5	-85.9	246	5	5.6
2025-07-18T12:00	17300	90	-57.7	-86.0	238	6	5.6
2025-07-18T12:00	17350	89	-57.7	-86.0	238	6	5.7
2025-07-18T12:00	17400	88	-57.6	-86.2	239	7	5.7
2025-07-18T12:00	17450	88	-57.2	-86.3	242	7	5.9
2025-07-18T12:00	17500	87	-56.6	-86.1	246	6	6.4
2025-07-18T12:00	17550	86	-56.4	-86.0	249	5	6.8
2025-07-18T12:00	17600	85	-56.6	-86.1	252	4	7.2
2025-07-18T12:00	17650	85	-56.0	-85.9	263	2	7.4
2025-07-18T12:00	17700	84	-55.6	-85.8	290	1	7.5
2025-07-18T12:00	17750	83	-55.6	-85.7	324	1	7.5
2025-07-18T12:00	17800	83	-55.7	-85.7	85	1	7.5
2025-07-18T12:00	17850	82	-56.1	-85.7	154	2	7.2
2025-07-18T12:00	17900	82	-56.5	-85.7	177	3	6.9
2025-07-18T12:00	17950	81	-56.8	-85.9	190	4	6.7
2025-07-18T12:00	18000	80	-57.0	-86.0	198	5	6.5
2025-07-18T12:00	18050	80	-57.3	-86.2	202	5	6.3
2025-07-18T12:00	18100	79	-57.4	-86.3	202	5	6.1
2025-07-18T12:00	18150	78	-57.3	-86.2	200	5	6.0
2025-07-18T12:00	18200	78	-57.4	-86.3	202	5	5.9
2025-07-18T12:00	18250	77	-57.3	-86.3	211	6	5.9
2025-07-18T12:00	18300	77	-57.5	-86.4	225	7	6.0
2025-07-18T12:00	18350	76	-57.4	-86.5	240	7	6.2
2025-07-18T12:00	18400	75	-56.8	-86.5	247	6	6.5
2025-07-18T12:00	18450	75	-56.3	-86.5	242	5	7.0
2025-07-18T12:00	18500	74	-55.9	-86.3	228	5	7.5
2025-07-18T12:00	18550	74	-55.6	-86.1	215	5	8.0
2025-07-18T12:00	18600	73	-55.6	-85.9	206	4	8.3
2025-07-18T12:00	18650	72	-55.8	-85.8	201	2	8.5
2025-07-18T12:00	18700	72	-56.1	-85.9	182	1	8.7
2025-07-18T12:00	18750	71	-56.5	-86.0	109	1	8.7
2025-07-18T12:00	18800	71	-56.7	-86.1	22	1	8.8
2025-07-18T12:00	18850	70	-56.9	-86.2	8	2	8.9
2025-07-18T12:00	18900	70	-56.9	-86.3	24	2	8.9
2025-07-18T12:00	18950	69	-56.8	-86.4	79	2	8.9
2025-07-18T12:00	19000	69	-56.6	-86.3	134	2	8.9
2025-07-18T12:00	19050	68	-56.7	-86.3	165	3	9.2
2025-07-18T12:00	19100	67	-56.6	-86.4	183	4	9.1
2025-07-18T12:00	19150	67	-56.6	-86.4	196	3	9.1
2025-07-18T12:00	19200	66	-56.7	-86.4	211	3	9.0
2025-07-18T12:00	19250	66	-56.8	-86.4	227	3	8.8
2025-07-18T12:00	19300	65	-56.6	-86.4	246	2	8.7
2025-07-18T12:00	19350	65	-56.6	-86.5	254	3	8.5
2025-07-18T12:00	19400	64	-56.7	-86.5	246	3	8.5
2025-07-18T12:00	19450	64	-56.6	-86.5	238	3	8.3
2025-07-18T12:00	19500	63	-56.5	-86.6	227	2	8.3
2025-07-18T12:00	19550	63	-56.4	-86.6	201	1	8.2
2025-07-18T12:00	19600	62	-56.4	-86.6	164	1	8.3
2025-07-18T12:00	19650	62	-56.3	-86.5	124	1	8.5
2025-07-18T12:00	19700	61	-56.3	-86.5	105	2	8.7
2025-07-18T12:00	19750	61	-56.2	-86.6	112	3	8.7
2025-07-18T12:00	19800	60	-56.0	-86.8	126	5	8.6
2025-07-18T12:00	19850	60	-55.6	-86.6	137	6	8.7
2025-07-18T12:00	19900	59	-55.6	-86.4	147	7	8.8
2025-07-18T12:00	19950	59	-55.8	-86.3	154	8	8.8
2025-07-18T12:00	20000	59	-56.1	-86.3	162	7	8.9
2025-07-18T12:00	20050	58	-56.4		172	7	8.9
2025-07-18T12:00	20100	58	-56.4		182	7	9.0
2025-07-18T12:00	20150	57	-56.4		189	7	9.1
2025-07-18T12:00	20200	57	-56.7		196	8	9.1
2025-07-18T12:00	20250	56	-56.6		205	7	9.2
2025-07-18T12:00	20300	56	-56.6		216	6	9.3
2025-07-18T12:00	20350	55	-56.6		228	4	9.3
2025-07-18T12:00	20400	55	-56.6		239	3	9.3
2025-07-18T12:00	20450	55	-56.4		242	2	9.4
2025-07-18T12:00	20500	54	-55.9		200	1	9.5
2025-07-18T12:00	20550	54	-55.7		177	1	9.7
2025-07-18T12:00	20600	53	-55.8		169	2	9.9
2025-07-18T12:00	20650	53	-55.7		154	2	10.1
2025-07-18T12:00	20700	52	-55.6		145	3	10.2
2025-07-18T12:00	20750	52	-55.5		146	3	10.4
2025-07-18T12:00	20800	52	-55.3		161	2	10.5
2025-07-18T12:00	20850	51	-55.1		186	2	10.6
2025-07-18T12:00	20900	51	-54.9		213	2	10.7
2025-07-18T12:00	20950	50	-54.7		226	3	10.8
2025-07-18T12:00	21000	50	-54.6		232	3	10.9
2025-07-18T12:00	21050	50	-54.7		239	3	10.9
2025-07-18T12:00	21100	49	-54.7		245	3	11.1
2025-07-18T12:00	21150	49	-54.8		242	3	11.1
2025-07-18T12:00	21200	48	-54.9		213	2	11.1
2025-07-18T12:00	21250	48	-54.6		166	2	11.2
2025-07-18T12:00	21300	48	-54.4		138	1	11.4
2025-07-18T12:00	21350	47	-53.7		88	2	11.4
2025-07-18T12:00	21400	47	-53.4		66	3	11.6
2025-07-18T12:00	21450	47	-53.3		64	4	11.8
2025-07-18T12:00	21500	46	-53.2		71	6	11.9
2025-07-18T12:00	21550	46	-53.4		83	6	12.1
2025-07-18T12:00	21600	46	-53.6		97	7	12.2
2025-07-18T12:00	21650	45	-53.6		108	7	12.2
2025-07-18T12:00	21700	45	-53.5		114	8	12.3
2025-07-18T12:00	21750	45	-53.4		119	8	12.5
2025-07-18T12:00	21800	44	-53.2		125	6	12.5
2025-07-18T12:00	21850	44	-52.9		130	5	12.7
2025-07-18T12:00	21900	43	-52.8		123	5	12.8
2025-07-18T12:00	21950	43	-52.5		112	6	12.9
2025-07-18T12:00	22000	43	-52.4		111	7	12.9
2025-07-18T12:00	22050	42	-52.1		115	7	13.0
2025-07-18T12:00	22100	42	-52.0		117	8	13.2
2025-07-18T12:00	22150	42	-52.0		118	8	13.2
2025-07-18T12:00	22200	42	-52.0		120	9	13.3
2025-07-18T12:00	22250	41	-52.0		121	9	13.4
2025-07-18T12:00	22300	41	-52.0		122	9	13.3
2025-07-18T12:00	22350	41	-51.9		124	9	13.3
2025-07-18T12:00	22400	40	-51.8		124	9	13.2
2025-07-18T12:00	22450	40	-51.8		122	8	13.1
2025-07-18T12:00	22500	40	-51.7		123	8	13.0
2025-07-18T12:00	22550	39	-51.8		127	7	12.9
2025-07-18T12:00	22600	39	-51.9		127	7	12.8
2025-07-18T12:00	22650	39	-52.0		127	6	12.6
2025-07-18T12:00	22700	38	-52.2		127	5	12.4
2025-07-18T12:00	22750	38	-52.6		117	4	12.3
2025-07-18T12:00	22800	38	-52.7		93	3	12.2
2025-07-18T12:00	22850	38	-52.6		75	4	12.1
2025-07-18T12:00	22900	37	-52.6		73	6	12.0
2025-07-18T12:00	22950	37	-52.6		79	7	11.9
2025-07-18T12:00	23000	37	-52.7		86	8	11.9
2025-07-18T12:00	23050	36	-53.1		92	9	11.9
2025-07-18T12:00	23100	36	-53.4		98	10	11.9
2025-07-18T12:00	23150	36	-53.5		104	11	11.9
2025-07-18T12:00	23200	36	-53.4		109	11	11.9
2025-07-18T12:00	23250	35	-53.2		113	10	11.9
2025-07-18T12:00	23300	35	-53.0		117	10	11.9
2025-07-18T12:00	23350	35	-52.8		120	9	12.0
2025-07-18T12:00	23400	34	-52.5		120	9	12.1
2025-07-18T12:00	23450	34	-52.3		115	8	12.0
2025-07-18T12:00	23500	34	-52.0		107	8	12.0
2025-07-18T12:00	23550	34	-51.9		103	9	12.0
2025-07-18T12:00	23600	33	-51.9		106	10	11.9
2025-07-18T12:00	23650	33	-51.5		112	12	11.8
2025-07-18T12:00	23700	33	-51.6		118	13	11.8
2025-07-18T12:00	23750	33	-51.8		123	13	11.9
2025-07-18T12:00	23800	32	-51.8		127	13	11.8
2025-07-18T12:00	23850	32	-51.6		130	12	12.0
2025-07-18T12:00	23900	32	-51.7		133	12	12.1
2025-07-18T12:00	23950	32	-51.7		136	12	12.1
2025-07-18T12:00	24000	31	-51.7		137	11	12.1
2025-07-18T12:00	24050	31	-51.7		135	10	12.0
2025-07-18T12:00	24100	31	-51.3		129	8	12.0
2025-07-18T12:00	24150	31	-50.8		123	7	12.1
2025-07-18T12:00	24200	30	-50.4		117	7	12.2
2025-07-18T12:00	24250	30	-50.1		115	7	12.2
2025-07-18T12:00	24300	30	-50.1		119	7	12.2
2025-07-18T12:00	24350	30	-50.3		121	7	12.3
2025-07-18T12:00	24400	30	-50.2		118	7	12.3
2025-07-18T12:00	24450	29	-50.0		111	7	12.3
2025-07-18T12:00	24500	29	-50.0		106	8	12.4
2025-07-18T12:00	24550	29	-50.0		105	9	12.4
2025-07-18T12:00	24600	29	-49.8		108	10	12.5
2025-07-18T12:00	24650	28	-49.6		111	11	12.7
2025-07-18T12:00	24700	28	-49.5		112	11	12.8
2025-07-18T12:00	24750	28	-49.1		114	10	13.0
2025-07-18T12:00	24800	28	-48.8		119	10	13.3
2025-07-18T12:00	24850	28	-48.4		125	10	13.6
2025-07-18T12:00	24900	27	-48.2		131	10	13.7
2025-07-18T12:00	24950	27	-48.2		135	10	13.7
2025-07-18T12:00	25000	27	-48.1		133	9	13.6
2025-07-18T12:00	25050	27	-47.9		127	9	13.7
2025-07-18T12:00	25100	27	-48.0		122	9	13.6
2025-07-18T12:00	25150	26	-47.9		123	8	13.5
2025-07-18T12:00	25200	26	-47.7		127	8	13.5
2025-07-18T12:00	25250	26	-47.9		132	8	13.5
2025-07-18T12:00	25300	26	-48.0		136	8	13.5
2025-07-18T12:00	25350	26	-47.9		140	8	13.4
2025-07-18T12:00	25400	25	-47.8		146	7	13.3
2025-07-18T12:00	25450	25	-47.8		151	7	13.3
2025-07-18T12:00	25500	25	-47.8		155	5	13.3
2025-07-18T12:00	25550	25	-47.6		152	4	13.2
2025-07-18T12:00	25600	25	-47.4		133	3	13.2
2025-07-18T12:00	25650	24	-47.4		102	3	13.2
2025-07-18T12:00	25700	24	-47.1		81	3	13.2
2025-07-18T12:00	25750	24	-46.9		73	3	13.3
2025-07-18T12:00	25800	24	-46.8		73	4	13.1
2025-07-18T12:00	25850	24	-46.7		75	5	13.1
2025-07-18T12:00	25900	24	-46.7		77	7	13.1
2025-07-18T12:00	25950	23	-46.7		82	7	13.1
2025-07-18T12:00	26000	23	-46.5		88	7	13.1
2025-07-18T12:00	26050	23	-46.1		94	7	13.2
2025-07-18T12:00	26100	23	-46.0		98	6	13.0
2025-07-18T12:00	26150	23	-45.9		94	6	13.0
2025-07-18T12:00	26200	22	-45.5		82	6	13.0
2025-07-18T12:00	26250	22	-45.2		76	8	13.0
2025-07-18T12:00	26300	22	-45.1		77	9	13.1
2025-07-18T12:00	26350	22	-44.5		81	10	13.1
2025-07-18T12:00	26400	22	-44.2		84	10	13.2
2025-07-18T12:00	26450	22	-44.1		84	10	13.1
2025-07-18T12:00	26500	22	-44.2		83	9	13.0
2025-07-18T12:00	26550	21	-44.3		83	8	13.0
2025-07-18T12:00	26600	21	-44.2		86	7	12.8
2025-07-18T12:00	26650	21	-44.2		92	7	12.7
2025-07-18T12:00	26700	21	-44.3		95	7	12.5
2025-07-18T12:00	26750	21	-44.5		93	7	12.5
2025-07-18T12:00	26800	21	-44.5		92	9	12.4
2025-07-18T12:00	26850	20	-44.4		94	11	12.3
2025-07-18T12:00	26900	20	-44.5		97	12	12.3
2025-07-18T12:00	26950	20	-44.8		100	14	12.3
2025-07-18T12:00	27000	20	-45.0		102	15	12.2
2025-07-18T12:00	27050	20	-45.0		105	17	12.1
2025-07-18T12:00	27100	20	-45.0		107	17	12.0
2025-07-18T12:00	27150	20	-44.9		107	17	12.1
2025-07-18T12:00	27200	19	-45.0		107	16	12.0
2025-07-18T12:00	27250	19	-45.0		106	16	12.0
2025-07-18T12:00	27300	19	-44.9		107	16	11.9
2025-07-18T12:00	27350	19	-44.5		110	15	11.9
2025-07-18T12:00	27400	19	-44.2		114	14	11.9
2025-07-18T12:00	27450	19	-44.1		116	13	11.9
2025-07-18T12:00	27500	19	-44.1		115	12	11.9
2025-07-18T12:00	27550	18	-43.9		113	10	11.8
2025-07-18T12:00	27600	18	-43.6		109	10	11.8
2025-07-18T12:00	27650	18	-43.5		106	10	11.8
2025-07-18T12:00	27700	18	-43.3		101	10	11.8
2025-07-18T12:00	27750	18	-43.2		97	11	11.8
2025-07-18T12:00	27800	18	-43.1		94	12	11.7
2025-07-18T12:00	27850	18	-43.1		95	12	11.8
2025-07-18T12:00	27900	17	-43.0		99	13	11.6
2025-07-18T12:00	27950	17	-42.8		105	13	11.6
2025-07-18T12:00	28000	17	-42.6		109	12	11.5
2025-07-18T12:00	28050	17	-42.5		109	11	11.5
2025-07-18T12:00	28100	17	-42.2		105	11	11.6
2025-07-18T12:00	28150	17	-41.9		100	10	11.6
2025-07-18T12:00	28200	17	-41.9		94	10	11.5
2025-07-18T12:00	28250	17	-42.0		90	11	11.4
2025-07-18T12:00	28300	16	-42.0		89	11	11.3
2025-07-18T12:00	28350	16	-42.1		89	12	11.3
2025-07-18T12:00	28400	16	-42.0		89	13	11.3
2025-07-18T12:00	28450	16	-41.9		90	13	11.2
2025-07-18T12:00	28500	16	-41.9		94	13	11.3
2025-07-18T12:00	28550	16	-42.0		98	14	11.1
2025-07-18T12:00	28600	16	-42.1		100	14	11.0
2025-07-18T12:00	28650	16	-42.2		101	14	11.0
2025-07-18T12:00	28700	16	-42.2		102	14	10.9
2025-07-18T12:00	28750	15	-42.3		103	14	10.8
2025-07-18T12:00	28800	15	-42.3		105	14	10.8
2025-07-18T12:00	28850	15	-42.4		105	13	10.7
2025-07-18T12:00	28900	15	-42.5		106	12	10.8
2025-07-18T12:00	28950	15	-42.7		107	12	10.7
2025-07-18T12:00	29000	15	-42.9		109	12	10.5
2025-07-18T12:00	29050	15	-43.0		112	12	10.5
2025-07-18T12:00	29100	15	-43.1		116	12	10.5
2025-07-18T12:00	29150	15	-43.1		120	13	10.3
2025-07-18T12:00	29200	14	-43.1		124	13	10.3
2025-07-18T12:00	29250	14	-43.2		126	12	10.3
2025-07-18T12:00	29300	14	-42.7		124	11	10.2
2025-07-18T12:00	29350	14	-42.4		122	11	10.1
2025-07-18T12:00	29400	14	-42.3		122	12	10.1
2025-07-18T12:00	29450	14	-42.3		121	12	10.1
2025-07-18T12:00	29500	14	-42.2		121	12	10.0
2025-07-18T12:00	29550	14	-42.2		122	12	9.9
2025-07-18T12:00	29600	14	-42.2		123	11	9.8
2025-07-18T12:00	29650	13	-42.1		119	9	9.8
2025-07-18T12:00	29700	13	-41.8		108	8	9.7
2025-07-18T12:00	29750	13	-41.5		94	7	9.7
2025-07-18T12:00	29800	13	-41.2		82	8	9.6
2025-07-18T12:00	29850	13	-40.8		77	8	9.6
2025-07-18T12:00	29900	13	-40.5		80	8	9.5
2025-07-18T12:00	29950	13	-40.4		89	8	9.5
2025-07-18T12:00	30000	13	-40.5		101	9	9.4
2025-07-18T12:00	30050	13	-40.6		111	10	9.3
2025-07-18T12:00	30100	13	-40.6		118	11	9.3
2025-07-18T12:00	30150	13	-40.6		121	12	9.2
2025-07-18T12:00	30200	12	-40.3		118	11	9.1
2025-07-18T12:00	30250	12	-40.0		111	10	9.0
2025-07-18T12:00	30300	12	-39.9		103	8	8.9
2025-07-18T12:00	30350	12	-39.9		96	8	8.8
2025-07-18T12:00	30400	12	-39.9		94	8	8.7
2025-07-18T12:00	30450	12	-39.8		95	8	8.7
2025-07-18T12:00	30500	12	-39.7		92	9	8.6
2025-07-18T12:00	30550	12	-39.5		84	10	8.5
2025-07-18T12:00	30600	12	-39.4		76	11	8.5
2025-07-18T12:00	30650	12	-39.4		69	11	8.4
2025-07-18T12:00	30700	12	-39.2		66	12	8.4
2025-07-18T12:00	30750	11	-39.0		69	13	8.3
2025-07-18T12:00	30800	11	-38.7		76	13	8.3
2025-07-18T12:00	30850	11	-38.7		85	13	8.3
2025-07-18T12:00	30900	11	-39.0		94	13	8.2
2025-07-18T12:00	30950	11	-39.2		104	13	8.1
2025-07-18T12:00	31000	11	-39.3		112	14	8.0
2025-07-18T12:00	31050	11	-39.4		116	14	7.9
2025-07-18T12:00	31100	11	-39.3		117	14	7.9
2025-07-18T12:00	31150	11	-38.9		114	14	7.8
2025-07-18T12:00	31200	11	-38.3		107	14	7.8
2025-07-18T12:00	31250	11	-37.8		98	14	7.7
2025-07-18T12:00	31300	11	-37.5		92	15	7.7
2025-07-18T12:00	31350	11	-37.2		89	17	7.6
2025-07-18T12:00	31400	10	-37.1		88	18	7.6
2025-07-18T12:00	31450	10	-36.9		90	20	7.6
2025-07-18T12:00	31500	10	-37.0		92	20	7.5
2025-07-18T12:00	31550	10	-37.1		95	20	7.4
2025-07-18T12:00	31600	10	-37.4		98	19	7.3
2025-07-18T12:00	31650	10	-37.5		102	19	7.3
2025-07-18T12:00	31700	10	-37.5		104	18	7.3
2025-07-18T12:00	31750	10	-37.5		105	17	7.2
2025-07-18T12:00	31800	10	-37.5		102	17	7.2
2025-07-18T12:00	31850	10	-37.1		97	17	7.1
2025-07-18T12:00	31900	10	-36.7		93	18	7.1
2025-07-18T12:00	31950	10	-36.5		92	19	7.0
2025-07-18T12:00	32000	10	-36.4		91	19	7.0
2025-07-18T12:00	32050	9	-36.5		91	19	7.0
2025-07-18T12:00	32100	9	-36.5		90	20	6.9
2025-07-18T12:00	32150	9	-36.5		91	19	6.8
2025-07-18T12:00	32200	9	-36.4		94	19	6.7
2025-07-18T12:00	32250	9	-36.6		99	19	6.7
2025-07-18T12:00	32300	9	-36.6		103	20	6.6
2025-07-18T12:00	32350	9	-36.6		105	20	6.6
2025-07-18T12:00	32400	9	-36.5		104	19	6.5
2025-07-18T12:00	32450	9	-36.4		101	18	6.5
2025-07-18T12:00	32500	9	-36.0		100	17	6.4
2025-07-18T12:00	32550	9	-35.5		103	16	6.4
2025-07-18T12:00	32600	9	-35.5		107	15	6.4
2025-07-18T12:00	32650	9	-35.6		110	15	6.3
2025-07-18T12:00	32700	9	-35.7		109	15	6.3
2025-07-18T12:00	32750	9	-35.5		102	16	6.2
2025-07-18T12:00	32800	9	-35.4		95	17	6.2
2025-07-18T12:00	32850	8	-35.4		90	19	6.1
2025-07-18T12:00	32900	8	-35.3		86	21	6.0
2025-07-18T12:00	32950	8	-35.2		84	22	6.0
2025-07-18T12:00	33000	8	-35.3		87	23	5.9
2025-07-18T12:00	33050	8	-35.2		91	23	5.9
2025-07-18T12:00	33100	8	-35.2		94	21	5.8
2025-07-18T12:00	33150	8	-35.1		97	20	5.7
2025-07-18T12:00	33200	8	-35.2		101	19	5.7
2025-07-18T12:00	33250	8	-35.1		104	17	5.6
2025-07-18T12:00	33300	8	-34.6		104	17	5.6
2025-07-18T12:00	33350	8	-34.1		100	17	5.5
2025-07-18T12:00	33400	8	-33.7		97	17	5.5
2025-07-18T12:00	33450	8	-33.3		96	17	5.6
2025-07-18T12:00	33500	8	-33.0		100	16	5.6
2025-07-18T12:00	33550	8	-33.0		104	16	5.5
2025-07-18T12:00	33600	8	-33.1		106	16	5.4
2025-07-18T12:00	33650	8	-33.2		104	15	5.3
2025-07-18T12:00	33700	7	-33.0		101	14	5.3
2025-07-18T12:00	33750	7	-32.8		101	14	5.2
2025-07-18T12:00	33800	7	-32.7		102	15	5.2
2025-07-18T12:00	33850	7	-32.4		101	15	5.2
2025-07-18T12:00	33900	7	-32.2		98	16	5.1
2025-07-18T12:00	33950	7	-31.8		95	17	5.1
2025-07-18T12:00	34000	7	-31.4		97	19	5.0
2025-07-18T12:00	34050	7	-31.0		101	19	5.0
2025-07-18T12:00	34100	7	-30.7		103	19	4.9
2025-07-18T12:00	34150	7	-30.7		104	19	4.9
2025-07-18T12:00	34200	7	-30.8		108	18	4.9
2025-07-18T12:00	34250	7	-31.0		112	17	4.8
2025-07-18T12:00	34300	7	-31.3		112	17	4.8
2025-07-18T12:00	34350	7	-31.2		104	16	4.7
2025-07-18T12:00	34400	7	-30.6		96	17	4.7
2025-07-18T12:00	34450	7	-30.1		93	18	4.6
2025-07-18T12:00	34500	7	-29.5		95	18	4.6
2025-07-18T12:00	34550	7	-28.9		100	18	4.5
2025-07-18T12:00	34600	7	-28.5		102	18	4.4
2025-07-18T12:00	34650	7	-28.2		101	17	
2025-07-19T00:00	491	955	19.3	15.4	232	1	
2025-07-19T00:00	501	954	20.0	14.9	59	0	
2025-07-19T00:00	520	952	20.4	14.4	60	1	
2025-07-19T00:00	540	950	21.2	13.2	63	1	
2025-07-19T00:00	560	948	21.5	13.0	63	2	
2025-07-19T00:00	580	946	21.4	12.8	62	2	
2025-07-19T00:00	600	943	21.7	12.2	60	3	
2025-07-19T00:00	620	941	22.1	11.7	57	3	
2025-07-19T00:00	640	939	22.3	11.6	53	3	
2025-07-19T00:00	660	937	22.3	11.6	49	3	
2025-07-19T00:00	680	935	22.2	11.7	46	3	
2025-07-19T00:00	700	932	22.0	11.7	43	4	
2025-07-19T00:00	720	930	21.8	11.6	43	4	
2025-07-19T00:00	740	928	21.7	11.7	44	4	
2025-07-19T00:00	760	926	21.7	11.6	47	4	
2025-07-19T00:00	780	924	21.7	11.6	50	4	
2025-07-19T00:00	800	922	21.5	11.6	55	4	
2025-07-19T00:00	820	920	21.4	11.6	60	4	
2025-07-19T00:00	840	918	21.2	11.6	63	3	
2025-07-19T00:00	860	916	21.2	11.5	67	3	
2025-07-19T00:00	880	913	22.0	10.6	70	3	
2025-07-19T00:00	900	911	22.1	10.2	73	3	
2025-07-19T00:00	920	909	22.2	9.8	75	3	
2025-07-19T00:00	940	907	22.2	9.6	78	3	
2025-07-19T00:00	960	905	22.1	9.5	80	3	
2025-07-19T00:00	980	903	22.0	9.4	82	3	
2025-07-19T00:00	1000	901	21.9	9.2	84	3	
2025-07-19T00:00	1020	899	21.9	9.3	85	3	
2025-07-19T00:00	1040	897	21.7	9.1	85	3	
2025-07-19T00:00	1060	895	21.5	9.1	85	3	
2025-07-19T00:00	1080	893	21.3	9.0	83	3	
2025-07-19T00:00	1100	890	21.2	9.0	81	3	
2025-07-19T00:00	1120	889	21.1	9.0	78	3	
2025-07-19T00:00	1140	887	20.9	9.2	75	3	
2025-07-19T00:00	1160	884	20.8	9.4	71	3	
2025-07-19T00:00	1180	882	20.6	9.5	69	3	
2025-07-19T00:00	1200	880	20.5	9.4	68	3	
2025-07-19T00:00	1220	878	20.3	9.4	69	3	
2025-07-19T00:00	1240	876	20.2	9.4	72	3	
2025-07-19T00:00	1260	874	20.0	9.3	77	3	
2025-07-19T00:00	1280	872	19.8	9.2	83	3	
2025-07-19T00:00	1300	870	19.6	9.1	89	2	
2025-07-19T00:00	1320	868	19.5	9.0	96	2	
2025-07-19T00:00	1340	866	19.4	8.9	103	2	
2025-07-19T00:00	1360	864	19.3	8.9	111	2	
2025-07-19T00:00	1380	862	19.1	8.8	119	2	
2025-07-19T00:00	1400	860	19.0	8.8	127	2	
2025-07-19T00:00	1420	858	18.8	8.7	136	1	
2025-07-19T00:00	1440	856	18.7	8.5	149	2	
2025-07-19T00:00	1460	854	18.7	8.4	159	2	
2025-07-19T00:00	1480	852	18.6	8.2	167	2	
2025-07-19T00:00	1500	850	18.4	8.0	173	2	
2025-07-19T00:00	1520	848	18.3	7.8	180	3	
2025-07-19T00:00	1540	846	18.2	7.8	188	3	
2025-07-19T00:00	1560	844	18.0	7.7	197	3	
2025-07-19T00:00	1580	842	17.9	7.5	206	4	
2025-07-19T00:00	1600	840	17.8	7.3	213	4	
2025-07-19T00:00	1620	838	17.9	6.9	219	5	
2025-07-19T00:00	1640	836	18.0	6.6	224	5	
2025-07-19T00:00	1660	834	17.9	6.5	227	6	
2025-07-19T00:00	1680	832	17.8	6.4	228	6	
2025-07-19T00:00	1700	831	17.7	6.2	230	7	
2025-07-19T00:00	1720	828	17.7	5.9	230	7	
2025-07-19T00:00	1740	827	17.7	5.8	231	8	
2025-07-19T00:00	1760	825	17.5	5.7	231	8	
2025-07-19T00:00	1780	823	17.4	5.6	232	9	
2025-07-19T00:00	1800	821	17.2	5.5	233	9	
2025-07-19T00:00	1820	819	17.1	5.5	234	9	
2025-07-19T00:00	1840	817	16.9	5.5	236	8	
2025-07-19T00:00	1860	815	16.8	5.4	237	8	
2025-07-19T00:00	1880	813	16.9	5.0	239	8	
2025-07-19T00:00	1900	811	17.1	4.8	241	7	
2025-07-19T00:00	1920	809	17.0	4.4	243	7	
2025-07-19T00:00	1940	807	17.1	3.7	245	7	
2025-07-19T00:00	1960	806	17.2	3.2	246	7	
2025-07-19T00:00	1980	804	17.1	3.1	247	6	
2025-07-19T00:00	2000	802	17.0	2.9	247	6	
2025-07-19T00:00	2020	800	16.9	2.9	246	6	
2025-07-19T00:00	2040	798	16.7	2.9	246	6	
2025-07-19T00:00	2060	796	16.5	2.6	246	6	
2025-07-19T00:00	2080	794	16.5	2.2	247	6	
2025-07-19T00:00	2100	792	16.4	2.3	249	6	
2025-07-19T00:00	2120	790	16.2	2.1	251	6	
2025-07-19T00:00	2140	789	16.0	2.0	254	6	
2025-07-19T00:00	2160	787	15.9	2.1	256	6	
2025-07-19T00:00	2180	785	15.7	2.2	258	6	
2025-07-19T00:00	2200	783	15.5	2.2	259	6	
2025-07-19T00:00	2220	781	15.5	1.9	259	6	
2025-07-19T00:00	2240	779	15.3	1.8	260	6	
2025-07-19T00:00	2260	778	15.2	1.7	262	6	
2025-07-19T00:00	2280	776	15.0	1.6	264	6	
2025-07-19T00:00	2300	774	14.9	1.5	266	6	
2025-07-19T00:00	2320	772	14.7	1.5	267	6	
2025-07-19T00:00	2340	770	14.6	1.4	268	7	
2025-07-19T00:00	2360	769	14.5	1.5	269	7	
2025-07-19T00:00	2380	767	14.3	1.4	269	8	
2025-07-19T00:00	2400	765	14.2	1.4	269	8	
2025-07-19T00:00	2420	763	14.0	1.3	268	8	
2025-07-19T00:00	2440	762	13.9	1.3	269	8	
2025-07-19T00:00	2460	760	13.8	1.2	269	8	
2025-07-19T00:00	2480	758	13.6	1.1	270	8	
2025-07-19T00:00	2500	756	13.5	1.1	272	8	
2025-07-19T00:00	2520	754	13.3	1.1	273	8	
2025-07-19T00:00	2540	752	13.1	1.1	275	8	
2025-07-19T00:00	2560	750	13.0	1.1	275	9	
2025-07-19T00:00	2580	749	12.8	1.0	276	9	
2025-07-19T00:00	2600	747	12.7	0.9	276	9	
2025-07-19T00:00	2620	745	12.5	1.0	275	10	
2025-07-19T00:00	2640	743	12.4	1.2	275	10	
2025-07-19T00:00	2660	742	12.4	1.4	274	10	
2025-07-19T00:00	2680	740	12.1	1.3	273	10	
2025-07-19T00:00	2700	738	11.9	1.2	271	10	
2025-07-19T00:00	2720	736	11.8	1.2	270	10	
2025-07-19T00:00	2740	735	11.6	1.1	268	10	
2025-07-19T00:00	2760	733	11.4	1.0	267	11	
2025-07-19T00:00	2780	731	11.3	0.9	266	11	
2025-07-19T00:00	2800	729	11.1	1.1	266	11	
2025-07-19T00:00	2820	727	10.9	1.0	265	11	
2025-07-19T00:00	2840	726	10.7	0.9	264	11	
2025-07-19T00:00	2860	724	10.5	0.8	263	11	
2025-07-19T00:00	2880	722	10.3	0.7	262	12	
2025-07-19T00:00	2900	720	10.1	0.7	261	12	
2025-07-19T00:00	2920	719	9.9	0.6	260	13	
2025-07-19T00:00	2940	717	9.7	0.7	260	13	
2025-07-19T00:00	2960	715	9.5	0.6	259	13	
2025-07-19T00:00	2980	714	9.3	0.5	259	12	
2025-07-19T00:00	3000	712	9.1	0.5	260	12	
2025-07-19T00:00	3020	710	9.0	0.4	261	11	
2025-07-19T00:00	3040	709	8.8	0.2	261	11	
2025-07-19T00:00	3060	707	8.6	0.2	261	10	
2025-07-19T00:00	3080	705	8.4	0.2	261	10	
2025-07-19T00:00	3100	703	8.2	0.2	260	10	
2025-07-19T00:00	3120	702	8.0	0.1	260	10	
2025-07-19T00:00	3140	700	7.8	0.0	260	10	
2025-07-19T00:00	3160	698	7.6	0.0	260	11	
2025-07-19T00:00	3180	697	7.4	0.0	259	11	
2025-07-19T00:00	3200	695	7.2	-0.1	259	11	
2025-07-19T00:00	3220	693	7.1	-0.1	258	12	
2025-07-19T00:00	3240	692	6.9	-0.2	258	12	
2025-07-19T00:00	3260	690	6.7	-0.2	257	12	
2025-07-19T00:00	3280	688	6.5	-0.3	257	12	
2025-07-19T00:00	3300	687	6.3	-0.3	256	12	
2025-07-19T00:00	3320	685	6.1	-0.3	256	12	
2025-07-19T00:00	3340	683	6.0	-0.4	256	13	
2025-07-19T00:00	3360	682	5.8	-0.4	257	13	
2025-07-19T00:00	3380	680	5.6	-0.5	257	13	
2025-07-19T00:00	3400	678	5.4	-0.4	258	13	
2025-07-19T00:00	3420	677	5.2	-0.5	258	13	
2025-07-19T00:00	3440	675	5.0	-0.6	258	14	
2025-07-19T00:00	3460	673	4.8	-0.6	258	14	
2025-07-19T00:00	3480	672	4.6	-0.6	258	14	
2025-07-19T00:00	3500	670	4.4	-0.7	257	14	
2025-07-19T00:00	3520	668	4.3	-0.7	257	15	
2025-07-19T00:00	3540	667	4.1	-0.8	256	15	
2025-07-19T00:00	3560	665	4.0	-0.8	255	15	
2025-07-19T00:00	3580	663	3.8	-0.8	255	15	
2025-07-19T00:00	3600	662	3.6	-0.9	254	15	
2025-07-19T00:00	3620	660	3.4	-0.9	254	15	
2025-07-19T00:00	3640	659	3.2	-0.9	254	15	
2025-07-19T00:00	3660	657	3.0	-0.8	254	16	
2025-07-19T00:00	3680	655	2.9	-0.6	255	16	
2025-07-19T00:00	3700	654	2.7	-0.7	256	15	
2025-07-19T00:00	3720	652	2.6	-0.8	256	15	
2025-07-19T00:00	3740	650	2.4	-0.8	258	15	
2025-07-19T00:00	3760	649	2.2	-0.6	259	15	
2025-07-19T00:00	3780	647	2.0	-0.4	261	15	
2025-07-19T00:00	3800	646	1.9	-0.2	263	14	
2025-07-19T00:00	3820	644	1.7	-0.2	264	14	
2025-07-19T00:00	3840	642	1.5	-0.3	266	14	
2025-07-19T00:00	3860	641	1.3	-0.5	268	14	
2025-07-19T00:00	3880	639	1.1	-0.5	268	14	
2025-07-19T00:00	3900	638	0.9	-0.5	269	14	
2025-07-19T00:00	3920	636	0.7	-0.3	270	14	
2025-07-19T00:00	3940	635	0.5	-0.3	271	14	
2025-07-19T00:00	3960	633	0.4	-0.2	272	14	
2025-07-19T00:00	3980	631	0.2	-0.3	274	14	
2025-07-19T00:00	4000	630	0.0	-0.3	275	14	
2025-07-19T00:00	4020	628	-0.2	-0.3	276	14	
2025-07-19T00:00	4040	627	-0.2	-0.4	277	14	
2025-07-19T00:00	4060	625	-0.3	-0.4	277	13	
2025-07-19T00:00	4080	624	-0.4	-0.6	277	13	
2025-07-19T00:00	4100	622	-0.5	-0.6	277	13	
2025-07-19T00:00	4120	620	-0.6	-0.7	276	13	
2025-07-19T00:00	4140	619	-0.7	-0.8	276	12	
2025-07-19T00:00	4160	617	-0.9	-0.9	276	12	
2025-07-19T00:00	4180	616	-1.0	-1.1	277	12	
2025-07-19T00:00	4200	614	-1.1	-1.1	278	12	
2025-07-19T00:00	4220	613	-1.3	-1.3	279	12	
2025-07-19T00:00	4240	611	-1.4	-1.5	279	12	
2025-07-19T00:00	4260	609	-1.5	-1.6	280	13	
2025-07-19T00:00	4280	608	-1.6	-1.7	279	13	
2025-07-19T00:00	4300	607	-1.7	-1.8	279	13	
2025-07-19T00:00	4320	605	-1.9	-1.9	278	13	
2025-07-19T00:00	4340	604	-2.0	-2.1	278	13	
2025-07-19T00:00	4360	602	-2.2	-2.3	277	13	
2025-07-19T00:00	4380	600	-2.5	-3.2	277	13	
2025-07-19T00:00	4400	599	-2.7	-3.3	276	13	
2025-07-19T00:00	4420	598	-2.8	-3.3	276	13	
2025-07-19T00:00	4440	596	-2.9	-3.4	276	13	
2025-07-19T00:00	4460	595	-3.0	-3.6	275	13	
2025-07-19T00:00	4480	593	-3.1	-3.6	275	13	
2025-07-19T00:00	4500	592	-3.3	-3.7	275	13	
2025-07-19T00:00	4520	590	-3.4	-3.9	275	13	
2025-07-19T00:00	4540	588	-3.5	-3.9	275	13	
2025-07-19T00:00	4560	587	-3.7	-4.1	274	13	
2025-07-19T00:00	4580	586	-3.8	-4.2	273	13	
2025-07-19T00:00	4600	584	-4.0	-4.3	272	13	
2025-07-19T00:00	4620	583	-4.1	-4.3	272	13	
2025-07-19T00:00	4640	581	-4.2	-4.5	271	13	
2025-07-19T00:00	4660	580	-4.4	-4.7	271	13	
2025-07-19T00:00	4680	578	-4.5	-4.9	271	13	
2025-07-19T00:00	4700	577	-4.6	-5.0	271	13	
2025-07-19T00:00	4720	575	-4.7	-5.0	271	14	
2025-07-19T00:00	4740	574	-4.9	-5.1	270	14	
2025-07-19T00:00	4760	572	-5.0	-5.4	269	14	
2025-07-19T00:00	4780	571	-5.1	-5.5	269	14	
2025-07-19T00:00	4800	569	-5.2	-5.5	268	14	
2025-07-19T00:00	4820	568	-5.4	-5.8	268	14	
2025-07-19T00:00	4840	567	-5.6	-6.7	269	14	
2025-07-19T00:00	4860	565	-5.7	-6.9	270	14	
2025-07-19T00:00	4880	564	-5.9	-7.0	272	14	
2025-07-19T00:00	4900	562	-6.0	-7.2	274	14	
2025-07-19T00:00	4920	561	-6.1	-7.2	276	13	
2025-07-19T00:00	4940	559	-6.3	-7.3	277	13	
2025-07-19T00:00	4960	558	-6.4	-7.4	278	12	
2025-07-19T00:00	4980	556	-6.5	-7.7	279	12	
2025-07-19T00:00	5000	555	-6.7	-8.0	280	12	
2025-07-19T00:00	5020	554	-6.8	-8.0	281	12	
2025-07-19T00:00	5040	552	-7.0	-8.0	282	12	
2025-07-19T00:00	5060	551	-7.1	-7.9	282	12	
2025-07-19T00:00	5080	550	-7.2	-8.2	282	13	
2025-07-19T00:00	5100	548	-7.3	-8.3	282	13	
2025-07-19T00:00	5120	547	-7.4	-8.6	280	13	
2025-07-19T00:00	5140	545	-7.6	-8.5	278	12	
2025-07-19T00:00	5160	544	-7.7	-8.9	276	12	
2025-07-19T00:00	5180	542	-7.9	-9.3	274	11	
2025-07-19T00:00	5200	541	-8.0	-8.8	273	11	
2025-07-19T00:00	5220	540	-7.7	-7.7	272	11	
2025-07-19T00:00	5240	538	-7.8	-7.9	272	11	
2025-07-19T00:00	5260	537	-8.0	-8.1	272	11	
2025-07-19T00:00	5280	536	-8.2	-8.3	272	11	
2025-07-19T00:00	5300	534	-8.3	-8.4	272	11	
2025-07-19T00:00	5320	533	-8.4	-8.6	272	11	
2025-07-19T00:00	5340	531	-8.5	-8.6	272	11	
2025-07-19T00:00	5360	530	-8.6	-8.7	272	11	
2025-07-19T00:00	5380	529	-8.7	-8.8	272	11	
2025-07-19T00:00	5400	527	-8.9	-8.9	273	11	
2025-07-19T00:00	5420	526	-8.9	-8.9	273	11	
2025-07-19T00:00	5440	525	-8.9	-9.0	273	11	
2025-07-19T00:00	5460	523	-8.9	-9.1	273	11	
2025-07-19T00:00	5480	522	-9.1	-9.1	272	11	
2025-07-19T00:00	5500	521	-9.2	-9.2	271	10	
2025-07-19T00:00	5520	519	-9.4	-9.4	269	10	
2025-07-19T00:00	5540	518	-9.5	-9.6	269	10	
2025-07-19T00:00	5560	516	-9.6	-9.7	269	9	
2025-07-19T00:00	5580	515	-9.6	-9.7	270	9	
2025-07-19T00:00	5600	514	-9.6	-9.8	271	9	
2025-07-19T00:00	5620	513	-9.7	-9.8	273	9	
2025-07-19T00:00	5640	511	-9.9	-9.9	276	9	
2025-07-19T00:00	5660	510	-10.0	-10.0	278	10	
2025-07-19T00:00	5680	509	-10.1	-10.2	279	10	
2025-07-19T00:00	5700	507	-10.1	-10.2	279	11	
2025-07-19T00:00	5720	506	-10.1	-10.4	278	11	
2025-07-19T00:00	5740	505	-10.2	-10.6	278	12	
2025-07-19T00:00	5760	503	-10.4	-10.8	277	13	
2025-07-19T00:00	5780	502	-10.8	-11.6	276	13	
2025-07-19T00:00	5800	501	-11.1	-13.4	275	14	
2025-07-19T00:00	5820	499	-11.2	-13.1	274	14	
2025-07-19T00:00	5840	498	-11.3	-12.7	273	15	
2025-07-19T00:00	5860	497	-11.2	-12.5	272	15	
2025-07-19T00:00	5880	496	-11.2	-12.5	272	15	
2025-07-19T00:00	5900	494	-11.2	-12.9	271	15	
2025-07-19T00:00	5920	493	-11.5	-13.2	271	15	
2025-07-19T00:00	5940	492	-11.6	-13.2	270	15	
2025-07-19T00:00	5960	490	-11.7	-13.3	271	15	
2025-07-19T00:00	5980	489	-11.8	-13.4	272	15	
2025-07-19T00:00	6000	488	-12.0	-13.6	272	15	
2025-07-19T00:00	6020	487	-12.1	-13.6	274	15	
2025-07-19T00:00	6040	485	-12.2	-14.0	275	15	
2025-07-19T00:00	6060	484	-12.4	-14.6	276	15	
2025-07-19T00:00	6080	483	-12.6	-14.8	277	15	
2025-07-19T00:00	6100	482	-12.8	-15.1	277	14	
2025-07-19T00:00	6120	480	-12.9	-15.1	278	14	
2025-07-19T00:00	6140	479	-12.9	-15.2	278	13	
2025-07-19T00:00	6160	478	-12.9	-14.9	278	13	
2025-07-19T00:00	6180	476	-13.0	-14.8	278	13	
2025-07-19T00:00	6200	475	-13.1	-14.9	278	13	
2025-07-19T00:00	6220	474	-13.2	-14.8	278	13	
2025-07-19T00:00	6240	473	-13.3	-14.9	279	13	
2025-07-19T00:00	6260	472	-13.5	-14.9	279	13	
2025-07-19T00:00	6280	470	-13.6	-14.9	280	13	
2025-07-19T00:00	6300	469	-13.8	-15.0	281	13	
2025-07-19T00:00	6320	468	-13.9	-15.1	282	13	
2025-07-19T00:00	6340	467	-14.1	-15.2	283	13	
2025-07-19T00:00	6360	465	-14.2	-15.2	283	13	
2025-07-19T00:00	6380	464	-14.4	-15.3	282	14	
2025-07-19T00:00	6400	463	-14.5	-15.6	282	14	
2025-07-19T00:00	6420	462	-14.6	-15.9	282	14	
2025-07-19T00:00	6440	460	-14.7	-16.0	281	14	
2025-07-19T00:00	6460	459	-14.8	-16.0	281	14	
2025-07-19T00:00	6480	458	-14.8	-16.1	281	13	
2025-07-19T00:00	6500	457	-15.0	-16.3	281	13	
2025-07-19T00:00	6520	456	-15.1	-16.4	282	13	
2025-07-19T00:00	6540	454	-15.2	-16.5	282	13	
2025-07-19T00:00	6560	453	-15.4	-16.6	282	13	
2025-07-19T00:00	6580	452	-15.5	-16.7	281	13	
2025-07-19T00:00	6600	451	-15.6	-16.8	281	13	
2025-07-19T00:00	6620	450	-15.7	-16.9	281	13	
2025-07-19T00:00	6640	448	-15.8	-16.9	281	13	
2025-07-19T00:00	6660	447	-15.8	-17.1	281	13	
2025-07-19T00:00	6680	446	-16.2	-17.5	280	13	
2025-07-19T00:00	6700	445	-16.4	-17.7	279	14	
2025-07-19T00:00	6720	444	-16.5	-18.1	278	14	
2025-07-19T00:00	6740	443	-16.7	-18.4	276	14	
2025-07-19T00:00	6760	441	-16.9	-18.5	275	14	
2025-07-19T00:00	6780	440	-17.0	-18.9	273	14	
2025-07-19T00:00	6800	439	-17.2	-20.0	272	14	
2025-07-19T00:00	6820	438	-17.4	-20.3	271	14	
2025-07-19T00:00	6840	437	-17.6	-20.6	272	14	
2025-07-19T00:00	6860	436	-17.7	-20.6	273	14	
2025-07-19T00:00	6880	434	-17.8	-20.8	274	14	
2025-07-19T00:00	6900	433	-18.0	-21.0	275	14	
2025-07-19T00:00	6920	432	-18.2	-21.1	276	15	
2025-07-19T00:00	6940	431	-18.3	-21.0	277	15	
2025-07-19T00:00	6960	430	-18.4	-20.9	277	15	
2025-07-19T00:00	6980	429	-18.5	-21.1	277	15	
2025-07-19T00:00	7000	427	-18.7	-21.3	277	15	
2025-07-19T00:00	7020	426	-18.9	-21.6	278	15	
2025-07-19T00:00	7040	425	-19.0	-21.8	278	15	
2025-07-19T00:00	7060	424	-19.1	-22.0	279	15	
2025-07-19T00:00	7080	423	-19.3	-22.4	280	15	
2025-07-19T00:00	7100	422	-19.4	-22.7	281	15	
2025-07-19T00:00	7120	421	-19.6	-23.2	281	15	
2025-07-19T00:00	7140	419	-19.8	-23.8	282	15	
2025-07-19T00:00	7160	418	-19.9	-24.3	283	16	
2025-07-19T00:00	7180	417	-20.1	-24.7	283	16	
2025-07-19T00:00	7200	416	-20.2	-24.8	283	16	
2025-07-19T00:00	7220	415	-20.2	-24.9	283	16	
2025-07-19T00:00	7240	414	-20.4	-24.9	283	16	
2025-07-19T00:00	7260	413	-20.6	-24.6	283	16	
2025-07-19T00:00	7280	412	-20.7	-24.6	283	16	
2025-07-19T00:00	7300	411	-20.8	-24.8	282	16	
2025-07-19T00:00	7320	409	-20.9	-25.2	282	17	
2025-07-19T00:00	7340	408	-21.0	-25.1	282	17	
2025-07-19T00:00	7360	407	-21.1	-25.2	281	17	
2025-07-19T00:00	7380	406	-21.2	-25.6	281	17	
2025-07-19T00:00	7400	405	-21.3	-25.6	281	18	
2025-07-19T00:00	7420	404	-21.5	-26.0	281	18	
2025-07-19T00:00	7440	403	-21.7	-26.1	280	18	
2025-07-19T00:00	7460	402	-21.8	-26.1	280	18	
2025-07-19T00:00	7480	401	-22.0	-26.7	281	18	
2025-07-19T00:00	7500	400	-22.1	-26.4	281	18	
2025-07-19T00:00	7520	398	-22.3	-26.6	281	18	
2025-07-19T00:00	7540	397	-22.4	-26.7	281	18	
2025-07-19T00:00	7560	396	-22.5	-26.3	282	17	
2025-07-19T00:00	7580	395	-22.6	-26.4	282	17	
2025-07-19T00:00	7600	394	-22.8	-26.5	282	17	
2025-07-19T00:00	7620	393	-22.9	-26.6	282	17	
2025-07-19T00:00	7640	392	-23.1	-26.9	282	17	
2025-07-19T00:00	7660	391	-23.3	-27.5	281	17	
2025-07-19T00:00	7680	390	-23.5	-28.6	281	17	
2025-07-19T00:00	7700	389	-23.6	-29.7	280	17	
2025-07-19T00:00	7720	388	-23.7	-30.1	280	17	
2025-07-19T00:00	7740	387	-23.9	-29.7	280	17	
2025-07-19T00:00	7760	386	-24.0	-29.9	279	18	
2025-07-19T00:00	7780	385	-24.1	-29.9	279	18	
2025-07-19T00:00	7800	384	-24.3	-30.2	279	18	
2025-07-19T00:00	7820	382	-24.4	-30.7	279	17	
2025-07-19T00:00	7840	381	-24.5	-30.9	279	17	
2025-07-19T00:00	7860	380	-24.6	-30.5	279	17	
2025-07-19T00:00	7880	379	-24.6	-30.2	278	17	
2025-07-19T00:00	7900	378	-24.7	-30.4	278	17	
2025-07-19T00:00	7920	377	-24.9	-31.4	278	17	
2025-07-19T00:00	7940	376	-25.0	-31.3	277	17	
2025-07-19T00:00	7960	375	-25.1	-30.9	276	17	
2025-07-19T00:00	7980	374	-25.2	-31.0	276	18	
2025-07-19T00:00	8000	373	-25.4	-31.0	275	18	
2025-07-19T00:00	8020	372	-25.6	-31.7	275	18	
2025-07-19T00:00	8040	371	-25.7	-32.2	275	19	
2025-07-19T00:00	8060	370	-25.8	-32.6	274	19	
2025-07-19T00:00	8080	369	-26.1	-32.8	274	19	
2025-07-19T00:00	8100	368	-26.2	-33.2	273	20	
2025-07-19T00:00	8120	367	-26.4	-34.2	272	20	
2025-07-19T00:00	8140	366	-26.4	-35.0	272	20	
2025-07-19T00:00	8160	365	-26.5	-34.9	271	20	
2025-07-19T00:00	8180	364	-26.7	-34.9	271	20	
2025-07-19T00:00	8200	363	-26.8	-34.6	271	20	
2025-07-19T00:00	8220	362	-26.9	-34.6	270	20	
2025-07-19T00:00	8240	361	-27.1	-34.1	270	20	
2025-07-19T00:00	8260	360	-27.2	-34.3	270	20	
2025-07-19T00:00	8280	359	-27.4	-34.6	271	20	
2025-07-19T00:00	8300	358	-27.5	-34.3	271	20	
2025-07-19T00:00	8320	357	-27.7	-34.3	272	20	
2025-07-19T00:00	8340	356	-27.9	-34.3	272	21	
2025-07-19T00:00	8360	355	-28.0	-34.5	272	21	
2025-07-19T00:00	8380	354	-28.2	-34.8	273	21	
2025-07-19T00:00	8400	353	-28.4	-34.7	273	21	
2025-07-19T00:00	8420	352	-28.6	-34.7	273	21	
2025-07-19T00:00	8440	351	-28.7	-34.8	273	21	
2025-07-19T00:00	8460	350	-28.9	-34.9	273	21	
2025-07-19T00:00	8480	349	-29.1	-35.1	273	21	
2025-07-19T00:00	8500	348	-29.3	-35.2	273	21	
2025-07-19T00:00	8520	347	-29.4	-35.6	273	21	
2025-07-19T00:00	8540	346	-29.5	-35.8	272	21	
2025-07-19T00:00	8560	345	-29.7	-35.7	272	21	
2025-07-19T00:00	8580	344	-29.9	-35.5	271	21	
2025-07-19T00:00	8600	343	-30.1	-35.7	270	20	
2025-07-19T00:00	8620	342	-30.2	-35.7	270	20	
2025-07-19T00:00	8640	341	-30.4	-35.8	269	20	
2025-07-19T00:00	8660	340	-30.6	-36.1	270	20	
2025-07-19T00:00	8680	339	-30.7	-36.4	270	20	
2025-07-19T00:00	8700	338	-30.9	-36.3	271	20	
2025-07-19T00:00	8720	337	-31.0	-36.5	272	19	
2025-07-19T00:00	8740	336	-31.2	-36.8	272	19	
2025-07-19T00:00	8760	336	-31.3	-36.8	273	19	
2025-07-19T00:00	8780	335	-31.5	-36.9	273	19	
2025-07-19T00:00	8800	334	-31.7	-37.3	273	20	
2025-07-19T00:00	8820	333	-31.8	-37.6	273	20	
2025-07-19T00:00	8840	332	-32.0	-37.6	273	20	
2025-07-19T00:00	8860	331	-32.2	-37.8	272	20	
2025-07-19T00:00	8880	330	-32.4	-37.9	271	20	
2025-07-19T00:00	8900	329	-32.5	-37.9	271	21	
2025-07-19T00:00	8920	328	-32.7	-38.0	270	21	
2025-07-19T00:00	8940	327	-32.9	-38.2	269	22	
2025-07-19T00:00	8960	326	-33.1	-38.5	269	22	
2025-07-19T00:00	8980	325	-33.2	-39.4	268	22	
2025-07-19T00:00	9000	324	-33.3	-39.6	268	22	
2025-07-19T00:00	9020	323	-33.5	-39.7	268	22	
2025-07-19T00:00	9040	323	-33.6	-39.5	269	22	
2025-07-19T00:00	9060	322	-33.8	-39.7	269	22	
2025-07-19T00:00	9080	321	-34.0	-40.2	269	22	
2025-07-19T00:00	9100	320	-34.2	-40.3	270	22	
2025-07-19T00:00	9120	319	-34.3	-40.6	270	21	
2025-07-19T00:00	9140	318	-34.5	-40.7	270	21	
2025-07-19T00:00	9160	317	-34.7	-40.8	270	21	
2025-07-19T00:00	9180	316	-34.8	-41.3	270	21	
2025-07-19T00:00	9200	315	-35.0	-41.4	270	20	
2025-07-19T00:00	9220	314	-35.2	-41.6	270	20	
2025-07-19T00:00	9240	313	-35.3	-42.2	269	20	
2025-07-19T00:00	9260	312	-35.5	-42.5	269	20	
2025-07-19T00:00	9280	312	-35.6	-43.0	269	19	
2025-07-19T00:00	9300	311	-35.8	-43.3	269	19	
2025-07-19T00:00	9320	310	-35.9	-43.2	269	19	
2025-07-19T00:00	9340	309	-36.1	-43.3	269	19	
2025-07-19T00:00	9360	308	-36.2	-43.6	269	19	
2025-07-19T00:00	9380	307	-36.4	-43.6	269	18	
2025-07-19T00:00	9400	306	-36.6	-44.0	269	18	
2025-07-19T00:00	9420	305	-36.7	-44.2	269	18	
2025-07-19T00:00	9440	304	-36.9	-44.4	270	18	
2025-07-19T00:00	9460	304	-37.0	-44.8	271	17	
2025-07-19T00:00	9480	303	-37.2	-44.9	271	18	
2025-07-19T00:00	9500	302	-37.3	-44.8	272	18	
2025-07-19T00:00	9520	301	-37.5	-44.8	272	18	
2025-07-19T00:00	9540	300	-37.7	-44.7	273	18	
2025-07-19T00:00	9560	299	-37.9	-45.0	273	19	
2025-07-19T00:00	9580	298	-38.1	-45.1	272	19	
2025-07-19T00:00	9600	298	-38.2	-45.0	272	19	
2025-07-19T00:00	9620	297	-38.5	-44.9	272	19	
2025-07-19T00:00	9640	296	-38.6	-45.1	272	19	
2025-07-19T00:00	9660	295	-38.8	-45.1	271	19	
2025-07-19T00:00	9680	294	-39.0	-45.1	271	19	
2025-07-19T00:00	9700	293	-39.2	-45.1	271	19	
2025-07-19T00:00	9720	292	-39.4	-45.1	271	19	
2025-07-19T00:00	9740	291	-39.5	-46.1	271	19	
2025-07-19T00:00	9760	291	-39.6	-47.8	271	19	
2025-07-19T00:00	9780	290	-39.7	-48.2	271	19	
2025-07-19T00:00	9800	289	-39.8	-48.5	271	19	
2025-07-19T00:00	9820	288	-39.8	-49.1	272	19	
2025-07-19T00:00	9840	287	-39.9	-49.4	271	20	
2025-07-19T00:00	9860	286	-40.1	-49.2	271	20	
2025-07-19T00:00	9880	286	-40.3	-48.9	270	21	
2025-07-19T00:00	9900	285	-40.5	-49.1	269	21	
2025-07-19T00:00	9920	284	-40.6	-49.6	268	22	
2025-07-19T00:00	9940	283	-40.8	-49.4	268	22	
2025-07-19T00:00	9960	282	-41.0	-49.5	267	22	
2025-07-19T00:00	9980	281	-41.1	-49.6	267	22	
2025-07-19T00:00	10000	281	-41.3	-49.4	267	23	
2025-07-19T00:00	10018	280	-41.5	-49.4	267	23	
2025-07-19T00:00	10050	279	-41.8	-49.2	268	23	
2025-07-19T00:00	10100	277	-42.2	-49.3	270	23	
2025-07-19T00:00	10150	274	-42.7	-49.4	270	23	
2025-07-19T00:00	10200	272	-43.2	-49.5	269	23	
2025-07-19T00:00	10250	270	-43.7	-49.5	268	24	
2025-07-19T00:00	10300	268	-44.2	-49.5	266	24	
2025-07-19T00:00	10350	266	-44.7	-49.6	265	24	
2025-07-19T00:00	10400	264	-45.1	-49.6	265	25	
2025-07-19T00:00	10450	262	-45.6	-49.6	266	25	
2025-07-19T00:00	10500	260	-46.0	-50.5	267	25	
2025-07-19T00:00	10550	259	-46.4	-51.6	268	24	
2025-07-19T00:00	10600	257	-46.7	-52.1	267	24	
2025-07-19T00:00	10650	255	-47.0	-52.9	265	24	
2025-07-19T00:00	10700	253	-47.4	-53.4	265	24	
2025-07-19T00:00	10750	251	-47.8	-53.3	265	23	
2025-07-19T00:00	10800	249	-48.3	-53.9	266	23	
2025-07-19T00:00	10850	247	-48.7	-54.6	267	22	
2025-07-19T00:00	10900	245	-49.1	-54.7	266	22	
2025-07-19T00:00	10950	243	-49.6	-55.1	264	23	
2025-07-19T00:00	11000	241	-50.0	-55.8	264	23	
2025-07-19T00:00	11050	240	-50.4	-56.0	264	22	
2025-07-19T00:00	11100	238	-50.7	-56.6	264	22	
2025-07-19T00:00	11150	236	-51.1	-57.5	265	22	
2025-07-19T00:00	11200	234	-51.5	-57.8	265	22	
2025-07-19T00:00	11250	232	-51.9	-58.3	264	21	
2025-07-19T00:00	11300	231	-52.1	-58.7	262	21	
2025-07-19T00:00	11350	229	-52.4	-58.5	261	22	
2025-07-19T00:00	11400	227	-52.7	-58.6	258	22	
2025-07-19T00:00	11450	225	-52.9	-58.8	257	23	
2025-07-19T00:00	11500	224	-53.2	-59.1	257	24	
2025-07-19T00:00	11550	222	-53.5	-59.5	259	24	
2025-07-19T00:00	11600	220	-53.8	-60.3	261	24	
2025-07-19T00:00	11650	218	-54.0	-61.6	264	23	
2025-07-19T00:00	11700	217	-53.7	-63.8	267	22	
2025-07-19T00:00	11750	215	-53.7	-64.3	269	21	
2025-07-19T00:00	11800	213	-53.8	-65.0	269	21	
2025-07-19T00:00	11850	212	-53.7	-65.9	268	21	
2025-07-19T00:00	11900	210	-53.7	-66.4	267	20	
2025-07-19T00:00	11950	208	-53.8	-66.4	267	20	
2025-07-19T00:00	12000	207	-53.7	-66.6	269	20	
2025-07-19T00:00	12050	205	-53.6	-67.2	270	19	
2025-07-19T00:00	12100	204	-53.6	-67.6	270	18	
2025-07-19T00:00	12150	202	-53.8	-67.6	270	17	
2025-07-19T00:00	12200	200	-54.1	-67.9	271	16	
2025-07-19T00:00	12250	199	-54.3	-67.9	270	15	
2025-07-19T00:00	12300	197	-54.5	-68.1	267	15	
2025-07-19T00:00	12350	196	-54.5	-68.6	265	15	
2025-07-19T00:00	12400	194	-54.6	-69.1	264	16	
2025-07-19T00:00	12450	193	-54.7	-69.2	265	17	
2025-07-19T00:00	12500	191	-54.9	-69.2	266	18	
2025-07-19T00:00	12550	190	-55.3	-69.6	266	19	
2025-07-19T00:00	12600	188	-55.7	-69.6	267	19	
2025-07-19T00:00	12650	187	-55.9	-69.9	266	19	
2025-07-19T00:00	12700	185	-55.8	-70.2	265	18	
2025-07-19T00:00	12750	184	-56.0	-70.6	264	19	
2025-07-19T00:00	12800	182	-55.8	-70.8	263	19	
2025-07-19T00:00	12850	181	-55.7	-70.9	260	19	
2025-07-19T00:00	12900	180	-56.0	-70.7	258	19	
2025-07-19T00:00	12950	178	-56.4	-70.7	256	20	
2025-07-19T00:00	13000	177	-56.6	-70.7	255	21	
2025-07-19T00:00	13050	175	-56.8	-71.0	253	22	
2025-07-19T00:00	13100	174	-56.9	-71.7	256	23	
2025-07-19T00:00	13150	173	-56.8	-72.2	260	24	
2025-07-19T00:00	13200	171	-56.8	-72.5	263	25	
2025-07-19T00:00	13250	170	-57.0	-72.5	267	25	
2025-07-19T00:00	13300	169	-57.3	-73.3	270	25	
2025-07-19T00:00	13350	167	-57.6	-73.7	273	24	
2025-07-19T00:00	13400	166	-57.9	-73.9	275	23	
2025-07-19T00:00	13450	165	-58.0	-74.4	277	20	
2025-07-19T00:00	13500	163	-57.7	-74.5	276	18	
2025-07-19T00:00	13550	162	-57.1	-74.5	271	16	
2025-07-19T00:00	13600	161	-56.6	-74.5	266	17	
2025-07-19T00:00	13650	160	-56.4	-74.5	262	17	
2025-07-19T00:00	13700	158	-56.3	-74.6	259	19	
2025-07-19T00:00	13750	157	-56.2	-74.6	257	20	
2025-07-19T00:00	13800	156	-56.4	-74.8	257	21	
2025-07-19T00:00	13850	155	-56.5	-75.1	257	22	
2025-07-19T00:00	13900	153	-56.4	-75.4	259	22	
2025-07-19T00:00	13950	152	-56.2	-75.8	260	21	
2025-07-19T00:00	14000	151	-56.3	-75.9	260	21	
2025-07-19T00:00	14050	150	-56.7	-76.3	261	21	
2025-07-19T00:00	14100	149	-57.0	-76.3	262	21	
2025-07-19T00:00	14150	147	-57.3	-76.4	263	22	
2025-07-19T00:00	14200	146	-57.6	-76.8	263	23	
2025-07-19T00:00	14250	145	-57.7	-76.7	263	23	
2025-07-19T00:00	14300	144	-57.7	-76.9	263	25	
2025-07-19T00:00	14350	143	-57.7	-76.6	266	26	
2025-07-19T00:00	14400	142	-57.3	-76.0	270	25	
2025-07-19T00:00	14450	141	-56.9	-76.2	273	24	
2025-07-19T00:00	14500	139	-56.9	-76.7	276	22	
2025-07-19T00:00	14550	138	-57.0	-77.3	277	20	
2025-07-19T00:00	14600	137	-56.9	-77.1	280	18	
2025-07-19T00:00	14650	136	-56.5	-76.3	283	17	
2025-07-19T00:00	14700	135	-56.4	-77.5	282	16	
2025-07-19T00:00	14750	134	-56.3	-77.6	279	16	
2025-07-19T00:00	14800	133	-56.4	-77.3	274	15	
2025-07-19T00:00	14850	132	-56.2	-77.0	267	15	
2025-07-19T00:00	14900	131	-56.0	-77.1	261	16	
2025-07-19T00:00	14950	130	-55.9	-77.1	259	16	
2025-07-19T00:00	15000	129	-55.5	-76.9	261	16	
2025-07-19T00:00	15050	128	-55.1	-76.6	261	15	
2025-07-19T00:00	15100	127	-54.9	-76.7	258	15	
2025-07-19T00:00	15150	126	-55.0	-77.0	257	16	
2025-07-19T00:00	15200	125	-55.0	-76.7	257	16	
2025-07-19T00:00	15250	124	-55.3	-76.9	256	16	
2025-07-19T00:00	15300	123	-55.5	-76.9	257	17	
2025-07-19T00:00	15350	122	-55.8	-76.8	259	17	
2025-07-19T00:00	15400	121	-55.9	-76.5	264	16	
2025-07-19T00:00	15450	120	-55.8	-76.2	268	15	
2025-07-19T00:00	15500	119	-55.9	-76.3	270	14	
2025-07-19T00:00	15550	118	-56.0	-75.9	270	13	
2025-07-19T00:00	15600	117	-56.2	-76.5	268	12	
2025-07-19T00:00	15650	116	-56.1	-77.2	262	11	
2025-07-19T00:00	15700	115	-56.1	-77.6	256	11	
2025-07-19T00:00	15750	115	-56.3	-77.9	253	12	
2025-07-19T00:00	15800	114	-56.0	-76.8	254	12	
2025-07-19T00:00	15850	113	-55.9	-76.9	254	13	
2025-07-19T00:00	15900	112	-56.1	-78.0	254	13	
2025-07-19T00:00	15950	111	-56.4	-78.1	256	14	
2025-07-19T00:00	16000	110	-56.6	-78.0	259	15	
2025-07-19T00:00	16050	109	-56.7	-77.9	259	15	
2025-07-19T00:00	16100	108	-56.5	-77.7	259	15	
2025-07-19T00:00	16150	108	-56.7	-78.1	261	14	
2025-07-19T00:00	16200	107	-56.7	-77.9	263	13	
2025-07-19T00:00	16250	106	-56.8	-77.2	264	11	
2025-07-19T00:00	16300	105	-56.6	-76.3	262	9	
2025-07-19T00:00	16350	104	-56.2	-75.5	256	8	
2025-07-19T00:00	16400	103	-56.2	-76.0	247	8	
2025-07-19T00:00	16450	103	-56.3	-76.9	240	8	
2025-07-19T00:00	16500	102	-56.4	-76.6	234	7	
2025-07-19T00:00	16550	101	-56.6	-77.6	231	7	
2025-07-19T00:00	16600	100	-56.9	-79.0	234	8	
2025-07-19T00:00	16650	99	-56.9	-78.8	243	8	
2025-07-19T00:00	16700	99	-56.8	-77.5	251	8	
2025-07-19T00:00	16750	98	-56.7	-77.2	258	7	
2025-07-19T00:00	16800	97	-56.5	-78.8	264	7	
2025-07-19T00:00	16850	96	-56.7	-79.3	267	7	
2025-07-19T00:00	16900	96	-57.1	-79.0	265	7	
2025-07-19T00:00	16950	95	-57.4	-79.1	260	7	
2025-07-19T00:00	17000	94	-57.8	-79.2	255	8	
2025-07-19T00:00	17050	93	-58.2	-79.3	250	9	
2025-07-19T00:00	17100	93	-58.5	-79.1	248	10	
2025-07-19T00:00	17150	92	-58.9	-78.6	250	10	
2025-07-19T00:00	17200	91	-59.0	-78.0	258	10	
2025-07-19T00:00	17250	90	-58.8	-77.5	267	10	
2025-07-19T00:00	17300	90	-58.7	-77.5	275	9	
2025-07-19T00:00	17350	89	-58.7	-78.0	282	8	
2025-07-19T00:00	17400	88	-58.7	-79.0	287	7	
2025-07-19T00:00	17450	88	-59.0	-80.2	286	6	
2025-07-19T00:00	17500	87	-59.2	-80.7	276	5	
2025-07-19T00:00	17550	86	-59.3	-80.6	263	5	
2025-07-19T00:00	17600	85	-59.3	-80.5	260	7	
2025-07-19T00:00	17650	85	-59.1	-80.5	261	7	
2025-07-19T00:00	17700	84	-58.8	-80.4	262	7	
2025-07-19T00:00	17750	83	-58.3	-80.3	261	8	
2025-07-19T00:00	17800	83	-58.3	-80.1	262	8	
2025-07-19T00:00	17850	82	-57.5	-79.4	261	8	
2025-07-19T00:00	17900	82	-57.0	-79.1	254	6	
2025-07-19T00:00	17950	81	-56.7	-79.2	246	6	
2025-07-19T00:00	18000	80	-56.7	-79.4	243	5	
2025-07-19T00:00	18050	80	-56.4	-79.2	239	4	
2025-07-19T00:00	18100	79	-56.0	-78.8	228	3	
2025-07-19T00:00	18150	78	-56.1	-78.8	207	3	
2025-07-19T00:00	18200	78	-56.3	-79.1	191	3	
2025-07-19T00:00	18250	77	-56.6	-79.5	184	4	
2025-07-19T00:00	18300	77	-57.1	-79.9	185	4	
2025-07-19T00:00	18350	76	-57.1	-79.9	192	4	
2025-07-19T00:00	18400	75	-57.2	-79.7	202	4	
2025-07-19T00:00	18450	75	-57.4	-79.5	216	4	
2025-07-19T00:00	18500	74	-57.4	-79.6	228	4	
2025-07-19T00:00	18550	74	-57.5	-80.0	234	4	
2025-07-19T00:00	18600	73	-57.2	-80.4	245	3	
2025-07-19T00:00	18650	72	-57.1	-80.8	267	2	
2025-07-19T00:00	18700	72	-57.0	-80.1	271	1	
2025-07-19T00:00	18750	71	-56.9	-79.6	237	1	
2025-07-19T00:00	18800	71	-57.1	-79.8	230	2	
2025-07-19T00:00	18850	70	-57.3	-79.8	241	3	
2025-07-19T00:00	18900	70	-57.6	-79.9	256	3	
2025-07-19T00:00	18950	69	-57.7	-80.0	273	3	
2025-07-19T00:00	19000	68	-56.9	-79.6	307	2	
2025-07-19T00:00	19050	68	-56.8	-79.8	353	2	
2025-07-19T00:00	19100	67	-56.9	-80.0	38	1	
2025-07-19T00:00	19150	67	-56.7	-80.1	130	1	
2025-07-19T00:00	19200	66	-56.0	-80.1	159	3	
2025-07-19T00:00	19250	66	-56.2	-79.6	169	4	
2025-07-19T00:00	19300	65	-56.5	-79.2	176	5	
2025-07-19T00:00	19350	65	-56.6	-79.4	183	4	
2025-07-19T00:00	19400	64	-56.1	-79.3	195	3	
2025-07-19T00:00	19450	64	-55.6	-79.1	210	3	
2025-07-19T00:00	19500	63	-55.6	-79.2	220	2	
2025-07-19T00:00	19550	63	-55.6	-79.2	224	1	
2025-07-19T00:00	19600	62	-55.3	-78.7	98	1	
2025-07-19T00:00	19650	62	-55.3	-78.5	72	2	
2025-07-19T00:00	19700	61	-55.3	-78.7	66	4	
2025-07-19T00:00	19750	61	-55.5	-79.0	64	5	
2025-07-19T00:00	19800	60	-55.6	-79.0	69	6	
2025-07-19T00:00	19850	60	-55.5	-78.8	79	7	
2025-07-19T00:00	19900	59	-55.7	-79.1	88	7	
2025-07-19T00:00	19950	59	-56.1	-79.5	96	6	
2025-07-19T00:00	20000	59	-56.3	-79.4	106	5	
2025-07-19T00:00	20050	58	-56.6		116	6	
2025-07-19T00:00	20100	58	-56.5		123	7	
2025-07-19T00:00	20150	57	-56.4		132	7	
2025-07-19T00:00	20200	57	-56.5		141	7	
2025-07-19T00:00	20250	56	-56.3		148	7	
2025-07-19T00:00	20300	56	-56.2		154	7	
2025-07-19T00:00	20350	55	-56.5		161	7	
2025-07-19T00:00	20400	55	-56.6		165	7	
2025-07-19T00:00	20450	55	-56.6		163	6	
2025-07-19T00:00	20500	54	-56.2		157	5	
2025-07-19T00:00	20550	54	-55.8		151	4	
2025-07-19T00:00	20600	53	-55.2		150	3	
2025-07-19T00:00	20650	53	-54.8		148	3	
2025-07-19T00:00	20700	52	-55.0		140	3	
2025-07-19T00:00	20750	52	-55.1		137	4	
2025-07-19T00:00	20800	52	-55.1		138	5	
2025-07-19T00:00	20850	51	-54.7		140	6	
2025-07-19T00:00	20900	51	-54.6		144	5	
2025-07-19T00:00	20950	50	-54.3		152	4	
2025-07-19T00:00	21000	50	-54.4		165	3	
2025-07-19T00:00	21050	50	-54.3		187	3	
2025-07-19T00:00	21100	49	-54.5		210	3	
2025-07-19T00:00	21150	49	-54.7		229	3	
2025-07-19T00:00	21200	48	-54.7		243	3	
2025-07-19T00:00	21250	48	-54.5		256	2	
2025-07-19T00:00	21300	48	-53.8		359	0	
2025-07-19T00:00	21350	47	-53.7		83	1	
2025-07-19T00:00	21400	47	-53.9		95	3	
2025-07-19T00:00	21450	47	-53.9		102	4	
2025-07-19T00:00	21500	46	-53.8		104	5	
2025-07-19T00:00	21550	46	-53.7		100	5	
2025-07-19T00:00	21600	46	-53.7		99	6	
2025-07-19T00:00	21650	45	-53.7		104	6	
2025-07-19T00:00	21700	45	-53.7		109	7	
2025-07-19T00:00	21750	45	-53.7		114	7	
2025-07-19T00:00	21800	44	-53.5		119	8	
2025-07-19T00:00	21850	44	-53.4		122	8	
2025-07-19T00:00	21900	43	-52.9		126	8	
2025-07-19T00:00	21950	43	-52.9		127	7	
2025-07-19T00:00	22000	43	-52.9		119	7	
2025-07-19T00:00	22050	42	-52.8		111	8	
2025-07-19T00:00	22100	42	-52.7		108	9	
2025-07-19T00:00	22150	42	-52.6		112	10	
2025-07-19T00:00	22200	42	-52.8		119	10	
2025-07-19T00:00	22250	41	-52.8		124	10	
2025-07-19T00:00	22300	41	-52.7		127	9	
2025-07-19T00:00	22350	41	-52.6		127	8	
2025-07-19T00:00	22400	40	-52.6		128	6	
2025-07-19T00:00	22450	40	-52.5		128	4	
2025-07-19T00:00	22500	40	-52.4		122	3	
2025-07-19T00:00	22550	39	-52.5		116	4	
2025-07-19T00:00	22600	39	-52.3		119	5	
2025-07-19T00:00	22650	39	-52.4		124	6	
2025-07-19T00:00	22700	38	-52.2		129	6	
2025-07-19T00:00	22750	38	-51.9		134	6	
2025-07-19T00:00	22800	38	-51.9		141	7	
2025-07-19T00:00	22850	38	-52.0		150	6	
2025-07-19T00:00	22900	37	-51.9		158	6	
2025-07-19T00:00	22950	37	-52.1		156	5	
2025-07-19T00:00	23000	37	-52.1		138	4	
2025-07-19T00:00	23050	36	-51.9		116	4	
2025-07-19T00:00	23100	36	-51.8		109	5	
2025-07-19T00:00	23150	36	-51.6		107	6	
2025-07-19T00:00	23200	36	-51.7		103	7	
2025-07-19T00:00	23250	35	-51.6		98	7	
2025-07-19T00:00	23300	35	-51.7		97	8	
2025-07-19T00:00	23350	35	-51.7		100	7	
2025-07-19T00:00	23400	34	-51.9		106	6	
2025-07-19T00:00	23450	34	-52.1		113	6	
2025-07-19T00:00	23500	34	-52.2		117	5	
2025-07-19T00:00	23550	34	-52.0		113	4	
2025-07-19T00:00	23600	33	-51.9		103	4	
2025-07-19T00:00	23650	33	-51.9		98	4	
2025-07-19T00:00	23700	33	-52.0		101	5	
2025-07-19T00:00	23750	33	-52.1		105	5	
2025-07-19T00:00	23800	32	-52.1		107	6	
2025-07-19T00:00	23850	32	-52.0		108	7	
2025-07-19T00:00	23900	32	-51.7		110	7	
2025-07-19T00:00	23950	32	-51.6		113	7	
2025-07-19T00:00	24000	31	-51.6		117	6	
2025-07-19T00:00	24050	31	-51.1		118	7	
2025-07-19T00:00	24100	31	-51.0		114	7	
2025-07-19T00:00	24150	31	-50.7		106	7	
2025-07-19T00:00	24200	30	-50.7		101	8	
2025-07-19T00:00	24250	30	-50.2		105	9	
2025-07-19T00:00	24300	30	-49.7		112	9	
2025-07-19T00:00	24350	30	-49.4		117	10	
2025-07-19T00:00	24400	30	-49.2		118	11	
2025-07-19T00:00	24450	29	-48.9		118	11	
2025-07-19T00:00	24500	29	-48.8		119	11	
2025-07-19T00:00	24550	29	-48.9		122	10	
2025-07-19T00:00	24600	29	-48.8		126	10	
2025-07-19T00:00	24650	28	-49.1		131	10	
2025-07-19T00:00	24700	28	-49.2		134	10	
2025-07-19T00:00	24750	28	-49.1		133	9	
2025-07-19T00:00	24800	28	-48.8		131	9	
2025-07-19T00:00	24850	28	-48.6		129	9	
2025-07-19T00:00	24900	27	-48.4		130	9	
2025-07-19T00:00	24950	27	-48.0		131	9	
2025-07-19T00:00	25000	27	-47.8		127	8	
2025-07-19T00:00	25050	27	-47.5		117	8	
2025-07-19T00:00	25100	27	-47.2		107	8	
2025-07-19T00:00	25150	26	-47.1		106	8	
2025-07-19T00:00	25200	26	-47.1		112	9	
2025-07-19T00:00	25250	26	-47.2		117	10	
2025-07-19T00:00	25300	26	-47.4		120	10	
2025-07-19T00:00	25350	26	-47.5		120	10	
2025-07-19T00:00	25400	25	-47.2		120	10	
2025-07-19T00:00	25450	25	-47.1		122	10	
2025-07-19T00:00	25500	25	-47.2		126	10	
2025-07-19T00:00	25550	25	-47.3		130	11	
2025-07-19T00:00	25600	25	-47.1		133	10	
2025-07-19T00:00	25650	24	-47.0		131	9	
2025-07-19T00:00	25700	24	-46.9		125	9	
2025-07-19T00:00	25750	24	-46.6		118	9	
2025-07-19T00:00	25800	24	-46.3		113	9	
2025-07-19T00:00	25850	24	-46.3		109	9	
2025-07-19T00:00	25900	24	-46.4		105	9	
2025-07-19T00:00	25950	23	-46.5		102	9	
2025-07-19T00:00	26000	23	-46.6		106	8	
2025-07-19T00:00	26050	23	-46.4		113	7	
2025-07-19T00:00	26100	23	-46.2		115	7	
2025-07-19T00:00	26150	23	-46.0		109	7	
2025-07-19T00:00	26200	23	-45.8		105	8	
2025-07-19T00:00	26250	22	-45.8		106	7	
2025-07-19T00:00	26300	22	-45.9		106	7	
2025-07-19T00:00	26350	22	-46.1		102	7	
2025-07-19T00:00	26400	22	-46.0		97	8	
2025-07-19T00:00	26450	22	-46.0		94	10	
2025-07-19T00:00	26500	22	-45.9		95	11	
2025-07-19T00:00	26550	21	-45.8		99	11	
2025-07-19T00:00	26600	21	-45.9		103	11	
2025-07-19T00:00	26650	21	-45.8		107	10	
2025-07-19T00:00	26700	21	-45.8		111	9	
2025-07-19T00:00	26750	21	-45.7		111	7	
2025-07-19T00:00	26800	21	-45.3		107	6	
2025-07-19T00:00	26850	20	-45.1		100	5	
2025-07-19T00:00	26900	20	-45.2		89	4	
2025-07-19T00:00	26950	20	-45.2		77	4	
2025-07-19T00:00	27000	20	-45.2		66	4	
2025-07-19T00:00	27050	20	-45.3		59	5	
2025-07-19T00:00	27100	20	-45.3		57	7	
2025-07-19T00:00	27150	20	-45.3		59	8	
2025-07-19T00:00	27200	19	-45.2		63	9	
2025-07-19T00:00	27250	19	-45.2		67	9	
2025-07-19T00:00	27300	19	-45.2		70	9	
2025-07-19T00:00	27350	19	-45.1		72	9	
2025-07-19T00:00	27400	19	-45.0		76	9	
2025-07-19T00:00	27450	19	-44.7		83	9	
2025-07-19T00:00	27500	19	-44.5		90	9	
2025-07-19T00:00	27550	18	-44.6		94	9	
2025-07-19T00:00	27600	18	-44.6		91	9	
2025-07-19T00:00	27650	18	-44.4		80	9	
2025-07-19T00:00	27700	18	-44.1		68	10	
2025-07-19T00:00	27750	18	-43.8		61	11	
2025-07-19T00:00	27800	18	-43.8		60	11	
2025-07-19T00:00	27850	18	-43.5		64	11	
2025-07-19T00:00	27900	17	-43.6		72	11	
2025-07-19T00:00	27950	17	-43.7		81	11	
2025-07-19T00:00	28000	17	-43.5		91	11	
2025-07-19T00:00	28050	17	-43.6		97	12	
2025-07-19T00:00	28100	17	-43.7		97	13	
2025-07-19T00:00	28150	17	-43.5		91	13	
2025-07-19T00:00	28200	17	-43.3		85	13	
2025-07-19T00:00	28250	17	-43.1		79	14	
2025-07-19T00:00	28300	16	-43.1		73	14	
2025-07-19T00:00	28350	16	-43.1		70	14	
2025-07-19T00:00	28400	16	-43.0		72	14	
2025-07-19T00:00	28450	16	-42.9		76	14	
2025-07-19T00:00	28500	16	-43.1		82	14	
2025-07-19T00:00	28550	16	-43.4		88	14	
2025-07-19T00:00	28600	16	-43.7		94	14	
2025-07-19T00:00	28650	16	-43.9		100	13	
2025-07-19T00:00	28700	15	-43.9		106	13	
2025-07-19T00:00	28750	15	-43.9		108	13	
2025-07-19T00:00	28800	15	-43.7		107	14	
2025-07-19T00:00	28850	15	-43.6		104	15	
2025-07-19T00:00	28900	15	-43.6		103	16	
2025-07-19T00:00	28950	15	-43.8		104	16	
2025-07-19T00:00	29000	15	-43.9		107	16	
2025-07-19T00:00	29050	15	-44.0		111	16	
2025-07-19T00:00	29100	15	-44.1		114	16	
2025-07-19T00:00	29150	14	-44.2		116	16	
2025-07-19T00:00	29200	14	-44.3		117	16	
2025-07-19T00:00	29250	14	-44.3		116	16	
2025-07-19T00:00	29300	14	-44.2		114	15	
2025-07-19T00:00	29350	14	-44.0		110	14	
2025-07-19T00:00	29400	14	-43.8		108	13	
2025-07-19T00:00	29450	14	-43.8		107	12	
2025-07-19T00:00	29500	14	-43.8		109	12	
2025-07-19T00:00	29550	14	-43.7		113	12	
2025-07-19T00:00	29600	14	-43.7		115	13	
2025-07-19T00:00	29650	13	-43.7		115	13	
2025-07-19T00:00	29700	13	-43.4		113	12	
2025-07-19T00:00	29750	13	-43.2		108	12	
2025-07-19T00:00	29800	13	-43.0		103	12	
2025-07-19T00:00	29850	13	-42.5		100	13	
2025-07-19T00:00	29900	13	-42.4		101	14	
2025-07-19T00:00	29950	13	-42.2		104	15	
2025-07-19T00:00	30000	13	-42.2		107	15	
2025-07-19T00:00	30050	13	-42.2		108	15	
2025-07-19T00:00	30100	13	-42.4		108	14	
2025-07-19T00:00	30150	12	-42.4		106	13	
2025-07-19T00:00	30200	12	-42.3		104	13	
2025-07-19T00:00	30250	12	-42.3		105	13	
2025-07-19T00:00	30300	12	-42.0		107	13	
2025-07-19T00:00	30350	12	-42.0		109	13	
2025-07-19T00:00	30400	12	-41.8		110	12	
2025-07-19T00:00	30450	12	-41.4		109	12	
2025-07-19T00:00	30500	12	-41.0		107	11	
2025-07-19T00:00	30550	12	-40.7		102	12	
2025-07-19T00:00	30600	12	-40.5		97	12	
2025-07-19T00:00	30650	12	-40.5		92	13	
2025-07-19T00:00	30700	12	-40.6		89	14	
2025-07-19T00:00	30750	11	-40.6		89	15	
2025-07-19T00:00	30800	11	-40.4		91	15	
2025-07-19T00:00	30850	11	-40.5		93	14	
2025-07-19T00:00	30900	11	-40.6		92	14	
2025-07-19T00:00	30950	11	-40.3		90	13	
2025-07-19T00:00	31000	11	-40.0		89	13	
2025-07-19T00:00	31050	11	-40.0		88	13	
2025-07-19T00:00	31100	11	-39.7		87	12	
2025-07-19T00:00	31150	11	-39.4		85	12	
2025-07-19T00:00	31200	11	-39.1		83	13	
2025-07-19T00:00	31250	11	-38.4		80	13	
2025-07-19T00:00	31300	11	-38.2		78	13	
2025-07-19T00:00	31350	10	-38.2		78	13	
2025-07-19T00:00	31400	10	-38.1		80	13	
2025-07-19T00:00	31450	10	-38.0		81	13	
2025-07-19T00:00	31500	10	-38.0		79	13	
2025-07-19T00:00	31550	10	-37.8		75	14	
2025-07-19T00:00	31600	10	-37.3		71	14	
2025-07-19T00:00	31650	10	-36.9		71	14	
2025-07-19T00:00	31700	10	-37.0		72	14	
2025-07-19T00:00	31750	10	-37.2		74	14	
2025-07-19T00:00	31800	10	-37.3		76	14	
2025-07-19T00:00	31850	10	-37.5		80	15	
2025-07-19T00:00	31900	10	-37.7		85	15	
2025-07-19T00:00	31950	10	-37.7		91	16	
2025-07-19T00:00	32000	10	-37.5		95	16	
2025-07-19T00:00	32050	9	-37.7		97	16	
2025-07-19T00:00	32100	9	-38.0		97	15	
2025-07-19T00:00	32150	9	-38.1		94	14	
2025-07-19T00:00	32200	9	-38.0		89	14	
2025-07-19T00:00	32250	9	-37.8		85	14	
2025-07-19T00:00	32300	9	-37.8		85	14	
2025-07-19T00:00	32350	9	-37.8		87	15	
2025-07-19T00:00	32400	9	-37.8		89	16	
2025-07-19T00:00	32450	9	-37.8		89	16	
2025-07-19T00:00	32500	9	-37.7		88	16	
2025-07-19T00:00	32550	9	-37.6		85	17	
2025-07-19T00:00	32600	9	-37.5		84	17	
2025-07-19T00:00	32650	9	-37.6		84	18	
2025-07-19T00:00	32700	9	-37.6		84	18	
2025-07-19T00:00	32750	9	-37.4		83	19	
2025-07-19T00:00	32800	8	-37.1		81	19	
2025-07-19T00:00	32850	8	-36.9		80	20	
2025-07-19T00:00	32900	8	-36.8		82	20	
2025-07-19T00:00	32950	8	-36.5		84	20	
2025-07-19T00:00	33000	8	-36.4		84	20	
2025-07-19T00:00	33050	8	-36.4		85	20	
2025-07-19T00:00	33100	8	-36.1		88	20	
2025-07-19T00:00	33150	8	-35.8		92	21	
2025-07-19T00:00	33200	8	-35.7		96	21	
2025-07-19T00:00	33250	8	-35.6		100	21	
2025-07-19T00:00	33300	8	-35.7		103	20	
2025-07-19T00:00	33350	8	-35.8		103	19	
2025-07-19T00:00	33400	8	-35.3		101	18	
2025-07-19T00:00	33450	8	-35.1		98	18	
2025-07-19T00:00	33500	8	-34.9		94	18	
2025-07-19T00:00	33550	8	-34.6		91	18	
2025-07-19T00:00	33600	8	-33.7		91	18	
2025-07-19T00:00	33650	8	-33.4		90	18	
2025-07-19T00:00	33700	7	-33.1		90	18	
2025-07-19T00:00	33750	7	-33.0		88	18	
2025-07-19T00:00	33800	7	-33.1		87	19	
2025-07-19T00:00	33850	7	-33.3		85	20	
2025-07-19T00:00	33900	7	-33.3		85	20	
2025-07-19T00:00	33950	7	-33.3		85	19	
2025-07-19T00:00	34000	7	-33.6		85	18	
2025-07-19T00:00	34050	7	-33.9		84	17	
2025-07-19T00:00	34100	7	-33.9		82	17	
2025-07-19T00:00	34150	7	-33.9		82	16	
2025-07-19T00:00	34200	7	-33.8		82	15	
2025-07-19T00:00	34250	7	-33.6		83	15	
2025-07-19T00:00	34300	7	-33.7		83	14	
2025-07-19T00:00	34350	7	-33.5		82	14	
2025-07-19T00:00	34400	7	-33.2		81	14	
2025-07-19T00:00	34450	7	-33.3		79	14	
2025-07-19T00:00	34500	7	-33.2		76	15	
2025-07-19T00:00	34550	7	-32.9		72	16	
2025-07-19T00:00	34600	7	-32.7		69	17	
2025-07-19T00:00	34650	7	-32.5		68	19	
2025-07-19T00:00	34700	6	-32.1		69	21	
2025-07-19T00:00	34750	6	-32.0		72	23	
2025-07-19T00:00	34800	6	-31.6		76	23	
2025-07-19T00:00	34850	6	-31.1		81	23	
2025-07-19T00:00	34900	6	-30.9		85	23	
2025-07-19T00:00	34950	6	-30.9		88	22	
2025-07-19T00:00	35000	6	-30.9		89	21	
2025-07-19T00:00	35050	6	-30.7		88	20	
2025-07-19T00:00	35100	6	-30.4		89	19	
2025-07-19T00:00	35150	6	-30.1		90	19	
2025-07-19T00:00	35200	6	-30.1		91	19	
2025-07-19T00:00	35250	6	-30.1		90	19	
2025-07-19T00:00	35300	6	-30.4		88	20	
2025-07-19T00:00	35350	6	-30.3		87	21	
2025-07-19T00:00	35400	6	-30.3		85	23	
2025-07-19T00:00	35450	6	-30.3		84	24	
2025-07-19T00:00	35500	6	-30.3		84	25	
2025-07-19T00:00	35550	6	-30.2		83	25	
2025-07-19T00:00	35600	6	-30.1		82	24	
2025-07-19T00:00	35650	6	-30.0		81	23	
2025-07-19T00:00	35700	6	-29.7		80	22	
2025-07-19T00:00	35750	6	-29.7		79	22	
2025-07-19T00:00	35800	6	-29.7		77	22	
2025-07-19T00:00	35850	5	-29.4		76	23	
2025-07-19T00:00	35900	5	-29.2		77	24	
2025-07-19T00:00	35950	5	-29.0		79	26	
2025-07-19T00:00	36000	5	-29.0		82	27	
2025-07-19T00:00	36050	5	-29.1		85	27	
2025-07-19T00:00	36100	5	-29.3		88	27	
2025-07-19T00:00	36150	5	-29.2		88	27	
2025-07-19T00:00	36200	5	-29.2		85	26	
2025-07-19T00:00	36250	5	-28.8		81	25	
2025-07-19T00:00	36300	5	-28.6		80	25	
2025-07-19T00:00	36350	5	-28.5		81	25	
2025-07-19T00:00	36400	5	-28.4		82	26	
2025-07-19T00:00	36450	5	-28.1		82	26	
2025-07-19T00:00	36500	5	-27.6		83	26	
2025-07-19T00:00	36550	5	-27.4		86	25	
2025-07-19T00:00	36600	5	-27.2		87	25	
2025-07-19T00:00	36650	5	-26.8		86	25	
2025-07-19T00:00	36700	5	-26.4		84	25	
2025-07-19T00:00	36750	5	-26.2		81	26	
2025-07-19T00:00	36800	5	-26.2		79	26	
2025-07-19T00:00	36850	5	-26.0		76	26	
2025-07-19T00:00	36900	5	-25.7		74	26	
2025-07-19T00:00	36950	5	-25.7		72	25	
2025-07-19T00:00	37000	5	-25.5		71	25	
2025-07-19T00:00	37050	5	-24.9		72	26	
2025-07-19T00:00	37100	5	-24.6		74	29	
2025-07-19T00:00	37150	5	-24.3		76	31	
2025-07-19T00:00	37200	5	-23.9		79	31	
2025-07-19T00:00	37250	5	-23.9		82	31	
2025-07-19T00:00	37300	4	-23.9		85	30	
2025-07-19T00:00	37350	4	-23.9		87	29	
2025-07-19T00:00	37400	4	-23.7		86	28	
2025-07-19T00:00	37450	4	-23.4		84	26	
2025-07-19T00:00	37500	4	-23.1		82	26	
2025-07-19T00:00	37550	4	-22.9		82	27	
2025-07-19T00:00	37600	4	-22.6		84	28	
2025-07-19T00:00	37650	4	-22.5		85	28	
2025-07-19T00:00	37700	4	-22.3		86	27	
2025-07-19T00:00	37750	4	-22.0		85	26	
2025-07-19T00:00	37800	4	-21.5		84	25	
2025-07-19T00:00	37850	4	-21.4		81	24	
2025-07-19T00:00	37900	4	-21.2		79	24	
2025-07-19T00:00	37950	4	-21.0		77	24	
2025-07-19T00:00	38000	4	-21.0		77	24	
2025-07-19T00:00	38050	4	-21.1		78	24	
2025-07-19T00:00	38100	4	-21.2		79	24	
2025-07-19T00:00	38150	4	-21.3		80	25	
2025-07-19T00:00	38200	4	-21.2		80	26	
2025-07-19T12:00	491	956	23.1	15.9	221	4	
2025-07-19T12:00	501	954	22.9	16.2	217	3	
2025-07-19T12:00	520	953	22.6	16.0	217	3	
2025-07-19T12:00	540	951	22.5	15.8	219	4	
2025-07-19T12:00	560	949	22.3	15.7	222	5	
2025-07-19T12:00	580	946	22.0	15.6	225	6	
2025-07-19T12:00	600	944	21.9	15.5	227	7	
2025-07-19T12:00	620	942	21.7	15.4	229	8	
2025-07-19T12:00	640	940	21.4	15.4	231	9	
2025-07-19T12:00	660	938	21.2	15.4	232	9	
2025-07-19T12:00	680	936	21.0	15.4	232	10	
2025-07-19T12:00	700	933	20.7	15.1	232	10	
2025-07-19T12:00	720	931	20.4	14.8	230	11	
2025-07-19T12:00	740	929	20.1	14.6	229	11	
2025-07-19T12:00	760	927	19.9	14.6	227	12	
2025-07-19T12:00	780	925	19.7	14.6	225	12	
2025-07-19T12:00	800	923	19.5	14.6	225	12	
2025-07-19T12:00	820	920	19.2	14.6	224	13	
2025-07-19T12:00	840	918	19.1	14.4	225	13	
2025-07-19T12:00	860	916	19.0	14.2	226	13	
2025-07-19T12:00	880	914	18.8	14.1	227	13	
2025-07-19T12:00	900	912	18.6	14.0	229	12	
2025-07-19T12:00	920	910	18.5	13.8	230	12	
2025-07-19T12:00	940	908	18.4	13.6	231	12	
2025-07-19T12:00	960	906	18.3	13.1	232	12	
2025-07-19T12:00	980	904	18.1	13.1	233	12	
2025-07-19T12:00	1000	901	17.9	13.1	234	12	
2025-07-19T12:00	1020	899	17.7	13.0	235	13	
2025-07-19T12:00	1040	897	17.6	12.9	237	13	
2025-07-19T12:00	1060	895	17.5	12.8	237	13	
2025-07-19T12:00	1080	893	17.4	12.7	238	13	
2025-07-19T12:00	1100	891	17.2	12.6	238	13	
2025-07-19T12:00	1120	889	17.0	12.6	237	13	
2025-07-19T12:00	1140	887	16.8	12.6	237	12	
2025-07-19T12:00	1160	885	16.7	12.5	236	12	
2025-07-19T12:00	1180	883	16.5	12.5	235	12	
2025-07-19T12:00	1200	881	16.3	12.4	234	12	
2025-07-19T12:00	1220	878	16.2	12.3	234	12	
2025-07-19T12:00	1240	876	16.0	12.3	235	13	
2025-07-19T12:00	1260	874	15.8	12.2	235	13	
2025-07-19T12:00	1280	872	15.7	12.2	236	14	
2025-07-19T12:00	1300	871	15.6	12.1	237	14	
2025-07-19T12:00	1320	868	15.4	12.0	238	14	
2025-07-19T12:00	1340	866	15.3	12.0	238	14	
2025-07-19T12:00	1360	864	15.2	11.9	238	14	
2025-07-19T12:00	1380	862	15.0	11.8	238	14	
2025-07-19T12:00	1400	860	14.9	11.8	238	14	
2025-07-19T12:00	1420	858	14.7	11.7	237	14	
2025-07-19T12:00	1440	856	14.7	11.4	236	13	
2025-07-19T12:00	1460	854	14.6	11.3	235	13	
2025-07-19T12:00	1480	852	14.5	11.4	233	12	
2025-07-19T12:00	1500	850	14.3	11.3	231	12	
2025-07-19T12:00	1520	848	14.1	11.2	229	12	
2025-07-19T12:00	1540	846	13.9	11.2	228	11	
2025-07-19T12:00	1560	844	13.7	11.3	227	11	
2025-07-19T12:00	1580	842	13.5	11.2	227	11	
2025-07-19T12:00	1600	840	13.4	11.2	227	11	
2025-07-19T12:00	1620	838	13.2	11.4	228	11	
2025-07-19T12:00	1640	836	13.1	11.3	228	12	
2025-07-19T12:00	1660	834	13.0	11.2	228	12	
2025-07-19T12:00	1680	832	12.8	11.1	228	13	
2025-07-19T12:00	1700	830	12.7	10.9	228	13	
2025-07-19T12:00	1720	828	12.6	10.7	230	14	
2025-07-19T12:00	1740	826	12.6	10.4	231	14	
2025-07-19T12:00	1760	824	12.5	10.3	233	14	
2025-07-19T12:00	1780	822	12.3	10.3	235	15	
2025-07-19T12:00	1800	820	12.1	10.2	237	15	
2025-07-19T12:00	1820	818	12.0	10.2	238	15	
2025-07-19T12:00	1840	817	11.9	10.1	238	15	
2025-07-19T12:00	1860	815	11.8	10.0	237	16	
2025-07-19T12:00	1880	813	11.6	9.9	235	16	
2025-07-19T12:00	1900	811	11.5	9.8	234	17	
2025-07-19T12:00	1920	809	11.4	9.8	232	17	
2025-07-19T12:00	1940	807	11.2	9.7	231	18	
2025-07-19T12:00	1960	805	11.1	9.5	230	18	
2025-07-19T12:00	1980	803	10.9	9.4	229	18	
2025-07-19T12:00	2000	801	10.8	9.2	228	18	
2025-07-19T12:00	2020	799	10.7	9.3	226	17	
2025-07-19T12:00	2040	797	10.6	9.2	225	17	
2025-07-19T12:00	2060	795	10.5	9.2	223	17	
2025-07-19T12:00	2080	793	10.6	8.9	221	16	
2025-07-19T12:00	2100	792	10.6	8.8	219	16	
2025-07-19T12:00	2120	790	10.6	8.6	218	16	
2025-07-19T12:00	2140	788	10.6	8.4	218	15	
2025-07-19T12:00	2160	786	10.5	8.4	218	14	
2025-07-19T12:00	2180	784	10.4	8.3	217	14	
2025-07-19T12:00	2200	782	10.6	7.8	217	13	
2025-07-19T12:00	2220	780	10.8	7.6	216	13	
2025-07-19T12:00	2240	778	10.7	7.6	215	12	
2025-07-19T12:00	2260	777	10.6	7.5	214	12	
2025-07-19T12:00	2280	774	10.4	7.4	213	12	
2025-07-19T12:00	2300	773	10.4	7.2	213	12	
2025-07-19T12:00	2320	771	10.3	7.2	214	12	
2025-07-19T12:00	2340	769	10.3	7.1	215	13	
2025-07-19T12:00	2360	767	10.2	7.0	215	13	
2025-07-19T12:00	2380	765	10.0	7.0	216	13	
2025-07-19T12:00	2400	764	9.9	6.9	217	14	
2025-07-19T12:00	2420	762	9.8	6.7	217	14	
2025-07-19T12:00	2440	760	9.7	6.6	217	14	
2025-07-19T12:00	2460	758	9.5	6.6	218	13	
2025-07-19T12:00	2480	756	9.4	6.5	218	13	
2025-07-19T12:00	2500	754	9.3	6.5	218	12	
2025-07-19T12:00	2520	752	9.1	6.5	217	12	
2025-07-19T12:00	2540	751	9.0	6.4	215	11	
2025-07-19T12:00	2560	749	8.8	6.3	213	10	
2025-07-19T12:00	2580	747	8.8	6.1	210	10	
2025-07-19T12:00	2600	745	8.6	6.0	206	9	
2025-07-19T12:00	2620	744	8.5	6.0	203	9	
2025-07-19T12:00	2640	742	8.2	6.0	200	9	
2025-07-19T12:00	2660	740	8.0	5.9	199	9	
2025-07-19T12:00	2680	738	7.9	5.8	199	9	
2025-07-19T12:00	2700	736	7.8	5.8	198	9	
2025-07-19T12:00	2720	734	7.5	5.8	198	9	
2025-07-19T12:00	2740	733	7.3	5.9	197	9	
2025-07-19T12:00	2760	731	7.2	5.6	196	9	
2025-07-19T12:00	2780	729	7.2	4.5	195	9	
2025-07-19T12:00	2800	727	7.5	2.7	194	9	
2025-07-19T12:00	2820	726	7.4	2.8	194	9	
2025-07-19T12:00	2840	724	7.4	2.4	194	9	
2025-07-19T12:00	2860	722	7.3	2.2	193	9	
2025-07-19T12:00	2880	720	7.1	2.2	192	9	
2025-07-19T12:00	2900	719	7.0	2.1	190	10	
2025-07-19T12:00	2920	717	6.9	1.8	188	10	
2025-07-19T12:00	2940	715	6.8	1.9	187	11	
2025-07-19T12:00	2960	714	6.6	1.9	188	12	
2025-07-19T12:00	2980	712	6.5	1.9	190	13	
2025-07-19T12:00	3000	710	6.4	1.9	195	14	
2025-07-19T12:00	3020	708	6.3	1.9	199	14	
2025-07-19T12:00	3040	707	6.2	1.8	205	15	
2025-07-19T12:00	3060	705	6.1	1.6	210	15	
2025-07-19T12:00	3080	703	5.9	1.6	213	15	
2025-07-19T12:00	3100	701	5.7	1.6	214	14	
2025-07-19T12:00	3120	700	5.5	1.6	214	14	
2025-07-19T12:00	3140	698	5.4	1.6	212	14	
2025-07-19T12:00	3160	696	5.2	1.6	209	14	
2025-07-19T12:00	3180	695	5.1	1.5	206	15	
2025-07-19T12:00	3200	693	4.9	1.3	202	15	
2025-07-19T12:00	3220	691	4.8	1.2	199	15	
2025-07-19T12:00	3240	690	4.6	1.2	198	15	
2025-07-19T12:00	3260	688	4.4	1.1	198	15	
2025-07-19T12:00	3280	686	4.3	1.0	198	15	
2025-07-19T12:00	3300	684	4.2	1.0	199	15	
2025-07-19T12:00	3320	683	4.0	1.0	200	15	
2025-07-19T12:00	3340	681	3.8	1.0	201	15	
2025-07-19T12:00	3360	679	3.7	1.0	202	15	
2025-07-19T12:00	3380	678	3.5	0.9	202	15	
2025-07-19T12:00	3400	676	3.4	0.9	202	15	
2025-07-19T12:00	3420	674	3.2	0.9	202	15	
2025-07-19T12:00	3440	673	3.0	0.9	202	15	
2025-07-19T12:00	3460	671	2.9	0.8	202	15	
2025-07-19T12:00	3480	670	2.7	0.8	202	15	
2025-07-19T12:00	3500	668	2.5	0.7	202	15	
2025-07-19T12:00	3520	666	2.4	0.6	202	15	
2025-07-19T12:00	3540	665	2.2	0.6	202	14	
2025-07-19T12:00	3560	663	2.1	0.4	202	14	
2025-07-19T12:00	3580	661	2.0	0.2	201	14	
2025-07-19T12:00	3600	660	1.8	0.2	201	14	
2025-07-19T12:00	3620	658	1.7	0.1	200	14	
2025-07-19T12:00	3640	656	1.5	0.0	200	14	
2025-07-19T12:00	3660	655	1.4	-0.1	199	14	
2025-07-19T12:00	3680	653	1.1	-0.1	199	14	
2025-07-19T12:00	3700	651	0.9	-0.1	199	14	
2025-07-19T12:00	3720	650	0.8	-0.2	199	14	
2025-07-19T12:00	3740	648	0.6	-0.2	198	14	
2025-07-19T12:00	3760	647	0.4	-0.3	198	14	
2025-07-19T12:00	3780	645	0.2	-0.3	198	14	
2025-07-19T12:00	3800	643	0.1	-0.3	197	14	
2025-07-19T12:00	3820	642	0.1	-0.5	197	14	
2025-07-19T12:00	3840	640	0.0	-0.7	197	14	
2025-07-19T12:00	3860	639	0.0	-0.9	197	14	
2025-07-19T12:00	3880	637	0.1	-1.0	197	14	
2025-07-19T12:00	3900	635	0.1	-1.3	198	14	
2025-07-19T12:00	3920	634	0.1	-1.8	198	14	
2025-07-19T12:00	3940	632	0.0	-1.8	199	14	
2025-07-19T12:00	3960	631	-0.2	-2.1	200	14	
2025-07-19T12:00	3980	629	-0.3	-2.3	201	14	
2025-07-19T12:00	4000	627	-0.4	-2.5	202	14	
2025-07-19T12:00	4020	626	-0.5	-2.6	203	14	
2025-07-19T12:00	4040	624	-0.6	-2.6	203	14	
2025-07-19T12:00	4060	623	-0.7	-2.6	204	15	
2025-07-19T12:00	4080	621	-0.9	-2.6	204	15	
2025-07-19T12:00	4100	620	-1.0	-2.6	203	15	
2025-07-19T12:00	4120	618	-1.1	-2.7	202	15	
2025-07-19T12:00	4140	617	-1.2	-2.7	201	15	
2025-07-19T12:00	4160	615	-1.4	-2.8	200	15	
2025-07-19T12:00	4180	613	-1.5	-2.9	199	15	
2025-07-19T12:00	4200	612	-1.7	-2.9	199	15	
2025-07-19T12:00	4220	611	-1.8	-2.8	199	15	
2025-07-19T12:00	4240	609	-1.9	-2.9	199	15	
2025-07-19T12:00	4260	607	-2.1	-2.9	199	16	
2025-07-19T12:00	4280	606	-2.2	-2.8	199	16	
2025-07-19T12:00	4300	605	-2.3	-3.0	200	16	
2025-07-19T12:00	4320	603	-2.4	-3.1	200	16	
2025-07-19T12:00	4340	601	-2.6	-3.2	200	16	
2025-07-19T12:00	4360	600	-2.7	-3.3	200	16	
2025-07-19T12:00	4380	598	-2.8	-3.5	199	16	
2025-07-19T12:00	4400	597	-3.0	-3.4	199	16	
2025-07-19T12:00	4420	595	-3.2	-3.5	197	16	
2025-07-19T12:00	4440	594	-3.4	-3.5	197	16	
2025-07-19T12:00	4460	593	-3.5	-3.7	196	16	
2025-07-19T12:00	4480	591	-3.6	-3.8	194	16	
2025-07-19T12:00	4500	589	-3.7	-3.8	193	17	
2025-07-19T12:00	4520	588	-3.8	-4.0	193	17	
2025-07-19T12:00	4540	586	-3.8	-4.3	192	17	
2025-07-19T12:00	4560	585	-3.7	-4.8	192	17	
2025-07-19T12:00	4580	583	-3.7	-5.0	192	18	
2025-07-19T12:00	4600	582	-3.7	-5.2	192	18	
2025-07-19T12:00	4620	580	-3.9	-5.5	192	18	
2025-07-19T12:00	4640	579	-4.1	-5.9	193	18	
2025-07-19T12:00	4660	578	-4.2	-5.8	193	18	
2025-07-19T12:00	4680	576	-4.4	-5.7	194	18	
2025-07-19T12:00	4700	575	-4.5	-5.8	194	18	
2025-07-19T12:00	4720	573	-4.6	-6.0	194	18	
2025-07-19T12:00	4740	572	-4.7	-6.3	195	18	
2025-07-19T12:00	4760	570	-4.9	-6.5	195	18	
2025-07-19T12:00	4780	569	-5.1	-6.3	196	17	
2025-07-19T12:00	4800	568	-5.3	-6.3	196	17	
2025-07-19T12:00	4820	566	-5.4	-6.4	196	17	
2025-07-19T12:00	4840	565	-5.5	-6.4	196	17	
2025-07-19T12:00	4860	563	-5.7	-6.4	196	17	
2025-07-19T12:00	4880	562	-5.9	-6.4	196	17	
2025-07-19T12:00	4900	560	-6.1	-6.4	196	17	
2025-07-19T12:00	4920	559	-6.2	-6.4	195	17	
2025-07-19T12:00	4940	557	-6.4	-6.6	195	17	
2025-07-19T12:00	4960	556	-6.6	-6.7	194	17	
2025-07-19T12:00	4980	555	-6.8	-6.8	193	17	
2025-07-19T12:00	5000	553	-6.9	-6.9	192	18	
2025-07-19T12:00	5020	552	-7.0	-7.0	191	18	
2025-07-19T12:00	5040	550	-7.2	-7.2	189	18	
2025-07-19T12:00	5060	549	-7.3	-7.3	188	18	
2025-07-19T12:00	5080	547	-7.4	-7.4	187	18	
2025-07-19T12:00	5100	546	-7.5	-7.5	187	18	
2025-07-19T12:00	5120	545	-7.6	-7.6	187	18	
2025-07-19T12:00	5140	543	-7.7	-7.8	188	18	
2025-07-19T12:00	5160	542	-7.9	-7.9	190	18	
2025-07-19T12:00	5180	540	-8.0	-8.0	191	18	
2025-07-19T12:00	5200	539	-8.1	-8.1	191	18	
2025-07-19T12:00	5220	538	-8.2	-8.2	191	18	
2025-07-19T12:00	5240	536	-8.3	-8.3	190	18	
2025-07-19T12:00	5260	535	-8.4	-8.4	189	17	
2025-07-19T12:00	5280	534	-8.6	-8.6	187	17	
2025-07-19T12:00	5300	532	-8.7	-8.7	186	17	
2025-07-19T12:00	5320	531	-8.8	-8.8	185	17	
2025-07-19T12:00	5340	529	-8.9	-8.9	185	16	
2025-07-19T12:00	5360	528	-9.1	-9.1	185	16	
2025-07-19T12:00	5380	527	-9.2	-9.2	187	16	
2025-07-19T12:00	5400	525	-9.4	-9.4	188	15	
2025-07-19T12:00	5420	524	-9.5	-9.7	188	15	
2025-07-19T12:00	5440	523	-9.6	-9.8	189	16	
2025-07-19T12:00	5460	521	-9.7	-10.0	189	16	
2025-07-19T12:00	5480	520	-9.9	-10.2	190	16	
2025-07-19T12:00	5500	519	-10.0	-10.4	191	16	
2025-07-19T12:00	5520	517	-10.2	-10.8	191	16	
2025-07-19T12:00	5540	516	-10.3	-11.0	192	16	
2025-07-19T12:00	5560	515	-10.4	-11.2	192	16	
2025-07-19T12:00	5580	513	-10.5	-11.4	193	16	
2025-07-19T12:00	5600	512	-10.6	-11.4	194	17	
2025-07-19T12:00	5620	511	-10.7	-11.4	195	17	
2025-07-19T12:00	5640	509	-10.8	-11.4	197	17	
2025-07-19T12:00	5660	508	-10.9	-11.2	198	18	
2025-07-19T12:00	5680	507	-10.9	-11.0	198	18	
2025-07-19T12:00	5700	505	-11.0	-11.1	198	18	
2025-07-19T12:00	5720	504	-11.1	-11.2	197	18	
2025-07-19T12:00	5740	503	-11.3	-11.5	198	18	
2025-07-19T12:00	5760	501	-11.4	-11.7	199	17	
2025-07-19T12:00	5780	500	-11.5	-11.7	200	17	
2025-07-19T12:00	5800	499	-11.5	-12.0	201	17	
2025-07-19T12:00	5820	498	-11.6	-12.2	201	17	
2025-07-19T12:00	5840	496	-11.7	-12.4	201	17	
2025-07-19T12:00	5860	495	-11.8	-12.9	201	17	
2025-07-19T12:00	5880	494	-11.8	-13.4	200	17	
2025-07-19T12:00	5900	492	-11.8	-13.6	200	17	
2025-07-19T12:00	5920	491	-11.9	-13.7	200	17	
2025-07-19T12:00	5940	490	-12.0	-13.7	200	17	
2025-07-19T12:00	5960	489	-12.1	-13.9	200	16	
2025-07-19T12:00	5980	487	-12.3	-13.9	202	16	
2025-07-19T12:00	6000	486	-12.4	-14.0	202	16	
2025-07-19T12:00	6020	485	-12.6	-14.1	204	16	
2025-07-19T12:00	6040	483	-12.7	-14.2	204	15	
2025-07-19T12:00	6060	482	-12.8	-14.3	205	15	
2025-07-19T12:00	6080	481	-13.0	-14.3	206	15	
2025-07-19T12:00	6100	480	-13.1	-14.5	207	15	
2025-07-19T12:00	6120	478	-13.1	-14.7	208	16	
2025-07-19T12:00	6140	477	-13.2	-15.0	208	15	
2025-07-19T12:00	6160	476	-13.3	-15.5	207	16	
2025-07-19T12:00	6180	475	-13.4	-15.7	207	15	
2025-07-19T12:00	6200	473	-13.6	-16.0	207	15	
2025-07-19T12:00	6220	472	-13.7	-16.2	207	15	
2025-07-19T12:00	6240	471	-13.8	-16.4	207	15	
2025-07-19T12:00	6260	470	-14.0	-16.3	207	15	
2025-07-19T12:00	6280	468	-14.1	-16.2	207	15	
2025-07-19T12:00	6300	467	-14.2	-16.5	207	15	
2025-07-19T12:00	6320	466	-14.3	-16.9	207	15	
2025-07-19T12:00	6340	465	-14.4	-17.5	207	15	
2025-07-19T12:00	6360	463	-14.4	-17.8	207	16	
2025-07-19T12:00	6380	462	-14.5	-17.9	207	16	
2025-07-19T12:00	6400	461	-14.6	-17.8	208	16	
2025-07-19T12:00	6420	460	-14.8	-17.9	208	16	
2025-07-19T12:00	6440	459	-14.9	-18.1	208	17	
2025-07-19T12:00	6460	457	-15.0	-18.2	208	17	
2025-07-19T12:00	6480	456	-15.2	-18.1	207	18	
2025-07-19T12:00	6500	455	-15.3	-17.9	207	18	
2025-07-19T12:00	6520	454	-15.4	-18.6	206	19	
2025-07-19T12:00	6540	453	-15.5	-19.8	206	19	
2025-07-19T12:00	6560	451	-15.7	-19.9	206	20	
2025-07-19T12:00	6580	450	-15.8	-20.6	206	20	
2025-07-19T12:00	6600	449	-15.9	-21.1	205	20	
2025-07-19T12:00	6620	448	-16.1	-20.7	205	20	
2025-07-19T12:00	6640	447	-16.3	-21.2	205	20	
2025-07-19T12:00	6660	445	-16.5	-21.0	204	20	
2025-07-19T12:00	6680	444	-16.6	-21.1	204	20	
2025-07-19T12:00	6700	443	-16.9	-20.9	204	20	
2025-07-19T12:00	6720	442	-17.0	-21.5	204	20	
2025-07-19T12:00	6740	441	-17.2	-22.2	205	20	
2025-07-19T12:00	6760	440	-17.4	-22.7	205	21	
2025-07-19T12:00	6780	438	-17.5	-24.6	205	21	
2025-07-19T12:00	6800	437	-17.6	-25.2	205	20	
2025-07-19T12:00	6820	436	-17.7	-26.4	204	21	
2025-07-19T12:00	6840	435	-17.9	-26.8	204	21	
2025-07-19T12:00	6860	434	-18.1	-26.3	204	21	
2025-07-19T12:00	6880	433	-18.3	-25.8	204	21	
2025-07-19T12:00	6900	431	-18.5	-25.7	204	21	
2025-07-19T12:00	6920	430	-18.6	-26.3	205	20	
2025-07-19T12:00	6940	429	-18.8	-26.6	205	20	
2025-07-19T12:00	6960	428	-19.0	-27.2	206	20	
2025-07-19T12:00	6980	427	-19.1	-28.3	207	20	
2025-07-19T12:00	7000	426	-19.3	-28.4	208	20	
2025-07-19T12:00	7020	425	-19.5	-28.8	209	19	
2025-07-19T12:00	7040	423	-19.6	-29.6	210	19	
2025-07-19T12:00	7060	422	-19.8	-30.1	210	19	
2025-07-19T12:00	7080	421	-20.0	-30.4	209	19	
2025-07-19T12:00	7100	420	-20.1	-30.9	207	19	
2025-07-19T12:00	7120	419	-20.3	-31.0	204	19	
2025-07-19T12:00	7140	418	-20.5	-30.6	201	20	
2025-07-19T12:00	7160	417	-20.7	-29.7	200	20	
2025-07-19T12:00	7180	415	-20.9	-28.1	199	20	
2025-07-19T12:00	7200	414	-20.9	-25.9	198	20	
2025-07-19T12:00	7220	413	-21.0	-25.6	198	19	
2025-07-19T12:00	7240	412	-21.2	-25.1	198	19	
2025-07-19T12:00	7260	411	-21.4	-25.1	198	19	
2025-07-19T12:00	7280	410	-21.5	-25.1	198	20	
2025-07-19T12:00	7300	409	-21.7	-25.3	199	20	
2025-07-19T12:00	7320	408	-21.8	-25.7	199	20	
2025-07-19T12:00	7340	407	-21.9	-25.9	201	20	
2025-07-19T12:00	7360	405	-22.1	-26.1	202	20	
2025-07-19T12:00	7380	404	-22.2	-26.1	204	20	
2025-07-19T12:00	7400	403	-22.3	-26.5	206	20	
2025-07-19T12:00	7420	402	-22.1	-27.2	207	20	
2025-07-19T12:00	7440	401	-22.1	-27.4	208	20	
2025-07-19T12:00	7460	400	-22.2	-27.3	209	21	
2025-07-19T12:00	7480	399	-22.3	-27.4	209	21	
2025-07-19T12:00	7500	398	-22.4	-27.5	211	21	
2025-07-19T12:00	7520	397	-22.5	-27.5	212	22	
2025-07-19T12:00	7540	396	-22.6	-27.5	215	22	
2025-07-19T12:00	7560	395	-22.8	-27.6	216	22	
2025-07-19T12:00	7580	393	-23.0	-27.6	218	21	
2025-07-19T12:00	7600	392	-23.2	-27.6	218	21	
2025-07-19T12:00	7620	391	-23.3	-27.8	219	21	
2025-07-19T12:00	7640	390	-23.5	-27.6	218	21	
2025-07-19T12:00	7660	389	-23.7	-27.6	218	21	
2025-07-19T12:00	7680	388	-23.9	-27.8	219	21	
2025-07-19T12:00	7700	387	-23.9	-28.0	219	21	
2025-07-19T12:00	7720	386	-24.0	-28.0	219	21	
2025-07-19T12:00	7740	385	-24.2	-28.2	220	21	
2025-07-19T12:00	7760	384	-24.3	-28.3	220	21	
2025-07-19T12:00	7780	383	-24.5	-28.4	220	21	
2025-07-19T12:00	7800	382	-24.7	-28.4	220	21	
2025-07-19T12:00	7820	381	-24.8	-28.5	219	21	
2025-07-19T12:00	7840	380	-25.0	-28.6	218	21	
2025-07-19T12:00	7860	379	-25.1	-28.9	218	21	
2025-07-19T12:00	7880	378	-25.3	-29.0	217	21	
2025-07-19T12:00	7900	376	-25.5	-29.1	216	21	
2025-07-19T12:00	7920	376	-25.7	-29.1	216	21	
2025-07-19T12:00	7940	374	-25.9	-29.1	217	22	
2025-07-19T12:00	7960	373	-26.0	-29.2	217	22	
2025-07-19T12:00	7980	373	-26.2	-29.4	218	22	
2025-07-19T12:00	8000	371	-26.4	-29.5	219	22	
2025-07-19T12:00	8020	370	-26.5	-29.7	219	22	
2025-07-19T12:00	8040	369	-26.8	-29.7	220	21	
2025-07-19T12:00	8060	368	-26.9	-30.1	219	21	
2025-07-19T12:00	8080	367	-27.1	-30.4	219	20	
2025-07-19T12:00	8100	366	-27.2	-30.3	218	19	
2025-07-19T12:00	8120	365	-27.4	-30.4	217	19	
2025-07-19T12:00	8140	364	-27.6	-30.5	216	18	
2025-07-19T12:00	8160	363	-27.7	-30.8	216	17	
2025-07-19T12:00	8180	362	-27.9	-31.1	216	17	
2025-07-19T12:00	8200	361	-28.0	-31.1	217	17	
2025-07-19T12:00	8220	360	-27.9	-31.3	218	17	
2025-07-19T12:00	8240	359	-28.0	-31.4	218	18	
2025-07-19T12:00	8260	358	-28.1	-31.9	219	18	
2025-07-19T12:00	8280	357	-28.3	-32.3	220	18	
2025-07-19T12:00	8300	356	-28.4	-32.9	220	18	
2025-07-19T12:00	8320	355	-28.6	-32.9	220	17	
2025-07-19T12:00	8340	354	-28.7	-33.1	219	17	
2025-07-19T12:00	8360	353	-28.8	-33.5	218	16	
2025-07-19T12:00	8380	352	-29.0	-33.7	217	16	
2025-07-19T12:00	8400	351	-29.0	-34.1	216	16	
2025-07-19T12:00	8420	350	-29.1	-34.2	216	16	
2025-07-19T12:00	8440	349	-29.2	-34.4	216	16	
2025-07-19T12:00	8460	348	-29.3	-34.3	217	16	
2025-07-19T12:00	8480	347	-29.4	-34.4	217	16	
2025-07-19T12:00	8500	346	-29.6	-34.5	218	16	
2025-07-19T12:00	8520	345	-29.8	-34.5	219	16	
2025-07-19T12:00	8540	345	-29.9	-34.6	220	16	
2025-07-19T12:00	8560	344	-30.0	-34.5	222	15	
2025-07-19T12:00	8580	343	-30.2	-34.4	223	15	
2025-07-19T12:00	8600	341	-30.4	-34.5	225	15	
2025-07-19T12:00	8620	341	-30.5	-34.7	226	15	
2025-07-19T12:00	8640	340	-30.7	-34.7	226	15	
2025-07-19T12:00	8660	339	-30.9	-34.7	225	15	
2025-07-19T12:00	8680	338	-31.1	-34.7	224	15	
2025-07-19T12:00	8700	337	-31.3	-34.9	223	15	
2025-07-19T12:00	8720	336	-31.5	-35.0	223	15	
2025-07-19T12:00	8740	335	-31.6	-35.2	223	15	
2025-07-19T12:00	8760	334	-31.7	-35.2	223	15	
2025-07-19T12:00	8780	333	-31.9	-35.2	224	15	
2025-07-19T12:00	8800	332	-32.1	-35.4	225	15	
2025-07-19T12:00	8820	331	-32.2	-35.4	226	15	
2025-07-19T12:00	8840	330	-32.4	-35.5	227	15	
2025-07-19T12:00	8860	329	-32.6	-35.7	226	15	
2025-07-19T12:00	8880	328	-32.7	-35.9	226	16	
2025-07-19T12:00	8900	327	-32.9	-36.1	225	16	
2025-07-19T12:00	8920	326	-33.1	-36.2	225	16	
2025-07-19T12:00	8940	325	-33.3	-36.4	225	16	
2025-07-19T12:00	8960	325	-33.4	-36.5	225	17	
2025-07-19T12:00	8980	324	-33.6	-36.6	226	17	
2025-07-19T12:00	9000	323	-33.8	-36.9	228	17	
2025-07-19T12:00	9020	322	-33.9	-37.1	230	18	
2025-07-19T12:00	9040	321	-34.1	-37.2	232	18	
2025-07-19T12:00	9060	320	-34.3	-37.1	233	18	
2025-07-19T12:00	9080	319	-34.5	-37.2	234	18	
2025-07-19T12:00	9100	318	-34.7	-37.3	235	18	
2025-07-19T12:00	9120	317	-34.9	-37.5	236	18	
2025-07-19T12:00	9140	316	-35.0	-37.6	235	18	
2025-07-19T12:00	9160	316	-35.2	-37.6	234	18	
2025-07-19T12:00	9180	315	-35.4	-37.6	233	18	
2025-07-19T12:00	9200	314	-35.6	-37.6	230	18	
2025-07-19T12:00	9220	313	-35.8	-37.8	227	18	
2025-07-19T12:00	9240	312	-36.0	-38.1	225	19	
2025-07-19T12:00	9260	311	-36.1	-38.1	224	19	
2025-07-19T12:00	9280	310	-36.4	-38.2	224	20	
2025-07-19T12:00	9300	309	-36.5	-38.3	225	20	
2025-07-19T12:00	9320	308	-36.7	-38.8	228	20	
2025-07-19T12:00	9340	307	-36.8	-39.1	229	21	
2025-07-19T12:00	9360	307	-36.9	-39.1	231	21	
2025-07-19T12:00	9380	306	-37.1	-39.7	232	21	
2025-07-19T12:00	9400	305	-37.3	-39.8	233	21	
2025-07-19T12:00	9420	304	-37.5	-40.0	233	21	
2025-07-19T12:00	9440	303	-37.6	-39.9	233	21	
2025-07-19T12:00	9460	302	-37.7	-39.9	234	21	
2025-07-19T12:00	9480	301	-37.9	-40.1	234	21	
2025-07-19T12:00	9500	300	-38.0	-40.8	234	22	
2025-07-19T12:00	9520	299	-38.1	-40.9	234	22	
2025-07-19T12:00	9540	299	-38.2	-41.2	234	22	
2025-07-19T12:00	9560	298	-38.3	-41.4	235	22	
2025-07-19T12:00	9580	297	-38.5	-41.7	235	23	
2025-07-19T12:00	9600	296	-38.7	-41.9	234	23	
2025-07-19T12:00	9620	295	-38.9	-42.2	234	23	
2025-07-19T12:00	9640	294	-39.0	-42.8	234	23	
2025-07-19T12:00	9660	293	-39.2	-42.9	233	22	
2025-07-19T12:00	9680	293	-39.3	-42.9	233	22	
2025-07-19T12:00	9700	292	-39.5	-43.0	233	22	
2025-07-19T12:00	9720	291	-39.7	-43.1	233	21	
2025-07-19T12:00	9740	290	-39.9	-43.5	234	21	
2025-07-19T12:00	9760	289	-40.1	-43.8	234	20	
2025-07-19T12:00	9780	288	-40.3	-43.9	235	19	
2025-07-19T12:00	9800	287	-40.4	-43.9	236	19	
2025-07-19T12:00	9820	287	-40.6	-44.1	237	19	
2025-07-19T12:00	9840	286	-40.8	-44.1	238	19	
2025-07-19T12:00	9860	285	-41.0	-44.1	239	19	
2025-07-19T12:00	9880	284	-41.1	-44.5	239	19	
2025-07-19T12:00	9900	283	-41.2	-44.6	239	19	
2025-07-19T12:00	9920	282	-41.4	-44.6	239	19	
2025-07-19T12:00	9940	282	-41.5	-44.8	239	19	
2025-07-19T12:00	9960	281	-41.7	-45.2	239	19	
2025-07-19T12:00	9980	280	-41.8	-45.5	240	19	
2025-07-19T12:00	10000	279	-42.0	-45.6	240	19	
2025-07-19T12:00	10018	278	-42.2	-45.5	240	19	
2025-07-19T12:00	10050	277	-42.4	-45.8	241	19	
2025-07-19T12:00	10100	275	-42.8	-46.7	239	19	
2025-07-19T12:00	10150	273	-43.2	-46.9	238	20	
2025-07-19T12:00	10200	271	-43.7	-47.4	236	22	
2025-07-19T12:00	10250	269	-44.2	-47.8	235	22	
2025-07-19T12:00	10300	267	-44.6	-48.1	235	22	
2025-07-19T12:00	10350	265	-45.1	-48.4	236	22	
2025-07-19T12:00	10400	263	-45.6	-48.9	237	22	
2025-07-19T12:00	10450	261	-46.1	-49.4	237	21	
2025-07-19T12:00	10500	259	-46.5	-49.9	237	21	
2025-07-19T12:00	10550	257	-46.9	-50.2	237	21	
2025-07-19T12:00	10600	255	-47.4	-50.8	238	21	
2025-07-19T12:00	10650	253	-47.9	-51.3	238	21	
2025-07-19T12:00	10700	251	-48.3	-51.6	238	21	
2025-07-19T12:00	10750	249	-48.8	-51.9	238	21	
2025-07-19T12:00	10800	247	-49.3	-52.2	238	21	
2025-07-19T12:00	10850	246	-49.8	-52.5	239	21	
2025-07-19T12:00	10900	244	-50.2	-53.6	240	20	
2025-07-19T12:00	10950	242	-50.7	-54.6	239	20	
2025-07-19T12:00	11000	240	-51.2	-55.3	239	20	
2025-07-19T12:00	11050	238	-51.7	-55.4	240	20	
2025-07-19T12:00	11100	236	-52.1	-55.8	241	20	
2025-07-19T12:00	11150	234	-52.6	-56.2	241	19	
2025-07-19T12:00	11200	233	-53.1	-56.4	241	19	
2025-07-19T12:00	11250	231	-53.6	-56.6	242	19	
2025-07-19T12:00	11300	229	-54.0	-58.0	243	19	
2025-07-19T12:00	11350	227	-54.6	-59.2	243	19	
2025-07-19T12:00	11400	226	-55.0	-59.0	245	18	
2025-07-19T12:00	11450	224	-55.5	-59.2	248	17	
2025-07-19T12:00	11500	222	-55.7	-59.7	247	17	
2025-07-19T12:00	11550	220	-56.1	-59.8	243	16	
2025-07-19T12:00	11600	219	-56.5	-60.1	241	16	
2025-07-19T12:00	11650	217	-56.9	-60.7	240	16	
2025-07-19T12:00	11700	215	-57.3	-61.5	239	16	
2025-07-19T12:00	11750	213	-57.8	-62.3	238	16	
2025-07-19T12:00	11800	212	-58.3	-62.9	238	17	
2025-07-19T12:00	11850	210	-58.7	-63.2	237	18	
2025-07-19T12:00	11900	208	-59.0	-63.7	233	19	
2025-07-19T12:00	11950	207	-59.1	-64.1	229	20	
2025-07-19T12:00	12000	205	-59.3	-64.2	229	21	
2025-07-19T12:00	12050	204	-59.6	-64.1	231	23	
2025-07-19T12:00	12100	202	-59.9	-63.8	231	25	
2025-07-19T12:00	12150	200	-57.2	-60.7	231	28	
2025-07-19T12:00	12200	199	-55.0	-59.7	233	29	
2025-07-19T12:00	12250	197	-54.9	-61.9	236	29	
2025-07-19T12:00	12300	196	-55.3	-62.9	237	28	
2025-07-19T12:00	12350	194	-55.8	-63.2	237	26	
2025-07-19T12:00	12400	193	-56.2	-64.1	238	25	
2025-07-19T12:00	12450	191	-56.7	-65.4	240	24	
2025-07-19T12:00	12500	190	-57.1	-68.0	240	24	
2025-07-19T12:00	12550	188	-57.6	-69.9	240	22	
2025-07-19T12:00	12600	187	-57.4	-76.3	240	21	
2025-07-19T12:00	12650	185	-55.0	-83.3	241	20	
2025-07-19T12:00	12700	184	-53.1	-81.2	243	19	
2025-07-19T12:00	12750	182	-52.4	-80.4	243	18	
2025-07-19T12:00	12800	181	-52.3	-79.6	242	16	
2025-07-19T12:00	12850	179	-52.5	-79.1	240	16	
2025-07-19T12:00	12900	178	-52.7	-79.0	240	16	
2025-07-19T12:00	12950	177	-53.0	-78.8	238	16	
2025-07-19T12:00	13000	175	-53.1	-77.3	238	15	
2025-07-19T12:00	13050	174	-52.0	-77.0	238	15	
2025-07-19T12:00	13100	173	-51.2	-79.4	237	15	
2025-07-19T12:00	13150	171	-51.4	-79.5	236	16	
2025-07-19T12:00	13200	170	-51.7	-79.5	235	17	
2025-07-19T12:00	13250	169	-52.0	-79.5	233	17	
2025-07-19T12:00	13300	167	-52.4	-79.6	231	18	
2025-07-19T12:00	13350	166	-52.9	-79.8	230	18	
2025-07-19T12:00	13400	165	-53.2	-79.9	229	19	
2025-07-19T12:00	13450	164	-53.6	-80.1	229	19	
2025-07-19T12:00	13500	162	-53.6	-80.2	230	19	
2025-07-19T12:00	13550	161	-53.6	-80.4	232	19	
2025-07-19T12:00	13600	160	-53.9	-80.5	232	19	
2025-07-19T12:00	13650	159	-53.7	-80.7	228	18	
2025-07-19T12:00	13700	157	-53.2	-80.9	222	17	
2025-07-19T12:00	13750	156	-52.9	-81.0	220	17	
2025-07-19T12:00	13800	155	-51.4	-80.3	223	18	
2025-07-19T12:00	13850	154	-51.1	-79.7	227	18	
2025-07-19T12:00	13900	153	-51.1	-79.4	229	19	
2025-07-19T12:00	13950	151	-51.0	-79.0	232	19	
2025-07-19T12:00	14000	150	-51.0	-78.7	234	19	
2025-07-19T12:00	14050	149	-51.0	-78.6	234	19	
2025-07-19T12:00	14100	148	-51.2	-78.8	233	19	
2025-07-19T12:00	14150	147	-51.5	-79.1	230	18	
2025-07-19T12:00	14200	146	-51.8	-79.3	227	18	
2025-07-19T12:00	14250	145	-52.0	-79.9	225	19	
2025-07-19T12:00	14300	143	-51.6	-80.5	224	20	
2025-07-19T12:00	14350	142	-51.7	-80.9	226	20	
2025-07-19T12:00	14400	141	-51.8	-81.1	228	19	
2025-07-19T12:00	14450	140	-52.1	-81.2	230	18	
2025-07-19T12:00	14500	139	-52.5	-81.3	230	18	
2025-07-19T12:00	14550	138	-53.0	-81.4	230	17	
2025-07-19T12:00	14600	137	-53.3	-81.7	230	17	
2025-07-19T12:00	14650	136	-53.6	-81.8	231	17	
2025-07-19T12:00	14700	135	-54.0	-82.0	234	18	
2025-07-19T12:00	14750	134	-54.0	-82.3	238	17	
2025-07-19T12:00	14800	133	-53.6	-82.2	241	15	
2025-07-19T12:00	14850	132	-53.2	-81.9	239	13	
2025-07-19T12:00	14900	131	-53.2	-82.0	234	12	
2025-07-19T12:00	14950	130	-53.3	-81.9	231	12	
2025-07-19T12:00	15000	129	-53.6	-82.0	230	12	
2025-07-19T12:00	15050	128	-54.0	-82.0	230	12	
2025-07-19T12:00	15100	127	-54.4	-82.2	229	12	
2025-07-19T12:00	15150	126	-54.8	-82.4	228	12	
2025-07-19T12:00	15200	125	-55.2	-82.5	226	13	
2025-07-19T12:00	15250	124	-55.6	-82.6	223	13	
2025-07-19T12:00	15300	123	-55.9	-82.7	221	14	
2025-07-19T12:00	15350	122	-56.3	-82.9	221	14	
2025-07-19T12:00	15400	121	-56.7	-83.0	220	14	
2025-07-19T12:00	15450	120	-56.9	-83.2	218	14	
2025-07-19T12:00	15500	119	-56.7	-83.2	218	14	
2025-07-19T12:00	15550	118	-56.6	-83.4	221	15	
2025-07-19T12:00	15600	117	-56.0	-83.2	225	15	
2025-07-19T12:00	15650	116	-55.8	-83.3	229	15	
2025-07-19T12:00	15700	115	-55.6	-83.3	229	15	
2025-07-19T12:00	15750	114	-54.9	-83.2	227	14	
2025-07-19T12:00	15800	113	-54.7	-83.1	224	14	
2025-07-19T12:00	15850	113	-55.0	-83.0	224	14	
2025-07-19T12:00	15900	112	-55.2	-82.9	224	15	
2025-07-19T12:00	15950	111	-55.6	-83.0	224	15	
2025-07-19T12:00	16000	110	-55.8	-83.0	225	16	
2025-07-19T12:00	16050	109	-56.0	-83.2	230	17	
2025-07-19T12:00	16100	108	-55.9	-83.3	235	18	
2025-07-19T12:00	16150	107	-55.9	-83.3	240	18	
2025-07-19T12:00	16200	107	-55.9	-83.5	246	17	
2025-07-19T12:00	16250	106	-55.1	-83.5	250	15	
2025-07-19T12:00	16300	105	-54.9	-83.7	253	12	
2025-07-19T12:00	16350	104	-54.9	-83.7	255	10	
2025-07-19T12:00	16400	103	-54.9	-83.7	254	9	
2025-07-19T12:00	16450	103	-54.9	-83.8	256	7	
2025-07-19T12:00	16500	102	-54.8	-83.9	262	6	
2025-07-19T12:00	16550	101	-54.5	-83.8	265	5	
2025-07-19T12:00	16600	100	-54.8	-83.8	260	5	
2025-07-19T12:00	16650	99	-55.1	-83.8	251	5	
2025-07-19T12:00	16700	99	-55.4	-84.0	243	6	
2025-07-19T12:00	16750	98	-55.7	-84.1	241	6	
2025-07-19T12:00	16800	97	-56.1	-84.1	243	6	
2025-07-19T12:00	16850	96	-56.5	-84.2	245	7	
2025-07-19T12:00	16900	95	-56.9	-84.4	248	7	
2025-07-19T12:00	16950	95	-57.1	-84.7	247	7	
2025-07-19T12:00	17000	94	-56.6	-84.7	239	7	
2025-07-19T12:00	17050	93	-56.5	-84.6	232	7	
2025-07-19T12:00	17100	93	-56.8	-84.6	228	8	
2025-07-19T12:00	17150	92	-57.2	-84.7	223	8	
2025-07-19T12:00	17200	91	-57.3	-84.9	215	8	
2025-07-19T12:00	17250	90	-56.6	-85.0	207	9	
2025-07-19T12:00	17300	90	-56.3	-84.9	207	9	
2025-07-19T12:00	17350	89	-56.7	-84.9	213	9	
2025-07-19T12:00	17400	88	-56.6	-84.9	217	10	
2025-07-19T12:00	17450	88	-56.7	-84.9	220	10	
2025-07-19T12:00	17500	87	-57.0	-85.0	225	10	
2025-07-19T12:00	17550	86	-57.2	-85.1	229	9	
2025-07-19T12:00	17600	86	-57.1	-85.1	230	7	
2025-07-19T12:00	17650	85	-57.0	-85.2	229	6	
2025-07-19T12:00	17700	84	-56.7	-85.2	232	6	
2025-07-19T12:00	17750	83	-56.6	-85.1	232	5	
2025-07-19T12:00	17800	83	-56.8	-85.1	225	5	
2025-07-19T12:00	17850	82	-56.7	-85.1	209	4	
2025-07-19T12:00	17900	82	-56.7	-85.3	185	3	
2025-07-19T12:00	17950	81	-56.1	-85.1	168	4	
2025-07-19T12:00	18000	80	-56.1	-85.2	161	5	
2025-07-19T12:00	18050	80	-56.0	-85.1	161	6	
2025-07-19T12:00	18100	79	-56.1	-85.0	167	6	
2025-07-19T12:00	18150	78	-56.2	-84.9	176	6	
2025-07-19T12:00	18200	78	-56.6	-85.1	183	5	
2025-07-19T12:00	18250	77	-56.6	-85.2	187	5	
2025-07-19T12:00	18300	77	-56.3	-85.3	194	5	
2025-07-19T12:00	18350	76	-56.0	-85.2	200	6	
2025-07-19T12:00	18400	75	-56.1	-85.1	203	6	
2025-07-19T12:00	18450	75	-56.2	-85.1	203	7	
2025-07-19T12:00	18500	74	-56.2	-85.1	203	7	
2025-07-19T12:00	18550	74	-56.2	-85.2	203	6	
2025-07-19T12:00	18600	73	-56.0	-85.1	201	5	
2025-07-19T12:00	18650	72	-56.0	-85.2	201	5	
2025-07-19T12:00	18700	72	-55.9	-85.1	207	6	
2025-07-19T12:00	18750	71	-55.9	-85.2	216	6	
2025-07-19T12:00	18800	71	-55.5	-85.1	222	5	
2025-07-19T12:00	18850	70	-55.3	-85.1	216	3	
2025-07-19T12:00	18900	70	-55.1	-84.9	181	1	
2025-07-19T12:00	18950	69	-54.9	-84.8	113	2	
2025-07-19T12:00	19000	69	-55.0	-84.8	95	3	
2025-07-19T12:00	19050	68	-55.3	-84.9	90	4	
2025-07-19T12:00	19100	68	-55.0	-84.9	93	5	
2025-07-19T12:00	19150	67	-55.0	-84.9	103	6	
2025-07-19T12:00	19200	66	-54.9	-84.9	115	7	
2025-07-19T12:00	19250	66	-55.0	-84.9	126	7	
2025-07-19T12:00	19300	65	-55.2	-84.9	138	7	
2025-07-19T12:00	19350	65	-55.3	-84.9	152	6	
2025-07-19T12:00	19400	64	-55.1	-84.9	165	6	
2025-07-19T12:00	19450	64	-55.1	-85.0	172	6	
2025-07-19T12:00	19500	63	-55.1	-85.0	177	5	
2025-07-19T12:00	19550	63	-55.1	-84.9	186	3	
2025-07-19T12:00	19600	62	-55.2	-85.0	206	3	
2025-07-19T12:00	19650	62	-55.0	-85.1	221	3	
2025-07-19T12:00	19700	61	-54.6	-85.0	216	3	
2025-07-19T12:00	19750	61	-54.6	-84.9	204	3	
2025-07-19T12:00	19800	61	-54.8	-84.9	203	2	
2025-07-19T12:00	19850	60	-54.9	-84.8	212	2	
2025-07-19T12:00	19900	60	-55.0	-84.9	212	2	
2025-07-19T12:00	19950	59	-55.1	-85.0	185	2	
2025-07-19T12:00	20000	59	-54.7	-85.0	131	2	
2025-07-19T12:00	20050	58	-54.0		112	4	
2025-07-19T12:00	20100	58	-54.0		113	5	
2025-07-19T12:00	20150	57	-54.0		117	6	
2025-07-19T12:00	20200	57	-54.2		124	7	
2025-07-19T12:00	20250	56	-54.3		132	7	
2025-07-19T12:00	20300	56	-54.0		137	6	
2025-07-19T12:00	20350	56	-54.1		141	6	
2025-07-19T12:00	20400	55	-54.1		144	6	
2025-07-19T12:00	20450	55	-54.0		144	7	
2025-07-19T12:00	20500	54	-53.7		141	7	
2025-07-19T12:00	20550	54	-53.6		139	8	
2025-07-19T12:00	20600	53	-53.7		138	9	
2025-07-19T12:00	20650	53	-53.6		140	9	
2025-07-19T12:00	20700	53	-53.3		147	9	
2025-07-19T12:00	20750	52	-53.5		153	8	
2025-07-19T12:00	20800	52	-53.7		157	8	
2025-07-19T12:00	20850	51	-53.6		158	8	
2025-07-19T12:00	20900	51	-53.5		160	9	
2025-07-19T12:00	20950	51	-53.5		163	9	
2025-07-19T12:00	21000	50	-53.3		167	8	
2025-07-19T12:00	21050	50	-53.4		168	7	
2025-07-19T12:00	21100	49	-53.3		165	7	
2025-07-19T12:00	21150	49	-53.1		158	7	
2025-07-19T12:00	21200	49	-52.9		153	7	
2025-07-19T12:00	21250	48	-52.9		156	8	
2025-07-19T12:00	21300	48	-52.9		161	7	
2025-07-19T12:00	21350	48	-52.6		165	6	
2025-07-19T12:00	21400	47	-52.5		169	5	
2025-07-19T12:00	21450	47	-52.7		170	4	
2025-07-19T12:00	21500	46	-52.6		162	3	
2025-07-19T12:00	21550	46	-52.5		141	2	
2025-07-19T12:00	21600	46	-52.5		102	2	
2025-07-19T12:00	21650	45	-52.4		85	3	
2025-07-19T12:00	21700	45	-52.2		90	4	
2025-07-19T12:00	21750	45	-52.2		99	5	
2025-07-19T12:00	21800	44	-52.1		107	7	
2025-07-19T12:00	21850	44	-52.0		113	8	
2025-07-19T12:00	21900	44	-51.8		117	7	
2025-07-19T12:00	21950	43	-51.7		120	6	
2025-07-19T12:00	22000	43	-51.7		124	5	
2025-07-19T12:00	22050	43	-51.8		124	5	
2025-07-19T12:00	22100	42	-51.8		118	4	
2025-07-19T12:00	22150	42	-51.7		107	4	
2025-07-19T12:00	22200	42	-51.7		101	5	
2025-07-19T12:00	22250	41	-51.8		101	5	
2025-07-19T12:00	22300	41	-52.0		109	5	
2025-07-19T12:00	22350	41	-51.9		117	5	
2025-07-19T12:00	22400	40	-51.9		117	5	
2025-07-19T12:00	22450	40	-51.8		110	4	
2025-07-19T12:00	22500	40	-51.7		103	3	
2025-07-19T12:00	22550	39	-51.6		104	2	
2025-07-19T12:00	22600	39	-51.5		110	3	
2025-07-19T12:00	22650	39	-51.6		116	4	
2025-07-19T12:00	22700	39	-51.7		122	5	
2025-07-19T12:00	22750	38	-51.8		130	6	
2025-07-19T12:00	22800	38	-51.7		139	8	
2025-07-19T12:00	22850	38	-51.8		145	9	
2025-07-19T12:00	22900	37	-51.8		147	9	
2025-07-19T12:00	22950	37	-51.6		151	8	
2025-07-19T12:00	23000	37	-51.6		160	7	
2025-07-19T12:00	23050	37	-51.5		169	7	
2025-07-19T12:00	23100	36	-51.3		173	6	
2025-07-19T12:00	23150	36	-51.2		170	5	
2025-07-19T12:00	23200	36	-51.2		158	4	
2025-07-19T12:00	23250	35	-51.3		140	4	
2025-07-19T12:00	23300	35	-51.4		128	4	
2025-07-19T12:00	23350	35	-51.2		129	5	
2025-07-19T12:00	23400	35	-51.1		133	5	
2025-07-19T12:00	23450	34	-51.2		128	5	
2025-07-19T12:00	23500	34	-51.0		112	5	
2025-07-19T12:00	23550	34	-50.7		90	5	
2025-07-19T12:00	23600	34	-50.5		75	6	
2025-07-19T12:00	23650	33	-50.5		68	8	
2025-07-19T12:00	23700	33	-50.3		69	9	
2025-07-19T12:00	23750	33	-50.2		77	9	
2025-07-19T12:00	23800	33	-50.1		88	10	
2025-07-19T12:00	23850	32	-50.2		98	10	
2025-07-19T12:00	23900	32	-50.3		106	11	
2025-07-19T12:00	23950	32	-50.4		113	10	
2025-07-19T12:00	24000	32	-50.4		120	9	
2025-07-19T12:00	24050	31	-50.6		124	8	
2025-07-19T12:00	24100	31	-50.6		121	8	
2025-07-19T12:00	24150	31	-50.3		116	8	
2025-07-19T12:00	24200	31	-50.3		114	8	
2025-07-19T12:00	24250	30	-50.2		115	8	
2025-07-19T12:00	24300	30	-50.0		114	9	
2025-07-19T12:00	24350	30	-49.7		114	10	
2025-07-19T12:00	24400	30	-49.6		114	10	
2025-07-19T12:00	24450	29	-49.6		117	10	
2025-07-19T12:00	24500	29	-49.5		123	8	
2025-07-19T12:00	24550	29	-49.2		131	7	
2025-07-19T12:00	24600	29	-48.8		132	6	
2025-07-19T12:00	24650	29	-48.4		124	7	
2025-07-19T12:00	24700	28	-48.2		115	7	
2025-07-19T12:00	24750	28	-48.3		109	8	
2025-07-19T12:00	24800	28	-48.4		107	9	
2025-07-19T12:00	24850	28	-48.5		108	9	
2025-07-19T12:00	24900	28	-48.4		110	10	
2025-07-19T12:00	24950	27	-48.2		113	11	
2025-07-19T12:00	25000	27	-48.0		114	11	
2025-07-19T12:00	25050	27	-47.7		113	11	
2025-07-19T12:00	25100	27	-47.6		112	12	
2025-07-19T12:00	25150	27	-47.5		112	12	
2025-07-19T12:00	25200	26	-47.4		113	12	
2025-07-19T12:00	25250	26	-47.5		115	12	
2025-07-19T12:00	25300	26	-47.6		116	11	
2025-07-19T12:00	25350	26	-47.6		115	11	
2025-07-19T12:00	25400	26	-47.6		113	11	
2025-07-19T12:00	25450	25	-47.6		112	12	
2025-07-19T12:00	25500	25	-47.7		113	13	
2025-07-19T12:00	25550	25	-47.8		117	13	
2025-07-19T12:00	25600	25	-47.8		123	13	
2025-07-19T12:00	25650	25	-47.7		128	12	
2025-07-19T12:00	25700	24	-47.6		131	11	
2025-07-19T12:00	25750	24	-47.4		131	10	
2025-07-19T12:00	25800	24	-47.0		135	10	
2025-07-19T12:00	25850	24	-46.8		140	9	
2025-07-19T12:00	25900	24	-46.7		142	8	
2025-07-19T12:00	25950	23	-46.4		141	7	
2025-07-19T12:00	26000	23	-46.5		142	7	
2025-07-19T12:00	26050	23	-46.5		145	6	
2025-07-19T12:00	26100	23	-46.2		142	6	
2025-07-19T12:00	26150	23	-45.9		136	6	
2025-07-19T12:00	26200	23	-45.8		130	7	
2025-07-19T12:00	26250	22	-45.6		126	7	
2025-07-19T12:00	26300	22	-45.6		122	7	
2025-07-19T12:00	26350	22	-45.4		117	7	
2025-07-19T12:00	26400	22	-45.2		112	6	
2025-07-19T12:00	26450	22	-45.1		107	6	
2025-07-19T12:00	26500	22	-45.1		104	6	
2025-07-19T12:00	26550	21	-45.2		101	6	
2025-07-19T12:00	26600	21	-45.3		100	6	
2025-07-19T12:00	26650	21	-45.3		99	7	
2025-07-19T12:00	26700	21	-45.4		98	7	
2025-07-19T12:00	26750	21	-45.4		98	7	
2025-07-19T12:00	26800	21	-45.3		101	7	
2025-07-19T12:00	26850	21	-45.0		104	6	
2025-07-19T12:00	26900	20	-44.6		108	6	
2025-07-19T12:00	26950	20	-44.4		113	6	
2025-07-19T12:00	27000	20	-44.4		114	6	
2025-07-19T12:00	27050	20	-44.5		112	6	
2025-07-19T12:00	27100	20	-44.5		107	7	
2025-07-19T12:00	27150	20	-44.5		104	7	
2025-07-19T12:00	27200	19	-44.5		102	8	
2025-07-19T12:00	27250	19	-44.5		99	9	
2025-07-19T12:00	27300	19	-44.3		96	10	
2025-07-19T12:00	27350	19	-44.2		96	11	
2025-07-19T12:00	27400	19	-44.5		97	11	
2025-07-19T12:00	27450	19	-44.5		100	11	
2025-07-19T12:00	27500	19	-44.4		104	11	
2025-07-19T12:00	27550	18	-44.0		109	10	
2025-07-19T12:00	27600	18	-43.9		114	9	
2025-07-19T12:00	27650	18	-44.0		118	8	
2025-07-19T12:00	27700	18	-43.9		122	8	
2025-07-19T12:00	27750	18	-43.7		123	7	
2025-07-19T12:00	27800	18	-43.5		121	7	
2025-07-19T12:00	27850	18	-43.3		116	7	
2025-07-19T12:00	27900	18	-43.4		110	7	
2025-07-19T12:00	27950	17	-43.5		106	7	
2025-07-19T12:00	28000	17	-43.7		104	7	
2025-07-19T12:00	28050	17	-43.7		102	7	
2025-07-19T12:00	28100	17	-43.5		100	6	
2025-07-19T12:00	28150	17	-43.4		100	6	
2025-07-19T12:00	28200	17	-43.3		102	6	
2025-07-19T12:00	28250	17	-43.3		103	8	
2025-07-19T12:00	28300	17	-43.4		102	9	
2025-07-19T12:00	28350	16	-43.5		98	9	
2025-07-19T12:00	28400	16	-43.4		91	9	
2025-07-19T12:00	28450	16	-43.3		84	10	
2025-07-19T12:00	28500	16	-43.2		78	10	
2025-07-19T12:00	28550	16	-43.1		77	11	
2025-07-19T12:00	28600	16	-43.0		81	11	
2025-07-19T12:00	28650	16	-43.1		87	12	
2025-07-19T12:00	28700	16	-43.1		91	13	
2025-07-19T12:00	28750	15	-43.0		95	13	
2025-07-19T12:00	28800	15	-42.9		100	13	
2025-07-19T12:00	28850	15	-43.1		105	13	
2025-07-19T12:00	28900	15	-43.2		109	12	
2025-07-19T12:00	28950	15	-43.2		111	11	
2025-07-19T12:00	29000	15	-42.9		108	10	
2025-07-19T12:00	29050	15	-42.7		101	8	
2025-07-19T12:00	29100	15	-42.7		92	8	
2025-07-19T12:00	29150	15	-42.5		89	9	
2025-07-19T12:00	29200	14	-42.5		90	10	
2025-07-19T12:00	29250	14	-42.4		93	10	
2025-07-19T12:00	29300	14	-42.2		94	10	
2025-07-19T12:00	29350	14	-42.0		96	10	
2025-07-19T12:00	29400	14	-41.7		96	10	
2025-07-19T12:00	29450	14	-41.5		95	9	
2025-07-19T12:00	29500	14	-41.2		92	9	
2025-07-19T12:00	29550	14	-41.1		90	9	
2025-07-19T12:00	29600	14	-41.1		90	10	
2025-07-19T12:00	29650	14	-41.0		90	12	
2025-07-19T12:00	29700	13	-41.0		91	13	
2025-07-19T12:00	29750	13	-41.1		92	13	
2025-07-19T12:00	29800	13	-41.1		93	13	
2025-07-19T12:00	29850	13	-41.2		91	12	
2025-07-19T12:00	29900	13	-41.1		87	10	
2025-07-19T12:00	29950	13	-41.0		81	10	
2025-07-19T12:00	30000	13	-41.0		79	10	
2025-07-19T12:00	30050	13	-41.0		83	10	
2025-07-19T12:00	30100	13	-41.0		89	11	
2025-07-19T12:00	30150	13	-41.0		93	12	
2025-07-19T12:00	30200	12	-41.1		98	12	
2025-07-19T12:00	30250	12	-41.1		104	11	
2025-07-19T12:00	30300	12	-41.0		109	10	
2025-07-19T12:00	30350	12	-41.0		108	10	
2025-07-19T12:00	30400	12	-40.8		101	9	
2025-07-19T12:00	30450	12	-40.5		92	9	
2025-07-19T12:00	30500	12	-40.3		84	10	
2025-07-19T12:00	30550	12	-40.3		78	11	
2025-07-19T12:00	30600	12	-40.1		76	13	
2025-07-19T12:00	30650	12	-39.9		77	14	
2025-07-19T12:00	30700	12	-39.6		78	15	
2025-07-19T12:00	30750	12	-39.4		78	16	
2025-07-19T12:00	30800	11	-39.2		77	17	
2025-07-19T12:00	30850	11	-39.1		79	17	
2025-07-19T12:00	30900	11	-39.1		83	17	
2025-07-19T12:00	30950	11	-39.2		88	17	
2025-07-19T12:00	31000	11	-39.3		91	17	
2025-07-19T12:00	31050	11	-39.4		91	17	
2025-07-19T12:00	31100	11	-39.3		89	17	
2025-07-19T12:00	31150	11	-39.4		85	18	
2025-07-19T12:00	31200	11	-39.5		82	18	
2025-07-19T12:00	31250	11	-39.7		81	18	
2025-07-19T12:00	31300	11	-39.9		82	18	
2025-07-19T12:00	31350	11	-40.0		86	18	
2025-07-19T12:00	31400	10	-40.2		91	18	
2025-07-19T12:00	31450	10	-40.3		96	18	
2025-07-19T12:00	31500	10	-40.4		99	18	
2025-07-19T12:00	31550	10	-40.3		99	19	
2025-07-19T12:00	31600	10	-40.1		99	19	
2025-07-19T12:00	31650	10	-40.0		101	19	
2025-07-19T12:00	31700	10	-39.9		105	19	
2025-07-19T12:00	31750	10	-39.9		107	18	
2025-07-19T12:00	31800	10	-39.8		107	18	
2025-07-19T12:00	31850	10	-39.5		105	18	
2025-07-19T12:00	31900	10	-39.2		102	18	
2025-07-19T12:00	31950	10	-38.9		102	18	
2025-07-19T12:00	32000	10	-38.7		103	17	
2025-07-19T12:00	32050	10	-38.6		103	17	
2025-07-19T12:00	32100	9	-38.5		100	18	
2025-07-19T12:00	32150	9	-38.4		97	18	
2025-07-19T12:00	32200	9	-38.2		94	17	
2025-07-19T12:00	32250	9	-37.9		92	16	
2025-07-19T12:00	32300	9	-37.6		88	15	
2025-07-19T12:00	32350	9	-37.4		82	13	
2025-07-19T12:00	32400	9	-37.3		77	13	
2025-07-19T12:00	32450	9	-36.9		76	14	
2025-07-19T12:00	32500	9	-36.7		77	16	
2025-07-19T12:00	32550	9	-36.8		78	17	
2025-07-19T12:00	32600	9	-36.7		78	17	
2025-07-19T12:00	32650	9	-36.6		77	17	
2025-07-19T12:00	32700	9	-36.5		77	17	
2025-07-19T12:00	32750	9	-36.3		77	18	
2025-07-19T12:00	32800	9	-36.0		78	18	
2025-07-19T12:00	32850	8	-35.6		82	18	
2025-07-19T12:00	32900	8	-35.2		86	18	
2025-07-19T12:00	32950	8	-35.2		91	17	
2025-07-19T12:00	33000	8	-35.2		93	16	
2025-07-19T12:00	33050	8	-34.9		91	16	
2025-07-19T12:00	33100	8	-34.5		87	15	
2025-07-19T12:00	33150	8	-33.8		85	15	
2025-07-19T12:00	33200	8	-33.0		86	15	
2025-07-19T12:00	33250	8	-32.2		86	15	
2025-07-19T12:00	33300	8	-31.6		83	15	
2025-07-19T12:00	33350	8	-31.2		81	16	
2025-07-19T12:00	33400	8	-30.8		83	17	
2025-07-19T12:00	33450	8	-30.6		88	18	
2025-07-19T12:00	33500	8	-30.3		91	18	
2025-07-19T12:00	33550	8	-30.0		91	18	
2025-07-19T12:00	33600	8	-29.6		90	18	
2025-07-19T12:00	33650	8	-29.1		91	18	
2025-07-19T12:00	33700	8	-28.8		96	18	
2025-07-19T12:00	33750	7	-28.5		102	19	
2025-07-19T12:00	33800	7	-28.4		108	19	
2025-07-19T12:00	33850	7	-28.6		112	20	
2025-07-19T12:00	33900	7	-28.8		113	20	
2025-07-19T12:00	33950	7	-29.0		112	19	
2025-07-19T12:00	34000	7	-28.9		109	19	
2025-07-19T12:00	34050	7	-29.0		106	18	
2025-07-19T12:00	34100	7	-29.0		102	18	
2025-07-19T12:00	34150	7	-29.0		99	18	
2025-07-19T12:00	34200	7	-28.9		96	19	
2025-07-19T12:00	34250	7	-28.7		93	19	
2025-07-19T12:00	34300	7	-28.6		93	20	
2025-07-19T12:00	34350	7	-28.6		95	20	
2025-07-19T12:00	34400	7	-28.7		99	20	
2025-07-19T12:00	34450	7	-28.8		104	19	
2025-07-19T12:00	34500	7	-28.9		107	19	
2025-07-19T12:00	34550	7	-28.8		108	19	
2025-07-19T12:00	34600	7	-28.6		106	19	
2025-07-19T12:00	34650	7	-28.1		105	18	
2025-07-19T12:00	34700	7	-27.8		103	18	
2025-07-19T12:00	34750	6	-27.8		102	18	
2025-07-19T12:00	34800	6	-27.8		98	18	
2025-07-19T12:00	34850	6	-27.6		94	18	
2025-07-19T12:00	34900	6	-27.6		89	19	
2025-07-19T12:00	34950	6	-27.5		86	20	
2025-07-19T12:00	35000	6	-27.4		85	21	
2025-07-19T12:00	35050	6	-27.4		87	21	
2025-07-19T12:00	35100	6	-27.5		90	21	
2025-07-19T12:00	35150	6	-27.7		94	22	
2025-07-19T12:00	35200	6	-28.0		99	22	
2025-07-19T12:00	35250	6	-28.2		104	21	
2025-07-19T12:00	35300	6	-28.2		107	21	
2025-07-19T12:00	35350	6	-28.0		110	20	
2025-07-19T12:00	35400	6	-28.1		112	19	
2025-07-19T12:00	35450	6	-28.1		112	19	
2025-07-19T12:00	35500	6	-28.0		110	19	
2025-07-19T12:00	35550	6	-28.0		109	19	
2025-07-19T12:00	35600	6	-28.2		108	19	
2025-07-19T12:00	35650	6	-28.3		108	19	
2025-07-19T12:00	35700	6	-28.5		107	18	
2025-07-19T12:00	35750	6	-28.6		105	18	
2025-07-19T12:00	35800	6	-28.7		102	19	
2025-07-19T12:00	35850	6	-28.7		99	20	
2025-07-19T12:00	35900	6	-28.7		97	21	
2025-07-19T12:00	35950	5	-28.8		96	23	
2025-07-19T12:00	36000	5	-28.8		96	24	
2025-07-19T12:00	36050	5	-28.7		98	25	
2025-07-19T12:00	36100	5	-28.0		102	24	
2025-07-19T12:00	36150	5	-27.5		106	23	
2025-07-19T12:00	36200	5	-27.3		110	23	
2025-07-19T12:00	36250	5	-27.4		113	22	
2025-07-19T12:00	36300	5	-27.6		117	21	
2025-07-19T12:00	36350	5	-27.6		118	19	
2025-07-19T12:00	36400	5	-27.4		117	18	
2025-07-19T12:00	36450	5	-27.3		114	17	
2025-07-19T12:00	36500	5	-27.3		111	15	
2025-07-19T12:00	36550	5	-27.2		108	14	
2025-07-19T12:00	36600	5	-27.3		106	13	
2025-07-19T12:00	36650	5	-27.4		105	12	
2025-07-19T12:00	36700	5	-27.4		102	12	
2025-07-19T12:00	36750	5	-27.4		99	13	
2025-07-19T12:00	36800	5	-27.2		95	13	
2025-07-19T12:00	36850	5	-27.2		91	13	
2025-07-19T12:00	36900	5	-27.2		89	14	
2025-07-19T12:00	36950	5	-27.4		86	15	
2025-07-19T12:00	37000	5	-27.3		82	16	
2025-07-19T12:00	37050	5	-27.2		76	17	
2025-07-19T12:00	37100	5	-27.1		71	17	
2025-07-19T12:00	37150	5	-26.9		68	18	
2025-07-19T12:00	37200	5	-26.9		69	18	
2025-07-19T12:00	37250	5	-26.9		71	18	
2025-07-20T00:00	491	954	16.9	16.1	175	1	
2025-07-20T00:00	501	953	17.5	17.1	203	1	
2025-07-20T00:00	520	951	17.9	17.2	209	1	
2025-07-20T00:00	540	949	17.9	17.1	207	1	
2025-07-20T00:00	560	947	18.1	17.0	206	1	
2025-07-20T00:00	580	944	18.2	17.1	206	0	
2025-07-20T00:00	600	942	18.3	16.8	220	0	
2025-07-20T00:00	620	940	18.3	16.6	12	0	
2025-07-20T00:00	640	938	18.3	16.4	15	0	
2025-07-20T00:00	660	936	18.3	16.3	17	1	
2025-07-20T00:00	680	934	18.2	16.2	22	1	
2025-07-20T00:00	700	931	18.1	16.4	31	1	
2025-07-20T00:00	720	929	18.0	16.3	45	1	
2025-07-20T00:00	740	927	17.9	16.3	58	1	
2025-07-20T00:00	760	925	17.9	16.4	67	1	
2025-07-20T00:00	780	923	18.2	16.4	73	2	
2025-07-20T00:00	800	921	18.1	16.4	78	2	
2025-07-20T00:00	820	919	18.1	16.2	81	2	
2025-07-20T00:00	840	916	18.2	15.8	84	2	
2025-07-20T00:00	860	914	18.2	15.8	86	2	
2025-07-20T00:00	880	912	18.1	15.7	87	1	
2025-07-20T00:00	900	910	17.9	15.6	90	1	
2025-07-20T00:00	920	908	17.8	15.6	96	1	
2025-07-20T00:00	940	906	17.7	15.4	108	1	
2025-07-20T00:00	960	904	17.6	15.1	129	1	
2025-07-20T00:00	980	901	17.6	14.7	152	1	
2025-07-20T00:00	1000	899	17.6	14.1	167	1	
2025-07-20T00:00	1020	897	17.5	13.6	179	1	
2025-07-20T00:00	1040	895	17.4	13.4	185	2	
2025-07-20T00:00	1060	893	17.4	13.3	188	2	
2025-07-20T00:00	1080	891	17.4	13.3	192	2	
2025-07-20T00:00	1100	889	17.2	13.1	197	3	
2025-07-20T00:00	1120	887	17.1	13.1	202	3	
2025-07-20T00:00	1140	885	16.9	13.0	206	3	
2025-07-20T00:00	1160	883	16.8	12.9	210	4	
2025-07-20T00:00	1180	881	16.7	12.8	215	4	
2025-07-20T00:00	1200	879	16.7	12.7	221	4	
2025-07-20T00:00	1220	877	16.7	12.7	226	5	
2025-07-20T00:00	1240	874	16.6	12.7	230	5	
2025-07-20T00:00	1260	873	16.6	12.7	232	6	
2025-07-20T00:00	1280	870	16.6	12.6	232	6	
2025-07-20T00:00	1300	868	16.6	12.3	231	7	
2025-07-20T00:00	1320	866	16.6	11.9	229	7	
2025-07-20T00:00	1340	864	16.7	11.7	229	8	
2025-07-20T00:00	1360	862	16.6	11.7	228	8	
2025-07-20T00:00	1380	860	16.5	11.6	228	8	
2025-07-20T00:00	1400	858	16.4	11.5	227	9	
2025-07-20T00:00	1420	856	16.3	11.3	226	9	
2025-07-20T00:00	1440	854	16.4	10.7	224	9	
2025-07-20T00:00	1460	852	16.3	10.6	223	9	
2025-07-20T00:00	1480	850	16.2	10.5	223	9	
2025-07-20T00:00	1500	848	16.1	10.4	223	9	
2025-07-20T00:00	1520	846	16.0	10.2	222	9	
2025-07-20T00:00	1540	844	15.9	10.1	221	9	
2025-07-20T00:00	1560	842	15.7	9.9	219	9	
2025-07-20T00:00	1580	840	15.6	10.0	217	9	
2025-07-20T00:00	1600	838	15.4	10.0	216	8	
2025-07-20T00:00	1620	836	15.2	9.9	215	8	
2025-07-20T00:00	1640	834	15.1	9.8	216	8	
2025-07-20T00:00	1660	832	14.9	9.8	218	8	
2025-07-20T00:00	1680	830	14.8	9.6	219	9	
2025-07-20T00:00	1700	829	14.7	9.5	221	9	
2025-07-20T00:00	1720	827	14.5	9.6	222	10	
2025-07-20T00:00	1740	825	14.3	9.3	224	10	
2025-07-20T00:00	1760	823	14.2	9.3	225	10	
2025-07-20T00:00	1780	821	14.0	9.2	227	10	
2025-07-20T00:00	1800	819	13.8	9.2	228	11	
2025-07-20T00:00	1820	817	13.7	9.2	230	11	
2025-07-20T00:00	1840	815	13.5	9.3	231	11	
2025-07-20T00:00	1860	813	13.4	8.8	233	11	
2025-07-20T00:00	1880	811	13.4	8.4	234	12	
2025-07-20T00:00	1900	809	13.4	8.2	234	12	
2025-07-20T00:00	1920	807	13.3	8.0	233	13	
2025-07-20T00:00	1940	805	13.3	8.1	232	13	
2025-07-20T00:00	1960	803	13.2	8.2	229	12	
2025-07-20T00:00	1980	801	13.1	8.5	227	12	
2025-07-20T00:00	2000	800	13.0	8.6	226	12	
2025-07-20T00:00	2020	798	12.8	8.6	225	12	
2025-07-20T00:00	2040	796	12.6	8.5	225	12	
2025-07-20T00:00	2060	794	12.5	8.3	225	12	
2025-07-20T00:00	2080	792	12.3	8.3	225	13	
2025-07-20T00:00	2100	790	12.2	8.1	224	13	
2025-07-20T00:00	2120	788	12.1	7.8	223	12	
2025-07-20T00:00	2140	787	11.9	7.6	221	12	
2025-07-20T00:00	2160	784	11.7	7.4	219	11	
2025-07-20T00:00	2180	782	11.5	7.2	216	11	
2025-07-20T00:00	2200	781	11.4	7.0	214	10	
2025-07-20T00:00	2220	779	11.2	6.9	213	10	
2025-07-20T00:00	2240	777	11.1	6.6	212	10	
2025-07-20T00:00	2260	775	10.9	6.5	212	10	
2025-07-20T00:00	2280	773	10.8	6.5	213	10	
2025-07-20T00:00	2300	771	10.6	6.2	214	10	
2025-07-20T00:00	2320	770	10.6	5.8	216	11	
2025-07-20T00:00	2340	768	10.7	5.3	217	12	
2025-07-20T00:00	2360	766	10.6	5.1	219	12	
2025-07-20T00:00	2380	764	10.5	4.8	220	12	
2025-07-20T00:00	2400	762	10.4	4.5	220	12	
2025-07-20T00:00	2420	760	10.3	4.5	219	12	
2025-07-20T00:00	2440	759	10.1	4.4	218	12	
2025-07-20T00:00	2460	757	9.9	4.3	217	12	
2025-07-20T00:00	2480	755	9.9	4.1	215	12	
2025-07-20T00:00	2500	753	9.8	3.9	214	12	
2025-07-20T00:00	2520	751	9.7	3.6	213	12	
2025-07-20T00:00	2540	750	9.6	3.4	212	12	
2025-07-20T00:00	2560	748	9.4	3.4	213	12	
2025-07-20T00:00	2580	746	9.2	3.4	214	12	
2025-07-20T00:00	2600	744	9.1	3.2	214	12	
2025-07-20T00:00	2620	742	8.9	3.3	215	13	
2025-07-20T00:00	2640	740	8.8	3.5	215	13	
2025-07-20T00:00	2660	739	8.7	3.6	214	13	
2025-07-20T00:00	2680	737	8.6	3.6	214	13	
2025-07-20T00:00	2700	735	8.3	3.5	215	13	
2025-07-20T00:00	2720	733	8.2	3.6	215	13	
2025-07-20T00:00	2740	732	8.0	3.5	215	13	
2025-07-20T00:00	2760	730	7.8	3.6	215	13	
2025-07-20T00:00	2780	728	7.6	3.6	215	13	
2025-07-20T00:00	2800	726	7.4	3.7	214	14	
2025-07-20T00:00	2820	725	7.2	3.7	215	14	
2025-07-20T00:00	2840	723	7.0	3.6	216	14	
2025-07-20T00:00	2860	721	6.8	3.6	218	14	
2025-07-20T00:00	2880	719	6.6	3.5	220	14	
2025-07-20T00:00	2900	718	6.4	3.5	222	14	
2025-07-20T00:00	2920	716	6.3	3.6	223	14	
2025-07-20T00:00	2940	714	6.1	3.4	224	14	
2025-07-20T00:00	2960	712	5.9	3.3	226	14	
2025-07-20T00:00	2980	711	5.7	3.2	227	14	
2025-07-20T00:00	3000	709	5.5	2.9	227	14	
2025-07-20T00:00	3020	707	5.4	2.7	228	14	
2025-07-20T00:00	3040	706	5.2	2.7	229	14	
2025-07-20T00:00	3060	704	5.0	2.7	229	14	
2025-07-20T00:00	3080	702	4.9	2.6	230	14	
2025-07-20T00:00	3100	700	4.7	2.4	230	14	
2025-07-20T00:00	3120	699	4.5	2.3	230	14	
2025-07-20T00:00	3140	697	4.3	2.8	230	15	
2025-07-20T00:00	3160	695	4.1	3.0	229	15	
2025-07-20T00:00	3180	693	3.9	2.9	229	15	
2025-07-20T00:00	3200	692	3.7	2.9	228	16	
2025-07-20T00:00	3220	690	3.5	3.0	228	16	
2025-07-20T00:00	3240	688	3.3	2.9	227	16	
2025-07-20T00:00	3260	687	3.1	2.7	227	16	
2025-07-20T00:00	3280	685	3.0	2.4	226	15	
2025-07-20T00:00	3300	683	2.8	2.2	225	15	
2025-07-20T00:00	3320	682	2.7	1.6	224	15	
2025-07-20T00:00	3340	680	2.5	1.4	223	15	
2025-07-20T00:00	3360	678	2.3	1.2	222	15	
2025-07-20T00:00	3380	677	2.1	1.3	223	15	
2025-07-20T00:00	3400	675	2.0	1.3	223	15	
2025-07-20T00:00	3420	673	1.8	1.2	224	15	
2025-07-20T00:00	3440	672	1.6	1.1	224	15	
2025-07-20T00:00	3460	670	1.4	1.2	225	15	
2025-07-20T00:00	3480	668	1.2	1.1	224	14	
2025-07-20T00:00	3500	667	1.1	0.9	223	14	
2025-07-20T00:00	3520	665	1.0	0.7	222	13	
2025-07-20T00:00	3540	663	0.8	0.8	220	13	
2025-07-20T00:00	3560	662	0.7	0.7	218	13	
2025-07-20T00:00	3580	660	0.6	0.5	216	12	
2025-07-20T00:00	3600	658	0.4	0.4	215	12	
2025-07-20T00:00	3620	657	0.3	0.3	215	12	
2025-07-20T00:00	3640	655	0.2	0.2	216	12	
2025-07-20T00:00	3660	654	0.0	0.0	219	12	
2025-07-20T00:00	3680	652	-0.1	-0.1	222	12	
2025-07-20T00:00	3700	650	-0.3	-0.3	225	12	
2025-07-20T00:00	3720	648	-0.4	-0.4	226	12	
2025-07-20T00:00	3740	647	-0.6	-0.6	227	13	
2025-07-20T00:00	3760	645	-0.6	-0.7	228	13	
2025-07-20T00:00	3780	644	-0.6	-0.7	227	13	
2025-07-20T00:00	3800	642	-0.6	-0.7	227	13	
2025-07-20T00:00	3820	640	-0.8	-1.6	227	13	
2025-07-20T00:00	3840	639	-0.9	-2.1	227	13	
2025-07-20T00:00	3860	637	-0.9	-1.9	227	13	
2025-07-20T00:00	3880	636	-0.9	-1.9	227	14	
2025-07-20T00:00	3900	634	-1.0	-2.1	227	14	
2025-07-20T00:00	3920	633	-1.1	-2.3	227	14	
2025-07-20T00:00	3940	631	-1.2	-2.5	227	15	
2025-07-20T00:00	3960	630	-1.3	-2.6	227	15	
2025-07-20T00:00	3980	628	-1.3	-2.9	228	15	
2025-07-20T00:00	4000	626	-1.5	-3.2	228	16	
2025-07-20T00:00	4020	625	-1.6	-3.6	229	16	
2025-07-20T00:00	4040	623	-1.7	-3.5	229	16	
2025-07-20T00:00	4060	622	-1.9	-3.7	230	16	
2025-07-20T00:00	4080	620	-2.0	-4.0	230	16	
2025-07-20T00:00	4100	618	-2.2	-4.1	230	16	
2025-07-20T00:00	4120	617	-2.4	-4.1	230	16	
2025-07-20T00:00	4140	615	-2.6	-4.2	229	16	
2025-07-20T00:00	4160	614	-2.8	-4.3	230	16	
2025-07-20T00:00	4180	612	-2.9	-4.3	230	16	
2025-07-20T00:00	4200	611	-3.1	-4.4	230	15	
2025-07-20T00:00	4220	609	-3.3	-4.4	231	15	
2025-07-20T00:00	4240	608	-3.4	-4.7	231	15	
2025-07-20T00:00	4260	606	-3.6	-4.7	231	15	
2025-07-20T00:00	4280	605	-3.8	-4.7	231	15	
2025-07-20T00:00	4300	603	-4.0	-4.7	231	15	
2025-07-20T00:00	4320	601	-4.2	-4.7	232	15	
2025-07-20T00:00	4340	600	-4.4	-4.7	232	15	
2025-07-20T00:00	4360	598	-4.5	-4.8	233	15	
2025-07-20T00:00	4380	597	-4.7	-4.8	233	15	
2025-07-20T00:00	4400	595	-4.9	-4.9	233	15	
2025-07-20T00:00	4420	594	-5.1	-5.3	233	15	
2025-07-20T00:00	4440	592	-5.2	-5.7	234	14	
2025-07-20T00:00	4460	591	-5.3	-5.8	234	14	
2025-07-20T00:00	4480	589	-5.5	-5.7	235	14	
2025-07-20T00:00	4500	588	-5.6	-5.8	236	15	
2025-07-20T00:00	4520	586	-5.8	-5.8	237	14	
2025-07-20T00:00	4540	585	-6.0	-6.0	238	14	
2025-07-20T00:00	4560	584	-6.1	-6.3	238	14	
2025-07-20T00:00	4580	582	-6.3	-6.3	236	14	
2025-07-20T00:00	4600	580	-6.4	-6.4	235	14	
2025-07-20T00:00	4620	579	-6.6	-6.6	233	14	
2025-07-20T00:00	4640	578	-6.7	-6.7	231	15	
2025-07-20T00:00	4660	576	-6.8	-7.1	231	15	
2025-07-20T00:00	4680	574	-6.8	-10.3	232	15	
2025-07-20T00:00	4700	573	-6.2	-10.3	232	15	
2025-07-20T00:00	4720	572	-5.8	-9.8	233	15	
2025-07-20T00:00	4740	570	-5.8	-9.9	233	15	
2025-07-20T00:00	4760	569	-5.9	-9.9	234	14	
2025-07-20T00:00	4780	567	-5.9	-11.1	234	14	
2025-07-20T00:00	4800	566	-5.7	-14.9	235	14	
2025-07-20T00:00	4820	564	-5.8	-16.4	236	13	
2025-07-20T00:00	4840	563	-5.9	-16.7	237	13	
2025-07-20T00:00	4860	562	-6.1	-17.3	238	13	
2025-07-20T00:00	4880	560	-6.2	-18.1	238	13	
2025-07-20T00:00	4900	559	-6.3	-18.1	238	13	
2025-07-20T00:00	4920	557	-6.5	-17.9	238	13	
2025-07-20T00:00	4940	556	-6.6	-17.2	238	13	
2025-07-20T00:00	4960	554	-6.7	-16.6	238	13	
2025-07-20T00:00	4980	553	-6.9	-16.3	239	13	
2025-07-20T00:00	5000	552	-7.1	-16.3	240	14	
2025-07-20T00:00	5020	550	-7.2	-16.3	241	14	
2025-07-20T00:00	5040	549	-7.4	-16.4	242	14	
2025-07-20T00:00	5060	547	-7.6	-16.7	242	15	
2025-07-20T00:00	5080	546	-7.7	-17.2	243	15	
2025-07-20T00:00	5100	544	-7.6	-17.7	243	15	
2025-07-20T00:00	5120	543	-7.5	-18.2	244	15	
2025-07-20T00:00	5140	542	-7.6	-18.4	244	15	
2025-07-20T00:00	5160	540	-7.8	-18.8	245	15	
2025-07-20T00:00	5180	539	-8.0	-18.2	245	15	
2025-07-20T00:00	5200	537	-8.1	-12.9	245	14	
2025-07-20T00:00	5220	536	-8.2	-9.8	245	14	
2025-07-20T00:00	5240	535	-8.1	-10.7	244	13	
2025-07-20T00:00	5260	533	-8.1	-11.1	242	13	
2025-07-20T00:00	5280	532	-8.2	-11.5	241	12	
2025-07-20T00:00	5300	531	-8.3	-11.8	239	12	
2025-07-20T00:00	5320	529	-8.4	-12.0	239	12	
2025-07-20T00:00	5340	528	-8.6	-12.1	240	11	
2025-07-20T00:00	5360	527	-8.7	-12.3	242	11	
2025-07-20T00:00	5380	525	-8.7	-13.1	244	11	
2025-07-20T00:00	5400	524	-8.6	-14.2	246	11	
2025-07-20T00:00	5420	523	-8.7	-14.8	249	11	
2025-07-20T00:00	5440	521	-8.9	-14.8	251	11	
2025-07-20T00:00	5460	520	-9.0	-15.1	252	11	
2025-07-20T00:00	5480	519	-9.2	-15.4	253	11	
2025-07-20T00:00	5500	517	-9.4	-16.4	252	11	
2025-07-20T00:00	5520	516	-9.6	-16.3	251	11	
2025-07-20T00:00	5540	514	-9.7	-17.5	250	11	
2025-07-20T00:00	5560	513	-9.8	-19.1	249	10	
2025-07-20T00:00	5580	512	-9.9	-21.5	250	10	
2025-07-20T00:00	5600	511	-9.9	-23.3	251	10	
2025-07-20T00:00	5620	509	-10.0	-23.6	252	10	
2025-07-20T00:00	5640	508	-10.2	-23.8	255	10	
2025-07-20T00:00	5660	507	-10.0	-27.2	257	11	
2025-07-20T00:00	5680	505	-9.8	-29.9	259	11	
2025-07-20T00:00	5700	504	-9.9	-30.7	260	11	
2025-07-20T00:00	5720	503	-10.0	-30.9	261	11	
2025-07-20T00:00	5740	501	-10.2	-31.0	261	11	
2025-07-20T00:00	5760	500	-10.3	-31.5	260	12	
2025-07-20T00:00	5780	499	-10.4	-32.2	260	12	
2025-07-20T00:00	5800	497	-10.2	-33.8	259	13	
2025-07-20T00:00	5820	496	-10.1	-33.9	259	13	
2025-07-20T00:00	5840	495	-10.1	-32.9	260	13	
2025-07-20T00:00	5860	494	-10.1	-30.4	260	13	
2025-07-20T00:00	5880	492	-10.2	-29.7	260	13	
2025-07-20T00:00	5900	491	-10.3	-29.0	261	14	
2025-07-20T00:00	5920	490	-10.3	-28.2	262	13	
2025-07-20T00:00	5940	488	-10.2	-28.9	262	13	
2025-07-20T00:00	5960	487	-10.1	-30.7	262	13	
2025-07-20T00:00	5980	486	-10.2	-31.3	262	13	
2025-07-20T00:00	6000	485	-10.4	-31.6	262	13	
2025-07-20T00:00	6020	483	-10.5	-32.1	261	13	
2025-07-20T00:00	6040	482	-10.5	-33.0	260	13	
2025-07-20T00:00	6060	481	-10.6	-33.2	260	13	
2025-07-20T00:00	6080	480	-10.7	-33.9	259	13	
2025-07-20T00:00	6100	478	-10.8	-34.6	259	13	
2025-07-20T00:00	6120	477	-10.9	-34.9	258	13	
2025-07-20T00:00	6140	476	-11.1	-35.4	258	12	
2025-07-20T00:00	6160	475	-11.2	-35.9	258	12	
2025-07-20T00:00	6180	473	-11.3	-35.1	258	12	
2025-07-20T00:00	6200	472	-11.4	-32.4	258	12	
2025-07-20T00:00	6220	471	-11.5	-32.1	259	12	
2025-07-20T00:00	6240	470	-11.6	-32.5	260	12	
2025-07-20T00:00	6260	469	-11.8	-32.4	260	12	
2025-07-20T00:00	6280	467	-12.0	-32.1	261	12	
2025-07-20T00:00	6300	466	-12.1	-32.0	262	13	
2025-07-20T00:00	6320	465	-12.3	-32.3	262	13	
2025-07-20T00:00	6340	464	-12.4	-32.4	263	13	
2025-07-20T00:00	6360	462	-12.6	-32.0	263	13	
2025-07-20T00:00	6380	461	-12.8	-31.9	264	13	
2025-07-20T00:00	6400	460	-13.0	-31.8	264	13	
2025-07-20T00:00	6420	459	-13.2	-31.7	264	13	
2025-07-20T00:00	6440	458	-13.4	-31.5	264	14	
2025-07-20T00:00	6460	456	-13.6	-31.3	264	14	
2025-07-20T00:00	6480	455	-13.7	-31.1	264	14	
2025-07-20T00:00	6500	454	-13.9	-30.8	264	14	
2025-07-20T00:00	6520	453	-14.1	-30.6	263	14	
2025-07-20T00:00	6540	452	-14.2	-30.2	263	15	
2025-07-20T00:00	6560	450	-14.4	-29.1	262	15	
2025-07-20T00:00	6580	449	-14.5	-28.2	261	15	
2025-07-20T00:00	6600	448	-14.7	-28.8	261	15	
2025-07-20T00:00	6620	447	-14.8	-29.4	260	16	
2025-07-20T00:00	6640	446	-15.0	-29.7	260	16	
2025-07-20T00:00	6660	444	-15.1	-30.0	260	16	
2025-07-20T00:00	6680	443	-15.2	-30.0	261	15	
2025-07-20T00:00	6700	442	-15.3	-30.4	261	15	
2025-07-20T00:00	6720	441	-15.5	-30.5	262	15	
2025-07-20T00:00	6740	440	-15.7	-30.0	262	15	
2025-07-20T00:00	6760	439	-15.9	-30.1	262	15	
2025-07-20T00:00	6780	437	-16.0	-29.8	261	14	
2025-07-20T00:00	6800	436	-16.1	-30.1	260	14	
2025-07-20T00:00	6820	435	-16.3	-30.7	260	14	
2025-07-20T00:00	6840	434	-16.4	-31.1	259	14	
2025-07-20T00:00	6860	433	-16.6	-31.3	259	14	
2025-07-20T00:00	6880	432	-16.8	-31.8	259	14	
2025-07-20T00:00	6900	431	-16.9	-32.0	259	14	
2025-07-20T00:00	6920	429	-17.1	-32.0	260	14	
2025-07-20T00:00	6940	428	-17.3	-32.4	261	14	
2025-07-20T00:00	6960	427	-17.5	-32.4	261	14	
2025-07-20T00:00	6980	426	-17.6	-32.5	261	15	
2025-07-20T00:00	7000	425	-17.7	-32.5	261	15	
2025-07-20T00:00	7020	424	-17.8	-33.3	260	14	
2025-07-20T00:00	7040	423	-17.9	-34.0	260	14	
2025-07-20T00:00	7060	421	-17.9	-36.4	260	15	
2025-07-20T00:00	7080	420	-18.1	-36.6	259	15	
2025-07-20T00:00	7100	419	-18.2	-37.0	260	15	
2025-07-20T00:00	7120	418	-18.3	-37.1	260	15	
2025-07-20T00:00	7140	417	-18.5	-36.4	260	15	
2025-07-20T00:00	7160	416	-18.7	-35.6	261	15	
2025-07-20T00:00	7180	415	-18.9	-34.7	261	16	
2025-07-20T00:00	7200	414	-19.0	-33.9	260	16	
2025-07-20T00:00	7220	413	-19.2	-33.4	260	16	
2025-07-20T00:00	7240	411	-19.3	-33.7	259	16	
2025-07-20T00:00	7260	410	-19.4	-34.5	259	16	
2025-07-20T00:00	7280	409	-19.6	-33.6	259	16	
2025-07-20T00:00	7300	408	-19.8	-33.6	259	15	
2025-07-20T00:00	7320	407	-20.0	-33.7	260	16	
2025-07-20T00:00	7340	406	-20.2	-33.5	260	16	
2025-07-20T00:00	7360	405	-20.3	-34.0	261	16	
2025-07-20T00:00	7380	404	-20.4	-34.9	261	16	
2025-07-20T00:00	7400	403	-20.5	-34.9	261	16	
2025-07-20T00:00	7420	402	-20.7	-34.5	260	17	
2025-07-20T00:00	7440	400	-20.9	-34.4	260	17	
2025-07-20T00:00	7460	399	-21.0	-34.4	260	16	
2025-07-20T00:00	7480	398	-21.2	-34.6	260	16	
2025-07-20T00:00	7500	397	-21.4	-35.1	260	16	
2025-07-20T00:00	7520	396	-21.5	-35.7	261	16	
2025-07-20T00:00	7540	395	-21.7	-36.0	262	15	
2025-07-20T00:00	7560	394	-21.8	-36.2	262	15	
2025-07-20T00:00	7580	393	-22.0	-36.5	263	15	
2025-07-20T00:00	7600	392	-22.2	-37.4	264	15	
2025-07-20T00:00	7620	391	-22.1	-38.9	265	15	
2025-07-20T00:00	7640	390	-22.2	-38.9	265	15	
2025-07-20T00:00	7660	389	-22.4	-38.7	266	15	
2025-07-20T00:00	7680	388	-22.5	-38.5	266	15	
2025-07-20T00:00	7700	387	-22.6	-38.4	266	15	
2025-07-20T00:00	7720	385	-22.6	-38.4	265	15	
2025-07-20T00:00	7740	384	-22.6	-40.0	264	15	
2025-07-20T00:00	7760	383	-22.5	-40.1	263	15	
2025-07-20T00:00	7780	382	-22.6	-39.2	262	15	
2025-07-20T00:00	7800	381	-22.7	-38.1	261	15	
2025-07-20T00:00	7820	380	-22.9	-38.4	260	15	
2025-07-20T00:00	7840	379	-23.1	-38.5	260	15	
2025-07-20T00:00	7860	378	-23.3	-38.6	260	15	
2025-07-20T00:00	7880	377	-23.5	-38.8	260	16	
2025-07-20T00:00	7900	376	-23.7	-39.1	261	16	
2025-07-20T00:00	7920	375	-23.8	-40.5	261	16	
2025-07-20T00:00	7940	374	-24.0	-41.3	262	16	
2025-07-20T00:00	7960	373	-24.1	-41.2	262	16	
2025-07-20T00:00	7980	372	-24.3	-41.4	263	16	
2025-07-20T00:00	8000	371	-24.5	-41.5	263	16	
2025-07-20T00:00	8020	370	-24.7	-41.7	263	16	
2025-07-20T00:00	8040	369	-24.9	-41.7	264	17	
2025-07-20T00:00	8060	368	-25.1	-41.8	264	17	
2025-07-20T00:00	8080	367	-25.3	-41.7	264	17	
2025-07-20T00:00	8100	366	-25.5	-42.0	264	17	
2025-07-20T00:00	8120	365	-25.7	-42.5	264	16	
2025-07-20T00:00	8140	364	-25.9	-42.5	263	16	
2025-07-20T00:00	8160	363	-26.1	-42.1	263	16	
2025-07-20T00:00	8180	362	-26.3	-43.2	262	16	
2025-07-20T00:00	8200	361	-26.5	-44.5	261	15	
2025-07-20T00:00	8220	360	-26.7	-44.3	261	15	
2025-07-20T00:00	8240	359	-26.8	-44.4	261	15	
2025-07-20T00:00	8260	358	-27.0	-44.8	262	14	
2025-07-20T00:00	8280	357	-27.2	-45.0	262	14	
2025-07-20T00:00	8300	356	-27.4	-45.4	263	14	
2025-07-20T00:00	8320	355	-27.6	-45.6	264	14	
2025-07-20T00:00	8340	354	-27.8	-45.6	264	14	
2025-07-20T00:00	8360	353	-28.0	-45.7	264	14	
2025-07-20T00:00	8380	352	-28.2	-45.8	264	15	
2025-07-20T00:00	8400	351	-28.4	-46.0	263	15	
2025-07-20T00:00	8420	350	-28.6	-45.6	263	15	
2025-07-20T00:00	8440	349	-28.8	-45.6	262	15	
2025-07-20T00:00	8460	348	-29.0	-45.9	262	15	
2025-07-20T00:00	8480	347	-29.1	-45.9	261	15	
2025-07-20T00:00	8500	346	-29.4	-46.0	260	15	
2025-07-20T00:00	8520	345	-29.5	-46.7	259	16	
2025-07-20T00:00	8540	344	-29.5	-46.6	259	16	
2025-07-20T00:00	8560	343	-29.7	-46.0	258	16	
2025-07-20T00:00	8580	342	-29.8	-45.0	258	16	
2025-07-20T00:00	8600	341	-30.0	-43.7	257	16	
2025-07-20T00:00	8620	340	-30.2	-43.6	257	16	
2025-07-20T00:00	8640	339	-30.4	-43.6	258	16	
2025-07-20T00:00	8660	338	-30.6	-43.6	258	16	
2025-07-20T00:00	8680	337	-30.8	-43.9	259	16	
2025-07-20T00:00	8700	337	-31.0	-44.1	261	16	
2025-07-20T00:00	8720	336	-31.1	-43.6	262	16	
2025-07-20T00:00	8740	335	-31.3	-42.2	264	16	
2025-07-20T00:00	8760	334	-31.4	-41.7	266	16	
2025-07-20T00:00	8780	333	-31.6	-41.6	267	16	
2025-07-20T00:00	8800	332	-31.7	-41.6	268	16	
2025-07-20T00:00	8820	331	-31.7	-42.5	268	16	
2025-07-20T00:00	8840	330	-31.8	-41.5	269	16	
2025-07-20T00:00	8860	329	-31.9	-39.8	268	17	
2025-07-20T00:00	8880	328	-32.1	-39.4	268	17	
2025-07-20T00:00	8900	327	-32.2	-39.5	268	17	
2025-07-20T00:00	8920	326	-32.4	-39.8	267	17	
2025-07-20T00:00	8940	325	-32.6	-39.9	266	18	
2025-07-20T00:00	8960	324	-32.8	-39.7	266	18	
2025-07-20T00:00	8980	323	-33.0	-39.1	265	18	
2025-07-20T00:00	9000	323	-33.2	-38.7	264	18	
2025-07-20T00:00	9020	322	-33.3	-38.5	264	18	
2025-07-20T00:00	9040	321	-33.5	-38.6	264	18	
2025-07-20T00:00	9060	320	-33.8	-38.7	264	18	
2025-07-20T00:00	9080	319	-33.9	-38.6	265	18	
2025-07-20T00:00	9100	318	-34.1	-38.3	265	18	
2025-07-20T00:00	9120	317	-34.2	-38.2	266	17	
2025-07-20T00:00	9140	316	-34.4	-38.5	268	17	
2025-07-20T00:00	9160	315	-34.6	-38.5	269	17	
2025-07-20T00:00	9180	314	-34.8	-38.6	269	17	
2025-07-20T00:00	9200	313	-34.9	-39.0	270	16	
2025-07-20T00:00	9220	313	-35.0	-39.0	269	16	
2025-07-20T00:00	9240	312	-35.2	-39.1	269	17	
2025-07-20T00:00	9260	311	-35.4	-39.7	268	17	
2025-07-20T00:00	9280	310	-35.5	-40.0	268	17	
2025-07-20T00:00	9300	309	-35.7	-40.5	267	17	
2025-07-20T00:00	9320	308	-35.8	-40.9	267	17	
2025-07-20T00:00	9340	307	-35.9	-41.1	267	18	
2025-07-20T00:00	9360	306	-36.1	-41.6	267	18	
2025-07-20T00:00	9380	305	-36.2	-41.7	268	18	
2025-07-20T00:00	9400	305	-36.3	-41.6	268	18	
2025-07-20T00:00	9420	304	-36.4	-41.7	269	19	
2025-07-20T00:00	9440	303	-36.6	-41.8	270	19	
2025-07-20T00:00	9460	302	-36.8	-41.9	270	19	
2025-07-20T00:00	9480	301	-36.9	-41.9	270	19	
2025-07-20T00:00	9500	300	-37.1	-42.1	270	20	
2025-07-20T00:00	9520	299	-37.3	-42.3	270	20	
2025-07-20T00:00	9540	298	-37.4	-42.3	270	20	
2025-07-20T00:00	9560	298	-37.6	-42.4	270	20	
2025-07-20T00:00	9580	297	-37.8	-42.5	270	20	
2025-07-20T00:00	9600	296	-38.0	-42.7	270	20	
2025-07-20T00:00	9620	295	-38.1	-42.8	270	19	
2025-07-20T00:00	9640	294	-38.3	-42.9	270	19	
2025-07-20T00:00	9660	293	-38.4	-43.1	270	19	
2025-07-20T00:00	9680	292	-38.6	-43.2	271	19	
2025-07-20T00:00	9700	292	-38.8	-43.3	271	20	
2025-07-20T00:00	9720	291	-39.0	-43.3	271	20	
2025-07-20T00:00	9740	290	-39.2	-43.2	272	20	
2025-07-20T00:00	9760	289	-39.4	-43.6	272	20	
2025-07-20T00:00	9780	288	-39.6	-44.0	272	19	
2025-07-20T00:00	9800	287	-39.7	-43.8	272	19	
2025-07-20T00:00	9820	287	-39.9	-43.6	271	19	
2025-07-20T00:00	9840	286	-40.1	-43.7	271	19	
2025-07-20T00:00	9860	285	-40.2	-44.3	271	19	
2025-07-20T00:00	9880	284	-40.3	-44.8	271	19	
2025-07-20T00:00	9900	283	-40.5	-45.1	270	19	
2025-07-20T00:00	9920	282	-40.6	-45.3	270	19	
2025-07-20T00:00	9940	282	-40.7	-45.4	270	20	
2025-07-20T00:00	9960	281	-40.9	-45.6	270	20	
2025-07-20T00:00	9980	280	-41.0	-45.6	270	20	
2025-07-20T00:00	10000	279	-41.2	-45.6	270	20	
2025-07-20T00:00	10018	278	-41.3	-45.7	270	20	
2025-07-20T00:00	10050	277	-41.6	-45.7	270	21	
2025-07-20T00:00	10100	275	-42.1	-46.2	270	21	
2025-07-20T00:00	10150	273	-42.5	-46.8	270	21	
2025-07-20T00:00	10200	271	-42.9	-47.0	270	21	
2025-07-20T00:00	10250	269	-43.4	-47.5	271	21	
2025-07-20T00:00	10300	267	-43.8	-47.6	271	21	
2025-07-20T00:00	10350	265	-44.2	-48.1	272	21	
2025-07-20T00:00	10400	263	-44.7	-48.5	272	21	
2025-07-20T00:00	10450	261	-45.1	-48.9	272	22	
2025-07-20T00:00	10500	259	-45.5	-48.9	272	22	
2025-07-20T00:00	10550	257	-46.0	-49.2	274	22	
2025-07-20T00:00	10600	255	-46.3	-50.3	276	23	
2025-07-20T00:00	10650	253	-46.7	-50.6	276	22	
2025-07-20T00:00	10700	251	-47.1	-51.8	276	22	
2025-07-20T00:00	10750	250	-47.5	-52.0	275	23	
2025-07-20T00:00	10800	248	-48.0	-52.1	275	23	
2025-07-20T00:00	10850	246	-48.4	-52.8	276	23	
2025-07-20T00:00	10900	244	-48.8	-54.3	276	23	
2025-07-20T00:00	10950	242	-49.1	-55.6	276	24	
2025-07-20T00:00	11000	240	-49.5	-56.2	276	25	
2025-07-20T00:00	11050	238	-49.8	-56.2	276	26	
2025-07-20T00:00	11100	237	-50.2	-56.9	276	26	
2025-07-20T00:00	11150	235	-50.6	-57.9	276	26	
2025-07-20T00:00	11200	233	-50.9	-58.9	276	27	
2025-07-20T00:00	11250	231	-51.2	-59.6	277	27	
2025-07-20T00:00	11300	229	-51.6	-59.5	278	27	
2025-07-20T00:00	11350	228	-51.9	-60.1	280	26	
2025-07-20T00:00	11400	226	-51.9	-61.1	281	25	
2025-07-20T00:00	11450	224	-51.8	-60.0	282	24	
2025-07-20T00:00	11500	222	-52.0	-60.9	282	23	
2025-07-20T00:00	11550	221	-52.3	-61.9	282	21	
2025-07-20T00:00	11600	219	-52.2	-64.9	282	20	
2025-07-20T00:00	11650	217	-52.1	-67.5	283	19	
2025-07-20T00:00	11700	216	-52.5	-67.6	283	18	
2025-07-20T00:00	11750	214	-52.8	-67.3	281	17	
2025-07-20T00:00	11800	212	-53.3	-67.1	278	16	
2025-07-20T00:00	11850	211	-53.8	-66.7	277	16	
2025-07-20T00:00	11900	209	-54.3	-66.4	276	17	
2025-07-20T00:00	11950	207	-54.7	-67.0	274	17	
2025-07-20T00:00	12000	206	-55.2	-66.9	274	17	
2025-07-20T00:00	12050	204	-55.6	-66.7	272	16	
2025-07-20T00:00	12100	203	-56.1	-66.6	272	17	
2025-07-20T00:00	12150	201	-56.5	-67.1	271	18	
2025-07-20T00:00	12200	199	-56.8	-67.9	270	18	
2025-07-20T00:00	12250	198	-57.1	-68.2	269	20	
2025-07-20T00:00	12300	196	-57.5	-68.7	269	21	
2025-07-20T00:00	12350	195	-57.6	-70.3	270	23	
2025-07-20T00:00	12400	193	-57.6	-71.3	272	24	
2025-07-20T00:00	12450	192	-57.8	-71.2	274	24	
2025-07-20T00:00	12500	190	-58.1	-70.7	276	24	
2025-07-20T00:00	12550	189	-58.4	-70.4	277	24	
2025-07-20T00:00	12600	187	-58.8	-70.2	277	24	
2025-07-20T00:00	12650	186	-59.2	-70.2	278	24	
2025-07-20T00:00	12700	184	-59.7	-70.2	279	24	
2025-07-20T00:00	12750	183	-59.9	-70.1	278	23	
2025-07-20T00:00	12800	181	-59.9	-70.6	275	23	
2025-07-20T00:00	12850	180	-59.6	-71.7	269	22	
2025-07-20T00:00	12900	178	-59.1	-72.2	266	23	
2025-07-20T00:00	12950	177	-59.3	-72.4	265	25	
2025-07-20T00:00	13000	176	-59.3	-73.1	265	27	
2025-07-20T00:00	13050	174	-57.4	-74.4	265	28	
2025-07-20T00:00	13100	173	-56.1	-75.8	265	28	
2025-07-20T00:00	13150	172	-56.3	-76.7	266	27	
2025-07-20T00:00	13200	170	-55.8	-77.9	268	25	
2025-07-20T00:00	13250	169	-55.6	-79.0	271	23	
2025-07-20T00:00	13300	167	-55.6	-79.5	273	21	
2025-07-20T00:00	13350	166	-55.8	-79.5	274	19	
2025-07-20T00:00	13400	165	-56.1	-79.5	274	18	
2025-07-20T00:00	13450	164	-56.4	-79.9	272	16	
2025-07-20T00:00	13500	162	-56.2	-80.7	270	15	
2025-07-20T00:00	13550	161	-56.0	-81.3	267	14	
2025-07-20T00:00	13600	160	-56.4	-81.4	265	14	
2025-07-20T00:00	13650	158	-56.8	-81.5	263	14	
2025-07-20T00:00	13700	157	-57.1	-81.5	262	15	
2025-07-20T00:00	13750	156	-57.4	-81.7	261	15	
2025-07-20T00:00	13800	155	-57.4	-81.9	259	16	
2025-07-20T00:00	13850	154	-57.6	-82.2	257	17	
2025-07-20T00:00	13900	152	-57.4	-82.4	256	19	
2025-07-20T00:00	13950	151	-56.7	-82.9	256	20	
2025-07-20T00:00	14000	150	-55.4	-82.7	258	20	
2025-07-20T00:00	14050	149	-54.4	-82.6	260	19	
2025-07-20T00:00	14100	148	-54.1	-82.4	260	18	
2025-07-20T00:00	14150	146	-54.2	-82.3	258	17	
2025-07-20T00:00	14200	145	-54.3	-82.3	257	17	
2025-07-20T00:00	14250	144	-54.5	-82.4	257	18	
2025-07-20T00:00	14300	143	-54.3	-82.5	259	18	
2025-07-20T00:00	14350	142	-53.8	-82.5	261	18	
2025-07-20T00:00	14400	141	-53.6	-82.5	263	17	
2025-07-20T00:00	14450	140	-52.9	-82.4	265	16	
2025-07-20T00:00	14500	139	-52.5	-82.2	266	14	
2025-07-20T00:00	14550	138	-52.3	-82.1	264	12	
2025-07-20T00:00	14600	137	-51.7	-82.0	262	10	
2025-07-20T00:00	14650	135	-51.7	-81.7	260	9	
2025-07-20T00:00	14700	134	-52.0	-81.5	255	8	
2025-07-20T00:00	14750	133	-52.3	-81.5	249	7	
2025-07-20T00:00	14800	132	-52.6	-81.6	244	7	
2025-07-20T00:00	14850	131	-53.1	-81.7	240	7	
2025-07-20T00:00	14900	130	-53.6	-81.9	236	8	
2025-07-20T00:00	14950	129	-53.9	-81.9	234	9	
2025-07-20T00:00	15000	128	-54.3	-82.0	235	10	
2025-07-20T00:00	15050	127	-54.4	-82.1	239	11	
2025-07-20T00:00	15100	126	-54.3	-82.2	244	12	
2025-07-20T00:00	15150	125	-54.1	-82.5	249	12	
2025-07-20T00:00	15200	124	-53.8	-82.5	252	12	
2025-07-20T00:00	15250	123	-53.6	-82.4	256	11	
2025-07-20T00:00	15300	123	-53.7	-82.5	261	10	
2025-07-20T00:00	15350	122	-53.5	-82.6	262	9	
2025-07-20T00:00	15400	121	-53.2	-82.8	257	7	
2025-07-20T00:00	15450	120	-52.9	-82.9	249	7	
2025-07-20T00:00	15500	119	-52.9	-82.8	244	7	
2025-07-20T00:00	15550	118	-53.2	-82.8	239	7	
2025-07-20T00:00	15600	117	-53.5	-82.9	231	7	
2025-07-20T00:00	15650	116	-53.8	-83.0	222	6	
2025-07-20T00:00	15700	115	-54.3	-83.0	214	6	
2025-07-20T00:00	15750	114	-54.8	-83.0	208	7	
2025-07-20T00:00	15800	113	-55.1	-83.1	202	8	
2025-07-20T00:00	15850	112	-55.3	-83.1	198	9	
2025-07-20T00:00	15900	112	-55.4	-83.1	202	9	
2025-07-20T00:00	15950	111	-55.6	-83.3	211	10	
2025-07-20T00:00	16000	110	-55.5	-83.3	218	10	
2025-07-20T00:00	16050	109	-55.5	-83.3	222	11	
2025-07-20T00:00	16100	108	-55.4	-83.5	220	11	
2025-07-20T00:00	16150	107	-55.0	-83.4	214	11	
2025-07-20T00:00	16200	106	-55.3	-83.5	209	10	
2025-07-20T00:00	16250	106	-55.5	-83.6	208	10	
2025-07-20T00:00	16300	105	-55.8	-83.4	209	10	
2025-07-20T00:00	16350	104	-56.3	-83.5	212	11	
2025-07-20T00:00	16400	103	-56.5	-83.8	218	12	
2025-07-20T00:00	16450	102	-56.5	-83.9	223	13	
2025-07-20T00:00	16500	102	-56.5	-84.1	230	13	
2025-07-20T00:00	16550	101	-56.7	-84.3	237	14	
2025-07-20T00:00	16600	100	-56.8	-84.3	240	14	
2025-07-20T00:00	16650	99	-56.8	-84.5	238	14	
2025-07-20T00:00	16700	98	-56.4	-84.6	234	14	
2025-07-20T00:00	16750	98	-55.5	-84.5	233	13	
2025-07-20T00:00	16800	97	-55.3	-84.7	234	12	
2025-07-20T00:00	16850	96	-54.6	-84.1	237	11	
2025-07-20T00:00	16900	95	-54.8	-84.1	241	10	
2025-07-20T00:00	16950	95	-55.1	-84.2	244	10	
2025-07-20T00:00	17000	94	-55.3	-84.2	247	9	
2025-07-20T00:00	17050	93	-55.7	-84.3	250	9	
2025-07-20T00:00	17100	92	-56.0	-84.4	255	8	
2025-07-20T00:00	17150	92	-56.2	-84.5	260	8	
2025-07-20T00:00	17200	91	-56.4	-84.6	263	7	
2025-07-20T00:00	17250	90	-56.7	-84.7	262	6	
2025-07-20T00:00	17300	90	-56.9	-84.8	259	6	
2025-07-20T00:00	17350	89	-57.0	-84.8	257	5	
2025-07-20T00:00	17400	88	-57.0	-84.8	255	5	
2025-07-20T00:00	17450	87	-57.1	-85.1	251	6	
2025-07-20T00:00	17500	87	-56.9	-85.1	249	7	
2025-07-20T00:00	17550	86	-56.4	-84.8	250	7	
2025-07-20T00:00	17600	85	-56.2	-84.7	255	7	
2025-07-20T00:00	17650	85	-56.3	-84.8	260	6	
2025-07-20T00:00	17700	84	-56.5	-85.0	263	5	
2025-07-20T00:00	17750	83	-56.5	-84.9	260	3	
2025-07-20T00:00	17800	83	-56.8	-84.8	245	3	
2025-07-20T00:00	17850	82	-57.1	-84.9	224	3	
2025-07-20T00:00	17900	81	-57.5	-85.0	211	3	
2025-07-20T00:00	17950	81	-57.8	-85.1	211	3	
2025-07-20T00:00	18000	80	-58.1	-85.3	218	3	
2025-07-20T00:00	18050	80	-58.0	-85.2	218	3	
2025-07-20T00:00	18100	79	-57.9	-85.4	214	4	
2025-07-20T00:00	18150	78	-58.0	-85.5	213	5	
2025-07-20T00:00	18200	78	-57.8	-85.5	210	4	
2025-07-20T00:00	18250	77	-57.1	-85.4	199	4	
2025-07-20T00:00	18300	76	-56.9	-85.5	188	4	
2025-07-20T00:00	18350	76	-56.9	-85.3	180	4	
2025-07-20T00:00	18400	75	-56.8	-85.1	169	5	
2025-07-20T00:00	18450	75	-56.8	-85.1	160	5	
2025-07-20T00:00	18500	74	-56.8	-85.1	158	6	
2025-07-20T00:00	18550	73	-56.7	-85.2	161	7	
2025-07-20T00:00	18600	73	-56.8	-85.2	168	7	
2025-07-20T00:00	18650	72	-56.9	-85.2	179	7	
2025-07-20T00:00	18700	72	-57.0	-85.4	191	7	
2025-07-20T00:00	18750	71	-56.6	-85.3	201	6	
2025-07-20T00:00	18800	71	-56.4	-85.1	205	6	
2025-07-20T00:00	18850	70	-56.1	-85.1	202	6	
2025-07-20T00:00	18900	70	-56.1	-85.1	201	6	
2025-07-20T00:00	18950	69	-56.3	-85.0	208	6	
2025-07-20T00:00	19000	68	-56.5	-85.1	221	6	
2025-07-20T00:00	19050	68	-56.2	-85.2	234	6	
2025-07-20T00:00	19100	67	-55.4	-84.9	239	6	
2025-07-20T00:00	19150	67	-55.3	-84.9	237	5	
2025-07-20T00:00	19200	66	-55.3	-84.9	228	3	
2025-07-20T00:00	19250	66	-55.3	-84.8	198	2	
2025-07-20T00:00	19300	65	-54.9	-84.5	173	3	
2025-07-20T00:00	19350	65	-55.2	-84.7	172	4	
2025-07-20T00:00	19400	64	-55.2	-84.7	173	3	
2025-07-20T00:00	19450	64	-54.7	-84.5	170	3	
2025-07-20T00:00	19500	63	-54.5	-84.5	173	2	
2025-07-20T00:00	19550	63	-54.5	-84.4	188	1	
2025-07-20T00:00	19600	62	-54.7	-84.5	175	1	
2025-07-20T00:00	19650	62	-54.5	-84.4	155	2	
2025-07-20T00:00	19700	61	-54.6	-84.4	145	2	
2025-07-20T00:00	19750	61	-54.5	-84.5	129	2	
2025-07-20T00:00	19800	60	-54.3	-84.3	100	2	
2025-07-20T00:00	19850	60	-54.4	-84.4	86	3	
2025-07-20T00:00	19900	59	-54.5	-84.5	93	3	
2025-07-20T00:00	19950	59	-54.2	-84.4	113	2	
2025-07-20T00:00	20000	59	-54.4	-84.5	116	2	
2025-07-20T00:00	20050	58	-54.1		103	3	
2025-07-20T00:00	20100	58	-54.0		97	3	
2025-07-20T00:00	20150	57	-53.6		96	4	
2025-07-20T00:00	20200	57	-52.9		95	5	
2025-07-20T00:00	20250	56	-52.8		94	6	
2025-07-20T00:00	20300	56	-52.3		97	7	
2025-07-20T00:00	20350	55	-52.1		105	6	
2025-07-20T00:00	20400	55	-52.5		114	7	
2025-07-20T00:00	20450	55	-52.8		123	7	
2025-07-20T00:00	20500	54	-52.7		128	7	
2025-07-20T00:00	20550	54	-52.7		131	7	
2025-07-20T00:00	20600	53	-52.6		135	7	
2025-07-20T00:00	20650	53	-52.6		140	8	
2025-07-20T00:00	20700	52	-52.6		142	8	
2025-07-20T00:00	20750	52	-52.8		139	8	
2025-07-20T00:00	20800	52	-52.5		133	7	
2025-07-20T00:00	20850	51	-52.4		124	6	
2025-07-20T00:00	20900	51	-52.6		112	6	
2025-07-20T00:00	20950	51	-52.6		101	6	
2025-07-20T00:00	21000	50	-52.8		92	6	
2025-07-20T00:00	21050	50	-53.0		90	7	
2025-07-20T00:00	21100	49	-52.8		93	6	
2025-07-20T00:00	21150	49	-52.7		102	6	
2025-07-20T00:00	21200	49	-52.9		115	6	
2025-07-20T00:00	21250	48	-53.0		130	6	
2025-07-20T00:00	21300	48	-53.1		144	7	
2025-07-20T00:00	21350	47	-53.2		154	8	
2025-07-20T00:00	21400	47	-53.4		161	8	
2025-07-20T00:00	21450	47	-53.4		169	8	
2025-07-20T00:00	21500	46	-53.2		178	8	
2025-07-20T00:00	21550	46	-53.1		187	7	
2025-07-20T00:00	21600	46	-52.9		198	5	
2025-07-20T00:00	21650	45	-52.6		213	4	
2025-07-20T00:00	21700	45	-52.5		236	3	
2025-07-20T00:00	21750	45	-52.5		269	2	
2025-07-20T00:00	21800	44	-52.4		305	2	
2025-07-20T00:00	21850	44	-52.1		350	2	
2025-07-20T00:00	21900	44	-52.0		28	3	
2025-07-20T00:00	21950	43	-52.0		43	4	
2025-07-20T00:00	22000	43	-51.8		54	5	
2025-07-20T00:00	22050	43	-51.7		62	5	
2025-07-20T00:00	22100	42	-51.8		69	4	
2025-07-20T00:00	22150	42	-51.8		74	4	
2025-07-20T00:00	22200	42	-52.1		77	5	
2025-07-20T00:00	22250	41	-52.2		78	5	
2025-07-20T00:00	22300	41	-52.2		76	6	
2025-07-20T00:00	22350	41	-52.1		74	6	
2025-07-20T00:00	22400	40	-52.2		72	6	
2025-07-20T00:00	22450	40	-52.2		73	7	
2025-07-20T00:00	22500	40	-52.4		80	8	
2025-07-20T00:00	22550	39	-52.2		90	8	
2025-07-20T00:00	22600	39	-52.2		100	8	
2025-07-20T00:00	22650	39	-52.1		106	7	
2025-07-20T00:00	22700	39	-52.4		106	6	
2025-07-20T00:00	22750	38	-52.7		101	6	
2025-07-20T00:00	22800	38	-52.7		91	6	
2025-07-20T00:00	22850	38	-52.5		82	6	
2025-07-20T00:00	22900	37	-52.5		81	7	
2025-07-20T00:00	22950	37	-52.5		85	8	
2025-07-20T00:00	23000	37	-52.6		95	8	
2025-07-20T00:00	23050	36	-52.6		105	9	
2025-07-20T00:00	23100	36	-52.5		112	9	
2025-07-20T00:00	23150	36	-52.5		116	8	
2025-07-20T00:00	23200	36	-51.9		118	7	
2025-07-20T00:00	23250	35	-51.8		119	5	
2025-07-20T00:00	23300	35	-51.7		121	4	
2025-07-20T00:00	23350	35	-51.6		128	3	
2025-07-20T00:00	23400	35	-51.1		138	3	
2025-07-20T00:00	23450	34	-50.7		140	2	
2025-07-20T00:00	23500	34	-50.6		126	2	
2025-07-20T00:00	23550	34	-50.6		105	3	
2025-07-20T00:00	23600	34	-50.6		93	5	
2025-07-20T00:00	23650	33	-50.4		89	6	
2025-07-20T00:00	23700	33	-50.4		90	8	
2025-07-20T00:00	23750	33	-50.2		93	9	
2025-07-20T00:00	23800	33	-50.4		99	9	
2025-07-20T00:00	23850	32	-50.7		106	10	
2025-07-20T00:00	23900	32	-50.7		114	11	
2025-07-20T00:00	23950	32	-50.8		122	11	
2025-07-20T00:00	24000	32	-50.8		131	10	
2025-07-20T00:00	24050	31	-50.7		140	9	
2025-07-20T00:00	24100	31	-50.4		147	8	
2025-07-20T00:00	24150	31	-49.9		151	7	
2025-07-20T00:00	24200	31	-50.0		149	6	
2025-07-20T00:00	24250	30	-50.2		137	6	
2025-07-20T00:00	24300	30	-50.1		124	7	
2025-07-20T00:00	24350	30	-49.9		119	8	
2025-07-20T00:00	24400	30	-49.5		120	8	
2025-07-20T00:00	24450	29	-49.5		122	7	
2025-07-20T00:00	24500	29	-49.4		119	6	
2025-07-20T00:00	24550	29	-49.1		114	5	
2025-07-20T00:00	24600	29	-48.8		112	4	
2025-07-20T00:00	24650	29	-48.8		109	4	
2025-07-20T00:00	24700	28	-48.5		103	4	
2025-07-20T00:00	24750	28	-48.4		99	5	
2025-07-20T00:00	24800	28	-48.4		99	5	
2025-07-20T00:00	24850	28	-48.5		97	5	
2025-07-20T00:00	24900	27	-48.8		92	6	
2025-07-20T00:00	24950	27	-48.7		89	7	
2025-07-20T00:00	25000	27	-48.8		92	8	
2025-07-20T00:00	25050	27	-49.0		97	9	
2025-07-20T00:00	25100	27	-49.0		100	9	
2025-07-20T00:00	25150	26	-49.0		100	9	
2025-07-20T00:00	25200	26	-48.9		98	8	
2025-07-20T00:00	25250	26	-48.8		97	8	
2025-07-20T00:00	25300	26	-48.8		94	8	
2025-07-20T00:00	25350	26	-48.7		89	8	
2025-07-20T00:00	25400	25	-48.6		82	9	
2025-07-20T00:00	25450	25	-48.4		80	10	
2025-07-20T00:00	25500	25	-48.2		85	10	
2025-07-20T00:00	25550	25	-48.0		92	11	
2025-07-20T00:00	25600	25	-48.1		98	12	
2025-07-20T00:00	25650	25	-48.4		103	12	
2025-07-20T00:00	25700	24	-48.4		104	13	
2025-07-20T00:00	25750	24	-48.2		103	12	
2025-07-20T00:00	25800	24	-48.2		103	12	
2025-07-20T00:00	25850	24	-48.2		107	12	
2025-07-20T00:00	25900	24	-48.1		112	12	
2025-07-20T00:00	25950	23	-48.2		115	11	
2025-07-20T00:00	26000	23	-48.1		116	10	
2025-07-20T00:00	26050	23	-47.9		111	10	
2025-07-20T00:00	26100	23	-47.5		101	10	
2025-07-20T00:00	26150	23	-47.3		90	10	
2025-07-20T00:00	26200	23	-47.2		83	10	
2025-07-20T00:00	26250	22	-47.1		82	9	
2025-07-20T00:00	26300	22	-47.2		87	9	
2025-07-20T00:00	26350	22	-47.0		97	9	
2025-07-20T00:00	26400	22	-47.1		107	9	
2025-07-20T00:00	26450	22	-47.1		111	9	
2025-07-20T00:00	26500	22	-47.2		107	8	
2025-07-20T00:00	26550	21	-47.1		98	8	
2025-07-20T00:00	26600	21	-46.6		90	8	
2025-07-20T00:00	26650	21	-46.2		86	8	
2025-07-20T00:00	26700	21	-46.2		81	9	
2025-07-20T00:00	26750	21	-46.2		80	10	
2025-07-20T00:00	26800	21	-46.3		82	9	
2025-07-20T00:00	26850	20	-46.4		88	9	
2025-07-20T00:00	26900	20	-46.4		95	8	
2025-07-20T00:00	26950	20	-46.7		101	7	
2025-07-20T00:00	27000	20	-47.0		101	6	
2025-07-20T00:00	27050	20	-46.7		92	5	
2025-07-20T00:00	27100	20	-46.3		78	5	
2025-07-20T00:00	27150	20	-46.1		68	6	
2025-07-20T00:00	27200	19	-45.5		65	8	
2025-07-20T00:00	27250	19	-45.1		68	9	
2025-07-20T00:00	27300	19	-45.1		71	11	
2025-07-20T00:00	27350	19	-45.2		73	14	
2025-07-20T00:00	27400	19	-45.3		76	15	
2025-07-20T00:00	27450	19	-45.5		79	16	
2025-07-20T00:00	27500	19	-45.8		83	16	
2025-07-20T00:00	27550	18	-45.8		86	15	
2025-07-20T00:00	27600	18	-45.9		89	15	
2025-07-20T00:00	27650	18	-45.7		92	14	
2025-07-20T00:00	27700	18	-45.7		94	13	
2025-07-20T00:00	27750	18	-45.9		95	13	
2025-07-20T00:00	27800	18	-45.5		95	12	
2025-07-20T00:00	27850	18	-45.1		94	11	
2025-07-20T00:00	27900	17	-44.9		94	10	
2025-07-20T00:00	27950	17	-44.6		93	9	
2025-07-20T00:00	28000	17	-44.4		91	9	
2025-07-20T00:00	28050	17	-44.3		89	10	
2025-07-20T00:00	28100	17	-44.3		87	11	
2025-07-20T00:00	28150	17	-44.3		84	11	
2025-07-20T00:00	28200	17	-44.3		84	12	
2025-07-20T00:00	28250	17	-44.4		84	12	
2025-07-20T00:00	28300	16	-44.5		82	12	
2025-07-20T00:00	28350	16	-44.3		79	11	
2025-07-20T00:00	28400	16	-44.3		77	11	
2025-07-20T00:00	28450	16	-44.4		79	12	
2025-07-20T00:00	28500	16	-44.2		83	12	
2025-07-20T00:00	28550	16	-44.2		87	13	
2025-07-20T00:00	28600	16	-44.2		89	13	
2025-07-20T00:00	28650	16	-44.1		91	13	
2025-07-20T00:00	28700	15	-44.0		95	13	
2025-07-20T00:00	28750	15	-44.0		98	13	
2025-07-20T00:00	28800	15	-43.9		99	12	
2025-07-20T00:00	28850	15	-43.7		95	11	
2025-07-20T00:00	28900	15	-43.5		89	10	
2025-07-20T00:00	28950	15	-43.3		81	10	
2025-07-20T00:00	29000	15	-43.2		73	11	
2025-07-20T00:00	29050	15	-43.3		68	11	
2025-07-20T00:00	29100	15	-43.3		68	12	
2025-07-20T00:00	29150	14	-43.3		70	13	
2025-07-20T00:00	29200	14	-43.3		75	14	
2025-07-20T00:00	29250	14	-43.4		80	14	
2025-07-20T00:00	29300	14	-43.6		86	13	
2025-07-20T00:00	29350	14	-43.6		89	13	
2025-07-20T00:00	29400	14	-43.6		88	12	
2025-07-20T00:00	29450	14	-43.5		84	12	
2025-07-20T00:00	29500	14	-43.0		80	13	
2025-07-20T00:00	29550	14	-42.7		77	12	
2025-07-20T00:00	29600	14	-42.7		74	12	
2025-07-20T00:00	29650	13	-42.7		69	11	
2025-07-20T00:00	29700	13	-42.6		67	11	
2025-07-20T00:00	29750	13	-42.2		70	12	
2025-07-20T00:00	29800	13	-42.1		76	13	
2025-07-20T00:00	29850	13	-42.0		83	13	
2025-07-20T00:00	29900	13	-42.0		89	13	
2025-07-20T00:00	29950	13	-41.9		91	13	
2025-07-20T00:00	30000	13	-41.7		91	13	
2025-07-20T00:00	30050	13	-41.4		91	13	
2025-07-20T00:00	30100	13	-41.6		90	12	
2025-07-20T00:00	30150	12	-41.6		89	12	
2025-07-20T00:00	30200	12	-41.6		86	12	
2025-07-20T00:00	30250	12	-41.8		82	12	
2025-07-20T00:00	30300	12	-41.8		76	13	
2025-07-20T00:00	30350	12	-41.6		70	14	
2025-07-20T00:00	30400	12	-41.1		65	15	
2025-07-20T00:00	30450	12	-40.7		64	16	
2025-07-20T00:00	30500	12	-40.4		65	17	
2025-07-20T00:00	30550	12	-40.3		68	18	
2025-07-20T00:00	30600	12	-40.2		70	18	
2025-07-20T00:00	30650	12	-40.0		74	18	
2025-07-20T00:00	30700	12	-39.9		77	18	
2025-07-20T00:00	30750	11	-39.8		81	17	
2025-07-20T00:00	30800	11	-39.8		83	17	
2025-07-20T00:00	30850	11	-40.1		83	16	
2025-07-20T00:00	30900	11	-40.0		80	16	
2025-07-20T00:00	30950	11	-39.8		78	16	
2025-07-20T00:00	31000	11	-39.4		78	17	
2025-07-20T00:00	31050	11	-39.2		79	17	
2025-07-20T00:00	31100	11	-39.2		80	18	
2025-07-20T00:00	31150	11	-39.1		81	18	
2025-07-20T00:00	31200	11	-39.0		83	19	
2025-07-20T00:00	31250	11	-38.8		85	19	
2025-07-20T00:00	31300	11	-38.7		87	19	
2025-07-20T00:00	31350	10	-38.5		88	19	
2025-07-20T00:00	31400	10	-38.6		90	18	
2025-07-20T00:00	31450	10	-38.8		89	18	
2025-07-20T00:00	31500	10	-38.8		87	17	
2025-07-20T00:00	31550	10	-39.0		85	16	
2025-07-20T00:00	31600	10	-39.1		85	16	
2025-07-20T00:00	31650	10	-39.2		86	16	
2025-07-20T00:00	31700	10	-39.3		88	16	
2025-07-20T00:00	31750	10	-39.4		90	16	
2025-07-20T00:00	31800	10	-39.7		93	15	
2025-07-20T00:00	31850	10	-40.0		98	15	
2025-07-20T00:00	31900	10	-40.0		101	15	
2025-07-20T00:00	31950	10	-39.9		102	14	
2025-07-20T00:00	32000	10	-39.9		101	13	
2025-07-20T00:00	32050	9	-39.6		101	12	
2025-07-20T00:00	32100	9	-39.1		101	12	
2025-07-20T00:00	32150	9	-39.1		102	11	
2025-07-20T00:00	32200	9	-39.1		102	11	
2025-07-20T00:00	32250	9	-39.3		100	11	
2025-07-20T00:00	32300	9	-39.3		95	11	
2025-07-20T00:00	32350	9	-39.3		89	12	
2025-07-20T00:00	32400	9	-39.3		85	12	
2025-07-20T00:00	32450	9	-39.5		83	13	
2025-07-20T00:00	32500	9	-39.7		82	14	
2025-07-20T00:00	32550	9	-39.9		83	14	
2025-07-20T00:00	32600	9	-40.1		87	15	
2025-07-20T00:00	32650	9	-39.9		94	15	
2025-07-20T00:00	32700	9	-39.9		102	16	
2025-07-20T00:00	32750	9	-40.0		106	16	
2025-07-20T00:00	32800	8	-39.8		107	15	
2025-07-20T00:00	32850	8	-39.4		107	14	
2025-07-20T00:00	32900	8	-39.1		107	13	
2025-07-20T00:00	32950	8	-39.1		106	13	
2025-07-20T00:00	33000	8	-38.9		100	13	
2025-07-20T00:00	33050	8	-38.0		93	14	
2025-07-20T00:00	33100	8	-37.3		91	15	
2025-07-20T00:00	33150	8	-36.8		93	16	
2025-07-20T00:00	33200	8	-36.4		97	16	
2025-07-20T00:00	33250	8	-36.4		100	15	
2025-07-20T00:00	33300	8	-36.4		97	15	
2025-07-20T00:00	33350	8	-36.1		91	15	
2025-07-20T00:00	33400	8	-36.0		86	16	
2025-07-20T00:00	33450	8	-35.8		85	17	
2025-07-20T00:00	33500	8	-35.4		86	18	
2025-07-20T00:00	33550	8	-35.2		88	19	
2025-07-20T00:00	33600	8	-35.2		89	19	
2025-07-20T00:00	33650	8	-35.2		88	19	
2025-07-20T00:00	33700	7	-35.3		86	19	
2025-07-20T00:00	33750	7	-35.3		81	19	
2025-07-20T00:00	33800	7	-35.2		77	20	
2025-07-20T00:00	33850	7	-34.9		76	21	
2025-07-20T00:00	33900	7	-34.8		78	22	
2025-07-20T00:00	33950	7	-34.9		81	22	
2025-07-20T00:00	34000	7	-34.8		84	21	
2025-07-20T00:00	34050	7	-34.9		87	20	
2025-07-20T00:00	34100	7	-34.8		88	19	
2025-07-20T00:00	34150	7	-34.8		87	18	
2025-07-20T00:00	34200	7	-34.8		86	17	
2025-07-20T00:00	34250	7	-34.9		83	16	
2025-07-20T00:00	34300	7	-35.0		79	15	
2025-07-20T00:00	34350	7	-35.0		73	15	
2025-07-20T00:00	34400	7	-34.7		68	16	
2025-07-20T00:00	34450	7	-34.4		65	18	
2025-07-20T00:00	34500	7	-34.3		64	20	
2025-07-20T00:00	34550	7	-34.3		65	21	
2025-07-20T00:00	34600	7	-34.4		66	22	
2025-07-20T00:00	34650	6	-34.4		67	22	
2025-07-20T00:00	34700	6	-34.5		67	21	
2025-07-20T00:00	34750	6	-34.6		68	21	
2025-07-20T00:00	34800	6	-34.7		68	21	
2025-07-20T00:00	34850	6	-34.6		67	22	
2025-07-20T00:00	34900	6	-34.6		67	23	
2025-07-20T00:00	34950	6	-34.4		67	24	
2025-07-20T00:00	35000	6	-34.2		68	25	
2025-07-20T00:00	35050	6	-34.3		69	26	
2025-07-20T00:00	35100	6	-34.4		70	27	
2025-07-20T00:00	35150	6	-34.3		71	29	
2025-07-20T00:00	35200	6	-34.6		73	30	
2025-07-20T00:00	35250	6	-34.4		75	31	
2025-07-20T00:00	35300	6	-34.1		75	31	
2025-07-20T00:00	35350	6	-34.0		75	30	
2025-07-20T00:00	35400	6	-34.1		75	29	
2025-07-20T00:00	35450	6	-34.2		75	27	
2025-07-20T00:00	35500	6	-34.4		75	27	
2025-07-20T00:00	35550	6	-34.5		76	27	
2025-07-20T00:00	35600	6	-34.3		77	26	
2025-07-20T00:00	35650	6	-34.1		78	25	
2025-07-20T00:00	35700	6	-33.9		79	24	
2025-07-20T00:00	35750	6	-33.8		79	22	
2025-07-20T00:00	35800	6	-33.8		78	22	
2025-07-20T00:00	35850	5	-33.8		76	22	
2025-07-20T00:00	35900	5	-33.4		75	24	
2025-07-20T00:00	35950	5	-33.1		75	26	
2025-07-20T00:00	36000	5	-32.7		76	27	
2025-07-20T00:00	36050	5	-32.3		78	27	
2025-07-20T00:00	36100	5	-31.9		80	25	
2025-07-20T00:00	36150	5	-31.8		80	23	
2025-07-20T00:00	36200	5	-31.7		79	22	
2025-07-20T00:00	36250	5	-31.9		76	22	
2025-07-20T00:00	36300	5	-31.3		74	23	
2025-07-20T00:00	36350	5	-30.6		73	25	
2025-07-20T00:00	36400	5	-30.1		72	26	
2025-07-20T00:00	36450	5	-29.5		71	25	
2025-07-20T00:00	36500	5	-29.4		72	24	
2025-07-20T00:00	36550	5	-29.4		72	22	
2025-07-20T00:00	36600	5	-29.4		71	22	
2025-07-20T00:00	36650	5	-29.0		70	23	
2025-07-20T00:00	36700	5	-28.5		70	25	
2025-07-20T00:00	36750	5	-28.3		72	26	
2025-07-20T00:00	36800	5	-28.1		75	27	
2025-07-20T00:00	36850	5	-28.1		78	28	
2025-07-20T00:00	36900	5	-28.1		82	28	
2025-07-20T00:00	36950	5	-28.0		84	28	
2025-07-20T00:00	37000	5	-27.9		84	27	
2025-07-20T00:00	37050	5	-27.7		84	26	
2025-07-20T12:00	491	951	23.8	17.5	290	2	
2025-07-20T12:00	501	950	23.8	18.0	332	2	
2025-07-20T12:00	520	948	22.9	17.8	336	2	
2025-07-20T12:00	540	946	22.8	17.5	336	3	
2025-07-20T12:00	560	944	22.6	17.4	336	3	
2025-07-20T12:00	580	941	22.4	17.3	337	3	
2025-07-20T12:00	600	939	22.2	17.2	338	3	
2025-07-20T12:00	620	937	22.0	17.1	339	3	
2025-07-20T12:00	640	935	21.8	17.1	340	3	
2025-07-20T12:00	660	933	21.6	17.0	342	3	
2025-07-20T12:00	680	931	21.4	17.0	344	3	
2025-07-20T12:00	700	929	21.2	17.0	345	3	
2025-07-20T12:00	720	927	20.9	17.0	347	3	
2025-07-20T12:00	740	925	20.7	16.9	347	3	
2025-07-20T12:00	760	922	20.6	16.8	348	3	
2025-07-20T12:00	780	920	20.3	16.8	347	3	
2025-07-20T12:00	800	918	20.2	16.8	345	2	
2025-07-20T12:00	820	916	20.1	16.6	339	2	
2025-07-20T12:00	840	914	19.8	16.7	324	1	
2025-07-20T12:00	860	912	19.7	16.4	293	1	
2025-07-20T12:00	880	910	19.6	16.3	248	1	
2025-07-20T12:00	900	907	19.4	16.1	224	1	
2025-07-20T12:00	920	905	19.4	15.6	216	2	
2025-07-20T12:00	940	903	19.6	14.8	212	3	
2025-07-20T12:00	960	901	19.8	14.4	213	3	
2025-07-20T12:00	980	899	19.6	14.2	216	4	
2025-07-20T12:00	1000	897	19.6	14.1	219	4	
2025-07-20T12:00	1020	895	19.4	14.0	223	5	
2025-07-20T12:00	1040	893	19.2	14.1	225	5	
2025-07-20T12:00	1060	891	19.0	13.8	226	5	
2025-07-20T12:00	1080	889	19.0	13.7	227	6	
2025-07-20T12:00	1100	887	18.9	13.8	227	6	
2025-07-20T12:00	1120	885	18.8	13.6	226	6	
2025-07-20T12:00	1140	883	18.7	13.5	226	6	
2025-07-20T12:00	1160	881	18.5	13.4	225	7	
2025-07-20T12:00	1180	879	18.3	13.3	224	7	
2025-07-20T12:00	1200	877	18.2	13.2	224	7	
2025-07-20T12:00	1220	875	18.1	12.9	225	8	
2025-07-20T12:00	1240	872	18.0	12.5	226	8	
2025-07-20T12:00	1260	870	17.8	12.5	228	9	
2025-07-20T12:00	1280	868	17.7	12.4	229	9	
2025-07-20T12:00	1300	866	17.8	11.7	230	10	
2025-07-20T12:00	1320	864	17.6	11.6	231	11	
2025-07-20T12:00	1340	862	17.6	11.0	232	12	
2025-07-20T12:00	1360	860	17.4	10.8	232	12	
2025-07-20T12:00	1380	858	17.4	10.4	231	12	
2025-07-20T12:00	1400	856	17.2	10.3	230	12	
2025-07-20T12:00	1420	854	17.0	10.4	229	12	
2025-07-20T12:00	1440	852	16.9	10.1	227	11	
2025-07-20T12:00	1460	850	16.8	9.9	225	11	
2025-07-20T12:00	1480	848	16.6	9.7	224	11	
2025-07-20T12:00	1500	846	16.7	9.3	223	11	
2025-07-20T12:00	1520	844	16.6	9.3	222	10	
2025-07-20T12:00	1540	842	16.5	9.1	222	10	
2025-07-20T12:00	1560	840	16.5	8.8	222	10	
2025-07-20T12:00	1580	838	16.3	8.9	223	9	
2025-07-20T12:00	1600	836	16.2	8.5	223	9	
2025-07-20T12:00	1620	834	16.3	8.5	223	9	
2025-07-20T12:00	1640	833	16.3	8.4	223	8	
2025-07-20T12:00	1660	830	16.2	8.2	222	8	
2025-07-20T12:00	1680	828	16.0	8.2	221	8	
2025-07-20T12:00	1700	827	15.9	8.2	218	9	
2025-07-20T12:00	1720	825	15.8	8.0	215	9	
2025-07-20T12:00	1740	823	15.6	8.0	211	9	
2025-07-20T12:00	1760	821	15.4	7.8	208	9	
2025-07-20T12:00	1780	819	15.4	7.7	206	9	
2025-07-20T12:00	1800	817	15.3	7.6	204	9	
2025-07-20T12:00	1820	815	15.5	7.3	204	9	
2025-07-20T12:00	1840	813	15.5	7.1	204	9	
2025-07-20T12:00	1860	811	15.3	7.1	204	9	
2025-07-20T12:00	1880	809	15.2	7.0	204	10	
2025-07-20T12:00	1900	808	15.1	6.9	204	10	
2025-07-20T12:00	1920	806	14.9	6.8	204	10	
2025-07-20T12:00	1940	804	14.7	6.7	203	11	
2025-07-20T12:00	1960	802	14.5	6.7	203	11	
2025-07-20T12:00	1980	800	14.3	6.7	202	12	
2025-07-20T12:00	2000	798	14.1	6.7	202	12	
2025-07-20T12:00	2020	796	14.0	6.6	203	13	
2025-07-20T12:00	2040	794	13.8	6.5	205	13	
2025-07-20T12:00	2060	792	13.6	6.3	207	14	
2025-07-20T12:00	2080	790	13.5	6.3	209	14	
2025-07-20T12:00	2100	789	13.3	5.8	211	14	
2025-07-20T12:00	2120	787	13.3	5.3	212	14	
2025-07-20T12:00	2140	785	13.1	5.1	214	15	
2025-07-20T12:00	2160	783	13.0	4.6	215	15	
2025-07-20T12:00	2180	781	12.9	4.4	217	16	
2025-07-20T12:00	2200	779	12.7	4.4	218	16	
2025-07-20T12:00	2220	778	12.6	4.2	219	17	
2025-07-20T12:00	2240	776	12.4	3.9	219	17	
2025-07-20T12:00	2260	774	12.2	3.9	219	17	
2025-07-20T12:00	2280	772	12.1	3.6	219	17	
2025-07-20T12:00	2300	770	11.9	3.5	218	17	
2025-07-20T12:00	2320	768	11.7	3.4	217	17	
2025-07-20T12:00	2340	766	11.6	3.3	216	17	
2025-07-20T12:00	2360	764	11.4	3.2	215	17	
2025-07-20T12:00	2380	763	11.2	3.1	214	17	
2025-07-20T12:00	2400	761	11.0	3.0	214	17	
2025-07-20T12:00	2420	759	10.8	2.9	214	17	
2025-07-20T12:00	2440	757	10.7	2.9	215	17	
2025-07-20T12:00	2460	755	10.5	2.9	216	17	
2025-07-20T12:00	2480	754	10.3	2.7	216	17	
2025-07-20T12:00	2500	752	10.1	2.7	216	17	
2025-07-20T12:00	2520	750	9.9	2.6	216	17	
2025-07-20T12:00	2540	748	9.7	2.5	216	18	
2025-07-20T12:00	2560	746	9.5	2.4	216	18	
2025-07-20T12:00	2580	745	9.4	2.5	217	18	
2025-07-20T12:00	2600	743	9.2	2.3	217	17	
2025-07-20T12:00	2620	741	9.0	2.2	218	17	
2025-07-20T12:00	2640	739	8.8	2.2	218	17	
2025-07-20T12:00	2660	737	8.7	2.2	218	17	
2025-07-20T12:00	2680	735	8.5	2.1	218	17	
2025-07-20T12:00	2700	734	8.3	2.2	217	17	
2025-07-20T12:00	2720	732	8.2	2.3	216	17	
2025-07-20T12:00	2740	730	8.0	2.3	215	16	
2025-07-20T12:00	2760	728	7.9	1.7	213	16	
2025-07-20T12:00	2780	727	7.8	1.4	211	16	
2025-07-20T12:00	2800	725	7.6	1.3	210	16	
2025-07-20T12:00	2820	723	7.5	0.5	210	15	
2025-07-20T12:00	2840	722	7.5	0.3	210	15	
2025-07-20T12:00	2860	720	7.4	0.3	210	16	
2025-07-20T12:00	2880	718	7.3	0.8	211	16	
2025-07-20T12:00	2900	716	7.2	0.5	213	16	
2025-07-20T12:00	2920	714	7.0	0.9	215	16	
2025-07-20T12:00	2940	713	6.7	1.3	216	16	
2025-07-20T12:00	2960	711	6.5	1.9	217	16	
2025-07-20T12:00	2980	709	6.3	2.3	218	16	
2025-07-20T12:00	3000	708	6.1	2.6	219	16	
2025-07-20T12:00	3020	706	5.9	2.9	220	16	
2025-07-20T12:00	3040	704	5.6	3.2	221	16	
2025-07-20T12:00	3060	703	5.4	3.3	222	16	
2025-07-20T12:00	3080	701	5.2	3.2	223	16	
2025-07-20T12:00	3100	699	5.1	3.0	224	16	
2025-07-20T12:00	3120	697	4.9	3.1	225	16	
2025-07-20T12:00	3140	696	4.8	3.3	226	16	
2025-07-20T12:00	3160	694	4.7	3.3	226	17	
2025-07-20T12:00	3180	692	4.5	3.0	226	17	
2025-07-20T12:00	3200	690	4.4	2.9	226	17	
2025-07-20T12:00	3220	689	4.3	2.9	226	17	
2025-07-20T12:00	3240	687	4.1	2.7	225	16	
2025-07-20T12:00	3260	685	4.0	2.7	224	15	
2025-07-20T12:00	3280	684	3.8	2.6	223	15	
2025-07-20T12:00	3300	682	3.7	2.4	222	14	
2025-07-20T12:00	3320	681	3.5	2.3	222	14	
2025-07-20T12:00	3340	679	3.4	2.0	222	14	
2025-07-20T12:00	3360	677	3.2	1.6	222	14	
2025-07-20T12:00	3380	675	3.0	1.6	221	15	
2025-07-20T12:00	3400	674	2.9	1.4	221	15	
2025-07-20T12:00	3420	672	2.8	1.3	221	16	
2025-07-20T12:00	3440	670	2.6	1.2	220	16	
2025-07-20T12:00	3460	669	2.4	1.2	220	16	
2025-07-20T12:00	3480	667	2.2	1.2	219	16	
2025-07-20T12:00	3500	665	2.1	1.0	219	17	
2025-07-20T12:00	3520	664	1.9	1.0	218	16	
2025-07-20T12:00	3540	662	1.7	1.2	218	16	
2025-07-20T12:00	3560	661	1.6	1.2	219	16	
2025-07-20T12:00	3580	659	1.4	1.1	219	16	
2025-07-20T12:00	3600	657	1.3	1.0	219	16	
2025-07-20T12:00	3620	656	1.2	0.6	219	16	
2025-07-20T12:00	3640	654	1.2	0.4	219	16	
2025-07-20T12:00	3660	652	1.0	0.4	219	16	
2025-07-20T12:00	3680	651	0.8	0.3	218	15	
2025-07-20T12:00	3700	649	0.7	0.3	218	15	
2025-07-20T12:00	3720	648	0.5	0.4	218	15	
2025-07-20T12:00	3740	646	0.4	0.3	217	15	
2025-07-20T12:00	3760	644	0.3	0.2	216	15	
2025-07-20T12:00	3780	643	0.2	0.1	216	16	
2025-07-20T12:00	3800	641	0.2	0.0	215	16	
2025-07-20T12:00	3820	639	0.2	-0.2	214	16	
2025-07-20T12:00	3840	638	0.0	-0.2	214	16	
2025-07-20T12:00	3860	636	-0.1	-0.4	214	16	
2025-07-20T12:00	3880	635	-0.3	-0.4	214	16	
2025-07-20T12:00	3900	633	-0.4	-0.6	215	16	
2025-07-20T12:00	3920	632	-0.5	-0.7	215	16	
2025-07-20T12:00	3940	630	-0.6	-1.0	216	16	
2025-07-20T12:00	3960	629	-0.8	-1.1	216	16	
2025-07-20T12:00	3980	627	-0.8	-1.8	216	16	
2025-07-20T12:00	4000	625	-0.8	-2.2	215	17	
2025-07-20T12:00	4020	624	-0.9	-2.4	214	17	
2025-07-20T12:00	4040	622	-1.1	-2.5	213	17	
2025-07-20T12:00	4060	621	-1.2	-2.6	212	17	
2025-07-20T12:00	4080	619	-1.3	-2.6	212	17	
2025-07-20T12:00	4100	618	-1.6	-2.6	211	17	
2025-07-20T12:00	4120	616	-1.7	-2.8	212	16	
2025-07-20T12:00	4140	615	-1.8	-3.0	213	16	
2025-07-20T12:00	4160	613	-2.0	-3.1	214	15	
2025-07-20T12:00	4180	611	-2.2	-3.0	215	15	
2025-07-20T12:00	4200	610	-2.4	-3.1	216	15	
2025-07-20T12:00	4220	608	-2.5	-3.3	217	14	
2025-07-20T12:00	4240	607	-2.7	-3.2	218	14	
2025-07-20T12:00	4260	605	-3.0	-3.0	219	14	
2025-07-20T12:00	4280	604	-3.1	-3.1	220	14	
2025-07-20T12:00	4300	602	-3.3	-3.4	220	14	
2025-07-20T12:00	4320	601	-3.5	-3.8	221	14	
2025-07-20T12:00	4340	599	-3.6	-4.0	222	14	
2025-07-20T12:00	4360	598	-3.7	-4.0	223	15	
2025-07-20T12:00	4380	596	-3.8	-4.1	223	15	
2025-07-20T12:00	4400	595	-3.9	-4.7	224	15	
2025-07-20T12:00	4420	593	-3.9	-5.3	224	15	
2025-07-20T12:00	4440	592	-3.8	-6.0	224	16	
2025-07-20T12:00	4460	590	-3.9	-6.2	223	16	
2025-07-20T12:00	4480	589	-4.0	-6.4	223	16	
2025-07-20T12:00	4500	587	-4.1	-6.8	223	17	
2025-07-20T12:00	4520	586	-4.1	-7.5	223	17	
2025-07-20T12:00	4540	584	-4.0	-7.7	222	17	
2025-07-20T12:00	4560	583	-4.1	-7.7	223	17	
2025-07-20T12:00	4580	581	-4.2	-7.9	223	17	
2025-07-20T12:00	4600	580	-4.3	-8.0	223	17	
2025-07-20T12:00	4620	578	-4.4	-8.4	224	17	
2025-07-20T12:00	4640	577	-4.5	-8.6	225	17	
2025-07-20T12:00	4660	575	-4.6	-8.3	225	17	
2025-07-20T12:00	4680	574	-4.8	-7.8	226	17	
2025-07-20T12:00	4700	573	-4.9	-7.5	226	16	
2025-07-20T12:00	4720	571	-5.1	-7.4	227	16	
2025-07-20T12:00	4740	570	-5.3	-7.6	226	16	
2025-07-20T12:00	4760	568	-5.4	-7.5	226	16	
2025-07-20T12:00	4780	567	-5.5	-7.7	225	16	
2025-07-20T12:00	4800	565	-5.6	-8.1	225	16	
2025-07-20T12:00	4820	564	-5.7	-8.4	225	16	
2025-07-20T12:00	4840	562	-5.8	-8.4	224	17	
2025-07-20T12:00	4860	561	-5.9	-8.4	223	18	
2025-07-20T12:00	4880	559	-6.0	-8.6	223	18	
2025-07-20T12:00	4900	558	-6.1	-9.0	223	18	
2025-07-20T12:00	4920	557	-6.3	-9.3	223	18	
2025-07-20T12:00	4940	555	-6.3	-9.5	222	18	
2025-07-20T12:00	4960	554	-6.3	-9.8	222	18	
2025-07-20T12:00	4980	552	-6.3	-10.1	222	18	
2025-07-20T12:00	5000	551	-6.3	-11.1	221	18	
2025-07-20T12:00	5020	550	-6.3	-12.4	221	18	
2025-07-20T12:00	5040	548	-6.3	-12.5	221	18	
2025-07-20T12:00	5060	547	-6.5	-12.3	221	18	
2025-07-20T12:00	5080	545	-6.7	-12.0	222	18	
2025-07-20T12:00	5100	544	-6.9	-11.2	222	18	
2025-07-20T12:00	5120	543	-7.1	-10.4	223	19	
2025-07-20T12:00	5140	541	-7.2	-10.5	223	19	
2025-07-20T12:00	5160	540	-7.4	-10.7	223	19	
2025-07-20T12:00	5180	538	-7.5	-10.9	224	19	
2025-07-20T12:00	5200	537	-7.7	-11.2	223	19	
2025-07-20T12:00	5220	536	-7.8	-11.6	223	19	
2025-07-20T12:00	5240	534	-7.9	-12.0	222	19	
2025-07-20T12:00	5260	533	-7.9	-12.4	222	19	
2025-07-20T12:00	5280	532	-8.0	-12.6	221	19	
2025-07-20T12:00	5300	530	-8.1	-12.8	220	19	
2025-07-20T12:00	5320	529	-8.2	-13.4	220	19	
2025-07-20T12:00	5340	527	-8.3	-13.9	221	19	
2025-07-20T12:00	5360	526	-8.4	-14.3	221	19	
2025-07-20T12:00	5380	525	-8.4	-14.4	222	19	
2025-07-20T12:00	5400	524	-8.6	-14.2	223	19	
2025-07-20T12:00	5420	522	-8.8	-14.0	224	19	
2025-07-20T12:00	5440	521	-9.0	-13.9	225	19	
2025-07-20T12:00	5460	519	-9.2	-13.6	225	20	
2025-07-20T12:00	5480	518	-9.3	-13.6	225	20	
2025-07-20T12:00	5500	517	-9.5	-13.9	225	20	
2025-07-20T12:00	5520	515	-9.6	-14.1	225	20	
2025-07-20T12:00	5540	514	-9.7	-14.0	225	20	
2025-07-20T12:00	5560	513	-9.7	-14.0	225	20	
2025-07-20T12:00	5580	511	-9.9	-13.8	226	20	
2025-07-20T12:00	5600	510	-10.0	-13.4	227	20	
2025-07-20T12:00	5620	509	-10.1	-13.3	228	20	
2025-07-20T12:00	5640	507	-10.1	-14.3	228	19	
2025-07-20T12:00	5660	506	-10.1	-18.8	229	19	
2025-07-20T12:00	5680	505	-9.9	-23.9	229	19	
2025-07-20T12:00	5700	503	-10.0	-26.4	230	19	
2025-07-20T12:00	5720	502	-10.0	-27.7	230	19	
2025-07-20T12:00	5740	501	-10.2	-27.2	230	19	
2025-07-20T12:00	5760	500	-10.3	-26.9	230	19	
2025-07-20T12:00	5780	498	-10.5	-26.9	229	19	
2025-07-20T12:00	5800	497	-10.7	-26.7	229	19	
2025-07-20T12:00	5820	496	-10.8	-26.6	229	19	
2025-07-20T12:00	5840	494	-11.0	-27.1	228	19	
2025-07-20T12:00	5860	493	-11.1	-25.3	227	19	
2025-07-20T12:00	5880	492	-11.2	-23.3	226	19	
2025-07-20T12:00	5900	491	-11.3	-23.7	225	19	
2025-07-20T12:00	5920	489	-11.5	-23.8	224	19	
2025-07-20T12:00	5940	488	-11.6	-22.7	224	19	
2025-07-20T12:00	5960	487	-11.8	-22.5	223	19	
2025-07-20T12:00	5980	485	-12.0	-22.5	222	20	
2025-07-20T12:00	6000	484	-12.2	-22.5	221	19	
2025-07-20T12:00	6020	483	-12.4	-22.7	221	19	
2025-07-20T12:00	6040	482	-12.5	-22.6	221	19	
2025-07-20T12:00	6060	480	-12.6	-22.7	221	19	
2025-07-20T12:00	6080	479	-12.8	-22.6	221	20	
2025-07-20T12:00	6100	478	-13.0	-22.8	221	20	
2025-07-20T12:00	6120	477	-13.0	-23.4	221	20	
2025-07-20T12:00	6140	475	-13.1	-23.6	221	20	
2025-07-20T12:00	6160	474	-13.2	-23.7	221	21	
2025-07-20T12:00	6180	473	-13.3	-23.6	221	21	
2025-07-20T12:00	6200	472	-13.5	-23.7	221	22	
2025-07-20T12:00	6220	470	-13.7	-23.3	220	22	
2025-07-20T12:00	6240	469	-13.8	-22.9	219	23	
2025-07-20T12:00	6260	468	-13.9	-23.2	219	23	
2025-07-20T12:00	6280	467	-14.0	-23.6	218	23	
2025-07-20T12:00	6300	465	-14.2	-23.7	217	23	
2025-07-20T12:00	6320	464	-14.4	-23.8	217	24	
2025-07-20T12:00	6340	463	-14.5	-23.9	217	24	
2025-07-20T12:00	6360	462	-14.6	-24.5	217	24	
2025-07-20T12:00	6380	461	-14.8	-24.8	218	24	
2025-07-20T12:00	6400	459	-15.0	-25.1	219	24	
2025-07-20T12:00	6420	458	-15.1	-24.8	220	24	
2025-07-20T12:00	6440	457	-15.2	-24.5	221	24	
2025-07-20T12:00	6460	456	-15.4	-24.5	221	25	
2025-07-20T12:00	6480	455	-15.6	-24.5	221	25	
2025-07-20T12:00	6500	453	-15.8	-24.6	221	25	
2025-07-20T12:00	6520	452	-15.9	-24.7	221	25	
2025-07-20T12:00	6540	451	-16.1	-25.0	221	25	
2025-07-20T12:00	6560	450	-16.2	-25.2	221	25	
2025-07-20T12:00	6580	449	-16.4	-25.5	220	25	
2025-07-20T12:00	6600	447	-16.5	-25.7	220	25	
2025-07-20T12:00	6620	446	-16.7	-25.9	220	25	
2025-07-20T12:00	6640	445	-16.9	-25.9	220	25	
2025-07-20T12:00	6660	444	-17.1	-25.9	221	25	
2025-07-20T12:00	6680	442	-17.3	-25.6	221	25	
2025-07-20T12:00	6700	441	-17.5	-25.6	221	25	
2025-07-20T12:00	6720	440	-17.7	-25.8	222	26	
2025-07-20T12:00	6740	439	-17.9	-25.8	222	26	
2025-07-20T12:00	6760	438	-18.0	-24.7	222	27	
2025-07-20T12:00	6780	437	-18.1	-24.1	222	27	
2025-07-20T12:00	6800	436	-18.2	-24.2	222	27	
2025-07-20T12:00	6820	435	-18.4	-24.2	221	26	
2025-07-20T12:00	6840	433	-18.2	-23.0	221	25	
2025-07-20T12:00	6860	432	-17.3	-20.2	221	25	
2025-07-20T12:00	6880	431	-16.9	-19.8	221	24	
2025-07-20T12:00	6900	430	-17.0	-19.9	220	23	
2025-07-20T12:00	6920	429	-17.2	-19.9	219	23	
2025-07-20T12:00	6940	427	-17.3	-19.7	218	23	
2025-07-20T12:00	6960	426	-17.3	-19.5	216	23	
2025-07-20T12:00	6980	425	-17.4	-19.3	215	23	
2025-07-20T12:00	7000	424	-17.5	-19.3	215	23	
2025-07-20T12:00	7020	423	-17.6	-19.3	214	23	
2025-07-20T12:00	7040	422	-17.7	-19.3	214	24	
2025-07-20T12:00	7060	421	-17.9	-19.3	214	24	
2025-07-20T12:00	7080	420	-18.0	-19.4	214	24	
2025-07-20T12:00	7100	419	-18.1	-19.6	214	25	
2025-07-20T12:00	7120	417	-18.3	-19.9	215	25	
2025-07-20T12:00	7140	416	-18.4	-20.0	216	25	
2025-07-20T12:00	7160	415	-18.4	-20.0	217	26	
2025-07-20T12:00	7180	414	-18.4	-19.9	218	26	
2025-07-20T12:00	7200	413	-18.5	-20.2	220	26	
2025-07-20T12:00	7220	412	-18.5	-20.3	221	26	
2025-07-20T12:00	7240	411	-18.6	-20.3	222	25	
2025-07-20T12:00	7260	410	-18.7	-20.3	222	25	
2025-07-20T12:00	7280	408	-18.8	-20.5	223	25	
2025-07-20T12:00	7300	407	-18.9	-20.8	223	25	
2025-07-20T12:00	7320	406	-19.0	-20.8	223	26	
2025-07-20T12:00	7340	405	-19.2	-20.8	224	26	
2025-07-20T12:00	7360	404	-19.4	-20.9	224	26	
2025-07-20T12:00	7380	403	-19.5	-21.1	224	26	
2025-07-20T12:00	7400	402	-19.6	-21.3	224	26	
2025-07-20T12:00	7420	401	-19.7	-21.7	224	26	
2025-07-20T12:00	7440	400	-19.8	-21.7	224	26	
2025-07-20T12:00	7460	399	-20.0	-21.8	224	26	
2025-07-20T12:00	7480	398	-20.1	-22.1	223	26	
2025-07-20T12:00	7500	397	-20.3	-22.3	223	26	
2025-07-20T12:00	7520	395	-20.4	-22.5	223	26	
2025-07-20T12:00	7540	394	-20.6	-22.7	224	26	
2025-07-20T12:00	7560	393	-20.8	-22.5	225	26	
2025-07-20T12:00	7580	392	-20.9	-22.7	225	26	
2025-07-20T12:00	7600	391	-21.1	-22.9	226	26	
2025-07-20T12:00	7620	390	-21.2	-23.8	227	26	
2025-07-20T12:00	7640	389	-21.3	-24.0	227	26	
2025-07-20T12:00	7660	388	-21.5	-23.8	227	26	
2025-07-20T12:00	7680	387	-21.6	-23.9	227	25	
2025-07-20T12:00	7700	386	-21.8	-23.9	227	25	
2025-07-20T12:00	7720	385	-21.9	-24.3	227	25	
2025-07-20T12:00	7740	384	-22.0	-24.6	227	25	
2025-07-20T12:00	7760	383	-22.2	-24.8	228	25	
2025-07-20T12:00	7780	382	-22.3	-24.7	229	25	
2025-07-20T12:00	7800	381	-22.5	-24.8	230	26	
2025-07-20T12:00	7820	380	-22.6	-24.9	231	26	
2025-07-20T12:00	7840	379	-22.8	-25.2	232	26	
2025-07-20T12:00	7860	377	-22.9	-25.4	233	26	
2025-07-20T12:00	7880	377	-23.0	-25.5	234	26	
2025-07-20T12:00	7900	376	-23.2	-25.5	235	26	
2025-07-20T12:00	7920	375	-23.3	-25.8	236	26	
2025-07-20T12:00	7940	374	-23.4	-26.4	237	26	
2025-07-20T12:00	7960	372	-23.5	-26.5	238	26	
2025-07-20T12:00	7980	371	-23.6	-26.6	238	26	
2025-07-20T12:00	8000	371	-23.7	-26.8	238	26	
2025-07-20T12:00	8020	370	-23.9	-27.0	239	26	
2025-07-20T12:00	8040	369	-24.1	-26.9	239	26	
2025-07-20T12:00	8060	368	-24.2	-27.3	239	26	
2025-07-20T12:00	8080	366	-24.3	-27.6	240	26	
2025-07-20T12:00	8100	365	-24.4	-28.0	240	26	
2025-07-20T12:00	8120	364	-24.5	-28.0	240	26	
2025-07-20T12:00	8140	363	-24.6	-28.3	241	26	
2025-07-20T12:00	8160	362	-24.7	-28.5	241	26	
2025-07-20T12:00	8180	361	-24.9	-28.7	241	26	
2025-07-20T12:00	8200	360	-25.0	-28.9	241	26	
2025-07-20T12:00	8220	359	-25.2	-29.0	242	26	
2025-07-20T12:00	8240	358	-25.4	-29.0	242	26	
2025-07-20T12:00	8260	358	-25.5	-29.1	242	26	
2025-07-20T12:00	8280	357	-25.7	-29.5	242	27	
2025-07-20T12:00	8300	356	-25.9	-29.2	242	27	
2025-07-20T12:00	8320	355	-26.1	-29.4	242	27	
2025-07-20T12:00	8340	354	-26.3	-29.6	242	28	
2025-07-20T12:00	8360	353	-26.4	-29.8	242	28	
2025-07-20T12:00	8380	352	-26.6	-29.9	242	28	
2025-07-20T12:00	8400	351	-26.8	-30.2	242	29	
2025-07-20T12:00	8420	350	-27.0	-30.4	242	29	
2025-07-20T12:00	8440	349	-27.1	-30.4	242	29	
2025-07-20T12:00	8460	348	-27.3	-30.6	242	30	
2025-07-20T12:00	8480	347	-27.4	-30.7	242	30	
2025-07-20T12:00	8500	346	-27.6	-30.8	242	30	
2025-07-20T12:00	8520	345	-27.8	-30.9	242	30	
2025-07-20T12:00	8540	344	-27.9	-31.2	242	30	
2025-07-20T12:00	8560	343	-28.1	-31.4	242	30	
2025-07-20T12:00	8580	342	-28.3	-31.5	242	30	
2025-07-20T12:00	8600	341	-28.4	-31.6	242	30	
2025-07-20T12:00	8620	340	-28.6	-31.6	242	30	
2025-07-20T12:00	8640	339	-28.8	-31.8	242	30	
2025-07-20T12:00	8660	338	-29.0	-31.9	243	29	
2025-07-20T12:00	8680	337	-29.1	-32.1	243	29	
2025-07-20T12:00	8700	336	-29.3	-32.2	243	29	
2025-07-20T12:00	8720	335	-29.5	-32.2	242	29	
2025-07-20T12:00	8740	334	-29.6	-32.5	242	29	
2025-07-20T12:00	8760	334	-29.8	-32.6	242	29	
2025-07-20T12:00	8780	333	-30.0	-32.7	242	29	
2025-07-20T12:00	8800	332	-30.1	-32.8	242	29	
2025-07-20T12:00	8820	331	-30.3	-32.9	242	29	
2025-07-20T12:00	8840	330	-30.5	-33.1	242	29	
2025-07-20T12:00	8860	329	-30.6	-33.3	242	29	
2025-07-20T12:00	8880	328	-30.8	-33.3	242	30	
2025-07-20T12:00	8900	327	-31.0	-33.3	242	30	
2025-07-20T12:00	8920	326	-31.2	-33.4	242	30	
2025-07-20T12:00	8940	325	-31.3	-33.7	242	30	
2025-07-20T12:00	8960	324	-31.5	-34.1	242	30	
2025-07-20T12:00	8980	323	-31.6	-34.3	243	30	
2025-07-20T12:00	9000	322	-31.8	-34.6	243	30	
2025-07-20T12:00	9020	322	-31.9	-34.9	243	30	
2025-07-20T12:00	9040	321	-32.1	-35.2	243	30	
2025-07-20T12:00	9060	320	-32.3	-35.6	243	30	
2025-07-20T12:00	9080	319	-32.4	-35.6	243	30	
2025-07-20T12:00	9100	318	-32.6	-35.7	243	30	
2025-07-20T12:00	9120	317	-32.8	-35.8	243	30	
2025-07-20T12:00	9140	316	-32.9	-36.1	243	30	
2025-07-20T12:00	9160	315	-33.1	-36.3	243	30	
2025-07-20T12:00	9180	314	-33.3	-36.3	242	30	
2025-07-20T12:00	9200	313	-33.4	-36.2	242	30	
2025-07-20T12:00	9220	312	-33.6	-36.2	242	30	
2025-07-20T12:00	9240	312	-33.8	-36.4	241	30	
2025-07-20T12:00	9260	311	-34.0	-36.5	241	31	
2025-07-20T12:00	9280	310	-34.2	-36.6	241	31	
2025-07-20T12:00	9300	309	-34.4	-36.5	240	31	
2025-07-20T12:00	9320	308	-34.5	-36.6	240	32	
2025-07-20T12:00	9340	307	-34.7	-36.8	240	32	
2025-07-20T12:00	9360	306	-34.8	-37.2	240	32	
2025-07-20T12:00	9380	305	-35.0	-37.5	240	32	
2025-07-20T12:00	9400	304	-35.2	-37.8	240	32	
2025-07-20T12:00	9420	304	-35.3	-37.8	240	32	
2025-07-20T12:00	9440	303	-35.5	-38.0	240	33	
2025-07-20T12:00	9460	302	-35.7	-38.2	240	32	
2025-07-20T12:00	9480	301	-35.8	-38.4	240	32	
2025-07-20T12:00	9500	300	-36.0	-38.5	240	32	
2025-07-20T12:00	9520	299	-36.2	-38.6	240	32	
2025-07-20T12:00	9540	298	-36.4	-38.6	240	32	
2025-07-20T12:00	9560	298	-36.6	-38.8	241	32	
2025-07-20T12:00	9580	297	-36.7	-38.9	241	32	
2025-07-20T12:00	9600	296	-36.9	-39.1	241	32	
2025-07-20T12:00	9620	295	-37.2	-39.6	241	32	
2025-07-20T12:00	9640	294	-37.3	-40.2	241	32	
2025-07-20T12:00	9660	293	-37.5	-40.2	242	32	
2025-07-20T12:00	9680	292	-37.7	-40.4	242	32	
2025-07-20T12:00	9700	292	-37.9	-40.7	242	32	
2025-07-20T12:00	9720	291	-38.1	-40.9	242	32	
2025-07-20T12:00	9740	290	-38.3	-40.9	243	32	
2025-07-20T12:00	9760	289	-38.5	-41.4	243	32	
2025-07-20T12:00	9780	288	-38.6	-41.6	242	32	
2025-07-20T12:00	9800	287	-38.8	-41.8	242	32	
2025-07-20T12:00	9820	287	-39.0	-41.9	242	32	
2025-07-20T12:00	9840	286	-39.1	-42.4	242	32	
2025-07-20T12:00	9860	285	-39.3	-42.7	242	32	
2025-07-20T12:00	9880	284	-39.4	-43.1	242	33	
2025-07-20T12:00	9900	283	-39.6	-43.6	242	33	
2025-07-20T12:00	9920	282	-39.8	-43.9	242	33	
2025-07-20T12:00	9940	282	-40.0	-43.9	242	34	
2025-07-20T12:00	9960	281	-40.2	-44.1	242	34	
2025-07-20T12:00	9980	280	-40.3	-44.1	242	34	
2025-07-20T12:00	10000	279	-40.5	-44.1	242	34	
2025-07-20T12:00	10018	278	-40.7	-44.2	242	34	
2025-07-20T12:00	10050	277	-40.9	-44.6	241	35	
2025-07-20T12:00	10100	275	-41.2	-44.2	240	35	
2025-07-20T12:00	10150	273	-41.6	-44.6	240	36	
2025-07-20T12:00	10200	271	-41.9	-44.6	240	36	
2025-07-20T12:00	10250	269	-42.3	-44.7	241	37	
2025-07-20T12:00	10300	267	-42.7	-45.3	241	37	
2025-07-20T12:00	10350	265	-43.1	-46.5	240	36	
2025-07-20T12:00	10400	263	-43.6	-48.4	239	36	
2025-07-20T12:00	10450	261	-44.0	-49.2	238	36	
2025-07-20T12:00	10500	259	-44.4	-50.6	239	36	
2025-07-20T12:00	10550	257	-44.8	-51.9	240	36	
2025-07-20T12:00	10600	255	-45.0	-53.2	241	36	
2025-07-20T12:00	10650	253	-45.3	-53.5	241	36	
2025-07-20T12:00	10700	252	-45.7	-53.3	242	36	
2025-07-20T12:00	10750	250	-46.2	-53.4	242	36	
2025-07-20T12:00	10800	248	-46.6	-53.6	243	36	
2025-07-20T12:00	10850	246	-47.1	-53.9	243	36	
2025-07-20T12:00	10900	244	-47.5	-54.2	243	36	
2025-07-20T12:00	10950	242	-47.8	-55.3	243	35	
2025-07-20T12:00	11000	240	-48.2	-55.7	243	35	
2025-07-20T12:00	11050	239	-48.6	-55.7	242	35	
2025-07-20T12:00	11100	237	-49.1	-56.1	242	35	
2025-07-20T12:00	11150	235	-49.5	-56.2	241	35	
2025-07-20T12:00	11200	233	-50.0	-56.3	241	34	
2025-07-20T12:00	11250	231	-50.4	-56.3	240	34	
2025-07-20T12:00	11300	230	-50.7	-57.4	240	34	
2025-07-20T12:00	11350	228	-51.1	-57.9	239	34	
2025-07-20T12:00	11400	226	-51.5	-58.1	240	34	
2025-07-20T12:00	11450	224	-51.7	-59.3	241	35	
2025-07-20T12:00	11500	223	-52.0	-60.0	241	35	
2025-07-20T12:00	11550	221	-52.3	-60.5	242	35	
2025-07-20T12:00	11600	219	-52.5	-58.6	242	34	
2025-07-20T12:00	11650	218	-52.9	-57.6	241	35	
2025-07-20T12:00	11700	216	-53.3	-58.0	241	35	
2025-07-20T12:00	11750	214	-53.7	-58.3	240	35	
2025-07-20T12:00	11800	213	-54.2	-58.2	240	35	
2025-07-20T12:00	11850	211	-54.6	-58.7	239	35	
2025-07-20T12:00	11900	209	-55.1	-58.8	238	35	
2025-07-20T12:00	11950	208	-55.5	-58.9	237	35	
2025-07-20T12:00	12000	206	-56.0	-59.1	237	35	
2025-07-20T12:00	12050	204	-56.4	-59.4	236	35	
2025-07-20T12:00	12100	203	-56.9	-59.6	236	35	
2025-07-20T12:00	12150	201	-57.3	-59.7	236	35	
2025-07-20T12:00	12200	200	-57.7	-60.3	235	35	
2025-07-20T12:00	12250	198	-58.0	-61.2	234	36	
2025-07-20T12:00	12300	196	-58.3	-61.4	234	36	
2025-07-20T12:00	12350	195	-58.7	-61.4	235	37	
2025-07-20T12:00	12400	193	-59.2	-61.5	235	38	
2025-07-20T12:00	12450	192	-59.3	-62.1	236	39	
2025-07-20T12:00	12500	190	-59.2	-63.7	239	39	
2025-07-20T12:00	12550	189	-59.1	-65.3	242	39	
2025-07-20T12:00	12600	187	-59.0	-66.7	244	40	
2025-07-20T12:00	12650	186	-59.0	-68.6	245	40	
2025-07-20T12:00	12700	184	-59.3	-69.8	246	40	
2025-07-20T12:00	12750	183	-59.6	-70.7	246	39	
2025-07-20T12:00	12800	181	-59.7	-72.5	246	38	
2025-07-20T12:00	12850	180	-59.9	-74.1	246	36	
2025-07-20T12:00	12900	178	-60.0	-74.6	246	35	
2025-07-20T12:00	12950	177	-60.2	-74.9	246	34	
2025-07-20T12:00	13000	176	-60.4	-74.8	246	33	
2025-07-20T12:00	13050	174	-60.7	-74.9	246	32	
2025-07-20T12:00	13100	173	-60.9	-75.4	246	31	
2025-07-20T12:00	13150	171	-60.9	-76.3	244	30	
2025-07-20T12:00	13200	170	-60.9	-76.9	244	31	
2025-07-20T12:00	13250	169	-61.0	-77.1	244	32	
2025-07-20T12:00	13300	167	-60.8	-77.0	246	33	
2025-07-20T12:00	13350	166	-60.1	-77.2	249	31	
2025-07-20T12:00	13400	165	-58.7	-78.2	250	28	
2025-07-20T12:00	13450	163	-57.6	-79.9	249	24	
2025-07-20T12:00	13500	162	-57.1	-81.0	246	22	
2025-07-20T12:00	13550	161	-56.7	-81.5	244	20	
2025-07-20T12:00	13600	160	-56.5	-81.8	242	20	
2025-07-20T12:00	13650	158	-56.5	-82.1	243	21	
2025-07-20T12:00	13700	157	-56.7	-82.3	244	22	
2025-07-20T12:00	13750	156	-56.8	-82.4	244	22	
2025-07-20T12:00	13800	155	-56.7	-82.5	242	21	
2025-07-20T12:00	13850	153	-56.7	-82.6	239	21	
2025-07-20T12:00	13900	152	-56.6	-82.7	239	21	
2025-07-20T12:00	13950	151	-56.4	-82.8	238	22	
2025-07-20T12:00	14000	150	-56.2	-82.9	238	24	
2025-07-20T12:00	14050	149	-55.9	-82.7	239	25	
2025-07-20T12:00	14100	148	-55.8	-82.8	240	25	
2025-07-20T12:00	14150	146	-55.5	-82.8	242	24	
2025-07-20T12:00	14200	145	-55.2	-83.0	243	22	
2025-07-20T12:00	14250	144	-54.9	-82.9	245	19	
2025-07-20T12:00	14300	143	-54.9	-82.8	245	17	
2025-07-20T12:00	14350	142	-55.1	-82.8	242	16	
2025-07-20T12:00	14400	141	-55.2	-82.9	237	15	
2025-07-20T12:00	14450	140	-55.2	-82.9	232	15	
2025-07-20T12:00	14500	139	-55.1	-83.1	231	16	
2025-07-20T12:00	14550	137	-55.0	-83.1	232	16	
2025-07-20T12:00	14600	136	-55.2	-83.1	232	17	
2025-07-20T12:00	14650	135	-55.6	-83.2	233	17	
2025-07-20T12:00	14700	134	-56.0	-83.3	235	18	
2025-07-20T12:00	14750	133	-55.9	-83.5	237	17	
2025-07-20T12:00	14800	132	-55.4	-83.5	234	17	
2025-07-20T12:00	14850	131	-55.1	-83.5	232	17	
2025-07-20T12:00	14900	130	-55.2	-83.6	234	18	
2025-07-20T12:00	14950	129	-54.7	-83.5	238	17	
2025-07-20T12:00	15000	128	-54.1	-83.5	236	16	
2025-07-20T12:00	15050	127	-53.7	-83.2	232	15	
2025-07-20T12:00	15100	126	-54.0	-83.2	226	15	
2025-07-20T12:00	15150	125	-54.1	-83.2	220	16	
2025-07-20T12:00	15200	124	-54.1	-83.2	219	17	
2025-07-20T12:00	15250	123	-54.1	-83.3	220	18	
2025-07-20T12:00	15300	122	-53.8	-83.1	222	18	
2025-07-20T12:00	15350	121	-53.8	-83.0	224	16	
2025-07-20T12:00	15400	120	-54.0	-83.0	227	15	
2025-07-20T12:00	15450	119	-54.2	-83.0	230	15	
2025-07-20T12:00	15500	118	-54.5	-83.0	234	14	
2025-07-20T12:00	15550	118	-54.7	-83.1	239	14	
2025-07-20T12:00	15600	117	-54.9	-83.3	243	13	
2025-07-20T12:00	15650	116	-54.8	-83.4	243	12	
2025-07-20T12:00	15700	115	-54.7	-83.5	238	11	
2025-07-20T12:00	15750	114	-54.8	-83.5	233	11	
2025-07-20T12:00	15800	113	-55.2	-83.5	230	11	
2025-07-20T12:00	15850	112	-55.6	-83.6	227	12	
2025-07-20T12:00	15900	111	-56.0	-83.7	224	13	
2025-07-20T12:00	15950	110	-56.2	-83.9	221	15	
2025-07-20T12:00	16000	110	-56.4	-84.1	219	17	
2025-07-20T12:00	16050	109	-56.5	-84.4	221	18	
2025-07-20T12:00	16100	108	-56.1	-84.5	224	18	
2025-07-20T12:00	16150	107	-55.5	-84.4	229	17	
2025-07-20T12:00	16200	106	-55.4	-84.3	233	17	
2025-07-20T12:00	16250	105	-55.3	-84.3	237	16	
2025-07-20T12:00	16300	104	-54.8	-84.1	240	15	
2025-07-20T12:00	16350	104	-54.6	-84.1	243	14	
2025-07-20T12:00	16400	103	-54.8	-84.0	245	13	
2025-07-20T12:00	16450	102	-54.9	-84.0	248	13	
2025-07-20T12:00	16500	101	-55.0	-84.1	246	11	
2025-07-20T12:00	16550	100	-55.1	-84.2	238	10	
2025-07-20T12:00	16600	100	-54.9	-84.1	228	9	
2025-07-20T12:00	16650	99	-54.8	-84.0	215	8	
2025-07-20T12:00	16700	98	-55.0	-83.9	200	7	
2025-07-20T12:00	16750	97	-55.3	-83.9	185	7	
2025-07-20T12:00	16800	97	-55.6	-84.0	173	8	
2025-07-20T12:00	16850	96	-56.0	-84.1	168	9	
2025-07-20T12:00	16900	95	-56.0	-84.2	171	10	
2025-07-20T12:00	16950	94	-56.1	-84.4	180	10	
2025-07-20T12:00	17000	94	-55.5	-84.7	192	9	
2025-07-20T12:00	17050	93	-55.0	-84.7	199	9	
2025-07-20T12:00	17100	92	-55.2	-84.6	202	10	
2025-07-20T12:00	17150	91	-55.6	-84.5	206	10	
2025-07-20T12:00	17200	91	-56.0	-84.6	210	10	
2025-07-20T12:00	17250	90	-56.4	-84.7	211	10	
2025-07-20T12:00	17300	89	-56.8	-84.9	212	11	
2025-07-20T12:00	17350	89	-57.1	-85.1	215	11	
2025-07-20T12:00	17400	88	-57.3	-85.2	219	11	
2025-07-20T12:00	17450	87	-57.5	-85.3	224	11	
2025-07-20T12:00	17500	87	-57.7	-85.3	229	10	
2025-07-20T12:00	17550	86	-57.7	-85.5	233	9	
2025-07-20T12:00	17600	85	-57.4	-85.6	237	7	
2025-07-20T12:00	17650	85	-57.3	-85.6	239	6	
2025-07-20T12:00	17700	84	-57.1	-85.6	241	6	
2025-07-20T12:00	17750	83	-56.9	-85.7	246	6	
2025-07-20T12:00	17800	83	-56.3	-85.6	249	6	
2025-07-20T12:00	17850	82	-55.9	-85.4	251	7	
2025-07-20T12:00	17900	81	-55.9	-85.4	251	6	
2025-07-20T12:00	17950	81	-56.1	-85.4	248	5	
2025-07-20T12:00	18000	80	-56.1	-85.3	234	4	
2025-07-20T12:00	18050	79	-56.1	-85.5	213	4	
2025-07-20T12:00	18100	79	-55.2	-85.2	200	3	
2025-07-20T12:00	18150	78	-55.3	-85.2	192	3	
2025-07-20T12:00	18200	78	-55.4	-85.3	181	4	
2025-07-20T12:00	18250	77	-55.3	-85.2	173	5	
2025-07-20T12:00	18300	76	-55.4	-85.1	172	6	
2025-07-20T12:00	18350	76	-55.8	-85.1	172	7	
2025-07-20T12:00	18400	75	-56.2	-85.2	173	7	
2025-07-20T12:00	18450	75	-56.6	-85.3	171	8	
2025-07-20T12:00	18500	74	-56.7	-85.5	167	7	
2025-07-20T12:00	18550	73	-56.4	-85.6	164	7	
2025-07-20T12:00	18600	73	-56.2	-85.7	165	6	
2025-07-20T12:00	18650	72	-55.8	-85.5	163	6	
2025-07-20T12:00	18700	72	-55.6	-85.5	161	7	
2025-07-20T12:00	18750	71	-55.6	-85.5	164	7	
2025-07-20T12:00	18800	71	-55.4	-85.5	169	9	
2025-07-20T12:00	18850	70	-55.2	-85.3	172	10	
2025-07-20T12:00	18900	69	-55.2	-85.3	175	12	
2025-07-20T12:00	18950	69	-55.4	-85.4	181	12	
2025-07-20T12:00	19000	68	-55.3	-85.3	188	12	
2025-07-20T12:00	19050	68	-55.4	-85.3	195	11	
2025-07-20T12:00	19100	67	-55.2	-85.3	198	9	
2025-07-20T12:00	19150	67	-54.8	-85.2	200	8	
2025-07-20T12:00	19200	66	-54.9	-85.3	201	7	
2025-07-20T12:00	19250	66	-55.0	-85.2	199	6	
2025-07-20T12:00	19300	65	-55.1	-85.2	188	5	
2025-07-20T12:00	19350	65	-55.3	-85.3	181	5	
2025-07-20T12:00	19400	64	-55.2	-85.4	186	5	
2025-07-20T12:00	19450	64	-54.8	-85.3	199	5	
2025-07-20T12:00	19500	63	-54.5	-85.2	209	5	
2025-07-20T12:00	19550	63	-54.4	-85.3	204	4	
2025-07-20T12:00	19600	62	-54.1	-85.0	185	3	
2025-07-20T12:00	19650	62	-54.3	-85.0	171	3	
2025-07-20T12:00	19700	61	-54.3	-85.1	173	3	
2025-07-20T12:00	19750	61	-54.2	-85.1	183	3	
2025-07-20T12:00	19800	60	-54.0	-85.0	184	2	
2025-07-20T12:00	19850	60	-53.9	-85.0	177	2	
2025-07-20T12:00	19900	59	-53.9	-84.9	180	1	
2025-07-20T12:00	19950	59	-53.9	-84.9	180	1	
2025-07-20T12:00	20000	58	-54.1	-85.0	137	1	
2025-07-20T12:00	20050	58	-53.7		140	3	
2025-07-20T12:00	20100	58	-53.4		151	5	
2025-07-20T12:00	20150	57	-53.1		160	5	
2025-07-20T12:00	20200	57	-52.6		160	3	
2025-07-20T12:00	20250	56	-52.4		136	2	
2025-07-20T12:00	20300	56	-52.0		86	2	
2025-07-20T12:00	20350	55	-51.9		69	2	
2025-07-20T12:00	20400	55	-51.9		70	3	
2025-07-20T12:00	20450	55	-51.6		80	2	
2025-07-20T12:00	20500	54	-51.7		92	3	
2025-07-20T12:00	20550	54	-52.0		107	3	
2025-07-20T12:00	20600	53	-52.2		127	3	
2025-07-20T12:00	20650	53	-52.3		142	4	
2025-07-20T12:00	20700	52	-52.1		146	5	
2025-07-20T12:00	20750	52	-51.9		146	6	
2025-07-20T12:00	20800	52	-51.9		148	6	
2025-07-20T12:00	20850	51	-52.1		151	6	
2025-07-20T12:00	20900	51	-52.4		156	6	
2025-07-20T12:00	20950	50	-52.7		157	5	
2025-07-20T12:00	21000	50	-52.6		145	4	
2025-07-20T12:00	21050	50	-52.3		125	4	
2025-07-20T12:00	21100	49	-52.3		110	5	
2025-07-20T12:00	21150	49	-52.1		104	6	
2025-07-20T12:00	21200	49	-52.0		104	7	
2025-07-20T12:00	21250	48	-52.1		107	7	
2025-07-20T12:00	21300	48	-52.2		112	7	
2025-07-20T12:00	21350	47	-52.3		119	7	
2025-07-20T12:00	21400	47	-52.2		128	7	
2025-07-20T12:00	21450	47	-51.9		138	7	
2025-07-20T12:00	21500	46	-52.0		149	7	
2025-07-20T12:00	21550	46	-52.2		156	7	
2025-07-20T12:00	21600	46	-52.1		157	7	
2025-07-20T12:00	21650	45	-52.1		153	6	
2025-07-20T12:00	21700	45	-52.2		145	6	
2025-07-20T12:00	21750	45	-52.2		135	5	
2025-07-20T12:00	21800	44	-52.1		126	5	
2025-07-20T12:00	21850	44	-51.9		120	6	
2025-07-20T12:00	21900	44	-51.9		120	6	
2025-07-20T12:00	21950	43	-51.6		126	7	
2025-07-20T12:00	22000	43	-51.4		130	7	
2025-07-20T12:00	22050	43	-51.5		130	6	
2025-07-20T12:00	22100	42	-51.4		124	5	
2025-07-20T12:00	22150	42	-51.5		115	5	
2025-07-20T12:00	22200	42	-51.4		106	5	
2025-07-20T12:00	22250	41	-51.0		101	6	
2025-07-20T12:00	22300	41	-50.9		103	7	
2025-07-20T12:00	22350	41	-51.0		106	8	
2025-07-20T12:00	22400	40	-51.2		109	9	
2025-07-20T12:00	22450	40	-51.2		114	9	
2025-07-20T12:00	22500	40	-51.2		119	9	
2025-07-20T12:00	22550	39	-51.4		127	8	
2025-07-20T12:00	22600	39	-51.4		135	8	
2025-07-20T12:00	22650	39	-51.4		140	7	
2025-07-20T12:00	22700	39	-51.2		144	6	
2025-07-20T12:00	22750	38	-51.4		148	4	
2025-07-20T12:00	22800	38	-51.6		146	3	
2025-07-20T12:00	22850	38	-51.7		121	3	
2025-07-20T12:00	22900	37	-51.7		86	3	
2025-07-20T12:00	22950	37	-51.6		72	5	
2025-07-20T12:00	23000	37	-51.5		71	6	
2025-07-20T12:00	23050	37	-51.6		73	8	
2025-07-20T12:00	23100	36	-51.9		77	8	
2025-07-20T12:00	23150	36	-51.9		84	9	
2025-07-20T12:00	23200	36	-51.7		93	9	
2025-07-20T12:00	23250	35	-51.9		103	9	
2025-07-20T12:00	23300	35	-51.8		110	9	
2025-07-20T12:00	23350	35	-51.6		116	9	
2025-07-20T12:00	23400	35	-51.2		124	8	
2025-07-20T12:00	23450	34	-50.9		134	8	
2025-07-20T12:00	23500	34	-50.8		140	8	
2025-07-20T12:00	23550	34	-50.9		137	8	
2025-07-20T12:00	23600	34	-51.0		127	8	
2025-07-20T12:00	23650	33	-50.8		117	8	
2025-07-20T12:00	23700	33	-50.6		110	9	
2025-07-20T12:00	23750	33	-50.6		107	10	
2025-07-20T12:00	23800	33	-50.8		106	11	
2025-07-20T12:00	23850	32	-50.9		106	11	
2025-07-20T12:00	23900	32	-51.1		107	11	
2025-07-20T12:00	23950	32	-51.3		111	11	
2025-07-20T12:00	24000	32	-51.4		116	10	
2025-07-20T12:00	24050	31	-51.4		123	9	
2025-07-20T12:00	24100	31	-51.3		128	9	
2025-07-20T12:00	24150	31	-51.4		130	9	
2025-07-20T12:00	24200	31	-51.3		127	9	
2025-07-20T12:00	24250	30	-51.1		122	10	
2025-07-20T12:00	24300	30	-50.9		117	10	
2025-07-20T12:00	24350	30	-50.8		115	10	
2025-07-20T12:00	24400	30	-50.7		115	10	
2025-07-20T12:00	24450	29	-50.7		119	10	
2025-07-20T12:00	24500	29	-50.7		126	10	
2025-07-20T12:00	24550	29	-50.9		133	10	
2025-07-20T12:00	24600	29	-51.1		137	9	
2025-07-20T12:00	24650	29	-51.0		139	8	
2025-07-20T12:00	24700	28	-50.8		139	6	
2025-07-20T12:00	24750	28	-50.7		134	5	
2025-07-20T12:00	24800	28	-50.7		123	5	
2025-07-20T12:00	24850	28	-50.5		115	6	
2025-07-20T12:00	24900	27	-50.3		112	7	
2025-07-20T12:00	24950	27	-50.2		109	7	
2025-07-20T12:00	25000	27	-49.9		104	6	
2025-07-20T12:00	25050	27	-49.6		101	6	
2025-07-20T12:00	25100	27	-49.3		105	6	
2025-07-20T12:00	25150	26	-49.5		108	8	
2025-07-20T12:00	25200	26	-49.6		109	9	
2025-07-20T12:00	25250	26	-49.4		108	9	
2025-07-20T12:00	25300	26	-49.1		108	8	
2025-07-20T12:00	25350	26	-48.9		108	7	
2025-07-20T12:00	25400	25	-48.9		105	7	
2025-07-20T12:00	25450	25	-49.1		98	7	
2025-07-20T12:00	25500	25	-49.0		90	7	
2025-07-20T12:00	25550	25	-48.7		89	8	
2025-07-20T12:00	25600	25	-48.5		92	9	
2025-07-20T12:00	25650	24	-48.6		94	10	
2025-07-20T12:00	25700	24	-48.7		95	9	
2025-07-20T12:00	25750	24	-48.5		96	8	
2025-07-20T12:00	25800	24	-48.4		99	8	
2025-07-20T12:00	25850	24	-48.3		101	7	
2025-07-20T12:00	25900	24	-48.4		103	8	
2025-07-20T12:00	25950	23	-48.4		105	9	
2025-07-20T12:00	26000	23	-48.4		109	10	
2025-07-20T12:00	26050	23	-48.5		114	11	
2025-07-20T12:00	26100	23	-48.3		119	11	
2025-07-20T12:00	26150	23	-48.4		124	11	
2025-07-20T12:00	26200	23	-48.4		126	11	
2025-07-20T12:00	26250	22	-48.0		126	11	
2025-07-20T12:00	26300	22	-47.8		126	11	
2025-07-20T12:00	26350	22	-47.6		128	10	
2025-07-20T12:00	26400	22	-47.5		130	9	
2025-07-20T12:00	26450	22	-47.2		127	8	
2025-07-20T12:00	26500	22	-46.8		120	7	
2025-07-20T12:00	26550	21	-46.3		114	7	
2025-07-20T12:00	26600	21	-46.3		112	8	
2025-07-20T12:00	26650	21	-46.3		111	8	
2025-07-20T12:00	26700	21	-46.4		111	9	
2025-07-20T12:00	26750	21	-46.5		110	8	
2025-07-20T12:00	26800	21	-46.3		108	7	
2025-07-20T12:00	26850	20	-46.3		103	6	
2025-07-20T12:00	26900	20	-46.4		94	5	
2025-07-20T12:00	26950	20	-46.5		82	4	
2025-07-20T12:00	27000	20	-46.3		73	5	
2025-07-20T12:00	27050	20	-46.2		70	5	
2025-07-20T12:00	27100	20	-46.2		68	6	
2025-07-20T12:00	27150	20	-46.3		64	7	
2025-07-20T12:00	27200	19	-46.5		60	8	
2025-07-20T12:00	27250	19	-46.5		58	9	
2025-07-20T12:00	27300	19	-46.5		59	10	
2025-07-20T12:00	27350	19	-46.6		63	11	
2025-07-20T12:00	27400	19	-46.8		70	11	
2025-07-20T12:00	27450	19	-46.8		78	12	
2025-07-20T12:00	27500	19	-46.7		83	12	
2025-07-20T12:00	27550	18	-46.5		86	12	
2025-07-20T12:00	27600	18	-45.9		88	12	
2025-07-20T12:00	27650	18	-45.5		91	11	
2025-07-20T12:00	27700	18	-45.4		94	11	
2025-07-20T12:00	27750	18	-45.4		96	10	
2025-07-20T12:00	27800	18	-45.3		97	10	
2025-07-20T12:00	27850	18	-45.1		96	11	
2025-07-20T12:00	27900	17	-45.0		92	11	
2025-07-20T12:00	27950	17	-45.1		89	10	
2025-07-20T12:00	28000	17	-44.9		90	10	
2025-07-20T12:00	28050	17	-44.8		94	11	
2025-07-20T12:00	28100	17	-44.6		99	12	
2025-07-20T12:00	28150	17	-44.5		101	13	
2025-07-20T12:00	28200	17	-44.2		100	13	
2025-07-20T12:00	28250	17	-43.9		101	13	
2025-07-20T12:00	28300	16	-43.7		103	13	
2025-07-20T12:00	28350	16	-43.9		104	13	
2025-07-20T12:00	28400	16	-44.0		103	12	
2025-07-20T12:00	28450	16	-44.0		98	11	
2025-07-20T12:00	28500	16	-44.0		92	10	
2025-07-20T12:00	28550	16	-44.0		89	11	
2025-07-20T12:00	28600	16	-43.7		88	11	
2025-07-20T12:00	28650	16	-43.3		86	11	
2025-07-20T12:00	28700	15	-43.3		81	10	
2025-07-20T12:00	28750	15	-43.2		76	10	
2025-07-20T12:00	28800	15	-43.2		73	10	
2025-07-20T12:00	28850	15	-43.2		72	11	
2025-07-20T12:00	28900	15	-43.2		72	12	
2025-07-20T12:00	28950	15	-43.1		72	13	
2025-07-20T12:00	29000	15	-43.1		71	14	
2025-07-20T12:00	29050	15	-43.1		72	15	
2025-07-20T12:00	29100	15	-43.3		74	15	
2025-07-20T12:00	29150	14	-43.5		77	15	
2025-07-20T12:00	29200	14	-43.7		80	14	
2025-07-20T12:00	29250	14	-43.9		83	14	
2025-07-20T12:00	29300	14	-44.2		86	13	
2025-07-20T12:00	29350	14	-44.3		87	12	
2025-07-20T12:00	29400	14	-44.5		85	11	
2025-07-20T12:00	29450	14	-44.5		82	10	
2025-07-20T12:00	29500	14	-44.3		80	9	
2025-07-20T12:00	29550	14	-44.2		80	9	
2025-07-20T12:00	29600	14	-44.2		77	10	
2025-07-20T12:00	29650	13	-44.0		76	10	
2025-07-20T12:00	29700	13	-43.9		77	11	
2025-07-20T12:00	29750	13	-43.9		81	12	
2025-07-20T12:00	29800	13	-43.9		84	14	
2025-07-20T12:00	29850	13	-43.7		87	15	
2025-07-20T12:00	29900	13	-43.5		89	16	
2025-07-20T12:00	29950	13	-43.5		90	16	
2025-07-20T12:00	30000	13	-43.5		91	15	
2025-07-20T12:00	30050	13	-43.4		93	14	
2025-07-20T12:00	30100	13	-43.3		95	13	
2025-07-20T12:00	30150	12	-43.4		96	12	
2025-07-20T12:00	30200	12	-43.5		94	11	
2025-07-20T12:00	30250	12	-43.4		91	11	
2025-07-20T12:00	30300	12	-43.3		89	12	
2025-07-20T12:00	30350	12	-42.9		88	13	
2025-07-20T12:00	30400	12	-42.6		87	14	
2025-07-20T12:00	30450	12	-42.4		86	15	
2025-07-20T12:00	30500	12	-42.2		85	15	
2025-07-20T12:00	30550	12	-42.1		86	14	
2025-07-20T12:00	30600	12	-42.0		87	15	
2025-07-20T12:00	30650	12	-42.0		88	16	
2025-07-20T12:00	30700	11	-42.1		87	17	
2025-07-20T12:00	30750	11	-42.0		87	19	
2025-07-20T12:00	30800	11	-41.6		87	21	
2025-07-20T12:00	30850	11	-41.5		88	22	
2025-07-20T12:00	30900	11	-41.3		90	22	
2025-07-20T12:00	30950	11	-41.3		93	21	
2025-07-20T12:00	31000	11	-41.7		95	20	
2025-07-20T12:00	31050	11	-41.9		96	19	
2025-07-20T12:00	31100	11	-41.8		95	19	
2025-07-20T12:00	31150	11	-41.6		94	19	
2025-07-20T12:00	31200	11	-41.3		93	19	
2025-07-20T12:00	31250	11	-41.2		93	20	
2025-07-20T12:00	31300	11	-41.0		95	20	
2025-07-20T12:00	31350	10	-41.0		96	20	
2025-07-20T12:00	31400	10	-40.9		96	19	
2025-07-20T12:00	31450	10	-41.1		95	19	
2025-07-20T12:00	31500	10	-41.2		93	19	
2025-07-20T12:00	31550	10	-41.2		92	19	
2025-07-20T12:00	31600	10	-41.1		90	19	
2025-07-20T12:00	31650	10	-41.0		90	20	
2025-07-20T12:00	31700	10	-40.8		93	20	
2025-07-20T12:00	31750	10	-40.7		97	20	
2025-07-20T12:00	31800	10	-40.6		99	20	
2025-07-20T12:00	31850	10	-40.6		100	19	
2025-07-20T12:00	31900	10	-40.5		100	18	
2025-07-20T12:00	31950	10	-40.6		98	18	
2025-07-20T12:00	32000	9	-40.6		95	17	
2025-07-20T12:00	32050	9	-40.5		90	17	
2025-07-20T12:00	32100	9	-40.2		87	18	
2025-07-20T12:00	32150	9	-39.9		86	19	
2025-07-20T12:00	32200	9	-39.5		87	20	
2025-07-20T12:00	32250	9	-39.3		91	21	
2025-07-20T12:00	32300	9	-39.4		96	22	
2025-07-20T12:00	32350	9	-39.2		100	23	
2025-07-20T12:00	32400	9	-39.1		104	24	
2025-07-20T12:00	32450	9	-38.8		107	23	
2025-07-20T12:00	32500	9	-38.5		109	22	
2025-07-20T12:00	32550	9	-38.4		109	20	
2025-07-20T12:00	32600	9	-38.1		107	18	
2025-07-20T12:00	32650	9	-37.8		102	17	
2025-07-20T12:00	32700	9	-37.5		96	16	
2025-07-20T12:00	32750	9	-36.9		89	17	
2025-07-20T12:00	32800	8	-36.2		85	18	
2025-07-20T12:00	32850	8	-35.7		85	19	
2025-07-20T12:00	32900	8	-35.3		88	20	
2025-07-20T12:00	32950	8	-35.1		90	20	
2025-07-20T12:00	33000	8	-34.9		91	20	
2025-07-20T12:00	33050	8	-34.8		89	20	
2025-07-20T12:00	33100	8	-34.8		86	20	
2025-07-20T12:00	33150	8	-34.7		84	21	
2025-07-20T12:00	33200	8	-34.3		85	22	
2025-07-20T12:00	33250	8	-34.1		87	23	
2025-07-20T12:00	33300	8	-33.9		91	23	
2025-07-20T12:00	33350	8	-33.8		95	24	
2025-07-20T12:00	33400	8	-33.7		98	24	
2025-07-20T12:00	33450	8	-33.6		100	23	
2025-07-20T12:00	33500	8	-33.6		101	22	
2025-07-20T12:00	33550	8	-33.8		102	20	
2025-07-20T12:00	33600	8	-33.9		104	18	
2025-07-20T12:00	33650	7	-33.6		103	17	
2025-07-20T12:00	33700	7	-33.3		100	15	
2025-07-20T12:00	33750	7	-33.0		94	15	
2025-07-20T12:00	33800	7	-32.8		89	14	
2025-07-20T12:00	33850	7	-32.7		87	14	
2025-07-20T12:00	33900	7	-32.8		86	13	
2025-07-20T12:00	33950	7	-33.0		84	13	
2025-07-20T12:00	34000	7	-33.2		80	13	
2025-07-20T12:00	34050	7	-33.2		75	14	
2025-07-20T12:00	34100	7	-33.1		73	16	
2025-07-20T12:00	34150	7	-32.9		74	17	
2025-07-20T12:00	34200	7	-32.8		76	18	
2025-07-20T12:00	34250	7	-32.5		78	19	
2025-07-20T12:00	34300	7	-32.3		80	20	
2025-07-20T12:00	34350	7	-32.2		82	21	
2025-07-20T12:00	34400	7	-32.1		84	22	
2025-07-20T12:00	34450	7	-32.1		86	23	
2025-07-20T12:00	34500	7	-31.9		87	23	
2025-07-20T12:00	34550	7	-31.8		87	23	
2025-07-20T12:00	34600	7	-31.9		88	23	
2025-07-20T12:00	34650	6	-31.9		89	23	
2025-07-20T12:00	34700	6	-32.0		90	23	
2025-07-20T12:00	34750	6	-31.9		91	23	
2025-07-20T12:00	34800	6	-31.9		94	22	
2025-07-20T12:00	34850	6	-31.9		96	21	
2025-07-20T12:00	34900	6	-32.1		99	21	
2025-07-20T12:00	34950	6	-32.3		102	20	
2025-07-20T12:00	35000	6	-32.5		103	19	
2025-07-20T12:00	35050	6	-32.6		103	19	
2025-07-20T12:00	35100	6	-32.3		102	18	
2025-07-20T12:00	35150	6	-32.0		100	18	
2025-07-20T12:00	35200	6	-31.7		99	18	
2025-07-20T12:00	35250	6	-31.4		97	18	
2025-07-20T12:00	35300	6	-30.9		94	17	
2025-07-20T12:00	35350	6	-30.3		89	16	
2025-07-20T12:00	35400	6	-29.8		87	17	
2025-07-20T12:00	35450	6	-29.1		88	18	
2025-07-20T12:00	35500	6	-28.5		91	19	
2025-07-20T12:00	35550	6	-28.3		92	19	
2025-07-20T12:00	35600	6	-28.1		90	19	
2025-07-20T12:00	35650	6	-27.7		88	19	
2025-07-20T12:00	35700	6	-27.4		88	20	
2025-07-20T12:00	35750	6	-27.3		90	20	
2025-07-20T12:00	35800	6	-27.2		93	21	
2025-07-20T12:00	35850	5	-27.1		95	21	
2025-07-20T12:00	35900	5	-27.0		96	20	
2025-07-20T12:00	35950	5	-27.2		96	19	
2025-07-20T12:00	36000	5	-27.4		96	18	
2025-07-20T12:00	36050	5	-27.6		96	18	
2025-07-20T12:00	36100	5	-27.9		95	17	
2025-07-20T12:00	36150	5	-28.1		94	17	
2025-07-20T12:00	36200	5	-28.2		93	17	
2025-07-20T12:00	36250	5	-28.1		92	18	
2025-07-20T12:00	36300	5	-28.0		92	19	
2025-07-20T12:00	36350	5	-27.9		91	19	
2025-07-20T12:00	36400	5	-27.8		89	20	
2025-07-20T12:00	36450	5	-27.7		89	20	
2025-07-20T12:00	36500	5	-27.6		89	20	
2025-07-20T12:00	36550	5	-27.4		91	22	
2025-07-20T12:00	36600	5	-27.1		94	23	
2025-07-20T12:00	36650	5	-27.1		97	23	
2025-07-20T12:00	36700	5	-27.1		100	24	
2025-07-20T12:00	36750	5	-27.2		104	24	
2025-07-20T12:00	36800	5	-27.3		107	24	
2025-07-20T12:00	36850	5	-27.4		108	24	
2025-07-20T12:00	36900	5	-27.2		107	23	
2025-07-21T00:00	491	954	17.7	16.0	227	1	
2025-07-21T00:00	520	951	17.3	15.4	288	1	
2025-07-21T00:00	540	949	17.2	15.2	286	1	
2025-07-21T00:00	560	947	17.0	15.0	281	2	
2025-07-21T00:00	580	944	16.8	15.0	277	3	
2025-07-21T00:00	600	942	16.7	14.9	275	3	
2025-07-21T00:00	620	940	16.5	14.8	274	4	
2025-07-21T00:00	640	938	16.4	14.6	275	5	
2025-07-21T00:00	660	936	16.3	14.4	276	5	
2025-07-21T00:00	680	933	16.2	14.1	276	5	
2025-07-21T00:00	700	931	16.1	14.0	275	6	
2025-07-21T00:00	720	929	15.9	14.0	274	6	
2025-07-21T00:00	740	927	15.8	14.1	273	6	
2025-07-21T00:00	760	925	15.7	14.4	271	6	
2025-07-21T00:00	780	923	15.5	14.4	270	6	
2025-07-21T00:00	800	920	15.3	14.4	267	5	
2025-07-21T00:00	820	918	15.2	14.5	265	5	
2025-07-21T00:00	840	916	15.1	14.4	262	5	
2025-07-21T00:00	860	914	15.0	14.4	258	4	
2025-07-21T00:00	880	912	15.1	14.4	252	4	
2025-07-21T00:00	900	909	14.9	14.3	244	3	
2025-07-21T00:00	920	907	14.7	14.2	237	3	
2025-07-21T00:00	940	905	14.6	14.1	231	3	
2025-07-21T00:00	960	903	14.5	13.9	227	3	
2025-07-21T00:00	980	901	14.4	13.8	226	3	
2025-07-21T00:00	1000	899	14.3	14.1	226	4	
2025-07-21T00:00	1020	897	14.2	14.2	228	4	
2025-07-21T00:00	1040	895	14.1	14.1	231	4	
2025-07-21T00:00	1060	892	14.1	14.1	233	4	
2025-07-21T00:00	1080	890	14.1	14.1	234	4	
2025-07-21T00:00	1100	888	14.0	14.0	233	4	
2025-07-21T00:00	1120	886	13.9	13.9	232	4	
2025-07-21T00:00	1140	884	13.8	13.8	229	5	
2025-07-21T00:00	1160	882	13.7	13.7	226	5	
2025-07-21T00:00	1180	880	13.6	13.6	225	6	
2025-07-21T00:00	1200	878	13.5	13.5	225	6	
2025-07-21T00:00	1220	876	13.4	13.4	226	7	
2025-07-21T00:00	1240	874	13.4	13.4	226	7	
2025-07-21T00:00	1260	872	13.3	13.3	225	7	
2025-07-21T00:00	1280	870	13.2	13.2	224	7	
2025-07-21T00:00	1300	868	13.1	13.1	225	7	
2025-07-21T00:00	1320	866	13.1	13.1	229	6	
2025-07-21T00:00	1340	864	12.8	12.8	237	6	
2025-07-21T00:00	1360	862	12.5	12.5	246	7	
2025-07-21T00:00	1380	859	12.4	12.4	254	7	
2025-07-21T00:00	1400	857	12.1	12.1	259	7	
2025-07-21T00:00	1420	855	12.1	12.1	260	8	
2025-07-21T00:00	1440	853	12.0	12.0	259	7	
2025-07-21T00:00	1460	851	12.0	12.0	256	7	
2025-07-21T00:00	1480	849	11.9	11.9	254	7	
2025-07-21T00:00	1500	847	11.7	11.7	251	7	
2025-07-21T00:00	1520	845	11.4	11.4	250	7	
2025-07-21T00:00	1540	843	11.3	11.2	252	7	
2025-07-21T00:00	1560	841	10.9	10.4	255	7	
2025-07-21T00:00	1580	839	10.8	10.7	257	7	
2025-07-21T00:00	1600	837	10.6	10.5	258	7	
2025-07-21T00:00	1620	835	10.6	10.2	258	7	
2025-07-21T00:00	1640	833	10.5	10.3	257	7	
2025-07-21T00:00	1660	831	10.3	10.1	254	7	
2025-07-21T00:00	1680	829	10.2	10.2	249	6	
2025-07-21T00:00	1700	827	10.2	10.2	242	7	
2025-07-21T00:00	1720	825	10.2	10.2	238	8	
2025-07-21T00:00	1740	823	10.1	9.5	241	9	
2025-07-21T00:00	1760	821	10.1	10.0	247	9	
2025-07-21T00:00	1780	819	9.9	9.9	250	9	
2025-07-21T00:00	1800	817	9.8	9.7	250	8	
2025-07-21T00:00	1820	815	9.7	8.9	247	8	
2025-07-21T00:00	1840	813	9.7	8.7	243	8	
2025-07-21T00:00	1860	811	9.5	8.6	241	8	
2025-07-21T00:00	1880	810	9.4	8.5	243	8	
2025-07-21T00:00	1900	808	9.2	8.5	245	8	
2025-07-21T00:00	1920	806	9.0	8.5	247	8	
2025-07-21T00:00	1940	804	8.9	8.5	246	8	
2025-07-21T00:00	1960	802	8.7	8.5	245	9	
2025-07-21T00:00	1980	800	8.7	8.5	247	9	
2025-07-21T00:00	2000	798	8.6	8.6	249	9	
2025-07-21T00:00	2020	796	8.5	8.4	251	9	
2025-07-21T00:00	2040	794	8.3	8.2	253	8	
2025-07-21T00:00	2060	792	8.2	8.2	253	8	
2025-07-21T00:00	2080	790	8.1	8.1	251	7	
2025-07-21T00:00	2100	788	8.0	8.0	247	7	
2025-07-21T00:00	2120	786	8.0	8.0	242	7	
2025-07-21T00:00	2140	784	7.9	7.9	238	7	
2025-07-21T00:00	2160	783	7.9	7.9	235	7	
2025-07-21T00:00	2180	781	7.8	7.8	236	8	
2025-07-21T00:00	2200	779	7.7	7.7	239	8	
2025-07-21T00:00	2220	777	7.5	7.5	242	9	
2025-07-21T00:00	2240	775	7.2	7.2	245	9	
2025-07-21T00:00	2260	773	7.1	7.1	246	10	
2025-07-21T00:00	2280	771	7.0	7.0	246	11	
2025-07-21T00:00	2300	769	6.9	6.9	246	11	
2025-07-21T00:00	2320	767	6.8	6.8	246	11	
2025-07-21T00:00	2340	766	6.7	6.7	245	11	
2025-07-21T00:00	2360	764	6.6	6.6	244	10	
2025-07-21T00:00	2380	762	6.5	6.5	241	10	
2025-07-21T00:00	2400	760	6.4	6.4	239	11	
2025-07-21T00:00	2420	758	6.3	6.3	237	11	
2025-07-21T00:00	2440	757	6.1	6.1	234	11	
2025-07-21T00:00	2460	755	5.9	5.9	232	12	
2025-07-21T00:00	2480	753	5.9	5.9	230	13	
2025-07-21T00:00	2500	751	5.8	5.8	228	13	
2025-07-21T00:00	2520	749	5.7	5.7	227	13	
2025-07-21T00:00	2540	747	5.6	5.6	227	14	
2025-07-21T00:00	2560	745	5.5	5.5	228	14	
2025-07-21T00:00	2580	744	5.4	5.4	230	14	
2025-07-21T00:00	2600	742	5.3	5.3	232	14	
2025-07-21T00:00	2620	740	5.2	5.2	235	13	
2025-07-21T00:00	2640	738	5.1	5.1	237	13	
2025-07-21T00:00	2660	736	4.9	4.9	239	13	
2025-07-21T00:00	2680	735	4.9	4.9	241	13	
2025-07-21T00:00	2700	733	4.8	4.8	242	13	
2025-07-21T00:00	2720	731	4.6	4.6	243	13	
2025-07-21T00:00	2740	729	4.5	4.5	243	13	
2025-07-21T00:00	2760	727	4.4	4.4	244	13	
2025-07-21T00:00	2780	726	4.3	4.3	245	12	
2025-07-21T00:00	2800	724	4.2	4.2	246	12	
2025-07-21T00:00	2820	722	4.1	4.1	248	11	
2025-07-21T00:00	2840	720	4.0	4.0	249	11	
2025-07-21T00:00	2860	719	3.9	3.9	251	10	
2025-07-21T00:00	2880	717	3.8	3.8	252	10	
2025-07-21T00:00	2900	715	3.7	3.7	254	10	
2025-07-21T00:00	2920	713	3.6	3.6	254	10	
2025-07-21T00:00	2940	712	3.4	3.4	255	10	
2025-07-21T00:00	2960	710	3.3	3.3	255	10	
2025-07-21T00:00	2980	708	3.3	3.3	255	10	
2025-07-21T00:00	3000	707	3.1	3.1	254	10	
2025-07-21T00:00	3020	705	2.9	2.8	254	10	
2025-07-21T00:00	3040	703	2.6	2.2	254	10	
2025-07-21T00:00	3060	701	2.4	2.2	253	10	
2025-07-21T00:00	3080	700	2.1	1.3	253	10	
2025-07-21T00:00	3100	698	1.9	1.7	253	9	
2025-07-21T00:00	3120	696	1.8	1.8	253	9	
2025-07-21T00:00	3140	694	1.6	1.6	254	9	
2025-07-21T00:00	3160	692	1.4	1.4	254	9	
2025-07-21T00:00	3180	691	1.5	1.5	255	9	
2025-07-21T00:00	3200	689	1.4	1.4	255	10	
2025-07-21T00:00	3220	687	1.4	1.4	255	10	
2025-07-21T00:00	3240	686	1.5	1.5	255	10	
2025-07-21T00:00	3260	684	1.5	1.5	254	11	
2025-07-21T00:00	3280	682	1.4	1.4	253	11	
2025-07-21T00:00	3300	681	1.1	1.1	252	11	
2025-07-21T00:00	3320	679	0.6	0.6	251	12	
2025-07-21T00:00	3340	677	0.6	0.6	249	12	
2025-07-21T00:00	3360	676	0.6	0.6	247	11	
2025-07-21T00:00	3380	674	0.5	0.5	244	10	
2025-07-21T00:00	3400	672	0.5	0.5	242	10	
2025-07-21T00:00	3420	670	0.4	0.4	240	9	
2025-07-21T00:00	3440	669	0.2	0.2	239	9	
2025-07-21T00:00	3460	667	0.1	0.1	238	9	
2025-07-21T00:00	3480	666	0.0	0.0	237	10	
2025-07-21T00:00	3500	664	-0.1	-0.1	237	10	
2025-07-21T00:00	3520	662	-0.2	-0.2	237	11	
2025-07-21T00:00	3540	660	-0.3	-0.3	238	12	
2025-07-21T00:00	3560	659	-0.3	-0.3	239	12	
2025-07-21T00:00	3580	657	-0.4	-0.4	241	12	
2025-07-21T00:00	3600	656	-0.5	-0.5	242	12	
2025-07-21T00:00	3620	654	-0.7	-0.7	243	12	
2025-07-21T00:00	3640	652	-0.7	-0.7	244	12	
2025-07-21T00:00	3660	651	-0.8	-0.8	244	11	
2025-07-21T00:00	3680	649	-0.7	-0.7	244	11	
2025-07-21T00:00	3700	648	-0.8	-0.8	243	11	
2025-07-21T00:00	3720	646	-0.8	-0.8	242	11	
2025-07-21T00:00	3740	644	-1.0	-1.0	241	10	
2025-07-21T00:00	3760	643	-1.1	-1.1	240	10	
2025-07-21T00:00	3780	641	-1.3	-1.3	240	10	
2025-07-21T00:00	3800	640	-1.4	-1.4	239	10	
2025-07-21T00:00	3820	638	-1.5	-1.5	239	10	
2025-07-21T00:00	3840	636	-1.5	-1.5	240	11	
2025-07-21T00:00	3860	635	-1.6	-1.6	241	10	
2025-07-21T00:00	3880	633	-1.9	-1.9	242	10	
2025-07-21T00:00	3900	632	-2.1	-2.1	244	10	
2025-07-21T00:00	3920	630	-2.3	-2.3	246	10	
2025-07-21T00:00	3940	628	-2.3	-2.3	248	10	
2025-07-21T00:00	3960	627	-2.4	-2.4	249	10	
2025-07-21T00:00	3980	625	-2.5	-2.5	250	10	
2025-07-21T00:00	4000	624	-2.4	-2.4	251	10	
2025-07-21T00:00	4020	622	-2.4	-2.4	250	10	
2025-07-21T00:00	4040	620	-2.6	-2.6	250	10	
2025-07-21T00:00	4060	619	-2.8	-2.8	248	10	
2025-07-21T00:00	4080	617	-2.7	-2.7	246	10	
2025-07-21T00:00	4100	616	-2.7	-2.7	243	10	
2025-07-21T00:00	4120	614	-2.8	-2.8	239	10	
2025-07-21T00:00	4140	613	-2.7	-2.9	236	10	
2025-07-21T00:00	4160	611	-2.6	-2.8	233	10	
2025-07-21T00:00	4180	610	-2.7	-2.7	230	10	
2025-07-21T00:00	4200	608	-2.8	-2.8	228	10	
2025-07-21T00:00	4220	606	-2.9	-2.9	225	10	
2025-07-21T00:00	4240	605	-3.0	-3.0	223	10	
2025-07-21T00:00	4260	603	-3.1	-3.1	222	11	
2025-07-21T00:00	4280	602	-3.2	-3.3	223	11	
2025-07-21T00:00	4300	600	-3.4	-3.4	225	11	
2025-07-21T00:00	4320	599	-3.5	-3.5	225	12	
2025-07-21T00:00	4340	597	-3.6	-3.6	226	12	
2025-07-21T00:00	4360	596	-3.7	-3.7	225	13	
2025-07-21T00:00	4380	594	-3.8	-3.8	225	13	
2025-07-21T00:00	4400	593	-3.9	-3.9	225	14	
2025-07-21T00:00	4420	591	-4.0	-4.0	226	14	
2025-07-21T00:00	4440	590	-4.1	-4.1	227	15	
2025-07-21T00:00	4460	588	-4.2	-4.2	227	15	
2025-07-21T00:00	4480	587	-4.3	-4.3	226	15	
2025-07-21T00:00	4500	586	-4.4	-4.5	225	15	
2025-07-21T00:00	4520	584	-4.5	-4.5	224	15	
2025-07-21T00:00	4540	582	-4.6	-4.7	221	15	
2025-07-21T00:00	4560	581	-4.7	-4.9	218	16	
2025-07-21T00:00	4580	580	-4.8	-4.9	214	16	
2025-07-21T00:00	4600	578	-4.9	-5.1	211	17	
2025-07-21T00:00	4620	577	-5.0	-5.2	210	18	
2025-07-21T00:00	4640	575	-5.2	-5.2	209	18	
2025-07-21T00:00	4660	574	-5.2	-5.3	208	19	
2025-07-21T00:00	4680	572	-5.4	-5.5	207	19	
2025-07-21T00:00	4700	571	-5.3	-5.6	206	19	
2025-07-21T00:00	4720	569	-5.4	-5.6	206	19	
2025-07-21T00:00	4740	568	-5.5	-5.8	206	19	
2025-07-21T00:00	4760	566	-5.6	-5.9	206	19	
2025-07-21T00:00	4780	565	-5.7	-6.0	207	19	
2025-07-21T00:00	4800	564	-5.8	-6.1	208	19	
2025-07-21T00:00	4820	562	-5.8	-6.3	209	19	
2025-07-21T00:00	4840	561	-5.9	-6.5	209	19	
2025-07-21T00:00	4860	559	-6.0	-6.6	209	19	
2025-07-21T00:00	4880	558	-6.1	-6.7	209	19	
2025-07-21T00:00	4900	556	-6.2	-6.9	208	19	
2025-07-21T00:00	4920	555	-6.3	-7.0	207	20	
2025-07-21T00:00	4940	554	-6.4	-7.1	206	20	
2025-07-21T00:00	4960	552	-6.5	-7.3	206	20	
2025-07-21T00:00	4980	551	-6.6	-7.4	205	20	
2025-07-21T00:00	5000	549	-6.7	-7.6	204	20	
2025-07-21T00:00	5020	548	-6.8	-7.7	202	20	
2025-07-21T00:00	5040	547	-6.9	-7.8	200	20	
2025-07-21T00:00	5060	545	-7.1	-7.9	200	20	
2025-07-21T00:00	5080	544	-7.2	-8.0	199	20	
2025-07-21T00:00	5100	542	-7.3	-8.1	199	20	
2025-07-21T00:00	5120	541	-7.4	-8.4	199	20	
2025-07-21T00:00	5140	540	-7.5	-8.4	199	20	
2025-07-21T00:00	5160	538	-7.6	-8.5	200	20	
2025-07-21T00:00	5180	537	-7.7	-8.6	200	20	
2025-07-21T00:00	5200	535	-7.9	-8.7	200	20	
2025-07-21T00:00	5220	534	-8.0	-8.8	200	20	
2025-07-21T00:00	5240	533	-8.1	-9.0	200	20	
2025-07-21T00:00	5260	531	-8.2	-9.1	201	20	
2025-07-21T00:00	5280	530	-8.3	-9.3	201	21	
2025-07-21T00:00	5300	529	-8.4	-9.4	201	21	
2025-07-21T00:00	5320	527	-8.5	-9.5	201	21	
2025-07-21T00:00	5340	526	-8.5	-9.7	201	21	
2025-07-21T00:00	5360	525	-8.6	-9.8	201	21	
2025-07-21T00:00	5380	523	-8.7	-9.9	201	21	
2025-07-21T00:00	5400	522	-8.8	-10.0	201	21	
2025-07-21T00:00	5420	521	-8.9	-10.1	200	21	
2025-07-21T00:00	5440	519	-9.1	-10.2	200	21	
2025-07-21T00:00	5460	518	-9.2	-10.3	199	21	
2025-07-21T00:00	5480	516	-9.3	-10.4	200	21	
2025-07-21T00:00	5500	515	-9.4	-10.6	200	20	
2025-07-21T00:00	5520	514	-9.5	-10.7	200	20	
2025-07-21T00:00	5540	512	-9.6	-10.8	199	20	
2025-07-21T00:00	5560	511	-9.7	-10.9	198	20	
2025-07-21T00:00	5580	510	-9.8	-11.0	197	20	
2025-07-21T00:00	5600	508	-9.9	-11.1	197	20	
2025-07-21T00:00	5620	507	-10.1	-11.1	197	20	
2025-07-21T00:00	5640	506	-10.2	-11.3	197	20	
2025-07-21T00:00	5660	505	-10.4	-11.4	198	20	
2025-07-21T00:00	5680	503	-10.5	-11.5	198	20	
2025-07-21T00:00	5700	502	-10.6	-11.6	198	20	
2025-07-21T00:00	5720	501	-10.8	-11.8	198	21	
2025-07-21T00:00	5740	499	-10.9	-11.9	197	21	
2025-07-21T00:00	5760	498	-11.0	-12.0	197	20	
2025-07-21T00:00	5780	497	-11.1	-12.1	197	20	
2025-07-21T00:00	5800	496	-11.2	-12.2	196	20	
2025-07-21T00:00	5820	494	-11.4	-12.4	196	19	
2025-07-21T00:00	5840	493	-11.5	-12.6	197	19	
2025-07-21T00:00	5860	492	-11.6	-12.7	198	19	
2025-07-21T00:00	5880	490	-11.7	-12.9	199	20	
2025-07-21T00:00	5900	489	-11.8	-13.1	200	20	
2025-07-21T00:00	5920	488	-11.9	-13.3	200	20	
2025-07-21T00:00	5940	487	-12.0	-13.2	200	20	
2025-07-21T00:00	5960	485	-12.2	-13.3	200	20	
2025-07-21T00:00	5980	484	-12.4	-13.6	199	20	
2025-07-21T00:00	6000	483	-12.6	-13.8	199	20	
2025-07-21T00:00	6020	481	-12.7	-13.9	199	21	
2025-07-21T00:00	6040	480	-12.8	-14.0	199	21	
2025-07-21T00:00	6060	479	-12.9	-14.1	199	21	
2025-07-21T00:00	6080	478	-13.1	-14.3	198	21	
2025-07-21T00:00	6100	476	-13.2	-14.4	198	21	
2025-07-21T00:00	6120	475	-13.3	-14.6	198	20	
2025-07-21T00:00	6140	474	-13.4	-14.6	197	20	
2025-07-21T00:00	6160	473	-13.5	-14.8	197	20	
2025-07-21T00:00	6180	471	-13.7	-14.8	198	20	
2025-07-21T00:00	6200	470	-13.8	-14.9	198	20	
2025-07-21T00:00	6220	469	-13.9	-15.0	199	20	
2025-07-21T00:00	6240	468	-14.0	-15.1	199	20	
2025-07-21T00:00	6260	467	-14.1	-15.2	199	20	
2025-07-21T00:00	6280	465	-14.2	-15.4	199	20	
2025-07-21T00:00	6300	464	-14.4	-15.6	199	20	
2025-07-21T00:00	6320	463	-14.5	-15.8	199	20	
2025-07-21T00:00	6340	462	-14.6	-15.9	199	20	
2025-07-21T00:00	6360	460	-14.8	-16.0	199	20	
2025-07-21T00:00	6380	459	-14.9	-16.1	199	19	
2025-07-21T00:00	6400	458	-15.0	-16.1	199	19	
2025-07-21T00:00	6420	457	-15.1	-16.3	199	19	
2025-07-21T00:00	6440	455	-15.2	-16.4	199	19	
2025-07-21T00:00	6460	454	-15.4	-16.4	199	19	
2025-07-21T00:00	6480	453	-15.5	-16.4	198	19	
2025-07-21T00:00	6500	452	-15.6	-16.6	198	19	
2025-07-21T00:00	6520	451	-15.7	-16.7	197	18	
2025-07-21T00:00	6540	450	-15.8	-16.9	195	18	
2025-07-21T00:00	6560	448	-15.9	-17.1	194	18	
2025-07-21T00:00	6580	447	-16.1	-17.3	193	19	
2025-07-21T00:00	6600	446	-16.2	-17.4	193	19	
2025-07-21T00:00	6620	445	-16.3	-17.5	193	19	
2025-07-21T00:00	6640	444	-16.4	-17.6	193	19	
2025-07-21T00:00	6660	442	-16.6	-17.8	193	19	
2025-07-21T00:00	6680	441	-16.7	-17.8	193	18	
2025-07-21T00:00	6700	440	-16.7	-17.8	192	18	
2025-07-21T00:00	6720	439	-16.8	-17.9	192	18	
2025-07-21T00:00	6740	438	-16.9	-18.1	191	18	
2025-07-21T00:00	6760	437	-17.1	-18.3	191	18	
2025-07-21T00:00	6780	435	-17.2	-18.4	190	18	
2025-07-21T00:00	6800	434	-17.3	-18.6	189	18	
2025-07-21T00:00	6820	433	-17.4	-18.5	188	18	
2025-07-21T00:00	6840	432	-17.5	-18.7	187	18	
2025-07-21T00:00	6860	431	-17.7	-19.0	187	18	
2025-07-21T00:00	6880	430	-17.8	-19.0	186	19	
2025-07-21T00:00	6900	428	-17.9	-19.1	185	19	
2025-07-21T00:00	6920	427	-18.0	-19.4	185	19	
2025-07-21T00:00	6940	426	-18.2	-19.6	185	19	
2025-07-21T00:00	6960	425	-18.3	-19.7	185	19	
2025-07-21T00:00	6980	424	-18.4	-19.8	185	18	
2025-07-21T00:00	7000	423	-18.5	-20.0	185	19	
2025-07-21T00:00	7020	422	-18.7	-20.2	184	19	
2025-07-21T00:00	7040	420	-18.8	-20.4	185	19	
2025-07-21T00:00	7060	419	-18.9	-20.4	185	20	
2025-07-21T00:00	7080	418	-19.0	-20.5	185	20	
2025-07-21T00:00	7100	417	-19.0	-20.5	186	20	
2025-07-21T00:00	7120	416	-19.1	-20.6	186	21	
2025-07-21T00:00	7140	415	-19.1	-20.6	186	21	
2025-07-21T00:00	7160	414	-19.3	-20.8	186	22	
2025-07-21T00:00	7180	413	-19.4	-21.1	186	22	
2025-07-21T00:00	7200	412	-19.6	-21.3	187	23	
2025-07-21T00:00	7220	410	-19.7	-21.4	187	23	
2025-07-21T00:00	7240	409	-19.9	-21.6	188	23	
2025-07-21T00:00	7260	408	-20.0	-21.7	188	22	
2025-07-21T00:00	7280	407	-20.2	-21.8	187	22	
2025-07-21T00:00	7300	406	-20.3	-22.0	187	22	
2025-07-21T00:00	7320	405	-20.5	-22.1	187	22	
2025-07-21T00:00	7340	404	-20.6	-22.2	187	23	
2025-07-21T00:00	7360	403	-20.8	-22.3	187	23	
2025-07-21T00:00	7380	402	-20.9	-22.4	187	23	
2025-07-21T00:00	7400	401	-21.1	-22.5	187	23	
2025-07-21T00:00	7420	400	-21.2	-22.6	186	23	
2025-07-21T00:00	7440	398	-21.4	-22.8	186	23	
2025-07-21T00:00	7460	397	-21.5	-23.0	186	23	
2025-07-21T00:00	7480	396	-21.7	-23.1	185	23	
2025-07-21T00:00	7500	395	-21.9	-23.2	185	22	
2025-07-21T00:00	7520	394	-22.0	-23.3	185	22	
2025-07-21T00:00	7540	393	-22.1	-23.4	185	23	
2025-07-21T00:00	7560	392	-22.3	-23.6	185	23	
2025-07-21T00:00	7580	391	-22.5	-23.6	185	23	
2025-07-21T00:00	7600	390	-22.6	-23.8	185	24	
2025-07-21T00:00	7620	389	-22.7	-23.9	185	24	
2025-07-21T00:00	7640	388	-22.9	-24.0	186	25	
2025-07-21T00:00	7660	387	-23.0	-24.1	186	25	
2025-07-21T00:00	7680	386	-23.2	-24.1	187	25	
2025-07-21T00:00	7700	385	-23.2	-24.2	187	25	
2025-07-21T00:00	7720	384	-23.4	-24.2	187	25	
2025-07-21T00:00	7740	382	-23.5	-24.3	186	25	
2025-07-21T00:00	7760	381	-23.6	-24.4	186	25	
2025-07-21T00:00	7780	380	-23.8	-24.6	186	25	
2025-07-21T00:00	7800	379	-24.0	-24.8	187	25	
2025-07-21T00:00	7820	378	-24.2	-25.2	187	25	
2025-07-21T00:00	7840	377	-24.3	-25.3	188	25	
2025-07-21T00:00	7860	376	-24.5	-25.3	188	25	
2025-07-21T00:00	7880	375	-24.6	-25.3	188	25	
2025-07-21T00:00	7900	374	-24.7	-25.5	188	25	
2025-07-21T00:00	7920	373	-24.9	-25.7	188	24	
2025-07-21T00:00	7940	372	-25.1	-25.9	188	24	
2025-07-21T00:00	7960	371	-25.3	-26.0	189	24	
2025-07-21T00:00	7980	370	-25.4	-26.3	190	23	
2025-07-21T00:00	8000	369	-25.6	-26.3	191	23	
2025-07-21T00:00	8020	368	-25.7	-26.9	192	24	
2025-07-21T00:00	8040	367	-25.8	-27.2	193	24	
2025-07-21T00:00	8060	366	-26.0	-27.2	194	24	
2025-07-21T00:00	8080	365	-26.1	-27.4	195	24	
2025-07-21T00:00	8100	364	-26.3	-27.5	196	24	
2025-07-21T00:00	8120	363	-26.4	-27.7	196	24	
2025-07-21T00:00	8140	362	-26.6	-27.8	195	23	
2025-07-21T00:00	8160	361	-26.8	-27.9	195	23	
2025-07-21T00:00	8180	360	-26.9	-28.4	194	23	
2025-07-21T00:00	8200	359	-27.1	-28.6	194	23	
2025-07-21T00:00	8220	358	-27.2	-28.7	194	22	
2025-07-21T00:00	8240	357	-27.4	-28.8	194	22	
2025-07-21T00:00	8260	356	-27.6	-29.0	194	23	
2025-07-21T00:00	8280	355	-27.7	-29.2	193	23	
2025-07-21T00:00	8300	354	-27.9	-29.2	193	23	
2025-07-21T00:00	8320	353	-28.1	-29.4	192	23	
2025-07-21T00:00	8340	352	-28.3	-29.6	192	22	
2025-07-21T00:00	8360	351	-28.4	-29.9	192	22	
2025-07-21T00:00	8380	350	-28.6	-30.4	193	22	
2025-07-21T00:00	8400	349	-28.8	-30.4	195	22	
2025-07-21T00:00	8420	348	-28.9	-30.6	196	23	
2025-07-21T00:00	8440	347	-29.1	-30.9	197	23	
2025-07-21T00:00	8460	346	-29.2	-31.3	197	23	
2025-07-21T00:00	8480	345	-29.3	-31.4	197	23	
2025-07-21T00:00	8500	344	-29.5	-31.3	197	24	
2025-07-21T00:00	8520	343	-29.7	-31.7	197	24	
2025-07-21T00:00	8540	342	-29.8	-32.0	198	25	
2025-07-21T00:00	8560	341	-30.0	-32.1	199	25	
2025-07-21T00:00	8580	341	-30.1	-32.1	200	25	
2025-07-21T00:00	8600	340	-30.3	-32.1	201	25	
2025-07-21T00:00	8620	339	-30.5	-32.3	202	26	
2025-07-21T00:00	8640	338	-30.6	-32.6	202	26	
2025-07-21T00:00	8660	337	-30.8	-32.8	202	26	
2025-07-21T00:00	8680	336	-30.9	-33.0	202	26	
2025-07-21T00:00	8700	335	-31.1	-33.5	202	26	
2025-07-21T00:00	8720	334	-31.3	-33.7	202	26	
2025-07-21T00:00	8740	333	-31.4	-33.7	204	26	
2025-07-21T00:00	8760	332	-31.6	-34.0	205	26	
2025-07-21T00:00	8780	331	-31.8	-34.1	206	27	
2025-07-21T00:00	8800	330	-31.9	-34.2	206	27	
2025-07-21T00:00	8820	329	-32.1	-34.4	206	28	
2025-07-21T00:00	8840	328	-32.3	-34.7	205	28	
2025-07-21T00:00	8860	327	-32.4	-34.8	205	28	
2025-07-21T00:00	8880	326	-32.6	-35.0	205	29	
2025-07-21T00:00	8900	326	-32.7	-35.1	205	29	
2025-07-21T00:00	8920	325	-32.9	-35.2	206	28	
2025-07-21T00:00	8940	324	-33.1	-35.2	206	28	
2025-07-21T00:00	8960	323	-33.3	-35.4	207	28	
2025-07-21T00:00	8980	322	-33.4	-35.8	207	28	
2025-07-21T00:00	9000	321	-33.6	-36.0	208	28	
2025-07-21T00:00	9020	320	-33.8	-36.3	208	28	
2025-07-21T00:00	9040	319	-34.0	-36.8	208	28	
2025-07-21T00:00	9060	318	-34.2	-37.3	208	29	
2025-07-21T00:00	9080	317	-34.3	-37.1	208	30	
2025-07-21T00:00	9100	316	-34.5	-37.9	208	30	
2025-07-21T00:00	9120	315	-34.7	-38.0	209	30	
2025-07-21T00:00	9140	315	-34.9	-38.3	209	30	
2025-07-21T00:00	9160	314	-35.1	-38.2	210	29	
2025-07-21T00:00	9180	313	-35.3	-38.3	210	29	
2025-07-21T00:00	9200	312	-35.4	-38.3	211	30	
2025-07-21T00:00	9220	311	-35.6	-38.5	211	30	
2025-07-21T00:00	9240	310	-35.8	-38.8	211	31	
2025-07-21T00:00	9260	309	-36.0	-38.8	211	31	
2025-07-21T00:00	9280	308	-36.2	-38.8	211	32	
2025-07-21T00:00	9300	307	-36.3	-38.8	211	32	
2025-07-21T00:00	9320	306	-36.5	-39.1	211	32	
2025-07-21T00:00	9340	306	-36.6	-39.8	211	32	
2025-07-21T00:00	9360	305	-36.8	-39.7	211	32	
2025-07-21T00:00	9380	304	-37.0	-39.3	211	32	
2025-07-21T00:00	9400	303	-37.2	-39.5	212	32	
2025-07-21T00:00	9420	302	-37.3	-39.7	212	32	
2025-07-21T00:00	9440	301	-37.5	-39.9	213	32	
2025-07-21T00:00	9460	300	-37.7	-40.0	213	31	
2025-07-21T00:00	9480	299	-37.8	-40.0	214	31	
2025-07-21T00:00	9500	299	-38.0	-40.2	215	31	
2025-07-21T00:00	9520	298	-38.2	-40.3	216	31	
2025-07-21T00:00	9540	297	-38.4	-40.4	216	31	
2025-07-21T00:00	9560	296	-38.5	-40.9	216	32	
2025-07-21T00:00	9580	295	-38.7	-41.0	216	32	
2025-07-21T00:00	9600	294	-38.9	-40.9	216	32	
2025-07-21T00:00	9620	293	-39.1	-41.1	217	32	
2025-07-21T00:00	9640	293	-39.3	-41.3	217	33	
2025-07-21T00:00	9660	292	-39.4	-41.4	217	33	
2025-07-21T00:00	9680	291	-39.6	-41.2	217	34	
2025-07-21T00:00	9700	290	-39.8	-41.4	218	34	
2025-07-21T00:00	9720	289	-40.0	-42.0	218	35	
2025-07-21T00:00	9740	288	-40.2	-42.5	218	35	
2025-07-21T00:00	9760	287	-40.3	-42.4	218	35	
2025-07-21T00:00	9780	287	-40.5	-42.5	218	35	
2025-07-21T00:00	9800	286	-40.7	-42.7	218	35	
2025-07-21T00:00	9820	285	-40.9	-42.8	217	35	
2025-07-21T00:00	9840	284	-41.1	-42.6	217	35	
2025-07-21T00:00	9860	283	-41.2	-43.2	216	35	
2025-07-21T00:00	9880	282	-41.5	-44.4	216	35	
2025-07-21T00:00	9900	282	-41.7	-44.8	216	35	
2025-07-21T00:00	9920	281	-41.9	-45.0	216	35	
2025-07-21T00:00	9940	280	-42.1	-45.1	216	35	
2025-07-21T00:00	9960	279	-42.3	-44.9	217	35	
2025-07-21T00:00	9980	278	-42.5	-44.7	217	35	
2025-07-21T00:00	10000	278	-42.6	-44.6	217	35	
2025-07-21T00:00	10018	277	-42.8	-44.7	217	35	
2025-07-21T00:00	10050	275	-43.1	-45.0	217	36	
2025-07-21T00:00	10100	273	-43.6	-45.4	216	37	
2025-07-21T00:00	10150	271	-44.0	-46.1	216	38	
2025-07-21T00:00	10200	269	-44.4	-46.0	216	38	
2025-07-21T00:00	10250	267	-44.9	-47.3	217	38	
2025-07-21T00:00	10300	265	-45.3	-47.7	217	38	
2025-07-21T00:00	10350	263	-45.7	-48.3	218	39	
2025-07-21T00:00	10400	261	-46.1	-49.6	218	39	
2025-07-21T00:00	10450	259	-46.5	-50.2	220	40	
2025-07-21T00:00	10500	257	-46.9	-50.7	221	41	
2025-07-21T00:00	10550	255	-47.3	-51.1	223	41	
2025-07-21T00:00	10600	254	-47.6	-51.5	223	42	
2025-07-21T00:00	10650	252	-48.0	-51.8	224	42	
2025-07-21T00:00	10700	250	-48.4	-52.3	225	42	
2025-07-21T00:00	10750	248	-48.8	-53.0	226	43	
2025-07-21T00:00	10800	246	-49.2	-53.3	226	44	
2025-07-21T00:00	10850	244	-49.5	-53.8	226	44	
2025-07-21T00:00	10900	242	-49.7	-54.2	227	45	
2025-07-21T00:00	10950	240	-50.1	-54.9	227	46	
2025-07-21T00:00	11000	239	-50.5	-55.5	227	46	
2025-07-21T00:00	11050	237	-50.9	-56.1	228	46	
2025-07-21T00:00	11100	235	-51.2	-56.4	228	47	
2025-07-21T00:00	11150	233	-51.6	-57.0	229	47	
2025-07-21T00:00	11200	231	-52.0	-57.1	229	47	
2025-07-21T00:00	11250	230	-52.3	-57.6	228	47	
2025-07-21T00:00	11300	228	-52.6	-58.5	228	47	
2025-07-21T00:00	11350	226	-52.8	-58.6	229	47	
2025-07-21T00:00	11400	224	-53.1	-59.0	229	46	
2025-07-21T00:00	11450	223	-53.2	-57.5	229	45	
2025-07-21T00:00	11500	221	-53.4	-58.9	228	43	
2025-07-21T00:00	11550	219	-53.6	-59.9	226	42	
2025-07-21T00:00	11600	217	-53.5	-62.2	224	41	
2025-07-21T00:00	11650	216	-52.5	-66.6	225	42	
2025-07-21T00:00	11700	214	-51.4	-69.2	226	41	
2025-07-21T00:00	11750	212	-51.1	-69.5	226	40	
2025-07-21T00:00	11800	211	-51.1	-69.0	224	38	
2025-07-21T00:00	11850	209	-50.8	-69.2	221	37	
2025-07-21T00:00	11900	208	-50.3	-69.3	219	36	
2025-07-21T00:00	11950	206	-50.4	-69.3	218	35	
2025-07-21T00:00	12000	204	-50.7	-68.1	218	34	
2025-07-21T00:00	12050	203	-51.0	-67.8	216	33	
2025-07-21T00:00	12100	201	-51.2	-68.4	212	33	
2025-07-21T00:00	12150	200	-51.6	-69.2	210	33	
2025-07-21T00:00	12200	198	-52.0	-70.4	210	32	
2025-07-21T00:00	12250	197	-52.1	-71.1	208	31	
2025-07-21T00:00	12300	195	-52.5	-70.0	207	32	
2025-07-21T00:00	12350	194	-53.0	-70.8	208	32	
2025-07-21T00:00	12400	192	-53.3	-71.8	208	32	
2025-07-21T00:00	12450	191	-53.1	-71.0	208	32	
2025-07-21T00:00	12500	189	-53.2	-70.6	207	32	
2025-07-21T00:00	12550	188	-53.7	-71.8	207	33	
2025-07-21T00:00	12600	186	-54.2	-71.3	207	35	
2025-07-21T00:00	12650	185	-54.2	-69.6	210	36	
2025-07-21T00:00	12700	183	-53.9	-72.0	211	37	
2025-07-21T00:00	12750	182	-53.6	-72.7	212	37	
2025-07-21T00:00	12800	181	-53.6	-72.6	214	36	
2025-07-21T00:00	12850	179	-53.7	-73.6	218	36	
2025-07-21T00:00	12900	178	-53.9	-73.2	221	36	
2025-07-21T00:00	12950	176	-54.1	-73.0	223	37	
2025-07-21T00:00	13000	175	-54.4	-74.0	225	36	
2025-07-21T00:00	13050	174	-54.6	-73.6	227	36	
2025-07-21T00:00	13100	172	-54.8	-73.5	230	36	
2025-07-21T00:00	13150	171	-54.9	-74.3	232	36	
2025-07-21T00:00	13200	170	-55.2	-74.2	234	35	
2025-07-21T00:00	13250	168	-55.5	-75.8	236	34	
2025-07-21T00:00	13300	167	-55.7	-76.9	236	33	
2025-07-21T00:00	13350	166	-55.8	-77.0	235	32	
2025-07-21T00:00	13400	164	-55.9	-76.7	233	31	
2025-07-21T00:00	13450	163	-56.1	-76.8	231	30	
2025-07-21T00:00	13500	162	-56.2	-78.0	229	29	
2025-07-21T00:00	13550	161	-56.2	-78.3	229	29	
2025-07-21T00:00	13600	159	-56.5	-78.9	228	28	
2025-07-21T00:00	13650	158	-56.8	-78.5	225	28	
2025-07-21T00:00	13700	157	-56.8	-77.9	223	28	
2025-07-21T00:00	13750	156	-56.2	-78.5	221	29	
2025-07-21T00:00	13800	154	-55.7	-78.6	221	30	
2025-07-21T00:00	13850	153	-54.2	-79.3	222	30	
2025-07-21T00:00	13900	152	-54.2	-79.5	223	31	
2025-07-21T00:00	13950	151	-54.4	-79.9	225	31	
2025-07-21T00:00	14000	150	-54.4	-79.2	226	29	
2025-07-21T00:00	14050	148	-54.1	-77.6	226	27	
2025-07-21T00:00	14100	147	-53.9	-79.1	228	26	
2025-07-21T00:00	14150	146	-54.0	-77.6	231	24	
2025-07-21T00:00	14200	145	-53.4	-80.7	233	23	
2025-07-21T00:00	14250	144	-53.3	-80.8	235	22	
2025-07-21T00:00	14300	143	-53.4	-80.2	235	22	
2025-07-21T00:00	14350	142	-53.7	-80.0	235	21	
2025-07-21T00:00	14400	141	-53.9	-80.9	233	21	
2025-07-21T00:00	14450	139	-54.2	-80.9	232	20	
2025-07-21T00:00	14500	138	-54.6	-80.5	229	20	
2025-07-21T00:00	14550	137	-54.5	-80.5	228	20	
2025-07-21T00:00	14600	136	-54.3	-80.5	227	21	
2025-07-21T00:00	14650	135	-53.9	-79.4	229	23	
2025-07-21T00:00	14700	134	-53.9	-78.7	232	24	
2025-07-21T00:00	14750	133	-53.7	-80.9	234	22	
2025-07-21T00:00	14800	132	-52.8	-78.8	233	19	
2025-07-21T00:00	14850	131	-52.6	-79.7	231	18	
2025-07-21T00:00	14900	130	-52.8	-79.3	228	17	
2025-07-21T00:00	14950	129	-52.8	-79.1	223	16	
2025-07-21T00:00	15000	128	-52.8	-79.7	220	15	
2025-07-21T00:00	15050	127	-53.1	-81.2	218	15	
2025-07-21T00:00	15100	126	-53.5	-81.6	214	16	
2025-07-21T00:00	15150	125	-53.7	-80.7	210	16	
2025-07-21T00:00	15200	124	-53.7	-79.4	212	17	
2025-07-21T00:00	15250	123	-53.8	-78.5	217	19	
2025-07-21T00:00	15300	122	-53.6	-81.9	220	19	
2025-07-21T00:00	15350	121	-53.7	-80.3	221	19	
2025-07-21T00:00	15400	120	-52.7	-80.2	218	18	
2025-07-21T00:00	15450	119	-52.5	-80.8	218	18	
2025-07-21T00:00	15500	118	-52.9	-79.2	217	18	
2025-07-21T00:00	15550	118	-53.3	-81.4	217	19	
2025-07-21T00:00	15600	117	-53.6	-79.1	219	21	
2025-07-21T00:00	15650	116	-53.6	-79.4	222	21	
2025-07-21T00:00	15700	115	-53.5	-81.9	225	21	
2025-07-21T00:00	15750	114	-53.7	-81.9	227	21	
2025-07-21T00:00	15800	113	-54.0	-81.8	229	20	
2025-07-21T00:00	15850	112	-53.9	-81.5	229	20	
2025-07-21T00:00	15900	111	-54.0	-81.5	229	19	
2025-07-21T00:00	15950	110	-54.2	-80.1	230	17	
2025-07-21T00:00	16000	110	-54.4	-80.0	231	16	
2025-07-21T00:00	16050	109	-54.7	-81.6	232	15	
2025-07-21T00:00	16100	108	-55.0	-82.5	234	13	
2025-07-21T00:00	16150	107	-55.2	-82.4	236	12	
2025-07-21T00:00	16200	106	-55.4	-81.7	238	12	
2025-07-21T00:00	16250	105	-55.6	-82.3	239	11	
2025-07-21T00:00	16300	105	-55.8	-82.9	236	10	
2025-07-21T00:00	16350	104	-56.0	-82.7	233	10	
2025-07-21T00:00	16400	103	-56.3	-82.5	229	9	
2025-07-21T00:00	16450	102	-56.5	-82.8	221	9	
2025-07-21T00:00	16500	101	-56.4	-83.3	213	10	
2025-07-21T00:00	16550	101	-55.8	-82.7	212	12	
2025-07-21T00:00	16600	100	-55.1	-82.5	211	14	
2025-07-21T00:00	16650	99	-55.0	-82.4	209	14	
2025-07-21T00:00	16700	98	-55.3	-82.3	210	15	
2025-07-21T00:00	16750	97	-55.2	-81.7	212	16	
2025-07-21T00:00	16800	97	-54.7	-81.4	215	16	
2025-07-21T00:00	16850	96	-54.9	-82.5	218	16	
2025-07-21T00:00	16900	95	-55.0	-82.4	222	15	
2025-07-21T00:00	16950	94	-55.1	-82.7	226	14	
2025-07-21T00:00	17000	94	-55.4	-81.5	230	13	
2025-07-21T00:00	17050	93	-55.6	-82.3	234	13	
2025-07-21T00:00	17100	92	-55.7	-82.9	237	12	
2025-07-21T00:00	17150	92	-55.7	-81.4	238	11	
2025-07-21T00:00	17200	91	-55.7	-82.1	234	11	
2025-07-21T00:00	17250	90	-55.8	-83.0	231	11	
2025-07-21T00:00	17300	89	-55.4	-82.7	236	11	
2025-07-21T00:00	17350	89	-54.8	-83.0	240	11	
2025-07-21T00:00	17400	88	-54.8	-83.1	242	10	
2025-07-21T00:00	17450	87	-54.6	-82.6	240	8	
2025-07-21T00:00	17500	87	-54.6	-82.3	236	7	
2025-07-21T00:00	17550	86	-54.8	-82.6	231	6	
2025-07-21T00:00	17600	85	-55.2	-83.2	220	6	
2025-07-21T00:00	17650	85	-55.5	-83.5	211	6	
2025-07-21T00:00	17700	84	-55.4	-83.6	202	6	
2025-07-21T00:00	17750	83	-54.7	-83.2	188	7	
2025-07-21T00:00	17800	83	-54.5	-83.1	179	8	
2025-07-21T00:00	17850	82	-54.8	-83.1	176	8	
2025-07-21T00:00	17900	81	-55.2	-83.2	179	8	
2025-07-21T00:00	17950	81	-55.6	-83.1	186	9	
2025-07-21T00:00	18000	80	-55.5	-83.4	193	9	
2025-07-21T00:00	18050	79	-55.0	-83.9	203	9	
2025-07-21T00:00	18100	79	-54.6	-83.4	211	8	
2025-07-21T00:00	18150	78	-54.2	-82.6	220	6	
2025-07-21T00:00	18200	78	-54.2	-82.3	229	6	
2025-07-21T00:00	18250	77	-54.4	-82.6	238	4	
2025-07-21T00:00	18300	76	-54.6	-82.1	252	4	
2025-07-21T00:00	18350	76	-54.8	-81.9	266	3	
2025-07-21T00:00	18400	75	-54.7	-82.8	216	2	
2025-07-21T00:00	18450	75	-54.7	-83.2	190	3	
2025-07-21T00:00	18500	74	-53.7	-82.6	196	2	
2025-07-21T00:00	18550	74	-53.4	-82.1	202	2	
2025-07-21T00:00	18600	73	-53.5	-81.7	165	2	
2025-07-21T00:00	18650	72	-53.3	-82.0	142	3	
2025-07-21T00:00	18700	72	-53.4	-81.9	137	5	
2025-07-21T00:00	18750	71	-53.2	-82.3	136	6	
2025-07-21T00:00	18800	71	-53.3	-82.5	140	6	
2025-07-21T00:00	18850	70	-53.7	-82.5	143	7	
2025-07-21T00:00	18900	70	-54.0	-82.8	146	7	
2025-07-21T00:00	18950	69	-54.3	-82.8	157	7	
2025-07-21T00:00	19000	69	-54.5	-81.5	172	8	
2025-07-21T00:00	19050	68	-53.9	-81.0	181	8	
2025-07-21T00:00	19100	67	-53.6	-82.5	186	7	
2025-07-21T00:00	19150	67	-53.5	-81.8	182	6	
2025-07-21T00:00	19200	66	-53.3	-80.1	170	6	
2025-07-21T00:00	19250	66	-52.9	-79.5	163	7	
2025-07-21T00:00	19300	65	-53.0	-81.4	158	8	
2025-07-21T00:00	19350	65	-53.2	-81.0	159	7	
2025-07-21T00:00	19400	64	-53.0	-80.3	166	5	
2025-07-21T00:00	19450	64	-53.1	-81.9	187	4	
2025-07-21T00:00	19500	63	-53.3	-80.3	208	4	
2025-07-21T00:00	19550	63	-53.5	-81.3	219	4	
2025-07-21T00:00	19600	62	-53.7	-82.2	221	4	
2025-07-21T00:00	19650	62	-53.5	-81.9	208	3	
2025-07-21T00:00	19700	61	-53.6	-82.0	165	2	
2025-07-21T00:00	19750	61	-53.8	-82.7	139	2	
2025-07-21T00:00	19800	61	-53.9	-82.4	160	3	
2025-07-21T00:00	19850	60	-53.9	-82.5	173	3	
2025-07-21T00:00	19900	60	-53.9	-82.6	174	4	
2025-07-21T00:00	19950	59	-54.1	-82.5	187	4	
2025-07-21T00:00	20000	59	-54.2	-83.1	195	5	
2025-07-21T00:00	20050	58	-54.4		199	5	
2025-07-21T00:00	20100	58	-54.5		202	5	
2025-07-21T00:00	20150	57	-54.5		204	4	
2025-07-21T00:00	20200	57	-54.6		193	2	
2025-07-21T00:00	20250	56	-54.6		153	2	
2025-07-21T00:00	20300	56	-54.6		140	3	
2025-07-21T00:00	20350	56	-54.7		147	5	
2025-07-21T00:00	20400	55	-54.9		158	6	
2025-07-21T00:00	20450	55	-54.9		172	5	
2025-07-21T00:00	20500	54	-54.6		188	4	
2025-07-21T00:00	20550	54	-54.3		227	3	
2025-07-21T00:00	20600	53	-53.7		233	2	
2025-07-21T00:00	20650	53	-53.2		150	1	
2025-07-21T00:00	20700	53	-53.1		124	3	
2025-07-21T00:00	20750	52	-53.3		118	5	
2025-07-21T00:00	20800	52	-53.2		116	6	
2025-07-21T00:00	20850	51	-53.1		113	6	
2025-07-21T00:00	20900	51	-52.9		113	6	
2025-07-21T00:00	20950	51	-52.8		118	8	
2025-07-21T00:00	21000	50	-52.9		125	9	
2025-07-21T00:00	21050	50	-53.1		134	9	
2025-07-21T00:00	21100	49	-53.0		140	9	
2025-07-21T00:00	21150	49	-53.0		145	8	
2025-07-21T00:00	21200	49	-53.0		145	8	
2025-07-21T00:00	21250	48	-52.7		140	7	
2025-07-21T00:00	21300	48	-52.5		134	6	
2025-07-21T00:00	21350	48	-52.3		129	6	
2025-07-21T00:00	21400	47	-52.1		122	6	
2025-07-21T00:00	21450	47	-52.0		115	6	
2025-07-21T00:00	21500	46	-52.0		113	6	
2025-07-21T00:00	21550	46	-52.0		112	7	
2025-07-21T00:00	21600	46	-52.1		108	7	
2025-07-21T00:00	21650	45	-52.1		109	7	
2025-07-21T00:00	21700	45	-52.0		104	7	
2025-07-21T00:00	21750	45	-51.9		106	7	
2025-07-21T00:00	21800	44	-51.7		103	8	
2025-07-21T00:00	21850	44	-51.4		101	9	
2025-07-21T00:00	21900	44	-51.4		100	10	
2025-07-21T00:00	21950	43	-51.6		99	10	
2025-07-21T00:00	22000	43	-51.9		100	9	
2025-07-21T00:00	22050	43	-52.2		104	8	
2025-07-21T00:00	22100	42	-52.5		112	8	
2025-07-21T00:00	22150	42	-52.3		121	8	
2025-07-21T00:00	22200	42	-52.5		128	8	
2025-07-21T00:00	22250	41	-52.6		135	8	
2025-07-21T00:00	22300	41	-52.6		141	8	
2025-07-21T00:00	22350	41	-52.4		137	8	
2025-07-21T00:00	22400	40	-52.3		128	8	
2025-07-21T00:00	22450	40	-52.0		125	8	
2025-07-21T00:00	22500	40	-52.1		119	8	
2025-07-21T00:00	22550	40	-52.6		113	8	
2025-07-21T00:00	22600	39	-52.7		120	8	
2025-07-21T00:00	22650	39	-52.6		138	8	
2025-07-21T00:00	22700	39	-52.3		148	7	
2025-07-21T00:00	22750	38	-52.2		144	6	
2025-07-21T00:00	22800	38	-52.2		147	5	
2025-07-21T00:00	22850	38	-51.6		160	4	
2025-07-21T00:00	22900	37	-51.1		178	3	
2025-07-21T00:00	22950	37	-51.2		208	1	
2025-07-21T00:00	23000	37	-51.2		319	0	
2025-07-21T00:00	23050	37	-51.2		53	1	
2025-07-21T00:00	23100	36	-51.1		83	3	
2025-07-21T00:00	23150	36	-51.2		86	5	
2025-07-21T00:00	23200	36	-51.5		90	7	
2025-07-21T00:00	23250	35	-51.7		95	9	
2025-07-21T00:00	23300	35	-51.9		98	10	
2025-07-21T00:00	23350	35	-52.1		102	11	
2025-07-21T00:00	23400	35	-52.5		105	12	
2025-07-21T00:00	23450	34	-52.7		109	12	
2025-07-21T00:00	23500	34	-52.2		115	10	
2025-07-21T00:00	23550	34	-52.0		115	8	
2025-07-21T00:00	23600	34	-51.7		114	6	
2025-07-21T00:00	23650	33	-51.4		117	5	
2025-07-21T00:00	23700	33	-51.4		110	6	
2025-07-21T00:00	23750	33	-51.3		101	8	
2025-07-21T00:00	23800	33	-51.3		102	9	
2025-07-21T00:00	23850	32	-51.2		104	9	
2025-07-21T00:00	23900	32	-51.0		109	8	
2025-07-21T00:00	23950	32	-50.9		112	8	
2025-07-21T00:00	24000	32	-50.8		114	8	
2025-07-21T00:00	24050	31	-50.8		112	8	
2025-07-21T00:00	24100	31	-50.8		110	10	
2025-07-21T00:00	24150	31	-50.8		110	11	
2025-07-21T00:00	24200	31	-51.0		110	12	
2025-07-21T00:00	24250	30	-50.9		112	12	
2025-07-21T00:00	24300	30	-51.1		117	13	
2025-07-21T00:00	24350	30	-51.1		121	12	
2025-07-21T00:00	24400	30	-51.1		125	12	
2025-07-21T00:00	24450	29	-51.1		128	11	
2025-07-21T00:00	24500	29	-51.2		134	9	
2025-07-21T00:00	24550	29	-50.8		141	7	
2025-07-21T00:00	24600	29	-50.4		146	6	
2025-07-21T00:00	24650	29	-50.3		136	4	
2025-07-21T00:00	24700	28	-50.1		121	4	
2025-07-21T00:00	24750	28	-49.9		111	5	
2025-07-21T00:00	24800	28	-49.6		101	5	
2025-07-21T00:00	24850	28	-49.2		93	6	
2025-07-21T00:00	24900	28	-49.1		97	7	
2025-07-21T00:00	24950	27	-49.3		101	8	
2025-07-21T00:00	25000	27	-49.5		103	9	
2025-07-21T00:00	25050	27	-49.7		108	10	
2025-07-21T00:00	25100	27	-50.0		116	10	
2025-07-21T00:00	25150	26	-49.6		121	10	
2025-07-21T00:00	25200	26	-49.4		121	9	
2025-07-21T00:00	25250	26	-49.3		113	7	
2025-07-21T00:00	25300	26	-49.3		96	6	
2025-07-21T00:00	25350	26	-49.2		79	7	
2025-07-21T00:00	25400	25	-49.2		65	8	
2025-07-21T00:00	25450	25	-49.0		55	9	
2025-07-21T00:00	25500	25	-48.8		55	11	
2025-07-21T00:00	25550	25	-48.8		58	12	
2025-07-21T00:00	25600	25	-48.8		61	12	
2025-07-21T00:00	25650	25	-48.6		64	12	
2025-07-21T00:00	25700	24	-48.5		66	12	
2025-07-21T00:00	25750	24	-48.4		65	12	
2025-07-21T00:00	25800	24	-48.3		65	13	
2025-07-21T00:00	25850	24	-48.2		69	13	
2025-07-21T00:00	25900	24	-48.2		76	13	
2025-07-21T00:00	25950	23	-48.3		83	13	
2025-07-21T00:00	26000	23	-48.4		88	13	
2025-07-21T00:00	26050	23	-48.6		92	13	
2025-07-21T00:00	26100	23	-48.7		90	13	
2025-07-21T00:00	26150	23	-48.6		85	12	
2025-07-21T00:00	26200	23	-48.5		82	11	
2025-07-21T00:00	26250	22	-48.6		84	10	
2025-07-21T00:00	26300	22	-48.4		83	9	
2025-07-21T00:00	26350	22	-47.8		77	9	
2025-07-21T00:00	26400	22	-47.6		72	11	
2025-07-21T00:00	26450	22	-47.8		73	13	
2025-07-21T00:00	26500	22	-47.8		76	14	
2025-07-21T00:00	26550	21	-47.8		76	14	
2025-07-21T00:00	26600	21	-47.7		79	13	
2025-07-21T00:00	26650	21	-47.7		84	13	
2025-07-21T00:00	26700	21	-47.8		88	14	
2025-07-21T00:00	26750	21	-48.1		91	14	
2025-07-21T00:00	26800	21	-48.3		93	14	
2025-07-21T00:00	26850	20	-48.4		92	13	
2025-07-21T00:00	26900	20	-48.4		92	12	
2025-07-21T00:00	26950	20	-48.4		94	12	
2025-07-21T00:00	27000	20	-48.4		93	12	
2025-07-21T00:00	27050	20	-48.3		90	12	
2025-07-21T00:00	27100	20	-48.2		90	12	
2025-07-21T00:00	27150	20	-48.1		92	12	
2025-07-21T00:00	27200	19	-48.0		88	11	
2025-07-21T00:00	27250	19	-47.5		81	11	
2025-07-21T00:00	27300	19	-46.7		82	12	
2025-07-21T00:00	27350	19	-46.0		88	13	
2025-07-21T00:00	27400	19	-45.9		91	12	
2025-07-21T00:00	27450	19	-45.9		87	11	
2025-07-21T00:00	27500	19	-45.5		82	11	
2025-07-21T00:00	27550	18	-44.9		76	11	
2025-07-21T00:00	27600	18	-44.5		80	12	
2025-07-21T00:00	27650	18	-44.6		86	13	
2025-07-21T00:00	27700	18	-44.5		85	14	
2025-07-21T00:00	27750	18	-44.6		81	14	
2025-07-21T00:00	27800	18	-44.7		78	14	
2025-07-21T00:00	27850	18	-44.8		76	14	
2025-07-21T00:00	27900	17	-44.7		76	14	
2025-07-21T00:00	27950	17	-44.4		81	14	
2025-07-21T00:00	28000	17	-44.4		85	14	
2025-07-21T00:00	28050	17	-44.6		91	13	
2025-07-21T00:00	28100	17	-44.7		96	13	
2025-07-21T00:00	28150	17	-45.0		101	13	
2025-07-21T00:00	28200	17	-45.4		107	13	
2025-07-21T00:00	28250	17	-45.7		112	13	
2025-07-21T00:00	28300	16	-45.8		112	12	
2025-07-21T00:00	28350	16	-45.4		106	12	
2025-07-21T00:00	28400	16	-45.1		100	12	
2025-07-21T00:00	28450	16	-44.9		100	12	
2025-07-21T00:00	28500	16	-44.6		99	11	
2025-07-21T00:00	28550	16	-44.6		94	11	
2025-07-21T00:00	28600	16	-44.5		89	12	
2025-07-21T00:00	28650	16	-44.1		89	14	
2025-07-21T00:00	28700	15	-44.1		92	14	
2025-07-21T00:00	28750	15	-44.0		97	14	
2025-07-21T00:00	28800	15	-44.1		100	14	
2025-07-21T00:00	28850	15	-44.3		103	14	
2025-07-21T00:00	28900	15	-44.4		107	13	
2025-07-21T00:00	28950	15	-44.4		110	12	
2025-07-21T00:00	29000	15	-44.4		111	12	
2025-07-21T00:00	29050	15	-44.1		105	11	
2025-07-21T00:00	29100	15	-43.9		101	11	
2025-07-21T00:00	29150	14	-43.9		100	12	
2025-07-21T00:00	29200	14	-43.8		99	13	
2025-07-21T00:00	29250	14	-43.9		100	14	
2025-07-21T00:00	29300	14	-44.0		100	15	
2025-07-21T00:00	29350	14	-44.0		96	15	
2025-07-21T00:00	29400	14	-43.9		91	15	
2025-07-21T00:00	29450	14	-43.8		87	16	
2025-07-21T00:00	29500	14	-43.9		84	16	
2025-07-21T00:00	29550	14	-43.9		87	16	
2025-07-21T00:00	29600	14	-43.9		91	16	
2025-07-21T00:00	29650	13	-44.1		96	16	
2025-07-21T00:00	29700	13	-44.3		102	16	
2025-07-21T00:00	29750	13	-44.6		106	15	
2025-07-21T00:00	29800	13	-44.8		110	14	
2025-07-21T00:00	29850	13	-44.8		116	13	
2025-07-21T00:00	29900	13	-44.6		113	12	
2025-07-21T00:00	29950	13	-44.2		104	11	
2025-07-21T00:00	30000	13	-43.8		94	11	
2025-07-21T00:00	30050	13	-43.5		94	11	
2025-07-21T00:00	30100	13	-43.1		95	11	
2025-07-21T00:00	30150	12	-42.4		90	12	
2025-07-21T00:00	30200	12	-41.9		87	13	
2025-07-21T00:00	30250	12	-41.7		85	15	
2025-07-21T00:00	30300	12	-41.5		83	17	
2025-07-21T00:00	30350	12	-41.4		82	18	
2025-07-21T00:00	30400	12	-41.4		84	19	
2025-07-21T00:00	30450	12	-41.5		88	19	
2025-07-21T00:00	30500	12	-41.6		92	18	
2025-07-21T00:00	30550	12	-41.7		96	17	
2025-07-21T00:00	30600	12	-42.0		99	16	
2025-07-21T00:00	30650	12	-42.2		99	16	
2025-07-21T00:00	30700	12	-42.1		94	16	
2025-07-21T00:00	30750	11	-42.0		93	17	
2025-07-21T00:00	30800	11	-41.9		99	16	
2025-07-21T00:00	30850	11	-41.9		105	16	
2025-07-21T00:00	30900	11	-41.7		109	15	
2025-07-21T00:00	30950	11	-41.5		114	14	
2025-07-21T00:00	31000	11	-41.5		119	14	
2025-07-21T00:00	31050	11	-41.5		120	12	
2025-07-21T00:00	31100	11	-41.5		111	11	
2025-07-21T00:00	31150	11	-41.1		101	10	
2025-07-21T00:00	31200	11	-41.1		90	9	
2025-07-21T00:00	31250	11	-41.1		80	10	
2025-07-21T00:00	31300	11	-41.0		73	11	
2025-07-21T00:00	31350	10	-40.8		74	12	
2025-07-21T00:00	31400	10	-40.9		77	13	
2025-07-21T00:00	31450	10	-41.2		78	14	
2025-07-21T00:00	31500	10	-41.1		80	14	
2025-07-21T00:00	31550	10	-41.3		81	14	
2025-07-21T00:00	31600	10	-41.1		81	13	
2025-07-21T00:00	31650	10	-41.1		81	14	
2025-07-21T00:00	31700	10	-40.8		78	14	
2025-07-21T00:00	31750	10	-40.8		74	16	
2025-07-21T00:00	31800	10	-40.7		73	17	
2025-07-21T00:00	31850	10	-40.5		77	18	
2025-07-21T00:00	31900	10	-40.4		82	20	
2025-07-21T00:00	31950	10	-40.4		86	21	
2025-07-21T00:00	32000	9	-40.1		92	21	
2025-07-21T00:00	32050	9	-39.7		96	20	
2025-07-21T00:00	32100	9	-39.6		97	18	
2025-07-21T00:00	32150	9	-39.5		94	17	
2025-07-21T00:00	32200	9	-39.4		88	17	
2025-07-21T00:00	32250	9	-39.2		85	17	
2025-07-21T00:00	32300	9	-38.9		88	18	
2025-07-21T00:00	32350	9	-38.9		88	17	
2025-07-21T00:00	32400	9	-38.9		85	17	
2025-07-21T00:00	32450	9	-38.8		84	17	
2025-07-21T00:00	32500	9	-38.7		83	18	
2025-07-21T00:00	32550	9	-38.7		81	19	
2025-07-21T00:00	32600	9	-38.7		80	20	
2025-07-21T00:00	32650	9	-38.6		82	21	
2025-07-21T00:00	32700	9	-38.6		84	21	
2025-07-21T00:00	32750	9	-38.8		85	21	
2025-07-21T00:00	32800	8	-38.9		84	22	
2025-07-21T00:00	32850	8	-38.7		83	22	
2025-07-21T00:00	32900	8	-38.8		84	22	
2025-07-21T00:00	32950	8	-38.6		86	22	
2025-07-21T00:00	33000	8	-38.5		87	20	
2025-07-21T00:00	33050	8	-38.6		89	20	
2025-07-21T00:00	33100	8	-38.6		88	20	
2025-07-21T00:00	33150	8	-38.8		89	20	
2025-07-21T00:00	33200	8	-38.3		92	19	
2025-07-21T00:00	33250	8	-37.8		95	17	
2025-07-21T00:00	33300	8	-37.4		93	14	
2025-07-21T00:00	33350	8	-37.4		87	12	
2025-07-21T00:00	33400	8	-37.0		79	13	
2025-07-21T00:00	33450	8	-35.4		74	15	
2025-07-21T00:00	33500	8	-36.0		74	15	
2025-07-21T00:00	33550	8	-37.0		74	15	
2025-07-21T00:00	33600	8	-37.8		75	16	
2025-07-21T00:00	33650	7	-36.8		78	20	
2025-07-21T00:00	33700	7	-36.2		84	22	
2025-07-21T00:00	33750	7	-35.2		86	22	
2025-07-21T00:00	33800	7	-35.2		89	20	
2025-07-21T00:00	33850	7	-35.7		89	20	
2025-07-21T00:00	33900	7	-35.7		89	20	
2025-07-21T00:00	33950	7	-36.1		90	21	
2025-07-21T00:00	34000	7	-36.4		91	21	
2025-07-21T00:00	34050	7	-36.0		87	22	
2025-07-21T00:00	34100	7	-36.2		85	23	
2025-07-21T00:00	34150	7	-36.8		88	24	
2025-07-21T00:00	34200	7	-36.5		91	24	
2025-07-21T00:00	34250	7	-36.8		91	22	
2025-07-21T00:00	34300	7	-36.6		91	23	
2025-07-21T00:00	34350	7	-37.1		92	24	
2025-07-21T00:00	34400	7	-37.9		93	24	
2025-07-21T00:00	34450	7	-37.6		93	24	
2025-07-21T00:00	34500	7	-37.1		94	25	
2025-07-21T00:00	34550	7	-36.6		95	24	
2025-07-21T00:00	34600	7	-36.6		96	23	
2025-07-21T00:00	34650	6	-36.5		96	23	
2025-07-21T12:00	491	952	23.2	11.6	220	5	4.3
2025-07-21T12:00	501	951	23.0	12.1	218	5	4.4
2025-07-21T12:00	520	949	21.9	11.0	218	5	4.5
2025-07-21T12:00	540	947	21.8	10.9	217	6	4.6
2025-07-21T12:00	560	945	21.5	10.6	217	7	4.6
2025-07-21T12:00	580	942	21.1	10.2	217	7	4.7
2025-07-21T12:00	600	940	20.8	10.2	218	8	4.8
2025-07-21T12:00	620	938	20.5	10.1	219	8	4.8
2025-07-21T12:00	640	936	20.3	9.9	220	9	4.8
2025-07-21T12:00	660	934	20.1	10.1	221	9	4.9
2025-07-21T12:00	680	932	20.0	10.3	222	9	5.0
2025-07-21T12:00	700	929	19.8	10.2	222	10	5.1
2025-07-21T12:00	720	927	19.5	9.9	221	10	5.1
2025-07-21T12:00	740	925	19.3	9.7	219	10	5.1
2025-07-21T12:00	760	923	19.2	9.5	217	9	5.1
2025-07-21T12:00	780	921	19.0	9.6	216	9	5.1
2025-07-21T12:00	800	919	18.7	9.5	215	9	5.2
2025-07-21T12:00	820	917	18.5	9.3	215	8	5.2
2025-07-21T12:00	840	914	18.3	9.4	215	8	5.2
2025-07-21T12:00	860	912	18.2	9.5	216	8	5.2
2025-07-21T12:00	880	910	18.0	9.3	219	8	5.2
2025-07-21T12:00	900	908	17.8	9.5	221	8	5.2
2025-07-21T12:00	920	906	17.6	9.4	224	9	5.2
2025-07-21T12:00	940	904	17.5	9.8	226	9	5.2
2025-07-21T12:00	960	902	17.3	9.7	228	9	5.2
2025-07-21T12:00	980	899	17.1	9.2	230	9	5.2
2025-07-21T12:00	1000	898	16.9	8.9	231	10	5.2
2025-07-21T12:00	1020	895	16.7	8.9	233	10	5.2
2025-07-21T12:00	1040	893	16.5	9.0	235	10	5.2
2025-07-21T12:00	1060	891	16.3	9.0	237	10	5.2
2025-07-21T12:00	1080	889	16.2	8.9	238	10	5.2
2025-07-21T12:00	1100	887	16.0	9.1	240	10	5.2
2025-07-21T12:00	1120	885	15.8	9.1	241	10	5.1
2025-07-21T12:00	1140	883	15.6	9.1	242	10	5.1
2025-07-21T12:00	1160	881	15.5	9.3	244	10	5.1
2025-07-21T12:00	1180	879	15.3	9.4	245	10	5.2
2025-07-21T12:00	1200	877	15.0	9.3	245	10	5.1
2025-07-21T12:00	1220	875	14.9	8.8	245	10	5.1
2025-07-21T12:00	1240	873	14.8	8.8	245	10	5.1
2025-07-21T12:00	1260	871	14.6	8.1	244	9	5.1
2025-07-21T12:00	1280	869	14.4	8.5	242	9	5.1
2025-07-21T12:00	1300	866	14.2	8.0	240	9	5.1
2025-07-21T12:00	1320	864	14.0	8.1	238	9	5.1
2025-07-21T12:00	1340	862	13.8	8.5	237	9	5.0
2025-07-21T12:00	1360	860	13.5	8.5	236	9	5.1
2025-07-21T12:00	1380	858	13.3	8.1	236	10	5.0
2025-07-21T12:00	1400	856	13.2	7.1	236	10	5.0
2025-07-21T12:00	1420	854	13.0	7.7	235	10	5.0
2025-07-21T12:00	1440	852	12.8	7.6	234	10	5.0
2025-07-21T12:00	1460	850	12.6	7.4	234	10	5.0
2025-07-21T12:00	1480	848	12.5	7.4	232	10	5.0
2025-07-21T12:00	1500	846	12.2	7.6	232	10	5.0
2025-07-21T12:00	1520	844	12.0	7.7	231	10	5.0
2025-07-21T12:00	1540	842	11.8	8.0	231	10	5.0
2025-07-21T12:00	1560	840	11.6	8.2	231	11	5.0
2025-07-21T12:00	1580	838	11.3	8.1	231	11	5.0
2025-07-21T12:00	1600	836	11.2	7.6	231	11	5.0
2025-07-21T12:00	1620	834	11.1	7.5	232	11	4.9
2025-07-21T12:00	1640	832	11.1	5.6	233	11	5.0
2025-07-21T12:00	1660	830	11.2	4.6	233	11	4.9
2025-07-21T12:00	1680	828	11.1	4.3	233	12	4.9
2025-07-21T12:00	1700	826	10.9	4.0	233	12	4.9
2025-07-21T12:00	1720	824	10.8	3.9	233	12	4.8
2025-07-21T12:00	1740	822	10.6	3.8	232	12	4.8
2025-07-21T12:00	1760	820	10.5	3.7	232	12	4.7
2025-07-21T12:00	1780	818	10.3	3.7	232	12	4.7
2025-07-21T12:00	1800	816	10.1	3.7	232	12	4.7
2025-07-21T12:00	1820	814	10.0	3.6	231	12	4.7
2025-07-21T12:00	1840	812	9.8	3.7	231	12	4.6
2025-07-21T12:00	1860	810	9.6	3.7	231	13	4.6
2025-07-21T12:00	1880	808	9.5	3.7	231	13	4.6
2025-07-21T12:00	1900	806	9.3	3.7	231	13	4.6
2025-07-21T12:00	1920	804	9.2	3.5	231	13	4.5
2025-07-21T12:00	1940	803	9.0	3.5	231	13	4.5
2025-07-21T12:00	1960	801	8.8	3.5	231	13	4.5
2025-07-21T12:00	1980	799	8.6	3.5	231	13	4.5
2025-07-21T12:00	2000	797	8.5	3.4	231	13	4.4
2025-07-21T12:00	2020	795	8.3	3.4	231	13	4.4
2025-07-21T12:00	2040	793	8.1	3.4	231	13	4.4
2025-07-21T12:00	2060	791	7.9	3.3	231	13	4.4
2025-07-21T12:00	2080	789	7.7	3.3	231	13	4.3
2025-07-21T12:00	2100	787	7.5	3.4	231	13	4.3
2025-07-21T12:00	2120	785	7.3	3.2	230	13	4.3
2025-07-21T12:00	2140	783	7.1	3.2	230	13	4.3
2025-07-21T12:00	2160	782	6.8	3.2	230	13	4.3
2025-07-21T12:00	2180	780	6.7	3.1	230	13	4.2
2025-07-21T12:00	2200	778	6.5	3.1	230	13	4.2
2025-07-21T12:00	2220	776	6.3	3.1	230	14	4.2
2025-07-21T12:00	2240	774	6.1	3.0	230	14	4.2
2025-07-21T12:00	2260	772	6.0	2.9	230	14	4.2
2025-07-21T12:00	2280	770	5.8	3.0	230	14	4.2
2025-07-21T12:00	2300	768	5.6	2.8	229	15	4.2
2025-07-21T12:00	2320	766	5.5	2.6	229	15	4.2
2025-07-21T12:00	2340	764	5.3	2.6	229	15	4.2
2025-07-21T12:00	2360	763	5.2	2.5	228	15	4.2
2025-07-21T12:00	2380	761	5.0	2.5	227	15	4.1
2025-07-21T12:00	2400	759	4.9	2.4	227	15	4.1
2025-07-21T12:00	2420	757	4.8	2.2	227	15	4.1
2025-07-21T12:00	2440	755	4.6	2.2	227	15	4.1
2025-07-21T12:00	2460	753	4.4	2.0	226	15	4.1
2025-07-21T12:00	2480	752	4.2	1.7	227	15	4.1
2025-07-21T12:00	2500	750	4.1	1.6	227	15	4.1
2025-07-21T12:00	2520	748	3.9	1.5	227	15	4.1
2025-07-21T12:00	2540	746	3.8	0.9	227	15	4.1
2025-07-21T12:00	2560	744	3.7	0.5	227	15	4.2
2025-07-21T12:00	2580	742	3.5	0.5	227	15	4.2
2025-07-21T12:00	2600	741	3.4	0.4	228	15	4.2
2025-07-21T12:00	2620	739	3.2	0.2	228	15	4.2
2025-07-21T12:00	2640	737	3.0	-0.1	229	15	4.2
2025-07-21T12:00	2660	735	2.9	-0.2	229	15	4.2
2025-07-21T12:00	2680	733	2.7	-0.3	230	15	4.2
2025-07-21T12:00	2700	731	2.5	-0.3	231	15	4.2
2025-07-21T12:00	2720	730	2.3	-0.4	232	15	4.2
2025-07-21T12:00	2740	728	2.3	-0.9	233	15	4.2
2025-07-21T12:00	2760	726	2.2	-0.9	234	15	4.2
2025-07-21T12:00	2780	724	1.9	-0.9	235	15	4.2
2025-07-21T12:00	2800	722	1.9	-1.0	235	15	4.1
2025-07-21T12:00	2820	720	1.8	-1.5	236	15	4.1
2025-07-21T12:00	2840	719	1.8	-2.2	236	15	4.1
2025-07-21T12:00	2860	717	1.7	-2.4	236	16	4.1
2025-07-21T12:00	2880	715	1.6	-2.5	236	16	4.1
2025-07-21T12:00	2900	714	1.4	-2.6	235	16	4.1
2025-07-21T12:00	2920	712	1.1	-2.6	235	16	4.1
2025-07-21T12:00	2940	710	1.0	-2.8	235	16	4.1
2025-07-21T12:00	2960	708	0.9	-3.1	235	16	4.1
2025-07-21T12:00	2980	706	0.7	-3.1	235	16	4.1
2025-07-21T12:00	3000	705	0.5	-3.2	235	16	4.1
2025-07-21T12:00	3020	703	0.4	-3.3	235	16	4.1
2025-07-21T12:00	3040	701	0.2	-3.4	235	16	4.1
2025-07-21T12:00	3060	700	-0.1	-3.4	235	16	4.1
2025-07-21T12:00	3080	698	-0.2	-3.7	235	16	4.1
2025-07-21T12:00	3100	696	-0.3	-3.8	235	16	4.1
2025-07-21T12:00	3120	694	-0.5	-4.1	235	16	4.0
2025-07-21T12:00	3140	692	-0.5	-4.5	234	16	4.0
2025-07-21T12:00	3160	691	-0.5	-4.7	234	16	4.0
2025-07-21T12:00	3180	689	-0.6	-4.7	234	16	4.0
2025-07-21T12:00	3200	687	-0.6	-4.8	234	16	4.1
2025-07-21T12:00	3220	686	-0.7	-5.3	235	16	4.1
2025-07-21T12:00	3240	684	-0.9	-4.3	235	16	4.1
2025-07-21T12:00	3260	682	-1.1	-3.8	236	16	4.1
2025-07-21T12:00	3280	681	-0.9	-4.2	237	16	4.1
2025-07-21T12:00	3300	679	-1.0	-4.5	237	16	4.1
2025-07-21T12:00	3320	677	-1.1	-4.4	238	16	4.2
2025-07-21T12:00	3340	675	-1.1	-4.5	239	16	4.2
2025-07-21T12:00	3360	674	-1.2	-5.1	239	16	4.2
2025-07-21T12:00	3380	672	-1.4	-5.4	239	16	4.2
2025-07-21T12:00	3400	670	-1.6	-5.6	239	16	4.2
2025-07-21T12:00	3420	669	-1.7	-5.8	239	16	4.2
2025-07-21T12:00	3440	667	-1.8	-6.0	239	16	4.2
2025-07-21T12:00	3460	665	-2.1	-6.2	239	16	4.3
2025-07-21T12:00	3480	664	-2.3	-6.7	239	16	4.3
2025-07-21T12:00	3500	662	-2.4	-7.2	238	16	4.3
2025-07-21T12:00	3520	660	-2.6	-7.4	238	16	4.2
2025-07-21T12:00	3540	659	-2.7	-7.1	238	16	4.2
2025-07-21T12:00	3560	657	-2.9	-6.9	238	16	4.2
2025-07-21T12:00	3580	655	-3.1	-6.9	238	16	4.3
2025-07-21T12:00	3600	654	-3.2	-7.1	239	16	4.3
2025-07-21T12:00	3620	652	-3.4	-7.3	240	16	4.3
2025-07-21T12:00	3640	650	-3.4	-8.3	241	16	4.3
2025-07-21T12:00	3660	649	-3.6	-8.4	242	16	4.3
2025-07-21T12:00	3680	647	-3.7	-7.5	243	16	4.3
2025-07-21T12:00	3700	646	-3.7	-7.8	244	17	4.2
2025-07-21T12:00	3720	644	-3.7	-7.8	245	17	4.2
2025-07-21T12:00	3740	642	-3.9	-7.6	245	17	4.2
2025-07-21T12:00	3760	640	-4.0	-7.7	246	16	4.2
2025-07-21T12:00	3780	639	-4.1	-7.7	246	16	4.2
2025-07-21T12:00	3800	637	-4.3	-7.7	247	16	4.1
2025-07-21T12:00	3820	636	-4.4	-8.2	247	16	4.1
2025-07-21T12:00	3840	634	-4.5	-7.9	247	16	4.1
2025-07-21T12:00	3860	632	-4.7	-8.0	247	15	4.0
2025-07-21T12:00	3880	631	-4.8	-8.0	246	15	4.0
2025-07-21T12:00	3900	629	-5.0	-8.2	245	15	4.0
2025-07-21T12:00	3920	628	-5.2	-8.5	244	15	4.0
2025-07-21T12:00	3940	626	-5.2	-9.8	242	15	4.0
2025-07-21T12:00	3960	624	-4.7	-15.0	240	15	4.0
2025-07-21T12:00	3980	623	-4.6	-16.5	240	15	4.0
2025-07-21T12:00	4000	621	-4.3	-18.0	239	15	4.1
2025-07-21T12:00	4020	620	-4.3	-19.5	238	15	4.1
2025-07-21T12:00	4040	618	-4.3	-21.0	237	15	4.2
2025-07-21T12:00	4060	617	-4.4	-20.5	237	15	4.2
2025-07-21T12:00	4080	615	-4.6	-19.9	237	15	4.3
2025-07-21T12:00	4100	613	-4.7	-19.4	236	15	4.3
2025-07-21T12:00	4120	612	-4.9	-19.5	236	15	4.3
2025-07-21T12:00	4140	610	-5.1	-19.4	236	15	4.3
2025-07-21T12:00	4160	609	-5.2	-19.3	235	15	4.2
2025-07-21T12:00	4180	607	-5.3	-19.4	235	15	4.2
2025-07-21T12:00	4200	606	-5.6	-19.5	235	15	4.2
2025-07-21T12:00	4220	604	-5.7	-19.7	234	15	4.2
2025-07-21T12:00	4240	603	-5.8	-20.0	234	15	4.1
2025-07-21T12:00	4260	601	-6.1	-20.1	234	14	4.1
2025-07-21T12:00	4280	600	-6.3	-20.0	234	14	4.1
2025-07-21T12:00	4300	598	-6.4	-20.0	233	14	4.1
2025-07-21T12:00	4320	597	-6.6	-20.1	233	14	4.1
2025-07-21T12:00	4340	595	-6.9	-20.0	233	14	4.0
2025-07-21T12:00	4360	594	-7.0	-19.8	233	14	4.0
2025-07-21T12:00	4380	592	-7.2	-19.5	233	14	4.0
2025-07-21T12:00	4400	590	-7.4	-19.2	233	14	4.0
2025-07-21T12:00	4420	589	-7.6	-19.2	233	14	3.9
2025-07-21T12:00	4440	587	-7.8	-19.3	234	13	3.9
2025-07-21T12:00	4460	586	-7.9	-19.5	234	14	3.9
2025-07-21T12:00	4480	584	-8.0	-19.7	235	13	3.9
2025-07-21T12:00	4500	583	-8.2	-19.7	235	13	3.9
2025-07-21T12:00	4520	581	-8.4	-19.7	236	14	3.8
2025-07-21T12:00	4540	580	-8.5	-19.8	236	13	3.8
2025-07-21T12:00	4560	578	-8.6	-20.4	237	14	3.8
2025-07-21T12:00	4580	577	-8.7	-20.6	238	14	3.8
2025-07-21T12:00	4600	575	-8.9	-20.5	238	14	3.7
2025-07-21T12:00	4620	574	-9.0	-20.7	239	14	3.7
2025-07-21T12:00	4640	573	-9.1	-21.5	239	14	3.7
2025-07-21T12:00	4660	571	-9.3	-21.6	240	15	3.7
2025-07-21T12:00	4680	570	-9.4	-21.9	240	15	3.7
2025-07-21T12:00	4700	568	-9.6	-21.7	240	15	3.7
2025-07-21T12:00	4720	567	-9.8	-21.5	241	15	3.7
2025-07-21T12:00	4740	565	-10.1	-20.7	241	16	3.6
2025-07-21T12:00	4760	564	-10.2	-20.5	242	16	3.6
2025-07-21T12:00	4780	562	-10.3	-20.1	242	16	3.6
2025-07-21T12:00	4800	561	-10.5	-19.7	242	16	3.6
2025-07-21T12:00	4820	559	-10.6	-21.7	242	16	3.6
2025-07-21T12:00	4840	558	-10.6	-23.0	242	17	3.5
2025-07-21T12:00	4860	556	-10.8	-23.4	242	17	3.5
2025-07-21T12:00	4880	555	-11.0	-23.5	243	17	3.5
2025-07-21T12:00	4900	553	-11.1	-22.7	243	17	3.5
2025-07-21T12:00	4920	552	-11.3	-18.6	243	17	3.4
2025-07-21T12:00	4940	551	-11.5	-18.3	243	17	3.4
2025-07-21T12:00	4960	549	-11.6	-20.2	243	17	3.4
2025-07-21T12:00	4980	548	-11.6	-23.2	243	17	3.4
2025-07-21T12:00	5000	546	-11.5	-24.2	242	17	3.3
2025-07-21T12:00	5020	545	-11.6	-23.4	242	18	3.3
2025-07-21T12:00	5040	543	-11.7	-23.3	242	18	3.3
2025-07-21T12:00	5060	542	-11.6	-24.9	243	18	3.3
2025-07-21T12:00	5080	541	-11.5	-25.8	244	18	3.3
2025-07-21T12:00	5100	539	-11.7	-25.1	244	19	3.4
2025-07-21T12:00	5120	538	-11.8	-24.0	245	19	3.4
2025-07-21T12:00	5140	536	-11.9	-23.3	246	20	3.4
2025-07-21T12:00	5160	535	-12.0	-22.9	246	20	3.4
2025-07-21T12:00	5180	534	-12.2	-22.5	246	20	3.4
2025-07-21T12:00	5200	532	-12.4	-22.3	245	21	3.4
2025-07-21T12:00	5220	531	-12.5	-22.2	244	21	3.4
2025-07-21T12:00	5240	529	-12.6	-22.3	242	20	3.4
2025-07-21T12:00	5260	528	-12.8	-22.5	241	20	3.4
2025-07-21T12:00	5280	527	-12.9	-22.5	240	20	3.4
2025-07-21T12:00	5300	525	-13.0	-22.8	240	20	3.5
2025-07-21T12:00	5320	524	-13.2	-23.0	240	20	3.5
2025-07-21T12:00	5340	522	-13.3	-23.2	240	20	3.5
2025-07-21T12:00	5360	521	-13.5	-23.3	239	20	3.6
2025-07-21T12:00	5380	520	-13.5	-23.5	238	20	3.7
2025-07-21T12:00	5400	518	-13.6	-23.7	237	20	3.7
2025-07-21T12:00	5420	517	-13.8	-24.2	237	20	3.7
2025-07-21T12:00	5440	516	-14.0	-24.5	239	20	3.8
2025-07-21T12:00	5460	514	-14.1	-24.9	241	20	3.8
2025-07-21T12:00	5480	513	-14.2	-25.7	243	20	3.8
2025-07-21T12:00	5500	512	-14.3	-26.3	244	20	3.9
2025-07-21T12:00	5520	510	-14.4	-26.8	244	20	3.9
2025-07-21T12:00	5540	509	-14.5	-26.6	244	20	3.9
2025-07-21T12:00	5560	508	-14.6	-26.3	244	20	3.9
2025-07-21T12:00	5580	506	-14.6	-26.8	244	20	3.8
2025-07-21T12:00	5600	505	-14.8	-27.3	245	20	3.8
2025-07-21T12:00	5620	504	-14.9	-29.2	245	20	3.8
2025-07-21T12:00	5640	502	-14.9	-30.3	245	20	3.8
2025-07-21T12:00	5660	501	-15.1	-29.1	245	20	3.9
2025-07-21T12:00	5680	499	-15.3	-29.8	245	20	4.0
2025-07-21T12:00	5700	498	-15.3	-32.5	245	20	4.0
2025-07-21T12:00	5720	497	-15.5	-32.3	245	20	4.1
2025-07-21T12:00	5740	496	-15.6	-32.0	245	20	4.1
2025-07-21T12:00	5760	494	-15.7	-32.6	246	20	4.1
2025-07-21T12:00	5780	493	-16.0	-33.0	246	20	4.0
2025-07-21T12:00	5800	492	-16.1	-32.3	246	20	4.0
2025-07-21T12:00	5820	490	-16.3	-31.4	246	21	4.0
2025-07-21T12:00	5840	489	-16.4	-31.1	246	21	4.0
2025-07-21T12:00	5860	488	-16.6	-31.0	245	21	3.9
2025-07-21T12:00	5880	486	-16.7	-31.0	245	21	3.9
2025-07-21T12:00	5900	485	-16.8	-30.4	245	21	3.9
2025-07-21T12:00	5920	484	-16.9	-28.2	245	21	3.9
2025-07-21T12:00	5940	483	-17.1	-27.5	245	22	3.9
2025-07-21T12:00	5960	481	-17.2	-31.8	245	22	3.9
2025-07-21T12:00	5980	480	-17.1	-37.8	246	22	4.0
2025-07-21T12:00	6000	479	-17.2	-42.2	247	22	4.2
2025-07-21T12:00	6020	478	-17.3	-41.8	247	22	4.4
2025-07-21T12:00	6040	476	-17.3	-41.9	248	23	4.6
2025-07-21T12:00	6060	475	-17.5	-41.4	248	23	4.7
2025-07-21T12:00	6080	474	-17.6	-41.3	247	23	4.8
2025-07-21T12:00	6100	472	-17.7	-41.5	247	24	4.8
2025-07-21T12:00	6120	471	-18.0	-41.2	247	24	4.8
2025-07-21T12:00	6140	470	-18.1	-41.0	247	24	4.8
2025-07-21T12:00	6160	469	-18.3	-40.7	246	24	4.7
2025-07-21T12:00	6180	467	-18.5	-40.3	246	24	4.7
2025-07-21T12:00	6200	466	-18.7	-40.0	245	23	4.7
2025-07-21T12:00	6220	465	-18.8	-39.2	244	23	4.6
2025-07-21T12:00	6240	464	-18.9	-38.0	243	23	4.6
2025-07-21T12:00	6260	462	-19.0	-37.2	243	22	4.6
2025-07-21T12:00	6280	461	-19.2	-36.7	243	22	4.5
2025-07-21T12:00	6300	460	-19.2	-36.4	242	22	4.5
2025-07-21T12:00	6320	459	-19.4	-35.9	242	22	4.4
2025-07-21T12:00	6340	457	-19.6	-33.5	242	22	4.3
2025-07-21T12:00	6360	456	-19.7	-30.7	242	22	4.3
2025-07-21T12:00	6380	455	-19.9	-31.8	241	22	4.2
2025-07-21T12:00	6400	454	-20.2	-32.2	240	21	4.1
2025-07-21T12:00	6420	452	-20.3	-32.1	240	21	4.1
2025-07-21T12:00	6440	451	-20.4	-31.9	239	21	4.1
2025-07-21T12:00	6460	450	-20.6	-32.0	239	21	4.1
2025-07-21T12:00	6480	449	-20.8	-32.0	238	21	4.1
2025-07-21T12:00	6500	448	-20.9	-32.5	238	21	4.1
2025-07-21T12:00	6520	447	-21.1	-32.6	238	21	4.1
2025-07-21T12:00	6540	445	-21.4	-31.9	239	21	4.1
2025-07-21T12:00	6560	444	-21.5	-31.7	239	21	4.1
2025-07-21T12:00	6580	443	-21.6	-31.4	240	21	4.0
2025-07-21T12:00	6600	442	-21.8	-31.4	241	21	4.0
2025-07-21T12:00	6620	440	-21.9	-32.1	241	21	3.9
2025-07-21T12:00	6640	439	-22.1	-32.2	242	20	3.9
2025-07-21T12:00	6660	438	-22.3	-31.8	241	21	3.8
2025-07-21T12:00	6680	437	-22.4	-32.3	242	21	3.8
2025-07-21T12:00	6700	436	-22.5	-32.4	242	21	3.8
2025-07-21T12:00	6720	434	-22.8	-33.0	242	21	3.7
2025-07-21T12:00	6740	433	-22.9	-33.4	243	21	3.7
2025-07-21T12:00	6760	432	-23.0	-33.6	244	21	3.7
2025-07-21T12:00	6780	431	-23.1	-33.5	244	22	3.7
2025-07-21T12:00	6800	430	-23.3	-33.5	245	22	3.7
2025-07-21T12:00	6820	429	-23.5	-33.4	245	22	3.8
2025-07-21T12:00	6840	427	-23.6	-33.3	245	22	3.8
2025-07-21T12:00	6860	426	-23.8	-33.3	245	22	3.8
2025-07-21T12:00	6880	425	-24.0	-33.2	245	23	3.8
2025-07-21T12:00	6900	424	-24.1	-32.7	246	23	3.8
2025-07-21T12:00	6920	423	-24.3	-32.4	246	23	3.8
2025-07-21T12:00	6940	421	-24.5	-32.4	246	23	3.7
2025-07-21T12:00	6960	420	-24.6	-32.5	246	23	3.7
2025-07-21T12:00	6980	419	-24.8	-32.3	246	24	3.7
2025-07-21T12:00	7000	418	-25.1	-32.3	246	24	3.7
2025-07-21T12:00	7020	417	-25.2	-33.4	245	24	3.6
2025-07-21T12:00	7040	416	-25.1	-33.2	245	24	3.5
2025-07-21T12:00	7060	415	-25.3	-32.2	244	24	3.5
2025-07-21T12:00	7080	413	-25.6	-31.6	244	24	3.4
2025-07-21T12:00	7100	412	-25.8	-31.9	244	25	3.3
2025-07-21T12:00	7120	411	-25.9	-32.2	244	25	3.3
2025-07-21T12:00	7140	410	-26.0	-32.1	244	25	3.2
2025-07-21T12:00	7160	409	-26.2	-32.3	244	25	3.2
2025-07-21T12:00	7180	408	-26.4	-32.5	244	25	3.1
2025-07-21T12:00	7200	407	-26.5	-32.7	244	25	3.0
2025-07-21T12:00	7220	406	-26.7	-32.9	244	26	3.0
2025-07-21T12:00	7240	404	-26.9	-32.9	244	26	3.0
2025-07-21T12:00	7260	403	-27.2	-33.0	244	26	2.9
2025-07-21T12:00	7280	402	-27.4	-32.9	244	26	2.9
2025-07-21T12:00	7300	401	-27.5	-33.1	244	26	2.9
2025-07-21T12:00	7320	400	-27.6	-33.4	244	27	2.8
2025-07-21T12:00	7340	399	-27.8	-33.4	244	27	2.8
2025-07-21T12:00	7360	398	-28.1	-33.8	244	27	2.8
2025-07-21T12:00	7380	397	-28.2	-34.4	244	27	2.7
2025-07-21T12:00	7400	396	-28.3	-35.5	243	27	2.7
2025-07-21T12:00	7420	394	-28.4	-36.1	243	27	2.7
2025-07-21T12:00	7440	393	-28.6	-36.3	243	27	2.8
2025-07-21T12:00	7460	392	-28.8	-36.6	243	27	2.8
2025-07-21T12:00	7480	391	-28.9	-37.8	242	26	3.0
2025-07-21T12:00	7500	390	-29.1	-38.4	242	26	3.1
2025-07-21T12:00	7520	389	-29.3	-39.1	242	26	3.2
2025-07-21T12:00	7540	388	-29.3	-40.0	242	26	3.3
2025-07-21T12:00	7560	387	-29.4	-40.8	243	26	3.4
2025-07-21T12:00	7580	386	-29.7	-40.9	243	25	3.5
2025-07-21T12:00	7600	385	-29.8	-41.2	243	25	3.5
2025-07-21T12:00	7620	384	-29.9	-41.3	244	25	3.6
2025-07-21T12:00	7640	382	-30.1	-41.6	244	25	3.6
2025-07-21T12:00	7660	381	-30.4	-41.9	244	25	3.6
2025-07-21T12:00	7680	380	-30.6	-42.2	245	25	3.7
2025-07-21T12:00	7700	379	-30.8	-42.8	244	24	3.7
2025-07-21T12:00	7720	378	-30.9	-42.5	244	24	3.7
2025-07-21T12:00	7740	377	-31.1	-42.9	244	24	3.7
2025-07-21T12:00	7760	376	-31.4	-42.8	243	24	3.7
2025-07-21T12:00	7780	375	-31.6	-42.9	243	24	3.7
2025-07-21T12:00	7800	374	-31.7	-43.4	243	24	3.7
2025-07-21T12:00	7820	373	-31.9	-43.2	243	24	3.7
2025-07-21T12:00	7840	372	-32.1	-43.3	243	24	3.7
2025-07-21T12:00	7860	371	-32.3	-43.5	243	24	3.7
2025-07-21T12:00	7880	370	-32.5	-43.6	243	24	3.7
2025-07-21T12:00	7900	369	-32.8	-43.3	243	24	3.7
2025-07-21T12:00	7920	368	-32.9	-43.2	243	24	3.6
2025-07-21T12:00	7940	367	-33.1	-43.5	242	24	3.6
2025-07-21T12:00	7960	365	-33.3	-43.5	242	24	3.6
2025-07-21T12:00	7980	364	-33.4	-43.4	242	24	3.6
2025-07-21T12:00	8000	364	-33.5	-43.5	242	25	3.6
2025-07-21T12:00	8020	363	-33.8	-43.5	242	25	3.6
2025-07-21T12:00	8040	361	-34.0	-43.3	242	25	3.5
2025-07-21T12:00	8060	360	-34.1	-43.5	242	25	3.5
2025-07-21T12:00	8080	359	-34.3	-43.7	243	25	3.5
2025-07-21T12:00	8100	358	-34.6	-43.4	243	25	3.5
2025-07-21T12:00	8120	357	-34.8	-43.2	243	25	3.5
2025-07-21T12:00	8140	356	-35.0	-43.4	244	25	3.5
2025-07-21T12:00	8160	355	-35.1	-43.6	244	25	3.6
2025-07-21T12:00	8180	354	-35.2	-43.9	245	26	3.6
2025-07-21T12:00	8200	353	-35.5	-43.9	245	26	3.6
2025-07-21T12:00	8220	352	-35.7	-43.8	245	26	3.5
2025-07-21T12:00	8240	351	-35.8	-43.9	245	26	3.6
2025-07-21T12:00	8260	350	-36.0	-43.9	245	26	3.6
2025-07-21T12:00	8280	349	-36.2	-43.6	244	26	3.6
2025-07-21T12:00	8300	348	-36.4	-43.6	244	27	3.6
2025-07-21T12:00	8320	347	-36.5	-43.8	244	27	3.6
2025-07-21T12:00	8340	346	-36.6	-44.8	244	27	3.6
2025-07-21T12:00	8360	345	-36.9	-45.3	244	27	3.6
2025-07-21T12:00	8380	344	-37.0	-45.2	244	27	3.7
2025-07-21T12:00	8400	343	-37.2	-44.2	244	27	3.7
2025-07-21T12:00	8420	342	-37.4	-43.8	244	27	3.8
2025-07-21T12:00	8440	341	-37.5	-47.3	244	27	3.8
2025-07-21T12:00	8460	340	-37.6	-47.7	244	28	3.8
2025-07-21T12:00	8480	339	-37.7	-46.4	244	28	3.9
2025-07-21T12:00	8500	338	-37.9	-45.9	244	28	4.0
2025-07-21T12:00	8520	337	-38.1	-46.2	244	29	4.0
2025-07-21T12:00	8540	336	-38.1	-46.9	243	29	4.0
2025-07-21T12:00	8560	335	-38.3	-47.3	243	30	4.0
2025-07-21T12:00	8580	334	-38.4	-47.2	243	30	3.9
2025-07-21T12:00	8600	333	-38.5	-47.4	243	30	3.9
2025-07-21T12:00	8620	332	-38.8	-47.6	243	31	3.9
2025-07-21T12:00	8640	331	-39.0	-47.4	242	31	3.9
2025-07-21T12:00	8660	330	-39.1	-47.6	242	31	3.9
2025-07-21T12:00	8680	329	-39.2	-48.3	242	32	3.8
2025-07-21T12:00	8700	329	-39.3	-49.1	242	32	3.8
2025-07-21T12:00	8720	328	-39.4	-49.6	242	32	3.8
2025-07-21T12:00	8740	327	-39.6	-49.3	242	33	3.8
2025-07-21T12:00	8760	326	-39.7	-49.4	242	33	3.8
2025-07-21T12:00	8780	325	-39.8	-50.0	242	33	3.9
2025-07-21T12:00	8800	324	-40.0	-49.7	242	33	3.9
2025-07-21T12:00	8820	323	-40.1	-49.7	241	33	3.9
2025-07-21T12:00	8840	322	-40.2	-50.3	241	33	4.0
2025-07-21T12:00	8860	321	-40.2	-50.7	241	32	4.2
2025-07-21T12:00	8880	320	-40.3	-50.7	241	32	4.5
2025-07-21T12:00	8900	319	-40.4	-50.5	242	31	4.8
2025-07-21T12:00	8920	318	-40.6	-50.7	243	31	5.0
2025-07-21T12:00	8940	317	-40.8	-50.4	244	31	5.1
2025-07-21T12:00	8960	316	-40.9	-50.6	245	31	5.2
2025-07-21T12:00	8980	315	-41.0	-51.1	245	31	5.3
2025-07-21T12:00	9000	314	-41.1	-51.2	246	31	5.4
2025-07-21T12:00	9020	314	-41.2	-51.3	246	32	5.5
2025-07-21T12:00	9040	313	-41.4	-51.2	246	32	5.6
2025-07-21T12:00	9060	312	-41.5	-51.6	246	32	5.7
2025-07-21T12:00	9080	311	-41.4	-52.6	245	32	5.7
2025-07-21T12:00	9100	310	-41.5	-52.9	245	32	5.8
2025-07-21T12:00	9120	309	-41.6	-52.9	244	32	5.9
2025-07-21T12:00	9140	308	-41.8	-52.9	244	33	6.0
2025-07-21T12:00	9160	307	-41.9	-52.8	243	33	6.0
2025-07-21T12:00	9180	306	-41.9	-53.1	243	33	6.0
2025-07-21T12:00	9200	305	-42.0	-53.3	243	33	6.1
2025-07-21T12:00	9220	304	-42.0	-53.6	242	34	6.1
2025-07-21T12:00	9240	304	-42.2	-53.8	242	34	6.2
2025-07-21T12:00	9260	303	-42.1	-53.5	242	35	6.3
2025-07-21T12:00	9280	302	-41.9	-53.2	242	36	6.3
2025-07-21T12:00	9300	301	-42.0	-53.3	243	36	6.3
2025-07-21T12:00	9320	300	-42.1	-53.2	243	37	6.3
2025-07-21T12:00	9340	299	-42.1	-53.3	244	38	6.2
2025-07-21T12:00	9360	298	-42.2	-53.7	244	38	6.1
2025-07-21T12:00	9380	297	-42.3	-53.7	244	39	6.1
2025-07-21T12:00	9400	296	-42.4	-53.8	245	39	6.0
2025-07-21T12:00	9420	295	-42.6	-54.1	245	39	5.8
2025-07-21T12:00	9440	295	-42.7	-54.3	246	39	5.8
2025-07-21T12:00	9460	294	-42.8	-54.5	246	39	5.7
2025-07-21T12:00	9480	293	-42.9	-54.8	246	39	5.6
2025-07-21T12:00	9500	292	-43.0	-54.6	246	39	5.6
2025-07-21T12:00	9520	291	-43.1	-55.1	246	39	5.6
2025-07-21T12:00	9540	290	-43.1	-55.5	247	39	5.6
2025-07-21T12:00	9560	289	-43.3	-55.8	247	39	5.7
2025-07-21T12:00	9580	289	-43.4	-55.6	248	39	5.7
2025-07-21T12:00	9600	288	-43.5	-56.0	248	39	5.7
2025-07-21T12:00	9620	287	-43.5	-56.3	249	39	5.8
2025-07-21T12:00	9640	286	-43.7	-56.5	249	39	5.8
2025-07-21T12:00	9660	285	-43.8	-56.3	250	38	5.9
2025-07-21T12:00	9680	284	-43.9	-57.0	250	38	5.9
2025-07-21T12:00	9700	283	-43.8	-57.8	250	38	6.0
2025-07-21T12:00	9720	282	-43.9	-58.2	249	37	6.0
2025-07-21T12:00	9740	282	-43.9	-58.0	249	37	6.1
2025-07-21T12:00	9760	281	-44.0	-57.9	249	37	6.2
2025-07-21T12:00	9780	280	-44.0	-58.3	248	36	6.3
2025-07-21T12:00	9800	279	-44.0	-59.2	248	36	6.4
2025-07-21T12:00	9820	278	-43.7	-60.4	248	36	6.5
2025-07-21T12:00	9840	278	-43.6	-60.7	247	36	6.6
2025-07-21T12:00	9860	277	-43.6	-60.3	247	35	6.8
2025-07-21T12:00	9880	276	-43.7	-60.3	247	35	6.9
2025-07-21T12:00	9900	275	-43.7	-60.6	247	35	7.0
2025-07-21T12:00	9920	274	-43.8	-60.6	247	34	7.2
2025-07-21T12:00	9940	273	-43.8	-61.0	247	34	7.3
2025-07-21T12:00	9960	273	-43.7	-61.3	247	33	7.5
2025-07-21T12:00	9980	272	-43.7	-61.4	246	33	7.6
2025-07-21T12:00	10000	271	-43.6	-62.4	245	32	7.8
2025-07-21T12:00	10018	270	-43.4	-63.4	245	32	7.8
2025-07-21T12:00	10050	269	-43.0	-65.0	244	31	8.0
2025-07-21T12:00	10100	267	-42.8	-66.0	243	31	8.3
2025-07-21T12:00	10150	265	-42.7	-65.9	243	31	8.8
2025-07-21T12:00	10200	263	-42.7	-66.7	243	31	9.1
2025-07-21T12:00	10250	261	-42.0	-69.6	242	31	9.5
2025-07-21T12:00	10300	259	-41.8	-70.1	241	31	9.9
2025-07-21T12:00	10350	257	-41.2	-71.7	241	30	10.2
2025-07-21T12:00	10400	256	-41.2	-71.5	241	30	10.4
2025-07-21T12:00	10450	253	-41.4	-71.7	240	30	10.3
2025-07-21T12:00	10500	252	-41.3	-71.7	240	30	10.2
2025-07-21T12:00	10550	250	-41.0	-72.0	239	31	9.9
2025-07-21T12:00	10600	248	-41.3	-72.1	239	31	9.7
2025-07-21T12:00	10650	246	-41.6	-72.9	239	31	9.5
2025-07-21T12:00	10700	244	-41.5	-73.9	241	32	9.5
2025-07-21T12:00	10750	243	-41.7	-74.4	242	32	9.7
2025-07-21T12:00	10800	241	-41.7	-74.4	242	32	10.0
2025-07-21T12:00	10850	239	-41.7	-74.6	242	32	10.1
2025-07-21T12:00	10900	237	-41.7	-74.8	241	31	10.2
2025-07-21T12:00	10950	236	-41.7	-75.1	240	31	10.2
2025-07-21T12:00	11000	234	-41.8	-75.1	240	30	10.1
2025-07-21T12:00	11050	232	-42.1	-75.4	240	30	10.1
2025-07-21T12:00	11100	230	-42.2	-75.4	240	30	10.1
2025-07-21T12:00	11150	229	-42.5	-75.9	239	29	10.1
2025-07-21T12:00	11200	227	-42.4	-76.0	238	28	10.1
2025-07-21T12:00	11250	225	-42.5	-76.5	237	28	10.0
2025-07-21T12:00	11300	224	-42.8	-76.6	235	27	10.0
2025-07-21T12:00	11350	222	-42.7	-76.7	234	27	10.0
2025-07-21T12:00	11400	220	-42.4	-76.9	232	26	10.0
2025-07-21T12:00	11450	219	-42.3	-77.0	231	26	10.0
2025-07-21T12:00	11500	217	-42.5	-77.2	230	27	10.0
2025-07-21T12:00	11550	216	-42.5	-77.1	230	27	9.9
2025-07-21T12:00	11600	214	-42.5	-77.2	229	27	9.8
2025-07-21T12:00	11650	212	-42.8	-77.3	228	28	9.5
2025-07-21T12:00	11700	211	-43.1	-77.3	226	28	9.4
2025-07-21T12:00	11750	209	-43.3	-77.2	226	28	9.3
2025-07-21T12:00	11800	208	-43.4	-77.2	226	28	9.1
2025-07-21T12:00	11850	206	-43.6	-77.6	227	28	9.0
2025-07-21T12:00	11900	205	-43.9	-77.8	227	28	8.9
2025-07-21T12:00	11950	203	-44.1	-78.0	226	28	8.8
2025-07-21T12:00	12000	202	-44.3	-78.2	225	28	8.7
2025-07-21T12:00	12050	200	-44.4	-78.1	225	28	8.6
2025-07-21T12:00	12100	199	-44.7	-78.3	225	28	8.6
2025-07-21T12:00	12150	197	-45.1	-78.6	225	28	8.5
2025-07-21T12:00	12200	196	-45.4	-78.6	226	28	8.5
2025-07-21T12:00	12250	194	-45.4	-78.8	225	28	8.4
2025-07-21T12:00	12300	193	-45.5	-79.0	225	28	8.4
2025-07-21T12:00	12350	191	-45.7	-79.1	224	29	8.4
2025-07-21T12:00	12400	190	-45.9	-79.1	225	30	8.3
2025-07-21T12:00	12450	189	-46.1	-79.3	225	30	8.3
2025-07-21T12:00	12500	187	-46.2	-79.4	225	30	8.3
2025-07-21T12:00	12550	186	-46.5	-79.6	225	30	8.3
2025-07-21T12:00	12600	184	-46.8	-79.7	226	29	8.3
2025-07-21T12:00	12650	183	-47.1	-79.8	228	29	8.3
2025-07-21T12:00	12700	181	-47.3	-80.0	229	29	8.4
2025-07-21T12:00	12750	180	-47.6	-80.1	230	29	8.4
2025-07-21T12:00	12800	179	-47.8	-80.1	232	28	8.2
2025-07-21T12:00	12850	177	-47.8	-80.4	233	27	8.1
2025-07-21T12:00	12900	176	-48.1	-80.5	232	27	8.1
2025-07-21T12:00	12950	175	-48.5	-80.7	232	26	8.0
2025-07-21T12:00	13000	173	-48.8	-80.9	233	26	7.9
2025-07-21T12:00	13050	172	-49.0	-81.0	235	26	8.0
2025-07-21T12:00	13100	171	-49.2	-81.1	237	26	8.0
2025-07-21T12:00	13150	170	-49.6	-81.2	239	25	8.0
2025-07-21T12:00	13200	168	-49.7	-81.4	241	25	7.9
2025-07-21T12:00	13250	167	-49.6	-81.5	242	25	8.0
2025-07-21T12:00	13300	166	-49.9	-81.5	242	24	8.0
2025-07-21T12:00	13350	164	-50.0	-81.5	243	23	7.9
2025-07-21T12:00	13400	163	-50.0	-81.8	243	23	7.9
2025-07-21T12:00	13450	162	-49.8	-81.9	242	22	7.7
2025-07-21T12:00	13500	161	-49.3	-81.6	240	22	7.5
2025-07-21T12:00	13550	159	-49.4	-81.5	239	23	7.3
2025-07-21T12:00	13600	158	-49.7	-81.7	240	23	7.1
2025-07-21T12:00	13650	157	-49.6	-81.7	241	23	6.8
2025-07-21T12:00	13700	156	-49.8	-81.7	241	24	6.7
2025-07-21T12:00	13750	155	-50.1	-81.8	242	24	6.6
2025-07-21T12:00	13800	153	-49.5	-81.8	243	24	6.3
2025-07-21T12:00	13850	152	-49.5	-81.9	242	24	6.5
2025-07-21T12:00	13900	151	-49.6	-82.0	243	25	6.6
2025-07-21T12:00	13950	150	-49.4	-82.2	245	25	6.9
2025-07-21T12:00	14000	149	-49.0	-82.3	247	23	7.3
2025-07-21T12:00	14050	148	-48.9	-82.1	247	22	7.6
2025-07-21T12:00	14100	147	-48.9	-82.3	246	21	7.7
2025-07-21T12:00	14150	145	-48.5	-82.1	246	20	7.9
2025-07-21T12:00	14200	144	-47.8	-82.2	244	18	8.0
2025-07-21T12:00	14250	143	-47.7	-82.2	242	17	8.0
2025-07-21T12:00	14300	142	-47.9	-82.3	240	17	8.0
2025-07-21T12:00	14350	141	-48.2	-81.9	237	16	7.9
2025-07-21T12:00	14400	140	-48.6	-81.9	234	16	7.9
2025-07-21T12:00	14450	139	-49.1	-82.2	230	16	7.9
2025-07-21T12:00	14500	138	-49.4	-82.3	227	15	8.0
2025-07-21T12:00	14550	137	-49.8	-82.5	224	15	7.9
2025-07-21T12:00	14600	136	-50.2	-82.5	222	15	7.9
2025-07-21T12:00	14650	135	-50.7	-82.7	222	15	7.9
2025-07-21T12:00	14700	134	-51.1	-82.9	222	16	7.9
2025-07-21T12:00	14750	133	-51.4	-82.9	220	16	8.0
2025-07-21T12:00	14800	132	-51.6	-83.1	218	17	8.0
2025-07-21T12:00	14850	131	-51.6	-83.3	218	18	8.0
2025-07-21T12:00	14900	130	-51.5	-83.4	220	18	8.0
2025-07-21T12:00	14950	129	-51.1	-83.3	222	18	7.9
2025-07-21T12:00	15000	128	-50.9	-83.3	223	18	7.9
2025-07-21T12:00	15050	127	-50.9	-83.3	225	18	7.9
2025-07-21T12:00	15100	126	-51.0	-83.3	227	18	7.9
2025-07-21T12:00	15150	125	-50.8	-83.4	229	17	7.8
2025-07-21T12:00	15200	124	-50.6	-83.3	232	16	7.6
2025-07-21T12:00	15250	123	-50.6	-83.3	236	15	7.8
2025-07-21T12:00	15300	122	-50.7	-83.4	238	14	7.9
2025-07-21T12:00	15350	121	-50.7	-83.3	238	13	8.1
2025-07-21T12:00	15400	120	-51.0	-83.3	235	13	8.2
2025-07-21T12:00	15450	119	-51.3	-83.6	233	13	8.2
2025-07-21T12:00	15500	118	-51.0	-83.5	232	13	8.0
2025-07-21T12:00	15550	117	-51.3	-83.6	229	13	7.8
2025-07-21T12:00	15600	117	-51.5	-83.6	225	13	7.7
2025-07-21T12:00	15650	116	-51.6	-83.7	219	13	7.6
2025-07-21T12:00	15700	115	-51.7	-83.6	215	12	7.5
2025-07-21T12:00	15750	114	-52.1	-83.6	213	11	7.5
2025-07-21T12:00	15800	113	-52.4	-83.7	210	11	7.5
2025-07-21T12:00	15850	112	-52.8	-84.0	210	11	7.4
2025-07-21T12:00	15900	111	-53.3	-84.1	211	12	7.4
2025-07-21T12:00	15950	110	-53.6	-84.2	215	13	7.4
2025-07-21T12:00	16000	110	-53.7	-84.4	223	14	7.3
2025-07-21T12:00	16050	109	-52.9	-84.1	230	15	7.2
2025-07-21T12:00	16100	108	-53.0	-84.3	234	15	7.2
2025-07-21T12:00	16150	107	-53.2	-84.3	237	17	7.2
2025-07-21T12:00	16200	106	-53.6	-84.4	238	18	7.3
2025-07-21T12:00	16250	105	-53.6	-84.4	239	19	7.2
2025-07-21T12:00	16300	105	-53.9	-84.6	240	20	7.2
2025-07-21T12:00	16350	104	-53.8	-84.8	244	19	7.2
2025-07-21T12:00	16400	103	-53.1	-84.9	249	17	7.3
2025-07-21T12:00	16450	102	-52.0	-84.6	252	15	7.3
2025-07-21T12:00	16500	101	-52.0	-84.6	253	13	7.4
2025-07-21T12:00	16550	101	-52.1	-84.5	253	12	7.5
2025-07-21T12:00	16600	100	-52.2	-84.4	251	10	7.6
2025-07-21T12:00	16650	99	-52.4	-84.3	247	8	7.7
2025-07-21T12:00	16700	98	-52.8	-84.4	246	7	7.7
2025-07-21T12:00	16750	98	-53.0	-84.3	245	6	7.7
2025-07-21T12:00	16800	97	-53.4	-84.4	241	6	7.6
2025-07-21T12:00	16850	96	-53.8	-84.6	231	5	7.6
2025-07-21T12:00	16900	95	-54.2	-84.8	217	6	7.5
2025-07-21T12:00	16950	94	-54.6	-84.8	209	7	7.5
2025-07-21T12:00	17000	94	-55.0	-84.8	205	8	7.4
2025-07-21T12:00	17050	93	-55.5	-84.9	204	9	7.4
2025-07-21T12:00	17100	92	-55.7	-85.1	203	10	7.4
2025-07-21T12:00	17150	92	-56.1	-85.3	204	11	7.3
2025-07-21T12:00	17200	91	-56.4	-85.4	207	12	7.1
2025-07-21T12:00	17250	90	-56.6	-85.6	210	13	7.0
2025-07-21T12:00	17300	89	-56.6	-85.7	212	13	6.9
2025-07-21T12:00	17350	89	-56.7	-85.8	211	14	6.9
2025-07-21T12:00	17400	88	-56.0	-85.9	209	15	6.8
2025-07-21T12:00	17450	87	-55.4	-85.8	209	15	6.9
2025-07-21T12:00	17500	87	-55.3	-85.7	212	14	7.1
2025-07-21T12:00	17550	86	-55.4	-85.6	215	14	7.0
2025-07-21T12:00	17600	85	-55.7	-85.7	221	14	7.0
2025-07-21T12:00	17650	85	-55.6	-85.8	227	14	7.0
2025-07-21T12:00	17700	84	-55.3	-85.8	233	13	7.1
2025-07-21T12:00	17750	83	-55.2	-85.8	238	12	7.1
2025-07-21T12:00	17800	83	-55.0	-86.0	239	10	7.1
2025-07-21T12:00	17850	82	-53.7	-86.0	238	7	7.1
2025-07-21T12:00	17900	81	-52.6	-85.7	237	4	7.2
2025-07-21T12:00	17950	81	-52.3	-85.5	226	2	7.3
2025-07-21T12:00	18000	80	-52.3	-85.3	196	2	7.5
2025-07-21T12:00	18050	80	-52.6	-85.3	171	2	7.5
2025-07-21T12:00	18100	79	-52.6	-85.1	171	2	7.6
2025-07-21T12:00	18150	78	-52.7	-85.2	181	3	7.6
2025-07-21T12:00	18200	78	-53.0	-85.2	190	3	7.6
2025-07-21T12:00	18250	77	-53.4	-85.2	197	3	7.6
2025-07-21T12:00	18300	76	-53.8	-85.2	207	4	7.6
2025-07-21T12:00	18350	76	-54.2	-85.4	218	5	7.6
2025-07-21T12:00	18400	75	-54.5	-85.5	228	5	7.6
2025-07-21T12:00	18450	75	-54.7	-85.6	235	5	7.7
2025-07-21T12:00	18500	74	-54.9	-85.8	237	5	7.7
2025-07-21T12:00	18550	74	-54.9	-86.0	238	5	7.8
2025-07-21T12:00	18600	73	-54.7	-86.0	244	5	7.8
2025-07-21T12:00	18650	72	-54.5	-85.9	254	5	7.9
2025-07-21T12:00	18700	72	-54.5	-85.9	259	4	8.0
2025-07-21T12:00	18750	71	-54.6	-85.9	257	4	8.1
2025-07-21T12:00	18800	71	-54.7	-85.8	251	3	8.2
2025-07-21T12:00	18850	70	-55.1	-85.9	249	3	8.2
2025-07-21T12:00	18900	70	-55.4	-86.0	254	3	8.2
2025-07-21T12:00	18950	69	-55.4	-86.0	270	2	8.3
2025-07-21T12:00	19000	69	-55.4	-86.1	282	2	8.3
2025-07-21T12:00	19050	68	-55.4	-86.3	279	2	8.4
2025-07-21T12:00	19100	67	-54.8	-86.3	254	1	8.4
2025-07-21T12:00	19150	67	-54.4	-86.2	107	1	8.6
2025-07-21T12:00	19200	66	-54.6	-86.2	103	3	8.8
2025-07-21T12:00	19250	66	-54.4	-86.0	108	5	8.8
2025-07-21T12:00	19300	65	-54.5	-86.2	117	6	8.9
2025-07-21T12:00	19350	65	-54.4	-86.1	132	6	8.9
2025-07-21T12:00	19400	64	-54.4	-86.1	143	7	8.9
2025-07-21T12:00	19450	64	-54.4	-86.1	149	8	8.9
2025-07-21T12:00	19500	63	-54.2	-86.2	155	8	9.0
2025-07-21T12:00	19550	63	-53.7	-86.1	161	9	9.1
2025-07-21T12:00	19600	62	-53.6	-86.0	167	9	9.3
2025-07-21T12:00	19650	62	-53.8	-86.0	173	9	9.6
2025-07-21T12:00	19700	61	-53.9	-85.9	178	10	9.6
2025-07-21T12:00	19750	61	-54.0	-86.0	182	10	9.6
2025-07-21T12:00	19800	61	-53.8	-86.1	185	10	9.7
2025-07-21T12:00	19850	60	-53.3	-85.9	187	10	9.8
2025-07-21T12:00	19900	60	-53.1	-85.8	189	10	10.0
2025-07-21T12:00	19950	59	-53.4	-85.8	191	10	10.2
2025-07-21T12:00	20000	59	-53.6	-85.8	195	10	10.3
2025-07-21T12:00	20050	58	-53.7		198	10	10.4
2025-07-21T12:00	20100	58	-53.7		198	9	10.6
2025-07-21T12:00	20150	57	-53.9		195	8	10.6
2025-07-21T12:00	20200	57	-54.1		193	7	10.8
2025-07-21T12:00	20250	56	-53.9		195	6	10.8
2025-07-21T12:00	20300	56	-53.7		193	5	10.9
2025-07-21T12:00	20350	56	-53.8		178	5	11.0
2025-07-21T12:00	20400	55	-53.6		164	5	11.1
2025-07-21T12:00	20450	55	-53.6		156	5	11.2
2025-07-21T12:00	20500	54	-53.3		157	4	11.3
2025-07-21T12:00	20550	54	-52.9		170	3	11.6
2025-07-21T12:00	20600	53	-52.9		187	3	11.8
2025-07-21T12:00	20650	53	-52.8		195	3	12.0
2025-07-21T12:00	20700	53	-52.3		192	3	12.2
2025-07-21T12:00	20750	52	-52.4		197	2	12.5
2025-07-21T12:00	20800	52	-52.6		210	1	12.7
2025-07-21T12:00	20850	51	-52.3		103	0	12.8
2025-07-21T12:00	20900	51	-52.3		78	2	13.0
2025-07-21T12:00	20950	51	-52.5		80	4	13.1
2025-07-21T12:00	21000	50	-52.6		80	6	13.2
2025-07-21T12:00	21050	50	-52.6		84	7	13.2
2025-07-21T12:00	21100	49	-52.6		92	7	13.3
2025-07-21T12:00	21150	49	-52.6		102	7	13.3
2025-07-21T12:00	21200	49	-52.7		112	6	13.2
2025-07-21T12:00	21250	48	-52.8		119	5	13.1
2025-07-21T12:00	21300	48	-52.8		122	4	13.0
2025-07-21T12:00	21350	48	-52.8		122	3	13.0
2025-07-21T12:00	21400	47	-53.0		128	2	12.9
2025-07-21T12:00	21450	47	-53.2		137	2	12.8
2025-07-21T12:00	21500	46	-53.3		119	1	12.8
2025-07-21T12:00	21550	46	-53.1		93	2	12.8
2025-07-21T12:00	21600	46	-52.9		88	4	12.8
2025-07-21T12:00	21650	45	-52.8		94	6	12.9
2025-07-21T12:00	21700	45	-52.8		102	6	13.0
2025-07-21T12:00	21750	45	-53.1		110	7	13.0
2025-07-21T12:00	21800	44	-53.0		115	7	13.1
2025-07-21T12:00	21850	44	-52.9		119	6	13.1
2025-07-21T12:00	21900	44	-52.9		124	5	13.1
2025-07-21T12:00	21950	43	-53.0		125	4	13.2
2025-07-21T12:00	22000	43	-53.1		113	4	13.4
2025-07-21T12:00	22050	43	-53.1		98	4	13.4
2025-07-21T12:00	22100	42	-53.1		95	6	13.5
2025-07-21T12:00	22150	42	-53.3		98	7	13.5
2025-07-21T12:00	22200	42	-53.5		103	8	13.5
2025-07-21T12:00	22250	41	-53.6		109	8	13.4
2025-07-21T12:00	22300	41	-53.4		116	9	13.4
2025-07-21T12:00	22350	41	-53.2		123	8	13.4
2025-07-21T12:00	22400	40	-53.1		127	8	13.5
2025-07-21T12:00	22450	40	-53.1		128	7	13.5
2025-07-21T12:00	22500	40	-52.9		126	6	13.5
2025-07-21T12:00	22550	39	-52.7		122	6	13.4
2025-07-21T12:00	22600	39	-52.6		123	7	13.4
2025-07-21T12:00	22650	39	-52.6		126	8	13.4
2025-07-21T12:00	22700	39	-52.6		128	9	13.3
2025-07-21T12:00	22750	38	-52.7		130	10	13.2
2025-07-21T12:00	22800	38	-52.7		132	9	13.2
2025-07-21T12:00	22850	38	-52.9		133	8	13.2
2025-07-21T12:00	22900	37	-52.9		129	7	13.1
2025-07-21T12:00	22950	37	-52.9		121	7	13.1
2025-07-21T12:00	23000	37	-52.4		113	7	13.1
2025-07-21T12:00	23050	37	-52.1		112	7	13.1
2025-07-21T12:00	23100	36	-51.9		117	8	13.2
2025-07-21T12:00	23150	36	-51.9		125	8	13.2
2025-07-21T12:00	23200	36	-51.7		127	7	13.0
2025-07-21T12:00	23250	35	-51.4		123	6	12.9
2025-07-21T12:00	23300	35	-51.2		121	7	12.8
2025-07-21T12:00	23350	35	-51.2		123	8	12.8
2025-07-21T12:00	23400	35	-51.2		127	10	12.7
2025-07-21T12:00	23450	34	-51.3		129	11	12.7
2025-07-21T12:00	23500	34	-51.4		126	11	12.7
2025-07-21T12:00	23550	34	-51.1		121	11	12.7
2025-07-21T12:00	23600	34	-51.2		117	10	12.9
2025-07-21T12:00	23650	33	-51.2		115	9	12.8
2025-07-21T12:00	23700	33	-51.4		111	8	12.8
2025-07-21T12:00	23750	33	-51.6		107	8	12.8
2025-07-21T12:00	23800	33	-51.7		105	8	12.8
2025-07-21T12:00	23850	32	-51.3		107	8	12.9
2025-07-21T12:00	23900	32	-51.0		111	10	12.9
2025-07-21T12:00	23950	32	-50.8		116	11	13.1
2025-07-21T12:00	24000	32	-50.4		121	10	13.2
2025-07-21T12:00	24050	31	-50.1		123	9	13.4
2025-07-21T12:00	24100	31	-49.6		117	9	13.7
2025-07-21T12:00	24150	31	-49.4		110	10	14.0
2025-07-21T12:00	24200	31	-49.3		109	11	14.2
2025-07-21T12:00	24250	30	-49.0		113	12	14.3
2025-07-21T12:00	24300	30	-48.9		121	11	14.4
2025-07-21T12:00	24350	30	-49.0		131	10	14.3
2025-07-21T12:00	24400	30	-49.0		138	10	14.3
2025-07-21T12:00	24450	29	-48.8		144	10	14.3
2025-07-21T12:00	24500	29	-48.9		150	9	14.3
2025-07-21T12:00	24550	29	-49.0		155	9	14.3
2025-07-21T12:00	24600	29	-48.9		157	8	14.2
2025-07-21T12:00	24650	29	-48.7		155	6	14.1
2025-07-21T12:00	24700	28	-48.7		148	5	14.1
2025-07-21T12:00	24750	28	-48.5		136	5	14.0
2025-07-21T12:00	24800	28	-48.5		125	5	14.0
2025-07-21T12:00	24850	28	-48.6		113	5	13.9
2025-07-21T12:00	24900	28	-48.6		101	6	13.9
2025-07-21T12:00	24950	27	-48.7		94	6	13.9
2025-07-21T12:00	25000	27	-48.7		95	7	13.8
2025-07-21T12:00	25050	27	-48.7		102	8	13.7
2025-07-21T12:00	25100	27	-48.9		110	10	13.6
2025-07-21T12:00	25150	26	-48.9		115	11	13.6
2025-07-21T12:00	25200	26	-49.0		121	12	13.6
2025-07-21T12:00	25250	26	-49.0		129	12	13.5
2025-07-21T12:00	25300	26	-48.9		137	10	13.4
2025-07-21T12:00	25350	26	-48.7		142	9	13.4
2025-07-21T12:00	25400	26	-48.2		145	7	13.4
2025-07-21T12:00	25450	25	-48.0		147	5	13.4
2025-07-21T12:00	25500	25	-47.8		138	4	13.4
2025-07-21T12:00	25550	25	-47.8		112	4	13.3
2025-07-21T12:00	25600	25	-47.6		92	5	13.3
2025-07-21T12:00	25650	25	-47.5		86	6	13.3
2025-07-21T12:00	25700	24	-47.4		82	7	13.4
2025-07-21T12:00	25750	24	-47.4		80	8	13.4
2025-07-21T12:00	25800	24	-47.3		78	10	13.4
2025-07-21T12:00	25850	24	-47.3		76	11	13.5
2025-07-21T12:00	25900	24	-47.6		74	12	13.5
2025-07-21T12:00	25950	23	-47.6		73	13	13.5
2025-07-21T12:00	26000	23	-47.3		76	13	13.5
2025-07-21T12:00	26050	23	-47.2		81	13	13.4
2025-07-21T12:00	26100	23	-47.4		86	12	13.2
2025-07-21T12:00	26150	23	-47.6		90	12	13.0
2025-07-21T12:00	26200	23	-48.0		95	11	13.0
2025-07-21T12:00	26250	22	-48.2		103	11	12.9
2025-07-21T12:00	26300	22	-48.4		110	11	12.8
2025-07-21T12:00	26350	22	-48.4		111	11	12.7
2025-07-21T12:00	26400	22	-47.8		107	10	12.6
2025-07-21T12:00	26450	22	-47.3		103	10	12.5
2025-07-21T12:00	26500	22	-47.2		106	10	12.5
2025-07-21T12:00	26550	21	-47.1		109	10	12.5
2025-07-21T12:00	26600	21	-47.2		108	9	12.6
2025-07-21T12:00	26650	21	-47.2		106	9	12.6
2025-07-21T12:00	26700	21	-47.1		106	9	12.6
2025-07-21T12:00	26750	21	-47.0		105	9	12.5
2025-07-21T12:00	26800	21	-46.8		98	10	12.4
2025-07-21T12:00	26850	20	-46.6		89	11	12.5
2025-07-21T12:00	26900	20	-46.6		84	12	12.4
2025-07-21T12:00	26950	20	-46.7		83	13	12.5
2025-07-21T12:00	27000	20	-46.8		86	13	12.5
2025-07-21T12:00	27050	20	-46.7		92	13	12.5
2025-07-21T12:00	27100	20	-46.8		100	13	12.6
2025-07-21T12:00	27150	20	-46.7		107	12	12.3
2025-07-21T12:00	27200	19	-46.7		112	11	12.3
2025-07-21T12:00	27250	19	-46.7		116	10	12.2
2025-07-21T12:00	27300	19	-46.6		117	10	12.1
2025-07-21T12:00	27350	19	-46.5		117	10	12.1
2025-07-21T12:00	27400	19	-46.6		116	10	12.1
2025-07-21T12:00	27450	19	-46.5		114	11	12.2
2025-07-21T12:00	27500	19	-46.5		112	11	12.2
2025-07-21T12:00	27550	18	-46.7		112	12	12.1
2025-07-21T12:00	27600	18	-46.8		112	12	12.1
2025-07-21T12:00	27650	18	-46.6		111	12	12.1
2025-07-21T12:00	27700	18	-46.5		111	13	12.2
2025-07-21T12:00	27750	18	-46.2		112	15	12.2
2025-07-21T12:00	27800	18	-46.1		114	16	12.2
2025-07-21T12:00	27850	18	-46.1		113	16	12.2
2025-07-21T12:00	27900	17	-45.9		112	16	12.3
2025-07-21T12:00	27950	17	-45.6		110	14	12.3
2025-07-21T12:00	28000	17	-45.7		108	14	12.4
2025-07-21T12:00	28050	17	-45.8		106	13	12.4
2025-07-21T12:00	28100	17	-46.0		104	14	12.2
2025-07-21T12:00	28150	17	-46.1		102	14	12.1
2025-07-21T12:00	28200	17	-46.0		102	15	12.2
2025-07-21T12:00	28250	17	-46.0		103	16	12.1
2025-07-21T12:00	28300	16	-46.0		105	16	12.1
2025-07-21T12:00	28350	16	-45.8		106	16	12.0
2025-07-21T12:00	28400	16	-45.7		106	15	11.8
2025-07-21T12:00	28450	16	-45.8		107	15	11.7
2025-07-21T12:00	28500	16	-45.7		107	14	11.6
2025-07-21T12:00	28550	16	-45.6		103	14	11.7
2025-07-21T12:00	28600	16	-45.1		99	14	11.7
2025-07-21T12:00	28650	16	-44.6		96	15	11.6
2025-07-21T12:00	28700	16	-44.2		93	16	11.4
2025-07-21T12:00	28750	15	-44.1		91	17	11.3
2025-07-21T12:00	28800	15	-44.3		90	17	11.3
2025-07-21T12:00	28850	15	-44.6		91	16	11.2
2025-07-21T12:00	28900	15	-44.7		94	15	11.1
2025-07-21T12:00	28950	15	-44.6		99	15	11.0
2025-07-21T12:00	29000	15	-44.7		104	15	11.0
2025-07-21T12:00	29050	15	-44.8		107	15	11.3
2025-07-21T12:00	29100	15	-44.4		107	14	10.9
2025-07-21T12:00	29150	14	-44.2		104	13	10.7
2025-07-21T12:00	29200	14	-44.2		101	13	10.7
2025-07-21T12:00	29250	14	-44.0		98	13	10.7
2025-07-21T12:00	29300	14	-43.9		95	14	10.6
2025-07-21T12:00	29350	14	-43.9		94	16	10.7
2025-07-21T12:00	29400	14	-43.8		94	18	10.5
2025-07-21T12:00	29450	14	-43.7		96	19	10.3
2025-07-21T12:00	29500	14	-43.8		100	20	10.2
2025-07-21T12:00	29550	14	-43.9		105	19	10.2
2025-07-21T12:00	29600	14	-43.9		108	18	10.0
2025-07-21T12:00	29650	13	-43.9		109	17	10.0
2025-07-21T12:00	29700	13	-43.9		110	16	9.9
2025-07-21T12:00	29750	13	-43.8		110	15	9.8
2025-07-21T12:00	29800	13	-43.4		110	15	10.0
2025-07-21T12:00	29850	13	-43.5		112	15	10.0
2025-07-21T12:00	29900	13	-43.3		115	15	9.9
2025-07-21T12:00	29950	13	-43.2		115	15	9.8
2025-07-21T12:00	30000	13	-43.2		115	16	9.6
2025-07-21T12:00	30050	13	-43.0		115	17	9.7
2025-07-21T12:00	30100	13	-42.9		116	17	9.6
2025-07-21T12:00	30150	12	-43.0		117	16	9.6
2025-07-21T12:00	30200	12	-43.1		117	15	9.5
2025-07-21T12:00	30250	12	-43.2		116	13	9.5
2025-07-21T12:00	30300	12	-43.3		114	12	9.3
2025-07-21T12:00	30350	12	-43.2		112	11	9.2
2025-07-21T12:00	30400	12	-43.3		108	10	9.1
2025-07-21T12:00	30450	12	-43.1		106	11	9.3
2025-07-21T12:00	30500	12	-42.9		106	12	9.1
2025-07-21T12:00	30550	12	-42.5		108	14	9.3
2025-07-21T12:00	30600	12	-42.2		108	16	8.9
2025-07-21T12:00	30650	12	-42.0		109	16	9.4
2025-07-21T12:00	30700	12	-41.7		110	16	9.3
2025-07-21T12:00	30750	11	-41.7		112	15	9.0
2025-07-21T12:00	30800	11	-41.9		113	13	8.7
2025-07-21T12:00	30850	11	-41.7		111	12	8.9
2025-07-21T12:00	30900	11	-41.4		109	11	8.8
2025-07-21T12:00	30950	11	-41.1		108	12	8.7
2025-07-21T12:00	31000	11	-41.2		109	13	8.6
2025-07-21T12:00	31050	11	-41.0		111	13	8.3
2025-07-21T12:00	31100	11	-41.0		113	13	8.5
2025-07-21T12:00	31150	11	-41.1		115	12	8.4
2025-07-21T12:00	31200	11	-41.3		114	12	8.1
2025-07-21T12:00	31250	11	-41.4		111	11	8.3
2025-07-21T12:00	31300	11	-41.3		104	11	8.2
2025-07-21T12:00	31350	10	-41.4		100	11	8.2
2025-07-21T12:00	31400	10	-41.0		100	11	8.1
2025-07-21T12:00	31450	10	-40.6		102	10	8.1
2025-07-21T12:00	31500	10	-40.7		103	10	8.1
2025-07-21T12:00	31550	10	-40.8		103	10	8.1
2025-07-21T12:00	31600	10	-40.7		102	10	8.1
2025-07-21T12:00	31650	10	-41.0		100	9	8.0
2025-07-21T12:00	31700	10	-41.1		97	9	7.9
2025-07-21T12:00	31750	10	-41.2		95	8	7.7
2025-07-21T12:00	31800	10	-41.5		91	7	7.8
2025-07-21T12:00	31850	10	-41.6		85	7	7.8
2025-07-21T12:00	31900	10	-41.4		82	8	7.7
2025-07-21T12:00	31950	10	-41.1		81	10	7.6
2025-07-21T12:00	32000	10	-40.8		82	11	7.5
2025-07-21T12:00	32050	9	-40.7		84	12	7.5
2025-07-21T12:00	32100	9	-40.8		85	12	7.5
2025-07-21T12:00	32150	9	-40.6		82	12	7.2
2025-07-21T12:00	32200	9	-40.3		77	12	7.1
2025-07-21T12:00	32250	9	-40.2		73	13	7.1
2025-07-21T12:00	32300	9	-39.6		72	15	7.1
2025-07-21T12:00	32350	9	-39.2		73	16	7.0
2025-07-21T12:00	32400	9	-38.9		75	17	6.9
2025-07-21T12:00	32450	9	-38.5		79	17	6.9
2025-07-21T12:00	32500	9	-38.4		84	18	6.9
2025-07-21T12:00	32550	9	-38.4		91	19	6.7
2025-07-21T12:00	32600	9	-38.3		95	20	6.7
2025-07-21T12:00	32650	9	-38.2		94	19	6.6
2025-07-21T12:00	32700	9	-38.0		91	18	6.5
2025-07-21T12:00	32750	9	-37.6		91	18	6.6
2025-07-21T12:00	32800	8	-37.2		91	18	6.4
2025-07-21T12:00	32850	8	-36.8		86	17	6.5
2025-07-21T12:00	32900	8	-36.7		81	17	6.4
2025-07-21T12:00	32950	8	-36.4		81	17	6.3
2025-07-21T12:00	33000	8	-35.9		87	19	6.3
2025-07-21T12:00	33050	8	-35.8		93	20	6.2
2025-07-21T12:00	33100	8	-35.8		97	20	6.2
2025-07-21T12:00	33150	8	-35.8		95	19	6.0
2025-07-21T12:00	33200	8	-35.5		87	18	6.0
2025-07-21T12:00	33250	8	-35.1		81	18	5.9
2025-07-21T12:00	33300	8	-35.1		74	18	5.9
2025-07-21T12:00	33350	8	-35.0		69	18	5.8
2025-07-21T12:00	33400	8	-34.6		70	18	5.9
2025-07-21T12:00	33450	8	-34.5		74	20	5.8
2025-07-21T12:00	33500	8	-34.7		79	21	5.7
2025-07-21T12:00	33550	8	-34.5		83	21	5.7
2025-07-21T12:00	33600	8	-34.1		85	21	5.6
2025-07-21T12:00	33650	7	-34.3		85	21	5.5
2025-07-21T12:00	33700	7	-34.6		84	22	5.5
2025-07-21T12:00	33750	7	-34.2		84	22	5.4
2025-07-21T12:00	33800	7	-33.8		84	23	5.4
2025-07-21T12:00	33850	7	-33.7		86	23	5.3
2025-07-21T12:00	33900	7	-33.3		87	23	5.3
2025-07-21T12:00	33950	7	-33.3		87	21	5.3
2025-07-21T12:00	34000	7	-33.4		88	20	5.2
2025-07-21T12:00	34050	7	-33.5		92	19	5.1
2025-07-21T12:00	34100	7	-33.5		96	18	5.0
2025-07-21T12:00	34150	7	-33.5		98	18	5.0
2025-07-21T12:00	34200	7	-33.1		94	17	4.9
2025-07-21T12:00	34250	7	-32.9		88	18	4.8
2025-07-21T12:00	34300	7	-32.9		84	19	4.9
2025-07-21T12:00	34350	7	-32.9		81	20	4.7
2025-07-21T12:00	34400	7	-33.3		80	21	4.7
2025-07-21T12:00	34450	7	-33.9		80	22	4.7
2025-07-21T12:00	34500	7	-33.7		79	23	4.7
2025-07-21T12:00	34550	7	-33.5		80	23	4.6
2025-07-21T12:00	34600	7	-33.5		81	23	4.6
2025-07-21T12:00	34650	6	-33.6		82	23	4.5
2025-07-21T12:00	34700	6	-33.9		82	24	4.5
2025-07-21T12:00	34750	6	-34.0		82	25	4.5
2025-07-21T12:00	34800	6	-33.9		83	25	4.4
2025-07-21T12:00	34850	6	-33.8		85	25	4.4
2025-07-21T12:00	34900	6	-33.7		88	25	4.4
2025-07-21T12:00	34950	6	-33.7		91	26	4.4
2025-07-21T12:00	35000	6	-33.7		92	26	4.4
2025-07-21T12:00	35050	6	-33.4		91	25	4.3
2025-07-21T12:00	35100	6	-33.3		92	25	4.2
2025-07-21T12:00	35150	6	-33.2		93	26	4.1
2025-07-21T12:00	35200	6	-33.1		95	26	4.1
2025-07-21T12:00	35250	6	-33.0		97	27	4.0
2025-07-21T12:00	35300	6	-32.6		99	27	4.0
2025-07-21T12:00	35350	6	-32.4		101	27	3.9
2025-07-21T12:00	35400	6	-32.2		102	26	3.9
2025-07-21T12:00	35450	6	-32.2		105	26	3.9
2025-07-21T12:00	35500	6	-32.2		107	25	3.9
2025-07-21T12:00	35550	6	-32.2		107	24	3.9
2025-07-21T12:00	35600	6	-32.1		107	23	3.9
2025-07-21T12:00	35650	6	-32.1		104	22	3.9
2025-07-21T12:00	35700	6	-32.2		103	23	3.9
2025-07-21T12:00	35750	6	-32.2		102	24	3.8
2025-07-21T12:00	35800	6	-32.3		101	24	3.8
2025-07-21T12:00	35850	5	-32.2		98	25	3.8
2025-07-21T12:00	35900	5	-32.3		96	25	3.7
2025-07-21T12:00	35950	5	-32.0		96	27	3.6
2025-07-21T12:00	36000	5	-31.8		99	26	3.5
2025-07-21T12:00	36050	5	-31.3		101	24	3.4
2025-07-21T12:00	36100	5	-30.5		97	23	3.3
2025-07-21T12:00	36150	5	-29.9		96	24	3.3
2025-07-21T12:00	36200	5	-29.8		103	25	3.2
2025-07-21T12:00	36250	5	-29.3		109	25	3.2
2025-07-21T12:00	36300	5	-29.3		113	25	3.1
2025-07-21T12:00	36350	5	-29.3		116	25	3.1
2025-07-21T12:00	36400	5	-29.1		116	24	3.1
2025-07-21T12:00	36450	5	-29.0		114	23	3.1
2025-07-21T12:00	36500	5	-28.4		113	23	3.0
2025-07-22T00:00	491	957	17.3	13.0	196	4	
2025-07-22T00:00	501	955	17.4	13.1	206	4	
2025-07-22T00:00	520	954	17.4	13.0	210	5	
2025-07-22T00:00	540	951	17.4	12.8	209	6	
2025-07-22T00:00	560	949	17.3	12.6	209	7	
2025-07-22T00:00	580	947	17.4	12.4	209	8	
2025-07-22T00:00	600	945	17.3	12.3	209	9	
2025-07-22T00:00	620	943	17.2	12.2	210	9	
2025-07-22T00:00	640	940	17.0	12.1	210	10	
2025-07-22T00:00	660	938	17.1	12.0	211	11	
2025-07-22T00:00	680	936	17.0	12.0	212	11	
2025-07-22T00:00	700	934	16.8	11.9	213	11	
2025-07-22T00:00	720	932	16.8	11.7	214	11	
2025-07-22T00:00	740	929	16.6	11.6	215	11	
2025-07-22T00:00	760	927	16.5	11.4	216	11	
2025-07-22T00:00	780	925	16.4	11.2	218	11	
2025-07-22T00:00	800	923	16.3	11.0	220	11	
2025-07-22T00:00	820	921	16.4	10.7	223	11	
2025-07-22T00:00	840	919	16.2	10.6	225	11	
2025-07-22T00:00	860	916	16.4	10.2	226	11	
2025-07-22T00:00	880	914	16.3	10.2	226	12	
2025-07-22T00:00	900	912	16.1	10.2	227	12	
2025-07-22T00:00	920	910	15.9	10.1	227	12	
2025-07-22T00:00	940	908	15.7	10.0	227	12	
2025-07-22T00:00	960	906	15.5	9.9	227	12	
2025-07-22T00:00	980	904	15.3	10.0	228	12	
2025-07-22T00:00	1000	901	15.1	9.9	228	12	
2025-07-22T00:00	1020	899	15.0	9.9	228	12	
2025-07-22T00:00	1040	897	14.8	9.9	228	12	
2025-07-22T00:00	1060	895	14.6	9.8	230	11	
2025-07-22T00:00	1080	893	14.4	9.8	233	11	
2025-07-22T00:00	1100	891	14.2	9.7	235	11	
2025-07-22T00:00	1120	889	14.0	9.8	238	11	
2025-07-22T00:00	1140	887	13.8	9.7	240	10	
2025-07-22T00:00	1160	885	13.8	9.2	243	10	
2025-07-22T00:00	1180	882	13.7	9.0	245	10	
2025-07-22T00:00	1200	880	13.5	9.1	246	10	
2025-07-22T00:00	1220	878	13.3	9.1	247	10	
2025-07-22T00:00	1240	876	13.1	9.0	248	10	
2025-07-22T00:00	1260	874	13.0	8.8	248	10	
2025-07-22T00:00	1280	872	12.8	8.8	248	9	
2025-07-22T00:00	1300	870	12.6	8.7	249	9	
2025-07-22T00:00	1320	868	12.4	8.7	249	9	
2025-07-22T00:00	1340	866	12.3	8.6	250	10	
2025-07-22T00:00	1360	864	12.1	8.5	250	10	
2025-07-22T00:00	1380	862	11.9	8.5	251	10	
2025-07-22T00:00	1400	860	11.7	8.4	251	10	
2025-07-22T00:00	1420	858	11.6	8.4	252	10	
2025-07-22T00:00	1440	856	11.4	8.3	252	10	
2025-07-22T00:00	1460	853	11.2	8.3	253	10	
2025-07-22T00:00	1480	851	11.0	8.2	253	10	
2025-07-22T00:00	1500	850	10.8	8.2	252	10	
2025-07-22T00:00	1520	848	10.6	8.2	252	10	
2025-07-22T00:00	1540	845	10.4	8.2	252	10	
2025-07-22T00:00	1560	843	10.2	8.1	251	10	
2025-07-22T00:00	1580	841	10.0	8.1	252	10	
2025-07-22T00:00	1600	839	9.8	8.1	253	10	
2025-07-22T00:00	1620	837	9.6	8.0	254	10	
2025-07-22T00:00	1640	835	9.5	7.9	256	10	
2025-07-22T00:00	1660	833	9.3	7.6	258	10	
2025-07-22T00:00	1680	831	9.2	7.6	260	9	
2025-07-22T00:00	1700	830	9.1	7.5	261	9	
2025-07-22T00:00	1720	828	8.8	7.5	261	9	
2025-07-22T00:00	1740	825	8.6	7.5	260	9	
2025-07-22T00:00	1760	823	8.4	7.5	260	9	
2025-07-22T00:00	1780	821	8.1	7.6	260	9	
2025-07-22T00:00	1800	819	7.9	7.6	261	10	
2025-07-22T00:00	1820	817	7.8	7.5	262	10	
2025-07-22T00:00	1840	815	7.6	7.4	262	10	
2025-07-22T00:00	1860	813	7.4	7.3	263	9	
2025-07-22T00:00	1880	811	7.2	7.1	264	9	
2025-07-22T00:00	1900	809	7.1	7.1	265	9	
2025-07-22T00:00	1920	808	7.0	7.0	265	9	
2025-07-22T00:00	1940	805	6.9	6.9	265	9	
2025-07-22T00:00	1960	804	6.7	6.7	263	9	
2025-07-22T00:00	1980	802	6.6	6.6	262	9	
2025-07-22T00:00	2000	800	6.5	6.5	261	10	
2025-07-22T00:00	2020	798	6.4	6.4	260	10	
2025-07-22T00:00	2040	796	6.2	6.1	259	10	
2025-07-22T00:00	2060	794	6.1	6.1	259	11	
2025-07-22T00:00	2080	792	6.0	6.0	259	10	
2025-07-22T00:00	2100	790	5.8	5.8	259	10	
2025-07-22T00:00	2120	788	5.7	5.7	259	10	
2025-07-22T00:00	2140	786	5.6	5.6	259	10	
2025-07-22T00:00	2160	784	5.4	5.4	259	9	
2025-07-22T00:00	2180	782	5.3	5.3	258	9	
2025-07-22T00:00	2200	780	5.2	5.2	256	9	
2025-07-22T00:00	2220	779	5.1	5.1	255	9	
2025-07-22T00:00	2240	777	5.0	5.0	255	10	
2025-07-22T00:00	2260	775	4.8	4.8	257	12	
2025-07-22T00:00	2280	773	4.6	4.6	259	13	
2025-07-22T00:00	2300	771	4.4	4.4	261	14	
2025-07-22T00:00	2320	769	4.3	4.3	261	14	
2025-07-22T00:00	2340	767	4.1	4.1	261	14	
2025-07-22T00:00	2360	765	4.0	3.6	260	14	
2025-07-22T00:00	2380	763	3.9	3.4	259	14	
2025-07-22T00:00	2400	761	3.7	3.1	257	14	
2025-07-22T00:00	2420	760	3.6	2.8	257	14	
2025-07-22T00:00	2440	758	3.6	2.2	256	14	
2025-07-22T00:00	2460	756	3.5	2.0	256	14	
2025-07-22T00:00	2480	754	3.5	1.9	256	14	
2025-07-22T00:00	2500	752	3.4	1.8	255	13	
2025-07-22T00:00	2520	751	3.3	1.8	254	13	
2025-07-22T00:00	2540	749	3.3	1.7	252	13	
2025-07-22T00:00	2560	747	3.3	1.7	251	12	
2025-07-22T00:00	2580	745	3.2	1.6	251	13	
2025-07-22T00:00	2600	743	3.1	1.5	251	13	
2025-07-22T00:00	2620	741	3.1	1.3	251	13	
2025-07-22T00:00	2640	739	3.1	0.9	251	13	
2025-07-22T00:00	2660	737	3.1	0.8	251	13	
2025-07-22T00:00	2680	736	3.1	0.4	250	14	
2025-07-22T00:00	2700	734	3.2	0.3	249	14	
2025-07-22T00:00	2720	732	3.1	0.2	247	14	
2025-07-22T00:00	2740	730	3.1	0.2	246	15	
2025-07-22T00:00	2760	729	3.0	0.1	244	15	
2025-07-22T00:00	2780	727	2.9	-0.1	243	15	
2025-07-22T00:00	2800	725	2.8	-0.3	242	15	
2025-07-22T00:00	2820	723	2.8	-0.6	242	15	
2025-07-22T00:00	2840	721	2.6	-0.6	241	15	
2025-07-22T00:00	2860	719	2.5	-0.8	241	15	
2025-07-22T00:00	2880	718	2.4	-0.8	241	15	
2025-07-22T00:00	2900	716	2.3	-0.8	241	15	
2025-07-22T00:00	2920	714	2.1	-0.9	241	15	
2025-07-22T00:00	2940	713	2.0	-1.0	241	16	
2025-07-22T00:00	2960	711	1.8	-1.0	241	17	
2025-07-22T00:00	2980	709	1.7	-1.1	241	18	
2025-07-22T00:00	3000	707	1.5	-1.1	241	18	
2025-07-22T00:00	3020	706	1.3	-1.2	241	18	
2025-07-22T00:00	3040	704	1.1	-1.3	242	18	
2025-07-22T00:00	3060	702	1.1	-1.5	242	18	
2025-07-22T00:00	3080	700	1.0	-1.6	242	17	
2025-07-22T00:00	3100	699	0.8	-1.6	242	17	
2025-07-22T00:00	3120	697	0.7	-1.8	242	16	
2025-07-22T00:00	3140	695	0.7	-2.0	242	16	
2025-07-22T00:00	3160	694	0.6	-2.0	243	16	
2025-07-22T00:00	3180	692	0.6	-2.3	244	16	
2025-07-22T00:00	3200	690	0.6	-2.8	245	16	
2025-07-22T00:00	3220	688	0.5	-3.1	246	16	
2025-07-22T00:00	3240	686	0.3	-3.1	246	16	
2025-07-22T00:00	3260	685	0.2	-3.1	245	16	
2025-07-22T00:00	3280	683	0.0	-3.1	244	16	
2025-07-22T00:00	3300	681	-0.2	-3.2	242	16	
2025-07-22T00:00	3320	680	-0.4	-3.2	242	17	
2025-07-22T00:00	3340	678	-0.6	-3.3	241	17	
2025-07-22T00:00	3360	676	-0.8	-3.4	240	17	
2025-07-22T00:00	3380	674	-0.9	-3.4	240	17	
2025-07-22T00:00	3400	673	-1.1	-3.4	240	17	
2025-07-22T00:00	3420	671	-1.3	-3.5	241	17	
2025-07-22T00:00	3440	669	-1.5	-3.6	241	17	
2025-07-22T00:00	3460	668	-1.7	-3.6	241	18	
2025-07-22T00:00	3480	666	-1.9	-3.6	242	18	
2025-07-22T00:00	3500	664	-2.0	-3.7	244	18	
2025-07-22T00:00	3520	663	-2.2	-3.8	246	17	
2025-07-22T00:00	3540	661	-2.4	-3.9	248	17	
2025-07-22T00:00	3560	659	-2.6	-4.0	251	17	
2025-07-22T00:00	3580	658	-2.7	-4.1	254	17	
2025-07-22T00:00	3600	656	-2.8	-4.4	256	17	
2025-07-22T00:00	3620	655	-2.8	-4.7	256	17	
2025-07-22T00:00	3640	653	-2.8	-5.4	255	17	
2025-07-22T00:00	3660	651	-2.8	-6.3	254	17	
2025-07-22T00:00	3680	650	-2.8	-6.8	254	17	
2025-07-22T00:00	3700	648	-2.9	-7.7	255	16	
2025-07-22T00:00	3720	646	-2.9	-8.1	257	16	
2025-07-22T00:00	3740	645	-3.1	-7.9	260	16	
2025-07-22T00:00	3760	643	-3.2	-8.0	263	15	
2025-07-22T00:00	3780	641	-3.3	-7.9	265	15	
2025-07-22T00:00	3800	640	-3.3	-7.9	267	14	
2025-07-22T00:00	3820	638	-3.1	-7.5	270	14	
2025-07-22T00:00	3840	637	-3.2	-7.4	272	14	
2025-07-22T00:00	3860	635	-3.2	-7.5	273	13	
2025-07-22T00:00	3880	633	-3.1	-7.6	275	13	
2025-07-22T00:00	3900	632	-3.0	-7.6	277	13	
2025-07-22T00:00	3920	630	-3.1	-7.7	278	14	
2025-07-22T00:00	3940	629	-3.1	-7.5	278	14	
2025-07-22T00:00	3960	627	-3.2	-7.7	278	14	
2025-07-22T00:00	3980	625	-3.0	-8.3	278	15	
2025-07-22T00:00	4000	624	-2.9	-8.6	278	15	
2025-07-22T00:00	4020	622	-3.1	-8.7	277	16	
2025-07-22T00:00	4040	621	-3.2	-8.8	277	16	
2025-07-22T00:00	4060	619	-3.3	-8.8	277	17	
2025-07-22T00:00	4080	618	-3.3	-8.8	278	17	
2025-07-22T00:00	4100	616	-3.4	-8.8	279	17	
2025-07-22T00:00	4120	614	-3.5	-8.8	279	16	
2025-07-22T00:00	4140	613	-3.7	-8.8	280	16	
2025-07-22T00:00	4160	611	-3.9	-8.8	281	16	
2025-07-22T00:00	4180	610	-4.1	-8.8	282	15	
2025-07-22T00:00	4200	608	-4.3	-8.7	282	15	
2025-07-22T00:00	4220	607	-4.5	-8.8	282	14	
2025-07-22T00:00	4240	605	-4.7	-8.8	282	14	
2025-07-22T00:00	4260	604	-4.8	-8.8	282	14	
2025-07-22T00:00	4280	602	-5.0	-9.0	282	14	
2025-07-22T00:00	4300	601	-5.2	-9.1	283	14	
2025-07-22T00:00	4320	599	-5.3	-9.2	283	15	
2025-07-22T00:00	4340	598	-5.4	-9.5	283	15	
2025-07-22T00:00	4360	596	-5.5	-9.8	282	15	
2025-07-22T00:00	4380	594	-5.6	-10.2	281	16	
2025-07-22T00:00	4400	593	-5.7	-10.5	280	16	
2025-07-22T00:00	4420	592	-5.8	-11.2	279	16	
2025-07-22T00:00	4440	590	-5.9	-11.2	278	16	
2025-07-22T00:00	4460	588	-6.1	-11.3	277	16	
2025-07-22T00:00	4480	587	-6.2	-11.4	277	16	
2025-07-22T00:00	4500	585	-6.4	-11.4	277	16	
2025-07-22T00:00	4520	584	-6.6	-11.4	276	16	
2025-07-22T00:00	4540	582	-6.7	-11.6	276	16	
2025-07-22T00:00	4560	581	-6.8	-11.6	275	16	
2025-07-22T00:00	4580	580	-6.9	-11.6	274	16	
2025-07-22T00:00	4600	578	-7.0	-11.7	272	16	
2025-07-22T00:00	4620	576	-7.2	-11.9	271	16	
2025-07-22T00:00	4640	575	-7.4	-12.1	270	16	
2025-07-22T00:00	4660	574	-7.5	-12.4	268	16	
2025-07-22T00:00	4680	572	-7.7	-12.5	267	16	
2025-07-22T00:00	4700	571	-7.8	-12.6	266	16	
2025-07-22T00:00	4720	569	-8.0	-12.8	265	16	
2025-07-22T00:00	4740	568	-8.1	-12.8	265	17	
2025-07-22T00:00	4760	566	-8.3	-12.7	265	17	
2025-07-22T00:00	4780	565	-8.4	-12.9	265	17	
2025-07-22T00:00	4800	563	-8.5	-13.1	265	17	
2025-07-22T00:00	4820	562	-8.7	-13.2	264	16	
2025-07-22T00:00	4840	561	-8.8	-13.5	264	16	
2025-07-22T00:00	4860	559	-8.9	-13.8	264	16	
2025-07-22T00:00	4880	557	-8.9	-14.1	264	16	
2025-07-22T00:00	4900	556	-9.1	-14.2	263	16	
2025-07-22T00:00	4920	555	-9.3	-14.2	263	16	
2025-07-22T00:00	4940	553	-9.4	-14.5	262	16	
2025-07-22T00:00	4960	552	-9.5	-14.7	261	16	
2025-07-22T00:00	4980	550	-9.7	-14.9	259	16	
2025-07-22T00:00	5000	549	-9.9	-15.0	258	16	
2025-07-22T00:00	5020	548	-10.0	-15.6	257	16	
2025-07-22T00:00	5040	546	-10.1	-16.1	257	16	
2025-07-22T00:00	5060	545	-10.3	-16.4	257	16	
2025-07-22T00:00	5080	543	-10.4	-16.6	258	16	
2025-07-22T00:00	5100	542	-10.6	-16.6	259	16	
2025-07-22T00:00	5120	541	-10.8	-16.5	260	16	
2025-07-22T00:00	5140	539	-11.0	-16.4	261	16	
2025-07-22T00:00	5160	538	-11.1	-16.8	261	16	
2025-07-22T00:00	5180	536	-11.3	-17.3	261	16	
2025-07-22T00:00	5200	535	-11.4	-17.6	261	16	
2025-07-22T00:00	5220	533	-11.6	-18.2	260	16	
2025-07-22T00:00	5240	532	-11.7	-18.9	260	16	
2025-07-22T00:00	5260	531	-11.9	-18.9	259	16	
2025-07-22T00:00	5280	529	-12.1	-19.5	259	16	
2025-07-22T00:00	5300	528	-12.1	-20.6	259	16	
2025-07-22T00:00	5320	527	-12.3	-20.7	259	16	
2025-07-22T00:00	5340	525	-12.5	-20.8	260	16	
2025-07-22T00:00	5360	524	-12.6	-21.0	260	16	
2025-07-22T00:00	5380	522	-12.8	-21.2	261	16	
2025-07-22T00:00	5400	521	-12.9	-21.2	261	15	
2025-07-22T00:00	5420	520	-13.0	-21.8	262	16	
2025-07-22T00:00	5440	518	-13.2	-21.9	262	15	
2025-07-22T00:00	5460	517	-13.4	-22.0	261	15	
2025-07-22T00:00	5480	515	-13.5	-22.4	261	15	
2025-07-22T00:00	5500	514	-13.7	-22.4	260	15	
2025-07-22T00:00	5520	513	-13.8	-22.4	259	15	
2025-07-22T00:00	5540	512	-14.0	-22.5	258	15	
2025-07-22T00:00	5560	510	-14.2	-22.3	256	14	
2025-07-22T00:00	5580	509	-14.4	-22.1	255	14	
2025-07-22T00:00	5600	507	-14.6	-22.2	255	14	
2025-07-22T00:00	5620	506	-14.7	-22.3	254	13	
2025-07-22T00:00	5640	505	-14.9	-22.3	255	13	
2025-07-22T00:00	5660	504	-15.1	-22.3	255	13	
2025-07-22T00:00	5680	502	-15.3	-22.2	255	13	
2025-07-22T00:00	5700	501	-15.5	-22.3	256	13	
2025-07-22T00:00	5720	499	-15.6	-23.2	256	13	
2025-07-22T00:00	5740	498	-15.6	-24.4	257	13	
2025-07-22T00:00	5760	497	-15.7	-25.0	258	13	
2025-07-22T00:00	5780	496	-15.9	-25.3	259	13	
2025-07-22T00:00	5800	494	-16.0	-25.4	260	13	
2025-07-22T00:00	5820	493	-16.2	-25.4	261	13	
2025-07-22T00:00	5840	492	-16.4	-25.6	263	14	
2025-07-22T00:00	5860	490	-16.6	-25.7	265	14	
2025-07-22T00:00	5880	489	-16.6	-26.0	266	14	
2025-07-22T00:00	5900	488	-16.7	-27.3	267	14	
2025-07-22T00:00	5920	487	-16.7	-29.1	268	14	
2025-07-22T00:00	5940	485	-16.6	-30.6	269	14	
2025-07-22T00:00	5960	484	-16.7	-31.2	269	14	
2025-07-22T00:00	5980	483	-16.8	-31.3	269	14	
2025-07-22T00:00	6000	481	-16.9	-31.5	270	14	
2025-07-22T00:00	6020	480	-17.1	-31.7	270	14	
2025-07-22T00:00	6040	479	-17.3	-31.9	271	14	
2025-07-22T00:00	6060	478	-17.4	-31.8	272	14	
2025-07-22T00:00	6080	476	-17.7	-31.9	272	14	
2025-07-22T00:00	6100	475	-17.8	-31.9	273	14	
2025-07-22T00:00	6120	474	-18.0	-31.9	273	14	
2025-07-22T00:00	6140	472	-18.2	-32.0	273	13	
2025-07-22T00:00	6160	471	-18.4	-31.9	273	13	
2025-07-22T00:00	6180	470	-18.5	-32.2	274	13	
2025-07-22T00:00	6200	469	-18.7	-32.6	274	13	
2025-07-22T00:00	6220	467	-18.9	-32.7	275	13	
2025-07-22T00:00	6240	466	-19.0	-33.2	275	13	
2025-07-22T00:00	6260	465	-19.2	-34.2	276	13	
2025-07-22T00:00	6280	464	-19.3	-35.1	276	13	
2025-07-22T00:00	6300	462	-19.4	-35.8	276	13	
2025-07-22T00:00	6320	461	-19.5	-36.6	276	13	
2025-07-22T00:00	6340	460	-19.7	-37.2	275	13	
2025-07-22T00:00	6360	459	-19.8	-37.7	275	14	
2025-07-22T00:00	6380	457	-20.0	-38.9	274	14	
2025-07-22T00:00	6400	456	-20.1	-39.9	273	14	
2025-07-22T00:00	6420	455	-20.2	-40.8	272	15	
2025-07-22T00:00	6440	454	-20.4	-41.5	272	15	
2025-07-22T00:00	6460	453	-20.5	-42.5	272	15	
2025-07-22T00:00	6480	451	-20.6	-43.4	272	15	
2025-07-22T00:00	6500	450	-20.7	-44.6	273	15	
2025-07-22T00:00	6520	449	-20.8	-44.9	274	15	
2025-07-22T00:00	6540	448	-20.9	-45.4	276	15	
2025-07-22T00:00	6560	446	-21.0	-45.6	276	15	
2025-07-22T00:00	6580	445	-21.2	-45.3	278	15	
2025-07-22T00:00	6600	444	-21.4	-45.2	278	15	
2025-07-22T00:00	6620	443	-21.5	-45.7	279	15	
2025-07-22T00:00	6640	442	-21.5	-45.7	280	15	
2025-07-22T00:00	6660	440	-21.5	-45.3	281	14	
2025-07-22T00:00	6680	439	-21.5	-44.9	282	14	
2025-07-22T00:00	6700	438	-21.7	-45.1	283	14	
2025-07-22T00:00	6720	437	-21.8	-44.9	284	14	
2025-07-22T00:00	6740	436	-22.0	-44.6	286	14	
2025-07-22T00:00	6760	434	-22.1	-45.4	287	14	
2025-07-22T00:00	6780	433	-22.1	-45.8	287	14	
2025-07-22T00:00	6800	432	-22.2	-46.2	287	14	
2025-07-22T00:00	6820	431	-22.2	-46.0	287	14	
2025-07-22T00:00	6840	430	-22.3	-46.2	287	14	
2025-07-22T00:00	6860	429	-22.4	-45.9	287	14	
2025-07-22T00:00	6880	427	-22.6	-46.3	287	14	
2025-07-22T00:00	6900	426	-22.8	-47.0	287	14	
2025-07-22T00:00	6920	425	-22.8	-47.2	288	14	
2025-07-22T00:00	6940	424	-22.9	-48.3	289	14	
2025-07-22T00:00	6960	423	-22.8	-49.7	290	14	
2025-07-22T00:00	6980	422	-22.9	-50.2	291	14	
2025-07-22T00:00	7000	421	-23.0	-50.4	293	14	
2025-07-22T00:00	7020	419	-23.2	-50.4	294	14	
2025-07-22T00:00	7040	418	-23.4	-50.6	295	14	
2025-07-22T00:00	7060	417	-23.5	-50.7	296	14	
2025-07-22T00:00	7080	416	-23.6	-50.8	296	14	
2025-07-22T00:00	7100	415	-23.7	-51.0	296	14	
2025-07-22T00:00	7120	414	-23.8	-51.2	296	14	
2025-07-22T00:00	7140	413	-24.0	-51.3	295	14	
2025-07-22T00:00	7160	411	-24.0	-51.4	294	14	
2025-07-22T00:00	7180	410	-23.9	-51.1	293	14	
2025-07-22T00:00	7200	409	-24.1	-51.0	292	14	
2025-07-22T00:00	7220	408	-24.2	-51.0	291	14	
2025-07-22T00:00	7240	407	-24.3	-51.2	290	15	
2025-07-22T00:00	7260	406	-24.3	-51.5	290	15	
2025-07-22T00:00	7280	405	-24.5	-51.6	291	16	
2025-07-22T00:00	7300	404	-24.6	-51.6	291	16	
2025-07-22T00:00	7320	402	-24.6	-51.0	293	16	
2025-07-22T00:00	7340	401	-24.6	-49.5	294	16	
2025-07-22T00:00	7360	400	-24.7	-48.6	296	16	
2025-07-22T00:00	7380	399	-24.9	-48.3	297	16	
2025-07-22T00:00	7400	398	-25.0	-47.8	298	16	
2025-07-22T00:00	7420	397	-25.2	-47.6	299	16	
2025-07-22T00:00	7440	396	-25.3	-47.3	299	16	
2025-07-22T00:00	7460	395	-25.5	-47.2	299	16	
2025-07-22T00:00	7480	394	-25.7	-47.1	299	16	
2025-07-22T00:00	7500	393	-25.9	-47.2	299	16	
2025-07-22T00:00	7520	392	-26.1	-47.2	299	16	
2025-07-22T00:00	7540	390	-26.2	-47.1	300	16	
2025-07-22T00:00	7560	389	-26.4	-47.2	300	16	
2025-07-22T00:00	7580	388	-26.6	-47.2	300	16	
2025-07-22T00:00	7600	387	-26.8	-47.2	300	16	
2025-07-22T00:00	7620	386	-27.0	-47.0	299	16	
2025-07-22T00:00	7640	385	-27.1	-47.0	299	16	
2025-07-22T00:00	7660	384	-27.2	-47.0	299	16	
2025-07-22T00:00	7680	383	-27.3	-47.2	299	16	
2025-07-22T00:00	7700	382	-27.5	-47.4	298	17	
2025-07-22T00:00	7720	381	-27.7	-47.4	298	17	
2025-07-22T00:00	7740	380	-27.9	-47.5	297	17	
2025-07-22T00:00	7760	379	-28.0	-47.5	297	17	
2025-07-22T00:00	7780	378	-28.2	-47.2	297	18	
2025-07-22T00:00	7800	377	-28.4	-46.8	297	18	
2025-07-22T00:00	7820	375	-28.6	-46.4	298	18	
2025-07-22T00:00	7840	375	-28.7	-46.7	298	18	
2025-07-22T00:00	7860	373	-28.9	-47.0	299	18	
2025-07-22T00:00	7880	372	-29.1	-47.2	299	18	
2025-07-22T00:00	7900	371	-29.2	-47.3	299	18	
2025-07-22T00:00	7920	370	-29.4	-47.3	299	18	
2025-07-22T00:00	7940	369	-29.6	-47.4	299	18	
2025-07-22T00:00	7960	368	-29.8	-47.8	299	18	
2025-07-22T00:00	7980	367	-29.9	-48.3	299	18	
2025-07-22T00:00	8000	366	-30.1	-48.4	299	18	
2025-07-22T00:00	8020	365	-30.3	-48.7	298	18	
2025-07-22T00:00	8040	364	-30.4	-48.8	298	18	
2025-07-22T00:00	8060	363	-30.6	-48.7	298	18	
2025-07-22T00:00	8080	362	-30.8	-48.7	298	18	
2025-07-22T00:00	8100	361	-31.0	-48.8	297	18	
2025-07-22T00:00	8120	360	-31.2	-48.8	297	18	
2025-07-22T00:00	8140	359	-31.4	-49.0	297	18	
2025-07-22T00:00	8160	358	-31.6	-49.0	297	19	
2025-07-22T00:00	8180	357	-31.7	-49.0	297	19	
2025-07-22T00:00	8200	356	-31.9	-49.1	296	19	
2025-07-22T00:00	8220	355	-32.0	-49.5	296	19	
2025-07-22T00:00	8240	354	-32.2	-49.8	296	19	
2025-07-22T00:00	8260	353	-32.4	-49.9	295	19	
2025-07-22T00:00	8280	352	-32.6	-49.9	294	19	
2025-07-22T00:00	8300	351	-32.7	-50.1	293	19	
2025-07-22T00:00	8320	350	-32.9	-50.6	292	19	
2025-07-22T00:00	8340	349	-33.0	-50.8	292	18	
2025-07-22T00:00	8360	348	-33.2	-50.8	291	18	
2025-07-22T00:00	8380	347	-33.4	-50.9	291	18	
2025-07-22T00:00	8400	346	-33.6	-51.1	291	18	
2025-07-22T00:00	8420	345	-33.7	-51.2	291	18	
2025-07-22T00:00	8440	344	-33.9	-51.3	291	18	
2025-07-22T00:00	8460	343	-34.1	-51.2	291	18	
2025-07-22T00:00	8480	342	-34.3	-51.3	292	19	
2025-07-22T00:00	8500	341	-34.4	-51.6	292	19	
2025-07-22T00:00	8520	340	-34.5	-52.4	292	19	
2025-07-22T00:00	8540	339	-34.6	-52.8	292	20	
2025-07-22T00:00	8560	338	-34.8	-52.8	291	20	
2025-07-22T00:00	8580	337	-34.9	-53.0	291	21	
2025-07-22T00:00	8600	336	-35.0	-53.0	290	21	
2025-07-22T00:00	8620	335	-35.2	-53.3	290	21	
2025-07-22T00:00	8640	334	-35.3	-53.6	290	22	
2025-07-22T00:00	8660	333	-35.5	-53.7	290	22	
2025-07-22T00:00	8680	332	-35.6	-53.8	290	22	
2025-07-22T00:00	8700	331	-35.8	-53.9	290	22	
2025-07-22T00:00	8720	330	-36.0	-53.9	290	22	
2025-07-22T00:00	8740	329	-36.1	-54.0	290	22	
2025-07-22T00:00	8760	329	-36.3	-54.0	290	22	
2025-07-22T00:00	8780	328	-36.4	-54.1	290	22	
2025-07-22T00:00	8800	327	-36.6	-54.1	289	23	
2025-07-22T00:00	8820	326	-36.8	-54.2	289	23	
2025-07-22T00:00	8840	325	-36.9	-54.4	289	23	
2025-07-22T00:00	8860	324	-37.0	-54.7	288	24	
2025-07-22T00:00	8880	323	-37.2	-54.6	288	24	
2025-07-22T00:00	8900	322	-37.3	-54.6	287	24	
2025-07-22T00:00	8920	321	-37.5	-54.5	286	25	
2025-07-22T00:00	8940	320	-37.6	-54.7	286	25	
2025-07-22T00:00	8960	319	-37.7	-54.9	285	25	
2025-07-22T00:00	8980	318	-37.8	-55.0	285	25	
2025-07-22T00:00	9000	317	-38.0	-55.0	285	26	
2025-07-22T00:00	9020	316	-38.2	-55.0	285	26	
2025-07-22T00:00	9040	316	-38.2	-55.1	285	26	
2025-07-22T00:00	9060	315	-38.3	-55.2	285	26	
2025-07-22T00:00	9080	314	-38.4	-55.3	285	26	
2025-07-22T00:00	9100	313	-38.5	-55.4	285	27	
2025-07-22T00:00	9120	312	-38.7	-55.4	286	27	
2025-07-22T00:00	9140	311	-38.8	-55.5	286	27	
2025-07-22T00:00	9160	310	-38.9	-55.7	287	27	
2025-07-22T00:00	9180	309	-38.9	-56.0	287	27	
2025-07-22T00:00	9200	308	-39.0	-56.0	288	27	
2025-07-22T00:00	9220	307	-39.1	-56.1	288	28	
2025-07-22T00:00	9240	306	-39.2	-56.1	288	28	
2025-07-22T00:00	9260	306	-39.4	-56.2	287	28	
2025-07-22T00:00	9280	305	-39.5	-56.4	287	28	
2025-07-22T00:00	9300	304	-39.6	-56.5	286	28	
2025-07-22T00:00	9320	303	-39.8	-56.5	286	28	
2025-07-22T00:00	9340	302	-39.9	-56.7	285	28	
2025-07-22T00:00	9360	301	-40.0	-56.8	285	28	
2025-07-22T00:00	9380	300	-40.2	-57.0	285	28	
2025-07-22T00:00	9400	299	-40.2	-57.3	285	28	
2025-07-22T00:00	9420	298	-40.3	-57.5	285	27	
2025-07-22T00:00	9440	298	-40.5	-57.8	285	27	
2025-07-22T00:00	9460	297	-40.6	-57.8	285	27	
2025-07-22T00:00	9480	296	-40.7	-58.4	285	26	
2025-07-22T00:00	9500	295	-40.7	-58.8	285	26	
2025-07-22T00:00	9520	294	-40.8	-59.1	285	26	
2025-07-22T00:00	9540	293	-40.9	-59.4	285	26	
2025-07-22T00:00	9560	292	-41.0	-59.4	284	26	
2025-07-22T00:00	9580	292	-41.1	-59.3	284	26	
2025-07-22T00:00	9600	291	-41.3	-59.3	284	26	
2025-07-22T00:00	9620	290	-41.5	-59.3	284	26	
2025-07-22T00:00	9640	289	-41.7	-59.3	284	25	
2025-07-22T00:00	9660	288	-41.8	-59.6	284	25	
2025-07-22T00:00	9680	287	-42.0	-59.8	285	25	
2025-07-22T00:00	9700	286	-42.1	-59.8	286	25	
2025-07-22T00:00	9720	286	-42.2	-59.7	286	25	
2025-07-22T00:00	9740	285	-42.4	-59.7	286	25	
2025-07-22T00:00	9760	284	-42.6	-59.6	286	24	
2025-07-22T00:00	9780	283	-42.8	-59.7	285	24	
2025-07-22T00:00	9800	282	-42.9	-59.7	283	25	
2025-07-22T00:00	9820	281	-43.0	-60.2	282	25	
2025-07-22T00:00	9840	281	-42.9	-60.8	281	25	
2025-07-22T00:00	9860	280	-42.9	-61.5	279	25	
2025-07-22T00:00	9880	279	-42.9	-61.8	278	26	
2025-07-22T00:00	9900	278	-43.0	-61.9	277	26	
2025-07-22T00:00	9920	277	-43.0	-62.3	276	27	
2025-07-22T00:00	9940	276	-43.2	-62.7	276	27	
2025-07-22T00:00	9960	276	-43.2	-63.3	276	28	
2025-07-22T00:00	9980	275	-43.4	-63.5	276	29	
2025-07-22T00:00	10000	274	-43.4	-63.8	275	29	
2025-07-22T00:00	10018	273	-43.3	-64.3	274	30	
2025-07-22T00:00	10050	272	-43.4	-65.1	272	31	
2025-07-22T00:00	10100	270	-43.2	-67.2	271	32	
2025-07-22T00:00	10150	268	-42.7	-67.7	272	33	
2025-07-22T00:00	10200	266	-42.9	-67.4	274	34	
2025-07-22T00:00	10250	264	-43.2	-66.1	277	35	
2025-07-22T00:00	10300	262	-43.4	-65.4	277	35	
2025-07-22T00:00	10350	260	-43.5	-65.3	276	35	
2025-07-22T00:00	10400	258	-43.8	-65.2	274	35	
2025-07-22T00:00	10450	256	-44.1	-64.6	273	35	
2025-07-22T00:00	10500	254	-44.3	-64.4	274	35	
2025-07-22T00:00	10550	252	-44.4	-64.9	275	35	
2025-07-22T00:00	10600	251	-44.7	-65.3	275	35	
2025-07-22T00:00	10650	249	-44.9	-66.2	273	36	
2025-07-22T00:00	10700	247	-45.3	-66.4	272	36	
2025-07-22T00:00	10750	245	-45.6	-66.8	272	36	
2025-07-22T00:00	10800	243	-45.8	-67.4	274	35	
2025-07-22T00:00	10850	241	-45.8	-67.8	275	34	
2025-07-22T00:00	10900	240	-46.0	-68.3	275	34	
2025-07-22T00:00	10950	238	-46.0	-68.5	275	33	
2025-07-22T00:00	11000	236	-46.1	-68.7	275	33	
2025-07-22T00:00	11050	234	-46.2	-69.0	275	33	
2025-07-22T00:00	11100	232	-46.1	-69.0	275	33	
2025-07-22T00:00	11150	231	-45.9	-69.2	275	33	
2025-07-22T00:00	11200	229	-46.1	-69.3	274	32	
2025-07-22T00:00	11250	227	-46.3	-69.8	274	31	
2025-07-22T00:00	11300	226	-45.7	-70.2	274	29	
2025-07-22T00:00	11350	224	-45.6	-70.8	273	29	
2025-07-22T00:00	11400	222	-45.4	-71.2	272	29	
2025-07-22T00:00	11450	221	-45.3	-71.6	271	30	
2025-07-22T00:00	11500	219	-45.2	-72.1	270	29	
2025-07-22T00:00	11550	217	-45.2	-72.5	270	29	
2025-07-22T00:00	11600	216	-45.4	-72.8	270	29	
2025-07-22T00:00	11650	214	-45.7	-72.7	270	29	
2025-07-22T00:00	11700	212	-46.0	-72.9	272	29	
2025-07-22T00:00	11750	211	-46.3	-73.2	273	29	
2025-07-22T00:00	11800	209	-46.3	-73.7	272	29	
2025-07-22T00:00	11850	208	-46.2	-74.3	269	28	
2025-07-22T00:00	11900	206	-46.1	-74.5	266	29	
2025-07-22T00:00	11950	205	-46.2	-74.6	267	30	
2025-07-22T00:00	12000	203	-46.1	-74.9	269	31	
2025-07-22T00:00	12050	201	-46.0	-75.2	271	31	
2025-07-22T00:00	12100	200	-45.8	-75.5	272	31	
2025-07-22T00:00	12150	198	-45.8	-75.8	272	31	
2025-07-22T00:00	12200	197	-46.1	-75.9	272	31	
2025-07-22T00:00	12250	196	-46.1	-76.1	272	30	
2025-07-22T00:00	12300	194	-46.4	-76.4	270	30	
2025-07-22T00:00	12350	193	-46.5	-76.8	268	30	
2025-07-22T00:00	12400	191	-46.7	-76.9	266	30	
2025-07-22T00:00	12450	190	-46.8	-77.1	266	30	
2025-07-22T00:00	12500	188	-46.9	-77.3	267	30	
2025-07-22T00:00	12550	187	-47.3	-77.4	267	31	
2025-07-22T00:00	12600	186	-47.6	-77.6	267	30	
2025-07-22T00:00	12650	184	-48.0	-77.7	267	29	
2025-07-22T00:00	12700	183	-48.3	-77.9	268	28	
2025-07-22T00:00	12750	181	-48.7	-78.1	267	27	
2025-07-22T00:00	12800	180	-49.0	-78.4	267	26	
2025-07-22T00:00	12850	179	-48.9	-78.7	266	26	
2025-07-22T00:00	12900	177	-49.3	-78.9	265	26	
2025-07-22T00:00	12950	176	-49.4	-79.0	265	26	
2025-07-22T00:00	13000	174	-49.5	-78.9	265	26	
2025-07-22T00:00	13050	173	-49.7	-79.0	265	25	
2025-07-22T00:00	13100	172	-50.0	-78.9	264	25	
2025-07-22T00:00	13150	171	-50.2	-79.0	264	25	
2025-07-22T00:00	13200	169	-50.4	-79.3	263	24	
2025-07-22T00:00	13250	168	-50.7	-79.5	263	24	
2025-07-22T00:00	13300	167	-50.9	-79.6	263	25	
2025-07-22T00:00	13350	165	-51.1	-79.5	262	25	
2025-07-22T00:00	13400	164	-51.3	-79.4	262	25	
2025-07-22T00:00	13450	163	-51.7	-79.3	261	25	
2025-07-22T00:00	13500	162	-52.0	-79.3	261	25	
2025-07-22T00:00	13550	160	-52.2	-79.2	261	26	
2025-07-22T00:00	13600	159	-52.5	-79.3	262	26	
2025-07-22T00:00	13650	158	-52.7	-79.2	263	26	
2025-07-22T00:00	13700	157	-52.5	-79.2	265	26	
2025-07-22T00:00	13750	155	-52.3	-79.2	267	26	
2025-07-22T00:00	13800	154	-52.2	-79.4	267	26	
2025-07-22T00:00	13850	153	-52.3	-79.6	264	26	
2025-07-22T00:00	13900	152	-52.7	-80.0	262	26	
2025-07-22T00:00	13950	151	-52.8	-80.1	260	27	
2025-07-22T00:00	14000	150	-53.1	-80.3	259	28	
2025-07-22T00:00	14050	148	-52.9	-80.8	260	28	
2025-07-22T00:00	14100	147	-52.4	-81.3	262	27	
2025-07-22T00:00	14150	146	-52.3	-81.5	263	26	
2025-07-22T00:00	14200	145	-52.6	-81.5	263	26	
2025-07-22T00:00	14250	144	-52.4	-81.6	264	26	
2025-07-22T00:00	14300	143	-52.3	-81.6	266	25	
2025-07-22T00:00	14350	142	-52.2	-81.4	268	25	
2025-07-22T00:00	14400	141	-52.2	-81.4	267	24	
2025-07-22T00:00	14450	140	-52.3	-81.5	264	23	
2025-07-22T00:00	14500	138	-52.5	-81.6	261	23	
2025-07-22T00:00	14550	137	-52.6	-81.9	260	23	
2025-07-22T00:00	14600	136	-52.4	-82.0	263	22	
2025-07-22T00:00	14650	135	-52.0	-82.0	267	22	
2025-07-22T00:00	14700	134	-51.9	-81.9	268	22	
2025-07-22T00:00	14750	133	-51.7	-81.8	269	21	
2025-07-22T00:00	14800	132	-51.7	-81.9	270	21	
2025-07-22T00:00	14850	131	-51.6	-81.9	271	20	
2025-07-22T00:00	14900	130	-51.5	-81.7	271	20	
2025-07-22T00:00	14950	129	-51.6	-81.8	270	20	
2025-07-22T00:00	15000	128	-51.8	-81.9	270	19	
2025-07-22T00:00	15050	127	-51.7	-82.0	271	19	
2025-07-22T00:00	15100	126	-51.5	-81.9	271	18	
2025-07-22T00:00	15150	125	-51.1	-82.0	268	19	
2025-07-22T00:00	15200	124	-50.4	-81.7	265	19	
2025-07-22T00:00	15250	123	-50.6	-81.7	266	19	
2025-07-22T00:00	15300	122	-50.8	-81.9	268	18	
2025-07-22T00:00	15350	121	-50.1	-81.6	271	17	
2025-07-22T00:00	15400	121	-49.9	-81.5	271	15	
2025-07-22T00:00	15450	120	-50.3	-81.4	271	13	
2025-07-22T00:00	15500	119	-50.8	-81.7	272	12	
2025-07-22T00:00	15550	118	-50.7	-81.5	273	10	
2025-07-22T00:00	15600	117	-50.9	-81.6	270	9	
2025-07-22T00:00	15650	116	-51.4	-81.8	266	7	
2025-07-22T00:00	15700	115	-51.7	-81.9	265	7	
2025-07-22T00:00	15750	114	-51.2	-81.9	268	7	
2025-07-22T00:00	15800	113	-51.2	-81.9	269	8	
2025-07-22T00:00	15850	112	-51.6	-82.0	263	8	
2025-07-22T00:00	15900	112	-51.8	-82.1	251	7	
2025-07-22T00:00	15950	111	-51.9	-82.1	239	6	
2025-07-22T00:00	16000	110	-52.0	-82.1	229	5	
2025-07-22T00:00	16050	109	-52.4	-82.2	216	5	
2025-07-22T00:00	16100	108	-52.8	-82.3	210	5	
2025-07-22T00:00	16150	107	-53.3	-82.5	212	6	
2025-07-22T00:00	16200	107	-53.6	-82.7	215	6	
2025-07-22T00:00	16250	106	-54.1	-82.8	220	6	
2025-07-22T00:00	16300	105	-54.4	-83.2	227	7	
2025-07-22T00:00	16350	104	-53.9	-83.1	232	8	
2025-07-22T00:00	16400	103	-53.9	-83.1	234	9	
2025-07-22T00:00	16450	102	-54.4	-83.1	235	10	
2025-07-22T00:00	16500	102	-54.7	-83.2	236	11	
2025-07-22T00:00	16550	101	-54.7	-83.4	239	12	
2025-07-22T00:00	16600	100	-54.8	-83.4	241	13	
2025-07-22T00:00	16650	99	-55.0	-83.6	240	14	
2025-07-22T00:00	16700	99	-54.8	-83.5	239	14	
2025-07-22T00:00	16750	98	-54.9	-83.6	236	13	
2025-07-22T00:00	16800	97	-55.1	-83.7	232	13	
2025-07-22T00:00	16850	96	-55.4	-83.7	227	14	
2025-07-22T00:00	16900	95	-55.6	-83.8	226	14	
2025-07-22T00:00	16950	95	-55.9	-84.1	229	15	
2025-07-22T00:00	17000	94	-54.8	-84.0	233	14	
2025-07-22T00:00	17050	93	-53.9	-83.9	238	13	
2025-07-22T00:00	17100	93	-53.4	-83.7	245	11	
2025-07-22T00:00	17150	92	-53.3	-83.4	255	9	
2025-07-22T00:00	17200	91	-53.4	-83.2	260	8	
2025-07-22T00:00	17250	90	-53.7	-83.3	259	7	
2025-07-22T00:00	17300	90	-53.8	-83.5	251	6	
2025-07-22T00:00	17350	89	-53.3	-83.3	245	6	
2025-07-22T00:00	17400	88	-53.6	-83.3	245	7	
2025-07-22T00:00	17450	88	-53.9	-83.4	247	7	
2025-07-22T00:00	17500	87	-54.2	-83.4	248	7	
2025-07-22T00:00	17550	86	-54.6	-83.6	246	6	
2025-07-22T00:00	17600	86	-54.6	-83.7	240	5	
2025-07-22T00:00	17650	85	-54.7	-83.6	235	5	
2025-07-22T00:00	17700	84	-55.1	-83.8	230	6	
2025-07-22T00:00	17750	84	-55.4	-83.9	224	6	
2025-07-22T00:00	17800	83	-55.7	-84.0	223	6	
2025-07-22T00:00	17850	82	-56.0	-84.2	230	6	
2025-07-22T00:00	17900	82	-55.8	-84.4	239	6	
2025-07-22T00:00	17950	81	-55.3	-84.3	247	5	
2025-07-22T00:00	18000	80	-55.3	-84.3	249	5	
2025-07-22T00:00	18050	80	-55.5	-84.4	242	5	
2025-07-22T00:00	18100	79	-55.1	-84.3	232	5	
2025-07-22T00:00	18150	79	-54.7	-84.2	226	6	
2025-07-22T00:00	18200	78	-54.5	-84.0	225	5	
2025-07-22T00:00	18250	77	-54.7	-84.0	228	5	
2025-07-22T00:00	18300	77	-54.9	-84.0	232	5	
2025-07-22T00:00	18350	76	-55.1	-84.0	235	5	
2025-07-22T00:00	18400	76	-55.6	-84.2	237	6	
2025-07-22T00:00	18450	75	-55.9	-84.3	242	6	
2025-07-22T00:00	18500	74	-56.1	-84.5	249	7	
2025-07-22T00:00	18550	74	-56.0	-84.5	253	6	
2025-07-22T00:00	18600	73	-56.0	-84.5	254	6	
2025-07-22T00:00	18650	73	-56.1	-84.6	256	6	
2025-07-22T00:00	18700	72	-56.3	-84.7	260	7	
2025-07-22T00:00	18750	71	-55.9	-84.8	264	7	
2025-07-22T00:00	18800	71	-55.4	-84.6	268	7	
2025-07-22T00:00	18850	70	-55.1	-84.6	269	7	
2025-07-22T00:00	18900	70	-54.6	-84.6	273	7	
2025-07-22T00:00	18950	69	-53.8	-84.4	280	6	
2025-07-22T00:00	19000	69	-53.1	-84.0	291	4	
2025-07-22T00:00	19050	68	-52.9	-83.8	311	2	
2025-07-22T00:00	19100	68	-53.1	-83.6	337	1	
2025-07-22T00:00	19150	67	-53.4	-83.5	7	1	
2025-07-22T00:00	19200	67	-53.7	-83.6	60	1	
2025-07-22T00:00	19250	66	-53.8	-83.6	86	1	
2025-07-22T00:00	19300	66	-54.2	-83.8	103	2	
2025-07-22T00:00	19350	65	-54.5	-83.9	127	2	
2025-07-22T00:00	19400	65	-54.6	-84.0	152	2	
2025-07-22T00:00	19450	64	-54.5	-84.0	175	2	
2025-07-22T00:00	19500	64	-54.4	-84.0	203	1	
2025-07-22T00:00	19550	63	-54.7	-84.1	233	1	
2025-07-22T00:00	19600	63	-54.9	-84.2	272	1	
2025-07-22T00:00	19650	62	-55.0	-84.3	335	1	
2025-07-22T00:00	19700	62	-54.8	-84.3	24	1	
2025-07-22T00:00	19750	61	-54.8	-84.4	50	2	
2025-07-22T00:00	19800	61	-54.4	-84.2	64	3	
2025-07-22T00:00	19850	60	-54.4	-84.2	76	4	
2025-07-22T00:00	19900	60	-54.8	-84.1	90	5	
2025-07-22T00:00	19950	59	-55.1	-84.2	104	6	
2025-07-22T00:00	20000	59	-55.3	-84.2	115	7	
2025-07-22T00:00	20050	58	-55.6		122	8	
2025-07-22T00:00	20100	58	-55.3		127	9	
2025-07-22T00:00	20150	57	-55.3		135	9	
2025-07-22T00:00	20200	57	-55.3		144	8	
2025-07-22T00:00	20250	57	-55.2		154	7	
2025-07-22T00:00	20300	56	-55.3		154	5	
2025-07-22T00:00	20350	56	-55.1		137	5	
2025-07-22T00:00	20400	55	-54.3		119	5	
2025-07-22T00:00	20450	55	-54.4		117	5	
2025-07-22T00:00	20500	54	-54.2		124	4	
2025-07-22T00:00	20550	54	-54.1		134	4	
2025-07-22T00:00	20600	54	-54.1		146	4	
2025-07-22T00:00	20650	53	-54.0		154	4	
2025-07-22T00:00	20700	53	-54.0		144	3	
2025-07-22T00:00	20750	52	-54.1		122	4	
2025-07-22T00:00	20800	52	-54.1		116	5	
2025-07-22T00:00	20850	51	-54.0		121	6	
2025-07-22T00:00	20900	51	-54.2		131	6	
2025-07-22T00:00	20950	51	-53.9		144	6	
2025-07-22T00:00	21000	50	-54.0		157	6	
2025-07-22T00:00	21050	50	-54.1		169	5	
2025-07-22T00:00	21100	50	-54.0		171	5	
2025-07-22T00:00	21150	49	-54.0		161	5	
2025-07-22T00:00	21200	49	-54.0		146	5	
2025-07-22T00:00	21250	48	-53.9		140	6	
2025-07-22T00:00	21300	48	-53.7		146	6	
2025-07-22T00:00	21350	48	-53.4		158	6	
2025-07-22T00:00	21400	47	-53.3		168	6	
2025-07-22T00:00	21450	47	-53.2		174	5	
2025-07-22T00:00	21500	47	-53.1		175	4	
2025-07-22T00:00	21550	46	-53.1		169	4	
2025-07-22T00:00	21600	46	-53.2		160	4	
2025-07-22T00:00	21650	45	-53.0		161	4	
2025-07-22T00:00	21700	45	-52.9		171	3	
2025-07-22T00:00	21750	45	-53.0		171	2	
2025-07-22T00:00	21800	44	-52.9		126	1	
2025-07-22T00:00	21850	44	-52.8		66	2	
2025-07-22T00:00	21900	44	-52.9		54	2	
2025-07-22T00:00	21950	43	-52.8		57	2	
2025-07-22T00:00	22000	43	-52.9		63	2	
2025-07-22T00:00	22050	43	-53.2		60	3	
2025-07-22T00:00	22100	42	-53.2		58	5	
2025-07-22T00:00	22150	42	-53.0		60	7	
2025-07-22T00:00	22200	42	-52.8		65	8	
2025-07-22T00:00	22250	41	-52.9		72	8	
2025-07-22T00:00	22300	41	-53.0		82	8	
2025-07-22T00:00	22350	41	-52.7		93	8	
2025-07-22T00:00	22400	40	-52.7		103	8	
2025-07-22T00:00	22450	40	-52.9		105	7	
2025-07-22T00:00	22500	40	-52.7		99	8	
2025-07-22T00:00	22550	40	-52.4		92	9	
2025-07-22T00:00	22600	39	-52.3		90	11	
2025-07-22T00:00	22650	39	-52.3		91	11	
2025-07-22T00:00	22700	39	-52.3		92	11	
2025-07-22T00:00	22750	38	-52.0		95	10	
2025-07-22T00:00	22800	38	-51.8		100	10	
2025-07-22T00:00	22850	38	-52.0		103	9	
2025-07-22T00:00	22900	37	-52.2		103	9	
2025-07-22T00:00	22950	37	-52.3		97	8	
2025-07-22T00:00	23000	37	-52.1		87	8	
2025-07-22T00:00	23050	37	-52.1		82	8	
2025-07-22T00:00	23100	36	-52.1		86	8	
2025-07-22T00:00	23150	36	-52.3		92	8	
2025-07-22T00:00	23200	36	-52.5		94	8	
2025-07-22T00:00	23250	35	-52.7		91	8	
2025-07-22T00:00	23300	35	-52.4		87	9	
2025-07-22T00:00	23350	35	-52.1		89	10	
2025-07-22T00:00	23400	35	-52.1		94	11	
2025-07-22T00:00	23450	34	-51.9		101	11	
2025-07-22T00:00	23500	34	-52.1		108	11	
2025-07-22T00:00	23550	34	-52.3		115	11	
2025-07-22T00:00	23600	34	-52.2		122	10	
2025-07-22T00:00	23650	33	-52.1		128	8	
2025-07-22T00:00	23700	33	-52.1		131	7	
2025-07-22T00:00	23750	33	-51.9		133	6	
2025-07-22T00:00	23800	33	-52.0		135	5	
2025-07-22T00:00	23850	32	-52.3		133	4	
2025-07-22T00:00	23900	32	-52.2		129	4	
2025-07-22T00:00	23950	32	-51.9		128	5	
2025-07-22T00:00	24000	32	-51.4		128	5	
2025-07-22T00:00	24050	31	-51.0		123	4	
2025-07-22T00:00	24100	31	-50.8		111	4	
2025-07-22T00:00	24150	31	-50.5		98	5	
2025-07-22T00:00	24200	31	-50.3		92	7	
2025-07-22T00:00	24250	30	-50.2		91	9	
2025-07-22T00:00	24300	30	-50.3		93	10	
2025-07-22T00:00	24350	30	-50.3		96	10	
2025-07-22T00:00	24400	30	-50.0		98	10	
2025-07-22T00:00	24450	29	-50.0		99	11	
2025-07-22T00:00	24500	29	-50.1		99	12	
2025-07-22T00:00	24550	29	-50.2		101	12	
2025-07-22T00:00	24600	29	-50.1		104	12	
2025-07-22T00:00	24650	29	-50.1		109	12	
2025-07-22T00:00	24700	28	-49.7		113	12	
2025-07-22T00:00	24750	28	-49.5		117	12	
2025-07-22T00:00	24800	28	-49.6		120	11	
2025-07-22T00:00	24850	28	-49.7		119	10	
2025-07-22T00:00	24900	28	-49.8		115	11	
2025-07-22T00:00	24950	27	-49.7		112	13	
2025-07-22T00:00	25000	27	-49.8		111	14	
2025-07-22T00:00	25050	27	-49.9		112	15	
2025-07-22T00:00	25100	27	-50.0		112	15	
2025-07-22T00:00	25150	26	-49.6		112	14	
2025-07-22T00:00	25200	26	-49.6		111	13	
2025-07-22T00:00	25250	26	-49.8		112	11	
2025-07-22T00:00	25300	26	-50.1		112	10	
2025-07-22T00:00	25350	26	-50.3		109	10	
2025-07-22T00:00	25400	25	-50.1		103	11	
2025-07-22T00:00	25450	25	-50.0		100	12	
2025-07-22T00:00	25500	25	-49.9		99	12	
2025-07-22T00:00	25550	25	-49.4		99	10	
2025-07-22T00:00	25600	25	-49.4		96	8	
2025-07-22T00:00	25650	25	-49.3		90	7	
2025-07-22T00:00	25700	24	-49.4		80	6	
2025-07-22T00:00	25750	24	-49.5		66	5	
2025-07-22T00:00	25800	24	-49.5		59	6	
2025-07-22T00:00	25850	24	-48.8		61	8	
2025-07-22T00:00	25900	24	-48.4		68	10	
2025-07-22T00:00	25950	23	-48.4		74	11	
2025-07-22T00:00	26000	23	-48.5		79	12	
2025-07-22T00:00	26050	23	-48.4		83	12	
2025-07-22T00:00	26100	23	-48.3		85	11	
2025-07-22T00:00	26150	23	-48.2		85	11	
2025-07-22T00:00	26200	23	-48.2		85	11	
2025-07-22T00:00	26250	22	-48.1		87	12	
2025-07-22T00:00	26300	22	-48.1		90	13	
2025-07-22T00:00	26350	22	-48.2		93	14	
2025-07-22T00:00	26400	22	-48.4		95	15	
2025-07-22T00:00	26450	22	-48.4		97	16	
2025-07-22T00:00	26500	22	-48.3		100	16	
2025-07-22T00:00	26550	21	-48.2		105	15	
2025-07-22T00:00	26600	21	-48.3		110	15	
2025-07-22T00:00	26650	21	-48.3		113	14	
2025-07-22T00:00	26700	21	-48.0		114	14	
2025-07-22T00:00	26750	21	-47.9		111	13	
2025-07-22T00:00	26800	21	-47.5		105	13	
2025-07-22T00:00	26850	20	-47.3		102	13	
2025-07-22T00:00	26900	20	-46.7		103	14	
2025-07-22T00:00	26950	20	-46.6		106	15	
2025-07-22T00:00	27000	20	-46.6		109	15	
2025-07-22T00:00	27050	20	-46.5		111	14	
2025-07-22T00:00	27100	20	-46.4		114	12	
2025-07-22T00:00	27150	20	-46.5		115	11	
2025-07-22T00:00	27200	19	-46.4		112	9	
2025-07-22T00:00	27250	19	-46.4		104	9	
2025-07-22T00:00	27300	19	-46.4		95	9	
2025-07-22T00:00	27350	19	-46.2		88	10	
2025-07-22T00:00	27400	19	-46.0		86	10	
2025-07-22T00:00	27450	19	-45.8		87	10	
2025-07-22T00:00	27500	19	-45.7		87	10	
2025-07-22T00:00	27550	18	-45.7		84	9	
2025-07-22T00:00	27600	18	-45.6		78	8	
2025-07-22T00:00	27650	18	-45.6		69	8	
2025-07-22T00:00	27700	18	-45.7		64	8	
2025-07-22T00:00	27750	18	-45.8		68	9	
2025-07-22T00:00	27800	18	-45.6		75	10	
2025-07-22T00:00	27850	18	-45.6		82	12	
2025-07-22T00:00	27900	17	-45.7		87	12	
2025-07-22T00:00	27950	17	-45.7		89	12	
2025-07-22T00:00	28000	17	-45.4		88	11	
2025-07-22T00:00	28050	17	-45.5		83	10	
2025-07-22T00:00	28100	17	-45.4		77	9	
2025-07-22T00:00	28150	17	-45.2		71	10	
2025-07-22T00:00	28200	17	-45.2		70	11	
2025-07-22T00:00	28250	17	-45.1		74	12	
2025-07-22T00:00	28300	16	-45.0		79	13	
2025-07-22T00:00	28350	16	-44.8		83	14	
2025-07-22T00:00	28400	16	-44.7		85	15	
2025-07-22T00:00	28450	16	-44.8		87	16	
2025-07-22T00:00	28500	16	-44.8		90	16	
2025-07-22T00:00	28550	16	-44.8		94	17	
2025-07-22T00:00	28600	16	-44.9		97	16	
2025-07-22T00:00	28650	16	-44.8		97	16	
2025-07-22T00:00	28700	15	-44.6		93	15	
2025-07-22T00:00	28750	15	-44.4		87	14	
2025-07-22T00:00	28800	15	-44.2		81	14	
2025-07-22T00:00	28850	15	-43.8		79	14	
2025-07-22T00:00	28900	15	-43.6		80	14	
2025-07-22T00:00	28950	15	-43.7		82	14	
2025-07-22T00:00	29000	15	-43.7		83	14	
2025-07-22T00:00	29050	15	-43.6		84	15	
2025-07-22T00:00	29100	15	-43.6		84	17	
2025-07-22T00:00	29150	14	-43.5		85	18	
2025-07-22T00:00	29200	14	-43.7		86	19	
2025-07-22T00:00	29250	14	-43.7		88	20	
2025-07-22T00:00	29300	14	-43.7		91	21	
2025-07-22T00:00	29350	14	-43.9		94	21	
2025-07-22T00:00	29400	14	-44.1		97	20	
2025-07-22T00:00	29450	14	-44.3		100	19	
2025-07-22T00:00	29500	14	-44.5		102	18	
2025-07-22T00:00	29550	14	-44.7		104	17	
2025-07-22T00:00	29600	14	-44.6		105	17	
2025-07-22T00:00	29650	13	-44.5		106	17	
2025-07-22T00:00	29700	13	-44.5		107	16	
2025-07-22T00:00	29750	13	-44.5		108	16	
2025-07-22T00:00	29800	13	-44.4		108	17	
2025-07-22T00:00	29850	13	-44.3		108	17	
2025-07-22T00:00	29900	13	-44.4		108	17	
2025-07-22T00:00	29950	13	-44.4		106	17	
2025-07-22T00:00	30000	13	-44.2		104	17	
2025-07-22T00:00	30050	13	-44.0		101	16	
2025-07-22T00:00	30100	13	-43.8		98	16	
2025-07-22T00:00	30150	12	-43.6		97	17	
2025-07-22T00:00	30200	12	-43.5		99	17	
2025-07-22T00:00	30250	12	-43.4		103	18	
2025-07-22T00:00	30300	12	-43.6		107	18	
2025-07-22T00:00	30350	12	-43.9		111	18	
2025-07-22T00:00	30400	12	-44.2		114	17	
2025-07-22T00:00	30450	12	-44.2		115	16	
2025-07-22T00:00	30500	12	-43.8		114	15	
2025-07-22T00:00	30550	12	-43.3		111	14	
2025-07-22T00:00	30600	12	-43.1		109	14	
2025-07-22T00:00	30650	12	-42.9		107	15	
2025-07-22T00:00	30700	11	-42.5		107	15	
2025-07-22T00:00	30750	11	-42.4		107	14	
2025-07-22T00:00	30800	11	-42.3		106	14	
2025-07-22T00:00	30850	11	-41.9		105	14	
2025-07-22T00:00	30900	11	-41.6		105	15	
2025-07-22T00:00	30950	11	-41.2		107	16	
2025-07-22T00:00	31000	11	-40.9		109	17	
2025-07-22T00:00	31050	11	-41.0		113	18	
2025-07-22T00:00	31100	11	-41.0		115	18	
2025-07-22T00:00	31150	11	-41.2		115	18	
2025-07-22T00:00	31200	11	-41.1		112	16	
2025-07-22T00:00	31250	11	-40.8		107	15	
2025-07-22T00:00	31300	11	-40.4		102	14	
2025-07-22T00:00	31350	10	-40.0		99	14	
2025-07-22T00:00	31400	10	-39.8		98	15	
2025-07-22T00:00	31450	10	-39.6		98	16	
2025-07-22T00:00	31500	10	-39.4		98	17	
2025-07-22T00:00	31550	10	-39.1		97	17	
2025-07-22T00:00	31600	10	-39.1		94	17	
2025-07-22T00:00	31650	10	-39.1		89	17	
2025-07-22T00:00	31700	10	-39.0		84	16	
2025-07-22T00:00	31750	10	-38.8		81	17	
2025-07-22T00:00	31800	10	-38.8		80	17	
2025-07-22T00:00	31850	10	-38.1		80	18	
2025-07-22T00:00	31900	10	-37.9		79	19	
2025-07-22T00:00	31950	10	-37.7		77	19	
2025-07-22T00:00	32000	10	-37.7		75	20	
2025-07-22T00:00	32050	9	-37.9		75	20	
2025-07-22T00:00	32100	9	-37.9		76	21	
2025-07-22T00:00	32150	9	-38.1		79	21	
2025-07-22T00:00	32200	9	-38.2		82	21	
2025-07-22T00:00	32250	9	-38.2		86	21	
2025-07-22T00:00	32300	9	-38.4		89	21	
2025-07-22T00:00	32350	9	-38.6		93	21	
2025-07-22T00:00	32400	9	-38.6		96	21	
2025-07-22T00:00	32450	9	-38.2		97	21	
2025-07-22T00:00	32500	9	-37.8		96	20	
2025-07-22T00:00	32550	9	-37.4		96	20	
2025-07-22T00:00	32600	9	-37.4		95	20	
2025-07-22T00:00	32650	9	-37.3		93	19	
2025-07-22T00:00	32700	9	-37.4		92	19	
2025-07-22T00:00	32750	9	-37.4		92	20	
2025-07-22T00:00	32800	8	-37.5		93	20	
2025-07-22T00:00	32850	8	-37.6		96	20	
2025-07-22T00:00	32900	8	-37.7		100	20	
2025-07-22T00:00	32950	8	-37.8		103	20	
2025-07-22T00:00	33000	8	-37.9		105	19	
2025-07-22T00:00	33050	8	-37.8		105	18	
2025-07-22T00:00	33100	8	-37.6		103	17	
2025-07-22T00:00	33150	8	-37.3		98	16	
2025-07-22T00:00	33200	8	-37.3		94	16	
2025-07-22T00:00	33250	8	-37.1		91	16	
2025-07-22T00:00	33300	8	-37.0		88	17	
2025-07-22T00:00	33350	8	-37.1		85	19	
2025-07-22T00:00	33400	8	-37.1		83	20	
2025-07-22T00:00	33450	8	-36.9		84	21	
2025-07-22T00:00	33500	8	-36.7		86	22	
2025-07-22T00:00	33550	8	-36.7		89	22	
2025-07-22T00:00	33600	8	-36.6		92	21	
2025-07-22T00:00	33650	7	-36.7		93	21	
2025-07-22T00:00	33700	7	-36.8		94	20	
2025-07-22T00:00	33750	7	-36.7		95	20	
2025-07-22T00:00	33800	7	-36.7		96	19	
2025-07-22T00:00	33850	7	-36.4		98	18	
2025-07-22T00:00	33900	7	-36.1		98	18	
2025-07-22T00:00	33950	7	-36.0		100	18	
2025-07-22T00:00	34000	7	-35.8		101	18	
2025-07-22T00:00	34050	7	-35.4		103	17	
2025-07-22T00:00	34100	7	-35.4		103	16	
2025-07-22T00:00	34150	7	-35.3		102	15	
2025-07-22T00:00	34200	7	-35.2		100	14	
2025-07-22T00:00	34250	7	-35.1		98	14	
2025-07-22T00:00	34300	7	-34.9		94	15	
2025-07-22T00:00	34350	7	-34.8		91	16	
2025-07-22T00:00	34400	7	-34.5		88	17	
2025-07-22T00:00	34450	7	-34.4		87	19	
2025-07-22T00:00	34500	7	-34.3		86	20	
2025-07-22T00:00	34550	7	-34.2		84	22	
2025-07-22T00:00	34600	7	-33.9		84	23	
2025-07-22T00:00	34650	6	-33.5		85	23	
2025-07-22T00:00	34700	6	-33.4		88	23	
2025-07-22T00:00	34750	6	-33.4		92	22	
2025-07-22T00:00	34800	6	-33.4		95	21	
2025-07-22T00:00	34850	6	-33.4		95	21	
2025-07-22T00:00	34900	6	-33.2		93	20	
2025-07-22T00:00	34950	6	-33.1		90	20	
2025-07-22T00:00	35000	6	-33.2		89	20	
2025-07-22T00:00	35050	6	-33.3		88	19	
2025-07-22T00:00	35100	6	-33.4		89	18	
2025-07-22T00:00	35150	6	-33.3		89	17	
2025-07-22T00:00	35200	6	-33.1		89	16	
2025-07-22T00:00	35250	6	-33.1		88	15	
2025-07-22T00:00	35300	6	-33.1		85	15	
2025-07-22T00:00	35350	6	-32.6		81	16	
2025-07-22T00:00	35400	6	-32.2		78	17	
2025-07-22T00:00	35450	6	-32.1		76	18	
2025-07-22T00:00	35500	6	-32.0		74	20	
2025-07-22T00:00	35550	6	-32.0		73	21	
2025-07-22T00:00	35600	6	-31.8		75	22	
2025-07-22T00:00	35650	6	-31.7		77	23	
2025-07-22T00:00	35700	6	-31.6		79	22	
2025-07-22T00:00	35750	6	-31.7		82	21	
2025-07-22T00:00	35800	6	-31.9		85	20	
2025-07-22T00:00	35850	5	-32.1		88	19	
2025-07-22T00:00	35900	5	-32.2		88	19	
2025-07-22T00:00	35950	5	-31.8		86	20	
2025-07-22T00:00	36000	5	-31.5		83	21	
2025-07-22T00:00	36050	5	-31.3		81	22	
2025-07-22T00:00	36100	5	-31.0		80	21	
2025-07-22T00:00	36150	5	-30.9		80	20	
2025-07-22T00:00	36200	5	-31.0		78	19	
2025-07-22T00:00	36250	5	-30.9		77	19	
2025-07-22T12:00	491	960	20.1	8.8	238	5	
2025-07-22T12:00	501	958	19.4	8.9	249	3	
2025-07-22T12:00	520	957	19.1	8.8	260	3	
2025-07-22T12:00	540	954	18.9	8.5	266	4	
2025-07-22T12:00	560	952	18.7	8.5	271	4	
2025-07-22T12:00	580	950	18.5	8.4	274	4	
2025-07-22T12:00	600	948	18.3	8.2	275	5	
2025-07-22T12:00	620	945	18.1	8.0	275	5	
2025-07-22T12:00	640	943	17.8	8.0	274	5	
2025-07-22T12:00	660	941	17.6	8.0	272	5	
2025-07-22T12:00	680	939	17.5	8.1	270	5	
2025-07-22T12:00	700	937	17.3	8.1	268	5	
2025-07-22T12:00	720	934	17.1	8.2	266	5	
2025-07-22T12:00	740	932	16.9	8.0	264	5	
2025-07-22T12:00	760	930	16.7	8.0	262	5	
2025-07-22T12:00	780	928	16.5	7.9	260	5	
2025-07-22T12:00	800	926	16.3	8.0	259	5	
2025-07-22T12:00	820	923	16.1	7.9	257	5	
2025-07-22T12:00	840	921	15.9	7.9	256	4	
2025-07-22T12:00	860	919	15.7	7.9	254	4	
2025-07-22T12:00	880	917	15.5	7.8	254	5	
2025-07-22T12:00	900	915	15.3	7.8	253	5	
2025-07-22T12:00	920	913	15.1	7.7	254	5	
2025-07-22T12:00	940	911	15.0	7.7	254	6	
2025-07-22T12:00	960	908	14.8	7.7	255	6	
2025-07-22T12:00	980	906	14.5	7.7	256	7	
2025-07-22T12:00	1000	904	14.4	7.7	257	8	
2025-07-22T12:00	1020	902	14.2	7.7	258	8	
2025-07-22T12:00	1040	900	14.0	7.6	259	9	
2025-07-22T12:00	1060	898	13.8	7.5	259	9	
2025-07-22T12:00	1080	895	13.6	7.5	259	9	
2025-07-22T12:00	1100	893	13.4	7.4	259	8	
2025-07-22T12:00	1120	891	13.2	7.4	258	8	
2025-07-22T12:00	1140	889	13.0	7.4	256	7	
2025-07-22T12:00	1160	887	12.8	7.4	252	7	
2025-07-22T12:00	1180	885	12.6	7.3	247	7	
2025-07-22T12:00	1200	883	12.4	7.3	242	7	
2025-07-22T12:00	1220	881	12.2	7.3	239	7	
2025-07-22T12:00	1240	878	12.1	7.3	236	7	
2025-07-22T12:00	1260	877	11.9	7.3	235	7	
2025-07-22T12:00	1280	875	11.7	7.3	235	8	
2025-07-22T12:00	1300	872	11.5	7.3	235	8	
2025-07-22T12:00	1320	870	11.3	7.2	235	8	
2025-07-22T12:00	1340	868	11.1	7.2	235	7	
2025-07-22T12:00	1360	866	11.0	7.2	234	7	
2025-07-22T12:00	1380	864	10.8	7.1	234	7	
2025-07-22T12:00	1400	862	10.6	7.1	233	7	
2025-07-22T12:00	1420	860	10.4	7.1	233	7	
2025-07-22T12:00	1440	858	10.2	7.0	232	8	
2025-07-22T12:00	1460	856	10.0	7.1	233	8	
2025-07-22T12:00	1480	854	9.8	7.0	233	8	
2025-07-22T12:00	1500	852	9.6	7.0	233	8	
2025-07-22T12:00	1520	850	9.5	7.0	232	8	
2025-07-22T12:00	1540	848	9.2	6.9	232	8	
2025-07-22T12:00	1560	846	9.0	6.9	231	7	
2025-07-22T12:00	1580	844	8.9	6.9	230	7	
2025-07-22T12:00	1600	842	8.7	6.9	229	7	
2025-07-22T12:00	1620	839	8.5	6.9	226	7	
2025-07-22T12:00	1640	837	8.3	6.8	223	7	
2025-07-22T12:00	1660	836	8.2	6.8	218	7	
2025-07-22T12:00	1680	834	8.0	6.7	215	7	
2025-07-22T12:00	1700	832	7.8	6.7	213	7	
2025-07-22T12:00	1720	830	7.6	6.7	213	7	
2025-07-22T12:00	1740	828	7.4	6.7	215	8	
2025-07-22T12:00	1760	825	7.2	6.6	216	8	
2025-07-22T12:00	1780	824	7.1	6.6	216	8	
2025-07-22T12:00	1800	821	6.9	6.7	216	8	
2025-07-22T12:00	1820	819	6.8	6.7	215	8	
2025-07-22T12:00	1840	817	6.7	6.6	215	8	
2025-07-22T12:00	1860	815	6.5	6.5	215	8	
2025-07-22T12:00	1880	814	6.5	6.5	216	8	
2025-07-22T12:00	1900	812	6.4	6.4	216	9	
2025-07-22T12:00	1920	809	6.3	6.3	216	9	
2025-07-22T12:00	1940	807	6.2	6.1	215	10	
2025-07-22T12:00	1960	805	6.1	5.9	213	10	
2025-07-22T12:00	1980	804	6.2	5.4	210	11	
2025-07-22T12:00	2000	802	6.4	5.0	207	11	
2025-07-22T12:00	2020	800	6.2	5.0	206	11	
2025-07-22T12:00	2040	798	6.2	4.8	206	11	
2025-07-22T12:00	2060	796	5.9	4.9	206	11	
2025-07-22T12:00	2080	794	5.8	4.5	208	11	
2025-07-22T12:00	2100	792	5.7	4.1	210	12	
2025-07-22T12:00	2120	790	5.5	4.1	212	12	
2025-07-22T12:00	2140	788	5.2	3.8	214	13	
2025-07-22T12:00	2160	786	5.0	4.1	214	13	
2025-07-22T12:00	2180	784	4.7	4.4	213	13	
2025-07-22T12:00	2200	782	4.6	3.7	212	13	
2025-07-22T12:00	2220	781	4.9	3.4	211	13	
2025-07-22T12:00	2240	779	4.8	2.4	210	13	
2025-07-22T12:00	2260	776	4.7	2.3	209	12	
2025-07-22T12:00	2280	775	4.3	2.5	210	12	
2025-07-22T12:00	2300	773	4.1	2.6	210	12	
2025-07-22T12:00	2320	771	4.1	2.1	212	12	
2025-07-22T12:00	2340	769	4.2	1.5	214	12	
2025-07-22T12:00	2360	767	3.9	1.6	215	12	
2025-07-22T12:00	2380	765	3.9	0.9	216	12	
2025-07-22T12:00	2400	763	4.2	-0.4	216	12	
2025-07-22T12:00	2420	762	4.2	-0.8	217	12	
2025-07-22T12:00	2440	760	4.2	-1.3	218	11	
2025-07-22T12:00	2460	758	4.1	-1.8	220	11	
2025-07-22T12:00	2480	756	4.2	-2.9	222	11	
2025-07-22T12:00	2500	754	4.6	-6.2	225	11	
2025-07-22T12:00	2520	752	4.7	-6.8	230	11	
2025-07-22T12:00	2540	750	4.7	-7.4	234	11	
2025-07-22T12:00	2560	748	4.8	-8.0	237	11	
2025-07-22T12:00	2580	747	4.9	-7.9	238	11	
2025-07-22T12:00	2600	745	4.8	-7.7	239	11	
2025-07-22T12:00	2620	743	4.6	-7.6	239	11	
2025-07-22T12:00	2640	741	4.4	-7.6	239	11	
2025-07-22T12:00	2660	739	4.3	-7.5	239	11	
2025-07-22T12:00	2680	738	4.1	-7.4	240	10	
2025-07-22T12:00	2700	736	4.1	-7.5	242	10	
2025-07-22T12:00	2720	734	4.0	-7.6	246	9	
2025-07-22T12:00	2740	732	3.8	-7.7	249	9	
2025-07-22T12:00	2760	730	3.6	-7.7	253	9	
2025-07-22T12:00	2780	729	3.6	-8.3	256	9	
2025-07-22T12:00	2800	727	3.8	-9.1	257	10	
2025-07-22T12:00	2820	725	3.9	-9.9	257	10	
2025-07-22T12:00	2840	723	3.8	-10.0	257	11	
2025-07-22T12:00	2860	721	3.6	-10.0	256	11	
2025-07-22T12:00	2880	719	3.4	-10.0	256	12	
2025-07-22T12:00	2900	718	3.3	-10.3	256	11	
2025-07-22T12:00	2920	716	3.2	-10.6	257	11	
2025-07-22T12:00	2940	714	3.2	-10.5	259	11	
2025-07-22T12:00	2960	713	3.1	-11.4	261	11	
2025-07-22T12:00	2980	711	3.0	-11.6	262	11	
2025-07-22T12:00	3000	709	3.0	-11.7	262	11	
2025-07-22T12:00	3020	707	3.0	-12.3	262	11	
2025-07-22T12:00	3040	706	3.0	-12.2	261	11	
2025-07-22T12:00	3060	704	3.0	-12.3	260	11	
2025-07-22T12:00	3080	702	2.9	-12.4	260	11	
2025-07-22T12:00	3100	700	2.8	-12.6	260	11	
2025-07-22T12:00	3120	698	2.8	-12.8	260	11	
2025-07-22T12:00	3140	697	2.7	-13.7	259	11	
2025-07-22T12:00	3160	695	2.6	-14.5	259	11	
2025-07-22T12:00	3180	693	2.5	-15.3	259	11	
2025-07-22T12:00	3200	692	2.5	-16.0	259	11	
2025-07-22T12:00	3220	690	2.5	-15.4	260	11	
2025-07-22T12:00	3240	688	2.4	-15.1	262	11	
2025-07-22T12:00	3260	687	2.2	-14.3	263	12	
2025-07-22T12:00	3280	685	2.1	-14.5	264	12	
2025-07-22T12:00	3300	683	2.1	-14.9	266	12	
2025-07-22T12:00	3320	682	2.0	-16.5	267	12	
2025-07-22T12:00	3340	680	2.0	-16.4	269	11	
2025-07-22T12:00	3360	678	1.9	-16.7	270	11	
2025-07-22T12:00	3380	676	1.8	-18.1	272	11	
2025-07-22T12:00	3400	675	1.7	-18.5	273	11	
2025-07-22T12:00	3420	673	1.5	-17.8	273	11	
2025-07-22T12:00	3440	672	1.3	-16.9	274	11	
2025-07-22T12:00	3460	670	1.2	-16.5	274	11	
2025-07-22T12:00	3480	668	1.1	-17.9	274	11	
2025-07-22T12:00	3500	666	1.0	-18.1	273	11	
2025-07-22T12:00	3520	665	0.9	-17.2	273	12	
2025-07-22T12:00	3540	663	0.8	-17.0	272	12	
2025-07-22T12:00	3560	661	0.6	-16.8	272	12	
2025-07-22T12:00	3580	660	0.5	-17.0	271	12	
2025-07-22T12:00	3600	658	0.3	-17.0	271	12	
2025-07-22T12:00	3620	656	0.2	-17.1	271	12	
2025-07-22T12:00	3640	655	0.1	-18.8	271	12	
2025-07-22T12:00	3660	653	0.0	-19.4	271	12	
2025-07-22T12:00	3680	652	-0.2	-17.9	272	12	
2025-07-22T12:00	3700	650	-0.3	-18.1	272	12	
2025-07-22T12:00	3720	648	-0.5	-18.7	272	12	
2025-07-22T12:00	3740	647	-0.6	-19.5	272	12	
2025-07-22T12:00	3760	645	-0.8	-17.4	272	12	
2025-07-22T12:00	3780	643	-0.9	-16.8	271	12	
2025-07-22T12:00	3800	642	-1.0	-17.5	271	13	
2025-07-22T12:00	3820	640	-1.2	-17.8	271	13	
2025-07-22T12:00	3840	639	-1.2	-15.3	271	13	
2025-07-22T12:00	3860	637	-1.3	-15.5	272	13	
2025-07-22T12:00	3880	635	-1.4	-15.8	274	14	
2025-07-22T12:00	3900	634	-1.5	-15.9	275	14	
2025-07-22T12:00	3920	632	-1.6	-15.9	276	14	
2025-07-22T12:00	3940	631	-1.8	-15.9	277	14	
2025-07-22T12:00	3960	629	-1.9	-16.0	277	14	
2025-07-22T12:00	3980	627	-2.0	-16.5	276	14	
2025-07-22T12:00	4000	626	-2.1	-17.3	276	13	
2025-07-22T12:00	4020	624	-2.2	-18.4	275	13	
2025-07-22T12:00	4040	623	-2.3	-18.7	275	13	
2025-07-22T12:00	4060	621	-2.4	-18.9	274	13	
2025-07-22T12:00	4080	620	-2.5	-19.9	274	13	
2025-07-22T12:00	4100	618	-2.6	-20.7	273	14	
2025-07-22T12:00	4120	616	-2.7	-21.5	272	14	
2025-07-22T12:00	4140	615	-2.9	-21.7	271	14	
2025-07-22T12:00	4160	613	-3.0	-22.0	270	15	
2025-07-22T12:00	4180	612	-3.1	-22.2	269	15	
2025-07-22T12:00	4200	610	-3.2	-22.4	269	15	
2025-07-22T12:00	4220	609	-3.4	-22.8	270	15	
2025-07-22T12:00	4240	607	-3.5	-23.3	272	15	
2025-07-22T12:00	4260	606	-3.5	-23.6	274	15	
2025-07-22T12:00	4280	604	-3.6	-24.3	276	15	
2025-07-22T12:00	4300	603	-3.7	-24.9	277	15	
2025-07-22T12:00	4320	601	-3.7	-26.0	278	14	
2025-07-22T12:00	4340	600	-3.7	-28.1	278	14	
2025-07-22T12:00	4360	598	-3.6	-30.6	278	14	
2025-07-22T12:00	4380	597	-3.5	-31.9	278	14	
2025-07-22T12:00	4400	595	-3.4	-33.4	278	14	
2025-07-22T12:00	4420	594	-3.3	-37.9	277	14	
2025-07-22T12:00	4440	592	-3.3	-36.8	277	13	
2025-07-22T12:00	4460	591	-3.4	-35.5	278	13	
2025-07-22T12:00	4480	589	-3.5	-35.5	279	13	
2025-07-22T12:00	4500	588	-3.6	-36.5	280	14	
2025-07-22T12:00	4520	586	-3.8	-36.5	281	14	
2025-07-22T12:00	4540	585	-4.0	-36.3	282	14	
2025-07-22T12:00	4560	583	-4.1	-36.5	282	15	
2025-07-22T12:00	4580	582	-4.2	-37.0	281	15	
2025-07-22T12:00	4600	580	-4.4	-37.4	280	15	
2025-07-22T12:00	4620	579	-4.5	-37.6	281	15	
2025-07-22T12:00	4640	577	-4.7	-37.3	282	14	
2025-07-22T12:00	4660	576	-4.9	-37.3	283	14	
2025-07-22T12:00	4680	574	-5.0	-37.5	283	14	
2025-07-22T12:00	4700	573	-5.2	-37.7	283	14	
2025-07-22T12:00	4720	572	-5.3	-38.1	282	14	
2025-07-22T12:00	4740	570	-5.5	-37.9	280	14	
2025-07-22T12:00	4760	569	-5.6	-38.1	277	14	
2025-07-22T12:00	4780	567	-5.8	-38.2	275	14	
2025-07-22T12:00	4800	566	-5.9	-40.0	273	14	
2025-07-22T12:00	4820	564	-6.0	-39.8	273	14	
2025-07-22T12:00	4840	563	-6.1	-39.5	272	13	
2025-07-22T12:00	4860	561	-6.3	-39.6	273	14	
2025-07-22T12:00	4880	560	-6.4	-39.9	276	14	
2025-07-22T12:00	4900	558	-6.6	-39.7	279	14	
2025-07-22T12:00	4920	557	-6.8	-38.9	281	14	
2025-07-22T12:00	4940	556	-7.0	-37.4	282	14	
2025-07-22T12:00	4960	554	-7.1	-37.6	282	15	
2025-07-22T12:00	4980	553	-7.3	-39.0	283	15	
2025-07-22T12:00	5000	551	-7.4	-37.6	282	15	
2025-07-22T12:00	5020	550	-7.6	-37.1	281	15	
2025-07-22T12:00	5040	549	-7.8	-36.6	280	15	
2025-07-22T12:00	5060	547	-8.0	-37.2	278	15	
2025-07-22T12:00	5080	546	-8.1	-36.9	277	16	
2025-07-22T12:00	5100	544	-8.3	-37.6	276	16	
2025-07-22T12:00	5120	543	-8.4	-36.7	276	16	
2025-07-22T12:00	5140	541	-8.6	-37.4	276	16	
2025-07-22T12:00	5160	540	-8.8	-39.1	276	15	
2025-07-22T12:00	5180	539	-8.9	-40.5	277	15	
2025-07-22T12:00	5200	537	-9.0	-42.4	278	15	
2025-07-22T12:00	5220	536	-9.1	-42.7	279	15	
2025-07-22T12:00	5240	534	-9.3	-42.9	280	15	
2025-07-22T12:00	5260	533	-9.4	-43.2	281	16	
2025-07-22T12:00	5280	532	-9.5	-42.9	281	16	
2025-07-22T12:00	5300	530	-9.7	-39.6	280	16	
2025-07-22T12:00	5320	529	-9.8	-39.0	280	16	
2025-07-22T12:00	5340	528	-9.9	-40.8	279	16	
2025-07-22T12:00	5360	526	-10.1	-41.1	279	16	
2025-07-22T12:00	5380	525	-10.2	-41.2	278	16	
2025-07-22T12:00	5400	524	-10.3	-41.3	277	17	
2025-07-22T12:00	5420	522	-10.3	-40.5	277	17	
2025-07-22T12:00	5440	521	-10.4	-40.2	277	18	
2025-07-22T12:00	5460	519	-10.5	-40.0	277	18	
2025-07-22T12:00	5480	518	-10.6	-40.3	278	18	
2025-07-22T12:00	5500	517	-10.7	-42.0	279	19	
2025-07-22T12:00	5520	516	-10.6	-43.0	279	19	
2025-07-22T12:00	5540	514	-10.6	-44.1	280	20	
2025-07-22T12:00	5560	513	-10.7	-44.3	280	20	
2025-07-22T12:00	5580	511	-10.8	-43.9	280	21	
2025-07-22T12:00	5600	510	-10.9	-44.2	281	21	
2025-07-22T12:00	5620	509	-10.9	-45.0	281	21	
2025-07-22T12:00	5640	508	-10.9	-44.5	281	21	
2025-07-22T12:00	5660	506	-11.0	-42.4	282	21	
2025-07-22T12:00	5680	505	-11.0	-41.5	283	21	
2025-07-22T12:00	5700	503	-11.1	-41.7	284	20	
2025-07-22T12:00	5720	502	-11.2	-42.0	285	20	
2025-07-22T12:00	5740	501	-11.3	-41.7	285	20	
2025-07-22T12:00	5760	500	-11.4	-41.8	285	20	
2025-07-22T12:00	5780	498	-11.5	-42.1	284	20	
2025-07-22T12:00	5800	497	-11.7	-40.2	283	21	
2025-07-22T12:00	5820	496	-11.8	-33.2	281	21	
2025-07-22T12:00	5840	494	-11.9	-31.4	280	22	
2025-07-22T12:00	5860	493	-12.0	-31.5	279	22	
2025-07-22T12:00	5880	492	-12.1	-31.6	279	22	
2025-07-22T12:00	5900	490	-12.2	-31.3	279	22	
2025-07-22T12:00	5920	489	-12.4	-31.1	279	22	
2025-07-22T12:00	5940	488	-12.5	-31.1	280	22	
2025-07-22T12:00	5960	487	-12.6	-31.6	280	21	
2025-07-22T12:00	5980	485	-12.8	-31.9	280	21	
2025-07-22T12:00	6000	484	-12.9	-32.3	280	21	
2025-07-22T12:00	6020	483	-13.1	-32.2	280	21	
2025-07-22T12:00	6040	482	-13.3	-31.6	279	21	
2025-07-22T12:00	6060	480	-13.4	-31.5	279	21	
2025-07-22T12:00	6080	479	-13.6	-31.5	279	21	
2025-07-22T12:00	6100	478	-13.8	-31.6	279	21	
2025-07-22T12:00	6120	476	-13.9	-31.8	278	21	
2025-07-22T12:00	6140	475	-14.1	-32.3	278	21	
2025-07-22T12:00	6160	474	-14.2	-33.1	278	21	
2025-07-22T12:00	6180	473	-14.3	-34.2	278	21	
2025-07-22T12:00	6200	472	-14.4	-34.9	279	21	
2025-07-22T12:00	6220	470	-14.5	-35.8	280	21	
2025-07-22T12:00	6240	469	-14.6	-36.9	281	21	
2025-07-22T12:00	6260	468	-14.7	-37.8	282	21	
2025-07-22T12:00	6280	467	-14.8	-38.4	283	21	
2025-07-22T12:00	6300	465	-15.0	-39.2	283	22	
2025-07-22T12:00	6320	464	-15.1	-39.5	284	23	
2025-07-22T12:00	6340	463	-15.2	-39.8	284	23	
2025-07-22T12:00	6360	462	-15.3	-40.8	284	24	
2025-07-22T12:00	6380	460	-15.4	-41.5	284	24	
2025-07-22T12:00	6400	459	-15.4	-42.9	284	25	
2025-07-22T12:00	6420	458	-15.5	-43.5	284	25	
2025-07-22T12:00	6440	457	-15.6	-43.8	284	25	
2025-07-22T12:00	6460	456	-15.6	-43.2	283	25	
2025-07-22T12:00	6480	454	-15.7	-41.8	283	26	
2025-07-22T12:00	6500	453	-15.9	-39.9	283	26	
2025-07-22T12:00	6520	452	-16.0	-38.6	282	26	
2025-07-22T12:00	6540	451	-16.2	-37.5	282	26	
2025-07-22T12:00	6560	450	-16.3	-37.2	281	26	
2025-07-22T12:00	6580	448	-16.5	-36.9	280	26	
2025-07-22T12:00	6600	447	-16.6	-36.9	280	26	
2025-07-22T12:00	6620	446	-16.8	-36.9	279	26	
2025-07-22T12:00	6640	445	-17.0	-36.9	278	26	
2025-07-22T12:00	6660	444	-17.1	-37.3	278	26	
2025-07-22T12:00	6680	442	-17.2	-37.6	277	25	
2025-07-22T12:00	6700	441	-17.4	-38.0	277	25	
2025-07-22T12:00	6720	440	-17.6	-38.2	276	25	
2025-07-22T12:00	6740	439	-17.8	-38.3	276	25	
2025-07-22T12:00	6760	438	-17.9	-38.4	276	25	
2025-07-22T12:00	6780	437	-18.0	-38.3	277	25	
2025-07-22T12:00	6800	435	-18.2	-37.9	277	25	
2025-07-22T12:00	6820	434	-18.4	-37.9	278	25	
2025-07-22T12:00	6840	433	-18.6	-37.8	278	25	
2025-07-22T12:00	6860	432	-18.8	-37.8	278	25	
2025-07-22T12:00	6880	431	-19.0	-37.6	278	25	
2025-07-22T12:00	6900	430	-19.1	-37.4	278	26	
2025-07-22T12:00	6920	429	-19.3	-37.4	278	26	
2025-07-22T12:00	6940	427	-19.4	-37.2	278	26	
2025-07-22T12:00	6960	426	-19.6	-37.0	278	26	
2025-07-22T12:00	6980	425	-19.7	-36.1	279	27	
2025-07-22T12:00	7000	424	-19.9	-36.0	279	27	
2025-07-22T12:00	7020	423	-20.0	-36.8	280	27	
2025-07-22T12:00	7040	421	-20.1	-37.2	280	27	
2025-07-22T12:00	7060	420	-20.3	-36.6	281	27	
2025-07-22T12:00	7080	419	-20.4	-36.5	281	27	
2025-07-22T12:00	7100	418	-20.6	-36.5	281	27	
2025-07-22T12:00	7120	417	-20.8	-36.4	281	27	
2025-07-22T12:00	7140	416	-21.0	-36.2	281	27	
2025-07-22T12:00	7160	415	-21.2	-36.1	281	27	
2025-07-22T12:00	7180	414	-21.3	-35.9	280	27	
2025-07-22T12:00	7200	413	-21.5	-35.8	280	27	
2025-07-22T12:00	7220	411	-21.7	-36.1	279	27	
2025-07-22T12:00	7240	410	-21.9	-36.1	279	27	
2025-07-22T12:00	7260	409	-22.1	-36.2	279	27	
2025-07-22T12:00	7280	408	-22.3	-36.3	279	27	
2025-07-22T12:00	7300	407	-22.5	-36.3	279	27	
2025-07-22T12:00	7320	406	-22.7	-36.3	279	27	
2025-07-22T12:00	7340	405	-22.9	-36.4	279	27	
2025-07-22T12:00	7360	404	-23.0	-36.2	279	27	
2025-07-22T12:00	7380	402	-23.2	-35.9	280	27	
2025-07-22T12:00	7400	401	-23.3	-36.5	280	27	
2025-07-22T12:00	7420	400	-23.5	-35.8	280	27	
2025-07-22T12:00	7440	399	-23.7	-34.9	280	26	
2025-07-22T12:00	7460	398	-23.8	-35.2	280	26	
2025-07-22T12:00	7480	397	-24.0	-36.0	280	26	
2025-07-22T12:00	7500	396	-24.2	-35.9	279	26	
2025-07-22T12:00	7520	395	-24.3	-35.6	279	26	
2025-07-22T12:00	7540	394	-24.5	-35.8	279	26	
2025-07-22T12:00	7560	393	-24.7	-35.9	278	25	
2025-07-22T12:00	7580	392	-24.9	-36.0	277	25	
2025-07-22T12:00	7600	390	-25.1	-36.3	277	25	
2025-07-22T12:00	7620	389	-25.2	-36.4	276	25	
2025-07-22T12:00	7640	388	-25.4	-37.0	276	24	
2025-07-22T12:00	7660	387	-25.5	-37.4	275	24	
2025-07-22T12:00	7680	386	-25.7	-37.7	275	24	
2025-07-22T12:00	7700	385	-25.9	-38.5	275	24	
2025-07-22T12:00	7720	384	-26.1	-39.0	275	23	
2025-07-22T12:00	7740	383	-26.2	-40.1	275	23	
2025-07-22T12:00	7760	382	-26.3	-41.5	275	24	
2025-07-22T12:00	7780	381	-26.4	-43.0	275	24	
2025-07-22T12:00	7800	380	-26.4	-46.2	276	24	
2025-07-22T12:00	7820	379	-26.4	-46.8	277	24	
2025-07-22T12:00	7840	378	-26.6	-46.4	278	24	
2025-07-22T12:00	7860	377	-26.8	-46.1	279	24	
2025-07-22T12:00	7880	376	-26.9	-46.2	280	24	
2025-07-22T12:00	7900	375	-27.1	-46.1	281	24	
2025-07-22T12:00	7920	374	-27.3	-45.9	282	24	
2025-07-22T12:00	7940	373	-27.4	-45.9	282	24	
2025-07-22T12:00	7960	372	-27.5	-46.2	283	24	
2025-07-22T12:00	7980	371	-27.7	-46.4	284	24	
2025-07-22T12:00	8000	370	-27.8	-46.6	284	24	
2025-07-22T12:00	8020	369	-27.9	-46.6	284	24	
2025-07-22T12:00	8040	368	-28.1	-46.7	283	24	
2025-07-22T12:00	8060	367	-28.3	-46.8	283	24	
2025-07-22T12:00	8080	365	-28.5	-47.1	282	25	
2025-07-22T12:00	8100	364	-28.7	-48.1	282	25	
2025-07-22T12:00	8120	363	-28.8	-48.1	281	25	
2025-07-22T12:00	8140	362	-29.0	-47.7	281	25	
2025-07-22T12:00	8160	361	-29.1	-47.8	280	26	
2025-07-22T12:00	8180	360	-29.2	-48.0	280	26	
2025-07-22T12:00	8200	359	-29.4	-48.0	279	26	
2025-07-22T12:00	8220	358	-29.6	-48.0	279	26	
2025-07-22T12:00	8240	357	-29.7	-48.2	279	26	
2025-07-22T12:00	8260	356	-29.8	-48.6	280	25	
2025-07-22T12:00	8280	355	-30.0	-48.6	280	25	
2025-07-22T12:00	8300	354	-30.1	-48.8	281	25	
2025-07-22T12:00	8320	353	-30.3	-48.7	281	25	
2025-07-22T12:00	8340	352	-30.5	-48.6	282	25	
2025-07-22T12:00	8360	351	-30.7	-48.7	282	25	
2025-07-22T12:00	8380	350	-30.8	-48.6	283	25	
2025-07-22T12:00	8400	349	-31.0	-48.7	283	25	
2025-07-22T12:00	8420	348	-31.1	-49.0	284	25	
2025-07-22T12:00	8440	347	-31.2	-49.2	284	25	
2025-07-22T12:00	8460	346	-31.4	-49.3	284	26	
2025-07-22T12:00	8480	345	-31.6	-49.5	284	26	
2025-07-22T12:00	8500	344	-31.7	-49.7	283	26	
2025-07-22T12:00	8520	344	-31.9	-49.8	283	26	
2025-07-22T12:00	8540	343	-32.0	-50.0	283	26	
2025-07-22T12:00	8560	342	-32.1	-50.4	283	26	
2025-07-22T12:00	8580	341	-32.2	-50.8	282	26	
2025-07-22T12:00	8600	340	-32.3	-51.1	281	26	
2025-07-22T12:00	8620	339	-32.4	-51.5	280	26	
2025-07-22T12:00	8640	338	-32.5	-51.6	279	26	
2025-07-22T12:00	8660	337	-32.6	-51.6	277	26	
2025-07-22T12:00	8680	336	-32.8	-51.8	276	26	
2025-07-22T12:00	8700	335	-32.9	-52.0	275	27	
2025-07-22T12:00	8720	334	-33.1	-52.1	274	27	
2025-07-22T12:00	8740	333	-33.3	-52.2	274	27	
2025-07-22T12:00	8760	332	-33.4	-52.7	274	27	
2025-07-22T12:00	8780	331	-33.5	-53.1	273	28	
2025-07-22T12:00	8800	330	-33.7	-53.5	274	28	
2025-07-22T12:00	8820	329	-33.8	-53.8	274	29	
2025-07-22T12:00	8840	328	-34.0	-54.1	274	29	
2025-07-22T12:00	8860	327	-34.1	-54.7	274	30	
2025-07-22T12:00	8880	326	-34.1	-54.9	274	30	
2025-07-22T12:00	8900	326	-34.3	-54.8	274	31	
2025-07-22T12:00	8920	325	-34.4	-54.9	274	31	
2025-07-22T12:00	8940	324	-34.3	-55.3	274	32	
2025-07-22T12:00	8960	323	-34.4	-55.5	273	32	
2025-07-22T12:00	8980	322	-34.6	-55.7	273	33	
2025-07-22T12:00	9000	321	-34.7	-56.0	273	33	
2025-07-22T12:00	9020	320	-34.9	-56.2	273	33	
2025-07-22T12:00	9040	319	-35.0	-55.3	273	34	
2025-07-22T12:00	9060	318	-35.1	-54.5	273	34	
2025-07-22T12:00	9080	317	-35.2	-55.0	273	34	
2025-07-22T12:00	9100	316	-35.3	-55.0	273	35	
2025-07-22T12:00	9120	315	-35.4	-56.1	274	35	
2025-07-22T12:00	9140	314	-35.6	-57.2	274	36	
2025-07-22T12:00	9160	314	-35.7	-57.1	274	36	
2025-07-22T12:00	9180	313	-35.9	-57.8	274	36	
2025-07-22T12:00	9200	312	-36.0	-58.3	274	36	
2025-07-22T12:00	9220	311	-36.1	-58.2	274	36	
2025-07-22T12:00	9240	310	-36.3	-58.0	274	36	
2025-07-22T12:00	9260	309	-36.5	-57.9	274	36	
2025-07-22T12:00	9280	308	-36.7	-57.7	274	36	
2025-07-22T12:00	9300	307	-36.8	-57.9	273	36	
2025-07-22T12:00	9320	306	-37.0	-57.9	273	36	
2025-07-22T12:00	9340	305	-37.2	-57.8	273	36	
2025-07-22T12:00	9360	305	-37.4	-57.9	273	36	
2025-07-22T12:00	9380	304	-37.6	-58.1	273	36	
2025-07-22T12:00	9400	303	-37.8	-58.5	272	36	
2025-07-22T12:00	9420	302	-38.0	-58.5	272	36	
2025-07-22T12:00	9440	301	-38.2	-58.6	272	37	
2025-07-22T12:00	9460	300	-38.4	-58.6	272	37	
2025-07-22T12:00	9480	299	-38.5	-58.7	272	37	
2025-07-22T12:00	9500	298	-38.7	-58.7	272	37	
2025-07-22T12:00	9520	298	-38.9	-59.0	273	38	
2025-07-22T12:00	9540	297	-39.1	-59.2	273	38	
2025-07-22T12:00	9560	296	-39.3	-59.4	273	38	
2025-07-22T12:00	9580	295	-39.4	-59.2	273	39	
2025-07-22T12:00	9600	294	-39.5	-58.7	274	39	
2025-07-22T12:00	9620	293	-39.5	-58.9	274	39	
2025-07-22T12:00	9640	292	-39.6	-59.3	274	39	
2025-07-22T12:00	9660	292	-39.8	-59.4	274	39	
2025-07-22T12:00	9680	291	-39.9	-59.1	275	39	
2025-07-22T12:00	9700	290	-40.1	-58.9	275	39	
2025-07-22T12:00	9720	289	-40.2	-59.0	275	39	
2025-07-22T12:00	9740	288	-40.3	-58.8	275	39	
2025-07-22T12:00	9760	287	-40.4	-58.5	275	39	
2025-07-22T12:00	9780	286	-40.5	-58.6	276	39	
2025-07-22T12:00	9800	286	-40.7	-58.9	276	39	
2025-07-22T12:00	9820	285	-40.8	-59.0	276	38	
2025-07-22T12:00	9840	284	-41.0	-59.0	275	38	
2025-07-22T12:00	9860	283	-41.1	-59.0	275	38	
2025-07-22T12:00	9880	282	-41.1	-59.1	275	38	
2025-07-22T12:00	9900	281	-41.1	-59.2	275	39	
2025-07-22T12:00	9920	281	-41.0	-59.5	274	39	
2025-07-22T12:00	9940	280	-41.1	-59.9	274	39	
2025-07-22T12:00	9960	279	-41.1	-60.2	273	40	
2025-07-22T12:00	9980	278	-41.0	-60.3	273	40	
2025-07-22T12:00	10000	277	-41.0	-60.3	272	40	
2025-07-22T12:00	10018	277	-41.0	-60.2	272	41	
2025-07-22T12:00	10050	275	-41.1	-58.5	271	42	
2025-07-22T12:00	10100	273	-41.4	-53.9	270	43	
2025-07-22T12:00	10150	271	-41.8	-52.2	270	44	
2025-07-22T12:00	10200	269	-42.2	-52.7	270	44	
2025-07-22T12:00	10250	267	-42.6	-53.1	269	43	
2025-07-22T12:00	10300	265	-43.1	-53.0	269	43	
2025-07-22T12:00	10350	263	-43.5	-53.3	268	43	
2025-07-22T12:00	10400	261	-43.7	-54.6	267	43	
2025-07-22T12:00	10450	259	-44.1	-54.4	267	43	
2025-07-22T12:00	10500	258	-44.5	-54.8	267	43	
2025-07-22T12:00	10550	256	-44.8	-55.8	267	43	
2025-07-22T12:00	10600	254	-45.2	-56.3	267	43	
2025-07-22T12:00	10650	252	-45.6	-56.0	267	43	
2025-07-22T12:00	10700	250	-46.0	-56.5	267	43	
2025-07-22T12:00	10750	248	-46.5	-56.6	267	43	
2025-07-22T12:00	10800	246	-47.0	-57.2	268	42	
2025-07-22T12:00	10850	244	-47.4	-57.6	268	43	
2025-07-22T12:00	10900	242	-47.9	-57.6	268	43	
2025-07-22T12:00	10950	241	-48.3	-58.5	268	42	
2025-07-22T12:00	11000	239	-48.6	-60.2	269	42	
2025-07-22T12:00	11050	237	-48.7	-61.5	270	42	
2025-07-22T12:00	11100	235	-48.8	-62.2	270	42	
2025-07-22T12:00	11150	233	-49.1	-61.8	269	42	
2025-07-22T12:00	11200	232	-49.5	-62.9	269	42	
2025-07-22T12:00	11250	230	-49.6	-64.0	269	41	
2025-07-22T12:00	11300	228	-49.8	-65.2	269	41	
2025-07-22T12:00	11350	226	-49.7	-66.1	269	41	
2025-07-22T12:00	11400	225	-49.8	-67.0	269	40	
2025-07-22T12:00	11450	223	-49.9	-68.2	268	40	
2025-07-22T12:00	11500	221	-50.1	-68.7	268	39	
2025-07-22T12:00	11550	220	-50.4	-69.3	268	39	
2025-07-22T12:00	11600	218	-50.5	-70.4	268	39	
2025-07-22T12:00	11650	216	-50.5	-72.3	268	39	
2025-07-22T12:00	11700	215	-50.6	-71.7	268	39	
2025-07-22T12:00	11750	213	-50.8	-69.8	267	38	
2025-07-22T12:00	11800	211	-50.8	-70.6	266	38	
2025-07-22T12:00	11850	210	-51.1	-70.9	266	37	
2025-07-22T12:00	11900	208	-51.5	-70.4	265	37	
2025-07-22T12:00	11950	206	-51.5	-69.5	264	37	
2025-07-22T12:00	12000	205	-51.5	-69.9	264	37	
2025-07-22T12:00	12050	203	-51.8	-70.2	265	37	
2025-07-22T12:00	12100	202	-52.1	-70.2	266	38	
2025-07-22T12:00	12150	200	-52.3	-70.3	267	38	
2025-07-22T12:00	12200	199	-52.2	-71.3	269	37	
2025-07-22T12:00	12250	197	-52.1	-72.3	268	36	
2025-07-22T12:00	12300	196	-52.2	-72.5	266	36	
2025-07-22T12:00	12350	194	-52.4	-72.8	263	36	
2025-07-22T12:00	12400	193	-52.5	-73.0	261	37	
2025-07-22T12:00	12450	191	-52.7	-73.4	261	37	
2025-07-22T12:00	12500	190	-52.9	-73.5	262	37	
2025-07-22T12:00	12550	188	-53.0	-73.9	263	37	
2025-07-22T12:00	12600	187	-52.8	-74.4	264	37	
2025-07-22T12:00	12650	185	-52.5	-74.8	264	36	
2025-07-22T12:00	12700	184	-52.4	-75.3	264	35	
2025-07-22T12:00	12750	182	-52.3	-76.0	264	34	
2025-07-22T12:00	12800	181	-52.0	-76.4	265	33	
2025-07-22T12:00	12850	180	-51.8	-76.9	265	32	
2025-07-22T12:00	12900	178	-51.7	-77.2	266	32	
2025-07-22T12:00	12950	177	-51.7	-77.6	266	31	
2025-07-22T12:00	13000	176	-52.0	-77.7	267	31	
2025-07-22T12:00	13050	174	-52.3	-77.8	269	31	
2025-07-22T12:00	13100	173	-52.3	-78.4	271	30	
2025-07-22T12:00	13150	172	-52.0	-79.2	271	29	
2025-07-22T12:00	13200	170	-51.8	-79.1	271	28	
2025-07-22T12:00	13250	169	-52.1	-78.9	270	27	
2025-07-22T12:00	13300	168	-52.4	-78.5	269	27	
2025-07-22T12:00	13350	166	-52.8	-78.3	267	26	
2025-07-22T12:00	13400	165	-52.7	-78.8	264	26	
2025-07-22T12:00	13450	164	-52.3	-79.0	262	26	
2025-07-22T12:00	13500	162	-52.4	-78.6	262	25	
2025-07-22T12:00	13550	161	-52.7	-78.3	262	24	
2025-07-22T12:00	13600	160	-52.9	-78.4	262	24	
2025-07-22T12:00	13650	159	-53.2	-78.7	261	24	
2025-07-22T12:00	13700	158	-53.3	-78.9	258	24	
2025-07-22T12:00	13750	156	-53.5	-79.3	256	25	
2025-07-22T12:00	13800	155	-53.7	-79.4	255	26	
2025-07-22T12:00	13850	154	-53.7	-79.8	255	27	
2025-07-22T12:00	13900	153	-54.0	-80.2	256	27	
2025-07-22T12:00	13950	152	-54.2	-80.7	258	27	
2025-07-22T12:00	14000	150	-54.1	-81.6	260	26	
2025-07-22T12:00	14050	149	-53.9	-81.4	261	26	
2025-07-22T12:00	14100	148	-54.1	-81.2	259	25	
2025-07-22T12:00	14150	147	-54.3	-81.1	258	25	
2025-07-22T12:00	14200	146	-54.5	-81.4	258	26	
2025-07-22T12:00	14250	145	-54.8	-82.4	258	26	
2025-07-22T12:00	14300	143	-55.0	-83.1	258	26	
2025-07-22T12:00	14350	142	-55.0	-83.5	258	26	
2025-07-22T12:00	14400	141	-54.9	-83.6	259	25	
2025-07-22T12:00	14450	140	-54.5	-83.9	261	24	
2025-07-22T12:00	14500	139	-53.4	-83.6	265	23	
2025-07-22T12:00	14550	138	-53.1	-83.5	266	21	
2025-07-22T12:00	14600	137	-52.7	-83.5	265	19	
2025-07-22T12:00	14650	136	-52.5	-83.4	268	17	
2025-07-22T12:00	14700	135	-52.6	-83.3	269	16	
2025-07-22T12:00	14750	134	-53.0	-83.4	269	15	
2025-07-22T12:00	14800	133	-53.0	-83.8	267	14	
2025-07-22T12:00	14850	132	-52.7	-83.8	266	14	
2025-07-22T12:00	14900	131	-53.1	-83.8	265	15	
2025-07-22T12:00	14950	130	-53.3	-83.9	263	16	
2025-07-22T12:00	15000	129	-53.3	-84.2	263	16	
2025-07-22T12:00	15050	128	-53.3	-84.5	262	15	
2025-07-22T12:00	15100	127	-53.4	-84.5	260	14	
2025-07-22T12:00	15150	126	-53.6	-84.7	259	13	
2025-07-22T12:00	15200	125	-53.5	-84.7	257	13	
2025-07-22T12:00	15250	124	-53.5	-84.8	253	12	
2025-07-22T12:00	15300	123	-53.6	-84.7	250	12	
2025-07-22T12:00	15350	122	-53.7	-84.8	247	12	
2025-07-22T12:00	15400	121	-53.9	-84.9	243	11	
2025-07-22T12:00	15450	120	-54.1	-85.0	240	11	
2025-07-22T12:00	15500	119	-54.0	-84.9	236	11	
2025-07-22T12:00	15550	118	-53.9	-84.9	230	11	
2025-07-22T12:00	15600	117	-54.3	-85.2	224	11	
2025-07-22T12:00	15650	116	-54.1	-85.3	222	11	
2025-07-22T12:00	15700	115	-53.8	-85.3	226	10	
2025-07-22T12:00	15750	114	-54.1	-85.4	234	10	
2025-07-22T12:00	15800	114	-54.3	-85.3	239	10	
2025-07-22T12:00	15850	113	-54.3	-85.4	244	9	
2025-07-22T12:00	15900	112	-54.5	-85.6	250	10	
2025-07-22T12:00	15950	111	-54.6	-85.6	258	10	
2025-07-22T12:00	16000	110	-54.6	-85.6	265	10	
2025-07-22T12:00	16050	109	-54.5	-85.6	270	10	
2025-07-22T12:00	16100	108	-54.6	-85.8	274	11	
2025-07-22T12:00	16150	108	-54.5	-85.9	271	11	
2025-07-22T12:00	16200	107	-54.0	-85.8	264	10	
2025-07-22T12:00	16250	106	-54.0	-85.8	255	9	
2025-07-22T12:00	16300	105	-54.4	-85.8	246	8	
2025-07-22T12:00	16350	104	-54.7	-85.8	239	8	
2025-07-22T12:00	16400	103	-55.0	-85.8	235	8	
2025-07-22T12:00	16450	103	-55.4	-85.9	233	9	
2025-07-22T12:00	16500	102	-55.8	-86.0	234	10	
2025-07-22T12:00	16550	101	-56.1	-86.1	236	11	
2025-07-22T12:00	16600	100	-56.4	-86.3	237	12	
2025-07-22T12:00	16650	99	-56.5	-86.3	238	13	
2025-07-22T12:00	16700	99	-56.8	-86.4	240	14	
2025-07-22T12:00	16750	98	-56.9	-86.6	245	15	
2025-07-22T12:00	16800	97	-56.4	-86.9	253	14	
2025-07-22T12:00	16850	96	-55.0	-86.8	263	13	
2025-07-22T12:00	16900	96	-54.3	-86.7	272	11	
2025-07-22T12:00	16950	95	-54.3	-86.7	279	9	
2025-07-22T12:00	17000	94	-54.5	-86.6	285	6	
2025-07-22T12:00	17050	93	-54.7	-86.8	295	5	
2025-07-22T12:00	17100	93	-54.2	-86.5	312	3	
2025-07-22T12:00	17150	92	-53.8	-86.4	333	3	
2025-07-22T12:00	17200	91	-54.0	-86.3	343	4	
2025-07-22T12:00	17250	91	-54.4	-86.2	349	4	
2025-07-22T12:00	17300	90	-54.8	-86.3	352	4	
2025-07-22T12:00	17350	89	-55.0	-86.4	354	3	
2025-07-22T12:00	17400	88	-55.0	-86.5	2	3	
2025-07-22T12:00	17450	88	-55.0	-86.6	24	2	
2025-07-22T12:00	17500	87	-55.0	-86.7	53	2	
2025-07-22T12:00	17550	86	-55.1	-86.6	86	1	
2025-07-22T12:00	17600	86	-55.4	-86.6	108	1	
2025-07-22T12:00	17650	85	-55.5	-86.7	18	0	
2025-07-22T12:00	17700	84	-55.5	-86.8	336	1	
2025-07-22T12:00	17750	84	-55.5	-86.9	321	2	
2025-07-22T12:00	17800	83	-55.5	-86.9	289	1	
2025-07-22T12:00	17850	82	-55.5	-86.9	243	1	
2025-07-22T12:00	17900	82	-55.7	-87.2	225	2	
2025-07-22T12:00	17950	81	-54.7	-87.2	223	3	
2025-07-22T12:00	18000	80	-53.7	-87.1	226	4	
2025-07-22T12:00	18050	80	-53.8	-87.0	226	5	
2025-07-22T12:00	18100	79	-54.0	-86.7	221	6	
2025-07-22T12:00	18150	79	-54.3	-86.6	215	6	
2025-07-22T12:00	18200	78	-54.6	-86.8	212	7	
2025-07-22T12:00	18250	77	-54.7	-86.8	212	6	
2025-07-22T12:00	18300	77	-55.0	-86.9	215	6	
2025-07-22T12:00	18350	76	-55.5	-87.0	221	5	
2025-07-22T12:00	18400	76	-55.7	-87.1	223	4	
2025-07-22T12:00	18450	75	-55.7	-87.1	210	2	
2025-07-22T12:00	18500	74	-56.0	-87.2	185	3	
2025-07-22T12:00	18550	74	-56.2	-87.3	172	3	
2025-07-22T12:00	18600	73	-56.4	-87.4	165	4	
2025-07-22T12:00	18650	73	-56.5	-87.4	165	5	
2025-07-22T12:00	18700	72	-56.8	-87.6	170	5	
2025-07-22T12:00	18750	72	-56.7	-87.8	177	5	
2025-07-22T12:00	18800	71	-56.2	-87.9	178	6	
2025-07-22T12:00	18850	70	-55.5	-87.8	173	6	
2025-07-22T12:00	18900	70	-55.3	-87.7	168	6	
2025-07-22T12:00	18950	69	-55.3	-87.6	167	6	
2025-07-22T12:00	19000	69	-55.5	-87.5	167	6	
2025-07-22T12:00	19050	68	-55.5	-87.5	164	5	
2025-07-22T12:00	19100	68	-55.5	-87.5	160	5	
2025-07-22T12:00	19150	67	-55.5	-87.6	156	4	
2025-07-22T12:00	19200	67	-55.3	-87.7	146	3	
2025-07-22T12:00	19250	66	-55.0	-87.6	133	4	
2025-07-22T12:00	19300	66	-55.1	-87.6	124	5	
2025-07-22T12:00	19350	65	-55.2	-87.6	121	5	
2025-07-22T12:00	19400	65	-55.2	-87.6	125	5	
2025-07-22T12:00	19450	64	-55.2	-87.6	139	3	
2025-07-22T12:00	19500	64	-55.4	-87.6	163	3	
2025-07-22T12:00	19550	63	-55.6	-87.6	191	2	
2025-07-22T12:00	19600	63	-55.8	-87.8	210	3	
2025-07-22T12:00	19650	62	-55.8	-87.7	221	3	
2025-07-22T12:00	19700	62	-55.8	-87.7	233	4	
2025-07-22T12:00	19750	61	-56.0	-87.8	251	4	
2025-07-22T12:00	19800	61	-56.0	-87.8	271	4	
2025-07-22T12:00	19850	60	-56.2	-88.0	291	4	
2025-07-22T12:00	19900	60	-55.9	-88.2	312	4	
2025-07-22T12:00	19950	59	-55.4	-88.2	334	3	
2025-07-22T12:00	20000	59	-55.1	-88.3	7	3	
2025-07-22T12:00	20050	58	-54.3		50	3	
2025-07-22T12:00	20100	58	-53.8		73	3	
2025-07-22T12:00	20150	57	-53.9		86	3	
2025-07-22T12:00	20200	57	-53.8		94	3	
2025-07-22T12:00	20250	57	-53.3		97	4	
2025-07-22T12:00	20300	56	-52.7		101	5	
2025-07-22T12:00	20350	56	-52.9		108	6	
2025-07-22T12:00	20400	55	-53.0		118	6	
2025-07-22T12:00	20450	55	-52.9		130	6	
2025-07-22T12:00	20500	54	-52.8		140	5	
2025-07-22T12:00	20550	54	-52.5		146	4	
2025-07-22T12:00	20600	54	-52.2		150	4	
2025-07-22T12:00	20650	53	-52.2		143	4	
2025-07-22T12:00	20700	53	-52.0		126	5	
2025-07-22T12:00	20750	52	-51.6		116	6	
2025-07-22T12:00	20800	52	-51.4		111	7	
2025-07-22T12:00	20850	52	-51.4		107	6	
2025-07-22T12:00	20900	51	-51.4		106	6	
2025-07-22T12:00	20950	51	-51.6		108	6	
2025-07-22T12:00	21000	50	-51.6		113	6	
2025-07-22T12:00	21050	50	-51.5		119	7	
2025-07-22T12:00	21100	50	-51.8		123	8	
2025-07-22T12:00	21150	49	-52.2		125	9	
2025-07-22T12:00	21200	49	-52.6		127	10	
2025-07-22T12:00	21250	48	-53.0		130	10	
2025-07-22T12:00	21300	48	-53.3		134	10	
2025-07-22T12:00	21350	48	-53.0		138	8	
2025-07-22T12:00	21400	47	-52.9		144	7	
2025-07-22T12:00	21450	47	-52.9		150	6	
2025-07-22T12:00	21500	47	-52.9		149	5	
2025-07-22T12:00	21550	46	-52.8		140	5	
2025-07-22T12:00	21600	46	-52.5		130	6	
2025-07-22T12:00	21650	46	-52.5		127	7	
2025-07-22T12:00	21700	45	-52.5		130	7	
2025-07-22T12:00	21750	45	-52.4		134	6	
2025-07-22T12:00	21800	44	-52.3		138	5	
2025-07-22T12:00	21850	44	-52.2		140	4	
2025-07-22T12:00	21900	44	-52.1		144	3	
2025-07-22T12:00	21950	43	-51.9		147	2	
2025-07-22T12:00	22000	43	-52.0		131	2	
2025-07-22T12:00	22050	43	-52.1		88	2	
2025-07-22T12:00	22100	42	-52.1		74	4	
2025-07-22T12:00	22150	42	-52.1		75	5	
2025-07-22T12:00	22200	42	-52.4		80	7	
2025-07-22T12:00	22250	41	-52.6		87	8	
2025-07-22T12:00	22300	41	-52.4		95	8	
2025-07-22T12:00	22350	41	-52.0		105	7	
2025-07-22T12:00	22400	41	-51.8		113	7	
2025-07-22T12:00	22450	40	-51.9		121	7	
2025-07-22T12:00	22500	40	-52.1		126	7	
2025-07-22T12:00	22550	40	-52.2		126	6	
2025-07-22T12:00	22600	39	-52.2		115	5	
2025-07-22T12:00	22650	39	-52.1		97	5	
2025-07-22T12:00	22700	39	-52.2		85	5	
2025-07-22T12:00	22750	38	-52.1		85	6	
2025-07-22T12:00	22800	38	-52.1		91	6	
2025-07-22T12:00	22850	38	-52.1		97	6	
2025-07-22T12:00	22900	38	-52.2		100	7	
2025-07-22T12:00	22950	37	-52.3		102	7	
2025-07-22T12:00	23000	37	-52.1		103	8	
2025-07-22T12:00	23050	37	-51.9		104	8	
2025-07-22T12:00	23100	36	-52.1		108	8	
2025-07-22T12:00	23150	36	-52.3		113	7	
2025-07-22T12:00	23200	36	-52.3		118	7	
2025-07-22T12:00	23250	36	-52.4		119	7	
2025-07-22T12:00	23300	35	-52.3		120	8	
2025-07-22T12:00	23350	35	-52.1		120	9	
2025-07-22T12:00	23400	35	-51.9		122	10	
2025-07-22T12:00	23450	34	-52.0		123	11	
2025-07-22T12:00	23500	34	-52.0		125	10	
2025-07-22T12:00	23550	34	-51.6		128	9	
2025-07-22T12:00	23600	34	-51.7		132	8	
2025-07-22T12:00	23650	33	-51.9		135	7	
2025-07-22T12:00	23700	33	-51.9		135	6	
2025-07-22T12:00	23750	33	-51.8		130	6	
2025-07-22T12:00	23800	33	-51.5		122	6	
2025-07-22T12:00	23850	32	-51.4		116	7	
2025-07-22T12:00	23900	32	-51.3		115	7	
2025-07-22T12:00	23950	32	-51.0		115	7	
2025-07-22T12:00	24000	32	-50.8		115	6	
2025-07-22T12:00	24050	31	-50.7		113	5	
2025-07-22T12:00	24100	31	-50.4		109	5	
2025-07-22T12:00	24150	31	-50.3		105	6	
2025-07-22T12:00	24200	31	-50.3		100	7	
2025-07-22T12:00	24250	30	-50.3		95	8	
2025-07-22T12:00	24300	30	-50.0		90	9	
2025-07-22T12:00	24350	30	-49.7		88	9	
2025-07-22T12:00	24400	30	-49.7		89	10	
2025-07-22T12:00	24450	30	-49.8		92	11	
2025-07-22T12:00	24500	29	-49.9		96	11	
2025-07-22T12:00	24550	29	-50.0		100	11	
2025-07-22T12:00	24600	29	-49.9		105	12	
2025-07-22T12:00	24650	29	-49.7		111	12	
2025-07-22T12:00	24700	28	-49.4		116	12	
2025-07-22T12:00	24750	28	-49.4		121	12	
2025-07-22T12:00	24800	28	-49.4		124	11	
2025-07-22T12:00	24850	28	-49.6		124	10	
2025-07-22T12:00	24900	28	-49.6		121	9	
2025-07-22T12:00	24950	27	-49.4		116	9	
2025-07-22T12:00	25000	27	-49.5		112	9	
2025-07-22T12:00	25050	27	-49.5		110	10	
2025-07-22T12:00	25100	27	-49.6		111	10	
2025-07-22T12:00	25150	27	-49.6		114	11	
2025-07-22T12:00	25200	26	-49.5		117	12	
2025-07-22T12:00	25250	26	-49.7		120	12	
2025-07-22T12:00	25300	26	-49.8		121	12	
2025-07-22T12:00	25350	26	-49.8		123	11	
2025-07-22T12:00	25400	26	-49.5		125	10	
2025-07-22T12:00	25450	25	-49.1		124	9	
2025-07-22T12:00	25500	25	-48.8		118	7	
2025-07-22T12:00	25550	25	-48.3		109	5	
2025-07-22T12:00	25600	25	-48.1		101	5	
2025-07-22T12:00	25650	25	-47.8		100	6	
2025-07-22T12:00	25700	24	-47.5		100	7	
2025-07-22T12:00	25750	24	-47.4		97	7	
2025-07-22T12:00	25800	24	-47.3		92	7	
2025-07-22T12:00	25850	24	-47.2		86	7	
2025-07-22T12:00	25900	24	-47.2		80	7	
2025-07-22T12:00	25950	24	-47.1		73	6	
2025-07-22T12:00	26000	23	-47.0		69	7	
2025-07-22T12:00	26050	23	-46.6		70	9	
2025-07-22T12:00	26100	23	-46.2		75	11	
2025-07-22T12:00	26150	23	-46.1		81	13	
2025-07-22T12:00	26200	23	-46.1		86	14	
2025-07-22T12:00	26250	22	-46.1		91	14	
2025-07-22T12:00	26300	22	-45.9		95	14	
2025-07-22T12:00	26350	22	-45.9		98	13	
2025-07-22T12:00	26400	22	-45.8		99	12	
2025-07-22T12:00	26450	22	-45.8		98	11	
2025-07-22T12:00	26500	22	-45.8		96	11	
2025-07-22T12:00	26550	21	-45.8		96	12	
2025-07-22T12:00	26600	21	-45.8		97	12	
2025-07-22T12:00	26650	21	-46.2		98	13	
2025-07-22T12:00	26700	21	-46.4		101	14	
2025-07-22T12:00	26750	21	-46.6		103	14	
2025-07-22T12:00	26800	21	-46.6		105	15	
2025-07-22T12:00	26850	21	-46.4		104	15	
2025-07-22T12:00	26900	20	-46.3		104	14	
2025-07-22T12:00	26950	20	-46.3		103	13	
2025-07-22T12:00	27000	20	-46.1		102	12	
2025-07-22T12:00	27050	20	-46.0		104	12	
2025-07-22T12:00	27100	20	-45.9		108	11	
2025-07-22T12:00	27150	20	-46.0		111	11	
2025-07-22T12:00	27200	19	-45.9		110	11	
2025-07-22T12:00	27250	19	-45.7		107	12	
2025-07-22T12:00	27300	19	-45.6		104	14	
2025-07-22T12:00	27350	19	-45.5		102	14	
2025-07-22T12:00	27400	19	-45.5		100	13	
2025-07-22T12:00	27450	19	-45.5		98	12	
2025-07-22T12:00	27500	19	-45.4		98	12	
2025-07-22T12:00	27550	18	-45.4		100	12	
2025-07-22T12:00	27600	18	-45.5		103	12	
2025-07-22T12:00	27650	18	-45.6		105	13	
2025-07-22T12:00	27700	18	-45.6		105	13	
2025-07-22T12:00	27750	18	-45.7		104	13	
2025-07-22T12:00	27800	18	-45.8		103	13	
2025-07-22T12:00	27850	18	-45.8		102	13	
2025-07-22T12:00	27900	18	-46.0		100	12	
2025-07-22T12:00	27950	17	-46.0		96	12	
2025-07-22T12:00	28000	17	-45.9		92	12	
2025-07-22T12:00	28050	17	-45.8		89	12	
2025-07-22T12:00	28100	17	-45.8		88	12	
2025-07-22T12:00	28150	17	-45.9		89	12	
2025-07-22T12:00	28200	17	-46.0		92	12	
2025-07-22T12:00	28250	17	-46.0		93	12	
2025-07-22T12:00	28300	17	-46.1		92	12	
2025-07-22T12:00	28350	16	-45.9		90	12	
2025-07-22T12:00	28400	16	-45.8		89	12	
2025-07-22T12:00	28450	16	-45.5		90	12	
2025-07-22T12:00	28500	16	-45.2		94	12	
2025-07-22T12:00	28550	16	-44.9		98	12	
2025-07-22T12:00	28600	16	-44.7		99	12	
2025-07-22T12:00	28650	16	-44.5		98	12	
2025-07-22T12:00	28700	16	-44.3		96	12	
2025-07-22T12:00	28750	15	-44.2		95	12	
2025-07-22T12:00	28800	15	-44.2		93	13	
2025-07-22T12:00	28850	15	-44.2		91	13	
2025-07-22T12:00	28900	15	-44.2		86	13	
2025-07-22T12:00	28950	15	-43.9		84	14	
2025-07-22T12:00	29000	15	-43.6		85	15	
2025-07-22T12:00	29050	15	-43.4		89	16	
2025-07-22T12:00	29100	15	-43.4		93	16	
2025-07-22T12:00	29150	15	-43.4		96	17	
2025-07-22T12:00	29200	14	-43.5		97	18	
2025-07-22T12:00	29250	14	-43.5		96	17	
2025-07-22T12:00	29300	14	-43.5		92	17	
2025-07-22T12:00	29350	14	-43.5		89	16	
2025-07-22T12:00	29400	14	-43.5		88	16	
2025-07-22T12:00	29450	14	-43.6		89	16	
2025-07-22T12:00	29500	14	-43.7		91	16	
2025-07-22T12:00	29550	14	-43.7		95	17	
2025-07-22T12:00	29600	14	-43.7		99	17	
2025-07-22T12:00	29650	14	-43.8		102	17	
2025-07-22T12:00	29700	13	-44.0		103	17	
2025-07-22T12:00	29750	13	-44.0		104	16	
2025-07-22T12:00	29800	13	-44.1		105	16	
2025-07-22T12:00	29850	13	-44.1		106	15	
2025-07-22T12:00	29900	13	-43.9		104	15	
2025-07-22T12:00	29950	13	-43.7		100	15	
2025-07-22T12:00	30000	13	-43.6		96	15	
2025-07-22T12:00	30050	13	-43.5		94	15	
2025-07-22T12:00	30100	13	-43.6		95	15	
2025-07-22T12:00	30150	13	-43.5		100	16	
2025-07-22T12:00	30200	12	-43.5		105	17	
2025-07-22T12:00	30250	12	-43.4		107	17	
2025-07-22T12:00	30300	12	-43.1		106	18	
2025-07-22T12:00	30350	12	-42.9		105	17	
2025-07-22T12:00	30400	12	-43.0		104	17	
2025-07-22T12:00	30450	12	-43.0		104	16	
2025-07-22T12:00	30500	12	-43.0		104	15	
2025-07-22T12:00	30550	12	-43.0		104	15	
2025-07-22T12:00	30600	12	-43.0		104	15	
2025-07-22T12:00	30650	12	-43.0		106	16	
2025-07-22T12:00	30700	12	-43.1		107	16	
2025-07-22T12:00	30750	11	-43.0		109	17	
2025-07-22T12:00	30800	11	-43.0		110	17	
2025-07-22T12:00	30850	11	-42.9		111	16	
2025-07-22T12:00	30900	11	-42.9		112	16	
2025-07-22T12:00	30950	11	-42.7		112	16	
2025-07-22T12:00	31000	11	-42.5		111	16	
2025-07-22T12:00	31050	11	-42.2		109	16	
2025-07-22T12:00	31100	11	-41.8		107	16	
2025-07-22T12:00	31150	11	-41.6		106	16	
2025-07-22T12:00	31200	11	-41.4		105	16	
2025-07-22T12:00	31250	11	-41.3		105	15	
2025-07-22T12:00	31300	11	-41.3		104	14	
2025-07-22T12:00	31350	10	-41.4		102	13	
2025-07-22T12:00	31400	10	-41.4		99	13	
2025-07-22T12:00	31450	10	-41.3		96	13	
2025-07-22T12:00	31500	10	-41.0		95	14	
2025-07-22T12:00	31550	10	-40.8		95	15	
2025-07-22T12:00	31600	10	-40.5		97	16	
2025-07-22T12:00	31650	10	-40.2		100	17	
2025-07-22T12:00	31700	10	-39.9		100	18	
2025-07-22T12:00	31750	10	-39.8		98	18	
2025-07-22T12:00	31800	10	-39.7		94	18	
2025-07-22T12:00	31850	10	-39.4		89	19	
2025-07-22T12:00	31900	10	-39.2		86	20	
2025-07-22T12:00	31950	10	-39.2		84	21	
2025-07-22T12:00	32000	10	-39.2		85	22	
2025-07-22T12:00	32050	9	-39.1		87	22	
2025-07-22T12:00	32100	9	-39.0		89	22	
2025-07-22T12:00	32150	9	-39.0		90	22	
2025-07-22T12:00	32200	9	-39.0		92	20	
2025-07-22T12:00	32250	9	-38.8		93	19	
2025-07-22T12:00	32300	9	-38.7		93	18	
2025-07-22T12:00	32350	9	-38.4		89	18	
2025-07-22T12:00	32400	9	-38.3		86	19	
2025-07-22T12:00	32450	9	-38.1		84	21	
2025-07-22T12:00	32500	9	-37.8		86	22	
2025-07-22T12:00	32550	9	-37.7		89	22	
2025-07-22T12:00	32600	9	-37.8		92	22	
2025-07-22T12:00	32650	9	-37.9		95	22	
2025-07-22T12:00	32700	9	-37.7		95	21	
2025-07-22T12:00	32750	9	-37.4		96	21	
2025-07-22T12:00	32800	8	-37.0		98	21	
2025-07-22T12:00	32850	8	-36.7		101	20	
2025-07-22T12:00	32900	8	-36.6		103	20	
2025-07-22T12:00	32950	8	-36.2		101	20	
2025-07-22T12:00	33000	8	-35.7		97	21	
2025-07-22T12:00	33050	8	-35.4		95	21	
2025-07-22T12:00	33100	8	-35.1		95	22	
2025-07-22T12:00	33150	8	-34.8		97	22	
2025-07-22T12:00	33200	8	-34.7		99	22	
2025-07-22T12:00	33250	8	-34.9		100	22	
2025-07-22T12:00	33300	8	-35.0		101	23	
2025-07-22T12:00	33350	8	-35.0		101	23	
2025-07-22T12:00	33400	8	-35.0		103	23	
2025-07-22T12:00	33450	8	-35.2		105	23	
2025-07-22T12:00	33500	8	-35.2		107	23	
2025-07-22T12:00	33550	8	-35.2		107	23	
2025-07-22T12:00	33600	8	-34.9		106	22	
2025-07-22T12:00	33650	8	-34.3		103	23	
2025-07-22T12:00	33700	7	-34.1		100	23	
2025-07-22T12:00	33750	7	-33.9		98	22	
2025-07-22T12:00	33800	7	-33.6		98	21	
2025-07-22T12:00	33850	7	-33.5		99	20	
2025-07-22T12:00	33900	7	-33.4		100	19	
2025-07-22T12:00	33950	7	-33.1		100	19	
2025-07-22T12:00	34000	7	-32.8		98	20	
2025-07-22T12:00	34050	7	-32.7		96	22	
2025-07-22T12:00	34100	7	-32.6		95	23	
2025-07-22T12:00	34150	7	-32.6		94	25	
2025-07-22T12:00	34200	7	-32.5		93	27	
2025-07-22T12:00	34250	7	-32.4		93	28	
2025-07-22T12:00	34300	7	-32.3		94	30	
2025-07-22T12:00	34350	7	-32.2		96	30	
2025-07-22T12:00	34400	7	-32.1		99	30	
2025-07-22T12:00	34450	7	-32.3		102	29	
2025-07-22T12:00	34500	7	-32.3		105	28	
2025-07-22T12:00	34550	7	-32.2		107	28	
2025-07-22T12:00	34600	7	-32.2		109	27	
2025-07-22T12:00	34650	7	-32.0		112	26	
2025-07-22T12:00	34700	6	-31.9		113	25	
2025-07-22T12:00	34750	6	-31.9		114	25	
2025-07-22T12:00	34800	6	-31.9		114	24	
2025-07-22T12:00	34850	6	-31.7		112	24	
2025-07-22T12:00	34900	6	-31.5		109	23	
2025-07-22T12:00	34950	6	-31.1		105	23	
2025-07-22T12:00	35000	6	-30.4		102	23	
2025-07-22T12:00	35050	6	-30.1		102	24	
2025-07-22T12:00	35100	6	-29.8		103	25	
2025-07-22T12:00	35150	6	-29.7		105	26	
2025-07-22T12:00	35200	6	-29.6		108	27	
2025-07-22T12:00	35250	6	-29.7		111	27	
2025-07-22T12:00	35300	6	-29.8		114	27	
2025-07-22T12:00	35350	6	-29.7		117	26	
2025-07-22T12:00	35400	6	-29.7		117	25	
2025-07-23T00:00	491	960	14.5	11.5	179	1	
2025-07-23T00:00	501	959	15.3	11.1	115	1	
2025-07-23T00:00	520	957	16.2	10.7	106	2	
2025-07-23T00:00	540	955	16.4	10.3	104	2	
2025-07-23T00:00	560	952	16.5	10.2	102	2	
2025-07-23T00:00	580	950	17.0	9.8	99	2	
2025-07-23T00:00	600	948	17.5	9.4	96	2	
2025-07-23T00:00	620	946	17.5	9.4	94	2	
2025-07-23T00:00	640	943	17.4	9.4	91	1	
2025-07-23T00:00	660	941	17.2	9.4	88	1	
2025-07-23T00:00	680	939	17.1	9.3	85	1	
2025-07-23T00:00	700	937	16.9	9.3	80	1	
2025-07-23T00:00	720	935	16.8	9.2	75	1	
2025-07-23T00:00	740	932	16.7	9.1	70	1	
2025-07-23T00:00	760	930	16.7	9.0	67	1	
2025-07-23T00:00	780	928	16.6	8.9	66	1	
2025-07-23T00:00	800	926	16.4	8.8	66	1	
2025-07-23T00:00	820	924	16.3	8.7	68	1	
2025-07-23T00:00	840	921	16.1	8.6	72	1	
2025-07-23T00:00	860	920	16.0	8.6	77	1	
2025-07-23T00:00	880	917	15.8	8.5	83	1	
2025-07-23T00:00	900	915	15.6	8.4	90	1	
2025-07-23T00:00	920	913	15.6	8.1	97	1	
2025-07-23T00:00	940	911	15.5	8.0	102	1	
2025-07-23T00:00	960	909	15.3	8.0	107	1	
2025-07-23T00:00	980	907	15.1	7.9	112	2	
2025-07-23T00:00	1000	904	14.9	7.8	116	2	
2025-07-23T00:00	1020	902	14.8	7.8	119	2	
2025-07-23T00:00	1040	900	14.5	7.8	122	2	
2025-07-23T00:00	1060	898	14.4	7.7	123	2	
2025-07-23T00:00	1080	896	14.2	7.7	123	2	
2025-07-23T00:00	1100	894	14.0	7.6	122	2	
2025-07-23T00:00	1120	892	13.8	7.6	119	2	
2025-07-23T00:00	1140	890	13.6	7.6	115	2	
2025-07-23T00:00	1160	887	13.4	7.4	111	2	
2025-07-23T00:00	1180	885	13.3	7.4	107	2	
2025-07-23T00:00	1200	883	13.1	7.4	103	2	
2025-07-23T00:00	1220	881	12.9	7.3	101	2	
2025-07-23T00:00	1240	879	12.7	7.3	101	2	
2025-07-23T00:00	1260	877	12.5	7.2	104	2	
2025-07-23T00:00	1280	875	12.3	7.2	108	2	
2025-07-23T00:00	1300	873	12.2	7.1	116	2	
2025-07-23T00:00	1320	871	12.0	6.8	128	1	
2025-07-23T00:00	1340	868	11.9	6.5	142	1	
2025-07-23T00:00	1360	867	11.8	6.5	153	1	
2025-07-23T00:00	1380	865	11.7	6.3	160	1	
2025-07-23T00:00	1400	862	11.5	6.2	166	1	
2025-07-23T00:00	1420	860	11.4	6.1	170	1	
2025-07-23T00:00	1440	858	11.2	6.1	174	1	
2025-07-23T00:00	1460	856	11.0	6.0	178	1	
2025-07-23T00:00	1480	854	10.9	6.0	184	1	
2025-07-23T00:00	1500	852	10.7	5.9	194	2	
2025-07-23T00:00	1520	850	10.6	5.7	206	2	
2025-07-23T00:00	1540	848	10.5	5.7	221	2	
2025-07-23T00:00	1560	846	10.3	5.7	232	2	
2025-07-23T00:00	1580	844	10.2	5.6	238	2	
2025-07-23T00:00	1600	842	10.1	5.6	243	3	
2025-07-23T00:00	1620	840	9.9	5.6	245	3	
2025-07-23T00:00	1640	838	9.7	5.5	245	3	
2025-07-23T00:00	1660	836	9.5	5.6	244	4	
2025-07-23T00:00	1680	834	9.4	5.6	243	4	
2025-07-23T00:00	1700	832	9.2	5.5	239	4	
2025-07-23T00:00	1720	830	9.1	5.6	236	4	
2025-07-23T00:00	1740	828	8.9	5.6	231	4	
2025-07-23T00:00	1760	826	8.7	5.5	227	4	
2025-07-23T00:00	1780	824	8.6	5.5	222	4	
2025-07-23T00:00	1800	822	8.5	5.4	217	4	
2025-07-23T00:00	1820	820	8.3	5.2	214	4	
2025-07-23T00:00	1840	818	8.3	5.0	212	5	
2025-07-23T00:00	1860	816	8.1	5.0	212	5	
2025-07-23T00:00	1880	814	8.0	5.1	212	5	
2025-07-23T00:00	1900	812	7.9	4.9	213	6	
2025-07-23T00:00	1920	810	7.7	5.0	214	6	
2025-07-23T00:00	1940	808	7.5	5.0	214	6	
2025-07-23T00:00	1960	806	7.3	4.8	215	6	
2025-07-23T00:00	1980	804	7.1	4.9	215	6	
2025-07-23T00:00	2000	802	6.9	5.1	215	6	
2025-07-23T00:00	2020	800	6.7	5.0	215	6	
2025-07-23T00:00	2040	799	6.6	5.0	215	6	
2025-07-23T00:00	2060	796	6.4	5.2	214	6	
2025-07-23T00:00	2080	794	6.2	5.2	213	6	
2025-07-23T00:00	2100	793	6.0	5.3	213	6	
2025-07-23T00:00	2120	791	5.8	5.3	213	5	
2025-07-23T00:00	2140	789	5.7	5.3	215	5	
2025-07-23T00:00	2160	787	5.5	5.3	218	5	
2025-07-23T00:00	2180	785	5.2	5.1	221	6	
2025-07-23T00:00	2200	783	5.1	5.1	223	6	
2025-07-23T00:00	2220	781	4.9	4.9	224	7	
2025-07-23T00:00	2240	779	4.8	4.8	225	8	
2025-07-23T00:00	2260	777	4.7	4.7	226	9	
2025-07-23T00:00	2280	775	4.6	4.6	228	10	
2025-07-23T00:00	2300	774	4.5	3.9	230	10	
2025-07-23T00:00	2320	772	5.2	-0.1	231	10	
2025-07-23T00:00	2340	770	6.4	-6.5	232	10	
2025-07-23T00:00	2360	768	6.6	-8.0	234	10	
2025-07-23T00:00	2380	766	6.9	-8.4	235	10	
2025-07-23T00:00	2400	764	7.0	-8.9	237	10	
2025-07-23T00:00	2420	762	7.0	-9.4	238	10	
2025-07-23T00:00	2440	760	7.0	-11.3	240	10	
2025-07-23T00:00	2460	758	7.1	-12.7	241	10	
2025-07-23T00:00	2480	757	7.1	-12.4	242	10	
2025-07-23T00:00	2500	755	7.0	-12.0	242	10	
2025-07-23T00:00	2520	753	6.9	-11.4	242	10	
2025-07-23T00:00	2540	751	6.8	-11.7	242	10	
2025-07-23T00:00	2560	749	6.8	-12.1	242	10	
2025-07-23T00:00	2580	747	6.7	-12.3	242	10	
2025-07-23T00:00	2600	746	6.6	-12.4	242	10	
2025-07-23T00:00	2620	744	6.5	-12.6	241	10	
2025-07-23T00:00	2640	742	6.5	-12.9	241	10	
2025-07-23T00:00	2660	740	6.4	-13.2	241	10	
2025-07-23T00:00	2680	738	6.3	-13.8	241	10	
2025-07-23T00:00	2700	737	6.2	-14.2	240	9	
2025-07-23T00:00	2720	735	6.1	-14.5	240	9	
2025-07-23T00:00	2740	733	6.0	-14.4	239	9	
2025-07-23T00:00	2760	731	5.9	-14.3	239	10	
2025-07-23T00:00	2780	730	5.8	-14.5	239	10	
2025-07-23T00:00	2800	728	5.8	-15.7	238	10	
2025-07-23T00:00	2820	726	5.7	-14.8	238	11	
2025-07-23T00:00	2840	724	5.6	-15.6	237	11	
2025-07-23T00:00	2860	722	5.5	-15.9	237	10	
2025-07-23T00:00	2880	721	5.4	-15.2	235	10	
2025-07-23T00:00	2900	719	5.4	-14.7	234	9	
2025-07-23T00:00	2920	717	5.2	-14.6	233	9	
2025-07-23T00:00	2940	715	5.1	-14.2	232	9	
2025-07-23T00:00	2960	714	5.1	-14.0	233	9	
2025-07-23T00:00	2980	712	5.1	-14.7	234	9	
2025-07-23T00:00	3000	710	4.9	-15.3	235	9	
2025-07-23T00:00	3020	708	4.8	-16.1	237	9	
2025-07-23T00:00	3040	707	4.7	-16.8	238	9	
2025-07-23T00:00	3060	705	4.7	-17.2	239	9	
2025-07-23T00:00	3080	703	4.6	-16.9	240	10	
2025-07-23T00:00	3100	701	4.5	-16.8	241	10	
2025-07-23T00:00	3120	700	4.3	-17.0	242	10	
2025-07-23T00:00	3140	698	4.1	-17.0	244	10	
2025-07-23T00:00	3160	696	3.9	-16.9	245	10	
2025-07-23T00:00	3180	694	3.7	-16.7	245	9	
2025-07-23T00:00	3200	693	3.6	-16.8	246	9	
2025-07-23T00:00	3220	691	3.5	-17.0	246	9	
2025-07-23T00:00	3240	689	3.4	-17.0	245	9	
2025-07-23T00:00	3260	688	3.3	-18.4	243	9	
2025-07-23T00:00	3280	686	3.3	-20.2	242	9	
2025-07-23T00:00	3300	684	3.3	-21.2	242	9	
2025-07-23T00:00	3320	683	3.3	-20.6	242	9	
2025-07-23T00:00	3340	681	3.1	-20.7	242	9	
2025-07-23T00:00	3360	679	3.0	-20.7	243	9	
2025-07-23T00:00	3380	678	2.9	-20.2	245	10	
2025-07-23T00:00	3400	676	2.8	-20.4	247	10	
2025-07-23T00:00	3420	674	2.7	-20.6	250	10	
2025-07-23T00:00	3440	673	2.6	-20.5	251	10	
2025-07-23T00:00	3460	671	2.5	-20.7	253	10	
2025-07-23T00:00	3480	669	2.4	-21.1	255	10	
2025-07-23T00:00	3500	668	2.3	-21.6	256	10	
2025-07-23T00:00	3520	666	2.2	-21.8	257	10	
2025-07-23T00:00	3540	664	2.1	-21.7	257	10	
2025-07-23T00:00	3560	663	2.0	-21.8	257	10	
2025-07-23T00:00	3580	661	1.8	-21.9	256	11	
2025-07-23T00:00	3600	659	1.7	-22.1	255	11	
2025-07-23T00:00	3620	658	1.6	-22.2	255	11	
2025-07-23T00:00	3640	656	1.5	-22.6	254	11	
2025-07-23T00:00	3660	654	1.4	-23.0	254	12	
2025-07-23T00:00	3680	653	1.3	-23.3	254	11	
2025-07-23T00:00	3700	651	1.2	-23.5	254	11	
2025-07-23T00:00	3720	650	1.2	-24.5	255	11	
2025-07-23T00:00	3740	648	1.1	-25.4	255	11	
2025-07-23T00:00	3760	646	1.2	-25.7	255	11	
2025-07-23T00:00	3780	645	1.1	-25.0	255	11	
2025-07-23T00:00	3800	643	1.0	-25.3	254	11	
2025-07-23T00:00	3820	641	1.0	-27.0	254	11	
2025-07-23T00:00	3840	640	1.0	-28.1	253	11	
2025-07-23T00:00	3860	638	0.8	-28.1	252	11	
2025-07-23T00:00	3880	637	0.8	-29.1	251	11	
2025-07-23T00:00	3900	635	0.8	-31.4	251	11	
2025-07-23T00:00	3920	634	0.7	-31.7	250	11	
2025-07-23T00:00	3940	632	0.5	-31.6	249	11	
2025-07-23T00:00	3960	631	0.5	-31.3	249	11	
2025-07-23T00:00	3980	629	0.4	-28.4	248	11	
2025-07-23T00:00	4000	627	0.3	-25.6	246	11	
2025-07-23T00:00	4020	626	0.2	-24.8	245	11	
2025-07-23T00:00	4040	624	0.1	-23.6	244	10	
2025-07-23T00:00	4060	623	0.0	-19.5	243	10	
2025-07-23T00:00	4080	621	-0.3	-15.5	243	9	
2025-07-23T00:00	4100	619	-0.5	-13.9	243	9	
2025-07-23T00:00	4120	618	-0.6	-14.0	243	9	
2025-07-23T00:00	4140	616	-0.8	-13.9	244	9	
2025-07-23T00:00	4160	615	-1.0	-14.0	245	9	
2025-07-23T00:00	4180	613	-1.1	-14.0	247	9	
2025-07-23T00:00	4200	612	-1.3	-14.2	249	10	
2025-07-23T00:00	4220	610	-1.4	-15.4	252	11	
2025-07-23T00:00	4240	609	-1.4	-18.7	254	11	
2025-07-23T00:00	4260	607	-1.4	-23.2	255	11	
2025-07-23T00:00	4280	606	-1.5	-27.7	256	12	
2025-07-23T00:00	4300	604	-1.6	-30.4	256	12	
2025-07-23T00:00	4320	603	-1.7	-30.1	255	12	
2025-07-23T00:00	4340	601	-1.8	-27.0	254	12	
2025-07-23T00:00	4360	600	-1.9	-25.6	254	12	
2025-07-23T00:00	4380	598	-2.0	-23.7	254	12	
2025-07-23T00:00	4400	597	-2.2	-20.7	254	12	
2025-07-23T00:00	4420	595	-2.5	-19.8	255	11	
2025-07-23T00:00	4440	594	-2.7	-19.3	256	11	
2025-07-23T00:00	4460	592	-2.8	-19.2	257	11	
2025-07-23T00:00	4480	591	-3.0	-19.2	257	11	
2025-07-23T00:00	4500	589	-3.2	-18.8	257	11	
2025-07-23T00:00	4520	588	-3.4	-17.6	256	11	
2025-07-23T00:00	4540	586	-3.6	-16.8	255	11	
2025-07-23T00:00	4560	585	-3.7	-16.7	255	12	
2025-07-23T00:00	4580	583	-3.9	-16.7	254	12	
2025-07-23T00:00	4600	582	-4.0	-16.1	254	12	
2025-07-23T00:00	4620	580	-4.1	-16.4	254	12	
2025-07-23T00:00	4640	579	-4.1	-19.2	254	12	
2025-07-23T00:00	4660	577	-3.9	-25.8	256	12	
2025-07-23T00:00	4680	576	-3.9	-26.4	258	12	
2025-07-23T00:00	4700	574	-3.6	-32.3	262	12	
2025-07-23T00:00	4720	573	-3.3	-34.7	266	12	
2025-07-23T00:00	4740	572	-3.3	-31.2	270	12	
2025-07-23T00:00	4760	570	-3.3	-29.0	273	12	
2025-07-23T00:00	4780	568	-3.4	-27.6	274	12	
2025-07-23T00:00	4800	567	-3.5	-25.0	274	12	
2025-07-23T00:00	4820	566	-3.6	-23.8	271	13	
2025-07-23T00:00	4840	564	-3.7	-23.9	268	13	
2025-07-23T00:00	4860	563	-3.8	-24.0	264	13	
2025-07-23T00:00	4880	561	-4.0	-24.2	262	13	
2025-07-23T00:00	4900	560	-4.1	-24.3	261	13	
2025-07-23T00:00	4920	559	-4.3	-24.3	259	13	
2025-07-23T00:00	4940	557	-4.5	-24.5	259	13	
2025-07-23T00:00	4960	556	-4.6	-24.7	258	14	
2025-07-23T00:00	4980	554	-4.8	-24.8	258	14	
2025-07-23T00:00	5000	553	-4.9	-25.0	257	14	
2025-07-23T00:00	5020	552	-5.1	-25.3	256	14	
2025-07-23T00:00	5040	550	-5.1	-26.1	255	14	
2025-07-23T00:00	5060	549	-5.2	-27.8	254	14	
2025-07-23T00:00	5080	547	-5.2	-28.8	253	14	
2025-07-23T00:00	5100	546	-5.3	-29.0	253	14	
2025-07-23T00:00	5120	545	-5.4	-30.1	253	14	
2025-07-23T00:00	5140	543	-5.4	-31.4	254	14	
2025-07-23T00:00	5160	542	-5.5	-30.4	255	13	
2025-07-23T00:00	5180	540	-5.7	-30.0	256	13	
2025-07-23T00:00	5200	539	-5.8	-30.0	258	12	
2025-07-23T00:00	5220	538	-5.9	-30.7	259	12	
2025-07-23T00:00	5240	536	-5.9	-32.1	260	12	
2025-07-23T00:00	5260	535	-6.0	-32.5	260	11	
2025-07-23T00:00	5280	534	-6.1	-32.5	260	11	
2025-07-23T00:00	5300	532	-6.3	-32.2	258	11	
2025-07-23T00:00	5320	531	-6.4	-32.3	257	11	
2025-07-23T00:00	5340	529	-6.5	-32.2	256	11	
2025-07-23T00:00	5360	528	-6.7	-31.6	256	11	
2025-07-23T00:00	5380	527	-6.9	-31.0	256	12	
2025-07-23T00:00	5400	525	-7.0	-30.7	256	11	
2025-07-23T00:00	5420	524	-7.2	-30.0	257	11	
2025-07-23T00:00	5440	523	-7.3	-28.7	259	11	
2025-07-23T00:00	5460	521	-7.5	-28.0	260	11	
2025-07-23T00:00	5480	520	-7.7	-27.9	260	12	
2025-07-23T00:00	5500	519	-7.8	-28.0	259	11	
2025-07-23T00:00	5520	517	-8.0	-28.0	259	11	
2025-07-23T00:00	5540	516	-8.2	-27.2	258	11	
2025-07-23T00:00	5560	515	-8.3	-26.7	258	11	
2025-07-23T00:00	5580	513	-8.5	-26.7	258	11	
2025-07-23T00:00	5600	512	-8.7	-26.7	258	11	
2025-07-23T00:00	5620	511	-8.9	-26.5	259	11	
2025-07-23T00:00	5640	509	-9.1	-26.5	260	12	
2025-07-23T00:00	5660	508	-9.2	-26.7	261	12	
2025-07-23T00:00	5680	507	-9.4	-26.9	262	12	
2025-07-23T00:00	5700	505	-9.6	-27.0	262	12	
2025-07-23T00:00	5720	504	-9.8	-27.1	262	12	
2025-07-23T00:00	5740	503	-10.0	-26.9	262	12	
2025-07-23T00:00	5760	502	-10.1	-26.8	261	12	
2025-07-23T00:00	5780	500	-10.3	-26.7	260	12	
2025-07-23T00:00	5800	499	-10.5	-26.6	259	12	
2025-07-23T00:00	5820	498	-10.7	-26.8	258	12	
2025-07-23T00:00	5840	496	-10.8	-27.3	257	12	
2025-07-23T00:00	5860	495	-11.0	-27.3	257	12	
2025-07-23T00:00	5880	494	-11.2	-27.3	258	12	
2025-07-23T00:00	5900	492	-11.4	-27.5	259	12	
2025-07-23T00:00	5920	491	-11.6	-27.7	260	12	
2025-07-23T00:00	5940	490	-11.8	-27.8	261	12	
2025-07-23T00:00	5960	489	-11.9	-28.0	261	12	
2025-07-23T00:00	5980	487	-12.1	-28.0	262	12	
2025-07-23T00:00	6000	486	-12.3	-28.1	261	12	
2025-07-23T00:00	6020	485	-12.5	-28.2	261	12	
2025-07-23T00:00	6040	483	-12.6	-29.3	260	13	
2025-07-23T00:00	6060	482	-12.5	-31.3	260	13	
2025-07-23T00:00	6080	481	-12.5	-34.0	259	13	
2025-07-23T00:00	6100	480	-12.5	-36.2	258	13	
2025-07-23T00:00	6120	479	-12.6	-36.7	258	13	
2025-07-23T00:00	6140	477	-12.7	-35.2	257	13	
2025-07-23T00:00	6160	476	-12.9	-33.7	258	14	
2025-07-23T00:00	6180	475	-13.1	-32.1	258	14	
2025-07-23T00:00	6200	474	-13.2	-32.7	260	14	
2025-07-23T00:00	6220	472	-13.3	-33.4	261	14	
2025-07-23T00:00	6240	471	-13.5	-35.6	262	14	
2025-07-23T00:00	6260	470	-13.6	-36.4	263	14	
2025-07-23T00:00	6280	469	-13.7	-36.8	263	14	
2025-07-23T00:00	6300	467	-13.9	-37.1	263	14	
2025-07-23T00:00	6320	466	-14.1	-36.9	263	14	
2025-07-23T00:00	6340	465	-14.2	-37.2	262	14	
2025-07-23T00:00	6360	464	-14.4	-37.7	261	14	
2025-07-23T00:00	6380	462	-14.5	-37.8	260	14	
2025-07-23T00:00	6400	461	-14.7	-37.7	259	13	
2025-07-23T00:00	6420	460	-14.7	-38.8	258	13	
2025-07-23T00:00	6440	459	-14.8	-38.6	258	13	
2025-07-23T00:00	6460	458	-14.9	-38.4	257	13	
2025-07-23T00:00	6480	456	-15.0	-38.7	257	13	
2025-07-23T00:00	6500	455	-15.2	-38.7	257	13	
2025-07-23T00:00	6520	454	-15.3	-38.9	256	14	
2025-07-23T00:00	6540	453	-15.5	-39.1	256	14	
2025-07-23T00:00	6560	452	-15.7	-39.1	256	14	
2025-07-23T00:00	6580	450	-15.9	-39.4	256	14	
2025-07-23T00:00	6600	449	-16.0	-39.5	255	15	
2025-07-23T00:00	6620	448	-16.2	-39.8	255	15	
2025-07-23T00:00	6640	447	-16.3	-40.3	253	15	
2025-07-23T00:00	6660	445	-16.4	-40.4	252	15	
2025-07-23T00:00	6680	444	-16.6	-40.5	250	16	
2025-07-23T00:00	6700	443	-16.7	-40.6	249	16	
2025-07-23T00:00	6720	442	-16.8	-40.9	248	16	
2025-07-23T00:00	6740	441	-16.9	-41.0	248	16	
2025-07-23T00:00	6760	440	-17.1	-41.0	248	17	
2025-07-23T00:00	6780	438	-17.3	-41.0	249	17	
2025-07-23T00:00	6800	437	-17.4	-40.9	249	17	
2025-07-23T00:00	6820	436	-17.6	-40.7	249	17	
2025-07-23T00:00	6840	435	-17.8	-40.6	250	17	
2025-07-23T00:00	6860	434	-17.9	-39.8	250	17	
2025-07-23T00:00	6880	433	-18.1	-40.5	250	17	
2025-07-23T00:00	6900	432	-18.2	-40.9	250	17	
2025-07-23T00:00	6920	430	-18.4	-41.2	250	16	
2025-07-23T00:00	6940	429	-18.6	-41.3	249	16	
2025-07-23T00:00	6960	428	-18.7	-41.3	249	16	
2025-07-23T00:00	6980	427	-18.9	-41.1	249	16	
2025-07-23T00:00	7000	426	-19.1	-40.7	249	17	
2025-07-23T00:00	7020	425	-19.3	-40.8	249	17	
2025-07-23T00:00	7040	423	-19.5	-40.9	250	17	
2025-07-23T00:00	7060	422	-19.6	-40.8	250	17	
2025-07-23T00:00	7080	421	-19.8	-41.0	251	17	
2025-07-23T00:00	7100	420	-20.0	-41.3	251	17	
2025-07-23T00:00	7120	419	-20.1	-40.3	252	17	
2025-07-23T00:00	7140	418	-20.3	-40.1	252	17	
2025-07-23T00:00	7160	417	-20.5	-40.1	251	17	
2025-07-23T00:00	7180	416	-20.7	-40.2	251	17	
2025-07-23T00:00	7200	414	-20.9	-40.2	251	16	
2025-07-23T00:00	7220	413	-21.1	-40.2	250	16	
2025-07-23T00:00	7240	412	-21.3	-40.1	249	16	
2025-07-23T00:00	7260	411	-21.4	-40.1	248	16	
2025-07-23T00:00	7280	410	-21.6	-40.2	248	16	
2025-07-23T00:00	7300	409	-21.7	-40.2	247	16	
2025-07-23T00:00	7320	408	-21.9	-39.9	247	16	
2025-07-23T00:00	7340	407	-22.1	-40.5	247	17	
2025-07-23T00:00	7360	406	-22.1	-41.4	246	17	
2025-07-23T00:00	7380	404	-22.3	-41.6	246	17	
2025-07-23T00:00	7400	403	-22.4	-42.0	246	17	
2025-07-23T00:00	7420	402	-22.5	-42.1	245	17	
2025-07-23T00:00	7440	401	-22.7	-42.2	245	18	
2025-07-23T00:00	7460	400	-22.9	-42.2	244	18	
2025-07-23T00:00	7480	399	-23.1	-42.2	243	18	
2025-07-23T00:00	7500	398	-23.2	-42.2	243	18	
2025-07-23T00:00	7520	397	-23.4	-42.4	242	18	
2025-07-23T00:00	7540	396	-23.5	-42.7	242	18	
2025-07-23T00:00	7560	395	-23.7	-42.9	242	18	
2025-07-23T00:00	7580	393	-23.8	-43.0	242	18	
2025-07-23T00:00	7600	392	-24.0	-43.2	241	19	
2025-07-23T00:00	7620	391	-24.1	-43.8	241	19	
2025-07-23T00:00	7640	390	-24.3	-44.0	240	19	
2025-07-23T00:00	7660	389	-24.4	-44.1	239	19	
2025-07-23T00:00	7680	388	-24.5	-44.3	239	19	
2025-07-23T00:00	7700	387	-24.7	-44.6	238	19	
2025-07-23T00:00	7720	386	-24.8	-45.1	238	19	
2025-07-23T00:00	7740	385	-24.9	-45.9	238	19	
2025-07-23T00:00	7760	384	-25.0	-46.2	238	19	
2025-07-23T00:00	7780	383	-25.2	-46.0	239	19	
2025-07-23T00:00	7800	382	-25.3	-46.3	239	19	
2025-07-23T00:00	7820	381	-25.5	-47.0	239	20	
2025-07-23T00:00	7840	380	-25.6	-47.5	239	20	
2025-07-23T00:00	7860	379	-25.8	-48.3	239	20	
2025-07-23T00:00	7880	378	-25.9	-48.4	240	21	
2025-07-23T00:00	7900	377	-26.1	-48.4	240	21	
2025-07-23T00:00	7920	376	-26.3	-48.4	240	21	
2025-07-23T00:00	7940	374	-26.4	-47.9	240	21	
2025-07-23T00:00	7960	373	-26.6	-45.7	240	21	
2025-07-23T00:00	7980	372	-26.7	-41.5	240	20	
2025-07-23T00:00	8000	371	-26.9	-39.5	240	20	
2025-07-23T00:00	8020	370	-27.0	-38.4	240	20	
2025-07-23T00:00	8040	369	-27.2	-37.6	239	20	
2025-07-23T00:00	8060	368	-27.4	-36.8	239	19	
2025-07-23T00:00	8080	367	-27.5	-35.9	238	19	
2025-07-23T00:00	8100	366	-27.7	-36.0	237	19	
2025-07-23T00:00	8120	365	-27.9	-36.4	236	19	
2025-07-23T00:00	8140	364	-28.0	-36.9	235	19	
2025-07-23T00:00	8160	363	-28.2	-36.6	234	19	
2025-07-23T00:00	8180	362	-28.3	-35.5	234	19	
2025-07-23T00:00	8200	361	-28.4	-35.0	234	19	
2025-07-23T00:00	8220	360	-28.6	-34.9	234	19	
2025-07-23T00:00	8240	359	-28.8	-35.7	234	19	
2025-07-23T00:00	8260	358	-28.9	-36.4	234	19	
2025-07-23T00:00	8280	357	-29.1	-36.0	234	19	
2025-07-23T00:00	8300	356	-29.3	-36.1	234	19	
2025-07-23T00:00	8320	355	-29.4	-36.1	234	19	
2025-07-23T00:00	8340	354	-29.5	-36.7	235	19	
2025-07-23T00:00	8360	353	-29.7	-37.6	236	19	
2025-07-23T00:00	8380	352	-29.9	-38.0	237	19	
2025-07-23T00:00	8400	351	-30.0	-37.1	238	18	
2025-07-23T00:00	8420	350	-30.2	-34.6	239	18	
2025-07-23T00:00	8440	349	-30.4	-33.8	240	18	
2025-07-23T00:00	8460	348	-30.3	-34.7	240	18	
2025-07-23T00:00	8480	347	-30.4	-34.8	241	18	
2025-07-23T00:00	8500	346	-30.5	-34.8	242	19	
2025-07-23T00:00	8520	345	-30.7	-34.7	242	19	
2025-07-23T00:00	8540	344	-30.9	-34.5	242	19	
2025-07-23T00:00	8560	343	-31.0	-34.4	242	19	
2025-07-23T00:00	8580	343	-31.2	-34.5	241	19	
2025-07-23T00:00	8600	341	-31.4	-34.6	241	19	
2025-07-23T00:00	8620	340	-31.6	-34.5	241	19	
2025-07-23T00:00	8640	340	-31.8	-34.4	241	19	
2025-07-23T00:00	8660	339	-32.0	-34.5	241	20	
2025-07-23T00:00	8680	338	-32.2	-34.6	242	20	
2025-07-23T00:00	8700	337	-32.3	-34.5	242	20	
2025-07-23T00:00	8720	336	-32.5	-34.5	243	21	
2025-07-23T00:00	8740	335	-32.6	-34.6	243	21	
2025-07-23T00:00	8760	334	-32.8	-34.8	243	21	
2025-07-23T00:00	8780	333	-33.0	-35.0	243	21	
2025-07-23T00:00	8800	332	-33.2	-35.4	243	21	
2025-07-23T00:00	8820	331	-33.3	-35.8	243	21	
2025-07-23T00:00	8840	330	-33.4	-36.1	244	21	
2025-07-23T00:00	8860	329	-33.6	-36.4	244	21	
2025-07-23T00:00	8880	328	-33.8	-36.7	244	21	
2025-07-23T00:00	8900	327	-34.0	-36.6	245	21	
2025-07-23T00:00	8920	326	-34.1	-36.8	245	20	
2025-07-23T00:00	8940	325	-34.3	-37.2	245	21	
2025-07-23T00:00	8960	324	-34.5	-37.3	246	21	
2025-07-23T00:00	8980	323	-34.6	-38.1	246	21	
2025-07-23T00:00	9000	323	-34.8	-39.2	246	21	
2025-07-23T00:00	9020	322	-35.0	-39.4	246	21	
2025-07-23T00:00	9040	321	-35.1	-39.3	246	21	
2025-07-23T00:00	9060	320	-35.3	-38.9	245	21	
2025-07-23T00:00	9080	319	-35.5	-38.8	245	21	
2025-07-23T00:00	9100	318	-35.6	-39.4	245	21	
2025-07-23T00:00	9120	317	-35.8	-39.8	245	21	
2025-07-23T00:00	9140	316	-35.9	-40.1	244	21	
2025-07-23T00:00	9160	315	-36.2	-40.3	244	21	
2025-07-23T00:00	9180	314	-36.4	-40.2	244	21	
2025-07-23T00:00	9200	313	-36.5	-40.1	244	20	
2025-07-23T00:00	9220	313	-36.7	-40.4	244	20	
2025-07-23T00:00	9240	312	-36.9	-40.7	244	20	
2025-07-23T00:00	9260	311	-37.0	-40.5	244	20	
2025-07-23T00:00	9280	310	-37.2	-40.5	244	20	
2025-07-23T00:00	9300	309	-37.4	-40.7	244	20	
2025-07-23T00:00	9320	308	-37.6	-41.0	244	20	
2025-07-23T00:00	9340	307	-37.7	-41.2	245	20	
2025-07-23T00:00	9360	306	-37.8	-41.8	245	19	
2025-07-23T00:00	9380	305	-38.0	-41.9	245	19	
2025-07-23T00:00	9400	304	-38.2	-42.1	245	19	
2025-07-23T00:00	9420	304	-38.3	-41.8	245	19	
2025-07-23T00:00	9440	303	-38.5	-41.4	245	19	
2025-07-23T00:00	9460	302	-38.6	-41.6	245	18	
2025-07-23T00:00	9480	301	-38.8	-41.8	245	18	
2025-07-23T00:00	9500	300	-38.9	-42.5	245	18	
2025-07-23T00:00	9520	299	-39.0	-43.1	244	18	
2025-07-23T00:00	9540	298	-39.2	-43.2	244	18	
2025-07-23T00:00	9560	298	-39.3	-43.2	243	18	
2025-07-23T00:00	9580	297	-39.5	-44.0	243	18	
2025-07-23T00:00	9600	296	-39.7	-43.8	242	18	
2025-07-23T00:00	9620	295	-39.8	-43.7	241	18	
2025-07-23T00:00	9640	294	-39.9	-44.2	241	18	
2025-07-23T00:00	9660	293	-40.1	-44.3	241	19	
2025-07-23T00:00	9680	292	-40.2	-44.7	240	19	
2025-07-23T00:00	9700	291	-40.4	-44.7	240	19	
2025-07-23T00:00	9720	291	-40.6	-44.8	240	20	
2025-07-23T00:00	9740	290	-40.7	-45.1	239	20	
2025-07-23T00:00	9760	289	-40.8	-45.6	239	20	
2025-07-23T00:00	9780	288	-40.9	-46.3	239	20	
2025-07-23T00:00	9800	287	-41.0	-47.9	239	20	
2025-07-23T00:00	9820	286	-41.1	-48.8	239	21	
2025-07-23T00:00	9840	285	-41.2	-49.0	239	21	
2025-07-23T00:00	9860	285	-41.4	-48.9	240	21	
2025-07-23T00:00	9880	284	-41.6	-49.2	241	21	
2025-07-23T00:00	9900	283	-41.7	-50.0	241	21	
2025-07-23T00:00	9920	282	-41.8	-51.1	242	21	
2025-07-23T00:00	9940	281	-41.9	-51.4	243	21	
2025-07-23T00:00	9960	280	-42.0	-50.8	243	22	
2025-07-23T00:00	9980	280	-42.2	-50.5	243	22	
2025-07-23T00:00	10000	279	-42.4	-50.7	243	22	
2025-07-23T00:00	10018	278	-42.5	-50.6	243	22	
2025-07-23T00:00	10050	277	-42.9	-50.6	243	22	
2025-07-23T00:00	10100	275	-43.3	-50.5	242	22	
2025-07-23T00:00	10150	273	-43.8	-50.5	240	22	
2025-07-23T00:00	10200	271	-44.3	-50.5	240	22	
2025-07-23T00:00	10250	269	-44.7	-50.7	240	22	
2025-07-23T00:00	10300	267	-45.3	-50.7	241	22	
2025-07-23T00:00	10350	265	-45.7	-50.7	241	23	
2025-07-23T00:00	10400	263	-46.2	-50.9	240	23	
2025-07-23T00:00	10450	261	-46.7	-50.9	240	23	
2025-07-23T00:00	10500	259	-47.2	-51.0	240	23	
2025-07-23T00:00	10550	257	-47.7	-51.1	240	23	
2025-07-23T00:00	10600	255	-48.2	-52.0	240	23	
2025-07-23T00:00	10650	253	-48.3	-55.8	241	24	
2025-07-23T00:00	10700	251	-48.4	-56.7	241	25	
2025-07-23T00:00	10750	249	-48.7	-57.0	242	26	
2025-07-23T00:00	10800	247	-49.0	-57.6	244	26	
2025-07-23T00:00	10850	245	-49.3	-58.2	245	27	
2025-07-23T00:00	10900	243	-49.5	-59.6	245	27	
2025-07-23T00:00	10950	242	-49.4	-62.3	245	27	
2025-07-23T00:00	11000	240	-49.3	-63.5	246	28	
2025-07-23T00:00	11050	238	-49.5	-63.3	248	28	
2025-07-23T00:00	11100	236	-49.8	-63.0	248	28	
2025-07-23T00:00	11150	234	-50.2	-62.9	248	29	
2025-07-23T00:00	11200	233	-50.6	-63.1	248	29	
2025-07-23T00:00	11250	231	-51.0	-63.6	248	30	
2025-07-23T00:00	11300	229	-51.4	-63.2	247	30	
2025-07-23T00:00	11350	227	-51.6	-62.8	247	30	
2025-07-23T00:00	11400	226	-51.9	-62.4	247	29	
2025-07-23T00:00	11450	224	-52.3	-62.0	247	29	
2025-07-23T00:00	11500	222	-52.6	-62.3	246	30	
2025-07-23T00:00	11550	220	-52.8	-62.7	246	30	
2025-07-23T00:00	11600	219	-53.0	-63.4	247	30	
2025-07-23T00:00	11650	217	-53.1	-64.8	248	30	
2025-07-23T00:00	11700	215	-53.5	-65.3	248	29	
2025-07-23T00:00	11750	214	-53.6	-66.2	249	29	
2025-07-23T00:00	11800	212	-53.8	-66.6	248	30	
2025-07-23T00:00	11850	210	-54.2	-66.7	247	31	
2025-07-23T00:00	11900	209	-54.5	-67.3	247	31	
2025-07-23T00:00	11950	207	-54.3	-67.8	247	31	
2025-07-23T00:00	12000	205	-54.5	-67.8	246	30	
2025-07-23T00:00	12050	204	-54.5	-67.8	245	30	
2025-07-23T00:00	12100	202	-54.5	-68.2	244	30	
2025-07-23T00:00	12150	201	-54.6	-68.4	242	30	
2025-07-23T00:00	12200	199	-54.7	-68.9	242	30	
2025-07-23T00:00	12250	198	-54.6	-69.3	241	30	
2025-07-23T00:00	12300	196	-54.5	-69.3	241	31	
2025-07-23T00:00	12350	195	-54.6	-69.8	241	31	
2025-07-23T00:00	12400	193	-54.5	-71.1	242	31	
2025-07-23T00:00	12450	191	-54.4	-72.3	243	30	
2025-07-23T00:00	12500	190	-54.1	-72.6	244	30	
2025-07-23T00:00	12550	188	-54.1	-72.6	244	30	
2025-07-23T00:00	12600	187	-54.2	-72.8	244	30	
2025-07-23T00:00	12650	186	-54.5	-73.2	245	30	
2025-07-23T00:00	12700	184	-54.5	-73.6	245	29	
2025-07-23T00:00	12750	183	-54.4	-74.0	245	29	
2025-07-23T00:00	12800	181	-54.1	-74.7	244	28	
2025-07-23T00:00	12850	180	-53.8	-75.3	244	28	
2025-07-23T00:00	12900	178	-53.7	-75.9	245	28	
2025-07-23T00:00	12950	177	-53.5	-77.0	246	28	
2025-07-23T00:00	13000	176	-53.5	-77.7	248	29	
2025-07-23T00:00	13050	174	-53.7	-77.9	250	28	
2025-07-23T00:00	13100	173	-53.6	-78.1	252	28	
2025-07-23T00:00	13150	172	-53.7	-78.3	255	27	
2025-07-23T00:00	13200	170	-54.0	-78.3	256	26	
2025-07-23T00:00	13250	169	-54.2	-78.4	257	25	
2025-07-23T00:00	13300	168	-54.1	-78.2	257	25	
2025-07-23T00:00	13350	166	-54.2	-78.0	256	25	
2025-07-23T00:00	13400	165	-54.4	-78.0	255	25	
2025-07-23T00:00	13450	164	-54.5	-78.2	254	25	
2025-07-23T00:00	13500	163	-54.5	-78.3	253	25	
2025-07-23T00:00	13550	161	-54.6	-78.6	252	24	
2025-07-23T00:00	13600	160	-54.2	-79.0	251	23	
2025-07-23T00:00	13650	159	-54.3	-79.2	250	23	
2025-07-23T00:00	13700	158	-54.2	-79.4	250	23	
2025-07-23T00:00	13750	156	-53.5	-80.0	250	24	
2025-07-23T00:00	13800	155	-53.5	-80.7	250	25	
2025-07-23T00:00	13850	154	-53.6	-80.7	251	26	
2025-07-23T00:00	13900	153	-53.0	-80.3	252	25	
2025-07-23T00:00	13950	152	-53.1	-80.4	253	24	
2025-07-23T00:00	14000	150	-53.2	-80.7	254	22	
2025-07-23T00:00	14050	149	-53.0	-80.8	254	21	
2025-07-23T00:00	14100	148	-52.9	-80.9	253	20	
2025-07-23T00:00	14150	147	-52.5	-80.8	252	20	
2025-07-23T00:00	14200	146	-52.4	-80.9	251	19	
2025-07-23T00:00	14250	145	-52.6	-81.1	247	18	
2025-07-23T00:00	14300	144	-52.4	-81.3	244	17	
2025-07-23T00:00	14350	142	-51.8	-81.2	244	17	
2025-07-23T00:00	14400	141	-51.7	-81.1	242	17	
2025-07-23T00:00	14450	140	-51.4	-80.8	236	17	
2025-07-23T00:00	14500	139	-51.6	-80.9	231	17	
2025-07-23T00:00	14550	138	-51.8	-81.0	228	17	
2025-07-23T00:00	14600	137	-52.1	-81.1	225	17	
2025-07-23T00:00	14650	136	-52.2	-81.1	221	17	
2025-07-23T00:00	14700	135	-52.0	-81.0	221	18	
2025-07-23T00:00	14750	134	-51.8	-81.2	225	18	
2025-07-23T00:00	14800	133	-51.8	-81.4	231	18	
2025-07-23T00:00	14850	132	-52.1	-81.5	235	19	
2025-07-23T00:00	14900	131	-52.4	-81.6	238	19	
2025-07-23T00:00	14950	130	-52.6	-81.7	239	19	
2025-07-23T00:00	15000	129	-52.7	-81.8	238	19	
2025-07-23T00:00	15050	128	-52.9	-81.9	237	18	
2025-07-23T00:00	15100	127	-52.9	-82.0	238	18	
2025-07-23T00:00	15150	126	-53.1	-82.0	240	19	
2025-07-23T00:00	15200	125	-53.3	-82.1	242	20	
2025-07-23T00:00	15250	124	-53.7	-82.2	243	20	
2025-07-23T00:00	15300	123	-54.0	-82.3	245	20	
2025-07-23T00:00	15350	122	-54.2	-82.4	246	20	
2025-07-23T00:00	15400	121	-54.4	-82.6	248	20	
2025-07-23T00:00	15450	120	-54.4	-82.7	250	20	
2025-07-23T00:00	15500	119	-54.5	-82.8	252	19	
2025-07-23T00:00	15550	118	-54.3	-82.8	253	18	
2025-07-23T00:00	15600	117	-54.6	-82.9	254	17	
2025-07-23T00:00	15650	116	-54.9	-83.0	255	16	
2025-07-23T00:00	15700	115	-55.3	-83.1	255	15	
2025-07-23T00:00	15750	115	-55.5	-83.1	255	14	
2025-07-23T00:00	15800	114	-55.5	-83.2	256	14	
2025-07-23T00:00	15850	113	-55.5	-83.2	258	14	
2025-07-23T00:00	15900	112	-55.8	-83.2	259	15	
2025-07-23T00:00	15950	111	-56.0	-83.2	261	15	
2025-07-23T00:00	16000	110	-56.3	-83.4	262	15	
2025-07-23T00:00	16050	109	-56.1	-83.6	263	13	
2025-07-23T00:00	16100	108	-55.7	-83.7	263	12	
2025-07-23T00:00	16150	108	-55.7	-83.7	261	11	
2025-07-23T00:00	16200	107	-55.8	-83.7	257	10	
2025-07-23T00:00	16250	106	-55.8	-83.5	251	10	
2025-07-23T00:00	16300	105	-56.0	-83.7	249	11	
2025-07-23T00:00	16350	104	-55.6	-83.8	251	12	
2025-07-23T00:00	16400	103	-55.0	-83.9	253	14	
2025-07-23T00:00	16450	103	-54.0	-83.7	253	13	
2025-07-23T00:00	16500	102	-53.1	-83.6	253	12	
2025-07-23T00:00	16550	101	-51.7	-83.0	253	10	
2025-07-23T00:00	16600	100	-51.3	-82.6	255	8	
2025-07-23T00:00	16650	100	-51.6	-82.5	256	7	
2025-07-23T00:00	16700	99	-51.7	-82.4	258	6	
2025-07-23T00:00	16750	98	-51.7	-82.3	254	5	
2025-07-23T00:00	16800	97	-52.1	-82.4	245	4	
2025-07-23T00:00	16850	96	-52.4	-82.4	233	4	
2025-07-23T00:00	16900	96	-52.7	-82.5	223	3	
2025-07-23T00:00	16950	95	-53.1	-82.7	217	3	
2025-07-23T00:00	17000	94	-53.5	-82.8	213	4	
2025-07-23T00:00	17050	94	-53.8	-82.9	212	4	
2025-07-23T00:00	17100	93	-54.3	-83.1	212	5	
2025-07-23T00:00	17150	92	-54.7	-83.2	215	5	
2025-07-23T00:00	17200	91	-55.1	-83.4	220	5	
2025-07-23T00:00	17250	91	-55.5	-83.6	225	6	
2025-07-23T00:00	17300	90	-55.5	-83.8	229	6	
2025-07-23T00:00	17350	89	-55.6	-83.9	232	7	
2025-07-23T00:00	17400	89	-55.5	-84.0	233	7	
2025-07-23T00:00	17450	88	-55.3	-84.0	231	8	
2025-07-23T00:00	17500	87	-55.2	-84.0	229	8	
2025-07-23T00:00	17550	86	-55.1	-83.9	228	9	
2025-07-23T00:00	17600	86	-55.4	-84.0	227	10	
2025-07-23T00:00	17650	85	-55.3	-84.0	229	11	
2025-07-23T00:00	17700	84	-55.1	-84.1	233	11	
2025-07-23T00:00	17750	84	-54.6	-84.0	239	12	
2025-07-23T00:00	17800	83	-54.6	-84.1	246	12	
2025-07-23T00:00	17850	83	-53.8	-83.9	253	12	
2025-07-23T00:00	17900	82	-53.3	-83.6	257	10	
2025-07-23T00:00	17950	81	-53.0	-83.4	254	8	
2025-07-23T00:00	18000	81	-52.9	-83.3	245	6	
2025-07-23T00:00	18050	80	-53.1	-83.2	232	5	
2025-07-23T00:00	18100	79	-53.4	-83.2	218	4	
2025-07-23T00:00	18150	79	-53.8	-83.3	206	4	
2025-07-23T00:00	18200	78	-54.0	-83.4	197	4	
2025-07-23T00:00	18250	78	-54.2	-83.5	191	4	
2025-07-23T00:00	18300	77	-54.6	-83.6	188	4	
2025-07-23T00:00	18350	76	-54.9	-83.7	192	3	
2025-07-23T00:00	18400	76	-55.3	-83.9	200	3	
2025-07-23T00:00	18450	75	-55.5	-84.0	204	4	
2025-07-23T00:00	18500	75	-55.8	-84.2	201	4	
2025-07-23T00:00	18550	74	-55.9	-84.3	199	4	
2025-07-23T00:00	18600	73	-55.6	-84.3	209	4	
2025-07-23T00:00	18650	73	-55.8	-84.4	227	4	
2025-07-23T00:00	18700	72	-55.8	-84.5	244	4	
2025-07-23T00:00	18750	72	-55.2	-84.3	256	3	
2025-07-23T00:00	18800	71	-55.1	-84.3	264	3	
2025-07-23T00:00	18850	71	-55.2	-84.3	271	4	
2025-07-23T00:00	18900	70	-55.4	-84.3	280	4	
2025-07-23T00:00	18950	70	-55.8	-84.5	293	4	
2025-07-23T00:00	19000	69	-55.3	-84.4	313	3	
2025-07-23T00:00	19050	68	-55.2	-84.4	339	2	
2025-07-23T00:00	19100	68	-55.2	-84.4	26	2	
2025-07-23T00:00	19150	67	-55.2	-84.4	70	2	
2025-07-23T00:00	19200	67	-55.0	-84.5	92	2	
2025-07-23T00:00	19250	66	-54.1	-84.2	141	1	
2025-07-23T00:00	19300	66	-53.7	-84.0	177	2	
2025-07-23T00:00	19350	65	-53.9	-83.9	192	2	
2025-07-23T00:00	19400	65	-54.1	-83.9	191	2	
2025-07-23T00:00	19450	64	-54.2	-83.8	165	1	
2025-07-23T00:00	19500	64	-54.5	-83.9	148	2	
2025-07-23T00:00	19550	63	-54.7	-84.0	158	2	
2025-07-23T00:00	19600	63	-54.5	-84.1	179	3	
2025-07-23T00:00	19650	62	-54.0	-84.0	194	4	
2025-07-23T00:00	19700	62	-54.1	-84.2	206	4	
2025-07-23T00:00	19750	61	-53.7	-84.0	223	4	
2025-07-23T00:00	19800	61	-53.4	-83.8	245	4	
2025-07-23T00:00	19850	60	-53.3	-83.7	262	4	
2025-07-23T00:00	19900	60	-53.4	-83.7	275	3	
2025-07-23T00:00	19950	59	-53.3	-83.7	296	2	
2025-07-23T00:00	20000	59	-53.2	-83.7	335	2	
2025-07-23T00:00	20050	59	-52.9		28	1	
2025-07-23T00:00	20100	58	-52.8		70	2	
2025-07-23T00:00	20150	58	-53.1		96	1	
2025-07-23T00:00	20200	57	-53.2		115	1	
2025-07-23T00:00	20250	57	-53.1		98	1	
2025-07-23T00:00	20300	56	-52.6		71	2	
2025-07-23T00:00	20350	56	-52.3		71	3	
2025-07-23T00:00	20400	55	-52.3		85	4	
2025-07-23T00:00	20450	55	-52.4		103	4	
2025-07-23T00:00	20500	55	-52.5		116	6	
2025-07-23T00:00	20550	54	-52.5		125	6	
2025-07-23T00:00	20600	54	-52.6		131	7	
2025-07-23T00:00	20650	53	-52.6		136	7	
2025-07-23T00:00	20700	53	-52.7		137	6	
2025-07-23T00:00	20750	53	-52.8		129	4	
2025-07-23T00:00	20800	52	-52.7		103	3	
2025-07-23T00:00	20850	52	-52.7		72	3	
2025-07-23T00:00	20900	51	-52.5		64	4	
2025-07-23T00:00	20950	51	-52.4		73	5	
2025-07-23T00:00	21000	51	-52.5		84	5	
2025-07-23T00:00	21050	50	-52.9		86	5	
2025-07-23T00:00	21100	50	-53.1		80	6	
2025-07-23T00:00	21150	49	-53.1		74	6	
2025-07-23T00:00	21200	49	-52.9		77	6	
2025-07-23T00:00	21250	49	-52.6		86	6	
2025-07-23T00:00	21300	48	-52.5		101	5	
2025-07-23T00:00	21350	48	-52.7		118	5	
2025-07-23T00:00	21400	47	-52.5		129	5	
2025-07-23T00:00	21450	47	-52.2		132	5	
2025-07-23T00:00	21500	47	-52.1		122	4	
2025-07-23T00:00	21550	46	-52.0		100	3	
2025-07-23T00:00	21600	46	-52.0		88	4	
2025-07-23T00:00	21650	46	-52.0		94	5	
2025-07-23T00:00	21700	45	-52.1		110	6	
2025-07-23T00:00	21750	45	-52.0		125	7	
2025-07-23T00:00	21800	45	-52.1		138	7	
2025-07-23T00:00	21850	44	-52.1		147	7	
2025-07-23T00:00	21900	44	-52.1		150	6	
2025-07-23T00:00	21950	44	-52.2		145	4	
2025-07-23T00:00	22000	43	-52.2		129	4	
2025-07-23T00:00	22050	43	-52.0		108	4	
2025-07-23T00:00	22100	43	-51.8		95	5	
2025-07-23T00:00	22150	42	-51.8		84	5	
2025-07-23T00:00	22200	42	-51.8		74	6	
2025-07-23T00:00	22250	42	-51.8		66	6	
2025-07-23T00:00	22300	41	-52.1		62	7	
2025-07-23T00:00	22350	41	-52.3		62	7	
2025-07-23T00:00	22400	41	-52.5		66	7	
2025-07-23T00:00	22450	40	-52.6		73	7	
2025-07-23T00:00	22500	40	-52.8		83	7	
2025-07-23T00:00	22550	40	-52.9		93	7	
2025-07-23T00:00	22600	39	-52.9		104	8	
2025-07-23T00:00	22650	39	-52.9		111	8	
2025-07-23T00:00	22700	39	-52.9		116	8	
2025-07-23T00:00	22750	39	-52.7		119	8	
2025-07-23T00:00	22800	38	-52.5		124	7	
2025-07-23T00:00	22850	38	-52.6		128	7	
2025-07-23T00:00	22900	38	-52.5		130	6	
2025-07-23T00:00	22950	37	-52.6		125	6	
2025-07-23T00:00	23000	37	-52.4		113	7	
2025-07-23T00:00	23050	37	-52.1		101	8	
2025-07-23T00:00	23100	37	-52.0		93	9	
2025-07-23T00:00	23150	36	-52.1		89	10	
2025-07-23T00:00	23200	36	-51.9		87	9	
2025-07-23T00:00	23250	36	-51.9		89	8	
2025-07-23T00:00	23300	35	-52.1		88	8	
2025-07-23T00:00	23350	35	-52.2		84	8	
2025-07-23T00:00	23400	35	-52.3		81	9	
2025-07-23T00:00	23450	35	-52.2		84	11	
2025-07-23T00:00	23500	34	-51.9		90	11	
2025-07-23T00:00	23550	34	-51.9		94	12	
2025-07-23T00:00	23600	34	-51.7		96	12	
2025-07-23T00:00	23650	34	-51.6		95	11	
2025-07-23T00:00	23700	33	-51.4		95	11	
2025-07-23T00:00	23750	33	-51.3		94	10	
2025-07-23T00:00	23800	33	-51.3		93	9	
2025-07-23T00:00	23850	33	-51.4		92	10	
2025-07-23T00:00	23900	32	-51.4		94	10	
2025-07-23T00:00	23950	32	-51.4		98	11	
2025-07-23T00:00	24000	32	-51.6		103	11	
2025-07-23T00:00	24050	32	-51.7		107	11	
2025-07-23T00:00	24100	31	-51.7		110	10	
2025-07-23T00:00	24150	31	-51.8		111	10	
2025-07-23T00:00	24200	31	-51.7		109	10	
2025-07-23T00:00	24250	31	-51.6		104	11	
2025-07-23T00:00	24300	30	-51.6		98	11	
2025-07-23T00:00	24350	30	-51.5		93	11	
2025-07-23T00:00	24400	30	-51.4		91	11	
2025-07-23T00:00	24450	30	-51.3		92	10	
2025-07-23T00:00	24500	29	-51.5		94	9	
2025-07-23T00:00	24550	29	-51.6		97	9	
2025-07-23T00:00	24600	29	-51.7		96	8	
2025-07-23T00:00	24650	29	-51.7		96	9	
2025-07-23T00:00	24700	29	-51.5		96	10	
2025-07-23T00:00	24750	28	-51.3		98	10	
2025-07-23T00:00	24800	28	-51.2		100	10	
2025-07-23T00:00	24850	28	-51.1		102	10	
2025-07-23T00:00	24900	28	-50.9		103	10	
2025-07-23T00:00	24950	27	-50.4		104	11	
2025-07-23T00:00	25000	27	-50.0		103	12	
2025-07-23T00:00	25050	27	-49.4		101	12	
2025-07-23T00:00	25100	27	-49.0		100	11	
2025-07-23T00:00	25150	27	-49.2		99	10	
2025-07-23T00:00	25200	26	-49.4		99	10	
2025-07-23T00:00	25250	26	-49.6		100	11	
2025-07-23T00:00	25300	26	-49.4		103	13	
2025-07-23T00:00	25350	26	-49.3		107	14	
2025-07-23T00:00	25400	26	-49.3		111	13	
2025-07-23T00:00	25450	25	-49.4		113	12	
2025-07-23T00:00	25500	25	-49.1		111	11	
2025-07-23T00:00	25550	25	-48.6		107	10	
2025-07-23T00:00	25600	25	-48.2		106	10	
2025-07-23T00:00	25650	25	-47.6		110	11	
2025-07-23T00:00	25700	24	-47.5		114	10	
2025-07-23T00:00	25750	24	-47.4		118	10	
2025-07-23T00:00	25800	24	-47.4		120	9	
2025-07-23T00:00	25850	24	-47.6		118	8	
2025-07-23T00:00	25900	24	-47.8		108	7	
2025-07-23T00:00	25950	24	-47.8		93	8	
2025-07-23T00:00	26000	23	-47.5		83	9	
2025-07-23T00:00	26050	23	-47.2		78	11	
2025-07-23T00:00	26100	23	-47.2		79	12	
2025-07-23T00:00	26150	23	-47.2		83	14	
2025-07-23T00:00	26200	23	-47.2		85	14	
2025-07-23T00:00	26250	23	-47.2		87	13	
2025-07-23T00:00	26300	22	-47.1		85	11	
2025-07-23T00:00	26350	22	-47.2		82	11	
2025-07-23T00:00	26400	22	-47.5		76	11	
2025-07-23T00:00	26450	22	-47.3		71	11	
2025-07-23T00:00	26500	22	-47.0		69	13	
2025-07-23T00:00	26550	22	-46.8		70	14	
2025-07-23T00:00	26600	21	-46.6		73	15	
2025-07-23T00:00	26650	21	-46.3		78	15	
2025-07-23T00:00	26700	21	-46.3		84	15	
2025-07-23T00:00	26750	21	-46.4		90	15	
2025-07-23T00:00	26800	21	-46.4		96	15	
2025-07-23T00:00	26850	21	-46.4		97	14	
2025-07-23T00:00	26900	20	-46.3		96	13	
2025-07-23T00:00	26950	20	-46.4		93	12	
2025-07-23T00:00	27000	20	-46.6		92	11	
2025-07-23T00:00	27050	20	-46.6		91	11	
2025-07-23T00:00	27100	20	-46.4		92	12	
2025-07-23T00:00	27150	20	-46.1		94	13	
2025-07-23T00:00	27200	20	-46.0		96	14	
2025-07-23T00:00	27250	19	-46.0		97	15	
2025-07-23T00:00	27300	19	-46.0		97	15	
2025-07-23T00:00	27350	19	-45.8		96	14	
2025-07-23T00:00	27400	19	-45.7		95	13	
2025-07-23T00:00	27450	19	-45.6		93	12	
2025-07-23T00:00	27500	19	-45.6		92	11	
2025-07-23T00:00	27550	19	-45.5		91	11	
2025-07-23T00:00	27600	18	-45.2		88	11	
2025-07-23T00:00	27650	18	-45.2		86	11	
2025-07-23T00:00	27700	18	-45.3		86	12	
2025-07-23T00:00	27750	18	-45.1		86	13	
2025-07-23T00:00	27800	18	-45.0		88	14	
2025-07-23T00:00	27850	18	-45.1		91	15	
2025-07-23T00:00	27900	18	-45.0		94	16	
2025-07-23T00:00	27950	17	-45.1		97	15	
2025-07-23T00:00	28000	17	-45.2		99	14	
2025-07-23T00:00	28050	17	-44.9		97	13	
2025-07-23T00:00	28100	17	-44.6		92	12	
2025-07-23T00:00	28150	17	-44.7		86	12	
2025-07-23T00:00	28200	17	-44.6		82	12	
2025-07-23T00:00	28250	17	-44.5		81	13	
2025-07-23T00:00	28300	17	-44.5		85	13	
2025-07-23T00:00	28350	16	-44.4		90	14	
2025-07-23T00:00	28400	16	-44.6		96	14	
2025-07-23T00:00	28450	16	-44.4		99	14	
2025-07-23T00:00	28500	16	-44.2		97	14	
2025-07-23T00:00	28550	16	-43.9		91	13	
2025-07-23T00:00	28600	16	-43.6		82	12	
2025-07-23T00:00	28650	16	-43.6		73	12	
2025-07-23T00:00	28700	16	-43.6		67	12	
2025-07-23T00:00	28750	15	-43.6		66	12	
2025-07-23T00:00	28800	15	-43.2		70	13	
2025-07-23T00:00	28850	15	-43.2		75	14	
2025-07-23T00:00	28900	15	-43.3		79	14	
2025-07-23T00:00	28950	15	-43.4		82	14	
2025-07-23T00:00	29000	15	-43.6		83	14	
2025-07-23T00:00	29050	15	-43.8		81	14	
2025-07-23T00:00	29100	15	-43.7		78	13	
2025-07-23T00:00	29150	15	-43.6		77	14	
2025-07-23T00:00	29200	14	-43.3		79	14	
2025-07-23T00:00	29250	14	-42.9		83	14	
2025-07-23T00:00	29300	14	-42.7		86	14	
2025-07-23T00:00	29350	14	-42.7		88	14	
2025-07-23T00:00	29400	14	-42.9		88	14	
2025-07-23T00:00	29450	14	-43.0		87	13	
2025-07-23T00:00	29500	14	-42.9		86	12	
2025-07-23T00:00	29550	14	-42.9		83	11	
2025-07-23T00:00	29600	14	-42.9		79	11	
2025-07-23T00:00	29650	14	-42.5		73	12	
2025-07-23T00:00	29700	13	-42.3		68	13	
2025-07-23T00:00	29750	13	-42.1		65	15	
2025-07-23T00:00	29800	13	-41.9		65	17	
2025-07-23T00:00	29850	13	-41.6		67	18	
2025-07-23T00:00	29900	13	-41.6		69	18	
2025-07-23T00:00	29950	13	-41.7		72	18	
2025-07-23T00:00	30000	13	-41.7		74	17	
2025-07-23T00:00	30050	13	-41.8		75	16	
2025-07-23T00:00	30100	13	-41.5		75	15	
2025-07-23T00:00	30150	13	-41.3		76	14	
2025-07-23T00:00	30200	12	-41.4		76	15	
2025-07-23T00:00	30250	12	-41.2		77	16	
2025-07-23T00:00	30300	12	-40.9		78	17	
2025-07-23T00:00	30350	12	-40.7		79	18	
2025-07-23T00:00	30400	12	-40.7		81	19	
2025-07-23T00:00	30450	12	-40.6		83	19	
2025-07-23T00:00	30500	12	-40.5		85	19	
2025-07-23T00:00	30550	12	-40.6		86	18	
2025-07-23T00:00	30600	12	-40.5		86	18	
2025-07-23T00:00	30650	12	-40.6		85	19	
2025-07-23T00:00	30700	12	-40.4		85	19	
2025-07-23T00:00	30750	12	-40.3		85	20	
2025-07-23T00:00	30800	11	-40.2		87	20	
2025-07-23T00:00	30850	11	-40.0		90	20	
2025-07-23T00:00	30900	11	-40.0		92	20	
2025-07-23T00:00	30950	11	-39.9		92	19	
2025-07-23T00:00	31000	11	-39.8		90	18	
2025-07-23T00:00	31050	11	-39.7		89	17	
2025-07-23T00:00	31100	11	-39.6		88	17	
2025-07-23T00:00	31150	11	-39.5		88	17	
2025-07-23T00:00	31200	11	-39.4		87	17	
2025-07-23T00:00	31250	11	-39.3		86	18	
2025-07-23T00:00	31300	11	-39.1		87	19	
2025-07-23T00:00	31350	11	-38.9		89	20	
2025-07-23T00:00	31400	10	-38.6		91	20	
2025-07-23T00:00	31450	10	-38.5		92	20	
2025-07-23T00:00	31500	10	-38.5		93	18	
2025-07-23T00:00	31550	10	-38.4		93	17	
2025-07-23T00:00	31600	10	-38.4		95	16	
2025-07-23T00:00	31650	10	-38.3		95	15	
2025-07-23T00:00	31700	10	-38.1		95	16	
2025-07-23T00:00	31750	10	-38.0		95	17	
2025-07-23T00:00	31800	10	-37.8		95	17	
2025-07-23T00:00	31850	10	-37.8		95	17	
2025-07-23T00:00	31900	10	-37.7		95	16	
2025-07-23T00:00	31950	10	-37.8		96	14	
2025-07-23T00:00	32000	10	-37.7		96	13	
2025-07-23T00:00	32050	10	-37.9		95	12	
2025-07-23T00:00	32100	9	-37.9		92	12	
2025-07-23T00:00	32150	9	-37.9		89	13	
2025-07-23T00:00	32200	9	-37.9		88	15	
2025-07-23T00:00	32250	9	-37.7		88	17	
2025-07-23T00:00	32300	9	-37.7		90	18	
2025-07-23T00:00	32350	9	-37.7		91	18	
2025-07-23T00:00	32400	9	-37.4		92	17	
2025-07-23T00:00	32450	9	-37.3		93	17	
2025-07-23T00:00	32500	9	-37.1		95	17	
2025-07-23T00:00	32550	9	-36.7		97	16	
2025-07-23T00:00	32600	9	-36.4		101	15	
2025-07-23T00:00	32650	9	-36.1		103	14	
2025-07-23T00:00	32700	9	-35.9		102	13	
2025-07-23T00:00	32750	9	-35.7		98	13	
2025-07-23T00:00	32800	9	-35.4		95	13	
2025-07-23T00:00	32850	8	-35.3		95	13	
2025-07-23T00:00	32900	8	-35.2		94	14	
2025-07-23T00:00	32950	8	-35.2		93	15	
2025-07-23T00:00	33000	8	-35.1		92	16	
2025-07-23T00:00	33050	8	-35.2		92	16	
2025-07-23T00:00	33100	8	-35.3		91	16	
2025-07-23T00:00	33150	8	-35.2		91	15	
2025-07-23T00:00	33200	8	-35.1		92	15	
2025-07-23T00:00	33250	8	-35.1		93	14	
2025-07-23T00:00	33300	8	-35.2		95	13	
2025-07-23T00:00	33350	8	-35.2		96	13	
2025-07-23T00:00	33400	8	-35.1		96	13	
2025-07-23T00:00	33450	8	-35.0		94	13	
2025-07-23T00:00	33500	8	-34.7		92	13	
2025-07-23T00:00	33550	8	-34.6		91	13	
2025-07-23T00:00	33600	8	-34.6		89	13	
2025-07-23T00:00	33650	8	-34.6		87	12	
2025-07-23T00:00	33700	8	-34.4		82	13	
2025-07-23T00:00	33750	7	-34.3		78	14	
2025-07-23T00:00	33800	7	-34.4		74	15	
2025-07-23T00:00	33850	7	-34.4		72	17	
2025-07-23T00:00	33900	7	-34.5		73	18	
2025-07-23T00:00	33950	7	-34.5		75	19	
2025-07-23T00:00	34000	7	-34.5		77	20	
2025-07-23T00:00	34050	7	-34.6		79	20	
2025-07-23T00:00	34100	7	-34.8		81	20	
2025-07-23T00:00	34150	7	-34.9		83	19	
2025-07-23T00:00	34200	7	-34.9		85	19	
2025-07-23T00:00	34250	7	-35.1		85	20	
2025-07-23T00:00	34300	7	-35.1		85	20	
2025-07-23T00:00	34350	7	-35.0		86	20	
2025-07-23T00:00	34400	7	-35.0		86	21	
2025-07-23T00:00	34450	7	-34.9		87	21	
2025-07-23T00:00	34500	7	-34.6		87	21	
2025-07-23T00:00	34550	7	-34.4		87	20	
2025-07-23T00:00	34600	7	-34.4		87	19	
2025-07-23T00:00	34650	7	-34.4		85	18	
2025-07-23T00:00	34700	7	-34.0		82	17	
2025-07-23T00:00	34750	6	-33.6		79	17	
2025-07-23T00:00	34800	6	-33.4		76	17	
2025-07-23T00:00	34850	6	-33.4		72	16	
2025-07-23T00:00	34900	6	-33.3		67	16	
2025-07-23T00:00	34950	6	-33.0		66	17	
2025-07-23T00:00	35000	6	-32.7		68	17	
2025-07-23T00:00	35050	6	-32.6		71	18	
2025-07-23T00:00	35100	6	-32.7		72	19	
2025-07-23T12:00	491	958	23.2	10.3	355	0	4.2
2025-07-23T12:00	501	957	22.5	10.4	8	1	4.2
2025-07-23T12:00	520	955	21.6	9.5	1	1	4.2
2025-07-23T12:00	540	953	21.1	8.9	355	2	4.3
2025-07-23T12:00	560	950	21.0	8.9	348	2	4.4
2025-07-23T12:00	580	948	20.7	8.9	340	2	4.5
2025-07-23T12:00	600	946	20.4	8.8	332	2	4.6
2025-07-23T12:00	620	944	20.3	8.7	319	2	4.6
2025-07-23T12:00	640	942	20.1	8.8	306	2	4.7
2025-07-23T12:00	660	940	19.8	8.7	297	2	4.8
2025-07-23T12:00	680	937	19.7	8.7	293	2	4.8
2025-07-23T12:00	700	935	19.4	8.6	296	2	4.8
2025-07-23T12:00	720	933	19.3	8.6	300	2	4.8
2025-07-23T12:00	740	931	19.1	8.6	304	2	4.8
2025-07-23T12:00	760	928	18.8	8.5	306	1	4.8
2025-07-23T12:00	780	926	18.6	8.5	304	1	4.9
2025-07-23T12:00	800	925	18.5	8.3	302	1	4.8
2025-07-23T12:00	820	922	18.3	8.4	297	1	4.9
2025-07-23T12:00	840	920	18.1	8.4	292	1	4.8
2025-07-23T12:00	860	918	17.9	8.5	286	1	4.8
2025-07-23T12:00	880	916	17.7	8.4	278	0	4.8
2025-07-23T12:00	900	914	17.5	8.3	257	0	4.8
2025-07-23T12:00	920	911	17.3	8.1	182	0	4.8
2025-07-23T12:00	940	909	17.2	8.2	127	0	4.8
2025-07-23T12:00	960	907	17.0	8.2	106	1	4.8
2025-07-23T12:00	980	905	16.8	8.4	89	1	4.8
2025-07-23T12:00	1000	903	16.7	8.3	68	1	4.8
2025-07-23T12:00	1020	901	16.5	8.3	46	1	4.8
2025-07-23T12:00	1040	899	16.3	8.4	32	1	4.8
2025-07-23T12:00	1060	897	16.0	8.5	20	1	4.8
2025-07-23T12:00	1080	895	15.8	8.3	11	1	4.8
2025-07-23T12:00	1100	892	15.6	8.2	1	1	4.7
2025-07-23T12:00	1120	890	15.4	8.2	343	1	4.8
2025-07-23T12:00	1140	888	15.2	8.4	305	0	4.8
2025-07-23T12:00	1160	886	15.1	8.2	235	1	4.7
2025-07-23T12:00	1180	884	14.9	8.2	209	1	4.7
2025-07-23T12:00	1200	882	14.7	8.0	201	1	4.7
2025-07-23T12:00	1220	880	14.5	7.9	199	2	4.7
2025-07-23T12:00	1240	878	14.4	7.8	202	2	4.7
2025-07-23T12:00	1260	876	14.1	7.9	208	2	4.7
2025-07-23T12:00	1280	873	13.9	7.9	222	2	4.7
2025-07-23T12:00	1300	872	13.7	7.9	237	2	4.7
2025-07-23T12:00	1320	869	13.6	7.8	247	2	4.7
2025-07-23T12:00	1340	867	13.4	7.8	252	2	4.7
2025-07-23T12:00	1360	865	13.2	7.7	256	2	4.6
2025-07-23T12:00	1380	863	13.1	7.7	261	2	4.6
2025-07-23T12:00	1400	861	12.9	7.8	268	2	4.6
2025-07-23T12:00	1420	859	12.6	7.6	278	2	4.6
2025-07-23T12:00	1440	857	12.5	7.5	286	2	4.6
2025-07-23T12:00	1460	855	12.3	7.5	294	2	4.6
2025-07-23T12:00	1480	853	12.1	7.7	301	2	4.6
2025-07-23T12:00	1500	851	11.8	7.5	304	2	4.6
2025-07-23T12:00	1520	849	11.6	7.5	303	2	4.6
2025-07-23T12:00	1540	847	11.5	7.3	299	2	4.6
2025-07-23T12:00	1560	845	11.3	7.3	292	2	4.6
2025-07-23T12:00	1580	843	11.0	7.4	281	2	4.5
2025-07-23T12:00	1600	841	10.9	7.4	267	2	4.5
2025-07-23T12:00	1620	839	10.6	7.3	253	2	4.5
2025-07-23T12:00	1640	837	10.4	7.3	244	2	4.5
2025-07-23T12:00	1660	835	10.3	7.2	238	2	4.5
2025-07-23T12:00	1680	833	10.1	7.1	234	3	4.5
2025-07-23T12:00	1700	831	10.0	6.5	231	3	4.5
2025-07-23T12:00	1720	829	9.9	6.6	228	4	4.5
2025-07-23T12:00	1740	827	9.8	6.3	227	4	4.5
2025-07-23T12:00	1760	825	9.6	6.2	227	5	4.4
2025-07-23T12:00	1780	823	9.4	6.2	229	5	4.4
2025-07-23T12:00	1800	821	9.2	6.3	233	5	4.4
2025-07-23T12:00	1820	819	9.0	6.4	238	6	4.4
2025-07-23T12:00	1840	817	9.0	5.9	243	7	4.3
2025-07-23T12:00	1860	815	8.9	5.7	247	7	4.3
2025-07-23T12:00	1880	813	8.8	5.6	249	8	4.2
2025-07-23T12:00	1900	811	8.8	5.2	248	8	4.2
2025-07-23T12:00	1920	809	8.7	5.2	246	8	4.2
2025-07-23T12:00	1940	807	8.5	5.0	244	7	4.2
2025-07-23T12:00	1960	805	8.4	4.7	242	7	4.2
2025-07-23T12:00	1980	803	8.3	4.4	239	7	4.2
2025-07-23T12:00	2000	801	8.2	4.1	237	7	4.1
2025-07-23T12:00	2020	800	8.2	3.7	235	7	4.2
2025-07-23T12:00	2040	797	8.0	3.8	235	7	4.1
2025-07-23T12:00	2060	795	7.9	3.7	237	7	4.1
2025-07-23T12:00	2080	794	7.7	3.6	239	6	4.1
2025-07-23T12:00	2100	792	7.7	3.2	242	6	4.1
2025-07-23T12:00	2120	790	7.6	2.8	245	6	4.1
2025-07-23T12:00	2140	788	7.4	2.5	245	7	4.1
2025-07-23T12:00	2160	786	7.3	2.4	241	7	4.1
2025-07-23T12:00	2180	784	7.2	2.0	236	8	4.1
2025-07-23T12:00	2200	782	7.1	1.6	229	9	4.1
2025-07-23T12:00	2220	780	7.0	1.1	223	9	4.2
2025-07-23T12:00	2240	778	7.0	0.7	219	10	4.2
2025-07-23T12:00	2260	777	6.9	0.7	216	10	4.3
2025-07-23T12:00	2280	775	6.8	0.6	215	10	4.3
2025-07-23T12:00	2300	773	6.6	0.3	215	11	4.4
2025-07-23T12:00	2320	771	6.4	0.2	214	11	4.4
2025-07-23T12:00	2340	769	6.3	0.0	214	11	4.4
2025-07-23T12:00	2360	767	6.2	-0.1	213	11	4.4
2025-07-23T12:00	2380	765	6.0	-0.1	213	10	4.4
2025-07-23T12:00	2400	763	5.9	-0.2	214	10	4.5
2025-07-23T12:00	2420	761	5.7	0.2	215	10	4.5
2025-07-23T12:00	2440	760	5.5	0.1	217	10	4.5
2025-07-23T12:00	2460	758	5.3	0.2	218	11	4.5
2025-07-23T12:00	2480	756	5.1	0.3	219	11	4.4
2025-07-23T12:00	2500	754	5.0	0.4	217	12	4.5
2025-07-23T12:00	2520	752	4.8	0.2	216	13	4.4
2025-07-23T12:00	2540	750	4.9	-0.8	213	13	4.4
2025-07-23T12:00	2560	748	4.8	-1.0	211	13	4.5
2025-07-23T12:00	2580	747	4.7	-1.3	210	14	4.5
2025-07-23T12:00	2600	745	4.6	-1.9	210	14	4.5
2025-07-23T12:00	2620	743	4.4	-1.8	211	14	4.5
2025-07-23T12:00	2640	741	4.2	-1.5	211	14	4.6
2025-07-23T12:00	2660	740	4.1	-2.0	213	15	4.5
2025-07-23T12:00	2680	738	4.0	-2.4	214	15	4.6
2025-07-23T12:00	2700	736	4.0	-3.1	217	16	4.6
2025-07-23T12:00	2720	734	4.1	-3.1	218	16	4.6
2025-07-23T12:00	2740	732	4.2	-4.0	219	16	4.6
2025-07-23T12:00	2760	731	4.1	-3.2	220	16	4.7
2025-07-23T12:00	2780	729	4.0	-2.0	220	16	4.7
2025-07-23T12:00	2800	727	3.9	-0.1	218	15	4.6
2025-07-23T12:00	2820	725	3.9	0.2	216	15	4.5
2025-07-23T12:00	2840	723	3.7	0.2	214	15	4.4
2025-07-23T12:00	2860	721	3.5	0.4	213	15	4.3
2025-07-23T12:00	2880	720	3.3	0.4	213	15	4.3
2025-07-23T12:00	2900	718	3.1	0.3	214	14	4.2
2025-07-23T12:00	2920	716	3.0	0.2	214	14	4.2
2025-07-23T12:00	2940	714	2.8	0.1	215	14	4.1
2025-07-23T12:00	2960	713	2.6	0.1	214	14	4.1
2025-07-23T12:00	2980	711	2.5	0.0	214	14	4.1
2025-07-23T12:00	3000	709	2.3	-0.1	214	14	4.0
2025-07-23T12:00	3020	707	2.2	-0.2	215	14	4.0
2025-07-23T12:00	3040	706	2.0	-0.6	216	14	4.0
2025-07-23T12:00	3060	704	1.8	-0.8	218	14	3.9
2025-07-23T12:00	3080	702	1.6	-1.2	220	14	3.9
2025-07-23T12:00	3100	700	1.5	-1.9	222	14	4.0
2025-07-23T12:00	3120	699	1.4	-2.8	222	14	4.0
2025-07-23T12:00	3140	697	1.3	-4.2	222	14	4.0
2025-07-23T12:00	3160	695	1.3	-5.3	221	14	4.0
2025-07-23T12:00	3180	694	1.3	-7.1	221	15	4.1
2025-07-23T12:00	3200	692	1.3	-8.3	221	15	4.2
2025-07-23T12:00	3220	690	1.2	-9.6	221	15	4.3
2025-07-23T12:00	3240	688	1.3	-12.1	222	16	4.5
2025-07-23T12:00	3260	687	1.5	-14.4	223	16	4.6
2025-07-23T12:00	3280	685	1.5	-14.9	224	16	4.7
2025-07-23T12:00	3300	683	1.6	-17.4	224	16	4.8
2025-07-23T12:00	3320	682	1.8	-20.1	224	15	5.0
2025-07-23T12:00	3340	680	1.8	-21.2	225	15	5.1
2025-07-23T12:00	3360	678	1.8	-22.7	226	14	5.2
2025-07-23T12:00	3380	677	1.7	-23.9	229	14	5.3
2025-07-23T12:00	3400	675	1.5	-24.3	232	13	5.4
2025-07-23T12:00	3420	673	1.4	-24.5	235	13	5.5
2025-07-23T12:00	3440	672	1.5	-25.0	237	13	5.5
2025-07-23T12:00	3460	670	1.6	-24.5	239	14	5.5
2025-07-23T12:00	3480	668	1.7	-23.7	239	14	5.5
2025-07-23T12:00	3500	666	1.7	-23.5	239	14	5.5
2025-07-23T12:00	3520	665	1.7	-24.4	238	15	5.6
2025-07-23T12:00	3540	663	1.6	-25.9	237	15	5.6
2025-07-23T12:00	3560	662	1.6	-26.4	236	16	5.6
2025-07-23T12:00	3580	660	1.6	-26.9	234	16	5.6
2025-07-23T12:00	3600	658	1.7	-25.9	233	16	5.6
2025-07-23T12:00	3620	657	1.7	-26.5	232	16	5.7
2025-07-23T12:00	3640	655	1.6	-29.2	232	16	5.7
2025-07-23T12:00	3660	653	1.6	-30.9	232	15	5.7
2025-07-23T12:00	3680	652	1.5	-31.6	234	15	5.7
2025-07-23T12:00	3700	650	1.3	-32.4	235	15	5.7
2025-07-23T12:00	3720	648	1.2	-33.8	236	15	5.7
2025-07-23T12:00	3740	647	1.2	-34.0	236	15	5.8
2025-07-23T12:00	3760	645	1.1	-33.1	235	15	5.9
2025-07-23T12:00	3780	644	1.0	-32.8	235	16	5.9
2025-07-23T12:00	3800	642	0.8	-32.6	235	16	6.0
2025-07-23T12:00	3820	640	0.6	-29.8	235	16	6.0
2025-07-23T12:00	3840	639	0.5	-30.2	236	16	6.0
2025-07-23T12:00	3860	637	0.4	-27.9	237	16	5.9
2025-07-23T12:00	3880	636	0.3	-25.9	239	16	5.9
2025-07-23T12:00	3900	634	0.1	-26.0	241	16	5.8
2025-07-23T12:00	3920	632	0.0	-25.8	242	16	5.7
2025-07-23T12:00	3940	631	-0.2	-26.0	242	15	5.6
2025-07-23T12:00	3960	629	-0.3	-26.0	241	15	5.5
2025-07-23T12:00	3980	628	-0.5	-25.5	240	14	5.5
2025-07-23T12:00	4000	626	-0.6	-23.9	238	14	5.4
2025-07-23T12:00	4020	625	-0.7	-23.7	237	14	5.3
2025-07-23T12:00	4040	623	-0.9	-24.2	237	13	5.2
2025-07-23T12:00	4060	622	-1.1	-24.9	236	13	5.0
2025-07-23T12:00	4080	620	-1.2	-25.4	237	13	5.0
2025-07-23T12:00	4100	619	-1.1	-27.0	237	13	5.0
2025-07-23T12:00	4120	617	-1.1	-27.6	237	14	5.0
2025-07-23T12:00	4140	615	-1.2	-28.1	236	14	5.1
2025-07-23T12:00	4160	614	-1.4	-28.1	235	15	5.2
2025-07-23T12:00	4180	612	-1.4	-28.0	233	15	5.3
2025-07-23T12:00	4200	611	-1.5	-28.3	232	15	5.4
2025-07-23T12:00	4220	609	-1.6	-28.3	229	15	5.4
2025-07-23T12:00	4240	608	-1.8	-28.2	228	14	5.5
2025-07-23T12:00	4260	606	-1.9	-27.7	227	14	5.5
2025-07-23T12:00	4280	605	-2.1	-28.1	227	13	5.5
2025-07-23T12:00	4300	603	-2.3	-29.1	227	13	5.5
2025-07-23T12:00	4320	602	-2.4	-29.4	228	13	5.5
2025-07-23T12:00	4340	600	-2.4	-29.2	228	13	5.5
2025-07-23T12:00	4360	598	-2.5	-29.0	229	13	5.5
2025-07-23T12:00	4380	597	-2.7	-28.7	229	13	5.5
2025-07-23T12:00	4400	595	-2.9	-26.1	229	13	5.5
2025-07-23T12:00	4420	594	-3.1	-24.9	229	13	5.5
2025-07-23T12:00	4440	593	-3.3	-25.0	229	13	5.4
2025-07-23T12:00	4460	591	-3.4	-25.1	229	14	5.4
2025-07-23T12:00	4480	589	-3.6	-24.6	230	14	5.3
2025-07-23T12:00	4500	588	-3.7	-24.7	230	14	5.3
2025-07-23T12:00	4520	587	-3.9	-25.3	231	14	5.3
2025-07-23T12:00	4540	585	-4.1	-26.0	231	14	5.3
2025-07-23T12:00	4560	584	-4.3	-24.9	231	14	5.2
2025-07-23T12:00	4580	582	-4.5	-23.3	230	14	5.2
2025-07-23T12:00	4600	581	-4.5	-22.9	230	14	5.1
2025-07-23T12:00	4620	579	-4.7	-23.3	229	14	5.1
2025-07-23T12:00	4640	578	-4.7	-25.0	230	14	5.0
2025-07-23T12:00	4660	576	-5.0	-24.5	231	14	4.9
2025-07-23T12:00	4680	575	-5.1	-24.9	232	14	4.9
2025-07-23T12:00	4700	573	-5.2	-24.5	233	14	4.9
2025-07-23T12:00	4720	572	-5.4	-23.6	233	14	4.9
2025-07-23T12:00	4740	570	-5.5	-23.7	232	14	4.7
2025-07-23T12:00	4760	569	-5.7	-23.9	232	14	4.5
2025-07-23T12:00	4780	567	-5.8	-24.0	230	14	4.4
2025-07-23T12:00	4800	566	-5.8	-24.0	229	14	4.2
2025-07-23T12:00	4820	565	-6.0	-24.5	228	14	4.1
2025-07-23T12:00	4840	563	-6.2	-24.2	228	14	4.0
2025-07-23T12:00	4860	562	-6.3	-24.1	228	14	4.0
2025-07-23T12:00	4880	560	-6.4	-24.1	228	14	3.9
2025-07-23T12:00	4900	559	-6.6	-24.3	229	14	3.9
2025-07-23T12:00	4920	557	-6.7	-24.9	230	14	3.9
2025-07-23T12:00	4940	556	-6.9	-25.2	232	13	3.8
2025-07-23T12:00	4960	554	-7.1	-24.9	234	13	3.7
2025-07-23T12:00	4980	553	-7.1	-24.8	236	13	3.7
2025-07-23T12:00	5000	552	-7.3	-25.0	238	14	3.7
2025-07-23T12:00	5020	550	-7.5	-25.1	238	14	3.7
2025-07-23T12:00	5040	549	-7.7	-25.4	237	14	3.6
2025-07-23T12:00	5060	547	-7.7	-26.1	236	14	3.6
2025-07-23T12:00	5080	546	-7.8	-26.8	234	14	3.6
2025-07-23T12:00	5100	545	-8.0	-27.2	232	14	3.6
2025-07-23T12:00	5120	543	-8.2	-27.7	231	14	3.5
2025-07-23T12:00	5140	542	-8.3	-28.6	231	14	3.5
2025-07-23T12:00	5160	540	-8.4	-28.9	231	15	3.6
2025-07-23T12:00	5180	539	-8.6	-28.7	231	15	3.6
2025-07-23T12:00	5200	538	-8.8	-28.4	232	15	3.6
2025-07-23T12:00	5220	536	-9.0	-28.1	232	15	3.6
2025-07-23T12:00	5240	535	-9.1	-26.4	232	15	3.7
2025-07-23T12:00	5260	534	-9.3	-26.0	232	15	3.7
2025-07-23T12:00	5280	532	-9.5	-27.5	231	15	3.7
2025-07-23T12:00	5300	531	-9.7	-27.9	230	15	3.7
2025-07-23T12:00	5320	529	-9.8	-27.7	229	15	3.8
2025-07-23T12:00	5340	528	-10.1	-27.2	228	14	3.8
2025-07-23T12:00	5360	527	-10.2	-27.2	228	14	3.8
2025-07-23T12:00	5380	525	-10.3	-28.6	228	14	3.9
2025-07-23T12:00	5400	524	-10.5	-27.9	228	14	3.9
2025-07-23T12:00	5420	522	-10.6	-27.7	228	15	3.9
2025-07-23T12:00	5440	521	-10.8	-28.8	228	15	3.9
2025-07-23T12:00	5460	520	-10.9	-27.9	229	15	3.9
2025-07-23T12:00	5480	518	-11.1	-27.0	229	15	3.9
2025-07-23T12:00	5500	517	-11.3	-25.1	230	15	3.9
2025-07-23T12:00	5520	516	-11.5	-23.8	230	15	3.9
2025-07-23T12:00	5540	514	-11.6	-23.7	230	15	3.9
2025-07-23T12:00	5560	513	-11.8	-24.1	231	15	3.8
2025-07-23T12:00	5580	512	-12.0	-24.3	232	15	3.8
2025-07-23T12:00	5600	510	-12.3	-24.3	233	15	3.7
2025-07-23T12:00	5620	509	-12.4	-24.5	234	15	3.7
2025-07-23T12:00	5640	508	-12.5	-24.8	235	15	3.7
2025-07-23T12:00	5660	506	-12.6	-25.4	236	15	3.6
2025-07-23T12:00	5680	505	-12.6	-25.6	237	15	3.6
2025-07-23T12:00	5700	504	-12.8	-24.9	239	15	3.6
2025-07-23T12:00	5720	503	-12.9	-23.8	240	15	3.6
2025-07-23T12:00	5740	501	-13.0	-22.3	242	15	3.5
2025-07-23T12:00	5760	500	-13.1	-22.5	243	15	3.5
2025-07-23T12:00	5780	498	-13.1	-23.3	244	15	3.5
2025-07-23T12:00	5800	497	-13.3	-23.4	244	15	3.5
2025-07-23T12:00	5820	496	-13.4	-23.5	243	15	3.5
2025-07-23T12:00	5840	495	-13.5	-23.6	243	15	3.5
2025-07-23T12:00	5860	493	-13.7	-23.6	242	15	3.4
2025-07-23T12:00	5880	492	-13.9	-23.6	242	15	3.4
2025-07-23T12:00	5900	491	-14.1	-22.8	241	15	3.4
2025-07-23T12:00	5920	489	-14.3	-21.6	241	15	3.4
2025-07-23T12:00	5940	488	-14.5	-21.7	240	15	3.3
2025-07-23T12:00	5960	487	-14.7	-21.9	240	14	3.3
2025-07-23T12:00	5980	485	-14.9	-21.8	240	14	3.3
2025-07-23T12:00	6000	484	-15.0	-21.5	240	14	3.3
2025-07-23T12:00	6020	483	-15.2	-20.8	240	14	3.3
2025-07-23T12:00	6040	482	-15.4	-20.4	239	14	3.3
2025-07-23T12:00	6060	480	-15.5	-20.1	239	14	3.3
2025-07-23T12:00	6080	479	-15.7	-20.2	239	14	3.2
2025-07-23T12:00	6100	478	-15.9	-20.0	239	15	3.2
2025-07-23T12:00	6120	477	-15.9	-19.8	239	15	3.2
2025-07-23T12:00	6140	475	-16.1	-20.1	239	15	3.2
2025-07-23T12:00	6160	474	-16.2	-20.0	240	15	3.2
2025-07-23T12:00	6180	473	-16.4	-20.3	240	15	3.2
2025-07-23T12:00	6200	472	-16.6	-20.4	241	15	3.2
2025-07-23T12:00	6220	470	-16.7	-20.3	241	15	3.2
2025-07-23T12:00	6240	469	-16.9	-20.1	241	14	3.1
2025-07-23T12:00	6260	468	-17.1	-20.1	241	14	3.1
2025-07-23T12:00	6280	467	-17.2	-20.3	241	14	3.2
2025-07-23T12:00	6300	465	-17.2	-19.6	240	14	3.1
2025-07-23T12:00	6320	464	-17.1	-19.4	240	14	3.1
2025-07-23T12:00	6340	463	-17.1	-19.9	240	14	3.1
2025-07-23T12:00	6360	462	-17.3	-20.0	239	14	3.2
2025-07-23T12:00	6380	460	-17.5	-20.2	239	14	3.2
2025-07-23T12:00	6400	459	-17.6	-20.2	238	14	3.2
2025-07-23T12:00	6420	458	-17.6	-20.1	238	13	3.2
2025-07-23T12:00	6440	457	-17.8	-20.1	237	13	3.2
2025-07-23T12:00	6460	455	-18.0	-20.1	237	13	3.2
2025-07-23T12:00	6480	454	-18.1	-20.6	237	12	3.2
2025-07-23T12:00	6500	453	-18.2	-20.8	237	12	3.2
2025-07-23T12:00	6520	452	-18.4	-20.7	237	13	3.1
2025-07-23T12:00	6540	451	-18.5	-20.8	237	13	3.2
2025-07-23T12:00	6560	449	-18.7	-20.6	236	13	3.1
2025-07-23T12:00	6580	448	-18.9	-20.5	235	14	3.1
2025-07-23T12:00	6600	447	-18.9	-20.8	233	14	3.1
2025-07-23T12:00	6620	446	-19.0	-21.0	232	14	3.1
2025-07-23T12:00	6640	445	-19.1	-20.8	231	14	3.1
2025-07-23T12:00	6660	443	-19.3	-21.2	231	14	3.1
2025-07-23T12:00	6680	442	-19.3	-21.6	230	14	3.1
2025-07-23T12:00	6700	441	-19.4	-21.7	230	14	3.1
2025-07-23T12:00	6720	440	-19.6	-21.7	231	15	3.2
2025-07-23T12:00	6740	439	-19.7	-21.9	231	15	3.2
2025-07-23T12:00	6760	438	-19.8	-21.9	231	15	3.2
2025-07-23T12:00	6780	436	-19.9	-22.2	231	16	3.2
2025-07-23T12:00	6800	435	-20.1	-22.5	232	16	3.2
2025-07-23T12:00	6820	434	-20.1	-22.8	232	16	3.2
2025-07-23T12:00	6840	433	-20.3	-23.0	232	16	3.2
2025-07-23T12:00	6860	432	-20.5	-23.4	232	16	3.2
2025-07-23T12:00	6880	431	-20.5	-23.8	232	16	3.2
2025-07-23T12:00	6900	429	-20.6	-23.8	233	16	3.2
2025-07-23T12:00	6920	428	-20.8	-23.9	233	16	3.3
2025-07-23T12:00	6940	427	-20.9	-24.4	234	16	3.2
2025-07-23T12:00	6960	426	-21.0	-24.8	234	16	3.2
2025-07-23T12:00	6980	425	-21.1	-25.0	234	17	3.2
2025-07-23T12:00	7000	424	-21.2	-25.3	234	17	3.2
2025-07-23T12:00	7020	422	-21.3	-25.5	234	17	3.2
2025-07-23T12:00	7040	421	-21.4	-25.6	234	17	3.2
2025-07-23T12:00	7060	420	-21.5	-25.8	234	17	3.2
2025-07-23T12:00	7080	419	-21.7	-25.9	233	17	3.1
2025-07-23T12:00	7100	418	-21.9	-26.2	233	18	3.1
2025-07-23T12:00	7120	417	-22.0	-26.4	233	18	3.1
2025-07-23T12:00	7140	416	-22.2	-26.6	233	18	3.1
2025-07-23T12:00	7160	414	-22.4	-26.6	232	18	3.1
2025-07-23T12:00	7180	413	-22.6	-26.7	232	18	3.1
2025-07-23T12:00	7200	412	-22.6	-26.7	232	18	3.1
2025-07-23T12:00	7220	411	-22.9	-26.8	231	18	3.1
2025-07-23T12:00	7240	410	-23.1	-26.7	231	18	3.1
2025-07-23T12:00	7260	409	-23.2	-26.8	231	18	3.1
2025-07-23T12:00	7280	408	-23.4	-26.7	231	18	3.0
2025-07-23T12:00	7300	407	-23.6	-27.0	231	18	3.0
2025-07-23T12:00	7320	405	-23.6	-27.2	231	18	3.0
2025-07-23T12:00	7340	404	-23.9	-27.2	231	18	3.0
2025-07-23T12:00	7360	403	-24.1	-27.2	231	19	3.0
2025-07-23T12:00	7380	402	-24.2	-27.4	231	19	3.0
2025-07-23T12:00	7400	401	-24.4	-27.7	232	19	3.0
2025-07-23T12:00	7420	400	-24.6	-27.7	232	19	2.9
2025-07-23T12:00	7440	399	-24.7	-28.0	232	19	2.9
2025-07-23T12:00	7460	398	-24.9	-27.9	233	19	2.9
2025-07-23T12:00	7480	397	-25.1	-28.0	234	19	2.9
2025-07-23T12:00	7500	396	-25.3	-28.0	235	20	2.9
2025-07-23T12:00	7520	395	-25.4	-28.4	235	20	2.9
2025-07-23T12:00	7540	393	-25.6	-28.3	235	20	2.9
2025-07-23T12:00	7560	392	-25.9	-28.3	235	20	2.9
2025-07-23T12:00	7580	391	-26.0	-28.5	234	19	2.9
2025-07-23T12:00	7600	390	-26.2	-29.0	233	19	2.8
2025-07-23T12:00	7620	389	-26.2	-29.3	231	18	2.8
2025-07-23T12:00	7640	388	-26.4	-29.9	230	18	2.8
2025-07-23T12:00	7660	387	-26.5	-30.1	229	18	2.8
2025-07-23T12:00	7680	386	-26.7	-30.3	229	18	2.8
2025-07-23T12:00	7700	385	-26.9	-30.5	228	18	2.8
2025-07-23T12:00	7720	384	-27.1	-31.3	228	18	2.8
2025-07-23T12:00	7740	383	-27.2	-33.0	228	18	2.8
2025-07-23T12:00	7760	382	-27.3	-33.5	228	18	2.8
2025-07-23T12:00	7780	381	-27.4	-35.2	228	18	2.9
2025-07-23T12:00	7800	380	-27.5	-35.1	228	18	2.9
2025-07-23T12:00	7820	378	-27.7	-34.4	228	18	2.9
2025-07-23T12:00	7840	377	-27.9	-36.8	229	18	2.9
2025-07-23T12:00	7860	376	-28.0	-37.7	230	18	3.0
2025-07-23T12:00	7880	375	-28.2	-37.7	230	18	3.0
2025-07-23T12:00	7900	374	-28.4	-37.8	230	18	3.0
2025-07-23T12:00	7920	373	-28.6	-37.8	229	19	3.0
2025-07-23T12:00	7940	372	-28.6	-38.0	229	19	3.0
2025-07-23T12:00	7960	371	-28.9	-38.1	228	19	3.0
2025-07-23T12:00	7980	370	-29.0	-38.1	227	19	3.0
2025-07-23T12:00	8000	369	-29.2	-38.0	227	19	3.0
2025-07-23T12:00	8020	368	-29.5	-37.5	228	19	3.0
2025-07-23T12:00	8040	367	-29.7	-36.7	228	19	3.0
2025-07-23T12:00	8060	366	-29.8	-37.4	228	19	3.0
2025-07-23T12:00	8080	365	-29.9	-38.5	227	19	3.0
2025-07-23T12:00	8100	364	-30.0	-39.3	226	19	3.0
2025-07-23T12:00	8120	363	-30.2	-38.5	226	19	3.0
2025-07-23T12:00	8140	362	-30.3	-38.3	225	19	3.0
2025-07-23T12:00	8160	361	-30.5	-37.6	226	19	3.0
2025-07-23T12:00	8180	360	-30.7	-37.8	227	18	3.1
2025-07-23T12:00	8200	359	-30.9	-37.7	229	18	3.1
2025-07-23T12:00	8220	358	-31.1	-38.0	230	18	3.0
2025-07-23T12:00	8240	357	-31.4	-38.2	232	17	3.0
2025-07-23T12:00	8260	356	-31.5	-38.0	233	17	3.0
2025-07-23T12:00	8280	355	-31.6	-38.0	231	16	3.0
2025-07-23T12:00	8300	354	-31.9	-37.8	229	16	3.0
2025-07-23T12:00	8320	353	-32.0	-38.0	226	16	3.0
2025-07-23T12:00	8340	352	-32.1	-38.1	224	16	3.0
2025-07-23T12:00	8360	351	-32.4	-38.1	224	17	3.0
2025-07-23T12:00	8380	350	-32.6	-37.8	224	17	3.0
2025-07-23T12:00	8400	349	-32.8	-38.0	225	18	3.0
2025-07-23T12:00	8420	348	-33.0	-38.1	226	18	3.0
2025-07-23T12:00	8440	347	-33.1	-37.8	227	19	3.0
2025-07-23T12:00	8460	346	-33.1	-37.4	228	19	3.0
2025-07-23T12:00	8480	345	-33.2	-37.5	229	20	2.9
2025-07-23T12:00	8500	344	-33.3	-37.1	230	20	2.9
2025-07-23T12:00	8520	343	-33.4	-37.0	230	20	3.0
2025-07-23T12:00	8540	342	-33.6	-37.4	230	20	2.9
2025-07-23T12:00	8560	341	-33.7	-37.6	229	20	3.0
2025-07-23T12:00	8580	340	-33.8	-37.7	229	20	3.0
2025-07-23T12:00	8600	339	-33.8	-37.8	229	20	3.0
2025-07-23T12:00	8620	338	-34.0	-37.9	229	20	3.0
2025-07-23T12:00	8640	337	-34.2	-38.0	229	20	3.0
2025-07-23T12:00	8660	336	-34.3	-38.2	229	20	3.0
2025-07-23T12:00	8680	335	-34.6	-38.3	229	20	3.0
2025-07-23T12:00	8700	334	-34.8	-38.5	228	19	3.0
2025-07-23T12:00	8720	333	-34.9	-38.7	228	20	3.0
2025-07-23T12:00	8740	332	-35.1	-38.8	228	19	3.0
2025-07-23T12:00	8760	331	-35.3	-38.9	228	19	3.0
2025-07-23T12:00	8780	330	-35.4	-39.1	228	19	2.9
2025-07-23T12:00	8800	329	-35.5	-39.1	229	19	2.9
2025-07-23T12:00	8820	329	-35.7	-39.2	230	19	2.9
2025-07-23T12:00	8840	328	-35.8	-39.3	230	19	2.9
2025-07-23T12:00	8860	327	-35.9	-39.5	231	19	2.9
2025-07-23T12:00	8880	326	-36.0	-39.8	232	19	2.9
2025-07-23T12:00	8900	325	-36.2	-39.7	232	19	2.9
2025-07-23T12:00	8920	324	-36.4	-39.8	232	19	2.9
2025-07-23T12:00	8940	323	-36.6	-40.1	232	19	2.9
2025-07-23T12:00	8960	322	-36.8	-40.2	231	20	2.9
2025-07-23T12:00	8980	321	-36.9	-40.6	231	20	2.9
2025-07-23T12:00	9000	320	-37.0	-40.9	231	20	2.9
2025-07-23T12:00	9020	319	-37.1	-40.9	230	21	2.8
2025-07-23T12:00	9040	318	-37.3	-41.2	230	21	2.8
2025-07-23T12:00	9060	317	-37.5	-41.2	229	21	2.8
2025-07-23T12:00	9080	316	-37.6	-41.5	229	21	2.8
2025-07-23T12:00	9100	315	-37.7	-41.8	229	21	2.8
2025-07-23T12:00	9120	315	-37.9	-41.5	228	21	2.8
2025-07-23T12:00	9140	314	-38.1	-41.6	228	21	2.8
2025-07-23T12:00	9160	313	-38.2	-41.9	228	21	2.8
2025-07-23T12:00	9180	312	-38.5	-42.3	228	21	2.8
2025-07-23T12:00	9200	311	-38.7	-42.3	228	21	2.8
2025-07-23T12:00	9220	310	-38.9	-42.6	228	21	2.7
2025-07-23T12:00	9240	309	-39.0	-42.8	227	21	2.7
2025-07-23T12:00	9260	308	-39.2	-42.9	227	22	2.7
2025-07-23T12:00	9280	307	-39.4	-43.1	227	22	2.7
2025-07-23T12:00	9300	306	-39.6	-43.1	228	22	2.7
2025-07-23T12:00	9320	306	-39.8	-43.3	228	22	2.7
2025-07-23T12:00	9340	305	-39.9	-43.7	229	22	2.7
2025-07-23T12:00	9360	304	-40.1	-43.8	229	22	2.7
2025-07-23T12:00	9380	303	-40.3	-43.9	230	22	2.7
2025-07-23T12:00	9400	302	-40.5	-43.9	231	23	2.7
2025-07-23T12:00	9420	301	-40.6	-44.3	232	23	2.7
2025-07-23T12:00	9440	300	-40.8	-44.5	232	23	2.7
2025-07-23T12:00	9460	299	-40.9	-44.8	232	24	2.7
2025-07-23T12:00	9480	298	-41.1	-45.1	232	24	2.7
2025-07-23T12:00	9500	298	-41.2	-44.9	232	24	2.7
2025-07-23T12:00	9520	297	-41.2	-45.0	232	24	2.6
2025-07-23T12:00	9540	296	-41.4	-44.8	231	24	2.7
2025-07-23T12:00	9560	295	-41.7	-44.7	230	24	2.7
2025-07-23T12:00	9580	294	-41.8	-45.2	230	24	2.7
2025-07-23T12:00	9600	293	-41.9	-45.5	229	24	2.6
2025-07-23T12:00	9620	292	-42.0	-45.5	229	24	2.6
2025-07-23T12:00	9640	291	-42.2	-45.4	229	25	2.6
2025-07-23T12:00	9660	291	-42.4	-45.7	229	25	2.5
2025-07-23T12:00	9680	290	-42.5	-45.9	228	25	2.5
2025-07-23T12:00	9700	289	-42.6	-46.0	228	25	2.5
2025-07-23T12:00	9720	288	-42.7	-46.1	228	25	2.5
2025-07-23T12:00	9740	287	-43.0	-46.4	228	25	2.4
2025-07-23T12:00	9760	286	-43.2	-46.5	228	25	2.4
2025-07-23T12:00	9780	285	-43.4	-46.5	228	25	2.4
2025-07-23T12:00	9800	285	-43.5	-46.7	228	25	2.4
2025-07-23T12:00	9820	284	-43.7	-46.9	229	25	2.4
2025-07-23T12:00	9840	283	-43.9	-46.9	229	25	2.4
2025-07-23T12:00	9860	282	-44.1	-47.1	229	25	2.4
2025-07-23T12:00	9880	281	-44.2	-47.4	229	25	2.4
2025-07-23T12:00	9900	280	-44.5	-47.6	229	25	2.4
2025-07-23T12:00	9920	280	-44.6	-48.0	229	25	2.4
2025-07-23T12:00	9940	279	-44.8	-48.3	229	25	2.4
2025-07-23T12:00	9960	278	-45.0	-48.4	229	25	2.3
2025-07-23T12:00	9980	277	-45.1	-48.8	228	25	2.3
2025-07-23T12:00	10000	276	-45.3	-49.1	228	25	2.3
2025-07-23T12:00	10018	276	-45.4	-49.1	228	25	2.3
2025-07-23T12:00	10050	274	-45.7	-49.2	227	25	2.3
2025-07-23T12:00	10100	272	-46.2	-49.5	227	25	2.3
2025-07-23T12:00	10150	270	-46.7	-49.8	228	26	2.2
2025-07-23T12:00	10200	268	-47.1	-50.3	230	26	2.2
2025-07-23T12:00	10250	266	-47.5	-51.1	232	26	2.2
2025-07-23T12:00	10300	264	-48.0	-51.1	231	27	2.2
2025-07-23T12:00	10350	262	-48.3	-51.9	229	27	2.2
2025-07-23T12:00	10400	260	-48.8	-52.0	228	28	2.2
2025-07-23T12:00	10450	258	-49.1	-52.4	228	28	2.2
2025-07-23T12:00	10500	256	-49.5	-52.8	229	29	2.2
2025-07-23T12:00	10550	254	-49.9	-53.6	230	29	2.2
2025-07-23T12:00	10600	252	-50.4	-54.2	231	29	2.2
2025-07-23T12:00	10650	250	-50.8	-55.0	232	29	2.1
2025-07-23T12:00	10700	248	-51.2	-55.4	233	29	2.1
2025-07-23T12:00	10750	246	-51.7	-55.7	234	29	2.1
2025-07-23T12:00	10800	245	-52.2	-56.5	235	30	2.1
2025-07-23T12:00	10850	243	-52.6	-56.9	235	30	2.1
2025-07-23T12:00	10900	241	-53.1	-57.3	235	31	2.0
2025-07-23T12:00	10950	239	-53.5	-57.9	235	31	2.0
2025-07-23T12:00	11000	237	-53.9	-58.5	235	31	2.0
2025-07-23T12:00	11050	235	-54.4	-59.1	234	31	2.0
2025-07-23T12:00	11100	233	-54.8	-59.2	233	31	2.0
2025-07-23T12:00	11150	232	-55.1	-59.2	233	31	2.0
2025-07-23T12:00	11200	230	-55.4	-59.4	234	31	2.0
2025-07-23T12:00	11250	228	-55.8	-59.8	235	31	2.1
2025-07-23T12:00	11300	226	-56.2	-60.5	236	30	2.1
2025-07-23T12:00	11350	224	-56.8	-61.0	237	30	2.2
2025-07-23T12:00	11400	223	-57.2	-61.2	240	31	2.2
2025-07-23T12:00	11450	221	-57.4	-61.3	244	32	2.2
2025-07-23T12:00	11500	219	-56.5	-64.6	246	31	2.6
2025-07-23T12:00	11550	218	-55.3	-71.2	247	29	3.4
2025-07-23T12:00	11600	216	-54.7	-73.6	246	27	4.4
2025-07-23T12:00	11650	214	-54.5	-71.9	244	24	5.5
2025-07-23T12:00	11700	212	-54.0	-72.3	242	23	6.1
2025-07-23T12:00	11750	211	-53.6	-73.8	238	22	6.6
2025-07-23T12:00	11800	209	-53.5	-74.3	232	21	7.2
2025-07-23T12:00	11850	207	-53.3	-74.3	227	21	7.7
2025-07-23T12:00	11900	206	-53.0	-74.9	223	21	8.0
2025-07-23T12:00	11950	204	-53.2	-74.9	222	22	8.2
2025-07-23T12:00	12000	203	-53.2	-75.1	223	23	8.4
2025-07-23T12:00	12050	201	-53.0	-75.8	225	25	8.5
2025-07-23T12:00	12100	200	-52.5	-76.3	228	26	8.5
2025-07-23T12:00	12150	198	-52.7	-76.4	231	26	8.6
2025-07-23T12:00	12200	197	-52.6	-76.9	235	26	8.6
2025-07-23T12:00	12250	195	-52.6	-77.3	238	25	8.7
2025-07-23T12:00	12300	194	-52.8	-77.6	240	25	8.7
2025-07-23T12:00	12350	192	-52.8	-78.2	242	24	8.8
2025-07-23T12:00	12400	191	-52.3	-78.8	242	23	8.8
2025-07-23T12:00	12450	189	-51.8	-79.4	241	21	8.9
2025-07-23T12:00	12500	188	-51.4	-79.4	238	20	8.8
2025-07-23T12:00	12550	186	-51.5	-79.4	233	20	8.9
2025-07-23T12:00	12600	185	-51.3	-79.6	229	20	8.8
2025-07-23T12:00	12650	183	-50.9	-79.8	229	22	8.8
2025-07-23T12:00	12700	182	-50.7	-80.0	230	23	8.7
2025-07-23T12:00	12750	181	-50.3	-80.1	232	24	8.7
2025-07-23T12:00	12800	179	-49.8	-80.0	235	24	8.6
2025-07-23T12:00	12850	178	-49.2	-80.1	238	25	8.5
2025-07-23T12:00	12900	176	-49.1	-80.1	240	25	8.5
2025-07-23T12:00	12950	175	-49.0	-80.0	242	24	8.4
2025-07-23T12:00	13000	174	-48.8	-80.1	244	23	8.3
2025-07-23T12:00	13050	172	-48.9	-80.1	242	21	8.2
2025-07-23T12:00	13100	171	-48.8	-80.2	239	20	8.2
2025-07-23T12:00	13150	170	-48.9	-80.2	236	18	8.1
2025-07-23T12:00	13200	169	-48.6	-80.2	231	17	8.0
2025-07-23T12:00	13250	167	-48.5	-80.3	227	17	7.9
2025-07-23T12:00	13300	166	-48.3	-80.1	225	18	7.7
2025-07-23T12:00	13350	165	-48.5	-80.1	225	19	7.3
2025-07-23T12:00	13400	164	-48.7	-80.1	225	20	6.9
2025-07-23T12:00	13450	162	-48.8	-80.3	224	20	6.6
2025-07-23T12:00	13500	161	-48.2	-80.4	222	19	6.4
2025-07-23T12:00	13550	160	-47.8	-80.2	222	19	6.3
2025-07-23T12:00	13600	159	-47.6	-80.3	225	19	6.3
2025-07-23T12:00	13650	157	-47.5	-80.1	228	18	6.4
2025-07-23T12:00	13700	156	-47.8	-80.1	233	18	6.4
2025-07-23T12:00	13750	155	-48.1	-80.3	239	17	6.3
2025-07-23T12:00	13800	154	-48.2	-80.4	244	17	6.2
2025-07-23T12:00	13850	153	-48.2	-80.3	248	17	6.1
2025-07-23T12:00	13900	152	-48.2	-80.4	248	16	6.0
2025-07-23T12:00	13950	150	-48.0	-80.4	247	15	5.9
2025-07-23T12:00	14000	149	-48.1	-80.4	244	15	6.0
2025-07-23T12:00	14050	148	-48.5	-80.4	242	15	6.0
2025-07-23T12:00	14100	147	-49.1	-80.5	241	15	5.9
2025-07-23T12:00	14150	146	-49.5	-80.5	241	16	6.0
2025-07-23T12:00	14200	145	-49.8	-81.0	243	15	5.9
2025-07-23T12:00	14250	144	-49.9	-81.0	245	15	5.9
2025-07-23T12:00	14300	143	-50.0	-80.7	245	13	5.9
2025-07-23T12:00	14350	142	-50.1	-81.0	244	12	5.9
2025-07-23T12:00	14400	140	-50.0	-81.2	244	11	5.9
2025-07-23T12:00	14450	139	-50.1	-81.0	240	9	5.9
2025-07-23T12:00	14500	138	-50.0	-80.9	233	9	5.9
2025-07-23T12:00	14550	137	-50.3	-81.1	224	10	5.8
2025-07-23T12:00	14600	136	-50.6	-81.0	220	11	5.9
2025-07-23T12:00	14650	135	-50.9	-81.2	218	12	6.2
2025-07-23T12:00	14700	134	-51.2	-81.5	215	13	6.3
2025-07-23T12:00	14750	133	-51.5	-81.7	211	14	6.4
2025-07-23T12:00	14800	132	-51.8	-82.0	209	15	6.5
2025-07-23T12:00	14850	131	-52.2	-82.0	208	17	6.7
2025-07-23T12:00	14900	130	-52.6	-82.1	209	18	6.8
2025-07-23T12:00	14950	129	-52.8	-82.3	211	20	6.9
2025-07-23T12:00	15000	128	-52.6	-82.8	215	20	7.1
2025-07-23T12:00	15050	127	-52.3	-82.5	219	19	7.2
2025-07-23T12:00	15100	126	-52.3	-82.4	222	19	7.2
2025-07-23T12:00	15150	125	-52.5	-82.5	225	19	7.3
2025-07-23T12:00	15200	124	-52.8	-82.5	229	19	7.2
2025-07-23T12:00	15250	123	-53.0	-82.6	234	19	7.2
2025-07-23T12:00	15300	122	-53.1	-82.8	239	19	7.2
2025-07-23T12:00	15350	121	-52.6	-82.8	242	18	7.2
2025-07-23T12:00	15400	120	-52.3	-82.8	243	16	7.2
2025-07-23T12:00	15450	119	-52.1	-82.7	243	15	7.2
2025-07-23T12:00	15500	119	-51.9	-82.6	241	13	7.1
2025-07-23T12:00	15550	118	-52.0	-82.6	239	12	7.2
2025-07-23T12:00	15600	117	-51.9	-82.7	235	11	7.3
2025-07-23T12:00	15650	116	-51.8	-82.7	230	11	7.5
2025-07-23T12:00	15700	115	-52.0	-82.7	224	11	7.6
2025-07-23T12:00	15750	114	-52.1	-82.7	222	12	7.7
2025-07-23T12:00	15800	113	-52.2	-82.8	224	13	7.8
2025-07-23T12:00	15850	112	-52.5	-82.9	227	13	7.8
2025-07-23T12:00	15900	111	-52.5	-82.9	230	14	7.8
2025-07-23T12:00	15950	111	-52.8	-82.9	233	14	7.8
2025-07-23T12:00	16000	110	-52.9	-83.1	235	14	7.8
2025-07-23T12:00	16050	109	-52.9	-83.1	236	13	7.8
2025-07-23T12:00	16100	108	-52.9	-83.1	238	12	7.9
2025-07-23T12:00	16150	107	-53.1	-83.2	239	12	7.8
2025-07-23T12:00	16200	106	-53.0	-83.1	237	11	7.8
2025-07-23T12:00	16250	106	-52.8	-83.2	232	10	7.7
2025-07-23T12:00	16300	105	-52.7	-83.1	226	9	7.4
2025-07-23T12:00	16350	104	-52.7	-83.1	216	9	7.2
2025-07-23T12:00	16400	103	-52.9	-83.1	208	9	7.1
2025-07-23T12:00	16450	102	-53.1	-83.2	203	9	7.1
2025-07-23T12:00	16500	101	-53.2	-83.2	200	9	7.4
2025-07-23T12:00	16550	101	-53.5	-83.3	197	10	7.7
2025-07-23T12:00	16600	100	-53.6	-83.4	195	11	7.8
2025-07-23T12:00	16650	99	-53.4	-83.6	197	11	7.9
2025-07-23T12:00	16700	98	-53.1	-83.5	200	12	8.0
2025-07-23T12:00	16750	98	-53.0	-83.4	203	12	7.8
2025-07-23T12:00	16800	97	-53.2	-83.5	205	13	7.6
2025-07-23T12:00	16850	96	-53.1	-83.5	208	13	7.4
2025-07-23T12:00	16900	95	-53.2	-83.5	210	13	7.2
2025-07-23T12:00	16950	95	-53.5	-83.6	210	13	7.2
2025-07-23T12:00	17000	94	-53.4	-83.6	210	13	7.2
2025-07-23T12:00	17050	93	-53.6	-83.7	210	14	7.4
2025-07-23T12:00	17100	92	-53.9	-83.7	211	14	7.5
2025-07-23T12:00	17150	92	-54.1	-83.9	211	14	7.5
2025-07-23T12:00	17200	91	-53.9	-83.9	209	14	7.6
2025-07-23T12:00	17250	90	-53.8	-84.0	208	14	7.8
2025-07-23T12:00	17300	90	-53.5	-84.0	210	13	8.2
2025-07-23T12:00	17350	89	-53.2	-84.0	214	12	8.4
2025-07-23T12:00	17400	88	-52.9	-83.8	220	12	8.7
2025-07-23T12:00	17450	88	-53.1	-83.8	225	11	8.9
2025-07-23T12:00	17500	87	-52.8	-83.8	231	10	8.9
2025-07-23T12:00	17550	86	-52.2	-83.6	236	9	8.8
2025-07-23T12:00	17600	86	-52.3	-83.6	240	7	8.7
2025-07-23T12:00	17650	85	-52.6	-83.7	240	6	8.7
2025-07-23T12:00	17700	84	-52.5	-83.6	233	4	8.7
2025-07-23T12:00	17750	84	-52.5	-83.7	209	4	8.6
2025-07-23T12:00	17800	83	-52.3	-83.5	191	4	8.7
2025-07-23T12:00	17850	82	-52.6	-83.6	188	5	8.7
2025-07-23T12:00	17900	82	-53.0	-83.6	189	6	8.6
2025-07-23T12:00	17950	81	-53.4	-83.7	191	6	8.5
2025-07-23T12:00	18000	80	-53.8	-83.8	194	7	8.4
2025-07-23T12:00	18050	80	-54.2	-83.9	197	7	8.3
2025-07-23T12:00	18100	79	-54.5	-84.1	199	7	8.1
2025-07-23T12:00	18150	79	-55.0	-84.3	200	7	8.0
2025-07-23T12:00	18200	78	-55.2	-84.4	200	8	8.0
2025-07-23T12:00	18250	77	-55.6	-84.5	201	9	7.9
2025-07-23T12:00	18300	77	-56.0	-84.7	205	9	7.9
2025-07-23T12:00	18350	76	-56.1	-84.8	215	8	7.8
2025-07-23T12:00	18400	76	-56.1	-85.0	231	7	7.7
2025-07-23T12:00	18450	75	-56.0	-85.1	253	6	7.6
2025-07-23T12:00	18500	74	-55.7	-85.3	276	6	7.6
2025-07-23T12:00	18550	74	-54.8	-85.0	289	6	7.7
2025-07-23T12:00	18600	73	-54.6	-85.1	297	5	7.7
2025-07-23T12:00	18650	73	-54.1	-84.8	300	4	7.8
2025-07-23T12:00	18700	72	-53.9	-84.6	291	3	7.9
2025-07-23T12:00	18750	72	-54.0	-84.7	284	4	8.0
2025-07-23T12:00	18800	71	-53.4	-84.5	288	5	8.1
2025-07-23T12:00	18850	70	-52.8	-84.3	297	5	8.1
2025-07-23T12:00	18900	70	-52.8	-84.3	310	5	8.3
2025-07-23T12:00	18950	69	-52.6	-84.1	325	5	8.3
2025-07-23T12:00	19000	69	-52.6	-84.0	338	4	8.4
2025-07-23T12:00	19050	68	-52.6	-84.0	343	2	8.5
2025-07-23T12:00	19100	68	-52.8	-84.0	329	2	8.6
2025-07-23T12:00	19150	67	-53.1	-84.1	312	2	8.7
2025-07-23T12:00	19200	67	-53.1	-84.1	309	2	8.8
2025-07-23T12:00	19250	66	-53.0	-84.1	316	2	8.8
2025-07-23T12:00	19300	66	-53.2	-84.1	327	2	8.8
2025-07-23T12:00	19350	65	-53.6	-84.2	335	2	8.9
2025-07-23T12:00	19400	65	-53.8	-84.3	343	2	8.9
2025-07-23T12:00	19450	64	-53.8	-84.4	7	2	8.9
2025-07-23T12:00	19500	64	-53.9	-84.6	51	2	9.0
2025-07-23T12:00	19550	63	-53.6	-84.6	82	3	9.1
2025-07-23T12:00	19600	63	-53.2	-84.4	103	3	9.2
2025-07-23T12:00	19650	62	-53.4	-84.5	124	3	9.3
2025-07-23T12:00	19700	62	-53.4	-84.4	141	4	9.4
2025-07-23T12:00	19750	61	-53.5	-84.3	152	5	9.4
2025-07-23T12:00	19800	61	-53.7	-84.4	162	6	9.5
2025-07-23T12:00	19850	60	-53.7	-84.5	171	6	9.6
2025-07-23T12:00	19900	60	-53.5	-84.5	178	5	9.6
2025-07-23T12:00	19950	59	-53.3	-84.6	170	4	9.8
2025-07-23T12:00	20000	59	-53.3	-84.6	152	3	10.2
2025-07-23T12:00	20050	58	-52.8		145	3	10.4
2025-07-23T12:00	20100	58	-52.5		150	3	10.7
2025-07-23T12:00	20150	58	-52.6		152	3	10.9
2025-07-23T12:00	20200	57	-52.6		148	4	11.0
2025-07-23T12:00	20250	57	-52.7		145	5	11.2
2025-07-23T12:00	20300	56	-53.1		144	5	11.3
2025-07-23T12:00	20350	56	-53.4		142	5	11.5
2025-07-23T12:00	20400	55	-53.4		137	4	11.5
2025-07-23T12:00	20450	55	-53.2		125	4	11.6
2025-07-23T12:00	20500	55	-52.8		110	5	11.7
2025-07-23T12:00	20550	54	-52.7		101	6	11.8
2025-07-23T12:00	20600	54	-52.8		101	6	11.8
2025-07-23T12:00	20650	53	-52.7		107	6	11.9
2025-07-23T12:00	20700	53	-52.9		115	5	12.0
2025-07-23T12:00	20750	52	-53.1		124	5	12.1
2025-07-23T12:00	20800	52	-53.2		132	5	12.1
2025-07-23T12:00	20850	52	-53.3		139	4	12.1
2025-07-23T12:00	20900	51	-53.2		144	4	12.1
2025-07-23T12:00	20950	51	-53.2		144	3	12.1
2025-07-23T12:00	21000	50	-53.2		137	3	12.1
2025-07-23T12:00	21050	50	-53.1		122	3	12.0
2025-07-23T12:00	21100	50	-53.0		102	3	11.9
2025-07-23T12:00	21150	49	-53.0		91	4	11.9
2025-07-23T12:00	21200	49	-52.7		94	6	11.8
2025-07-23T12:00	21250	49	-52.5		101	7	11.7
2025-07-23T12:00	21300	48	-52.5		107	8	11.6
2025-07-23T12:00	21350	48	-52.6		114	8	11.6
2025-07-23T12:00	21400	47	-52.5		121	8	11.5
2025-07-23T12:00	21450	47	-52.4		129	8	11.4
2025-07-23T12:00	21500	47	-52.5		134	8	11.4
2025-07-23T12:00	21550	46	-52.7		131	8	11.4
2025-07-23T12:00	21600	46	-52.5		123	8	11.3
2025-07-23T12:00	21650	46	-52.6		115	8	11.3
2025-07-23T12:00	21700	45	-52.7		111	8	11.4
2025-07-23T12:00	21750	45	-52.8		113	9	11.5
2025-07-23T12:00	21800	45	-53.0		117	10	11.5
2025-07-23T12:00	21850	44	-53.0		124	9	11.4
2025-07-23T12:00	21900	44	-52.9		129	8	11.4
2025-07-23T12:00	21950	44	-52.9		132	7	11.4
2025-07-23T12:00	22000	43	-52.7		132	6	11.5
2025-07-23T12:00	22050	43	-52.7		130	5	11.6
2025-07-23T12:00	22100	43	-52.6		124	4	11.7
2025-07-23T12:00	22150	42	-52.1		108	3	11.9
2025-07-23T12:00	22200	42	-51.5		91	3	12.0
2025-07-23T12:00	22250	42	-51.6		78	4	12.0
2025-07-23T12:00	22300	41	-51.7		71	5	12.0
2025-07-23T12:00	22350	41	-51.8		70	7	11.9
2025-07-23T12:00	22400	41	-52.1		76	8	11.9
2025-07-23T12:00	22450	40	-52.1		85	9	11.9
2025-07-23T12:00	22500	40	-52.2		92	10	11.9
2025-07-23T12:00	22550	40	-52.0		97	10	11.9
2025-07-23T12:00	22600	39	-52.0		103	9	11.8
2025-07-23T12:00	22650	39	-52.2		107	9	11.9
2025-07-23T12:00	22700	39	-52.3		107	10	11.9
2025-07-23T12:00	22750	38	-52.4		106	11	12.0
2025-07-23T12:00	22800	38	-52.4		107	11	11.9
2025-07-23T12:00	22850	38	-52.5		111	10	11.9
2025-07-23T12:00	22900	38	-52.3		114	8	11.8
2025-07-23T12:00	22950	37	-52.1		114	7	11.8
2025-07-23T12:00	23000	37	-52.0		109	5	11.7
2025-07-23T12:00	23050	37	-52.0		96	4	11.7
2025-07-23T12:00	23100	36	-51.7		72	4	11.6
2025-07-23T12:00	23150	36	-51.5		53	4	11.6
2025-07-23T12:00	23200	36	-51.3		47	6	11.6
2025-07-23T12:00	23250	36	-51.3		50	7	11.7
2025-07-23T12:00	23300	35	-50.8		57	9	11.8
2025-07-23T12:00	23350	35	-50.1		65	11	12.0
2025-07-23T12:00	23400	35	-49.8		73	12	12.0
2025-07-23T12:00	23450	35	-49.7		80	13	12.1
2025-07-23T12:00	23500	34	-49.7		86	13	12.1
2025-07-23T12:00	23550	34	-50.0		93	14	12.1
2025-07-23T12:00	23600	34	-50.1		99	15	12.2
2025-07-23T12:00	23650	33	-50.0		104	15	12.2
2025-07-23T12:00	23700	33	-50.3		108	15	12.3
2025-07-23T12:00	23750	33	-50.4		111	14	12.3
2025-07-23T12:00	23800	33	-50.4		114	12	12.4
2025-07-23T12:00	23850	32	-50.2		117	11	12.5
2025-07-23T12:00	23900	32	-49.9		121	10	12.6
2025-07-23T12:00	23950	32	-49.8		126	9	12.7
2025-07-23T12:00	24000	32	-49.8		129	8	12.8
2025-07-23T12:00	24050	32	-49.8		131	7	12.8
2025-07-23T12:00	24100	31	-49.9		131	6	12.8
2025-07-23T12:00	24150	31	-50.1		126	5	12.8
2025-07-23T12:00	24200	31	-50.4		114	5	12.7
2025-07-23T12:00	24250	31	-50.4		100	6	12.7
2025-07-23T12:00	24300	30	-50.4		93	7	12.7
2025-07-23T12:00	24350	30	-50.4		91	8	12.7
2025-07-23T12:00	24400	30	-50.3		91	9	12.7
2025-07-23T12:00	24450	30	-50.3		91	8	12.7
2025-07-23T12:00	24500	29	-50.3		87	8	12.7
2025-07-23T12:00	24550	29	-50.1		81	8	12.6
2025-07-23T12:00	24600	29	-50.0		79	9	12.6
2025-07-23T12:00	24650	29	-49.9		81	9	12.5
2025-07-23T12:00	24700	29	-49.9		83	10	12.5
2025-07-23T12:00	24750	28	-49.9		85	11	12.4
2025-07-23T12:00	24800	28	-50.1		89	12	12.4
2025-07-23T12:00	24850	28	-50.1		96	12	12.3
2025-07-23T12:00	24900	28	-49.9		101	13	12.3
2025-07-23T12:00	24950	27	-49.7		104	14	12.2
2025-07-23T12:00	25000	27	-49.6		106	13	12.2
2025-07-23T12:00	25050	27	-49.5		107	12	12.1
2025-07-23T12:00	25100	27	-49.4		105	10	12.1
2025-07-23T12:00	25150	27	-49.2		101	9	12.1
2025-07-23T12:00	25200	26	-49.3		98	9	12.0
2025-07-23T12:00	25250	26	-49.3		99	10	12.0
2025-07-23T12:00	25300	26	-49.3		103	12	11.9
2025-07-23T12:00	25350	26	-49.3		107	13	11.9
2025-07-23T12:00	25400	26	-49.4		112	14	11.9
2025-07-23T12:00	25450	25	-49.2		117	14	11.9
2025-07-23T12:00	25500	25	-49.1		121	13	11.9
2025-07-23T12:00	25550	25	-49.1		122	13	12.0
2025-07-23T12:00	25600	25	-49.0		121	11	12.0
2025-07-23T12:00	25650	25	-48.8		122	10	12.0
2025-07-23T12:00	25700	24	-48.5		124	9	12.0
2025-07-23T12:00	25750	24	-48.3		126	9	11.9
2025-07-23T12:00	25800	24	-48.1		124	8	11.9
2025-07-23T12:00	25850	24	-47.9		119	7	11.9
2025-07-23T12:00	25900	24	-47.7		112	7	11.9
2025-07-23T12:00	25950	24	-47.5		108	8	11.9
2025-07-23T12:00	26000	23	-47.5		108	8	11.9
2025-07-23T12:00	26050	23	-47.3		108	8	11.9
2025-07-23T12:00	26100	23	-47.2		103	7	11.9
2025-07-23T12:00	26150	23	-47.2		93	6	11.9
2025-07-23T12:00	26200	23	-47.3		82	5	11.9
2025-07-23T12:00	26250	23	-47.5		75	5	11.9
2025-07-23T12:00	26300	22	-47.6		67	5	11.8
2025-07-23T12:00	26350	22	-47.6		60	6	11.8
2025-07-23T12:00	26400	22	-47.5		53	7	11.8
2025-07-23T12:00	26450	22	-47.2		49	9	11.7
2025-07-23T12:00	26500	22	-46.9		49	10	11.7
2025-07-23T12:00	26550	22	-46.9		54	12	11.8
2025-07-23T12:00	26600	21	-46.9		60	12	11.8
2025-07-23T12:00	26650	21	-46.8		67	13	11.8
2025-07-23T12:00	26700	21	-46.7		73	13	11.7
2025-07-23T12:00	26750	21	-46.7		78	13	11.8
2025-07-23T12:00	26800	21	-46.9		82	13	11.7
2025-07-23T12:00	26850	21	-46.9		83	12	11.7
2025-07-23T12:00	26900	20	-46.7		79	11	11.7
2025-07-23T12:00	26950	20	-46.7		72	10	11.6
2025-07-23T12:00	27000	20	-46.7		65	10	11.7
2025-07-23T12:00	27050	20	-46.7		61	10	11.7
2025-07-23T12:00	27100	20	-46.7		58	10	11.5
2025-07-23T12:00	27150	20	-46.6		59	11	11.4
2025-07-23T12:00	27200	20	-46.6		61	11	11.4
2025-07-23T12:00	27250	19	-46.6		63	13	11.3
2025-07-23T12:00	27300	19	-46.6		65	13	11.2
2025-07-23T12:00	27350	19	-46.6		66	14	11.2
2025-07-23T12:00	27400	19	-46.6		69	14	11.2
2025-07-23T12:00	27450	19	-46.5		73	14	11.1
2025-07-23T12:00	27500	19	-46.3		79	13	11.0
2025-07-23T12:00	27550	19	-46.2		82	13	11.0
2025-07-23T12:00	27600	18	-46.0		81	13	10.8
2025-07-23T12:00	27650	18	-45.7		77	13	10.8
2025-07-23T12:00	27700	18	-45.4		73	13	10.6
2025-07-23T12:00	27750	18	-45.5		70	14	10.6
2025-07-23T12:00	27800	18	-45.6		68	15	10.6
2025-07-23T12:00	27850	18	-45.6		67	16	10.4
2025-07-23T12:00	27900	18	-45.6		71	16	10.3
2025-07-23T12:00	27950	17	-45.6		75	16	10.2
2025-07-23T12:00	28000	17	-45.6		79	16	10.1
2025-07-23T12:00	28050	17	-45.6		79	16	10.1
2025-07-23T12:00	28100	17	-45.4		77	16	10.0
2025-07-23T12:00	28150	17	-45.3		75	16	9.9
2025-07-23T12:00	28200	17	-45.2		75	16	9.9
2025-07-23T12:00	28250	17	-45.2		77	16	9.9
2025-07-23T12:00	28300	17	-45.3		81	16	9.8
2025-07-23T12:00	28350	16	-45.6		86	15	9.7
2025-07-23T12:00	28400	16	-45.7		91	15	9.8
2025-07-23T12:00	28450	16	-45.5		96	15	9.6
2025-07-23T12:00	28500	16	-45.3		98	14	9.6
2025-07-23T12:00	28550	16	-45.2		94	13	9.5
2025-07-23T12:00	28600	16	-44.9		87	12	9.5
2025-07-23T12:00	28650	16	-44.5		81	13	9.6
2025-07-23T12:00	28700	16	-44.3		80	14	9.5
2025-07-23T12:00	28750	15	-44.2		82	15	9.4
2025-07-23T12:00	28800	15	-44.0		84	16	9.3
2025-07-23T12:00	28850	15	-43.8		85	16	9.3
2025-07-23T12:00	28900	15	-43.6		83	16	9.3
2025-07-23T12:00	28950	15	-43.4		82	16	9.1
2025-07-23T12:00	29000	15	-42.9		83	16	9.2
2025-07-23T12:00	29050	15	-42.5		87	17	9.2
2025-07-23T12:00	29100	15	-42.3		91	17	9.2
2025-07-23T12:00	29150	15	-42.4		96	18	9.3
2025-07-23T12:00	29200	14	-42.5		99	18	9.3
2025-07-23T12:00	29250	14	-42.6		102	17	9.1
2025-07-23T12:00	29300	14	-42.7		101	17	9.2
2025-07-23T12:00	29350	14	-42.5		98	16	9.1
2025-07-23T12:00	29400	14	-42.5		96	16	9.0
2025-07-23T12:00	29450	14	-42.6		94	15	9.0
2025-07-23T12:00	29500	14	-42.7		93	14	9.0
2025-07-23T12:00	29550	14	-42.7		92	14	8.9
2025-07-23T12:00	29600	14	-42.5		92	14	8.9
2025-07-23T12:00	29650	14	-42.3		92	14	8.8
2025-07-23T12:00	29700	13	-42.1		91	15	8.8
2025-07-23T12:00	29750	13	-42.0		91	15	8.7
2025-07-23T12:00	29800	13	-42.0		90	16	8.7
2025-07-23T12:00	29850	13	-41.9		91	17	8.6
2025-07-23T12:00	29900	13	-41.7		93	17	8.6
2025-07-23T12:00	29950	13	-41.5		96	18	8.6
2025-07-23T12:00	30000	13	-41.4		98	18	8.6
2025-07-23T12:00	30050	13	-41.3		99	18	8.5
2025-07-23T12:00	30100	13	-41.3		99	18	8.4
2025-07-23T12:00	30150	13	-41.3		98	18	8.4
2025-07-23T12:00	30200	12	-41.2		99	18	8.4
2025-07-23T12:00	30250	12	-41.0		102	18	8.3
2025-07-23T12:00	30300	12	-41.1		103	18	8.2
2025-07-23T12:00	30350	12	-41.3		101	18	8.2
2025-07-23T12:00	30400	12	-41.2		99	18	8.1
2025-07-23T12:00	30450	12	-41.2		99	17	8.0
2025-07-23T12:00	30500	12	-41.1		102	17	7.9
2025-07-23T12:00	30550	12	-41.1		105	16	7.9
2025-07-23T12:00	30600	12	-41.2		106	14	7.9
2025-07-23T12:00	30650	12	-41.3		105	14	7.8
2025-07-23T12:00	30700	12	-41.4		102	13	7.7
2025-07-23T12:00	30750	11	-41.4		100	14	7.7
2025-07-23T12:00	30800	11	-41.3		99	14	7.6
2025-07-23T12:00	30850	11	-41.2		100	15	7.5
2025-07-23T12:00	30900	11	-41.2		100	14	7.4
2025-07-23T12:00	30950	11	-41.2		99	14	7.4
2025-07-23T12:00	31000	11	-41.0		97	15	7.4
2025-07-23T12:00	31050	11	-40.8		94	15	7.3
2025-07-23T12:00	31100	11	-40.7		93	15	7.2
2025-07-23T12:00	31150	11	-40.7		94	16	7.2
2025-07-23T12:00	31200	11	-40.5		97	16	7.1
2025-07-23T12:00	31250	11	-40.3		100	17	7.0
2025-07-23T12:00	31300	11	-40.1		103	17	7.0
2025-07-23T12:00	31350	11	-39.9		106	16	6.9
2025-07-23T12:00	31400	10	-39.8		108	15	6.9
2025-07-23T12:00	31450	10	-39.7		106	13	6.8
2025-07-23T12:00	31500	10	-39.5		102	11	6.8
2025-07-23T12:00	31550	10	-39.5		97	10	6.8
2025-07-23T12:00	31600	10	-39.5		89	10	6.8
2025-07-23T12:00	31650	10	-39.6		82	10	6.7
2025-07-23T12:00	31700	10	-39.6		79	11	6.6
2025-07-23T12:00	31750	10	-39.5		81	12	6.5
2025-07-23T12:00	31800	10	-39.3		84	12	6.5
2025-07-23T12:00	31850	10	-39.1		82	12	6.4
2025-07-23T12:00	31900	10	-38.9		76	12	6.4
2025-07-23T12:00	31950	10	-38.6		70	13	6.3
2025-07-23T12:00	32000	10	-38.4		68	13	6.3
2025-07-23T12:00	32050	10	-38.2		69	14	6.2
2025-07-23T12:00	32100	9	-38.1		70	15	6.2
2025-07-23T12:00	32150	9	-38.0		71	16	6.1
2025-07-23T12:00	32200	9	-38.0		72	17	6.1
2025-07-23T12:00	32250	9	-38.1		75	17	6.0
2025-07-23T12:00	32300	9	-38.0		79	17	6.0
2025-07-23T12:00	32350	9	-37.7		83	17	5.9
2025-07-23T12:00	32400	9	-37.5		85	17	5.9
2025-07-23T12:00	32450	9	-37.2		84	17	5.9
2025-07-23T12:00	32500	9	-36.7		81	17	5.8
2025-07-23T12:00	32550	9	-36.1		78	18	5.8
2025-07-23T12:00	32600	9	-35.8		78	19	5.7
2025-07-23T12:00	32650	9	-35.7		80	19	5.7
2025-07-23T12:00	32700	9	-35.4		81	21	5.8
2025-07-23T12:00	32750	9	-35.1		81	22	5.7
2025-07-23T12:00	32800	9	-35.0		83	22	5.7
2025-07-23T12:00	32850	8	-35.0		84	22	5.6
2025-07-23T12:00	32900	8	-35.2		86	21	5.6
2025-07-23T12:00	32950	8	-35.4		88	20	5.5
2025-07-23T12:00	33000	8	-35.5		90	19	5.4
2025-07-23T12:00	33050	8	-35.4		92	18	5.4
2025-07-23T12:00	33100	8	-35.2		94	17	5.3
2025-07-23T12:00	33150	8	-34.8		95	16	5.3
2025-07-23T12:00	33200	8	-34.4		94	16	5.3
2025-07-23T12:00	33250	8	-34.0		92	16	5.3
2025-07-23T12:00	33300	8	-33.7		91	16	5.2
2025-07-23T12:00	33350	8	-33.6		91	16	5.2
2025-07-23T12:00	33400	8	-33.6		92	17	5.2
2025-07-23T12:00	33450	8	-33.6		93	19	5.1
2025-07-23T12:00	33500	8	-33.5		93	20	5.1
2025-07-23T12:00	33550	8	-33.3		94	20	5.0
2025-07-23T12:00	33600	8	-33.3		94	21	5.0
2025-07-23T12:00	33650	8	-33.3		95	20	4.9
2025-07-23T12:00	33700	7	-33.4		96	20	4.9
2025-07-23T12:00	33750	7	-33.3		97	19	4.9
2025-07-23T12:00	33800	7	-33.0		97	18	4.9
2025-07-23T12:00	33850	7	-32.8		96	17	4.8
2025-07-24T00:00	491	956	18.8	11.4	207	2	
2025-07-24T00:00	501	954	18.9	11.5	223	2	
2025-07-24T00:00	520	953	19.1	11.4	228	3	
2025-07-24T00:00	540	951	19.0	11.1	227	3	
2025-07-24T00:00	560	949	19.0	11.0	225	4	
2025-07-24T00:00	580	946	18.8	10.9	223	5	
2025-07-24T00:00	600	944	18.7	10.8	221	6	
2025-07-24T00:00	620	942	18.6	10.8	220	6	
2025-07-24T00:00	640	940	18.6	10.7	219	6	
2025-07-24T00:00	660	938	18.5	10.8	219	7	
2025-07-24T00:00	680	936	18.4	10.8	221	7	
2025-07-24T00:00	700	933	18.2	10.7	223	7	
2025-07-24T00:00	720	931	18.0	10.7	225	8	
2025-07-24T00:00	740	929	17.8	10.8	228	8	
2025-07-24T00:00	760	927	17.6	10.7	229	8	
2025-07-24T00:00	780	925	17.5	10.6	230	8	
2025-07-24T00:00	800	923	17.3	10.5	230	8	
2025-07-24T00:00	820	921	17.1	10.5	230	8	
2025-07-24T00:00	840	918	17.0	10.4	229	7	
2025-07-24T00:00	860	916	16.8	10.3	229	7	
2025-07-24T00:00	880	914	16.6	10.3	228	7	
2025-07-24T00:00	900	912	16.4	10.2	229	7	
2025-07-24T00:00	920	910	16.3	10.2	230	7	
2025-07-24T00:00	940	908	16.0	10.2	231	7	
2025-07-24T00:00	960	905	15.8	10.2	233	7	
2025-07-24T00:00	980	903	15.6	10.1	235	7	
2025-07-24T00:00	1000	901	15.4	10.1	238	7	
2025-07-24T00:00	1020	899	15.3	9.9	240	7	
2025-07-24T00:00	1040	897	15.1	9.9	242	7	
2025-07-24T00:00	1060	895	15.0	9.9	244	7	
2025-07-24T00:00	1080	893	14.8	9.7	244	6	
2025-07-24T00:00	1100	891	14.6	9.6	245	6	
2025-07-24T00:00	1120	889	14.5	9.6	245	6	
2025-07-24T00:00	1140	886	14.4	9.5	246	6	
2025-07-24T00:00	1160	884	14.2	9.4	248	6	
2025-07-24T00:00	1180	882	14.1	9.3	250	5	
2025-07-24T00:00	1200	880	13.9	9.3	252	5	
2025-07-24T00:00	1220	878	13.7	9.3	256	5	
2025-07-24T00:00	1240	876	13.5	9.2	260	5	
2025-07-24T00:00	1260	874	13.4	9.1	265	5	
2025-07-24T00:00	1280	872	13.2	9.2	267	5	
2025-07-24T00:00	1300	870	13.0	9.1	268	5	
2025-07-24T00:00	1320	868	12.8	9.0	267	5	
2025-07-24T00:00	1340	866	12.8	8.8	266	5	
2025-07-24T00:00	1360	864	12.7	8.8	267	5	
2025-07-24T00:00	1380	862	12.5	8.8	268	5	
2025-07-24T00:00	1400	860	12.3	8.7	270	5	
2025-07-24T00:00	1420	858	12.2	8.6	273	5	
2025-07-24T00:00	1440	855	12.0	8.5	275	5	
2025-07-24T00:00	1460	853	11.8	8.4	275	5	
2025-07-24T00:00	1480	851	11.6	8.2	272	5	
2025-07-24T00:00	1500	849	11.4	8.3	267	5	
2025-07-24T00:00	1520	847	11.3	8.1	260	5	
2025-07-24T00:00	1540	845	11.1	8.1	253	6	
2025-07-24T00:00	1560	843	10.9	7.9	248	6	
2025-07-24T00:00	1580	841	10.7	7.8	245	6	
2025-07-24T00:00	1600	839	10.5	7.6	243	7	
2025-07-24T00:00	1620	837	10.5	7.4	241	7	
2025-07-24T00:00	1640	835	10.4	7.3	238	7	
2025-07-24T00:00	1660	833	10.4	7.1	237	8	
2025-07-24T00:00	1680	831	10.2	6.9	236	8	
2025-07-24T00:00	1700	829	10.1	6.9	234	8	
2025-07-24T00:00	1720	827	10.0	6.8	232	8	
2025-07-24T00:00	1740	825	9.8	6.8	230	8	
2025-07-24T00:00	1760	823	9.7	6.9	228	8	
2025-07-24T00:00	1780	821	9.5	6.8	227	8	
2025-07-24T00:00	1800	819	9.3	6.7	225	8	
2025-07-24T00:00	1820	817	9.2	6.7	224	8	
2025-07-24T00:00	1840	815	9.1	6.6	223	8	
2025-07-24T00:00	1860	813	8.9	6.5	222	8	
2025-07-24T00:00	1880	811	8.7	6.5	222	8	
2025-07-24T00:00	1900	809	8.6	6.4	221	7	
2025-07-24T00:00	1920	807	8.4	6.4	221	7	
2025-07-24T00:00	1940	806	8.2	6.4	221	7	
2025-07-24T00:00	1960	804	8.0	6.3	221	7	
2025-07-24T00:00	1980	802	7.9	6.2	220	7	
2025-07-24T00:00	2000	800	7.7	6.2	220	7	
2025-07-24T00:00	2020	798	7.6	6.2	219	7	
2025-07-24T00:00	2040	796	7.5	6.1	219	7	
2025-07-24T00:00	2060	794	7.4	6.1	219	6	
2025-07-24T00:00	2080	792	7.2	6.0	219	6	
2025-07-24T00:00	2100	790	7.1	5.9	220	6	
2025-07-24T00:00	2120	788	6.9	5.9	220	7	
2025-07-24T00:00	2140	786	6.8	5.8	220	7	
2025-07-24T00:00	2160	784	6.7	5.8	219	7	
2025-07-24T00:00	2180	782	6.5	5.6	218	8	
2025-07-24T00:00	2200	780	6.3	5.5	217	8	
2025-07-24T00:00	2220	779	6.2	5.5	215	9	
2025-07-24T00:00	2240	777	6.0	5.5	214	9	
2025-07-24T00:00	2260	775	5.9	5.3	213	10	
2025-07-24T00:00	2280	773	5.8	5.2	212	10	
2025-07-24T00:00	2300	771	5.7	5.0	212	10	
2025-07-24T00:00	2320	769	5.5	5.0	212	10	
2025-07-24T00:00	2340	767	5.4	5.0	211	10	
2025-07-24T00:00	2360	765	5.3	4.9	211	11	
2025-07-24T00:00	2380	764	5.1	4.8	210	11	
2025-07-24T00:00	2400	762	5.0	4.8	209	11	
2025-07-24T00:00	2420	760	4.8	4.7	208	11	
2025-07-24T00:00	2440	758	4.6	4.5	207	12	
2025-07-24T00:00	2460	756	4.5	4.5	207	12	
2025-07-24T00:00	2480	754	4.4	4.3	206	12	
2025-07-24T00:00	2500	753	4.3	4.2	207	12	
2025-07-24T00:00	2520	751	4.2	4.1	207	12	
2025-07-24T00:00	2540	749	4.0	4.0	207	12	
2025-07-24T00:00	2560	747	3.9	3.8	207	12	
2025-07-24T00:00	2580	745	3.8	3.6	208	12	
2025-07-24T00:00	2600	743	3.7	3.5	208	12	
2025-07-24T00:00	2620	741	3.5	3.5	209	12	
2025-07-24T00:00	2640	740	3.4	3.3	209	12	
2025-07-24T00:00	2660	738	3.3	3.2	209	12	
2025-07-24T00:00	2680	736	3.2	3.1	208	11	
2025-07-24T00:00	2700	734	3.1	2.9	207	10	
2025-07-24T00:00	2720	732	3.0	2.8	206	10	
2025-07-24T00:00	2740	731	2.9	2.7	204	9	
2025-07-24T00:00	2760	729	2.8	2.6	203	9	
2025-07-24T00:00	2780	727	2.7	2.5	202	9	
2025-07-24T00:00	2800	725	2.6	2.3	201	9	
2025-07-24T00:00	2820	723	2.5	2.1	200	10	
2025-07-24T00:00	2840	722	2.4	2.1	200	10	
2025-07-24T00:00	2860	720	2.2	2.0	200	10	
2025-07-24T00:00	2880	718	2.1	1.9	200	11	
2025-07-24T00:00	2900	716	2.0	1.7	200	11	
2025-07-24T00:00	2920	715	2.0	1.4	201	11	
2025-07-24T00:00	2940	713	1.9	1.1	201	10	
2025-07-24T00:00	2960	711	1.9	1.0	203	10	
2025-07-24T00:00	2980	709	1.7	0.9	204	10	
2025-07-24T00:00	3000	707	1.5	0.8	205	10	
2025-07-24T00:00	3020	706	1.4	0.6	205	10	
2025-07-24T00:00	3040	704	1.3	0.5	206	10	
2025-07-24T00:00	3060	702	1.1	0.4	205	10	
2025-07-24T00:00	3080	700	1.0	0.3	204	10	
2025-07-24T00:00	3100	699	0.8	0.1	204	10	
2025-07-24T00:00	3120	697	0.8	-0.2	204	10	
2025-07-24T00:00	3140	695	0.7	-0.3	204	10	
2025-07-24T00:00	3160	694	0.6	-0.5	205	10	
2025-07-24T00:00	3180	692	0.4	-0.7	206	10	
2025-07-24T00:00	3200	690	0.5	-1.1	209	10	
2025-07-24T00:00	3220	688	0.3	-1.1	210	10	
2025-07-24T00:00	3240	687	0.2	-1.3	212	10	
2025-07-24T00:00	3260	685	0.1	-1.6	214	10	
2025-07-24T00:00	3280	683	0.2	-2.0	215	10	
2025-07-24T00:00	3300	681	0.2	-2.3	217	10	
2025-07-24T00:00	3320	680	0.0	-2.4	218	10	
2025-07-24T00:00	3340	678	-0.1	-2.6	219	10	
2025-07-24T00:00	3360	676	0.0	-3.0	220	10	
2025-07-24T00:00	3380	675	0.2	-3.3	219	11	
2025-07-24T00:00	3400	673	0.1	-3.6	219	11	
2025-07-24T00:00	3420	671	0.0	-3.7	218	11	
2025-07-24T00:00	3440	670	-0.1	-3.8	217	12	
2025-07-24T00:00	3460	668	-0.3	-3.8	217	12	
2025-07-24T00:00	3480	667	-0.4	-4.0	217	12	
2025-07-24T00:00	3500	665	-0.6	-4.1	217	11	
2025-07-24T00:00	3520	663	-0.8	-4.3	217	11	
2025-07-24T00:00	3540	661	-1.0	-4.4	218	11	
2025-07-24T00:00	3560	660	-1.1	-4.6	218	11	
2025-07-24T00:00	3580	658	-1.2	-4.8	217	11	
2025-07-24T00:00	3600	657	-1.4	-5.0	216	10	
2025-07-24T00:00	3620	655	-1.5	-5.2	214	11	
2025-07-24T00:00	3640	653	-1.6	-5.4	211	11	
2025-07-24T00:00	3660	651	-1.8	-5.5	208	11	
2025-07-24T00:00	3680	650	-1.9	-5.7	206	11	
2025-07-24T00:00	3700	648	-2.0	-5.8	205	11	
2025-07-24T00:00	3720	647	-2.1	-6.0	204	11	
2025-07-24T00:00	3740	645	-2.3	-6.1	206	11	
2025-07-24T00:00	3760	643	-2.4	-6.3	208	12	
2025-07-24T00:00	3780	642	-2.6	-6.4	211	12	
2025-07-24T00:00	3800	640	-2.7	-6.6	214	12	
2025-07-24T00:00	3820	639	-2.8	-6.5	217	12	
2025-07-24T00:00	3840	637	-2.9	-6.6	219	12	
2025-07-24T00:00	3860	635	-3.0	-6.6	221	12	
2025-07-24T00:00	3880	634	-3.0	-7.1	222	12	
2025-07-24T00:00	3900	632	-3.1	-7.7	222	12	
2025-07-24T00:00	3920	631	-3.1	-8.9	222	12	
2025-07-24T00:00	3940	629	-3.1	-11.0	222	13	
2025-07-24T00:00	3960	627	-3.3	-10.9	223	13	
2025-07-24T00:00	3980	626	-3.5	-10.6	223	13	
2025-07-24T00:00	4000	624	-3.7	-11.5	224	13	
2025-07-24T00:00	4020	623	-3.8	-11.8	226	14	
2025-07-24T00:00	4040	621	-4.0	-12.4	226	14	
2025-07-24T00:00	4060	620	-4.2	-12.7	227	14	
2025-07-24T00:00	4080	618	-4.4	-12.5	227	14	
2025-07-24T00:00	4100	616	-4.4	-11.5	227	14	
2025-07-24T00:00	4120	615	-4.5	-12.7	227	14	
2025-07-24T00:00	4140	613	-4.6	-12.7	227	13	
2025-07-24T00:00	4160	612	-4.8	-12.6	226	13	
2025-07-24T00:00	4180	610	-5.0	-12.6	226	13	
2025-07-24T00:00	4200	609	-5.2	-12.4	224	13	
2025-07-24T00:00	4220	607	-5.4	-12.4	223	13	
2025-07-24T00:00	4240	605	-5.6	-12.3	221	13	
2025-07-24T00:00	4260	604	-5.8	-11.7	220	13	
2025-07-24T00:00	4280	602	-6.0	-11.0	219	13	
2025-07-24T00:00	4300	601	-6.2	-10.9	218	13	
2025-07-24T00:00	4320	599	-6.4	-10.4	218	13	
2025-07-24T00:00	4340	598	-6.5	-10.3	218	13	
2025-07-24T00:00	4360	596	-6.7	-10.5	217	13	
2025-07-24T00:00	4380	595	-6.9	-10.5	216	13	
2025-07-24T00:00	4400	593	-7.0	-10.6	215	13	
2025-07-24T00:00	4420	592	-7.1	-10.6	214	13	
2025-07-24T00:00	4440	590	-7.3	-10.6	212	13	
2025-07-24T00:00	4460	589	-7.5	-10.6	210	14	
2025-07-24T00:00	4480	587	-7.7	-10.7	209	15	
2025-07-24T00:00	4500	586	-7.9	-10.6	209	15	
2025-07-24T00:00	4520	584	-8.0	-10.2	209	16	
2025-07-24T00:00	4540	583	-8.1	-9.8	210	16	
2025-07-24T00:00	4560	581	-8.3	-9.9	212	16	
2025-07-24T00:00	4580	580	-8.4	-10.5	213	16	
2025-07-24T00:00	4600	578	-8.5	-11.1	215	15	
2025-07-24T00:00	4620	577	-8.7	-11.1	217	15	
2025-07-24T00:00	4640	575	-8.9	-11.3	218	14	
2025-07-24T00:00	4660	574	-9.1	-11.5	217	14	
2025-07-24T00:00	4680	572	-9.3	-11.1	216	14	
2025-07-24T00:00	4700	571	-9.5	-11.4	214	14	
2025-07-24T00:00	4720	569	-9.6	-11.8	212	14	
2025-07-24T00:00	4740	568	-9.8	-11.8	210	14	
2025-07-24T00:00	4760	566	-10.0	-11.8	209	15	
2025-07-24T00:00	4780	565	-10.1	-11.9	208	15	
2025-07-24T00:00	4800	563	-10.3	-12.0	207	15	
2025-07-24T00:00	4820	562	-10.5	-12.1	208	16	
2025-07-24T00:00	4840	561	-10.7	-12.2	208	16	
2025-07-24T00:00	4860	559	-10.8	-12.3	209	16	
2025-07-24T00:00	4880	558	-11.1	-12.3	211	16	
2025-07-24T00:00	4900	556	-11.3	-12.4	213	16	
2025-07-24T00:00	4920	555	-11.4	-12.5	215	16	
2025-07-24T00:00	4940	553	-11.6	-12.6	216	16	
2025-07-24T00:00	4960	552	-11.8	-12.6	217	16	
2025-07-24T00:00	4980	550	-12.0	-12.7	218	16	
2025-07-24T00:00	5000	549	-12.2	-12.7	218	16	
2025-07-24T00:00	5020	548	-12.3	-13.1	218	17	
2025-07-24T00:00	5040	546	-12.4	-13.6	219	17	
2025-07-24T00:00	5060	545	-12.6	-14.1	219	17	
2025-07-24T00:00	5080	543	-12.2	-16.7	220	17	
2025-07-24T00:00	5100	542	-11.6	-22.1	220	18	
2025-07-24T00:00	5120	540	-10.6	-31.4	220	18	
2025-07-24T00:00	5140	539	-10.1	-30.7	219	19	
2025-07-24T00:00	5160	537	-10.0	-31.7	219	20	
2025-07-24T00:00	5180	536	-9.8	-30.4	219	20	
2025-07-24T00:00	5200	535	-9.8	-30.5	218	19	
2025-07-24T00:00	5220	533	-9.9	-30.5	218	19	
2025-07-24T00:00	5240	532	-10.0	-30.5	218	19	
2025-07-24T00:00	5260	531	-10.2	-30.3	217	19	
2025-07-24T00:00	5280	529	-10.3	-30.3	216	19	
2025-07-24T00:00	5300	528	-10.5	-30.6	215	19	
2025-07-24T00:00	5320	526	-10.6	-31.0	215	19	
2025-07-24T00:00	5340	525	-10.7	-31.5	213	19	
2025-07-24T00:00	5360	524	-10.8	-31.7	213	19	
2025-07-24T00:00	5380	522	-11.0	-31.8	212	19	
2025-07-24T00:00	5400	521	-11.1	-32.9	212	19	
2025-07-24T00:00	5420	520	-11.2	-34.1	212	19	
2025-07-24T00:00	5440	518	-11.4	-34.8	212	19	
2025-07-24T00:00	5460	517	-11.5	-35.3	213	18	
2025-07-24T00:00	5480	516	-11.6	-36.1	213	18	
2025-07-24T00:00	5500	514	-11.8	-36.7	213	18	
2025-07-24T00:00	5520	513	-11.9	-37.0	213	18	
2025-07-24T00:00	5540	512	-12.1	-37.2	212	18	
2025-07-24T00:00	5560	510	-12.3	-37.2	212	18	
2025-07-24T00:00	5580	509	-12.4	-37.2	211	18	
2025-07-24T00:00	5600	508	-12.6	-37.5	211	18	
2025-07-24T00:00	5620	506	-12.7	-38.0	211	18	
2025-07-24T00:00	5640	505	-12.9	-38.0	210	18	
2025-07-24T00:00	5660	504	-13.0	-38.2	210	18	
2025-07-24T00:00	5680	502	-13.2	-38.5	210	18	
2025-07-24T00:00	5700	501	-13.4	-38.6	209	18	
2025-07-24T00:00	5720	500	-13.6	-38.6	209	18	
2025-07-24T00:00	5740	498	-13.8	-38.8	208	18	
2025-07-24T00:00	5760	497	-13.9	-38.9	206	18	
2025-07-24T00:00	5780	496	-14.1	-39.1	204	18	
2025-07-24T00:00	5800	494	-14.2	-39.1	203	18	
2025-07-24T00:00	5820	493	-14.4	-39.2	203	18	
2025-07-24T00:00	5840	492	-14.5	-39.5	202	18	
2025-07-24T00:00	5860	491	-14.7	-39.6	202	18	
2025-07-24T00:00	5880	489	-14.8	-39.6	202	18	
2025-07-24T00:00	5900	488	-15.0	-39.6	202	18	
2025-07-24T00:00	5920	487	-15.2	-39.6	202	18	
2025-07-24T00:00	5940	485	-15.4	-39.7	202	18	
2025-07-24T00:00	5960	484	-15.6	-39.8	201	18	
2025-07-24T00:00	5980	483	-15.7	-39.9	200	18	
2025-07-24T00:00	6000	481	-15.9	-40.0	199	18	
2025-07-24T00:00	6020	480	-16.1	-40.2	198	18	
2025-07-24T00:00	6040	479	-16.3	-40.3	196	18	
2025-07-24T00:00	6060	478	-16.4	-40.5	196	18	
2025-07-24T00:00	6080	476	-16.6	-40.6	195	18	
2025-07-24T00:00	6100	475	-16.8	-40.7	195	18	
2025-07-24T00:00	6120	474	-16.9	-40.5	195	18	
2025-07-24T00:00	6140	473	-17.0	-40.1	195	18	
2025-07-24T00:00	6160	471	-17.2	-40.0	194	18	
2025-07-24T00:00	6180	470	-17.4	-40.3	194	18	
2025-07-24T00:00	6200	469	-17.5	-40.4	193	18	
2025-07-24T00:00	6220	468	-17.7	-40.3	193	18	
2025-07-24T00:00	6240	466	-18.0	-40.3	193	17	
2025-07-24T00:00	6260	465	-18.1	-40.2	193	17	
2025-07-24T00:00	6280	464	-18.3	-40.3	193	17	
2025-07-24T00:00	6300	463	-18.5	-40.3	194	16	
2025-07-24T00:00	6320	462	-18.7	-40.3	194	16	
2025-07-24T00:00	6340	460	-18.9	-40.4	195	16	
2025-07-24T00:00	6360	459	-19.0	-40.3	196	16	
2025-07-24T00:00	6380	458	-19.2	-40.3	197	16	
2025-07-24T00:00	6400	456	-19.4	-40.3	198	16	
2025-07-24T00:00	6420	455	-19.5	-40.2	198	16	
2025-07-24T00:00	6440	454	-19.6	-39.9	199	16	
2025-07-24T00:00	6460	453	-19.7	-40.2	199	17	
2025-07-24T00:00	6480	452	-19.8	-40.5	199	17	
2025-07-24T00:00	6500	450	-19.9	-40.8	199	17	
2025-07-24T00:00	6520	449	-20.0	-40.9	199	17	
2025-07-24T00:00	6540	448	-20.2	-40.9	200	17	
2025-07-24T00:00	6560	447	-20.5	-40.9	200	17	
2025-07-24T00:00	6580	445	-20.6	-40.9	201	17	
2025-07-24T00:00	6600	444	-20.8	-40.9	202	17	
2025-07-24T00:00	6620	443	-21.0	-40.9	203	17	
2025-07-24T00:00	6640	442	-21.2	-40.9	204	16	
2025-07-24T00:00	6660	441	-21.3	-41.0	205	16	
2025-07-24T00:00	6680	439	-21.5	-41.2	206	16	
2025-07-24T00:00	6700	438	-21.7	-41.5	208	16	
2025-07-24T00:00	6720	437	-21.8	-41.4	211	16	
2025-07-24T00:00	6740	436	-22.0	-41.9	212	16	
2025-07-24T00:00	6760	435	-22.1	-42.3	213	16	
2025-07-24T00:00	6780	434	-22.3	-42.3	214	17	
2025-07-24T00:00	6800	432	-22.5	-42.3	214	17	
2025-07-24T00:00	6820	431	-22.7	-42.3	214	17	
2025-07-24T00:00	6840	430	-22.9	-42.2	213	18	
2025-07-24T00:00	6860	429	-23.1	-42.2	213	18	
2025-07-24T00:00	6880	428	-23.3	-42.3	212	18	
2025-07-24T00:00	6900	426	-23.5	-42.2	212	18	
2025-07-24T00:00	6920	425	-23.6	-42.5	211	18	
2025-07-24T00:00	6940	424	-23.8	-42.4	211	18	
2025-07-24T00:00	6960	423	-24.0	-42.5	211	18	
2025-07-24T00:00	6980	422	-24.2	-42.6	211	18	
2025-07-24T00:00	7000	421	-24.4	-42.6	212	17	
2025-07-24T00:00	7020	420	-24.6	-42.5	212	17	
2025-07-24T00:00	7040	418	-24.8	-42.4	213	16	
2025-07-24T00:00	7060	417	-25.0	-42.4	213	16	
2025-07-24T00:00	7080	416	-25.2	-42.6	214	16	
2025-07-24T00:00	7100	415	-25.4	-42.6	214	16	
2025-07-24T00:00	7120	414	-25.6	-42.6	213	16	
2025-07-24T00:00	7140	413	-25.8	-42.6	213	16	
2025-07-24T00:00	7160	411	-25.9	-42.5	213	16	
2025-07-24T00:00	7180	410	-26.1	-42.6	213	16	
2025-07-24T00:00	7200	409	-26.3	-42.9	213	16	
2025-07-24T00:00	7220	408	-26.5	-43.0	214	16	
2025-07-24T00:00	7240	407	-26.7	-43.1	214	17	
2025-07-24T00:00	7260	406	-26.8	-43.5	215	17	
2025-07-24T00:00	7280	405	-27.0	-43.7	215	17	
2025-07-24T00:00	7300	404	-27.2	-44.0	216	17	
2025-07-24T00:00	7320	403	-27.4	-44.3	217	17	
2025-07-24T00:00	7340	401	-27.5	-44.5	217	17	
2025-07-24T00:00	7360	400	-27.7	-44.8	218	17	
2025-07-24T00:00	7380	399	-27.8	-45.2	218	17	
2025-07-24T00:00	7400	398	-28.0	-45.3	218	17	
2025-07-24T00:00	7420	397	-28.2	-45.2	217	17	
2025-07-24T00:00	7440	396	-28.5	-45.2	217	18	
2025-07-24T00:00	7460	395	-28.6	-45.2	217	18	
2025-07-24T00:00	7480	394	-28.8	-45.5	217	18	
2025-07-24T00:00	7500	393	-29.0	-46.2	217	18	
2025-07-24T00:00	7520	391	-29.1	-46.8	217	19	
2025-07-24T00:00	7540	390	-29.2	-47.1	218	19	
2025-07-24T00:00	7560	389	-29.4	-47.6	219	20	
2025-07-24T00:00	7580	388	-29.5	-48.2	219	21	
2025-07-24T00:00	7600	387	-29.6	-48.4	220	21	
2025-07-24T00:00	7620	386	-29.7	-48.3	220	22	
2025-07-24T00:00	7640	385	-29.9	-48.1	220	22	
2025-07-24T00:00	7660	384	-30.0	-48.2	220	23	
2025-07-24T00:00	7680	383	-30.2	-48.1	219	23	
2025-07-24T00:00	7700	382	-30.4	-47.8	218	24	
2025-07-24T00:00	7720	381	-30.5	-47.9	217	24	
2025-07-24T00:00	7740	380	-30.7	-47.9	217	24	
2025-07-24T00:00	7760	378	-30.8	-48.1	217	25	
2025-07-24T00:00	7780	377	-30.8	-48.1	216	25	
2025-07-24T00:00	7800	376	-30.8	-48.0	216	26	
2025-07-24T00:00	7820	375	-31.0	-48.3	215	26	
2025-07-24T00:00	7840	374	-31.1	-48.4	214	26	
2025-07-24T00:00	7860	373	-31.1	-48.4	213	27	
2025-07-24T00:00	7880	372	-31.1	-48.5	213	27	
2025-07-24T00:00	7900	371	-31.1	-48.6	212	27	
2025-07-24T00:00	7920	370	-31.3	-48.7	212	27	
2025-07-24T00:00	7940	369	-31.5	-48.7	213	27	
2025-07-24T00:00	7960	368	-31.7	-48.8	213	27	
2025-07-24T00:00	7980	367	-31.8	-48.8	213	28	
2025-07-24T00:00	8000	366	-32.0	-48.9	212	28	
2025-07-24T00:00	8020	365	-32.2	-48.9	212	28	
2025-07-24T00:00	8040	364	-32.4	-48.9	212	28	
2025-07-24T00:00	8060	363	-32.5	-48.8	212	28	
2025-07-24T00:00	8080	362	-32.7	-47.8	212	29	
2025-07-24T00:00	8100	361	-32.8	-46.8	213	29	
2025-07-24T00:00	8120	360	-32.9	-47.2	213	30	
2025-07-24T00:00	8140	359	-33.1	-47.8	213	30	
2025-07-24T00:00	8160	358	-33.2	-46.8	213	30	
2025-07-24T00:00	8180	357	-33.4	-46.0	213	30	
2025-07-24T00:00	8200	356	-33.5	-47.1	214	30	
2025-07-24T00:00	8220	355	-33.7	-47.2	214	30	
2025-07-24T00:00	8240	354	-33.9	-46.9	214	29	
2025-07-24T00:00	8260	353	-34.0	-47.0	214	29	
2025-07-24T00:00	8280	352	-34.2	-47.5	214	29	
2025-07-24T00:00	8300	351	-34.3	-47.7	214	29	
2025-07-24T00:00	8320	350	-34.5	-48.5	214	29	
2025-07-24T00:00	8340	349	-34.6	-50.6	214	30	
2025-07-24T00:00	8360	348	-34.7	-50.8	214	30	
2025-07-24T00:00	8380	347	-34.8	-50.3	214	30	
2025-07-24T00:00	8400	346	-35.0	-50.2	215	31	
2025-07-24T00:00	8420	345	-35.1	-50.1	215	31	
2025-07-24T00:00	8440	344	-35.2	-50.0	215	31	
2025-07-24T00:00	8460	343	-35.3	-49.9	215	31	
2025-07-24T00:00	8480	342	-35.4	-50.0	215	31	
2025-07-24T00:00	8500	341	-35.7	-50.1	215	31	
2025-07-24T00:00	8520	340	-35.8	-50.2	215	31	
2025-07-24T00:00	8540	339	-36.0	-50.2	215	31	
2025-07-24T00:00	8560	338	-36.2	-50.0	215	31	
2025-07-24T00:00	8580	337	-36.4	-50.1	215	31	
2025-07-24T00:00	8600	336	-36.5	-50.1	215	31	
2025-07-24T00:00	8620	335	-36.7	-50.1	215	31	
2025-07-24T00:00	8640	334	-36.9	-50.1	215	31	
2025-07-24T00:00	8660	333	-37.0	-50.3	215	31	
2025-07-24T00:00	8680	332	-37.2	-50.5	214	31	
2025-07-24T00:00	8700	331	-37.3	-50.6	214	31	
2025-07-24T00:00	8720	330	-37.5	-50.6	214	31	
2025-07-24T00:00	8740	329	-37.7	-51.1	214	31	
2025-07-24T00:00	8760	328	-37.8	-51.4	214	31	
2025-07-24T00:00	8780	327	-38.0	-51.1	214	31	
2025-07-24T00:00	8800	326	-38.2	-51.2	215	31	
2025-07-24T00:00	8820	325	-38.4	-51.2	215	30	
2025-07-24T00:00	8840	324	-38.6	-51.1	215	30	
2025-07-24T00:00	8860	323	-38.7	-51.3	216	30	
2025-07-24T00:00	8880	322	-38.9	-51.4	216	30	
2025-07-24T00:00	8900	322	-39.1	-51.7	216	30	
2025-07-24T00:00	8920	321	-39.3	-52.1	217	31	
2025-07-24T00:00	8940	320	-39.4	-52.6	217	31	
2025-07-24T00:00	8960	319	-39.4	-53.2	217	31	
2025-07-24T00:00	8980	318	-39.5	-53.5	217	31	
2025-07-24T00:00	9000	317	-39.7	-53.3	217	31	
2025-07-24T00:00	9020	316	-39.9	-53.5	217	31	
2025-07-24T00:00	9040	315	-40.0	-54.2	216	31	
2025-07-24T00:00	9060	314	-40.1	-54.3	216	31	
2025-07-24T00:00	9080	313	-40.3	-54.5	215	31	
2025-07-24T00:00	9100	312	-40.4	-54.7	215	31	
2025-07-24T00:00	9120	311	-40.5	-54.6	215	31	
2025-07-24T00:00	9140	310	-40.7	-54.8	214	31	
2025-07-24T00:00	9160	309	-40.9	-54.9	214	32	
2025-07-24T00:00	9180	309	-41.1	-54.7	214	32	
2025-07-24T00:00	9200	308	-41.3	-54.4	214	32	
2025-07-24T00:00	9220	307	-41.4	-54.6	214	32	
2025-07-24T00:00	9240	306	-41.5	-55.4	214	33	
2025-07-24T00:00	9260	305	-41.5	-56.1	215	33	
2025-07-24T00:00	9280	304	-41.5	-56.5	215	33	
2025-07-24T00:00	9300	303	-41.5	-56.8	216	33	
2025-07-24T00:00	9320	302	-41.6	-56.7	216	33	
2025-07-24T00:00	9340	301	-41.8	-56.7	217	34	
2025-07-24T00:00	9360	300	-42.0	-56.8	217	34	
2025-07-24T00:00	9380	300	-42.0	-57.0	217	34	
2025-07-24T00:00	9400	299	-42.1	-57.5	216	34	
2025-07-24T00:00	9420	298	-42.3	-57.5	216	35	
2025-07-24T00:00	9440	297	-42.5	-57.4	217	35	
2025-07-24T00:00	9460	296	-42.6	-57.3	217	35	
2025-07-24T00:00	9480	295	-42.8	-57.2	217	35	
2025-07-24T00:00	9500	294	-43.0	-57.2	218	35	
2025-07-24T00:00	9520	293	-43.2	-57.4	218	35	
2025-07-24T00:00	9540	293	-43.4	-57.4	219	36	
2025-07-24T00:00	9560	292	-43.6	-57.4	219	36	
2025-07-24T00:00	9580	291	-43.8	-57.5	219	36	
2025-07-24T00:00	9600	290	-43.9	-57.5	220	36	
2025-07-24T00:00	9620	289	-44.1	-57.4	220	36	
2025-07-24T00:00	9640	288	-44.3	-57.5	220	36	
2025-07-24T00:00	9660	287	-44.5	-57.6	220	36	
2025-07-24T00:00	9680	287	-44.6	-57.7	220	36	
2025-07-24T00:00	9700	286	-44.8	-57.7	221	36	
2025-07-24T00:00	9720	285	-44.9	-57.7	222	36	
2025-07-24T00:00	9740	284	-45.1	-57.7	222	36	
2025-07-24T00:00	9760	283	-45.2	-58.0	223	36	
2025-07-24T00:00	9780	282	-45.2	-58.5	223	36	
2025-07-24T00:00	9800	281	-45.4	-58.6	224	37	
2025-07-24T00:00	9820	281	-45.5	-58.4	225	37	
2025-07-24T00:00	9840	280	-45.6	-58.3	225	37	
2025-07-24T00:00	9860	279	-45.8	-58.4	226	37	
2025-07-24T00:00	9880	278	-45.9	-58.7	226	37	
2025-07-24T00:00	9900	277	-46.0	-58.8	227	38	
2025-07-24T00:00	9920	276	-46.2	-58.9	228	38	
2025-07-24T00:00	9940	276	-46.3	-59.1	228	38	
2025-07-24T00:00	9960	275	-46.4	-59.5	229	38	
2025-07-24T00:00	9980	274	-46.4	-60.0	229	39	
2025-07-24T00:00	10000	273	-46.5	-60.3	229	39	
2025-07-24T00:00	10018	272	-46.5	-60.7	230	39	
2025-07-24T00:00	10050	271	-46.4	-61.4	230	39	
2025-07-24T00:00	10100	269	-46.7	-61.6	231	40	
2025-07-24T00:00	10150	267	-46.9	-62.0	232	40	
2025-07-24T00:00	10200	265	-46.9	-63.1	231	41	
2025-07-24T00:00	10250	263	-47.0	-64.5	231	41	
2025-07-24T00:00	10300	261	-47.2	-64.7	230	41	
2025-07-24T00:00	10350	259	-47.6	-64.4	230	40	
2025-07-24T00:00	10400	257	-47.8	-64.9	230	41	
2025-07-24T00:00	10450	255	-48.2	-65.5	229	42	
2025-07-24T00:00	10500	253	-48.3	-67.1	229	44	
2025-07-24T00:00	10550	251	-48.4	-67.2	228	45	
2025-07-24T00:00	10600	249	-48.5	-67.3	228	46	
2025-07-24T00:00	10650	248	-48.5	-67.0	227	47	
2025-07-24T00:00	10700	246	-48.8	-66.4	227	47	
2025-07-24T00:00	10750	244	-48.9	-66.9	227	47	
2025-07-24T00:00	10800	242	-48.4	-69.8	226	46	
2025-07-24T00:00	10850	240	-48.0	-72.1	226	45	
2025-07-24T00:00	10900	238	-48.2	-72.2	227	44	
2025-07-24T00:00	10950	237	-48.4	-72.6	227	43	
2025-07-24T00:00	11000	235	-48.3	-73.2	227	42	
2025-07-24T00:00	11050	233	-48.5	-72.9	228	42	
2025-07-24T00:00	11100	231	-48.7	-73.6	229	42	
2025-07-24T00:00	11150	229	-48.8	-74.2	230	42	
2025-07-24T00:00	11200	228	-48.9	-74.8	231	41	
2025-07-24T00:00	11250	226	-48.9	-75.5	231	39	
2025-07-24T00:00	11300	224	-48.5	-76.3	232	37	
2025-07-24T00:00	11350	222	-47.6	-77.0	232	34	
2025-07-24T00:00	11400	221	-47.8	-77.1	231	32	
2025-07-24T00:00	11450	219	-47.6	-77.4	230	30	
2025-07-24T00:00	11500	217	-47.6	-77.6	228	29	
2025-07-24T00:00	11550	216	-47.7	-77.8	226	27	
2025-07-24T00:00	11600	214	-47.8	-78.1	224	26	
2025-07-24T00:00	11650	213	-47.9	-78.2	222	25	
2025-07-24T00:00	11700	211	-48.1	-78.6	222	25	
2025-07-24T00:00	11750	209	-47.6	-79.1	223	25	
2025-07-24T00:00	11800	208	-47.7	-79.2	225	27	
2025-07-24T00:00	11850	206	-47.7	-79.2	224	27	
2025-07-24T00:00	11900	205	-47.4	-79.3	223	27	
2025-07-24T00:00	11950	203	-47.3	-79.3	220	27	
2025-07-24T00:00	12000	202	-47.2	-79.2	219	27	
2025-07-24T00:00	12050	200	-47.0	-79.4	220	27	
2025-07-24T00:00	12100	199	-47.4	-79.4	221	27	
2025-07-24T00:00	12150	197	-47.8	-79.6	223	26	
2025-07-24T00:00	12200	196	-48.0	-79.6	225	25	
2025-07-24T00:00	12250	194	-48.2	-79.9	228	24	
2025-07-24T00:00	12300	193	-48.2	-80.2	228	23	
2025-07-24T00:00	12350	191	-48.2	-80.4	227	23	
2025-07-24T00:00	12400	190	-48.3	-80.7	226	23	
2025-07-24T00:00	12450	188	-48.0	-81.4	229	22	
2025-07-24T00:00	12500	187	-47.4	-81.7	232	21	
2025-07-24T00:00	12550	186	-47.0	-81.4	231	21	
2025-07-24T00:00	12600	184	-46.7	-81.5	229	20	
2025-07-24T00:00	12650	183	-46.6	-81.4	226	20	
2025-07-24T00:00	12700	181	-46.5	-81.5	226	19	
2025-07-24T00:00	12750	180	-46.4	-81.5	226	17	
2025-07-24T00:00	12800	178	-46.5	-81.9	226	15	
2025-07-24T00:00	12850	177	-46.5	-81.5	223	14	
2025-07-24T00:00	12900	176	-46.8	-81.7	221	14	
2025-07-24T00:00	12950	175	-47.1	-81.9	219	14	
2025-07-24T00:00	13000	173	-46.9	-81.9	219	15	
2025-07-24T00:00	13050	172	-47.1	-82.0	219	16	
2025-07-24T00:00	13100	171	-47.3	-82.0	217	17	
2025-07-24T00:00	13150	169	-47.6	-82.1	214	18	
2025-07-24T00:00	13200	168	-47.9	-82.2	212	19	
2025-07-24T00:00	13250	167	-47.8	-82.2	213	20	
2025-07-24T00:00	13300	166	-47.7	-82.3	214	21	
2025-07-24T00:00	13350	164	-48.0	-82.4	216	21	
2025-07-24T00:00	13400	163	-48.3	-82.5	218	22	
2025-07-24T00:00	13450	162	-48.5	-82.6	220	22	
2025-07-24T00:00	13500	161	-48.4	-82.7	221	22	
2025-07-24T00:00	13550	159	-48.3	-82.8	220	21	
2025-07-24T00:00	13600	158	-48.3	-82.8	220	21	
2025-07-24T00:00	13650	157	-48.4	-82.8	221	20	
2025-07-24T00:00	13700	156	-48.3	-82.9	223	19	
2025-07-24T00:00	13750	155	-48.5	-83.0	227	18	
2025-07-24T00:00	13800	154	-48.8	-83.1	230	17	
2025-07-24T00:00	13850	152	-48.7	-83.0	232	17	
2025-07-24T00:00	13900	151	-48.8	-83.0	232	17	
2025-07-24T00:00	13950	150	-49.0	-83.2	231	17	
2025-07-24T00:00	14000	149	-49.3	-83.2	229	17	
2025-07-24T00:00	14050	148	-49.7	-83.4	228	17	
2025-07-24T00:00	14100	147	-49.6	-83.4	227	17	
2025-07-24T00:00	14150	146	-49.6	-83.5	226	17	
2025-07-24T00:00	14200	144	-49.7	-83.7	223	16	
2025-07-24T00:00	14250	143	-49.5	-83.7	220	15	
2025-07-24T00:00	14300	142	-49.3	-83.7	217	15	
2025-07-24T00:00	14350	141	-49.6	-83.9	216	15	
2025-07-24T00:00	14400	140	-49.2	-83.9	220	15	
2025-07-24T00:00	14450	139	-48.9	-83.8	225	15	
2025-07-24T00:00	14500	138	-48.8	-83.7	231	16	
2025-07-24T00:00	14550	137	-49.1	-83.7	236	17	
2025-07-24T00:00	14600	136	-49.4	-83.7	241	17	
2025-07-24T00:00	14650	135	-49.6	-83.8	245	17	
2025-07-24T00:00	14700	134	-50.0	-83.8	249	16	
2025-07-24T00:00	14750	133	-50.4	-83.9	249	14	
2025-07-24T00:00	14800	132	-50.5	-84.1	246	13	
2025-07-24T00:00	14850	131	-50.5	-84.4	239	11	
2025-07-24T00:00	14900	130	-50.4	-84.3	230	10	
2025-07-24T00:00	14950	129	-50.5	-84.3	222	10	
2025-07-24T00:00	15000	128	-50.8	-84.5	217	10	
2025-07-24T00:00	15050	127	-50.4	-84.6	218	10	
2025-07-24T00:00	15100	126	-50.0	-84.6	226	10	
2025-07-24T00:00	15150	125	-50.0	-84.6	231	10	
2025-07-24T00:00	15200	124	-49.8	-84.7	229	9	
2025-07-24T00:00	15250	123	-49.7	-84.5	219	8	
2025-07-24T00:00	15300	122	-49.8	-84.4	214	9	
2025-07-24T00:00	15350	121	-49.9	-84.4	218	8	
2025-07-24T00:00	15400	120	-49.9	-84.5	226	7	
2025-07-24T00:00	15450	119	-50.0	-84.5	237	6	
2025-07-24T00:00	15500	118	-50.1	-84.6	243	6	
2025-07-24T00:00	15550	117	-50.1	-84.6	239	6	
2025-07-24T00:00	15600	117	-50.2	-84.7	236	8	
2025-07-24T00:00	15650	116	-50.6	-84.7	235	9	
2025-07-24T00:00	15700	115	-50.8	-84.9	234	10	
2025-07-24T00:00	15750	114	-50.7	-85.1	234	10	
2025-07-24T00:00	15800	113	-50.5	-85.1	233	9	
2025-07-24T00:00	15850	112	-50.5	-85.1	229	8	
2025-07-24T00:00	15900	111	-50.4	-85.0	224	8	
2025-07-24T00:00	15950	111	-50.7	-85.1	221	8	
2025-07-24T00:00	16000	110	-51.0	-85.1	219	9	
2025-07-24T00:00	16050	109	-51.5	-85.3	217	9	
2025-07-24T00:00	16100	108	-51.4	-85.3	215	9	
2025-07-24T00:00	16150	107	-51.4	-85.4	214	10	
2025-07-24T00:00	16200	106	-51.4	-85.5	218	9	
2025-07-24T00:00	16250	105	-51.4	-85.5	226	9	
2025-07-24T00:00	16300	105	-51.4	-85.5	230	9	
2025-07-24T00:00	16350	104	-51.5	-85.5	232	10	
2025-07-24T00:00	16400	103	-51.6	-85.5	232	10	
2025-07-24T00:00	16450	102	-51.8	-85.7	231	10	
2025-07-24T00:00	16500	102	-51.5	-85.9	229	11	
2025-07-24T00:00	16550	101	-51.2	-85.8	229	11	
2025-07-24T00:00	16600	100	-51.3	-85.8	232	11	
2025-07-24T00:00	16650	99	-51.2	-85.8	236	9	
2025-07-24T00:00	16700	98	-51.1	-85.8	238	7	
2025-07-24T00:00	16750	98	-51.3	-85.7	236	6	
2025-07-24T00:00	16800	97	-51.6	-85.7	225	4	
2025-07-24T00:00	16850	96	-51.9	-85.8	211	4	
2025-07-24T00:00	16900	95	-52.2	-85.9	205	4	
2025-07-24T00:00	16950	95	-52.4	-86.0	211	5	
2025-07-24T00:00	17000	94	-52.3	-86.2	218	5	
2025-07-24T00:00	17050	93	-51.8	-86.1	223	4	
2025-07-24T00:00	17100	93	-51.7	-86.1	224	4	
2025-07-24T00:00	17150	92	-51.9	-86.1	223	4	
2025-07-24T00:00	17200	91	-51.8	-86.1	215	3	
2025-07-24T00:00	17250	90	-51.4	-86.1	198	4	
2025-07-24T00:00	17300	90	-51.3	-86.2	189	5	
2025-07-24T00:00	17350	89	-51.3	-86.0	188	6	
2025-07-24T00:00	17400	88	-51.7	-85.9	189	7	
2025-07-24T00:00	17450	88	-52.0	-86.0	190	8	
2025-07-24T00:00	17500	87	-52.3	-86.0	192	8	
2025-07-24T00:00	17550	86	-52.5	-86.0	193	9	
2025-07-24T00:00	17600	86	-52.9	-86.1	195	8	
2025-07-24T00:00	17650	85	-53.3	-86.2	199	8	
2025-07-24T00:00	17700	84	-53.7	-86.4	205	7	
2025-07-24T00:00	17750	84	-53.7	-86.6	208	6	
2025-07-24T00:00	17800	83	-53.8	-86.6	203	5	
2025-07-24T00:00	17850	82	-54.1	-86.6	195	6	
2025-07-24T00:00	17900	82	-54.4	-86.8	192	6	
2025-07-24T00:00	17950	81	-54.5	-86.9	195	6	
2025-07-24T00:00	18000	81	-54.5	-86.9	203	6	
2025-07-24T00:00	18050	80	-54.4	-87.0	212	6	
2025-07-24T00:00	18100	79	-53.7	-87.0	222	6	
2025-07-24T00:00	18150	79	-53.6	-87.1	228	6	
2025-07-24T00:00	18200	78	-53.6	-87.1	229	7	
2025-07-24T00:00	18250	77	-53.3	-86.9	226	8	
2025-07-24T00:00	18300	77	-53.4	-86.9	225	8	
2025-07-24T00:00	18350	76	-53.6	-86.9	223	7	
2025-07-24T00:00	18400	76	-54.0	-86.9	220	7	
2025-07-24T00:00	18450	75	-54.3	-86.8	218	7	
2025-07-24T00:00	18500	74	-54.6	-87.0	214	7	
2025-07-24T00:00	18550	74	-54.7	-87.3	209	7	
2025-07-24T00:00	18600	73	-54.1	-87.2	208	7	
2025-07-24T00:00	18650	73	-54.3	-87.2	213	7	
2025-07-24T00:00	18700	72	-54.7	-87.2	221	6	
2025-07-24T00:00	18750	72	-55.0	-87.3	227	6	
2025-07-24T00:00	18800	71	-55.2	-87.4	229	5	
2025-07-24T00:00	18850	70	-54.9	-87.5	232	5	
2025-07-24T00:00	18900	70	-54.6	-87.6	237	4	
2025-07-24T00:00	18950	69	-54.4	-87.6	240	4	
2025-07-24T00:00	19000	69	-54.4	-87.6	242	3	
2025-07-24T00:00	19050	68	-54.3	-87.5	247	3	
2025-07-24T00:00	19100	68	-54.5	-87.7	254	3	
2025-07-24T00:00	19150	67	-54.2	-87.7	261	4	
2025-07-24T00:00	19200	67	-53.9	-87.5	261	3	
2025-07-24T00:00	19250	66	-53.9	-87.5	253	2	
2025-07-24T00:00	19300	66	-54.1	-87.6	247	1	
2025-07-24T00:00	19350	65	-53.9	-87.5	294	0	
2025-07-24T00:00	19400	65	-54.0	-87.3	17	1	
2025-07-24T00:00	19450	64	-54.2	-87.4	13	2	
2025-07-24T00:00	19500	64	-54.4	-87.6	5	3	
2025-07-24T00:00	19550	63	-54.2	-87.7	7	4	
2025-07-24T00:00	19600	63	-54.2	-87.6	18	4	
2025-07-24T00:00	19650	62	-54.5	-87.7	36	5	
2025-07-24T00:00	19700	62	-54.4	-87.6	52	5	
2025-07-24T00:00	19750	61	-54.1	-87.5	65	6	
2025-07-24T00:00	19800	61	-54.3	-87.6	75	6	
2025-07-24T00:00	19850	60	-54.6	-87.5	82	7	
2025-07-24T00:00	19900	60	-55.1	-87.5	90	8	
2025-07-24T00:00	19950	59	-55.4	-87.7	99	8	
2025-07-24T00:00	20000	59	-55.4	-87.7	109	7	
2025-07-24T00:00	20050	58	-55.2		115	6	
2025-07-24T00:00	20100	58	-55.2		118	4	
2025-07-24T00:00	20150	58	-55.4		123	3	
2025-07-24T00:00	20200	57	-55.2		117	2	
2025-07-24T00:00	20250	57	-54.9		101	2	
2025-07-24T00:00	20300	56	-54.5		108	3	
2025-07-24T00:00	20350	56	-54.3		129	3	
2025-07-24T00:00	20400	55	-54.0		143	3	
2025-07-24T00:00	20450	55	-53.9		145	3	
2025-07-24T00:00	20500	54	-53.9		127	2	
2025-07-24T00:00	20550	54	-53.8		100	3	
2025-07-24T00:00	20600	54	-53.8		97	4	
2025-07-24T00:00	20650	53	-53.6		107	5	
2025-07-24T00:00	20700	53	-53.3		117	6	
2025-07-24T00:00	20750	52	-53.2		125	6	
2025-07-24T00:00	20800	52	-53.3		131	6	
2025-07-24T00:00	20850	52	-53.5		134	5	
2025-07-24T00:00	20900	51	-53.4		131	4	
2025-07-24T00:00	20950	51	-53.2		118	4	
2025-07-24T00:00	21000	50	-53.1		103	4	
2025-07-24T00:00	21050	50	-53.0		97	5	
2025-07-24T00:00	21100	50	-53.0		96	5	
2025-07-24T00:00	21150	49	-53.0		98	5	
2025-07-24T00:00	21200	49	-53.0		101	5	
2025-07-24T00:00	21250	48	-53.1		97	5	
2025-07-24T00:00	21300	48	-53.2		87	5	
2025-07-24T00:00	21350	48	-53.0		82	7	
2025-07-24T00:00	21400	47	-52.8		85	8	
2025-07-24T00:00	21450	47	-52.9		92	9	
2025-07-24T00:00	21500	47	-52.9		100	8	
2025-07-24T00:00	21550	46	-52.5		107	7	
2025-07-24T00:00	21600	46	-52.6		111	7	
2025-07-24T00:00	21650	46	-52.6		107	6	
2025-07-24T00:00	21700	45	-52.6		97	5	
2025-07-24T00:00	21750	45	-52.6		85	5	
2025-07-24T00:00	21800	45	-52.7		78	5	
2025-07-24T00:00	21850	44	-52.8		75	6	
2025-07-24T00:00	21900	44	-52.9		76	7	
2025-07-24T00:00	21950	44	-53.0		80	8	
2025-07-24T00:00	22000	43	-53.1		85	9	
2025-07-24T00:00	22050	43	-53.2		89	10	
2025-07-24T00:00	22100	42	-53.2		91	10	
2025-07-24T00:00	22150	42	-53.1		93	10	
2025-07-24T00:00	22200	42	-53.0		95	10	
2025-07-24T00:00	22250	42	-53.1		99	10	
2025-07-24T00:00	22300	41	-53.2		103	10	
2025-07-24T00:00	22350	41	-53.1		106	9	
2025-07-24T00:00	22400	41	-52.9		103	8	
2025-07-24T00:00	22450	40	-52.8		96	7	
2025-07-24T00:00	22500	40	-52.7		87	6	
2025-07-24T00:00	22550	40	-52.5		80	6	
2025-07-24T00:00	22600	39	-52.4		79	7	
2025-07-24T00:00	22650	39	-52.3		84	8	
2025-07-24T00:00	22700	39	-52.3		87	9	
2025-07-24T00:00	22750	38	-52.2		87	9	
2025-07-24T00:00	22800	38	-52.2		88	9	
2025-07-24T00:00	22850	38	-52.2		92	9	
2025-07-24T00:00	22900	38	-52.3		97	9	
2025-07-24T00:00	22950	37	-52.2		99	8	
2025-07-24T00:00	23000	37	-52.2		98	8	
2025-07-24T00:00	23050	37	-52.1		94	7	
2025-07-24T00:00	23100	36	-52.0		87	6	
2025-07-24T00:00	23150	36	-52.1		78	6	
2025-07-24T00:00	23200	36	-52.1		71	7	
2025-07-24T00:00	23250	36	-52.2		68	7	
2025-07-24T00:00	23300	35	-52.4		70	8	
2025-07-24T00:00	23350	35	-52.4		72	9	
2025-07-24T00:00	23400	35	-52.2		73	10	
2025-07-24T00:00	23450	34	-52.1		72	11	
2025-07-24T00:00	23500	34	-51.7		71	12	
2025-07-24T00:00	23550	34	-51.7		71	13	
2025-07-24T00:00	23600	34	-51.6		74	13	
2025-07-24T00:00	23650	33	-51.8		78	13	
2025-07-24T00:00	23700	33	-51.9		83	12	
2025-07-24T00:00	23750	33	-51.9		87	11	
2025-07-24T00:00	23800	33	-52.1		89	11	
2025-07-24T00:00	23850	32	-52.1		91	11	
2025-07-24T00:00	23900	32	-52.0		94	11	
2025-07-24T00:00	23950	32	-51.7		98	11	
2025-07-24T00:00	24000	32	-51.4		103	10	
2025-07-24T00:00	24050	31	-51.3		107	9	
2025-07-24T00:00	24100	31	-51.4		111	8	
2025-07-24T00:00	24150	31	-51.4		114	7	
2025-07-24T00:00	24200	31	-51.4		112	7	
2025-07-24T00:00	24250	30	-51.5		105	6	
2025-07-24T00:00	24300	30	-51.5		99	6	
2025-07-24T00:00	24350	30	-51.3		92	6	
2025-07-24T00:00	24400	30	-51.1		86	6	
2025-07-24T00:00	24450	30	-51.1		81	6	
2025-07-24T00:00	24500	29	-51.3		77	7	
2025-07-24T00:00	24550	29	-51.4		72	7	
2025-07-24T00:00	24600	29	-51.1		68	8	
2025-07-24T00:00	24650	29	-50.7		65	9	
2025-07-24T00:00	24700	28	-50.5		66	11	
2025-07-24T00:00	24750	28	-50.4		69	12	
2025-07-24T00:00	24800	28	-49.8		74	12	
2025-07-24T00:00	24850	28	-49.6		80	12	
2025-07-24T00:00	24900	28	-49.4		88	12	
2025-07-24T00:00	24950	27	-49.0		91	12	
2025-07-24T00:00	25000	27	-49.0		88	12	
2025-07-24T00:00	25050	27	-49.0		82	13	
2025-07-24T00:00	25100	27	-48.8		76	13	
2025-07-24T00:00	25150	27	-48.9		70	14	
2025-07-24T00:00	25200	26	-48.9		68	15	
2025-07-24T00:00	25250	26	-48.9		69	17	
2025-07-24T00:00	25300	26	-49.0		73	17	
2025-07-24T00:00	25350	26	-49.0		78	17	
2025-07-24T00:00	25400	26	-49.1		85	16	
2025-07-24T00:00	25450	25	-48.9		92	15	
2025-07-24T00:00	25500	25	-48.7		97	14	
2025-07-24T00:00	25550	25	-48.8		99	13	
2025-07-24T00:00	25600	25	-48.8		99	12	
2025-07-24T00:00	25650	25	-48.7		94	10	
2025-07-24T00:00	25700	24	-48.3		87	10	
2025-07-24T00:00	25750	24	-47.7		81	10	
2025-07-24T00:00	25800	24	-47.5		77	11	
2025-07-24T00:00	25850	24	-47.2		74	11	
2025-07-24T00:00	25900	24	-46.9		73	12	
2025-07-24T00:00	25950	24	-46.8		74	12	
2025-07-24T00:00	26000	23	-46.9		77	13	
2025-07-24T00:00	26050	23	-47.0		80	13	
2025-07-24T00:00	26100	23	-47.0		82	12	
2025-07-24T00:00	26150	23	-47.0		84	11	
2025-07-24T00:00	26200	23	-47.1		85	11	
2025-07-24T00:00	26250	22	-46.9		83	11	
2025-07-24T00:00	26300	22	-46.3		81	11	
2025-07-24T00:00	26350	22	-46.1		80	11	
2025-07-24T00:00	26400	22	-46.1		82	11	
2025-07-24T00:00	26450	22	-45.9		86	12	
2025-07-24T00:00	26500	22	-45.5		91	12	
2025-07-24T00:00	26550	21	-45.5		95	11	
2025-07-24T00:00	26600	21	-45.7		95	10	
2025-07-24T00:00	26650	21	-45.9		92	9	
2025-07-24T00:00	26700	21	-45.7		89	9	
2025-07-24T00:00	26750	21	-45.6		85	8	
2025-07-24T00:00	26800	21	-45.3		80	8	
2025-07-24T00:00	26850	21	-45.1		74	8	
2025-07-24T00:00	26900	20	-45.1		66	8	
2025-07-24T00:00	26950	20	-45.0		57	9	
2025-07-24T00:00	27000	20	-45.1		51	10	
2025-07-24T00:00	27050	20	-45.1		49	11	
2025-07-24T00:00	27100	20	-45.2		50	11	
2025-07-24T00:00	27150	20	-45.3		52	12	
2025-07-24T00:00	27200	19	-45.4		56	12	
2025-07-24T00:00	27250	19	-45.4		62	12	
2025-07-24T00:00	27300	19	-45.6		70	11	
2025-07-24T00:00	27350	19	-45.9		79	11	
2025-07-24T00:00	27400	19	-45.9		87	11	
2025-07-24T00:00	27450	19	-45.7		92	11	
2025-07-24T00:00	27500	19	-45.7		93	11	
2025-07-24T00:00	27550	18	-45.6		89	10	
2025-07-24T00:00	27600	18	-45.6		82	9	
2025-07-24T00:00	27650	18	-45.6		75	9	
2025-07-24T00:00	27700	18	-45.7		71	10	
2025-07-24T00:00	27750	18	-45.6		72	11	
2025-07-24T00:00	27800	18	-45.6		74	13	
2025-07-24T00:00	27850	18	-45.7		76	14	
2025-07-24T00:00	27900	18	-45.8		79	15	
2025-07-24T00:00	27950	17	-45.8		83	15	
2025-07-24T00:00	28000	17	-46.0		87	15	
2025-07-24T00:00	28050	17	-46.2		90	14	
2025-07-24T00:00	28100	17	-46.2		90	14	
2025-07-24T00:00	28150	17	-46.0		89	15	
2025-07-24T00:00	28200	17	-45.7		90	16	
2025-07-24T00:00	28250	17	-45.3		93	16	
2025-07-24T00:00	28300	17	-44.9		97	16	
2025-07-24T00:00	28350	16	-45.1		103	16	
2025-07-24T00:00	28400	16	-45.4		110	16	
2025-07-24T00:00	28450	16	-45.6		115	15	
2025-07-24T00:00	28500	16	-45.5		117	14	
2025-07-24T00:00	28550	16	-45.3		115	13	
2025-07-24T00:00	28600	16	-45.1		111	12	
2025-07-24T00:00	28650	16	-45.0		104	12	
2025-07-24T00:00	28700	16	-45.0		98	13	
2025-07-24T00:00	28750	15	-45.0		94	14	
2025-07-24T00:00	28800	15	-45.0		93	15	
2025-07-24T00:00	28850	15	-44.9		93	15	
2025-07-24T00:00	28900	15	-44.8		92	15	
2025-07-24T00:00	28950	15	-44.9		90	16	
2025-07-24T00:00	29000	15	-44.9		89	16	
2025-07-24T00:00	29050	15	-44.9		89	17	
2025-07-24T00:00	29100	15	-44.8		91	17	
2025-07-24T00:00	29150	15	-44.6		93	17	
2025-07-24T00:00	29200	14	-44.3		95	16	
2025-07-24T00:00	29250	14	-44.4		97	15	
2025-07-24T00:00	29300	14	-44.8		98	14	
2025-07-24T00:00	29350	14	-45.0		97	13	
2025-07-24T00:00	29400	14	-45.1		94	13	
2025-07-24T00:00	29450	14	-45.0		90	13	
2025-07-24T00:00	29500	14	-44.9		89	14	
2025-07-24T00:00	29550	14	-44.8		89	15	
2025-07-24T00:00	29600	14	-44.6		91	16	
2025-07-24T00:00	29650	13	-44.6		92	15	
2025-07-24T00:00	29700	13	-44.5		90	15	
2025-07-24T00:00	29750	13	-44.2		85	15	
2025-07-24T00:00	29800	13	-44.0		80	15	
2025-07-24T00:00	29850	13	-43.9		78	16	
2025-07-24T00:00	29900	13	-43.7		80	17	
2025-07-24T00:00	29950	13	-43.4		84	17	
2025-07-24T00:00	30000	13	-43.4		88	16	
2025-07-24T00:00	30050	13	-43.4		89	16	
2025-07-24T00:00	30100	13	-43.4		89	15	
2025-07-24T00:00	30150	13	-43.6		87	15	
2025-07-24T00:00	30200	12	-43.4		84	15	
2025-07-24T00:00	30250	12	-43.0		83	15	
2025-07-24T00:00	30300	12	-42.8		85	16	
2025-07-24T00:00	30350	12	-42.6		89	16	
2025-07-24T00:00	30400	12	-42.6		93	16	
2025-07-24T00:00	30450	12	-42.5		94	15	
2025-07-24T00:00	30500	12	-42.4		93	15	
2025-07-24T00:00	30550	12	-42.3		91	14	
2025-07-24T00:00	30600	12	-42.2		92	14	
2025-07-24T00:00	30650	12	-42.1		94	14	
2025-07-24T00:00	30700	12	-41.9		93	14	
2025-07-24T00:00	30750	11	-41.8		89	14	
2025-07-24T00:00	30800	11	-41.5		83	15	
2025-07-24T00:00	30850	11	-41.1		80	15	
2025-07-24T00:00	30900	11	-40.9		79	16	
2025-07-24T00:00	30950	11	-40.8		81	17	
2025-07-24T00:00	31000	11	-40.8		82	17	
2025-07-24T00:00	31050	11	-40.9		83	16	
2025-07-24T00:00	31100	11	-40.6		85	16	
2025-07-24T00:00	31150	11	-40.5		87	16	
2025-07-24T00:00	31200	11	-40.5		90	16	
2025-07-24T00:00	31250	11	-40.5		93	16	
2025-07-24T00:00	31300	11	-40.6		95	16	
2025-07-24T00:00	31350	10	-40.7		94	15	
2025-07-24T00:00	31400	10	-40.7		91	15	
2025-07-24T00:00	31450	10	-40.6		88	14	
2025-07-24T00:00	31500	10	-40.5		85	14	
2025-07-24T00:00	31550	10	-40.6		81	14	
2025-07-24T00:00	31600	10	-40.6		78	14	
2025-07-24T00:00	31650	10	-40.3		75	15	
2025-07-24T00:00	31700	10	-40.0		73	15	
2025-07-24T00:00	31750	10	-39.8		73	16	
2025-07-24T00:00	31800	10	-39.6		73	17	
2025-07-24T00:00	31850	10	-39.6		75	17	
2025-07-24T00:00	31900	10	-39.6		76	18	
2025-07-24T00:00	31950	10	-39.7		78	18	
2025-07-24T00:00	32000	10	-39.8		81	19	
2025-07-24T00:00	32050	9	-39.8		86	19	
2025-07-24T00:00	32100	9	-39.7		91	18	
2025-07-24T00:00	32150	9	-39.7		93	18	
2025-07-24T00:00	32200	9	-39.3		91	17	
2025-07-24T00:00	32250	9	-38.8		88	16	
2025-07-24T00:00	32300	9	-38.7		85	15	
2025-07-24T00:00	32350	9	-38.3		82	15	
2025-07-24T00:00	32400	9	-38.1		77	14	
2025-07-24T00:00	32450	9	-37.8		72	14	
2025-07-24T00:00	32500	9	-37.6		70	14	
2025-07-24T00:00	32550	9	-37.3		72	14	
2025-07-24T00:00	32600	9	-37.0		76	14	
2025-07-24T00:00	32650	9	-37.0		79	14	
2025-07-24T00:00	32700	9	-37.1		81	15	
2025-07-24T00:00	32750	9	-37.3		81	15	
2025-07-24T00:00	32800	8	-37.4		82	15	
2025-07-24T00:00	32850	8	-37.3		83	15	
2025-07-24T00:00	32900	8	-37.3		83	14	
2025-07-24T00:00	32950	8	-37.3		81	14	
2025-07-24T00:00	33000	8	-37.3		77	13	
2025-07-24T00:00	33050	8	-37.2		73	12	
2025-07-24T00:00	33100	8	-36.8		68	12	
2025-07-24T00:00	33150	8	-36.5		65	11	
2025-07-24T00:00	33200	8	-36.4		62	11	
2025-07-24T00:00	33250	8	-36.5		60	11	
2025-07-24T00:00	33300	8	-36.6		59	11	
2025-07-24T00:00	33350	8	-36.8		58	12	
2025-07-24T00:00	33400	8	-36.8		59	14	
2025-07-24T00:00	33450	8	-36.6		61	16	
2025-07-24T00:00	33500	8	-36.5		62	17	
2025-07-24T00:00	33550	8	-36.6		63	19	
2025-07-24T00:00	33600	8	-36.6		62	19	
2025-07-24T00:00	33650	8	-36.4		62	19	
2025-07-24T00:00	33700	7	-36.4		60	18	
2025-07-24T00:00	33750	7	-36.3		59	17	
2025-07-24T00:00	33800	7	-36.3		57	16	
2025-07-24T00:00	33850	7	-36.5		56	16	
2025-07-24T00:00	33900	7	-36.6		57	17	
2025-07-24T00:00	33950	7	-36.6		59	18	
2025-07-24T00:00	34000	7	-36.4		62	19	
2025-07-24T00:00	34050	7	-36.2		66	21	
2025-07-24T00:00	34100	7	-35.9		70	22	
2025-07-24T00:00	34150	7	-35.7		72	23	
2025-07-24T00:00	34200	7	-35.5		74	24	
2025-07-24T00:00	34250	7	-35.4		74	23	
2025-07-24T00:00	34300	7	-35.3		73	23	
2025-07-24T00:00	34350	7	-35.0		73	23	
2025-07-24T00:00	34400	7	-34.6		74	23	
2025-07-24T00:00	34450	7	-34.3		74	22	
2025-07-24T00:00	34500	7	-34.1		73	21	
2025-07-24T00:00	34550	7	-33.8		72	19	
2025-07-24T00:00	34600	7	-33.7		71	19	
2025-07-24T00:00	34650	7	-33.6		71	19	
2025-07-24T00:00	34700	6	-33.4		70	21	
2025-07-24T00:00	34750	6	-33.3		70	23	
2025-07-24T00:00	34800	6	-33.4		71	25	
2025-07-24T00:00	34850	6	-33.5		73	26	
2025-07-24T00:00	34900	6	-33.6		76	27	
2025-07-24T00:00	34950	6	-33.6		79	28	
2025-07-24T00:00	35000	6	-33.3		80	27	
2025-07-24T00:00	35050	6	-32.9		82	26	
2025-07-24T00:00	35100	6	-32.9		84	24	
2025-07-24T00:00	35150	6	-33.1		85	23	
2025-07-24T00:00	35200	6	-32.9		84	21	
2025-07-24T00:00	35250	6	-32.6		84	21	
2025-07-24T00:00	35300	6	-32.4		84	22	
2025-07-24T00:00	35350	6	-32.2		84	23	
2025-07-24T00:00	35400	6	-31.8		84	23	
2025-07-24T00:00	35450	6	-31.6		85	22	
2025-07-24T00:00	35500	6	-31.5		85	21	
2025-07-24T00:00	35550	6	-31.4		85	20	
2025-07-24T00:00	35600	6	-31.3		85	20	
2025-07-24T00:00	35650	6	-31.3		83	20	
2025-07-24T00:00	35700	6	-31.2		83	21	
2025-07-24T00:00	35750	6	-31.1		84	22	
2025-07-24T00:00	35800	6	-30.9		86	23	
2025-07-24T00:00	35850	5	-30.9		88	24	
2025-07-24T00:00	35900	5	-31.0		90	24	
2025-07-24T00:00	35950	5	-30.9		91	24	
2025-07-24T00:00	36000	5	-30.7		89	23	
2025-07-24T00:00	36050	5	-30.5		87	22	
2025-07-24T00:00	36100	5	-30.6		83	22	
2025-07-24T00:00	36150	5	-30.6		81	22	
2025-07-24T00:00	36200	5	-30.7		80	22	
2025-07-24T00:00	36250	5	-30.5		80	22	
2025-07-24T00:00	36300	5	-30.3		82	22	
2025-07-24T00:00	36350	5	-30.1		84	23	
2025-07-24T00:00	36400	5	-30.1		85	23	
2025-07-24T00:00	36450	5	-30.1		85	24	
2025-07-24T00:00	36500	5	-30.1		84	23	
2025-07-24T00:00	36550	5	-30.0		83	23	
2025-07-24T00:00	36600	5	-29.9		83	22	
2025-07-24T00:00	36650	5	-29.9		83	21	
2025-07-24T00:00	36700	5	-29.9		82	21	
2025-07-24T00:00	36750	5	-30.0		81	22	
2025-07-24T12:00	491	957	21.7	10.2	308	3	
2025-07-24T12:00	501	956	21.2	9.7	316	3	
2025-07-24T12:00	520	954	20.8	9.5	316	3	
2025-07-24T12:00	540	952	20.6	9.4	312	3	
2025-07-24T12:00	560	950	20.2	9.4	309	4	
2025-07-24T12:00	580	947	19.7	9.5	306	4	
2025-07-24T12:00	600	945	19.4	9.6	304	5	
2025-07-24T12:00	620	943	19.2	9.7	304	6	
2025-07-24T12:00	640	941	18.8	9.6	303	6	
2025-07-24T12:00	660	939	18.5	9.7	303	6	
2025-07-24T12:00	680	936	18.3	9.6	302	6	
2025-07-24T12:00	700	934	18.0	9.5	302	6	
2025-07-24T12:00	720	932	17.7	9.5	301	6	
2025-07-24T12:00	740	930	17.6	9.5	300	6	
2025-07-24T12:00	760	928	17.2	9.6	299	6	
2025-07-24T12:00	780	925	16.9	9.5	299	5	
2025-07-24T12:00	800	923	16.8	9.5	299	5	
2025-07-24T12:00	820	921	16.6	9.3	300	5	
2025-07-24T12:00	840	919	16.6	9.2	301	4	
2025-07-24T12:00	860	917	16.7	9.1	302	4	
2025-07-24T12:00	880	915	16.5	9.0	302	4	
2025-07-24T12:00	900	912	16.3	9.0	302	3	
2025-07-24T12:00	920	911	16.2	8.9	301	3	
2025-07-24T12:00	940	908	16.2	8.7	300	3	
2025-07-24T12:00	960	906	16.0	8.9	298	3	
2025-07-24T12:00	980	904	15.6	8.9	296	3	
2025-07-24T12:00	1000	902	15.5	8.6	295	2	
2025-07-24T12:00	1020	900	15.2	8.7	294	2	
2025-07-24T12:00	1040	898	15.0	8.5	295	2	
2025-07-24T12:00	1060	896	14.9	8.0	298	2	
2025-07-24T12:00	1080	894	14.9	7.5	302	2	
2025-07-24T12:00	1100	891	14.7	7.5	308	2	
2025-07-24T12:00	1120	889	14.5	7.6	311	2	
2025-07-24T12:00	1140	887	14.3	7.6	314	2	
2025-07-24T12:00	1160	885	14.1	7.5	314	2	
2025-07-24T12:00	1180	883	13.9	7.5	314	2	
2025-07-24T12:00	1200	881	13.7	7.5	314	2	
2025-07-24T12:00	1220	879	13.6	7.5	312	2	
2025-07-24T12:00	1240	877	13.4	7.4	309	2	
2025-07-24T12:00	1260	875	13.2	7.3	305	2	
2025-07-24T12:00	1280	872	13.0	7.6	301	2	
2025-07-24T12:00	1300	870	12.8	7.4	296	2	
2025-07-24T12:00	1320	868	12.6	7.4	292	1	
2025-07-24T12:00	1340	866	12.4	7.4	291	2	
2025-07-24T12:00	1360	864	12.2	7.3	294	2	
2025-07-24T12:00	1380	862	12.0	7.3	298	2	
2025-07-24T12:00	1400	860	11.9	7.1	304	2	
2025-07-24T12:00	1420	858	11.7	6.8	310	2	
2025-07-24T12:00	1440	856	11.5	7.0	315	2	
2025-07-24T12:00	1460	854	11.3	7.3	320	2	
2025-07-24T12:00	1480	852	11.1	7.2	324	2	
2025-07-24T12:00	1500	850	10.9	7.1	327	2	
2025-07-24T12:00	1520	848	10.7	7.1	330	2	
2025-07-24T12:00	1540	846	10.5	7.0	335	2	
2025-07-24T12:00	1560	844	10.3	7.1	340	2	
2025-07-24T12:00	1580	842	10.1	7.1	345	2	
2025-07-24T12:00	1600	840	9.9	7.0	349	2	
2025-07-24T12:00	1620	838	9.7	6.9	355	2	
2025-07-24T12:00	1640	836	9.5	6.8	2	2	
2025-07-24T12:00	1660	834	9.3	6.8	9	2	
2025-07-24T12:00	1680	832	9.1	6.9	19	2	
2025-07-24T12:00	1700	830	8.9	6.8	29	2	
2025-07-24T12:00	1720	828	8.7	6.8	42	1	
2025-07-24T12:00	1740	826	8.6	6.8	53	1	
2025-07-24T12:00	1760	824	8.4	6.9	59	2	
2025-07-24T12:00	1780	822	8.2	6.8	64	1	
2025-07-24T12:00	1800	820	8.0	6.8	70	1	
2025-07-24T12:00	1820	818	7.8	6.7	82	1	
2025-07-24T12:00	1840	816	7.6	6.7	100	1	
2025-07-24T12:00	1860	814	7.4	6.6	122	1	
2025-07-24T12:00	1880	812	7.2	6.6	138	1	
2025-07-24T12:00	1900	810	7.1	6.5	148	1	
2025-07-24T12:00	1920	808	6.8	6.5	148	1	
2025-07-24T12:00	1940	806	6.7	6.4	140	1	
2025-07-24T12:00	1960	804	6.5	6.3	127	1	
2025-07-24T12:00	1980	802	6.3	6.3	110	1	
2025-07-24T12:00	2000	800	6.2	6.2	94	1	
2025-07-24T12:00	2020	798	6.0	6.0	77	1	
2025-07-24T12:00	2040	796	5.8	5.8	62	1	
2025-07-24T12:00	2060	794	5.7	5.7	34	1	
2025-07-24T12:00	2080	792	5.5	5.5	337	1	
2025-07-24T12:00	2100	790	5.4	5.4	307	1	
2025-07-24T12:00	2120	788	5.4	5.4	292	0	
2025-07-24T12:00	2140	786	5.2	5.2	179	0	
2025-07-24T12:00	2160	785	5.2	5.2	149	1	
2025-07-24T12:00	2180	783	5.1	5.1	151	2	
2025-07-24T12:00	2200	781	5.0	5.0	157	2	
2025-07-24T12:00	2220	779	4.8	4.2	163	2	
2025-07-24T12:00	2240	777	4.6	3.2	172	2	
2025-07-24T12:00	2260	775	4.6	3.0	182	2	
2025-07-24T12:00	2280	773	4.6	3.1	194	2	
2025-07-24T12:00	2300	771	4.4	3.1	207	2	
2025-07-24T12:00	2320	769	4.2	3.3	217	2	
2025-07-24T12:00	2340	768	4.2	2.9	225	2	
2025-07-24T12:00	2360	766	4.1	2.9	228	2	
2025-07-24T12:00	2380	764	3.9	2.9	224	1	
2025-07-24T12:00	2400	762	3.7	2.9	214	2	
2025-07-24T12:00	2420	760	3.6	3.0	204	2	
2025-07-24T12:00	2440	758	3.5	2.6	198	2	
2025-07-24T12:00	2460	756	3.4	2.5	197	3	
2025-07-24T12:00	2480	754	3.2	2.5	198	4	
2025-07-24T12:00	2500	753	3.1	2.9	200	4	
2025-07-24T12:00	2520	751	3.0	3.0	201	5	
2025-07-24T12:00	2540	749	2.8	2.8	202	6	
2025-07-24T12:00	2560	747	2.8	2.8	202	7	
2025-07-24T12:00	2580	745	2.5	1.6	203	8	
2025-07-24T12:00	2600	743	2.3	-1.3	204	8	
2025-07-24T12:00	2620	741	2.4	-1.3	206	9	
2025-07-24T12:00	2640	740	2.7	-1.4	208	9	
2025-07-24T12:00	2660	738	3.0	-1.3	210	9	
2025-07-24T12:00	2680	736	3.0	-1.8	211	9	
2025-07-24T12:00	2700	734	2.9	-2.1	213	8	
2025-07-24T12:00	2720	732	2.9	-2.2	213	8	
2025-07-24T12:00	2740	731	2.8	-2.4	212	8	
2025-07-24T12:00	2760	729	2.6	-2.6	211	8	
2025-07-24T12:00	2780	727	2.4	-2.6	209	8	
2025-07-24T12:00	2800	725	2.2	-2.6	207	8	
2025-07-24T12:00	2820	723	2.0	-2.7	205	8	
2025-07-24T12:00	2840	722	1.9	-2.8	203	9	
2025-07-24T12:00	2860	720	1.7	-3.0	201	9	
2025-07-24T12:00	2880	718	1.6	-3.3	199	10	
2025-07-24T12:00	2900	716	1.5	-3.4	198	10	
2025-07-24T12:00	2920	714	1.3	-3.3	197	10	
2025-07-24T12:00	2940	713	1.1	-3.5	197	11	
2025-07-24T12:00	2960	711	0.9	-3.5	197	11	
2025-07-24T12:00	2980	709	0.8	-3.4	198	10	
2025-07-24T12:00	3000	707	0.6	-3.5	198	10	
2025-07-24T12:00	3020	706	0.5	-3.7	198	10	
2025-07-24T12:00	3040	704	0.3	-3.7	197	10	
2025-07-24T12:00	3060	702	0.1	-3.6	197	10	
2025-07-24T12:00	3080	700	-0.1	-3.8	197	9	
2025-07-24T12:00	3100	699	-0.2	-3.9	198	9	
2025-07-24T12:00	3120	697	-0.4	-3.9	198	9	
2025-07-24T12:00	3140	695	-0.6	-3.9	200	9	
2025-07-24T12:00	3160	693	-0.8	-4.1	202	9	
2025-07-24T12:00	3180	692	-1.0	-4.1	203	9	
2025-07-24T12:00	3200	690	-1.2	-4.1	205	9	
2025-07-24T12:00	3220	688	-1.3	-4.3	207	9	
2025-07-24T12:00	3240	687	-1.5	-4.5	208	9	
2025-07-24T12:00	3260	685	-1.6	-4.7	208	9	
2025-07-24T12:00	3280	683	-1.8	-4.9	207	9	
2025-07-24T12:00	3300	681	-2.0	-4.9	205	9	
2025-07-24T12:00	3320	680	-2.2	-5.0	204	9	
2025-07-24T12:00	3340	678	-2.4	-5.1	202	9	
2025-07-24T12:00	3360	676	-2.4	-5.4	202	9	
2025-07-24T12:00	3380	675	-2.5	-5.6	203	9	
2025-07-24T12:00	3400	673	-2.7	-5.6	204	9	
2025-07-24T12:00	3420	671	-2.8	-5.7	205	9	
2025-07-24T12:00	3440	669	-2.9	-6.1	206	9	
2025-07-24T12:00	3460	668	-2.9	-7.1	205	9	
2025-07-24T12:00	3480	666	-2.9	-7.7	204	9	
2025-07-24T12:00	3500	664	-2.9	-8.4	202	8	
2025-07-24T12:00	3520	663	-3.0	-8.9	200	8	
2025-07-24T12:00	3540	661	-3.1	-9.0	198	8	
2025-07-24T12:00	3560	659	-3.3	-9.1	198	8	
2025-07-24T12:00	3580	658	-3.4	-9.9	199	9	
2025-07-24T12:00	3600	656	-3.2	-11.8	201	9	
2025-07-24T12:00	3620	654	-3.3	-12.0	203	10	
2025-07-24T12:00	3640	653	-3.5	-12.2	206	10	
2025-07-24T12:00	3660	651	-3.6	-12.5	208	10	
2025-07-24T12:00	3680	650	-3.8	-12.7	209	10	
2025-07-24T12:00	3700	648	-4.0	-13.0	210	10	
2025-07-24T12:00	3720	646	-4.2	-12.9	210	10	
2025-07-24T12:00	3740	645	-4.4	-12.1	211	10	
2025-07-24T12:00	3760	643	-4.6	-11.6	212	9	
2025-07-24T12:00	3780	641	-4.9	-10.6	214	9	
2025-07-24T12:00	3800	640	-5.1	-11.4	216	8	
2025-07-24T12:00	3820	638	-5.3	-11.0	218	8	
2025-07-24T12:00	3840	637	-5.5	-11.1	219	8	
2025-07-24T12:00	3860	635	-5.6	-12.0	218	7	
2025-07-24T12:00	3880	633	-5.8	-12.8	216	7	
2025-07-24T12:00	3900	632	-5.9	-12.3	212	7	
2025-07-24T12:00	3920	630	-6.2	-11.2	208	6	
2025-07-24T12:00	3940	628	-6.3	-12.3	203	6	
2025-07-24T12:00	3960	627	-6.4	-12.8	198	6	
2025-07-24T12:00	3980	625	-6.6	-12.6	197	6	
2025-07-24T12:00	4000	623	-6.8	-12.6	197	6	
2025-07-24T12:00	4020	622	-6.9	-13.1	197	6	
2025-07-24T12:00	4040	620	-7.1	-13.2	200	7	
2025-07-24T12:00	4060	619	-7.3	-13.6	203	7	
2025-07-24T12:00	4080	617	-7.5	-13.5	205	7	
2025-07-24T12:00	4100	616	-7.8	-12.3	208	7	
2025-07-24T12:00	4120	614	-7.9	-14.0	209	7	
2025-07-24T12:00	4140	612	-8.1	-14.1	209	8	
2025-07-24T12:00	4160	611	-8.3	-14.1	208	8	
2025-07-24T12:00	4180	609	-8.5	-13.7	207	8	
2025-07-24T12:00	4200	608	-8.5	-16.5	205	9	
2025-07-24T12:00	4220	606	-8.6	-17.8	202	9	
2025-07-24T12:00	4240	604	-8.8	-18.6	199	10	
2025-07-24T12:00	4260	603	-9.0	-19.0	197	10	
2025-07-24T12:00	4280	602	-9.1	-18.9	195	10	
2025-07-24T12:00	4300	600	-9.2	-18.3	193	10	
2025-07-24T12:00	4320	598	-9.4	-18.2	191	9	
2025-07-24T12:00	4340	597	-9.6	-18.4	190	9	
2025-07-24T12:00	4360	595	-9.7	-18.9	190	9	
2025-07-24T12:00	4380	594	-9.9	-19.2	191	9	
2025-07-24T12:00	4400	592	-10.0	-20.3	193	10	
2025-07-24T12:00	4420	591	-10.0	-20.3	194	10	
2025-07-24T12:00	4440	589	-9.9	-19.8	195	11	
2025-07-24T12:00	4460	588	-9.8	-20.2	196	12	
2025-07-24T12:00	4480	586	-9.7	-20.9	196	12	
2025-07-24T12:00	4500	584	-9.6	-21.6	196	13	
2025-07-24T12:00	4520	583	-9.7	-21.7	196	13	
2025-07-24T12:00	4540	582	-9.8	-22.0	197	13	
2025-07-24T12:00	4560	580	-9.9	-22.2	198	13	
2025-07-24T12:00	4580	579	-10.1	-22.3	199	13	
2025-07-24T12:00	4600	577	-10.2	-22.4	202	14	
2025-07-24T12:00	4620	575	-10.3	-22.8	204	14	
2025-07-24T12:00	4640	574	-10.2	-23.3	205	14	
2025-07-24T12:00	4660	572	-10.3	-23.4	207	14	
2025-07-24T12:00	4680	571	-10.4	-23.4	208	15	
2025-07-24T12:00	4700	569	-10.5	-23.5	209	15	
2025-07-24T12:00	4720	568	-10.6	-23.8	209	15	
2025-07-24T12:00	4740	567	-10.6	-24.3	210	15	
2025-07-24T12:00	4760	565	-10.7	-24.6	211	15	
2025-07-24T12:00	4780	564	-10.9	-24.6	212	15	
2025-07-24T12:00	4800	562	-11.0	-25.6	212	14	
2025-07-24T12:00	4820	561	-11.0	-27.3	211	14	
2025-07-24T12:00	4840	559	-11.0	-28.4	209	14	
2025-07-24T12:00	4860	558	-11.0	-30.3	208	14	
2025-07-24T12:00	4880	556	-11.2	-30.8	207	14	
2025-07-24T12:00	4900	555	-11.3	-31.0	207	14	
2025-07-24T12:00	4920	553	-11.4	-31.2	207	14	
2025-07-24T12:00	4940	552	-11.5	-31.2	207	14	
2025-07-24T12:00	4960	551	-11.6	-31.1	206	14	
2025-07-24T12:00	4980	549	-11.8	-30.8	205	14	
2025-07-24T12:00	5000	548	-11.9	-30.7	204	14	
2025-07-24T12:00	5020	546	-12.1	-30.7	203	14	
2025-07-24T12:00	5040	545	-12.2	-30.3	202	14	
2025-07-24T12:00	5060	543	-12.3	-29.3	203	14	
2025-07-24T12:00	5080	542	-12.4	-26.3	203	14	
2025-07-24T12:00	5100	540	-12.5	-24.4	204	14	
2025-07-24T12:00	5120	539	-12.7	-24.6	204	14	
2025-07-24T12:00	5140	538	-12.8	-24.8	205	14	
2025-07-24T12:00	5160	536	-13.0	-25.0	206	14	
2025-07-24T12:00	5180	535	-13.2	-25.6	207	14	
2025-07-24T12:00	5200	534	-13.4	-26.3	208	14	
2025-07-24T12:00	5220	532	-13.5	-26.4	209	14	
2025-07-24T12:00	5240	531	-13.7	-26.0	211	14	
2025-07-24T12:00	5260	529	-13.9	-25.5	213	14	
2025-07-24T12:00	5280	528	-14.0	-25.2	214	14	
2025-07-24T12:00	5300	527	-14.2	-25.4	214	14	
2025-07-24T12:00	5320	525	-14.3	-25.9	214	14	
2025-07-24T12:00	5340	524	-14.4	-26.8	213	14	
2025-07-24T12:00	5360	523	-14.6	-27.4	212	14	
2025-07-24T12:00	5380	521	-14.7	-28.1	212	14	
2025-07-24T12:00	5400	520	-14.9	-29.5	211	14	
2025-07-24T12:00	5420	518	-14.9	-31.4	211	14	
2025-07-24T12:00	5440	517	-15.0	-32.9	211	14	
2025-07-24T12:00	5460	516	-15.1	-34.4	211	14	
2025-07-24T12:00	5480	514	-15.3	-35.6	211	14	
2025-07-24T12:00	5500	513	-15.4	-36.4	212	14	
2025-07-24T12:00	5520	511	-15.6	-36.8	214	14	
2025-07-24T12:00	5540	510	-15.7	-37.3	215	13	
2025-07-24T12:00	5560	509	-15.9	-37.5	215	13	
2025-07-24T12:00	5580	507	-16.0	-37.9	215	13	
2025-07-24T12:00	5600	506	-16.2	-38.1	214	13	
2025-07-24T12:00	5620	505	-16.4	-38.3	213	12	
2025-07-24T12:00	5640	503	-16.6	-38.6	212	12	
2025-07-24T12:00	5660	502	-16.8	-38.8	211	12	
2025-07-24T12:00	5680	501	-16.9	-38.9	210	13	
2025-07-24T12:00	5700	499	-17.0	-39.1	210	13	
2025-07-24T12:00	5720	498	-17.2	-39.1	209	13	
2025-07-24T12:00	5740	497	-17.3	-39.0	210	13	
2025-07-24T12:00	5760	495	-17.5	-38.9	210	13	
2025-07-24T12:00	5780	494	-17.7	-38.9	211	14	
2025-07-24T12:00	5800	493	-17.8	-39.0	212	14	
2025-07-24T12:00	5820	491	-18.0	-39.1	212	14	
2025-07-24T12:00	5840	490	-18.1	-39.1	212	14	
2025-07-24T12:00	5860	489	-18.3	-39.1	212	14	
2025-07-24T12:00	5880	487	-18.5	-39.1	212	14	
2025-07-24T12:00	5900	486	-18.6	-38.4	212	14	
2025-07-24T12:00	5920	485	-18.8	-36.1	212	14	
2025-07-24T12:00	5940	484	-18.9	-36.2	211	14	
2025-07-24T12:00	5960	482	-19.1	-37.0	211	14	
2025-07-24T12:00	5980	481	-19.2	-37.3	211	14	
2025-07-24T12:00	6000	480	-19.4	-37.4	211	14	
2025-07-24T12:00	6020	478	-19.5	-37.4	211	13	
2025-07-24T12:00	6040	477	-19.7	-35.4	210	13	
2025-07-24T12:00	6060	476	-19.8	-33.8	210	13	
2025-07-24T12:00	6080	475	-20.0	-33.5	210	13	
2025-07-24T12:00	6100	473	-20.2	-32.4	209	13	
2025-07-24T12:00	6120	472	-20.4	-30.4	208	13	
2025-07-24T12:00	6140	471	-20.6	-29.7	207	13	
2025-07-24T12:00	6160	470	-20.7	-29.9	206	13	
2025-07-24T12:00	6180	468	-20.9	-30.4	205	14	
2025-07-24T12:00	6200	467	-21.1	-28.7	204	14	
2025-07-24T12:00	6220	466	-21.3	-28.3	203	14	
2025-07-24T12:00	6240	464	-21.4	-28.5	202	15	
2025-07-24T12:00	6260	463	-21.6	-28.6	202	15	
2025-07-24T12:00	6280	462	-21.7	-28.7	202	15	
2025-07-24T12:00	6300	461	-21.9	-28.8	202	15	
2025-07-24T12:00	6320	459	-22.1	-28.9	202	15	
2025-07-24T12:00	6340	458	-22.2	-28.9	203	15	
2025-07-24T12:00	6360	457	-22.4	-28.9	203	15	
2025-07-24T12:00	6380	455	-22.6	-29.0	202	15	
2025-07-24T12:00	6400	454	-22.8	-29.2	202	15	
2025-07-24T12:00	6420	453	-22.8	-29.4	202	15	
2025-07-24T12:00	6440	452	-22.9	-28.9	203	15	
2025-07-24T12:00	6460	451	-23.0	-28.9	203	15	
2025-07-24T12:00	6480	449	-23.1	-28.7	204	14	
2025-07-24T12:00	6500	448	-23.3	-28.9	205	14	
2025-07-24T12:00	6520	447	-23.4	-29.2	205	14	
2025-07-24T12:00	6540	446	-23.6	-28.6	205	14	
2025-07-24T12:00	6560	445	-23.8	-28.3	205	14	
2025-07-24T12:00	6580	443	-23.9	-27.9	205	14	
2025-07-24T12:00	6600	442	-24.0	-27.5	204	14	
2025-07-24T12:00	6620	441	-24.1	-27.7	204	14	
2025-07-24T12:00	6640	440	-24.3	-27.1	205	14	
2025-07-24T12:00	6660	438	-24.4	-27.2	204	15	
2025-07-24T12:00	6680	437	-24.5	-27.4	204	15	
2025-07-24T12:00	6700	436	-24.7	-27.3	203	15	
2025-07-24T12:00	6720	435	-24.8	-27.3	204	15	
2025-07-24T12:00	6740	434	-25.0	-27.3	204	16	
2025-07-24T12:00	6760	433	-25.2	-27.2	205	16	
2025-07-24T12:00	6780	431	-25.3	-27.1	206	16	
2025-07-24T12:00	6800	430	-25.5	-26.9	207	16	
2025-07-24T12:00	6820	429	-25.6	-27.2	208	16	
2025-07-24T12:00	6840	428	-25.7	-27.4	208	16	
2025-07-24T12:00	6860	427	-25.8	-27.6	208	16	
2025-07-24T12:00	6880	425	-26.0	-27.7	208	16	
2025-07-24T12:00	6900	424	-26.0	-28.0	207	16	
2025-07-24T12:00	6920	423	-26.1	-28.4	207	16	
2025-07-24T12:00	6940	422	-26.1	-28.6	207	16	
2025-07-24T12:00	6960	421	-26.1	-29.0	208	16	
2025-07-24T12:00	6980	420	-26.2	-29.6	209	16	
2025-07-24T12:00	7000	418	-26.3	-29.6	210	17	
2025-07-24T12:00	7020	417	-26.5	-29.8	212	17	
2025-07-24T12:00	7040	416	-26.6	-30.0	213	17	
2025-07-24T12:00	7060	415	-26.7	-30.0	214	16	
2025-07-24T12:00	7080	414	-26.8	-30.2	215	16	
2025-07-24T12:00	7100	413	-26.8	-30.9	216	16	
2025-07-24T12:00	7120	411	-26.9	-31.3	217	16	
2025-07-24T12:00	7140	410	-26.9	-31.6	218	16	
2025-07-24T12:00	7160	409	-27.0	-31.7	219	16	
2025-07-24T12:00	7180	408	-27.1	-31.7	219	16	
2025-07-24T12:00	7200	407	-27.3	-31.9	220	16	
2025-07-24T12:00	7220	406	-27.5	-31.9	221	17	
2025-07-24T12:00	7240	405	-27.7	-31.9	221	17	
2025-07-24T12:00	7260	404	-27.9	-31.9	221	17	
2025-07-24T12:00	7280	403	-28.1	-32.0	222	17	
2025-07-24T12:00	7300	401	-28.3	-32.1	222	17	
2025-07-24T12:00	7320	400	-28.4	-32.3	221	17	
2025-07-24T12:00	7340	399	-28.6	-32.2	221	17	
2025-07-24T12:00	7360	398	-28.8	-32.3	221	17	
2025-07-24T12:00	7380	397	-29.0	-32.7	220	17	
2025-07-24T12:00	7400	396	-29.0	-33.6	219	17	
2025-07-24T12:00	7420	395	-29.1	-33.8	218	17	
2025-07-24T12:00	7440	394	-29.3	-34.0	217	17	
2025-07-24T12:00	7460	393	-29.4	-34.1	217	17	
2025-07-24T12:00	7480	392	-29.6	-34.3	216	17	
2025-07-24T12:00	7500	390	-29.7	-34.7	216	17	
2025-07-24T12:00	7520	389	-29.9	-35.0	216	17	
2025-07-24T12:00	7540	388	-30.1	-35.3	217	17	
2025-07-24T12:00	7560	387	-30.2	-35.3	218	17	
2025-07-24T12:00	7580	386	-30.4	-35.2	220	17	
2025-07-24T12:00	7600	385	-30.6	-35.1	221	17	
2025-07-24T12:00	7620	384	-30.8	-35.4	222	18	
2025-07-24T12:00	7640	383	-31.0	-35.4	222	18	
2025-07-24T12:00	7660	382	-31.2	-35.4	222	18	
2025-07-24T12:00	7680	381	-31.4	-35.4	222	18	
2025-07-24T12:00	7700	379	-31.6	-35.5	222	18	
2025-07-24T12:00	7720	378	-31.8	-35.9	222	18	
2025-07-24T12:00	7740	377	-31.9	-37.0	221	18	
2025-07-24T12:00	7760	376	-32.0	-37.2	221	17	
2025-07-24T12:00	7780	375	-32.2	-37.4	220	17	
2025-07-24T12:00	7800	374	-32.3	-37.8	220	17	
2025-07-24T12:00	7820	373	-32.4	-38.8	219	17	
2025-07-24T12:00	7840	372	-32.6	-39.4	218	16	
2025-07-24T12:00	7860	371	-32.7	-39.7	218	16	
2025-07-24T12:00	7880	370	-32.9	-39.5	218	16	
2025-07-24T12:00	7900	369	-33.0	-39.6	218	16	
2025-07-24T12:00	7920	368	-33.2	-39.7	218	16	
2025-07-24T12:00	7940	367	-33.4	-39.6	219	16	
2025-07-24T12:00	7960	366	-33.5	-39.8	219	16	
2025-07-24T12:00	7980	365	-33.7	-40.0	220	17	
2025-07-24T12:00	8000	364	-33.9	-40.0	220	17	
2025-07-24T12:00	8020	362	-34.1	-40.3	221	17	
2025-07-24T12:00	8040	362	-34.2	-41.2	221	17	
2025-07-24T12:00	8060	361	-34.3	-42.1	221	18	
2025-07-24T12:00	8080	360	-34.4	-42.4	221	18	
2025-07-24T12:00	8100	359	-34.6	-42.3	222	18	
2025-07-24T12:00	8120	357	-34.7	-42.2	222	18	
2025-07-24T12:00	8140	356	-34.9	-42.2	222	18	
2025-07-24T12:00	8160	355	-35.0	-42.2	223	19	
2025-07-24T12:00	8180	354	-35.2	-42.2	224	19	
2025-07-24T12:00	8200	353	-35.4	-42.3	225	19	
2025-07-24T12:00	8220	352	-35.6	-42.3	226	19	
2025-07-24T12:00	8240	351	-35.8	-42.4	227	19	
2025-07-24T12:00	8260	350	-36.0	-42.6	227	19	
2025-07-24T12:00	8280	349	-36.2	-42.7	228	19	
2025-07-24T12:00	8300	348	-36.3	-42.8	228	19	
2025-07-24T12:00	8320	347	-36.5	-42.9	228	20	
2025-07-24T12:00	8340	346	-36.7	-42.9	228	19	
2025-07-24T12:00	8360	345	-36.8	-43.1	228	20	
2025-07-24T12:00	8380	344	-37.1	-42.9	228	20	
2025-07-24T12:00	8400	343	-37.3	-42.9	228	20	
2025-07-24T12:00	8420	342	-37.5	-43.0	228	20	
2025-07-24T12:00	8440	341	-37.7	-43.3	228	20	
2025-07-24T12:00	8460	340	-37.8	-43.5	228	20	
2025-07-24T12:00	8480	339	-38.0	-43.6	229	20	
2025-07-24T12:00	8500	338	-38.2	-43.9	229	20	
2025-07-24T12:00	8520	337	-38.4	-44.0	229	20	
2025-07-24T12:00	8540	336	-38.6	-43.9	230	20	
2025-07-24T12:00	8560	335	-38.8	-43.9	230	20	
2025-07-24T12:00	8580	334	-39.0	-44.1	230	20	
2025-07-24T12:00	8600	333	-39.2	-44.1	230	20	
2025-07-24T12:00	8620	333	-39.3	-43.9	230	19	
2025-07-24T12:00	8640	332	-39.5	-44.1	230	19	
2025-07-24T12:00	8660	331	-39.7	-44.0	229	19	
2025-07-24T12:00	8680	330	-39.9	-44.0	228	19	
2025-07-24T12:00	8700	329	-40.1	-44.4	228	19	
2025-07-24T12:00	8720	328	-40.3	-44.6	228	19	
2025-07-24T12:00	8740	327	-40.5	-45.0	227	19	
2025-07-24T12:00	8760	326	-40.7	-45.7	227	19	
2025-07-24T12:00	8780	325	-40.9	-45.7	227	19	
2025-07-24T12:00	8800	324	-41.1	-45.8	227	19	
2025-07-24T12:00	8820	323	-41.3	-45.9	227	19	
2025-07-24T12:00	8840	322	-41.4	-46.2	226	19	
2025-07-24T12:00	8860	321	-41.6	-46.1	226	19	
2025-07-24T12:00	8880	320	-41.8	-46.1	225	19	
2025-07-24T12:00	8900	319	-42.0	-46.0	225	19	
2025-07-24T12:00	8920	318	-42.2	-46.6	225	19	
2025-07-24T12:00	8940	317	-42.4	-47.0	224	19	
2025-07-24T12:00	8960	316	-42.5	-46.6	224	19	
2025-07-24T12:00	8980	315	-42.7	-46.9	225	19	
2025-07-24T12:00	9000	314	-42.9	-47.9	225	19	
2025-07-24T12:00	9020	314	-43.1	-47.8	225	19	
2025-07-24T12:00	9040	312	-43.3	-47.0	226	19	
2025-07-24T12:00	9060	312	-43.5	-46.9	226	19	
2025-07-24T12:00	9080	311	-43.6	-47.7	226	19	
2025-07-24T12:00	9100	310	-43.7	-47.7	226	19	
2025-07-24T12:00	9120	309	-43.8	-47.4	226	19	
2025-07-24T12:00	9140	308	-44.0	-47.3	226	19	
2025-07-24T12:00	9160	307	-44.2	-47.6	226	20	
2025-07-24T12:00	9180	306	-44.3	-49.1	226	20	
2025-07-24T12:00	9200	305	-44.4	-49.8	226	20	
2025-07-24T12:00	9220	304	-44.6	-49.7	226	20	
2025-07-24T12:00	9240	303	-44.7	-49.6	226	20	
2025-07-24T12:00	9260	303	-44.8	-49.7	227	20	
2025-07-24T12:00	9280	302	-44.9	-50.4	227	20	
2025-07-24T12:00	9300	301	-45.1	-51.6	227	20	
2025-07-24T12:00	9320	300	-45.2	-52.4	227	21	
2025-07-24T12:00	9340	299	-45.3	-52.9	228	21	
2025-07-24T12:00	9360	298	-45.3	-53.4	228	21	
2025-07-24T12:00	9380	297	-45.4	-53.7	229	21	
2025-07-24T12:00	9400	296	-45.4	-54.4	229	22	
2025-07-24T12:00	9420	295	-45.4	-55.0	229	22	
2025-07-24T12:00	9440	294	-45.5	-55.4	230	22	
2025-07-24T12:00	9460	293	-45.5	-55.7	230	23	
2025-07-24T12:00	9480	293	-45.5	-55.8	230	23	
2025-07-24T12:00	9500	292	-45.6	-55.9	230	23	
2025-07-24T12:00	9520	291	-45.8	-55.7	229	24	
2025-07-24T12:00	9540	290	-45.9	-55.7	228	24	
2025-07-24T12:00	9560	289	-46.0	-55.8	228	24	
2025-07-24T12:00	9580	288	-46.2	-55.9	227	24	
2025-07-24T12:00	9600	287	-46.3	-56.0	227	24	
2025-07-24T12:00	9620	287	-46.4	-56.0	227	25	
2025-07-24T12:00	9640	286	-46.6	-56.0	228	25	
2025-07-24T12:00	9660	285	-46.8	-55.9	228	25	
2025-07-24T12:00	9680	284	-46.9	-56.1	228	25	
2025-07-24T12:00	9700	283	-47.0	-56.2	229	25	
2025-07-24T12:00	9720	282	-47.1	-56.4	229	25	
2025-07-24T12:00	9740	281	-47.2	-56.7	229	24	
2025-07-24T12:00	9760	281	-47.2	-57.3	229	24	
2025-07-24T12:00	9780	280	-46.9	-58.2	229	23	
2025-07-24T12:00	9800	279	-46.9	-58.9	229	23	
2025-07-24T12:00	9820	278	-46.9	-59.0	228	22	
2025-07-24T12:00	9840	277	-47.0	-59.0	227	22	
2025-07-24T12:00	9860	276	-47.1	-59.0	225	21	
2025-07-24T12:00	9880	275	-47.3	-59.1	224	21	
2025-07-24T12:00	9900	275	-47.3	-59.5	221	21	
2025-07-24T12:00	9920	274	-47.4	-60.0	219	21	
2025-07-24T12:00	9940	273	-47.5	-60.0	217	21	
2025-07-24T12:00	9960	272	-47.6	-60.0	216	22	
2025-07-24T12:00	9980	271	-47.7	-60.2	215	22	
2025-07-24T12:00	10000	270	-47.6	-60.7	214	23	
2025-07-24T12:00	10018	270	-47.4	-61.3	214	23	
2025-07-24T12:00	10050	268	-47.0	-62.4	214	23	
2025-07-24T12:00	10100	266	-46.7	-63.3	216	24	
2025-07-24T12:00	10150	265	-46.8	-63.5	219	26	
2025-07-24T12:00	10200	262	-47.0	-63.9	222	27	
2025-07-24T12:00	10250	261	-47.0	-64.5	226	28	
2025-07-24T12:00	10300	259	-46.6	-66.4	230	27	
2025-07-24T12:00	10350	257	-45.7	-69.0	232	25	
2025-07-24T12:00	10400	255	-45.5	-70.2	232	23	
2025-07-24T12:00	10450	253	-45.5	-70.7	230	21	
2025-07-24T12:00	10500	251	-45.1	-71.6	228	19	
2025-07-24T12:00	10550	249	-44.5	-72.6	227	18	
2025-07-24T12:00	10600	247	-44.3	-73.3	226	18	
2025-07-24T12:00	10650	245	-43.8	-74.0	226	19	
2025-07-24T12:00	10700	243	-43.9	-74.1	228	20	
2025-07-24T12:00	10750	242	-43.8	-74.4	228	20	
2025-07-24T12:00	10800	240	-43.3	-74.7	228	19	
2025-07-24T12:00	10850	238	-43.0	-75.0	227	17	
2025-07-24T12:00	10900	236	-43.1	-75.1	225	16	
2025-07-24T12:00	10950	235	-43.0	-75.3	222	15	
2025-07-24T12:00	11000	233	-43.2	-75.4	221	15	
2025-07-24T12:00	11050	231	-43.4	-75.7	223	16	
2025-07-24T12:00	11100	229	-43.3	-75.8	226	17	
2025-07-24T12:00	11150	228	-43.0	-76.1	228	17	
2025-07-24T12:00	11200	226	-42.8	-76.4	228	16	
2025-07-24T12:00	11250	224	-42.7	-76.7	227	16	
2025-07-24T12:00	11300	223	-42.5	-76.8	224	16	
2025-07-24T12:00	11350	221	-42.6	-76.8	222	16	
2025-07-24T12:00	11400	220	-42.7	-76.8	222	16	
2025-07-24T12:00	11450	218	-42.7	-76.9	223	15	
2025-07-24T12:00	11500	216	-42.9	-77.1	221	16	
2025-07-24T12:00	11550	215	-43.0	-77.3	218	16	
2025-07-24T12:00	11600	213	-42.9	-77.4	218	16	
2025-07-24T12:00	11650	211	-42.6	-77.7	221	16	
2025-07-24T12:00	11700	210	-42.7	-77.8	222	16	
2025-07-24T12:00	11750	208	-42.8	-77.7	220	16	
2025-07-24T12:00	11800	207	-42.9	-78.0	218	16	
2025-07-24T12:00	11850	205	-43.1	-78.1	218	16	
2025-07-24T12:00	11900	204	-42.8	-78.2	218	17	
2025-07-24T12:00	11950	202	-42.8	-78.2	219	17	
2025-07-24T12:00	12000	201	-42.9	-78.1	219	17	
2025-07-24T12:00	12050	199	-43.0	-78.3	220	18	
2025-07-24T12:00	12100	198	-43.2	-78.3	222	18	
2025-07-24T12:00	12150	196	-43.3	-78.5	225	17	
2025-07-24T12:00	12200	195	-43.5	-78.5	228	17	
2025-07-24T12:00	12250	194	-43.6	-78.7	230	16	
2025-07-24T12:00	12300	192	-43.7	-78.6	229	15	
2025-07-24T12:00	12350	191	-43.8	-78.7	227	14	
2025-07-24T12:00	12400	189	-43.8	-78.9	226	13	
2025-07-24T12:00	12450	188	-43.6	-78.9	224	13	
2025-07-24T12:00	12500	186	-43.9	-79.0	222	13	
2025-07-24T12:00	12550	185	-44.0	-79.0	219	13	
2025-07-24T12:00	12600	184	-43.9	-79.2	217	14	
2025-07-24T12:00	12650	182	-43.9	-79.2	216	14	
2025-07-24T12:00	12700	181	-44.3	-79.3	215	15	
2025-07-24T12:00	12750	180	-44.6	-79.3	218	15	
2025-07-24T12:00	12800	178	-44.6	-79.5	221	15	
2025-07-24T12:00	12850	177	-44.6	-79.5	224	15	
2025-07-24T12:00	12900	176	-44.7	-79.6	225	16	
2025-07-24T12:00	12950	174	-44.9	-79.5	225	17	
2025-07-24T12:00	13000	173	-45.3	-79.7	225	17	
2025-07-24T12:00	13050	172	-45.8	-79.8	225	18	
2025-07-24T12:00	13100	170	-46.2	-80.0	226	18	
2025-07-24T12:00	13150	169	-46.6	-80.2	227	19	
2025-07-24T12:00	13200	168	-46.8	-80.3	230	18	
2025-07-24T12:00	13250	167	-47.0	-80.6	232	18	
2025-07-24T12:00	13300	165	-47.0	-80.7	233	17	
2025-07-24T12:00	13350	164	-47.2	-80.8	232	16	
2025-07-24T12:00	13400	163	-47.5	-80.9	230	15	
2025-07-24T12:00	13450	162	-47.8	-81.0	228	15	
2025-07-24T12:00	13500	160	-48.0	-81.1	227	15	
2025-07-24T12:00	13550	159	-48.1	-81.2	228	15	
2025-07-24T12:00	13600	158	-48.0	-81.3	231	15	
2025-07-24T12:00	13650	157	-48.3	-81.4	233	15	
2025-07-24T12:00	13700	156	-48.6	-81.4	231	14	
2025-07-24T12:00	13750	154	-48.6	-81.6	228	13	
2025-07-24T12:00	13800	153	-48.3	-81.7	227	12	
2025-07-24T12:00	13850	152	-48.0	-81.6	223	12	
2025-07-24T12:00	13900	151	-47.9	-81.6	219	13	
2025-07-24T12:00	13950	150	-47.7	-81.5	216	13	
2025-07-24T12:00	14000	149	-47.9	-81.6	216	14	
2025-07-24T12:00	14050	148	-47.6	-81.5	218	14	
2025-07-24T12:00	14100	147	-47.5	-81.6	221	13	
2025-07-24T12:00	14150	145	-47.6	-81.6	226	12	
2025-07-24T12:00	14200	144	-47.6	-81.6	229	11	
2025-07-24T12:00	14250	143	-47.6	-81.7	230	9	
2025-07-24T12:00	14300	142	-47.5	-81.6	231	8	
2025-07-24T12:00	14350	141	-47.8	-81.7	233	7	
2025-07-24T12:00	14400	140	-48.1	-81.8	234	7	
2025-07-24T12:00	14450	139	-48.2	-81.8	235	6	
2025-07-24T12:00	14500	138	-48.5	-82.0	235	5	
2025-07-24T12:00	14550	137	-48.6	-82.0	236	5	
2025-07-24T12:00	14600	136	-48.8	-82.1	235	5	
2025-07-24T12:00	14650	135	-49.0	-82.1	230	6	
2025-07-24T12:00	14700	134	-49.4	-82.3	224	6	
2025-07-24T12:00	14750	133	-49.5	-82.3	219	7	
2025-07-24T12:00	14800	132	-49.8	-82.4	216	8	
2025-07-24T12:00	14850	131	-49.9	-82.6	214	8	
2025-07-24T12:00	14900	130	-49.7	-82.7	214	8	
2025-07-24T12:00	14950	129	-49.4	-82.6	216	9	
2025-07-24T12:00	15000	128	-49.7	-82.6	218	9	
2025-07-24T12:00	15050	127	-49.9	-82.7	221	9	
2025-07-24T12:00	15100	126	-50.0	-82.8	222	9	
2025-07-24T12:00	15150	125	-50.1	-82.8	221	9	
2025-07-24T12:00	15200	124	-50.2	-82.9	221	10	
2025-07-24T12:00	15250	123	-50.4	-82.9	219	10	
2025-07-24T12:00	15300	122	-50.6	-83.1	216	10	
2025-07-24T12:00	15350	121	-50.2	-83.1	213	10	
2025-07-24T12:00	15400	120	-50.3	-83.1	212	11	
2025-07-24T12:00	15450	119	-50.5	-83.2	213	12	
2025-07-24T12:00	15500	118	-50.1	-83.1	214	13	
2025-07-24T12:00	15550	117	-49.7	-83.1	215	14	
2025-07-24T12:00	15600	117	-49.6	-83.1	220	13	
2025-07-24T12:00	15650	116	-49.5	-82.9	228	12	
2025-07-24T12:00	15700	115	-49.6	-83.0	234	12	
2025-07-24T12:00	15750	114	-49.8	-83.0	240	11	
2025-07-24T12:00	15800	113	-50.1	-83.0	247	11	
2025-07-24T12:00	15850	112	-50.5	-83.1	254	10	
2025-07-24T12:00	15900	111	-50.8	-83.3	257	10	
2025-07-24T12:00	15950	110	-51.0	-83.3	254	9	
2025-07-24T12:00	16000	110	-51.3	-83.5	246	8	
2025-07-24T12:00	16050	109	-51.5	-83.7	238	7	
2025-07-24T12:00	16100	108	-51.1	-83.6	232	7	
2025-07-24T12:00	16150	107	-50.9	-83.7	230	7	
2025-07-24T12:00	16200	106	-51.2	-83.6	229	6	
2025-07-24T12:00	16250	105	-51.6	-83.6	230	6	
2025-07-24T12:00	16300	105	-52.0	-83.7	230	6	
2025-07-24T12:00	16350	104	-52.3	-83.9	230	6	
2025-07-24T12:00	16400	103	-52.4	-84.0	227	6	
2025-07-24T12:00	16450	102	-52.3	-84.1	218	5	
2025-07-24T12:00	16500	101	-52.3	-84.2	201	4	
2025-07-24T12:00	16550	101	-52.5	-84.2	194	4	
2025-07-24T12:00	16600	100	-52.5	-84.2	200	5	
2025-07-24T12:00	16650	99	-52.7	-84.3	204	6	
2025-07-24T12:00	16700	98	-53.0	-84.4	199	6	
2025-07-24T12:00	16750	98	-52.9	-84.4	186	6	
2025-07-24T12:00	16800	97	-53.0	-84.5	170	6	
2025-07-24T12:00	16850	96	-53.0	-84.6	161	6	
2025-07-24T12:00	16900	95	-52.8	-84.6	163	7	
2025-07-24T12:00	16950	95	-52.6	-84.6	173	7	
2025-07-24T12:00	17000	94	-52.4	-84.6	186	7	
2025-07-24T12:00	17050	93	-52.1	-84.6	204	6	
2025-07-24T12:00	17100	92	-52.0	-84.6	223	5	
2025-07-24T12:00	17150	92	-52.0	-84.5	238	5	
2025-07-24T12:00	17200	91	-52.1	-84.5	244	4	
2025-07-24T12:00	17250	90	-52.1	-84.5	240	3	
2025-07-24T12:00	17300	90	-52.1	-84.4	239	3	
2025-07-24T12:00	17350	89	-52.4	-84.5	250	2	
2025-07-24T12:00	17400	88	-52.4	-84.5	262	2	
2025-07-24T12:00	17450	88	-52.4	-84.5	320	0	
2025-07-24T12:00	17500	87	-52.5	-84.6	76	1	
2025-07-24T12:00	17550	86	-52.6	-84.6	76	2	
2025-07-24T12:00	17600	86	-52.8	-84.6	75	3	
2025-07-24T12:00	17650	85	-53.1	-84.6	79	3	
2025-07-24T12:00	17700	84	-53.6	-84.7	89	3	
2025-07-24T12:00	17750	84	-54.1	-84.8	105	3	
2025-07-24T12:00	17800	83	-54.4	-85.0	116	4	
2025-07-24T12:00	17850	82	-54.6	-85.1	123	5	
2025-07-24T12:00	17900	82	-54.8	-85.2	131	5	
2025-07-24T12:00	17950	81	-55.2	-85.3	146	5	
2025-07-24T12:00	18000	80	-55.4	-85.5	160	5	
2025-07-24T12:00	18050	80	-55.3	-85.5	166	6	
2025-07-24T12:00	18100	79	-55.3	-85.7	166	6	
2025-07-24T12:00	18150	78	-54.9	-85.7	164	6	
2025-07-24T12:00	18200	78	-54.6	-85.7	166	6	
2025-07-24T12:00	18250	77	-54.3	-85.6	169	7	
2025-07-24T12:00	18300	77	-54.3	-85.6	169	7	
2025-07-24T12:00	18350	76	-54.1	-85.6	163	6	
2025-07-24T12:00	18400	76	-53.9	-85.5	157	5	
2025-07-24T12:00	18450	75	-53.8	-85.5	154	5	
2025-07-24T12:00	18500	74	-53.9	-85.6	157	5	
2025-07-24T12:00	18550	74	-53.7	-85.6	167	6	
2025-07-24T12:00	18600	73	-53.4	-85.6	181	6	
2025-07-24T12:00	18650	73	-53.0	-85.5	191	7	
2025-07-24T12:00	18700	72	-52.8	-85.3	199	7	
2025-07-24T12:00	18750	72	-53.1	-85.3	202	7	
2025-07-24T12:00	18800	71	-53.2	-85.5	194	6	
2025-07-24T12:00	18850	70	-52.7	-85.4	179	6	
2025-07-24T12:00	18900	70	-52.5	-85.3	172	6	
2025-07-24T12:00	18950	69	-52.4	-85.2	172	7	
2025-07-24T12:00	19000	69	-52.3	-85.1	175	6	
2025-07-24T12:00	19050	68	-52.5	-85.1	180	6	
2025-07-24T12:00	19100	68	-52.8	-85.2	189	5	
2025-07-24T12:00	19150	67	-53.0	-85.2	197	4	
2025-07-24T12:00	19200	67	-53.0	-85.1	205	2	
2025-07-24T12:00	19250	66	-53.3	-85.2	218	1	
2025-07-24T12:00	19300	66	-53.6	-85.3	243	1	
2025-07-24T12:00	19350	65	-53.8	-85.4	339	0	
2025-07-24T12:00	19400	65	-53.9	-85.4	23	1	
2025-07-24T12:00	19450	64	-54.1	-85.5	52	0	
2025-07-24T12:00	19500	64	-54.2	-85.5	162	0	
2025-07-24T12:00	19550	63	-54.7	-85.6	200	1	
2025-07-24T12:00	19600	63	-55.0	-85.6	217	1	
2025-07-24T12:00	19650	62	-55.2	-85.8	232	1	
2025-07-24T12:00	19700	62	-55.3	-86.0	246	1	
2025-07-24T12:00	19750	61	-55.3	-86.1	266	1	
2025-07-24T12:00	19800	61	-54.8	-86.0	345	1	
2025-07-24T12:00	19850	60	-54.7	-86.0	29	2	
2025-07-24T12:00	19900	60	-54.6	-86.0	46	4	
2025-07-24T12:00	19950	59	-54.6	-85.9	59	5	
2025-07-24T12:00	20000	59	-54.6	-85.9	71	6	
2025-07-24T12:00	20050	58	-54.5		81	6	
2025-07-24T12:00	20100	58	-54.7		89	4	
2025-07-24T12:00	20150	57	-54.8		93	3	
2025-07-24T12:00	20200	57	-54.7		95	3	
2025-07-24T12:00	20250	57	-54.7		97	4	
2025-07-24T12:00	20300	56	-54.6		99	5	
2025-07-24T12:00	20350	56	-54.8		102	7	
2025-07-24T12:00	20400	55	-55.1		107	8	
2025-07-24T12:00	20450	55	-55.1		113	8	
2025-07-24T12:00	20500	54	-54.5		118	8	
2025-07-24T12:00	20550	54	-54.3		122	8	
2025-07-24T12:00	20600	54	-54.5		125	7	
2025-07-24T12:00	20650	53	-54.1		126	7	
2025-07-24T12:00	20700	53	-53.7		123	6	
2025-07-24T12:00	20750	52	-53.8		117	7	
2025-07-24T12:00	20800	52	-53.8		112	7	
2025-07-24T12:00	20850	52	-54.0		111	8	
2025-07-24T12:00	20900	51	-54.2		112	8	
2025-07-24T12:00	20950	51	-54.1		115	7	
2025-07-24T12:00	21000	50	-54.0		114	5	
2025-07-24T12:00	21050	50	-54.2		105	4	
2025-07-24T12:00	21100	50	-54.2		88	4	
2025-07-24T12:00	21150	49	-54.1		76	4	
2025-07-24T12:00	21200	49	-54.1		74	4	
2025-07-24T12:00	21250	48	-54.1		81	5	
2025-07-24T12:00	21300	48	-54.2		91	5	
2025-07-24T12:00	21350	48	-54.3		100	6	
2025-07-24T12:00	21400	47	-54.2		110	6	
2025-07-24T12:00	21450	47	-54.1		122	6	
2025-07-24T12:00	21500	47	-54.0		136	5	
2025-07-24T12:00	21550	46	-53.6		142	4	
2025-07-24T12:00	21600	46	-53.2		132	3	
2025-07-24T12:00	21650	45	-52.4		104	3	
2025-07-24T12:00	21700	45	-52.1		90	3	
2025-07-24T12:00	21750	45	-52.3		89	3	
2025-07-24T12:00	21800	44	-52.3		86	4	
2025-07-24T12:00	21850	44	-52.3		77	4	
2025-07-24T12:00	21900	44	-52.4		67	5	
2025-07-24T12:00	21950	43	-52.4		61	5	
2025-07-24T12:00	22000	43	-52.4		61	6	
2025-07-24T12:00	22050	43	-52.6		64	7	
2025-07-24T12:00	22100	42	-52.6		69	8	
2025-07-24T12:00	22150	42	-52.7		75	10	
2025-07-24T12:00	22200	42	-52.8		81	11	
2025-07-24T12:00	22250	41	-53.0		88	12	
2025-07-24T12:00	22300	41	-53.3		92	13	
2025-07-24T12:00	22350	41	-53.7		97	14	
2025-07-24T12:00	22400	40	-53.8		102	15	
2025-07-24T12:00	22450	40	-53.9		107	15	
2025-07-24T12:00	22500	40	-53.8		112	14	
2025-07-24T12:00	22550	40	-53.8		117	14	
2025-07-24T12:00	22600	39	-54.0		121	13	
2025-07-24T12:00	22650	39	-53.7		124	12	
2025-07-24T12:00	22700	39	-53.3		127	10	
2025-07-24T12:00	22750	38	-53.1		128	8	
2025-07-24T12:00	22800	38	-52.8		123	7	
2025-07-24T12:00	22850	38	-52.6		116	7	
2025-07-24T12:00	22900	37	-52.3		111	9	
2025-07-24T12:00	22950	37	-52.3		109	10	
2025-07-24T12:00	23000	37	-52.3		109	10	
2025-07-24T12:00	23050	37	-52.1		109	9	
2025-07-24T12:00	23100	36	-51.9		106	9	
2025-07-24T12:00	23150	36	-51.6		101	8	
2025-07-24T12:00	23200	36	-51.3		93	8	
2025-07-24T12:00	23250	36	-51.2		88	9	
2025-07-24T12:00	23300	35	-51.2		85	9	
2025-07-24T12:00	23350	35	-51.1		84	10	
2025-07-24T12:00	23400	35	-51.0		86	10	
2025-07-24T12:00	23450	34	-50.9		90	11	
2025-07-24T12:00	23500	34	-50.8		93	12	
2025-07-24T12:00	23550	34	-50.7		94	11	
2025-07-24T12:00	23600	34	-50.8		95	11	
2025-07-24T12:00	23650	33	-50.9		96	10	
2025-07-24T12:00	23700	33	-51.1		99	10	
2025-07-24T12:00	23750	33	-51.3		102	10	
2025-07-24T12:00	23800	33	-51.4		103	11	
2025-07-24T12:00	23850	32	-51.2		104	12	
2025-07-24T12:00	23900	32	-51.0		106	13	
2025-07-24T12:00	23950	32	-51.0		108	13	
2025-07-24T12:00	24000	32	-51.3		112	13	
2025-07-24T12:00	24050	31	-51.5		117	12	
2025-07-24T12:00	24100	31	-51.5		121	11	
2025-07-24T12:00	24150	31	-51.4		125	10	
2025-07-24T12:00	24200	31	-51.4		129	9	
2025-07-24T12:00	24250	30	-51.5		136	8	
2025-07-24T12:00	24300	30	-51.6		145	7	
2025-07-24T12:00	24350	30	-51.4		155	5	
2025-07-24T12:00	24400	30	-51.3		162	4	
2025-07-24T12:00	24450	30	-51.3		161	3	
2025-07-24T12:00	24500	29	-51.3		146	2	
2025-07-24T12:00	24550	29	-51.6		109	1	
2025-07-24T12:00	24600	29	-51.7		66	2	
2025-07-24T12:00	24650	29	-51.6		58	3	
2025-07-24T12:00	24700	28	-51.1		64	4	
2025-07-24T12:00	24750	28	-50.8		69	5	
2025-07-24T12:00	24800	28	-50.5		70	6	
2025-07-24T12:00	24850	28	-50.4		70	6	
2025-07-24T12:00	24900	28	-50.2		73	8	
2025-07-24T12:00	24950	27	-50.1		79	8	
2025-07-24T12:00	25000	27	-49.9		86	8	
2025-07-24T12:00	25050	27	-49.7		92	7	
2025-07-24T12:00	25100	27	-49.8		94	6	
2025-07-24T12:00	25150	27	-49.9		89	5	
2025-07-24T12:00	25200	26	-49.9		76	5	
2025-07-24T12:00	25250	26	-49.7		64	6	
2025-07-24T12:00	25300	26	-49.6		59	8	
2025-07-24T12:00	25350	26	-49.7		57	9	
2025-07-24T12:00	25400	26	-49.8		60	10	
2025-07-24T12:00	25450	25	-49.8		68	10	
2025-07-24T12:00	25500	25	-49.8		79	10	
2025-07-24T12:00	25550	25	-49.8		90	9	
2025-07-24T12:00	25600	25	-49.7		98	9	
2025-07-24T12:00	25650	25	-49.6		100	9	
2025-07-24T12:00	25700	24	-49.4		98	8	
2025-07-24T12:00	25750	24	-49.2		87	8	
2025-07-24T12:00	25800	24	-49.0		75	8	
2025-07-24T12:00	25850	24	-48.7		69	10	
2025-07-24T12:00	25900	24	-48.5		69	11	
2025-07-24T12:00	25950	23	-48.4		74	12	
2025-07-24T12:00	26000	23	-48.3		77	13	
2025-07-24T12:00	26050	23	-48.2		79	13	
2025-07-24T12:00	26100	23	-48.2		80	13	
2025-07-24T12:00	26150	23	-48.3		80	13	
2025-07-24T12:00	26200	23	-48.5		80	12	
2025-07-24T12:00	26250	22	-48.5		80	12	
2025-07-24T12:00	26300	22	-48.4		80	12	
2025-07-24T12:00	26350	22	-48.6		80	12	
2025-07-24T12:00	26400	22	-48.6		79	11	
2025-07-24T12:00	26450	22	-48.4		78	10	
2025-07-24T12:00	26500	22	-48.2		77	10	
2025-07-24T12:00	26550	21	-48.0		78	11	
2025-07-24T12:00	26600	21	-48.0		81	13	
2025-07-24T12:00	26650	21	-47.9		85	14	
2025-07-24T12:00	26700	21	-48.0		90	15	
2025-07-24T12:00	26750	21	-48.0		94	14	
2025-07-24T12:00	26800	21	-47.9		97	13	
2025-07-24T12:00	26850	20	-47.7		98	12	
2025-07-24T12:00	26900	20	-47.5		98	11	
2025-07-24T12:00	26950	20	-47.3		96	9	
2025-07-24T12:00	27000	20	-47.3		90	8	
2025-07-24T12:00	27050	20	-47.0		82	8	
2025-07-24T12:00	27100	20	-46.9		78	9	
2025-07-24T12:00	27150	20	-46.7		78	10	
2025-07-24T12:00	27200	19	-46.5		79	12	
2025-07-24T12:00	27250	19	-46.4		80	13	
2025-07-24T12:00	27300	19	-46.4		81	14	
2025-07-24T12:00	27350	19	-46.3		83	16	
2025-07-24T12:00	27400	19	-46.4		86	17	
2025-07-24T12:00	27450	19	-46.4		89	17	
2025-07-24T12:00	27500	19	-46.4		92	17	
2025-07-24T12:00	27550	18	-46.5		94	16	
2025-07-24T12:00	27600	18	-46.8		95	14	
2025-07-24T12:00	27650	18	-47.1		95	13	
2025-07-24T12:00	27700	18	-47.5		93	12	
2025-07-24T12:00	27750	18	-47.7		88	11	
2025-07-24T12:00	27800	18	-47.5		84	11	
2025-07-24T12:00	27850	18	-47.4		83	13	
2025-07-24T12:00	27900	17	-47.3		86	14	
2025-07-24T12:00	27950	17	-47.0		88	15	
2025-07-24T12:00	28000	17	-46.7		88	16	
2025-07-24T12:00	28050	17	-46.5		88	15	
2025-07-24T12:00	28100	17	-46.4		89	16	
2025-07-24T12:00	28150	17	-46.0		92	16	
2025-07-24T12:00	28200	17	-45.8		97	17	
2025-07-24T12:00	28250	17	-45.7		101	17	
2025-07-24T12:00	28300	16	-45.6		102	16	
2025-07-24T12:00	28350	16	-45.4		100	15	
2025-07-24T12:00	28400	16	-45.2		95	14	
2025-07-24T12:00	28450	16	-45.1		90	13	
2025-07-24T12:00	28500	16	-45.0		87	13	
2025-07-24T12:00	28550	16	-44.8		85	13	
2025-07-24T12:00	28600	16	-44.5		84	12	
2025-07-24T12:00	28650	16	-44.4		84	11	
2025-07-24T12:00	28700	15	-44.3		84	12	
2025-07-24T12:00	28750	15	-44.3		86	13	
2025-07-24T12:00	28800	15	-44.2		86	14	
2025-07-24T12:00	28850	15	-43.9		88	15	
2025-07-24T12:00	28900	15	-43.6		91	15	
2025-07-24T12:00	28950	15	-43.5		94	15	
2025-07-24T12:00	29000	15	-43.5		98	14	
2025-07-24T12:00	29050	15	-43.5		100	13	
2025-07-24T12:00	29100	15	-43.4		101	13	
2025-07-24T12:00	29150	14	-43.2		100	13	
2025-07-24T12:00	29200	14	-43.1		96	14	
2025-07-24T12:00	29250	14	-43.1		94	14	
2025-07-24T12:00	29300	14	-43.1		92	14	
2025-07-24T12:00	29350	14	-43.2		92	14	
2025-07-24T12:00	29400	14	-43.3		93	13	
2025-07-24T12:00	29450	14	-43.3		92	13	
2025-07-24T12:00	29500	14	-43.1		89	12	
2025-07-24T12:00	29550	14	-42.9		86	13	
2025-07-24T12:00	29600	14	-42.7		87	14	
2025-07-24T12:00	29650	13	-42.6		90	15	
2025-07-24T12:00	29700	13	-42.7		94	15	
2025-07-24T12:00	29750	13	-42.8		98	15	
2025-07-24T12:00	29800	13	-42.9		101	15	
2025-07-24T12:00	29850	13	-43.1		100	15	
2025-07-24T12:00	29900	13	-43.1		96	14	
2025-07-24T12:00	29950	13	-43.0		90	13	
2025-07-24T12:00	30000	13	-42.9		86	13	
2025-07-24T12:00	30050	13	-42.8		88	14	
2025-07-24T12:00	30100	13	-42.8		91	14	
2025-07-24T12:00	30150	12	-42.8		94	15	
2025-07-24T12:00	30200	12	-42.8		97	16	
2025-07-24T12:00	30250	12	-42.9		100	16	
2025-07-24T12:00	30300	12	-42.9		103	16	
2025-07-24T12:00	30350	12	-42.8		104	15	
2025-07-24T12:00	30400	12	-42.7		102	15	
2025-07-24T12:00	30450	12	-42.5		97	15	
2025-07-24T12:00	30500	12	-42.4		93	15	
2025-07-24T12:00	30550	12	-42.3		91	14	
2025-07-24T12:00	30600	12	-42.4		93	14	
2025-07-24T12:00	30650	12	-42.6		97	13	
2025-07-24T12:00	30700	12	-42.7		97	13	
2025-07-24T12:00	30750	11	-42.4		92	12	
2025-07-24T12:00	30800	11	-41.9		86	12	
2025-07-24T12:00	30850	11	-41.5		83	13	
2025-07-24T12:00	30900	11	-41.2		84	13	
2025-07-24T12:00	30950	11	-41.1		86	13	
2025-07-24T12:00	31000	11	-41.0		88	13	
2025-07-24T12:00	31050	11	-40.7		89	13	
2025-07-24T12:00	31100	11	-40.6		89	13	
2025-07-24T12:00	31150	11	-40.4		89	12	
2025-07-24T12:00	31200	11	-40.1		89	12	
2025-07-24T12:00	31250	11	-39.9		87	11	
2025-07-24T12:00	31300	11	-39.7		84	12	
2025-07-24T12:00	31350	10	-39.7		81	13	
2025-07-24T12:00	31400	10	-39.7		78	15	
2025-07-24T12:00	31450	10	-39.8		77	17	
2025-07-24T12:00	31500	10	-40.0		75	18	
2025-07-24T12:00	31550	10	-40.0		74	19	
2025-07-24T12:00	31600	10	-40.0		74	20	
2025-07-24T12:00	31650	10	-40.0		76	20	
2025-07-24T12:00	31700	10	-40.0		79	20	
2025-07-24T12:00	31750	10	-40.0		83	19	
2025-07-24T12:00	31800	10	-40.0		88	18	
2025-07-24T12:00	31850	10	-40.0		93	18	
2025-07-24T12:00	31900	10	-40.0		97	18	
2025-07-24T12:00	31950	10	-39.9		102	17	
2025-07-24T12:00	32000	10	-39.8		105	17	
2025-07-24T12:00	32050	9	-39.6		105	16	
2025-07-24T12:00	32100	9	-39.2		104	16	
2025-07-24T12:00	32150	9	-38.7		104	16	
2025-07-24T12:00	32200	9	-38.4		104	16	
2025-07-24T12:00	32250	9	-38.2		104	16	
2025-07-24T12:00	32300	9	-37.8		102	16	
2025-07-24T12:00	32350	9	-37.4		100	15	
2025-07-24T12:00	32400	9	-36.9		99	16	
2025-07-24T12:00	32450	9	-36.7		98	16	
2025-07-24T12:00	32500	9	-36.7		99	15	
2025-07-24T12:00	32550	9	-36.5		102	15	
2025-07-24T12:00	32600	9	-36.2		107	14	
2025-07-24T12:00	32650	9	-35.9		111	14	
2025-07-24T12:00	32700	9	-35.6		112	13	
2025-07-24T12:00	32750	9	-35.2		113	13	
2025-07-24T12:00	32800	8	-34.8		115	12	
2025-07-24T12:00	32850	8	-34.6		113	12	
2025-07-24T12:00	32900	8	-34.2		106	13	
2025-07-24T12:00	32950	8	-33.9		101	14	
2025-07-24T12:00	33000	8	-33.7		99	16	
2025-07-24T12:00	33050	8	-33.6		99	18	
2025-07-24T12:00	33100	8	-33.6		99	18	
2025-07-24T12:00	33150	8	-33.5		98	17	
2025-07-24T12:00	33200	8	-33.5		96	16	
2025-07-24T12:00	33250	8	-33.6		94	15	
2025-07-24T12:00	33300	8	-33.6		90	14	
2025-07-24T12:00	33350	8	-33.6		88	14	
2025-07-24T12:00	33400	8	-33.5		88	15	
2025-07-24T12:00	33450	8	-33.6		89	16	
2025-07-24T12:00	33500	8	-33.6		91	18	
2025-07-24T12:00	33550	8	-33.6		93	19	
2025-07-24T12:00	33600	8	-33.5		95	20	
2025-07-24T12:00	33650	8	-33.5		96	20	
2025-07-24T12:00	33700	7	-33.6		96	19	
2025-07-24T12:00	33750	7	-33.7		94	18	
2025-07-24T12:00	33800	7	-33.6		92	17	
2025-07-24T12:00	33850	7	-33.7		90	16	
2025-07-24T12:00	33900	7	-33.8		89	16	
2025-07-24T12:00	33950	7	-33.7		91	16	
2025-07-24T12:00	34000	7	-33.7		95	18	
2025-07-24T12:00	34050	7	-33.8		100	19	
2025-07-24T12:00	34100	7	-33.9		104	20	
2025-07-24T12:00	34150	7	-33.9		107	20	
2025-07-24T12:00	34200	7	-33.8		107	19	
2025-07-24T12:00	34250	7	-33.6		104	17	
2025-07-24T12:00	34300	7	-33.5		99	15	
2025-07-24T12:00	34350	7	-33.3		93	14	
2025-07-24T12:00	34400	7	-33.3		88	13	
2025-07-24T12:00	34450	7	-33.3		83	12	
2025-07-24T12:00	34500	7	-33.3		79	12	
2025-07-24T12:00	34550	7	-33.4		75	12	
2025-07-24T12:00	34600	7	-33.3		72	13	
2025-07-24T12:00	34650	7	-33.3		71	13	
2025-07-24T12:00	34700	6	-33.4		73	14	
2025-07-24T12:00	34750	6	-33.5		78	15	
2025-07-24T12:00	34800	6	-33.6		83	17	
2025-07-24T12:00	34850	6	-33.6		87	18	
2025-07-24T12:00	34900	6	-33.6		91	18	
2025-07-24T12:00	34950	6	-33.6		96	19	
2025-07-24T12:00	35000	6	-33.6		101	19	
2025-07-24T12:00	35050	6	-33.6		105	18	
2025-07-24T12:00	35100	6	-33.4		108	17	
2025-07-24T12:00	35150	6	-33.2		106	15	
2025-07-24T12:00	35200	6	-33.0		102	13	
2025-07-24T12:00	35250	6	-32.9		96	12	
2025-07-24T12:00	35300	6	-32.8		88	12	
2025-07-24T12:00	35350	6	-32.5		82	13	
2025-07-24T12:00	35400	6	-32.2		79	14	
2025-07-24T12:00	35450	6	-32.1		78	15	
2025-07-24T12:00	35500	6	-32.0		80	15	
2025-07-24T12:00	35550	6	-31.8		82	15	
2025-07-25T00:00	491	960	14.4	13.6	67	2	
2025-07-25T00:00	501	959	14.4	13.8	74	2	
2025-07-25T00:00	520	957	14.3	13.6	74	2	
2025-07-25T00:00	540	955	14.3	13.2	69	2	
2025-07-25T00:00	560	953	14.1	13.1	66	3	
2025-07-25T00:00	580	950	13.9	12.8	61	3	
2025-07-25T00:00	600	948	13.8	12.6	56	4	
2025-07-25T00:00	620	946	13.7	12.5	51	4	
2025-07-25T00:00	640	944	13.5	12.5	44	5	
2025-07-25T00:00	660	941	13.3	12.4	37	5	
2025-07-25T00:00	680	939	13.2	12.2	29	5	
2025-07-25T00:00	700	937	13.1	12.1	23	5	
2025-07-25T00:00	720	934	12.9	11.9	20	5	
2025-07-25T00:00	740	932	12.9	11.6	19	5	
2025-07-25T00:00	760	930	12.8	11.5	18	5	
2025-07-25T00:00	780	928	12.6	11.4	20	5	
2025-07-25T00:00	800	926	12.5	11.3	22	5	
2025-07-25T00:00	820	923	12.5	10.9	26	5	
2025-07-25T00:00	840	921	12.5	10.9	31	5	
2025-07-25T00:00	860	919	12.3	10.9	36	4	
2025-07-25T00:00	880	917	12.2	10.8	42	4	
2025-07-25T00:00	900	915	12.0	10.7	47	4	
2025-07-25T00:00	920	913	11.9	10.7	53	4	
2025-07-25T00:00	940	910	11.7	10.6	57	4	
2025-07-25T00:00	960	908	11.9	10.5	61	4	
2025-07-25T00:00	980	906	11.9	10.2	64	5	
2025-07-25T00:00	1000	904	12.0	10.0	67	5	
2025-07-25T00:00	1020	902	12.0	9.8	70	5	
2025-07-25T00:00	1040	899	11.8	9.6	73	6	
2025-07-25T00:00	1060	897	11.8	9.4	75	6	
2025-07-25T00:00	1080	895	11.7	9.3	77	6	
2025-07-25T00:00	1100	893	11.5	9.2	79	6	
2025-07-25T00:00	1120	891	11.4	9.0	82	5	
2025-07-25T00:00	1140	889	11.3	8.7	84	5	
2025-07-25T00:00	1160	887	11.5	8.2	87	5	
2025-07-25T00:00	1180	885	11.6	8.0	89	5	
2025-07-25T00:00	1200	883	11.6	7.9	91	5	
2025-07-25T00:00	1220	880	11.5	7.8	94	5	
2025-07-25T00:00	1240	878	11.4	7.8	95	5	
2025-07-25T00:00	1260	876	11.2	7.7	95	6	
2025-07-25T00:00	1280	874	11.1	7.5	96	6	
2025-07-25T00:00	1300	872	11.0	7.4	96	6	
2025-07-25T00:00	1320	870	10.9	7.3	96	6	
2025-07-25T00:00	1340	868	10.7	7.2	96	6	
2025-07-25T00:00	1360	866	10.6	7.1	96	6	
2025-07-25T00:00	1380	864	10.4	7.1	96	6	
2025-07-25T00:00	1400	862	10.3	7.0	96	7	
2025-07-25T00:00	1420	860	10.1	6.9	95	7	
2025-07-25T00:00	1440	857	10.0	6.8	94	7	
2025-07-25T00:00	1460	856	9.8	6.8	93	7	
2025-07-25T00:00	1480	853	9.7	6.7	93	7	
2025-07-25T00:00	1500	851	9.6	6.5	92	7	
2025-07-25T00:00	1520	849	9.6	6.3	93	7	
2025-07-25T00:00	1540	847	9.7	6.0	93	7	
2025-07-25T00:00	1560	845	9.6	5.9	94	7	
2025-07-25T00:00	1580	843	9.4	5.9	95	7	
2025-07-25T00:00	1600	841	9.2	5.8	96	7	
2025-07-25T00:00	1620	839	9.0	5.7	96	6	
2025-07-25T00:00	1640	837	8.8	5.6	97	6	
2025-07-25T00:00	1660	835	8.6	5.5	98	5	
2025-07-25T00:00	1680	833	8.5	5.4	100	5	
2025-07-25T00:00	1700	831	8.3	5.1	103	5	
2025-07-25T00:00	1720	829	8.2	5.0	106	4	
2025-07-25T00:00	1740	827	8.0	4.9	109	4	
2025-07-25T00:00	1760	825	7.9	4.4	111	4	
2025-07-25T00:00	1780	823	7.8	4.1	111	4	
2025-07-25T00:00	1800	821	7.7	4.1	110	4	
2025-07-25T00:00	1820	819	7.5	4.0	108	5	
2025-07-25T00:00	1840	817	7.4	3.9	105	5	
2025-07-25T00:00	1860	815	7.3	3.7	102	5	
2025-07-25T00:00	1880	813	7.1	3.7	98	5	
2025-07-25T00:00	1900	811	6.9	3.6	95	5	
2025-07-25T00:00	1920	809	6.8	3.5	92	4	
2025-07-25T00:00	1940	807	6.6	3.5	90	4	
2025-07-25T00:00	1960	805	6.4	3.5	88	4	
2025-07-25T00:00	1980	803	6.3	3.4	87	4	
2025-07-25T00:00	2000	801	6.1	3.3	86	4	
2025-07-25T00:00	2020	799	5.9	3.2	85	4	
2025-07-25T00:00	2040	797	5.8	3.2	85	4	
2025-07-25T00:00	2060	795	5.6	3.2	85	4	
2025-07-25T00:00	2080	794	5.5	3.1	86	4	
2025-07-25T00:00	2100	792	5.3	3.1	89	4	
2025-07-25T00:00	2120	790	5.0	3.0	92	4	
2025-07-25T00:00	2140	788	4.9	3.0	97	4	
2025-07-25T00:00	2160	786	4.7	3.0	102	4	
2025-07-25T00:00	2180	784	4.6	3.0	108	4	
2025-07-25T00:00	2200	782	4.5	3.0	113	4	
2025-07-25T00:00	2220	780	4.4	3.0	118	4	
2025-07-25T00:00	2240	778	4.2	3.0	122	4	
2025-07-25T00:00	2260	776	4.1	2.9	126	4	
2025-07-25T00:00	2280	774	3.9	2.8	131	4	
2025-07-25T00:00	2300	773	3.8	2.7	134	4	
2025-07-25T00:00	2320	771	3.8	2.6	136	4	
2025-07-25T00:00	2340	769	3.7	2.4	138	4	
2025-07-25T00:00	2360	767	3.6	2.0	138	4	
2025-07-25T00:00	2380	765	3.4	2.0	136	4	
2025-07-25T00:00	2400	763	3.3	1.9	135	3	
2025-07-25T00:00	2420	761	3.1	1.9	133	3	
2025-07-25T00:00	2440	759	2.9	1.9	132	3	
2025-07-25T00:00	2460	757	2.7	1.6	133	3	
2025-07-25T00:00	2480	756	2.6	1.6	136	3	
2025-07-25T00:00	2500	754	2.4	1.6	139	3	
2025-07-25T00:00	2520	752	2.3	1.4	141	2	
2025-07-25T00:00	2540	750	2.1	1.4	138	2	
2025-07-25T00:00	2560	748	2.0	1.4	120	1	
2025-07-25T00:00	2580	746	1.8	1.3	87	1	
2025-07-25T00:00	2600	744	1.6	1.2	71	2	
2025-07-25T00:00	2620	743	1.5	1.2	71	2	
2025-07-25T00:00	2640	741	1.5	1.1	79	2	
2025-07-25T00:00	2660	739	1.4	1.0	94	2	
2025-07-25T00:00	2680	737	1.3	0.8	110	2	
2025-07-25T00:00	2700	735	1.2	0.7	127	2	
2025-07-25T00:00	2720	733	1.0	0.6	139	2	
2025-07-25T00:00	2740	732	1.1	0.2	152	1	
2025-07-25T00:00	2760	730	1.1	0.1	173	1	
2025-07-25T00:00	2780	728	1.0	0.0	212	1	
2025-07-25T00:00	2800	726	1.0	-0.2	248	1	
2025-07-25T00:00	2820	724	1.0	-0.3	261	1	
2025-07-25T00:00	2840	723	0.9	-0.5	266	1	
2025-07-25T00:00	2860	721	0.8	-0.8	271	1	
2025-07-25T00:00	2880	719	0.7	-0.9	280	1	
2025-07-25T00:00	2900	717	0.6	-0.9	288	2	
2025-07-25T00:00	2920	715	0.4	-1.0	296	2	
2025-07-25T00:00	2940	714	0.2	-1.1	301	3	
2025-07-25T00:00	2960	712	0.1	-1.2	304	4	
2025-07-25T00:00	2980	710	0.0	-1.2	306	4	
2025-07-25T00:00	3000	708	-0.2	-1.2	306	4	
2025-07-25T00:00	3020	706	-0.4	-1.3	307	5	
2025-07-25T00:00	3040	705	-0.6	-1.4	308	5	
2025-07-25T00:00	3060	703	-0.7	-1.4	308	5	
2025-07-25T00:00	3080	701	-0.9	-1.4	308	5	
2025-07-25T00:00	3100	700	-1.0	-1.5	307	5	
2025-07-25T00:00	3120	698	-1.3	-1.5	305	5	
2025-07-25T00:00	3140	696	-1.5	-1.6	302	4	
2025-07-25T00:00	3160	694	-1.5	-1.7	298	4	
2025-07-25T00:00	3180	693	-1.6	-1.8	297	4	
2025-07-25T00:00	3200	691	-1.7	-2.0	298	4	
2025-07-25T00:00	3220	689	-1.5	-2.7	302	4	
2025-07-25T00:00	3240	687	-1.5	-2.8	307	4	
2025-07-25T00:00	3260	686	-1.5	-3.1	308	4	
2025-07-25T00:00	3280	684	-1.6	-3.2	307	4	
2025-07-25T00:00	3300	682	-1.8	-3.4	302	3	
2025-07-25T00:00	3320	680	-1.8	-3.4	294	3	
2025-07-25T00:00	3340	679	-1.8	-3.3	282	3	
2025-07-25T00:00	3360	677	-1.9	-3.3	268	3	
2025-07-25T00:00	3380	675	-2.1	-3.3	251	3	
2025-07-25T00:00	3400	674	-2.3	-3.4	237	3	
2025-07-25T00:00	3420	672	-2.5	-3.4	230	3	
2025-07-25T00:00	3440	670	-2.7	-3.5	224	3	
2025-07-25T00:00	3460	669	-2.8	-3.6	219	4	
2025-07-25T00:00	3480	667	-3.0	-3.7	215	4	
2025-07-25T00:00	3500	665	-3.1	-3.8	213	5	
2025-07-25T00:00	3520	664	-3.2	-4.0	213	6	
2025-07-25T00:00	3540	662	-3.3	-4.1	214	6	
2025-07-25T00:00	3560	660	-3.4	-4.3	215	7	
2025-07-25T00:00	3580	659	-3.4	-4.8	216	8	
2025-07-25T00:00	3600	657	-3.1	-5.8	218	8	
2025-07-25T00:00	3620	655	-3.2	-5.9	219	8	
2025-07-25T00:00	3640	654	-3.3	-5.9	219	8	
2025-07-25T00:00	3660	652	-3.5	-6.1	218	8	
2025-07-25T00:00	3680	650	-3.7	-6.1	216	8	
2025-07-25T00:00	3700	649	-3.9	-6.0	215	8	
2025-07-25T00:00	3720	647	-4.1	-6.1	213	8	
2025-07-25T00:00	3740	645	-4.2	-6.1	212	8	
2025-07-25T00:00	3760	644	-4.3	-5.8	212	7	
2025-07-25T00:00	3780	642	-4.5	-5.8	213	7	
2025-07-25T00:00	3800	641	-4.7	-5.7	214	7	
2025-07-25T00:00	3820	639	-4.9	-5.5	216	6	
2025-07-25T00:00	3840	637	-5.1	-5.3	218	6	
2025-07-25T00:00	3860	636	-5.2	-5.3	220	6	
2025-07-25T00:00	3880	634	-5.3	-5.4	222	6	
2025-07-25T00:00	3900	632	-5.5	-5.5	224	6	
2025-07-25T00:00	3920	631	-5.6	-5.6	226	5	
2025-07-25T00:00	3940	629	-5.7	-5.7	228	5	
2025-07-25T00:00	3960	628	-5.8	-5.8	231	5	
2025-07-25T00:00	3980	626	-5.9	-5.9	235	4	
2025-07-25T00:00	4000	624	-6.0	-6.0	242	4	
2025-07-25T00:00	4020	623	-6.1	-6.1	251	3	
2025-07-25T00:00	4040	621	-6.1	-6.3	259	3	
2025-07-25T00:00	4060	620	-6.2	-6.7	263	3	
2025-07-25T00:00	4080	618	-6.1	-7.2	260	3	
2025-07-25T00:00	4100	616	-6.2	-7.3	255	3	
2025-07-25T00:00	4120	615	-6.4	-7.4	249	3	
2025-07-25T00:00	4140	613	-6.6	-7.4	243	3	
2025-07-25T00:00	4160	612	-6.8	-7.5	239	4	
2025-07-25T00:00	4180	610	-7.0	-7.5	235	4	
2025-07-25T00:00	4200	609	-7.1	-7.4	232	4	
2025-07-25T00:00	4220	607	-7.3	-7.5	229	4	
2025-07-25T00:00	4240	605	-7.5	-7.6	225	4	
2025-07-25T00:00	4260	604	-7.6	-7.7	223	3	
2025-07-25T00:00	4280	602	-7.7	-7.7	226	3	
2025-07-25T00:00	4300	601	-7.9	-7.9	235	2	
2025-07-25T00:00	4320	599	-8.0	-8.0	245	2	
2025-07-25T00:00	4340	598	-8.1	-8.2	253	2	
2025-07-25T00:00	4360	596	-8.3	-8.4	255	2	
2025-07-25T00:00	4380	595	-8.4	-8.4	249	2	
2025-07-25T00:00	4400	593	-8.5	-8.5	234	2	
2025-07-25T00:00	4420	592	-8.6	-8.7	213	2	
2025-07-25T00:00	4440	590	-8.8	-8.8	198	2	
2025-07-25T00:00	4460	589	-8.9	-8.9	192	3	
2025-07-25T00:00	4480	587	-9.0	-9.0	194	3	
2025-07-25T00:00	4500	586	-9.2	-9.2	198	3	
2025-07-25T00:00	4520	584	-9.3	-9.3	203	3	
2025-07-25T00:00	4540	583	-9.4	-9.4	208	3	
2025-07-25T00:00	4560	581	-9.5	-9.5	208	4	
2025-07-25T00:00	4580	580	-9.7	-9.7	204	4	
2025-07-25T00:00	4600	578	-9.8	-9.9	198	4	
2025-07-25T00:00	4620	577	-9.9	-10.0	192	5	
2025-07-25T00:00	4640	575	-10.1	-10.1	190	5	
2025-07-25T00:00	4660	574	-10.2	-10.2	191	6	
2025-07-25T00:00	4680	572	-10.4	-10.5	195	6	
2025-07-25T00:00	4700	571	-10.5	-11.1	199	7	
2025-07-25T00:00	4720	569	-10.6	-11.2	204	7	
2025-07-25T00:00	4740	568	-10.7	-11.6	207	8	
2025-07-25T00:00	4760	566	-10.8	-11.9	207	8	
2025-07-25T00:00	4780	565	-10.8	-12.5	207	8	
2025-07-25T00:00	4800	563	-11.0	-12.8	206	7	
2025-07-25T00:00	4820	562	-11.1	-13.1	205	7	
2025-07-25T00:00	4840	560	-11.3	-13.3	205	7	
2025-07-25T00:00	4860	559	-11.4	-13.5	206	7	
2025-07-25T00:00	4880	557	-11.5	-13.6	209	7	
2025-07-25T00:00	4900	556	-11.7	-13.8	212	7	
2025-07-25T00:00	4920	554	-11.9	-14.5	215	7	
2025-07-25T00:00	4940	553	-12.0	-14.7	217	7	
2025-07-25T00:00	4960	552	-12.2	-14.8	219	7	
2025-07-25T00:00	4980	550	-12.3	-15.2	220	7	
2025-07-25T00:00	5000	549	-12.4	-15.7	220	7	
2025-07-25T00:00	5020	547	-12.5	-15.5	220	7	
2025-07-25T00:00	5040	546	-12.7	-15.3	218	7	
2025-07-25T00:00	5060	545	-12.8	-15.3	217	7	
2025-07-25T00:00	5080	543	-12.9	-15.8	216	8	
2025-07-25T00:00	5100	542	-13.0	-16.5	215	8	
2025-07-25T00:00	5120	540	-13.2	-16.6	215	9	
2025-07-25T00:00	5140	539	-13.4	-16.8	215	9	
2025-07-25T00:00	5160	537	-13.5	-17.2	215	10	
2025-07-25T00:00	5180	536	-13.7	-20.3	214	10	
2025-07-25T00:00	5200	534	-13.6	-24.1	213	10	
2025-07-25T00:00	5220	533	-13.5	-26.3	211	10	
2025-07-25T00:00	5240	532	-13.7	-26.6	209	10	
2025-07-25T00:00	5260	530	-13.8	-27.0	207	11	
2025-07-25T00:00	5280	529	-13.9	-28.3	205	11	
2025-07-25T00:00	5300	528	-13.9	-30.0	203	12	
2025-07-25T00:00	5320	526	-14.0	-31.5	200	12	
2025-07-25T00:00	5340	525	-14.0	-33.4	198	12	
2025-07-25T00:00	5360	523	-14.0	-34.0	196	12	
2025-07-25T00:00	5380	522	-14.2	-34.3	194	12	
2025-07-25T00:00	5400	521	-14.3	-34.8	191	12	
2025-07-25T00:00	5420	519	-14.3	-35.1	189	11	
2025-07-25T00:00	5440	518	-14.5	-35.1	189	11	
2025-07-25T00:00	5460	516	-14.6	-35.1	189	11	
2025-07-25T00:00	5480	515	-14.8	-35.1	190	10	
2025-07-25T00:00	5500	514	-15.0	-35.1	191	10	
2025-07-25T00:00	5520	512	-15.2	-35.2	192	10	
2025-07-25T00:00	5540	511	-15.3	-34.9	194	10	
2025-07-25T00:00	5560	510	-15.5	-34.3	195	10	
2025-07-25T00:00	5580	508	-15.7	-33.9	197	11	
2025-07-25T00:00	5600	507	-15.8	-33.7	199	11	
2025-07-25T00:00	5620	506	-16.0	-33.6	199	12	
2025-07-25T00:00	5640	504	-16.2	-33.6	199	12	
2025-07-25T00:00	5660	503	-16.4	-33.8	199	12	
2025-07-25T00:00	5680	502	-16.6	-33.7	198	12	
2025-07-25T00:00	5700	500	-16.8	-33.6	198	12	
2025-07-25T00:00	5720	499	-16.9	-33.7	198	13	
2025-07-25T00:00	5740	498	-17.1	-34.0	198	13	
2025-07-25T00:00	5760	496	-17.3	-34.1	197	13	
2025-07-25T00:00	5780	495	-17.5	-34.6	196	13	
2025-07-25T00:00	5800	494	-17.7	-35.3	195	13	
2025-07-25T00:00	5820	492	-17.9	-35.3	194	14	
2025-07-25T00:00	5840	491	-18.0	-35.6	194	14	
2025-07-25T00:00	5860	490	-18.2	-35.8	195	14	
2025-07-25T00:00	5880	488	-18.4	-36.0	196	14	
2025-07-25T00:00	5900	487	-18.6	-36.3	197	15	
2025-07-25T00:00	5920	486	-18.8	-36.4	198	15	
2025-07-25T00:00	5940	485	-18.9	-36.6	199	16	
2025-07-25T00:00	5960	483	-19.1	-36.6	199	16	
2025-07-25T00:00	5980	482	-19.3	-36.5	199	16	
2025-07-25T00:00	6000	481	-19.5	-36.3	197	16	
2025-07-25T00:00	6020	479	-19.7	-36.1	196	16	
2025-07-25T00:00	6040	478	-19.9	-36.0	196	16	
2025-07-25T00:00	6060	477	-20.0	-35.5	196	16	
2025-07-25T00:00	6080	476	-20.1	-35.1	197	16	
2025-07-25T00:00	6100	474	-20.2	-34.3	199	16	
2025-07-25T00:00	6120	473	-20.4	-34.2	200	16	
2025-07-25T00:00	6140	472	-20.5	-35.1	201	16	
2025-07-25T00:00	6160	470	-20.7	-33.7	201	16	
2025-07-25T00:00	6180	469	-20.9	-33.6	201	16	
2025-07-25T00:00	6200	468	-21.1	-33.8	200	15	
2025-07-25T00:00	6220	466	-21.2	-34.3	200	15	
2025-07-25T00:00	6240	465	-21.4	-34.4	199	15	
2025-07-25T00:00	6260	464	-21.6	-34.4	198	15	
2025-07-25T00:00	6280	463	-21.7	-35.6	199	15	
2025-07-25T00:00	6300	462	-21.9	-35.6	199	15	
2025-07-25T00:00	6320	460	-22.1	-35.5	199	15	
2025-07-25T00:00	6340	459	-22.3	-35.8	199	15	
2025-07-25T00:00	6360	458	-22.4	-37.7	198	16	
2025-07-25T00:00	6380	457	-22.6	-37.5	198	16	
2025-07-25T00:00	6400	455	-22.8	-37.4	197	15	
2025-07-25T00:00	6420	454	-22.9	-37.8	196	15	
2025-07-25T00:00	6440	453	-23.1	-38.2	196	15	
2025-07-25T00:00	6460	452	-23.2	-38.8	196	15	
2025-07-25T00:00	6480	450	-23.4	-38.8	195	15	
2025-07-25T00:00	6500	449	-23.5	-39.1	195	16	
2025-07-25T00:00	6520	448	-23.6	-40.0	195	16	
2025-07-25T00:00	6540	447	-23.7	-40.4	194	17	
2025-07-25T00:00	6560	445	-23.9	-40.6	193	17	
2025-07-25T00:00	6580	444	-24.0	-40.8	193	18	
2025-07-25T00:00	6600	443	-24.2	-40.9	194	18	
2025-07-25T00:00	6620	442	-24.4	-41.1	195	18	
2025-07-25T00:00	6640	440	-24.5	-41.3	196	18	
2025-07-25T00:00	6660	439	-24.6	-41.9	197	18	
2025-07-25T00:00	6680	438	-24.7	-41.5	198	18	
2025-07-25T00:00	6700	437	-24.9	-42.0	199	17	
2025-07-25T00:00	6720	436	-25.0	-42.3	199	18	
2025-07-25T00:00	6740	435	-25.2	-42.2	199	18	
2025-07-25T00:00	6760	433	-25.4	-42.2	199	18	
2025-07-25T00:00	6780	432	-25.5	-42.3	199	18	
2025-07-25T00:00	6800	431	-25.7	-42.4	200	19	
2025-07-25T00:00	6820	430	-25.9	-42.5	200	19	
2025-07-25T00:00	6840	429	-26.0	-42.5	200	19	
2025-07-25T00:00	6860	427	-26.1	-42.1	200	19	
2025-07-25T00:00	6880	426	-26.2	-41.2	199	19	
2025-07-25T00:00	6900	425	-26.3	-39.5	198	19	
2025-07-25T00:00	6920	424	-26.4	-38.0	197	19	
2025-07-25T00:00	6940	423	-26.6	-38.3	196	19	
2025-07-25T00:00	6960	421	-26.8	-38.3	196	19	
2025-07-25T00:00	6980	420	-26.9	-38.7	196	19	
2025-07-25T00:00	7000	419	-27.1	-38.8	196	20	
2025-07-25T00:00	7020	418	-27.2	-38.6	197	20	
2025-07-25T00:00	7040	417	-27.3	-38.9	198	21	
2025-07-25T00:00	7060	416	-27.6	-39.0	199	22	
2025-07-25T00:00	7080	415	-27.7	-39.0	200	22	
2025-07-25T00:00	7100	413	-27.9	-38.6	200	22	
2025-07-25T00:00	7120	412	-28.1	-38.3	199	22	
2025-07-25T00:00	7140	411	-28.3	-38.6	199	22	
2025-07-25T00:00	7160	410	-28.5	-38.9	198	21	
2025-07-25T00:00	7180	409	-28.7	-37.2	198	21	
2025-07-25T00:00	7200	408	-28.9	-37.1	198	21	
2025-07-25T00:00	7220	407	-29.1	-37.7	198	21	
2025-07-25T00:00	7240	405	-29.2	-36.8	199	22	
2025-07-25T00:00	7260	404	-29.4	-36.7	199	22	
2025-07-25T00:00	7280	403	-29.6	-36.3	199	22	
2025-07-25T00:00	7300	402	-29.8	-36.1	199	22	
2025-07-25T00:00	7320	401	-30.0	-36.2	199	22	
2025-07-25T00:00	7340	400	-30.2	-36.2	200	22	
2025-07-25T00:00	7360	399	-30.3	-36.0	200	23	
2025-07-25T00:00	7380	397	-30.5	-35.8	200	23	
2025-07-25T00:00	7400	396	-30.7	-35.5	200	23	
2025-07-25T00:00	7420	395	-30.9	-34.9	200	24	
2025-07-25T00:00	7440	394	-31.1	-34.9	200	24	
2025-07-25T00:00	7460	393	-31.3	-34.9	199	24	
2025-07-25T00:00	7480	392	-31.5	-34.9	198	24	
2025-07-25T00:00	7500	391	-31.6	-35.0	197	24	
2025-07-25T00:00	7520	390	-31.8	-35.3	197	24	
2025-07-25T00:00	7540	389	-32.0	-35.7	196	23	
2025-07-25T00:00	7560	387	-32.2	-35.9	196	23	
2025-07-25T00:00	7580	386	-32.3	-36.0	196	23	
2025-07-25T00:00	7600	385	-32.5	-36.3	197	23	
2025-07-25T00:00	7620	384	-32.7	-36.4	197	23	
2025-07-25T00:00	7640	383	-32.8	-37.5	198	23	
2025-07-25T00:00	7660	382	-33.0	-37.8	199	24	
2025-07-25T00:00	7680	381	-33.1	-38.8	199	24	
2025-07-25T00:00	7700	380	-33.3	-40.0	199	24	
2025-07-25T00:00	7720	379	-33.5	-41.1	198	24	
2025-07-25T00:00	7740	378	-33.6	-43.0	198	24	
2025-07-25T00:00	7760	377	-33.8	-42.8	198	24	
2025-07-25T00:00	7780	376	-34.0	-46.0	198	24	
2025-07-25T00:00	7800	374	-33.9	-50.1	198	24	
2025-07-25T00:00	7820	373	-34.0	-50.1	199	24	
2025-07-25T00:00	7840	372	-34.1	-48.9	199	23	
2025-07-25T00:00	7860	371	-34.2	-46.2	199	23	
2025-07-25T00:00	7880	370	-34.4	-46.5	200	23	
2025-07-25T00:00	7900	369	-34.6	-46.9	202	23	
2025-07-25T00:00	7920	368	-34.8	-46.6	204	23	
2025-07-25T00:00	7940	367	-35.0	-46.4	206	23	
2025-07-25T00:00	7960	366	-35.2	-47.5	208	23	
2025-07-25T00:00	7980	365	-35.3	-49.1	210	23	
2025-07-25T00:00	8000	364	-35.4	-48.0	211	24	
2025-07-25T00:00	8020	363	-35.6	-47.0	211	24	
2025-07-25T00:00	8040	362	-35.8	-46.8	211	25	
2025-07-25T00:00	8060	361	-35.9	-46.8	212	25	
2025-07-25T00:00	8080	360	-36.1	-47.9	212	25	
2025-07-25T00:00	8100	359	-36.0	-49.0	212	26	
2025-07-25T00:00	8120	358	-36.1	-49.3	212	26	
2025-07-25T00:00	8140	357	-36.2	-49.7	212	26	
2025-07-25T00:00	8160	356	-36.3	-50.0	212	26	
2025-07-25T00:00	8180	355	-36.5	-49.8	212	26	
2025-07-25T00:00	8200	354	-36.7	-49.8	212	26	
2025-07-25T00:00	8220	353	-36.8	-50.0	212	27	
2025-07-25T00:00	8240	352	-36.9	-50.9	212	27	
2025-07-25T00:00	8260	351	-36.8	-50.2	212	28	
2025-07-25T00:00	8280	349	-36.9	-48.9	212	28	
2025-07-25T00:00	8300	348	-36.9	-48.4	212	28	
2025-07-25T00:00	8320	348	-37.0	-48.5	212	29	
2025-07-25T00:00	8340	347	-37.0	-49.0	212	29	
2025-07-25T00:00	8360	346	-37.1	-48.8	211	29	
2025-07-25T00:00	8380	344	-37.2	-49.0	210	30	
2025-07-25T00:00	8400	343	-37.3	-49.4	210	30	
2025-07-25T00:00	8420	342	-37.4	-49.8	209	30	
2025-07-25T00:00	8440	342	-37.4	-51.4	209	30	
2025-07-25T00:00	8460	341	-37.4	-51.8	209	31	
2025-07-25T00:00	8480	340	-37.5	-51.8	209	31	
2025-07-25T00:00	8500	338	-37.5	-52.5	209	32	
2025-07-25T00:00	8520	338	-37.5	-52.5	210	32	
2025-07-25T00:00	8540	337	-37.5	-52.7	210	33	
2025-07-25T00:00	8560	336	-37.7	-52.8	210	33	
2025-07-25T00:00	8580	335	-37.9	-53.0	210	33	
2025-07-25T00:00	8600	334	-38.0	-53.2	210	33	
2025-07-25T00:00	8620	333	-38.2	-53.0	210	33	
2025-07-25T00:00	8640	332	-38.3	-52.9	210	33	
2025-07-25T00:00	8660	331	-38.5	-52.8	210	33	
2025-07-25T00:00	8680	330	-38.5	-52.9	210	33	
2025-07-25T00:00	8700	329	-38.7	-53.0	210	33	
2025-07-25T00:00	8720	328	-38.8	-52.8	210	33	
2025-07-25T00:00	8740	327	-38.9	-53.3	210	33	
2025-07-25T00:00	8760	326	-39.0	-54.1	210	33	
2025-07-25T00:00	8780	325	-39.0	-54.4	210	33	
2025-07-25T00:00	8800	324	-39.1	-54.2	210	33	
2025-07-25T00:00	8820	323	-39.3	-54.4	210	33	
2025-07-25T00:00	8840	322	-39.5	-54.5	211	33	
2025-07-25T00:00	8860	321	-39.6	-54.6	211	33	
2025-07-25T00:00	8880	320	-39.6	-55.5	212	33	
2025-07-25T00:00	8900	319	-39.4	-56.8	213	33	
2025-07-25T00:00	8920	318	-39.5	-56.9	213	33	
2025-07-25T00:00	8940	318	-39.7	-57.0	214	33	
2025-07-25T00:00	8960	317	-39.8	-57.5	214	33	
2025-07-25T00:00	8980	316	-39.9	-57.8	214	33	
2025-07-25T00:00	9000	315	-40.0	-58.1	214	33	
2025-07-25T00:00	9020	314	-40.1	-58.7	214	33	
2025-07-25T00:00	9040	313	-40.2	-58.9	214	32	
2025-07-25T00:00	9060	312	-40.3	-59.4	214	32	
2025-07-25T00:00	9080	311	-40.4	-59.6	214	32	
2025-07-25T00:00	9100	310	-40.4	-60.1	215	32	
2025-07-25T00:00	9120	309	-40.5	-60.3	215	32	
2025-07-25T00:00	9140	308	-40.6	-60.3	215	32	
2025-07-25T00:00	9160	308	-40.6	-60.3	216	33	
2025-07-25T00:00	9180	307	-40.7	-60.3	216	33	
2025-07-25T00:00	9200	306	-40.7	-59.9	217	33	
2025-07-25T00:00	9220	305	-40.8	-59.7	217	32	
2025-07-25T00:00	9240	304	-40.9	-59.9	218	32	
2025-07-25T00:00	9260	303	-41.0	-60.0	219	32	
2025-07-25T00:00	9280	302	-41.1	-60.2	220	32	
2025-07-25T00:00	9300	301	-41.0	-60.7	220	32	
2025-07-25T00:00	9320	300	-40.9	-61.1	221	32	
2025-07-25T00:00	9340	299	-40.9	-61.1	221	32	
2025-07-25T00:00	9360	299	-40.9	-61.9	222	32	
2025-07-25T00:00	9380	298	-40.9	-63.4	222	31	
2025-07-25T00:00	9400	297	-40.9	-64.1	223	31	
2025-07-25T00:00	9420	296	-40.9	-63.9	223	31	
2025-07-25T00:00	9440	295	-41.0	-63.8	223	31	
2025-07-25T00:00	9460	294	-41.1	-64.0	224	31	
2025-07-25T00:00	9480	293	-41.0	-64.7	224	31	
2025-07-25T00:00	9500	292	-41.0	-65.0	225	31	
2025-07-25T00:00	9520	292	-41.0	-65.1	225	31	
2025-07-25T00:00	9540	291	-41.1	-64.8	226	31	
2025-07-25T00:00	9560	290	-41.1	-64.8	226	31	
2025-07-25T00:00	9580	289	-41.2	-65.3	226	31	
2025-07-25T00:00	9600	288	-41.1	-65.8	227	31	
2025-07-25T00:00	9620	287	-41.2	-65.8	227	31	
2025-07-25T00:00	9640	287	-41.3	-65.9	227	30	
2025-07-25T00:00	9660	286	-41.3	-66.2	227	30	
2025-07-25T00:00	9680	285	-41.3	-66.5	227	30	
2025-07-25T00:00	9700	284	-41.2	-67.3	227	29	
2025-07-25T00:00	9720	283	-41.2	-67.9	226	28	
2025-07-25T00:00	9740	282	-41.1	-68.0	226	28	
2025-07-25T00:00	9760	281	-41.2	-68.2	225	28	
2025-07-25T00:00	9780	281	-41.3	-68.3	225	27	
2025-07-25T00:00	9800	280	-41.4	-68.3	224	27	
2025-07-25T00:00	9820	279	-41.4	-68.4	223	27	
2025-07-25T00:00	9840	278	-41.4	-68.5	222	27	
2025-07-25T00:00	9860	277	-41.4	-68.8	221	26	
2025-07-25T00:00	9880	276	-41.0	-69.3	221	26	
2025-07-25T00:00	9900	276	-40.9	-69.5	220	25	
2025-07-25T00:00	9920	275	-41.0	-69.5	220	25	
2025-07-25T00:00	9940	274	-40.9	-69.8	220	24	
2025-07-25T00:00	9960	273	-40.9	-70.1	220	24	
2025-07-25T00:00	9980	273	-40.9	-70.1	219	24	
2025-07-25T00:00	10000	272	-41.0	-70.3	218	23	
2025-07-25T00:00	10018	271	-41.0	-70.4	218	23	
2025-07-25T00:00	10050	270	-41.1	-70.5	217	24	
2025-07-25T00:00	10100	268	-41.3	-70.7	216	24	
2025-07-25T00:00	10150	266	-41.3	-71.1	217	24	
2025-07-25T00:00	10200	264	-41.6	-71.2	218	23	
2025-07-25T00:00	10250	262	-41.8	-71.4	220	23	
2025-07-25T00:00	10300	260	-41.9	-71.6	223	22	
2025-07-25T00:00	10350	258	-42.0	-71.7	225	22	
2025-07-25T00:00	10400	256	-41.9	-71.6	226	23	
2025-07-25T00:00	10450	254	-42.1	-71.8	226	23	
2025-07-25T00:00	10500	252	-42.6	-72.0	225	23	
2025-07-25T00:00	10550	250	-42.7	-72.5	224	22	
2025-07-25T00:00	10600	249	-42.6	-72.9	224	21	
2025-07-25T00:00	10650	247	-42.8	-72.8	223	20	
2025-07-25T00:00	10700	245	-43.0	-73.1	220	19	
2025-07-25T00:00	10750	243	-42.9	-73.8	218	18	
2025-07-25T00:00	10800	241	-42.5	-74.4	217	17	
2025-07-25T00:00	10850	240	-42.3	-74.8	219	17	
2025-07-25T00:00	10900	238	-42.2	-74.9	223	16	
2025-07-25T00:00	10950	236	-42.2	-75.0	227	15	
2025-07-25T00:00	11000	234	-42.0	-75.2	230	15	
2025-07-25T00:00	11050	233	-42.1	-75.2	231	15	
2025-07-25T00:00	11100	231	-42.5	-75.4	230	15	
2025-07-25T00:00	11150	229	-43.0	-75.4	228	15	
2025-07-25T00:00	11200	228	-43.5	-75.5	222	15	
2025-07-25T00:00	11250	226	-43.2	-75.8	218	16	
2025-07-25T00:00	11300	224	-43.0	-75.9	218	17	
2025-07-25T00:00	11350	222	-43.2	-76.0	218	18	
2025-07-25T00:00	11400	221	-43.3	-76.1	219	19	
2025-07-25T00:00	11450	219	-43.3	-76.1	221	19	
2025-07-25T00:00	11500	218	-43.2	-76.2	223	19	
2025-07-25T00:00	11550	216	-42.9	-76.2	224	19	
2025-07-25T00:00	11600	214	-43.1	-76.3	224	19	
2025-07-25T00:00	11650	213	-42.9	-76.5	225	19	
2025-07-25T00:00	11700	211	-42.8	-76.6	226	19	
2025-07-25T00:00	11750	210	-43.1	-76.7	227	18	
2025-07-25T00:00	11800	208	-43.5	-76.9	227	17	
2025-07-25T00:00	11850	207	-43.9	-77.0	229	16	
2025-07-25T00:00	11900	205	-44.2	-77.2	231	17	
2025-07-25T00:00	11950	204	-44.4	-77.4	232	17	
2025-07-25T00:00	12000	202	-44.6	-77.5	232	17	
2025-07-25T00:00	12050	200	-44.6	-77.7	233	15	
2025-07-25T00:00	12100	199	-44.2	-77.7	236	14	
2025-07-25T00:00	12150	198	-43.6	-77.8	240	14	
2025-07-25T00:00	12200	196	-43.2	-77.7	240	14	
2025-07-25T00:00	12250	195	-43.2	-77.7	240	14	
2025-07-25T00:00	12300	193	-43.4	-77.8	241	13	
2025-07-25T00:00	12350	192	-43.6	-77.7	240	12	
2025-07-25T00:00	12400	190	-43.9	-77.9	238	12	
2025-07-25T00:00	12450	189	-44.0	-77.9	238	12	
2025-07-25T00:00	12500	188	-44.2	-78.0	240	13	
2025-07-25T00:00	12550	186	-44.6	-78.1	242	14	
2025-07-25T00:00	12600	185	-44.9	-78.3	243	15	
2025-07-25T00:00	12650	183	-45.1	-78.4	245	16	
2025-07-25T00:00	12700	182	-45.0	-78.4	246	15	
2025-07-25T00:00	12750	181	-45.0	-78.7	245	14	
2025-07-25T00:00	12800	179	-44.8	-78.5	239	12	
2025-07-25T00:00	12850	178	-44.8	-78.6	231	12	
2025-07-25T00:00	12900	177	-45.0	-78.6	228	12	
2025-07-25T00:00	12950	175	-44.8	-78.6	231	12	
2025-07-25T00:00	13000	174	-44.7	-78.6	233	13	
2025-07-25T00:00	13050	173	-44.8	-78.7	234	13	
2025-07-25T00:00	13100	171	-45.1	-78.7	236	12	
2025-07-25T00:00	13150	170	-45.5	-78.9	240	12	
2025-07-25T00:00	13200	169	-45.5	-78.9	244	11	
2025-07-25T00:00	13250	168	-46.0	-79.2	248	10	
2025-07-25T00:00	13300	166	-46.0	-79.2	249	9	
2025-07-25T00:00	13350	165	-45.9	-79.3	249	9	
2025-07-25T00:00	13400	164	-45.9	-79.4	251	9	
2025-07-25T00:00	13450	163	-46.2	-79.4	250	8	
2025-07-25T00:00	13500	161	-46.3	-79.6	247	8	
2025-07-25T00:00	13550	160	-46.7	-79.6	245	8	
2025-07-25T00:00	13600	159	-47.1	-79.8	245	9	
2025-07-25T00:00	13650	158	-47.5	-79.8	246	9	
2025-07-25T00:00	13700	157	-47.9	-80.1	247	10	
2025-07-25T00:00	13750	155	-48.4	-80.2	247	10	
2025-07-25T00:00	13800	154	-48.8	-80.5	248	11	
2025-07-25T00:00	13850	153	-48.5	-80.5	248	11	
2025-07-25T00:00	13900	152	-48.3	-80.6	244	11	
2025-07-25T00:00	13950	151	-48.3	-80.6	239	11	
2025-07-25T00:00	14000	150	-48.2	-80.5	238	10	
2025-07-25T00:00	14050	149	-48.4	-80.6	239	10	
2025-07-25T00:00	14100	147	-48.5	-80.6	241	10	
2025-07-25T00:00	14150	146	-48.8	-80.8	240	10	
2025-07-25T00:00	14200	145	-48.9	-80.8	239	10	
2025-07-25T00:00	14250	144	-48.9	-80.8	237	9	
2025-07-25T00:00	14300	143	-49.2	-81.0	235	9	
2025-07-25T00:00	14350	142	-48.7	-81.0	232	8	
2025-07-25T00:00	14400	141	-48.7	-81.0	232	7	
2025-07-25T00:00	14450	140	-48.6	-80.9	235	7	
2025-07-25T00:00	14500	139	-48.8	-80.9	233	6	
2025-07-25T00:00	14550	138	-48.7	-81.1	222	6	
2025-07-25T00:00	14600	137	-47.9	-80.8	220	6	
2025-07-25T00:00	14650	136	-48.0	-80.8	226	6	
2025-07-25T00:00	14700	134	-48.3	-80.7	232	6	
2025-07-25T00:00	14750	134	-48.6	-80.9	237	6	
2025-07-25T00:00	14800	132	-49.0	-81.0	243	6	
2025-07-25T00:00	14850	131	-49.3	-81.0	249	6	
2025-07-25T00:00	14900	131	-49.7	-81.2	255	6	
2025-07-25T00:00	14950	130	-50.1	-81.2	258	6	
2025-07-25T00:00	15000	128	-50.5	-81.3	260	7	
2025-07-25T00:00	15050	127	-50.9	-81.5	259	7	
2025-07-25T00:00	15100	127	-51.2	-81.6	258	6	
2025-07-25T00:00	15150	126	-51.3	-81.7	254	5	
2025-07-25T00:00	15200	125	-51.4	-81.9	242	4	
2025-07-25T00:00	15250	124	-51.6	-82.0	225	4	
2025-07-25T00:00	15300	123	-51.5	-81.9	212	4	
2025-07-25T00:00	15350	122	-51.8	-82.1	206	5	
2025-07-25T00:00	15400	121	-52.1	-82.1	204	6	
2025-07-25T00:00	15450	120	-52.5	-82.3	203	7	
2025-07-25T00:00	15500	119	-52.7	-82.3	206	8	
2025-07-25T00:00	15550	118	-53.1	-82.6	212	8	
2025-07-25T00:00	15600	117	-53.0	-82.7	217	9	
2025-07-25T00:00	15650	116	-53.2	-82.6	220	9	
2025-07-25T00:00	15700	115	-53.6	-82.8	224	9	
2025-07-25T00:00	15750	114	-53.8	-82.9	228	9	
2025-07-25T00:00	15800	114	-54.1	-83.0	231	9	
2025-07-25T00:00	15850	113	-54.4	-83.2	230	9	
2025-07-25T00:00	15900	112	-54.6	-83.3	224	9	
2025-07-25T00:00	15950	111	-54.3	-83.4	221	8	
2025-07-25T00:00	16000	110	-53.7	-83.4	226	8	
2025-07-25T00:00	16050	109	-53.3	-83.4	233	8	
2025-07-25T00:00	16100	108	-53.3	-83.4	237	8	
2025-07-25T00:00	16150	107	-53.2	-83.4	237	9	
2025-07-25T00:00	16200	107	-53.2	-83.4	235	9	
2025-07-25T00:00	16250	106	-53.1	-83.3	235	10	
2025-07-25T00:00	16300	105	-53.1	-83.3	238	10	
2025-07-25T00:00	16350	104	-53.2	-83.3	242	10	
2025-07-25T00:00	16400	103	-53.3	-83.4	244	10	
2025-07-25T00:00	16450	103	-53.1	-83.4	244	10	
2025-07-25T00:00	16500	102	-53.1	-83.4	243	8	
2025-07-25T00:00	16550	101	-53.2	-83.6	234	6	
2025-07-25T00:00	16600	100	-52.5	-83.4	220	5	
2025-07-25T00:00	16650	99	-52.4	-83.4	214	4	
2025-07-25T00:00	16700	99	-52.3	-83.3	212	4	
2025-07-25T00:00	16750	98	-52.7	-83.3	210	4	
2025-07-25T00:00	16800	97	-53.0	-83.4	209	4	
2025-07-25T00:00	16850	96	-52.7	-83.4	212	4	
2025-07-25T00:00	16900	96	-52.7	-83.4	224	4	
2025-07-25T00:00	16950	95	-52.9	-83.4	238	4	
2025-07-25T00:00	17000	94	-53.0	-83.4	248	3	
2025-07-25T00:00	17050	93	-53.2	-83.4	260	2	
2025-07-25T00:00	17100	93	-53.6	-83.5	278	2	
2025-07-25T00:00	17150	92	-53.7	-83.7	274	2	
2025-07-25T00:00	17200	91	-53.7	-83.7	247	3	
2025-07-25T00:00	17250	91	-53.8	-83.8	224	4	
2025-07-25T00:00	17300	90	-53.9	-83.8	211	5	
2025-07-25T00:00	17350	89	-54.1	-84.0	206	6	
2025-07-25T00:00	17400	89	-53.7	-83.8	206	7	
2025-07-25T00:00	17450	88	-53.6	-83.9	211	7	
2025-07-25T00:00	17500	87	-53.9	-83.9	218	6	
2025-07-25T00:00	17550	86	-53.9	-83.8	226	6	
2025-07-25T00:00	17600	86	-54.0	-84.0	230	6	
2025-07-25T00:00	17650	85	-54.2	-84.0	229	6	
2025-07-25T00:00	17700	85	-54.4	-84.0	230	7	
2025-07-25T00:00	17750	84	-54.7	-84.2	238	7	
2025-07-25T00:00	17800	83	-54.6	-84.3	252	6	
2025-07-25T00:00	17850	83	-54.4	-84.2	267	6	
2025-07-25T00:00	17900	82	-54.6	-84.3	282	5	
2025-07-25T00:00	17950	81	-54.8	-84.2	296	4	
2025-07-25T00:00	18000	81	-55.0	-84.2	307	4	
2025-07-25T00:00	18050	80	-55.3	-84.3	317	4	
2025-07-25T00:00	18100	79	-55.7	-84.4	328	4	
2025-07-25T00:00	18150	79	-56.0	-84.6	337	4	
2025-07-25T00:00	18200	78	-56.2	-84.7	343	4	
2025-07-25T00:00	18250	78	-56.5	-84.9	354	3	
2025-07-25T00:00	18300	77	-56.6	-85.1	20	3	
2025-07-25T00:00	18350	76	-56.2	-85.0	51	2	
2025-07-25T00:00	18400	76	-56.2	-85.0	77	2	
2025-07-25T00:00	18450	75	-56.1	-85.1	92	2	
2025-07-25T00:00	18500	75	-55.6	-85.0	90	2	
2025-07-25T00:00	18550	74	-55.6	-85.0	61	2	
2025-07-25T00:00	18600	73	-55.4	-85.0	40	4	
2025-07-25T00:00	18650	73	-55.0	-84.8	37	4	
2025-07-25T00:00	18700	72	-54.9	-84.7	41	4	
2025-07-25T00:00	18750	72	-55.0	-84.7	48	3	
2025-07-25T00:00	18800	71	-55.4	-84.7	64	2	
2025-07-25T00:00	18850	71	-55.6	-84.8	106	1	
2025-07-25T00:00	18900	70	-55.6	-84.8	162	1	
2025-07-25T00:00	18950	69	-55.8	-84.9	185	2	
2025-07-25T00:00	19000	69	-56.1	-85.1	195	2	
2025-07-25T00:00	19050	68	-56.1	-85.2	196	1	
2025-07-25T00:00	19100	68	-55.6	-85.2	169	0	
2025-07-25T00:00	19150	67	-55.5	-85.3	67	1	
2025-07-25T00:00	19200	67	-55.3	-85.1	62	2	
2025-07-25T00:00	19250	66	-55.4	-85.2	62	2	
2025-07-25T00:00	19300	66	-55.0	-85.1	70	2	
2025-07-25T00:00	19350	65	-54.6	-85.0	93	2	
2025-07-25T00:00	19400	65	-54.2	-84.7	123	2	
2025-07-25T00:00	19450	64	-54.5	-84.7	136	3	
2025-07-25T00:00	19500	64	-54.7	-84.6	144	3	
2025-07-25T00:00	19550	63	-55.1	-84.7	154	4	
2025-07-25T00:00	19600	63	-55.4	-84.9	163	4	
2025-07-25T00:00	19650	62	-55.5	-85.0	174	3	
2025-07-25T00:00	19700	62	-55.6	-85.2	186	3	
2025-07-25T00:00	19750	61	-55.1	-85.0	191	2	
2025-07-25T00:00	19800	61	-54.9	-84.9	187	1	
2025-07-25T00:00	19850	60	-55.2	-85.0	171	0	
2025-07-25T00:00	19900	60	-55.4	-85.0	33	1	
2025-07-25T00:00	19950	59	-55.6	-85.2	53	2	
2025-07-25T00:00	20000	59	-55.2	-85.2	86	2	
2025-07-25T00:00	20050	58	-54.9		106	3	
2025-07-25T00:00	20100	58	-54.9		112	4	
2025-07-25T00:00	20150	58	-54.9		113	4	
2025-07-25T00:00	20200	57	-54.8		107	2	
2025-07-25T00:00	20250	57	-54.7		81	2	
2025-07-25T00:00	20300	56	-55.1		35	2	
2025-07-25T00:00	20350	56	-55.3		17	3	
2025-07-25T00:00	20400	55	-55.0		23	5	
2025-07-25T00:00	20450	55	-55.0		34	6	
2025-07-25T00:00	20500	54	-55.1		43	7	
2025-07-25T00:00	20550	54	-55.3		48	9	
2025-07-25T00:00	20600	54	-55.5		53	10	
2025-07-25T00:00	20650	53	-55.8		60	10	
2025-07-25T00:00	20700	53	-56.2		72	10	
2025-07-25T00:00	20750	52	-56.1		84	10	
2025-07-25T00:00	20800	52	-56.0		94	9	
2025-07-25T00:00	20850	52	-56.0		101	9	
2025-07-25T00:00	20900	51	-55.7		111	8	
2025-07-25T00:00	20950	51	-55.3		120	7	
2025-07-25T00:00	21000	50	-55.3		126	5	
2025-07-25T00:00	21050	50	-54.9		125	4	
2025-07-25T00:00	21100	50	-54.3		114	4	
2025-07-25T00:00	21150	49	-54.1		97	3	
2025-07-25T00:00	21200	49	-53.7		87	4	
2025-07-25T00:00	21250	48	-53.3		88	5	
2025-07-25T00:00	21300	48	-53.0		88	6	
2025-07-25T00:00	21350	48	-52.6		89	7	
2025-07-25T00:00	21400	47	-52.6		93	8	
2025-07-25T00:00	21450	47	-52.3		97	8	
2025-07-25T00:00	21500	47	-52.1		95	8	
2025-07-25T00:00	21550	46	-52.0		88	8	
2025-07-25T00:00	21600	46	-51.8		84	8	
2025-07-25T00:00	21650	46	-51.8		87	10	
2025-07-25T00:00	21700	45	-51.7		91	11	
2025-07-25T00:00	21750	45	-51.8		96	13	
2025-07-25T00:00	21800	44	-51.8		100	13	
2025-07-25T00:00	21850	44	-52.0		104	13	
2025-07-25T00:00	21900	44	-52.3		107	12	
2025-07-25T00:00	21950	43	-52.5		108	12	
2025-07-25T00:00	22000	43	-52.6		108	12	
2025-07-25T00:00	22050	43	-52.6		109	11	
2025-07-25T00:00	22100	42	-52.3		112	11	
2025-07-25T00:00	22150	42	-52.3		114	10	
2025-07-25T00:00	22200	42	-52.3		114	10	
2025-07-25T00:00	22250	41	-52.5		115	9	
2025-07-25T00:00	22300	41	-52.6		117	9	
2025-07-25T00:00	22350	41	-52.9		119	9	
2025-07-25T00:00	22400	41	-53.2		120	8	
2025-07-25T00:00	22450	40	-53.4		119	8	
2025-07-25T00:00	22500	40	-53.7		117	7	
2025-07-25T00:00	22550	40	-54.0		115	7	
2025-07-25T00:00	22600	39	-54.2		115	8	
2025-07-25T00:00	22650	39	-54.4		114	8	
2025-07-25T00:00	22700	39	-54.6		110	8	
2025-07-25T00:00	22750	38	-54.5		107	9	
2025-07-25T00:00	22800	38	-54.5		109	9	
2025-07-25T00:00	22850	38	-54.5		115	10	
2025-07-25T00:00	22900	38	-54.4		121	10	
2025-07-25T00:00	22950	37	-54.3		125	10	
2025-07-25T00:00	23000	37	-54.4		127	10	
2025-07-25T00:00	23050	37	-54.6		128	10	
2025-07-25T00:00	23100	36	-54.7		127	10	
2025-07-25T00:00	23150	36	-54.4		125	10	
2025-07-25T00:00	23200	36	-54.2		123	9	
2025-07-25T00:00	23250	35	-54.2		122	9	
2025-07-25T00:00	23300	35	-54.2		122	9	
2025-07-25T00:00	23350	35	-54.2		120	9	
2025-07-25T00:00	23400	35	-54.0		117	9	
2025-07-25T00:00	23450	34	-53.8		112	8	
2025-07-25T00:00	23500	34	-53.6		108	7	
2025-07-25T00:00	23550	34	-53.6		104	6	
2025-07-25T00:00	23600	34	-53.6		97	6	
2025-07-25T00:00	23650	33	-53.3		90	6	
2025-07-25T00:00	23700	33	-53.0		84	7	
2025-07-25T00:00	23750	33	-52.6		75	6	
2025-07-25T00:00	23800	33	-52.4		66	6	
2025-07-25T00:00	23850	32	-52.4		61	6	
2025-07-25T00:00	23900	32	-52.6		61	6	
2025-07-25T00:00	23950	32	-52.6		64	8	
2025-07-25T00:00	24000	32	-52.5		72	9	
2025-07-25T00:00	24050	31	-52.4		81	10	
2025-07-25T00:00	24100	31	-52.4		90	11	
2025-07-25T00:00	24150	31	-52.1		98	12	
2025-07-25T00:00	24200	31	-52.1		107	12	
2025-07-25T00:00	24250	30	-52.1		115	13	
2025-07-25T00:00	24300	30	-51.8		122	12	
2025-07-25T00:00	24350	30	-51.8		128	11	
2025-07-25T00:00	24400	30	-51.7		132	9	
2025-07-25T00:00	24450	29	-51.6		135	7	
2025-07-25T00:00	24500	29	-51.5		134	5	
2025-07-25T00:00	24550	29	-51.6		131	4	
2025-07-25T00:00	24600	29	-51.5		128	2	
2025-07-25T00:00	24650	29	-51.6		103	1	
2025-07-25T00:00	24700	28	-51.7		33	1	
2025-07-25T00:00	24750	28	-51.5		34	3	
2025-07-25T00:00	24800	28	-51.4		43	4	
2025-07-25T00:00	24850	28	-51.4		49	5	
2025-07-25T00:00	24900	27	-51.2		54	6	
2025-07-25T00:00	24950	27	-51.1		56	6	
2025-07-25T00:00	25000	27	-51.2		55	6	
2025-07-25T00:00	25050	27	-51.2		51	6	
2025-07-25T00:00	25100	27	-51.2		49	6	
2025-07-25T00:00	25150	26	-50.9		48	6	
2025-07-25T00:00	25200	26	-50.8		46	7	
2025-07-25T00:00	25250	26	-50.9		42	7	
2025-07-25T00:00	25300	26	-51.0		36	7	
2025-07-25T00:00	25350	26	-51.0		33	8	
2025-07-25T00:00	25400	25	-50.8		35	7	
2025-07-25T00:00	25450	25	-50.6		46	7	
2025-07-25T00:00	25500	25	-50.3		59	8	
2025-07-25T00:00	25550	25	-50.1		67	8	
2025-07-25T00:00	25600	25	-49.9		72	8	
2025-07-25T00:00	25650	25	-49.9		72	7	
2025-07-25T00:00	25700	24	-49.9		63	6	
2025-07-25T00:00	25750	24	-49.7		49	7	
2025-07-25T00:00	25800	24	-49.5		37	9	
2025-07-25T00:00	25850	24	-49.3		33	11	
2025-07-25T00:00	25900	24	-49.1		34	12	
2025-07-25T00:00	25950	23	-48.9		39	13	
2025-07-25T00:00	26000	23	-48.9		48	14	
2025-07-25T00:00	26050	23	-48.8		56	14	
2025-07-25T00:00	26100	23	-48.6		63	14	
2025-07-25T00:00	26150	23	-48.6		70	14	
2025-07-25T00:00	26200	23	-48.6		75	14	
2025-07-25T00:00	26250	22	-48.5		77	14	
2025-07-25T00:00	26300	22	-48.2		77	15	
2025-07-25T00:00	26350	22	-48.1		76	15	
2025-07-25T00:00	26400	22	-48.3		74	15	
2025-07-25T00:00	26450	22	-48.4		74	15	
2025-07-25T00:00	26500	22	-48.4		74	15	
2025-07-25T00:00	26550	21	-48.4		75	15	
2025-07-25T00:00	26600	21	-48.7		77	15	
2025-07-25T00:00	26650	21	-48.8		81	15	
2025-07-25T00:00	26700	21	-48.7		87	15	
2025-07-25T00:00	26750	21	-48.7		95	14	
2025-07-25T00:00	26800	21	-48.8		101	14	
2025-07-25T00:00	26850	20	-48.9		104	13	
2025-07-25T00:00	26900	20	-48.7		104	12	
2025-07-25T00:00	26950	20	-48.5		102	10	
2025-07-25T00:00	27000	20	-48.3		98	9	
2025-07-25T00:00	27050	20	-48.0		93	9	
2025-07-25T00:00	27100	20	-47.8		89	9	
2025-07-25T00:00	27150	20	-47.5		85	9	
2025-07-25T00:00	27200	19	-47.2		82	10	
2025-07-25T00:00	27250	19	-46.8		83	10	
2025-07-25T00:00	27300	19	-46.8		85	10	
2025-07-25T00:00	27350	19	-46.7		84	9	
2025-07-25T00:00	27400	19	-46.9		82	9	
2025-07-25T00:00	27450	19	-47.3		80	8	
2025-07-25T00:00	27500	19	-47.7		77	7	
2025-07-25T00:00	27550	18	-48.1		71	7	
2025-07-25T00:00	27600	18	-48.3		62	7	
2025-07-25T00:00	27650	18	-48.6		54	8	
2025-07-25T00:00	27700	18	-48.7		49	9	
2025-07-25T00:00	27750	18	-48.7		46	10	
2025-07-25T00:00	27800	18	-48.8		46	11	
2025-07-25T00:00	27850	18	-48.9		51	12	
2025-07-25T00:00	27900	17	-48.6		57	13	
2025-07-25T00:00	27950	17	-47.8		60	14	
2025-07-25T00:00	28000	17	-47.8		64	14	
2025-07-25T00:00	28050	17	-47.7		69	15	
2025-07-25T00:00	28100	17	-47.5		75	15	
2025-07-25T00:00	28150	17	-47.3		83	15	
2025-07-25T00:00	28200	17	-47.2		90	15	
2025-07-25T00:00	28250	17	-46.7		96	15	
2025-07-25T00:00	28300	16	-46.5		101	14	
2025-07-25T00:00	28350	16	-46.5		103	13	
2025-07-25T00:00	28400	16	-46.3		101	12	
2025-07-25T00:00	28450	16	-46.5		98	12	
2025-07-25T00:00	28500	16	-46.5		93	11	
2025-07-25T00:00	28550	16	-46.6		88	11	
2025-07-25T00:00	28600	16	-46.6		84	11	
2025-07-25T00:00	28650	16	-46.4		81	12	
2025-07-25T00:00	28700	15	-46.1		80	13	
2025-07-25T00:00	28750	15	-45.8		81	14	
2025-07-25T00:00	28800	15	-45.4		83	15	
2025-07-25T00:00	28850	15	-45.1		88	16	
2025-07-25T00:00	28900	15	-44.6		94	16	
2025-07-25T00:00	28950	15	-44.5		99	16	
2025-07-25T00:00	29000	15	-44.5		102	14	
2025-07-25T00:00	29050	15	-44.5		101	13	
2025-07-25T00:00	29100	15	-44.4		98	13	
2025-07-25T00:00	29150	14	-44.2		96	13	
2025-07-25T00:00	29200	14	-44.2		96	13	
2025-07-25T00:00	29250	14	-44.1		98	13	
2025-07-25T00:00	29300	14	-44.1		100	12	
2025-07-25T00:00	29350	14	-44.3		102	12	
2025-07-25T00:00	29400	14	-44.4		104	12	
2025-07-25T00:00	29450	14	-44.5		103	13	
2025-07-25T00:00	29500	14	-44.4		100	13	
2025-07-25T00:00	29550	14	-44.3		97	14	
2025-07-25T00:00	29600	13	-44.2		94	15	
2025-07-25T00:00	29650	13	-44.1		92	16	
2025-07-25T00:00	29700	13	-44.1		91	16	
2025-07-25T00:00	29750	13	-44.0		91	15	
2025-07-25T00:00	29800	13	-44.2		90	14	
2025-07-25T00:00	29850	13	-44.3		89	13	
2025-07-25T00:00	29900	13	-44.2		86	13	
2025-07-25T00:00	29950	13	-43.9		82	14	
2025-07-25T00:00	30000	13	-44.0		80	15	
2025-07-25T00:00	30050	13	-44.1		79	16	
2025-07-25T00:00	30100	13	-44.1		80	16	
2025-07-25T00:00	30150	12	-44.1		81	16	
2025-07-25T00:00	30200	12	-44.2		83	16	
2025-07-25T00:00	30250	12	-44.3		87	16	
2025-07-25T00:00	30300	12	-44.3		92	16	
2025-07-25T00:00	30350	12	-44.3		96	16	
2025-07-25T00:00	30400	12	-44.6		98	16	
2025-07-25T00:00	30450	12	-44.6		96	16	
2025-07-25T00:00	30500	12	-44.5		94	16	
2025-07-25T00:00	30550	12	-44.4		92	16	
2025-07-25T00:00	30600	12	-44.1		92	16	
2025-07-25T00:00	30650	12	-44.1		92	16	
2025-07-25T00:00	30700	11	-44.1		92	16	
2025-07-25T00:00	30750	11	-43.9		93	15	
2025-07-25T00:00	30800	11	-43.9		93	16	
2025-07-25T00:00	30850	11	-43.9		92	17	
2025-07-25T00:00	30900	11	-43.7		91	18	
2025-07-25T00:00	30950	11	-43.3		93	19	
2025-07-25T00:00	31000	11	-43.2		95	20	
2025-07-25T00:00	31050	11	-43.2		98	20	
2025-07-25T00:00	31100	11	-43.1		100	19	
2025-07-25T00:00	31150	11	-42.8		101	18	
2025-07-25T00:00	31200	11	-42.8		102	17	
2025-07-25T00:00	31250	11	-42.9		101	16	
2025-07-25T00:00	31300	10	-42.8		100	15	
2025-07-25T00:00	31350	10	-42.5		97	15	
2025-07-25T00:00	31400	10	-42.4		92	14	
2025-07-25T00:00	31450	10	-42.4		90	14	
2025-07-25T00:00	31500	10	-42.2		89	15	
2025-07-25T00:00	31550	10	-41.7		90	17	
2025-07-25T00:00	31600	10	-41.6		91	18	
2025-07-25T00:00	31650	10	-41.5		91	18	
2025-07-25T00:00	31700	10	-41.4		91	18	
2025-07-25T00:00	31750	10	-41.3		91	19	
2025-07-25T00:00	31800	10	-41.1		93	19	
2025-07-25T00:00	31850	10	-41.0		97	20	
2025-07-25T00:00	31900	10	-40.8		99	20	
2025-07-25T00:00	31950	10	-40.5		98	19	
2025-07-25T00:00	32000	9	-39.8		97	18	
2025-07-25T00:00	32050	9	-39.0		98	18	
2025-07-25T00:00	32100	9	-38.6		100	17	
2025-07-25T00:00	32150	9	-38.4		100	17	
2025-07-25T00:00	32200	9	-38.2		97	16	
2025-07-25T00:00	32250	9	-37.6		93	16	
2025-07-25T00:00	32300	9	-37.1		92	15	
2025-07-25T00:00	32350	9	-36.6		94	14	
2025-07-25T00:00	32400	9	-36.3		94	14	
2025-07-25T00:00	32450	9	-35.9		91	13	
2025-07-25T00:00	32500	9	-35.6		84	13	
2025-07-25T00:00	32550	9	-35.3		75	13	
2025-07-25T00:00	32600	9	-34.7		68	14	
2025-07-25T00:00	32650	9	-34.6		64	15	
2025-07-25T00:00	32700	9	-34.4		63	16	
2025-07-25T00:00	32750	8	-34.3		63	17	
2025-07-25T00:00	32800	8	-34.3		62	17	
2025-07-25T00:00	32850	8	-34.4		61	16	
2025-07-25T00:00	32900	8	-34.6		60	15	
2025-07-25T00:00	32950	8	-34.9		58	15	
2025-07-25T00:00	33000	8	-35.2		56	14	
2025-07-25T00:00	33050	8	-35.4		55	15	
2025-07-25T00:00	33100	8	-35.5		56	15	
2025-07-25T00:00	33150	8	-35.5		58	16	
2025-07-25T00:00	33200	8	-35.5		61	17	
2025-07-25T00:00	33250	8	-35.6		65	18	
2025-07-25T00:00	33300	8	-35.8		69	18	
2025-07-25T00:00	33350	8	-35.9		73	18	
2025-07-25T00:00	33400	8	-36.1		77	18	
2025-07-25T00:00	33450	8	-36.0		81	18	
2025-07-25T00:00	33500	8	-35.8		83	17	
2025-07-25T00:00	33550	8	-35.9		83	16	
2025-07-25T00:00	33600	7	-36.2		83	15	
2025-07-25T00:00	33650	7	-36.4		80	14	
2025-07-25T00:00	33700	7	-36.5		74	13	
2025-07-25T00:00	33750	7	-36.4		66	12	
2025-07-25T00:00	33800	7	-36.3		59	13	
2025-07-25T00:00	33850	7	-36.4		56	13	
2025-07-25T00:00	33900	7	-36.3		57	14	
2025-07-25T00:00	33950	7	-36.3		60	15	
2025-07-25T00:00	34000	7	-36.4		64	15	
2025-07-25T00:00	34050	7	-36.4		68	16	
2025-07-25T00:00	34100	7	-36.3		72	16	
2025-07-25T00:00	34150	7	-36.2		73	16	
2025-07-25T00:00	34200	7	-36.3		69	14	
2025-07-25T00:00	34250	7	-36.2		63	13	
2025-07-25T00:00	34300	7	-36.1		54	13	
2025-07-25T00:00	34350	7	-36.2		48	13	
2025-07-25T00:00	34400	7	-35.9		45	14	
2025-07-25T00:00	34450	7	-35.6		45	15	
2025-07-25T00:00	34500	7	-35.8		48	16	
2025-07-25T00:00	34550	7	-35.9		53	17	
2025-07-25T00:00	34600	6	-35.8		58	17	
2025-07-25T00:00	34650	6	-35.8		64	17	
2025-07-25T00:00	34700	6	-36.2		71	18	
2025-07-25T00:00	34750	6	-36.4		76	18	
2025-07-25T00:00	34800	6	-36.4		77	18	
2025-07-25T00:00	34850	6	-36.4		76	17	
2025-07-25T00:00	34900	6	-36.3		72	16	
2025-07-25T00:00	34950	6	-35.8		67	15	
2025-07-25T00:00	35000	6	-35.6		63	15	
2025-07-25T00:00	35050	6	-35.5		60	15	
2025-07-25T00:00	35100	6	-35.4		60	16	
2025-07-25T00:00	35150	6	-35.0		61	17	
2025-07-25T00:00	35200	6	-34.6		63	19	
2025-07-25T00:00	35250	6	-34.2		66	20	
2025-07-25T00:00	35300	6	-34.3		68	22	
2025-07-25T00:00	35350	6	-34.5		71	23	
2025-07-25T00:00	35400	6	-34.4		73	25	
2025-07-25T00:00	35450	6	-34.4		74	26	
2025-07-25T00:00	35500	6	-34.1		76	26	
2025-07-25T00:00	35550	6	-34.1		79	26	
2025-07-25T00:00	35600	6	-34.3		82	25	
2025-07-25T00:00	35650	6	-34.4		84	25	
2025-07-25T00:00	35700	6	-34.5		85	24	
2025-07-25T00:00	35750	6	-34.6		84	24	
2025-07-25T00:00	35800	5	-34.4		81	24	
2025-07-25T00:00	35850	5	-34.6		80	24	
2025-07-25T00:00	35900	5	-34.7		79	24	
2025-07-25T00:00	35950	5	-34.7		81	24	
2025-07-25T00:00	36000	5	-34.4		84	24	
2025-07-25T00:00	36050	5	-34.3		86	24	
2025-07-25T00:00	36100	5	-34.1		85	24	
2025-07-25T00:00	36150	5	-34.0		84	25	
2025-07-25T00:00	36200	5	-33.8		83	26	
2025-07-25T00:00	36250	5	-33.6		84	27	
2025-07-25T00:00	36300	5	-33.3		86	27	
2025-07-25T00:00	36350	5	-32.9		89	27	
2025-07-25T00:00	36400	5	-32.7		91	28	
2025-07-25T00:00	36450	5	-32.4		93	29	
2025-07-25T00:00	36500	5	-32.1		96	29	
2025-07-25T00:00	36550	5	-31.9		99	28	
2025-07-25T00:00	36600	5	-31.1		101	26	
2025-07-25T00:00	36650	5	-29.7		98	24	
2025-07-25T00:00	36700	5	-28.5		94	24	
2025-07-25T00:00	36750	5	-28.0		91	24	
2025-07-25T00:00	36800	5	-27.4		92	25	
2025-07-25T00:00	36850	5	-27.1		94	25	
2025-07-25T00:00	36900	5	-26.6		96	25	
2025-07-25T00:00	36950	5	-25.8		96	24	
2025-07-25T00:00	37000	5	-25.3		97	23	
2025-07-25T00:00	37050	5	-25.2		98	23	
2025-07-25T00:00	37100	5	-25.2		96	22	
2025-07-25T00:00	37150	5	-25.0		92	23	
2025-07-25T00:00	37200	4	-24.5		86	24	
2025-07-25T00:00	37250	4	-23.9		82	26	
2025-07-25T00:00	37300	4	-23.4		79	27	
2025-07-25T00:00	37350	4	-23.2		78	27	
2025-07-25T00:00	37400	4	-23.1		81	27	
2025-07-25T00:00	37450	4	-23.0		84	25	
2025-07-25T00:00	37500	4	-23.2		89	25	
2025-07-25T00:00	37550	4	-23.4		94	25	
2025-07-25T00:00	37600	4	-23.6		100	25	
2025-07-25T00:00	37650	4	-23.8		105	26	
2025-07-25T00:00	37700	4	-23.9		106	27	
2025-07-25T00:00	37750	4	-23.8		104	26	
2025-07-25T00:00	37800	4	-23.5		101	24	
2025-07-25T00:00	37850	4	-23.3		99	23	
2025-07-25T12:00	491	960	17.1	14.4	29	4	3.0
2025-07-25T12:00	501	959	16.6	13.5	33	3	3.0
2025-07-25T12:00	520	957	16.2	13.2	33	3	3.1
2025-07-25T12:00	540	955	16.0	13.1	35	4	3.1
2025-07-25T12:00	560	952	15.8	12.8	37	4	3.2
2025-07-25T12:00	580	950	15.4	12.6	40	4	3.2
2025-07-25T12:00	600	948	15.2	12.7	43	5	3.3
2025-07-25T12:00	620	946	15.0	12.6	46	5	3.4
2025-07-25T12:00	640	943	14.9	12.5	45	6	3.4
2025-07-25T12:00	660	941	14.7	12.3	42	6	3.4
2025-07-25T12:00	680	939	14.5	12.2	39	7	3.5
2025-07-25T12:00	700	937	14.4	12.0	37	7	3.5
2025-07-25T12:00	720	935	14.3	11.3	36	7	3.6
2025-07-25T12:00	740	932	14.3	10.9	36	7	3.6
2025-07-25T12:00	760	930	14.2	11.1	37	7	3.7
2025-07-25T12:00	780	928	13.9	11.0	37	7	3.8
2025-07-25T12:00	800	926	13.8	11.0	38	7	3.8
2025-07-25T12:00	820	924	13.8	10.1	38	7	3.9
2025-07-25T12:00	840	921	13.7	9.6	38	8	4.0
2025-07-25T12:00	860	919	13.6	9.7	38	8	4.1
2025-07-25T12:00	880	917	13.4	9.5	37	8	4.2
2025-07-25T12:00	900	915	13.2	9.5	37	8	4.2
2025-07-25T12:00	920	913	13.1	9.4	37	8	4.3
2025-07-25T12:00	940	911	12.9	9.4	37	8	4.3
2025-07-25T12:00	960	908	12.8	9.3	37	8	4.4
2025-07-25T12:00	980	906	12.6	9.3	38	8	4.4
2025-07-25T12:00	1000	904	12.5	9.0	39	8	4.4
2025-07-25T12:00	1020	902	12.3	8.4	41	8	4.4
2025-07-25T12:00	1040	900	12.2	8.2	42	8	4.4
2025-07-25T12:00	1060	898	12.0	9.0	43	8	4.5
2025-07-25T12:00	1080	895	11.8	9.0	43	8	4.5
2025-07-25T12:00	1100	893	11.6	9.1	43	8	4.5
2025-07-25T12:00	1120	891	11.4	9.2	43	8	4.5
2025-07-25T12:00	1140	889	11.2	9.1	42	8	4.4
2025-07-25T12:00	1160	887	11.0	9.2	40	8	4.4
2025-07-25T12:00	1180	885	10.9	9.3	39	8	4.4
2025-07-25T12:00	1200	883	10.8	9.0	37	8	4.4
2025-07-25T12:00	1220	880	10.6	8.5	34	9	4.4
2025-07-25T12:00	1240	878	10.6	7.6	32	9	4.4
2025-07-25T12:00	1260	876	10.5	7.0	30	9	4.4
2025-07-25T12:00	1280	874	10.5	6.4	28	9	4.4
2025-07-25T12:00	1300	872	10.5	6.4	27	9	4.5
2025-07-25T12:00	1320	870	10.4	6.0	26	10	4.5
2025-07-25T12:00	1340	868	10.4	5.9	25	10	4.5
2025-07-25T12:00	1360	866	10.4	5.4	25	10	4.5
2025-07-25T12:00	1380	864	10.5	5.0	24	10	4.5
2025-07-25T12:00	1400	862	10.4	4.9	24	10	4.5
2025-07-25T12:00	1420	860	10.3	4.9	25	10	4.5
2025-07-25T12:00	1440	858	10.2	4.7	26	9	4.5
2025-07-25T12:00	1460	856	10.1	4.7	28	9	4.6
2025-07-25T12:00	1480	854	9.9	4.5	29	9	4.5
2025-07-25T12:00	1500	852	9.8	4.3	31	9	4.5
2025-07-25T12:00	1520	850	9.7	4.3	31	9	4.5
2025-07-25T12:00	1540	847	9.5	4.3	32	9	4.5
2025-07-25T12:00	1560	845	9.3	4.2	32	9	4.6
2025-07-25T12:00	1580	843	9.2	4.1	32	9	4.6
2025-07-25T12:00	1600	841	9.0	4.0	32	8	4.5
2025-07-25T12:00	1620	839	8.9	3.9	32	8	4.5
2025-07-25T12:00	1640	837	8.8	3.8	32	8	4.5
2025-07-25T12:00	1660	835	8.6	3.8	32	9	4.5
2025-07-25T12:00	1680	833	8.5	3.6	31	9	4.5
2025-07-25T12:00	1700	831	8.4	3.6	30	9	4.5
2025-07-25T12:00	1720	829	8.2	3.7	29	9	4.5
2025-07-25T12:00	1740	827	8.0	3.6	28	9	4.5
2025-07-25T12:00	1760	825	7.9	3.3	27	9	4.4
2025-07-25T12:00	1780	823	7.8	3.3	26	9	4.4
2025-07-25T12:00	1800	821	7.7	3.3	25	9	4.3
2025-07-25T12:00	1820	819	7.5	3.3	25	9	4.3
2025-07-25T12:00	1840	817	7.3	3.4	24	9	4.3
2025-07-25T12:00	1860	815	7.2	3.4	23	9	4.3
2025-07-25T12:00	1880	813	7.0	3.4	22	9	4.3
2025-07-25T12:00	1900	811	6.8	3.5	22	9	4.3
2025-07-25T12:00	1920	809	6.7	3.3	22	9	4.3
2025-07-25T12:00	1940	808	6.5	3.2	22	9	4.3
2025-07-25T12:00	1960	805	6.4	2.7	22	10	4.3
2025-07-25T12:00	1980	803	6.3	2.7	22	10	4.3
2025-07-25T12:00	2000	801	6.2	2.7	22	10	4.3
2025-07-25T12:00	2020	800	6.0	2.7	22	10	4.3
2025-07-25T12:00	2040	797	5.9	2.6	22	10	4.3
2025-07-25T12:00	2060	796	5.7	2.6	21	10	4.3
2025-07-25T12:00	2080	794	5.4	2.6	21	10	4.3
2025-07-25T12:00	2100	792	5.3	2.4	21	9	4.3
2025-07-25T12:00	2120	790	5.1	2.3	21	9	4.3
2025-07-25T12:00	2140	788	5.0	2.2	21	9	4.3
2025-07-25T12:00	2160	786	4.9	2.0	21	9	4.2
2025-07-25T12:00	2180	784	4.9	1.9	22	9	4.2
2025-07-25T12:00	2200	782	4.6	1.9	22	9	4.2
2025-07-25T12:00	2220	780	4.5	1.6	22	9	4.2
2025-07-25T12:00	2240	778	4.4	1.5	23	9	4.2
2025-07-25T12:00	2260	776	4.3	1.4	23	9	4.2
2025-07-25T12:00	2280	774	4.2	1.4	24	8	4.2
2025-07-25T12:00	2300	772	4.0	1.4	25	8	4.2
2025-07-25T12:00	2320	771	4.1	1.4	26	8	4.2
2025-07-25T12:00	2340	769	4.0	1.3	27	8	4.1
2025-07-25T12:00	2360	767	3.8	1.4	28	7	4.1
2025-07-25T12:00	2380	765	3.7	1.2	29	7	4.1
2025-07-25T12:00	2400	763	3.6	1.4	30	7	4.0
2025-07-25T12:00	2420	761	3.5	1.5	32	7	4.0
2025-07-25T12:00	2440	759	3.3	1.5	33	6	4.0
2025-07-25T12:00	2460	758	3.1	1.5	35	6	4.0
2025-07-25T12:00	2480	756	2.9	1.4	36	6	4.0
2025-07-25T12:00	2500	754	2.8	1.3	38	6	4.0
2025-07-25T12:00	2520	752	2.6	1.2	41	6	4.0
2025-07-25T12:00	2540	750	2.4	1.1	42	6	4.0
2025-07-25T12:00	2560	748	2.4	0.9	44	6	4.0
2025-07-25T12:00	2580	747	2.5	0.7	46	6	3.9
2025-07-25T12:00	2600	745	2.5	0.8	47	6	3.9
2025-07-25T12:00	2620	743	2.3	0.8	49	6	3.9
2025-07-25T12:00	2640	741	2.1	0.8	52	6	3.9
2025-07-25T12:00	2660	739	1.9	1.0	55	6	3.9
2025-07-25T12:00	2680	737	1.8	1.4	58	6	3.9
2025-07-25T12:00	2700	735	1.8	1.8	61	6	3.9
2025-07-25T12:00	2720	733	1.7	1.7	63	6	3.9
2025-07-25T12:00	2740	732	1.6	1.6	64	6	3.8
2025-07-25T12:00	2760	730	1.5	1.5	64	6	3.8
2025-07-25T12:00	2780	728	1.4	1.4	65	6	3.8
2025-07-25T12:00	2800	726	1.2	1.2	66	6	3.8
2025-07-25T12:00	2820	725	1.2	1.1	68	6	3.8
2025-07-25T12:00	2840	723	1.0	1.0	70	6	3.8
2025-07-25T12:00	2860	721	0.9	0.9	71	6	3.8
2025-07-25T12:00	2880	719	0.7	0.7	73	6	3.8
2025-07-25T12:00	2900	717	0.6	0.6	73	7	3.8
2025-07-25T12:00	2920	715	0.4	0.4	73	7	3.8
2025-07-25T12:00	2940	714	0.3	0.3	73	7	3.8
2025-07-25T12:00	2960	712	0.2	0.2	72	7	3.8
2025-07-25T12:00	2980	710	0.2	0.1	72	7	3.8
2025-07-25T12:00	3000	708	0.1	0.1	71	7	3.8
2025-07-25T12:00	3020	707	0.0	0.0	71	7	3.8
2025-07-25T12:00	3040	705	-0.1	-0.1	72	7	3.7
2025-07-25T12:00	3060	703	-0.3	-0.3	73	6	3.7
2025-07-25T12:00	3080	701	-0.5	-0.5	74	6	3.7
2025-07-25T12:00	3100	700	-0.6	-0.6	75	6	3.7
2025-07-25T12:00	3120	698	-0.6	-0.7	76	6	3.7
2025-07-25T12:00	3140	696	-0.8	-0.8	77	6	3.7
2025-07-25T12:00	3160	694	-0.9	-0.9	77	6	3.7
2025-07-25T12:00	3180	693	-1.0	-1.0	77	6	3.7
2025-07-25T12:00	3200	691	-1.2	-1.2	78	7	3.7
2025-07-25T12:00	3220	689	-1.3	-1.4	78	7	3.7
2025-07-25T12:00	3240	687	-1.5	-1.7	78	7	3.7
2025-07-25T12:00	3260	686	-1.6	-2.0	78	7	3.7
2025-07-25T12:00	3280	684	-1.7	-2.0	79	7	3.7
2025-07-25T12:00	3300	682	-1.8	-2.2	80	7	3.7
2025-07-25T12:00	3320	681	-1.9	-2.3	81	7	3.7
2025-07-25T12:00	3340	679	-2.0	-2.4	81	7	3.7
2025-07-25T12:00	3360	677	-2.1	-2.6	82	7	3.7
2025-07-25T12:00	3380	675	-2.1	-2.7	83	6	3.7
2025-07-25T12:00	3400	674	-2.2	-2.9	84	6	3.7
2025-07-25T12:00	3420	672	-2.3	-3.1	84	6	3.7
2025-07-25T12:00	3440	670	-2.4	-3.2	85	6	3.7
2025-07-25T12:00	3460	669	-2.5	-3.6	85	6	3.7
2025-07-25T12:00	3480	667	-2.5	-4.0	85	6	3.7
2025-07-25T12:00	3500	665	-2.6	-4.1	85	5	3.7
2025-07-25T12:00	3520	664	-2.7	-4.2	85	5	3.7
2025-07-25T12:00	3540	662	-2.8	-4.5	85	5	3.7
2025-07-25T12:00	3560	660	-2.9	-4.4	85	5	3.7
2025-07-25T12:00	3580	659	-3.1	-4.5	85	5	3.7
2025-07-25T12:00	3600	657	-3.2	-4.5	84	5	3.7
2025-07-25T12:00	3620	655	-3.3	-4.6	84	5	3.7
2025-07-25T12:00	3640	654	-3.5	-4.6	84	5	3.6
2025-07-25T12:00	3660	652	-3.7	-4.7	84	6	3.6
2025-07-25T12:00	3680	651	-3.8	-4.6	85	6	3.6
2025-07-25T12:00	3700	649	-3.9	-4.5	85	6	3.6
2025-07-25T12:00	3720	647	-4.1	-4.7	86	6	3.6
2025-07-25T12:00	3740	645	-4.2	-4.7	86	6	3.6
2025-07-25T12:00	3760	644	-4.4	-4.7	86	6	3.6
2025-07-25T12:00	3780	642	-4.6	-4.8	86	6	3.5
2025-07-25T12:00	3800	641	-4.6	-4.9	86	6	3.5
2025-07-25T12:00	3820	639	-4.8	-4.9	86	6	3.5
2025-07-25T12:00	3840	637	-5.0	-5.0	87	6	3.5
2025-07-25T12:00	3860	636	-5.1	-5.1	88	5	3.5
2025-07-25T12:00	3880	634	-5.3	-5.4	90	5	3.4
2025-07-25T12:00	3900	632	-5.4	-5.5	93	5	3.4
2025-07-25T12:00	3920	631	-5.6	-5.7	96	4	3.4
2025-07-25T12:00	3940	629	-5.7	-5.7	101	4	3.4
2025-07-25T12:00	3960	628	-5.5	-5.9	106	4	3.4
2025-07-25T12:00	3980	626	-5.5	-6.6	110	4	3.4
2025-07-25T12:00	4000	625	-5.6	-7.2	113	4	3.4
2025-07-25T12:00	4020	623	-5.7	-7.3	114	4	3.4
2025-07-25T12:00	4040	621	-5.8	-7.5	114	4	3.4
2025-07-25T12:00	4060	620	-6.0	-7.5	114	4	3.4
2025-07-25T12:00	4080	618	-6.1	-7.6	113	4	3.4
2025-07-25T12:00	4100	617	-6.1	-8.0	112	5	3.4
2025-07-25T12:00	4120	615	-6.2	-8.1	112	5	3.4
2025-07-25T12:00	4140	613	-6.3	-8.3	112	5	3.4
2025-07-25T12:00	4160	612	-6.4	-8.5	111	5	3.4
2025-07-25T12:00	4180	610	-6.4	-9.1	111	5	3.4
2025-07-25T12:00	4200	609	-6.4	-9.4	110	5	3.4
2025-07-25T12:00	4220	607	-6.6	-9.2	109	4	3.4
2025-07-25T12:00	4240	606	-6.8	-9.5	107	4	3.4
2025-07-25T12:00	4260	604	-6.9	-10.1	106	4	3.4
2025-07-25T12:00	4280	603	-7.0	-10.7	105	4	3.4
2025-07-25T12:00	4300	601	-7.2	-11.0	105	4	3.4
2025-07-25T12:00	4320	600	-7.2	-11.3	105	4	3.4
2025-07-25T12:00	4340	598	-7.4	-11.6	105	4	3.4
2025-07-25T12:00	4360	596	-7.6	-11.9	106	4	3.4
2025-07-25T12:00	4380	595	-7.6	-12.0	107	4	3.4
2025-07-25T12:00	4400	593	-7.9	-12.0	109	4	3.4
2025-07-25T12:00	4420	592	-8.1	-12.1	109	4	3.4
2025-07-25T12:00	4440	590	-8.3	-12.2	111	4	3.4
2025-07-25T12:00	4460	589	-8.5	-12.2	112	4	3.4
2025-07-25T12:00	4480	587	-8.6	-12.2	113	4	3.4
2025-07-25T12:00	4500	586	-8.8	-12.3	114	4	3.4
2025-07-25T12:00	4520	584	-9.0	-12.3	115	4	3.4
2025-07-25T12:00	4540	583	-9.2	-12.5	116	4	3.4
2025-07-25T12:00	4560	581	-9.3	-12.6	117	4	3.4
2025-07-25T12:00	4580	580	-9.6	-12.6	118	4	3.3
2025-07-25T12:00	4600	578	-9.7	-12.7	119	4	3.3
2025-07-25T12:00	4620	577	-9.9	-13.0	119	4	3.3
2025-07-25T12:00	4640	575	-10.0	-14.5	119	4	3.3
2025-07-25T12:00	4660	574	-10.2	-14.9	117	4	3.3
2025-07-25T12:00	4680	572	-10.3	-15.2	116	4	3.3
2025-07-25T12:00	4700	571	-10.4	-15.8	113	4	3.4
2025-07-25T12:00	4720	569	-10.7	-16.0	110	4	3.4
2025-07-25T12:00	4740	568	-10.8	-17.1	108	5	3.4
2025-07-25T12:00	4760	566	-10.8	-18.0	106	5	3.4
2025-07-25T12:00	4780	565	-10.7	-19.3	103	5	3.5
2025-07-25T12:00	4800	563	-10.8	-20.4	102	5	3.5
2025-07-25T12:00	4820	562	-10.9	-20.9	100	5	3.5
2025-07-25T12:00	4840	561	-11.0	-21.5	99	4	3.6
2025-07-25T12:00	4860	559	-11.1	-22.3	98	4	3.6
2025-07-25T12:00	4880	558	-11.2	-22.6	96	4	3.6
2025-07-25T12:00	4900	556	-11.3	-22.9	95	4	3.6
2025-07-25T12:00	4920	555	-11.5	-23.1	94	4	3.6
2025-07-25T12:00	4940	553	-11.8	-23.1	92	4	3.6
2025-07-25T12:00	4960	552	-12.0	-23.2	90	4	3.6
2025-07-25T12:00	4980	550	-12.1	-23.2	88	4	3.6
2025-07-25T12:00	5000	549	-12.2	-23.3	85	4	3.6
2025-07-25T12:00	5020	547	-12.4	-23.8	84	4	3.6
2025-07-25T12:00	5040	546	-12.4	-24.9	82	4	3.5
2025-07-25T12:00	5060	545	-12.5	-26.0	82	5	3.5
2025-07-25T12:00	5080	543	-12.5	-27.8	82	5	3.5
2025-07-25T12:00	5100	542	-12.4	-29.3	83	5	3.5
2025-07-25T12:00	5120	540	-12.5	-30.0	85	5	3.5
2025-07-25T12:00	5140	539	-12.6	-30.0	88	4	3.5
2025-07-25T12:00	5160	538	-12.8	-30.1	91	4	3.4
2025-07-25T12:00	5180	536	-13.0	-30.3	96	4	3.4
2025-07-25T12:00	5200	535	-13.0	-31.6	101	4	3.4
2025-07-25T12:00	5220	533	-12.9	-32.0	107	4	3.4
2025-07-25T12:00	5240	532	-12.7	-33.0	112	3	3.5
2025-07-25T12:00	5260	531	-12.9	-33.4	119	3	3.6
2025-07-25T12:00	5280	529	-13.1	-33.4	125	3	3.6
2025-07-25T12:00	5300	528	-13.2	-33.5	131	3	3.6
2025-07-25T12:00	5320	526	-13.4	-33.7	138	3	3.6
2025-07-25T12:00	5340	525	-13.5	-34.4	145	3	3.7
2025-07-25T12:00	5360	523	-13.6	-34.9	151	4	3.7
2025-07-25T12:00	5380	522	-13.8	-34.9	154	4	3.8
2025-07-25T12:00	5400	521	-14.0	-35.4	154	4	3.8
2025-07-25T12:00	5420	519	-14.0	-36.7	154	4	3.8
2025-07-25T12:00	5440	518	-14.0	-37.8	152	4	3.8
2025-07-25T12:00	5460	517	-14.1	-38.0	149	4	3.8
2025-07-25T12:00	5480	515	-14.2	-38.2	144	4	3.9
2025-07-25T12:00	5500	514	-14.3	-38.3	140	4	3.9
2025-07-25T12:00	5520	513	-14.5	-38.4	135	4	3.9
2025-07-25T12:00	5540	511	-14.7	-38.5	130	4	3.9
2025-07-25T12:00	5560	510	-14.9	-38.5	126	4	3.9
2025-07-25T12:00	5580	509	-15.0	-38.7	122	4	3.9
2025-07-25T12:00	5600	507	-15.1	-38.7	120	4	3.9
2025-07-25T12:00	5620	506	-15.3	-38.9	117	4	3.9
2025-07-25T12:00	5640	505	-15.6	-38.9	116	4	3.9
2025-07-25T12:00	5660	503	-15.5	-38.4	115	4	3.9
2025-07-25T12:00	5680	502	-15.7	-37.1	114	4	3.9
2025-07-25T12:00	5700	500	-15.9	-36.5	114	4	3.9
2025-07-25T12:00	5720	499	-16.0	-36.7	114	4	3.9
2025-07-25T12:00	5740	498	-16.1	-36.4	115	4	3.9
2025-07-25T12:00	5760	497	-16.2	-31.7	117	4	3.9
2025-07-25T12:00	5780	495	-16.3	-28.9	118	4	3.9
2025-07-25T12:00	5800	494	-16.5	-29.0	121	4	3.9
2025-07-25T12:00	5820	493	-16.7	-28.8	124	4	3.9
2025-07-25T12:00	5840	491	-16.9	-28.8	128	4	3.9
2025-07-25T12:00	5860	490	-17.0	-28.7	132	4	3.8
2025-07-25T12:00	5880	489	-17.2	-28.1	136	3	3.8
2025-07-25T12:00	5900	487	-17.4	-28.3	139	3	3.8
2025-07-25T12:00	5920	486	-17.5	-28.6	143	4	3.7
2025-07-25T12:00	5940	485	-17.8	-28.4	146	4	3.7
2025-07-25T12:00	5960	484	-18.0	-28.2	148	4	3.7
2025-07-25T12:00	5980	482	-18.2	-27.9	151	4	3.7
2025-07-25T12:00	6000	481	-18.3	-28.0	153	4	3.7
2025-07-25T12:00	6020	480	-18.4	-27.1	155	4	3.6
2025-07-25T12:00	6040	478	-18.6	-26.2	157	4	3.6
2025-07-25T12:00	6060	477	-18.8	-25.7	158	4	3.6
2025-07-25T12:00	6080	476	-18.8	-25.8	160	3	3.5
2025-07-25T12:00	6100	475	-18.8	-26.2	160	3	3.4
2025-07-25T12:00	6120	473	-18.9	-26.3	160	3	3.3
2025-07-25T12:00	6140	472	-19.0	-26.3	160	3	3.2
2025-07-25T12:00	6160	471	-19.2	-26.3	160	3	3.1
2025-07-25T12:00	6180	470	-19.3	-26.4	160	3	3.1
2025-07-25T12:00	6200	468	-19.4	-26.2	162	3	3.0
2025-07-25T12:00	6220	467	-19.6	-26.3	165	3	3.0
2025-07-25T12:00	6240	466	-19.8	-26.3	169	4	2.9
2025-07-25T12:00	6260	464	-20.0	-26.3	174	4	2.9
2025-07-25T12:00	6280	463	-20.2	-26.4	178	4	2.9
2025-07-25T12:00	6300	462	-20.2	-26.5	182	4	2.8
2025-07-25T12:00	6320	461	-20.4	-26.3	185	4	2.8
2025-07-25T12:00	6340	460	-20.7	-26.2	186	4	2.8
2025-07-25T12:00	6360	458	-20.8	-26.7	187	5	2.7
2025-07-25T12:00	6380	457	-21.0	-26.8	187	5	2.7
2025-07-25T12:00	6400	456	-21.3	-27.0	186	5	2.7
2025-07-25T12:00	6420	455	-21.4	-27.6	185	4	2.7
2025-07-25T12:00	6440	453	-21.6	-28.2	184	4	2.7
2025-07-25T12:00	6460	452	-21.7	-28.1	184	4	2.7
2025-07-25T12:00	6480	451	-21.8	-28.2	184	4	2.8
2025-07-25T12:00	6500	450	-22.0	-28.6	186	4	2.8
2025-07-25T12:00	6520	448	-22.2	-28.6	187	4	2.8
2025-07-25T12:00	6540	447	-22.4	-28.7	189	5	2.8
2025-07-25T12:00	6560	446	-22.4	-28.9	191	5	2.8
2025-07-25T12:00	6580	445	-22.7	-28.6	192	5	2.9
2025-07-25T12:00	6600	444	-22.9	-28.6	192	5	2.9
2025-07-25T12:00	6620	442	-23.0	-28.8	192	5	2.9
2025-07-25T12:00	6640	441	-23.2	-29.0	191	5	2.8
2025-07-25T12:00	6660	440	-23.4	-28.9	191	5	2.8
2025-07-25T12:00	6680	439	-23.5	-28.8	190	5	2.8
2025-07-25T12:00	6700	438	-23.8	-29.0	190	5	2.8
2025-07-25T12:00	6720	436	-24.0	-29.0	190	5	2.8
2025-07-25T12:00	6740	435	-24.1	-29.2	190	5	2.8
2025-07-25T12:00	6760	434	-24.3	-29.3	191	5	2.8
2025-07-25T12:00	6780	433	-24.6	-29.2	192	5	2.8
2025-07-25T12:00	6800	432	-24.7	-29.1	192	5	2.7
2025-07-25T12:00	6820	430	-24.9	-29.0	193	6	2.7
2025-07-25T12:00	6840	429	-25.2	-29.1	194	6	2.7
2025-07-25T12:00	6860	428	-25.3	-29.2	195	6	2.7
2025-07-25T12:00	6880	427	-25.5	-29.4	196	6	2.6
2025-07-25T12:00	6900	426	-25.7	-29.6	197	6	2.6
2025-07-25T12:00	6920	424	-25.9	-29.8	198	6	2.6
2025-07-25T12:00	6940	423	-25.9	-30.2	199	6	2.6
2025-07-25T12:00	6960	422	-26.1	-30.2	199	6	2.6
2025-07-25T12:00	6980	421	-26.4	-29.8	200	6	2.6
2025-07-25T12:00	7000	420	-26.5	-29.9	201	6	2.6
2025-07-25T12:00	7020	419	-26.8	-30.0	201	6	2.6
2025-07-25T12:00	7040	418	-26.9	-30.2	202	6	2.6
2025-07-25T12:00	7060	416	-27.2	-30.1	202	6	2.6
2025-07-25T12:00	7080	415	-27.3	-29.9	202	6	2.6
2025-07-25T12:00	7100	414	-27.5	-30.2	201	6	2.6
2025-07-25T12:00	7120	413	-27.7	-30.5	200	6	2.6
2025-07-25T12:00	7140	412	-27.8	-30.7	199	6	2.6
2025-07-25T12:00	7160	410	-28.0	-30.6	198	6	2.6
2025-07-25T12:00	7180	409	-28.1	-30.9	198	6	2.6
2025-07-25T12:00	7200	408	-28.3	-31.1	197	6	2.6
2025-07-25T12:00	7220	407	-28.5	-31.0	197	6	2.6
2025-07-25T12:00	7240	406	-28.7	-31.2	197	6	2.6
2025-07-25T12:00	7260	405	-28.8	-31.3	198	6	2.6
2025-07-25T12:00	7280	404	-29.0	-31.3	198	6	2.7
2025-07-25T12:00	7300	403	-29.2	-31.3	200	5	2.6
2025-07-25T12:00	7320	402	-29.4	-31.4	201	5	2.6
2025-07-25T12:00	7340	400	-29.6	-31.6	202	5	2.6
2025-07-25T12:00	7360	399	-29.9	-31.6	203	5	2.6
2025-07-25T12:00	7380	398	-30.1	-31.6	203	6	2.6
2025-07-25T12:00	7400	397	-30.2	-31.6	202	6	2.7
2025-07-25T12:00	7420	396	-30.4	-32.2	202	6	2.6
2025-07-25T12:00	7440	395	-30.6	-32.8	201	6	2.6
2025-07-25T12:00	7460	394	-30.6	-33.0	201	7	2.6
2025-07-25T12:00	7480	393	-30.7	-33.0	200	7	2.6
2025-07-25T12:00	7500	391	-30.9	-32.9	200	7	2.6
2025-07-25T12:00	7520	390	-31.1	-32.8	200	7	2.6
2025-07-25T12:00	7540	389	-31.3	-32.8	200	7	2.6
2025-07-25T12:00	7560	388	-31.4	-33.1	201	7	2.6
2025-07-25T12:00	7580	387	-31.7	-33.2	202	7	2.6
2025-07-25T12:00	7600	386	-31.9	-33.0	202	7	2.6
2025-07-25T12:00	7620	385	-32.0	-33.4	203	7	2.6
2025-07-25T12:00	7640	384	-32.1	-33.5	204	7	2.6
2025-07-25T12:00	7660	383	-32.4	-33.3	205	8	2.6
2025-07-25T12:00	7680	382	-32.5	-34.0	206	8	2.6
2025-07-25T12:00	7700	381	-32.6	-35.1	206	8	2.6
2025-07-25T12:00	7720	379	-32.8	-35.1	207	8	2.6
2025-07-25T12:00	7740	378	-32.9	-35.2	208	8	2.7
2025-07-25T12:00	7760	377	-33.1	-35.5	209	9	2.7
2025-07-25T12:00	7780	376	-33.2	-35.6	209	9	2.7
2025-07-25T12:00	7800	375	-33.3	-35.9	210	9	2.7
2025-07-25T12:00	7820	374	-33.4	-36.5	210	9	2.7
2025-07-25T12:00	7840	373	-33.5	-37.1	210	9	2.7
2025-07-25T12:00	7860	372	-33.7	-37.4	210	9	2.7
2025-07-25T12:00	7880	371	-33.8	-37.8	210	10	2.7
2025-07-25T12:00	7900	370	-33.9	-39.0	210	10	2.7
2025-07-25T12:00	7920	369	-34.0	-39.2	209	10	2.7
2025-07-25T12:00	7940	368	-34.2	-39.4	209	10	2.7
2025-07-25T12:00	7960	367	-34.4	-39.7	209	10	2.7
2025-07-25T12:00	7980	366	-34.6	-39.9	209	10	2.7
2025-07-25T12:00	8000	365	-34.8	-40.3	209	10	2.8
2025-07-25T12:00	8020	364	-35.0	-39.6	210	10	2.8
2025-07-25T12:00	8040	362	-35.2	-39.8	210	10	2.8
2025-07-25T12:00	8060	361	-35.4	-40.9	209	10	2.8
2025-07-25T12:00	8080	360	-35.5	-41.7	209	10	2.8
2025-07-25T12:00	8100	359	-35.6	-43.1	209	10	2.8
2025-07-25T12:00	8120	358	-35.8	-44.1	209	10	2.9
2025-07-25T12:00	8140	357	-35.9	-44.8	208	10	2.9
2025-07-25T12:00	8160	356	-36.0	-46.2	208	10	2.9
2025-07-25T12:00	8180	355	-36.1	-46.8	208	10	2.9
2025-07-25T12:00	8200	354	-36.2	-47.1	207	10	2.9
2025-07-25T12:00	8220	353	-36.3	-47.2	208	10	3.0
2025-07-25T12:00	8240	352	-36.4	-47.1	208	10	3.0
2025-07-25T12:00	8260	351	-36.5	-47.2	209	10	3.1
2025-07-25T12:00	8280	350	-36.7	-47.5	210	10	3.0
2025-07-25T12:00	8300	349	-36.9	-47.7	212	10	3.1
2025-07-25T12:00	8320	348	-37.2	-47.8	214	11	3.1
2025-07-25T12:00	8340	347	-37.4	-48.0	215	11	3.1
2025-07-25T12:00	8360	346	-37.4	-48.7	217	11	3.1
2025-07-25T12:00	8380	345	-37.5	-48.7	218	11	3.1
2025-07-25T12:00	8400	344	-37.7	-48.2	220	11	3.1
2025-07-25T12:00	8420	343	-37.9	-48.2	221	11	3.2
2025-07-25T12:00	8440	342	-38.0	-49.0	222	10	3.3
2025-07-25T12:00	8460	341	-38.1	-50.1	224	10	3.4
2025-07-25T12:00	8480	340	-38.1	-50.7	225	10	3.6
2025-07-25T12:00	8500	339	-38.3	-50.6	226	10	3.7
2025-07-25T12:00	8520	338	-38.4	-50.6	227	10	3.9
2025-07-25T12:00	8540	337	-38.6	-50.7	227	10	4.0
2025-07-25T12:00	8560	336	-38.8	-51.2	227	10	4.2
2025-07-25T12:00	8580	335	-38.8	-52.0	227	11	4.3
2025-07-25T12:00	8600	334	-39.0	-52.8	227	11	4.4
2025-07-25T12:00	8620	333	-39.1	-54.0	226	12	4.6
2025-07-25T12:00	8640	332	-39.0	-55.0	225	12	4.9
2025-07-25T12:00	8660	331	-39.0	-55.3	223	13	5.2
2025-07-25T12:00	8680	330	-39.0	-55.5	222	13	5.3
2025-07-25T12:00	8700	329	-39.0	-55.5	221	14	5.5
2025-07-25T12:00	8720	328	-39.1	-55.4	220	14	5.6
2025-07-25T12:00	8740	328	-39.4	-55.3	218	14	5.7
2025-07-25T12:00	8760	327	-39.6	-55.4	217	15	5.8
2025-07-25T12:00	8780	326	-39.6	-56.2	216	15	6.0
2025-07-25T12:00	8800	325	-39.4	-57.8	215	15	6.1
2025-07-25T12:00	8820	324	-39.4	-58.1	214	15	6.2
2025-07-25T12:00	8840	323	-39.4	-58.0	214	15	6.3
2025-07-25T12:00	8860	322	-39.4	-58.3	214	15	6.4
2025-07-25T12:00	8880	321	-39.5	-58.4	214	16	6.5
2025-07-25T12:00	8900	320	-39.5	-58.6	214	16	6.7
2025-07-25T12:00	8920	319	-39.6	-58.9	214	16	6.8
2025-07-25T12:00	8940	318	-39.5	-59.3	214	17	6.8
2025-07-25T12:00	8960	317	-39.5	-59.8	214	18	6.8
2025-07-25T12:00	8980	316	-39.4	-60.6	214	18	7.0
2025-07-25T12:00	9000	315	-39.4	-60.8	213	19	7.1
2025-07-25T12:00	9020	314	-39.1	-61.7	213	19	7.2
2025-07-25T12:00	9040	313	-38.9	-62.4	213	20	7.4
2025-07-25T12:00	9060	313	-38.9	-62.3	212	20	7.6
2025-07-25T12:00	9080	312	-38.8	-62.3	212	21	7.8
2025-07-25T12:00	9100	311	-39.0	-62.4	212	21	7.9
2025-07-25T12:00	9120	310	-39.2	-62.4	212	21	8.0
2025-07-25T12:00	9140	309	-39.4	-62.5	211	22	8.1
2025-07-25T12:00	9160	308	-39.5	-62.6	211	22	8.2
2025-07-25T12:00	9180	307	-39.5	-63.0	211	22	8.3
2025-07-25T12:00	9200	306	-39.3	-63.6	211	22	8.3
2025-07-25T12:00	9220	305	-39.2	-63.9	211	23	8.4
2025-07-25T12:00	9240	304	-39.2	-63.7	212	23	8.5
2025-07-25T12:00	9260	304	-39.4	-63.8	212	23	8.6
2025-07-25T12:00	9280	303	-39.5	-63.8	213	23	8.7
2025-07-25T12:00	9300	302	-39.5	-63.8	213	23	8.7
2025-07-25T12:00	9320	301	-39.7	-63.7	213	23	8.7
2025-07-25T12:00	9340	300	-39.8	-63.6	214	23	8.7
2025-07-25T12:00	9360	299	-39.8	-63.8	214	23	8.7
2025-07-25T12:00	9380	298	-39.7	-64.4	214	22	8.7
2025-07-25T12:00	9400	298	-39.8	-64.7	214	22	8.7
2025-07-25T12:00	9420	297	-39.9	-64.8	214	22	8.8
2025-07-25T12:00	9440	296	-39.8	-64.7	214	22	8.8
2025-07-25T12:00	9460	295	-39.8	-64.6	214	21	8.8
2025-07-25T12:00	9480	294	-39.8	-64.7	213	21	8.8
2025-07-25T12:00	9500	293	-39.7	-65.2	213	20	8.8
2025-07-25T12:00	9520	292	-39.6	-66.3	212	19	8.8
2025-07-25T12:00	9540	291	-39.4	-67.5	211	19	8.9
2025-07-25T12:00	9560	290	-39.2	-68.1	211	18	9.0
2025-07-25T12:00	9580	290	-39.3	-68.1	210	18	9.2
2025-07-25T12:00	9600	289	-39.4	-67.8	210	17	9.3
2025-07-25T12:00	9620	288	-39.6	-67.9	210	17	9.3
2025-07-25T12:00	9640	287	-39.7	-68.2	211	16	9.4
2025-07-25T12:00	9660	286	-39.8	-68.3	211	16	9.5
2025-07-25T12:00	9680	285	-39.9	-68.5	211	15	9.5
2025-07-25T12:00	9700	285	-39.9	-68.5	211	15	9.6
2025-07-25T12:00	9720	284	-39.9	-68.6	211	15	9.6
2025-07-25T12:00	9740	283	-39.8	-68.6	211	15	9.7
2025-07-25T12:00	9760	282	-39.7	-68.8	210	15	9.7
2025-07-25T12:00	9780	281	-39.9	-68.8	210	15	9.7
2025-07-25T12:00	9800	280	-40.0	-68.8	210	15	9.8
2025-07-25T12:00	9820	280	-40.0	-68.9	210	15	9.8
2025-07-25T12:00	9840	279	-39.9	-69.1	210	16	9.8
2025-07-25T12:00	9860	278	-39.9	-69.5	209	16	9.8
2025-07-25T12:00	9880	277	-40.0	-69.8	209	16	9.8
2025-07-25T12:00	9900	276	-40.1	-69.7	209	16	9.8
2025-07-25T12:00	9920	276	-40.2	-69.7	209	16	9.8
2025-07-25T12:00	9940	275	-40.2	-69.9	209	16	9.8
2025-07-25T12:00	9960	274	-40.4	-70.0	209	15	9.8
2025-07-25T12:00	9980	273	-40.6	-70.1	209	15	9.8
2025-07-25T12:00	10000	272	-40.7	-70.1	209	15	9.8
2025-07-25T12:00	10018	272	-40.5	-70.5	209	15	9.8
2025-07-25T12:00	10050	271	-40.0	-70.9	209	14	9.8
2025-07-25T12:00	10100	269	-40.0	-71.4	210	14	9.8
2025-07-25T12:00	10150	266	-39.9	-71.9	212	14	9.8
2025-07-25T12:00	10200	264	-39.6	-71.9	214	13	9.8
2025-07-25T12:00	10250	263	-39.5	-72.3	215	13	9.8
2025-07-25T12:00	10300	261	-39.3	-72.8	213	12	9.8
2025-07-25T12:00	10350	259	-39.1	-73.2	209	11	9.8
2025-07-25T12:00	10400	257	-39.1	-73.6	204	10	9.8
2025-07-25T12:00	10450	255	-39.0	-74.0	200	10	9.7
2025-07-25T12:00	10500	253	-39.3	-74.2	198	10	9.7
2025-07-25T12:00	10550	251	-39.4	-74.4	199	10	9.7
2025-07-25T12:00	10600	250	-39.3	-74.9	200	11	9.6
2025-07-25T12:00	10650	248	-39.1	-75.3	202	12	9.6
2025-07-25T12:00	10700	246	-39.5	-75.3	205	12	9.6
2025-07-25T12:00	10750	244	-39.7	-75.5	209	13	9.5
2025-07-25T12:00	10800	242	-39.9	-75.5	212	13	9.4
2025-07-25T12:00	10850	241	-39.9	-75.9	212	13	9.2
2025-07-25T12:00	10900	239	-39.7	-76.2	211	13	9.2
2025-07-25T12:00	10950	237	-39.5	-76.3	210	12	9.3
2025-07-25T12:00	11000	235	-39.6	-76.4	211	12	9.3
2025-07-25T12:00	11050	234	-40.1	-76.5	211	11	9.4
2025-07-25T12:00	11100	232	-40.5	-76.7	209	11	9.7
2025-07-25T12:00	11150	230	-40.8	-76.6	205	11	9.6
2025-07-25T12:00	11200	229	-41.1	-76.8	204	10	9.5
2025-07-25T12:00	11250	227	-41.3	-77.1	204	10	9.3
2025-07-25T12:00	11300	225	-41.4	-77.2	204	8	9.2
2025-07-25T12:00	11350	224	-41.5	-77.5	202	7	9.2
2025-07-25T12:00	11400	222	-41.5	-77.8	197	6	9.2
2025-07-25T12:00	11450	220	-41.3	-78.2	193	6	9.3
2025-07-25T12:00	11500	219	-41.4	-78.0	193	7	9.4
2025-07-25T12:00	11550	217	-41.5	-78.2	193	7	9.3
2025-07-25T12:00	11600	215	-41.7	-78.2	192	7	9.1
2025-07-25T12:00	11650	214	-41.9	-78.1	190	6	9.0
2025-07-25T12:00	11700	212	-42.2	-78.3	190	5	8.9
2025-07-25T12:00	11750	211	-42.3	-78.3	190	5	8.7
2025-07-25T12:00	11800	209	-42.5	-78.4	191	6	8.6
2025-07-25T12:00	11850	208	-42.5	-78.6	194	6	8.4
2025-07-25T12:00	11900	206	-42.9	-78.8	199	7	8.3
2025-07-25T12:00	11950	205	-43.1	-79.2	205	8	8.4
2025-07-25T12:00	12000	203	-42.8	-79.1	209	8	8.4
2025-07-25T12:00	12050	202	-43.2	-79.1	210	9	8.4
2025-07-25T12:00	12100	200	-43.6	-79.5	210	9	8.4
2025-07-25T12:00	12150	199	-43.9	-79.5	211	9	8.4
2025-07-25T12:00	12200	197	-44.1	-79.5	212	8	8.4
2025-07-25T12:00	12250	196	-44.1	-79.9	214	6	8.3
2025-07-25T12:00	12300	194	-44.0	-80.0	215	5	8.3
2025-07-25T12:00	12350	193	-44.2	-79.9	213	4	8.3
2025-07-25T12:00	12400	191	-44.4	-80.2	208	4	8.2
2025-07-25T12:00	12450	190	-44.4	-80.0	198	4	8.1
2025-07-25T12:00	12500	188	-44.7	-80.0	191	5	8.1
2025-07-25T12:00	12550	187	-45.0	-80.4	188	6	8.0
2025-07-25T12:00	12600	186	-45.2	-80.5	189	7	8.0
2025-07-25T12:00	12650	184	-45.4	-80.6	194	8	8.0
2025-07-25T12:00	12700	183	-45.5	-80.5	201	9	7.8
2025-07-25T12:00	12750	182	-45.5	-80.5	207	10	7.6
2025-07-25T12:00	12800	180	-45.8	-80.6	211	10	7.4
2025-07-25T12:00	12850	179	-46.1	-81.1	214	10	7.4
2025-07-25T12:00	12900	178	-46.5	-81.1	217	11	7.3
2025-07-25T12:00	12950	176	-46.7	-81.1	221	11	7.2
2025-07-25T12:00	13000	175	-46.9	-81.0	223	11	7.2
2025-07-25T12:00	13050	174	-46.9	-81.3	222	10	7.2
2025-07-25T12:00	13100	172	-47.0	-81.6	222	10	7.2
2025-07-25T12:00	13150	171	-47.2	-81.5	224	10	7.3
2025-07-25T12:00	13200	170	-47.1	-81.6	228	10	7.2
2025-07-25T12:00	13250	168	-47.0	-81.6	234	10	7.1
2025-07-25T12:00	13300	167	-47.3	-81.8	239	10	7.0
2025-07-25T12:00	13350	166	-47.5	-81.7	245	9	6.9
2025-07-25T12:00	13400	165	-47.8	-81.8	251	8	6.9
2025-07-25T12:00	13450	163	-47.6	-82.0	256	8	6.9
2025-07-25T12:00	13500	162	-47.4	-82.0	259	8	6.7
2025-07-25T12:00	13550	161	-47.6	-82.1	262	8	6.4
2025-07-25T12:00	13600	160	-47.8	-81.9	264	8	6.1
2025-07-25T12:00	13650	158	-47.8	-82.1	267	8	5.9
2025-07-25T12:00	13700	157	-47.8	-82.2	270	8	5.8
2025-07-25T12:00	13750	156	-47.7	-82.2	272	8	5.7
2025-07-25T12:00	13800	155	-47.9	-82.3	277	8	5.8
2025-07-25T12:00	13850	154	-48.2	-82.3	282	7	5.8
2025-07-25T12:00	13900	153	-48.7	-82.3	284	6	5.8
2025-07-25T12:00	13950	152	-49.0	-82.5	271	6	5.8
2025-07-25T12:00	14000	150	-48.7	-82.5	255	6	5.8
2025-07-25T12:00	14050	149	-48.8	-82.7	249	7	5.7
2025-07-25T12:00	14100	148	-48.8	-82.6	246	8	5.9
2025-07-25T12:00	14150	147	-48.7	-82.7	247	9	6.0
2025-07-25T12:00	14200	146	-48.9	-82.6	249	8	6.0
2025-07-25T12:00	14250	145	-49.1	-82.7	249	8	5.9
2025-07-25T12:00	14300	144	-49.1	-82.5	248	7	5.8
2025-07-25T12:00	14350	142	-48.9	-82.5	250	6	5.7
2025-07-25T12:00	14400	141	-48.9	-82.5	253	6	5.6
2025-07-25T12:00	14450	140	-49.1	-82.7	254	6	5.5
2025-07-25T12:00	14500	139	-49.1	-82.6	244	5	5.5
2025-07-25T12:00	14550	138	-49.1	-82.8	230	5	5.5
2025-07-25T12:00	14600	137	-49.4	-83.0	218	4	5.5
2025-07-25T12:00	14650	136	-49.3	-82.8	206	3	5.7
2025-07-25T12:00	14700	135	-49.2	-82.7	198	2	6.1
2025-07-25T12:00	14750	134	-49.3	-82.8	212	2	5.9
2025-07-25T12:00	14800	133	-49.3	-82.9	239	2	5.7
2025-07-25T12:00	14850	132	-49.4	-82.9	248	3	5.6
2025-07-25T12:00	14900	131	-49.6	-83.0	247	3	5.6
2025-07-25T12:00	14950	130	-50.0	-83.0	242	4	5.5
2025-07-25T12:00	15000	129	-50.4	-83.1	239	5	5.4
2025-07-25T12:00	15050	128	-50.8	-83.2	237	5	5.3
2025-07-25T12:00	15100	127	-51.1	-83.2	234	5	5.3
2025-07-25T12:00	15150	126	-51.5	-83.4	226	6	5.3
2025-07-25T12:00	15200	125	-51.8	-83.4	223	7	5.2
2025-07-25T12:00	15250	124	-52.0	-83.5	228	8	5.2
2025-07-25T12:00	15300	123	-52.0	-83.7	234	8	5.2
2025-07-25T12:00	15350	122	-52.2	-83.8	238	8	5.3
2025-07-25T12:00	15400	121	-52.4	-83.9	242	7	5.3
2025-07-25T12:00	15450	120	-52.6	-84.0	245	6	5.4
2025-07-25T12:00	15500	119	-52.7	-84.1	248	5	5.5
2025-07-25T12:00	15550	118	-52.8	-84.3	247	4	5.6
2025-07-25T12:00	15600	118	-52.9	-84.5	238	3	5.8
2025-07-25T12:00	15650	117	-53.1	-84.6	225	2	5.8
2025-07-25T12:00	15700	116	-53.3	-84.6	206	2	5.9
2025-07-25T12:00	15750	115	-53.3	-84.7	176	2	6.0
2025-07-25T12:00	15800	114	-53.2	-84.7	162	3	6.0
2025-07-25T12:00	15850	113	-53.4	-84.8	163	4	6.0
2025-07-25T12:00	15900	112	-53.6	-84.8	165	5	6.1
2025-07-25T12:00	15950	111	-53.9	-84.8	164	6	6.1
2025-07-25T12:00	16000	111	-54.3	-84.8	167	8	6.0
2025-07-25T12:00	16050	110	-54.8	-85.1	176	10	5.9
2025-07-25T12:00	16100	109	-55.0	-85.2	186	10	5.8
2025-07-25T12:00	16150	108	-54.6	-85.3	189	8	5.7
2025-07-25T12:00	16200	107	-54.5	-85.4	191	6	5.7
2025-07-25T12:00	16250	106	-54.6	-85.5	198	6	5.7
2025-07-25T12:00	16300	105	-54.2	-85.5	201	7	5.8
2025-07-25T12:00	16350	105	-54.2	-85.7	204	7	5.9
2025-07-25T12:00	16400	104	-53.8	-85.6	204	5	5.9
2025-07-25T12:00	16450	103	-53.5	-85.5	203	4	6.1
2025-07-25T12:00	16500	102	-53.7	-85.6	199	4	6.1
2025-07-25T12:00	16550	101	-53.9	-85.5	198	4	6.2
2025-07-25T12:00	16600	101	-54.1	-85.6	196	6	6.3
2025-07-25T12:00	16650	100	-54.1	-85.7	194	7	6.4
2025-07-25T12:00	16700	99	-54.2	-85.7	196	8	6.5
2025-07-25T12:00	16750	98	-54.3	-85.8	198	8	6.5
2025-07-25T12:00	16800	98	-54.1	-85.7	194	7	6.6
2025-07-25T12:00	16850	97	-54.3	-85.8	187	6	6.7
2025-07-25T12:00	16900	96	-54.8	-85.8	180	5	6.8
2025-07-25T12:00	16950	95	-55.2	-85.9	173	5	6.8
2025-07-25T12:00	17000	95	-55.4	-85.9	170	5	6.7
2025-07-25T12:00	17050	94	-55.5	-86.1	172	5	6.6
2025-07-25T12:00	17100	93	-55.6	-86.1	172	6	6.5
2025-07-25T12:00	17150	92	-55.9	-86.1	169	6	6.4
2025-07-25T12:00	17200	92	-56.2	-86.2	165	6	6.4
2025-07-25T12:00	17250	91	-56.4	-86.4	165	6	6.3
2025-07-25T12:00	17300	90	-56.3	-86.4	170	7	6.4
2025-07-25T12:00	17350	89	-56.5	-86.4	177	7	6.4
2025-07-25T12:00	17400	89	-56.7	-86.4	186	7	6.5
2025-07-25T12:00	17450	88	-57.0	-86.6	196	7	6.5
2025-07-25T12:00	17500	87	-57.0	-86.7	206	6	6.6
2025-07-25T12:00	17550	87	-56.7	-86.7	205	5	6.8
2025-07-25T12:00	17600	86	-56.5	-86.7	180	4	7.0
2025-07-25T12:00	17650	85	-56.6	-86.8	165	6	7.1
2025-07-25T12:00	17700	85	-56.1	-86.8	170	7	7.2
2025-07-25T12:00	17750	84	-55.7	-86.7	178	8	7.3
2025-07-25T12:00	17800	83	-55.5	-86.8	186	6	7.3
2025-07-25T12:00	17850	83	-55.0	-86.7	199	5	7.1
2025-07-25T12:00	17900	82	-54.6	-86.8	224	4	7.0
2025-07-25T12:00	17950	81	-54.2	-86.7	249	5	6.9
2025-07-25T12:00	18000	81	-53.6	-86.7	258	5	6.9
2025-07-25T12:00	18050	80	-53.0	-86.5	258	4	7.0
2025-07-25T12:00	18100	80	-52.9	-86.4	268	3	7.2
2025-07-25T12:00	18150	79	-53.2	-86.3	296	3	7.3
2025-07-25T12:00	18200	78	-53.4	-86.2	328	3	7.3
2025-07-25T12:00	18250	78	-53.4	-86.2	341	4	7.4
2025-07-25T12:00	18300	77	-53.8	-86.2	350	5	7.4
2025-07-25T12:00	18350	76	-54.2	-86.2	358	5	7.4
2025-07-25T12:00	18400	76	-54.5	-86.3	7	5	7.4
2025-07-25T12:00	18450	75	-54.9	-86.4	19	5	7.3
2025-07-25T12:00	18500	75	-55.4	-86.6	34	5	7.2
2025-07-25T12:00	18550	74	-55.7	-86.6	43	5	7.2
2025-07-25T12:00	18600	74	-56.0	-86.7	50	5	7.2
2025-07-25T12:00	18650	73	-56.3	-86.8	58	4	7.1
2025-07-25T12:00	18700	72	-56.7	-87.0	60	3	7.0
2025-07-25T12:00	18750	72	-56.5	-87.2	53	3	7.0
2025-07-25T12:00	18800	71	-56.0	-87.3	44	3	7.1
2025-07-25T12:00	18850	71	-55.6	-87.3	48	5	7.2
2025-07-25T12:00	18900	70	-55.3	-87.2	56	6	7.5
2025-07-25T12:00	18950	70	-55.4	-87.2	62	5	7.6
2025-07-25T12:00	19000	69	-55.4	-87.1	69	4	7.7
2025-07-25T12:00	19050	69	-55.3	-87.1	84	3	7.8
2025-07-25T12:00	19100	68	-55.4	-87.0	101	3	7.9
2025-07-25T12:00	19150	67	-55.6	-87.0	115	3	8.1
2025-07-25T12:00	19200	67	-55.9	-87.1	137	3	8.0
2025-07-25T12:00	19250	66	-56.0	-87.2	171	2	7.9
2025-07-25T12:00	19300	66	-55.7	-87.2	222	2	8.0
2025-07-25T12:00	19350	65	-55.7	-87.3	272	2	8.1
2025-07-25T12:00	19400	65	-55.5	-87.3	300	3	8.2
2025-07-25T12:00	19450	64	-55.4	-87.3	318	2	8.3
2025-07-25T12:00	19500	64	-55.2	-87.1	2	1	8.4
2025-07-25T12:00	19550	63	-55.6	-87.0	73	2	8.4
2025-07-25T12:00	19600	63	-56.0	-87.1	90	3	8.4
2025-07-25T12:00	19650	62	-56.1	-87.4	97	5	8.5
2025-07-25T12:00	19700	62	-55.6	-87.3	103	6	8.5
2025-07-25T12:00	19750	61	-55.5	-87.4	111	7	8.6
2025-07-25T12:00	19800	61	-55.5	-87.4	120	7	8.7
2025-07-25T12:00	19850	60	-55.7	-87.3	126	7	8.9
2025-07-25T12:00	19900	60	-56.0	-87.2	130	6	8.9
2025-07-25T12:00	19950	59	-56.3	-87.3	139	6	9.0
2025-07-25T12:00	20000	59	-56.3	-87.5	147	5	9.0
2025-07-25T12:00	20050	59	-55.7		149	4	9.1
2025-07-25T12:00	20100	58	-55.3		143	4	9.3
2025-07-25T12:00	20150	58	-55.1		140	3	9.5
2025-07-25T12:00	20200	57	-55.0		141	3	9.8
2025-07-25T12:00	20250	57	-54.7		134	2	10.0
2025-07-25T12:00	20300	56	-54.3		84	1	10.2
2025-07-25T12:00	20350	56	-53.9		358	1	10.5
2025-07-25T12:00	20400	55	-54.1		333	2	10.6
2025-07-25T12:00	20450	55	-54.2		330	3	10.7
2025-07-25T12:00	20500	55	-54.3		346	4	10.8
2025-07-25T12:00	20550	54	-54.2		3	5	10.8
2025-07-25T12:00	20600	54	-54.3		16	5	10.9
2025-07-25T12:00	20650	53	-54.7		24	5	11.0
2025-07-25T12:00	20700	53	-54.9		33	6	11.0
2025-07-25T12:00	20750	52	-55.3		45	6	10.9
2025-07-25T12:00	20800	52	-55.8		54	7	10.9
2025-07-25T12:00	20850	52	-56.0		61	8	10.9
2025-07-25T12:00	20900	51	-55.9		71	6	10.8
2025-07-25T12:00	20950	51	-56.1		91	6	10.8
2025-07-25T12:00	21000	50	-56.3		109	7	10.8
2025-07-25T12:00	21050	50	-56.5		117	8	10.8
2025-07-25T12:00	21100	50	-56.7		124	9	10.7
2025-07-25T12:00	21150	49	-56.9		134	9	10.7
2025-07-25T12:00	21200	49	-57.0		142	9	10.7
2025-07-25T12:00	21250	49	-57.1		148	8	10.6
2025-07-25T12:00	21300	48	-56.5		152	7	10.6
2025-07-25T12:00	21350	48	-56.3		159	4	10.6
2025-07-25T12:00	21400	47	-56.4		165	3	10.5
2025-07-25T12:00	21450	47	-56.1		151	3	10.5
2025-07-25T12:00	21500	47	-55.9		130	3	10.5
2025-07-25T12:00	21550	46	-55.6		121	4	10.6
2025-07-25T12:00	21600	46	-55.2		110	5	10.7
2025-07-25T12:00	21650	46	-54.7		98	6	10.9
2025-07-25T12:00	21700	45	-54.5		90	7	11.1
2025-07-25T12:00	21750	45	-54.6		86	8	11.2
2025-07-25T12:00	21800	44	-54.7		84	9	11.3
2025-07-25T12:00	21850	44	-54.9		85	10	11.3
2025-07-25T12:00	21900	44	-54.8		90	10	11.3
2025-07-25T12:00	21950	43	-54.8		96	9	11.3
2025-07-25T12:00	22000	43	-55.0		103	9	11.3
2025-07-25T12:00	22050	43	-55.0		111	8	11.3
2025-07-25T12:00	22100	42	-55.1		116	8	11.3
2025-07-25T12:00	22150	42	-55.1		113	7	11.3
2025-07-25T12:00	22200	42	-55.0		106	7	11.3
2025-07-25T12:00	22250	41	-54.8		103	7	11.3
2025-07-25T12:00	22300	41	-54.8		102	8	11.3
2025-07-25T12:00	22350	41	-54.9		102	8	11.3
2025-07-25T12:00	22400	41	-55.1		104	9	11.2
2025-07-25T12:00	22450	40	-55.0		105	10	11.2
2025-07-25T12:00	22500	40	-54.9		104	10	11.2
2025-07-25T12:00	22550	40	-54.9		106	11	11.2
2025-07-25T12:00	22600	39	-54.6		111	11	11.2
2025-07-25T12:00	22650	39	-54.5		114	12	11.3
2025-07-25T12:00	22700	39	-54.5		115	13	11.3
2025-07-25T12:00	22750	38	-54.7		115	12	11.4
2025-07-25T12:00	22800	38	-54.8		113	11	11.3
2025-07-25T12:00	22850	38	-54.4		112	11	11.3
2025-07-25T12:00	22900	37	-54.1		114	11	11.4
2025-07-25T12:00	22950	37	-54.1		118	11	11.4
2025-07-25T12:00	23000	37	-54.2		122	11	11.5
2025-07-25T12:00	23050	37	-54.1		121	10	11.4
2025-07-25T12:00	23100	36	-54.0		117	10	11.5
2025-07-25T12:00	23150	36	-54.1		111	10	11.4
2025-07-25T12:00	23200	36	-53.8		107	11	11.4
2025-07-25T12:00	23250	35	-53.6		107	11	11.3
2025-07-25T12:00	23300	35	-53.6		113	11	11.1
2025-07-25T12:00	23350	35	-53.4		120	11	11.0
2025-07-25T12:00	23400	35	-53.4		124	12	11.0
2025-07-25T12:00	23450	34	-53.3		125	12	10.9
2025-07-25T12:00	23500	34	-53.2		124	12	10.8
2025-07-25T12:00	23550	34	-53.2		120	11	10.9
2025-07-25T12:00	23600	34	-53.2		114	11	10.9
2025-07-25T12:00	23650	33	-52.9		108	10	11.0
2025-07-25T12:00	23700	33	-52.4		106	9	11.2
2025-07-25T12:00	23750	33	-52.3		106	9	11.4
2025-07-25T12:00	23800	33	-52.2		103	9	11.6
2025-07-25T12:00	23850	32	-52.3		99	10	11.6
2025-07-25T12:00	23900	32	-52.3		93	11	11.8
2025-07-25T12:00	23950	32	-52.3		89	12	11.9
2025-07-25T12:00	24000	32	-52.2		85	13	11.9
2025-07-25T12:00	24050	31	-51.9		83	15	12.0
2025-07-25T12:00	24100	31	-51.5		82	17	12.2
2025-07-25T12:00	24150	31	-51.6		83	17	12.3
2025-07-25T12:00	24200	31	-51.9		86	17	12.3
2025-07-25T12:00	24250	30	-52.1		91	17	12.3
2025-07-25T12:00	24300	30	-52.3		97	16	12.4
2025-07-25T12:00	24350	30	-52.2		103	16	12.4
2025-07-25T12:00	24400	30	-52.1		109	15	12.4
2025-07-25T12:00	24450	29	-52.1		114	15	12.4
2025-07-25T12:00	24500	29	-52.0		117	16	12.4
2025-07-25T12:00	24550	29	-52.0		118	15	12.4
2025-07-25T12:00	24600	29	-51.8		122	14	12.4
2025-07-25T12:00	24650	29	-51.7		128	13	12.4
2025-07-25T12:00	24700	28	-51.8		134	12	12.4
2025-07-25T12:00	24750	28	-51.6		134	11	12.3
2025-07-25T12:00	24800	28	-51.2		130	11	12.3
2025-07-25T12:00	24850	28	-51.1		126	10	12.2
2025-07-25T12:00	24900	27	-51.1		123	11	12.2
2025-07-25T12:00	24950	27	-51.0		123	11	12.1
2025-07-25T12:00	25000	27	-50.8		125	12	12.1
2025-07-25T12:00	25050	27	-50.5		126	11	12.0
2025-07-25T12:00	25100	27	-50.4		128	11	11.9
2025-07-25T12:00	25150	26	-50.4		129	10	11.8
2025-07-25T12:00	25200	26	-50.4		127	9	11.8
2025-07-25T12:00	25250	26	-50.4		124	8	11.7
2025-07-25T12:00	25300	26	-50.1		121	7	11.7
2025-07-25T12:00	25350	26	-49.7		122	8	11.7
2025-07-25T12:00	25400	25	-49.4		124	8	11.7
2025-07-25T12:00	25450	25	-49.3		129	8	11.7
2025-07-25T12:00	25500	25	-49.2		135	7	11.7
2025-07-25T12:00	25550	25	-49.1		141	6	11.7
2025-07-25T12:00	25600	25	-49.0		140	5	11.8
2025-07-25T12:00	25650	25	-48.7		122	3	11.8
2025-07-25T12:00	25700	24	-48.6		55	2	11.8
2025-07-25T12:00	25750	24	-48.3		26	4	11.8
2025-07-25T12:00	25800	24	-48.0		22	6	11.8
2025-07-25T12:00	25850	24	-47.7		22	7	11.8
2025-07-25T12:00	25900	24	-47.4		21	8	11.8
2025-07-25T12:00	25950	23	-47.5		21	9	11.9
2025-07-25T12:00	26000	23	-47.7		25	9	11.9
2025-07-25T12:00	26050	23	-47.8		32	10	11.9
2025-07-25T12:00	26100	23	-47.9		38	10	11.9
2025-07-25T12:00	26150	23	-48.1		41	11	12.0
2025-07-25T12:00	26200	23	-48.2		45	11	12.0
2025-07-25T12:00	26250	22	-48.4		48	11	12.0
2025-07-25T12:00	26300	22	-48.6		50	11	11.9
2025-07-25T12:00	26350	22	-48.8		52	11	11.9
2025-07-25T12:00	26400	22	-49.1		52	11	11.8
2025-07-25T12:00	26450	22	-49.3		52	10	11.8
2025-07-25T12:00	26500	22	-49.4		54	10	11.7
2025-07-25T12:00	26550	21	-49.5		59	10	11.7
2025-07-25T12:00	26600	21	-49.6		66	11	11.7
2025-07-25T12:00	26650	21	-49.6		74	12	11.7
2025-07-25T12:00	26700	21	-49.6		80	13	11.7
2025-07-25T12:00	26750	21	-49.5		86	13	11.7
2025-07-25T12:00	26800	21	-49.3		89	13	11.7
2025-07-25T12:00	26850	20	-49.1		92	12	11.6
2025-07-25T12:00	26900	20	-49.1		95	11	11.6
2025-07-25T12:00	26950	20	-49.1		98	10	11.7
2025-07-25T12:00	27000	20	-49.2		102	9	11.7
2025-07-25T12:00	27050	20	-49.2		108	8	11.6
2025-07-25T12:00	27100	20	-49.2		114	7	11.5
2025-07-25T12:00	27150	20	-49.1		114	6	11.4
2025-07-25T12:00	27200	19	-48.9		106	7	11.4
2025-07-25T12:00	27250	19	-48.6		98	8	11.4
2025-07-25T12:00	27300	19	-48.4		96	10	11.3
2025-07-25T12:00	27350	19	-48.3		96	12	11.1
2025-07-25T12:00	27400	19	-48.2		98	13	11.1
2025-07-25T12:00	27450	19	-48.1		98	13	11.0
2025-07-25T12:00	27500	18	-48.2		97	12	10.9
2025-07-25T12:00	27550	18	-48.3		95	12	10.9
2025-07-25T12:00	27600	18	-48.5		94	11	10.7
2025-07-25T12:00	27650	18	-48.7		94	10	10.7
2025-07-25T12:00	27700	18	-49.0		95	9	10.6
2025-07-25T12:00	27750	18	-49.3		94	8	10.5
2025-07-25T12:00	27800	18	-49.5		89	7	10.4
2025-07-25T12:00	27850	18	-49.5		83	7	10.4
2025-07-25T12:00	27900	17	-49.5		79	8	10.3
2025-07-25T12:00	27950	17	-49.4		78	10	10.2
2025-07-25T12:00	28000	17	-49.1		77	11	10.1
2025-07-25T12:00	28050	17	-48.9		76	13	10.0
2025-07-25T12:00	28100	17	-48.6		77	15	10.0
2025-07-25T12:00	28150	17	-48.2		80	16	10.0
2025-07-25T12:00	28200	17	-48.0		83	17	9.9
2025-07-25T12:00	28250	16	-47.9		88	17	9.9
2025-07-25T12:00	28300	16	-47.8		94	17	9.9
2025-07-25T12:00	28350	16	-47.5		99	16	9.8
2025-07-25T12:00	28400	16	-47.3		99	15	9.8
2025-07-25T12:00	28450	16	-47.0		95	14	9.9
2025-07-25T12:00	28500	16	-46.9		88	13	9.9
2025-07-25T12:00	28550	16	-46.6		84	13	9.9
2025-07-25T12:00	28600	16	-46.3		81	13	9.8
2025-07-25T12:00	28650	16	-46.0		76	13	9.8
2025-07-25T12:00	28700	15	-45.8		73	13	9.8
2025-07-25T12:00	28750	15	-45.7		72	14	9.8
2025-07-25T12:00	28800	15	-45.7		74	14	9.8
2025-07-25T12:00	28850	15	-45.8		78	15	9.7
2025-07-25T12:00	28900	15	-45.7		83	15	9.7
2025-07-25T12:00	28950	15	-45.8		88	15	9.6
2025-07-25T12:00	29000	15	-46.0		92	15	9.6
2025-07-25T12:00	29050	15	-46.2		93	14	9.5
2025-07-25T12:00	29100	15	-46.1		90	14	9.5
2025-07-25T12:00	29150	14	-46.1		86	14	9.4
2025-07-25T12:00	29200	14	-46.0		82	14	9.3
2025-07-25T12:00	29250	14	-45.8		80	15	9.2
2025-07-25T12:00	29300	14	-45.6		80	15	9.2
2025-07-25T12:00	29350	14	-45.6		81	15	9.1
2025-07-25T12:00	29400	14	-45.5		81	15	9.1
2025-07-25T12:00	29450	14	-45.4		81	16	9.0
2025-07-25T12:00	29500	14	-45.3		82	16	9.0
2025-07-25T12:00	29550	14	-45.2		84	17	9.0
2025-07-25T12:00	29600	13	-45.1		88	18	9.0
2025-07-25T12:00	29650	13	-44.9		91	19	8.9
2025-07-25T12:00	29700	13	-44.6		92	18	8.9
2025-07-25T12:00	29750	13	-44.4		91	17	8.8
2025-07-25T12:00	29800	13	-44.1		89	16	8.8
2025-07-25T12:00	29850	13	-43.8		86	17	8.7
2025-07-25T12:00	29900	13	-43.7		85	18	8.6
2025-07-25T12:00	29950	13	-43.4		85	19	8.6
2025-07-25T12:00	30000	13	-43.3		87	19	8.5
2025-07-25T12:00	30050	13	-43.4		89	19	8.4
2025-07-25T12:00	30100	13	-43.4		91	19	8.4
2025-07-25T12:00	30150	12	-43.1		91	19	8.3
2025-07-25T12:00	30200	12	-42.8		91	18	8.2
2025-07-25T12:00	30250	12	-42.7		92	18	8.3
2025-07-25T12:00	30300	12	-42.7		94	18	8.2
2025-07-25T12:00	30350	12	-42.5		95	19	8.2
2025-07-25T12:00	30400	12	-42.3		95	20	8.1
2025-07-25T12:00	30450	12	-42.3		94	20	8.0
2025-07-25T12:00	30500	12	-42.2		93	20	7.9
2025-07-25T12:00	30550	12	-42.1		92	20	7.9
2025-07-25T12:00	30600	12	-42.2		90	19	7.8
2025-07-25T12:00	30650	12	-42.3		89	19	7.8
2025-07-25T12:00	30700	11	-42.2		89	19	7.7
2025-07-25T12:00	30750	11	-42.2		91	19	7.7
2025-07-25T12:00	30800	11	-42.2		93	19	7.7
2025-07-25T12:00	30850	11	-42.1		94	19	7.7
2025-07-25T12:00	30900	11	-41.9		97	18	7.6
2025-07-25T12:00	30950	11	-41.6		100	17	7.5
2025-07-25T12:00	31000	11	-41.2		100	17	7.4
2025-07-25T12:00	31050	11	-40.8		98	17	7.3
2025-07-25T12:00	31100	11	-40.5		96	18	7.3
2025-07-25T12:00	31150	11	-40.0		93	18	7.3
2025-07-25T12:00	31200	11	-39.7		94	18	7.2
2025-07-25T12:00	31250	11	-39.5		97	18	7.2
2025-07-25T12:00	31300	10	-39.3		100	18	7.2
2025-07-25T12:00	31350	10	-39.1		101	18	7.1
2025-07-25T12:00	31400	10	-38.9		98	18	7.1
2025-07-25T12:00	31450	10	-38.9		96	18	7.1
2025-07-25T12:00	31500	10	-38.9		94	19	7.1
2025-07-25T12:00	31550	10	-39.0		94	19	7.0
2025-07-25T12:00	31600	10	-39.0		95	19	7.0
2025-07-25T12:00	31650	10	-39.1		97	19	6.9
2025-07-25T12:00	31700	10	-39.2		99	19	6.9
2025-07-25T12:00	31750	10	-39.0		100	20	6.8
2025-07-25T12:00	31800	10	-38.7		101	19	6.7
2025-07-25T12:00	31850	10	-38.5		101	19	6.7
2025-07-25T12:00	31900	10	-38.5		102	18	6.7
2025-07-25T12:00	31950	10	-38.6		103	17	6.6
2025-07-25T12:00	32000	9	-38.7		103	16	6.6
2025-07-25T12:00	32050	9	-38.7		102	17	6.5
2025-07-25T12:00	32100	9	-38.5		102	17	6.4
2025-07-25T12:00	32150	9	-38.4		104	18	6.4
2025-07-25T12:00	32200	9	-38.4		106	17	6.3
2025-07-25T12:00	32250	9	-38.3		107	16	6.3
2025-07-25T12:00	32300	9	-38.2		104	15	6.2
2025-07-25T12:00	32350	9	-38.3		97	14	6.2
2025-07-25T12:00	32400	9	-37.9		93	15	6.2
2025-07-25T12:00	32450	9	-37.4		93	14	6.1
2025-07-25T12:00	32500	9	-36.9		96	14	6.0
2025-07-25T12:00	32550	9	-36.5		95	13	6.0
2025-07-25T12:00	32600	9	-36.0		92	13	5.9
2025-07-25T12:00	32650	9	-35.5		91	12	5.9
2025-07-25T12:00	32700	9	-35.5		93	11	5.9
2025-07-25T12:00	32750	8	-35.8		99	9	5.9
2025-07-25T12:00	32800	8	-36.0		101	8	5.8
2025-07-25T12:00	32850	8	-36.1		95	8	5.8
2025-07-25T12:00	32900	8	-36.0		86	9	5.7
2025-07-25T12:00	32950	8	-35.7		81	10	5.7
2025-07-25T12:00	33000	8	-35.4		81	11	5.6
2025-07-25T12:00	33050	8	-35.3		83	13	5.6
2025-07-25T12:00	33100	8	-35.4		87	15	5.5
2025-07-25T12:00	33150	8	-35.3		91	16	5.5
2025-07-25T12:00	33200	8	-35.3		96	17	5.4
2025-07-25T12:00	33250	8	-35.4		100	17	5.3
2025-07-25T12:00	33300	8	-35.4		102	16	5.2
2025-07-25T12:00	33350	8	-35.4		100	15	5.1
2025-07-25T12:00	33400	8	-35.4		98	14	5.1
2025-07-25T12:00	33450	8	-35.4		98	12	5.1
2025-07-25T12:00	33500	8	-35.3		94	10	5.0
2025-07-25T12:00	33550	8	-35.2		83	10	5.0
2025-07-25T12:00	33600	8	-34.9		75	10	5.0
2025-07-25T12:00	33650	7	-34.3		77	12	5.0
2025-07-25T12:00	33700	7	-33.8		86	13	5.0
2025-07-25T12:00	33750	7	-33.7		91	13	4.9
2025-07-25T12:00	33800	7	-33.6		91	11	4.8
2025-07-25T12:00	33850	7	-33.2		86	10	4.8
2025-07-25T12:00	33900	7	-32.9		74	10	4.8
2025-07-25T12:00	33950	7	-32.7		65	10	4.8
2025-07-25T12:00	34000	7	-32.6		66	10	4.7
2025-07-25T12:00	34050	7	-32.5		70	10	4.7
2025-07-25T12:00	34100	7	-32.4		73	10	4.7
2025-07-25T12:00	34150	7	-32.3		73	10	4.6
2025-07-25T12:00	34200	7	-32.4		73	10	4.5
2025-07-25T12:00	34250	7	-32.5		74	11	4.5
2025-07-25T12:00	34300	7	-32.7		74	12	4.4
2025-07-25T12:00	34350	7	-32.7		74	14	4.4
2025-07-25T12:00	34400	7	-32.9		76	15	4.3
2025-07-25T12:00	34450	7	-33.0		80	16	4.3
2025-07-25T12:00	34500	7	-33.0		82	17	4.2
2025-07-25T12:00	34550	7	-33.1		81	16	4.2
2025-07-25T12:00	34600	7	-33.1		80	15	4.1
2025-07-25T12:00	34650	6	-33.0		79	15	4.1
2025-07-25T12:00	34700	6	-32.8		79	14	4.1
2025-07-25T12:00	34750	6	-32.8		78	14	4.0
2025-07-25T12:00	34800	6	-32.7		76	13	4.0
2025-07-25T12:00	34850	6	-32.6		81	14	3.9
2025-07-25T12:00	34900	6	-32.2		87	15	3.9
2025-07-25T12:00	34950	6	-32.0		92	17	3.9
2025-07-25T12:00	35000	6	-32.1		96	18	3.8
2025-07-25T12:00	35050	6	-32.1		99	18	3.8
2025-07-25T12:00	35100	6	-32.1		101	17	3.7
2025-07-25T12:00	35150	6	-31.7		100	16	3.6
2025-07-25T12:00	35200	6	-31.5		96	15	3.6
2025-07-25T12:00	35250	6	-31.2		92	15	3.5
2025-07-26T00:00	491	960	14.2	13.6	116	1	
2025-07-26T00:00	501	958	14.7	13.6	72	1	
2025-07-26T00:00	520	957	15.7	13.7	63	2	
2025-07-26T00:00	540	955	16.0	13.4	60	2	
2025-07-26T00:00	560	952	16.1	13.4	56	3	
2025-07-26T00:00	580	950	16.0	13.4	51	3	
2025-07-26T00:00	600	948	16.2	13.1	49	4	
2025-07-26T00:00	620	946	16.3	12.9	46	4	
2025-07-26T00:00	640	943	16.3	12.5	45	4	
2025-07-26T00:00	660	941	16.4	12.0	45	4	
2025-07-26T00:00	680	939	16.5	11.7	46	5	
2025-07-26T00:00	700	936	16.5	11.5	46	5	
2025-07-26T00:00	720	934	16.4	11.4	45	5	
2025-07-26T00:00	740	932	16.4	11.3	44	6	
2025-07-26T00:00	760	930	16.2	11.2	43	6	
2025-07-26T00:00	780	928	16.1	11.1	42	6	
2025-07-26T00:00	800	926	15.9	11.0	41	6	
2025-07-26T00:00	820	924	15.8	11.0	40	6	
2025-07-26T00:00	840	921	15.7	10.9	39	7	
2025-07-26T00:00	860	919	15.6	10.8	39	7	
2025-07-26T00:00	880	917	15.4	10.7	38	7	
2025-07-26T00:00	900	915	15.3	10.5	38	7	
2025-07-26T00:00	920	913	15.2	10.2	37	8	
2025-07-26T00:00	940	911	15.1	9.9	37	8	
2025-07-26T00:00	960	908	15.0	9.7	37	8	
2025-07-26T00:00	980	906	15.0	9.7	38	7	
2025-07-26T00:00	1000	904	14.8	9.7	40	7	
2025-07-26T00:00	1020	902	14.6	9.7	41	7	
2025-07-26T00:00	1040	900	14.4	9.6	43	7	
2025-07-26T00:00	1060	898	14.3	9.7	46	7	
2025-07-26T00:00	1080	896	14.1	9.8	49	7	
2025-07-26T00:00	1100	893	13.9	9.9	52	7	
2025-07-26T00:00	1120	891	13.7	10.2	54	7	
2025-07-26T00:00	1140	889	13.5	10.3	56	7	
2025-07-26T00:00	1160	887	13.3	10.5	58	7	
2025-07-26T00:00	1180	885	13.1	10.5	60	7	
2025-07-26T00:00	1200	883	12.9	10.4	61	7	
2025-07-26T00:00	1220	881	12.7	10.5	62	7	
2025-07-26T00:00	1240	879	12.5	10.7	62	8	
2025-07-26T00:00	1260	877	12.4	10.7	62	8	
2025-07-26T00:00	1280	875	12.3	10.6	62	8	
2025-07-26T00:00	1300	873	12.1	10.4	62	8	
2025-07-26T00:00	1320	871	12.0	9.8	62	8	
2025-07-26T00:00	1340	869	11.9	9.6	62	8	
2025-07-26T00:00	1360	867	11.8	9.7	62	8	
2025-07-26T00:00	1380	864	11.6	9.2	62	8	
2025-07-26T00:00	1400	862	11.5	8.7	62	8	
2025-07-26T00:00	1420	860	11.3	9.0	63	8	
2025-07-26T00:00	1440	858	11.1	9.4	63	8	
2025-07-26T00:00	1460	856	10.9	9.3	62	8	
2025-07-26T00:00	1480	854	10.8	9.1	61	8	
2025-07-26T00:00	1500	852	10.6	9.0	60	8	
2025-07-26T00:00	1520	850	10.6	9.1	58	8	
2025-07-26T00:00	1540	848	10.5	9.0	57	8	
2025-07-26T00:00	1560	846	10.4	8.8	56	8	
2025-07-26T00:00	1580	844	10.2	8.8	56	7	
2025-07-26T00:00	1600	842	10.0	8.8	56	7	
2025-07-26T00:00	1620	840	9.8	8.7	55	7	
2025-07-26T00:00	1640	838	9.6	8.6	54	7	
2025-07-26T00:00	1660	836	9.5	8.5	53	7	
2025-07-26T00:00	1680	834	9.4	8.1	51	7	
2025-07-26T00:00	1700	832	9.4	7.2	50	7	
2025-07-26T00:00	1720	830	9.3	6.9	49	7	
2025-07-26T00:00	1740	828	9.2	6.8	48	7	
2025-07-26T00:00	1760	826	9.1	6.3	48	7	
2025-07-26T00:00	1780	824	8.9	6.3	48	7	
2025-07-26T00:00	1800	822	8.8	6.2	48	7	
2025-07-26T00:00	1820	820	8.6	6.1	49	7	
2025-07-26T00:00	1840	818	8.4	5.9	51	7	
2025-07-26T00:00	1860	816	8.3	5.9	51	6	
2025-07-26T00:00	1880	814	8.1	5.9	51	6	
2025-07-26T00:00	1900	812	8.0	5.8	51	6	
2025-07-26T00:00	1920	810	7.9	5.7	49	6	
2025-07-26T00:00	1940	808	7.7	5.7	47	7	
2025-07-26T00:00	1960	806	7.6	5.5	45	7	
2025-07-26T00:00	1980	804	7.5	5.3	44	7	
2025-07-26T00:00	2000	802	7.4	5.1	45	7	
2025-07-26T00:00	2020	800	7.3	4.8	47	6	
2025-07-26T00:00	2040	798	7.2	4.8	50	6	
2025-07-26T00:00	2060	796	7.1	5.0	53	6	
2025-07-26T00:00	2080	794	7.0	4.9	56	6	
2025-07-26T00:00	2100	792	7.0	4.4	58	6	
2025-07-26T00:00	2120	791	6.9	4.2	59	6	
2025-07-26T00:00	2140	789	6.8	3.8	60	6	
2025-07-26T00:00	2160	787	6.6	3.8	59	6	
2025-07-26T00:00	2180	785	6.5	3.8	58	6	
2025-07-26T00:00	2200	783	6.4	3.6	55	7	
2025-07-26T00:00	2220	781	6.3	3.5	52	7	
2025-07-26T00:00	2240	779	6.1	3.3	50	7	
2025-07-26T00:00	2260	777	6.0	3.1	48	7	
2025-07-26T00:00	2280	775	5.9	3.0	47	7	
2025-07-26T00:00	2300	773	5.7	2.9	48	7	
2025-07-26T00:00	2320	771	5.5	2.9	50	7	
2025-07-26T00:00	2340	770	5.3	2.8	51	7	
2025-07-26T00:00	2360	768	5.2	2.7	50	7	
2025-07-26T00:00	2380	766	5.2	2.5	48	7	
2025-07-26T00:00	2400	764	5.1	2.1	44	7	
2025-07-26T00:00	2420	762	5.1	2.1	38	8	
2025-07-26T00:00	2440	760	5.0	2.1	35	8	
2025-07-26T00:00	2460	758	5.1	1.7	33	8	
2025-07-26T00:00	2480	757	5.0	1.5	32	9	
2025-07-26T00:00	2500	755	4.8	1.4	33	9	
2025-07-26T00:00	2520	753	4.6	1.5	33	9	
2025-07-26T00:00	2540	751	4.4	1.4	34	9	
2025-07-26T00:00	2560	749	4.3	1.2	34	10	
2025-07-26T00:00	2580	747	4.1	1.2	32	10	
2025-07-26T00:00	2600	745	3.9	1.1	31	10	
2025-07-26T00:00	2620	744	3.7	1.1	29	10	
2025-07-26T00:00	2640	742	3.5	0.9	26	10	
2025-07-26T00:00	2660	740	3.4	0.9	25	10	
2025-07-26T00:00	2680	738	3.2	0.8	24	10	
2025-07-26T00:00	2700	737	3.0	0.7	24	10	
2025-07-26T00:00	2720	735	2.9	0.6	25	9	
2025-07-26T00:00	2740	733	2.7	0.4	27	9	
2025-07-26T00:00	2760	731	2.6	0.3	29	9	
2025-07-26T00:00	2780	729	2.4	0.3	32	9	
2025-07-26T00:00	2800	727	2.2	0.4	32	9	
2025-07-26T00:00	2820	725	2.1	0.3	33	9	
2025-07-26T00:00	2840	724	2.1	-0.1	32	9	
2025-07-26T00:00	2860	722	2.0	-0.2	32	9	
2025-07-26T00:00	2880	720	1.8	-0.2	32	9	
2025-07-26T00:00	2900	718	1.8	-0.3	33	9	
2025-07-26T00:00	2920	716	1.7	-0.5	33	9	
2025-07-26T00:00	2940	715	1.5	-0.6	34	9	
2025-07-26T00:00	2960	713	1.4	-0.6	34	9	
2025-07-26T00:00	2980	711	1.4	-0.6	32	9	
2025-07-26T00:00	3000	709	1.2	-0.7	31	9	
2025-07-26T00:00	3020	708	1.0	-0.8	29	9	
2025-07-26T00:00	3040	706	0.9	-0.9	29	9	
2025-07-26T00:00	3060	704	0.9	-1.0	29	9	
2025-07-26T00:00	3080	702	0.7	-1.0	30	9	
2025-07-26T00:00	3100	701	0.6	-1.0	32	9	
2025-07-26T00:00	3120	699	0.4	-1.1	34	9	
2025-07-26T00:00	3140	697	0.2	-1.2	36	9	
2025-07-26T00:00	3160	695	0.0	-1.2	37	9	
2025-07-26T00:00	3180	694	-0.1	-1.3	36	9	
2025-07-26T00:00	3200	692	-0.3	-1.4	36	9	
2025-07-26T00:00	3220	690	-0.5	-1.3	35	9	
2025-07-26T00:00	3240	689	-0.7	-1.4	36	9	
2025-07-26T00:00	3260	687	-0.9	-1.4	36	9	
2025-07-26T00:00	3280	685	-1.1	-1.4	38	9	
2025-07-26T00:00	3300	683	-1.3	-1.5	40	9	
2025-07-26T00:00	3320	682	-1.4	-1.6	41	9	
2025-07-26T00:00	3340	680	-1.6	-1.7	42	8	
2025-07-26T00:00	3360	678	-1.6	-1.9	43	8	
2025-07-26T00:00	3380	677	-1.1	-2.4	44	7	
2025-07-26T00:00	3400	675	-1.1	-2.8	43	7	
2025-07-26T00:00	3420	673	-1.1	-3.4	42	6	
2025-07-26T00:00	3440	672	-0.9	-4.0	40	6	
2025-07-26T00:00	3460	670	-0.8	-4.4	37	6	
2025-07-26T00:00	3480	668	-0.8	-4.8	34	5	
2025-07-26T00:00	3500	667	-0.8	-4.8	32	5	
2025-07-26T00:00	3520	665	-0.9	-5.1	31	5	
2025-07-26T00:00	3540	663	-1.0	-5.2	32	5	
2025-07-26T00:00	3560	662	-1.0	-5.5	35	5	
2025-07-26T00:00	3580	660	-0.9	-6.0	41	5	
2025-07-26T00:00	3600	658	-1.0	-6.1	48	5	
2025-07-26T00:00	3620	657	-1.2	-6.2	55	4	
2025-07-26T00:00	3640	655	-1.3	-6.4	60	4	
2025-07-26T00:00	3660	653	-1.5	-6.3	66	4	
2025-07-26T00:00	3680	652	-1.6	-6.4	70	4	
2025-07-26T00:00	3700	650	-1.8	-6.4	70	5	
2025-07-26T00:00	3720	649	-1.8	-6.9	68	5	
2025-07-26T00:00	3740	647	-1.9	-7.2	64	5	
2025-07-26T00:00	3760	645	-2.0	-7.3	61	5	
2025-07-26T00:00	3780	644	-2.2	-7.4	58	5	
2025-07-26T00:00	3800	642	-2.4	-7.4	54	5	
2025-07-26T00:00	3820	640	-2.6	-7.4	52	5	
2025-07-26T00:00	3840	639	-2.7	-7.4	53	5	
2025-07-26T00:00	3860	637	-2.7	-7.6	55	6	
2025-07-26T00:00	3880	636	-2.8	-7.9	58	6	
2025-07-26T00:00	3900	634	-2.8	-8.2	60	6	
2025-07-26T00:00	3920	632	-2.9	-8.8	63	6	
2025-07-26T00:00	3940	631	-3.1	-8.7	64	6	
2025-07-26T00:00	3960	629	-3.3	-8.6	63	6	
2025-07-26T00:00	3980	627	-3.4	-8.7	62	6	
2025-07-26T00:00	4000	626	-3.6	-8.5	60	7	
2025-07-26T00:00	4020	624	-3.7	-8.4	57	7	
2025-07-26T00:00	4040	623	-3.9	-8.4	56	7	
2025-07-26T00:00	4060	621	-4.1	-8.6	56	7	
2025-07-26T00:00	4080	620	-4.3	-8.7	57	7	
2025-07-26T00:00	4100	618	-4.5	-8.7	57	6	
2025-07-26T00:00	4120	616	-4.7	-8.7	59	6	
2025-07-26T00:00	4140	615	-4.9	-8.7	59	6	
2025-07-26T00:00	4160	613	-5.0	-8.8	60	6	
2025-07-26T00:00	4180	612	-5.2	-8.9	60	6	
2025-07-26T00:00	4200	610	-5.4	-8.9	58	6	
2025-07-26T00:00	4220	609	-5.6	-9.0	56	6	
2025-07-26T00:00	4240	607	-5.7	-9.1	54	6	
2025-07-26T00:00	4260	606	-5.8	-9.1	52	6	
2025-07-26T00:00	4280	604	-5.9	-9.3	49	6	
2025-07-26T00:00	4300	603	-6.0	-9.4	47	6	
2025-07-26T00:00	4320	601	-6.2	-9.4	45	6	
2025-07-26T00:00	4340	600	-6.4	-9.5	43	6	
2025-07-26T00:00	4360	598	-6.5	-10.0	41	6	
2025-07-26T00:00	4380	596	-6.4	-11.1	39	6	
2025-07-26T00:00	4400	595	-6.4	-11.4	38	6	
2025-07-26T00:00	4420	593	-6.6	-11.9	36	6	
2025-07-26T00:00	4440	592	-6.6	-13.1	33	6	
2025-07-26T00:00	4460	590	-6.6	-14.3	31	6	
2025-07-26T00:00	4480	589	-6.7	-15.0	30	5	
2025-07-26T00:00	4500	587	-6.7	-15.3	29	5	
2025-07-26T00:00	4520	586	-6.8	-14.4	29	6	
2025-07-26T00:00	4540	584	-7.0	-13.6	28	6	
2025-07-26T00:00	4560	583	-7.2	-13.5	27	6	
2025-07-26T00:00	4580	581	-7.3	-13.3	25	7	
2025-07-26T00:00	4600	580	-7.4	-13.3	24	7	
2025-07-26T00:00	4620	578	-7.6	-13.3	23	8	
2025-07-26T00:00	4640	577	-7.6	-13.5	22	8	
2025-07-26T00:00	4660	575	-7.7	-13.9	23	8	
2025-07-26T00:00	4680	574	-7.8	-14.6	23	8	
2025-07-26T00:00	4700	572	-8.0	-15.4	24	8	
2025-07-26T00:00	4720	571	-8.1	-16.4	25	8	
2025-07-26T00:00	4740	570	-8.1	-17.6	25	8	
2025-07-26T00:00	4760	568	-8.1	-18.5	24	8	
2025-07-26T00:00	4780	566	-8.2	-16.4	23	8	
2025-07-26T00:00	4800	565	-8.3	-16.7	22	8	
2025-07-26T00:00	4820	564	-8.3	-17.9	22	8	
2025-07-26T00:00	4840	562	-8.4	-17.7	22	8	
2025-07-26T00:00	4860	561	-8.5	-17.5	23	8	
2025-07-26T00:00	4880	559	-8.7	-16.8	23	8	
2025-07-26T00:00	4900	558	-8.9	-15.5	24	7	
2025-07-26T00:00	4920	556	-9.1	-15.4	25	7	
2025-07-26T00:00	4940	555	-9.3	-15.4	25	7	
2025-07-26T00:00	4960	554	-9.5	-15.3	26	7	
2025-07-26T00:00	4980	552	-9.6	-15.7	27	7	
2025-07-26T00:00	5000	551	-9.7	-16.2	28	7	
2025-07-26T00:00	5020	549	-9.9	-16.1	29	8	
2025-07-26T00:00	5040	548	-10.0	-15.0	30	8	
2025-07-26T00:00	5060	546	-10.1	-14.5	30	8	
2025-07-26T00:00	5080	545	-10.3	-14.4	30	8	
2025-07-26T00:00	5100	544	-10.4	-14.4	29	8	
2025-07-26T00:00	5120	542	-10.5	-14.5	29	8	
2025-07-26T00:00	5140	541	-10.6	-14.7	28	8	
2025-07-26T00:00	5160	540	-10.7	-15.3	28	8	
2025-07-26T00:00	5180	538	-10.8	-15.7	28	7	
2025-07-26T00:00	5200	537	-11.0	-16.0	28	7	
2025-07-26T00:00	5220	535	-11.1	-16.2	30	7	
2025-07-26T00:00	5240	534	-11.2	-16.2	31	7	
2025-07-26T00:00	5260	533	-11.4	-16.4	32	8	
2025-07-26T00:00	5280	531	-11.5	-16.9	33	8	
2025-07-26T00:00	5300	530	-11.6	-18.3	34	8	
2025-07-26T00:00	5320	528	-11.8	-18.2	35	7	
2025-07-26T00:00	5340	527	-12.0	-18.1	35	7	
2025-07-26T00:00	5360	525	-12.2	-18.0	36	7	
2025-07-26T00:00	5380	524	-12.3	-18.1	37	6	
2025-07-26T00:00	5400	523	-12.5	-18.3	37	6	
2025-07-26T00:00	5420	521	-12.7	-18.1	37	5	
2025-07-26T00:00	5440	520	-12.8	-17.7	33	4	
2025-07-26T00:00	5460	519	-12.9	-17.8	29	4	
2025-07-26T00:00	5480	517	-13.0	-18.4	26	4	
2025-07-26T00:00	5500	516	-13.0	-19.3	25	5	
2025-07-26T00:00	5520	515	-13.1	-19.8	25	5	
2025-07-26T00:00	5540	513	-13.2	-21.2	26	5	
2025-07-26T00:00	5560	512	-13.3	-22.4	28	6	
2025-07-26T00:00	5580	511	-13.4	-23.4	30	6	
2025-07-26T00:00	5600	509	-13.6	-23.5	32	6	
2025-07-26T00:00	5620	508	-13.8	-22.9	32	7	
2025-07-26T00:00	5640	506	-13.9	-23.9	32	7	
2025-07-26T00:00	5660	505	-14.1	-22.1	32	7	
2025-07-26T00:00	5680	504	-14.2	-21.9	32	7	
2025-07-26T00:00	5700	503	-14.4	-21.8	32	7	
2025-07-26T00:00	5720	501	-14.5	-20.9	32	7	
2025-07-26T00:00	5740	500	-14.6	-20.4	32	7	
2025-07-26T00:00	5760	499	-14.7	-20.2	32	7	
2025-07-26T00:00	5780	497	-14.9	-20.2	31	7	
2025-07-26T00:00	5800	496	-15.1	-20.2	31	7	
2025-07-26T00:00	5820	495	-15.3	-20.3	30	7	
2025-07-26T00:00	5840	493	-15.4	-20.4	30	7	
2025-07-26T00:00	5860	492	-15.6	-20.4	29	7	
2025-07-26T00:00	5880	491	-15.8	-20.5	29	8	
2025-07-26T00:00	5900	489	-15.8	-20.9	29	8	
2025-07-26T00:00	5920	488	-15.9	-21.1	29	8	
2025-07-26T00:00	5940	487	-16.1	-21.2	29	8	
2025-07-26T00:00	5960	486	-16.2	-21.6	29	8	
2025-07-26T00:00	5980	484	-16.4	-21.8	30	8	
2025-07-26T00:00	6000	483	-16.6	-21.9	30	8	
2025-07-26T00:00	6020	482	-16.8	-22.2	32	8	
2025-07-26T00:00	6040	480	-17.0	-22.3	33	8	
2025-07-26T00:00	6060	479	-17.2	-22.7	34	8	
2025-07-26T00:00	6080	478	-17.3	-24.4	34	7	
2025-07-26T00:00	6100	477	-17.4	-25.9	32	7	
2025-07-26T00:00	6120	475	-17.5	-26.0	30	7	
2025-07-26T00:00	6140	474	-17.7	-26.1	28	6	
2025-07-26T00:00	6160	473	-17.9	-26.6	26	6	
2025-07-26T00:00	6180	472	-18.1	-27.4	24	6	
2025-07-26T00:00	6200	470	-18.3	-26.3	23	6	
2025-07-26T00:00	6220	469	-18.5	-26.6	22	6	
2025-07-26T00:00	6240	468	-18.7	-28.7	22	7	
2025-07-26T00:00	6260	467	-18.7	-29.6	23	7	
2025-07-26T00:00	6280	465	-18.9	-29.3	23	7	
2025-07-26T00:00	6300	464	-19.0	-27.9	24	7	
2025-07-26T00:00	6320	463	-19.1	-26.1	25	7	
2025-07-26T00:00	6340	462	-19.3	-25.8	27	8	
2025-07-26T00:00	6360	460	-19.5	-25.7	28	8	
2025-07-26T00:00	6380	459	-19.7	-25.5	28	8	
2025-07-26T00:00	6400	458	-19.9	-25.2	29	8	
2025-07-26T00:00	6420	456	-20.1	-24.1	29	8	
2025-07-26T00:00	6440	455	-20.2	-24.0	29	8	
2025-07-26T00:00	6460	454	-20.4	-24.8	30	8	
2025-07-26T00:00	6480	453	-20.5	-25.1	30	8	
2025-07-26T00:00	6500	452	-20.6	-25.3	31	9	
2025-07-26T00:00	6520	450	-20.8	-25.5	31	8	
2025-07-26T00:00	6540	449	-20.9	-25.7	31	8	
2025-07-26T00:00	6560	448	-21.1	-25.8	31	9	
2025-07-26T00:00	6580	447	-21.3	-26.1	31	9	
2025-07-26T00:00	6600	446	-21.4	-27.1	32	9	
2025-07-26T00:00	6620	444	-21.4	-28.5	33	9	
2025-07-26T00:00	6640	443	-21.3	-29.2	34	9	
2025-07-26T00:00	6660	442	-21.5	-29.3	34	9	
2025-07-26T00:00	6680	441	-21.5	-31.3	35	9	
2025-07-26T00:00	6700	440	-21.5	-34.8	35	9	
2025-07-26T00:00	6720	438	-21.6	-34.3	34	9	
2025-07-26T00:00	6740	437	-21.8	-34.4	33	9	
2025-07-26T00:00	6760	436	-22.0	-35.2	33	9	
2025-07-26T00:00	6780	435	-22.0	-37.1	33	9	
2025-07-26T00:00	6800	434	-22.2	-37.7	33	9	
2025-07-26T00:00	6820	433	-22.3	-38.5	33	9	
2025-07-26T00:00	6840	431	-22.5	-38.8	33	9	
2025-07-26T00:00	6860	430	-22.7	-38.9	34	9	
2025-07-26T00:00	6880	429	-22.8	-39.0	35	9	
2025-07-26T00:00	6900	428	-23.0	-39.1	36	9	
2025-07-26T00:00	6920	427	-23.2	-39.1	37	9	
2025-07-26T00:00	6940	425	-23.4	-39.1	38	9	
2025-07-26T00:00	6960	424	-23.6	-40.0	38	9	
2025-07-26T00:00	6980	423	-23.7	-41.0	38	10	
2025-07-26T00:00	7000	422	-23.9	-42.4	38	10	
2025-07-26T00:00	7020	421	-24.0	-42.6	37	10	
2025-07-26T00:00	7040	420	-24.2	-42.5	37	10	
2025-07-26T00:00	7060	419	-24.4	-42.5	37	11	
2025-07-26T00:00	7080	417	-24.5	-42.8	37	11	
2025-07-26T00:00	7100	416	-24.7	-43.2	38	11	
2025-07-26T00:00	7120	415	-24.9	-43.7	38	12	
2025-07-26T00:00	7140	414	-25.0	-44.3	38	12	
2025-07-26T00:00	7160	413	-25.2	-45.1	38	12	
2025-07-26T00:00	7180	412	-25.3	-45.9	38	12	
2025-07-26T00:00	7200	411	-25.4	-46.4	38	12	
2025-07-26T00:00	7220	409	-25.5	-46.7	37	12	
2025-07-26T00:00	7240	408	-25.7	-46.9	37	12	
2025-07-26T00:00	7260	407	-25.8	-47.1	36	12	
2025-07-26T00:00	7280	406	-26.0	-47.2	36	12	
2025-07-26T00:00	7300	405	-26.2	-47.2	36	12	
2025-07-26T00:00	7320	404	-26.4	-47.3	35	11	
2025-07-26T00:00	7340	403	-26.5	-47.2	35	11	
2025-07-26T00:00	7360	401	-26.8	-47.3	34	11	
2025-07-26T00:00	7380	400	-26.9	-47.3	34	11	
2025-07-26T00:00	7400	399	-27.1	-47.3	33	10	
2025-07-26T00:00	7420	398	-27.2	-47.4	33	10	
2025-07-26T00:00	7440	397	-27.4	-47.6	33	10	
2025-07-26T00:00	7460	396	-27.6	-47.6	33	10	
2025-07-26T00:00	7480	395	-27.8	-47.5	33	11	
2025-07-26T00:00	7500	394	-27.9	-47.4	34	11	
2025-07-26T00:00	7520	393	-28.1	-47.5	34	11	
2025-07-26T00:00	7540	392	-28.3	-47.3	35	11	
2025-07-26T00:00	7560	391	-28.4	-47.4	36	11	
2025-07-26T00:00	7580	389	-28.6	-48.8	38	11	
2025-07-26T00:00	7600	388	-28.7	-49.3	39	11	
2025-07-26T00:00	7620	387	-28.9	-49.3	41	11	
2025-07-26T00:00	7640	386	-29.1	-49.7	42	11	
2025-07-26T00:00	7660	385	-29.3	-49.8	43	11	
2025-07-26T00:00	7680	384	-29.4	-50.2	43	11	
2025-07-26T00:00	7700	383	-29.6	-50.4	43	11	
2025-07-26T00:00	7720	382	-29.8	-50.6	43	11	
2025-07-26T00:00	7740	381	-29.9	-50.8	42	11	
2025-07-26T00:00	7760	380	-30.1	-50.6	42	11	
2025-07-26T00:00	7780	379	-30.2	-51.0	42	11	
2025-07-26T00:00	7800	378	-30.4	-51.2	43	12	
2025-07-26T00:00	7820	377	-30.6	-51.3	43	12	
2025-07-26T00:00	7840	375	-30.8	-51.4	45	12	
2025-07-26T00:00	7860	374	-30.9	-51.3	46	12	
2025-07-26T00:00	7880	373	-31.1	-51.2	48	12	
2025-07-26T00:00	7900	372	-31.3	-51.1	48	12	
2025-07-26T00:00	7920	371	-31.5	-51.3	49	12	
2025-07-26T00:00	7940	370	-31.6	-51.3	50	12	
2025-07-26T00:00	7960	369	-31.7	-51.4	51	12	
2025-07-26T00:00	7980	368	-31.8	-51.5	52	11	
2025-07-26T00:00	8000	367	-32.0	-51.4	53	11	
2025-07-26T00:00	8020	366	-32.2	-51.7	54	10	
2025-07-26T00:00	8040	365	-32.3	-51.7	54	10	
2025-07-26T00:00	8060	364	-32.3	-49.7	53	9	
2025-07-26T00:00	8080	363	-32.4	-48.8	51	9	
2025-07-26T00:00	8100	362	-32.6	-48.8	48	8	
2025-07-26T00:00	8120	361	-32.8	-48.8	45	8	
2025-07-26T00:00	8140	360	-33.0	-48.6	43	8	
2025-07-26T00:00	8160	359	-33.1	-48.3	40	8	
2025-07-26T00:00	8180	358	-33.3	-48.4	39	7	
2025-07-26T00:00	8200	357	-33.5	-47.7	39	7	
2025-07-26T00:00	8220	356	-33.6	-47.0	39	7	
2025-07-26T00:00	8240	355	-33.8	-45.9	40	8	
2025-07-26T00:00	8260	354	-33.8	-45.3	42	8	
2025-07-26T00:00	8280	353	-34.0	-45.8	44	8	
2025-07-26T00:00	8300	352	-34.1	-45.9	45	8	
2025-07-26T00:00	8320	351	-34.2	-45.9	46	8	
2025-07-26T00:00	8340	350	-34.4	-45.8	46	9	
2025-07-26T00:00	8360	349	-34.5	-45.5	46	9	
2025-07-26T00:00	8380	348	-34.7	-45.7	45	9	
2025-07-26T00:00	8400	347	-34.9	-46.1	44	9	
2025-07-26T00:00	8420	346	-35.0	-46.5	43	10	
2025-07-26T00:00	8440	345	-35.2	-47.1	42	10	
2025-07-26T00:00	8460	344	-35.3	-47.9	41	10	
2025-07-26T00:00	8480	343	-35.4	-49.2	40	11	
2025-07-26T00:00	8500	342	-35.6	-49.7	40	11	
2025-07-26T00:00	8520	341	-35.6	-50.5	40	12	
2025-07-26T00:00	8540	340	-35.8	-50.8	40	12	
2025-07-26T00:00	8560	339	-36.0	-51.1	41	12	
2025-07-26T00:00	8580	338	-36.1	-51.4	42	13	
2025-07-26T00:00	8600	337	-36.3	-52.1	43	13	
2025-07-26T00:00	8620	336	-36.4	-53.2	44	13	
2025-07-26T00:00	8640	335	-36.6	-53.6	45	13	
2025-07-26T00:00	8660	334	-36.8	-53.9	45	13	
2025-07-26T00:00	8680	333	-36.9	-54.9	45	13	
2025-07-26T00:00	8700	332	-37.0	-54.3	44	12	
2025-07-26T00:00	8720	331	-37.2	-54.2	43	12	
2025-07-26T00:00	8740	330	-37.3	-54.8	41	12	
2025-07-26T00:00	8760	329	-37.2	-56.7	40	11	
2025-07-26T00:00	8780	328	-36.9	-57.1	39	11	
2025-07-26T00:00	8800	327	-36.6	-56.4	37	10	
2025-07-26T00:00	8820	326	-36.8	-56.6	38	9	
2025-07-26T00:00	8840	325	-36.9	-56.6	40	8	
2025-07-26T00:00	8860	324	-37.0	-56.9	43	8	
2025-07-26T00:00	8880	324	-37.1	-57.1	46	7	
2025-07-26T00:00	8900	323	-37.1	-57.5	51	7	
2025-07-26T00:00	8920	322	-37.2	-58.1	55	7	
2025-07-26T00:00	8940	321	-37.3	-58.7	58	7	
2025-07-26T00:00	8960	320	-37.4	-59.0	59	8	
2025-07-26T00:00	8980	319	-37.5	-59.1	59	8	
2025-07-26T00:00	9000	318	-37.6	-59.3	59	8	
2025-07-26T00:00	9020	317	-37.8	-59.6	59	8	
2025-07-26T00:00	9040	316	-38.0	-59.6	59	7	
2025-07-26T00:00	9060	315	-38.1	-60.1	59	7	
2025-07-26T00:00	9080	314	-38.1	-60.6	60	6	
2025-07-26T00:00	9100	313	-38.3	-60.8	60	5	
2025-07-26T00:00	9120	312	-38.3	-61.2	59	5	
2025-07-26T00:00	9140	312	-38.4	-61.3	58	4	
2025-07-26T00:00	9160	311	-38.5	-61.3	54	3	
2025-07-26T00:00	9180	310	-38.6	-61.4	46	2	
2025-07-26T00:00	9200	309	-38.7	-61.5	27	1	
2025-07-26T00:00	9220	308	-38.8	-61.8	356	1	
2025-07-26T00:00	9240	307	-38.9	-62.0	321	1	
2025-07-26T00:00	9260	306	-38.9	-62.3	292	1	
2025-07-26T00:00	9280	305	-39.0	-62.3	272	1	
2025-07-26T00:00	9300	304	-39.0	-62.6	255	1	
2025-07-26T00:00	9320	304	-39.1	-62.9	238	1	
2025-07-26T00:00	9340	303	-39.1	-63.2	222	1	
2025-07-26T00:00	9360	302	-39.2	-63.2	209	1	
2025-07-26T00:00	9380	301	-39.3	-63.3	194	1	
2025-07-26T00:00	9400	300	-39.3	-63.4	168	0	
2025-07-26T00:00	9420	299	-39.4	-63.5	138	0	
2025-07-26T00:00	9440	298	-39.4	-63.6	117	1	
2025-07-26T00:00	9460	297	-39.5	-63.7	103	1	
2025-07-26T00:00	9480	297	-39.4	-64.1	95	1	
2025-07-26T00:00	9500	296	-39.5	-64.2	85	1	
2025-07-26T00:00	9520	295	-39.6	-64.3	76	2	
2025-07-26T00:00	9540	294	-39.7	-64.2	68	2	
2025-07-26T00:00	9560	293	-39.8	-64.3	59	2	
2025-07-26T00:00	9580	292	-40.0	-64.3	50	2	
2025-07-26T00:00	9600	291	-40.2	-64.4	42	2	
2025-07-26T00:00	9620	290	-40.4	-64.3	37	2	
2025-07-26T00:00	9640	290	-40.6	-64.5	34	2	
2025-07-26T00:00	9660	289	-40.7	-64.8	34	2	
2025-07-26T00:00	9680	288	-40.8	-64.9	37	2	
2025-07-26T00:00	9700	287	-40.9	-65.0	39	2	
2025-07-26T00:00	9720	286	-40.9	-65.1	41	2	
2025-07-26T00:00	9740	285	-41.1	-65.3	43	3	
2025-07-26T00:00	9760	285	-41.3	-65.6	44	3	
2025-07-26T00:00	9780	284	-41.2	-66.0	46	3	
2025-07-26T00:00	9800	283	-41.2	-66.5	47	3	
2025-07-26T00:00	9820	282	-41.3	-66.8	48	4	
2025-07-26T00:00	9840	281	-41.4	-66.8	49	4	
2025-07-26T00:00	9860	280	-41.6	-66.8	51	4	
2025-07-26T00:00	9880	280	-41.7	-67.1	54	4	
2025-07-26T00:00	9900	279	-41.8	-67.5	58	4	
2025-07-26T00:00	9920	278	-42.0	-67.8	61	4	
2025-07-26T00:00	9940	277	-42.0	-68.2	64	4	
2025-07-26T00:00	9960	276	-42.1	-68.5	67	4	
2025-07-26T00:00	9980	275	-42.2	-68.4	70	4	
2025-07-26T00:00	10000	275	-42.2	-68.2	71	4	
2025-07-26T00:00	10018	274	-42.1	-68.2	71	4	
2025-07-26T00:00	10050	273	-41.9	-69.5	67	3	
2025-07-26T00:00	10100	271	-41.7	-70.6	58	3	
2025-07-26T00:00	10150	269	-41.4	-70.9	47	3	
2025-07-26T00:00	10200	267	-41.1	-72.0	37	4	
2025-07-26T00:00	10250	265	-40.8	-72.9	25	4	
2025-07-26T00:00	10300	263	-41.4	-72.8	12	6	
2025-07-26T00:00	10350	261	-41.7	-73.1	5	7	
2025-07-26T00:00	10400	259	-42.1	-73.2	7	9	
2025-07-26T00:00	10450	257	-42.5	-73.4	15	11	
2025-07-26T00:00	10500	255	-42.7	-73.6	24	12	
2025-07-26T00:00	10550	253	-42.6	-73.9	27	12	
2025-07-26T00:00	10600	251	-42.0	-74.6	26	11	
2025-07-26T00:00	10650	250	-42.0	-75.1	27	10	
2025-07-26T00:00	10700	248	-41.9	-75.4	30	9	
2025-07-26T00:00	10750	246	-42.2	-75.6	35	9	
2025-07-26T00:00	10800	244	-42.2	-75.9	42	9	
2025-07-26T00:00	10850	242	-42.1	-76.2	47	9	
2025-07-26T00:00	10900	240	-42.0	-76.5	49	9	
2025-07-26T00:00	10950	239	-41.9	-76.8	45	8	
2025-07-26T00:00	11000	237	-42.1	-77.0	34	9	
2025-07-26T00:00	11050	235	-42.2	-77.3	24	10	
2025-07-26T00:00	11100	233	-42.6	-77.4	17	10	
2025-07-26T00:00	11150	232	-42.8	-77.5	13	9	
2025-07-26T00:00	11200	230	-43.0	-77.8	6	7	
2025-07-26T00:00	11250	228	-42.6	-78.0	358	6	
2025-07-26T00:00	11300	227	-42.4	-78.2	0	6	
2025-07-26T00:00	11350	225	-42.5	-78.3	9	6	
2025-07-26T00:00	11400	223	-42.7	-78.5	16	7	
2025-07-26T00:00	11450	222	-43.0	-78.7	23	7	
2025-07-26T00:00	11500	220	-43.2	-79.0	28	8	
2025-07-26T00:00	11550	218	-43.4	-79.2	30	9	
2025-07-26T00:00	11600	217	-43.7	-79.5	30	10	
2025-07-26T00:00	11650	215	-44.0	-79.7	32	10	
2025-07-26T00:00	11700	214	-43.9	-79.9	35	10	
2025-07-26T00:00	11750	212	-44.0	-79.9	38	10	
2025-07-26T00:00	11800	210	-44.0	-80.0	40	9	
2025-07-26T00:00	11850	209	-44.0	-80.2	39	8	
2025-07-26T00:00	11900	207	-44.0	-80.2	36	7	
2025-07-26T00:00	11950	206	-43.9	-80.3	36	7	
2025-07-26T00:00	12000	204	-44.1	-80.3	37	7	
2025-07-26T00:00	12050	203	-44.5	-80.4	37	7	
2025-07-26T00:00	12100	201	-44.9	-80.6	39	7	
2025-07-26T00:00	12150	200	-45.3	-80.7	41	7	
2025-07-26T00:00	12200	198	-45.5	-80.9	40	6	
2025-07-26T00:00	12250	197	-45.2	-81.1	42	5	
2025-07-26T00:00	12300	195	-45.3	-81.1	45	5	
2025-07-26T00:00	12350	194	-45.7	-81.2	41	4	
2025-07-26T00:00	12400	192	-45.9	-81.4	36	4	
2025-07-26T00:00	12450	191	-46.2	-81.6	42	3	
2025-07-26T00:00	12500	190	-46.2	-81.8	56	2	
2025-07-26T00:00	12550	188	-46.3	-81.9	56	2	
2025-07-26T00:00	12600	187	-46.5	-82.1	38	3	
2025-07-26T00:00	12650	185	-46.7	-82.3	22	3	
2025-07-26T00:00	12700	184	-47.0	-82.3	12	4	
2025-07-26T00:00	12750	182	-47.3	-82.4	9	4	
2025-07-26T00:00	12800	181	-47.4	-82.6	12	5	
2025-07-26T00:00	12850	180	-47.4	-82.8	16	5	
2025-07-26T00:00	12900	178	-47.6	-82.8	17	5	
2025-07-26T00:00	12950	177	-47.5	-82.8	21	4	
2025-07-26T00:00	13000	176	-47.2	-83.0	38	2	
2025-07-26T00:00	13050	174	-47.1	-83.0	69	2	
2025-07-26T00:00	13100	173	-47.2	-83.2	72	2	
2025-07-26T00:00	13150	172	-47.4	-83.0	57	2	
2025-07-26T00:00	13200	170	-47.9	-83.1	52	3	
2025-07-26T00:00	13250	169	-48.2	-83.2	55	3	
2025-07-26T00:00	13300	168	-48.5	-83.1	55	2	
2025-07-26T00:00	13350	167	-48.6	-83.2	37	1	
2025-07-26T00:00	13400	165	-48.6	-83.5	325	1	
2025-07-26T00:00	13450	164	-48.5	-83.5	299	2	
2025-07-26T00:00	13500	163	-48.3	-83.6	301	4	
2025-07-26T00:00	13550	162	-48.3	-83.9	308	6	
2025-07-26T00:00	13600	160	-48.1	-83.5	316	7	
2025-07-26T00:00	13650	159	-48.5	-83.5	319	8	
2025-07-26T00:00	13700	158	-48.8	-83.6	319	8	
2025-07-26T00:00	13750	157	-49.1	-83.7	317	6	
2025-07-26T00:00	13800	156	-49.3	-83.7	314	5	
2025-07-26T00:00	13850	154	-49.4	-83.9	314	3	
2025-07-26T00:00	13900	153	-49.2	-83.9	317	3	
2025-07-26T00:00	13950	152	-49.4	-83.9	321	3	
2025-07-26T00:00	14000	151	-49.8	-83.9	330	3	
2025-07-26T00:00	14050	150	-50.1	-84.1	345	3	
2025-07-26T00:00	14100	149	-50.4	-84.2	11	3	
2025-07-26T00:00	14150	148	-50.4	-84.2	36	3	
2025-07-26T00:00	14200	146	-50.4	-84.4	53	3	
2025-07-26T00:00	14250	145	-50.2	-84.4	66	2	
2025-07-26T00:00	14300	144	-50.3	-84.4	63	1	
2025-07-26T00:00	14350	143	-50.6	-84.4	32	1	
2025-07-26T00:00	14400	142	-51.0	-84.5	270	1	
2025-07-26T00:00	14450	141	-51.2	-84.8	245	1	
2025-07-26T00:00	14500	140	-51.1	-84.8	248	1	
2025-07-26T00:00	14550	139	-50.7	-84.6	274	1	
2025-07-26T00:00	14600	138	-50.8	-85.0	337	1	
2025-07-26T00:00	14650	137	-50.5	-85.0	344	1	
2025-07-26T00:00	14700	136	-50.3	-85.1	322	2	
2025-07-26T00:00	14750	135	-50.4	-85.2	303	1	
2025-07-26T00:00	14800	134	-50.2	-85.1	281	1	
2025-07-26T00:00	14850	132	-50.4	-85.0	273	1	
2025-07-26T00:00	14900	131	-50.6	-84.9	287	1	
2025-07-26T00:00	14950	130	-50.8	-84.9	284	0	
2025-07-26T00:00	15000	129	-51.1	-85.0	150	0	
2025-07-26T00:00	15050	128	-51.4	-85.0	136	1	
2025-07-26T00:00	15100	127	-51.9	-85.0	131	1	
2025-07-26T00:00	15150	126	-52.2	-85.1	136	1	
2025-07-26T00:00	15200	125	-52.4	-85.2	156	2	
2025-07-26T00:00	15250	125	-52.3	-85.1	178	3	
2025-07-26T00:00	15300	124	-52.5	-85.3	190	4	
2025-07-26T00:00	15350	123	-52.4	-85.4	194	5	
2025-07-26T00:00	15400	122	-52.7	-85.4	198	6	
2025-07-26T00:00	15450	121	-53.0	-85.5	205	6	
2025-07-26T00:00	15500	120	-53.0	-85.7	215	7	
2025-07-26T00:00	15550	119	-53.0	-85.8	225	7	
2025-07-26T00:00	15600	118	-53.1	-85.9	231	7	
2025-07-26T00:00	15650	117	-53.2	-85.8	237	6	
2025-07-26T00:00	15700	116	-53.4	-85.8	248	5	
2025-07-26T00:00	15750	115	-53.6	-86.0	263	4	
2025-07-26T00:00	15800	114	-53.6	-86.2	271	4	
2025-07-26T00:00	15850	113	-53.5	-86.1	278	3	
2025-07-26T00:00	15900	113	-53.7	-86.2	294	2	
2025-07-26T00:00	15950	112	-53.8	-86.3	308	1	
2025-07-26T00:00	16000	111	-53.9	-86.5	286	1	
2025-07-26T00:00	16050	110	-54.0	-86.4	240	1	
2025-07-26T00:00	16100	109	-54.3	-86.4	208	2	
2025-07-26T00:00	16150	108	-54.7	-86.5	196	3	
2025-07-26T00:00	16200	107	-55.0	-86.6	197	4	
2025-07-26T00:00	16250	107	-55.4	-86.7	208	4	
2025-07-26T00:00	16300	106	-55.3	-86.8	221	4	
2025-07-26T00:00	16350	105	-55.2	-86.7	227	5	
2025-07-26T00:00	16400	104	-55.5	-86.8	226	5	
2025-07-26T00:00	16450	103	-55.8	-86.9	228	6	
2025-07-26T00:00	16500	103	-56.0	-87.1	235	6	
2025-07-26T00:00	16550	102	-55.6	-87.1	247	6	
2025-07-26T00:00	16600	101	-55.5	-87.1	260	5	
2025-07-26T00:00	16650	100	-55.5	-87.2	274	5	
2025-07-26T00:00	16700	99	-55.7	-87.3	288	4	
2025-07-26T00:00	16750	99	-55.8	-87.3	298	4	
2025-07-26T00:00	16800	98	-55.7	-87.3	303	3	
2025-07-26T00:00	16850	97	-55.8	-87.4	299	2	
2025-07-26T00:00	16900	96	-55.9	-87.4	278	1	
2025-07-26T00:00	16950	96	-56.1	-87.6	260	1	
2025-07-26T00:00	17000	95	-55.6	-87.7	248	2	
2025-07-26T00:00	17050	94	-55.0	-87.6	221	2	
2025-07-26T00:00	17100	93	-55.0	-87.6	196	2	
2025-07-26T00:00	17150	93	-55.1	-87.6	192	3	
2025-07-26T00:00	17200	92	-55.3	-87.6	194	4	
2025-07-26T00:00	17250	91	-55.7	-87.5	197	4	
2025-07-26T00:00	17300	90	-55.9	-87.7	205	4	
2025-07-26T00:00	17350	90	-55.7	-87.7	215	4	
2025-07-26T00:00	17400	89	-56.1	-87.7	222	4	
2025-07-26T00:00	17450	88	-56.5	-87.9	225	3	
2025-07-26T00:00	17500	88	-56.3	-88.0	231	3	
2025-07-26T00:00	17550	87	-56.0	-88.0	255	2	
2025-07-26T00:00	17600	86	-55.9	-88.1	289	2	
2025-07-26T00:00	17650	86	-55.2	-87.9	313	2	
2025-07-26T00:00	17700	85	-55.3	-88.0	352	1	
2025-07-26T00:00	17750	84	-55.3	-87.9	59	1	
2025-07-26T00:00	17800	84	-55.6	-88.0	91	3	
2025-07-26T00:00	17850	83	-55.6	-88.0	107	4	
2025-07-26T00:00	17900	82	-55.6	-88.0	121	4	
2025-07-26T00:00	17950	82	-55.5	-87.9	137	4	
2025-07-26T00:00	18000	81	-55.8	-88.0	153	4	
2025-07-26T00:00	18050	80	-56.2	-88.2	168	6	
2025-07-26T00:00	18100	80	-56.1	-88.4	176	8	
2025-07-26T00:00	18150	79	-55.7	-88.1	178	10	
2025-07-26T00:00	18200	78	-55.7	-88.1	180	10	
2025-07-26T00:00	18250	78	-56.1	-88.2	184	10	
2025-07-26T00:00	18300	77	-56.4	-88.1	190	10	
2025-07-26T00:00	18350	77	-56.8	-88.1	198	10	
2025-07-26T00:00	18400	76	-56.9	-88.5	210	9	
2025-07-26T00:00	18450	75	-56.3	-88.4	225	8	
2025-07-26T00:00	18500	75	-56.0	-88.6	241	7	
2025-07-26T00:00	18550	74	-56.0	-88.7	257	7	
2025-07-26T00:00	18600	74	-55.6	-88.5	274	6	
2025-07-26T00:00	18650	73	-55.6	-88.6	291	6	
2025-07-26T00:00	18700	73	-55.6	-88.6	310	6	
2025-07-26T00:00	18750	72	-55.8	-88.3	324	6	
2025-07-26T00:00	18800	71	-56.0	-88.3	332	6	
2025-07-26T00:00	18850	71	-56.3	-88.4	335	6	
2025-07-26T00:00	18900	70	-56.5	-88.4	337	5	
2025-07-26T00:00	18950	70	-56.7	-88.7	339	4	
2025-07-26T00:00	19000	69	-56.7	-88.7	338	4	
2025-07-26T00:00	19050	69	-56.7	-88.7	330	4	
2025-07-26T00:00	19100	68	-56.8	-88.9	326	4	
2025-07-26T00:00	19150	68	-56.7	-88.9	332	4	
2025-07-26T00:00	19200	67	-56.6	-88.8	347	3	
2025-07-26T00:00	19250	66	-56.9	-88.7	3	2	
2025-07-26T00:00	19300	66	-57.3	-88.6	26	2	
2025-07-26T00:00	19350	65	-57.5	-88.8	85	1	
2025-07-26T00:00	19400	65	-57.6	-89.1	125	2	
2025-07-26T00:00	19450	64	-57.6	-89.3	136	3	
2025-07-26T00:00	19500	64	-57.4	-89.2	135	3	
2025-07-26T00:00	19550	63	-57.4	-89.2	125	2	
2025-07-26T00:00	19600	63	-57.4	-89.1	97	2	
2025-07-26T00:00	19650	62	-57.4	-89.3	42	2	
2025-07-26T00:00	19700	62	-57.4	-89.4	12	3	
2025-07-26T00:00	19750	61	-57.2	-89.2	16	4	
2025-07-26T00:00	19800	61	-57.4	-89.2	30	5	
2025-07-26T00:00	19850	60	-57.6	-89.3	42	5	
2025-07-26T00:00	19900	60	-57.6	-89.4	53	6	
2025-07-26T00:00	19950	60	-57.4	-89.4	67	5	
2025-07-26T00:00	20000	59	-57.5	-89.5	83	5	
2025-07-26T00:00	20050	59	-57.4		93	5	
2025-07-26T00:00	20100	58	-57.3		95	5	
2025-07-26T00:00	20150	58	-57.2		93	5	
2025-07-26T00:00	20200	57	-57.2		93	6	
2025-07-26T00:00	20250	57	-57.2		95	6	
2025-07-26T00:00	20300	56	-57.5		102	5	
2025-07-26T00:00	20350	56	-57.2		120	5	
2025-07-26T00:00	20400	55	-56.6		133	6	
2025-07-26T00:00	20450	55	-56.3		139	7	
2025-07-26T00:00	20500	55	-55.7		143	7	
2025-07-26T00:00	20550	54	-55.2		146	5	
2025-07-26T00:00	20600	54	-54.9		147	4	
2025-07-26T00:00	20650	53	-54.2		147	2	
2025-07-26T00:00	20700	53	-54.0		130	2	
2025-07-26T00:00	20750	52	-54.2		89	2	
2025-07-26T00:00	20800	52	-54.3		76	3	
2025-07-26T00:00	20850	52	-54.5		77	5	
2025-07-26T00:00	20900	51	-54.7		82	7	
2025-07-26T00:00	20950	51	-54.9		87	8	
2025-07-26T00:00	21000	50	-54.9		91	9	
2025-07-26T00:00	21050	50	-55.0		95	9	
2025-07-26T00:00	21100	50	-55.0		98	8	
2025-07-26T00:00	21150	49	-54.9		104	7	
2025-07-26T00:00	21200	49	-55.0		111	7	
2025-07-26T00:00	21250	49	-55.0		117	6	
2025-07-26T00:00	21300	48	-55.0		117	6	
2025-07-26T00:00	21350	48	-54.5		111	6	
2025-07-26T00:00	21400	47	-54.3		103	6	
2025-07-26T00:00	21450	47	-54.2		96	7	
2025-07-26T00:00	21500	47	-54.1		97	7	
2025-07-26T00:00	21550	46	-53.9		103	8	
2025-07-26T00:00	21600	46	-53.8		112	8	
2025-07-26T00:00	21650	46	-53.8		121	7	
2025-07-26T00:00	21700	45	-53.6		124	7	
2025-07-26T00:00	21750	45	-53.4		122	7	
2025-07-26T00:00	21800	45	-53.3		120	7	
2025-07-26T00:00	21850	44	-53.2		119	8	
2025-07-26T00:00	21900	44	-53.0		120	9	
2025-07-26T00:00	21950	44	-52.8		123	9	
2025-07-26T00:00	22000	43	-52.7		128	9	
2025-07-26T00:00	22050	43	-52.9		135	9	
2025-07-26T00:00	22100	43	-52.8		141	10	
2025-07-26T00:00	22150	42	-52.9		142	10	
2025-07-26T00:00	22200	42	-53.2		139	8	
2025-07-26T00:00	22250	42	-53.3		129	7	
2025-07-26T00:00	22300	41	-53.4		111	5	
2025-07-26T00:00	22350	41	-53.2		89	5	
2025-07-26T00:00	22400	41	-53.3		71	6	
2025-07-26T00:00	22450	40	-53.4		64	7	
2025-07-26T00:00	22500	40	-53.5		63	8	
2025-07-26T00:00	22550	40	-53.9		62	9	
2025-07-26T00:00	22600	39	-54.1		62	10	
2025-07-26T00:00	22650	39	-54.4		64	10	
2025-07-26T00:00	22700	39	-54.6		69	10	
2025-07-26T00:00	22750	38	-54.7		77	9	
2025-07-26T00:00	22800	38	-54.9		84	9	
2025-07-26T00:00	22850	38	-55.1		88	9	
2025-07-26T00:00	22900	38	-55.3		91	9	
2025-07-26T00:00	22950	37	-55.4		96	9	
2025-07-26T00:00	23000	37	-55.5		101	10	
2025-07-26T00:00	23050	37	-55.6		103	10	
2025-07-26T00:00	23100	36	-55.5		104	10	
2025-07-26T00:00	23150	36	-55.4		105	11	
2025-07-26T00:00	23200	36	-55.0		109	11	
2025-07-26T00:00	23250	36	-54.8		110	11	
2025-07-26T00:00	23300	35	-54.5		105	10	
2025-07-26T00:00	23350	35	-54.0		98	11	
2025-07-26T00:00	23400	35	-53.8		95	12	
2025-07-26T00:00	23450	34	-54.0		95	13	
2025-07-26T00:00	23500	34	-53.8		96	14	
2025-07-26T00:00	23550	34	-53.3		96	14	
2025-07-26T00:00	23600	34	-53.3		97	13	
2025-07-26T00:00	23650	33	-53.1		100	12	
2025-07-26T00:00	23700	33	-52.9		105	10	
2025-07-26T00:00	23750	33	-52.7		113	9	
2025-07-26T00:00	23800	33	-52.8		124	7	
2025-07-26T00:00	23850	32	-53.0		136	6	
2025-07-26T00:00	23900	32	-52.9		145	5	
2025-07-26T00:00	23950	32	-52.3		143	3	
2025-07-26T00:00	24000	32	-52.5		125	3	
2025-07-26T00:00	24050	31	-52.6		92	3	
2025-07-26T00:00	24100	31	-52.5		68	4	
2025-07-26T00:00	24150	31	-52.1		57	5	
2025-07-26T00:00	24200	31	-51.7		55	7	
2025-07-26T00:00	24250	30	-51.6		59	8	
2025-07-26T00:00	24300	30	-51.6		64	10	
2025-07-26T00:00	24350	30	-51.5		68	11	
2025-07-26T00:00	24400	30	-51.7		72	11	
2025-07-26T00:00	24450	30	-52.0		77	12	
2025-07-26T00:00	24500	29	-52.2		82	13	
2025-07-26T00:00	24550	29	-52.2		86	14	
2025-07-26T00:00	24600	29	-52.3		90	15	
2025-07-26T00:00	24650	29	-52.4		93	15	
2025-07-26T00:00	24700	28	-52.5		97	14	
2025-07-26T00:00	24750	28	-52.6		102	13	
2025-07-26T00:00	24800	28	-52.7		108	12	
2025-07-26T00:00	24850	28	-52.5		114	11	
2025-07-26T00:00	24900	28	-52.5		117	10	
2025-07-26T00:00	24950	27	-52.3		115	9	
2025-07-26T00:00	25000	27	-52.0		111	9	
2025-07-26T00:00	25050	27	-51.9		108	9	
2025-07-26T00:00	25100	27	-51.9		108	9	
2025-07-26T00:00	25150	26	-51.7		110	9	
2025-07-26T00:00	25200	26	-51.7		112	9	
2025-07-26T00:00	25250	26	-51.4		115	8	
2025-07-26T00:00	25300	26	-51.0		114	7	
2025-07-26T00:00	25350	26	-50.5		109	7	
2025-07-26T00:00	25400	25	-49.9		108	7	
2025-07-26T00:00	25450	25	-49.6		114	7	
2025-07-26T00:00	25500	25	-49.6		122	7	
2025-07-26T00:00	25550	25	-49.5		129	7	
2025-07-26T00:00	25600	25	-49.1		134	5	
2025-07-26T00:00	25650	25	-49.1		140	4	
2025-07-26T00:00	25700	24	-49.2		147	2	
2025-07-26T00:00	25750	24	-49.0		127	1	
2025-07-26T00:00	25800	24	-48.8		40	1	
2025-07-26T00:00	25850	24	-48.5		39	2	
2025-07-26T00:00	25900	24	-48.3		45	2	
2025-07-26T00:00	25950	23	-48.0		41	3	
2025-07-26T00:00	26000	23	-47.8		33	4	
2025-07-26T00:00	26050	23	-47.6		33	5	
2025-07-26T00:00	26100	23	-47.6		38	6	
2025-07-26T00:00	26150	23	-47.6		44	6	
2025-07-26T00:00	26200	23	-47.6		48	7	
2025-07-26T00:00	26250	22	-47.6		49	8	
2025-07-26T00:00	26300	22	-47.5		49	8	
2025-07-26T00:00	26350	22	-47.6		49	9	
2025-07-26T00:00	26400	22	-47.7		49	9	
2025-07-26T00:00	26450	22	-47.9		50	10	
2025-07-26T00:00	26500	22	-48.1		51	10	
2025-07-26T00:00	26550	21	-48.4		53	10	
2025-07-26T00:00	26600	21	-48.6		57	10	
2025-07-26T00:00	26650	21	-48.8		63	11	
2025-07-26T00:00	26700	21	-48.8		70	11	
2025-07-26T00:00	26750	21	-48.7		77	11	
2025-07-26T00:00	26800	21	-48.7		82	11	
2025-07-26T00:00	26850	20	-48.8		88	10	
2025-07-26T00:00	26900	20	-48.9		95	10	
2025-07-26T00:00	26950	20	-48.9		104	11	
2025-07-26T00:00	27000	20	-48.9		112	11	
2025-07-26T00:00	27050	20	-48.9		116	10	
2025-07-26T00:00	27100	20	-48.7		112	9	
2025-07-26T00:00	27150	20	-48.4		98	8	
2025-07-26T00:00	27200	19	-48.2		82	9	
2025-07-26T00:00	27250	19	-48.0		75	10	
2025-07-26T00:00	27300	19	-47.4		75	11	
2025-07-26T00:00	27350	19	-47.1		79	11	
2025-07-26T00:00	27400	19	-47.4		84	11	
2025-07-26T00:00	27450	19	-47.6		89	11	
2025-07-26T00:00	27500	19	-47.7		93	11	
2025-07-26T00:00	27550	18	-47.9		95	11	
2025-07-26T00:00	27600	18	-48.0		93	10	
2025-07-26T00:00	27650	18	-48.0		89	10	
2025-07-26T00:00	27700	18	-48.0		83	9	
2025-07-26T00:00	27750	18	-48.0		80	9	
2025-07-26T00:00	27800	18	-47.8		80	9	
2025-07-26T00:00	27850	18	-47.7		82	10	
2025-07-26T00:00	27900	17	-47.7		84	10	
2025-07-26T00:00	27950	17	-47.8		84	10	
2025-07-26T00:00	28000	17	-48.0		81	11	
2025-07-26T00:00	28050	17	-48.2		78	11	
2025-07-26T00:00	28100	17	-48.1		77	11	
2025-07-26T00:00	28150	17	-48.3		78	12	
2025-07-26T00:00	28200	17	-48.4		82	12	
2025-07-26T00:00	28250	17	-48.1		87	13	
2025-07-26T00:00	28300	16	-48.0		93	13	
2025-07-26T00:00	28350	16	-48.1		97	12	
2025-07-26T00:00	28400	16	-48.2		97	12	
2025-07-26T00:00	28450	16	-48.0		93	11	
2025-07-26T00:00	28500	16	-47.8		89	11	
2025-07-26T00:00	28550	16	-47.5		90	12	
2025-07-26T00:00	28600	16	-47.3		95	12	
2025-07-26T00:00	28650	16	-47.2		98	13	
2025-07-26T00:00	28700	15	-46.9		97	13	
2025-07-26T00:00	28750	15	-46.6		96	14	
2025-07-26T00:00	28800	15	-46.4		97	15	
2025-07-26T00:00	28850	15	-46.4		102	15	
2025-07-26T00:00	28900	15	-46.2		107	14	
2025-07-26T00:00	28950	15	-46.3		111	14	
2025-07-26T00:00	29000	15	-46.3		113	13	
2025-07-26T00:00	29050	15	-46.1		112	11	
2025-07-26T00:00	29100	15	-45.9		109	11	
2025-07-26T00:00	29150	14	-45.8		106	11	
2025-07-26T00:00	29200	14	-45.6		104	11	
2025-07-26T00:00	29250	14	-45.6		99	11	
2025-07-26T00:00	29300	14	-45.4		93	12	
2025-07-26T00:00	29350	14	-45.1		89	13	
2025-07-26T00:00	29400	14	-44.8		87	13	
2025-07-26T00:00	29450	14	-44.7		87	13	
2025-07-26T00:00	29500	14	-44.7		86	13	
2025-07-26T00:00	29550	14	-44.8		86	13	
2025-07-26T00:00	29600	13	-44.9		86	13	
2025-07-26T00:00	29650	13	-44.8		87	14	
2025-07-26T00:00	29700	13	-44.2		88	14	
2025-07-26T00:00	29750	13	-44.2		87	14	
2025-07-26T00:00	29800	13	-44.1		84	15	
2025-07-26T00:00	29850	13	-44.0		81	15	
2025-07-26T00:00	29900	13	-43.9		81	16	
2025-07-26T00:00	29950	13	-43.9		83	16	
2025-07-26T00:00	30000	13	-43.9		87	15	
2025-07-26T00:00	30050	13	-43.9		90	14	
2025-07-26T00:00	30100	13	-43.9		92	14	
2025-07-26T00:00	30150	12	-44.1		92	13	
2025-07-26T00:00	30200	12	-44.1		90	14	
2025-07-26T00:00	30250	12	-44.0		88	14	
2025-07-26T00:00	30300	12	-43.8		88	14	
2025-07-26T00:00	30350	12	-43.8		88	14	
2025-07-26T00:00	30400	12	-43.7		89	15	
2025-07-26T00:00	30450	12	-43.5		90	16	
2025-07-26T00:00	30500	12	-43.2		89	17	
2025-07-26T00:00	30550	12	-43.0		89	18	
2025-07-26T00:00	30600	12	-42.8		88	17	
2025-07-26T00:00	30650	12	-42.7		87	17	
2025-07-26T00:00	30700	11	-42.6		87	17	
2025-07-26T00:00	30750	11	-42.7		89	18	
2025-07-26T00:00	30800	11	-42.7		91	18	
2025-07-26T00:00	30850	11	-42.6		93	19	
2025-07-26T00:00	30900	11	-42.5		95	18	
2025-07-26T00:00	30950	11	-42.2		97	18	
2025-07-26T00:00	31000	11	-42.2		99	17	
2025-07-26T00:00	31050	11	-42.4		101	16	
2025-07-26T00:00	31100	11	-42.5		102	15	
2025-07-26T00:00	31150	11	-42.6		99	15	
2025-07-26T00:00	31200	11	-42.6		96	15	
2025-07-26T00:00	31250	11	-42.7		93	16	
2025-07-26T00:00	31300	10	-42.6		93	16	
2025-07-26T00:00	31350	10	-42.6		95	16	
2025-07-26T00:00	31400	10	-42.4		98	16	
2025-07-26T00:00	31450	10	-42.3		102	15	
2025-07-26T00:00	31500	10	-42.2		106	14	
2025-07-26T00:00	31550	10	-42.2		108	14	
2025-07-26T00:00	31600	10	-42.3		107	14	
2025-07-26T00:00	31650	10	-42.1		103	14	
2025-07-26T00:00	31700	10	-41.8		97	15	
2025-07-26T00:00	31750	10	-41.7		93	16	
2025-07-26T00:00	31800	10	-41.8		93	17	
2025-07-26T00:00	31850	10	-41.8		95	18	
2025-07-26T00:00	31900	10	-41.8		97	18	
2025-07-26T00:00	31950	10	-41.9		100	18	
2025-07-26T00:00	32000	9	-41.8		102	17	
2025-07-26T00:00	32050	9	-41.6		103	15	
2025-07-26T00:00	32100	9	-41.6		105	14	
2025-07-26T00:00	32150	9	-41.6		107	13	
2025-07-26T00:00	32200	9	-41.8		106	12	
2025-07-26T00:00	32250	9	-41.7		103	12	
2025-07-26T00:00	32300	9	-41.3		99	13	
2025-07-26T00:00	32350	9	-41.2		95	14	
2025-07-26T00:00	32400	9	-40.9		91	14	
2025-07-26T00:00	32450	9	-40.7		89	15	
2025-07-26T00:00	32500	9	-40.6		88	14	
2025-07-26T00:00	32550	9	-40.3		88	13	
2025-07-26T00:00	32600	9	-40.4		88	12	
2025-07-26T00:00	32650	9	-40.4		88	11	
2025-07-26T00:00	32700	9	-40.2		87	12	
2025-07-26T00:00	32750	8	-39.9		88	12	
2025-07-26T00:00	32800	8	-39.6		92	12	
2025-07-26T00:00	32850	8	-39.1		96	11	
2025-07-26T00:00	32900	8	-39.0		99	10	
2025-07-26T00:00	32950	8	-39.0		95	8	
2025-07-26T00:00	33000	8	-38.8		85	7	
2025-07-26T00:00	33050	8	-38.5		70	8	
2025-07-26T00:00	33100	8	-38.3		64	9	
2025-07-26T00:00	33150	8	-37.9		65	11	
2025-07-26T00:00	33200	8	-37.6		70	13	
2025-07-26T00:00	33250	8	-37.4		74	13	
2025-07-26T00:00	33300	8	-37.2		76	12	
2025-07-26T00:00	33350	8	-36.9		77	10	
2025-07-26T00:00	33400	8	-36.9		73	10	
2025-07-26T00:00	33450	8	-36.7		69	12	
2025-07-26T00:00	33500	8	-36.5		65	14	
2025-07-26T00:00	33550	8	-36.2		64	15	
2025-07-26T00:00	33600	7	-35.9		65	15	
2025-07-26T00:00	33650	7	-35.5		68	15	
2025-07-26T00:00	33700	7	-35.5		71	15	
2025-07-26T00:00	33750	7	-35.5		74	15	
2025-07-26T00:00	33800	7	-35.6		77	16	
2025-07-26T00:00	33850	7	-35.6		79	16	
2025-07-26T00:00	33900	7	-35.7		79	16	
2025-07-26T00:00	33950	7	-35.6		78	16	
2025-07-26T00:00	34000	7	-35.5		77	16	
2025-07-26T00:00	34050	7	-35.4		75	16	
2025-07-26T00:00	34100	7	-35.1		74	17	
2025-07-26T00:00	34150	7	-34.6		75	18	
2025-07-26T00:00	34200	7	-34.5		75	20	
2025-07-26T00:00	34250	7	-34.7		76	21	
2025-07-26T00:00	34300	7	-34.7		77	22	
2025-07-26T00:00	34350	7	-34.6		77	22	
2025-07-26T00:00	34400	7	-34.5		78	21	
2025-07-26T00:00	34450	7	-34.4		79	20	
2025-07-26T00:00	34500	7	-34.5		81	20	
2025-07-26T00:00	34550	7	-34.3		82	20	
2025-07-26T00:00	34600	6	-34.1		83	20	
2025-07-26T00:00	34650	6	-34.0		84	20	
2025-07-26T00:00	34700	6	-34.0		87	20	
2025-07-26T00:00	34750	6	-34.0		90	20	
2025-07-26T00:00	34800	6	-34.1		92	21	
2025-07-26T00:00	34850	6	-34.1		93	22	
2025-07-26T00:00	34900	6	-34.0		93	23	
2025-07-26T00:00	34950	6	-33.8		92	24	
2025-07-26T00:00	35000	6	-33.8		91	23	
2025-07-26T00:00	35050	6	-33.8		91	23	
2025-07-26T00:00	35100	6	-33.6		90	22	
2025-07-26T00:00	35150	6	-33.5		90	21	
2025-07-26T00:00	35200	6	-33.4		89	21	
2025-07-26T00:00	35250	6	-33.4		89	21	
2025-07-26T00:00	35300	6	-33.5		89	21	
2025-07-26T00:00	35350	6	-33.4		89	21	
2025-07-26T00:00	35400	6	-33.7		89	20	
2025-07-26T00:00	35450	6	-34.0		89	20	
2025-07-26T00:00	35500	6	-34.1		88	19	
2025-07-26T00:00	35550	6	-34.1		87	19	
2025-07-26T00:00	35600	6	-34.0		87	20	
2025-07-26T00:00	35650	6	-33.6		88	20	
2025-07-26T00:00	35700	6	-33.4		89	22	
2025-07-26T00:00	35750	5	-33.5		90	23	
2025-07-26T00:00	35800	5	-33.5		91	24	
2025-07-26T00:00	35850	5	-33.5		92	25	
2025-07-26T00:00	35900	5	-33.3		94	25	
2025-07-26T00:00	35950	5	-33.1		96	25	
2025-07-26T00:00	36000	5	-32.5		97	24	
2025-07-26T00:00	36050	5	-32.1		97	24	
2025-07-26T00:00	36100	5	-31.7		95	23	
2025-07-26T00:00	36150	5	-31.4		93	23	
2025-07-26T00:00	36200	5	-31.0		91	22	
2025-07-26T00:00	36250	5	-30.6		89	21	
2025-07-26T00:00	36300	5	-30.5		88	20	
2025-07-26T00:00	36350	5	-30.4		87	19	
2025-07-26T00:00	36400	5	-30.3		84	19	
2025-07-26T00:00	36450	5	-30.0		81	19	
2025-07-26T00:00	36500	5	-29.7		80	20	
2025-07-26T00:00	36550	5	-29.6		80	21	
2025-07-26T00:00	36600	5	-30.1		82	22	
2025-07-26T00:00	36650	5	-30.0		83	23	
2025-07-26T00:00	36700	5	-30.3		84	24	
2025-07-26T00:00	36750	5	-30.6		83	24	
2025-07-26T00:00	36800	5	-30.7		81	23	
2025-07-26T00:00	36850	5	-30.7		80	23	
2025-07-26T00:00	36900	5	-30.7		81	23	
2025-07-26T12:00	491	960	21.3	13.0	99	2	
2025-07-26T12:00	501	958	21.6	13.4	98	2	
2025-07-26T12:00	520	956	20.3	12.8	95	2	
2025-07-26T12:00	540	954	19.8	12.3	90	2	
2025-07-26T12:00	560	952	19.6	12.2	82	3	
2025-07-26T12:00	580	950	19.6	12.4	74	3	
2025-07-26T12:00	600	947	19.5	12.3	66	3	
2025-07-26T12:00	620	945	19.4	12.4	60	3	
2025-07-26T12:00	640	943	19.2	12.4	54	3	
2025-07-26T12:00	660	941	19.0	12.4	51	3	
2025-07-26T12:00	680	939	18.7	12.4	49	3	
2025-07-26T12:00	700	936	18.5	12.4	48	3	
2025-07-26T12:00	720	934	18.3	12.4	49	3	
2025-07-26T12:00	740	932	18.1	12.3	50	3	
2025-07-26T12:00	760	930	17.9	12.3	51	3	
2025-07-26T12:00	780	928	17.7	12.3	51	3	
2025-07-26T12:00	800	926	17.5	12.2	51	3	
2025-07-26T12:00	820	923	17.3	12.2	50	3	
2025-07-26T12:00	840	921	17.1	12.1	48	3	
2025-07-26T12:00	860	919	16.8	11.9	45	4	
2025-07-26T12:00	880	917	16.6	11.8	41	4	
2025-07-26T12:00	900	915	16.4	11.9	37	4	
2025-07-26T12:00	920	913	16.2	11.8	35	4	
2025-07-26T12:00	940	911	16.1	11.9	35	4	
2025-07-26T12:00	960	909	15.9	11.7	35	4	
2025-07-26T12:00	980	906	15.7	11.8	34	4	
2025-07-26T12:00	1000	904	15.5	11.8	30	4	
2025-07-26T12:00	1020	902	15.3	11.8	22	4	
2025-07-26T12:00	1040	900	15.1	11.8	15	4	
2025-07-26T12:00	1060	898	14.9	11.7	8	4	
2025-07-26T12:00	1080	896	14.7	11.6	1	4	
2025-07-26T12:00	1100	894	14.5	11.7	357	4	
2025-07-26T12:00	1120	891	14.3	11.6	356	4	
2025-07-26T12:00	1140	889	14.2	11.4	357	4	
2025-07-26T12:00	1160	887	14.0	11.3	360	4	
2025-07-26T12:00	1180	885	13.9	11.4	3	4	
2025-07-26T12:00	1200	883	13.7	11.3	5	4	
2025-07-26T12:00	1220	881	13.4	11.3	7	4	
2025-07-26T12:00	1240	879	13.2	11.3	9	5	
2025-07-26T12:00	1260	877	13.1	11.3	10	5	
2025-07-26T12:00	1280	875	12.9	11.4	11	5	
2025-07-26T12:00	1300	873	12.7	11.1	12	5	
2025-07-26T12:00	1320	871	12.6	11.0	12	5	
2025-07-26T12:00	1340	869	12.4	10.9	11	6	
2025-07-26T12:00	1360	867	12.4	10.0	11	6	
2025-07-26T12:00	1380	864	12.2	10.1	11	5	
2025-07-26T12:00	1400	862	12.0	10.1	12	5	
2025-07-26T12:00	1420	860	11.9	9.6	13	5	
2025-07-26T12:00	1440	858	11.9	9.3	15	6	
2025-07-26T12:00	1460	856	11.7	9.3	17	6	
2025-07-26T12:00	1480	854	11.6	9.0	19	6	
2025-07-26T12:00	1500	852	11.5	8.8	20	6	
2025-07-26T12:00	1520	850	11.3	8.7	21	6	
2025-07-26T12:00	1540	848	11.3	8.4	21	6	
2025-07-26T12:00	1560	846	11.1	8.3	18	6	
2025-07-26T12:00	1580	844	11.0	8.1	15	6	
2025-07-26T12:00	1600	842	10.9	7.9	13	6	
2025-07-26T12:00	1620	840	10.7	7.9	12	7	
2025-07-26T12:00	1640	838	10.5	7.8	14	7	
2025-07-26T12:00	1660	836	10.4	7.7	17	8	
2025-07-26T12:00	1680	834	10.3	7.7	20	8	
2025-07-26T12:00	1700	832	10.1	7.7	24	8	
2025-07-26T12:00	1720	830	9.9	7.6	27	7	
2025-07-26T12:00	1740	828	9.7	7.6	29	7	
2025-07-26T12:00	1760	826	9.6	7.5	30	7	
2025-07-26T12:00	1780	824	9.4	7.4	30	7	
2025-07-26T12:00	1800	822	9.2	7.4	30	7	
2025-07-26T12:00	1820	820	9.1	7.3	30	7	
2025-07-26T12:00	1840	818	8.9	7.2	30	8	
2025-07-26T12:00	1860	816	8.7	7.1	30	8	
2025-07-26T12:00	1880	814	8.6	7.2	30	8	
2025-07-26T12:00	1900	812	8.4	7.2	30	9	
2025-07-26T12:00	1920	810	8.3	7.1	30	9	
2025-07-26T12:00	1940	808	8.1	7.0	30	9	
2025-07-26T12:00	1960	807	8.0	7.0	30	9	
2025-07-26T12:00	1980	804	7.8	6.9	31	9	
2025-07-26T12:00	2000	802	7.7	6.8	33	9	
2025-07-26T12:00	2020	800	7.6	6.6	35	9	
2025-07-26T12:00	2040	799	7.5	6.4	35	9	
2025-07-26T12:00	2060	797	7.2	6.5	35	9	
2025-07-26T12:00	2080	795	7.1	6.3	34	9	
2025-07-26T12:00	2100	793	6.9	6.3	32	9	
2025-07-26T12:00	2120	791	6.7	6.3	31	9	
2025-07-26T12:00	2140	789	6.6	6.0	30	9	
2025-07-26T12:00	2160	787	6.6	5.5	31	9	
2025-07-26T12:00	2180	785	6.7	5.1	32	9	
2025-07-26T12:00	2200	783	6.7	4.3	33	9	
2025-07-26T12:00	2220	781	6.7	4.0	34	8	
2025-07-26T12:00	2240	779	6.6	4.2	33	8	
2025-07-26T12:00	2260	777	6.7	3.6	31	8	
2025-07-26T12:00	2280	776	6.6	3.4	28	8	
2025-07-26T12:00	2300	774	6.6	3.1	25	8	
2025-07-26T12:00	2320	772	6.5	3.1	23	9	
2025-07-26T12:00	2340	770	6.4	2.9	23	9	
2025-07-26T12:00	2360	768	6.2	2.8	24	9	
2025-07-26T12:00	2380	766	6.1	2.8	26	9	
2025-07-26T12:00	2400	764	5.9	2.7	29	9	
2025-07-26T12:00	2420	762	5.7	2.7	31	9	
2025-07-26T12:00	2440	761	5.5	2.5	33	9	
2025-07-26T12:00	2460	759	5.4	2.5	36	9	
2025-07-26T12:00	2480	757	5.2	2.5	37	9	
2025-07-26T12:00	2500	755	5.0	2.3	38	9	
2025-07-26T12:00	2520	753	4.9	2.2	38	9	
2025-07-26T12:00	2540	752	4.7	2.2	37	9	
2025-07-26T12:00	2560	750	4.6	2.2	35	9	
2025-07-26T12:00	2580	748	4.5	2.1	34	9	
2025-07-26T12:00	2600	746	4.3	2.0	32	8	
2025-07-26T12:00	2620	744	4.2	1.9	31	8	
2025-07-26T12:00	2640	742	4.1	1.7	31	8	
2025-07-26T12:00	2660	741	4.0	1.7	31	8	
2025-07-26T12:00	2680	739	3.9	1.7	32	8	
2025-07-26T12:00	2700	737	3.7	1.5	32	8	
2025-07-26T12:00	2720	735	3.5	1.4	32	8	
2025-07-26T12:00	2740	733	3.4	1.4	33	8	
2025-07-26T12:00	2760	732	3.2	1.4	34	8	
2025-07-26T12:00	2780	730	3.0	1.3	35	8	
2025-07-26T12:00	2800	728	2.8	1.3	36	8	
2025-07-26T12:00	2820	726	2.7	1.2	37	8	
2025-07-26T12:00	2840	724	2.5	1.0	39	8	
2025-07-26T12:00	2860	722	2.4	0.9	40	8	
2025-07-26T12:00	2880	721	2.2	0.9	41	8	
2025-07-26T12:00	2900	719	2.1	0.8	39	8	
2025-07-26T12:00	2920	717	1.9	0.8	36	8	
2025-07-26T12:00	2940	715	1.7	0.7	32	8	
2025-07-26T12:00	2960	714	1.6	0.6	27	8	
2025-07-26T12:00	2980	712	1.4	0.5	24	9	
2025-07-26T12:00	3000	710	1.3	0.4	22	9	
2025-07-26T12:00	3020	708	1.2	0.3	22	10	
2025-07-26T12:00	3040	706	1.1	0.2	23	10	
2025-07-26T12:00	3060	705	1.0	0.0	25	10	
2025-07-26T12:00	3080	703	0.9	-0.1	26	10	
2025-07-26T12:00	3100	701	0.8	-0.2	28	10	
2025-07-26T12:00	3120	700	0.7	-0.2	29	9	
2025-07-26T12:00	3140	698	0.6	-0.4	30	9	
2025-07-26T12:00	3160	696	0.5	-0.4	29	9	
2025-07-26T12:00	3180	694	0.3	-0.4	29	9	
2025-07-26T12:00	3200	693	0.2	-0.6	29	9	
2025-07-26T12:00	3220	691	0.1	-0.6	29	9	
2025-07-26T12:00	3240	689	0.0	-0.7	31	10	
2025-07-26T12:00	3260	687	-0.1	-1.0	32	10	
2025-07-26T12:00	3280	686	-0.2	-1.2	33	10	
2025-07-26T12:00	3300	684	-0.3	-1.4	34	10	
2025-07-26T12:00	3320	682	-0.4	-1.5	34	10	
2025-07-26T12:00	3340	680	-0.5	-1.7	33	10	
2025-07-26T12:00	3360	679	-0.6	-1.8	32	10	
2025-07-26T12:00	3380	677	-0.7	-2.1	31	9	
2025-07-26T12:00	3400	676	-0.8	-2.3	30	9	
2025-07-26T12:00	3420	674	-0.8	-2.6	30	9	
2025-07-26T12:00	3440	672	-0.9	-2.9	31	9	
2025-07-26T12:00	3460	670	-1.1	-2.9	33	9	
2025-07-26T12:00	3480	669	-1.3	-3.2	34	9	
2025-07-26T12:00	3500	667	-1.4	-3.2	34	9	
2025-07-26T12:00	3520	666	-1.6	-3.3	35	10	
2025-07-26T12:00	3540	664	-1.7	-3.3	35	10	
2025-07-26T12:00	3560	662	-1.9	-3.6	35	10	
2025-07-26T12:00	3580	660	-2.0	-3.8	34	10	
2025-07-26T12:00	3600	659	-2.1	-3.7	32	10	
2025-07-26T12:00	3620	657	-2.3	-3.8	31	10	
2025-07-26T12:00	3640	656	-2.4	-3.8	29	10	
2025-07-26T12:00	3660	654	-2.6	-4.0	28	10	
2025-07-26T12:00	3680	652	-2.7	-3.9	27	10	
2025-07-26T12:00	3700	650	-2.9	-3.9	26	10	
2025-07-26T12:00	3720	649	-3.0	-3.9	25	10	
2025-07-26T12:00	3740	647	-3.2	-4.0	25	11	
2025-07-26T12:00	3760	646	-3.3	-4.1	25	11	
2025-07-26T12:00	3780	644	-3.5	-4.1	25	11	
2025-07-26T12:00	3800	642	-3.7	-4.1	25	11	
2025-07-26T12:00	3820	641	-3.8	-4.3	25	10	
2025-07-26T12:00	3840	639	-3.9	-4.4	25	10	
2025-07-26T12:00	3860	638	-4.0	-4.6	26	10	
2025-07-26T12:00	3880	636	-4.2	-4.7	27	9	
2025-07-26T12:00	3900	634	-4.3	-4.8	27	9	
2025-07-26T12:00	3920	633	-4.5	-4.9	27	8	
2025-07-26T12:00	3940	631	-4.6	-5.1	27	8	
2025-07-26T12:00	3960	629	-4.7	-5.3	27	8	
2025-07-26T12:00	3980	628	-4.8	-5.5	26	8	
2025-07-26T12:00	4000	626	-4.9	-5.6	26	8	
2025-07-26T12:00	4020	625	-5.1	-5.6	27	8	
2025-07-26T12:00	4040	623	-5.2	-5.9	27	9	
2025-07-26T12:00	4060	622	-5.3	-6.0	27	9	
2025-07-26T12:00	4080	620	-5.5	-6.1	28	9	
2025-07-26T12:00	4100	618	-5.6	-6.2	28	9	
2025-07-26T12:00	4120	617	-5.8	-6.2	28	10	
2025-07-26T12:00	4140	615	-5.9	-6.4	27	10	
2025-07-26T12:00	4160	614	-6.1	-6.5	26	10	
2025-07-26T12:00	4180	612	-6.2	-6.6	26	10	
2025-07-26T12:00	4200	611	-6.4	-6.7	26	10	
2025-07-26T12:00	4220	609	-6.5	-6.9	26	9	
2025-07-26T12:00	4240	607	-6.7	-7.0	27	9	
2025-07-26T12:00	4260	606	-6.8	-7.3	27	9	
2025-07-26T12:00	4280	604	-6.9	-7.4	27	9	
2025-07-26T12:00	4300	603	-7.1	-7.4	26	9	
2025-07-26T12:00	4320	601	-7.2	-7.5	25	9	
2025-07-26T12:00	4340	600	-7.3	-7.7	23	9	
2025-07-26T12:00	4360	598	-7.5	-7.8	20	10	
2025-07-26T12:00	4380	597	-7.6	-7.7	19	10	
2025-07-26T12:00	4400	595	-7.6	-7.6	18	10	
2025-07-26T12:00	4420	594	-7.8	-7.8	16	10	
2025-07-26T12:00	4440	592	-7.9	-7.9	14	9	
2025-07-26T12:00	4460	591	-8.0	-8.0	13	8	
2025-07-26T12:00	4480	589	-8.1	-8.1	10	8	
2025-07-26T12:00	4500	587	-8.2	-8.2	8	7	
2025-07-26T12:00	4520	586	-8.4	-8.4	6	7	
2025-07-26T12:00	4540	585	-8.5	-8.5	7	7	
2025-07-26T12:00	4560	583	-8.6	-8.6	9	7	
2025-07-26T12:00	4580	582	-8.7	-8.7	10	8	
2025-07-26T12:00	4600	580	-8.8	-8.8	12	8	
2025-07-26T12:00	4620	579	-9.0	-9.0	14	9	
2025-07-26T12:00	4640	577	-9.1	-9.2	16	9	
2025-07-26T12:00	4660	576	-8.7	-10.1	16	9	
2025-07-26T12:00	4680	574	-8.3	-11.0	17	9	
2025-07-26T12:00	4700	573	-8.3	-11.1	16	9	
2025-07-26T12:00	4720	571	-8.3	-11.3	14	9	
2025-07-26T12:00	4740	569	-8.4	-11.4	12	9	
2025-07-26T12:00	4760	568	-8.5	-11.6	10	10	
2025-07-26T12:00	4780	567	-8.6	-11.9	8	10	
2025-07-26T12:00	4800	565	-8.6	-12.1	8	10	
2025-07-26T12:00	4820	564	-8.7	-12.1	8	11	
2025-07-26T12:00	4840	562	-8.7	-12.2	9	11	
2025-07-26T12:00	4860	561	-8.8	-12.5	10	11	
2025-07-26T12:00	4880	559	-8.9	-12.6	12	11	
2025-07-26T12:00	4900	558	-9.0	-12.8	15	11	
2025-07-26T12:00	4920	556	-9.0	-13.1	17	11	
2025-07-26T12:00	4940	555	-9.1	-13.3	18	11	
2025-07-26T12:00	4960	554	-9.3	-13.4	20	11	
2025-07-26T12:00	4980	552	-9.3	-13.8	22	12	
2025-07-26T12:00	5000	551	-9.4	-14.0	23	12	
2025-07-26T12:00	5020	550	-9.4	-14.5	25	12	
2025-07-26T12:00	5040	548	-9.4	-14.9	26	12	
2025-07-26T12:00	5060	546	-9.5	-15.2	28	12	
2025-07-26T12:00	5080	545	-9.7	-15.3	28	11	
2025-07-26T12:00	5100	544	-9.8	-15.8	28	11	
2025-07-26T12:00	5120	542	-9.9	-16.3	27	11	
2025-07-26T12:00	5140	541	-10.1	-16.6	26	11	
2025-07-26T12:00	5160	539	-10.2	-17.3	24	11	
2025-07-26T12:00	5180	538	-10.3	-17.4	23	11	
2025-07-26T12:00	5200	537	-10.4	-17.5	22	11	
2025-07-26T12:00	5220	535	-10.5	-17.7	22	11	
2025-07-26T12:00	5240	534	-10.6	-17.7	21	11	
2025-07-26T12:00	5260	533	-10.8	-17.2	21	11	
2025-07-26T12:00	5280	531	-11.0	-16.8	21	11	
2025-07-26T12:00	5300	530	-11.2	-16.2	20	11	
2025-07-26T12:00	5320	528	-11.4	-15.9	20	11	
2025-07-26T12:00	5340	527	-11.5	-16.0	18	11	
2025-07-26T12:00	5360	526	-11.7	-16.0	18	12	
2025-07-26T12:00	5380	525	-11.8	-16.3	17	12	
2025-07-26T12:00	5400	523	-12.0	-16.9	16	12	
2025-07-26T12:00	5420	522	-12.2	-17.0	16	12	
2025-07-26T12:00	5440	520	-12.4	-16.9	16	12	
2025-07-26T12:00	5460	519	-12.6	-16.7	16	12	
2025-07-26T12:00	5480	518	-12.7	-16.2	16	12	
2025-07-26T12:00	5500	516	-12.9	-16.5	16	12	
2025-07-26T12:00	5520	515	-13.0	-17.4	17	13	
2025-07-26T12:00	5540	514	-13.2	-17.7	18	13	
2025-07-26T12:00	5560	512	-13.3	-18.2	20	13	
2025-07-26T12:00	5580	511	-13.4	-17.8	21	13	
2025-07-26T12:00	5600	509	-13.5	-17.2	24	13	
2025-07-26T12:00	5620	508	-13.7	-17.1	25	13	
2025-07-26T12:00	5640	507	-13.9	-17.1	27	13	
2025-07-26T12:00	5660	505	-14.1	-17.1	28	13	
2025-07-26T12:00	5680	504	-14.2	-17.1	29	14	
2025-07-26T12:00	5700	503	-14.4	-17.2	30	14	
2025-07-26T12:00	5720	501	-14.5	-17.2	31	14	
2025-07-26T12:00	5740	500	-14.7	-17.7	31	14	
2025-07-26T12:00	5760	499	-14.9	-17.9	31	14	
2025-07-26T12:00	5780	497	-15.1	-17.9	30	14	
2025-07-26T12:00	5800	496	-15.2	-17.8	29	14	
2025-07-26T12:00	5820	495	-15.4	-17.9	28	14	
2025-07-26T12:00	5840	494	-15.6	-18.6	27	14	
2025-07-26T12:00	5860	492	-15.7	-23.2	26	14	
2025-07-26T12:00	5880	491	-15.8	-22.9	26	14	
2025-07-26T12:00	5900	490	-16.0	-18.9	25	14	
2025-07-26T12:00	5920	488	-16.2	-18.5	25	13	
2025-07-26T12:00	5940	487	-16.3	-18.9	25	13	
2025-07-26T12:00	5960	486	-16.4	-20.8	25	13	
2025-07-26T12:00	5980	484	-16.5	-22.7	26	13	
2025-07-26T12:00	6000	483	-16.6	-22.4	26	14	
2025-07-26T12:00	6020	482	-16.8	-22.2	26	14	
2025-07-26T12:00	6040	480	-17.0	-22.4	25	14	
2025-07-26T12:00	6060	479	-17.1	-23.4	25	14	
2025-07-26T12:00	6080	478	-17.2	-24.2	25	14	
2025-07-26T12:00	6100	477	-17.3	-24.1	24	14	
2025-07-26T12:00	6120	476	-17.4	-23.2	24	14	
2025-07-26T12:00	6140	474	-17.6	-23.4	23	14	
2025-07-26T12:00	6160	473	-17.7	-24.5	23	14	
2025-07-26T12:00	6180	472	-17.8	-25.5	23	14	
2025-07-26T12:00	6200	470	-17.9	-26.5	23	14	
2025-07-26T12:00	6220	469	-18.0	-25.9	23	14	
2025-07-26T12:00	6240	468	-18.2	-27.4	23	14	
2025-07-26T12:00	6260	467	-18.2	-32.1	23	14	
2025-07-26T12:00	6280	465	-18.1	-36.4	24	13	
2025-07-26T12:00	6300	464	-18.1	-38.2	25	13	
2025-07-26T12:00	6320	463	-18.2	-40.0	26	13	
2025-07-26T12:00	6340	462	-18.3	-41.0	27	12	
2025-07-26T12:00	6360	460	-18.4	-41.5	27	12	
2025-07-26T12:00	6380	459	-18.6	-41.7	28	12	
2025-07-26T12:00	6400	458	-18.8	-42.2	28	11	
2025-07-26T12:00	6420	457	-18.9	-42.9	27	11	
2025-07-26T12:00	6440	456	-19.0	-43.3	26	11	
2025-07-26T12:00	6460	454	-19.2	-43.2	25	11	
2025-07-26T12:00	6480	453	-19.3	-43.3	24	11	
2025-07-26T12:00	6500	452	-19.5	-43.3	23	11	
2025-07-26T12:00	6520	451	-19.7	-43.1	23	11	
2025-07-26T12:00	6540	450	-19.8	-43.1	23	11	
2025-07-26T12:00	6560	448	-20.0	-43.0	24	11	
2025-07-26T12:00	6580	447	-20.2	-42.8	24	11	
2025-07-26T12:00	6600	446	-20.3	-42.7	25	12	
2025-07-26T12:00	6620	445	-20.5	-42.6	25	12	
2025-07-26T12:00	6640	443	-20.7	-42.5	25	12	
2025-07-26T12:00	6660	442	-20.9	-42.1	25	13	
2025-07-26T12:00	6680	441	-21.1	-41.7	24	13	
2025-07-26T12:00	6700	440	-21.2	-41.0	24	13	
2025-07-26T12:00	6720	439	-21.3	-40.7	23	13	
2025-07-26T12:00	6740	437	-21.5	-40.3	23	14	
2025-07-26T12:00	6760	436	-21.7	-40.3	23	14	
2025-07-26T12:00	6780	435	-21.8	-40.3	23	14	
2025-07-26T12:00	6800	434	-22.0	-40.3	24	14	
2025-07-26T12:00	6820	433	-22.2	-40.3	25	15	
2025-07-26T12:00	6840	431	-22.4	-40.4	25	15	
2025-07-26T12:00	6860	430	-22.6	-40.5	25	15	
2025-07-26T12:00	6880	429	-22.7	-40.6	25	15	
2025-07-26T12:00	6900	428	-22.9	-41.0	25	15	
2025-07-26T12:00	6920	427	-23.0	-41.7	24	15	
2025-07-26T12:00	6940	426	-23.0	-42.0	22	15	
2025-07-26T12:00	6960	425	-23.2	-41.9	21	15	
2025-07-26T12:00	6980	423	-23.3	-41.3	20	15	
2025-07-26T12:00	7000	422	-23.4	-40.1	19	16	
2025-07-26T12:00	7020	421	-23.5	-39.0	19	16	
2025-07-26T12:00	7040	420	-23.7	-36.6	19	16	
2025-07-26T12:00	7060	419	-23.9	-35.4	19	16	
2025-07-26T12:00	7080	418	-24.1	-35.0	18	16	
2025-07-26T12:00	7100	416	-24.2	-33.3	18	16	
2025-07-26T12:00	7120	415	-24.4	-32.2	18	16	
2025-07-26T12:00	7140	414	-24.5	-32.4	18	15	
2025-07-26T12:00	7160	413	-24.7	-32.5	18	15	
2025-07-26T12:00	7180	412	-24.9	-32.9	18	16	
2025-07-26T12:00	7200	411	-25.0	-33.7	18	16	
2025-07-26T12:00	7220	410	-25.2	-35.5	18	16	
2025-07-26T12:00	7240	409	-25.3	-37.1	17	15	
2025-07-26T12:00	7260	407	-25.5	-37.4	17	15	
2025-07-26T12:00	7280	406	-25.7	-39.3	17	15	
2025-07-26T12:00	7300	405	-25.8	-39.3	17	15	
2025-07-26T12:00	7320	404	-26.0	-39.3	17	15	
2025-07-26T12:00	7340	403	-26.2	-39.5	17	15	
2025-07-26T12:00	7360	402	-26.3	-40.0	18	15	
2025-07-26T12:00	7380	401	-26.5	-40.2	18	15	
2025-07-26T12:00	7400	400	-26.7	-40.4	19	15	
2025-07-26T12:00	7420	398	-26.8	-41.0	20	16	
2025-07-26T12:00	7440	397	-27.0	-41.0	21	16	
2025-07-26T12:00	7460	396	-27.1	-41.1	22	16	
2025-07-26T12:00	7480	395	-27.2	-40.6	22	16	
2025-07-26T12:00	7500	394	-27.3	-41.0	22	17	
2025-07-26T12:00	7520	393	-27.5	-40.9	21	17	
2025-07-26T12:00	7540	392	-27.7	-40.5	21	17	
2025-07-26T12:00	7560	391	-27.9	-40.6	20	16	
2025-07-26T12:00	7580	390	-28.0	-41.6	19	16	
2025-07-26T12:00	7600	389	-28.2	-41.6	19	16	
2025-07-26T12:00	7620	388	-28.3	-41.5	18	16	
2025-07-26T12:00	7640	387	-28.5	-41.5	17	16	
2025-07-26T12:00	7660	385	-28.7	-41.4	16	16	
2025-07-26T12:00	7680	384	-28.9	-40.9	15	16	
2025-07-26T12:00	7700	383	-29.1	-40.6	14	17	
2025-07-26T12:00	7720	382	-29.3	-40.6	13	17	
2025-07-26T12:00	7740	381	-29.5	-39.1	13	17	
2025-07-26T12:00	7760	380	-29.7	-38.4	12	18	
2025-07-26T12:00	7780	379	-29.7	-39.1	12	18	
2025-07-26T12:00	7800	378	-29.7	-39.3	12	18	
2025-07-26T12:00	7820	377	-29.6	-40.1	12	18	
2025-07-26T12:00	7840	376	-29.6	-40.2	13	18	
2025-07-26T12:00	7860	375	-29.7	-40.5	13	19	
2025-07-26T12:00	7880	374	-29.8	-40.7	13	19	
2025-07-26T12:00	7900	373	-30.0	-41.3	13	19	
2025-07-26T12:00	7920	372	-30.0	-42.2	13	19	
2025-07-26T12:00	7940	371	-30.1	-42.9	13	19	
2025-07-26T12:00	7960	370	-30.2	-43.3	13	19	
2025-07-26T12:00	7980	369	-30.2	-43.8	12	19	
2025-07-26T12:00	8000	367	-30.2	-44.7	12	19	
2025-07-26T12:00	8020	366	-30.2	-45.4	12	20	
2025-07-26T12:00	8040	365	-30.3	-45.4	12	20	
2025-07-26T12:00	8060	364	-30.4	-45.2	12	20	
2025-07-26T12:00	8080	363	-30.6	-44.5	12	20	
2025-07-26T12:00	8100	362	-30.7	-44.9	11	19	
2025-07-26T12:00	8120	361	-30.8	-45.6	11	19	
2025-07-26T12:00	8140	360	-30.9	-45.1	11	19	
2025-07-26T12:00	8160	359	-31.0	-44.6	11	18	
2025-07-26T12:00	8180	358	-31.2	-43.2	10	18	
2025-07-26T12:00	8200	357	-31.3	-40.1	10	17	
2025-07-26T12:00	8220	356	-31.5	-38.4	10	17	
2025-07-26T12:00	8240	355	-31.5	-39.7	10	17	
2025-07-26T12:00	8260	354	-31.5	-40.2	10	17	
2025-07-26T12:00	8280	353	-31.7	-36.0	11	17	
2025-07-26T12:00	8300	352	-31.9	-35.3	11	17	
2025-07-26T12:00	8320	351	-32.0	-36.4	11	17	
2025-07-26T12:00	8340	350	-32.2	-37.3	11	17	
2025-07-26T12:00	8360	349	-32.3	-38.3	11	18	
2025-07-26T12:00	8380	348	-32.4	-39.4	11	18	
2025-07-26T12:00	8400	347	-32.5	-41.7	11	18	
2025-07-26T12:00	8420	346	-32.6	-42.6	11	18	
2025-07-26T12:00	8440	345	-32.7	-41.2	11	18	
2025-07-26T12:00	8460	344	-32.9	-40.7	11	18	
2025-07-26T12:00	8480	343	-33.2	-40.9	11	18	
2025-07-26T12:00	8500	342	-33.3	-41.1	11	18	
2025-07-26T12:00	8520	341	-33.5	-41.2	11	19	
2025-07-26T12:00	8540	340	-33.7	-41.5	11	19	
2025-07-26T12:00	8560	339	-33.9	-41.8	11	19	
2025-07-26T12:00	8580	338	-34.1	-41.9	12	19	
2025-07-26T12:00	8600	338	-34.2	-41.9	12	19	
2025-07-26T12:00	8620	337	-34.4	-42.0	12	19	
2025-07-26T12:00	8640	336	-34.6	-42.1	12	19	
2025-07-26T12:00	8660	335	-34.8	-42.2	12	19	
2025-07-26T12:00	8680	334	-35.0	-42.3	12	19	
2025-07-26T12:00	8700	333	-35.2	-42.6	12	19	
2025-07-26T12:00	8720	332	-35.4	-42.8	12	19	
2025-07-26T12:00	8740	331	-35.6	-42.9	12	19	
2025-07-26T12:00	8760	330	-35.7	-43.3	11	19	
2025-07-26T12:00	8780	329	-35.9	-43.6	11	19	
2025-07-26T12:00	8800	328	-36.0	-43.9	10	19	
2025-07-26T12:00	8820	327	-36.2	-44.2	9	19	
2025-07-26T12:00	8840	326	-36.4	-45.1	9	19	
2025-07-26T12:00	8860	325	-36.5	-46.6	9	19	
2025-07-26T12:00	8880	324	-36.6	-47.3	9	20	
2025-07-26T12:00	8900	323	-36.8	-47.0	8	20	
2025-07-26T12:00	8920	322	-37.0	-46.7	8	20	
2025-07-26T12:00	8940	321	-37.1	-46.7	8	20	
2025-07-26T12:00	8960	321	-37.3	-46.5	8	20	
2025-07-26T12:00	8980	320	-37.5	-46.8	8	20	
2025-07-26T12:00	9000	319	-37.7	-46.8	8	20	
2025-07-26T12:00	9020	318	-37.9	-47.1	7	20	
2025-07-26T12:00	9040	317	-38.0	-47.2	6	20	
2025-07-26T12:00	9060	316	-38.2	-47.2	5	20	
2025-07-26T12:00	9080	315	-38.4	-47.2	4	20	
2025-07-26T12:00	9100	314	-38.6	-47.1	4	20	
2025-07-26T12:00	9120	313	-38.8	-47.1	4	21	
2025-07-26T12:00	9140	312	-38.9	-47.7	4	21	
2025-07-26T12:00	9160	311	-39.1	-48.7	5	22	
2025-07-26T12:00	9180	310	-39.1	-50.0	7	22	
2025-07-26T12:00	9200	309	-39.2	-50.8	7	23	
2025-07-26T12:00	9220	309	-39.2	-51.8	8	23	
2025-07-26T12:00	9240	308	-39.3	-52.4	8	23	
2025-07-26T12:00	9260	307	-39.4	-52.3	8	24	
2025-07-26T12:00	9280	306	-39.6	-52.2	8	24	
2025-07-26T12:00	9300	305	-39.7	-53.4	7	24	
2025-07-26T12:00	9320	304	-39.8	-54.1	6	24	
2025-07-26T12:00	9340	303	-39.9	-54.1	5	24	
2025-07-26T12:00	9360	302	-40.1	-53.9	4	24	
2025-07-26T12:00	9380	301	-40.2	-55.1	3	25	
2025-07-26T12:00	9400	301	-40.1	-58.3	3	25	
2025-07-26T12:00	9420	300	-40.1	-59.8	2	25	
2025-07-26T12:00	9440	299	-40.0	-59.7	2	25	
2025-07-26T12:00	9460	298	-40.1	-59.6	2	25	
2025-07-26T12:00	9480	297	-40.3	-59.6	2	25	
2025-07-26T12:00	9500	296	-40.3	-60.3	2	25	
2025-07-26T12:00	9520	295	-40.3	-60.8	2	25	
2025-07-26T12:00	9540	294	-40.4	-60.9	3	25	
2025-07-26T12:00	9560	294	-40.5	-60.8	3	25	
2025-07-26T12:00	9580	293	-40.6	-61.0	3	25	
2025-07-26T12:00	9600	292	-40.6	-61.3	3	25	
2025-07-26T12:00	9620	291	-40.7	-61.4	3	25	
2025-07-26T12:00	9640	290	-40.6	-61.7	3	25	
2025-07-26T12:00	9660	289	-40.6	-61.8	2	26	
2025-07-26T12:00	9680	289	-40.7	-61.6	2	26	
2025-07-26T12:00	9700	288	-40.8	-61.7	1	26	
2025-07-26T12:00	9720	287	-41.0	-61.7	1	26	
2025-07-26T12:00	9740	286	-41.1	-61.6	0	26	
2025-07-26T12:00	9760	285	-41.2	-61.7	360	27	
2025-07-26T12:00	9780	284	-41.3	-61.8	360	27	
2025-07-26T12:00	9800	283	-41.4	-61.8	359	28	
2025-07-26T12:00	9820	283	-41.4	-62.0	359	28	
2025-07-26T12:00	9840	282	-41.5	-62.0	359	29	
2025-07-26T12:00	9860	281	-41.6	-61.8	359	29	
2025-07-26T12:00	9880	280	-41.5	-61.7	359	30	
2025-07-26T12:00	9900	279	-41.6	-61.8	359	30	
2025-07-26T12:00	9920	278	-41.6	-61.9	359	30	
2025-07-26T12:00	9940	278	-41.7	-61.7	359	30	
2025-07-26T12:00	9960	277	-41.8	-61.4	359	30	
2025-07-26T12:00	9980	276	-41.9	-61.4	360	30	
2025-07-26T12:00	10000	275	-42.1	-61.5	0	30	
2025-07-26T12:00	10018	274	-42.2	-61.5	1	30	
2025-07-26T12:00	10050	273	-42.4	-61.4	1	29	
2025-07-26T12:00	10100	271	-42.5	-61.9	2	29	
2025-07-26T12:00	10150	269	-42.6	-62.8	3	28	
2025-07-26T12:00	10200	267	-42.6	-63.2	3	28	
2025-07-26T12:00	10250	265	-42.9	-63.2	3	29	
2025-07-26T12:00	10300	263	-43.1	-63.3	3	29	
2025-07-26T12:00	10350	261	-42.6	-64.6	4	29	
2025-07-26T12:00	10400	259	-41.6	-66.3	5	29	
2025-07-26T12:00	10450	257	-41.5	-66.4	5	29	
2025-07-26T12:00	10500	256	-41.7	-67.1	4	29	
2025-07-26T12:00	10550	254	-41.7	-67.6	4	29	
2025-07-26T12:00	10600	252	-41.7	-68.0	3	29	
2025-07-26T12:00	10650	250	-41.9	-68.3	3	28	
2025-07-26T12:00	10700	248	-42.1	-68.5	3	28	
2025-07-26T12:00	10750	246	-42.4	-68.8	2	29	
2025-07-26T12:00	10800	244	-42.5	-69.9	1	29	
2025-07-26T12:00	10850	243	-42.0	-72.0	359	29	
2025-07-26T12:00	10900	241	-42.3	-71.9	359	28	
2025-07-26T12:00	10950	239	-42.5	-71.9	360	28	
2025-07-26T12:00	11000	237	-42.7	-72.1	360	28	
2025-07-26T12:00	11050	236	-43.0	-72.5	360	28	
2025-07-26T12:00	11100	234	-42.8	-72.8	1	28	
2025-07-26T12:00	11150	232	-42.8	-72.7	2	28	
2025-07-26T12:00	11200	230	-42.8	-72.1	4	28	
2025-07-26T12:00	11250	229	-43.0	-70.9	6	28	
2025-07-26T12:00	11300	227	-43.4	-70.7	7	27	
2025-07-26T12:00	11350	225	-43.7	-71.0	7	26	
2025-07-26T12:00	11400	224	-43.6	-72.4	6	25	
2025-07-26T12:00	11450	222	-43.5	-74.3	3	25	
2025-07-26T12:00	11500	220	-43.3	-75.1	0	25	
2025-07-26T12:00	11550	219	-43.3	-74.3	358	26	
2025-07-26T12:00	11600	217	-43.4	-73.6	356	27	
2025-07-26T12:00	11650	215	-43.8	-73.2	355	27	
2025-07-26T12:00	11700	214	-43.7	-72.7	355	27	
2025-07-26T12:00	11750	212	-44.1	-73.1	356	27	
2025-07-26T12:00	11800	211	-44.6	-73.5	357	26	
2025-07-26T12:00	11850	209	-44.9	-74.3	357	25	
2025-07-26T12:00	11900	208	-45.0	-75.3	357	25	
2025-07-26T12:00	11950	206	-45.3	-75.6	358	25	
2025-07-26T12:00	12000	204	-45.7	-75.4	359	25	
2025-07-26T12:00	12050	203	-46.1	-75.1	359	25	
2025-07-26T12:00	12100	201	-46.5	-74.4	0	25	
2025-07-26T12:00	12150	200	-46.9	-74.0	1	26	
2025-07-26T12:00	12200	198	-47.3	-74.0	2	26	
2025-07-26T12:00	12250	197	-47.7	-74.1	1	25	
2025-07-26T12:00	12300	195	-48.1	-74.3	1	25	
2025-07-26T12:00	12350	194	-48.4	-75.1	1	25	
2025-07-26T12:00	12400	193	-48.6	-75.6	2	25	
2025-07-26T12:00	12450	191	-48.3	-75.8	3	24	
2025-07-26T12:00	12500	190	-47.5	-77.3	6	24	
2025-07-26T12:00	12550	188	-46.8	-78.1	8	23	
2025-07-26T12:00	12600	187	-47.1	-77.9	10	22	
2025-07-26T12:00	12650	185	-47.4	-78.0	11	21	
2025-07-26T12:00	12700	184	-47.7	-78.4	11	20	
2025-07-26T12:00	12750	183	-47.9	-78.9	11	19	
2025-07-26T12:00	12800	181	-48.2	-79.2	12	18	
2025-07-26T12:00	12850	180	-48.5	-79.3	13	17	
2025-07-26T12:00	12900	178	-48.6	-79.5	11	17	
2025-07-26T12:00	12950	177	-48.7	-79.6	7	16	
2025-07-26T12:00	13000	176	-48.7	-79.6	2	15	
2025-07-26T12:00	13050	174	-48.6	-79.5	356	14	
2025-07-26T12:00	13100	173	-48.1	-79.7	352	14	
2025-07-26T12:00	13150	172	-48.0	-79.9	351	14	
2025-07-26T12:00	13200	170	-47.9	-79.9	353	13	
2025-07-26T12:00	13250	169	-48.1	-79.9	357	13	
2025-07-26T12:00	13300	168	-48.3	-80.0	358	12	
2025-07-26T12:00	13350	167	-48.4	-80.1	355	11	
2025-07-26T12:00	13400	165	-48.3	-80.2	353	10	
2025-07-26T12:00	13450	164	-48.4	-80.1	353	10	
2025-07-26T12:00	13500	163	-48.6	-80.3	354	10	
2025-07-26T12:00	13550	162	-49.1	-80.4	354	10	
2025-07-26T12:00	13600	160	-49.3	-80.4	354	10	
2025-07-26T12:00	13650	159	-49.7	-80.6	353	10	
2025-07-26T12:00	13700	158	-49.9	-80.8	352	9	
2025-07-26T12:00	13750	157	-50.1	-80.8	350	9	
2025-07-26T12:00	13800	156	-50.5	-81.0	346	9	
2025-07-26T12:00	13850	154	-50.9	-81.0	340	9	
2025-07-26T12:00	13900	153	-50.9	-81.1	337	9	
2025-07-26T12:00	13950	152	-51.0	-81.2	339	9	
2025-07-26T12:00	14000	151	-50.9	-81.3	345	8	
2025-07-26T12:00	14050	150	-50.5	-81.2	347	7	
2025-07-26T12:00	14100	149	-50.7	-81.3	345	7	
2025-07-26T12:00	14150	147	-50.9	-81.5	342	7	
2025-07-26T12:00	14200	146	-50.7	-81.6	343	7	
2025-07-26T12:00	14250	145	-50.5	-81.6	345	6	
2025-07-26T12:00	14300	144	-50.4	-81.6	345	6	
2025-07-26T12:00	14350	143	-50.4	-81.7	341	6	
2025-07-26T12:00	14400	142	-50.5	-81.6	336	6	
2025-07-26T12:00	14450	141	-50.8	-81.7	332	6	
2025-07-26T12:00	14500	140	-50.8	-81.7	328	6	
2025-07-26T12:00	14550	139	-50.7	-81.8	320	6	
2025-07-26T12:00	14600	138	-50.8	-81.8	311	5	
2025-07-26T12:00	14650	136	-51.1	-81.8	308	5	
2025-07-26T12:00	14700	135	-51.4	-82.0	307	5	
2025-07-26T12:00	14750	134	-51.5	-82.1	304	5	
2025-07-26T12:00	14800	133	-51.6	-82.1	303	5	
2025-07-26T12:00	14850	132	-51.7	-82.2	306	5	
2025-07-26T12:00	14900	131	-51.9	-82.3	310	4	
2025-07-26T12:00	14950	130	-52.2	-82.4	317	3	
2025-07-26T12:00	15000	129	-52.5	-82.5	323	3	
2025-07-26T12:00	15050	128	-52.4	-82.6	322	5	
2025-07-26T12:00	15100	127	-52.4	-82.6	322	5	
2025-07-26T12:00	15150	126	-52.3	-82.7	328	5	
2025-07-26T12:00	15200	125	-51.5	-82.6	343	3	
2025-07-26T12:00	15250	124	-51.6	-82.5	4	1	
2025-07-26T12:00	15300	123	-51.8	-82.4	44	0	
2025-07-26T12:00	15350	123	-51.9	-82.3	137	0	
2025-07-26T12:00	15400	122	-52.3	-82.4	157	1	
2025-07-26T12:00	15450	121	-52.7	-82.5	168	1	
2025-07-26T12:00	15500	120	-53.1	-82.6	186	2	
2025-07-26T12:00	15550	119	-53.6	-82.8	203	2	
2025-07-26T12:00	15600	118	-54.0	-82.9	214	3	
2025-07-26T12:00	15650	117	-54.4	-83.0	222	3	
2025-07-26T12:00	15700	116	-54.8	-83.2	228	4	
2025-07-26T12:00	15750	115	-55.2	-83.3	228	4	
2025-07-26T12:00	15800	114	-55.5	-83.5	226	5	
2025-07-26T12:00	15850	113	-55.7	-83.7	230	6	
2025-07-26T12:00	15900	112	-55.9	-84.0	240	7	
2025-07-26T12:00	15950	112	-55.4	-84.0	250	7	
2025-07-26T12:00	16000	111	-55.2	-84.1	258	6	
2025-07-26T12:00	16050	110	-55.0	-84.1	265	6	
2025-07-26T12:00	16100	109	-54.8	-84.1	270	5	
2025-07-26T12:00	16150	108	-54.7	-84.0	275	5	
2025-07-26T12:00	16200	107	-54.8	-84.0	277	4	
2025-07-26T12:00	16250	106	-54.7	-84.0	278	3	
2025-07-26T12:00	16300	106	-54.6	-84.0	283	2	
2025-07-26T12:00	16350	105	-54.9	-84.0	279	2	
2025-07-26T12:00	16400	104	-55.2	-84.1	251	2	
2025-07-26T12:00	16450	103	-55.3	-84.2	237	3	
2025-07-26T12:00	16500	102	-55.1	-84.2	241	5	
2025-07-26T12:00	16550	102	-55.2	-84.4	251	5	
2025-07-26T12:00	16600	101	-55.0	-84.4	260	4	
2025-07-26T12:00	16650	100	-54.6	-84.4	260	3	
2025-07-26T12:00	16700	99	-54.1	-84.3	237	2	
2025-07-26T12:00	16750	98	-54.0	-84.2	200	2	
2025-07-26T12:00	16800	98	-54.2	-84.1	182	2	
2025-07-26T12:00	16850	97	-54.6	-84.1	170	3	
2025-07-26T12:00	16900	96	-55.0	-84.2	168	4	
2025-07-26T12:00	16950	95	-55.3	-84.4	179	3	
2025-07-26T12:00	17000	95	-55.3	-84.4	205	3	
2025-07-26T12:00	17050	94	-55.5	-84.5	229	3	
2025-07-26T12:00	17100	93	-55.5	-84.5	236	4	
2025-07-26T12:00	17150	92	-55.7	-84.6	232	4	
2025-07-26T12:00	17200	92	-56.0	-84.7	226	4	
2025-07-26T12:00	17250	91	-56.3	-84.7	220	5	
2025-07-26T12:00	17300	90	-56.5	-84.8	217	4	
2025-07-26T12:00	17350	90	-56.9	-85.0	216	5	
2025-07-26T12:00	17400	89	-57.0	-85.2	216	5	
2025-07-26T12:00	17450	88	-56.7	-85.1	218	7	
2025-07-26T12:00	17500	88	-56.8	-85.2	224	8	
2025-07-26T12:00	17550	87	-56.9	-85.2	231	8	
2025-07-26T12:00	17600	86	-56.9	-85.4	239	8	
2025-07-26T12:00	17650	85	-56.4	-85.3	250	8	
2025-07-26T12:00	17700	85	-56.1	-85.3	263	7	
2025-07-26T12:00	17750	84	-55.8	-85.2	276	7	
2025-07-26T12:00	17800	83	-55.7	-85.1	285	6	
2025-07-26T12:00	17850	83	-55.6	-85.0	293	5	
2025-07-26T12:00	17900	82	-55.6	-85.0	307	4	
2025-07-26T12:00	17950	82	-55.4	-85.1	335	2	
2025-07-26T12:00	18000	81	-55.2	-85.0	23	2	
2025-07-26T12:00	18050	80	-55.1	-85.0	70	2	
2025-07-26T12:00	18100	80	-55.0	-84.9	104	3	
2025-07-26T12:00	18150	79	-55.1	-84.9	124	4	
2025-07-26T12:00	18200	78	-55.0	-84.9	138	5	
2025-07-26T12:00	18250	78	-54.8	-84.8	147	6	
2025-07-26T12:00	18300	77	-54.9	-84.8	152	6	
2025-07-26T12:00	18350	77	-55.3	-84.9	159	6	
2025-07-26T12:00	18400	76	-55.5	-84.9	170	5	
2025-07-26T12:00	18450	75	-55.7	-85.0	182	5	
2025-07-26T12:00	18500	75	-55.8	-85.1	192	4	
2025-07-26T12:00	18550	74	-55.5	-85.1	197	4	
2025-07-26T12:00	18600	74	-55.4	-85.0	194	5	
2025-07-26T12:00	18650	73	-55.8	-85.0	187	6	
2025-07-26T12:00	18700	72	-56.3	-85.1	182	6	
2025-07-26T12:00	18750	72	-56.9	-85.2	183	7	
2025-07-26T12:00	18800	71	-57.3	-85.5	190	7	
2025-07-26T12:00	18850	71	-57.3	-85.7	197	7	
2025-07-26T12:00	18900	70	-56.7	-85.7	204	6	
2025-07-26T12:00	18950	70	-56.3	-85.7	211	4	
2025-07-26T12:00	19000	69	-56.2	-85.7	217	2	
2025-07-26T12:00	19050	69	-56.1	-85.6	216	1	
2025-07-26T12:00	19100	68	-56.2	-85.6	56	0	
2025-07-26T12:00	19150	68	-55.9	-85.5	54	1	
2025-07-26T12:00	19200	67	-55.6	-85.5	65	2	
2025-07-26T12:00	19250	66	-55.3	-85.3	77	3	
2025-07-26T12:00	19300	66	-55.5	-85.2	90	3	
2025-07-26T12:00	19350	65	-55.8	-85.2	104	2	
2025-07-26T12:00	19400	65	-56.0	-85.2	123	2	
2025-07-26T12:00	19450	64	-56.3	-85.4	148	1	
2025-07-26T12:00	19500	64	-56.4	-85.5	157	1	
2025-07-26T12:00	19550	63	-56.3	-85.6	143	2	
2025-07-26T12:00	19600	63	-56.0	-85.5	134	3	
2025-07-26T12:00	19650	62	-56.1	-85.5	126	4	
2025-07-26T12:00	19700	62	-56.2	-85.6	115	4	
2025-07-26T12:00	19750	61	-56.1	-85.5	106	4	
2025-07-26T12:00	19800	61	-56.1	-85.5	102	4	
2025-07-26T12:00	19850	60	-56.4	-85.5	102	4	
2025-07-26T12:00	19900	60	-56.6	-85.6	104	5	
2025-07-26T12:00	19950	60	-56.6	-85.7	108	5	
2025-07-26T12:00	20000	59	-56.5	-85.7	112	6	
2025-07-26T12:00	20050	59	-56.5		114	8	
2025-07-26T12:00	20100	58	-56.6		118	8	
2025-07-26T12:00	20150	58	-56.3		122	8	
2025-07-26T12:00	20200	57	-55.7		122	6	
2025-07-26T12:00	20250	57	-55.8		117	5	
2025-07-26T12:00	20300	56	-56.1		107	4	
2025-07-26T12:00	20350	56	-56.1		98	4	
2025-07-26T12:00	20400	55	-55.9		96	6	
2025-07-26T12:00	20450	55	-55.9		99	7	
2025-07-26T12:00	20500	55	-56.0		106	8	
2025-07-26T12:00	20550	54	-56.0		115	9	
2025-07-26T12:00	20600	54	-55.7		123	9	
2025-07-26T12:00	20650	53	-55.8		128	9	
2025-07-26T12:00	20700	53	-55.8		132	9	
2025-07-26T12:00	20750	52	-55.8		137	7	
2025-07-26T12:00	20800	52	-55.5		144	5	
2025-07-26T12:00	20850	52	-55.1		152	3	
2025-07-26T12:00	20900	51	-55.2		157	1	
2025-07-26T12:00	20950	51	-55.2		13	1	
2025-07-26T12:00	21000	50	-54.9		18	2	
2025-07-26T12:00	21050	50	-54.4		36	3	
2025-07-26T12:00	21100	50	-54.3		54	4	
2025-07-26T12:00	21150	49	-54.2		71	5	
2025-07-26T12:00	21200	49	-54.2		86	6	
2025-07-26T12:00	21250	49	-54.2		101	6	
2025-07-26T12:00	21300	48	-54.2		116	7	
2025-07-26T12:00	21350	48	-53.9		125	7	
2025-07-26T12:00	21400	47	-53.9		131	6	
2025-07-26T12:00	21450	47	-53.9		135	5	
2025-07-26T12:00	21500	47	-53.9		136	4	
2025-07-26T12:00	21550	46	-54.1		128	4	
2025-07-26T12:00	21600	46	-54.2		110	4	
2025-07-26T12:00	21650	46	-54.2		99	4	
2025-07-26T12:00	21700	45	-54.4		101	5	
2025-07-26T12:00	21750	45	-54.6		111	6	
2025-07-26T12:00	21800	45	-54.7		121	7	
2025-07-26T12:00	21850	44	-54.7		129	7	
2025-07-26T12:00	21900	44	-54.7		135	7	
2025-07-26T12:00	21950	44	-54.8		136	6	
2025-07-26T12:00	22000	43	-54.9		129	6	
2025-07-26T12:00	22050	43	-54.9		119	6	
2025-07-26T12:00	22100	43	-54.8		115	6	
2025-07-26T12:00	22150	42	-54.7		119	7	
2025-07-26T12:00	22200	42	-54.6		127	8	
2025-07-26T12:00	22250	42	-54.8		135	9	
2025-07-26T12:00	22300	41	-55.0		142	9	
2025-07-26T12:00	22350	41	-55.2		149	8	
2025-07-26T12:00	22400	41	-55.1		156	6	
2025-07-26T12:00	22450	40	-54.6		159	4	
2025-07-26T12:00	22500	40	-54.0		152	2	
2025-07-26T12:00	22550	40	-53.4		134	2	
2025-07-26T12:00	22600	39	-53.4		120	2	
2025-07-26T12:00	22650	39	-53.5		104	2	
2025-07-26T12:00	22700	39	-53.5		90	3	
2025-07-26T12:00	22750	38	-53.6		81	3	
2025-07-26T12:00	22800	38	-53.7		72	3	
2025-07-26T12:00	22850	38	-53.7		68	4	
2025-07-26T12:00	22900	38	-53.6		76	4	
2025-07-26T12:00	22950	37	-53.5		89	4	
2025-07-26T12:00	23000	37	-53.6		96	5	
2025-07-26T12:00	23050	37	-53.8		99	6	
2025-07-26T12:00	23100	36	-53.9		102	6	
2025-07-26T12:00	23150	36	-53.9		104	7	
2025-07-26T12:00	23200	36	-53.8		103	7	
2025-07-26T12:00	23250	36	-53.7		103	6	
2025-07-26T12:00	23300	35	-53.6		105	6	
2025-07-26T12:00	23350	35	-53.7		104	5	
2025-07-26T12:00	23400	35	-53.9		91	4	
2025-07-26T12:00	23450	34	-53.9		70	4	
2025-07-26T12:00	23500	34	-53.9		60	5	
2025-07-26T12:00	23550	34	-53.8		63	6	
2025-07-26T12:00	23600	34	-53.8		71	7	
2025-07-26T12:00	23650	33	-53.9		79	8	
2025-07-26T12:00	23700	33	-54.1		84	10	
2025-07-26T12:00	23750	33	-54.2		88	11	
2025-07-26T12:00	23800	33	-54.2		93	11	
2025-07-26T12:00	23850	32	-54.2		103	11	
2025-07-26T12:00	23900	32	-53.4		113	10	
2025-07-26T12:00	23950	32	-52.8		123	9	
2025-07-26T12:00	24000	32	-52.6		129	8	
2025-07-26T12:00	24050	31	-52.1		133	7	
2025-07-26T12:00	24100	31	-51.7		135	5	
2025-07-26T12:00	24150	31	-51.5		133	4	
2025-07-26T12:00	24200	31	-51.2		116	2	
2025-07-26T12:00	24250	30	-50.9		78	3	
2025-07-26T12:00	24300	30	-50.5		63	4	
2025-07-26T12:00	24350	30	-50.6		59	6	
2025-07-26T12:00	24400	30	-50.7		58	8	
2025-07-26T12:00	24450	30	-50.7		61	10	
2025-07-26T12:00	24500	29	-50.5		66	12	
2025-07-26T12:00	24550	29	-50.4		70	13	
2025-07-26T12:00	24600	29	-50.6		74	14	
2025-07-26T12:00	24650	29	-50.8		78	14	
2025-07-26T12:00	24700	28	-51.1		81	14	
2025-07-26T12:00	24750	28	-51.2		85	13	
2025-07-26T12:00	24800	28	-51.2		87	13	
2025-07-26T12:00	24850	28	-51.5		87	12	
2025-07-26T12:00	24900	28	-51.6		86	11	
2025-07-26T12:00	24950	27	-51.7		85	10	
2025-07-26T12:00	25000	27	-51.9		84	10	
2025-07-26T12:00	25050	27	-52.0		86	10	
2025-07-26T12:00	25100	27	-52.2		88	11	
2025-07-26T12:00	25150	26	-52.4		91	11	
2025-07-26T12:00	25200	26	-52.5		92	11	
2025-07-26T12:00	25250	26	-52.4		95	12	
2025-07-26T12:00	25300	26	-52.4		97	12	
2025-07-26T12:00	25350	26	-52.1		99	12	
2025-07-26T12:00	25400	25	-51.8		101	11	
2025-07-26T12:00	25450	25	-51.7		104	11	
2025-07-26T12:00	25500	25	-51.6		106	11	
2025-07-26T12:00	25550	25	-51.4		106	12	
2025-07-26T12:00	25600	25	-51.0		108	14	
2025-07-26T12:00	25650	25	-50.9		112	15	
2025-07-26T12:00	25700	24	-51.0		116	16	
2025-07-26T12:00	25750	24	-50.9		121	16	
2025-07-26T12:00	25800	24	-50.6		127	15	
2025-07-26T12:00	25850	24	-50.5		132	14	
2025-07-26T12:00	25900	24	-50.7		136	12	
2025-07-26T12:00	25950	23	-50.7		138	11	
2025-07-26T12:00	26000	23	-50.4		136	9	
2025-07-26T12:00	26050	23	-50.1		131	8	
2025-07-26T12:00	26100	23	-49.7		124	7	
2025-07-26T12:00	26150	23	-49.4		117	6	
2025-07-26T12:00	26200	23	-49.5		108	5	
2025-07-26T12:00	26250	22	-49.7		98	5	
2025-07-26T12:00	26300	22	-49.9		91	5	
2025-07-26T12:00	26350	22	-49.9		91	6	
2025-07-26T12:00	26400	22	-49.8		98	6	
2025-07-26T12:00	26450	22	-49.7		108	6	
2025-07-26T12:00	26500	22	-49.6		113	6	
2025-07-26T12:00	26550	21	-49.6		112	5	
2025-07-26T12:00	26600	21	-49.5		103	5	
2025-07-26T12:00	26650	21	-49.3		89	5	
2025-07-26T12:00	26700	21	-49.3		77	6	
2025-07-26T12:00	26750	21	-49.1		72	6	
2025-07-26T12:00	26800	21	-49.0		74	8	
2025-07-26T12:00	26850	20	-49.1		78	9	
2025-07-26T12:00	26900	20	-49.1		84	10	
2025-07-26T12:00	26950	20	-49.0		91	11	
2025-07-26T12:00	27000	20	-48.8		97	11	
2025-07-26T12:00	27050	20	-48.6		98	10	
2025-07-26T12:00	27100	20	-48.2		95	9	
2025-07-26T12:00	27150	19	-48.0		90	9	
2025-07-26T12:00	27200	19	-47.8		86	9	
2025-07-26T12:00	27250	19	-47.5		86	11	
2025-07-26T12:00	27300	19	-47.0		89	12	
2025-07-26T12:00	27350	19	-46.6		93	13	
2025-07-26T12:00	27400	19	-46.5		95	12	
2025-07-26T12:00	27450	19	-46.5		96	12	
2025-07-26T12:00	27500	18	-46.3		97	12	
2025-07-26T12:00	27550	18	-46.1		96	13	
2025-07-26T12:00	27600	18	-45.8		96	13	
2025-07-26T12:00	27650	18	-45.6		97	13	
2025-07-26T12:00	27700	18	-45.6		97	13	
2025-07-26T12:00	27750	18	-45.8		96	13	
2025-07-26T12:00	27800	18	-46.0		97	13	
2025-07-26T12:00	27850	18	-46.0		99	14	
2025-07-26T12:00	27900	17	-46.1		101	14	
2025-07-26T12:00	27950	17	-46.1		104	15	
2025-07-26T12:00	28000	17	-46.2		106	15	
2025-07-26T12:00	28050	17	-46.4		109	15	
2025-07-26T12:00	28100	17	-46.6		110	14	
2025-07-26T12:00	28150	17	-46.8		110	13	
2025-07-26T12:00	28200	17	-46.7		109	11	
2025-07-26T12:00	28250	17	-46.7		106	9	
2025-07-26T12:00	28300	16	-46.7		102	8	
2025-07-26T12:00	28350	16	-46.7		95	8	
2025-07-26T12:00	28400	16	-46.6		90	9	
2025-07-26T12:00	28450	16	-46.3		86	10	
2025-07-26T12:00	28500	16	-46.0		84	11	
2025-07-26T12:00	28550	16	-45.8		85	12	
2025-07-26T12:00	28600	16	-45.8		89	13	
2025-07-26T12:00	28650	16	-45.6		96	13	
2025-07-26T12:00	28700	15	-45.6		103	14	
2025-07-26T12:00	28750	15	-45.5		108	14	
2025-07-26T12:00	28800	15	-45.6		110	13	
2025-07-26T12:00	28850	15	-45.5		111	12	
2025-07-26T12:00	28900	15	-45.4		110	11	
2025-07-26T12:00	28950	15	-45.4		108	11	
2025-07-26T12:00	29000	15	-45.4		106	11	
2025-07-26T12:00	29050	15	-45.3		103	10	
2025-07-26T12:00	29100	15	-45.3		101	10	
2025-07-26T12:00	29150	14	-45.3		99	10	
2025-07-26T12:00	29200	14	-45.1		101	9	
2025-07-26T12:00	29250	14	-44.9		104	9	
2025-07-26T12:00	29300	14	-44.8		105	9	
2025-07-26T12:00	29350	14	-44.7		103	9	
2025-07-26T12:00	29400	14	-44.6		99	9	
2025-07-26T12:00	29450	14	-44.5		96	9	
2025-07-26T12:00	29500	14	-44.6		95	10	
2025-07-26T12:00	29550	14	-44.6		99	10	
2025-07-26T12:00	29600	13	-44.6		101	11	
2025-07-26T12:00	29650	13	-44.5		99	10	
2025-07-26T12:00	29700	13	-44.3		93	10	
2025-07-26T12:00	29750	13	-43.9		92	11	
2025-07-26T12:00	29800	13	-43.4		97	11	
2025-07-26T12:00	29850	13	-42.9		101	12	
2025-07-26T12:00	29900	13	-42.3		100	11	
2025-07-26T12:00	29950	13	-41.8		95	11	
2025-07-26T12:00	30000	13	-41.5		91	11	
2025-07-26T12:00	30050	13	-41.4		89	11	
2025-07-26T12:00	30100	13	-41.3		91	12	
2025-07-26T12:00	30150	12	-41.1		92	12	
2025-07-26T12:00	30200	12	-41.0		93	13	
2025-07-26T12:00	30250	12	-40.9		91	13	
2025-07-26T12:00	30300	12	-41.0		87	13	
2025-07-26T12:00	30350	12	-41.1		83	14	
2025-07-26T12:00	30400	12	-41.1		80	15	
2025-07-26T12:00	30450	12	-41.2		80	16	
2025-07-26T12:00	30500	12	-41.2		80	16	
2025-07-26T12:00	30550	12	-41.2		81	17	
2025-07-26T12:00	30600	12	-41.3		83	17	
2025-07-26T12:00	30650	12	-41.3		87	17	
2025-07-26T12:00	30700	11	-41.4		90	16	
2025-07-26T12:00	30750	11	-41.4		92	16	
2025-07-26T12:00	30800	11	-41.4		94	16	
2025-07-26T12:00	30850	11	-41.2		94	15	
2025-07-26T12:00	30900	11	-40.8		95	15	
2025-07-26T12:00	30950	11	-40.5		95	14	
2025-07-26T12:00	31000	11	-40.5		94	14	
2025-07-26T12:00	31050	11	-40.5		92	15	
2025-07-26T12:00	31100	11	-40.4		91	15	
2025-07-26T12:00	31150	11	-40.1		91	15	
2025-07-26T12:00	31200	11	-39.8		92	15	
2025-07-26T12:00	31250	11	-39.6		95	14	
2025-07-26T12:00	31300	10	-39.5		98	14	
2025-07-26T12:00	31350	10	-39.4		100	14	
2025-07-26T12:00	31400	10	-39.3		102	13	
2025-07-26T12:00	31450	10	-39.3		101	13	
2025-07-26T12:00	31500	10	-39.2		98	14	
2025-07-26T12:00	31550	10	-39.1		93	15	
2025-07-26T12:00	31600	10	-39.0		91	16	
2025-07-26T12:00	31650	10	-38.8		90	17	
2025-07-26T12:00	31700	10	-38.8		91	17	
2025-07-26T12:00	31750	10	-38.9		94	17	
2025-07-26T12:00	31800	10	-38.9		97	17	
2025-07-26T12:00	31850	10	-38.9		98	16	
2025-07-26T12:00	31900	10	-38.8		98	14	
2025-07-26T12:00	31950	10	-38.6		97	13	
2025-07-26T12:00	32000	9	-38.4		92	12	
2025-07-26T12:00	32050	9	-38.2		86	12	
2025-07-26T12:00	32100	9	-37.9		83	13	
2025-07-26T12:00	32150	9	-37.7		82	13	
2025-07-26T12:00	32200	9	-37.6		84	13	
2025-07-26T12:00	32250	9	-37.7		87	14	
2025-07-26T12:00	32300	9	-37.9		90	15	
2025-07-26T12:00	32350	9	-38.0		92	16	
2025-07-26T12:00	32400	9	-38.0		95	17	
2025-07-26T12:00	32450	9	-37.8		98	17	
2025-07-26T12:00	32500	9	-37.5		100	17	
2025-07-26T12:00	32550	9	-37.3		101	17	
2025-07-26T12:00	32600	9	-37.1		101	16	
2025-07-26T12:00	32650	9	-37.2		101	15	
2025-07-26T12:00	32700	9	-37.3		101	15	
2025-07-26T12:00	32750	9	-37.4		99	14	
2025-07-26T12:00	32800	8	-37.5		97	14	
2025-07-26T12:00	32850	8	-37.5		93	14	
2025-07-26T12:00	32900	8	-37.3		89	14	
2025-07-26T12:00	32950	8	-37.3		85	15	
2025-07-26T12:00	33000	8	-37.3		84	15	
2025-07-26T12:00	33050	8	-37.3		86	15	
2025-07-26T12:00	33100	8	-37.3		90	15	
2025-07-26T12:00	33150	8	-37.3		95	15	
2025-07-26T12:00	33200	8	-37.2		99	15	
2025-07-26T12:00	33250	8	-37.1		102	15	
2025-07-26T12:00	33300	8	-37.0		102	16	
2025-07-26T12:00	33350	8	-36.8		101	16	
2025-07-26T12:00	33400	8	-36.5		100	17	
2025-07-26T12:00	33450	8	-36.1		99	17	
2025-07-26T12:00	33500	8	-35.6		98	17	
2025-07-26T12:00	33550	8	-35.6		98	17	
2025-07-26T12:00	33600	8	-35.6		98	16	
2025-07-26T12:00	33650	7	-35.7		98	16	
2025-07-26T12:00	33700	7	-35.5		97	16	
2025-07-26T12:00	33750	7	-35.3		95	17	
2025-07-26T12:00	33800	7	-35.2		94	18	
2025-07-26T12:00	33850	7	-35.0		93	18	
2025-07-26T12:00	33900	7	-34.8		91	18	
2025-07-26T12:00	33950	7	-34.6		90	16	
2025-07-26T12:00	34000	7	-34.2		90	16	
2025-07-26T12:00	34050	7	-34.0		91	16	
2025-07-27T00:00	491	961	15.9	14.3	227	1	
2025-07-27T00:00	501	960	16.2	14.0	202	2	
2025-07-27T00:00	520	958	16.3	13.8	200	3	
2025-07-27T00:00	540	956	16.4	13.4	203	3	
2025-07-27T00:00	560	954	16.5	13.2	206	4	
2025-07-27T00:00	580	951	16.6	13.1	208	4	
2025-07-27T00:00	600	949	16.5	13.0	209	4	
2025-07-27T00:00	620	947	16.4	13.0	210	4	
2025-07-27T00:00	640	945	16.3	12.9	211	4	
2025-07-27T00:00	660	943	16.4	12.7	213	4	
2025-07-27T00:00	680	940	16.3	12.6	218	4	
2025-07-27T00:00	700	938	16.5	12.4	223	4	
2025-07-27T00:00	720	936	16.4	12.4	228	4	
2025-07-27T00:00	740	934	16.3	12.4	231	4	
2025-07-27T00:00	760	931	16.3	12.4	232	5	
2025-07-27T00:00	780	929	16.1	12.4	232	5	
2025-07-27T00:00	800	927	16.0	12.4	233	4	
2025-07-27T00:00	820	925	15.9	12.5	236	4	
2025-07-27T00:00	840	923	15.8	12.4	240	4	
2025-07-27T00:00	860	921	15.7	12.5	248	4	
2025-07-27T00:00	880	918	15.6	12.5	258	4	
2025-07-27T00:00	900	916	15.4	12.4	266	4	
2025-07-27T00:00	920	914	15.4	12.3	273	4	
2025-07-27T00:00	940	912	15.4	12.2	280	4	
2025-07-27T00:00	960	910	15.3	12.1	288	4	
2025-07-27T00:00	980	908	15.1	12.1	297	4	
2025-07-27T00:00	1000	905	15.0	11.9	305	4	
2025-07-27T00:00	1020	903	15.0	11.7	310	3	
2025-07-27T00:00	1040	901	14.9	11.6	309	3	
2025-07-27T00:00	1060	899	14.9	11.5	300	3	
2025-07-27T00:00	1080	897	14.7	11.4	287	3	
2025-07-27T00:00	1100	895	14.6	11.4	271	3	
2025-07-27T00:00	1120	893	14.4	11.3	259	3	
2025-07-27T00:00	1140	891	14.3	11.1	252	3	
2025-07-27T00:00	1160	889	14.2	10.9	247	3	
2025-07-27T00:00	1180	887	14.2	10.8	247	3	
2025-07-27T00:00	1200	884	14.0	10.7	252	4	
2025-07-27T00:00	1220	882	13.9	10.7	261	4	
2025-07-27T00:00	1240	880	13.7	10.6	270	4	
2025-07-27T00:00	1260	878	13.5	10.6	277	4	
2025-07-27T00:00	1280	876	13.3	10.5	284	5	
2025-07-27T00:00	1300	874	13.1	10.6	289	4	
2025-07-27T00:00	1320	872	12.9	10.5	295	4	
2025-07-27T00:00	1340	870	12.7	10.4	300	3	
2025-07-27T00:00	1360	868	12.5	10.4	307	3	
2025-07-27T00:00	1380	866	12.3	10.5	315	2	
2025-07-27T00:00	1400	864	12.2	10.4	325	1	
2025-07-27T00:00	1420	862	12.0	10.4	337	1	
2025-07-27T00:00	1440	860	11.8	10.3	346	1	
2025-07-27T00:00	1460	858	11.6	10.3	347	1	
2025-07-27T00:00	1480	855	11.4	10.2	344	1	
2025-07-27T00:00	1500	853	11.3	10.1	340	1	
2025-07-27T00:00	1520	851	11.2	10.1	339	1	
2025-07-27T00:00	1540	850	11.0	10.0	339	2	
2025-07-27T00:00	1560	847	10.9	9.7	338	2	
2025-07-27T00:00	1580	845	10.7	9.7	339	3	
2025-07-27T00:00	1600	843	10.6	9.5	340	3	
2025-07-27T00:00	1620	841	10.4	9.4	341	3	
2025-07-27T00:00	1640	839	10.3	9.4	343	3	
2025-07-27T00:00	1660	837	10.1	9.2	345	4	
2025-07-27T00:00	1680	835	10.0	9.1	349	4	
2025-07-27T00:00	1700	833	9.9	9.0	352	4	
2025-07-27T00:00	1720	831	9.7	8.9	355	4	
2025-07-27T00:00	1740	829	9.5	8.8	359	4	
2025-07-27T00:00	1760	827	9.4	8.6	1	4	
2025-07-27T00:00	1780	825	9.5	8.2	3	5	
2025-07-27T00:00	1800	823	9.4	8.1	3	5	
2025-07-27T00:00	1820	821	9.2	8.0	2	5	
2025-07-27T00:00	1840	819	9.0	7.9	358	5	
2025-07-27T00:00	1860	817	8.9	7.7	353	5	
2025-07-27T00:00	1880	815	8.7	7.6	348	5	
2025-07-27T00:00	1900	813	8.6	7.5	344	5	
2025-07-27T00:00	1920	812	8.4	7.5	343	5	
2025-07-27T00:00	1940	809	8.2	7.3	342	5	
2025-07-27T00:00	1960	807	8.2	6.9	343	5	
2025-07-27T00:00	1980	805	8.2	6.5	345	5	
2025-07-27T00:00	2000	804	8.2	6.3	348	5	
2025-07-27T00:00	2020	802	8.1	6.1	350	5	
2025-07-27T00:00	2040	800	8.0	6.0	351	5	
2025-07-27T00:00	2060	798	7.8	5.9	353	5	
2025-07-27T00:00	2080	796	7.6	5.6	354	6	
2025-07-27T00:00	2100	794	7.5	5.7	355	6	
2025-07-27T00:00	2120	792	7.3	5.4	355	6	
2025-07-27T00:00	2140	790	7.2	5.3	355	7	
2025-07-27T00:00	2160	788	7.0	5.0	355	7	
2025-07-27T00:00	2180	786	6.9	5.1	355	7	
2025-07-27T00:00	2200	784	6.7	5.2	355	8	
2025-07-27T00:00	2220	782	6.5	5.1	355	8	
2025-07-27T00:00	2240	781	6.4	5.0	355	8	
2025-07-27T00:00	2260	779	6.4	4.7	355	7	
2025-07-27T00:00	2280	777	6.2	4.6	354	7	
2025-07-27T00:00	2300	775	6.1	4.1	353	7	
2025-07-27T00:00	2320	773	6.0	4.1	352	7	
2025-07-27T00:00	2340	771	5.8	4.2	351	7	
2025-07-27T00:00	2360	769	5.7	4.3	351	7	
2025-07-27T00:00	2380	767	5.4	4.6	352	8	
2025-07-27T00:00	2400	765	5.3	4.7	352	8	
2025-07-27T00:00	2420	764	5.3	4.4	352	8	
2025-07-27T00:00	2440	762	5.2	4.5	351	8	
2025-07-27T00:00	2460	760	5.1	4.6	349	8	
2025-07-27T00:00	2480	758	4.9	4.7	345	7	
2025-07-27T00:00	2500	756	4.7	4.6	340	7	
2025-07-27T00:00	2520	754	4.6	4.5	335	7	
2025-07-27T00:00	2540	752	4.5	4.3	330	7	
2025-07-27T00:00	2560	751	4.4	4.3	327	7	
2025-07-27T00:00	2580	749	4.3	4.3	328	7	
2025-07-27T00:00	2600	747	4.3	4.3	329	7	
2025-07-27T00:00	2620	745	4.2	4.1	330	7	
2025-07-27T00:00	2640	743	4.0	3.9	331	7	
2025-07-27T00:00	2660	741	3.9	3.9	330	7	
2025-07-27T00:00	2680	740	3.8	3.8	329	7	
2025-07-27T00:00	2700	738	3.6	3.6	329	7	
2025-07-27T00:00	2720	736	3.5	3.4	330	7	
2025-07-27T00:00	2740	734	3.4	3.3	333	7	
2025-07-27T00:00	2760	733	3.4	3.3	336	7	
2025-07-27T00:00	2780	731	3.3	3.3	340	7	
2025-07-27T00:00	2800	729	3.1	3.0	343	7	
2025-07-27T00:00	2820	727	3.0	3.0	344	8	
2025-07-27T00:00	2840	725	2.9	2.8	345	8	
2025-07-27T00:00	2860	723	2.7	2.7	346	7	
2025-07-27T00:00	2880	722	2.6	2.5	347	7	
2025-07-27T00:00	2900	720	2.5	2.5	349	7	
2025-07-27T00:00	2920	718	2.4	2.4	351	7	
2025-07-27T00:00	2940	716	2.3	2.2	352	7	
2025-07-27T00:00	2960	715	2.1	2.1	353	7	
2025-07-27T00:00	2980	713	2.1	2.1	353	7	
2025-07-27T00:00	3000	711	2.0	1.9	351	7	
2025-07-27T00:00	3020	709	1.8	1.8	349	8	
2025-07-27T00:00	3040	708	1.9	1.8	347	8	
2025-07-27T00:00	3060	706	1.7	1.6	345	9	
2025-07-27T00:00	3080	704	1.7	1.7	343	9	
2025-07-27T00:00	3100	702	1.4	1.4	343	9	
2025-07-27T00:00	3120	701	1.2	1.2	343	9	
2025-07-27T00:00	3140	699	1.0	0.9	343	9	
2025-07-27T00:00	3160	697	0.8	0.7	342	9	
2025-07-27T00:00	3180	695	0.6	0.6	341	8	
2025-07-27T00:00	3200	694	0.6	0.5	340	8	
2025-07-27T00:00	3220	692	0.4	0.4	337	8	
2025-07-27T00:00	3240	690	0.3	0.3	334	7	
2025-07-27T00:00	3260	688	0.2	0.2	331	6	
2025-07-27T00:00	3280	687	0.0	0.0	328	5	
2025-07-27T00:00	3300	685	-0.1	-0.1	327	5	
2025-07-27T00:00	3320	684	-0.1	-0.1	330	5	
2025-07-27T00:00	3340	682	-0.2	-0.2	334	6	
2025-07-27T00:00	3360	680	-0.3	-0.4	337	6	
2025-07-27T00:00	3380	678	-0.4	-0.5	340	7	
2025-07-27T00:00	3400	676	-0.6	-0.6	343	7	
2025-07-27T00:00	3420	675	-0.7	-0.8	344	7	
2025-07-27T00:00	3440	673	-0.8	-0.8	345	8	
2025-07-27T00:00	3460	672	-0.9	-0.9	345	8	
2025-07-27T00:00	3480	670	-1.0	-1.0	345	8	
2025-07-27T00:00	3500	668	-1.2	-1.2	344	9	
2025-07-27T00:00	3520	667	-1.3	-1.4	342	9	
2025-07-27T00:00	3540	665	-1.5	-1.5	341	9	
2025-07-27T00:00	3560	663	-1.7	-1.7	340	9	
2025-07-27T00:00	3580	662	-1.9	-1.9	339	9	
2025-07-27T00:00	3600	660	-1.9	-1.9	338	8	
2025-07-27T00:00	3620	658	-2.0	-2.0	337	8	
2025-07-27T00:00	3640	657	-2.0	-2.0	338	7	
2025-07-27T00:00	3660	655	-2.1	-2.8	340	7	
2025-07-27T00:00	3680	653	-2.1	-3.5	342	8	
2025-07-27T00:00	3700	652	-2.0	-3.6	342	8	
2025-07-27T00:00	3720	650	-2.1	-4.0	341	7	
2025-07-27T00:00	3740	648	-2.2	-4.0	339	7	
2025-07-27T00:00	3760	647	-2.3	-4.2	336	6	
2025-07-27T00:00	3780	645	-2.4	-4.7	333	6	
2025-07-27T00:00	3800	643	-2.6	-4.9	330	6	
2025-07-27T00:00	3820	642	-2.7	-5.0	328	6	
2025-07-27T00:00	3840	640	-2.7	-5.0	327	6	
2025-07-27T00:00	3860	639	-2.8	-5.0	328	6	
2025-07-27T00:00	3880	637	-3.0	-5.0	328	6	
2025-07-27T00:00	3900	635	-3.1	-4.9	329	6	
2025-07-27T00:00	3920	634	-3.2	-5.1	330	7	
2025-07-27T00:00	3940	632	-3.3	-5.4	331	7	
2025-07-27T00:00	3960	630	-3.5	-5.5	333	7	
2025-07-27T00:00	3980	629	-3.6	-5.7	335	8	
2025-07-27T00:00	4000	627	-3.7	-5.8	335	8	
2025-07-27T00:00	4020	626	-3.9	-6.0	335	8	
2025-07-27T00:00	4040	624	-4.0	-6.0	334	9	
2025-07-27T00:00	4060	623	-4.1	-6.0	331	9	
2025-07-27T00:00	4080	621	-4.3	-6.9	328	9	
2025-07-27T00:00	4100	620	-4.4	-7.1	326	10	
2025-07-27T00:00	4120	618	-4.5	-7.0	325	10	
2025-07-27T00:00	4140	616	-4.5	-6.5	324	10	
2025-07-27T00:00	4160	615	-4.3	-5.2	323	10	
2025-07-27T00:00	4180	613	-4.3	-5.0	323	10	
2025-07-27T00:00	4200	612	-4.4	-5.0	323	10	
2025-07-27T00:00	4220	610	-4.6	-5.1	324	10	
2025-07-27T00:00	4240	609	-4.7	-5.4	327	10	
2025-07-27T00:00	4260	607	-4.7	-5.5	330	10	
2025-07-27T00:00	4280	606	-4.8	-5.6	334	10	
2025-07-27T00:00	4300	604	-4.9	-5.7	337	10	
2025-07-27T00:00	4320	602	-5.1	-5.8	338	10	
2025-07-27T00:00	4340	601	-5.1	-6.0	339	10	
2025-07-27T00:00	4360	600	-4.7	-6.5	339	10	
2025-07-27T00:00	4380	598	-4.4	-6.7	338	9	
2025-07-27T00:00	4400	596	-4.4	-6.9	338	8	
2025-07-27T00:00	4420	595	-4.5	-7.3	338	8	
2025-07-27T00:00	4440	593	-4.6	-7.4	338	8	
2025-07-27T00:00	4460	592	-4.8	-7.5	337	8	
2025-07-27T00:00	4480	590	-4.9	-7.5	337	8	
2025-07-27T00:00	4500	589	-5.1	-7.5	337	9	
2025-07-27T00:00	4520	587	-5.2	-7.6	336	9	
2025-07-27T00:00	4540	586	-5.4	-7.8	336	9	
2025-07-27T00:00	4560	584	-5.6	-7.8	335	10	
2025-07-27T00:00	4580	583	-5.8	-7.7	334	10	
2025-07-27T00:00	4600	582	-5.9	-7.8	334	10	
2025-07-27T00:00	4620	580	-6.2	-7.8	332	10	
2025-07-27T00:00	4640	578	-6.4	-7.9	331	10	
2025-07-27T00:00	4660	577	-6.5	-7.8	330	10	
2025-07-27T00:00	4680	575	-6.7	-7.9	330	11	
2025-07-27T00:00	4700	574	-6.9	-8.0	330	11	
2025-07-27T00:00	4720	573	-7.0	-8.0	331	10	
2025-07-27T00:00	4740	571	-7.2	-8.1	332	10	
2025-07-27T00:00	4760	570	-7.4	-8.3	333	10	
2025-07-27T00:00	4780	568	-7.6	-8.4	333	9	
2025-07-27T00:00	4800	567	-7.8	-8.6	333	9	
2025-07-27T00:00	4820	565	-7.9	-8.7	332	9	
2025-07-27T00:00	4840	564	-8.1	-8.7	330	9	
2025-07-27T00:00	4860	562	-8.3	-8.6	330	9	
2025-07-27T00:00	4880	561	-8.4	-8.7	332	9	
2025-07-27T00:00	4900	560	-8.6	-8.7	334	9	
2025-07-27T00:00	4920	558	-8.6	-9.2	336	9	
2025-07-27T00:00	4940	557	-8.6	-9.4	339	9	
2025-07-27T00:00	4960	555	-8.8	-9.4	342	9	
2025-07-27T00:00	4980	554	-8.8	-9.5	344	9	
2025-07-27T00:00	5000	552	-8.8	-9.7	345	9	
2025-07-27T00:00	5020	551	-8.9	-9.7	344	9	
2025-07-27T00:00	5040	550	-9.1	-9.9	343	9	
2025-07-27T00:00	5060	548	-9.2	-9.9	340	9	
2025-07-27T00:00	5080	547	-9.4	-10.2	337	10	
2025-07-27T00:00	5100	545	-9.5	-10.9	334	10	
2025-07-27T00:00	5120	544	-9.6	-11.7	331	11	
2025-07-27T00:00	5140	543	-9.7	-12.2	330	11	
2025-07-27T00:00	5160	541	-9.8	-13.0	329	12	
2025-07-27T00:00	5180	540	-9.9	-13.5	329	12	
2025-07-27T00:00	5200	538	-10.0	-14.0	329	12	
2025-07-27T00:00	5220	537	-10.1	-16.3	330	12	
2025-07-27T00:00	5240	535	-10.1	-17.8	330	12	
2025-07-27T00:00	5260	534	-9.9	-17.2	329	12	
2025-07-27T00:00	5280	532	-9.9	-16.6	328	12	
2025-07-27T00:00	5300	531	-9.8	-15.7	327	12	
2025-07-27T00:00	5320	530	-9.9	-15.5	325	12	
2025-07-27T00:00	5340	529	-10.0	-15.2	324	12	
2025-07-27T00:00	5360	527	-10.0	-14.8	321	12	
2025-07-27T00:00	5380	526	-10.2	-14.2	319	12	
2025-07-27T00:00	5400	524	-10.3	-13.5	317	12	
2025-07-27T00:00	5420	523	-10.5	-13.4	316	12	
2025-07-27T00:00	5440	522	-10.5	-13.6	317	12	
2025-07-27T00:00	5460	520	-10.7	-13.7	318	12	
2025-07-27T00:00	5480	519	-10.9	-13.8	319	12	
2025-07-27T00:00	5500	518	-11.1	-13.8	320	12	
2025-07-27T00:00	5520	516	-11.2	-13.9	321	13	
2025-07-27T00:00	5540	515	-11.4	-14.0	321	13	
2025-07-27T00:00	5560	514	-11.6	-14.0	321	13	
2025-07-27T00:00	5580	512	-11.8	-14.0	321	13	
2025-07-27T00:00	5600	511	-12.0	-14.1	320	13	
2025-07-27T00:00	5620	509	-12.2	-14.2	320	12	
2025-07-27T00:00	5640	508	-12.3	-14.2	320	12	
2025-07-27T00:00	5660	507	-12.5	-14.3	320	12	
2025-07-27T00:00	5680	506	-12.7	-14.4	320	12	
2025-07-27T00:00	5700	504	-12.9	-14.5	320	12	
2025-07-27T00:00	5720	503	-13.0	-14.7	320	12	
2025-07-27T00:00	5740	502	-13.2	-14.7	320	12	
2025-07-27T00:00	5760	500	-13.4	-14.8	320	13	
2025-07-27T00:00	5780	499	-13.6	-14.9	320	13	
2025-07-27T00:00	5800	498	-13.8	-15.1	319	13	
2025-07-27T00:00	5820	496	-13.8	-15.3	318	13	
2025-07-27T00:00	5840	495	-13.9	-15.4	317	14	
2025-07-27T00:00	5860	494	-13.8	-16.0	315	14	
2025-07-27T00:00	5880	493	-13.8	-16.3	314	14	
2025-07-27T00:00	5900	491	-14.0	-16.4	313	13	
2025-07-27T00:00	5920	490	-14.2	-16.4	313	13	
2025-07-27T00:00	5940	489	-14.3	-16.5	314	13	
2025-07-27T00:00	5960	487	-14.5	-16.6	315	12	
2025-07-27T00:00	5980	486	-14.6	-16.7	315	12	
2025-07-27T00:00	6000	485	-14.7	-17.1	316	12	
2025-07-27T00:00	6020	483	-14.8	-17.6	316	12	
2025-07-27T00:00	6040	482	-14.9	-18.2	316	12	
2025-07-27T00:00	6060	481	-15.0	-18.4	317	12	
2025-07-27T00:00	6080	480	-15.2	-18.6	318	12	
2025-07-27T00:00	6100	478	-15.3	-18.9	319	12	
2025-07-27T00:00	6120	477	-15.4	-19.2	320	12	
2025-07-27T00:00	6140	476	-15.6	-19.6	320	12	
2025-07-27T00:00	6160	475	-15.7	-20.0	321	12	
2025-07-27T00:00	6180	474	-15.8	-20.4	321	12	
2025-07-27T00:00	6200	472	-15.9	-20.5	320	12	
2025-07-27T00:00	6220	471	-16.1	-20.5	319	12	
2025-07-27T00:00	6240	470	-16.3	-20.7	318	12	
2025-07-27T00:00	6260	468	-16.5	-20.8	317	12	
2025-07-27T00:00	6280	467	-16.6	-20.8	316	12	
2025-07-27T00:00	6300	466	-16.8	-20.9	316	12	
2025-07-27T00:00	6320	465	-17.0	-20.9	316	12	
2025-07-27T00:00	6340	463	-17.2	-21.0	318	12	
2025-07-27T00:00	6360	462	-17.4	-21.0	320	12	
2025-07-27T00:00	6380	461	-17.5	-21.2	322	12	
2025-07-27T00:00	6400	460	-17.7	-21.2	323	12	
2025-07-27T00:00	6420	458	-17.9	-21.3	323	12	
2025-07-27T00:00	6440	457	-18.1	-21.2	324	12	
2025-07-27T00:00	6460	456	-18.3	-21.3	324	12	
2025-07-27T00:00	6480	455	-18.4	-21.3	324	12	
2025-07-27T00:00	6500	454	-18.6	-21.2	324	12	
2025-07-27T00:00	6520	452	-18.8	-20.4	324	12	
2025-07-27T00:00	6540	451	-18.7	-20.0	325	12	
2025-07-27T00:00	6560	450	-18.6	-20.6	325	12	
2025-07-27T00:00	6580	449	-18.6	-21.0	325	12	
2025-07-27T00:00	6600	448	-18.5	-22.0	325	11	
2025-07-27T00:00	6620	446	-18.4	-23.0	324	12	
2025-07-27T00:00	6640	445	-18.6	-22.9	323	12	
2025-07-27T00:00	6660	444	-18.8	-23.0	322	12	
2025-07-27T00:00	6680	443	-18.9	-23.1	322	12	
2025-07-27T00:00	6700	442	-19.1	-23.4	321	12	
2025-07-27T00:00	6720	441	-19.1	-24.2	321	12	
2025-07-27T00:00	6740	439	-19.2	-25.4	322	12	
2025-07-27T00:00	6760	438	-19.1	-27.2	322	12	
2025-07-27T00:00	6780	437	-19.1	-28.7	323	12	
2025-07-27T00:00	6800	436	-19.2	-29.4	324	12	
2025-07-27T00:00	6820	435	-19.3	-31.6	325	12	
2025-07-27T00:00	6840	433	-19.1	-40.3	326	12	
2025-07-27T00:00	6860	432	-19.0	-42.0	327	13	
2025-07-27T00:00	6880	431	-19.1	-42.3	328	13	
2025-07-27T00:00	6900	430	-19.3	-45.0	328	13	
2025-07-27T00:00	6920	429	-19.5	-45.4	329	13	
2025-07-27T00:00	6940	427	-19.6	-46.0	329	13	
2025-07-27T00:00	6960	426	-19.7	-46.2	329	13	
2025-07-27T00:00	6980	425	-19.8	-46.8	329	13	
2025-07-27T00:00	7000	424	-19.8	-47.1	329	13	
2025-07-27T00:00	7020	423	-19.9	-47.4	329	13	
2025-07-27T00:00	7040	422	-20.1	-47.1	328	14	
2025-07-27T00:00	7060	421	-20.2	-46.2	327	14	
2025-07-27T00:00	7080	420	-20.3	-45.2	327	14	
2025-07-27T00:00	7100	418	-20.5	-43.5	326	14	
2025-07-27T00:00	7120	417	-20.6	-42.9	326	14	
2025-07-27T00:00	7140	416	-20.8	-42.6	326	15	
2025-07-27T00:00	7160	415	-20.9	-42.4	326	15	
2025-07-27T00:00	7180	414	-21.0	-41.6	326	15	
2025-07-27T00:00	7200	413	-21.1	-39.7	327	15	
2025-07-27T00:00	7220	412	-21.2	-37.9	327	15	
2025-07-27T00:00	7240	410	-21.3	-38.0	327	15	
2025-07-27T00:00	7260	409	-21.4	-38.0	327	15	
2025-07-27T00:00	7280	408	-21.6	-38.1	327	16	
2025-07-27T00:00	7300	407	-21.8	-38.1	326	16	
2025-07-27T00:00	7320	406	-22.0	-38.1	325	16	
2025-07-27T00:00	7340	405	-22.1	-38.2	324	16	
2025-07-27T00:00	7360	404	-22.2	-38.6	324	17	
2025-07-27T00:00	7380	403	-22.3	-39.3	323	17	
2025-07-27T00:00	7400	402	-22.3	-42.2	323	17	
2025-07-27T00:00	7420	401	-22.3	-44.8	322	17	
2025-07-27T00:00	7440	400	-22.4	-45.1	322	17	
2025-07-27T00:00	7460	398	-22.6	-45.5	323	17	
2025-07-27T00:00	7480	397	-22.8	-45.5	323	17	
2025-07-27T00:00	7500	396	-23.0	-45.4	323	17	
2025-07-27T00:00	7520	395	-23.1	-45.5	322	17	
2025-07-27T00:00	7540	394	-23.3	-45.5	322	17	
2025-07-27T00:00	7560	393	-23.5	-45.5	321	17	
2025-07-27T00:00	7580	392	-23.7	-45.4	321	18	
2025-07-27T00:00	7600	391	-23.9	-45.4	320	18	
2025-07-27T00:00	7620	390	-24.1	-45.4	319	18	
2025-07-27T00:00	7640	389	-24.2	-45.1	319	18	
2025-07-27T00:00	7660	388	-24.4	-44.7	318	19	
2025-07-27T00:00	7680	387	-24.5	-44.8	318	19	
2025-07-27T00:00	7700	386	-24.7	-44.9	317	19	
2025-07-27T00:00	7720	385	-24.9	-44.9	316	20	
2025-07-27T00:00	7740	384	-25.1	-44.9	315	20	
2025-07-27T00:00	7760	383	-25.3	-44.8	314	20	
2025-07-27T00:00	7780	381	-25.4	-44.9	313	20	
2025-07-27T00:00	7800	380	-25.6	-45.1	312	20	
2025-07-27T00:00	7820	379	-25.7	-45.7	312	20	
2025-07-27T00:00	7840	378	-25.9	-46.5	311	20	
2025-07-27T00:00	7860	377	-26.0	-47.3	312	20	
2025-07-27T00:00	7880	376	-26.1	-47.5	312	20	
2025-07-27T00:00	7900	375	-26.2	-47.2	313	20	
2025-07-27T00:00	7920	374	-26.3	-45.8	313	20	
2025-07-27T00:00	7940	373	-26.5	-45.6	314	20	
2025-07-27T00:00	7960	372	-26.7	-46.8	314	20	
2025-07-27T00:00	7980	371	-26.8	-47.6	314	20	
2025-07-27T00:00	8000	370	-27.0	-46.2	314	20	
2025-07-27T00:00	8020	369	-27.2	-45.9	314	20	
2025-07-27T00:00	8040	368	-27.4	-46.5	313	19	
2025-07-27T00:00	8060	367	-27.6	-46.4	313	19	
2025-07-27T00:00	8080	366	-27.7	-46.3	313	19	
2025-07-27T00:00	8100	365	-27.9	-45.9	313	19	
2025-07-27T00:00	8120	364	-28.1	-45.7	314	18	
2025-07-27T00:00	8140	363	-28.3	-45.5	314	18	
2025-07-27T00:00	8160	362	-28.5	-45.4	315	18	
2025-07-27T00:00	8180	361	-28.7	-45.1	315	18	
2025-07-27T00:00	8200	360	-28.8	-45.0	315	18	
2025-07-27T00:00	8220	359	-29.0	-45.1	315	18	
2025-07-27T00:00	8240	358	-29.3	-45.1	315	18	
2025-07-27T00:00	8260	357	-29.4	-45.1	315	18	
2025-07-27T00:00	8280	356	-29.6	-45.0	314	18	
2025-07-27T00:00	8300	355	-29.8	-44.9	315	18	
2025-07-27T00:00	8320	354	-30.0	-45.0	315	18	
2025-07-27T00:00	8340	353	-30.2	-45.0	316	18	
2025-07-27T00:00	8360	352	-30.3	-45.1	316	18	
2025-07-27T00:00	8380	351	-30.5	-45.1	317	18	
2025-07-27T00:00	8400	350	-30.7	-45.1	318	18	
2025-07-27T00:00	8420	349	-30.9	-44.8	319	17	
2025-07-27T00:00	8440	348	-31.0	-44.6	319	17	
2025-07-27T00:00	8460	347	-31.2	-44.7	319	17	
2025-07-27T00:00	8480	346	-31.4	-44.7	319	17	
2025-07-27T00:00	8500	345	-31.6	-44.6	318	17	
2025-07-27T00:00	8520	344	-31.7	-44.6	317	16	
2025-07-27T00:00	8540	343	-31.9	-44.6	315	16	
2025-07-27T00:00	8560	342	-32.1	-44.6	314	16	
2025-07-27T00:00	8580	341	-32.2	-44.0	313	16	
2025-07-27T00:00	8600	340	-32.4	-43.7	312	17	
2025-07-27T00:00	8620	339	-32.6	-43.2	312	17	
2025-07-27T00:00	8640	338	-32.7	-42.3	311	17	
2025-07-27T00:00	8660	337	-32.9	-42.1	311	18	
2025-07-27T00:00	8680	336	-33.0	-41.8	311	18	
2025-07-27T00:00	8700	335	-33.2	-41.4	311	18	
2025-07-27T00:00	8720	334	-33.3	-41.2	310	18	
2025-07-27T00:00	8740	333	-33.5	-41.2	309	17	
2025-07-27T00:00	8760	332	-33.7	-41.1	309	17	
2025-07-27T00:00	8780	332	-33.8	-41.2	308	17	
2025-07-27T00:00	8800	331	-33.9	-41.9	308	17	
2025-07-27T00:00	8820	330	-34.1	-42.2	307	17	
2025-07-27T00:00	8840	329	-34.2	-42.4	307	17	
2025-07-27T00:00	8860	328	-34.4	-42.5	308	17	
2025-07-27T00:00	8880	327	-34.6	-42.7	308	17	
2025-07-27T00:00	8900	326	-34.8	-42.8	308	18	
2025-07-27T00:00	8920	325	-34.9	-43.0	309	18	
2025-07-27T00:00	8940	324	-35.2	-43.1	309	18	
2025-07-27T00:00	8960	323	-35.4	-43.1	310	18	
2025-07-27T00:00	8980	322	-35.5	-43.1	310	18	
2025-07-27T00:00	9000	321	-35.7	-43.2	310	18	
2025-07-27T00:00	9020	320	-36.0	-43.3	310	17	
2025-07-27T00:00	9040	319	-36.3	-43.3	308	17	
2025-07-27T00:00	9060	318	-36.5	-43.4	308	17	
2025-07-27T00:00	9080	318	-36.7	-43.4	307	17	
2025-07-27T00:00	9100	317	-36.8	-43.6	306	17	
2025-07-27T00:00	9120	316	-37.0	-44.0	305	17	
2025-07-27T00:00	9140	315	-37.1	-44.7	304	17	
2025-07-27T00:00	9160	314	-37.2	-45.2	303	18	
2025-07-27T00:00	9180	313	-37.4	-45.1	303	18	
2025-07-27T00:00	9200	312	-37.5	-45.0	303	18	
2025-07-27T00:00	9220	311	-37.7	-45.0	303	19	
2025-07-27T00:00	9240	310	-37.9	-45.2	302	19	
2025-07-27T00:00	9260	309	-38.1	-45.2	302	19	
2025-07-27T00:00	9280	309	-38.2	-45.2	303	19	
2025-07-27T00:00	9300	308	-38.4	-45.1	303	19	
2025-07-27T00:00	9320	307	-38.6	-44.5	303	19	
2025-07-27T00:00	9340	306	-38.8	-44.3	302	19	
2025-07-27T00:00	9360	305	-38.9	-45.0	302	19	
2025-07-27T00:00	9380	304	-39.1	-44.9	301	19	
2025-07-27T00:00	9400	303	-39.3	-45.1	301	19	
2025-07-27T00:00	9420	302	-39.4	-45.3	300	19	
2025-07-27T00:00	9440	301	-39.6	-45.0	300	20	
2025-07-27T00:00	9460	300	-39.8	-44.2	300	20	
2025-07-27T00:00	9480	300	-39.9	-43.3	300	20	
2025-07-27T00:00	9500	299	-40.1	-43.2	300	20	
2025-07-27T00:00	9520	298	-40.3	-43.3	300	20	
2025-07-27T00:00	9540	297	-40.5	-43.8	301	20	
2025-07-27T00:00	9560	296	-40.7	-43.4	301	20	
2025-07-27T00:00	9580	295	-40.9	-42.9	301	20	
2025-07-27T00:00	9600	294	-41.1	-42.9	301	20	
2025-07-27T00:00	9620	294	-41.3	-43.2	301	20	
2025-07-27T00:00	9640	293	-41.4	-43.1	300	20	
2025-07-27T00:00	9660	292	-41.6	-43.1	300	20	
2025-07-27T00:00	9680	291	-41.7	-43.1	300	20	
2025-07-27T00:00	9700	290	-41.8	-43.4	300	19	
2025-07-27T00:00	9720	289	-41.9	-43.6	299	19	
2025-07-27T00:00	9740	288	-42.0	-44.1	299	19	
2025-07-27T00:00	9760	287	-42.2	-44.8	300	19	
2025-07-27T00:00	9780	287	-42.3	-45.8	300	19	
2025-07-27T00:00	9800	286	-42.5	-46.1	300	19	
2025-07-27T00:00	9820	285	-42.6	-46.3	300	19	
2025-07-27T00:00	9840	284	-42.8	-46.3	300	19	
2025-07-27T00:00	9860	283	-43.0	-46.4	300	19	
2025-07-27T00:00	9880	282	-43.2	-46.3	299	18	
2025-07-27T00:00	9900	282	-43.4	-46.2	299	18	
2025-07-27T00:00	9920	281	-43.5	-47.0	298	17	
2025-07-27T00:00	9940	280	-43.6	-48.2	298	17	
2025-07-27T00:00	9960	279	-43.6	-49.9	297	16	
2025-07-27T00:00	9980	278	-43.5	-50.3	297	16	
2025-07-27T00:00	10000	277	-43.5	-50.7	297	15	
2025-07-27T00:00	10018	277	-43.5	-51.0	297	15	
2025-07-27T00:00	10050	275	-43.7	-50.6	296	15	
2025-07-27T00:00	10100	273	-43.9	-50.4	292	14	
2025-07-27T00:00	10150	271	-44.2	-48.3	290	14	
2025-07-27T00:00	10200	269	-44.5	-48.6	288	14	
2025-07-27T00:00	10250	267	-44.8	-49.7	287	13	
2025-07-27T00:00	10300	265	-44.9	-56.5	285	13	
2025-07-27T00:00	10350	263	-44.8	-59.3	282	13	
2025-07-27T00:00	10400	261	-45.1	-57.6	281	14	
2025-07-27T00:00	10450	259	-45.4	-56.4	281	14	
2025-07-27T00:00	10500	257	-45.6	-57.9	281	13	
2025-07-27T00:00	10550	255	-45.8	-57.2	280	13	
2025-07-27T00:00	10600	254	-46.1	-59.5	279	14	
2025-07-27T00:00	10650	252	-46.5	-60.8	279	15	
2025-07-27T00:00	10700	250	-46.6	-63.2	278	16	
2025-07-27T00:00	10750	248	-46.8	-62.6	277	17	
2025-07-27T00:00	10800	246	-47.1	-62.4	277	17	
2025-07-27T00:00	10850	244	-46.9	-63.2	278	16	
2025-07-27T00:00	10900	242	-46.7	-63.9	279	16	
2025-07-27T00:00	10950	240	-46.9	-64.0	278	15	
2025-07-27T00:00	11000	239	-47.0	-65.0	275	15	
2025-07-27T00:00	11050	237	-46.7	-66.3	271	15	
2025-07-27T00:00	11100	235	-46.4	-67.4	269	15	
2025-07-27T00:00	11150	233	-46.4	-67.6	269	15	
2025-07-27T00:00	11200	232	-46.7	-67.7	270	15	
2025-07-27T00:00	11250	230	-47.1	-67.7	272	16	
2025-07-27T00:00	11300	228	-47.1	-68.1	274	16	
2025-07-27T00:00	11350	226	-46.9	-68.6	274	16	
2025-07-27T00:00	11400	225	-46.9	-69.0	272	17	
2025-07-27T00:00	11450	223	-47.0	-69.4	272	18	
2025-07-27T00:00	11500	221	-47.2	-69.7	274	18	
2025-07-27T00:00	11550	220	-47.3	-70.1	276	18	
2025-07-27T00:00	11600	218	-47.4	-70.4	277	18	
2025-07-27T00:00	11650	216	-47.6	-70.7	277	17	
2025-07-27T00:00	11700	215	-47.8	-71.1	278	17	
2025-07-27T00:00	11750	213	-48.1	-71.2	278	17	
2025-07-27T00:00	11800	212	-48.0	-71.9	275	16	
2025-07-27T00:00	11850	210	-47.8	-72.6	272	17	
2025-07-27T00:00	11900	208	-47.6	-73.2	271	17	
2025-07-27T00:00	11950	207	-47.2	-73.5	271	18	
2025-07-27T00:00	12000	205	-47.0	-73.9	273	19	
2025-07-27T00:00	12050	204	-46.9	-74.2	276	19	
2025-07-27T00:00	12100	202	-46.7	-74.4	278	19	
2025-07-27T00:00	12150	201	-46.8	-74.4	279	18	
2025-07-27T00:00	12200	199	-46.9	-74.7	280	18	
2025-07-27T00:00	12250	198	-47.2	-74.7	279	18	
2025-07-27T00:00	12300	196	-47.6	-74.8	280	18	
2025-07-27T00:00	12350	195	-47.9	-75.0	280	18	
2025-07-27T00:00	12400	193	-48.0	-75.1	279	18	
2025-07-27T00:00	12450	192	-48.4	-75.0	279	18	
2025-07-27T00:00	12500	190	-48.6	-75.2	279	18	
2025-07-27T00:00	12550	189	-48.7	-76.8	279	18	
2025-07-27T00:00	12600	187	-48.8	-77.7	278	18	
2025-07-27T00:00	12650	186	-48.6	-77.2	277	18	
2025-07-27T00:00	12700	185	-48.6	-77.4	277	17	
2025-07-27T00:00	12750	183	-48.6	-77.9	278	17	
2025-07-27T00:00	12800	182	-48.7	-78.1	279	17	
2025-07-27T00:00	12850	180	-49.0	-78.3	280	17	
2025-07-27T00:00	12900	179	-49.3	-78.5	282	16	
2025-07-27T00:00	12950	178	-49.5	-78.5	285	16	
2025-07-27T00:00	13000	176	-49.6	-78.7	287	16	
2025-07-27T00:00	13050	175	-49.8	-78.9	288	16	
2025-07-27T00:00	13100	174	-50.0	-79.2	286	17	
2025-07-27T00:00	13150	172	-50.0	-79.2	285	18	
2025-07-27T00:00	13200	171	-50.4	-79.4	284	19	
2025-07-27T00:00	13250	170	-50.8	-79.5	284	20	
2025-07-27T00:00	13300	168	-51.0	-79.6	284	19	
2025-07-27T00:00	13350	167	-50.6	-79.8	287	19	
2025-07-27T00:00	13400	166	-50.6	-79.7	288	20	
2025-07-27T00:00	13450	165	-50.8	-79.9	290	20	
2025-07-27T00:00	13500	163	-51.0	-79.9	292	19	
2025-07-27T00:00	13550	162	-51.3	-79.7	294	17	
2025-07-27T00:00	13600	161	-51.2	-78.4	296	16	
2025-07-27T00:00	13650	160	-51.1	-80.1	297	14	
2025-07-27T00:00	13700	158	-51.3	-80.6	297	13	
2025-07-27T00:00	13750	157	-51.8	-79.6	295	13	
2025-07-27T00:00	13800	156	-52.2	-80.5	292	13	
2025-07-27T00:00	13850	155	-52.5	-81.3	289	13	
2025-07-27T00:00	13900	154	-52.7	-81.8	284	13	
2025-07-27T00:00	13950	152	-52.5	-82.1	279	13	
2025-07-27T00:00	14000	151	-52.4	-82.2	274	14	
2025-07-27T00:00	14050	150	-52.6	-82.1	272	16	
2025-07-27T00:00	14100	149	-52.5	-81.9	274	17	
2025-07-27T00:00	14150	148	-52.3	-82.7	277	17	
2025-07-27T00:00	14200	147	-52.4	-82.9	280	16	
2025-07-27T00:00	14250	145	-52.3	-82.9	284	15	
2025-07-27T00:00	14300	144	-52.4	-82.8	289	14	
2025-07-27T00:00	14350	143	-52.4	-83.0	295	12	
2025-07-27T00:00	14400	142	-52.5	-82.7	299	11	
2025-07-27T00:00	14450	141	-52.8	-82.5	299	10	
2025-07-27T00:00	14500	140	-53.2	-81.1	294	9	
2025-07-27T00:00	14550	139	-53.3	-79.9	291	10	
2025-07-27T00:00	14600	138	-53.5	-81.0	289	10	
2025-07-27T00:00	14650	137	-53.9	-82.2	286	11	
2025-07-27T00:00	14700	136	-54.2	-82.5	282	11	
2025-07-27T00:00	14750	135	-54.1	-81.9	280	10	
2025-07-27T00:00	14800	134	-53.8	-82.0	278	8	
2025-07-27T00:00	14850	132	-53.8	-82.3	275	7	
2025-07-27T00:00	14900	131	-54.1	-82.3	270	7	
2025-07-27T00:00	14950	130	-54.6	-82.3	265	7	
2025-07-27T00:00	15000	129	-54.9	-82.5	259	7	
2025-07-27T00:00	15050	128	-55.3	-82.8	252	7	
2025-07-27T00:00	15100	127	-55.7	-82.9	248	8	
2025-07-27T00:00	15150	126	-55.8	-83.1	247	9	
2025-07-27T00:00	15200	125	-55.8	-83.5	249	10	
2025-07-27T00:00	15250	124	-55.0	-83.6	252	11	
2025-07-27T00:00	15300	123	-55.0	-83.9	256	12	
2025-07-27T00:00	15350	122	-55.0	-84.1	261	13	
2025-07-27T00:00	15400	122	-54.7	-84.1	263	12	
2025-07-27T00:00	15450	121	-54.2	-84.0	262	11	
2025-07-27T00:00	15500	120	-53.7	-83.9	257	10	
2025-07-27T00:00	15550	119	-53.8	-83.9	247	9	
2025-07-27T00:00	15600	118	-54.2	-84.0	237	9	
2025-07-27T00:00	15650	117	-54.6	-84.0	230	9	
2025-07-27T00:00	15700	116	-55.0	-84.2	228	9	
2025-07-27T00:00	15750	115	-55.4	-84.5	231	10	
2025-07-27T00:00	15800	114	-55.5	-84.5	238	10	
2025-07-27T00:00	15850	113	-55.2	-84.4	249	9	
2025-07-27T00:00	15900	112	-55.0	-84.6	258	9	
2025-07-27T00:00	15950	112	-54.9	-84.6	266	9	
2025-07-27T00:00	16000	111	-55.0	-84.6	272	9	
2025-07-27T00:00	16050	110	-55.1	-84.7	277	9	
2025-07-27T00:00	16100	109	-55.1	-84.7	276	9	
2025-07-27T00:00	16150	108	-54.9	-84.6	269	9	
2025-07-27T00:00	16200	107	-55.2	-84.7	262	9	
2025-07-27T00:00	16250	106	-55.5	-84.8	257	10	
2025-07-27T00:00	16300	106	-55.7	-84.9	257	11	
2025-07-27T00:00	16350	105	-56.0	-85.1	256	12	
2025-07-27T00:00	16400	104	-56.2	-85.3	255	11	
2025-07-27T00:00	16450	103	-55.8	-85.2	254	11	
2025-07-27T00:00	16500	102	-55.5	-85.1	257	9	
2025-07-27T00:00	16550	102	-55.3	-85.1	260	8	
2025-07-27T00:00	16600	101	-55.3	-85.1	257	8	
2025-07-27T00:00	16650	100	-55.4	-85.2	254	8	
2025-07-27T00:00	16700	99	-55.3	-85.2	253	8	
2025-07-27T00:00	16750	98	-55.4	-85.4	254	9	
2025-07-27T00:00	16800	98	-55.4	-85.4	254	9	
2025-07-27T00:00	16850	97	-55.0	-85.4	252	10	
2025-07-27T00:00	16900	96	-54.7	-85.3	250	11	
2025-07-27T00:00	16950	95	-54.6	-85.4	250	11	
2025-07-27T00:00	17000	95	-54.5	-85.3	251	11	
2025-07-27T00:00	17050	94	-54.6	-85.3	255	10	
2025-07-27T00:00	17100	93	-54.5	-85.2	262	9	
2025-07-27T00:00	17150	92	-54.1	-85.1	270	8	
2025-07-27T00:00	17200	92	-54.3	-85.2	276	7	
2025-07-27T00:00	17250	91	-54.7	-85.3	285	6	
2025-07-27T00:00	17300	90	-55.0	-85.4	297	5	
2025-07-27T00:00	17350	90	-54.9	-85.4	310	4	
2025-07-27T00:00	17400	89	-54.8	-85.3	321	2	
2025-07-27T00:00	17450	88	-54.8	-85.2	301	0	
2025-07-27T00:00	17500	87	-54.5	-85.2	170	1	
2025-07-27T00:00	17550	87	-54.7	-85.4	174	3	
2025-07-27T00:00	17600	86	-55.1	-85.0	181	4	
2025-07-27T00:00	17650	85	-55.4	-84.4	187	6	
2025-07-27T00:00	17700	85	-55.5	-84.4	195	7	
2025-07-27T00:00	17750	84	-55.8	-84.9	204	8	
2025-07-27T00:00	17800	83	-55.9	-85.7	212	9	
2025-07-27T00:00	17850	83	-56.0	-86.2	219	9	
2025-07-27T00:00	17900	82	-55.8	-85.9	224	8	
2025-07-27T00:00	17950	82	-55.9	-86.0	232	7	
2025-07-27T00:00	18000	81	-55.7	-86.0	244	7	
2025-07-27T00:00	18050	80	-55.7	-86.1	255	7	
2025-07-27T00:00	18100	80	-55.8	-86.1	261	7	
2025-07-27T00:00	18150	79	-56.1	-86.1	268	8	
2025-07-27T00:00	18200	78	-56.3	-86.1	274	8	
2025-07-27T00:00	18250	78	-56.4	-86.2	278	8	
2025-07-27T00:00	18300	77	-56.5	-86.3	283	7	
2025-07-27T00:00	18350	77	-56.7	-86.4	287	5	
2025-07-27T00:00	18400	76	-56.8	-86.4	289	4	
2025-07-27T00:00	18450	75	-56.9	-86.5	291	3	
2025-07-27T00:00	18500	75	-56.9	-86.6	291	3	
2025-07-27T00:00	18550	74	-57.0	-86.6	290	2	
2025-07-27T00:00	18600	74	-57.0	-86.6	287	1	
2025-07-27T00:00	18650	73	-56.8	-86.5	123	1	
2025-07-27T00:00	18700	72	-57.1	-86.6	123	2	
2025-07-27T00:00	18750	72	-57.2	-86.7	133	4	
2025-07-27T00:00	18800	71	-56.6	-86.7	145	5	
2025-07-27T00:00	18850	71	-55.8	-86.6	158	5	
2025-07-27T00:00	18900	70	-55.5	-86.5	173	4	
2025-07-27T00:00	18950	70	-55.7	-86.6	193	3	
2025-07-27T00:00	19000	69	-55.8	-86.7	222	3	
2025-07-27T00:00	19050	69	-55.7	-86.7	244	4	
2025-07-27T00:00	19100	68	-55.5	-86.6	251	4	
2025-07-27T00:00	19150	67	-55.7	-86.6	250	4	
2025-07-27T00:00	19200	67	-56.0	-86.6	248	4	
2025-07-27T00:00	19250	66	-56.0	-86.6	249	4	
2025-07-27T00:00	19300	66	-56.1	-86.6	252	3	
2025-07-27T00:00	19350	65	-56.0	-86.5	248	1	
2025-07-27T00:00	19400	65	-56.1	-86.5	126	1	
2025-07-27T00:00	19450	64	-56.1	-86.5	115	3	
2025-07-27T00:00	19500	64	-56.0	-86.4	120	4	
2025-07-27T00:00	19550	63	-56.0	-86.6	131	5	
2025-07-27T00:00	19600	63	-56.0	-86.7	143	5	
2025-07-27T00:00	19650	62	-56.2	-86.8	153	6	
2025-07-27T00:00	19700	62	-56.6	-87.0	158	6	
2025-07-27T00:00	19750	61	-56.3	-86.9	162	5	
2025-07-27T00:00	19800	61	-56.1	-86.9	170	4	
2025-07-27T00:00	19850	60	-56.4	-86.9	181	4	
2025-07-27T00:00	19900	60	-56.7	-86.9	193	4	
2025-07-27T00:00	19950	60	-57.1	-87.0	207	4	
2025-07-27T00:00	20000	59	-57.2	-87.2	223	4	
2025-07-27T00:00	20050	59	-56.9		236	2	
2025-07-27T00:00	20100	58	-56.7		218	1	
2025-07-27T00:00	20150	58	-56.6		144	2	
2025-07-27T00:00	20200	57	-56.5		138	3	
2025-07-27T00:00	20250	57	-56.3		152	3	
2025-07-27T00:00	20300	56	-56.2		176	3	
2025-07-27T00:00	20350	56	-56.1		195	3	
2025-07-27T00:00	20400	55	-56.0		210	1	
2025-07-27T00:00	20450	55	-55.6		342	1	
2025-07-27T00:00	20500	55	-55.2		358	2	
2025-07-27T00:00	20550	54	-55.4		7	2	
2025-07-27T00:00	20600	54	-55.3		33	2	
2025-07-27T00:00	20650	53	-55.1		78	2	
2025-07-27T00:00	20700	53	-55.0		110	3	
2025-07-27T00:00	20750	52	-55.3		128	4	
2025-07-27T00:00	20800	52	-55.4		138	5	
2025-07-27T00:00	20850	52	-55.2		142	5	
2025-07-27T00:00	20900	51	-55.0		141	4	
2025-07-27T00:00	20950	51	-54.8		139	4	
2025-07-27T00:00	21000	50	-54.5		140	2	
2025-07-27T00:00	21050	50	-54.3		157	1	
2025-07-27T00:00	21100	50	-54.4		312	1	
2025-07-27T00:00	21150	49	-54.3		348	2	
2025-07-27T00:00	21200	49	-54.2		35	2	
2025-07-27T00:00	21250	49	-54.1		67	3	
2025-07-27T00:00	21300	48	-53.9		86	5	
2025-07-27T00:00	21350	48	-53.9		98	6	
2025-07-27T00:00	21400	47	-54.0		104	6	
2025-07-27T00:00	21450	47	-54.1		103	6	
2025-07-27T00:00	21500	47	-54.0		97	5	
2025-07-27T00:00	21550	46	-54.2		92	5	
2025-07-27T00:00	21600	46	-54.2		95	5	
2025-07-27T00:00	21650	46	-54.1		105	5	
2025-07-27T00:00	21700	45	-53.9		113	5	
2025-07-27T00:00	21750	45	-53.9		113	5	
2025-07-27T00:00	21800	45	-53.9		103	5	
2025-07-27T00:00	21850	44	-53.7		86	5	
2025-07-27T00:00	21900	44	-53.9		71	4	
2025-07-27T00:00	21950	44	-54.0		58	4	
2025-07-27T00:00	22000	43	-54.3		52	5	
2025-07-27T00:00	22050	43	-54.4		55	6	
2025-07-27T00:00	22100	43	-54.2		64	7	
2025-07-27T00:00	22150	42	-54.3		74	7	
2025-07-27T00:00	22200	42	-54.5		85	7	
2025-07-27T00:00	22250	42	-54.5		98	7	
2025-07-27T00:00	22300	41	-54.6		111	6	
2025-07-27T00:00	22350	41	-54.6		120	6	
2025-07-27T00:00	22400	41	-54.5		121	6	
2025-07-27T00:00	22450	40	-54.4		119	6	
2025-07-27T00:00	22500	40	-54.1		118	6	
2025-07-27T00:00	22550	40	-54.1		115	5	
2025-07-27T00:00	22600	39	-54.0		106	5	
2025-07-27T00:00	22650	39	-53.9		98	6	
2025-07-27T00:00	22700	39	-54.0		94	6	
2025-07-27T00:00	22750	38	-53.9		93	6	
2025-07-27T00:00	22800	38	-53.9		93	5	
2025-07-27T00:00	22850	38	-53.9		90	6	
2025-07-27T00:00	22900	38	-54.0		88	7	
2025-07-27T00:00	22950	37	-54.3		87	8	
2025-07-27T00:00	23000	37	-54.5		88	9	
2025-07-27T00:00	23050	37	-54.5		88	9	
2025-07-27T00:00	23100	36	-54.6		87	10	
2025-07-27T00:00	23150	36	-54.8		86	10	
2025-07-27T00:00	23200	36	-54.8		88	9	
2025-07-27T00:00	23250	36	-54.9		92	8	
2025-07-27T00:00	23300	35	-55.0		99	8	
2025-07-27T00:00	23350	35	-55.0		109	7	
2025-07-27T00:00	23400	35	-54.9		117	8	
2025-07-27T00:00	23450	34	-55.1		122	8	
2025-07-27T00:00	23500	34	-55.2		123	7	
2025-07-27T00:00	23550	34	-55.1		120	7	
2025-07-27T00:00	23600	34	-55.1		112	7	
2025-07-27T00:00	23650	33	-55.1		103	7	
2025-07-27T00:00	23700	33	-55.1		95	8	
2025-07-27T00:00	23750	33	-55.4		89	8	
2025-07-27T00:00	23800	33	-55.5		84	9	
2025-07-27T00:00	23850	32	-55.3		85	10	
2025-07-27T00:00	23900	32	-55.0		90	10	
2025-07-27T00:00	23950	32	-54.6		99	10	
2025-07-27T00:00	24000	32	-54.3		109	10	
2025-07-27T00:00	24050	31	-53.9		117	10	
2025-07-27T00:00	24100	31	-53.5		122	10	
2025-07-27T00:00	24150	31	-53.1		126	10	
2025-07-27T00:00	24200	31	-52.8		129	9	
2025-07-27T00:00	24250	30	-52.7		132	8	
2025-07-27T00:00	24300	30	-52.5		135	6	
2025-07-27T00:00	24350	30	-52.6		138	5	
2025-07-27T00:00	24400	30	-52.5		132	4	
2025-07-27T00:00	24450	29	-52.4		99	3	
2025-07-27T00:00	24500	29	-52.0		76	5	
2025-07-27T00:00	24550	29	-51.5		68	7	
2025-07-27T00:00	24600	29	-51.2		69	8	
2025-07-27T00:00	24650	29	-51.1		75	9	
2025-07-27T00:00	24700	28	-51.0		85	10	
2025-07-27T00:00	24750	28	-50.9		94	10	
2025-07-27T00:00	24800	28	-50.9		99	10	
2025-07-27T00:00	24850	28	-50.5		96	9	
2025-07-27T00:00	24900	27	-50.5		88	8	
2025-07-27T00:00	24950	27	-50.5		80	8	
2025-07-27T00:00	25000	27	-50.5		79	9	
2025-07-27T00:00	25050	27	-50.3		83	10	
2025-07-27T00:00	25100	27	-50.1		86	10	
2025-07-27T00:00	25150	26	-49.8		87	10	
2025-07-27T00:00	25200	26	-49.6		86	9	
2025-07-27T00:00	25250	26	-49.5		84	9	
2025-07-27T00:00	25300	26	-49.7		81	9	
2025-07-27T00:00	25350	26	-49.7		78	9	
2025-07-27T00:00	25400	25	-49.6		76	10	
2025-07-27T00:00	25450	25	-49.6		78	11	
2025-07-27T00:00	25500	25	-49.5		82	13	
2025-07-27T00:00	25550	25	-49.4		90	13	
2025-07-27T00:00	25600	25	-49.2		97	13	
2025-07-27T00:00	25650	24	-48.8		102	13	
2025-07-27T00:00	25700	24	-48.4		102	13	
2025-07-27T00:00	25750	24	-47.9		100	13	
2025-07-27T00:00	25800	24	-47.2		100	13	
2025-07-27T00:00	25850	24	-46.9		105	13	
2025-07-27T00:00	25900	24	-46.8		109	13	
2025-07-27T00:00	25950	23	-47.1		111	12	
2025-07-27T00:00	26000	23	-47.0		111	12	
2025-07-27T00:00	26050	23	-47.0		111	12	
2025-07-27T00:00	26100	23	-46.8		112	12	
2025-07-27T00:00	26150	23	-46.4		114	11	
2025-07-27T00:00	26200	23	-46.5		116	10	
2025-07-27T00:00	26250	22	-46.6		114	9	
2025-07-27T00:00	26300	22	-46.8		108	8	
2025-07-27T00:00	26350	22	-46.9		102	9	
2025-07-27T00:00	26400	22	-46.7		98	9	
2025-07-27T00:00	26450	22	-46.5		94	10	
2025-07-27T00:00	26500	22	-46.4		93	11	
2025-07-27T00:00	26550	21	-46.6		95	12	
2025-07-27T00:00	26600	21	-46.8		100	13	
2025-07-27T00:00	26650	21	-46.8		104	14	
2025-07-27T00:00	26700	21	-47.0		108	15	
2025-07-27T00:00	26750	21	-47.3		111	15	
2025-07-27T00:00	26800	21	-47.6		113	14	
2025-07-27T00:00	26850	20	-47.6		114	12	
2025-07-27T00:00	26900	20	-47.4		110	10	
2025-07-27T00:00	26950	20	-47.4		101	9	
2025-07-27T00:00	27000	20	-47.2		89	8	
2025-07-27T00:00	27050	20	-47.0		80	9	
2025-07-27T00:00	27100	20	-47.1		75	10	
2025-07-27T00:00	27150	20	-47.1		76	10	
2025-07-27T00:00	27200	19	-47.1		79	10	
2025-07-27T00:00	27250	19	-47.3		81	11	
2025-07-27T00:00	27300	19	-47.5		81	11	
2025-07-27T00:00	27350	19	-47.5		80	11	
2025-07-27T00:00	27400	19	-47.5		81	12	
2025-07-27T00:00	27450	19	-47.6		84	12	
2025-07-27T00:00	27500	19	-47.7		85	11	
2025-07-27T00:00	27550	18	-47.7		83	11	
2025-07-27T00:00	27600	18	-47.6		80	11	
2025-07-27T00:00	27650	18	-47.8		77	11	
2025-07-27T00:00	27700	18	-47.8		76	12	
2025-07-27T00:00	27750	18	-47.8		74	12	
2025-07-27T00:00	27800	18	-47.8		73	13	
2025-07-27T00:00	27850	18	-47.9		74	13	
2025-07-27T00:00	27900	17	-47.8		77	13	
2025-07-27T00:00	27950	17	-47.5		82	13	
2025-07-27T00:00	28000	17	-47.6		88	13	
2025-07-27T00:00	28050	17	-47.8		96	13	
2025-07-27T00:00	28100	17	-47.9		102	13	
2025-07-27T00:00	28150	17	-47.7		103	12	
2025-07-27T00:00	28200	17	-47.1		98	12	
2025-07-27T00:00	28250	17	-46.6		91	12	
2025-07-27T00:00	28300	16	-46.5		85	12	
2025-07-27T00:00	28350	16	-46.4		81	13	
2025-07-27T00:00	28400	16	-45.8		80	14	
2025-07-27T00:00	28450	16	-45.6		80	14	
2025-07-27T00:00	28500	16	-45.7		84	14	
2025-07-27T00:00	28550	16	-45.6		89	15	
2025-07-27T00:00	28600	16	-45.8		96	15	
2025-07-27T00:00	28650	16	-46.0		103	16	
2025-07-27T00:00	28700	15	-46.1		109	16	
2025-07-27T00:00	28750	15	-46.1		113	15	
2025-07-27T00:00	28800	15	-46.0		115	14	
2025-07-27T00:00	28850	15	-45.8		116	14	
2025-07-27T00:00	28900	15	-45.9		116	13	
2025-07-27T00:00	28950	15	-45.4		117	13	
2025-07-27T00:00	29000	15	-45.1		120	13	
2025-07-27T00:00	29050	15	-44.8		124	12	
2025-07-27T00:00	29100	15	-44.5		126	10	
2025-07-27T00:00	29150	14	-43.9		125	10	
2025-07-27T00:00	29200	14	-43.5		121	9	
2025-07-27T00:00	29250	14	-43.4		116	8	
2025-07-27T00:00	29300	14	-43.4		116	8	
2025-07-27T00:00	29350	14	-43.4		121	7	
2025-07-27T00:00	29400	14	-43.2		124	7	
2025-07-27T00:00	29450	14	-43.0		117	7	
2025-07-27T00:00	29500	14	-42.6		103	8	
2025-07-27T00:00	29550	14	-42.5		94	8	
2025-07-27T00:00	29600	14	-42.2		91	9	
2025-07-27T00:00	29650	13	-42.2		93	9	
2025-07-27T00:00	29700	13	-42.0		94	9	
2025-07-27T00:00	29750	13	-41.8		91	9	
2025-07-27T00:00	29800	13	-41.6		86	10	
2025-07-27T00:00	29850	13	-41.4		82	11	
2025-07-27T00:00	29900	13	-41.2		80	11	
2025-07-27T00:00	29950	13	-41.2		78	12	
2025-07-27T00:00	30000	13	-41.2		77	13	
2025-07-27T00:00	30050	13	-41.1		77	14	
2025-07-27T00:00	30100	13	-41.0		78	14	
2025-07-27T00:00	30150	12	-41.0		81	14	
2025-07-27T00:00	30200	12	-40.9		85	14	
2025-07-27T00:00	30250	12	-40.7		90	13	
2025-07-27T00:00	30300	12	-40.8		93	12	
2025-07-27T00:00	30350	12	-41.0		93	12	
2025-07-27T00:00	30400	12	-41.1		91	12	
2025-07-27T00:00	30450	12	-40.7		88	13	
2025-07-27T00:00	30500	12	-40.5		86	15	
2025-07-27T00:00	30550	12	-40.4		87	16	
2025-07-27T00:00	30600	12	-40.4		90	16	
2025-07-27T00:00	30650	12	-40.5		92	16	
2025-07-27T00:00	30700	11	-40.5		93	16	
2025-07-27T00:00	30750	11	-40.6		94	16	
2025-07-27T00:00	30800	11	-40.7		97	16	
2025-07-27T00:00	30850	11	-40.8		99	16	
2025-07-27T00:00	30900	11	-40.6		101	15	
2025-07-27T00:00	30950	11	-40.5		101	15	
2025-07-27T00:00	31000	11	-40.7		99	14	
2025-07-27T00:00	31050	11	-40.8		97	13	
2025-07-27T00:00	31100	11	-40.8		96	14	
2025-07-27T00:00	31150	11	-40.7		98	15	
2025-07-27T00:00	31200	11	-40.5		101	16	
2025-07-27T00:00	31250	11	-40.4		102	15	
2025-07-27T00:00	31300	11	-40.2		102	14	
2025-07-27T00:00	31350	10	-40.0		101	14	
2025-07-27T00:00	31400	10	-40.0		99	13	
2025-07-27T00:00	31450	10	-40.1		100	14	
2025-07-27T00:00	31500	10	-40.1		102	15	
2025-07-27T00:00	31550	10	-40.3		105	16	
2025-07-27T00:00	31600	10	-40.2		108	17	
2025-07-27T00:00	31650	10	-40.3		109	17	
2025-07-27T00:00	31700	10	-40.5		107	15	
2025-07-27T00:00	31750	10	-40.0		103	14	
2025-07-27T00:00	31800	10	-39.6		97	13	
2025-07-27T00:00	31850	10	-39.5		92	12	
2025-07-27T00:00	31900	10	-39.4		90	13	
2025-07-27T00:00	31950	10	-39.3		89	14	
2025-07-27T00:00	32000	9	-39.2		85	15	
2025-07-27T00:00	32050	9	-38.9		80	16	
2025-07-27T00:00	32100	9	-38.5		77	16	
2025-07-27T00:00	32150	9	-38.2		76	16	
2025-07-27T00:00	32200	9	-38.2		78	16	
2025-07-27T00:00	32250	9	-38.1		81	16	
2025-07-27T00:00	32300	9	-38.0		82	16	
2025-07-27T00:00	32350	9	-37.8		83	16	
2025-07-27T00:00	32400	9	-37.7		83	15	
2025-07-27T00:00	32450	9	-37.8		82	14	
2025-07-27T00:00	32500	9	-37.7		80	13	
2025-07-27T00:00	32550	9	-37.5		77	12	
2025-07-27T00:00	32600	9	-37.3		75	13	
2025-07-27T00:00	32650	9	-37.3		72	13	
2025-07-27T00:00	32700	9	-37.2		70	15	
2025-07-27T00:00	32750	9	-37.4		71	16	
2025-07-27T00:00	32800	8	-37.5		72	17	
2025-07-27T00:00	32850	8	-37.7		75	18	
2025-07-27T00:00	32900	8	-37.7		78	17	
2025-07-27T00:00	32950	8	-37.8		80	17	
2025-07-27T00:00	33000	8	-38.0		83	16	
2025-07-27T00:00	33050	8	-38.2		83	16	
2025-07-27T00:00	33100	8	-38.1		83	15	
2025-07-27T00:00	33150	8	-37.8		84	14	
2025-07-27T00:00	33200	8	-37.8		85	14	
2025-07-27T00:00	33250	8	-37.9		84	14	
2025-07-27T00:00	33300	8	-37.9		83	14	
2025-07-27T00:00	33350	8	-37.6		80	15	
2025-07-27T00:00	33400	8	-37.5		79	16	
2025-07-27T00:00	33450	8	-37.3		77	16	
2025-07-27T00:00	33500	8	-37.2		76	16	
2025-07-27T00:00	33550	8	-37.4		73	17	
2025-07-27T00:00	33600	8	-37.3		72	18	
2025-07-27T00:00	33650	7	-37.4		70	18	
2025-07-27T00:00	33700	7	-37.4		70	18	
2025-07-27T00:00	33750	7	-37.3		70	18	
2025-07-27T00:00	33800	7	-37.0		71	18	
2025-07-27T00:00	33850	7	-36.6		72	18	
2025-07-27T00:00	33900	7	-36.2		71	18	
2025-07-27T00:00	33950	7	-35.9		69	16	
2025-07-27T00:00	34000	7	-36.0		67	16	
2025-07-27T00:00	34050	7	-36.0		69	16	
2025-07-27T00:00	34100	7	-36.2		73	17	
2025-07-27T00:00	34150	7	-36.3		77	18	
2025-07-27T00:00	34200	7	-35.6		82	20	
2025-07-27T00:00	34250	7	-35.0		86	21	
2025-07-27T00:00	34300	7	-35.3		89	21	
2025-07-27T00:00	34350	7	-35.4		89	20	
2025-07-27T00:00	34400	7	-35.2		87	19	
2025-07-27T00:00	34450	7	-35.3		84	17	
2025-07-27T00:00	34500	7	-35.2		83	16	
2025-07-27T00:00	34550	7	-34.9		82	16	
2025-07-27T00:00	34600	7	-34.8		80	17	
2025-07-27T00:00	34650	6	-34.5		79	18	
2025-07-27T00:00	34700	6	-34.3		78	19	
2025-07-27T00:00	34750	6	-34.2		78	18	
2025-07-27T00:00	34800	6	-34.4		78	17	
2025-07-27T00:00	34850	6	-34.7		77	16	
2025-07-27T00:00	34900	6	-34.7		75	15	
2025-07-27T00:00	34950	6	-34.5		72	14	
2025-07-27T00:00	35000	6	-34.3		69	14	
2025-07-27T00:00	35050	6	-34.3		68	15	
2025-07-27T00:00	35100	6	-34.0		68	16	
2025-07-27T00:00	35150	6	-33.8		68	16	
2025-07-27T00:00	35200	6	-33.5		69	16	
2025-07-27T00:00	35250	6	-33.7		70	15	
2025-07-27T00:00	35300	6	-33.8		71	16	
2025-07-27T00:00	35350	6	-33.8		69	16	
2025-07-27T00:00	35400	6	-33.4		67	18	
2025-07-27T00:00	35450	6	-33.0		70	19	
2025-07-27T00:00	35500	6	-32.5		75	21	
2025-07-27T00:00	35550	6	-31.8		79	22	
2025-07-27T00:00	35600	6	-31.9		81	22	
2025-07-27T00:00	35650	6	-31.9		81	22	
2025-07-27T00:00	35700	6	-31.5		82	22	
2025-07-27T00:00	35750	6	-31.4		82	22	
2025-07-27T00:00	35800	5	-30.8		85	21	
2025-07-27T00:00	35850	5	-30.2		87	21	
2025-07-27T00:00	35900	5	-29.9		88	21	
2025-07-27T00:00	35950	5	-30.2		88	21	
2025-07-27T00:00	36000	5	-30.4		86	21	
2025-07-27T00:00	36050	5	-30.1		84	21	
2025-07-27T00:00	36100	5	-30.0		83	22	
2025-07-27T00:00	36150	5	-29.7		82	22	
2025-07-27T00:00	36200	5	-29.6		81	23	
2025-07-27T00:00	36250	5	-29.6		79	23	
2025-07-27T00:00	36300	5	-29.7		78	24	
2025-07-27T00:00	36350	5	-29.7		77	25	
2025-07-27T00:00	36400	5	-29.7		78	25	
2025-07-27T00:00	36450	5	-29.9		78	25	
2025-07-27T00:00	36500	5	-30.1		79	25	
2025-07-27T00:00	36550	5	-30.2		78	24	
2025-07-27T00:00	36600	5	-30.1		75	24	
2025-07-27T00:00	36650	5	-29.7		71	23	
2025-07-27T00:00	36700	5	-29.3		67	23	
2025-07-27T00:00	36750	5	-28.9		65	24	
2025-07-27T00:00	36800	5	-28.4		65	25	
2025-07-27T00:00	36850	5	-28.2		68	26	
2025-07-27T00:00	36900	5	-27.9		72	28	
2025-07-27T00:00	36950	5	-27.9		77	29	
2025-07-27T00:00	37000	5	-27.7		82	31	
2025-07-27T00:00	37050	5	-27.4		86	31	
2025-07-27T00:00	37100	5	-27.6		89	32	
2025-07-27T00:00	37150	5	-27.7		92	31	
2025-07-27T00:00	37200	5	-27.5		93	30	
2025-07-27T00:00	37250	4	-27.3		94	29	
2025-07-27T00:00	37300	4	-27.2		94	27	
2025-07-27T00:00	37350	4	-26.9		93	26	
2025-07-27T00:00	37400	4	-26.7		92	25	
2025-07-27T00:00	37450	4	-26.4		93	25	
2025-07-27T00:00	37500	4	-26.0		95	25	
2025-07-27T00:00	37550	4	-26.0		96	25	
2025-07-27T00:00	37600	4	-25.8		96	25	
2025-07-27T00:00	37650	4	-25.3		94	25	
2025-07-27T00:00	37700	4	-25.1		92	25	
2025-07-27T00:00	37750	4	-25.0		89	26	
2025-07-27T00:00	37800	4	-24.8		87	26	
2025-07-27T00:00	37850	4	-24.4		86	26	
2025-07-27T00:00	37900	4	-24.1		85	26	
2025-07-27T00:00	37950	4	-23.9		86	26	
2025-07-27T00:00	38000	4	-23.9		88	26	
2025-07-27T00:00	38050	4	-23.8		90	26	
2025-07-27T00:00	38100	4	-23.8		93	25	
2025-07-27T00:00	38150	4	-23.7		94	25	
2025-07-27T00:00	38200	4	-23.9		95	25	
2025-07-27T00:00	38250	4	-23.8		94	25	
2025-07-27T00:00	38300	4	-23.6		94	26	
2025-07-27T00:00	38350	4	-23.6		93	26	
2025-07-27T00:00	38400	4	-23.7		91	27	
2025-07-27T00:00	38450	4	-23.6		90	27	
2025-07-27T00:00	38500	4	-23.4		90	27	
2025-07-27T00:00	38550	4	-23.3		89	26	
2025-07-27T00:00	38600	4	-23.0		89	24	
2025-07-27T00:00	38650	4	-22.4		89	23	
2025-07-27T00:00	38700	4	-22.2		90	24	
2025-07-27T00:00	38750	4	-22.0		90	25	
2025-07-27T00:00	38800	4	-22.0		90	27	
2025-07-27T00:00	38850	4	-21.8		91	28	
2025-07-27T00:00	38900	4	-21.5		91	28	
2025-07-27T00:00	38950	4	-21.2		94	28	
2025-07-27T00:00	39000	4	-20.9		97	29	
2025-07-27T12:00	491	958	21.3	14.7	242	6	
2025-07-27T12:00	501	957	20.6	15.0	245	4	
2025-07-27T12:00	520	955	20.2	14.2	247	4	
2025-07-27T12:00	540	953	20.0	13.2	249	5	
2025-07-27T12:00	560	950	19.9	12.6	253	6	
2025-07-27T12:00	580	948	19.9	12.3	258	6	
2025-07-27T12:00	600	946	19.7	12.2	265	5	
2025-07-27T12:00	620	944	19.5	12.2	272	5	
2025-07-27T12:00	640	942	19.3	12.2	276	5	
2025-07-27T12:00	660	940	19.2	11.9	274	5	
2025-07-27T12:00	680	937	18.9	12.0	267	5	
2025-07-27T12:00	700	935	18.8	11.8	258	5	
2025-07-27T12:00	720	933	18.6	11.7	252	6	
2025-07-27T12:00	740	931	18.4	11.7	249	6	
2025-07-27T12:00	760	929	18.3	11.5	247	7	
2025-07-27T12:00	780	927	18.1	11.6	245	7	
2025-07-27T12:00	800	925	18.0	11.9	244	6	
2025-07-27T12:00	820	922	17.8	11.8	243	6	
2025-07-27T12:00	840	920	17.6	11.7	244	6	
2025-07-27T12:00	860	918	17.4	11.5	245	6	
2025-07-27T12:00	880	916	17.4	10.5	245	5	
2025-07-27T12:00	900	914	17.3	9.9	243	5	
2025-07-27T12:00	920	911	17.3	8.5	241	6	
2025-07-27T12:00	940	909	17.1	8.5	240	6	
2025-07-27T12:00	960	907	16.9	8.6	241	6	
2025-07-27T12:00	980	905	16.7	8.8	246	7	
2025-07-27T12:00	1000	903	16.5	8.4	252	7	
2025-07-27T12:00	1020	901	16.4	8.3	258	8	
2025-07-27T12:00	1040	899	16.2	8.3	260	8	
2025-07-27T12:00	1060	897	16.1	8.2	257	8	
2025-07-27T12:00	1080	895	15.9	8.1	253	8	
2025-07-27T12:00	1100	892	15.7	8.0	250	8	
2025-07-27T12:00	1120	890	15.5	8.0	248	7	
2025-07-27T12:00	1140	888	15.3	8.0	246	7	
2025-07-27T12:00	1160	886	15.2	7.9	245	7	
2025-07-27T12:00	1180	884	15.0	7.9	245	7	
2025-07-27T12:00	1200	882	14.9	7.9	246	8	
2025-07-27T12:00	1220	880	14.7	7.9	247	8	
2025-07-27T12:00	1240	878	14.5	7.8	248	8	
2025-07-27T12:00	1260	876	14.4	7.8	248	8	
2025-07-27T12:00	1280	874	14.2	7.7	248	8	
2025-07-27T12:00	1300	872	14.0	7.7	247	8	
2025-07-27T12:00	1320	870	13.8	7.6	247	8	
2025-07-27T12:00	1340	867	13.6	7.6	246	7	
2025-07-27T12:00	1360	866	13.5	7.6	246	7	
2025-07-27T12:00	1380	863	13.3	7.4	245	7	
2025-07-27T12:00	1400	861	13.1	7.4	244	7	
2025-07-27T12:00	1420	859	12.9	7.3	243	8	
2025-07-27T12:00	1440	857	12.8	7.3	242	8	
2025-07-27T12:00	1460	855	12.6	7.2	242	8	
2025-07-27T12:00	1480	853	12.5	7.2	242	8	
2025-07-27T12:00	1500	851	12.3	7.1	243	8	
2025-07-27T12:00	1520	849	12.1	7.0	243	7	
2025-07-27T12:00	1540	847	11.9	7.0	242	7	
2025-07-27T12:00	1560	845	11.7	7.1	240	7	
2025-07-27T12:00	1580	843	11.6	7.0	239	7	
2025-07-27T12:00	1600	841	11.4	6.9	239	7	
2025-07-27T12:00	1620	839	11.2	6.9	241	7	
2025-07-27T12:00	1640	837	11.0	6.6	243	7	
2025-07-27T12:00	1660	835	10.9	6.0	244	7	
2025-07-27T12:00	1680	833	10.7	6.1	244	7	
2025-07-27T12:00	1700	831	10.5	6.3	243	7	
2025-07-27T12:00	1720	829	10.3	6.5	243	8	
2025-07-27T12:00	1740	827	10.1	6.5	243	8	
2025-07-27T12:00	1760	825	9.9	6.5	244	8	
2025-07-27T12:00	1780	823	9.8	6.4	245	8	
2025-07-27T12:00	1800	821	9.6	6.5	246	8	
2025-07-27T12:00	1820	819	9.4	6.6	246	8	
2025-07-27T12:00	1840	817	9.2	6.6	246	8	
2025-07-27T12:00	1860	815	9.1	6.4	245	8	
2025-07-27T12:00	1880	813	8.9	6.2	244	8	
2025-07-27T12:00	1900	811	8.7	6.1	245	8	
2025-07-27T12:00	1920	809	8.5	5.9	247	8	
2025-07-27T12:00	1940	807	8.3	5.8	249	8	
2025-07-27T12:00	1960	806	8.3	5.4	252	8	
2025-07-27T12:00	1980	804	8.2	5.2	253	7	
2025-07-27T12:00	2000	802	8.0	4.9	252	7	
2025-07-27T12:00	2020	800	7.9	4.6	251	7	
2025-07-27T12:00	2040	798	7.7	4.5	249	7	
2025-07-27T12:00	2060	796	7.5	3.9	249	7	
2025-07-27T12:00	2080	794	7.5	2.4	250	7	
2025-07-27T12:00	2100	792	7.3	2.3	252	8	
2025-07-27T12:00	2120	790	7.1	2.3	253	8	
2025-07-27T12:00	2140	788	7.0	2.2	254	8	
2025-07-27T12:00	2160	786	6.9	2.2	253	8	
2025-07-27T12:00	2180	784	6.7	2.1	252	8	
2025-07-27T12:00	2200	782	6.5	2.1	252	8	
2025-07-27T12:00	2220	780	6.4	2.2	251	8	
2025-07-27T12:00	2240	779	6.3	2.1	250	8	
2025-07-27T12:00	2260	777	6.1	2.5	248	8	
2025-07-27T12:00	2280	775	5.9	3.6	246	7	
2025-07-27T12:00	2300	773	5.8	2.8	243	7	
2025-07-27T12:00	2320	771	6.0	0.6	242	7	
2025-07-27T12:00	2340	769	5.9	0.9	241	7	
2025-07-27T12:00	2360	767	5.8	0.8	241	7	
2025-07-27T12:00	2380	765	5.6	0.8	242	7	
2025-07-27T12:00	2400	763	5.5	0.8	245	7	
2025-07-27T12:00	2420	762	5.3	0.7	249	7	
2025-07-27T12:00	2440	760	5.3	0.3	253	6	
2025-07-27T12:00	2460	758	5.1	0.4	257	6	
2025-07-27T12:00	2480	756	4.9	0.4	260	6	
2025-07-27T12:00	2500	754	4.8	0.4	259	6	
2025-07-27T12:00	2520	752	4.8	0.3	256	6	
2025-07-27T12:00	2540	751	4.8	0.3	252	6	
2025-07-27T12:00	2560	749	4.6	0.3	250	6	
2025-07-27T12:00	2580	747	4.5	0.3	247	7	
2025-07-27T12:00	2600	745	4.3	0.2	245	7	
2025-07-27T12:00	2620	743	4.1	0.3	244	7	
2025-07-27T12:00	2640	741	3.9	0.2	244	7	
2025-07-27T12:00	2660	739	3.7	0.1	244	7	
2025-07-27T12:00	2680	738	3.6	0.0	244	7	
2025-07-27T12:00	2700	736	3.5	-0.1	243	7	
2025-07-27T12:00	2720	734	3.4	-0.2	242	7	
2025-07-27T12:00	2740	732	3.2	-0.2	241	7	
2025-07-27T12:00	2760	730	2.9	-0.3	240	7	
2025-07-27T12:00	2780	729	2.8	-0.2	240	7	
2025-07-27T12:00	2800	727	2.7	-0.2	240	7	
2025-07-27T12:00	2820	725	2.6	-0.2	240	7	
2025-07-27T12:00	2840	723	2.4	-0.2	240	7	
2025-07-27T12:00	2860	722	2.2	-0.3	241	7	
2025-07-27T12:00	2880	720	2.1	-0.3	241	6	
2025-07-27T12:00	2900	718	1.9	-0.3	241	6	
2025-07-27T12:00	2920	716	1.6	-0.4	240	6	
2025-07-27T12:00	2940	714	1.5	-0.4	240	6	
2025-07-27T12:00	2960	713	1.3	-0.4	239	6	
2025-07-27T12:00	2980	711	1.1	-0.4	239	6	
2025-07-27T12:00	3000	709	1.0	-0.4	239	6	
2025-07-27T12:00	3020	707	0.9	-0.6	238	7	
2025-07-27T12:00	3040	706	0.8	-0.6	238	7	
2025-07-27T12:00	3060	704	0.7	-0.8	238	7	
2025-07-27T12:00	3080	702	0.6	-0.9	237	7	
2025-07-27T12:00	3100	700	0.5	-1.5	236	8	
2025-07-27T12:00	3120	699	0.4	-1.6	235	8	
2025-07-27T12:00	3140	697	0.2	-2.0	234	8	
2025-07-27T12:00	3160	695	0.1	-2.2	233	7	
2025-07-27T12:00	3180	693	0.0	-2.8	232	7	
2025-07-27T12:00	3200	692	-0.1	-2.8	232	7	
2025-07-27T12:00	3220	690	-0.2	-2.8	232	7	
2025-07-27T12:00	3240	688	-0.3	-3.2	234	7	
2025-07-27T12:00	3260	686	-0.4	-3.4	236	7	
2025-07-27T12:00	3280	685	-0.5	-3.5	238	8	
2025-07-27T12:00	3300	683	-0.6	-3.5	240	8	
2025-07-27T12:00	3320	681	-0.8	-3.6	241	8	
2025-07-27T12:00	3340	680	-0.8	-3.6	241	8	
2025-07-27T12:00	3360	678	-0.6	-3.8	242	8	
2025-07-27T12:00	3380	676	-0.8	-3.8	243	8	
2025-07-27T12:00	3400	675	-1.0	-3.8	244	8	
2025-07-27T12:00	3420	673	-1.1	-3.8	246	8	
2025-07-27T12:00	3440	671	-1.2	-4.1	248	8	
2025-07-27T12:00	3460	670	-1.0	-4.4	250	8	
2025-07-27T12:00	3480	668	-1.2	-4.4	251	8	
2025-07-27T12:00	3500	666	-1.4	-4.3	253	8	
2025-07-27T12:00	3520	665	-1.6	-4.4	254	8	
2025-07-27T12:00	3540	663	-1.8	-4.5	255	8	
2025-07-27T12:00	3560	661	-2.0	-4.5	257	8	
2025-07-27T12:00	3580	659	-2.1	-4.6	258	7	
2025-07-27T12:00	3600	658	-2.3	-4.5	260	7	
2025-07-27T12:00	3620	656	-2.4	-4.4	262	7	
2025-07-27T12:00	3640	655	-2.5	-4.5	264	7	
2025-07-27T12:00	3660	653	-2.5	-4.5	266	7	
2025-07-27T12:00	3680	651	-2.7	-4.6	268	6	
2025-07-27T12:00	3700	650	-2.7	-4.6	269	6	
2025-07-27T12:00	3720	648	-2.8	-4.7	271	6	
2025-07-27T12:00	3740	646	-2.9	-4.8	273	6	
2025-07-27T12:00	3760	645	-3.1	-4.8	274	5	
2025-07-27T12:00	3780	643	-3.2	-4.8	275	5	
2025-07-27T12:00	3800	642	-3.4	-4.8	276	5	
2025-07-27T12:00	3820	640	-3.5	-4.9	276	5	
2025-07-27T12:00	3840	638	-3.7	-4.9	277	5	
2025-07-27T12:00	3860	637	-3.8	-5.0	277	5	
2025-07-27T12:00	3880	635	-4.0	-5.1	278	5	
2025-07-27T12:00	3900	633	-4.1	-5.3	279	5	
2025-07-27T12:00	3920	632	-4.3	-5.3	280	5	
2025-07-27T12:00	3940	630	-4.4	-5.6	280	5	
2025-07-27T12:00	3960	629	-4.6	-5.6	279	5	
2025-07-27T12:00	3980	627	-4.7	-5.9	277	5	
2025-07-27T12:00	4000	625	-4.8	-6.2	275	5	
2025-07-27T12:00	4020	624	-4.8	-6.5	273	5	
2025-07-27T12:00	4040	622	-4.8	-6.7	271	5	
2025-07-27T12:00	4060	621	-4.8	-7.0	268	5	
2025-07-27T12:00	4080	619	-4.9	-7.1	267	5	
2025-07-27T12:00	4100	618	-5.1	-7.1	266	5	
2025-07-27T12:00	4120	616	-5.2	-7.2	266	5	
2025-07-27T12:00	4140	614	-5.4	-7.4	268	5	
2025-07-27T12:00	4160	613	-5.7	-7.5	269	5	
2025-07-27T12:00	4180	611	-5.8	-7.7	271	5	
2025-07-27T12:00	4200	610	-6.0	-7.8	272	5	
2025-07-27T12:00	4220	608	-6.1	-7.8	273	5	
2025-07-27T12:00	4240	607	-6.2	-7.9	275	5	
2025-07-27T12:00	4260	605	-6.4	-8.1	275	6	
2025-07-27T12:00	4280	604	-6.6	-8.2	276	6	
2025-07-27T12:00	4300	602	-6.9	-8.4	276	6	
2025-07-27T12:00	4320	600	-7.1	-8.3	276	7	
2025-07-27T12:00	4340	599	-7.3	-8.4	276	7	
2025-07-27T12:00	4360	597	-7.4	-8.8	276	7	
2025-07-27T12:00	4380	596	-7.5	-9.3	275	7	
2025-07-27T12:00	4400	594	-7.6	-9.9	274	7	
2025-07-27T12:00	4420	593	-7.8	-10.0	272	7	
2025-07-27T12:00	4440	591	-7.9	-10.4	271	7	
2025-07-27T12:00	4460	590	-8.0	-10.7	269	6	
2025-07-27T12:00	4480	588	-8.1	-10.8	268	6	
2025-07-27T12:00	4500	587	-8.3	-10.9	266	6	
2025-07-27T12:00	4520	585	-8.4	-11.2	266	6	
2025-07-27T12:00	4540	584	-8.6	-11.4	266	6	
2025-07-27T12:00	4560	582	-8.7	-11.4	267	6	
2025-07-27T12:00	4580	581	-8.9	-11.7	268	6	
2025-07-27T12:00	4600	579	-9.1	-11.7	269	6	
2025-07-27T12:00	4620	578	-9.3	-11.6	269	7	
2025-07-27T12:00	4640	576	-9.5	-11.7	270	7	
2025-07-27T12:00	4660	575	-9.7	-11.8	270	7	
2025-07-27T12:00	4680	573	-9.8	-12.1	271	7	
2025-07-27T12:00	4700	572	-9.9	-12.1	272	7	
2025-07-27T12:00	4720	570	-10.1	-12.1	274	7	
2025-07-27T12:00	4740	569	-10.2	-11.8	276	7	
2025-07-27T12:00	4760	567	-10.4	-11.9	279	7	
2025-07-27T12:00	4780	566	-10.6	-12.0	281	7	
2025-07-27T12:00	4800	565	-10.7	-12.0	283	7	
2025-07-27T12:00	4820	563	-10.9	-12.1	285	7	
2025-07-27T12:00	4840	562	-10.9	-12.1	287	7	
2025-07-27T12:00	4860	560	-11.0	-12.1	288	7	
2025-07-27T12:00	4880	559	-11.2	-11.8	289	7	
2025-07-27T12:00	4900	557	-11.3	-12.1	289	7	
2025-07-27T12:00	4920	556	-11.3	-13.0	290	7	
2025-07-27T12:00	4940	554	-11.3	-13.2	290	8	
2025-07-27T12:00	4960	553	-11.4	-13.9	291	8	
2025-07-27T12:00	4980	551	-11.5	-13.9	292	9	
2025-07-27T12:00	5000	550	-11.5	-14.1	293	9	
2025-07-27T12:00	5020	549	-11.2	-15.4	294	9	
2025-07-27T12:00	5040	547	-11.0	-15.7	295	9	
2025-07-27T12:00	5060	546	-11.0	-17.3	294	8	
2025-07-27T12:00	5080	544	-11.1	-19.1	292	8	
2025-07-27T12:00	5100	543	-11.3	-19.3	291	8	
2025-07-27T12:00	5120	541	-11.4	-19.3	289	8	
2025-07-27T12:00	5140	540	-11.6	-19.2	288	8	
2025-07-27T12:00	5160	539	-11.8	-19.7	289	8	
2025-07-27T12:00	5180	537	-12.0	-19.0	291	8	
2025-07-27T12:00	5200	536	-12.2	-19.1	293	7	
2025-07-27T12:00	5220	534	-12.3	-19.4	296	7	
2025-07-27T12:00	5240	533	-12.4	-19.9	298	7	
2025-07-27T12:00	5260	531	-12.5	-20.1	300	7	
2025-07-27T12:00	5280	530	-12.7	-20.0	300	7	
2025-07-27T12:00	5300	529	-12.7	-19.9	300	7	
2025-07-27T12:00	5320	527	-12.9	-20.3	299	7	
2025-07-27T12:00	5340	526	-13.1	-20.5	299	7	
2025-07-27T12:00	5360	525	-13.2	-20.5	299	6	
2025-07-27T12:00	5380	523	-13.4	-20.5	300	6	
2025-07-27T12:00	5400	522	-13.5	-20.0	301	6	
2025-07-27T12:00	5420	520	-13.7	-19.9	301	6	
2025-07-27T12:00	5440	519	-13.8	-20.0	300	5	
2025-07-27T12:00	5460	518	-14.0	-20.4	297	5	
2025-07-27T12:00	5480	516	-14.2	-19.9	294	5	
2025-07-27T12:00	5500	515	-14.3	-18.9	291	5	
2025-07-27T12:00	5520	514	-14.5	-19.0	288	5	
2025-07-27T12:00	5540	512	-14.7	-18.0	287	5	
2025-07-27T12:00	5560	511	-14.9	-17.9	287	5	
2025-07-27T12:00	5580	510	-15.1	-17.8	288	5	
2025-07-27T12:00	5600	508	-15.1	-17.5	289	5	
2025-07-27T12:00	5620	507	-15.1	-17.1	290	6	
2025-07-27T12:00	5640	506	-15.2	-17.1	292	6	
2025-07-27T12:00	5660	504	-15.2	-17.1	295	7	
2025-07-27T12:00	5680	503	-15.3	-17.3	298	8	
2025-07-27T12:00	5700	502	-15.3	-17.4	301	9	
2025-07-27T12:00	5720	500	-15.5	-17.5	303	9	
2025-07-27T12:00	5740	499	-15.6	-17.6	304	9	
2025-07-27T12:00	5760	498	-15.8	-17.7	305	9	
2025-07-27T12:00	5780	496	-15.9	-17.8	305	9	
2025-07-27T12:00	5800	495	-16.0	-17.8	305	9	
2025-07-27T12:00	5820	494	-16.1	-17.6	304	9	
2025-07-27T12:00	5840	492	-16.3	-17.4	303	9	
2025-07-27T12:00	5860	491	-16.4	-17.4	302	8	
2025-07-27T12:00	5880	490	-16.4	-17.6	301	8	
2025-07-27T12:00	5900	489	-16.4	-17.5	299	9	
2025-07-27T12:00	5920	487	-16.1	-17.8	298	9	
2025-07-27T12:00	5940	486	-16.1	-18.0	296	9	
2025-07-27T12:00	5960	485	-16.2	-18.1	295	10	
2025-07-27T12:00	5980	483	-16.3	-18.4	295	10	
2025-07-27T12:00	6000	482	-16.3	-18.6	294	10	
2025-07-27T12:00	6020	481	-16.3	-19.0	294	10	
2025-07-27T12:00	6040	479	-16.5	-19.0	294	10	
2025-07-27T12:00	6060	478	-16.6	-18.9	295	9	
2025-07-27T12:00	6080	477	-16.7	-19.0	296	9	
2025-07-27T12:00	6100	476	-16.9	-19.0	298	9	
2025-07-27T12:00	6120	474	-17.1	-19.2	300	9	
2025-07-27T12:00	6140	473	-17.2	-19.6	301	9	
2025-07-27T12:00	6160	472	-17.3	-19.4	301	9	
2025-07-27T12:00	6180	471	-17.5	-19.6	301	9	
2025-07-27T12:00	6200	469	-17.6	-19.9	302	9	
2025-07-27T12:00	6220	468	-17.7	-20.4	304	8	
2025-07-27T12:00	6240	467	-17.8	-20.5	306	8	
2025-07-27T12:00	6260	466	-17.9	-20.9	309	8	
2025-07-27T12:00	6280	464	-17.9	-21.8	311	8	
2025-07-27T12:00	6300	463	-17.9	-22.1	313	9	
2025-07-27T12:00	6320	462	-18.0	-22.2	313	9	
2025-07-27T12:00	6340	461	-18.2	-22.2	313	9	
2025-07-27T12:00	6360	459	-18.4	-22.3	312	10	
2025-07-27T12:00	6380	458	-18.5	-22.7	310	10	
2025-07-27T12:00	6400	457	-18.4	-23.6	309	11	
2025-07-27T12:00	6420	456	-18.2	-24.3	308	11	
2025-07-27T12:00	6440	455	-18.4	-24.2	306	11	
2025-07-27T12:00	6460	453	-18.5	-24.2	305	12	
2025-07-27T12:00	6480	452	-18.6	-24.2	305	12	
2025-07-27T12:00	6500	451	-18.8	-24.1	304	12	
2025-07-27T12:00	6520	450	-19.0	-24.2	303	12	
2025-07-27T12:00	6540	448	-19.2	-24.2	302	12	
2025-07-27T12:00	6560	447	-19.4	-24.3	302	12	
2025-07-27T12:00	6580	446	-19.6	-24.4	301	12	
2025-07-27T12:00	6600	445	-19.7	-24.5	300	12	
2025-07-27T12:00	6620	444	-19.9	-24.4	299	12	
2025-07-27T12:00	6640	442	-20.1	-24.7	299	12	
2025-07-27T12:00	6660	441	-20.3	-24.7	298	13	
2025-07-27T12:00	6680	440	-20.5	-24.5	299	13	
2025-07-27T12:00	6700	439	-20.7	-24.6	299	13	
2025-07-27T12:00	6720	438	-20.9	-24.8	300	14	
2025-07-27T12:00	6740	436	-21.1	-24.9	301	14	
2025-07-27T12:00	6760	435	-21.3	-24.8	302	15	
2025-07-27T12:00	6780	434	-21.4	-24.9	302	15	
2025-07-27T12:00	6800	433	-21.6	-24.9	302	15	
2025-07-27T12:00	6820	432	-21.8	-25.1	301	15	
2025-07-27T12:00	6840	431	-22.0	-25.3	300	15	
2025-07-27T12:00	6860	430	-22.1	-25.4	299	15	
2025-07-27T12:00	6880	428	-22.2	-25.6	298	15	
2025-07-27T12:00	6900	427	-22.4	-25.7	296	15	
2025-07-27T12:00	6920	426	-22.5	-26.5	295	15	
2025-07-27T12:00	6940	425	-22.5	-27.1	294	15	
2025-07-27T12:00	6960	424	-22.7	-27.2	292	16	
2025-07-27T12:00	6980	422	-22.9	-27.7	290	16	
2025-07-27T12:00	7000	421	-22.9	-28.2	289	16	
2025-07-27T12:00	7020	420	-23.1	-28.5	287	17	
2025-07-27T12:00	7040	419	-23.1	-29.8	286	17	
2025-07-27T12:00	7060	418	-23.2	-30.0	285	18	
2025-07-27T12:00	7080	417	-23.3	-30.1	284	18	
2025-07-27T12:00	7100	416	-23.4	-30.4	283	18	
2025-07-27T12:00	7120	414	-23.6	-30.3	282	19	
2025-07-27T12:00	7140	413	-23.7	-30.1	282	19	
2025-07-27T12:00	7160	412	-23.9	-30.1	281	19	
2025-07-27T12:00	7180	411	-24.1	-30.1	281	19	
2025-07-27T12:00	7200	410	-24.2	-30.1	281	19	
2025-07-27T12:00	7220	409	-24.4	-30.1	281	20	
2025-07-27T12:00	7240	408	-24.5	-30.2	281	20	
2025-07-27T12:00	7260	407	-24.8	-30.1	281	20	
2025-07-27T12:00	7280	405	-24.9	-30.2	281	20	
2025-07-27T12:00	7300	404	-25.1	-30.4	281	19	
2025-07-27T12:00	7320	403	-25.3	-30.4	280	19	
2025-07-27T12:00	7340	402	-25.4	-30.4	279	19	
2025-07-27T12:00	7360	401	-25.6	-30.6	279	19	
2025-07-27T12:00	7380	400	-25.8	-31.0	279	19	
2025-07-27T12:00	7400	399	-25.9	-31.9	279	19	
2025-07-27T12:00	7420	398	-26.1	-32.0	280	19	
2025-07-27T12:00	7440	397	-26.2	-31.9	280	19	
2025-07-27T12:00	7460	396	-26.4	-32.4	281	19	
2025-07-27T12:00	7480	395	-26.6	-32.8	282	19	
2025-07-27T12:00	7500	393	-26.7	-33.1	282	19	
2025-07-27T12:00	7520	392	-26.9	-33.7	282	19	
2025-07-27T12:00	7540	391	-27.1	-34.2	282	19	
2025-07-27T12:00	7560	390	-27.3	-34.9	282	19	
2025-07-27T12:00	7580	389	-27.4	-35.8	282	19	
2025-07-27T12:00	7600	388	-27.6	-35.6	282	18	
2025-07-27T12:00	7620	387	-27.8	-35.6	282	18	
2025-07-27T12:00	7640	386	-28.0	-35.6	282	18	
2025-07-27T12:00	7660	385	-28.2	-35.7	282	18	
2025-07-27T12:00	7680	384	-28.4	-36.1	281	18	
2025-07-27T12:00	7700	383	-28.6	-36.4	281	17	
2025-07-27T12:00	7720	381	-28.8	-36.3	281	17	
2025-07-27T12:00	7740	380	-29.0	-36.3	280	17	
2025-07-27T12:00	7760	379	-29.1	-36.5	280	17	
2025-07-27T12:00	7780	378	-29.3	-36.5	279	17	
2025-07-27T12:00	7800	377	-29.6	-36.5	279	17	
2025-07-27T12:00	7820	376	-29.7	-36.7	278	17	
2025-07-27T12:00	7840	375	-29.9	-36.9	278	18	
2025-07-27T12:00	7860	374	-30.1	-37.0	278	18	
2025-07-27T12:00	7880	373	-30.3	-37.0	279	18	
2025-07-27T12:00	7900	372	-30.5	-36.9	279	18	
2025-07-27T12:00	7920	371	-30.7	-37.1	280	18	
2025-07-27T12:00	7940	370	-30.9	-37.3	280	18	
2025-07-27T12:00	7960	369	-31.1	-37.2	281	18	
2025-07-27T12:00	7980	368	-31.2	-37.8	282	18	
2025-07-27T12:00	8000	367	-31.4	-38.1	283	18	
2025-07-27T12:00	8020	366	-31.6	-37.8	283	18	
2025-07-27T12:00	8040	365	-31.8	-38.2	284	17	
2025-07-27T12:00	8060	364	-32.0	-38.6	285	17	
2025-07-27T12:00	8080	363	-32.2	-38.6	285	17	
2025-07-27T12:00	8100	362	-32.4	-38.6	285	16	
2025-07-27T12:00	8120	361	-32.6	-38.4	284	16	
2025-07-27T12:00	8140	360	-32.8	-38.7	283	16	
2025-07-27T12:00	8160	359	-33.0	-38.9	283	16	
2025-07-27T12:00	8180	358	-33.2	-38.8	282	16	
2025-07-27T12:00	8200	356	-33.4	-39.0	282	16	
2025-07-27T12:00	8220	356	-33.6	-39.0	281	17	
2025-07-27T12:00	8240	355	-33.7	-38.9	281	17	
2025-07-27T12:00	8260	353	-34.0	-38.9	281	17	
2025-07-27T12:00	8280	352	-34.2	-39.1	281	16	
2025-07-27T12:00	8300	352	-34.3	-39.1	282	16	
2025-07-27T12:00	8320	351	-34.5	-39.3	282	16	
2025-07-27T12:00	8340	350	-34.7	-39.4	282	16	
2025-07-27T12:00	8360	349	-34.9	-39.3	282	16	
2025-07-27T12:00	8380	348	-35.1	-39.4	282	16	
2025-07-27T12:00	8400	346	-35.3	-39.4	283	16	
2025-07-27T12:00	8420	345	-35.5	-39.5	283	16	
2025-07-27T12:00	8440	344	-35.6	-39.8	283	15	
2025-07-27T12:00	8460	344	-35.8	-39.8	284	15	
2025-07-27T12:00	8480	343	-36.0	-40.0	285	15	
2025-07-27T12:00	8500	342	-36.1	-40.3	286	15	
2025-07-27T12:00	8520	341	-36.2	-40.4	287	14	
2025-07-27T12:00	8540	340	-36.4	-40.7	288	14	
2025-07-27T12:00	8560	339	-36.5	-41.6	288	14	
2025-07-27T12:00	8580	338	-36.7	-42.2	289	14	
2025-07-27T12:00	8600	337	-36.8	-42.5	289	14	
2025-07-27T12:00	8620	336	-37.0	-43.2	289	14	
2025-07-27T12:00	8640	335	-37.1	-43.8	288	14	
2025-07-27T12:00	8660	334	-37.3	-43.6	287	14	
2025-07-27T12:00	8680	333	-37.4	-44.4	286	14	
2025-07-27T12:00	8700	332	-37.6	-45.3	286	14	
2025-07-27T12:00	8720	331	-37.7	-46.4	285	14	
2025-07-27T12:00	8740	330	-37.8	-46.9	285	14	
2025-07-27T12:00	8760	329	-38.0	-47.3	284	14	
2025-07-27T12:00	8780	328	-38.1	-47.8	284	14	
2025-07-27T12:00	8800	327	-38.2	-48.2	283	14	
2025-07-27T12:00	8820	326	-38.3	-49.0	283	14	
2025-07-27T12:00	8840	325	-38.4	-50.3	283	14	
2025-07-27T12:00	8860	324	-38.5	-51.0	283	14	
2025-07-27T12:00	8880	323	-38.7	-50.5	283	14	
2025-07-27T12:00	8900	322	-38.8	-50.3	283	14	
2025-07-27T12:00	8920	321	-39.0	-50.4	283	14	
2025-07-27T12:00	8940	320	-39.2	-50.9	284	14	
2025-07-27T12:00	8960	320	-39.4	-51.3	284	14	
2025-07-27T12:00	8980	319	-39.5	-51.5	284	14	
2025-07-27T12:00	9000	318	-39.7	-51.6	284	14	
2025-07-27T12:00	9020	317	-39.9	-51.6	284	14	
2025-07-27T12:00	9040	316	-40.1	-51.8	284	14	
2025-07-27T12:00	9060	315	-40.2	-52.0	284	14	
2025-07-27T12:00	9080	314	-40.4	-52.4	284	14	
2025-07-27T12:00	9100	313	-40.5	-52.5	283	13	
2025-07-27T12:00	9120	312	-40.7	-52.5	283	13	
2025-07-27T12:00	9140	311	-40.9	-53.2	282	13	
2025-07-27T12:00	9160	310	-41.0	-53.6	282	13	
2025-07-27T12:00	9180	309	-41.2	-53.8	281	13	
2025-07-27T12:00	9200	308	-41.3	-53.8	281	13	
2025-07-27T12:00	9220	308	-41.5	-53.9	282	13	
2025-07-27T12:00	9240	307	-41.7	-54.2	282	13	
2025-07-27T12:00	9260	306	-41.8	-54.3	282	12	
2025-07-27T12:00	9280	305	-42.0	-54.4	283	12	
2025-07-27T12:00	9300	304	-42.1	-54.8	283	12	
2025-07-27T12:00	9320	303	-42.3	-54.8	284	12	
2025-07-27T12:00	9340	302	-42.5	-54.7	284	12	
2025-07-27T12:00	9360	301	-42.6	-54.9	285	12	
2025-07-27T12:00	9380	300	-42.7	-55.4	285	12	
2025-07-27T12:00	9400	299	-42.9	-55.5	284	12	
2025-07-27T12:00	9420	299	-43.0	-55.6	284	13	
2025-07-27T12:00	9440	298	-43.2	-55.7	283	13	
2025-07-27T12:00	9460	297	-43.3	-55.8	282	13	
2025-07-27T12:00	9480	296	-43.4	-56.2	280	14	
2025-07-27T12:00	9500	295	-43.5	-56.4	279	14	
2025-07-27T12:00	9520	294	-43.6	-56.8	278	15	
2025-07-27T12:00	9540	293	-43.8	-57.2	276	15	
2025-07-27T12:00	9560	292	-43.9	-57.4	275	15	
2025-07-27T12:00	9580	291	-44.0	-57.6	274	16	
2025-07-27T12:00	9600	291	-44.1	-57.8	273	16	
2025-07-27T12:00	9620	290	-44.3	-57.9	272	16	
2025-07-27T12:00	9640	289	-44.4	-58.1	271	16	
2025-07-27T12:00	9660	288	-44.6	-58.1	270	16	
2025-07-27T12:00	9680	287	-44.6	-58.2	269	15	
2025-07-27T12:00	9700	286	-44.8	-58.2	268	15	
2025-07-27T12:00	9720	285	-44.9	-58.2	268	15	
2025-07-27T12:00	9740	285	-45.1	-58.4	267	15	
2025-07-27T12:00	9760	284	-45.2	-58.7	266	15	
2025-07-27T12:00	9780	283	-45.3	-58.5	265	15	
2025-07-27T12:00	9800	282	-45.5	-58.5	264	15	
2025-07-27T12:00	9820	281	-45.6	-58.7	263	16	
2025-07-27T12:00	9840	280	-45.8	-58.7	262	16	
2025-07-27T12:00	9860	280	-46.0	-58.8	262	16	
2025-07-27T12:00	9880	279	-46.1	-59.0	263	17	
2025-07-27T12:00	9900	278	-46.2	-59.3	264	17	
2025-07-27T12:00	9920	277	-46.3	-59.6	266	17	
2025-07-27T12:00	9940	276	-46.4	-59.9	267	17	
2025-07-27T12:00	9960	275	-46.6	-59.9	268	17	
2025-07-27T12:00	9980	275	-46.7	-59.9	270	17	
2025-07-27T12:00	10000	274	-46.9	-60.0	271	17	
2025-07-27T12:00	10018	273	-47.1	-59.9	272	17	
2025-07-27T12:00	10050	272	-47.4	-59.9	271	17	
2025-07-27T12:00	10100	270	-47.7	-60.2	269	17	
2025-07-27T12:00	10150	268	-48.0	-60.3	268	18	
2025-07-27T12:00	10200	266	-48.3	-60.5	266	19	
2025-07-27T12:00	10250	264	-48.5	-60.7	265	19	
2025-07-27T12:00	10300	261	-48.8	-60.8	266	20	
2025-07-27T12:00	10350	260	-48.8	-61.4	268	20	
2025-07-27T12:00	10400	258	-48.6	-62.0	270	20	
2025-07-27T12:00	10450	256	-48.3	-62.9	272	20	
2025-07-27T12:00	10500	254	-47.7	-63.6	275	19	
2025-07-27T12:00	10550	252	-47.1	-65.0	277	19	
2025-07-27T12:00	10600	250	-46.5	-67.1	279	18	
2025-07-27T12:00	10650	248	-46.0	-69.6	279	18	
2025-07-27T12:00	10700	246	-45.9	-70.1	279	18	
2025-07-27T12:00	10750	244	-45.6	-70.7	280	17	
2025-07-27T12:00	10800	243	-45.5	-71.1	279	16	
2025-07-27T12:00	10850	241	-45.4	-72.2	277	14	
2025-07-27T12:00	10900	239	-45.5	-72.7	275	14	
2025-07-27T12:00	10950	237	-45.6	-73.4	276	15	
2025-07-27T12:00	11000	235	-45.5	-73.8	276	15	
2025-07-27T12:00	11050	234	-45.8	-74.1	276	16	
2025-07-27T12:00	11100	232	-46.1	-74.2	275	16	
2025-07-27T12:00	11150	230	-46.3	-74.5	274	17	
2025-07-27T12:00	11200	228	-46.2	-75.1	275	17	
2025-07-27T12:00	11250	227	-46.1	-75.7	277	17	
2025-07-27T12:00	11300	225	-45.9	-76.0	277	17	
2025-07-27T12:00	11350	223	-45.8	-76.3	275	17	
2025-07-27T12:00	11400	222	-46.1	-76.4	273	16	
2025-07-27T12:00	11450	220	-45.9	-76.4	271	17	
2025-07-27T12:00	11500	218	-45.9	-76.5	271	17	
2025-07-27T12:00	11550	217	-45.7	-76.6	271	18	
2025-07-27T12:00	11600	215	-45.2	-76.5	269	19	
2025-07-27T12:00	11650	213	-45.2	-76.4	267	20	
2025-07-27T12:00	11700	212	-45.1	-76.3	268	20	
2025-07-27T12:00	11750	210	-45.1	-76.5	269	20	
2025-07-27T12:00	11800	209	-44.9	-76.7	271	19	
2025-07-27T12:00	11850	207	-44.8	-77.1	275	19	
2025-07-27T12:00	11900	206	-44.5	-77.2	278	18	
2025-07-27T12:00	11950	204	-44.1	-77.3	281	18	
2025-07-27T12:00	12000	203	-43.9	-77.1	282	18	
2025-07-27T12:00	12050	201	-43.9	-77.1	282	18	
2025-07-27T12:00	12100	200	-43.9	-77.1	282	18	
2025-07-27T12:00	12150	198	-44.0	-77.3	282	18	
2025-07-27T12:00	12200	197	-44.1	-77.4	283	17	
2025-07-27T12:00	12250	195	-44.2	-77.5	284	16	
2025-07-27T12:00	12300	194	-44.2	-77.7	286	15	
2025-07-27T12:00	12350	192	-44.2	-77.8	285	15	
2025-07-27T12:00	12400	191	-44.5	-77.8	282	14	
2025-07-27T12:00	12450	189	-44.9	-77.9	278	14	
2025-07-27T12:00	12500	188	-45.3	-78.2	275	14	
2025-07-27T12:00	12550	187	-45.4	-78.3	271	15	
2025-07-27T12:00	12600	185	-45.5	-78.2	266	15	
2025-07-27T12:00	12650	184	-45.6	-78.3	261	16	
2025-07-27T12:00	12700	182	-45.8	-78.4	258	16	
2025-07-27T12:00	12750	181	-46.1	-78.3	257	17	
2025-07-27T12:00	12800	180	-46.4	-78.4	257	18	
2025-07-27T12:00	12850	178	-46.5	-78.6	259	19	
2025-07-27T12:00	12900	177	-46.6	-78.6	261	20	
2025-07-27T12:00	12950	176	-46.5	-78.7	265	21	
2025-07-27T12:00	13000	174	-46.3	-78.5	269	22	
2025-07-27T12:00	13050	173	-46.1	-78.4	273	21	
2025-07-27T12:00	13100	172	-46.1	-78.3	275	19	
2025-07-27T12:00	13150	170	-46.0	-78.3	275	17	
2025-07-27T12:00	13200	169	-46.1	-78.4	275	15	
2025-07-27T12:00	13250	168	-46.3	-78.3	275	14	
2025-07-27T12:00	13300	167	-46.7	-78.4	274	13	
2025-07-27T12:00	13350	165	-47.1	-78.5	271	13	
2025-07-27T12:00	13400	164	-47.4	-78.6	269	13	
2025-07-27T12:00	13450	163	-47.5	-78.5	268	13	
2025-07-27T12:00	13500	162	-47.6	-78.4	270	14	
2025-07-27T12:00	13550	161	-47.8	-78.4	272	14	
2025-07-27T12:00	13600	159	-48.1	-78.5	275	13	
2025-07-27T12:00	13650	158	-48.1	-78.5	274	11	
2025-07-27T12:00	13700	157	-48.2	-78.7	271	10	
2025-07-27T12:00	13750	156	-48.5	-78.8	266	10	
2025-07-27T12:00	13800	155	-48.8	-78.9	260	9	
2025-07-27T12:00	13850	153	-49.2	-79.0	254	9	
2025-07-27T12:00	13900	152	-49.5	-79.1	250	9	
2025-07-27T12:00	13950	151	-49.8	-79.1	247	10	
2025-07-27T12:00	14000	150	-50.1	-79.2	247	11	
2025-07-27T12:00	14050	149	-50.4	-79.3	247	12	
2025-07-27T12:00	14100	148	-50.7	-79.4	247	13	
2025-07-27T12:00	14150	146	-51.1	-79.7	249	12	
2025-07-27T12:00	14200	145	-51.0	-79.9	247	11	
2025-07-27T12:00	14250	144	-51.1	-80.1	242	11	
2025-07-27T12:00	14300	143	-51.3	-80.4	239	12	
2025-07-27T12:00	14350	142	-51.4	-80.9	239	13	
2025-07-27T12:00	14400	141	-51.6	-81.3	239	14	
2025-07-27T12:00	14450	140	-51.4	-81.7	240	15	
2025-07-27T12:00	14500	139	-51.3	-81.8	241	16	
2025-07-27T12:00	14550	138	-51.6	-81.9	243	17	
2025-07-27T12:00	14600	137	-51.8	-82.0	247	17	
2025-07-27T12:00	14650	136	-51.8	-82.0	251	18	
2025-07-27T12:00	14700	135	-52.0	-82.1	255	18	
2025-07-27T12:00	14750	133	-52.2	-82.3	259	19	
2025-07-27T12:00	14800	132	-52.3	-82.4	263	18	
2025-07-27T12:00	14850	131	-52.2	-82.4	266	17	
2025-07-27T12:00	14900	130	-52.1	-82.5	269	16	
2025-07-27T12:00	14950	129	-52.1	-82.5	270	15	
2025-07-27T12:00	15000	128	-52.0	-82.5	268	14	
2025-07-27T12:00	15050	127	-52.0	-82.5	263	13	
2025-07-27T12:00	15100	126	-52.4	-82.6	258	13	
2025-07-27T12:00	15150	126	-52.7	-82.6	256	13	
2025-07-27T12:00	15200	125	-52.8	-82.6	258	13	
2025-07-27T12:00	15250	124	-53.0	-82.7	261	13	
2025-07-27T12:00	15300	123	-53.1	-82.8	259	12	
2025-07-27T12:00	15350	122	-53.3	-82.8	254	12	
2025-07-27T12:00	15400	121	-53.6	-82.8	253	12	
2025-07-27T12:00	15450	120	-53.8	-82.9	256	13	
2025-07-27T12:00	15500	119	-53.8	-82.9	261	14	
2025-07-27T12:00	15550	118	-54.0	-83.0	265	13	
2025-07-27T12:00	15600	117	-54.1	-83.2	268	12	
2025-07-27T12:00	15650	116	-54.0	-83.3	265	11	
2025-07-27T12:00	15700	115	-53.8	-83.3	258	11	
2025-07-27T12:00	15750	114	-54.0	-83.5	253	12	
2025-07-27T12:00	15800	113	-53.8	-83.5	252	13	
2025-07-27T12:00	15850	113	-53.4	-83.5	256	14	
2025-07-27T12:00	15900	112	-53.1	-83.5	260	14	
2025-07-27T12:00	15950	111	-52.8	-83.5	263	13	
2025-07-27T12:00	16000	110	-52.6	-83.5	265	12	
2025-07-27T12:00	16050	109	-52.4	-83.3	264	11	
2025-07-27T12:00	16100	108	-52.5	-83.2	263	11	
2025-07-27T12:00	16150	107	-52.8	-83.3	266	12	
2025-07-27T12:00	16200	107	-52.9	-83.4	268	11	
2025-07-27T12:00	16250	106	-52.8	-83.4	268	11	
2025-07-27T12:00	16300	105	-52.7	-83.5	264	10	
2025-07-27T12:00	16350	104	-52.6	-83.4	260	9	
2025-07-27T12:00	16400	103	-52.9	-83.5	258	9	
2025-07-27T12:00	16450	103	-52.9	-83.5	255	8	
2025-07-27T12:00	16500	102	-53.0	-83.5	250	7	
2025-07-27T12:00	16550	101	-53.2	-83.7	243	7	
2025-07-27T12:00	16600	100	-53.5	-83.6	237	7	
2025-07-27T12:00	16650	99	-53.8	-83.7	234	8	
2025-07-27T12:00	16700	99	-54.1	-83.8	234	8	
2025-07-27T12:00	16750	98	-54.5	-83.9	237	9	
2025-07-27T12:00	16800	97	-54.8	-84.1	242	9	
2025-07-27T12:00	16850	96	-54.9	-84.3	249	9	
2025-07-27T12:00	16900	96	-54.7	-84.3	258	8	
2025-07-27T12:00	16950	95	-54.5	-84.5	259	7	
2025-07-27T12:00	17000	94	-54.0	-84.3	255	6	
2025-07-27T12:00	17050	93	-53.9	-84.2	257	6	
2025-07-27T12:00	17100	93	-54.0	-84.1	263	6	
2025-07-27T12:00	17150	92	-54.2	-84.2	266	6	
2025-07-27T12:00	17200	91	-54.3	-84.3	263	6	
2025-07-27T12:00	17250	91	-54.5	-84.3	261	6	
2025-07-27T12:00	17300	90	-54.7	-84.4	266	7	
2025-07-27T12:00	17350	89	-54.2	-84.5	273	8	
2025-07-27T12:00	17400	88	-53.9	-84.4	274	8	
2025-07-27T12:00	17450	88	-53.9	-84.2	274	8	
2025-07-27T12:00	17500	87	-54.1	-84.3	278	8	
2025-07-27T12:00	17550	86	-54.2	-84.4	284	6	
2025-07-27T12:00	17600	86	-53.9	-84.4	285	5	
2025-07-27T12:00	17650	85	-53.4	-84.3	279	4	
2025-07-27T12:00	17700	84	-53.1	-84.2	261	2	
2025-07-27T12:00	17750	84	-53.3	-84.2	221	2	
2025-07-27T12:00	17800	83	-53.4	-84.2	197	2	
2025-07-27T12:00	17850	82	-53.5	-84.2	196	3	
2025-07-27T12:00	17900	82	-53.7	-84.2	201	4	
2025-07-27T12:00	17950	81	-53.7	-84.2	204	5	
2025-07-27T12:00	18000	81	-53.9	-84.2	207	6	
2025-07-27T12:00	18050	80	-54.4	-84.3	209	6	
2025-07-27T12:00	18100	79	-54.8	-84.4	210	7	
2025-07-27T12:00	18150	79	-55.3	-84.5	211	7	
2025-07-27T12:00	18200	78	-55.8	-84.7	213	7	
2025-07-27T12:00	18250	77	-56.2	-84.9	216	8	
2025-07-27T12:00	18300	77	-56.6	-85.0	222	8	
2025-07-27T12:00	18350	76	-56.8	-85.4	231	8	
2025-07-27T12:00	18400	76	-56.5	-85.4	237	7	
2025-07-27T12:00	18450	75	-56.2	-85.6	236	7	
2025-07-27T12:00	18500	74	-55.7	-85.4	234	6	
2025-07-27T12:00	18550	74	-55.3	-85.3	234	4	
2025-07-27T12:00	18600	73	-55.1	-85.3	217	2	
2025-07-27T12:00	18650	73	-54.4	-85.2	161	2	
2025-07-27T12:00	18700	72	-53.8	-85.0	155	3	
2025-07-27T12:00	18750	72	-53.5	-84.7	158	4	
2025-07-27T12:00	18800	71	-53.8	-84.6	163	5	
2025-07-27T12:00	18850	71	-54.3	-84.6	171	6	
2025-07-27T12:00	18900	70	-54.7	-84.7	182	6	
2025-07-27T12:00	18950	69	-54.8	-84.9	191	6	
2025-07-27T12:00	19000	69	-54.7	-85.0	202	6	
2025-07-27T12:00	19050	68	-54.5	-85.1	214	5	
2025-07-27T12:00	19100	68	-54.2	-84.9	221	4	
2025-07-27T12:00	19150	67	-54.0	-84.7	224	3	
2025-07-27T12:00	19200	67	-54.1	-84.7	236	2	
2025-07-27T12:00	19250	66	-54.3	-84.7	279	1	
2025-07-27T12:00	19300	66	-54.5	-84.8	26	1	
2025-07-27T12:00	19350	65	-54.5	-84.9	61	2	
2025-07-27T12:00	19400	65	-54.3	-84.8	82	3	
2025-07-27T12:00	19450	64	-54.4	-84.9	96	4	
2025-07-27T12:00	19500	64	-54.6	-85.0	104	4	
2025-07-27T12:00	19550	63	-54.5	-84.9	113	4	
2025-07-27T12:00	19600	63	-54.4	-84.8	128	4	
2025-07-27T12:00	19650	62	-54.6	-84.9	148	4	
2025-07-27T12:00	19700	62	-54.9	-85.0	167	4	
2025-07-27T12:00	19750	61	-54.9	-85.1	184	4	
2025-07-27T12:00	19800	61	-54.6	-85.1	197	4	
2025-07-27T12:00	19850	60	-54.5	-85.2	205	3	
2025-07-27T12:00	19900	60	-54.2	-85.0	204	2	
2025-07-27T12:00	19950	59	-54.0	-85.0	182	2	
2025-07-27T12:00	20000	59	-53.7	-85.0	158	3	
2025-07-27T12:00	20050	58	-53.4		149	4	
2025-07-27T12:00	20100	58	-53.6		148	4	
2025-07-27T12:00	20150	58	-53.2		150	4	
2025-07-27T12:00	20200	57	-52.8		157	4	
2025-07-27T12:00	20250	57	-52.7		161	3	
2025-07-27T12:00	20300	56	-52.7		163	2	
2025-07-27T12:00	20350	56	-52.8		163	1	
2025-07-27T12:00	20400	55	-53.0		147	0	
2025-07-27T12:00	20450	55	-53.0		13	1	
2025-07-27T12:00	20500	55	-53.0		1	2	
2025-07-27T12:00	20550	54	-53.0		7	3	
2025-07-27T12:00	20600	54	-52.8		25	2	
2025-07-27T12:00	20650	53	-52.9		56	2	
2025-07-27T12:00	20700	53	-53.1		68	2	
2025-07-27T12:00	20750	52	-53.3		45	2	
2025-07-27T12:00	20800	52	-53.3		31	3	
2025-07-27T12:00	20850	52	-53.5		31	3	
2025-07-27T12:00	20900	51	-53.5		42	3	
2025-07-27T12:00	20950	51	-53.6		67	2	
2025-07-27T12:00	21000	50	-53.8		92	2	
2025-07-27T12:00	21050	50	-53.3		100	2	
2025-07-27T12:00	21100	50	-53.2		107	3	
2025-07-27T12:00	21150	49	-53.1		113	3	
2025-07-27T12:00	21200	49	-53.1		113	4	
2025-07-27T12:00	21250	49	-53.2		109	4	
2025-07-27T12:00	21300	48	-53.2		110	3	
2025-07-27T12:00	21350	48	-53.3		118	3	
2025-07-27T12:00	21400	47	-53.4		129	3	
2025-07-27T12:00	21450	47	-53.7		132	3	
2025-07-27T12:00	21500	47	-54.1		130	3	
2025-07-27T12:00	21550	46	-54.1		122	3	
2025-07-27T12:00	21600	46	-54.2		106	2	
2025-07-27T12:00	21650	46	-54.4		87	2	
2025-07-27T12:00	21700	45	-54.6		75	3	
2025-07-27T12:00	21750	45	-54.8		71	4	
2025-07-27T12:00	21800	45	-54.6		76	5	
2025-07-27T12:00	21850	44	-54.4		86	6	
2025-07-27T12:00	21900	44	-54.4		92	6	
2025-07-27T12:00	21950	43	-54.5		90	7	
2025-07-27T12:00	22000	43	-54.3		89	8	
2025-07-27T12:00	22050	43	-54.3		93	9	
2025-07-27T12:00	22100	42	-54.4		100	9	
2025-07-27T12:00	22150	42	-54.5		106	9	
2025-07-27T12:00	22200	42	-54.9		114	9	
2025-07-27T12:00	22250	42	-55.1		122	8	
2025-07-27T12:00	22300	41	-55.2		128	8	
2025-07-27T12:00	22350	41	-55.4		129	8	
2025-07-27T12:00	22400	41	-55.2		128	9	
2025-07-27T12:00	22450	40	-54.8		131	9	
2025-07-27T12:00	22500	40	-54.4		139	9	
2025-07-27T12:00	22550	40	-54.2		146	9	
2025-07-27T12:00	22600	39	-54.3		153	9	
2025-07-27T12:00	22650	39	-54.3		157	9	
2025-07-27T12:00	22700	39	-54.3		159	8	
2025-07-27T12:00	22750	38	-54.5		159	7	
2025-07-27T12:00	22800	38	-54.7		156	5	
2025-07-27T12:00	22850	38	-54.5		141	4	
2025-07-27T12:00	22900	38	-54.2		120	5	
2025-07-27T12:00	22950	37	-53.9		112	6	
2025-07-27T12:00	23000	37	-53.6		112	6	
2025-07-27T12:00	23050	37	-53.5		115	7	
2025-07-27T12:00	23100	36	-53.6		117	7	
2025-07-27T12:00	23150	36	-53.8		116	7	
2025-07-27T12:00	23200	36	-53.7		114	8	
2025-07-27T12:00	23250	36	-53.5		113	7	
2025-07-27T12:00	23300	35	-53.5		114	6	
2025-07-27T12:00	23350	35	-53.6		120	5	
2025-07-27T12:00	23400	35	-53.6		132	4	
2025-07-27T12:00	23450	34	-53.6		138	3	
2025-07-27T12:00	23500	34	-53.6		131	3	
2025-07-27T12:00	23550	34	-53.7		115	3	
2025-07-27T12:00	23600	34	-53.6		107	5	
2025-07-27T12:00	23650	33	-53.4		108	7	
2025-07-27T12:00	23700	33	-53.2		112	8	
2025-07-27T12:00	23750	33	-53.2		117	9	
2025-07-27T12:00	23800	33	-52.8		121	10	
2025-07-27T12:00	23850	32	-52.7		122	9	
2025-07-27T12:00	23900	32	-52.5		120	9	
2025-07-27T12:00	23950	32	-52.1		118	10	
2025-07-27T12:00	24000	32	-51.6		117	11	
2025-07-27T12:00	24050	31	-50.8		119	12	
2025-07-27T12:00	24100	31	-50.5		123	11	
2025-07-27T12:00	24150	31	-50.5		127	10	
2025-07-27T12:00	24200	31	-50.3		132	8	
2025-07-27T12:00	24250	30	-50.2		133	6	
2025-07-27T12:00	24300	30	-50.3		127	5	
2025-07-27T12:00	24350	30	-50.0		106	3	
2025-07-27T12:00	24400	30	-49.7		74	4	
2025-07-27T12:00	24450	29	-49.7		61	5	
2025-07-27T12:00	24500	29	-49.5		59	6	
2025-07-27T12:00	24550	29	-49.3		62	7	
2025-07-27T12:00	24600	29	-49.4		69	8	
2025-07-27T12:00	24650	29	-49.4		80	8	
2025-07-27T12:00	24700	28	-49.4		92	9	
2025-07-27T12:00	24750	28	-49.3		100	9	
2025-07-27T12:00	24800	28	-49.2		103	9	
2025-07-27T12:00	24850	28	-49.1		106	9	
2025-07-27T12:00	24900	28	-49.1		111	9	
2025-07-27T12:00	24950	27	-49.1		115	9	
2025-07-27T12:00	25000	27	-48.8		118	9	
2025-07-27T12:00	25050	27	-48.7		121	9	
2025-07-27T12:00	25100	27	-48.8		123	8	
2025-07-27T12:00	25150	27	-48.8		125	7	
2025-07-27T12:00	25200	26	-48.6		121	7	
2025-07-27T12:00	25250	26	-48.4		111	6	
2025-07-27T12:00	25300	26	-48.3		99	7	
2025-07-27T12:00	25350	26	-48.4		88	6	
2025-07-27T12:00	25400	26	-48.5		77	6	
2025-07-27T12:00	25450	25	-48.8		65	7	
2025-07-27T12:00	25500	25	-48.9		57	7	
2025-07-27T12:00	25550	25	-49.0		52	8	
2025-07-27T12:00	25600	25	-49.0		52	9	
2025-07-27T12:00	25650	25	-48.9		57	9	
2025-07-27T12:00	25700	24	-48.9		65	9	
2025-07-27T12:00	25750	24	-49.1		75	8	
2025-07-27T12:00	25800	24	-49.0		88	8	
2025-07-27T12:00	25850	24	-48.8		98	8	
2025-07-27T12:00	25900	24	-48.9		103	8	
2025-07-27T12:00	25950	23	-48.8		102	8	
2025-07-27T12:00	26000	23	-48.5		95	8	
2025-07-27T12:00	26050	23	-48.3		90	8	
2025-07-27T12:00	26100	23	-48.1		90	9	
2025-07-27T12:00	26150	23	-47.8		92	10	
2025-07-27T12:00	26200	23	-47.5		91	10	
2025-07-27T12:00	26250	22	-47.4		89	10	
2025-07-27T12:00	26300	22	-47.5		87	9	
2025-07-27T12:00	26350	22	-47.7		85	9	
2025-07-27T12:00	26400	22	-47.8		83	10	
2025-07-27T12:00	26450	22	-47.7		84	12	
2025-07-27T12:00	26500	22	-47.3		88	13	
2025-07-27T12:00	26550	21	-47.0		93	14	
2025-07-27T12:00	26600	21	-47.0		100	14	
2025-07-27T12:00	26650	21	-46.9		106	14	
2025-07-27T12:00	26700	21	-46.9		112	13	
2025-07-27T12:00	26750	21	-47.1		118	12	
2025-07-27T12:00	26800	21	-47.3		122	11	
2025-07-27T12:00	26850	20	-47.4		124	9	
2025-07-27T12:00	26900	20	-47.5		123	8	
2025-07-27T12:00	26950	20	-47.5		118	8	
2025-07-27T12:00	27000	20	-47.1		115	9	
2025-07-27T12:00	27050	20	-46.8		115	9	
2025-07-27T12:00	27100	20	-46.7		113	9	
2025-07-27T12:00	27150	20	-46.6		107	8	
2025-07-27T12:00	27200	19	-46.5		98	8	
2025-07-27T12:00	27250	19	-46.3		91	8	
2025-07-27T12:00	27300	19	-46.1		88	9	
2025-07-27T12:00	27350	19	-45.9		89	11	
2025-07-27T12:00	27400	19	-45.7		92	12	
2025-07-27T12:00	27450	19	-45.6		95	13	
2025-07-27T12:00	27500	19	-45.6		97	12	
2025-07-27T12:00	27550	18	-45.7		98	11	
2025-07-27T12:00	27600	18	-45.9		96	11	
2025-07-27T12:00	27650	18	-45.9		92	12	
2025-07-27T12:00	27700	18	-45.9		91	13	
2025-07-27T12:00	27750	18	-45.9		92	13	
2025-07-27T12:00	27800	18	-45.7		95	14	
2025-07-27T12:00	27850	18	-45.6		97	13	
2025-07-27T12:00	27900	17	-45.5		98	13	
2025-07-27T12:00	27950	17	-45.4		95	12	
2025-07-27T12:00	28000	17	-45.2		91	12	
2025-07-27T12:00	28050	17	-45.0		88	12	
2025-07-27T12:00	28100	17	-44.8		87	11	
2025-07-27T12:00	28150	17	-44.8		86	11	
2025-07-27T12:00	28200	17	-44.9		85	11	
2025-07-27T12:00	28250	17	-45.0		84	12	
2025-07-27T12:00	28300	16	-44.9		83	14	
2025-07-27T12:00	28350	16	-45.0		83	15	
2025-07-27T12:00	28400	16	-45.0		85	16	
2025-07-27T12:00	28450	16	-45.1		87	17	
2025-07-27T12:00	28500	16	-45.3		89	18	
2025-07-27T12:00	28550	16	-45.2		91	18	
2025-07-27T12:00	28600	16	-45.3		94	18	
2025-07-27T12:00	28650	16	-45.4		96	17	
2025-07-27T12:00	28700	16	-45.2		97	17	
2025-07-27T12:00	28750	15	-45.0		99	16	
2025-07-27T12:00	28800	15	-44.8		99	16	
2025-07-27T12:00	28850	15	-44.4		100	16	
2025-07-27T12:00	28900	15	-44.1		103	16	
2025-07-27T12:00	28950	15	-44.2		108	15	
2025-07-27T12:00	29000	15	-44.0		111	15	
2025-07-27T12:00	29050	15	-43.9		111	14	
2025-07-27T12:00	29100	15	-43.6		109	14	
2025-07-27T12:00	29150	15	-42.9		109	14	
2025-07-27T12:00	29200	14	-42.7		112	13	
2025-07-27T12:00	29250	14	-42.9		116	12	
2025-07-27T12:00	29300	14	-43.1		119	11	
2025-07-27T12:00	29350	14	-43.2		120	10	
2025-07-27T12:00	29400	14	-43.3		116	10	
2025-07-27T12:00	29450	14	-43.4		110	11	
2025-07-27T12:00	29500	14	-43.4		106	13	
2025-07-27T12:00	29550	14	-43.5		105	14	
2025-07-27T12:00	29600	14	-43.5		106	16	
2025-07-27T12:00	29650	13	-43.4		107	17	
2025-07-27T12:00	29700	13	-43.2		108	17	
2025-07-27T12:00	29750	13	-43.1		110	16	
2025-07-27T12:00	29800	13	-42.8		112	15	
2025-07-27T12:00	29850	13	-42.6		114	14	
2025-07-27T12:00	29900	13	-42.6		113	14	
2025-07-27T12:00	29950	13	-42.3		112	14	
2025-07-27T12:00	30000	13	-42.0		112	15	
2025-07-27T12:00	30050	13	-41.8		113	15	
2025-07-27T12:00	30100	13	-41.7		116	14	
2025-07-27T12:00	30150	13	-41.7		118	14	
2025-07-27T12:00	30200	12	-41.7		116	12	
2025-07-27T12:00	30250	12	-41.6		111	11	
2025-07-27T12:00	30300	12	-41.4		104	10	
2025-07-27T12:00	30350	12	-41.0		98	11	
2025-07-27T12:00	30400	12	-40.7		96	11	
2025-07-27T12:00	30450	12	-40.5		95	11	
2025-07-27T12:00	30500	12	-40.5		93	10	
2025-07-27T12:00	30550	12	-40.5		91	10	
2025-07-27T12:00	30600	12	-40.6		91	10	
2025-07-27T12:00	30650	12	-40.3		91	10	
2025-07-27T12:00	30700	12	-40.2		88	9	
2025-07-27T12:00	30750	11	-40.1		80	9	
2025-07-27T12:00	30800	11	-40.0		73	9	
2025-07-27T12:00	30850	11	-39.9		68	10	
2025-07-27T12:00	30900	11	-39.8		71	11	
2025-07-27T12:00	30950	11	-39.7		77	12	
2025-07-27T12:00	31000	11	-39.8		85	12	
2025-07-27T12:00	31050	11	-39.8		91	12	
2025-07-27T12:00	31100	11	-39.9		93	12	
2025-07-27T12:00	31150	11	-39.8		90	12	
2025-07-27T12:00	31200	11	-39.7		84	11	
2025-07-27T12:00	31250	11	-39.5		79	12	
2025-07-27T12:00	31300	11	-39.5		78	13	
2025-07-27T12:00	31350	10	-39.3		79	13	
2025-07-27T12:00	31400	10	-39.2		81	13	
2025-07-27T12:00	31450	10	-39.2		83	13	
2025-07-27T12:00	31500	10	-39.1		83	13	
2025-07-27T12:00	31550	10	-38.8		83	13	
2025-07-27T12:00	31600	10	-38.6		84	13	
2025-07-27T12:00	31650	10	-38.3		85	13	
2025-07-27T12:00	31700	10	-37.9		86	13	
2025-07-27T12:00	31750	10	-37.7		85	14	
2025-07-27T12:00	31800	10	-37.6		86	14	
2025-07-27T12:00	31850	10	-37.5		88	14	
2025-07-27T12:00	31900	10	-37.4		92	13	
2025-07-27T12:00	31950	10	-37.5		97	13	
2025-07-27T12:00	32000	10	-37.5		99	12	
2025-07-27T12:00	32050	9	-37.5		98	12	
2025-07-27T12:00	32100	9	-37.3		92	12	
2025-07-27T12:00	32150	9	-37.0		87	13	
2025-07-27T12:00	32200	9	-36.7		86	14	
2025-07-27T12:00	32250	9	-36.3		89	14	
2025-07-27T12:00	32300	9	-36.1		94	15	
2025-07-27T12:00	32350	9	-36.1		95	16	
2025-07-27T12:00	32400	9	-35.9		94	16	
2025-07-27T12:00	32450	9	-35.8		93	17	
2025-07-27T12:00	32500	9	-35.5		95	16	
2025-07-27T12:00	32550	9	-35.2		98	16	
2025-07-27T12:00	32600	9	-35.1		103	15	
2025-07-27T12:00	32650	9	-35.0		107	14	
2025-07-27T12:00	32700	9	-35.0		109	14	
2025-07-27T12:00	32750	9	-34.8		106	14	
2025-07-27T12:00	32800	9	-34.4		102	13	
2025-07-27T12:00	32850	8	-33.9		98	13	
2025-07-27T12:00	32900	8	-33.3		93	13	
2025-07-27T12:00	32950	8	-32.7		87	13	
2025-07-27T12:00	33000	8	-32.4		81	14	
2025-07-27T12:00	33050	8	-32.2		76	16	
2025-07-27T12:00	33100	8	-32.1		75	18	
2025-07-27T12:00	33150	8	-32.1		76	19	
2025-07-27T12:00	33200	8	-32.2		78	21	
2025-07-27T12:00	33250	8	-32.3		81	21	
2025-07-27T12:00	33300	8	-32.3		83	21	
2025-07-27T12:00	33350	8	-32.2		84	20	
2025-07-27T12:00	33400	8	-32.0		86	19	
2025-07-27T12:00	33450	8	-32.0		89	18	
2025-07-27T12:00	33500	8	-32.1		92	17	
2025-07-27T12:00	33550	8	-32.1		93	17	
2025-07-27T12:00	33600	8	-32.0		91	17	
2025-07-27T12:00	33650	8	-31.8		87	18	
2025-07-27T12:00	33700	7	-31.8		85	19	
2025-07-27T12:00	33750	7	-31.8		85	20	
2025-07-27T12:00	33800	7	-31.9		86	21	
2025-07-27T12:00	33850	7	-31.9		89	22	
2025-07-27T12:00	33900	7	-31.8		93	22	
2025-07-27T12:00	33950	7	-31.6		96	23	
2025-07-27T12:00	34000	7	-31.7		99	22	
2025-07-27T12:00	34050	7	-32.0		101	22	
2025-07-27T12:00	34100	7	-32.1		103	21	
2025-07-27T12:00	34150	7	-31.9		102	19	
2025-07-27T12:00	34200	7	-31.9		102	18	
2025-07-27T12:00	34250	7	-31.8		101	17	
2025-07-27T12:00	34300	7	-31.7		101	16	
2025-07-27T12:00	34350	7	-31.7		101	17	
2025-07-27T12:00	34400	7	-31.7		101	17	
2025-07-27T12:00	34450	7	-31.8		101	19	
2025-07-27T12:00	34500	7	-31.9		101	20	
2025-07-27T12:00	34550	7	-32.0		102	20	
2025-07-27T12:00	34600	7	-31.9		103	20	
2025-07-27T12:00	34650	7	-31.8		104	19	
2025-07-27T12:00	34700	6	-31.8		105	18	
2025-07-27T12:00	34750	6	-31.7		105	17	
2025-07-27T12:00	34800	6	-31.7		106	16	
2025-07-27T12:00	34850	6	-31.5		105	15	
2025-07-27T12:00	34900	6	-31.4		103	14	
2025-07-27T12:00	34950	6	-31.4		101	14	
2025-07-27T12:00	35000	6	-31.4		99	14	
2025-07-27T12:00	35050	6	-31.3		99	14	
2025-07-27T12:00	35100	6	-31.1		99	15	
2025-07-27T12:00	35150	6	-30.9		99	15	
2025-07-27T12:00	35200	6	-30.9		99	14	
2025-07-27T12:00	35250	6	-31.0		98	13	
2025-07-27T12:00	35300	6	-31.0		95	13	
2025-07-27T12:00	35350	6	-30.8		91	13	
2025-07-27T12:00	35400	6	-30.7		88	13	
2025-07-27T12:00	35450	6	-30.6		88	13	
2025-07-27T12:00	35500	6	-30.6		91	13	
2025-07-27T12:00	35550	6	-30.5		93	13	
2025-07-27T12:00	35600	6	-30.3		93	14	
2025-07-27T12:00	35650	6	-29.9		92	16	
2025-07-27T12:00	35700	6	-29.7		94	17	
2025-07-27T12:00	35750	6	-29.6		99	18	
2025-07-27T12:00	35800	6	-29.5		104	17	
2025-07-27T12:00	35850	6	-29.3		109	16	
2025-07-27T12:00	35900	5	-29.1		114	15	
2025-07-27T12:00	35950	5	-28.8		119	14	
2025-07-27T12:00	36000	5	-28.4		119	14	
2025-07-28T00:00	491	958	14.7	13.6	215	2	
2025-07-28T00:00	501	956	14.7	13.8	216	2	
2025-07-28T00:00	520	955	14.5	13.7	218	2	
2025-07-28T00:00	540	952	14.3	13.4	218	3	
2025-07-28T00:00	560	950	14.2	13.3	218	4	
2025-07-28T00:00	580	948	14.0	13.3	217	6	
2025-07-28T00:00	600	946	13.9	13.2	216	7	
2025-07-28T00:00	620	944	13.8	12.8	215	7	
2025-07-28T00:00	640	941	13.6	13.0	215	7	
2025-07-28T00:00	660	939	13.6	12.1	214	7	
2025-07-28T00:00	680	937	13.9	11.4	213	7	
2025-07-28T00:00	700	935	14.1	11.4	211	6	
2025-07-28T00:00	720	932	14.1	11.5	209	6	
2025-07-28T00:00	740	930	14.1	11.3	208	6	
2025-07-28T00:00	760	928	14.0	11.3	210	6	
2025-07-28T00:00	780	926	13.8	11.2	214	6	
2025-07-28T00:00	800	924	13.9	11.0	220	6	
2025-07-28T00:00	820	921	13.8	10.9	226	6	
2025-07-28T00:00	840	919	13.5	10.9	232	6	
2025-07-28T00:00	860	917	13.3	10.9	237	6	
2025-07-28T00:00	880	915	13.2	10.8	242	6	
2025-07-28T00:00	900	913	12.9	10.8	248	5	
2025-07-28T00:00	920	911	12.9	10.7	254	5	
2025-07-28T00:00	940	909	12.8	10.4	262	5	
2025-07-28T00:00	960	906	12.6	10.6	270	5	
2025-07-28T00:00	980	904	12.4	10.2	276	5	
2025-07-28T00:00	1000	902	12.4	9.7	281	6	
2025-07-28T00:00	1020	900	12.3	9.6	283	6	
2025-07-28T00:00	1040	898	12.2	9.4	283	5	
2025-07-28T00:00	1060	895	12.0	9.3	284	5	
2025-07-28T00:00	1080	893	11.8	9.1	285	5	
2025-07-28T00:00	1100	891	11.7	8.8	288	5	
2025-07-28T00:00	1120	889	11.5	8.8	293	5	
2025-07-28T00:00	1140	887	11.3	8.5	298	5	
2025-07-28T00:00	1160	885	11.2	8.7	302	5	
2025-07-28T00:00	1180	883	11.0	8.7	306	5	
2025-07-28T00:00	1200	881	10.8	8.5	307	5	
2025-07-28T00:00	1220	879	10.6	8.6	306	6	
2025-07-28T00:00	1240	876	10.5	8.0	304	6	
2025-07-28T00:00	1260	874	10.3	7.7	302	6	
2025-07-28T00:00	1280	872	10.2	7.6	302	7	
2025-07-28T00:00	1300	870	10.1	7.1	303	7	
2025-07-28T00:00	1320	868	9.9	6.9	304	7	
2025-07-28T00:00	1340	866	9.9	6.3	306	7	
2025-07-28T00:00	1360	864	9.8	6.0	307	7	
2025-07-28T00:00	1380	862	9.6	5.8	307	7	
2025-07-28T00:00	1400	860	9.5	5.0	307	7	
2025-07-28T00:00	1420	858	9.4	4.5	307	8	
2025-07-28T00:00	1440	856	9.3	3.9	307	8	
2025-07-28T00:00	1460	854	9.2	3.7	307	8	
2025-07-28T00:00	1480	851	9.0	3.7	306	8	
2025-07-28T00:00	1500	849	8.8	3.7	306	7	
2025-07-28T00:00	1520	848	8.6	3.7	306	7	
2025-07-28T00:00	1540	846	8.5	3.7	305	7	
2025-07-28T00:00	1560	843	8.3	4.6	305	7	
2025-07-28T00:00	1580	841	8.1	4.9	305	7	
2025-07-28T00:00	1600	839	7.9	4.9	304	7	
2025-07-28T00:00	1620	837	7.8	4.7	304	7	
2025-07-28T00:00	1640	835	7.6	4.4	303	7	
2025-07-28T00:00	1660	833	7.4	3.7	302	7	
2025-07-28T00:00	1680	831	7.3	3.5	301	7	
2025-07-28T00:00	1700	829	7.2	2.6	300	7	
2025-07-28T00:00	1720	827	7.0	2.4	300	8	
2025-07-28T00:00	1740	825	6.8	2.5	300	8	
2025-07-28T00:00	1760	823	6.8	2.4	300	8	
2025-07-28T00:00	1780	821	6.7	2.2	301	8	
2025-07-28T00:00	1800	819	6.6	2.2	301	8	
2025-07-28T00:00	1820	817	6.4	2.1	301	8	
2025-07-28T00:00	1840	815	6.3	2.0	301	8	
2025-07-28T00:00	1860	813	6.1	2.0	300	8	
2025-07-28T00:00	1880	811	5.9	2.0	299	8	
2025-07-28T00:00	1900	809	5.7	1.9	298	7	
2025-07-28T00:00	1920	807	5.5	1.8	297	7	
2025-07-28T00:00	1940	805	5.3	1.8	296	7	
2025-07-28T00:00	1960	803	5.2	1.8	295	7	
2025-07-28T00:00	1980	801	5.1	1.8	295	7	
2025-07-28T00:00	2000	799	5.0	1.7	295	7	
2025-07-28T00:00	2020	797	4.9	1.7	295	7	
2025-07-28T00:00	2040	795	4.7	1.6	295	7	
2025-07-28T00:00	2060	793	4.6	1.5	295	7	
2025-07-28T00:00	2080	792	4.5	1.4	295	7	
2025-07-28T00:00	2100	790	4.4	1.3	295	7	
2025-07-28T00:00	2120	788	4.4	1.1	294	7	
2025-07-28T00:00	2140	786	4.3	1.0	293	8	
2025-07-28T00:00	2160	784	4.1	0.9	291	8	
2025-07-28T00:00	2180	782	4.0	0.8	289	8	
2025-07-28T00:00	2200	780	3.8	0.8	286	9	
2025-07-28T00:00	2220	778	3.7	0.8	284	9	
2025-07-28T00:00	2240	776	3.6	0.7	283	9	
2025-07-28T00:00	2260	774	3.5	0.7	282	9	
2025-07-28T00:00	2280	772	3.3	0.7	280	9	
2025-07-28T00:00	2300	770	3.1	0.6	279	9	
2025-07-28T00:00	2320	768	2.9	0.6	279	10	
2025-07-28T00:00	2340	767	2.8	0.5	278	10	
2025-07-28T00:00	2360	765	2.7	0.6	277	10	
2025-07-28T00:00	2380	763	2.5	0.5	277	10	
2025-07-28T00:00	2400	761	2.4	0.4	277	10	
2025-07-28T00:00	2420	759	2.2	0.4	277	10	
2025-07-28T00:00	2440	757	2.0	0.3	277	10	
2025-07-28T00:00	2460	755	1.8	0.3	278	10	
2025-07-28T00:00	2480	753	1.7	0.2	279	10	
2025-07-28T00:00	2500	752	1.7	0.1	280	10	
2025-07-28T00:00	2520	750	1.8	0.1	281	10	
2025-07-28T00:00	2540	748	1.7	-0.1	282	10	
2025-07-28T00:00	2560	746	1.5	0.0	282	10	
2025-07-28T00:00	2580	744	1.6	-0.1	282	10	
2025-07-28T00:00	2600	742	1.6	-0.2	281	10	
2025-07-28T00:00	2620	741	1.4	-0.2	280	11	
2025-07-28T00:00	2640	739	1.5	-0.2	280	11	
2025-07-28T00:00	2660	737	1.4	-0.2	279	11	
2025-07-28T00:00	2680	735	1.3	-0.1	279	11	
2025-07-28T00:00	2700	733	1.2	-0.2	279	11	
2025-07-28T00:00	2720	731	1.1	-0.2	280	11	
2025-07-28T00:00	2740	729	0.9	-0.3	281	11	
2025-07-28T00:00	2760	728	0.7	-0.3	281	11	
2025-07-28T00:00	2780	726	0.5	-0.3	282	12	
2025-07-28T00:00	2800	724	0.3	-0.4	282	12	
2025-07-28T00:00	2820	722	0.2	-0.3	282	12	
2025-07-28T00:00	2840	721	0.2	-0.2	281	12	
2025-07-28T00:00	2860	719	0.1	-0.4	280	12	
2025-07-28T00:00	2880	717	-0.1	-0.3	279	12	
2025-07-28T00:00	2900	715	-0.1	-0.5	277	12	
2025-07-28T00:00	2920	714	-0.1	-0.5	276	12	
2025-07-28T00:00	2940	712	-0.3	-0.6	275	12	
2025-07-28T00:00	2960	710	-0.4	-0.6	274	12	
2025-07-28T00:00	2980	708	-0.5	-0.8	274	12	
2025-07-28T00:00	3000	706	-0.5	-1.0	274	12	
2025-07-28T00:00	3020	705	-0.7	-1.0	274	12	
2025-07-28T00:00	3040	703	-0.8	-1.0	275	12	
2025-07-28T00:00	3060	701	-0.8	-1.1	275	12	
2025-07-28T00:00	3080	699	-0.9	-1.2	275	12	
2025-07-28T00:00	3100	698	-1.0	-1.4	275	12	
2025-07-28T00:00	3120	696	-1.1	-1.5	276	12	
2025-07-28T00:00	3140	694	-1.1	-1.6	276	12	
2025-07-28T00:00	3160	692	-1.2	-1.6	278	11	
2025-07-28T00:00	3180	691	-1.4	-1.8	280	11	
2025-07-28T00:00	3200	689	-1.5	-1.8	282	11	
2025-07-28T00:00	3220	687	-1.7	-1.9	283	11	
2025-07-28T00:00	3240	685	-1.8	-2.0	283	11	
2025-07-28T00:00	3260	684	-1.9	-2.1	282	11	
2025-07-28T00:00	3280	682	-2.0	-2.1	279	11	
2025-07-28T00:00	3300	680	-2.2	-2.2	276	11	
2025-07-28T00:00	3320	679	-2.3	-2.3	274	11	
2025-07-28T00:00	3340	677	-2.4	-2.5	273	11	
2025-07-28T00:00	3360	675	-2.5	-2.6	275	10	
2025-07-28T00:00	3380	674	-2.7	-2.7	278	10	
2025-07-28T00:00	3400	672	-2.8	-2.8	283	10	
2025-07-28T00:00	3420	670	-2.9	-2.9	286	11	
2025-07-28T00:00	3440	668	-3.0	-3.0	286	11	
2025-07-28T00:00	3460	667	-3.1	-3.2	284	11	
2025-07-28T00:00	3480	665	-3.1	-3.3	280	11	
2025-07-28T00:00	3500	663	-3.2	-3.4	276	11	
2025-07-28T00:00	3520	662	-3.3	-3.5	272	11	
2025-07-28T00:00	3540	660	-3.4	-3.6	269	10	
2025-07-28T00:00	3560	658	-3.5	-3.6	267	10	
2025-07-28T00:00	3580	657	-3.6	-3.7	266	9	
2025-07-28T00:00	3600	655	-3.7	-3.8	266	9	
2025-07-28T00:00	3620	653	-3.8	-4.0	266	9	
2025-07-28T00:00	3640	652	-3.9	-4.1	266	9	
2025-07-28T00:00	3660	650	-4.0	-4.3	266	10	
2025-07-28T00:00	3680	648	-4.1	-4.3	266	10	
2025-07-28T00:00	3700	647	-4.3	-4.4	266	10	
2025-07-28T00:00	3720	645	-4.4	-4.6	266	10	
2025-07-28T00:00	3740	644	-4.5	-4.8	266	10	
2025-07-28T00:00	3760	642	-4.5	-4.9	266	10	
2025-07-28T00:00	3780	640	-4.6	-5.0	266	10	
2025-07-28T00:00	3800	639	-4.6	-5.1	266	10	
2025-07-28T00:00	3820	637	-4.7	-5.3	266	10	
2025-07-28T00:00	3840	635	-4.8	-5.4	266	11	
2025-07-28T00:00	3860	634	-5.0	-5.4	266	11	
2025-07-28T00:00	3880	632	-5.1	-5.5	267	11	
2025-07-28T00:00	3900	631	-5.3	-5.6	267	11	
2025-07-28T00:00	3920	629	-5.4	-5.6	267	11	
2025-07-28T00:00	3940	627	-5.6	-5.7	267	11	
2025-07-28T00:00	3960	626	-5.7	-5.9	268	11	
2025-07-28T00:00	3980	624	-5.8	-5.9	270	11	
2025-07-28T00:00	4000	623	-5.9	-6.0	271	11	
2025-07-28T00:00	4020	621	-6.0	-6.2	273	11	
2025-07-28T00:00	4040	619	-6.1	-6.3	273	11	
2025-07-28T00:00	4060	618	-6.1	-6.4	274	11	
2025-07-28T00:00	4080	616	-6.2	-6.4	274	11	
2025-07-28T00:00	4100	615	-6.3	-6.5	274	12	
2025-07-28T00:00	4120	613	-6.4	-6.6	274	12	
2025-07-28T00:00	4140	612	-6.5	-6.7	274	12	
2025-07-28T00:00	4160	610	-6.6	-6.9	274	13	
2025-07-28T00:00	4180	608	-6.7	-7.0	274	13	
2025-07-28T00:00	4200	607	-6.8	-7.1	274	12	
2025-07-28T00:00	4220	605	-6.9	-7.2	274	12	
2025-07-28T00:00	4240	604	-7.0	-7.4	274	13	
2025-07-28T00:00	4260	602	-7.1	-7.4	275	13	
2025-07-28T00:00	4280	601	-7.1	-7.4	275	13	
2025-07-28T00:00	4300	599	-7.2	-7.6	275	13	
2025-07-28T00:00	4320	598	-7.2	-7.6	275	13	
2025-07-28T00:00	4340	596	-7.4	-7.8	276	12	
2025-07-28T00:00	4360	595	-7.5	-7.9	276	12	
2025-07-28T00:00	4380	593	-7.6	-8.0	276	12	
2025-07-28T00:00	4400	592	-7.6	-8.1	275	12	
2025-07-28T00:00	4420	590	-7.7	-8.2	275	12	
2025-07-28T00:00	4440	589	-7.8	-8.3	275	12	
2025-07-28T00:00	4460	587	-7.9	-8.4	276	11	
2025-07-28T00:00	4480	586	-8.0	-8.6	276	11	
2025-07-28T00:00	4500	584	-8.0	-8.7	277	11	
2025-07-28T00:00	4520	582	-7.9	-8.7	278	11	
2025-07-28T00:00	4540	581	-8.3	-9.0	279	11	
2025-07-28T00:00	4560	579	-8.4	-9.0	282	12	
2025-07-28T00:00	4580	578	-8.6	-9.2	284	12	
2025-07-28T00:00	4600	577	-8.7	-9.3	286	12	
2025-07-28T00:00	4620	575	-8.8	-9.4	288	12	
2025-07-28T00:00	4640	574	-9.0	-9.6	288	12	
2025-07-28T00:00	4660	572	-9.1	-9.7	287	12	
2025-07-28T00:00	4680	571	-9.2	-9.8	285	12	
2025-07-28T00:00	4700	569	-9.4	-9.9	282	11	
2025-07-28T00:00	4720	568	-9.5	-10.1	280	11	
2025-07-28T00:00	4740	566	-9.6	-10.2	278	11	
2025-07-28T00:00	4760	565	-9.7	-10.2	277	10	
2025-07-28T00:00	4780	563	-9.8	-10.4	277	10	
2025-07-28T00:00	4800	562	-9.9	-10.6	278	10	
2025-07-28T00:00	4820	560	-10.1	-10.7	278	10	
2025-07-28T00:00	4840	559	-10.3	-10.9	279	10	
2025-07-28T00:00	4860	557	-10.5	-10.9	280	10	
2025-07-28T00:00	4880	556	-10.7	-11.1	280	10	
2025-07-28T00:00	4900	554	-10.9	-11.3	280	11	
2025-07-28T00:00	4920	553	-11.0	-11.4	278	11	
2025-07-28T00:00	4940	552	-11.2	-11.6	276	11	
2025-07-28T00:00	4960	550	-11.3	-11.8	273	11	
2025-07-28T00:00	4980	549	-11.5	-11.9	271	11	
2025-07-28T00:00	5000	547	-11.7	-12.1	270	10	
2025-07-28T00:00	5020	546	-11.8	-12.3	271	10	
2025-07-28T00:00	5040	544	-11.9	-12.4	273	9	
2025-07-28T00:00	5060	543	-12.0	-12.5	276	9	
2025-07-28T00:00	5080	542	-12.1	-12.6	279	9	
2025-07-28T00:00	5100	540	-12.2	-12.8	282	9	
2025-07-28T00:00	5120	539	-12.5	-13.0	282	10	
2025-07-28T00:00	5140	537	-12.6	-13.3	282	11	
2025-07-28T00:00	5160	536	-12.8	-13.8	281	12	
2025-07-28T00:00	5180	535	-13.0	-13.9	281	12	
2025-07-28T00:00	5200	533	-13.1	-14.1	280	12	
2025-07-28T00:00	5220	532	-13.3	-14.2	279	12	
2025-07-28T00:00	5240	530	-13.4	-14.5	278	12	
2025-07-28T00:00	5260	529	-13.6	-14.5	277	12	
2025-07-28T00:00	5280	528	-13.7	-14.6	276	12	
2025-07-28T00:00	5300	526	-13.8	-14.9	276	12	
2025-07-28T00:00	5320	525	-13.9	-14.9	276	11	
2025-07-28T00:00	5340	523	-14.1	-15.0	277	11	
2025-07-28T00:00	5360	522	-14.1	-15.0	277	10	
2025-07-28T00:00	5380	521	-14.2	-15.1	278	10	
2025-07-28T00:00	5400	519	-14.3	-15.2	279	9	
2025-07-28T00:00	5420	518	-14.4	-15.3	279	8	
2025-07-28T00:00	5440	517	-14.6	-15.3	277	8	
2025-07-28T00:00	5460	515	-14.6	-15.4	275	7	
2025-07-28T00:00	5480	514	-14.7	-15.4	272	7	
2025-07-28T00:00	5500	513	-14.8	-15.5	271	8	
2025-07-28T00:00	5520	511	-15.0	-15.6	271	8	
2025-07-28T00:00	5540	510	-15.1	-15.8	273	9	
2025-07-28T00:00	5560	509	-15.2	-15.9	275	9	
2025-07-28T00:00	5580	507	-15.4	-16.0	277	9	
2025-07-28T00:00	5600	506	-15.5	-16.1	279	9	
2025-07-28T00:00	5620	505	-15.6	-16.2	280	9	
2025-07-28T00:00	5640	503	-15.8	-16.4	280	9	
2025-07-28T00:00	5660	502	-15.9	-16.4	278	8	
2025-07-28T00:00	5680	501	-16.0	-16.6	274	8	
2025-07-28T00:00	5700	499	-16.2	-16.8	271	9	
2025-07-28T00:00	5720	498	-16.3	-16.9	269	9	
2025-07-28T00:00	5740	497	-16.4	-17.0	270	9	
2025-07-28T00:00	5760	495	-16.5	-17.2	271	10	
2025-07-28T00:00	5780	494	-16.6	-17.3	272	9	
2025-07-28T00:00	5800	493	-16.7	-17.5	273	9	
2025-07-28T00:00	5820	491	-16.9	-17.6	272	9	
2025-07-28T00:00	5840	490	-16.9	-17.6	272	9	
2025-07-28T00:00	5860	489	-17.1	-17.8	272	9	
2025-07-28T00:00	5880	487	-17.4	-18.1	272	9	
2025-07-28T00:00	5900	486	-17.5	-18.2	273	9	
2025-07-28T00:00	5920	485	-17.8	-18.5	273	8	
2025-07-28T00:00	5940	483	-18.0	-18.7	271	8	
2025-07-28T00:00	5960	482	-18.1	-18.8	268	8	
2025-07-28T00:00	5980	481	-18.3	-18.9	264	8	
2025-07-28T00:00	6000	480	-18.4	-19.1	261	8	
2025-07-28T00:00	6020	478	-18.4	-19.2	259	8	
2025-07-28T00:00	6040	477	-18.5	-19.2	260	8	
2025-07-28T00:00	6060	476	-18.6	-19.3	261	8	
2025-07-28T00:00	6080	474	-18.7	-19.5	262	8	
2025-07-28T00:00	6100	473	-18.8	-19.6	262	8	
2025-07-28T00:00	6120	472	-18.9	-19.7	262	8	
2025-07-28T00:00	6140	471	-19.1	-19.9	259	8	
2025-07-28T00:00	6160	469	-19.3	-20.0	257	8	
2025-07-28T00:00	6180	468	-19.5	-20.3	255	8	
2025-07-28T00:00	6200	467	-19.7	-20.4	256	8	
2025-07-28T00:00	6220	466	-19.8	-20.5	257	8	
2025-07-28T00:00	6240	464	-19.9	-20.7	259	8	
2025-07-28T00:00	6260	463	-20.2	-21.1	259	8	
2025-07-28T00:00	6280	462	-20.5	-24.4	258	8	
2025-07-28T00:00	6300	461	-20.8	-25.3	257	8	
2025-07-28T00:00	6320	459	-21.0	-28.7	258	8	
2025-07-28T00:00	6340	458	-21.3	-27.7	259	9	
2025-07-28T00:00	6360	457	-21.5	-27.2	262	9	
2025-07-28T00:00	6380	456	-21.8	-27.4	266	9	
2025-07-28T00:00	6400	454	-22.0	-27.5	270	8	
2025-07-28T00:00	6420	453	-22.3	-27.5	272	8	
2025-07-28T00:00	6440	452	-22.5	-27.9	271	7	
2025-07-28T00:00	6460	451	-22.7	-27.9	268	7	
2025-07-28T00:00	6480	449	-23.0	-28.3	266	7	
2025-07-28T00:00	6500	448	-23.2	-28.3	267	8	
2025-07-28T00:00	6520	447	-23.4	-28.6	269	9	
2025-07-28T00:00	6540	446	-23.7	-30.7	271	9	
2025-07-28T00:00	6560	445	-23.9	-31.3	273	10	
2025-07-28T00:00	6580	443	-24.2	-32.9	275	11	
2025-07-28T00:00	6600	442	-24.4	-34.7	277	11	
2025-07-28T00:00	6620	441	-24.6	-35.8	277	11	
2025-07-28T00:00	6640	440	-24.9	-37.4	277	11	
2025-07-28T00:00	6660	438	-25.1	-37.8	276	11	
2025-07-28T00:00	6680	437	-25.4	-38.5	274	11	
2025-07-28T00:00	6700	436	-25.6	-38.9	272	11	
2025-07-28T00:00	6720	435	-25.8	-38.6	272	12	
2025-07-28T00:00	6740	434	-26.1	-38.3	273	12	
2025-07-28T00:00	6760	433	-26.2	-37.7	274	12	
2025-07-28T00:00	6780	431	-26.4	-37.8	274	12	
2025-07-28T00:00	6800	430	-26.4	-36.0	273	11	
2025-07-28T00:00	6820	429	-26.5	-35.7	272	11	
2025-07-28T00:00	6840	428	-26.7	-35.6	270	11	
2025-07-28T00:00	6860	427	-26.8	-35.8	269	11	
2025-07-28T00:00	6880	425	-26.9	-37.9	268	11	
2025-07-28T00:00	6900	424	-27.2	-39.1	267	11	
2025-07-28T00:00	6920	423	-27.4	-40.1	265	11	
2025-07-28T00:00	6940	422	-27.5	-40.8	263	11	
2025-07-28T00:00	6960	421	-27.7	-41.3	262	11	
2025-07-28T00:00	6980	420	-27.8	-40.9	261	11	
2025-07-28T00:00	7000	418	-27.9	-41.1	261	11	
2025-07-28T00:00	7020	417	-28.1	-41.2	261	11	
2025-07-28T00:00	7040	416	-28.2	-41.4	260	10	
2025-07-28T00:00	7060	415	-28.3	-41.6	259	10	
2025-07-28T00:00	7080	414	-28.4	-41.3	257	10	
2025-07-28T00:00	7100	413	-28.5	-40.3	256	10	
2025-07-28T00:00	7120	411	-28.5	-38.6	254	10	
2025-07-28T00:00	7140	410	-28.6	-37.8	252	10	
2025-07-28T00:00	7160	409	-28.8	-37.9	251	9	
2025-07-28T00:00	7180	408	-28.9	-39.6	250	9	
2025-07-28T00:00	7200	407	-29.1	-39.7	251	9	
2025-07-28T00:00	7220	406	-29.0	-35.8	252	10	
2025-07-28T00:00	7240	405	-28.8	-33.2	254	10	
2025-07-28T00:00	7260	404	-28.5	-30.9	255	10	
2025-07-28T00:00	7280	402	-28.5	-30.9	256	10	
2025-07-28T00:00	7300	401	-28.6	-31.2	257	10	
2025-07-28T00:00	7320	400	-28.8	-31.7	257	9	
2025-07-28T00:00	7340	399	-28.9	-32.7	256	8	
2025-07-28T00:00	7360	398	-29.1	-33.2	257	8	
2025-07-28T00:00	7380	397	-29.3	-33.9	258	8	
2025-07-28T00:00	7400	396	-29.5	-34.4	260	8	
2025-07-28T00:00	7420	395	-29.8	-36.4	262	8	
2025-07-28T00:00	7440	394	-30.0	-36.8	263	8	
2025-07-28T00:00	7460	392	-30.2	-37.7	264	9	
2025-07-28T00:00	7480	391	-30.5	-39.5	266	9	
2025-07-28T00:00	7500	390	-30.7	-39.9	267	9	
2025-07-28T00:00	7520	389	-30.8	-39.9	269	9	
2025-07-28T00:00	7540	388	-31.0	-40.4	271	10	
2025-07-28T00:00	7560	387	-31.2	-40.2	272	10	
2025-07-28T00:00	7580	386	-31.4	-41.2	273	9	
2025-07-28T00:00	7600	385	-31.5	-40.7	273	10	
2025-07-28T00:00	7620	384	-31.7	-40.5	274	10	
2025-07-28T00:00	7640	382	-31.8	-41.0	275	10	
2025-07-28T00:00	7660	381	-32.0	-40.8	275	10	
2025-07-28T00:00	7680	380	-32.2	-41.0	275	10	
2025-07-28T00:00	7700	379	-32.4	-41.2	275	10	
2025-07-28T00:00	7720	378	-32.5	-41.3	273	10	
2025-07-28T00:00	7740	377	-32.7	-41.6	272	11	
2025-07-28T00:00	7760	376	-32.9	-42.1	272	11	
2025-07-28T00:00	7780	375	-33.1	-41.9	272	11	
2025-07-28T00:00	7800	374	-33.2	-42.2	272	11	
2025-07-28T00:00	7820	373	-33.3	-41.6	272	11	
2025-07-28T00:00	7840	372	-33.4	-41.0	272	11	
2025-07-28T00:00	7860	371	-33.6	-41.1	271	11	
2025-07-28T00:00	7880	370	-33.7	-41.4	270	11	
2025-07-28T00:00	7900	369	-33.9	-41.5	269	11	
2025-07-28T00:00	7920	368	-34.1	-41.6	269	11	
2025-07-28T00:00	7940	367	-34.3	-41.5	270	11	
2025-07-28T00:00	7960	366	-34.4	-41.5	271	11	
2025-07-28T00:00	7980	364	-34.6	-41.6	272	11	
2025-07-28T00:00	8000	363	-34.8	-41.8	273	11	
2025-07-28T00:00	8020	362	-35.0	-41.8	273	11	
2025-07-28T00:00	8040	361	-35.2	-41.8	273	11	
2025-07-28T00:00	8060	360	-35.3	-41.8	273	11	
2025-07-28T00:00	8080	359	-35.5	-42.4	273	11	
2025-07-28T00:00	8100	358	-35.8	-42.8	272	11	
2025-07-28T00:00	8120	357	-35.9	-42.8	272	11	
2025-07-28T00:00	8140	356	-36.1	-42.7	272	11	
2025-07-28T00:00	8160	355	-36.3	-42.4	272	11	
2025-07-28T00:00	8180	354	-36.4	-42.2	272	11	
2025-07-28T00:00	8200	353	-36.6	-42.3	272	11	
2025-07-28T00:00	8220	352	-36.8	-42.5	272	11	
2025-07-28T00:00	8240	351	-36.9	-42.3	272	11	
2025-07-28T00:00	8260	350	-37.1	-42.0	271	11	
2025-07-28T00:00	8280	349	-37.2	-42.1	270	11	
2025-07-28T00:00	8300	348	-37.4	-42.3	269	11	
2025-07-28T00:00	8320	347	-37.6	-42.4	268	11	
2025-07-28T00:00	8340	346	-37.7	-42.4	266	11	
2025-07-28T00:00	8360	345	-37.9	-42.3	265	11	
2025-07-28T00:00	8380	344	-38.0	-42.7	264	11	
2025-07-28T00:00	8400	343	-38.2	-42.8	263	11	
2025-07-28T00:00	8420	342	-38.4	-42.7	263	11	
2025-07-28T00:00	8440	341	-38.6	-42.7	263	11	
2025-07-28T00:00	8460	340	-38.7	-42.8	264	10	
2025-07-28T00:00	8480	339	-38.9	-42.9	264	10	
2025-07-28T00:00	8500	338	-39.1	-43.0	264	10	
2025-07-28T00:00	8520	337	-39.3	-43.1	264	10	
2025-07-28T00:00	8540	336	-39.4	-43.2	264	10	
2025-07-28T00:00	8560	335	-39.6	-43.4	263	10	
2025-07-28T00:00	8580	334	-39.8	-43.5	262	10	
2025-07-28T00:00	8600	333	-40.0	-43.6	261	9	
2025-07-28T00:00	8620	332	-40.1	-43.7	261	9	
2025-07-28T00:00	8640	331	-40.3	-43.8	261	8	
2025-07-28T00:00	8660	330	-40.5	-43.9	260	8	
2025-07-28T00:00	8680	329	-40.7	-44.0	259	8	
2025-07-28T00:00	8700	328	-40.8	-44.3	258	7	
2025-07-28T00:00	8720	327	-40.9	-44.6	258	8	
2025-07-28T00:00	8740	326	-41.1	-44.5	259	8	
2025-07-28T00:00	8760	325	-41.3	-44.6	261	8	
2025-07-28T00:00	8780	324	-41.5	-44.8	264	8	
2025-07-28T00:00	8800	323	-41.7	-45.0	267	8	
2025-07-28T00:00	8820	322	-41.8	-45.3	271	8	
2025-07-28T00:00	8840	322	-42.0	-45.6	274	7	
2025-07-28T00:00	8860	321	-42.1	-45.6	276	7	
2025-07-28T00:00	8880	320	-42.4	-46.0	277	6	
2025-07-28T00:00	8900	319	-42.6	-46.1	275	6	
2025-07-28T00:00	8920	318	-42.8	-46.2	272	7	
2025-07-28T00:00	8940	317	-43.0	-46.6	272	7	
2025-07-28T00:00	8960	316	-43.1	-47.0	272	8	
2025-07-28T00:00	8980	315	-43.4	-47.5	276	9	
2025-07-28T00:00	9000	314	-43.6	-47.3	280	9	
2025-07-28T00:00	9020	313	-43.8	-47.8	284	9	
2025-07-28T00:00	9040	312	-44.0	-48.0	289	8	
2025-07-28T00:00	9060	311	-44.2	-48.3	292	7	
2025-07-28T00:00	9080	310	-44.4	-48.5	293	7	
2025-07-28T00:00	9100	309	-44.6	-48.6	290	6	
2025-07-28T00:00	9120	308	-44.8	-48.6	286	7	
2025-07-28T00:00	9140	308	-45.0	-48.7	286	7	
2025-07-28T00:00	9160	307	-45.2	-48.8	289	7	
2025-07-28T00:00	9180	306	-45.4	-49.0	293	7	
2025-07-28T00:00	9200	305	-45.6	-49.2	295	7	
2025-07-28T00:00	9220	304	-45.8	-49.4	295	7	
2025-07-28T00:00	9240	303	-46.0	-49.6	293	7	
2025-07-28T00:00	9260	302	-46.3	-49.8	289	7	
2025-07-28T00:00	9280	301	-46.5	-49.8	286	7	
2025-07-28T00:00	9300	300	-46.7	-50.3	288	7	
2025-07-28T00:00	9320	299	-46.9	-50.6	290	8	
2025-07-28T00:00	9340	298	-47.0	-51.0	293	8	
2025-07-28T00:00	9360	298	-46.7	-51.5	295	8	
2025-07-28T00:00	9380	297	-46.8	-51.5	296	8	
2025-07-28T00:00	9400	296	-47.0	-51.3	293	8	
2025-07-28T00:00	9420	295	-47.1	-51.6	290	9	
2025-07-28T00:00	9440	294	-47.1	-52.2	287	9	
2025-07-28T00:00	9460	293	-47.3	-52.8	286	10	
2025-07-28T00:00	9480	292	-47.4	-54.0	286	11	
2025-07-28T00:00	9500	291	-47.5	-54.4	288	13	
2025-07-28T00:00	9520	290	-47.6	-54.2	291	13	
2025-07-28T00:00	9540	290	-47.5	-55.3	293	14	
2025-07-28T00:00	9560	289	-47.3	-57.6	295	15	
2025-07-28T00:00	9580	288	-47.1	-59.7	298	15	
2025-07-28T00:00	9600	287	-46.6	-61.4	299	15	
2025-07-28T00:00	9620	286	-46.5	-61.5	299	15	
2025-07-28T00:00	9640	285	-46.4	-61.5	299	15	
2025-07-28T00:00	9660	284	-46.1	-62.6	299	15	
2025-07-28T00:00	9680	283	-45.9	-62.3	298	15	
2025-07-28T00:00	9700	283	-45.6	-63.9	297	15	
2025-07-28T00:00	9720	282	-45.4	-64.5	297	16	
2025-07-28T00:00	9740	281	-45.2	-64.2	297	16	
2025-07-28T00:00	9760	280	-45.1	-63.6	296	17	
2025-07-28T00:00	9780	279	-44.9	-63.4	296	18	
2025-07-28T00:00	9800	278	-44.7	-63.8	296	18	
2025-07-28T00:00	9820	278	-44.6	-64.3	296	18	
2025-07-28T00:00	9840	277	-44.5	-66.3	297	18	
2025-07-28T00:00	9860	276	-44.4	-65.6	298	18	
2025-07-28T00:00	9880	275	-44.4	-64.8	298	19	
2025-07-28T00:00	9900	274	-44.5	-64.8	299	19	
2025-07-28T00:00	9920	274	-44.4	-65.0	300	19	
2025-07-28T00:00	9940	273	-44.2	-65.0	301	20	
2025-07-28T00:00	9960	272	-44.2	-66.2	301	20	
2025-07-28T00:00	9980	271	-44.2	-66.6	302	20	
2025-07-28T00:00	10000	270	-44.1	-65.2	303	20	
2025-07-28T00:00	10018	270	-44.0	-65.5	303	20	
2025-07-28T00:00	10050	268	-44.0	-66.8	304	20	
2025-07-28T00:00	10100	266	-43.9	-67.4	305	20	
2025-07-28T00:00	10150	264	-43.7	-67.3	305	20	
2025-07-28T00:00	10200	262	-43.7	-67.0	305	20	
2025-07-28T00:00	10250	260	-43.5	-66.6	307	19	
2025-07-28T00:00	10300	258	-43.4	-66.7	308	19	
2025-07-28T00:00	10350	257	-43.0	-66.5	309	20	
2025-07-28T00:00	10400	255	-43.1	-66.6	308	21	
2025-07-28T00:00	10450	253	-43.1	-67.6	306	21	
2025-07-28T00:00	10500	251	-43.0	-67.0	305	22	
2025-07-28T00:00	10550	249	-42.9	-68.4	305	22	
2025-07-28T00:00	10600	247	-42.9	-68.4	305	22	
2025-07-28T00:00	10650	245	-42.9	-68.8	306	22	
2025-07-28T00:00	10700	243	-42.9	-68.4	307	21	
2025-07-28T00:00	10750	242	-43.1	-67.6	306	21	
2025-07-28T00:00	10800	240	-43.2	-68.5	306	21	
2025-07-28T00:00	10850	238	-43.0	-67.9	307	21	
2025-07-28T00:00	10900	236	-43.0	-68.7	308	21	
2025-07-28T00:00	10950	235	-43.0	-69.2	306	21	
2025-07-28T00:00	11000	233	-42.8	-67.4	304	20	
2025-07-28T00:00	11050	231	-42.9	-68.5	302	20	
2025-07-28T00:00	11100	229	-43.0	-68.8	301	20	
2025-07-28T00:00	11150	228	-42.8	-69.4	302	20	
2025-07-28T00:00	11200	226	-42.7	-70.1	304	20	
2025-07-28T00:00	11250	224	-42.9	-70.2	306	19	
2025-07-28T00:00	11300	223	-43.1	-69.1	308	19	
2025-07-28T00:00	11350	221	-43.4	-69.6	308	19	
2025-07-28T00:00	11400	219	-43.5	-70.1	306	18	
2025-07-28T00:00	11450	218	-43.8	-69.2	303	19	
2025-07-28T00:00	11500	216	-44.1	-70.4	300	19	
2025-07-28T00:00	11550	215	-44.3	-69.6	299	20	
2025-07-28T00:00	11600	213	-44.4	-70.7	300	21	
2025-07-28T00:00	11650	211	-44.5	-70.5	302	21	
2025-07-28T00:00	11700	210	-44.5	-69.8	304	21	
2025-07-28T00:00	11750	208	-44.5	-68.3	303	21	
2025-07-28T00:00	11800	207	-44.5	-70.1	301	21	
2025-07-28T00:00	11850	205	-44.7	-70.6	298	21	
2025-07-28T00:00	11900	204	-44.7	-69.9	296	20	
2025-07-28T00:00	11950	202	-44.8	-71.1	293	20	
2025-07-28T00:00	12000	201	-44.8	-69.8	291	19	
2025-07-28T00:00	12050	199	-44.8	-69.3	291	19	
2025-07-28T00:00	12100	198	-44.9	-69.1	293	19	
2025-07-28T00:00	12150	196	-44.9	-69.3	295	21	
2025-07-28T00:00	12200	195	-45.1	-68.9	297	22	
2025-07-28T00:00	12250	193	-45.3	-69.0	299	23	
2025-07-28T00:00	12300	192	-45.2	-69.0	299	23	
2025-07-28T00:00	12350	190	-45.1	-69.8	298	22	
2025-07-28T00:00	12400	189	-45.4	-68.9	296	21	
2025-07-28T00:00	12450	188	-45.6	-70.3	296	21	
2025-07-28T00:00	12500	186	-45.6	-72.2	298	22	
2025-07-28T00:00	12550	185	-45.6	-71.3	301	22	
2025-07-28T00:00	12600	183	-45.6	-71.5	304	21	
2025-07-28T00:00	12650	182	-45.3	-70.9	306	20	
2025-07-28T00:00	12700	181	-45.2	-70.9	306	19	
2025-07-28T00:00	12750	179	-45.3	-71.3	304	18	
2025-07-28T00:00	12800	178	-45.5	-70.9	301	17	
2025-07-28T00:00	12850	177	-45.4	-72.4	299	17	
2025-07-28T00:00	12900	175	-45.5	-72.7	297	18	
2025-07-28T00:00	12950	174	-45.7	-73.2	297	18	
2025-07-28T00:00	13000	173	-45.7	-72.6	299	18	
2025-07-28T00:00	13050	171	-45.6	-71.8	301	18	
2025-07-28T00:00	13100	170	-45.8	-72.4	302	18	
2025-07-28T00:00	13150	169	-45.9	-71.5	303	18	
2025-07-28T00:00	13200	168	-46.1	-69.9	303	18	
2025-07-28T00:00	13250	166	-46.2	-70.4	302	16	
2025-07-28T00:00	13300	165	-46.3	-71.1	302	15	
2025-07-28T00:00	13350	164	-46.7	-71.8	301	13	
2025-07-28T00:00	13400	163	-46.9	-73.7	299	12	
2025-07-28T00:00	13450	161	-47.1	-74.3	296	12	
2025-07-28T00:00	13500	160	-47.3	-74.6	294	12	
2025-07-28T00:00	13550	159	-47.7	-74.6	293	12	
2025-07-28T00:00	13600	158	-48.0	-73.9	293	13	
2025-07-28T00:00	13650	157	-48.1	-74.0	294	14	
2025-07-28T00:00	13700	155	-48.3	-74.0	297	15	
2025-07-28T00:00	13750	154	-48.4	-74.0	299	16	
2025-07-28T00:00	13800	153	-48.6	-74.0	301	16	
2025-07-28T00:00	13850	152	-48.7	-74.2	301	15	
2025-07-28T00:00	13900	151	-48.8	-74.6	300	14	
2025-07-28T00:00	13950	150	-48.8	-75.3	298	14	
2025-07-28T00:00	14000	148	-48.8	-74.8	296	14	
2025-07-28T00:00	14050	147	-48.9	-75.0	297	13	
2025-07-28T00:00	14100	146	-49.1	-75.4	298	13	
2025-07-28T00:00	14150	145	-49.0	-75.3	298	12	
2025-07-28T00:00	14200	144	-49.1	-75.7	296	11	
2025-07-28T00:00	14250	143	-49.1	-75.7	292	10	
2025-07-28T00:00	14300	142	-49.3	-75.1	287	10	
2025-07-28T00:00	14350	141	-49.7	-75.6	285	10	
2025-07-28T00:00	14400	140	-50.0	-76.3	283	11	
2025-07-28T00:00	14450	139	-50.4	-76.3	280	12	
2025-07-28T00:00	14500	138	-50.6	-76.3	276	14	
2025-07-28T00:00	14550	136	-50.9	-76.7	273	15	
2025-07-28T00:00	14600	135	-51.3	-78.1	274	16	
2025-07-28T00:00	14650	134	-51.4	-77.7	277	16	
2025-07-28T00:00	14700	133	-51.4	-76.1	282	16	
2025-07-28T00:00	14750	132	-51.6	-76.1	284	16	
2025-07-28T00:00	14800	131	-51.6	-76.6	285	16	
2025-07-28T00:00	14850	130	-51.7	-76.6	287	17	
2025-07-28T00:00	14900	129	-51.7	-76.4	290	16	
2025-07-28T00:00	14950	128	-51.6	-75.6	292	16	
2025-07-28T00:00	15000	127	-51.7	-76.5	292	15	
2025-07-28T00:00	15050	126	-51.8	-77.5	291	14	
2025-07-28T00:00	15100	125	-51.8	-77.8	292	14	
2025-07-28T00:00	15150	124	-51.9	-78.1	293	14	
2025-07-28T00:00	15200	123	-52.1	-78.1	291	14	
2025-07-28T00:00	15250	123	-52.1	-78.3	287	14	
2025-07-28T00:00	15300	122	-52.4	-79.0	286	14	
2025-07-28T00:00	15350	121	-52.5	-79.1	286	13	
2025-07-28T00:00	15400	120	-52.1	-78.5	284	11	
2025-07-28T00:00	15450	119	-51.5	-78.3	279	10	
2025-07-28T00:00	15500	118	-50.9	-78.3	274	10	
2025-07-28T00:00	15550	117	-50.9	-78.4	268	10	
2025-07-28T00:00	15600	116	-50.9	-78.3	264	10	
2025-07-28T00:00	15650	115	-50.7	-78.3	266	10	
2025-07-28T00:00	15700	114	-50.9	-78.2	269	11	
2025-07-28T00:00	15750	113	-51.1	-78.3	273	13	
2025-07-28T00:00	15800	113	-51.3	-78.5	276	14	
2025-07-28T00:00	15850	112	-51.5	-78.2	278	14	
2025-07-28T00:00	15900	111	-51.5	-77.9	280	13	
2025-07-28T00:00	15950	110	-51.2	-77.8	281	12	
2025-07-28T00:00	16000	109	-51.2	-78.2	281	10	
2025-07-28T00:00	16050	108	-51.5	-79.0	277	9	
2025-07-28T00:00	16100	108	-51.8	-79.7	273	8	
2025-07-28T00:00	16150	107	-52.0	-79.9	270	7	
2025-07-28T00:00	16200	106	-51.8	-79.4	269	7	
2025-07-28T00:00	16250	105	-52.0	-79.5	271	7	
2025-07-28T00:00	16300	104	-52.2	-79.4	276	8	
2025-07-28T00:00	16350	103	-52.5	-79.5	280	9	
2025-07-28T00:00	16400	103	-52.8	-79.8	282	9	
2025-07-28T00:00	16450	102	-52.8	-80.2	281	9	
2025-07-28T00:00	16500	101	-52.9	-80.3	281	9	
2025-07-28T00:00	16550	100	-53.2	-80.6	282	9	
2025-07-28T00:00	16600	99	-53.5	-80.5	285	9	
2025-07-28T00:00	16650	99	-53.5	-80.0	288	9	
2025-07-28T00:00	16700	98	-53.5	-80.2	289	9	
2025-07-28T00:00	16750	97	-53.4	-80.9	285	9	
2025-07-28T00:00	16800	96	-53.5	-81.3	280	10	
2025-07-28T00:00	16850	96	-53.5	-80.9	279	10	
2025-07-28T00:00	16900	95	-53.3	-80.6	282	10	
2025-07-28T00:00	16950	94	-53.4	-80.8	285	11	
2025-07-28T00:00	17000	94	-53.3	-81.1	287	11	
2025-07-28T00:00	17050	93	-53.5	-81.2	290	11	
2025-07-28T00:00	17100	92	-53.6	-80.9	291	11	
2025-07-28T00:00	17150	91	-53.7	-80.8	293	11	
2025-07-28T00:00	17200	91	-53.9	-80.8	296	10	
2025-07-28T00:00	17250	90	-54.1	-80.9	295	9	
2025-07-28T00:00	17300	89	-54.1	-80.9	289	8	
2025-07-28T00:00	17350	89	-54.2	-81.1	278	8	
2025-07-28T00:00	17400	88	-54.3	-81.2	273	9	
2025-07-28T00:00	17450	87	-54.4	-81.5	275	10	
2025-07-28T00:00	17500	86	-54.2	-81.5	279	9	
2025-07-28T00:00	17550	86	-53.8	-81.8	284	8	
2025-07-28T00:00	17600	85	-53.3	-81.6	290	7	
2025-07-28T00:00	17650	84	-53.3	-81.1	299	6	
2025-07-28T00:00	17700	84	-52.9	-80.8	307	4	
2025-07-28T00:00	17750	83	-53.0	-81.0	308	3	
2025-07-28T00:00	17800	83	-53.3	-81.2	301	3	
2025-07-28T00:00	17850	82	-53.5	-81.4	286	2	
2025-07-28T00:00	17900	81	-53.4	-81.6	262	2	
2025-07-28T00:00	17950	81	-53.5	-82.1	234	2	
2025-07-28T00:00	18000	80	-53.9	-82.2	212	2	
2025-07-28T00:00	18050	79	-54.2	-81.9	209	4	
2025-07-28T00:00	18100	79	-54.5	-81.7	212	5	
2025-07-28T00:00	18150	78	-54.9	-81.8	214	5	
2025-07-28T00:00	18200	78	-55.2	-82.0	216	5	
2025-07-28T00:00	18250	77	-55.2	-82.4	219	5	
2025-07-28T00:00	18300	76	-54.6	-82.4	221	4	
2025-07-28T00:00	18350	76	-54.6	-82.6	221	4	
2025-07-28T00:00	18400	75	-54.7	-82.3	218	4	
2025-07-28T00:00	18450	75	-54.7	-81.9	215	4	
2025-07-28T00:00	18500	74	-55.0	-82.0	215	3	
2025-07-28T00:00	18550	73	-55.4	-82.2	227	3	
2025-07-28T00:00	18600	73	-55.3	-82.3	247	3	
2025-07-28T00:00	18650	72	-55.4	-82.4	269	4	
2025-07-28T00:00	18700	72	-55.3	-82.4	289	4	
2025-07-28T00:00	18750	71	-55.3	-82.4	303	4	
2025-07-28T00:00	18800	71	-55.0	-82.4	309	3	
2025-07-28T00:00	18850	70	-54.6	-82.5	309	2	
2025-07-28T00:00	18900	70	-54.8	-82.9	289	1	
2025-07-28T00:00	18950	69	-54.7	-82.8	259	2	
2025-07-28T00:00	19000	68	-54.6	-82.5	251	3	
2025-07-28T00:00	19050	68	-55.0	-82.3	247	4	
2025-07-28T00:00	19100	67	-55.2	-82.3	245	5	
2025-07-28T00:00	19150	67	-55.6	-82.8	246	6	
2025-07-28T00:00	19200	66	-56.0	-83.2	253	7	
2025-07-28T00:00	19250	66	-55.8	-83.1	267	7	
2025-07-28T00:00	19300	65	-55.5	-83.0	281	7	
2025-07-28T00:00	19350	65	-55.2	-82.9	296	7	
2025-07-28T00:00	19400	64	-55.0	-82.8	310	7	
2025-07-28T00:00	19450	64	-55.1	-82.9	325	6	
2025-07-28T00:00	19500	63	-55.0	-83.0	343	5	
2025-07-28T00:00	19550	63	-54.7	-82.7	6	3	
2025-07-28T00:00	19600	62	-54.6	-82.3	37	2	
2025-07-28T00:00	19650	62	-54.4	-82.3	89	1	
2025-07-28T00:00	19700	61	-54.6	-82.7	133	2	
2025-07-28T00:00	19750	61	-54.9	-83.0	157	3	
2025-07-28T00:00	19800	60	-54.9	-82.9	176	3	
2025-07-28T00:00	19850	60	-54.6	-82.9	201	3	
2025-07-28T00:00	19900	59	-54.6	-83.2	221	2	
2025-07-28T00:00	19950	59	-54.8	-83.4	228	2	
2025-07-28T00:00	20000	59	-54.8	-83.3	218	1	
2025-07-28T00:00	20050	58	-54.9		121	1	
2025-07-28T00:00	20100	58	-55.1		92	2	
2025-07-28T00:00	20150	57	-55.2		81	2	
2025-07-28T00:00	20200	57	-55.1		74	3	
2025-07-28T00:00	20250	56	-55.0		81	3	
2025-07-28T00:00	20300	56	-55.0		97	3	
2025-07-28T00:00	20350	55	-54.9		123	3	
2025-07-28T00:00	20400	55	-54.8		154	2	
2025-07-28T00:00	20450	55	-54.5		177	3	
2025-07-28T00:00	20500	54	-54.3		189	3	
2025-07-28T00:00	20550	54	-54.1		188	2	
2025-07-28T00:00	20600	53	-53.7		174	1	
2025-07-28T00:00	20650	53	-53.6		68	1	
2025-07-28T00:00	20700	52	-53.6		36	2	
2025-07-28T00:00	20750	52	-53.5		25	3	
2025-07-28T00:00	20800	52	-53.7		19	4	
2025-07-28T00:00	20850	51	-54.0		15	5	
2025-07-28T00:00	20900	51	-54.3		14	6	
2025-07-28T00:00	20950	50	-54.1		20	7	
2025-07-28T00:00	21000	50	-53.8		33	8	
2025-07-28T00:00	21050	50	-54.0		45	9	
2025-07-28T00:00	21100	49	-54.1		56	10	
2025-07-28T00:00	21150	49	-54.1		66	10	
2025-07-28T00:00	21200	49	-54.2		73	11	
2025-07-28T00:00	21250	48	-54.4		80	11	
2025-07-28T00:00	21300	48	-54.4		87	11	
2025-07-28T00:00	21350	47	-54.3		89	10	
2025-07-28T00:00	21400	47	-54.2		92	9	
2025-07-28T00:00	21450	47	-54.5		97	8	
2025-07-28T00:00	21500	46	-54.7		107	7	
2025-07-28T00:00	21550	46	-55.0		120	7	
2025-07-28T00:00	21600	46	-55.3		131	7	
2025-07-28T00:00	21650	45	-55.6		141	7	
2025-07-28T00:00	21700	45	-55.8		153	6	
2025-07-28T00:00	21750	45	-55.9		166	5	
2025-07-28T00:00	21800	44	-55.6		175	5	
2025-07-28T00:00	21850	44	-55.7		179	5	
2025-07-28T00:00	21900	43	-55.8		175	3	
2025-07-28T00:00	21950	43	-55.8		151	2	
2025-07-28T00:00	22000	43	-55.8		92	2	
2025-07-28T00:00	22050	42	-55.8		67	3	
2025-07-28T00:00	22100	42	-55.8		62	4	
2025-07-28T00:00	22150	42	-55.9		64	5	
2025-07-28T00:00	22200	41	-56.1		65	6	
2025-07-28T00:00	22250	41	-56.3		67	7	
2025-07-28T00:00	22300	41	-56.4		72	8	
2025-07-28T00:00	22350	41	-56.4		78	10	
2025-07-28T00:00	22400	40	-56.4		84	10	
2025-07-28T00:00	22450	40	-56.1		92	10	
2025-07-28T00:00	22500	40	-55.9		100	11	
2025-07-28T00:00	22550	39	-55.8		106	12	
2025-07-28T00:00	22600	39	-55.6		107	13	
2025-07-28T00:00	22650	39	-55.2		109	12	
2025-07-28T00:00	22700	38	-54.8		112	11	
2025-07-28T00:00	22750	38	-54.6		114	9	
2025-07-28T00:00	22800	38	-54.1		114	8	
2025-07-28T00:00	22850	37	-54.1		109	7	
2025-07-28T00:00	22900	37	-53.6		104	8	
2025-07-28T00:00	22950	37	-53.1		104	10	
2025-07-28T00:00	23000	37	-53.0		105	10	
2025-07-28T00:00	23050	36	-52.8		107	9	
2025-07-28T00:00	23100	36	-52.6		112	8	
2025-07-28T00:00	23150	36	-52.3		116	7	
2025-07-28T00:00	23200	35	-52.3		112	6	
2025-07-28T00:00	23250	35	-52.5		107	6	
2025-07-28T00:00	23300	35	-52.6		104	5	
2025-07-28T00:00	23350	35	-52.6		97	5	
2025-07-28T00:00	23400	34	-52.7		89	5	
2025-07-28T00:00	23450	34	-52.6		86	6	
2025-07-28T00:00	23500	34	-52.8		88	7	
2025-07-28T00:00	23550	34	-52.9		94	8	
2025-07-28T00:00	23600	33	-52.9		100	8	
2025-07-28T00:00	23650	33	-52.8		103	8	
2025-07-28T00:00	23700	33	-52.4		101	7	
2025-07-28T00:00	23750	33	-52.2		100	6	
2025-07-28T00:00	23800	32	-52.2		101	7	
2025-07-28T00:00	23850	32	-52.0		103	8	
2025-07-28T00:00	23900	32	-51.6		106	10	
2025-07-28T00:00	23950	32	-51.6		108	11	
2025-07-28T00:00	24000	31	-51.5		110	12	
2025-07-28T00:00	24050	31	-51.6		110	12	
2025-07-28T00:00	24100	31	-51.3		111	12	
2025-07-28T00:00	24150	31	-51.3		110	11	
2025-07-28T00:00	24200	30	-51.3		106	10	
2025-07-28T00:00	24250	30	-51.2		101	8	
2025-07-28T00:00	24300	30	-51.3		97	7	
2025-07-28T00:00	24350	30	-51.6		88	5	
2025-07-28T00:00	24400	29	-51.8		68	4	
2025-07-28T00:00	24450	29	-51.8		49	5	
2025-07-28T00:00	24500	29	-51.4		48	7	
2025-07-28T00:00	24550	29	-51.0		55	8	
2025-07-28T00:00	24600	29	-50.8		60	9	
2025-07-28T00:00	24650	28	-50.6		62	9	
2025-07-28T00:00	24700	28	-50.2		64	9	
2025-07-28T00:00	24750	28	-50.2		67	9	
2025-07-28T00:00	24800	28	-50.3		72	9	
2025-07-28T00:00	24850	27	-50.5		76	9	
2025-07-28T00:00	24900	27	-50.6		78	10	
2025-07-28T00:00	24950	27	-50.8		80	11	
2025-07-28T00:00	25000	27	-51.1		85	11	
2025-07-28T00:00	25050	27	-51.0		94	11	
2025-07-28T00:00	25100	26	-51.0		103	11	
2025-07-28T00:00	25150	26	-51.1		111	12	
2025-07-28T00:00	25200	26	-51.2		120	12	
2025-07-28T00:00	25250	26	-51.2		128	11	
2025-07-28T00:00	25300	26	-51.3		135	11	
2025-07-28T00:00	25350	25	-51.4		139	9	
2025-07-28T00:00	25400	25	-51.3		140	8	
2025-07-28T00:00	25450	25	-51.1		140	5	
2025-07-28T00:00	25500	25	-50.9		128	3	
2025-07-28T00:00	25550	25	-50.6		96	3	
2025-07-28T00:00	25600	25	-50.5		70	3	
2025-07-28T00:00	25650	24	-50.2		57	5	
2025-07-28T00:00	25700	24	-50.1		53	7	
2025-07-28T00:00	25750	24	-49.9		53	8	
2025-07-28T00:00	25800	24	-49.7		57	7	
2025-07-28T00:00	25850	24	-49.6		64	6	
2025-07-28T00:00	25900	23	-49.7		66	5	
2025-07-28T00:00	25950	23	-49.4		58	6	
2025-07-28T00:00	26000	23	-48.9		52	7	
2025-07-28T00:00	26050	23	-48.6		55	8	
2025-07-28T00:00	26100	23	-48.5		65	9	
2025-07-28T00:00	26150	23	-48.2		73	9	
2025-07-28T00:00	26200	22	-47.7		78	9	
2025-07-28T00:00	26250	22	-47.6		78	10	
2025-07-28T00:00	26300	22	-47.3		78	12	
2025-07-28T00:00	26350	22	-47.4		80	12	
2025-07-28T00:00	26400	22	-47.4		84	12	
2025-07-28T00:00	26450	22	-47.4		90	12	
2025-07-28T00:00	26500	21	-47.3		96	12	
2025-07-28T00:00	26550	21	-47.4		101	12	
2025-07-28T00:00	26600	21	-47.1		105	12	
2025-07-28T00:00	26650	21	-47.0		108	11	
2025-07-28T00:00	26700	21	-46.9		107	10	
2025-07-28T00:00	26750	21	-46.7		101	10	
2025-07-28T00:00	26800	20	-46.4		97	11	
2025-07-28T00:00	26850	20	-46.0		97	11	
2025-07-28T00:00	26900	20	-45.7		99	10	
2025-07-28T00:00	26950	20	-45.6		100	8	
2025-07-28T00:00	27000	20	-45.5		95	7	
2025-07-28T00:00	27050	20	-45.4		84	6	
2025-07-28T00:00	27100	20	-45.2		76	7	
2025-07-28T00:00	27150	19	-44.9		76	9	
2025-07-28T00:00	27200	19	-44.7		79	11	
2025-07-28T00:00	27250	19	-44.4		83	13	
2025-07-28T00:00	27300	19	-44.2		86	13	
2025-07-28T00:00	27350	19	-44.1		88	13	
2025-07-28T00:00	27400	19	-44.2		88	13	
2025-07-28T00:00	27450	19	-44.2		87	14	
2025-07-28T00:00	27500	18	-44.1		86	14	
2025-07-28T00:00	27550	18	-44.0		87	14	
2025-07-28T00:00	27600	18	-43.8		91	15	
2025-07-28T00:00	27650	18	-43.7		94	15	
2025-07-28T00:00	27700	18	-43.8		96	14	
2025-07-28T00:00	27750	18	-43.8		96	14	
2025-07-28T00:00	27800	18	-43.8		96	13	
2025-07-28T00:00	27850	17	-43.6		94	12	
2025-07-28T00:00	27900	17	-43.7		94	11	
2025-07-28T00:00	27950	17	-43.7		96	10	
2025-07-28T00:00	28000	17	-43.8		97	10	
2025-07-28T00:00	28050	17	-43.9		94	10	
2025-07-28T00:00	28100	17	-43.8		91	11	
2025-07-28T00:00	28150	17	-43.8		90	11	
2025-07-28T00:00	28200	17	-43.9		90	12	
2025-07-28T00:00	28250	16	-43.9		90	13	
2025-07-28T00:00	28300	16	-44.1		89	14	
2025-07-28T00:00	28350	16	-44.1		89	14	
2025-07-28T00:00	28400	16	-44.2		89	15	
2025-07-28T00:00	28450	16	-44.0		90	14	
2025-07-28T00:00	28500	16	-44.0		92	13	
2025-07-28T00:00	28550	16	-44.3		93	12	
2025-07-28T00:00	28600	16	-44.5		91	11	
2025-07-28T00:00	28650	15	-44.6		87	10	
2025-07-28T00:00	28700	15	-44.4		83	11	
2025-07-28T00:00	28750	15	-44.3		81	11	
2025-07-28T00:00	28800	15	-44.2		82	12	
2025-07-28T00:00	28850	15	-44.3		84	13	
2025-07-28T00:00	28900	15	-44.3		87	13	
2025-07-28T00:00	28950	15	-44.2		89	14	
2025-07-28T00:00	29000	15	-44.3		93	14	
2025-07-28T00:00	29050	15	-44.2		97	14	
2025-07-28T00:00	29100	14	-44.2		101	14	
2025-07-28T00:00	29150	14	-44.2		104	13	
2025-07-28T00:00	29200	14	-44.1		104	12	
2025-07-28T00:00	29250	14	-44.2		101	12	
2025-07-28T00:00	29300	14	-44.0		96	11	
2025-07-28T00:00	29350	14	-43.9		91	11	
2025-07-28T00:00	29400	14	-43.9		86	10	
2025-07-28T00:00	29450	14	-44.0		83	11	
2025-07-28T00:00	29500	14	-43.9		84	12	
2025-07-28T00:00	29550	14	-43.7		88	13	
2025-07-28T00:00	29600	13	-43.7		94	15	
2025-07-28T00:00	29650	13	-43.7		99	15	
2025-07-28T00:00	29700	13	-43.7		102	15	
2025-07-28T00:00	29750	13	-43.8		101	13	
2025-07-28T00:00	29800	13	-43.7		98	12	
2025-07-28T00:00	29850	13	-43.6		94	12	
2025-07-28T00:00	29900	13	-43.3		88	11	
2025-07-28T00:00	29950	13	-43.2		83	11	
2025-07-28T00:00	30000	13	-43.0		80	11	
2025-07-28T00:00	30050	13	-42.8		80	12	
2025-07-28T00:00	30100	12	-43.0		82	12	
2025-07-28T00:00	30150	12	-43.0		86	13	
2025-07-28T00:00	30200	12	-43.1		90	13	
2025-07-28T00:00	30250	12	-43.1		95	13	
2025-07-28T00:00	30300	12	-43.2		100	14	
2025-07-28T00:00	30350	12	-43.1		106	14	
2025-07-28T00:00	30400	12	-43.1		111	14	
2025-07-28T00:00	30450	12	-43.0		115	13	
2025-07-28T00:00	30500	12	-42.8		118	12	
2025-07-28T00:00	30550	12	-42.7		121	11	
2025-07-28T00:00	30600	12	-42.5		122	10	
2025-07-28T00:00	30650	12	-42.0		121	10	
2025-07-28T00:00	30700	11	-41.7		118	9	
2025-07-28T00:00	30750	11	-41.5		114	10	
2025-07-28T00:00	30800	11	-41.4		112	9	
2025-07-28T00:00	30850	11	-41.3		112	9	
2025-07-28T00:00	30900	11	-41.3		112	8	
2025-07-28T00:00	30950	11	-41.1		109	8	
2025-07-28T00:00	31000	11	-41.1		100	8	
2025-07-28T00:00	31050	11	-41.1		90	8	
2025-07-28T00:00	31100	11	-41.2		83	9	
2025-07-28T00:00	31150	11	-41.3		79	9	
2025-07-28T00:00	31200	11	-41.3		80	10	
2025-07-28T00:00	31250	11	-41.0		86	10	
2025-07-28T00:00	31300	10	-41.0		93	11	
2025-07-28T00:00	31350	10	-41.0		100	10	
2025-07-28T00:00	31400	10	-41.1		103	10	
2025-07-28T00:00	31450	10	-41.1		99	9	
2025-07-28T00:00	31500	10	-40.7		89	9	
2025-07-28T00:00	31550	10	-40.5		80	10	
2025-07-28T00:00	31600	10	-40.3		73	12	
2025-07-28T00:00	31650	10	-40.0		70	13	
2025-07-28T00:00	31700	10	-39.6		68	14	
2025-07-28T00:00	31750	10	-39.4		68	14	
2025-07-28T00:00	31800	10	-39.1		71	13	
2025-07-28T00:00	31850	10	-39.0		75	12	
2025-07-28T00:00	31900	10	-39.3		78	12	
2025-07-28T00:00	31950	10	-39.4		78	13	
2025-07-28T00:00	32000	9	-39.1		77	14	
2025-07-28T00:00	32050	9	-39.0		76	15	
2025-07-28T00:00	32100	9	-38.9		77	15	
2025-07-28T00:00	32150	9	-38.7		78	14	
2025-07-28T00:00	32200	9	-38.5		79	14	
2025-07-28T00:00	32250	9	-38.2		81	13	
2025-07-28T00:00	32300	9	-38.4		82	13	
2025-07-28T00:00	32350	9	-38.3		81	14	
2025-07-28T00:00	32400	9	-38.1		81	15	
2025-07-28T00:00	32450	9	-37.9		83	16	
2025-07-28T00:00	32500	9	-37.6		87	16	
2025-07-28T00:00	32550	9	-37.4		92	16	
2025-07-28T00:00	32600	9	-37.4		97	15	
2025-07-28T00:00	32650	9	-37.4		101	14	
2025-07-28T00:00	32700	9	-37.3		101	13	
2025-07-28T00:00	32750	8	-37.0		100	12	
2025-07-28T00:00	32800	8	-36.8		100	11	
2025-07-28T00:00	32850	8	-36.5		100	10	
2025-07-28T00:00	32900	8	-36.2		99	9	
2025-07-28T00:00	32950	8	-36.1		92	10	
2025-07-28T00:00	33000	8	-36.1		84	10	
2025-07-28T00:00	33050	8	-36.0		79	12	
2025-07-28T00:00	33100	8	-35.8		80	13	
2025-07-28T00:00	33150	8	-35.6		81	13	
2025-07-28T00:00	33200	8	-35.5		79	13	
2025-07-28T00:00	33250	8	-35.5		76	12	
2025-07-28T00:00	33300	8	-35.3		74	11	
2025-07-28T00:00	33350	8	-35.2		75	10	
2025-07-28T00:00	33400	8	-35.4		76	11	
2025-07-28T00:00	33450	8	-35.2		75	11	
2025-07-28T00:00	33500	8	-35.1		74	11	
2025-07-28T00:00	33550	8	-35.1		73	10	
2025-07-28T00:00	33600	7	-35.3		71	9	
2025-07-28T00:00	33650	7	-35.2		68	10	
2025-07-28T00:00	33700	7	-35.3		65	10	
2025-07-28T00:00	33750	7	-35.2		64	12	
2025-07-28T00:00	33800	7	-35.3		65	14	
2025-07-28T00:00	33850	7	-35.3		67	15	
2025-07-28T00:00	33900	7	-35.2		69	16	
2025-07-28T00:00	33950	7	-35.4		71	18	
2025-07-28T00:00	34000	7	-35.7		73	19	
2025-07-28T00:00	34050	7	-35.9		76	20	
2025-07-28T00:00	34100	7	-36.0		79	20	
2025-07-28T00:00	34150	7	-35.9		81	20	
2025-07-28T00:00	34200	7	-35.7		82	20	
2025-07-28T00:00	34250	7	-35.6		84	20	
2025-07-28T00:00	34300	7	-35.6		86	20	
2025-07-28T00:00	34350	7	-35.5		88	19	
2025-07-28T00:00	34400	7	-35.4		90	18	
2025-07-28T00:00	34450	7	-35.0		91	18	
2025-07-28T00:00	34500	7	-34.3		91	19	
2025-07-28T00:00	34550	7	-33.7		91	19	
2025-07-28T00:00	34600	6	-33.2		89	19	
2025-07-28T00:00	34650	6	-32.9		88	19	
2025-07-28T00:00	34700	6	-32.6		87	19	
2025-07-28T00:00	34750	6	-32.4		87	20	
2025-07-28T00:00	34800	6	-32.3		89	20	
2025-07-28T00:00	34850	6	-32.1		90	21	
2025-07-28T00:00	34900	6	-31.7		91	22	
2025-07-28T00:00	34950	6	-31.2		91	23	
2025-07-28T00:00	35000	6	-31.1		92	24	
2025-07-28T00:00	35050	6	-30.9		94	25	
2025-07-28T00:00	35100	6	-30.8		96	26	
2025-07-28T00:00	35150	6	-31.0		97	27	
2025-07-28T00:00	35200	6	-31.1		98	27	
2025-07-28T00:00	35250	6	-31.3		99	26	
2025-07-28T00:00	35300	6	-31.1		99	26	
2025-07-28T00:00	35350	6	-30.8		99	25	
2025-07-28T00:00	35400	6	-31.0		98	25	
2025-07-28T00:00	35450	6	-30.8		97	25	
2025-07-28T00:00	35500	6	-30.6		97	26	
2025-07-28T00:00	35550	6	-30.4		98	26	
2025-07-28T00:00	35600	6	-30.3		99	27	
2025-07-28T00:00	35650	6	-30.2		97	27	
2025-07-28T00:00	35700	6	-30.2		94	26	
2025-07-28T00:00	35750	6	-30.0		89	27	
2025-07-28T00:00	35800	5	-29.9		86	27	
2025-07-28T00:00	35850	5	-29.8		84	28	
2025-07-28T00:00	35900	5	-29.2		85	28	
2025-07-28T00:00	35950	5	-29.2		85	27	
2025-07-28T00:00	36000	5	-29.1		85	25	
2025-07-28T00:00	36050	5	-29.2		85	24	
2025-07-28T00:00	36100	5	-29.4		87	22	
2025-07-28T00:00	36150	5	-29.4		89	21	
2025-07-28T00:00	36200	5	-29.4		89	20	
2025-07-28T00:00	36250	5	-29.0		85	21	
2025-07-28T00:00	36300	5	-28.5		80	23	
2025-07-28T00:00	36350	5	-28.3		78	24	
2025-07-28T00:00	36400	5	-28.2		76	26	
2025-07-28T00:00	36450	5	-28.0		76	28	
2025-07-28T00:00	36500	5	-28.1		76	30	
2025-07-28T00:00	36550	5	-28.1		78	32	
2025-07-28T00:00	36600	5	-28.2		79	32	
2025-07-28T00:00	36650	5	-28.2		79	32	
2025-07-28T12:00	491	961	15.5	10.9	241	0	3.4
2025-07-28T12:00	501	960	15.4	10.8	212	1	3.4
2025-07-28T12:00	520	957	15.1	10.6	264	0	3.4
2025-07-28T12:00	540	955	14.9	10.5	317	1	3.4
2025-07-28T12:00	560	953	14.7	10.3	335	1	3.4
2025-07-28T12:00	580	951	14.7	9.9	342	2	3.4
2025-07-28T12:00	600	948	14.5	9.8	346	2	3.5
2025-07-28T12:00	620	946	14.3	10.0	346	2	3.5
2025-07-28T12:00	640	944	14.3	9.1	343	3	3.5
2025-07-28T12:00	660	941	14.1	9.2	340	3	3.5
2025-07-28T12:00	680	939	13.9	9.2	337	3	3.6
2025-07-28T12:00	700	937	13.6	9.3	336	4	3.6
2025-07-28T12:00	720	935	13.6	8.8	336	4	3.6
2025-07-28T12:00	740	933	13.5	8.5	337	4	3.6
2025-07-28T12:00	760	930	13.3	8.4	339	4	3.6
2025-07-28T12:00	780	928	13.1	8.5	342	4	3.6
2025-07-28T12:00	800	926	12.9	8.5	345	4	3.6
2025-07-28T12:00	820	924	12.8	8.4	347	4	3.6
2025-07-28T12:00	840	922	12.6	8.2	348	5	3.6
2025-07-28T12:00	860	919	12.5	8.1	348	5	3.6
2025-07-28T12:00	880	917	12.2	8.2	346	5	3.7
2025-07-28T12:00	900	915	12.1	8.0	345	5	3.6
2025-07-28T12:00	920	913	11.9	8.1	344	5	3.6
2025-07-28T12:00	940	911	11.7	8.0	344	5	3.7
2025-07-28T12:00	960	908	11.5	7.8	344	6	3.7
2025-07-28T12:00	980	907	11.4	7.8	345	6	3.6
2025-07-28T12:00	1000	904	11.2	7.9	346	6	3.7
2025-07-28T12:00	1020	902	11.0	7.7	348	6	3.6
2025-07-28T12:00	1040	900	10.8	7.7	348	7	3.6
2025-07-28T12:00	1060	898	10.6	7.7	348	7	3.6
2025-07-28T12:00	1080	896	10.5	7.6	347	7	3.6
2025-07-28T12:00	1100	893	10.3	7.6	345	7	3.6
2025-07-28T12:00	1120	891	10.1	7.6	342	7	3.6
2025-07-28T12:00	1140	889	9.9	7.5	341	7	3.6
2025-07-28T12:00	1160	887	9.7	7.4	341	7	3.6
2025-07-28T12:00	1180	885	9.5	7.4	343	7	3.6
2025-07-28T12:00	1200	883	9.3	7.4	345	8	3.6
2025-07-28T12:00	1220	881	9.1	7.3	348	8	3.6
2025-07-28T12:00	1240	879	8.9	7.3	350	8	3.6
2025-07-28T12:00	1260	876	8.8	7.2	352	9	3.6
2025-07-28T12:00	1280	874	8.6	7.2	353	9	3.6
2025-07-28T12:00	1300	872	8.4	7.0	353	10	3.6
2025-07-28T12:00	1320	870	8.4	6.6	353	10	3.6
2025-07-28T12:00	1340	868	8.4	6.4	353	10	3.6
2025-07-28T12:00	1360	866	8.3	6.1	353	10	3.6
2025-07-28T12:00	1380	864	8.1	6.1	353	9	3.6
2025-07-28T12:00	1400	862	7.9	6.0	354	9	3.6
2025-07-28T12:00	1420	860	7.8	6.1	354	9	3.6
2025-07-28T12:00	1440	858	7.5	6.1	355	9	3.6
2025-07-28T12:00	1460	855	7.3	5.8	355	9	3.6
2025-07-28T12:00	1480	853	7.3	5.4	355	9	3.6
2025-07-28T12:00	1500	851	7.3	5.0	355	9	3.6
2025-07-28T12:00	1520	849	7.2	5.0	354	10	3.6
2025-07-28T12:00	1540	847	7.0	5.0	354	10	3.7
2025-07-28T12:00	1560	845	6.8	4.9	355	9	3.7
2025-07-28T12:00	1580	843	6.6	4.8	356	9	3.7
2025-07-28T12:00	1600	841	6.5	4.8	358	9	3.7
2025-07-28T12:00	1620	839	6.3	4.8	360	8	3.7
2025-07-28T12:00	1640	837	6.1	4.6	2	8	3.7
2025-07-28T12:00	1660	835	6.0	4.6	5	8	3.7
2025-07-28T12:00	1680	833	5.8	4.5	6	9	3.7
2025-07-28T12:00	1700	831	5.7	4.5	6	9	3.7
2025-07-28T12:00	1720	829	5.5	4.4	7	9	3.7
2025-07-28T12:00	1740	827	5.3	4.5	7	9	3.7
2025-07-28T12:00	1760	825	5.2	4.9	7	9	3.6
2025-07-28T12:00	1780	823	5.0	4.8	7	8	3.6
2025-07-28T12:00	1800	821	4.9	4.8	7	8	3.6
2025-07-28T12:00	1820	819	4.8	4.7	7	8	3.5
2025-07-28T12:00	1840	817	4.7	4.6	7	8	3.5
2025-07-28T12:00	1860	815	4.6	4.3	6	8	3.5
2025-07-28T12:00	1880	813	4.5	4.1	5	8	3.5
2025-07-28T12:00	1900	811	4.4	4.0	4	8	3.5
2025-07-28T12:00	1920	809	4.2	4.0	3	8	3.5
2025-07-28T12:00	1940	807	4.1	3.9	1	8	3.5
2025-07-28T12:00	1960	805	4.0	3.6	0	8	3.5
2025-07-28T12:00	1980	803	3.9	3.6	359	7	3.4
2025-07-28T12:00	2000	801	3.8	3.4	357	7	3.4
2025-07-28T12:00	2020	799	3.7	3.4	356	7	3.4
2025-07-28T12:00	2040	797	3.6	3.3	355	7	3.5
2025-07-28T12:00	2060	795	3.5	3.3	354	7	3.5
2025-07-28T12:00	2080	793	3.3	3.2	353	7	3.4
2025-07-28T12:00	2100	791	3.2	3.0	352	7	3.4
2025-07-28T12:00	2120	789	3.1	3.0	352	7	3.4
2025-07-28T12:00	2140	787	3.0	2.9	352	7	3.4
2025-07-28T12:00	2160	785	2.8	2.8	353	7	3.4
2025-07-28T12:00	2180	783	2.7	2.7	353	7	3.4
2025-07-28T12:00	2200	781	2.6	2.6	354	7	3.4
2025-07-28T12:00	2220	779	2.5	2.5	354	7	3.3
2025-07-28T12:00	2240	777	2.4	2.4	354	7	3.3
2025-07-28T12:00	2260	776	2.3	2.3	354	7	3.3
2025-07-28T12:00	2280	774	2.2	2.2	353	7	3.3
2025-07-28T12:00	2300	772	2.1	2.1	353	7	3.3
2025-07-28T12:00	2320	770	2.0	2.0	352	7	3.3
2025-07-28T12:00	2340	768	1.9	1.9	350	7	3.2
2025-07-28T12:00	2360	766	1.8	1.8	349	7	3.2
2025-07-28T12:00	2380	764	1.7	1.7	348	7	3.2
2025-07-28T12:00	2400	763	1.6	1.6	346	7	3.2
2025-07-28T12:00	2420	761	1.5	1.5	344	7	3.2
2025-07-28T12:00	2440	759	1.4	1.4	342	6	3.2
2025-07-28T12:00	2460	757	1.3	1.3	340	6	3.2
2025-07-28T12:00	2480	755	1.2	1.2	338	7	3.2
2025-07-28T12:00	2500	753	1.0	1.0	338	7	3.2
2025-07-28T12:00	2520	751	0.8	0.8	338	7	3.2
2025-07-28T12:00	2540	749	0.7	0.7	338	7	3.2
2025-07-28T12:00	2560	747	0.6	0.6	338	7	3.2
2025-07-28T12:00	2580	746	0.5	0.5	338	7	3.2
2025-07-28T12:00	2600	744	0.4	0.4	340	7	3.2
2025-07-28T12:00	2620	742	0.3	0.3	342	7	3.3
2025-07-28T12:00	2640	740	0.2	0.1	344	7	3.3
2025-07-28T12:00	2660	738	0.3	-0.2	347	7	3.3
2025-07-28T12:00	2680	736	0.2	-0.2	348	7	3.3
2025-07-28T12:00	2700	734	0.1	-0.4	349	7	3.4
2025-07-28T12:00	2720	732	0.0	-0.5	348	7	3.4
2025-07-28T12:00	2740	731	-0.2	-0.6	347	7	3.4
2025-07-28T12:00	2760	729	-0.3	-0.7	347	7	3.4
2025-07-28T12:00	2780	727	-0.4	-0.8	347	7	3.4
2025-07-28T12:00	2800	725	-0.5	-0.9	348	7	3.4
2025-07-28T12:00	2820	723	-0.6	-1.1	348	7	3.4
2025-07-28T12:00	2840	722	-0.7	-1.1	349	6	3.4
2025-07-28T12:00	2860	720	-0.9	-1.2	349	6	3.4
2025-07-28T12:00	2880	718	-1.0	-1.2	350	6	3.3
2025-07-28T12:00	2900	716	-1.2	-1.3	350	6	3.3
2025-07-28T12:00	2920	715	-1.3	-1.4	351	6	3.3
2025-07-28T12:00	2940	713	-1.4	-1.5	352	6	3.2
2025-07-28T12:00	2960	711	-1.4	-1.8	353	6	3.2
2025-07-28T12:00	2980	709	-1.3	-2.1	354	6	3.2
2025-07-28T12:00	3000	707	-1.4	-2.2	354	6	3.2
2025-07-28T12:00	3020	706	-1.5	-2.3	353	6	3.2
2025-07-28T12:00	3040	704	-1.6	-2.3	351	6	3.2
2025-07-28T12:00	3060	702	-1.8	-2.4	349	6	3.2
2025-07-28T12:00	3080	700	-1.9	-2.5	348	6	3.2
2025-07-28T12:00	3100	699	-2.0	-2.5	346	6	3.2
2025-07-28T12:00	3120	697	-2.0	-2.7	346	6	3.2
2025-07-28T12:00	3140	695	-2.1	-2.7	346	6	3.2
2025-07-28T12:00	3160	693	-2.3	-2.7	346	6	3.2
2025-07-28T12:00	3180	691	-2.5	-2.8	347	5	3.2
2025-07-28T12:00	3200	690	-2.6	-2.8	347	5	3.2
2025-07-28T12:00	3220	688	-2.7	-2.9	348	5	3.3
2025-07-28T12:00	3240	686	-2.8	-3.0	349	5	3.2
2025-07-28T12:00	3260	685	-2.9	-3.1	350	5	3.2
2025-07-28T12:00	3280	683	-3.1	-3.2	351	5	3.2
2025-07-28T12:00	3300	681	-3.2	-3.3	352	5	3.2
2025-07-28T12:00	3320	680	-3.4	-3.4	353	5	3.2
2025-07-28T12:00	3340	678	-3.4	-3.5	353	5	3.2
2025-07-28T12:00	3360	676	-3.6	-3.6	354	5	3.2
2025-07-28T12:00	3380	674	-3.7	-3.7	355	5	3.2
2025-07-28T12:00	3400	673	-3.8	-3.8	357	5	3.2
2025-07-28T12:00	3420	671	-4.0	-4.0	358	5	3.2
2025-07-28T12:00	3440	669	-4.0	-4.1	1	5	3.2
2025-07-28T12:00	3460	668	-4.1	-4.3	3	5	3.2
2025-07-28T12:00	3480	666	-4.1	-4.6	6	5	3.2
2025-07-28T12:00	3500	664	-4.1	-4.8	10	5	3.2
2025-07-28T12:00	3520	662	-4.3	-4.9	13	4	3.2
2025-07-28T12:00	3540	661	-4.5	-5.1	16	4	3.2
2025-07-28T12:00	3560	659	-4.6	-5.1	18	4	3.2
2025-07-28T12:00	3580	657	-4.9	-5.1	20	4	3.2
2025-07-28T12:00	3600	656	-5.1	-5.3	21	4	3.2
2025-07-28T12:00	3620	654	-5.2	-5.5	22	5	3.3
2025-07-28T12:00	3640	653	-5.1	-5.9	23	5	3.3
2025-07-28T12:00	3660	651	-5.2	-5.8	24	5	3.3
2025-07-28T12:00	3680	649	-5.4	-5.9	24	5	3.3
2025-07-28T12:00	3700	648	-5.4	-6.2	25	5	3.3
2025-07-28T12:00	3720	646	-5.5	-6.4	26	5	3.3
2025-07-28T12:00	3740	644	-5.7	-6.5	26	5	3.3
2025-07-28T12:00	3760	643	-5.8	-6.5	26	5	3.3
2025-07-28T12:00	3780	641	-5.9	-6.5	26	5	3.3
2025-07-28T12:00	3800	639	-6.1	-6.6	26	5	3.2
2025-07-28T12:00	3820	638	-6.2	-6.9	25	6	3.2
2025-07-28T12:00	3840	636	-6.3	-7.0	24	6	3.3
2025-07-28T12:00	3860	635	-6.5	-7.2	23	6	3.3
2025-07-28T12:00	3880	633	-6.7	-7.6	23	6	3.3
2025-07-28T12:00	3900	631	-6.7	-7.5	23	6	3.3
2025-07-28T12:00	3920	630	-6.9	-7.6	23	6	3.3
2025-07-28T12:00	3940	628	-7.1	-7.4	25	6	3.3
2025-07-28T12:00	3960	627	-7.3	-7.6	26	6	3.3
2025-07-28T12:00	3980	625	-7.5	-7.8	27	5	3.3
2025-07-28T12:00	4000	623	-7.7	-8.0	28	5	3.3
2025-07-28T12:00	4020	622	-7.9	-8.0	28	5	3.3
2025-07-28T12:00	4040	620	-8.1	-8.2	27	5	3.2
2025-07-28T12:00	4060	619	-8.0	-8.9	26	5	3.2
2025-07-28T12:00	4080	617	-7.5	-9.8	24	6	3.3
2025-07-28T12:00	4100	615	-7.6	-10.1	22	6	3.3
2025-07-28T12:00	4120	613	-7.7	-10.4	20	6	3.3
2025-07-28T12:00	4140	612	-7.8	-10.7	18	6	3.4
2025-07-28T12:00	4160	611	-8.0	-10.9	16	6	3.4
2025-07-28T12:00	4180	609	-8.1	-11.1	14	6	3.4
2025-07-28T12:00	4200	607	-8.3	-11.3	13	6	3.4
2025-07-28T12:00	4220	606	-8.4	-11.4	11	6	3.5
2025-07-28T12:00	4240	604	-8.6	-11.6	9	6	3.5
2025-07-28T12:00	4260	603	-8.7	-11.6	8	7	3.5
2025-07-28T12:00	4280	601	-8.9	-11.7	7	7	3.5
2025-07-28T12:00	4300	600	-9.1	-11.8	7	7	3.6
2025-07-28T12:00	4320	598	-9.3	-11.9	6	7	3.6
2025-07-28T12:00	4340	596	-9.4	-12.1	6	7	3.5
2025-07-28T12:00	4360	595	-9.5	-12.2	5	7	3.5
2025-07-28T12:00	4380	593	-9.7	-12.2	4	7	3.5
2025-07-28T12:00	4400	592	-9.9	-12.2	4	7	3.5
2025-07-28T12:00	4420	590	-10.1	-12.4	3	7	3.5
2025-07-28T12:00	4440	589	-10.2	-12.5	2	7	3.5
2025-07-28T12:00	4460	587	-10.4	-12.4	360	7	3.5
2025-07-28T12:00	4480	586	-10.6	-12.5	359	7	3.5
2025-07-28T12:00	4500	584	-10.8	-12.6	357	7	3.5
2025-07-28T12:00	4520	583	-10.9	-12.7	356	6	3.5
2025-07-28T12:00	4540	581	-11.1	-12.9	354	6	3.5
2025-07-28T12:00	4560	580	-11.2	-13.0	353	6	3.5
2025-07-28T12:00	4580	578	-11.4	-13.1	351	6	3.5
2025-07-28T12:00	4600	577	-11.5	-13.2	350	6	3.5
2025-07-28T12:00	4620	575	-11.6	-13.3	348	6	3.5
2025-07-28T12:00	4640	574	-11.6	-13.6	348	6	3.4
2025-07-28T12:00	4660	572	-11.6	-13.7	347	5	3.4
2025-07-28T12:00	4680	571	-11.9	-13.7	346	5	3.4
2025-07-28T12:00	4700	569	-12.0	-13.8	346	5	3.4
2025-07-28T12:00	4720	568	-12.1	-13.9	345	5	3.4
2025-07-28T12:00	4740	566	-12.2	-14.0	344	5	3.4
2025-07-28T12:00	4760	565	-12.4	-14.1	343	5	3.4
2025-07-28T12:00	4780	563	-12.5	-14.3	341	5	3.4
2025-07-28T12:00	4800	562	-12.5	-14.9	340	5	3.3
2025-07-28T12:00	4820	560	-12.7	-15.1	341	6	3.3
2025-07-28T12:00	4840	559	-12.8	-15.2	342	6	3.3
2025-07-28T12:00	4860	557	-13.0	-15.5	344	6	3.3
2025-07-28T12:00	4880	556	-13.0	-15.9	347	5	3.3
2025-07-28T12:00	4900	554	-13.0	-16.6	350	5	3.3
2025-07-28T12:00	4920	553	-13.1	-17.1	353	5	3.3
2025-07-28T12:00	4940	552	-13.1	-17.2	356	5	3.3
2025-07-28T12:00	4960	550	-13.2	-16.8	359	5	3.3
2025-07-28T12:00	4980	549	-13.3	-16.8	1	5	3.3
2025-07-28T12:00	5000	547	-13.4	-17.9	3	5	3.2
2025-07-28T12:00	5020	546	-13.3	-19.5	5	5	3.2
2025-07-28T12:00	5040	544	-13.3	-21.7	7	5	3.3
2025-07-28T12:00	5060	543	-13.5	-21.5	9	5	3.3
2025-07-28T12:00	5080	542	-13.7	-22.1	11	6	3.4
2025-07-28T12:00	5100	540	-14.0	-21.7	12	6	3.5
2025-07-28T12:00	5120	539	-14.1	-22.0	14	6	3.5
2025-07-28T12:00	5140	537	-14.2	-22.9	16	6	3.6
2025-07-28T12:00	5160	536	-14.4	-22.9	18	6	3.6
2025-07-28T12:00	5180	534	-14.6	-23.6	21	6	3.7
2025-07-28T12:00	5200	533	-14.8	-23.9	23	6	3.7
2025-07-28T12:00	5220	532	-15.1	-23.5	24	6	3.7
2025-07-28T12:00	5240	530	-15.2	-23.6	26	7	3.8
2025-07-28T12:00	5260	529	-15.4	-23.5	28	7	3.8
2025-07-28T12:00	5280	528	-15.6	-23.5	30	6	3.8
2025-07-28T12:00	5300	526	-15.8	-23.6	32	6	3.9
2025-07-28T12:00	5320	524	-16.1	-23.5	35	6	3.9
2025-07-28T12:00	5340	523	-16.2	-24.6	37	6	3.9
2025-07-28T12:00	5360	522	-16.2	-26.0	39	6	3.9
2025-07-28T12:00	5380	520	-16.3	-25.8	42	5	3.8
2025-07-28T12:00	5400	519	-16.6	-25.3	45	5	3.8
2025-07-28T12:00	5420	518	-16.9	-25.1	49	5	3.9
2025-07-28T12:00	5440	516	-16.8	-28.8	53	5	3.9
2025-07-28T12:00	5460	515	-16.8	-30.0	56	5	3.9
2025-07-28T12:00	5480	514	-16.9	-30.1	60	5	4.0
2025-07-28T12:00	5500	512	-17.0	-29.7	64	5	4.0
2025-07-28T12:00	5520	511	-17.1	-29.7	66	5	4.1
2025-07-28T12:00	5540	510	-17.3	-29.6	68	5	4.1
2025-07-28T12:00	5560	508	-17.5	-29.1	70	5	4.1
2025-07-28T12:00	5580	507	-17.5	-29.7	70	5	4.1
2025-07-28T12:00	5600	505	-17.6	-29.8	70	5	4.1
2025-07-28T12:00	5620	504	-17.8	-29.7	70	5	4.1
2025-07-28T12:00	5640	503	-18.0	-29.9	68	5	4.1
2025-07-28T12:00	5660	501	-18.2	-29.6	66	5	4.1
2025-07-28T12:00	5680	500	-18.5	-28.9	64	5	4.1
2025-07-28T12:00	5700	499	-18.6	-27.7	61	5	4.1
2025-07-28T12:00	5720	497	-18.6	-30.2	57	5	4.1
2025-07-28T12:00	5740	496	-18.7	-33.5	53	5	4.1
2025-07-28T12:00	5760	495	-18.7	-35.0	50	5	4.1
2025-07-28T12:00	5780	493	-18.9	-35.8	48	5	4.1
2025-07-28T12:00	5800	492	-19.0	-36.7	46	4	4.2
2025-07-28T12:00	5820	491	-19.1	-37.5	45	4	4.2
2025-07-28T12:00	5840	489	-19.2	-38.0	44	4	4.3
2025-07-28T12:00	5860	488	-19.3	-38.4	43	4	4.3
2025-07-28T12:00	5880	487	-19.4	-38.5	41	4	4.3
2025-07-28T12:00	5900	486	-19.5	-38.6	38	4	4.3
2025-07-28T12:00	5920	484	-19.7	-38.7	36	3	4.4
2025-07-28T12:00	5940	483	-19.9	-38.5	31	4	4.4
2025-07-28T12:00	5960	481	-20.1	-38.5	29	4	4.4
2025-07-28T12:00	5980	480	-20.3	-38.5	26	4	4.4
2025-07-28T12:00	6000	479	-20.4	-38.8	25	4	4.4
2025-07-28T12:00	6020	478	-20.5	-39.2	24	4	4.4
2025-07-28T12:00	6040	476	-20.6	-39.7	23	5	4.3
2025-07-28T12:00	6060	475	-20.6	-40.5	22	5	4.3
2025-07-28T12:00	6080	474	-20.8	-40.6	19	5	4.3
2025-07-28T12:00	6100	473	-21.0	-40.8	17	5	4.3
2025-07-28T12:00	6120	471	-21.1	-40.9	14	6	4.3
2025-07-28T12:00	6140	470	-21.3	-41.1	11	6	4.3
2025-07-28T12:00	6160	469	-21.5	-41.2	8	6	4.3
2025-07-28T12:00	6180	467	-21.7	-41.3	5	6	4.3
2025-07-28T12:00	6200	466	-21.9	-41.7	3	6	4.3
2025-07-28T12:00	6220	465	-22.0	-42.0	1	6	4.3
2025-07-28T12:00	6240	464	-22.1	-42.2	359	6	4.3
2025-07-28T12:00	6260	462	-22.2	-42.3	356	6	4.3
2025-07-28T12:00	6280	461	-22.2	-42.5	354	5	4.3
2025-07-28T12:00	6300	460	-22.3	-42.5	351	5	4.3
2025-07-28T12:00	6320	459	-22.5	-42.8	347	5	4.3
2025-07-28T12:00	6340	458	-22.7	-43.1	345	5	4.3
2025-07-28T12:00	6360	456	-22.8	-43.4	343	5	4.2
2025-07-28T12:00	6380	455	-23.0	-43.9	341	5	4.2
2025-07-28T12:00	6400	454	-23.1	-44.1	339	5	4.2
2025-07-28T12:00	6420	452	-23.3	-44.0	338	5	4.1
2025-07-28T12:00	6440	451	-23.5	-44.0	338	5	4.1
2025-07-28T12:00	6460	450	-23.6	-44.5	336	4	4.1
2025-07-28T12:00	6480	449	-23.6	-45.8	335	4	4.1
2025-07-28T12:00	6500	447	-23.6	-46.6	333	3	4.1
2025-07-28T12:00	6520	446	-23.7	-46.7	332	3	4.0
2025-07-28T12:00	6540	445	-23.8	-46.7	332	3	4.0
2025-07-28T12:00	6560	444	-24.0	-46.6	333	2	4.0
2025-07-28T12:00	6580	442	-24.2	-46.7	336	2	4.0
2025-07-28T12:00	6600	441	-24.3	-46.5	340	2	3.9
2025-07-28T12:00	6620	440	-24.4	-45.8	345	2	3.8
2025-07-28T12:00	6640	439	-24.6	-45.1	350	2	3.8
2025-07-28T12:00	6660	438	-24.7	-45.0	353	2	3.7
2025-07-28T12:00	6680	437	-24.9	-45.0	356	3	3.7
2025-07-28T12:00	6700	435	-25.0	-45.0	359	3	3.6
2025-07-28T12:00	6720	434	-25.2	-45.2	1	3	3.5
2025-07-28T12:00	6740	433	-25.4	-45.3	2	3	3.5
2025-07-28T12:00	6760	432	-25.6	-45.2	4	3	3.4
2025-07-28T12:00	6780	431	-25.8	-45.3	4	3	3.4
2025-07-28T12:00	6800	429	-26.0	-45.4	5	4	3.4
2025-07-28T12:00	6820	428	-26.2	-45.5	4	4	3.4
2025-07-28T12:00	6840	427	-26.3	-45.7	4	4	3.4
2025-07-28T12:00	6860	426	-26.5	-45.7	3	4	3.3
2025-07-28T12:00	6880	425	-26.6	-45.7	3	4	3.3
2025-07-28T12:00	6900	423	-26.8	-45.8	3	4	3.3
2025-07-28T12:00	6920	422	-27.0	-45.9	4	4	3.3
2025-07-28T12:00	6940	421	-27.2	-46.0	4	4	3.3
2025-07-28T12:00	6960	420	-27.3	-46.3	5	5	3.3
2025-07-28T12:00	6980	419	-27.4	-46.6	6	5	3.3
2025-07-28T12:00	7000	418	-27.6	-46.7	7	5	3.4
2025-07-28T12:00	7020	417	-27.7	-46.5	7	5	3.4
2025-07-28T12:00	7040	415	-27.9	-46.6	7	5	3.4
2025-07-28T12:00	7060	414	-28.1	-46.7	6	5	3.4
2025-07-28T12:00	7080	413	-28.2	-46.7	5	5	3.4
2025-07-28T12:00	7100	412	-28.4	-47.0	4	5	3.4
2025-07-28T12:00	7120	411	-28.6	-47.1	4	5	3.4
2025-07-28T12:00	7140	410	-28.8	-47.2	3	5	3.5
2025-07-28T12:00	7160	408	-29.0	-47.3	3	5	3.5
2025-07-28T12:00	7180	407	-29.1	-47.5	2	6	3.5
2025-07-28T12:00	7200	406	-29.3	-47.4	1	6	3.5
2025-07-28T12:00	7220	405	-29.5	-47.3	1	6	3.5
2025-07-28T12:00	7240	404	-29.6	-47.5	360	6	3.5
2025-07-28T12:00	7260	403	-29.8	-47.6	358	7	3.5
2025-07-28T12:00	7280	402	-30.0	-47.7	356	7	3.5
2025-07-28T12:00	7300	400	-30.1	-47.8	354	7	3.5
2025-07-28T12:00	7320	399	-30.2	-47.5	352	8	3.5
2025-07-28T12:00	7340	398	-30.3	-47.4	351	8	3.5
2025-07-28T12:00	7360	397	-30.4	-47.4	349	8	3.5
2025-07-28T12:00	7380	396	-30.6	-47.2	347	9	3.5
2025-07-28T12:00	7400	395	-30.8	-47.4	344	9	3.5
2025-07-28T12:00	7420	394	-31.0	-47.0	341	9	3.5
2025-07-28T12:00	7440	393	-31.2	-47.0	338	9	3.5
2025-07-28T12:00	7460	391	-31.3	-47.0	336	10	3.4
2025-07-28T12:00	7480	390	-31.4	-47.8	334	10	3.4
2025-07-28T12:00	7500	389	-31.5	-50.0	331	10	3.4
2025-07-28T12:00	7520	388	-31.6	-51.3	330	10	3.4
2025-07-28T12:00	7540	387	-31.7	-51.6	329	10	3.4
2025-07-28T12:00	7560	386	-31.9	-51.6	329	10	3.4
2025-07-28T12:00	7580	385	-32.0	-51.5	329	10	3.4
2025-07-28T12:00	7600	384	-32.2	-51.6	329	10	3.4
2025-07-28T12:00	7620	383	-32.4	-51.8	329	10	3.5
2025-07-28T12:00	7640	382	-32.5	-52.0	329	10	3.5
2025-07-28T12:00	7660	381	-32.6	-52.2	329	11	3.5
2025-07-28T12:00	7680	379	-32.7	-52.8	329	11	3.5
2025-07-28T12:00	7700	378	-32.9	-53.3	329	11	3.5
2025-07-28T12:00	7720	377	-33.0	-53.1	329	11	3.5
2025-07-28T12:00	7740	376	-33.1	-52.8	330	11	3.6
2025-07-28T12:00	7760	375	-33.2	-52.9	331	11	3.6
2025-07-28T12:00	7780	374	-33.3	-52.9	331	12	3.7
2025-07-28T12:00	7800	373	-33.5	-53.1	332	12	3.7
2025-07-28T12:00	7820	372	-33.6	-53.2	332	12	3.8
2025-07-28T12:00	7840	371	-33.7	-53.5	332	12	3.8
2025-07-28T12:00	7860	370	-33.8	-53.5	332	12	3.9
2025-07-28T12:00	7880	369	-34.0	-53.7	333	12	3.9
2025-07-28T12:00	7900	368	-34.2	-53.7	333	11	3.9
2025-07-28T12:00	7920	367	-34.3	-53.8	333	11	3.9
2025-07-28T12:00	7940	366	-34.4	-53.8	334	11	3.9
2025-07-28T12:00	7960	365	-34.6	-54.0	334	11	4.0
2025-07-28T12:00	7980	364	-34.7	-54.3	335	11	4.0
2025-07-28T12:00	8000	363	-34.9	-54.7	336	11	4.0
2025-07-28T12:00	8020	361	-35.0	-54.9	336	11	4.0
2025-07-28T12:00	8040	360	-35.1	-55.0	337	11	4.0
2025-07-28T12:00	8060	359	-35.2	-55.2	338	11	4.0
2025-07-28T12:00	8080	359	-35.4	-55.4	338	11	4.0
2025-07-28T12:00	8100	358	-35.5	-55.4	339	11	4.0
2025-07-28T12:00	8120	356	-35.6	-55.4	340	11	4.0
2025-07-28T12:00	8140	355	-35.8	-55.6	340	12	4.0
2025-07-28T12:00	8160	354	-36.0	-55.7	341	12	4.1
2025-07-28T12:00	8180	353	-36.1	-55.8	342	12	4.1
2025-07-28T12:00	8200	352	-36.3	-55.8	342	12	4.1
2025-07-28T12:00	8220	351	-36.5	-55.8	343	12	4.1
2025-07-28T12:00	8240	350	-36.7	-55.9	344	12	4.1
2025-07-28T12:00	8260	349	-36.9	-55.7	344	13	4.2
2025-07-28T12:00	8280	348	-37.0	-55.5	344	13	4.2
2025-07-28T12:00	8300	347	-37.1	-55.2	345	13	4.2
2025-07-28T12:00	8320	346	-37.3	-54.2	345	13	4.2
2025-07-28T12:00	8340	345	-37.4	-53.6	345	14	4.2
2025-07-28T12:00	8360	344	-37.6	-53.4	345	14	4.3
2025-07-28T12:00	8380	343	-37.8	-53.2	345	14	4.3
2025-07-28T12:00	8400	342	-37.9	-53.3	345	15	4.2
2025-07-28T12:00	8420	341	-38.0	-53.6	345	15	4.2
2025-07-28T12:00	8440	340	-38.2	-53.8	345	15	4.1
2025-07-28T12:00	8460	339	-38.3	-54.1	346	15	4.1
2025-07-28T12:00	8480	338	-38.4	-54.7	347	15	4.1
2025-07-28T12:00	8500	337	-38.6	-54.9	348	15	4.1
2025-07-28T12:00	8520	336	-38.7	-54.9	348	15	4.1
2025-07-28T12:00	8540	335	-38.8	-55.4	349	15	4.2
2025-07-28T12:00	8560	334	-38.9	-55.7	349	15	4.3
2025-07-28T12:00	8580	333	-38.9	-55.9	349	15	4.4
2025-07-28T12:00	8600	333	-39.0	-56.2	348	15	4.5
2025-07-28T12:00	8620	332	-39.1	-56.4	347	16	4.6
2025-07-28T12:00	8640	330	-39.1	-56.4	346	16	4.7
2025-07-28T12:00	8660	330	-39.2	-56.6	345	16	4.9
2025-07-28T12:00	8680	329	-39.2	-56.9	344	17	5.1
2025-07-28T12:00	8700	328	-39.2	-57.2	344	17	5.2
2025-07-28T12:00	8720	327	-39.3	-57.5	343	17	5.3
2025-07-28T12:00	8740	326	-39.4	-57.7	343	17	5.5
2025-07-28T12:00	8760	325	-39.4	-57.6	343	17	5.6
2025-07-28T12:00	8780	324	-39.5	-57.8	342	18	5.7
2025-07-28T12:00	8800	323	-39.7	-57.9	342	18	5.8
2025-07-28T12:00	8820	322	-39.8	-58.0	342	18	5.9
2025-07-28T12:00	8840	321	-39.9	-58.1	342	18	5.9
2025-07-28T12:00	8860	320	-40.0	-58.2	342	18	5.9
2025-07-28T12:00	8880	319	-40.0	-58.1	341	18	5.8
2025-07-28T12:00	8900	318	-40.0	-57.5	341	18	5.7
2025-07-28T12:00	8920	317	-40.1	-57.4	340	18	5.5
2025-07-28T12:00	8940	316	-40.2	-58.1	340	18	5.2
2025-07-28T12:00	8960	315	-40.2	-58.7	339	19	5.1
2025-07-28T12:00	8980	314	-40.3	-58.6	338	19	5.1
2025-07-28T12:00	9000	313	-40.3	-58.7	338	19	5.1
2025-07-28T12:00	9020	313	-40.4	-58.9	338	20	5.2
2025-07-28T12:00	9040	312	-40.6	-58.9	338	20	5.2
2025-07-28T12:00	9060	311	-40.8	-59.0	337	20	5.3
2025-07-28T12:00	9080	310	-40.9	-59.3	337	20	5.3
2025-07-28T12:00	9100	309	-41.0	-60.1	337	21	5.3
2025-07-28T12:00	9120	308	-41.0	-60.9	337	21	5.4
2025-07-28T12:00	9140	307	-41.0	-61.5	337	22	5.4
2025-07-28T12:00	9160	306	-41.1	-61.6	337	22	5.6
2025-07-28T12:00	9180	305	-41.3	-61.7	337	22	6.0
2025-07-28T12:00	9200	304	-41.4	-61.8	337	22	6.3
2025-07-28T12:00	9220	304	-41.3	-61.7	336	23	6.6
2025-07-28T12:00	9240	303	-41.3	-61.8	336	23	7.0
2025-07-28T12:00	9260	302	-41.3	-61.9	336	23	7.2
2025-07-28T12:00	9280	301	-41.3	-61.9	336	24	7.4
2025-07-28T12:00	9300	300	-41.3	-62.0	336	24	7.5
2025-07-28T12:00	9320	299	-41.4	-61.8	336	24	7.5
2025-07-28T12:00	9340	298	-41.5	-61.8	335	24	7.6
2025-07-28T12:00	9360	297	-41.6	-61.9	335	24	7.6
2025-07-28T12:00	9380	297	-41.7	-61.8	335	25	7.6
2025-07-28T12:00	9400	296	-41.8	-62.0	334	25	7.5
2025-07-28T12:00	9420	295	-41.7	-63.0	334	25	7.5
2025-07-28T12:00	9440	294	-41.7	-64.2	334	25	7.5
2025-07-28T12:00	9460	293	-41.6	-64.9	333	26	7.7
2025-07-28T12:00	9480	292	-41.5	-65.2	333	26	8.0
2025-07-28T12:00	9500	291	-41.4	-65.0	333	27	8.2
2025-07-28T12:00	9520	291	-41.4	-64.7	333	27	8.4
2025-07-28T12:00	9540	290	-41.5	-64.6	333	28	8.6
2025-07-28T12:00	9560	289	-41.6	-64.5	334	28	8.7
2025-07-28T12:00	9580	288	-41.7	-64.4	334	28	8.8
2025-07-28T12:00	9600	287	-41.6	-64.5	334	28	8.8
2025-07-28T12:00	9620	286	-41.5	-64.6	334	28	8.8
2025-07-28T12:00	9640	285	-41.6	-64.6	335	29	8.8
2025-07-28T12:00	9660	284	-41.6	-64.8	335	29	8.9
2025-07-28T12:00	9680	284	-41.7	-64.8	335	29	8.9
2025-07-28T12:00	9700	283	-41.7	-65.0	334	29	8.9
2025-07-28T12:00	9720	282	-41.6	-65.2	334	29	8.9
2025-07-28T12:00	9740	281	-41.6	-65.5	334	29	9.0
2025-07-28T12:00	9760	280	-41.5	-65.8	333	30	9.0
2025-07-28T12:00	9780	279	-41.4	-66.1	333	30	9.1
2025-07-28T12:00	9800	279	-41.4	-66.4	333	31	9.1
2025-07-28T12:00	9820	278	-41.2	-66.8	333	31	9.1
2025-07-28T12:00	9840	277	-40.9	-67.0	333	31	9.1
2025-07-28T12:00	9860	276	-40.9	-67.2	333	32	9.1
2025-07-28T12:00	9880	275	-41.0	-67.2	334	32	9.2
2025-07-28T12:00	9900	275	-41.1	-67.2	334	33	9.3
2025-07-28T12:00	9920	274	-41.2	-67.4	334	33	9.4
2025-07-28T12:00	9940	273	-41.3	-67.8	334	34	9.4
2025-07-28T12:00	9960	272	-41.3	-68.2	334	34	9.5
2025-07-28T12:00	9980	271	-41.2	-68.5	334	34	9.6
2025-07-28T12:00	10000	271	-41.2	-68.8	333	35	9.7
2025-07-28T12:00	10018	270	-41.2	-68.8	333	35	9.9
2025-07-28T12:00	10050	269	-41.1	-68.7	332	35	9.9
2025-07-28T12:00	10100	267	-41.3	-68.7	331	34	9.9
2025-07-28T12:00	10150	265	-41.2	-69.2	330	34	9.8
2025-07-28T12:00	10200	263	-41.3	-69.7	330	33	9.9
2025-07-28T12:00	10250	261	-41.3	-69.9	330	32	9.9
2025-07-28T12:00	10300	259	-41.4	-70.1	331	32	10.0
2025-07-28T12:00	10350	257	-41.4	-70.2	331	33	10.0
2025-07-28T12:00	10400	255	-41.4	-70.5	331	33	9.9
2025-07-28T12:00	10450	253	-41.5	-70.8	331	32	9.7
2025-07-28T12:00	10500	251	-41.5	-71.1	332	31	9.6
2025-07-28T12:00	10550	249	-41.5	-71.4	332	31	9.5
2025-07-28T12:00	10600	248	-41.7	-71.7	333	30	9.5
2025-07-28T12:00	10650	246	-41.7	-71.9	333	30	9.5
2025-07-28T12:00	10700	244	-41.7	-72.0	332	30	9.5
2025-07-28T12:00	10750	242	-41.8	-72.3	332	30	9.4
2025-07-28T12:00	10800	240	-41.8	-72.4	332	30	9.3
2025-07-28T12:00	10850	239	-41.7	-72.6	331	29	9.3
2025-07-28T12:00	10900	237	-41.5	-72.9	331	29	9.2
2025-07-28T12:00	10950	235	-41.8	-73.0	330	28	9.2
2025-07-28T12:00	11000	233	-42.1	-73.2	329	28	9.2
2025-07-28T12:00	11050	232	-42.4	-73.4	328	29	9.3
2025-07-28T12:00	11100	230	-42.6	-73.4	327	29	9.2
2025-07-28T12:00	11150	228	-42.7	-73.7	327	28	9.1
2025-07-28T12:00	11200	227	-43.0	-73.7	327	28	9.2
2025-07-28T12:00	11250	225	-43.2	-73.9	328	27	9.2
2025-07-28T12:00	11300	223	-43.4	-74.1	327	26	9.1
2025-07-28T12:00	11350	222	-43.6	-74.3	326	26	9.0
2025-07-28T12:00	11400	220	-43.6	-74.5	325	26	9.0
2025-07-28T12:00	11450	218	-43.8	-74.6	324	26	9.0
2025-07-28T12:00	11500	217	-43.9	-74.7	323	26	9.1
2025-07-28T12:00	11550	215	-44.0	-74.9	323	27	9.0
2025-07-28T12:00	11600	214	-44.3	-74.9	322	27	9.0
2025-07-28T12:00	11650	212	-44.5	-75.1	321	26	8.9
2025-07-28T12:00	11700	210	-44.7	-75.2	319	26	8.9
2025-07-28T12:00	11750	209	-44.8	-75.3	318	26	8.8
2025-07-28T12:00	11800	207	-44.8	-75.5	318	26	8.8
2025-07-28T12:00	11850	206	-44.8	-75.8	319	25	8.8
2025-07-28T12:00	11900	204	-44.8	-75.8	320	25	8.8
2025-07-28T12:00	11950	203	-44.8	-75.7	320	24	8.7
2025-07-28T12:00	12000	201	-45.0	-76.0	320	24	8.7
2025-07-28T12:00	12050	200	-45.1	-76.1	321	24	8.7
2025-07-28T12:00	12100	198	-45.4	-76.2	321	24	8.7
2025-07-28T12:00	12150	197	-45.6	-76.2	321	24	8.6
2025-07-28T12:00	12200	195	-45.7	-76.4	319	24	8.6
2025-07-28T12:00	12250	194	-45.9	-76.6	317	24	8.4
2025-07-28T12:00	12300	192	-46.0	-76.6	315	23	8.4
2025-07-28T12:00	12350	191	-45.8	-76.7	313	23	8.4
2025-07-28T12:00	12400	189	-45.7	-76.7	311	23	8.3
2025-07-28T12:00	12450	188	-45.8	-76.7	309	23	8.1
2025-07-28T12:00	12500	187	-45.8	-76.8	307	23	7.9
2025-07-28T12:00	12550	185	-45.7	-76.8	307	23	7.8
2025-07-28T12:00	12600	184	-45.6	-76.7	308	23	7.7
2025-07-28T12:00	12650	182	-45.7	-76.7	310	22	7.1
2025-07-28T12:00	12700	181	-45.7	-76.7	311	22	6.7
2025-07-28T12:00	12750	180	-45.8	-76.8	310	22	6.4
2025-07-28T12:00	12800	178	-46.0	-76.8	310	22	6.2
2025-07-28T12:00	12850	177	-46.2	-77.0	311	23	6.0
2025-07-28T12:00	12900	176	-46.4	-77.2	312	23	6.0
2025-07-28T12:00	12950	174	-46.4	-77.2	312	24	6.0
2025-07-28T12:00	13000	173	-46.3	-77.3	313	23	6.1
2025-07-28T12:00	13050	172	-46.3	-77.4	313	23	6.1
2025-07-28T12:00	13100	170	-46.6	-77.4	313	22	6.0
2025-07-28T12:00	13150	169	-46.8	-77.5	313	22	5.8
2025-07-28T12:00	13200	168	-46.8	-77.5	311	22	5.8
2025-07-28T12:00	13250	167	-46.9	-77.7	309	22	5.8
2025-07-28T12:00	13300	165	-46.8	-77.9	306	22	6.0
2025-07-28T12:00	13350	164	-46.4	-77.8	303	22	6.1
2025-07-28T12:00	13400	163	-46.0	-77.7	303	22	6.2
2025-07-28T12:00	13450	162	-45.9	-77.7	304	22	6.2
2025-07-28T12:00	13500	161	-46.0	-77.6	306	22	6.2
2025-07-28T12:00	13550	159	-45.9	-77.6	307	22	6.3
2025-07-28T12:00	13600	158	-46.1	-77.6	307	21	6.3
2025-07-28T12:00	13650	157	-46.2	-77.6	309	21	6.2
2025-07-28T12:00	13700	156	-46.4	-77.6	311	20	6.2
2025-07-28T12:00	13750	155	-46.7	-77.7	313	20	6.2
2025-07-28T12:00	13800	153	-46.7	-77.8	314	19	6.2
2025-07-28T12:00	13850	152	-46.9	-77.9	313	18	6.3
2025-07-28T12:00	13900	151	-47.2	-78.0	310	18	6.4
2025-07-28T12:00	13950	150	-47.6	-78.2	308	17	6.4
2025-07-28T12:00	14000	149	-47.8	-78.4	308	16	6.5
2025-07-28T12:00	14050	148	-47.9	-78.4	308	16	6.5
2025-07-28T12:00	14100	147	-48.1	-78.5	309	16	6.7
2025-07-28T12:00	14150	146	-47.9	-78.6	310	16	6.9
2025-07-28T12:00	14200	144	-48.2	-78.7	311	17	7.1
2025-07-28T12:00	14250	143	-48.4	-78.8	312	18	7.3
2025-07-28T12:00	14300	142	-48.5	-78.9	313	18	7.5
2025-07-28T12:00	14350	141	-48.4	-78.8	314	17	7.6
2025-07-28T12:00	14400	140	-48.5	-78.8	314	16	7.5
2025-07-28T12:00	14450	139	-48.9	-79.1	315	15	7.3
2025-07-28T12:00	14500	138	-49.1	-79.1	318	14	7.1
2025-07-28T12:00	14550	137	-49.1	-79.1	320	12	6.8
2025-07-28T12:00	14600	136	-48.9	-79.1	322	11	6.5
2025-07-28T12:00	14650	135	-49.0	-79.2	321	10	6.3
2025-07-28T12:00	14700	134	-49.2	-79.3	319	9	6.1
2025-07-28T12:00	14750	133	-49.2	-79.3	314	9	6.0
2025-07-28T12:00	14800	132	-49.2	-79.3	308	9	5.9
2025-07-28T12:00	14850	131	-49.5	-79.4	304	10	5.9
2025-07-28T12:00	14900	130	-49.9	-79.4	301	11	5.9
2025-07-28T12:00	14950	129	-50.3	-79.6	299	11	5.9
2025-07-28T12:00	15000	128	-50.8	-79.8	297	12	5.8
2025-07-28T12:00	15050	127	-51.2	-79.9	297	13	5.9
2025-07-28T12:00	15100	126	-51.4	-80.1	299	13	5.8
2025-07-28T12:00	15150	125	-51.3	-80.3	300	13	5.9
2025-07-28T12:00	15200	124	-51.4	-80.3	298	13	6.0
2025-07-28T12:00	15250	123	-51.9	-80.5	297	13	6.1
2025-07-28T12:00	15300	122	-52.0	-80.6	297	13	6.1
2025-07-28T12:00	15350	121	-51.9	-80.6	297	13	6.1
2025-07-28T12:00	15400	120	-52.0	-80.7	296	12	6.1
2025-07-28T12:00	15450	119	-52.2	-80.7	298	12	6.1
2025-07-28T12:00	15500	118	-52.6	-80.7	301	11	6.0
2025-07-28T12:00	15550	117	-52.8	-80.7	301	11	5.9
2025-07-28T12:00	15600	117	-52.8	-80.9	299	12	5.8
2025-07-28T12:00	15650	116	-52.9	-81.0	299	12	5.8
2025-07-28T12:00	15700	115	-53.2	-81.0	300	11	5.6
2025-07-28T12:00	15750	114	-53.4	-81.3	301	10	5.5
2025-07-28T12:00	15800	113	-53.2	-81.3	296	9	5.6
2025-07-28T12:00	15850	112	-53.2	-81.4	284	9	6.0
2025-07-28T12:00	15900	111	-53.1	-81.4	274	9	6.4
2025-07-28T12:00	15950	110	-53.0	-81.4	269	9	6.7
2025-07-28T12:00	16000	110	-53.1	-81.3	264	10	6.8
2025-07-28T12:00	16050	109	-53.3	-81.4	260	11	6.6
2025-07-28T12:00	16100	108	-53.5	-81.6	262	11	6.5
2025-07-28T12:00	16150	107	-53.3	-81.6	268	11	6.5
2025-07-28T12:00	16200	106	-52.9	-81.7	270	11	6.8
2025-07-28T12:00	16250	105	-52.4	-81.5	271	11	7.3
2025-07-28T12:00	16300	105	-52.3	-81.4	273	11	7.5
2025-07-28T12:00	16350	104	-52.5	-81.4	267	9	7.7
2025-07-28T12:00	16400	103	-52.3	-81.4	255	8	7.7
2025-07-28T12:00	16450	102	-52.2	-81.2	243	8	7.7
2025-07-28T12:00	16500	101	-52.5	-81.3	235	8	7.7
2025-07-28T12:00	16550	101	-52.7	-81.3	232	8	7.7
2025-07-28T12:00	16600	100	-53.0	-81.3	232	8	7.6
2025-07-28T12:00	16650	99	-53.4	-81.5	232	9	7.5
2025-07-28T12:00	16700	98	-53.8	-81.7	233	9	7.4
2025-07-28T12:00	16750	97	-54.1	-81.9	234	9	7.3
2025-07-28T12:00	16800	97	-53.8	-82.0	239	10	7.3
2025-07-28T12:00	16850	96	-53.7	-82.0	245	11	7.3
2025-07-28T12:00	16900	95	-53.5	-81.9	250	11	7.4
2025-07-28T12:00	16950	95	-53.6	-81.9	252	12	7.7
2025-07-28T12:00	17000	94	-53.8	-82.0	256	12	7.8
2025-07-28T12:00	17050	93	-53.8	-82.0	264	13	8.0
2025-07-28T12:00	17100	92	-53.8	-82.1	273	14	8.1
2025-07-28T12:00	17150	92	-53.5	-82.1	279	15	8.2
2025-07-28T12:00	17200	91	-53.3	-82.0	285	15	8.4
2025-07-28T12:00	17250	90	-53.1	-81.9	291	13	8.5
2025-07-28T12:00	17300	89	-53.0	-81.9	299	12	8.5
2025-07-28T12:00	17350	89	-53.1	-81.9	306	11	8.6
2025-07-28T12:00	17400	88	-53.0	-81.7	311	10	8.6
2025-07-28T12:00	17450	87	-53.5	-81.8	316	9	8.5
2025-07-28T12:00	17500	87	-53.9	-82.0	323	7	8.5
2025-07-28T12:00	17550	86	-54.0	-82.0	331	6	8.5
2025-07-28T12:00	17600	85	-54.3	-82.1	337	5	8.4
2025-07-28T12:00	17650	85	-54.5	-82.3	337	4	8.4
2025-07-28T12:00	17700	84	-54.4	-82.4	331	4	8.3
2025-07-28T12:00	17750	83	-54.5	-82.5	326	5	8.2
2025-07-28T12:00	17800	83	-54.6	-82.5	324	5	8.2
2025-07-28T12:00	17850	82	-54.6	-82.7	321	5	8.3
2025-07-28T12:00	17900	81	-54.5	-82.6	312	5	8.3
2025-07-28T12:00	17950	81	-54.4	-82.6	305	5	8.2
2025-07-28T12:00	18000	80	-54.5	-82.6	306	5	7.9
2025-07-28T12:00	18050	80	-54.4	-82.6	312	6	7.8
2025-07-28T12:00	18100	79	-54.1	-82.7	314	6	7.8
2025-07-28T12:00	18150	78	-53.6	-82.5	316	5	8.3
2025-07-28T12:00	18200	78	-53.2	-82.3	322	5	8.8
2025-07-28T12:00	18250	77	-53.0	-82.1	327	5	9.0
2025-07-28T12:00	18300	77	-53.3	-82.1	330	5	9.0
2025-07-28T12:00	18350	76	-53.6	-82.1	328	5	9.0
2025-07-28T12:00	18400	75	-54.0	-82.3	324	4	9.0
2025-07-28T12:00	18450	75	-53.9	-82.5	327	3	8.8
2025-07-28T12:00	18500	74	-53.3	-82.3	356	1	8.7
2025-07-28T12:00	18550	74	-53.2	-82.2	70	1	8.5
2025-07-28T12:00	18600	73	-53.6	-82.2	91	1	8.4
2025-07-28T12:00	18650	73	-53.9	-82.3	104	1	8.4
2025-07-28T12:00	18700	72	-54.3	-82.4	121	2	8.3
2025-07-28T12:00	18750	71	-54.8	-82.5	131	2	8.2
2025-07-28T12:00	18800	71	-55.2	-82.7	145	2	8.2
2025-07-28T12:00	18850	70	-55.6	-82.9	174	2	8.2
2025-07-28T12:00	18900	70	-55.9	-83.1	192	3	8.2
2025-07-28T12:00	18950	69	-55.9	-83.2	203	4	8.2
2025-07-28T12:00	19000	69	-55.9	-83.4	206	5	8.4
2025-07-28T12:00	19050	68	-55.5	-83.3	211	5	8.4
2025-07-28T12:00	19100	68	-55.3	-83.2	222	6	8.6
2025-07-28T12:00	19150	67	-55.4	-83.3	233	6	8.7
2025-07-28T12:00	19200	67	-54.9	-83.2	242	6	8.8
2025-07-28T12:00	19250	66	-54.2	-83.1	255	6	9.0
2025-07-28T12:00	19300	65	-53.6	-82.8	270	6	9.3
2025-07-28T12:00	19350	65	-53.3	-82.5	282	5	9.6
2025-07-28T12:00	19400	64	-53.5	-82.5	298	5	9.8
2025-07-28T12:00	19450	64	-53.7	-82.6	322	4	9.9
2025-07-28T12:00	19500	63	-53.2	-82.3	351	4	10.0
2025-07-28T12:00	19550	63	-53.2	-82.3	13	5	10.2
2025-07-28T12:00	19600	63	-53.6	-82.4	29	5	10.4
2025-07-28T12:00	19650	62	-53.6	-82.4	46	6	10.4
2025-07-28T12:00	19700	62	-53.3	-82.3	64	6	10.6
2025-07-28T12:00	19750	61	-53.3	-82.4	79	6	10.7
2025-07-28T12:00	19800	61	-53.4	-82.3	91	6	10.9
2025-07-28T12:00	19850	60	-53.7	-82.3	99	6	10.9
2025-07-28T12:00	19900	60	-54.1	-82.4	105	6	11.0
2025-07-28T12:00	19950	59	-54.5	-82.6	112	6	11.0
2025-07-28T12:00	20000	59	-55.0	-82.7	123	6	11.0
2025-07-28T12:00	20050	58	-55.4		136	5	10.9
2025-07-28T12:00	20100	58	-55.7		149	4	10.9
2025-07-28T12:00	20150	57	-55.7		157	2	10.9
2025-07-28T12:00	20200	57	-55.4		118	1	10.9
2025-07-28T12:00	20250	56	-55.2		59	1	11.0
2025-07-28T12:00	20300	56	-54.9		60	2	11.1
2025-07-28T12:00	20350	56	-54.8		63	3	11.3
2025-07-28T12:00	20400	55	-54.7		72	4	11.4
2025-07-28T12:00	20450	55	-54.7		79	6	11.5
2025-07-28T12:00	20500	54	-54.6		84	7	11.6
2025-07-28T12:00	20550	54	-54.1		88	8	11.7
2025-07-28T12:00	20600	53	-53.5		91	8	11.8
2025-07-28T12:00	20650	53	-52.9		92	7	11.9
2025-07-28T12:00	20700	53	-52.9		94	6	12.0
2025-07-28T12:00	20750	52	-53.0		98	5	12.1
2025-07-28T12:00	20800	52	-53.2		103	4	12.1
2025-07-28T12:00	20850	51	-53.5		114	2	12.2
2025-07-28T12:00	20900	51	-53.6		150	1	12.1
2025-07-28T12:00	20950	51	-53.3		153	0	12.1
2025-07-28T12:00	21000	50	-53.0		31	1	12.1
2025-07-28T12:00	21050	50	-53.1		42	2	12.1
2025-07-28T12:00	21100	49	-53.2		51	3	12.2
2025-07-28T12:00	21150	49	-53.3		54	5	12.1
2025-07-28T12:00	21200	49	-53.2		55	6	12.2
2025-07-28T12:00	21250	48	-53.3		59	7	12.2
2025-07-28T12:00	21300	48	-53.6		67	8	12.2
2025-07-28T12:00	21350	48	-53.8		77	9	12.2
2025-07-28T12:00	21400	47	-53.9		88	10	12.2
2025-07-28T12:00	21450	47	-53.8		96	11	12.2
2025-07-28T12:00	21500	46	-53.6		104	11	12.3
2025-07-28T12:00	21550	46	-53.8		113	11	12.3
2025-07-28T12:00	21600	46	-53.7		120	11	12.4
2025-07-28T12:00	21650	45	-53.5		127	9	12.4
2025-07-28T12:00	21700	45	-53.3		133	7	12.4
2025-07-28T12:00	21750	45	-53.1		139	6	12.5
2025-07-28T12:00	21800	44	-53.1		143	5	12.5
2025-07-28T12:00	21850	44	-53.0		144	4	12.6
2025-07-28T12:00	21900	44	-52.6		136	3	12.7
2025-07-28T12:00	21950	43	-52.4		124	3	12.8
2025-07-28T12:00	22000	43	-52.4		116	2	12.9
2025-07-28T12:00	22050	43	-52.6		105	1	13.0
2025-07-28T12:00	22100	42	-52.9		56	1	12.9
2025-07-28T12:00	22150	42	-52.9		2	1	13.0
2025-07-28T12:00	22200	42	-52.8		359	2	12.9
2025-07-28T12:00	22250	41	-52.8		3	3	12.9
2025-07-28T12:00	22300	41	-52.9		9	5	12.9
2025-07-28T12:00	22350	41	-53.0		19	6	12.8
2025-07-28T12:00	22400	40	-52.8		33	6	12.8
2025-07-28T12:00	22450	40	-52.7		46	7	12.8
2025-07-28T12:00	22500	40	-52.9		57	8	12.8
2025-07-28T12:00	22550	40	-53.0		69	9	12.7
2025-07-28T12:00	22600	39	-52.8		77	10	12.7
2025-07-28T12:00	22650	39	-52.7		83	10	12.6
2025-07-28T12:00	22700	39	-52.7		85	9	12.6
2025-07-28T12:00	22750	38	-52.3		87	9	12.5
2025-07-28T12:00	22800	38	-51.9		91	10	12.6
2025-07-28T12:00	22850	38	-51.3		96	11	12.6
2025-07-28T12:00	22900	37	-50.7		101	12	12.6
2025-07-28T12:00	22950	37	-50.4		106	13	12.6
2025-07-28T12:00	23000	37	-50.4		110	14	12.7
2025-07-28T12:00	23050	37	-50.6		113	15	12.6
2025-07-28T12:00	23100	36	-50.9		116	16	12.6
2025-07-28T12:00	23150	36	-51.2		117	16	12.5
2025-07-28T12:00	23200	36	-51.4		119	15	12.5
2025-07-28T12:00	23250	35	-51.4		120	14	12.4
2025-07-28T12:00	23300	35	-51.5		121	13	12.4
2025-07-28T12:00	23350	35	-51.7		124	12	12.3
2025-07-28T12:00	23400	35	-51.9		127	10	12.3
2025-07-28T12:00	23450	34	-52.0		128	8	12.3
2025-07-28T12:00	23500	34	-51.6		124	7	12.3
2025-07-28T12:00	23550	34	-51.0		115	6	12.4
2025-07-28T12:00	23600	34	-50.7		105	6	12.6
2025-07-28T12:00	23650	33	-50.8		96	7	12.8
2025-07-28T12:00	23700	33	-50.8		90	8	13.0
2025-07-28T12:00	23750	33	-50.7		86	9	13.1
2025-07-28T12:00	23800	33	-50.6		84	9	13.2
2025-07-28T12:00	23850	32	-50.5		85	10	13.4
2025-07-28T12:00	23900	32	-50.2		89	10	13.5
2025-07-28T12:00	23950	32	-50.0		94	11	13.6
2025-07-28T12:00	24000	32	-49.9		98	11	13.8
2025-07-28T12:00	24050	31	-49.9		102	11	13.9
2025-07-28T12:00	24100	31	-49.9		102	11	13.9
2025-07-28T12:00	24150	31	-49.8		102	11	14.0
2025-07-28T12:00	24200	31	-49.8		105	10	14.1
2025-07-28T12:00	24250	30	-49.8		110	10	14.0
2025-07-28T12:00	24300	30	-49.8		115	9	14.1
2025-07-28T12:00	24350	30	-49.6		112	8	14.2
2025-07-28T12:00	24400	30	-49.2		102	8	14.1
2025-07-28T12:00	24450	29	-49.0		89	7	14.2
2025-07-28T12:00	24500	29	-49.2		77	7	14.0
2025-07-28T12:00	24550	29	-49.4		66	7	13.9
2025-07-28T12:00	24600	29	-49.6		59	8	13.9
2025-07-28T12:00	24650	29	-49.6		55	9	13.7
2025-07-28T12:00	24700	28	-49.7		52	11	13.7
2025-07-28T12:00	24750	28	-49.4		52	12	13.5
2025-07-28T12:00	24800	28	-48.9		53	13	13.5
2025-07-28T12:00	24850	28	-48.2		54	13	13.4
2025-07-28T12:00	24900	28	-48.0		56	14	13.3
2025-07-28T12:00	24950	27	-48.2		59	14	13.3
2025-07-28T12:00	25000	27	-48.4		65	15	13.4
2025-07-28T12:00	25050	27	-48.4		71	15	13.2
2025-07-28T12:00	25100	27	-48.5		78	15	13.2
2025-07-28T12:00	25150	27	-48.8		86	15	13.2
2025-07-28T12:00	25200	26	-49.0		93	14	13.1
2025-07-28T12:00	25250	26	-48.9		99	14	13.1
2025-07-28T12:00	25300	26	-48.9		105	13	13.2
2025-07-28T12:00	25350	26	-49.0		111	12	13.1
2025-07-28T12:00	25400	26	-49.1		117	11	13.1
2025-07-28T12:00	25450	25	-49.3		119	10	13.2
2025-07-28T12:00	25500	25	-49.5		115	9	13.2
2025-07-28T12:00	25550	25	-49.2		104	8	13.1
2025-07-28T12:00	25600	25	-49.1		93	8	13.2
2025-07-28T12:00	25650	25	-48.8		93	8	13.3
2025-07-28T12:00	25700	24	-48.5		101	7	13.4
2025-07-28T12:00	25750	24	-48.4		112	6	13.6
2025-07-28T12:00	25800	24	-48.5		124	6	13.7
2025-07-28T12:00	25850	24	-48.4		131	5	13.7
2025-07-28T12:00	25900	24	-48.0		128	4	13.7
2025-07-28T12:00	25950	23	-47.6		121	3	13.7
2025-07-28T12:00	26000	23	-47.5		116	4	13.9
2025-07-28T12:00	26050	23	-47.5		112	5	13.8
2025-07-28T12:00	26100	23	-47.6		113	6	13.8
2025-07-28T12:00	26150	23	-47.6		118	6	13.6
2025-07-28T12:00	26200	23	-47.7		120	7	13.7
2025-07-28T12:00	26250	22	-47.9		114	7	13.6
2025-07-28T12:00	26300	22	-47.8		96	6	13.5
2025-07-28T12:00	26350	22	-47.8		78	7	13.4
2025-07-28T12:00	26400	22	-47.6		70	9	13.3
2025-07-28T12:00	26450	22	-47.2		69	11	13.2
2025-07-28T12:00	26500	22	-46.8		72	12	13.2
2025-07-28T12:00	26550	21	-46.5		79	12	13.2
2025-07-28T12:00	26600	21	-46.6		86	12	13.1
2025-07-28T12:00	26650	21	-46.8		94	11	12.9
2025-07-28T12:00	26700	21	-46.9		103	11	12.8
2025-07-28T12:00	26750	21	-46.8		109	10	12.8
2025-07-28T12:00	26800	21	-46.8		111	9	12.7
2025-07-28T12:00	26850	20	-46.8		110	8	12.6
2025-07-28T12:00	26900	20	-46.9		106	7	12.6
2025-07-28T12:00	26950	20	-47.0		102	6	12.5
2025-07-28T12:00	27000	20	-46.9		97	6	12.4
2025-07-28T12:00	27050	20	-46.8		88	6	12.3
2025-07-28T12:00	27100	20	-46.5		77	6	12.2
2025-07-28T12:00	27150	20	-46.0		69	7	12.1
2025-07-28T12:00	27200	19	-45.7		67	9	12.1
2025-07-28T12:00	27250	19	-45.5		69	10	12.1
2025-07-28T12:00	27300	19	-45.6		71	12	12.1
2025-07-28T12:00	27350	19	-45.6		73	13	12.0
2025-07-28T12:00	27400	19	-45.6		76	15	12.0
2025-07-28T12:00	27450	19	-45.8		79	15	12.0
2025-07-28T12:00	27500	19	-45.8		82	16	11.9
2025-07-28T12:00	27550	18	-45.6		84	15	11.9
2025-07-28T12:00	27600	18	-45.5		86	14	11.9
2025-07-28T12:00	27650	18	-45.6		88	14	11.9
2025-07-28T12:00	27700	18	-45.7		90	14	11.9
2025-07-28T12:00	27750	18	-45.8		93	16	11.9
2025-07-28T12:00	27800	18	-45.7		99	17	11.9
2025-07-28T12:00	27850	18	-45.7		103	18	11.8
2025-07-28T12:00	27900	17	-45.6		105	18	11.8
2025-07-28T12:00	27950	17	-45.3		106	17	11.8
2025-07-28T12:00	28000	17	-44.9		107	16	11.8
2025-07-28T12:00	28050	17	-44.4		108	15	11.8
2025-07-28T12:00	28100	17	-43.9		111	15	11.8
2025-07-28T12:00	28150	17	-43.7		114	15	11.9
2025-07-28T12:00	28200	17	-43.7		116	16	11.9
2025-07-28T12:00	28250	17	-43.6		118	17	11.9
2025-07-28T12:00	28300	16	-43.6		118	17	11.8
2025-07-28T12:00	28350	16	-43.7		120	16	11.8
2025-07-28T12:00	28400	16	-43.6		122	16	11.7
2025-07-28T12:00	28450	16	-43.6		124	15	11.7
2025-07-28T12:00	28500	16	-43.7		125	14	11.6
2025-07-28T12:00	28550	16	-43.8		124	13	11.5
2025-07-28T12:00	28600	16	-43.8		122	13	11.5
2025-07-28T12:00	28650	16	-43.7		119	12	11.5
2025-07-28T12:00	28700	16	-43.6		116	12	11.4
2025-07-28T12:00	28750	15	-43.6		113	12	11.4
2025-07-28T12:00	28800	15	-43.7		111	12	11.3
2025-07-28T12:00	28850	15	-43.7		110	13	11.3
2025-07-28T12:00	28900	15	-43.7		110	13	11.2
2025-07-28T12:00	28950	15	-43.6		110	13	11.1
2025-07-28T12:00	29000	15	-43.6		109	13	11.1
2025-07-28T12:00	29050	15	-43.4		108	12	11.0
2025-07-28T12:00	29100	15	-43.2		109	12	11.0
2025-07-28T12:00	29150	15	-42.9		109	11	10.9
2025-07-28T12:00	29200	14	-42.8		107	11	10.9
2025-07-28T12:00	29250	14	-42.5		102	11	10.8
2025-07-28T12:00	29300	14	-42.3		99	12	10.8
2025-07-28T12:00	29350	14	-42.2		97	12	10.7
2025-07-28T12:00	29400	14	-42.2		97	13	10.6
2025-07-28T12:00	29450	14	-42.3		97	12	10.5
2025-07-28T12:00	29500	14	-42.3		97	12	10.5
2025-07-28T12:00	29550	14	-42.4		97	12	10.4
2025-07-28T12:00	29600	14	-42.4		94	12	10.3
2025-07-28T12:00	29650	13	-42.2		89	12	10.3
2025-07-28T12:00	29700	13	-42.1		86	13	10.2
2025-07-28T12:00	29750	13	-42.0		86	14	10.2
2025-07-28T12:00	29800	13	-41.8		88	14	10.1
2025-07-28T12:00	29850	13	-41.8		91	14	10.0
2025-07-28T12:00	29900	13	-41.8		94	13	9.9
2025-07-28T12:00	29950	13	-41.8		94	13	9.9
2025-07-28T12:00	30000	13	-41.9		91	14	9.9
2025-07-28T12:00	30050	13	-41.8		89	14	9.8
2025-07-28T12:00	30100	13	-41.8		90	15	9.7
2025-07-28T12:00	30150	13	-41.9		93	16	9.7
2025-07-28T12:00	30200	12	-42.0		96	17	9.7
2025-07-28T12:00	30250	12	-42.1		99	16	9.7
2025-07-28T12:00	30300	12	-42.1		103	16	9.6
2025-07-28T12:00	30350	12	-42.3		106	15	9.5
2025-07-28T12:00	30400	12	-42.4		107	13	9.4
2025-07-28T12:00	30450	12	-42.2		107	13	9.3
2025-07-28T12:00	30500	12	-41.9		107	12	9.3
2025-07-28T12:00	30550	12	-41.5		105	12	9.2
2025-07-28T12:00	30600	12	-41.1		103	12	9.1
2025-07-28T12:00	30650	12	-40.8		103	12	9.0
2025-07-28T12:00	30700	12	-40.6		106	12	9.0
2025-07-28T12:00	30750	11	-40.5		109	11	8.9
2025-07-28T12:00	30800	11	-40.4		109	11	8.9
2025-07-28T12:00	30850	11	-40.2		104	10	8.8
2025-07-28T12:00	30900	11	-40.0		97	9	8.7
2025-07-28T12:00	30950	11	-39.8		91	10	8.6
2025-07-28T12:00	31000	11	-39.6		88	10	8.5
2025-07-28T12:00	31050	11	-39.3		85	11	8.4
2025-07-28T12:00	31100	11	-39.2		81	12	8.4
2025-07-28T12:00	31150	11	-39.1		79	13	8.3
2025-07-28T12:00	31200	11	-39.1		79	14	8.2
2025-07-28T12:00	31250	11	-39.1		81	14	8.1
2025-07-28T12:00	31300	11	-39.1		84	15	8.0
2025-07-28T12:00	31350	10	-39.0		87	15	8.0
2025-07-28T12:00	31400	10	-38.9		89	15	7.9
2025-07-28T12:00	31450	10	-38.7		91	15	7.9
2025-07-28T12:00	31500	10	-38.5		92	14	7.9
2025-07-28T12:00	31550	10	-38.4		93	14	7.8
2025-07-28T12:00	31600	10	-38.3		92	15	7.7
2025-07-28T12:00	31650	10	-38.2		92	15	7.7
2025-07-28T12:00	31700	10	-38.0		94	15	7.6
2025-07-28T12:00	31750	10	-37.7		97	16	7.6
2025-07-28T12:00	31800	10	-37.5		99	17	7.6
2025-07-28T12:00	31850	10	-37.5		100	18	7.5
2025-07-28T12:00	31900	10	-37.7		101	18	7.5
2025-07-28T12:00	31950	10	-37.8		103	18	7.4
2025-07-28T12:00	32000	10	-37.8		106	17	7.3
2025-07-28T12:00	32050	9	-37.8		108	16	7.2
2025-07-28T12:00	32100	9	-37.7		107	15	7.2
2025-07-28T12:00	32150	9	-37.5		105	16	7.1
2025-07-28T12:00	32200	9	-37.3		104	17	7.1
2025-07-28T12:00	32250	9	-37.4		103	18	7.1
2025-07-28T12:00	32300	9	-37.6		104	19	6.9
2025-07-28T12:00	32350	9	-37.6		106	19	6.9
2025-07-28T12:00	32400	9	-37.3		109	19	6.9
2025-07-28T12:00	32450	9	-36.9		111	18	6.8
2025-07-28T12:00	32500	9	-36.7		110	17	6.7
2025-07-28T12:00	32550	9	-36.7		109	16	6.7
2025-07-28T12:00	32600	9	-36.5		109	16	6.7
2025-07-28T12:00	32650	9	-36.3		112	16	6.6
2025-07-28T12:00	32700	9	-36.0		112	16	6.5
2025-07-28T12:00	32750	9	-35.7		108	16	6.6
2025-07-28T12:00	32800	9	-35.5		103	16	6.5
2025-07-28T12:00	32850	8	-35.2		102	17	6.4
2025-07-28T12:00	32900	8	-35.0		106	19	6.3
2025-07-28T12:00	32950	8	-34.8		110	19	6.4
2025-07-28T12:00	33000	8	-34.4		112	18	6.2
2025-07-28T12:00	33050	8	-34.0		112	16	6.2
2025-07-28T12:00	33100	8	-33.3		111	14	6.2
2025-07-28T12:00	33150	8	-32.9		111	13	6.1
2025-07-28T12:00	33200	8	-32.6		107	13	6.1
2025-07-28T12:00	33250	8	-32.4		99	13	6.1
2025-07-28T12:00	33300	8	-32.3		93	15	6.0
2025-07-28T12:00	33350	8	-32.2		90	16	5.9
2025-07-28T12:00	33400	8	-32.2		88	18	5.9
2025-07-28T12:00	33450	8	-32.2		87	20	5.8
2025-07-28T12:00	33500	8	-32.2		88	21	5.7
2025-07-28T12:00	33550	8	-32.2		91	22	5.7
2025-07-28T12:00	33600	8	-32.1		94	22	5.6
2025-07-28T12:00	33650	8	-32.1		97	21	5.5
2025-07-28T12:00	33700	7	-32.0		99	20	5.4
2025-07-28T12:00	33750	7	-32.0		101	19	5.3
2025-07-28T12:00	33800	7	-32.2		101	18	5.3
2025-07-28T12:00	33850	7	-32.2		100	18	5.3
2025-07-28T12:00	33900	7	-32.3		101	19	5.2
2025-07-28T12:00	33950	7	-32.4		103	20	5.2
2025-07-28T12:00	34000	7	-32.5		105	20	5.2
2025-07-28T12:00	34050	7	-32.4		107	19	5.1
2025-07-28T12:00	34100	7	-32.0		104	18	5.1
2025-07-28T12:00	34150	7	-31.3		102	18	5.0
2025-07-28T12:00	34200	7	-30.8		102	17	4.9
2025-07-28T12:00	34250	7	-30.6		104	17	4.9
2025-07-28T12:00	34300	7	-30.7		108	17	4.8
2025-07-28T12:00	34350	7	-30.7		111	17	4.8
2025-07-28T12:00	34400	7	-30.7		113	16	4.8
2025-07-28T12:00	34450	7	-30.6		113	16	4.7
2025-07-28T12:00	34500	7	-30.3		110	17	4.7
2025-07-28T12:00	34550	7	-30.0		106	18	4.6
2025-07-28T12:00	34600	7	-29.9		103	18	4.6
2025-07-28T12:00	34650	7	-30.0		100	18	4.5
2025-07-28T12:00	34700	7	-29.8		99	18	4.5
2025-07-29T00:00	491	963	12.7	11.3	147	1	
2025-07-29T00:00	501	962	13.1	11.2	165	0	
2025-07-29T00:00	520	960	13.3	10.9	184	0	
2025-07-29T00:00	540	958	14.1	10.1	190	1	
2025-07-29T00:00	560	956	14.0	10.1	192	1	
2025-07-29T00:00	580	953	13.9	10.1	194	1	
2025-07-29T00:00	600	951	14.0	9.9	195	1	
2025-07-29T00:00	620	949	13.9	9.8	198	2	
2025-07-29T00:00	640	947	14.0	9.8	202	2	
2025-07-29T00:00	660	944	14.0	9.9	208	2	
2025-07-29T00:00	680	942	13.9	10.0	217	2	
2025-07-29T00:00	700	940	13.7	10.0	228	2	
2025-07-29T00:00	720	938	13.5	10.0	247	1	
2025-07-29T00:00	740	936	13.4	10.1	273	1	
2025-07-29T00:00	760	933	13.2	10.1	302	1	
2025-07-29T00:00	780	931	13.1	10.1	329	1	
2025-07-29T00:00	800	929	13.0	10.1	342	1	
2025-07-29T00:00	820	927	13.1	9.4	346	2	
2025-07-29T00:00	840	924	13.0	9.1	347	2	
2025-07-29T00:00	860	922	12.8	8.9	345	2	
2025-07-29T00:00	880	920	12.7	8.9	343	2	
2025-07-29T00:00	900	918	12.5	8.8	343	3	
2025-07-29T00:00	920	916	12.3	8.8	345	3	
2025-07-29T00:00	940	913	12.1	8.8	351	3	
2025-07-29T00:00	960	911	11.9	8.9	357	4	
2025-07-29T00:00	980	909	11.8	8.7	2	4	
2025-07-29T00:00	1000	907	11.6	8.6	6	4	
2025-07-29T00:00	1020	905	11.4	8.5	9	4	
2025-07-29T00:00	1040	903	11.3	8.5	10	4	
2025-07-29T00:00	1060	900	11.1	8.5	10	4	
2025-07-29T00:00	1080	898	10.9	8.4	8	4	
2025-07-29T00:00	1100	896	10.7	8.2	5	4	
2025-07-29T00:00	1120	894	10.5	8.1	3	4	
2025-07-29T00:00	1140	892	10.3	8.0	2	5	
2025-07-29T00:00	1160	890	10.1	7.8	2	5	
2025-07-29T00:00	1180	887	10.0	7.7	2	6	
2025-07-29T00:00	1200	886	9.8	7.7	3	6	
2025-07-29T00:00	1220	883	9.6	7.6	4	6	
2025-07-29T00:00	1240	881	9.5	7.5	5	6	
2025-07-29T00:00	1260	879	9.3	7.4	5	6	
2025-07-29T00:00	1280	877	9.2	7.4	5	5	
2025-07-29T00:00	1300	875	9.0	7.2	4	5	
2025-07-29T00:00	1320	873	8.8	7.2	3	5	
2025-07-29T00:00	1340	871	8.7	7.0	1	4	
2025-07-29T00:00	1360	869	8.6	6.8	360	4	
2025-07-29T00:00	1380	867	8.4	6.6	359	4	
2025-07-29T00:00	1400	864	8.3	6.3	359	3	
2025-07-29T00:00	1420	862	8.1	6.3	1	3	
2025-07-29T00:00	1440	860	7.9	6.3	6	3	
2025-07-29T00:00	1460	858	7.7	6.2	14	3	
2025-07-29T00:00	1480	856	7.6	6.0	21	3	
2025-07-29T00:00	1500	854	7.4	5.9	27	3	
2025-07-29T00:00	1520	852	7.3	5.8	31	3	
2025-07-29T00:00	1540	850	7.1	5.7	34	4	
2025-07-29T00:00	1560	848	7.0	5.5	36	4	
2025-07-29T00:00	1580	846	6.8	5.5	37	4	
2025-07-29T00:00	1600	844	6.7	5.2	37	4	
2025-07-29T00:00	1620	842	6.6	5.2	37	4	
2025-07-29T00:00	1640	840	6.4	5.1	37	5	
2025-07-29T00:00	1660	838	6.3	4.9	36	5	
2025-07-29T00:00	1680	835	6.1	4.9	36	5	
2025-07-29T00:00	1700	833	6.0	4.6	35	5	
2025-07-29T00:00	1720	832	5.9	4.3	35	5	
2025-07-29T00:00	1740	829	5.8	4.2	34	5	
2025-07-29T00:00	1760	827	5.6	4.2	33	5	
2025-07-29T00:00	1780	825	5.5	4.1	33	5	
2025-07-29T00:00	1800	823	5.3	4.1	34	5	
2025-07-29T00:00	1820	821	5.1	3.9	35	5	
2025-07-29T00:00	1840	819	5.0	3.8	37	5	
2025-07-29T00:00	1860	817	4.8	3.7	39	4	
2025-07-29T00:00	1880	815	4.7	3.8	43	4	
2025-07-29T00:00	1900	813	4.5	3.8	46	4	
2025-07-29T00:00	1920	811	4.3	3.8	49	5	
2025-07-29T00:00	1940	809	4.1	3.8	51	5	
2025-07-29T00:00	1960	807	4.0	3.6	52	6	
2025-07-29T00:00	1980	806	4.0	3.5	54	6	
2025-07-29T00:00	2000	803	3.8	3.4	55	6	
2025-07-29T00:00	2020	801	3.6	3.3	56	6	
2025-07-29T00:00	2040	800	3.4	3.2	57	6	
2025-07-29T00:00	2060	798	3.3	2.9	58	5	
2025-07-29T00:00	2080	796	3.2	2.7	58	5	
2025-07-29T00:00	2100	794	3.1	2.5	57	5	
2025-07-29T00:00	2120	792	3.0	2.3	55	5	
2025-07-29T00:00	2140	789	2.8	2.2	52	5	
2025-07-29T00:00	2160	788	2.7	2.2	49	5	
2025-07-29T00:00	2180	786	2.5	2.0	46	5	
2025-07-29T00:00	2200	784	2.4	1.8	44	5	
2025-07-29T00:00	2220	782	2.3	1.7	41	5	
2025-07-29T00:00	2240	780	2.1	1.7	40	5	
2025-07-29T00:00	2260	778	1.9	1.7	37	5	
2025-07-29T00:00	2280	776	1.8	1.5	34	5	
2025-07-29T00:00	2300	774	1.7	1.1	32	4	
2025-07-29T00:00	2320	772	1.6	0.8	27	4	
2025-07-29T00:00	2340	771	1.6	0.5	23	4	
2025-07-29T00:00	2360	768	1.6	0.1	18	5	
2025-07-29T00:00	2380	767	1.6	-0.1	13	5	
2025-07-29T00:00	2400	765	1.5	-0.5	10	6	
2025-07-29T00:00	2420	763	1.5	-0.8	9	6	
2025-07-29T00:00	2440	761	1.4	-1.1	9	7	
2025-07-29T00:00	2460	759	1.4	-1.8	9	7	
2025-07-29T00:00	2480	757	1.5	-2.4	9	7	
2025-07-29T00:00	2500	755	1.4	-2.7	8	7	
2025-07-29T00:00	2520	753	1.3	-3.0	6	7	
2025-07-29T00:00	2540	751	1.1	-3.0	3	7	
2025-07-29T00:00	2560	750	1.0	-3.1	0	6	
2025-07-29T00:00	2580	748	0.9	-3.1	357	6	
2025-07-29T00:00	2600	746	0.7	-3.3	355	6	
2025-07-29T00:00	2620	744	0.6	-3.6	354	6	
2025-07-29T00:00	2640	742	0.4	-3.6	353	5	
2025-07-29T00:00	2660	740	0.2	-3.6	353	5	
2025-07-29T00:00	2680	739	0.0	-3.7	350	5	
2025-07-29T00:00	2700	737	-0.2	-3.6	347	5	
2025-07-29T00:00	2720	735	-0.4	-3.6	345	5	
2025-07-29T00:00	2740	733	-0.6	-3.6	343	6	
2025-07-29T00:00	2760	731	-0.7	-3.7	343	6	
2025-07-29T00:00	2780	730	-0.9	-3.6	341	7	
2025-07-29T00:00	2800	728	-1.1	-3.7	340	7	
2025-07-29T00:00	2820	726	-1.3	-3.7	338	7	
2025-07-29T00:00	2840	724	-1.5	-3.7	336	7	
2025-07-29T00:00	2860	722	-1.7	-3.8	336	7	
2025-07-29T00:00	2880	720	-1.9	-3.9	338	7	
2025-07-29T00:00	2900	718	-2.0	-4.1	342	7	
2025-07-29T00:00	2920	716	-2.1	-4.2	348	7	
2025-07-29T00:00	2940	715	-2.3	-4.3	352	7	
2025-07-29T00:00	2960	713	-2.5	-4.3	356	7	
2025-07-29T00:00	2980	711	-2.7	-4.3	359	7	
2025-07-29T00:00	3000	710	-2.9	-4.4	360	7	
2025-07-29T00:00	3020	708	-3.1	-4.5	360	7	
2025-07-29T00:00	3040	706	-3.3	-4.5	359	7	
2025-07-29T00:00	3060	704	-3.4	-4.6	359	8	
2025-07-29T00:00	3080	702	-3.6	-4.6	358	8	
2025-07-29T00:00	3100	701	-3.8	-4.5	357	8	
2025-07-29T00:00	3120	699	-4.1	-4.2	356	9	
2025-07-29T00:00	3140	697	-4.3	-4.4	355	9	
2025-07-29T00:00	3160	695	-4.4	-4.6	355	9	
2025-07-29T00:00	3180	694	-4.6	-4.6	354	10	
2025-07-29T00:00	3200	692	-4.8	-4.8	354	10	
2025-07-29T00:00	3220	690	-4.9	-4.9	354	10	
2025-07-29T00:00	3240	688	-5.0	-5.0	355	10	
2025-07-29T00:00	3260	686	-5.2	-5.2	356	10	
2025-07-29T00:00	3280	685	-5.3	-5.3	357	10	
2025-07-29T00:00	3300	683	-5.5	-5.5	359	10	
2025-07-29T00:00	3320	681	-4.4	-5.6	0	9	
2025-07-29T00:00	3340	679	-3.4	-9.6	1	9	
2025-07-29T00:00	3360	678	-2.8	-10.5	1	8	
2025-07-29T00:00	3380	676	-2.8	-11.7	1	8	
2025-07-29T00:00	3400	674	-2.5	-14.7	0	8	
2025-07-29T00:00	3420	673	-2.2	-16.6	360	8	
2025-07-29T00:00	3440	671	-2.1	-17.0	0	7	
2025-07-29T00:00	3460	669	-2.1	-16.7	2	8	
2025-07-29T00:00	3480	668	-2.2	-16.6	3	8	
2025-07-29T00:00	3500	666	-2.4	-16.8	5	8	
2025-07-29T00:00	3520	664	-2.6	-16.8	6	8	
2025-07-29T00:00	3540	663	-2.7	-16.8	6	8	
2025-07-29T00:00	3560	661	-2.9	-16.7	6	7	
2025-07-29T00:00	3580	659	-3.1	-16.9	5	7	
2025-07-29T00:00	3600	658	-3.3	-16.8	5	7	
2025-07-29T00:00	3620	656	-3.4	-16.5	6	7	
2025-07-29T00:00	3640	654	-3.6	-15.7	8	7	
2025-07-29T00:00	3660	653	-3.8	-14.6	10	7	
2025-07-29T00:00	3680	651	-3.8	-13.6	11	7	
2025-07-29T00:00	3700	649	-3.9	-13.3	11	7	
2025-07-29T00:00	3720	648	-3.9	-13.6	8	7	
2025-07-29T00:00	3740	646	-4.0	-13.7	4	7	
2025-07-29T00:00	3760	644	-4.2	-13.8	2	7	
2025-07-29T00:00	3780	643	-4.3	-14.3	1	7	
2025-07-29T00:00	3800	641	-4.3	-14.8	1	7	
2025-07-29T00:00	3820	640	-4.4	-15.0	2	7	
2025-07-29T00:00	3840	638	-4.5	-15.0	4	7	
2025-07-29T00:00	3860	636	-4.6	-15.1	5	7	
2025-07-29T00:00	3880	635	-4.7	-15.1	4	7	
2025-07-29T00:00	3900	633	-4.9	-15.3	3	7	
2025-07-29T00:00	3920	631	-5.0	-15.8	0	7	
2025-07-29T00:00	3940	630	-5.1	-16.4	358	7	
2025-07-29T00:00	3960	628	-5.1	-17.0	356	6	
2025-07-29T00:00	3980	627	-5.3	-17.6	355	6	
2025-07-29T00:00	4000	625	-5.4	-18.1	354	6	
2025-07-29T00:00	4020	624	-5.4	-19.1	356	6	
2025-07-29T00:00	4040	622	-5.6	-19.6	357	6	
2025-07-29T00:00	4060	620	-5.7	-19.8	359	6	
2025-07-29T00:00	4080	619	-5.9	-19.6	360	6	
2025-07-29T00:00	4100	617	-6.1	-19.5	359	6	
2025-07-29T00:00	4120	616	-6.3	-19.5	358	5	
2025-07-29T00:00	4140	614	-6.5	-19.6	356	5	
2025-07-29T00:00	4160	612	-6.7	-19.4	352	5	
2025-07-29T00:00	4180	611	-6.9	-19.0	349	5	
2025-07-29T00:00	4200	609	-7.1	-18.8	346	5	
2025-07-29T00:00	4220	608	-7.3	-18.9	345	5	
2025-07-29T00:00	4240	606	-7.4	-18.7	346	6	
2025-07-29T00:00	4260	605	-7.6	-18.8	348	6	
2025-07-29T00:00	4280	603	-7.8	-19.0	349	6	
2025-07-29T00:00	4300	602	-7.9	-19.1	351	6	
2025-07-29T00:00	4320	600	-8.0	-19.1	353	6	
2025-07-29T00:00	4340	598	-8.2	-19.5	355	6	
2025-07-29T00:00	4360	597	-8.2	-20.4	355	6	
2025-07-29T00:00	4380	595	-8.4	-21.0	353	7	
2025-07-29T00:00	4400	594	-8.5	-22.5	349	7	
2025-07-29T00:00	4420	592	-8.4	-24.2	343	7	
2025-07-29T00:00	4440	591	-8.5	-24.2	339	8	
2025-07-29T00:00	4460	589	-8.7	-24.0	335	8	
2025-07-29T00:00	4480	588	-8.9	-23.7	334	8	
2025-07-29T00:00	4500	586	-9.0	-22.6	334	8	
2025-07-29T00:00	4520	585	-9.1	-22.4	334	8	
2025-07-29T00:00	4540	583	-9.3	-22.0	335	7	
2025-07-29T00:00	4560	582	-9.4	-21.5	336	7	
2025-07-29T00:00	4580	580	-9.4	-21.6	337	6	
2025-07-29T00:00	4600	579	-9.3	-22.3	338	6	
2025-07-29T00:00	4620	577	-9.2	-23.3	338	7	
2025-07-29T00:00	4640	576	-9.2	-24.7	337	7	
2025-07-29T00:00	4660	574	-9.1	-28.2	337	8	
2025-07-29T00:00	4680	573	-9.0	-30.6	335	8	
2025-07-29T00:00	4700	571	-9.1	-31.6	334	9	
2025-07-29T00:00	4720	570	-9.2	-32.6	333	9	
2025-07-29T00:00	4740	568	-9.2	-34.4	332	10	
2025-07-29T00:00	4760	567	-9.2	-35.8	332	10	
2025-07-29T00:00	4780	565	-9.3	-37.1	332	10	
2025-07-29T00:00	4800	564	-9.1	-38.9	334	10	
2025-07-29T00:00	4820	562	-9.2	-39.0	335	10	
2025-07-29T00:00	4840	561	-9.3	-39.0	337	10	
2025-07-29T00:00	4860	560	-9.4	-39.1	338	10	
2025-07-29T00:00	4880	558	-9.5	-39.2	340	9	
2025-07-29T00:00	4900	557	-9.6	-39.1	340	10	
2025-07-29T00:00	4920	555	-9.7	-39.2	338	10	
2025-07-29T00:00	4940	554	-9.8	-39.3	337	10	
2025-07-29T00:00	4960	552	-9.9	-38.9	336	10	
2025-07-29T00:00	4980	551	-10.1	-38.7	335	10	
2025-07-29T00:00	5000	549	-10.2	-38.7	334	10	
2025-07-29T00:00	5020	548	-10.4	-39.0	334	11	
2025-07-29T00:00	5040	547	-10.5	-39.3	334	11	
2025-07-29T00:00	5060	545	-10.6	-39.8	335	10	
2025-07-29T00:00	5080	544	-10.7	-40.0	335	10	
2025-07-29T00:00	5100	542	-10.9	-40.0	336	10	
2025-07-29T00:00	5120	541	-11.0	-40.4	336	10	
2025-07-29T00:00	5140	540	-11.1	-40.9	337	10	
2025-07-29T00:00	5160	538	-11.1	-41.3	338	10	
2025-07-29T00:00	5180	537	-11.3	-41.7	339	11	
2025-07-29T00:00	5200	535	-11.4	-41.7	340	11	
2025-07-29T00:00	5220	534	-11.6	-41.1	340	12	
2025-07-29T00:00	5240	533	-11.7	-41.0	339	12	
2025-07-29T00:00	5260	531	-11.8	-41.3	339	12	
2025-07-29T00:00	5280	530	-12.0	-41.2	338	12	
2025-07-29T00:00	5300	528	-12.1	-40.9	338	13	
2025-07-29T00:00	5320	527	-12.3	-40.3	338	13	
2025-07-29T00:00	5340	526	-12.4	-39.6	338	12	
2025-07-29T00:00	5360	524	-12.6	-39.5	339	12	
2025-07-29T00:00	5380	523	-12.8	-39.6	339	12	
2025-07-29T00:00	5400	522	-12.8	-39.9	339	12	
2025-07-29T00:00	5420	520	-12.9	-40.1	339	12	
2025-07-29T00:00	5440	519	-13.1	-40.3	338	12	
2025-07-29T00:00	5460	517	-13.2	-40.6	338	12	
2025-07-29T00:00	5480	516	-13.3	-40.8	337	12	
2025-07-29T00:00	5500	515	-13.4	-40.9	337	11	
2025-07-29T00:00	5520	514	-13.6	-41.0	337	11	
2025-07-29T00:00	5540	512	-13.8	-41.0	337	11	
2025-07-29T00:00	5560	511	-13.9	-41.0	337	11	
2025-07-29T00:00	5580	509	-14.1	-41.1	337	11	
2025-07-29T00:00	5600	508	-14.2	-41.0	336	11	
2025-07-29T00:00	5620	507	-14.4	-41.1	336	11	
2025-07-29T00:00	5640	505	-14.5	-41.3	335	11	
2025-07-29T00:00	5660	504	-14.6	-41.9	335	11	
2025-07-29T00:00	5680	503	-14.8	-42.3	335	11	
2025-07-29T00:00	5700	501	-15.0	-42.3	336	12	
2025-07-29T00:00	5720	500	-15.2	-42.3	336	12	
2025-07-29T00:00	5740	499	-15.4	-42.3	336	12	
2025-07-29T00:00	5760	497	-15.5	-42.3	336	12	
2025-07-29T00:00	5780	496	-15.7	-42.4	336	13	
2025-07-29T00:00	5800	495	-15.9	-42.5	336	13	
2025-07-29T00:00	5820	493	-16.1	-42.8	336	13	
2025-07-29T00:00	5840	492	-16.2	-43.3	335	13	
2025-07-29T00:00	5860	491	-16.3	-44.4	335	14	
2025-07-29T00:00	5880	490	-16.4	-45.3	335	14	
2025-07-29T00:00	5900	488	-16.6	-45.4	335	14	
2025-07-29T00:00	5920	487	-16.8	-45.9	334	14	
2025-07-29T00:00	5940	486	-16.9	-46.1	334	14	
2025-07-29T00:00	5960	484	-17.0	-46.4	334	14	
2025-07-29T00:00	5980	483	-17.1	-46.7	334	14	
2025-07-29T00:00	6000	482	-17.3	-46.8	334	14	
2025-07-29T00:00	6020	481	-17.4	-46.8	333	14	
2025-07-29T00:00	6040	479	-17.5	-46.8	332	14	
2025-07-29T00:00	6060	478	-17.7	-47.0	330	14	
2025-07-29T00:00	6080	477	-17.8	-47.1	328	14	
2025-07-29T00:00	6100	475	-17.9	-47.3	327	14	
2025-07-29T00:00	6120	474	-18.1	-46.5	326	14	
2025-07-29T00:00	6140	473	-18.1	-44.8	325	14	
2025-07-29T00:00	6160	471	-18.3	-44.9	325	14	
2025-07-29T00:00	6180	470	-18.5	-44.6	326	14	
2025-07-29T00:00	6200	469	-18.6	-44.5	328	14	
2025-07-29T00:00	6220	468	-18.7	-44.5	330	14	
2025-07-29T00:00	6240	466	-18.8	-44.7	333	14	
2025-07-29T00:00	6260	465	-19.0	-44.9	335	14	
2025-07-29T00:00	6280	464	-19.1	-44.9	336	14	
2025-07-29T00:00	6300	463	-19.3	-44.8	338	14	
2025-07-29T00:00	6320	461	-19.5	-44.6	339	14	
2025-07-29T00:00	6340	460	-19.6	-44.3	339	14	
2025-07-29T00:00	6360	459	-19.7	-44.1	340	15	
2025-07-29T00:00	6380	458	-19.8	-44.0	340	15	
2025-07-29T00:00	6400	457	-19.9	-44.1	340	15	
2025-07-29T00:00	6420	455	-20.0	-44.3	341	16	
2025-07-29T00:00	6440	454	-20.1	-44.4	341	16	
2025-07-29T00:00	6460	453	-20.3	-44.5	341	17	
2025-07-29T00:00	6480	452	-20.4	-44.9	340	17	
2025-07-29T00:00	6500	450	-20.5	-45.4	339	18	
2025-07-29T00:00	6520	449	-20.6	-45.9	339	19	
2025-07-29T00:00	6540	448	-20.6	-46.4	337	19	
2025-07-29T00:00	6560	447	-20.7	-46.9	336	20	
2025-07-29T00:00	6580	446	-20.8	-47.2	334	20	
2025-07-29T00:00	6600	444	-20.7	-47.4	333	21	
2025-07-29T00:00	6620	443	-20.7	-47.3	331	21	
2025-07-29T00:00	6640	442	-20.7	-47.6	329	22	
2025-07-29T00:00	6660	441	-20.7	-48.1	328	22	
2025-07-29T00:00	6680	440	-20.7	-48.5	328	22	
2025-07-29T00:00	6700	438	-20.8	-49.1	327	23	
2025-07-29T00:00	6720	437	-20.8	-49.0	327	23	
2025-07-29T00:00	6740	436	-20.8	-49.3	327	23	
2025-07-29T00:00	6760	435	-20.9	-49.5	327	23	
2025-07-29T00:00	6780	434	-21.0	-49.3	327	23	
2025-07-29T00:00	6800	433	-20.9	-50.2	327	23	
2025-07-29T00:00	6820	431	-20.8	-51.2	328	23	
2025-07-29T00:00	6840	430	-20.6	-51.8	328	23	
2025-07-29T00:00	6860	429	-20.5	-51.7	328	24	
2025-07-29T00:00	6880	428	-20.6	-51.2	328	24	
2025-07-29T00:00	6900	427	-20.6	-50.7	328	24	
2025-07-29T00:00	6920	425	-20.5	-49.8	328	24	
2025-07-29T00:00	6940	424	-20.6	-48.1	329	24	
2025-07-29T00:00	6960	423	-20.7	-47.1	329	24	
2025-07-29T00:00	6980	422	-20.8	-46.7	330	24	
2025-07-29T00:00	7000	421	-21.0	-46.7	331	24	
2025-07-29T00:00	7020	420	-21.2	-46.6	331	24	
2025-07-29T00:00	7040	419	-21.3	-46.5	332	24	
2025-07-29T00:00	7060	418	-21.5	-46.6	333	24	
2025-07-29T00:00	7080	416	-21.7	-46.4	333	25	
2025-07-29T00:00	7100	415	-21.9	-46.3	334	25	
2025-07-29T00:00	7120	414	-22.1	-45.2	335	25	
2025-07-29T00:00	7140	413	-22.2	-44.8	336	25	
2025-07-29T00:00	7160	412	-22.3	-44.5	336	25	
2025-07-29T00:00	7180	411	-22.5	-44.4	337	25	
2025-07-29T00:00	7200	410	-22.6	-43.9	338	25	
2025-07-29T00:00	7220	408	-22.8	-43.1	338	25	
2025-07-29T00:00	7240	407	-22.8	-42.8	338	26	
2025-07-29T00:00	7260	406	-23.0	-42.7	338	26	
2025-07-29T00:00	7280	405	-23.1	-42.0	338	26	
2025-07-29T00:00	7300	404	-23.3	-41.2	338	26	
2025-07-29T00:00	7320	403	-23.5	-40.9	338	26	
2025-07-29T00:00	7340	402	-23.7	-40.9	338	26	
2025-07-29T00:00	7360	401	-23.9	-40.5	338	26	
2025-07-29T00:00	7380	400	-24.0	-40.4	338	26	
2025-07-29T00:00	7400	399	-24.1	-39.9	338	26	
2025-07-29T00:00	7420	398	-24.3	-39.8	338	26	
2025-07-29T00:00	7440	397	-24.5	-39.7	338	26	
2025-07-29T00:00	7460	395	-24.7	-39.8	338	26	
2025-07-29T00:00	7480	394	-24.9	-40.0	337	26	
2025-07-29T00:00	7500	393	-25.0	-40.1	337	26	
2025-07-29T00:00	7520	392	-25.2	-39.7	336	26	
2025-07-29T00:00	7540	391	-25.4	-40.0	336	26	
2025-07-29T00:00	7560	390	-25.5	-40.2	335	26	
2025-07-29T00:00	7580	389	-25.7	-40.0	335	26	
2025-07-29T00:00	7600	388	-25.8	-40.1	335	26	
2025-07-29T00:00	7620	387	-26.0	-40.6	334	26	
2025-07-29T00:00	7640	386	-26.1	-41.0	334	26	
2025-07-29T00:00	7660	385	-26.3	-41.2	333	26	
2025-07-29T00:00	7680	384	-26.5	-41.3	333	26	
2025-07-29T00:00	7700	383	-26.6	-41.6	332	26	
2025-07-29T00:00	7720	381	-26.8	-41.8	332	26	
2025-07-29T00:00	7740	380	-27.0	-41.6	331	26	
2025-07-29T00:00	7760	379	-27.2	-41.4	330	26	
2025-07-29T00:00	7780	378	-27.3	-41.1	330	26	
2025-07-29T00:00	7800	377	-27.5	-41.1	329	26	
2025-07-29T00:00	7820	376	-27.6	-41.2	329	26	
2025-07-29T00:00	7840	375	-27.8	-41.4	329	26	
2025-07-29T00:00	7860	374	-28.0	-41.5	329	26	
2025-07-29T00:00	7880	373	-28.2	-41.3	329	25	
2025-07-29T00:00	7900	372	-28.4	-41.4	329	25	
2025-07-29T00:00	7920	371	-28.5	-41.8	330	25	
2025-07-29T00:00	7940	370	-28.7	-41.9	330	25	
2025-07-29T00:00	7960	369	-28.9	-41.7	330	25	
2025-07-29T00:00	7980	368	-29.0	-41.6	331	26	
2025-07-29T00:00	8000	367	-29.2	-42.1	331	26	
2025-07-29T00:00	8020	366	-29.3	-42.8	332	26	
2025-07-29T00:00	8040	365	-29.5	-43.1	332	26	
2025-07-29T00:00	8060	364	-29.6	-43.3	333	26	
2025-07-29T00:00	8080	363	-29.8	-43.4	333	26	
2025-07-29T00:00	8100	362	-30.0	-43.4	333	26	
2025-07-29T00:00	8120	361	-30.2	-43.3	333	26	
2025-07-29T00:00	8140	360	-30.4	-43.5	333	26	
2025-07-29T00:00	8160	359	-30.6	-43.6	333	26	
2025-07-29T00:00	8180	358	-30.8	-43.6	334	26	
2025-07-29T00:00	8200	357	-31.0	-43.6	334	26	
2025-07-29T00:00	8220	356	-31.1	-43.6	334	26	
2025-07-29T00:00	8240	355	-31.3	-43.7	334	26	
2025-07-29T00:00	8260	354	-31.5	-43.7	333	26	
2025-07-29T00:00	8280	353	-31.8	-43.7	333	26	
2025-07-29T00:00	8300	352	-32.0	-43.8	333	26	
2025-07-29T00:00	8320	351	-32.1	-43.9	332	26	
2025-07-29T00:00	8340	350	-32.3	-43.8	332	26	
2025-07-29T00:00	8360	349	-32.5	-43.8	331	26	
2025-07-29T00:00	8380	348	-32.7	-43.8	331	26	
2025-07-29T00:00	8400	347	-32.9	-43.7	330	26	
2025-07-29T00:00	8420	346	-33.1	-43.9	330	26	
2025-07-29T00:00	8440	345	-33.3	-43.3	329	26	
2025-07-29T00:00	8460	344	-33.5	-42.7	329	26	
2025-07-29T00:00	8480	343	-33.7	-42.9	329	26	
2025-07-29T00:00	8500	342	-33.9	-42.9	329	26	
2025-07-29T00:00	8520	341	-34.0	-42.8	329	26	
2025-07-29T00:00	8540	340	-34.3	-42.6	329	26	
2025-07-29T00:00	8560	339	-34.4	-42.4	329	26	
2025-07-29T00:00	8580	338	-34.6	-42.5	329	26	
2025-07-29T00:00	8600	337	-34.8	-42.6	330	26	
2025-07-29T00:00	8620	336	-35.0	-42.4	330	26	
2025-07-29T00:00	8640	335	-35.2	-42.4	330	26	
2025-07-29T00:00	8660	334	-35.4	-42.4	330	26	
2025-07-29T00:00	8680	333	-35.6	-42.4	330	26	
2025-07-29T00:00	8700	332	-35.8	-42.1	330	26	
2025-07-29T00:00	8720	331	-36.0	-41.7	330	26	
2025-07-29T00:00	8740	330	-36.2	-41.4	330	27	
2025-07-29T00:00	8760	329	-36.4	-41.2	329	27	
2025-07-29T00:00	8780	328	-36.5	-41.0	329	27	
2025-07-29T00:00	8800	327	-36.7	-41.0	329	27	
2025-07-29T00:00	8820	326	-36.9	-40.9	329	27	
2025-07-29T00:00	8840	325	-37.1	-40.9	329	27	
2025-07-29T00:00	8860	324	-37.3	-41.2	329	27	
2025-07-29T00:00	8880	323	-37.5	-41.3	329	27	
2025-07-29T00:00	8900	323	-37.6	-41.5	329	27	
2025-07-29T00:00	8920	322	-37.8	-42.0	329	28	
2025-07-29T00:00	8940	321	-37.9	-42.6	329	28	
2025-07-29T00:00	8960	320	-38.1	-42.5	328	28	
2025-07-29T00:00	8980	319	-38.2	-42.5	328	28	
2025-07-29T00:00	9000	318	-38.4	-43.2	327	29	
2025-07-29T00:00	9020	317	-38.5	-43.3	327	29	
2025-07-29T00:00	9040	316	-38.6	-43.5	327	29	
2025-07-29T00:00	9060	315	-38.8	-43.5	327	29	
2025-07-29T00:00	9080	314	-39.0	-43.6	327	29	
2025-07-29T00:00	9100	313	-39.1	-43.5	327	29	
2025-07-29T00:00	9120	312	-39.3	-43.4	327	29	
2025-07-29T00:00	9140	312	-39.5	-43.9	327	29	
2025-07-29T00:00	9160	311	-39.6	-44.9	327	29	
2025-07-29T00:00	9180	310	-39.8	-45.3	328	29	
2025-07-29T00:00	9200	309	-39.9	-45.3	327	29	
2025-07-29T00:00	9220	308	-40.1	-44.7	327	29	
2025-07-29T00:00	9240	307	-40.2	-44.7	327	30	
2025-07-29T00:00	9260	306	-40.4	-45.1	327	30	
2025-07-29T00:00	9280	305	-40.5	-45.3	327	30	
2025-07-29T00:00	9300	304	-40.7	-45.6	327	30	
2025-07-29T00:00	9320	304	-40.8	-46.1	327	30	
2025-07-29T00:00	9340	303	-41.0	-46.1	327	30	
2025-07-29T00:00	9360	302	-41.1	-46.1	327	29	
2025-07-29T00:00	9380	301	-41.3	-46.3	327	29	
2025-07-29T00:00	9400	300	-41.5	-46.3	327	29	
2025-07-29T00:00	9420	299	-41.6	-46.5	327	29	
2025-07-29T00:00	9440	298	-41.8	-46.6	327	29	
2025-07-29T00:00	9460	297	-42.0	-47.1	327	29	
2025-07-29T00:00	9480	296	-42.1	-47.6	327	28	
2025-07-29T00:00	9500	296	-42.2	-47.7	327	28	
2025-07-29T00:00	9520	295	-42.4	-47.5	327	28	
2025-07-29T00:00	9540	294	-42.6	-47.6	327	28	
2025-07-29T00:00	9560	293	-42.8	-47.5	327	28	
2025-07-29T00:00	9580	292	-43.0	-47.4	327	28	
2025-07-29T00:00	9600	291	-43.1	-47.8	327	28	
2025-07-29T00:00	9620	290	-43.3	-48.1	327	28	
2025-07-29T00:00	9640	290	-43.5	-48.4	326	28	
2025-07-29T00:00	9660	289	-43.7	-48.3	326	28	
2025-07-29T00:00	9680	288	-43.8	-48.2	326	27	
2025-07-29T00:00	9700	287	-44.0	-48.0	325	27	
2025-07-29T00:00	9720	286	-44.2	-48.1	325	27	
2025-07-29T00:00	9740	285	-44.3	-48.3	325	27	
2025-07-29T00:00	9760	284	-44.4	-48.9	325	27	
2025-07-29T00:00	9780	283	-44.5	-49.4	326	26	
2025-07-29T00:00	9800	283	-44.6	-50.0	326	26	
2025-07-29T00:00	9820	282	-44.6	-50.8	326	26	
2025-07-29T00:00	9840	281	-44.7	-51.1	326	26	
2025-07-29T00:00	9860	280	-44.8	-51.7	326	26	
2025-07-29T00:00	9880	279	-44.9	-52.4	326	26	
2025-07-29T00:00	9900	278	-45.0	-52.7	326	26	
2025-07-29T00:00	9920	278	-45.0	-52.7	326	26	
2025-07-29T00:00	9940	277	-45.1	-52.8	326	26	
2025-07-29T00:00	9960	276	-45.0	-52.8	325	26	
2025-07-29T00:00	9980	275	-45.1	-52.8	325	26	
2025-07-29T00:00	10000	274	-45.1	-52.8	325	26	
2025-07-29T00:00	10018	274	-45.3	-52.8	324	26	
2025-07-29T00:00	10050	272	-45.5	-52.6	324	26	
2025-07-29T00:00	10100	270	-46.0	-52.4	324	26	
2025-07-29T00:00	10150	268	-46.4	-52.4	323	26	
2025-07-29T00:00	10200	266	-46.7	-52.7	322	26	
2025-07-29T00:00	10250	264	-47.2	-52.5	322	26	
2025-07-29T00:00	10300	262	-47.6	-53.0	322	26	
2025-07-29T00:00	10350	260	-47.8	-55.6	320	26	
2025-07-29T00:00	10400	258	-48.1	-55.3	318	27	
2025-07-29T00:00	10450	256	-48.3	-55.9	318	27	
2025-07-29T00:00	10500	254	-48.6	-56.6	318	28	
2025-07-29T00:00	10550	252	-48.8	-56.2	319	28	
2025-07-29T00:00	10600	250	-49.1	-57.1	321	27	
2025-07-29T00:00	10650	249	-49.2	-58.7	322	27	
2025-07-29T00:00	10700	247	-49.3	-59.2	323	27	
2025-07-29T00:00	10750	245	-48.9	-60.6	322	27	
2025-07-29T00:00	10800	243	-48.8	-61.7	320	27	
2025-07-29T00:00	10850	241	-48.7	-62.8	318	27	
2025-07-29T00:00	10900	239	-48.8	-63.2	316	27	
2025-07-29T00:00	10950	237	-48.8	-63.7	316	28	
2025-07-29T00:00	11000	236	-48.6	-64.6	316	29	
2025-07-29T00:00	11050	234	-48.6	-65.1	317	31	
2025-07-29T00:00	11100	232	-48.7	-65.7	318	32	
2025-07-29T00:00	11150	230	-48.4	-66.3	320	33	
2025-07-29T00:00	11200	229	-48.2	-66.7	321	33	
2025-07-29T00:00	11250	227	-48.4	-67.0	322	33	
2025-07-29T00:00	11300	225	-48.7	-67.2	322	31	
2025-07-29T00:00	11350	223	-48.8	-67.5	321	30	
2025-07-29T00:00	11400	222	-48.9	-67.5	320	28	
2025-07-29T00:00	11450	220	-49.2	-68.1	318	28	
2025-07-29T00:00	11500	218	-49.2	-69.5	316	27	
2025-07-29T00:00	11550	217	-49.2	-70.0	314	27	
2025-07-29T00:00	11600	215	-49.2	-70.3	313	27	
2025-07-29T00:00	11650	213	-49.0	-71.3	311	28	
2025-07-29T00:00	11700	212	-48.9	-72.1	309	28	
2025-07-29T00:00	11750	210	-49.1	-72.2	308	29	
2025-07-29T00:00	11800	209	-49.0	-72.0	307	29	
2025-07-29T00:00	11850	207	-49.5	-72.1	309	29	
2025-07-29T00:00	11900	205	-49.3	-72.6	312	29	
2025-07-29T00:00	11950	204	-48.8	-74.0	316	28	
2025-07-29T00:00	12000	202	-48.5	-75.2	320	26	
2025-07-29T00:00	12050	201	-48.5	-75.8	321	24	
2025-07-29T00:00	12100	199	-48.2	-76.7	321	22	
2025-07-29T00:00	12150	198	-47.5	-77.4	321	21	
2025-07-29T00:00	12200	196	-46.8	-77.7	319	21	
2025-07-29T00:00	12250	195	-47.0	-77.5	317	22	
2025-07-29T00:00	12300	193	-47.2	-77.5	315	22	
2025-07-29T00:00	12350	192	-47.4	-77.5	312	23	
2025-07-29T00:00	12400	190	-47.8	-77.6	310	23	
2025-07-29T00:00	12450	189	-47.8	-77.8	311	24	
2025-07-29T00:00	12500	188	-47.7	-77.9	312	24	
2025-07-29T00:00	12550	186	-47.7	-78.1	314	24	
2025-07-29T00:00	12600	185	-47.9	-78.2	316	23	
2025-07-29T00:00	12650	183	-48.1	-78.3	317	22	
2025-07-29T00:00	12700	182	-48.4	-78.3	320	21	
2025-07-29T00:00	12750	181	-48.8	-78.1	320	21	
2025-07-29T00:00	12800	179	-49.1	-78.0	318	20	
2025-07-29T00:00	12850	178	-49.3	-78.0	317	20	
2025-07-29T00:00	12900	177	-49.7	-78.0	315	20	
2025-07-29T00:00	12950	175	-50.1	-77.9	313	20	
2025-07-29T00:00	13000	174	-50.1	-77.6	310	20	
2025-07-29T00:00	13050	173	-50.1	-77.6	309	21	
2025-07-29T00:00	13100	171	-50.0	-78.0	309	22	
2025-07-29T00:00	13150	170	-49.6	-77.9	310	23	
2025-07-29T00:00	13200	169	-49.6	-78.1	309	24	
2025-07-29T00:00	13250	167	-49.6	-78.2	310	24	
2025-07-29T00:00	13300	166	-49.8	-78.3	311	24	
2025-07-29T00:00	13350	165	-50.1	-78.5	311	24	
2025-07-29T00:00	13400	164	-50.4	-78.8	312	24	
2025-07-29T00:00	13450	162	-50.4	-79.3	312	24	
2025-07-29T00:00	13500	161	-50.3	-79.7	313	24	
2025-07-29T00:00	13550	160	-50.3	-80.0	315	25	
2025-07-29T00:00	13600	159	-50.1	-80.3	317	24	
2025-07-29T00:00	13650	157	-50.0	-80.4	318	23	
2025-07-29T00:00	13700	156	-50.1	-80.5	319	23	
2025-07-29T00:00	13750	155	-50.2	-80.4	319	22	
2025-07-29T00:00	13800	154	-50.3	-80.5	319	21	
2025-07-29T00:00	13850	153	-50.0	-80.4	316	20	
2025-07-29T00:00	13900	151	-50.0	-80.4	312	19	
2025-07-29T00:00	13950	150	-50.0	-80.4	311	19	
2025-07-29T00:00	14000	149	-49.9	-80.4	312	18	
2025-07-29T00:00	14050	148	-49.9	-80.6	313	18	
2025-07-29T00:00	14100	147	-50.1	-80.6	312	18	
2025-07-29T00:00	14150	146	-50.1	-80.7	311	19	
2025-07-29T00:00	14200	145	-50.0	-80.7	312	19	
2025-07-29T00:00	14250	144	-50.0	-80.7	315	18	
2025-07-29T00:00	14300	143	-49.8	-80.8	318	17	
2025-07-29T00:00	14350	141	-50.0	-80.8	318	15	
2025-07-29T00:00	14400	140	-50.2	-80.8	316	14	
2025-07-29T00:00	14450	139	-50.3	-80.9	313	14	
2025-07-29T00:00	14500	138	-50.3	-81.0	308	15	
2025-07-29T00:00	14550	137	-50.4	-81.1	303	15	
2025-07-29T00:00	14600	136	-50.3	-81.1	300	14	
2025-07-29T00:00	14650	135	-50.3	-81.2	299	13	
2025-07-29T00:00	14700	134	-50.2	-81.1	300	13	
2025-07-29T00:00	14750	133	-50.2	-81.1	302	13	
2025-07-29T00:00	14800	132	-50.6	-81.1	304	13	
2025-07-29T00:00	14850	131	-51.0	-81.2	306	14	
2025-07-29T00:00	14900	130	-51.3	-81.3	307	15	
2025-07-29T00:00	14950	129	-51.3	-81.4	307	16	
2025-07-29T00:00	15000	128	-51.3	-81.5	308	16	
2025-07-29T00:00	15050	127	-51.4	-81.6	309	16	
2025-07-29T00:00	15100	126	-51.3	-81.5	310	15	
2025-07-29T00:00	15150	125	-51.4	-81.6	312	14	
2025-07-29T00:00	15200	124	-51.4	-81.7	314	13	
2025-07-29T00:00	15250	123	-51.4	-81.8	317	13	
2025-07-29T00:00	15300	122	-51.5	-81.7	320	13	
2025-07-29T00:00	15350	121	-51.6	-81.9	323	12	
2025-07-29T00:00	15400	120	-51.6	-81.9	323	10	
2025-07-29T00:00	15450	119	-51.8	-82.0	320	9	
2025-07-29T00:00	15500	118	-51.9	-82.1	315	8	
2025-07-29T00:00	15550	118	-52.2	-82.1	312	8	
2025-07-29T00:00	15600	117	-52.5	-82.3	312	8	
2025-07-29T00:00	15650	116	-52.7	-82.4	315	7	
2025-07-29T00:00	15700	115	-52.6	-82.5	314	6	
2025-07-29T00:00	15750	114	-52.6	-82.5	307	5	
2025-07-29T00:00	15800	113	-52.9	-82.5	299	6	
2025-07-29T00:00	15850	112	-53.3	-82.6	297	7	
2025-07-29T00:00	15900	111	-53.4	-82.8	299	8	
2025-07-29T00:00	15950	111	-53.5	-82.8	296	9	
2025-07-29T00:00	16000	110	-53.7	-82.9	292	9	
2025-07-29T00:00	16050	109	-53.7	-83.1	289	8	
2025-07-29T00:00	16100	108	-53.2	-83.0	287	6	
2025-07-29T00:00	16150	107	-53.1	-82.9	282	6	
2025-07-29T00:00	16200	106	-53.4	-82.9	276	6	
2025-07-29T00:00	16250	105	-53.9	-83.1	273	6	
2025-07-29T00:00	16300	105	-53.8	-83.0	270	7	
2025-07-29T00:00	16350	104	-53.9	-83.2	266	6	
2025-07-29T00:00	16400	103	-53.9	-83.2	260	6	
2025-07-29T00:00	16450	102	-54.0	-83.3	260	7	
2025-07-29T00:00	16500	101	-53.8	-83.3	265	8	
2025-07-29T00:00	16550	101	-53.6	-83.3	268	9	
2025-07-29T00:00	16600	100	-53.6	-83.3	271	10	
2025-07-29T00:00	16650	99	-53.6	-83.2	274	10	
2025-07-29T00:00	16700	98	-53.7	-83.2	279	10	
2025-07-29T00:00	16750	98	-53.8	-83.2	284	10	
2025-07-29T00:00	16800	97	-54.0	-83.4	288	9	
2025-07-29T00:00	16850	96	-53.8	-83.4	287	8	
2025-07-29T00:00	16900	95	-53.9	-83.4	283	8	
2025-07-29T00:00	16950	95	-54.3	-83.5	280	8	
2025-07-29T00:00	17000	94	-54.6	-83.5	280	9	
2025-07-29T00:00	17050	93	-54.7	-83.6	282	10	
2025-07-29T00:00	17100	92	-54.9	-83.9	285	11	
2025-07-29T00:00	17150	92	-54.3	-83.9	289	11	
2025-07-29T00:00	17200	91	-53.7	-83.7	292	11	
2025-07-29T00:00	17250	90	-53.7	-83.7	295	11	
2025-07-29T00:00	17300	90	-53.2	-83.6	295	11	
2025-07-29T00:00	17350	89	-52.5	-83.3	291	10	
2025-07-29T00:00	17400	88	-52.3	-83.2	287	10	
2025-07-29T00:00	17450	88	-52.2	-83.0	288	9	
2025-07-29T00:00	17500	87	-52.1	-82.9	292	8	
2025-07-29T00:00	17550	86	-52.4	-82.9	298	8	
2025-07-29T00:00	17600	85	-52.8	-82.9	305	7	
2025-07-29T00:00	17650	85	-53.3	-83.1	314	6	
2025-07-29T00:00	17700	84	-53.6	-83.2	327	5	
2025-07-29T00:00	17750	84	-53.6	-83.3	341	4	
2025-07-29T00:00	17800	83	-53.8	-83.4	348	4	
2025-07-29T00:00	17850	82	-54.1	-83.5	345	2	
2025-07-29T00:00	17900	82	-54.2	-83.6	319	2	
2025-07-29T00:00	17950	81	-54.3	-83.8	276	2	
2025-07-29T00:00	18000	80	-54.0	-83.8	265	2	
2025-07-29T00:00	18050	80	-53.6	-83.7	269	3	
2025-07-29T00:00	18100	79	-53.8	-83.8	277	3	
2025-07-29T00:00	18150	78	-53.7	-83.7	287	2	
2025-07-29T00:00	18200	78	-53.7	-83.7	299	3	
2025-07-29T00:00	18250	77	-53.9	-83.6	309	3	
2025-07-29T00:00	18300	77	-54.1	-83.7	315	4	
2025-07-29T00:00	18350	76	-54.5	-83.8	314	4	
2025-07-29T00:00	18400	75	-54.5	-83.9	310	4	
2025-07-29T00:00	18450	75	-54.6	-83.9	302	4	
2025-07-29T00:00	18500	74	-54.9	-84.0	296	3	
2025-07-29T00:00	18550	74	-54.9	-84.0	299	4	
2025-07-29T00:00	18600	73	-55.3	-84.2	308	4	
2025-07-29T00:00	18650	73	-55.4	-84.4	323	3	
2025-07-29T00:00	18700	72	-55.0	-84.2	334	3	
2025-07-29T00:00	18750	71	-55.3	-84.3	333	3	
2025-07-29T00:00	18800	71	-55.4	-84.4	330	2	
2025-07-29T00:00	18850	70	-55.3	-84.3	335	2	
2025-07-29T00:00	18900	70	-55.5	-84.6	5	1	
2025-07-29T00:00	18950	69	-55.1	-84.8	44	2	
2025-07-29T00:00	19000	69	-53.7	-84.2	64	4	
2025-07-29T00:00	19050	68	-53.3	-83.9	75	5	
2025-07-29T00:00	19100	68	-53.7	-83.9	82	5	
2025-07-29T00:00	19150	67	-54.1	-83.8	87	5	
2025-07-29T00:00	19200	67	-54.6	-83.8	93	5	
2025-07-29T00:00	19250	66	-55.0	-83.9	102	5	
2025-07-29T00:00	19300	66	-55.4	-84.2	112	5	
2025-07-29T00:00	19350	65	-55.5	-84.3	120	6	
2025-07-29T00:00	19400	65	-55.5	-84.4	126	7	
2025-07-29T00:00	19450	64	-55.7	-84.5	129	6	
2025-07-29T00:00	19500	64	-55.8	-84.6	126	5	
2025-07-29T00:00	19550	63	-55.7	-84.6	112	3	
2025-07-29T00:00	19600	63	-55.7	-84.7	84	3	
2025-07-29T00:00	19650	62	-55.4	-84.6	65	4	
2025-07-29T00:00	19700	62	-55.5	-84.6	58	4	
2025-07-29T00:00	19750	61	-55.5	-84.6	58	4	
2025-07-29T00:00	19800	61	-55.5	-84.6	64	4	
2025-07-29T00:00	19850	60	-55.7	-84.6	75	4	
2025-07-29T00:00	19900	60	-55.8	-84.6	89	3	
2025-07-29T00:00	19950	59	-55.8	-84.7	104	3	
2025-07-29T00:00	20000	59	-55.9	-84.7	114	3	
2025-07-29T00:00	20050	58	-55.9		119	2	
2025-07-29T00:00	20100	58	-55.7		124	2	
2025-07-29T00:00	20150	57	-55.7		126	2	
2025-07-29T00:00	20200	57	-55.4		117	2	
2025-07-29T00:00	20250	56	-55.3		106	3	
2025-07-29T00:00	20300	56	-55.2		96	3	
2025-07-29T00:00	20350	56	-55.6		82	3	
2025-07-29T00:00	20400	55	-55.7		69	4	
2025-07-29T00:00	20450	55	-55.7		62	5	
2025-07-29T00:00	20500	54	-55.5		61	6	
2025-07-29T00:00	20550	54	-55.5		64	7	
2025-07-29T00:00	20600	53	-55.3		69	8	
2025-07-29T00:00	20650	53	-55.1		76	9	
2025-07-29T00:00	20700	53	-55.2		81	8	
2025-07-29T00:00	20750	52	-55.4		90	7	
2025-07-29T00:00	20800	52	-55.6		99	7	
2025-07-29T00:00	20850	51	-55.4		106	7	
2025-07-29T00:00	20900	51	-55.2		107	6	
2025-07-29T00:00	20950	51	-55.1		101	5	
2025-07-29T00:00	21000	50	-54.1		87	4	
2025-07-29T00:00	21050	50	-53.9		71	4	
2025-07-29T00:00	21100	49	-53.9		60	5	
2025-07-29T00:00	21150	49	-53.2		57	6	
2025-07-29T00:00	21200	49	-53.0		60	7	
2025-07-29T00:00	21250	48	-53.0		65	8	
2025-07-29T00:00	21300	48	-53.1		68	9	
2025-07-29T00:00	21350	48	-53.2		71	9	
2025-07-29T00:00	21400	47	-53.3		75	9	
2025-07-29T00:00	21450	47	-53.5		80	9	
2025-07-29T00:00	21500	46	-53.8		85	9	
2025-07-29T00:00	21550	46	-54.0		89	8	
2025-07-29T00:00	21600	46	-54.2		90	8	
2025-07-29T00:00	21650	45	-54.4		85	8	
2025-07-29T00:00	21700	45	-54.3		79	8	
2025-07-29T00:00	21750	45	-54.2		77	8	
2025-07-29T00:00	21800	44	-54.1		81	7	
2025-07-29T00:00	21850	44	-54.1		87	6	
2025-07-29T00:00	21900	44	-54.1		93	6	
2025-07-29T00:00	21950	43	-54.1		101	5	
2025-07-29T00:00	22000	43	-54.0		109	5	
2025-07-29T00:00	22050	43	-54.1		115	4	
2025-07-29T00:00	22100	42	-54.1		117	4	
2025-07-29T00:00	22150	42	-53.9		110	3	
2025-07-29T00:00	22200	42	-53.7		87	3	
2025-07-29T00:00	22250	41	-53.5		66	4	
2025-07-29T00:00	22300	41	-53.4		59	4	
2025-07-29T00:00	22350	41	-53.3		59	4	
2025-07-29T00:00	22400	40	-53.1		57	5	
2025-07-29T00:00	22450	40	-52.4		52	5	
2025-07-29T00:00	22500	40	-52.4		49	6	
2025-07-29T00:00	22550	39	-52.5		51	6	
2025-07-29T00:00	22600	39	-52.5		58	7	
2025-07-29T00:00	22650	39	-52.5		64	7	
2025-07-29T00:00	22700	39	-52.4		65	8	
2025-07-29T00:00	22750	38	-52.5		65	9	
2025-07-29T00:00	22800	38	-52.7		63	10	
2025-07-29T00:00	22850	38	-52.6		62	10	
2025-07-29T00:00	22900	37	-52.4		62	10	
2025-07-29T00:00	22950	37	-52.4		62	10	
2025-07-29T00:00	23000	37	-52.4		63	11	
2025-07-29T00:00	23050	37	-52.7		62	11	
2025-07-29T00:00	23100	36	-52.8		64	12	
2025-07-29T00:00	23150	36	-52.3		69	13	
2025-07-29T00:00	23200	36	-52.0		73	14	
2025-07-29T00:00	23250	35	-51.7		77	15	
2025-07-29T00:00	23300	35	-51.6		80	15	
2025-07-29T00:00	23350	35	-51.3		81	15	
2025-07-29T00:00	23400	35	-51.1		83	15	
2025-07-29T00:00	23450	34	-51.3		86	15	
2025-07-29T00:00	23500	34	-51.3		90	15	
2025-07-29T00:00	23550	34	-51.4		95	15	
2025-07-29T00:00	23600	34	-51.4		98	15	
2025-07-29T00:00	23650	33	-51.5		101	14	
2025-07-29T00:00	23700	33	-51.5		103	13	
2025-07-29T00:00	23750	33	-51.4		106	13	
2025-07-29T00:00	23800	33	-51.1		111	12	
2025-07-29T00:00	23850	32	-51.0		115	12	
2025-07-29T00:00	23900	32	-50.8		117	11	
2025-07-29T00:00	23950	32	-50.5		117	10	
2025-07-29T00:00	24000	32	-50.6		116	10	
2025-07-29T00:00	24050	31	-50.5		115	9	
2025-07-29T00:00	24100	31	-50.5		112	9	
2025-07-29T00:00	24150	31	-50.6		106	9	
2025-07-29T00:00	24200	31	-50.2		98	9	
2025-07-29T00:00	24250	30	-50.1		93	9	
2025-07-29T00:00	24300	30	-49.9		95	10	
2025-07-29T00:00	24350	30	-49.8		101	10	
2025-07-29T00:00	24400	30	-49.9		109	10	
2025-07-29T00:00	24450	29	-50.3		115	9	
2025-07-29T00:00	24500	29	-50.5		119	9	
2025-07-29T00:00	24550	29	-50.7		117	8	
2025-07-29T00:00	24600	29	-50.4		111	7	
2025-07-29T00:00	24650	29	-50.3		103	7	
2025-07-29T00:00	24700	28	-50.0		98	6	
2025-07-29T00:00	24750	28	-49.9		97	6	
2025-07-29T00:00	24800	28	-49.5		97	6	
2025-07-29T00:00	24850	28	-49.4		92	6	
2025-07-29T00:00	24900	27	-49.4		84	6	
2025-07-29T00:00	24950	27	-49.3		77	8	
2025-07-29T00:00	25000	27	-49.2		73	9	
2025-07-29T00:00	25050	27	-49.2		72	11	
2025-07-29T00:00	25100	27	-49.2		73	12	
2025-07-29T00:00	25150	26	-49.1		77	13	
2025-07-29T00:00	25200	26	-49.2		82	13	
2025-07-29T00:00	25250	26	-49.1		89	11	
2025-07-29T00:00	25300	26	-49.0		99	10	
2025-07-29T00:00	25350	26	-49.0		107	9	
2025-07-29T00:00	25400	25	-48.9		109	9	
2025-07-29T00:00	25450	25	-48.7		105	9	
2025-07-29T00:00	25500	25	-48.5		102	9	
2025-07-29T00:00	25550	25	-48.5		106	9	
2025-07-29T00:00	25600	25	-48.4		113	9	
2025-07-29T00:00	25650	24	-48.5		122	9	
2025-07-29T00:00	25700	24	-48.8		124	9	
2025-07-29T00:00	25750	24	-48.9		117	8	
2025-07-29T00:00	25800	24	-48.5		104	7	
2025-07-29T00:00	25850	24	-48.2		95	8	
2025-07-29T00:00	25900	24	-47.8		92	8	
2025-07-29T00:00	25950	23	-47.4		94	9	
2025-07-29T00:00	26000	23	-46.9		100	9	
2025-07-29T00:00	26050	23	-46.9		104	9	
2025-07-29T00:00	26100	23	-47.0		104	8	
2025-07-29T00:00	26150	23	-47.0		100	7	
2025-07-29T00:00	26200	23	-47.1		98	7	
2025-07-29T00:00	26250	22	-47.0		100	6	
2025-07-29T00:00	26300	22	-47.3		103	5	
2025-07-29T00:00	26350	22	-47.6		98	5	
2025-07-29T00:00	26400	22	-47.7		85	6	
2025-07-29T00:00	26450	22	-47.5		78	7	
2025-07-29T00:00	26500	22	-47.4		77	9	
2025-07-29T00:00	26550	21	-47.2		78	10	
2025-07-29T00:00	26600	21	-47.4		81	12	
2025-07-29T00:00	26650	21	-47.6		85	12	
2025-07-29T00:00	26700	21	-47.8		90	12	
2025-07-29T00:00	26750	21	-47.8		94	12	
2025-07-29T00:00	26800	21	-47.9		96	10	
2025-07-29T00:00	26850	20	-48.0		97	9	
2025-07-29T00:00	26900	20	-47.7		98	7	
2025-07-29T00:00	26950	20	-47.4		101	5	
2025-07-29T00:00	27000	20	-47.0		105	4	
2025-07-29T00:00	27050	20	-47.0		96	3	
2025-07-29T00:00	27100	20	-46.9		65	3	
2025-07-29T00:00	27150	20	-46.1		49	5	
2025-07-29T00:00	27200	19	-45.4		49	8	
2025-07-29T00:00	27250	19	-44.9		53	10	
2025-07-29T00:00	27300	19	-44.8		59	12	
2025-07-29T00:00	27350	19	-44.8		64	13	
2025-07-29T00:00	27400	19	-44.9		68	14	
2025-07-29T00:00	27450	19	-44.8		71	15	
2025-07-29T00:00	27500	19	-44.8		76	16	
2025-07-29T00:00	27550	18	-44.7		80	18	
2025-07-29T00:00	27600	18	-44.8		83	19	
2025-07-29T00:00	27650	18	-45.0		85	19	
2025-07-29T00:00	27700	18	-45.2		88	19	
2025-07-29T00:00	27750	18	-45.1		92	19	
2025-07-29T00:00	27800	18	-45.1		95	19	
2025-07-29T00:00	27850	18	-45.1		98	19	
2025-07-29T00:00	27900	17	-45.3		101	19	
2025-07-29T00:00	27950	17	-45.5		103	19	
2025-07-29T00:00	28000	17	-45.5		104	18	
2025-07-29T00:00	28050	17	-45.5		105	16	
2025-07-29T00:00	28100	17	-45.5		104	15	
2025-07-29T00:00	28150	17	-45.2		102	14	
2025-07-29T00:00	28200	17	-44.9		100	14	
2025-07-29T00:00	28250	17	-44.7		100	14	
2025-07-29T00:00	28300	16	-44.7		101	13	
2025-07-29T00:00	28350	16	-44.7		101	12	
2025-07-29T00:00	28400	16	-44.8		99	11	
2025-07-29T00:00	28450	16	-44.8		94	11	
2025-07-29T00:00	28500	16	-44.7		86	10	
2025-07-29T00:00	28550	16	-44.5		78	11	
2025-07-29T00:00	28600	16	-44.2		73	11	
2025-07-29T00:00	28650	16	-44.0		73	13	
2025-07-29T00:00	28700	15	-43.8		76	14	
2025-07-29T00:00	28750	15	-43.6		81	16	
2025-07-29T00:00	28800	15	-43.4		86	17	
2025-07-29T00:00	28850	15	-43.6		91	17	
2025-07-29T00:00	28900	15	-43.6		96	17	
2025-07-29T00:00	28950	15	-43.7		99	16	
2025-07-29T00:00	29000	15	-43.5		99	15	
2025-07-29T00:00	29050	15	-43.1		98	14	
2025-07-29T00:00	29100	15	-42.7		96	13	
2025-07-29T00:00	29150	14	-42.4		93	13	
2025-07-29T00:00	29200	14	-41.8		89	13	
2025-07-29T00:00	29250	14	-41.7		87	13	
2025-07-29T00:00	29300	14	-41.8		86	13	
2025-07-29T00:00	29350	14	-41.9		85	13	
2025-07-29T00:00	29400	14	-41.9		84	14	
2025-07-29T00:00	29450	14	-42.0		85	14	
2025-07-29T00:00	29500	14	-41.9		87	15	
2025-07-29T00:00	29550	14	-41.8		90	15	
2025-07-29T00:00	29600	14	-41.8		92	15	
2025-07-29T00:00	29650	13	-41.8		96	15	
2025-07-29T00:00	29700	13	-41.6		99	15	
2025-07-29T00:00	29750	13	-41.4		101	15	
2025-07-29T00:00	29800	13	-41.2		103	16	
2025-07-29T00:00	29850	13	-41.0		104	16	
2025-07-29T00:00	29900	13	-41.1		105	15	
2025-07-29T00:00	29950	13	-41.2		105	15	
2025-07-29T00:00	30000	13	-41.3		105	14	
2025-07-29T00:00	30050	13	-41.2		104	14	
2025-07-29T00:00	30100	13	-41.1		104	14	
2025-07-29T00:00	30150	12	-41.2		102	15	
2025-07-29T00:00	30200	12	-41.2		101	15	
2025-07-29T00:00	30250	12	-41.4		99	16	
2025-07-29T00:00	30300	12	-41.5		97	16	
2025-07-29T00:00	30350	12	-41.5		96	15	
2025-07-29T00:00	30400	12	-41.4		95	15	
2025-07-29T00:00	30450	12	-41.2		95	16	
2025-07-29T00:00	30500	12	-41.2		96	16	
2025-07-29T00:00	30550	12	-41.2		97	16	
2025-07-29T00:00	30600	12	-41.1		98	15	
2025-07-29T00:00	30650	12	-41.1		97	14	
2025-07-29T00:00	30700	12	-41.1		97	14	
2025-07-29T00:00	30750	11	-41.0		97	13	
2025-07-29T00:00	30800	11	-40.6		99	12	
2025-07-29T00:00	30850	11	-40.5		101	11	
2025-07-29T00:00	30900	11	-40.4		103	10	
2025-07-29T00:00	30950	11	-40.4		104	9	
2025-07-29T00:00	31000	11	-40.4		102	9	
2025-07-29T00:00	31050	11	-40.5		97	10	
2025-07-29T00:00	31100	11	-40.6		93	11	
2025-07-29T00:00	31150	11	-40.8		90	13	
2025-07-29T00:00	31200	11	-41.0		89	15	
2025-07-29T00:00	31250	11	-41.1		89	17	
2025-07-29T00:00	31300	11	-41.1		91	18	
2025-07-29T00:00	31350	10	-41.3		93	18	
2025-07-29T00:00	31400	10	-41.4		95	18	
2025-07-29T00:00	31450	10	-41.4		99	18	
2025-07-29T00:00	31500	10	-41.4		102	18	
2025-07-29T00:00	31550	10	-41.3		104	17	
2025-07-29T00:00	31600	10	-41.3		103	16	
2025-07-29T00:00	31650	10	-41.5		102	16	
2025-07-29T00:00	31700	10	-41.6		101	15	
2025-07-29T00:00	31750	10	-41.6		101	14	
2025-07-29T00:00	31800	10	-41.6		101	14	
2025-07-29T00:00	31850	10	-41.8		100	13	
2025-07-29T00:00	31900	10	-41.8		97	13	
2025-07-29T00:00	31950	10	-41.6		94	13	
2025-07-29T00:00	32000	10	-41.4		92	13	
2025-07-29T00:00	32050	9	-41.2		91	13	
2025-07-29T00:00	32100	9	-41.0		91	13	
2025-07-29T00:00	32150	9	-40.8		88	13	
2025-07-29T00:00	32200	9	-40.4		83	13	
2025-07-29T00:00	32250	9	-40.4		78	12	
2025-07-29T00:00	32300	9	-40.4		74	13	
2025-07-29T00:00	32350	9	-40.1		75	14	
2025-07-29T00:00	32400	9	-39.9		78	15	
2025-07-29T00:00	32450	9	-39.7		82	16	
2025-07-29T00:00	32500	9	-39.4		84	16	
2025-07-29T00:00	32550	9	-39.2		84	15	
2025-07-29T00:00	32600	9	-39.1		83	14	
2025-07-29T00:00	32650	9	-39.0		84	14	
2025-07-29T00:00	32700	9	-38.9		87	14	
2025-07-29T00:00	32750	9	-38.7		87	15	
2025-07-29T00:00	32800	8	-38.4		84	16	
2025-07-29T00:00	32850	8	-37.9		82	16	
2025-07-29T00:00	32900	8	-37.4		85	16	
2025-07-29T00:00	32950	8	-37.4		90	16	
2025-07-29T00:00	33000	8	-37.3		94	15	
2025-07-29T00:00	33050	8	-37.2		92	15	
2025-07-29T00:00	33100	8	-36.8		86	14	
2025-07-29T00:00	33150	8	-36.3		80	14	
2025-07-29T00:00	33200	8	-36.0		76	14	
2025-07-29T00:00	33250	8	-35.9		73	14	
2025-07-29T00:00	33300	8	-35.7		69	15	
2025-07-29T00:00	33350	8	-35.7		67	17	
2025-07-29T00:00	33400	8	-35.6		68	18	
2025-07-29T00:00	33450	8	-35.5		71	19	
2025-07-29T00:00	33500	8	-35.3		75	20	
2025-07-29T00:00	33550	8	-35.1		80	21	
2025-07-29T00:00	33600	8	-35.2		83	21	
2025-07-29T00:00	33650	7	-35.3		85	21	
2025-07-29T00:00	33700	7	-35.5		83	21	
2025-07-29T00:00	33750	7	-35.3		79	21	
2025-07-29T00:00	33800	7	-35.2		75	22	
2025-07-29T00:00	33850	7	-35.2		73	22	
2025-07-29T00:00	33900	7	-35.1		73	22	
2025-07-29T00:00	33950	7	-34.7		76	21	
2025-07-29T00:00	34000	7	-34.6		78	21	
2025-07-29T00:00	34050	7	-34.6		79	21	
2025-07-29T00:00	34100	7	-34.5		79	22	
2025-07-29T00:00	34150	7	-34.2		79	22	
2025-07-29T00:00	34200	7	-34.1		80	22	
2025-07-29T00:00	34250	7	-33.9		82	21	
2025-07-29T00:00	34300	7	-34.0		83	20	
2025-07-29T00:00	34350	7	-34.0		81	20	
2025-07-29T00:00	34400	7	-33.6		78	20	
2025-07-29T00:00	34450	7	-33.0		75	20	
2025-07-29T00:00	34500	7	-32.6		73	22	
2025-07-29T00:00	34550	7	-32.3		73	23	
2025-07-29T00:00	34600	7	-32.1		74	25	
2025-07-29T00:00	34650	6	-32.0		74	26	
2025-07-29T00:00	34700	6	-31.9		76	26	
2025-07-29T00:00	34750	6	-31.8		78	25	
2025-07-29T00:00	34800	6	-32.0		80	23	
2025-07-29T00:00	34850	6	-32.0		82	22	
2025-07-29T00:00	34900	6	-31.6		82	21	
2025-07-29T00:00	34950	6	-31.0		80	22	
2025-07-29T00:00	35000	6	-30.7		80	22	
2025-07-29T00:00	35050	6	-30.5		80	23	
2025-07-29T00:00	35100	6	-30.3		83	24	
2025-07-29T00:00	35150	6	-30.3		87	25	
2025-07-29T00:00	35200	6	-30.2		91	25	
2025-07-29T00:00	35250	6	-29.9		93	25	
2025-07-29T00:00	35300	6	-30.1		95	24	
2025-07-29T00:00	35350	6	-30.0		93	24	
2025-07-29T00:00	35400	6	-29.8		90	24	
2025-07-29T00:00	35450	6	-29.9		87	23	
2025-07-29T00:00	35500	6	-29.9		84	23	
2025-07-29T00:00	35550	6	-29.9		83	23	
2025-07-29T00:00	35600	6	-29.8		84	23	
2025-07-29T00:00	35650	6	-29.7		86	23	
2025-07-29T00:00	35700	6	-29.6		89	23	
2025-07-29T00:00	35750	6	-29.4		90	23	
2025-07-29T00:00	35800	6	-29.0		90	24	
2025-07-29T00:00	35850	5	-28.7		90	25	
2025-07-29T00:00	35900	5	-28.7		90	25	
2025-07-29T00:00	35950	5	-28.9		90	25	
2025-07-29T00:00	36000	5	-29.2		91	24	
2025-07-29T00:00	36050	5	-29.3		92	24	
2025-07-29T00:00	36100	5	-29.1		90	25	
2025-07-29T00:00	36150	5	-28.8		87	25	
2025-07-29T00:00	36200	5	-28.4		84	26	
2025-07-29T00:00	36250	5	-28.2		83	26	
2025-07-29T00:00	36300	5	-27.7		83	25	
2025-07-29T00:00	36350	5	-27.3		85	24	
2025-07-29T00:00	36400	5	-27.1		85	22	
2025-07-29T00:00	36450	5	-26.5		85	21	
2025-07-29T00:00	36500	5	-26.2		85	21	
2025-07-29T00:00	36550	5	-26.0		85	21	
2025-07-29T00:00	36600	5	-25.6		84	21	
2025-07-29T00:00	36650	5	-25.3		82	21	
2025-07-29T00:00	36700	5	-25.2		81	22	
2025-07-29T00:00	36750	5	-25.2		79	22	
2025-07-29T00:00	36800	5	-25.2		78	23	
2025-07-29T00:00	36850	5	-25.0		78	24	
2025-07-29T00:00	36900	5	-24.8		78	25	
2025-07-29T00:00	36950	5	-24.6		80	26	
2025-07-29T00:00	37000	5	-24.6		81	27	
2025-07-29T00:00	37050	5	-24.6		82	27	
2025-07-29T00:00	37100	5	-24.8		82	27	
2025-07-29T00:00	37150	5	-24.8		83	27	
2025-07-29T00:00	37200	5	-25.0		84	27	
2025-07-29T00:00	37250	5	-25.2		87	28	
2025-07-29T00:00	37300	4	-25.3		89	29	
2025-07-29T12:00	491	962	19.5	8.5	61	1	
2025-07-29T12:00	501	961	18.9	9.0	62	1	
2025-07-29T12:00	520	959	18.3	8.4	62	1	
2025-07-29T12:00	540	957	18.1	8.2	61	1	
2025-07-29T12:00	560	955	18.0	8.1	60	1	
2025-07-29T12:00	580	952	17.8	8.2	59	1	
2025-07-29T12:00	600	950	17.7	8.2	58	1	
2025-07-29T12:00	620	948	17.5	8.2	57	1	
2025-07-29T12:00	640	946	17.4	8.3	55	2	
2025-07-29T12:00	660	944	17.2	8.2	54	2	
2025-07-29T12:00	680	941	16.9	8.0	53	2	
2025-07-29T12:00	700	939	16.6	7.9	51	2	
2025-07-29T12:00	720	937	16.4	7.9	50	2	
2025-07-29T12:00	740	935	16.2	7.9	49	2	
2025-07-29T12:00	760	933	16.0	7.8	49	2	
2025-07-29T12:00	780	931	15.8	7.8	48	2	
2025-07-29T12:00	800	928	15.6	7.6	47	3	
2025-07-29T12:00	820	926	15.4	7.3	47	3	
2025-07-29T12:00	840	924	15.2	7.4	48	3	
2025-07-29T12:00	860	922	15.1	7.4	48	3	
2025-07-29T12:00	880	919	14.8	7.4	48	3	
2025-07-29T12:00	900	917	14.6	7.4	47	3	
2025-07-29T12:00	920	915	14.4	7.3	46	3	
2025-07-29T12:00	940	913	14.2	7.3	43	3	
2025-07-29T12:00	960	911	14.1	7.2	39	3	
2025-07-29T12:00	980	909	13.9	7.1	35	3	
2025-07-29T12:00	1000	906	13.7	7.2	30	3	
2025-07-29T12:00	1020	904	13.5	7.2	25	3	
2025-07-29T12:00	1040	902	13.3	7.2	20	3	
2025-07-29T12:00	1060	900	13.1	7.1	16	4	
2025-07-29T12:00	1080	898	12.9	7.2	10	4	
2025-07-29T12:00	1100	896	12.7	7.2	7	4	
2025-07-29T12:00	1120	894	12.5	7.3	5	4	
2025-07-29T12:00	1140	892	12.3	7.2	5	4	
2025-07-29T12:00	1160	889	12.1	7.2	6	3	
2025-07-29T12:00	1180	887	12.0	7.1	8	3	
2025-07-29T12:00	1200	885	11.8	7.2	12	3	
2025-07-29T12:00	1220	883	11.6	6.9	14	3	
2025-07-29T12:00	1240	881	11.4	6.9	16	3	
2025-07-29T12:00	1260	879	11.3	6.6	16	3	
2025-07-29T12:00	1280	877	11.1	6.3	15	3	
2025-07-29T12:00	1300	875	10.9	6.5	13	3	
2025-07-29T12:00	1320	872	10.7	6.7	12	3	
2025-07-29T12:00	1340	870	10.5	6.7	10	3	
2025-07-29T12:00	1360	868	10.3	6.4	9	3	
2025-07-29T12:00	1380	866	10.2	6.0	9	2	
2025-07-29T12:00	1400	864	10.2	4.3	10	2	
2025-07-29T12:00	1420	862	10.3	3.0	12	2	
2025-07-29T12:00	1440	860	10.2	2.3	16	2	
2025-07-29T12:00	1460	858	10.1	2.2	18	2	
2025-07-29T12:00	1480	856	9.9	2.2	19	2	
2025-07-29T12:00	1500	854	9.7	2.1	18	2	
2025-07-29T12:00	1520	852	9.5	2.0	18	2	
2025-07-29T12:00	1540	850	9.3	2.0	19	2	
2025-07-29T12:00	1560	848	9.1	2.0	21	2	
2025-07-29T12:00	1580	846	8.9	2.0	23	2	
2025-07-29T12:00	1600	844	8.7	1.9	26	2	
2025-07-29T12:00	1620	841	8.5	1.8	27	2	
2025-07-29T12:00	1640	839	8.4	1.8	29	2	
2025-07-29T12:00	1660	838	8.2	1.7	31	2	
2025-07-29T12:00	1680	836	8.0	1.6	35	2	
2025-07-29T12:00	1700	834	7.9	1.4	41	2	
2025-07-29T12:00	1720	832	7.8	1.4	47	2	
2025-07-29T12:00	1740	829	7.6	1.4	52	2	
2025-07-29T12:00	1760	827	7.4	1.3	55	3	
2025-07-29T12:00	1780	825	7.2	1.1	58	3	
2025-07-29T12:00	1800	824	7.1	1.2	61	3	
2025-07-29T12:00	1820	821	6.9	1.1	62	3	
2025-07-29T12:00	1840	819	6.7	1.1	62	3	
2025-07-29T12:00	1860	818	6.5	1.1	60	3	
2025-07-29T12:00	1880	816	6.3	1.0	56	3	
2025-07-29T12:00	1900	813	6.1	1.1	51	3	
2025-07-29T12:00	1920	811	5.9	1.1	45	3	
2025-07-29T12:00	1940	810	5.7	1.0	40	3	
2025-07-29T12:00	1960	808	5.5	1.2	38	3	
2025-07-29T12:00	1980	806	5.4	1.3	37	3	
2025-07-29T12:00	2000	804	5.3	1.2	39	3	
2025-07-29T12:00	2020	802	5.2	1.0	42	3	
2025-07-29T12:00	2040	800	5.1	0.9	44	3	
2025-07-29T12:00	2060	798	5.0	1.0	47	4	
2025-07-29T12:00	2080	796	4.8	0.9	50	4	
2025-07-29T12:00	2100	794	4.6	0.9	52	4	
2025-07-29T12:00	2120	792	4.4	0.8	55	5	
2025-07-29T12:00	2140	790	4.2	0.6	57	5	
2025-07-29T12:00	2160	788	4.1	0.6	57	5	
2025-07-29T12:00	2180	786	3.9	0.5	57	5	
2025-07-29T12:00	2200	784	3.7	0.5	55	5	
2025-07-29T12:00	2220	782	3.5	0.4	53	5	
2025-07-29T12:00	2240	780	3.4	0.3	51	4	
2025-07-29T12:00	2260	778	3.2	0.4	49	4	
2025-07-29T12:00	2280	776	3.0	0.5	47	5	
2025-07-29T12:00	2300	775	2.8	0.5	45	5	
2025-07-29T12:00	2320	773	2.6	0.7	44	5	
2025-07-29T12:00	2340	771	2.5	0.7	44	5	
2025-07-29T12:00	2360	769	2.3	0.6	44	4	
2025-07-29T12:00	2380	767	2.2	0.2	44	4	
2025-07-29T12:00	2400	765	2.2	-0.2	43	4	
2025-07-29T12:00	2420	763	2.1	-0.2	42	5	
2025-07-29T12:00	2440	761	1.9	-0.4	40	5	
2025-07-29T12:00	2460	759	1.8	-0.7	39	5	
2025-07-29T12:00	2480	758	1.7	-0.9	37	5	
2025-07-29T12:00	2500	756	1.6	-1.0	34	6	
2025-07-29T12:00	2520	754	1.4	-1.0	30	6	
2025-07-29T12:00	2540	752	1.2	-1.1	28	5	
2025-07-29T12:00	2560	750	1.0	-1.0	26	5	
2025-07-29T12:00	2580	748	0.8	-1.1	26	5	
2025-07-29T12:00	2600	746	0.7	-1.4	27	5	
2025-07-29T12:00	2620	744	0.5	-1.3	29	5	
2025-07-29T12:00	2640	743	0.3	-1.3	30	4	
2025-07-29T12:00	2660	741	0.1	-1.8	31	4	
2025-07-29T12:00	2680	739	0.0	-2.4	33	4	
2025-07-29T12:00	2700	737	-0.1	-2.4	35	4	
2025-07-29T12:00	2720	735	-0.2	-2.4	37	3	
2025-07-29T12:00	2740	734	-0.4	-2.8	39	3	
2025-07-29T12:00	2760	732	-0.4	-3.3	42	3	
2025-07-29T12:00	2780	730	-0.5	-3.1	45	3	
2025-07-29T12:00	2800	728	-0.7	-3.1	48	3	
2025-07-29T12:00	2820	726	-0.8	-3.4	50	3	
2025-07-29T12:00	2840	724	-0.9	-4.2	50	3	
2025-07-29T12:00	2860	723	-1.1	-4.7	50	3	
2025-07-29T12:00	2880	721	-1.2	-5.0	47	3	
2025-07-29T12:00	2900	719	-1.4	-5.4	42	2	
2025-07-29T12:00	2920	717	-1.5	-5.4	35	2	
2025-07-29T12:00	2940	715	-1.7	-5.5	26	2	
2025-07-29T12:00	2960	713	-1.8	-5.0	20	2	
2025-07-29T12:00	2980	712	-1.9	-4.9	16	3	
2025-07-29T12:00	3000	710	-2.1	-5.0	13	3	
2025-07-29T12:00	3020	708	-2.3	-5.1	9	3	
2025-07-29T12:00	3040	706	-2.5	-5.1	5	3	
2025-07-29T12:00	3060	704	-2.7	-5.0	1	3	
2025-07-29T12:00	3080	703	-2.9	-5.1	356	3	
2025-07-29T12:00	3100	701	-3.1	-5.1	351	4	
2025-07-29T12:00	3120	699	-3.3	-5.1	345	4	
2025-07-29T12:00	3140	697	-3.4	-5.0	342	4	
2025-07-29T12:00	3160	696	-3.6	-4.9	339	4	
2025-07-29T12:00	3180	694	-3.8	-4.7	338	4	
2025-07-29T12:00	3200	692	-4.0	-4.7	337	4	
2025-07-29T12:00	3220	690	-4.2	-4.7	336	4	
2025-07-29T12:00	3240	689	-4.3	-4.9	336	3	
2025-07-29T12:00	3260	687	-4.3	-4.8	335	3	
2025-07-29T12:00	3280	685	-4.5	-5.0	332	3	
2025-07-29T12:00	3300	684	-4.6	-5.2	329	3	
2025-07-29T12:00	3320	682	-4.7	-5.5	326	3	
2025-07-29T12:00	3340	680	-4.8	-5.7	322	3	
2025-07-29T12:00	3360	678	-4.7	-6.0	319	4	
2025-07-29T12:00	3380	677	-4.7	-6.5	315	4	
2025-07-29T12:00	3400	675	-4.8	-6.9	312	4	
2025-07-29T12:00	3420	673	-4.7	-8.1	308	4	
2025-07-29T12:00	3440	671	-4.7	-8.6	304	4	
2025-07-29T12:00	3460	670	-4.8	-8.8	305	3	
2025-07-29T12:00	3480	668	-4.9	-8.6	312	3	
2025-07-29T12:00	3500	666	-5.1	-8.9	326	2	
2025-07-29T12:00	3520	665	-5.0	-10.0	346	3	
2025-07-29T12:00	3540	663	-4.9	-11.6	358	3	
2025-07-29T12:00	3560	661	-4.2	-16.0	4	3	
2025-07-29T12:00	3580	660	-3.3	-19.6	7	4	
2025-07-29T12:00	3600	658	-3.0	-19.8	8	4	
2025-07-29T12:00	3620	656	-3.0	-20.7	8	4	
2025-07-29T12:00	3640	655	-3.0	-22.0	6	5	
2025-07-29T12:00	3660	653	-3.0	-22.8	4	5	
2025-07-29T12:00	3680	651	-3.0	-24.5	360	5	
2025-07-29T12:00	3700	650	-2.9	-26.4	355	5	
2025-07-29T12:00	3720	648	-2.9	-27.6	352	5	
2025-07-29T12:00	3740	646	-2.9	-28.3	350	5	
2025-07-29T12:00	3760	645	-2.9	-29.9	348	5	
2025-07-29T12:00	3780	643	-3.0	-29.2	346	5	
2025-07-29T12:00	3800	641	-3.1	-27.1	345	5	
2025-07-29T12:00	3820	640	-3.2	-27.2	345	4	
2025-07-29T12:00	3840	638	-3.3	-27.3	344	4	
2025-07-29T12:00	3860	637	-3.4	-27.4	343	4	
2025-07-29T12:00	3880	635	-3.6	-27.1	341	3	
2025-07-29T12:00	3900	633	-3.7	-27.1	340	3	
2025-07-29T12:00	3920	632	-3.8	-27.8	338	3	
2025-07-29T12:00	3940	630	-3.9	-28.1	335	3	
2025-07-29T12:00	3960	629	-4.0	-28.2	334	3	
2025-07-29T12:00	3980	627	-4.2	-28.2	333	3	
2025-07-29T12:00	4000	625	-4.3	-28.4	332	4	
2025-07-29T12:00	4020	624	-4.4	-28.6	332	4	
2025-07-29T12:00	4040	622	-4.5	-28.8	332	4	
2025-07-29T12:00	4060	621	-4.7	-29.0	331	4	
2025-07-29T12:00	4080	619	-4.8	-29.3	331	4	
2025-07-29T12:00	4100	618	-5.0	-29.3	331	4	
2025-07-29T12:00	4120	616	-5.1	-29.4	331	4	
2025-07-29T12:00	4140	614	-5.3	-29.5	331	4	
2025-07-29T12:00	4160	613	-5.5	-29.6	332	4	
2025-07-29T12:00	4180	611	-5.6	-29.7	332	4	
2025-07-29T12:00	4200	610	-5.7	-29.9	333	4	
2025-07-29T12:00	4220	608	-5.8	-30.1	334	5	
2025-07-29T12:00	4240	607	-6.0	-30.3	335	5	
2025-07-29T12:00	4260	605	-6.2	-30.4	336	5	
2025-07-29T12:00	4280	603	-6.3	-30.7	338	5	
2025-07-29T12:00	4300	602	-6.5	-31.3	340	6	
2025-07-29T12:00	4320	600	-6.6	-31.7	341	6	
2025-07-29T12:00	4340	599	-6.7	-31.4	342	6	
2025-07-29T12:00	4360	597	-6.8	-31.3	342	6	
2025-07-29T12:00	4380	596	-6.9	-31.4	342	6	
2025-07-29T12:00	4400	594	-7.0	-31.4	341	6	
2025-07-29T12:00	4420	593	-7.2	-31.1	340	6	
2025-07-29T12:00	4440	591	-7.3	-30.6	340	6	
2025-07-29T12:00	4460	590	-7.4	-29.8	339	6	
2025-07-29T12:00	4480	588	-7.5	-28.8	338	6	
2025-07-29T12:00	4500	587	-7.6	-28.4	338	7	
2025-07-29T12:00	4520	585	-7.7	-28.4	339	7	
2025-07-29T12:00	4540	584	-7.8	-28.4	339	7	
2025-07-29T12:00	4560	582	-7.9	-28.7	341	7	
2025-07-29T12:00	4580	581	-7.9	-28.9	343	8	
2025-07-29T12:00	4600	579	-8.1	-29.2	347	8	
2025-07-29T12:00	4620	578	-8.1	-29.9	349	8	
2025-07-29T12:00	4640	576	-8.1	-30.6	352	9	
2025-07-29T12:00	4660	575	-8.2	-30.9	353	9	
2025-07-29T12:00	4680	573	-8.3	-31.0	353	9	
2025-07-29T12:00	4700	572	-8.5	-31.4	352	9	
2025-07-29T12:00	4720	570	-8.5	-34.1	348	9	
2025-07-29T12:00	4740	569	-8.4	-34.7	344	9	
2025-07-29T12:00	4760	567	-8.4	-35.7	340	9	
2025-07-29T12:00	4780	566	-8.4	-36.7	338	9	
2025-07-29T12:00	4800	564	-8.4	-37.1	338	9	
2025-07-29T12:00	4820	563	-8.4	-37.9	337	9	
2025-07-29T12:00	4840	562	-8.5	-39.4	337	10	
2025-07-29T12:00	4860	560	-8.6	-39.5	337	10	
2025-07-29T12:00	4880	559	-8.7	-39.3	337	11	
2025-07-29T12:00	4900	557	-8.8	-39.3	336	11	
2025-07-29T12:00	4920	556	-8.9	-39.3	336	11	
2025-07-29T12:00	4940	555	-9.0	-39.5	335	12	
2025-07-29T12:00	4960	553	-9.1	-39.8	334	12	
2025-07-29T12:00	4980	551	-9.2	-39.9	333	11	
2025-07-29T12:00	5000	550	-9.4	-40.0	333	11	
2025-07-29T12:00	5020	549	-9.5	-40.0	332	11	
2025-07-29T12:00	5040	547	-9.5	-40.4	332	11	
2025-07-29T12:00	5060	546	-9.6	-40.8	332	11	
2025-07-29T12:00	5080	544	-9.8	-41.1	332	11	
2025-07-29T12:00	5100	543	-9.8	-41.7	332	11	
2025-07-29T12:00	5120	542	-9.9	-42.0	331	12	
2025-07-29T12:00	5140	540	-9.9	-42.2	331	12	
2025-07-29T12:00	5160	539	-10.0	-42.3	331	12	
2025-07-29T12:00	5180	537	-10.1	-42.5	330	13	
2025-07-29T12:00	5200	536	-10.2	-42.7	330	13	
2025-07-29T12:00	5220	535	-10.3	-43.1	330	14	
2025-07-29T12:00	5240	533	-10.4	-43.2	329	14	
2025-07-29T12:00	5260	532	-10.5	-43.5	329	14	
2025-07-29T12:00	5280	530	-10.5	-43.7	329	15	
2025-07-29T12:00	5300	529	-10.6	-43.9	329	15	
2025-07-29T12:00	5320	528	-10.8	-43.8	330	15	
2025-07-29T12:00	5340	526	-10.9	-43.7	331	14	
2025-07-29T12:00	5360	525	-11.0	-43.7	330	14	
2025-07-29T12:00	5380	524	-11.0	-44.0	329	13	
2025-07-29T12:00	5400	522	-11.0	-44.7	327	13	
2025-07-29T12:00	5420	521	-11.0	-45.0	325	13	
2025-07-29T12:00	5440	519	-11.1	-45.6	324	12	
2025-07-29T12:00	5460	518	-11.2	-46.3	322	12	
2025-07-29T12:00	5480	517	-11.3	-46.6	322	12	
2025-07-29T12:00	5500	515	-11.4	-46.7	321	12	
2025-07-29T12:00	5520	514	-11.5	-47.2	321	11	
2025-07-29T12:00	5540	513	-11.5	-47.4	322	11	
2025-07-29T12:00	5560	511	-11.5	-46.6	322	11	
2025-07-29T12:00	5580	510	-11.5	-44.9	324	11	
2025-07-29T12:00	5600	509	-11.6	-44.5	326	11	
2025-07-29T12:00	5620	507	-11.6	-43.2	327	11	
2025-07-29T12:00	5640	506	-11.7	-41.7	329	11	
2025-07-29T12:00	5660	505	-11.8	-41.0	330	11	
2025-07-29T12:00	5680	503	-11.9	-40.5	332	11	
2025-07-29T12:00	5700	502	-11.9	-39.3	333	12	
2025-07-29T12:00	5720	501	-12.1	-36.9	333	12	
2025-07-29T12:00	5740	500	-12.1	-32.0	334	12	
2025-07-29T12:00	5760	498	-12.3	-27.4	334	13	
2025-07-29T12:00	5780	497	-12.5	-26.7	334	13	
2025-07-29T12:00	5800	496	-12.7	-27.4	334	13	
2025-07-29T12:00	5820	494	-12.9	-28.4	333	13	
2025-07-29T12:00	5840	493	-13.0	-28.6	332	13	
2025-07-29T12:00	5860	492	-13.2	-28.3	331	13	
2025-07-29T12:00	5880	490	-13.3	-27.0	330	13	
2025-07-29T12:00	5900	489	-13.5	-25.1	329	13	
2025-07-29T12:00	5920	488	-13.6	-23.7	328	13	
2025-07-29T12:00	5940	487	-13.8	-23.4	327	13	
2025-07-29T12:00	5960	485	-13.9	-22.8	326	13	
2025-07-29T12:00	5980	484	-14.1	-22.4	325	13	
2025-07-29T12:00	6000	483	-14.3	-23.0	325	13	
2025-07-29T12:00	6020	482	-14.4	-23.2	325	14	
2025-07-29T12:00	6040	480	-14.6	-23.0	326	14	
2025-07-29T12:00	6060	479	-14.7	-22.9	326	14	
2025-07-29T12:00	6080	478	-14.9	-22.6	327	14	
2025-07-29T12:00	6100	476	-15.1	-22.4	327	14	
2025-07-29T12:00	6120	475	-15.2	-22.1	327	14	
2025-07-29T12:00	6140	474	-15.4	-22.7	327	14	
2025-07-29T12:00	6160	473	-15.5	-23.2	326	14	
2025-07-29T12:00	6180	471	-15.7	-23.6	324	14	
2025-07-29T12:00	6200	470	-15.8	-23.9	324	14	
2025-07-29T12:00	6220	469	-15.9	-24.3	322	14	
2025-07-29T12:00	6240	468	-16.1	-24.5	321	15	
2025-07-29T12:00	6260	467	-16.2	-24.7	320	15	
2025-07-29T12:00	6280	465	-16.3	-24.9	320	15	
2025-07-29T12:00	6300	464	-16.5	-25.0	320	15	
2025-07-29T12:00	6320	463	-16.6	-25.4	320	15	
2025-07-29T12:00	6340	461	-16.8	-25.7	320	15	
2025-07-29T12:00	6360	460	-16.9	-26.0	320	15	
2025-07-29T12:00	6380	459	-17.0	-26.2	320	15	
2025-07-29T12:00	6400	458	-17.2	-26.1	320	14	
2025-07-29T12:00	6420	457	-17.3	-26.4	320	14	
2025-07-29T12:00	6440	455	-17.5	-26.6	320	14	
2025-07-29T12:00	6460	454	-17.6	-26.7	320	14	
2025-07-29T12:00	6480	453	-17.8	-26.9	320	13	
2025-07-29T12:00	6500	452	-17.9	-27.0	321	13	
2025-07-29T12:00	6520	451	-18.0	-27.3	321	13	
2025-07-29T12:00	6540	449	-18.1	-28.0	322	13	
2025-07-29T12:00	6560	448	-18.3	-28.3	323	13	
2025-07-29T12:00	6580	447	-18.4	-28.6	324	13	
2025-07-29T12:00	6600	446	-18.5	-28.9	324	13	
2025-07-29T12:00	6620	444	-18.7	-29.1	325	13	
2025-07-29T12:00	6640	443	-18.8	-29.1	324	13	
2025-07-29T12:00	6660	442	-19.0	-29.5	323	13	
2025-07-29T12:00	6680	441	-19.1	-29.7	322	13	
2025-07-29T12:00	6700	440	-19.3	-29.8	320	13	
2025-07-29T12:00	6720	439	-19.4	-30.1	318	13	
2025-07-29T12:00	6740	437	-19.6	-30.3	316	13	
2025-07-29T12:00	6760	436	-19.8	-30.4	315	13	
2025-07-29T12:00	6780	435	-19.9	-30.6	315	13	
2025-07-29T12:00	6800	434	-20.0	-31.1	315	14	
2025-07-29T12:00	6820	433	-20.0	-32.2	316	14	
2025-07-29T12:00	6840	432	-20.0	-34.0	317	14	
2025-07-29T12:00	6860	430	-20.1	-36.1	319	15	
2025-07-29T12:00	6880	429	-20.1	-36.9	321	15	
2025-07-29T12:00	6900	428	-20.1	-38.0	323	15	
2025-07-29T12:00	6920	427	-20.1	-39.2	324	15	
2025-07-29T12:00	6940	426	-20.1	-39.7	325	15	
2025-07-29T12:00	6960	425	-20.1	-40.9	326	15	
2025-07-29T12:00	6980	424	-20.0	-41.3	327	15	
2025-07-29T12:00	7000	422	-20.1	-41.3	327	15	
2025-07-29T12:00	7020	421	-20.3	-41.2	327	15	
2025-07-29T12:00	7040	420	-20.5	-41.2	327	15	
2025-07-29T12:00	7060	419	-20.6	-41.2	327	15	
2025-07-29T12:00	7080	418	-20.8	-41.7	327	16	
2025-07-29T12:00	7100	417	-20.9	-42.2	327	16	
2025-07-29T12:00	7120	416	-21.0	-42.3	326	17	
2025-07-29T12:00	7140	414	-21.1	-42.6	326	17	
2025-07-29T12:00	7160	413	-21.2	-42.9	325	18	
2025-07-29T12:00	7180	412	-21.3	-42.9	324	18	
2025-07-29T12:00	7200	411	-21.4	-42.8	324	18	
2025-07-29T12:00	7220	410	-21.5	-42.6	323	19	
2025-07-29T12:00	7240	409	-21.6	-42.4	323	19	
2025-07-29T12:00	7260	408	-21.8	-42.2	324	19	
2025-07-29T12:00	7280	407	-22.0	-42.3	325	19	
2025-07-29T12:00	7300	406	-22.1	-41.4	326	19	
2025-07-29T12:00	7320	404	-22.3	-40.4	327	19	
2025-07-29T12:00	7340	403	-22.4	-39.3	328	19	
2025-07-29T12:00	7360	402	-22.5	-39.5	329	19	
2025-07-29T12:00	7380	401	-22.7	-39.7	330	19	
2025-07-29T12:00	7400	400	-22.8	-38.8	330	19	
2025-07-29T12:00	7420	399	-23.0	-37.0	331	18	
2025-07-29T12:00	7440	398	-23.1	-36.7	331	18	
2025-07-29T12:00	7460	397	-23.3	-36.9	332	19	
2025-07-29T12:00	7480	396	-23.4	-36.5	332	19	
2025-07-29T12:00	7500	394	-23.6	-36.3	332	19	
2025-07-29T12:00	7520	393	-23.8	-36.1	332	19	
2025-07-29T12:00	7540	392	-24.0	-35.1	332	19	
2025-07-29T12:00	7560	391	-24.1	-35.4	332	20	
2025-07-29T12:00	7580	390	-24.3	-34.9	332	20	
2025-07-29T12:00	7600	389	-24.4	-34.1	333	20	
2025-07-29T12:00	7620	388	-24.5	-34.1	334	20	
2025-07-29T12:00	7640	387	-24.7	-34.1	335	20	
2025-07-29T12:00	7660	386	-24.9	-34.1	336	20	
2025-07-29T12:00	7680	385	-25.1	-34.0	337	20	
2025-07-29T12:00	7700	384	-25.2	-34.1	338	21	
2025-07-29T12:00	7720	383	-25.4	-34.2	339	21	
2025-07-29T12:00	7740	382	-25.5	-34.7	340	21	
2025-07-29T12:00	7760	381	-25.6	-35.6	340	21	
2025-07-29T12:00	7780	380	-25.7	-36.0	340	21	
2025-07-29T12:00	7800	379	-25.9	-35.4	340	21	
2025-07-29T12:00	7820	378	-26.0	-34.8	338	21	
2025-07-29T12:00	7840	377	-26.2	-34.5	338	21	
2025-07-29T12:00	7860	376	-26.4	-34.9	336	21	
2025-07-29T12:00	7880	374	-26.5	-35.3	335	21	
2025-07-29T12:00	7900	373	-26.7	-35.1	335	21	
2025-07-29T12:00	7920	372	-26.8	-35.2	334	22	
2025-07-29T12:00	7940	371	-27.0	-35.2	334	22	
2025-07-29T12:00	7960	370	-27.2	-35.3	333	22	
2025-07-29T12:00	7980	369	-27.4	-35.1	333	22	
2025-07-29T12:00	8000	368	-27.5	-35.0	333	22	
2025-07-29T12:00	8020	367	-27.7	-34.2	333	22	
2025-07-29T12:00	8040	366	-27.8	-33.6	333	22	
2025-07-29T12:00	8060	365	-28.0	-33.7	333	22	
2025-07-29T12:00	8080	364	-28.2	-33.8	333	22	
2025-07-29T12:00	8100	363	-28.4	-33.7	333	22	
2025-07-29T12:00	8120	362	-28.5	-33.6	332	23	
2025-07-29T12:00	8140	361	-28.7	-33.5	332	23	
2025-07-29T12:00	8160	360	-28.9	-33.6	332	23	
2025-07-29T12:00	8180	359	-29.0	-33.8	332	23	
2025-07-29T12:00	8200	358	-29.2	-34.1	332	23	
2025-07-29T12:00	8220	357	-29.2	-34.7	331	24	
2025-07-29T12:00	8240	356	-29.4	-34.5	331	24	
2025-07-29T12:00	8260	355	-29.5	-34.5	331	24	
2025-07-29T12:00	8280	354	-29.5	-36.1	331	24	
2025-07-29T12:00	8300	353	-29.5	-37.9	331	24	
2025-07-29T12:00	8320	352	-29.6	-37.2	330	24	
2025-07-29T12:00	8340	351	-29.7	-37.0	330	24	
2025-07-29T12:00	8360	350	-29.8	-37.1	330	24	
2025-07-29T12:00	8380	349	-30.0	-37.5	329	24	
2025-07-29T12:00	8400	348	-30.1	-37.5	329	23	
2025-07-29T12:00	8420	347	-30.2	-38.0	329	23	
2025-07-29T12:00	8440	346	-30.3	-37.9	330	23	
2025-07-29T12:00	8460	345	-30.5	-37.7	330	24	
2025-07-29T12:00	8480	344	-30.6	-37.7	331	24	
2025-07-29T12:00	8500	343	-30.8	-37.5	332	24	
2025-07-29T12:00	8520	342	-31.0	-37.6	332	24	
2025-07-29T12:00	8540	341	-31.1	-37.8	332	25	
2025-07-29T12:00	8560	340	-31.3	-38.0	333	25	
2025-07-29T12:00	8580	339	-31.5	-38.2	333	25	
2025-07-29T12:00	8600	339	-31.6	-38.4	333	25	
2025-07-29T12:00	8620	338	-31.8	-38.2	333	25	
2025-07-29T12:00	8640	337	-32.0	-38.4	333	25	
2025-07-29T12:00	8660	336	-32.1	-38.6	333	25	
2025-07-29T12:00	8680	335	-32.3	-38.7	333	25	
2025-07-29T12:00	8700	334	-32.5	-38.7	333	24	
2025-07-29T12:00	8720	333	-32.6	-38.8	333	24	
2025-07-29T12:00	8740	332	-32.8	-39.0	333	24	
2025-07-29T12:00	8760	331	-33.0	-39.1	333	24	
2025-07-29T12:00	8780	330	-33.1	-39.1	333	23	
2025-07-29T12:00	8800	329	-33.2	-39.4	333	23	
2025-07-29T12:00	8820	328	-33.2	-39.9	333	23	
2025-07-29T12:00	8840	327	-33.3	-40.1	333	23	
2025-07-29T12:00	8860	326	-33.5	-40.0	333	23	
2025-07-29T12:00	8880	325	-33.7	-39.8	332	23	
2025-07-29T12:00	8900	324	-33.9	-39.7	331	23	
2025-07-29T12:00	8920	324	-34.0	-40.0	330	23	
2025-07-29T12:00	8940	323	-34.0	-40.9	328	23	
2025-07-29T12:00	8960	322	-34.1	-41.1	327	23	
2025-07-29T12:00	8980	321	-34.2	-40.9	326	23	
2025-07-29T12:00	9000	320	-34.3	-40.9	325	22	
2025-07-29T12:00	9020	319	-34.4	-40.9	325	22	
2025-07-29T12:00	9040	318	-34.5	-41.3	324	22	
2025-07-29T12:00	9060	317	-34.6	-42.2	324	22	
2025-07-29T12:00	9080	316	-34.8	-42.7	323	21	
2025-07-29T12:00	9100	315	-34.9	-42.7	323	21	
2025-07-29T12:00	9120	314	-35.0	-42.8	323	21	
2025-07-29T12:00	9140	313	-35.2	-42.7	322	21	
2025-07-29T12:00	9160	313	-35.3	-43.0	322	22	
2025-07-29T12:00	9180	312	-35.5	-44.0	322	22	
2025-07-29T12:00	9200	311	-35.7	-43.6	323	22	
2025-07-29T12:00	9220	310	-35.8	-43.2	323	22	
2025-07-29T12:00	9240	309	-35.9	-43.1	323	22	
2025-07-29T12:00	9260	308	-36.1	-42.4	323	22	
2025-07-29T12:00	9280	307	-36.3	-41.9	324	23	
2025-07-29T12:00	9300	306	-36.5	-42.1	323	23	
2025-07-29T12:00	9320	305	-36.7	-42.1	323	23	
2025-07-29T12:00	9340	305	-36.9	-42.1	323	23	
2025-07-29T12:00	9360	304	-37.1	-42.6	322	23	
2025-07-29T12:00	9380	303	-37.2	-43.6	321	23	
2025-07-29T12:00	9400	302	-37.3	-44.8	321	23	
2025-07-29T12:00	9420	301	-37.5	-45.0	320	23	
2025-07-29T12:00	9440	300	-37.6	-45.0	320	23	
2025-07-29T12:00	9460	299	-37.7	-46.0	319	24	
2025-07-29T12:00	9480	298	-37.8	-46.0	319	24	
2025-07-29T12:00	9500	298	-38.0	-45.9	318	24	
2025-07-29T12:00	9520	297	-38.2	-46.0	318	24	
2025-07-29T12:00	9540	296	-38.4	-45.3	318	24	
2025-07-29T12:00	9560	295	-38.5	-44.8	318	24	
2025-07-29T12:00	9580	294	-38.7	-44.9	318	24	
2025-07-29T12:00	9600	293	-38.9	-44.9	318	24	
2025-07-29T12:00	9620	292	-39.1	-45.2	318	24	
2025-07-29T12:00	9640	292	-39.2	-45.5	319	24	
2025-07-29T12:00	9660	291	-39.4	-46.1	320	24	
2025-07-29T12:00	9680	290	-39.6	-46.5	320	24	
2025-07-29T12:00	9700	289	-39.7	-46.6	321	24	
2025-07-29T12:00	9720	288	-39.9	-46.7	322	24	
2025-07-29T12:00	9740	287	-40.0	-47.1	323	25	
2025-07-29T12:00	9760	286	-40.2	-47.3	323	25	
2025-07-29T12:00	9780	286	-40.3	-47.5	323	25	
2025-07-29T12:00	9800	285	-40.5	-47.7	324	25	
2025-07-29T12:00	9820	284	-40.7	-48.1	324	25	
2025-07-29T12:00	9840	283	-40.8	-48.1	324	25	
2025-07-29T12:00	9860	282	-41.0	-48.1	324	25	
2025-07-29T12:00	9880	282	-41.2	-48.0	324	25	
2025-07-29T12:00	9900	281	-41.4	-48.4	323	25	
2025-07-29T12:00	9920	280	-41.5	-48.9	323	25	
2025-07-29T12:00	9940	279	-41.7	-49.0	323	26	
2025-07-29T12:00	9960	278	-41.9	-48.9	322	26	
2025-07-29T12:00	9980	277	-42.1	-48.9	322	26	
2025-07-29T12:00	10000	277	-42.2	-49.2	322	26	
2025-07-29T12:00	10018	276	-42.4	-49.4	321	26	
2025-07-29T12:00	10050	274	-42.6	-49.6	321	26	
2025-07-29T12:00	10100	273	-43.0	-49.8	322	26	
2025-07-29T12:00	10150	271	-43.5	-49.9	322	26	
2025-07-29T12:00	10200	268	-44.0	-50.1	321	26	
2025-07-29T12:00	10250	266	-44.4	-50.4	322	26	
2025-07-29T12:00	10300	265	-44.8	-50.8	322	27	
2025-07-29T12:00	10350	263	-45.2	-51.6	322	27	
2025-07-29T12:00	10400	261	-45.7	-51.9	320	26	
2025-07-29T12:00	10450	259	-46.1	-52.0	319	25	
2025-07-29T12:00	10500	257	-46.4	-52.0	319	25	
2025-07-29T12:00	10550	255	-46.8	-52.3	319	25	
2025-07-29T12:00	10600	253	-47.2	-52.7	319	25	
2025-07-29T12:00	10650	251	-47.6	-53.0	319	24	
2025-07-29T12:00	10700	249	-48.0	-53.5	319	24	
2025-07-29T12:00	10750	247	-48.4	-53.8	319	24	
2025-07-29T12:00	10800	245	-48.8	-54.3	319	24	
2025-07-29T12:00	10850	244	-49.2	-54.5	320	23	
2025-07-29T12:00	10900	242	-49.7	-55.0	321	23	
2025-07-29T12:00	10950	240	-50.1	-55.0	322	23	
2025-07-29T12:00	11000	238	-50.6	-55.3	324	23	
2025-07-29T12:00	11050	236	-50.7	-57.0	324	23	
2025-07-29T12:00	11100	234	-51.0	-57.6	325	23	
2025-07-29T12:00	11150	232	-51.3	-57.8	326	22	
2025-07-29T12:00	11200	231	-51.4	-58.5	326	22	
2025-07-29T12:00	11250	229	-51.7	-58.4	324	22	
2025-07-29T12:00	11300	227	-52.2	-58.5	322	22	
2025-07-29T12:00	11350	225	-52.6	-58.7	319	23	
2025-07-29T12:00	11400	224	-52.9	-59.1	317	24	
2025-07-29T12:00	11450	222	-53.2	-59.3	315	25	
2025-07-29T12:00	11500	220	-53.5	-59.5	314	26	
2025-07-29T12:00	11550	219	-53.7	-60.0	314	27	
2025-07-29T12:00	11600	217	-54.0	-60.3	315	28	
2025-07-29T12:00	11650	215	-54.2	-61.0	317	29	
2025-07-29T12:00	11700	213	-54.1	-61.9	320	30	
2025-07-29T12:00	11750	212	-53.9	-63.0	324	31	
2025-07-29T12:00	11800	210	-53.6	-64.5	327	30	
2025-07-29T12:00	11850	208	-53.1	-66.3	330	29	
2025-07-29T12:00	11900	207	-52.6	-67.9	333	28	
2025-07-29T12:00	11950	205	-52.9	-68.0	336	26	
2025-07-29T12:00	12000	204	-53.0	-68.4	339	25	
2025-07-29T12:00	12050	202	-52.9	-69.3	340	23	
2025-07-29T12:00	12100	201	-52.9	-70.3	339	21	
2025-07-29T12:00	12150	199	-52.8	-71.4	336	20	
2025-07-29T12:00	12200	197	-52.8	-72.2	333	19	
2025-07-29T12:00	12250	196	-52.5	-73.4	332	20	
2025-07-29T12:00	12300	194	-52.0	-74.2	332	20	
2025-07-29T12:00	12350	193	-51.8	-74.3	332	20	
2025-07-29T12:00	12400	192	-51.4	-74.8	330	19	
2025-07-29T12:00	12450	190	-51.5	-74.8	327	20	
2025-07-29T12:00	12500	189	-51.4	-74.8	325	20	
2025-07-29T12:00	12550	187	-51.1	-74.4	322	20	
2025-07-29T12:00	12600	186	-51.1	-74.4	319	20	
2025-07-29T12:00	12650	184	-51.2	-74.6	317	20	
2025-07-29T12:00	12700	183	-51.4	-75.1	316	20	
2025-07-29T12:00	12750	181	-51.4	-75.4	316	20	
2025-07-29T12:00	12800	180	-51.5	-75.1	317	20	
2025-07-29T12:00	12850	179	-51.9	-75.2	317	20	
2025-07-29T12:00	12900	177	-51.8	-75.6	319	20	
2025-07-29T12:00	12950	176	-51.8	-76.2	320	20	
2025-07-29T12:00	13000	175	-51.7	-77.3	318	19	
2025-07-29T12:00	13050	173	-51.7	-78.5	314	19	
2025-07-29T12:00	13100	172	-51.6	-79.4	311	20	
2025-07-29T12:00	13150	171	-51.5	-79.5	310	20	
2025-07-29T12:00	13200	169	-51.5	-79.6	311	20	
2025-07-29T12:00	13250	168	-51.6	-79.6	312	19	
2025-07-29T12:00	13300	167	-51.5	-79.6	312	19	
2025-07-29T12:00	13350	165	-51.4	-79.8	314	20	
2025-07-29T12:00	13400	164	-51.3	-80.1	315	20	
2025-07-29T12:00	13450	163	-51.4	-80.2	316	20	
2025-07-29T12:00	13500	162	-51.4	-80.4	318	20	
2025-07-29T12:00	13550	160	-51.2	-80.7	318	19	
2025-07-29T12:00	13600	159	-51.1	-80.7	317	18	
2025-07-29T12:00	13650	158	-51.2	-80.6	316	18	
2025-07-29T12:00	13700	157	-51.1	-80.8	315	19	
2025-07-29T12:00	13750	156	-51.0	-80.7	316	19	
2025-07-29T12:00	13800	154	-51.1	-80.7	317	19	
2025-07-29T12:00	13850	153	-51.5	-80.7	318	19	
2025-07-29T12:00	13900	152	-51.8	-80.8	320	19	
2025-07-29T12:00	13950	151	-52.1	-80.9	322	19	
2025-07-29T12:00	14000	150	-52.4	-81.0	322	19	
2025-07-29T12:00	14050	148	-52.5	-81.2	320	19	
2025-07-29T12:00	14100	147	-52.6	-81.4	319	20	
2025-07-29T12:00	14150	146	-52.8	-81.3	318	19	
2025-07-29T12:00	14200	145	-52.9	-81.4	320	19	
2025-07-29T12:00	14250	144	-52.9	-81.1	322	18	
2025-07-29T12:00	14300	143	-52.7	-80.7	324	17	
2025-07-29T12:00	14350	142	-52.8	-80.2	325	16	
2025-07-29T12:00	14400	141	-53.0	-80.1	325	15	
2025-07-29T12:00	14450	140	-53.3	-80.1	324	14	
2025-07-29T12:00	14500	139	-53.2	-80.4	323	13	
2025-07-29T12:00	14550	137	-53.2	-81.3	320	13	
2025-07-29T12:00	14600	136	-53.0	-82.0	314	13	
2025-07-29T12:00	14650	135	-52.9	-82.1	311	13	
2025-07-29T12:00	14700	134	-52.9	-82.1	308	13	
2025-07-29T12:00	14750	133	-52.8	-82.2	307	14	
2025-07-29T12:00	14800	132	-52.8	-82.2	307	14	
2025-07-29T12:00	14850	131	-53.0	-82.3	306	14	
2025-07-29T12:00	14900	130	-53.3	-82.3	304	14	
2025-07-29T12:00	14950	129	-53.5	-82.4	304	14	
2025-07-29T12:00	15000	128	-53.7	-82.5	304	14	
2025-07-29T12:00	15050	127	-53.7	-82.7	305	14	
2025-07-29T12:00	15100	126	-53.9	-82.7	308	15	
2025-07-29T12:00	15150	125	-53.9	-82.7	311	16	
2025-07-29T12:00	15200	124	-53.9	-82.9	312	15	
2025-07-29T12:00	15250	123	-53.9	-82.8	309	14	
2025-07-29T12:00	15300	122	-54.1	-82.8	304	14	
2025-07-29T12:00	15350	121	-54.2	-82.8	298	14	
2025-07-29T12:00	15400	120	-54.1	-83.1	295	15	
2025-07-29T12:00	15450	120	-53.7	-83.0	295	15	
2025-07-29T12:00	15500	119	-53.4	-83.0	296	15	
2025-07-29T12:00	15550	118	-53.1	-82.9	299	15	
2025-07-29T12:00	15600	117	-53.3	-83.0	302	16	
2025-07-29T12:00	15650	116	-53.2	-82.8	303	16	
2025-07-29T12:00	15700	115	-53.5	-82.8	303	17	
2025-07-29T12:00	15750	114	-53.8	-82.9	305	17	
2025-07-29T12:00	15800	113	-54.2	-83.1	309	17	
2025-07-29T12:00	15850	112	-54.2	-83.3	312	16	
2025-07-29T12:00	15900	111	-54.3	-83.3	311	15	
2025-07-29T12:00	15950	111	-54.4	-83.4	308	14	
2025-07-29T12:00	16000	110	-54.5	-83.6	306	14	
2025-07-29T12:00	16050	109	-54.2	-83.5	306	14	
2025-07-29T12:00	16100	108	-54.2	-83.7	309	13	
2025-07-29T12:00	16150	107	-53.9	-83.6	311	12	
2025-07-29T12:00	16200	106	-53.6	-83.4	312	11	
2025-07-29T12:00	16250	105	-53.8	-83.6	313	9	
2025-07-29T12:00	16300	105	-53.6	-83.4	316	9	
2025-07-29T12:00	16350	104	-53.6	-83.4	319	9	
2025-07-29T12:00	16400	103	-53.7	-83.4	323	9	
2025-07-29T12:00	16450	102	-53.8	-83.5	329	9	
2025-07-29T12:00	16500	101	-53.9	-83.5	332	9	
2025-07-29T12:00	16550	101	-53.9	-83.6	333	8	
2025-07-29T12:00	16600	100	-53.8	-83.6	333	7	
2025-07-29T12:00	16650	99	-53.7	-83.6	334	6	
2025-07-29T12:00	16700	98	-53.9	-83.7	332	5	
2025-07-29T12:00	16750	98	-54.2	-83.7	329	4	
2025-07-29T12:00	16800	97	-54.4	-83.7	320	3	
2025-07-29T12:00	16850	96	-54.5	-83.8	306	3	
2025-07-29T12:00	16900	95	-54.5	-83.9	287	4	
2025-07-29T12:00	16950	95	-54.8	-84.0	266	4	
2025-07-29T12:00	17000	94	-54.7	-84.0	248	5	
2025-07-29T12:00	17050	93	-54.6	-84.0	242	5	
2025-07-29T12:00	17100	92	-54.6	-84.0	248	5	
2025-07-29T12:00	17150	92	-54.8	-84.1	263	5	
2025-07-29T12:00	17200	91	-55.0	-84.1	283	5	
2025-07-29T12:00	17250	90	-55.3	-84.2	304	5	
2025-07-29T12:00	17300	90	-55.2	-84.2	317	5	
2025-07-29T12:00	17350	89	-55.2	-84.4	314	4	
2025-07-29T12:00	17400	88	-54.9	-84.3	290	3	
2025-07-29T12:00	17450	87	-54.8	-84.3	274	4	
2025-07-29T12:00	17500	87	-54.8	-84.3	275	5	
2025-07-29T12:00	17550	86	-54.9	-84.3	281	6	
2025-07-29T12:00	17600	85	-55.1	-84.3	288	7	
2025-07-29T12:00	17650	85	-55.1	-84.4	294	7	
2025-07-29T12:00	17700	84	-54.7	-84.4	298	7	
2025-07-29T12:00	17750	83	-54.3	-84.4	302	7	
2025-07-29T12:00	17800	83	-54.1	-84.6	309	5	
2025-07-29T12:00	17850	82	-53.2	-84.3	319	3	
2025-07-29T12:00	17900	82	-53.0	-84.1	331	1	
2025-07-29T12:00	17950	81	-53.1	-83.8	360	0	
2025-07-29T12:00	18000	80	-53.3	-83.8	159	1	
2025-07-29T12:00	18050	80	-53.8	-83.9	180	1	
2025-07-29T12:00	18100	79	-54.2	-84.0	191	2	
2025-07-29T12:00	18150	78	-54.6	-84.1	200	3	
2025-07-29T12:00	18200	78	-55.0	-84.2	208	4	
2025-07-29T12:00	18250	77	-55.0	-84.4	216	5	
2025-07-29T12:00	18300	77	-55.3	-84.6	227	5	
2025-07-29T12:00	18350	76	-55.6	-84.8	243	5	
2025-07-29T12:00	18400	75	-55.5	-84.7	258	6	
2025-07-29T12:00	18450	75	-55.5	-85.0	274	5	
2025-07-29T12:00	18500	74	-54.8	-85.0	291	5	
2025-07-29T12:00	18550	74	-54.1	-84.8	305	5	
2025-07-29T12:00	18600	73	-54.0	-84.6	314	5	
2025-07-29T12:00	18650	72	-54.1	-84.6	325	4	
2025-07-29T12:00	18700	72	-54.0	-84.6	347	4	
2025-07-29T12:00	18750	71	-53.6	-84.5	17	4	
2025-07-29T12:00	18800	71	-53.4	-84.4	30	4	
2025-07-29T12:00	18850	70	-53.5	-84.4	32	4	
2025-07-29T12:00	18900	70	-53.9	-84.3	32	4	
2025-07-29T12:00	18950	69	-54.2	-84.3	31	4	
2025-07-29T12:00	19000	69	-54.6	-84.5	31	4	
2025-07-29T12:00	19050	68	-54.4	-84.6	36	4	
2025-07-29T12:00	19100	68	-54.5	-84.6	44	3	
2025-07-29T12:00	19150	67	-54.9	-84.7	48	4	
2025-07-29T12:00	19200	67	-55.1	-84.7	46	5	
2025-07-29T12:00	19250	66	-55.2	-84.9	47	6	
2025-07-29T12:00	19300	66	-55.3	-85.1	52	6	
2025-07-29T12:00	19350	65	-55.2	-85.0	59	7	
2025-07-29T12:00	19400	64	-55.4	-85.0	66	6	
2025-07-29T12:00	19450	64	-55.6	-85.0	72	5	
2025-07-29T12:00	19500	63	-55.9	-85.1	76	5	
2025-07-29T12:00	19550	63	-56.1	-85.2	82	4	
2025-07-29T12:00	19600	63	-56.1	-85.4	91	3	
2025-07-29T12:00	19650	62	-55.7	-85.3	101	3	
2025-07-29T12:00	19700	62	-56.0	-85.4	112	3	
2025-07-29T12:00	19750	61	-55.9	-85.4	131	2	
2025-07-29T12:00	19800	61	-55.6	-85.4	154	2	
2025-07-29T12:00	19850	60	-55.4	-85.4	171	2	
2025-07-29T12:00	19900	60	-55.3	-85.4	168	2	
2025-07-29T12:00	19950	59	-55.0	-85.3	138	2	
2025-07-29T12:00	20000	59	-54.7	-85.3	128	3	
2025-07-29T12:00	20050	58	-54.3		133	4	
2025-07-29T12:00	20100	58	-54.4		142	4	
2025-07-29T12:00	20150	57	-54.8		151	4	
2025-07-29T12:00	20200	57	-55.1		157	4	
2025-07-29T12:00	20250	56	-55.3		157	3	
2025-07-29T12:00	20300	56	-55.4		140	2	
2025-07-29T12:00	20350	56	-54.6		104	2	
2025-07-29T12:00	20400	55	-53.9		83	3	
2025-07-29T12:00	20450	55	-53.7		80	4	
2025-07-29T12:00	20500	54	-53.7		83	4	
2025-07-29T12:00	20550	54	-53.6		83	4	
2025-07-29T12:00	20600	53	-53.7		81	4	
2025-07-29T12:00	20650	53	-53.6		82	4	
2025-07-29T12:00	20700	53	-53.4		90	4	
2025-07-29T12:00	20750	52	-53.2		98	4	
2025-07-29T12:00	20800	52	-53.0		97	5	
2025-07-29T12:00	20850	51	-52.8		92	6	
2025-07-29T12:00	20900	51	-52.7		87	6	
2025-07-29T12:00	20950	51	-52.6		84	7	
2025-07-29T12:00	21000	50	-52.5		81	8	
2025-07-29T12:00	21050	50	-52.4		78	8	
2025-07-29T12:00	21100	49	-52.4		77	9	
2025-07-29T12:00	21150	49	-52.5		77	9	
2025-07-29T12:00	21200	49	-52.7		79	8	
2025-07-29T12:00	21250	48	-52.9		81	8	
2025-07-29T12:00	21300	48	-53.1		82	8	
2025-07-29T12:00	21350	48	-53.2		80	8	
2025-07-29T12:00	21400	47	-53.1		77	8	
2025-07-29T12:00	21450	47	-52.8		78	8	
2025-07-29T12:00	21500	46	-52.8		80	8	
2025-07-29T12:00	21550	46	-53.1		82	8	
2025-07-29T12:00	21600	46	-53.3		87	8	
2025-07-29T12:00	21650	45	-53.4		94	8	
2025-07-29T12:00	21700	45	-53.2		100	9	
2025-07-29T12:00	21750	45	-53.4		105	9	
2025-07-29T12:00	21800	44	-53.5		108	10	
2025-07-29T12:00	21850	44	-53.6		109	10	
2025-07-29T12:00	21900	44	-53.5		110	10	
2025-07-29T12:00	21950	43	-53.4		109	10	
2025-07-29T12:00	22000	43	-53.4		108	10	
2025-07-29T12:00	22050	43	-53.5		107	10	
2025-07-29T12:00	22100	42	-53.4		109	9	
2025-07-29T12:00	22150	42	-53.1		113	8	
2025-07-29T12:00	22200	42	-53.0		114	8	
2025-07-29T12:00	22250	41	-52.8		111	7	
2025-07-29T12:00	22300	41	-52.7		108	6	
2025-07-29T12:00	22350	41	-52.9		109	5	
2025-07-29T12:00	22400	40	-53.2		105	5	
2025-07-29T12:00	22450	40	-53.4		96	5	
2025-07-29T12:00	22500	40	-53.3		91	6	
2025-07-29T12:00	22550	39	-52.9		92	7	
2025-07-29T12:00	22600	39	-52.6		95	7	
2025-07-29T12:00	22650	39	-52.4		98	6	
2025-07-29T12:00	22700	39	-52.4		95	6	
2025-07-29T12:00	22750	38	-52.3		86	6	
2025-07-29T12:00	22800	38	-52.3		74	6	
2025-07-29T12:00	22850	38	-52.7		65	6	
2025-07-29T12:00	22900	37	-53.0		64	7	
2025-07-29T12:00	22950	37	-53.1		66	6	
2025-07-29T12:00	23000	37	-53.1		68	6	
2025-07-29T12:00	23050	37	-53.1		70	6	
2025-07-29T12:00	23100	36	-52.9		71	7	
2025-07-29T12:00	23150	36	-52.5		71	7	
2025-07-29T12:00	23200	36	-52.5		72	8	
2025-07-29T12:00	23250	35	-52.2		74	8	
2025-07-29T12:00	23300	35	-52.1		77	9	
2025-07-29T12:00	23350	35	-52.0		80	10	
2025-07-29T12:00	23400	35	-52.1		82	11	
2025-07-29T12:00	23450	34	-52.4		84	12	
2025-07-29T12:00	23500	34	-52.6		88	13	
2025-07-29T12:00	23550	34	-52.6		93	13	
2025-07-29T12:00	23600	34	-52.2		97	13	
2025-07-29T12:00	23650	33	-51.9		102	12	
2025-07-29T12:00	23700	33	-51.9		108	12	
2025-07-29T12:00	23750	33	-52.1		113	12	
2025-07-29T12:00	23800	33	-52.3		115	11	
2025-07-29T12:00	23850	32	-52.2		114	11	
2025-07-29T12:00	23900	32	-52.2		111	11	
2025-07-29T12:00	23950	32	-52.4		108	11	
2025-07-29T12:00	24000	32	-52.7		107	11	
2025-07-29T12:00	24050	31	-52.9		106	11	
2025-07-29T12:00	24100	31	-52.8		108	10	
2025-07-29T12:00	24150	31	-52.3		113	10	
2025-07-29T12:00	24200	31	-52.4		118	10	
2025-07-29T12:00	24250	30	-52.2		123	10	
2025-07-29T12:00	24300	30	-52.0		127	10	
2025-07-29T12:00	24350	30	-51.7		130	10	
2025-07-29T12:00	24400	30	-51.5		132	10	
2025-07-29T12:00	24450	29	-51.2		129	9	
2025-07-29T12:00	24500	29	-51.1		125	9	
2025-07-29T12:00	24550	29	-51.2		123	9	
2025-07-29T12:00	24600	29	-51.0		126	9	
2025-07-29T12:00	24650	29	-50.5		133	10	
2025-07-29T12:00	24700	28	-50.4		139	10	
2025-07-29T12:00	24750	28	-50.0		141	9	
2025-07-29T12:00	24800	28	-49.5		140	8	
2025-07-29T12:00	24850	28	-49.4		135	7	
2025-07-29T12:00	24900	27	-49.4		123	6	
2025-07-29T12:00	24950	27	-49.3		106	6	
2025-07-29T12:00	25000	27	-49.1		92	6	
2025-07-29T12:00	25050	27	-48.8		87	7	
2025-07-29T12:00	25100	27	-48.6		89	8	
2025-07-29T12:00	25150	26	-48.7		94	9	
2025-07-29T12:00	25200	26	-48.8		99	10	
2025-07-29T12:00	25250	26	-49.0		103	10	
2025-07-29T12:00	25300	26	-49.0		103	10	
2025-07-29T12:00	25350	26	-49.0		103	10	
2025-07-29T12:00	25400	25	-48.9		107	10	
2025-07-29T12:00	25450	25	-48.7		116	10	
2025-07-29T12:00	25500	25	-48.7		124	10	
2025-07-29T12:00	25550	25	-48.8		132	10	
2025-07-29T12:00	25600	25	-48.9		135	10	
2025-07-29T12:00	25650	24	-49.0		132	9	
2025-07-29T12:00	25700	24	-48.7		123	8	
2025-07-29T12:00	25750	24	-48.3		112	8	
2025-07-29T12:00	25800	24	-48.1		110	8	
2025-07-29T12:00	25850	24	-47.8		116	8	
2025-07-29T12:00	25900	24	-47.9		122	8	
2025-07-29T12:00	25950	23	-47.7		122	7	
2025-07-29T12:00	26000	23	-47.6		116	6	
2025-07-29T12:00	26050	23	-47.5		108	5	
2025-07-29T12:00	26100	23	-47.5		103	5	
2025-07-29T12:00	26150	23	-47.3		101	5	
2025-07-29T12:00	26200	23	-47.3		103	5	
2025-07-29T12:00	26250	22	-47.3		106	6	
2025-07-29T12:00	26300	22	-47.4		109	6	
2025-07-29T12:00	26350	22	-47.4		108	6	
2025-07-29T12:00	26400	22	-47.4		97	6	
2025-07-29T12:00	26450	22	-47.3		84	6	
2025-07-29T12:00	26500	22	-47.3		75	7	
2025-07-29T12:00	26550	21	-47.1		75	9	
2025-07-29T12:00	26600	21	-46.8		79	10	
2025-07-29T12:00	26650	21	-46.8		83	11	
2025-07-29T12:00	26700	21	-46.8		84	11	
2025-07-29T12:00	26750	21	-46.8		85	11	
2025-07-29T12:00	26800	21	-46.7		89	11	
2025-07-29T12:00	26850	20	-46.5		95	12	
2025-07-29T12:00	26900	20	-46.4		100	12	
2025-07-29T12:00	26950	20	-46.5		103	12	
2025-07-29T12:00	27000	20	-46.4		105	11	
2025-07-29T12:00	27050	20	-46.4		108	10	
2025-07-29T12:00	27100	20	-46.6		111	9	
2025-07-29T12:00	27150	20	-46.8		112	8	
2025-07-29T12:00	27200	19	-46.6		106	8	
2025-07-29T12:00	27250	19	-46.4		95	7	
2025-07-29T12:00	27300	19	-46.2		84	8	
2025-07-29T12:00	27350	19	-46.0		78	10	
2025-07-29T12:00	27400	19	-45.9		76	11	
2025-07-29T12:00	27450	19	-46.0		75	12	
2025-07-29T12:00	27500	19	-46.1		75	12	
2025-07-29T12:00	27550	18	-46.1		73	11	
2025-07-29T12:00	27600	18	-46.3		71	11	
2025-07-29T12:00	27650	18	-46.3		70	12	
2025-07-29T12:00	27700	18	-46.1		71	14	
2025-07-29T12:00	27750	18	-45.9		73	15	
2025-07-29T12:00	27800	18	-46.0		76	16	
2025-07-29T12:00	27850	18	-46.0		79	17	
2025-07-29T12:00	27900	17	-46.0		83	17	
2025-07-29T12:00	27950	17	-46.3		86	16	
2025-07-29T12:00	28000	17	-46.5		91	15	
2025-07-29T12:00	28050	17	-46.4		96	15	
2025-07-29T12:00	28100	17	-46.4		100	16	
2025-07-29T12:00	28150	17	-46.1		103	16	
2025-07-29T12:00	28200	17	-46.0		106	14	
2025-07-29T12:00	28250	17	-45.6		107	12	
2025-07-29T12:00	28300	16	-45.4		105	11	
2025-07-29T12:00	28350	16	-45.3		102	11	
2025-07-29T12:00	28400	16	-45.1		99	11	
2025-07-29T12:00	28450	16	-44.7		96	11	
2025-07-29T12:00	28500	16	-44.3		93	11	
2025-07-29T12:00	28550	16	-44.1		91	11	
2025-07-29T12:00	28600	16	-43.8		90	12	
2025-07-29T12:00	28650	16	-43.6		86	13	
2025-07-29T12:00	28700	15	-43.5		83	13	
2025-07-29T12:00	28750	15	-43.3		82	13	
2025-07-29T12:00	28800	15	-43.1		84	14	
2025-07-29T12:00	28850	15	-43.0		88	13	
2025-07-29T12:00	28900	15	-42.9		90	13	
2025-07-29T12:00	28950	15	-42.6		88	13	
2025-07-29T12:00	29000	15	-42.5		84	13	
2025-07-29T12:00	29050	15	-42.6		80	14	
2025-07-29T12:00	29100	15	-42.5		77	14	
2025-07-29T12:00	29150	14	-42.4		76	15	
2025-07-29T12:00	29200	14	-42.5		78	15	
2025-07-29T12:00	29250	14	-42.6		81	15	
2025-07-29T12:00	29300	14	-42.6		84	16	
2025-07-29T12:00	29350	14	-42.5		86	16	
2025-07-29T12:00	29400	14	-42.5		88	17	
2025-07-29T12:00	29450	14	-42.5		90	18	
2025-07-29T12:00	29500	14	-42.5		90	18	
2025-07-29T12:00	29550	14	-42.5		90	18	
2025-07-29T12:00	29600	14	-42.5		88	17	
2025-07-29T12:00	29650	13	-42.3		86	17	
2025-07-29T12:00	29700	13	-42.0		86	17	
2025-07-30T00:00	491	962	11.7	10.4	201	1	
2025-07-30T00:00	501	960	13.3	10.1	226	1	
2025-07-30T00:00	520	959	14.8	10.0	246	0	
2025-07-30T00:00	540	957	15.8	9.7	239	0	
2025-07-30T00:00	560	954	15.7	9.8	219	0	
2025-07-30T00:00	580	952	16.0	9.8	146	0	
2025-07-30T00:00	600	950	16.3	9.7	95	1	
2025-07-30T00:00	620	947	16.3	9.7	81	1	
2025-07-30T00:00	640	945	16.3	9.5	75	1	
2025-07-30T00:00	660	943	16.4	9.4	72	2	
2025-07-30T00:00	680	941	16.3	9.3	68	2	
2025-07-30T00:00	700	939	16.3	9.0	64	2	
2025-07-30T00:00	720	936	16.3	8.9	60	2	
2025-07-30T00:00	740	934	16.2	8.9	55	2	
2025-07-30T00:00	760	932	16.0	9.3	50	3	
2025-07-30T00:00	780	929	15.8	9.7	47	3	
2025-07-30T00:00	800	928	15.7	9.4	46	3	
2025-07-30T00:00	820	925	15.6	9.1	45	3	
2025-07-30T00:00	840	923	15.4	8.9	44	3	
2025-07-30T00:00	860	921	15.4	8.6	44	3	
2025-07-30T00:00	880	919	15.3	8.3	43	3	
2025-07-30T00:00	900	917	15.2	8.0	42	4	
2025-07-30T00:00	920	914	15.0	7.7	42	4	
2025-07-30T00:00	940	912	14.9	7.5	43	5	
2025-07-30T00:00	960	910	14.8	7.3	45	5	
2025-07-30T00:00	980	908	14.7	7.1	50	5	
2025-07-30T00:00	1000	906	14.6	7.0	54	5	
2025-07-30T00:00	1020	904	14.4	7.1	60	5	
2025-07-30T00:00	1040	902	14.2	7.2	64	5	
2025-07-30T00:00	1060	900	14.0	7.2	65	4	
2025-07-30T00:00	1080	897	13.9	6.9	63	4	
2025-07-30T00:00	1100	895	13.7	6.9	60	4	
2025-07-30T00:00	1120	893	13.5	6.8	55	4	
2025-07-30T00:00	1140	891	13.4	6.7	51	4	
2025-07-30T00:00	1160	889	13.2	6.6	48	3	
2025-07-30T00:00	1180	887	13.1	6.7	47	3	
2025-07-30T00:00	1200	885	12.9	6.7	47	3	
2025-07-30T00:00	1220	883	12.7	6.7	48	3	
2025-07-30T00:00	1240	881	12.5	6.7	50	3	
2025-07-30T00:00	1260	878	12.3	6.6	53	3	
2025-07-30T00:00	1280	876	12.2	6.5	55	3	
2025-07-30T00:00	1300	874	12.0	6.4	57	3	
2025-07-30T00:00	1320	872	11.9	6.0	58	3	
2025-07-30T00:00	1340	870	11.7	6.1	59	3	
2025-07-30T00:00	1360	868	11.5	6.3	60	3	
2025-07-30T00:00	1380	866	11.3	6.2	62	3	
2025-07-30T00:00	1400	864	11.1	6.1	64	3	
2025-07-30T00:00	1420	862	10.9	6.1	67	3	
2025-07-30T00:00	1440	860	10.8	6.0	69	3	
2025-07-30T00:00	1460	858	10.6	6.1	70	3	
2025-07-30T00:00	1480	856	10.4	6.2	71	3	
2025-07-30T00:00	1500	854	10.3	5.9	69	3	
2025-07-30T00:00	1520	852	10.2	5.5	64	3	
2025-07-30T00:00	1540	850	10.0	5.3	57	3	
2025-07-30T00:00	1560	847	9.9	4.9	48	3	
2025-07-30T00:00	1580	845	9.8	4.5	38	3	
2025-07-30T00:00	1600	843	9.7	3.5	31	4	
2025-07-30T00:00	1620	841	9.7	1.2	27	4	
2025-07-30T00:00	1640	839	9.5	0.9	25	4	
2025-07-30T00:00	1660	837	9.4	1.0	28	4	
2025-07-30T00:00	1680	835	9.2	1.1	33	3	
2025-07-30T00:00	1700	833	9.0	1.3	39	3	
2025-07-30T00:00	1720	831	8.8	1.5	44	3	
2025-07-30T00:00	1740	829	8.6	1.3	48	3	
2025-07-30T00:00	1760	827	8.4	1.5	49	3	
2025-07-30T00:00	1780	825	8.2	1.4	49	3	
2025-07-30T00:00	1800	823	8.0	1.5	48	3	
2025-07-30T00:00	1820	821	7.8	1.4	47	3	
2025-07-30T00:00	1840	819	7.5	2.2	46	3	
2025-07-30T00:00	1860	817	7.3	2.7	48	2	
2025-07-30T00:00	1880	815	7.2	2.7	49	2	
2025-07-30T00:00	1900	813	7.0	2.7	52	2	
2025-07-30T00:00	1920	811	6.8	2.8	54	2	
2025-07-30T00:00	1940	809	6.6	2.8	56	2	
2025-07-30T00:00	1960	807	6.5	2.5	55	2	
2025-07-30T00:00	1980	805	6.4	2.2	53	2	
2025-07-30T00:00	2000	804	6.2	2.1	50	2	
2025-07-30T00:00	2020	801	6.0	1.4	46	2	
2025-07-30T00:00	2040	800	5.9	0.9	40	2	
2025-07-30T00:00	2060	798	5.7	0.8	30	2	
2025-07-30T00:00	2080	796	5.5	0.9	20	2	
2025-07-30T00:00	2100	794	5.3	1.0	12	2	
2025-07-30T00:00	2120	792	5.2	0.9	7	3	
2025-07-30T00:00	2140	790	5.0	0.8	5	3	
2025-07-30T00:00	2160	788	4.8	0.6	7	3	
2025-07-30T00:00	2180	786	4.7	0.2	13	3	
2025-07-30T00:00	2200	784	4.5	0.3	20	3	
2025-07-30T00:00	2220	782	4.3	0.4	30	3	
2025-07-30T00:00	2240	780	4.2	0.1	37	3	
2025-07-30T00:00	2260	778	4.0	-0.4	40	3	
2025-07-30T00:00	2280	776	3.9	-0.8	40	2	
2025-07-30T00:00	2300	774	3.8	-1.2	38	2	
2025-07-30T00:00	2320	772	3.6	-1.1	36	2	
2025-07-30T00:00	2340	771	3.5	-1.3	33	1	
2025-07-30T00:00	2360	769	3.4	-1.6	27	1	
2025-07-30T00:00	2380	767	3.3	-1.5	7	1	
2025-07-30T00:00	2400	765	3.2	-1.3	326	1	
2025-07-30T00:00	2420	763	3.1	-1.0	302	1	
2025-07-30T00:00	2440	761	2.9	-0.9	297	1	
2025-07-30T00:00	2460	759	2.7	-0.9	294	1	
2025-07-30T00:00	2480	757	2.6	-0.8	292	1	
2025-07-30T00:00	2500	756	2.4	-0.7	289	1	
2025-07-30T00:00	2520	754	2.3	-1.1	286	1	
2025-07-30T00:00	2540	752	2.1	-1.8	285	1	
2025-07-30T00:00	2560	750	2.0	-2.3	288	1	
2025-07-30T00:00	2580	748	1.8	-2.3	303	1	
2025-07-30T00:00	2600	746	1.6	-2.0	326	1	
2025-07-30T00:00	2620	744	1.4	-1.4	343	1	
2025-07-30T00:00	2640	743	1.3	-1.4	353	1	
2025-07-30T00:00	2660	741	1.2	-2.5	1	2	
2025-07-30T00:00	2680	739	1.0	-2.7	6	2	
2025-07-30T00:00	2700	737	0.9	-2.7	8	2	
2025-07-30T00:00	2720	735	0.7	-2.7	11	1	
2025-07-30T00:00	2740	733	0.5	-2.8	14	1	
2025-07-30T00:00	2760	731	0.3	-2.9	15	1	
2025-07-30T00:00	2780	730	0.2	-2.9	12	1	
2025-07-30T00:00	2800	728	0.1	-2.8	357	0	
2025-07-30T00:00	2820	726	-0.1	-2.8	297	0	
2025-07-30T00:00	2840	724	-0.2	-2.7	234	0	
2025-07-30T00:00	2860	722	-0.3	-2.7	212	1	
2025-07-30T00:00	2880	721	-0.4	-3.0	201	1	
2025-07-30T00:00	2900	719	-0.5	-3.3	195	1	
2025-07-30T00:00	2920	717	-0.6	-3.5	194	1	
2025-07-30T00:00	2940	715	-0.8	-3.6	198	1	
2025-07-30T00:00	2960	713	-0.9	-3.9	209	1	
2025-07-30T00:00	2980	712	-1.0	-4.0	239	0	
2025-07-30T00:00	3000	710	-1.2	-3.9	299	0	
2025-07-30T00:00	3020	708	-1.3	-4.1	341	0	
2025-07-30T00:00	3040	706	-1.5	-4.1	348	0	
2025-07-30T00:00	3060	705	-1.7	-4.1	336	0	
2025-07-30T00:00	3080	703	-1.8	-4.3	304	0	
2025-07-30T00:00	3100	701	-2.0	-4.5	254	1	
2025-07-30T00:00	3120	699	-2.1	-4.6	236	1	
2025-07-30T00:00	3140	698	-2.3	-4.7	230	1	
2025-07-30T00:00	3160	696	-2.5	-4.8	228	2	
2025-07-30T00:00	3180	694	-2.7	-4.9	228	2	
2025-07-30T00:00	3200	692	-2.9	-5.0	230	2	
2025-07-30T00:00	3220	691	-3.1	-4.9	233	2	
2025-07-30T00:00	3240	689	-3.2	-5.1	239	3	
2025-07-30T00:00	3260	687	-3.4	-5.1	243	3	
2025-07-30T00:00	3280	685	-3.6	-5.2	245	4	
2025-07-30T00:00	3300	684	-3.8	-5.1	244	5	
2025-07-30T00:00	3320	682	-3.9	-5.1	242	5	
2025-07-30T00:00	3340	680	-4.0	-5.1	240	5	
2025-07-30T00:00	3360	679	-3.9	-5.8	238	5	
2025-07-30T00:00	3380	677	-3.5	-7.1	237	5	
2025-07-30T00:00	3400	675	-3.5	-7.6	236	5	
2025-07-30T00:00	3420	674	-3.6	-7.8	237	4	
2025-07-30T00:00	3440	672	-3.6	-8.7	238	3	
2025-07-30T00:00	3460	670	-3.4	-10.3	240	3	
2025-07-30T00:00	3480	668	-3.4	-11.2	241	2	
2025-07-30T00:00	3500	667	-3.5	-11.8	242	1	
2025-07-30T00:00	3520	665	-3.5	-13.4	244	1	
2025-07-30T00:00	3540	663	-3.2	-16.2	248	1	
2025-07-30T00:00	3560	662	-2.9	-19.9	261	0	
2025-07-30T00:00	3580	660	-2.2	-23.4	319	0	
2025-07-30T00:00	3600	658	-1.9	-24.6	356	0	
2025-07-30T00:00	3620	656	-2.0	-25.3	359	1	
2025-07-30T00:00	3640	655	-2.0	-25.7	358	1	
2025-07-30T00:00	3660	653	-2.1	-25.3	358	1	
2025-07-30T00:00	3680	652	-2.2	-24.6	0	1	
2025-07-30T00:00	3700	650	-2.3	-24.6	3	1	
2025-07-30T00:00	3720	648	-2.5	-24.6	6	1	
2025-07-30T00:00	3740	647	-2.5	-24.7	2	1	
2025-07-30T00:00	3760	645	-2.5	-24.9	348	1	
2025-07-30T00:00	3780	644	-2.5	-25.3	324	1	
2025-07-30T00:00	3800	642	-2.7	-25.5	306	1	
2025-07-30T00:00	3820	640	-2.8	-25.8	295	2	
2025-07-30T00:00	3840	639	-2.9	-26.3	289	2	
2025-07-30T00:00	3860	637	-3.0	-27.2	287	2	
2025-07-30T00:00	3880	635	-3.0	-28.1	286	2	
2025-07-30T00:00	3900	634	-2.9	-29.1	288	2	
2025-07-30T00:00	3920	632	-2.9	-28.9	291	2	
2025-07-30T00:00	3940	631	-3.1	-28.8	293	3	
2025-07-30T00:00	3960	629	-3.2	-29.0	294	3	
2025-07-30T00:00	3980	627	-3.3	-29.6	296	3	
2025-07-30T00:00	4000	626	-3.3	-30.0	299	3	
2025-07-30T00:00	4020	624	-3.3	-30.1	304	3	
2025-07-30T00:00	4040	623	-3.4	-30.3	309	3	
2025-07-30T00:00	4060	621	-3.5	-30.3	313	3	
2025-07-30T00:00	4080	620	-3.6	-29.8	315	3	
2025-07-30T00:00	4100	618	-3.8	-29.4	314	3	
2025-07-30T00:00	4120	616	-3.9	-29.2	308	3	
2025-07-30T00:00	4140	615	-3.9	-29.6	301	3	
2025-07-30T00:00	4160	613	-3.9	-30.1	296	4	
2025-07-30T00:00	4180	612	-4.1	-30.2	294	4	
2025-07-30T00:00	4200	610	-4.2	-30.3	293	4	
2025-07-30T00:00	4220	609	-4.3	-30.7	294	4	
2025-07-30T00:00	4240	607	-4.5	-31.2	294	4	
2025-07-30T00:00	4260	605	-4.6	-31.2	295	4	
2025-07-30T00:00	4280	604	-4.7	-31.6	294	4	
2025-07-30T00:00	4300	603	-4.8	-32.1	293	4	
2025-07-30T00:00	4320	601	-5.0	-32.3	291	4	
2025-07-30T00:00	4340	599	-5.1	-33.1	289	3	
2025-07-30T00:00	4360	598	-5.2	-33.6	286	3	
2025-07-30T00:00	4380	596	-5.3	-33.7	283	4	
2025-07-30T00:00	4400	595	-5.4	-33.9	280	4	
2025-07-30T00:00	4420	593	-5.5	-34.1	278	4	
2025-07-30T00:00	4440	592	-5.6	-34.0	276	5	
2025-07-30T00:00	4460	590	-5.6	-34.3	276	5	
2025-07-30T00:00	4480	589	-5.7	-34.1	276	6	
2025-07-30T00:00	4500	587	-5.8	-30.8	276	6	
2025-07-30T00:00	4520	586	-5.9	-28.1	276	5	
2025-07-30T00:00	4540	584	-6.0	-28.0	276	5	
2025-07-30T00:00	4560	583	-6.1	-30.4	275	5	
2025-07-30T00:00	4580	581	-6.2	-27.0	274	5	
2025-07-30T00:00	4600	580	-6.3	-23.9	274	5	
2025-07-30T00:00	4620	578	-6.5	-22.0	274	5	
2025-07-30T00:00	4640	577	-6.7	-21.1	274	5	
2025-07-30T00:00	4660	575	-6.8	-23.1	275	4	
2025-07-30T00:00	4680	574	-7.0	-22.4	276	4	
2025-07-30T00:00	4700	572	-7.1	-24.9	276	5	
2025-07-30T00:00	4720	571	-7.2	-29.9	275	5	
2025-07-30T00:00	4740	569	-7.4	-30.9	273	5	
2025-07-30T00:00	4760	568	-7.5	-32.2	271	5	
2025-07-30T00:00	4780	567	-7.6	-35.6	269	5	
2025-07-30T00:00	4800	565	-7.8	-37.0	267	5	
2025-07-30T00:00	4820	564	-7.9	-37.7	267	5	
2025-07-30T00:00	4840	562	-8.1	-37.6	268	5	
2025-07-30T00:00	4860	561	-8.2	-37.6	270	4	
2025-07-30T00:00	4880	559	-8.2	-38.0	272	4	
2025-07-30T00:00	4900	558	-8.3	-38.5	276	4	
2025-07-30T00:00	4920	556	-8.4	-38.9	279	5	
2025-07-30T00:00	4940	555	-8.5	-39.5	280	5	
2025-07-30T00:00	4960	554	-8.6	-39.8	279	5	
2025-07-30T00:00	4980	552	-8.7	-39.5	278	5	
2025-07-30T00:00	5000	551	-8.7	-39.0	277	6	
2025-07-30T00:00	5020	549	-8.9	-38.5	276	6	
2025-07-30T00:00	5040	548	-9.0	-38.5	275	6	
2025-07-30T00:00	5060	546	-9.1	-38.0	278	5	
2025-07-30T00:00	5080	545	-9.1	-37.2	281	5	
2025-07-30T00:00	5100	544	-9.2	-36.2	285	5	
2025-07-30T00:00	5120	542	-9.2	-33.2	290	5	
2025-07-30T00:00	5140	541	-9.2	-32.6	295	5	
2025-07-30T00:00	5160	540	-9.4	-30.0	301	5	
2025-07-30T00:00	5180	538	-9.6	-28.9	303	5	
2025-07-30T00:00	5200	537	-9.8	-27.8	300	5	
2025-07-30T00:00	5220	535	-9.9	-26.2	297	5	
2025-07-30T00:00	5240	534	-10.1	-25.4	294	4	
2025-07-30T00:00	5260	533	-10.3	-24.2	292	4	
2025-07-30T00:00	5280	531	-10.5	-24.0	290	4	
2025-07-30T00:00	5300	530	-10.7	-22.4	289	4	
2025-07-30T00:00	5320	528	-10.9	-18.0	290	4	
2025-07-30T00:00	5340	527	-11.1	-15.9	291	5	
2025-07-30T00:00	5360	526	-11.2	-15.8	295	5	
2025-07-30T00:00	5380	524	-11.3	-15.8	299	5	
2025-07-30T00:00	5400	523	-11.4	-14.2	302	6	
2025-07-30T00:00	5420	522	-11.6	-13.7	305	6	
2025-07-30T00:00	5440	520	-11.8	-13.2	307	6	
2025-07-30T00:00	5460	519	-12.0	-13.0	309	6	
2025-07-30T00:00	5480	518	-12.1	-13.0	310	5	
2025-07-30T00:00	5500	516	-12.1	-13.1	310	5	
2025-07-30T00:00	5520	515	-12.1	-13.3	308	5	
2025-07-30T00:00	5540	513	-12.2	-13.5	306	4	
2025-07-30T00:00	5560	512	-12.4	-13.5	304	4	
2025-07-30T00:00	5580	511	-12.6	-13.6	302	4	
2025-07-30T00:00	5600	509	-12.7	-13.6	302	4	
2025-07-30T00:00	5620	508	-12.8	-13.9	303	4	
2025-07-30T00:00	5640	507	-12.9	-14.1	306	4	
2025-07-30T00:00	5660	505	-13.0	-14.3	309	4	
2025-07-30T00:00	5680	504	-13.1	-14.5	311	4	
2025-07-30T00:00	5700	503	-13.1	-15.4	314	4	
2025-07-30T00:00	5720	501	-13.2	-15.7	316	4	
2025-07-30T00:00	5740	500	-13.3	-15.9	316	4	
2025-07-30T00:00	5760	499	-13.4	-16.1	317	4	
2025-07-30T00:00	5780	498	-13.3	-16.4	317	4	
2025-07-30T00:00	5800	496	-13.3	-16.5	319	4	
2025-07-30T00:00	5820	495	-13.5	-16.5	321	4	
2025-07-30T00:00	5840	494	-13.7	-16.5	324	4	
2025-07-30T00:00	5860	492	-13.7	-16.8	326	4	
2025-07-30T00:00	5880	491	-13.8	-17.1	329	4	
2025-07-30T00:00	5900	490	-13.9	-17.2	332	4	
2025-07-30T00:00	5920	489	-14.0	-17.5	332	4	
2025-07-30T00:00	5940	487	-14.1	-17.6	331	4	
2025-07-30T00:00	5960	486	-14.3	-17.7	328	4	
2025-07-30T00:00	5980	485	-14.4	-17.7	324	4	
2025-07-30T00:00	6000	483	-14.5	-17.6	318	4	
2025-07-30T00:00	6020	482	-14.7	-17.6	312	4	
2025-07-30T00:00	6040	481	-14.9	-17.7	307	4	
2025-07-30T00:00	6060	480	-15.0	-17.7	304	4	
2025-07-30T00:00	6080	478	-15.2	-17.9	302	4	
2025-07-30T00:00	6100	477	-15.2	-18.2	303	5	
2025-07-30T00:00	6120	476	-15.4	-18.3	304	5	
2025-07-30T00:00	6140	475	-15.5	-18.4	307	5	
2025-07-30T00:00	6160	473	-15.7	-18.5	310	5	
2025-07-30T00:00	6180	472	-15.9	-18.4	314	5	
2025-07-30T00:00	6200	471	-16.1	-18.6	317	5	
2025-07-30T00:00	6220	469	-16.3	-18.8	319	5	
2025-07-30T00:00	6240	468	-16.5	-18.9	319	5	
2025-07-30T00:00	6260	467	-16.7	-19.0	317	5	
2025-07-30T00:00	6280	466	-16.8	-18.9	316	5	
2025-07-30T00:00	6300	464	-17.0	-19.1	314	5	
2025-07-30T00:00	6320	463	-17.2	-19.2	311	5	
2025-07-30T00:00	6340	462	-17.4	-19.4	309	5	
2025-07-30T00:00	6360	461	-17.5	-19.6	308	5	
2025-07-30T00:00	6380	459	-17.7	-19.6	307	4	
2025-07-30T00:00	6400	458	-17.9	-19.7	305	4	
2025-07-30T00:00	6420	457	-18.1	-19.8	304	4	
2025-07-30T00:00	6440	456	-18.3	-19.8	304	4	
2025-07-30T00:00	6460	455	-18.5	-20.0	303	5	
2025-07-30T00:00	6480	453	-18.6	-20.1	301	5	
2025-07-30T00:00	6500	452	-18.8	-20.3	298	5	
2025-07-30T00:00	6520	451	-18.9	-20.5	295	5	
2025-07-30T00:00	6540	450	-19.1	-20.7	291	5	
2025-07-30T00:00	6560	449	-19.2	-20.7	285	5	
2025-07-30T00:00	6580	447	-19.3	-20.9	282	5	
2025-07-30T00:00	6600	446	-19.5	-21.0	280	5	
2025-07-30T00:00	6620	445	-19.7	-21.0	279	6	
2025-07-30T00:00	6640	444	-19.8	-21.1	279	6	
2025-07-30T00:00	6660	443	-19.9	-21.6	279	6	
2025-07-30T00:00	6680	441	-20.0	-22.3	280	6	
2025-07-30T00:00	6700	440	-20.2	-22.6	280	6	
2025-07-30T00:00	6720	439	-20.3	-22.6	280	6	
2025-07-30T00:00	6740	438	-20.5	-22.8	280	5	
2025-07-30T00:00	6760	437	-20.7	-23.0	280	5	
2025-07-30T00:00	6780	435	-20.8	-23.2	279	5	
2025-07-30T00:00	6800	434	-21.0	-23.3	278	5	
2025-07-30T00:00	6820	433	-21.2	-23.4	277	5	
2025-07-30T00:00	6840	432	-21.3	-23.4	276	6	
2025-07-30T00:00	6860	431	-21.5	-23.5	276	6	
2025-07-30T00:00	6880	430	-21.7	-24.0	276	6	
2025-07-30T00:00	6900	429	-21.8	-24.4	277	6	
2025-07-30T00:00	6920	427	-22.0	-24.8	278	6	
2025-07-30T00:00	6940	426	-22.1	-26.0	280	6	
2025-07-30T00:00	6960	425	-22.2	-27.9	282	7	
2025-07-30T00:00	6980	424	-22.4	-28.6	284	7	
2025-07-30T00:00	7000	423	-22.4	-31.5	285	7	
2025-07-30T00:00	7020	421	-22.4	-37.1	284	8	
2025-07-30T00:00	7040	420	-22.5	-38.1	283	8	
2025-07-30T00:00	7060	419	-22.6	-41.1	283	8	
2025-07-30T00:00	7080	418	-22.7	-42.4	282	8	
2025-07-30T00:00	7100	417	-22.8	-41.5	283	8	
2025-07-30T00:00	7120	416	-22.9	-36.5	283	8	
2025-07-30T00:00	7140	415	-23.1	-36.8	283	7	
2025-07-30T00:00	7160	414	-23.3	-36.8	283	7	
2025-07-30T00:00	7180	412	-23.5	-36.9	282	7	
2025-07-30T00:00	7200	411	-23.6	-37.2	281	7	
2025-07-30T00:00	7220	410	-23.8	-38.0	280	7	
2025-07-30T00:00	7240	409	-23.9	-38.5	279	7	
2025-07-30T00:00	7260	408	-24.0	-42.8	278	7	
2025-07-30T00:00	7280	407	-24.2	-42.8	278	7	
2025-07-30T00:00	7300	406	-24.4	-41.8	279	7	
2025-07-30T00:00	7320	405	-24.5	-41.1	279	7	
2025-07-30T00:00	7340	403	-24.7	-40.6	281	7	
2025-07-30T00:00	7360	402	-24.9	-40.5	282	7	
2025-07-30T00:00	7380	401	-25.1	-39.7	283	7	
2025-07-30T00:00	7400	400	-25.3	-39.7	283	8	
2025-07-30T00:00	7420	399	-25.5	-41.0	283	8	
2025-07-30T00:00	7440	398	-25.6	-42.2	283	8	
2025-07-30T00:00	7460	397	-25.7	-42.1	282	8	
2025-07-30T00:00	7480	396	-25.8	-42.5	281	8	
2025-07-30T00:00	7500	395	-26.0	-42.6	281	8	
2025-07-30T00:00	7520	394	-26.1	-42.3	280	8	
2025-07-30T00:00	7540	393	-26.2	-41.2	280	8	
2025-07-30T00:00	7560	391	-26.4	-39.6	279	8	
2025-07-30T00:00	7580	390	-26.6	-39.0	279	8	
2025-07-30T00:00	7600	389	-26.8	-39.1	279	8	
2025-07-30T00:00	7620	388	-27.0	-39.3	278	8	
2025-07-30T00:00	7640	387	-27.1	-39.7	277	8	
2025-07-30T00:00	7660	386	-27.3	-39.8	275	8	
2025-07-30T00:00	7680	385	-27.5	-39.8	273	8	
2025-07-30T00:00	7700	384	-27.7	-39.6	271	8	
2025-07-30T00:00	7720	383	-27.9	-39.0	270	8	
2025-07-30T00:00	7740	382	-28.1	-38.7	268	8	
2025-07-30T00:00	7760	381	-28.3	-38.1	268	8	
2025-07-30T00:00	7780	380	-28.5	-36.5	267	8	
2025-07-30T00:00	7800	379	-28.7	-35.4	268	8	
2025-07-30T00:00	7820	378	-28.8	-34.9	269	8	
2025-07-30T00:00	7840	376	-29.0	-34.9	271	8	
2025-07-30T00:00	7860	375	-29.2	-34.6	273	8	
2025-07-30T00:00	7880	374	-29.4	-34.0	275	9	
2025-07-30T00:00	7900	373	-29.5	-33.8	277	9	
2025-07-30T00:00	7920	372	-29.7	-33.3	278	9	
2025-07-30T00:00	7940	371	-29.8	-32.8	279	9	
2025-07-30T00:00	7960	370	-29.9	-32.4	279	9	
2025-07-30T00:00	7980	369	-30.0	-32.4	278	9	
2025-07-30T00:00	8000	368	-30.1	-32.5	277	9	
2025-07-30T00:00	8020	367	-30.2	-32.6	275	9	
2025-07-30T00:00	8040	366	-30.2	-32.8	272	9	
2025-07-30T00:00	8060	365	-30.3	-33.2	269	8	
2025-07-30T00:00	8080	364	-30.4	-33.3	266	8	
2025-07-30T00:00	8100	363	-30.6	-33.2	264	9	
2025-07-30T00:00	8120	362	-30.8	-33.5	262	9	
2025-07-30T00:00	8140	361	-30.9	-33.7	262	9	
2025-07-30T00:00	8160	360	-31.1	-33.9	262	9	
2025-07-30T00:00	8180	359	-31.2	-34.3	262	9	
2025-07-30T00:00	8200	358	-31.4	-34.7	263	9	
2025-07-30T00:00	8220	357	-31.6	-34.9	264	9	
2025-07-30T00:00	8240	356	-31.7	-35.2	266	9	
2025-07-30T00:00	8260	355	-31.9	-35.3	268	8	
2025-07-30T00:00	8280	354	-32.0	-35.3	270	8	
2025-07-30T00:00	8300	353	-32.2	-35.4	271	8	
2025-07-30T00:00	8320	352	-32.4	-35.5	272	8	
2025-07-30T00:00	8340	351	-32.5	-35.5	273	8	
2025-07-30T00:00	8360	350	-32.7	-35.5	272	8	
2025-07-30T00:00	8380	349	-32.9	-35.7	271	8	
2025-07-30T00:00	8400	348	-33.1	-35.7	269	8	
2025-07-30T00:00	8420	347	-33.3	-36.0	265	8	
2025-07-30T00:00	8440	346	-33.4	-36.3	262	9	
2025-07-30T00:00	8460	345	-33.6	-36.4	259	9	
2025-07-30T00:00	8480	344	-33.8	-36.6	257	10	
2025-07-30T00:00	8500	343	-33.9	-37.0	255	10	
2025-07-30T00:00	8520	342	-34.1	-37.2	255	10	
2025-07-30T00:00	8540	341	-34.3	-37.5	255	10	
2025-07-30T00:00	8560	340	-34.4	-37.8	256	10	
2025-07-30T00:00	8580	339	-34.6	-37.9	258	10	
2025-07-30T00:00	8600	338	-34.8	-38.0	258	10	
2025-07-30T00:00	8620	337	-34.9	-38.0	259	10	
2025-07-30T00:00	8640	336	-35.1	-38.0	259	10	
2025-07-30T00:00	8660	335	-35.3	-37.8	259	10	
2025-07-30T00:00	8680	334	-35.4	-37.8	258	10	
2025-07-30T00:00	8700	333	-35.6	-37.8	257	9	
2025-07-30T00:00	8720	332	-35.8	-37.9	256	10	
2025-07-30T00:00	8740	331	-35.9	-38.2	255	10	
2025-07-30T00:00	8760	330	-36.1	-38.6	255	10	
2025-07-30T00:00	8780	330	-36.3	-39.1	256	10	
2025-07-30T00:00	8800	329	-36.4	-39.8	256	11	
2025-07-30T00:00	8820	327	-36.6	-40.2	256	11	
2025-07-30T00:00	8840	327	-36.7	-40.1	256	12	
2025-07-30T00:00	8860	326	-36.9	-40.0	256	12	
2025-07-30T00:00	8880	325	-37.1	-40.1	256	12	
2025-07-30T00:00	8900	324	-37.3	-40.5	256	12	
2025-07-30T00:00	8920	323	-37.5	-41.0	257	12	
2025-07-30T00:00	8940	322	-37.6	-43.2	257	12	
2025-07-30T00:00	8960	321	-37.7	-43.3	258	12	
2025-07-30T00:00	8980	320	-37.9	-42.0	259	12	
2025-07-30T00:00	9000	319	-38.1	-41.4	260	12	
2025-07-30T00:00	9020	318	-38.3	-41.9	261	12	
2025-07-30T00:00	9040	317	-38.4	-43.7	262	12	
2025-07-30T00:00	9060	316	-38.5	-44.3	264	12	
2025-07-30T00:00	9080	315	-38.6	-46.1	265	12	
2025-07-30T00:00	9100	314	-38.7	-47.9	267	11	
2025-07-30T00:00	9120	314	-38.7	-50.8	268	11	
2025-07-30T00:00	9140	313	-38.7	-52.4	269	11	
2025-07-30T00:00	9160	312	-38.8	-52.2	270	11	
2025-07-30T00:00	9180	311	-38.9	-50.9	271	11	
2025-07-30T00:00	9200	310	-38.9	-51.5	271	11	
2025-07-30T00:00	9220	309	-39.0	-51.1	273	10	
2025-07-30T00:00	9240	308	-39.2	-51.1	274	10	
2025-07-30T00:00	9260	307	-39.3	-51.9	277	10	
2025-07-30T00:00	9280	306	-39.5	-52.0	278	10	
2025-07-30T00:00	9300	306	-39.6	-52.0	280	10	
2025-07-30T00:00	9320	305	-39.8	-52.0	282	10	
2025-07-30T00:00	9340	304	-40.0	-52.5	283	10	
2025-07-30T00:00	9360	303	-40.2	-53.1	283	10	
2025-07-30T00:00	9380	302	-40.4	-53.2	282	10	
2025-07-30T00:00	9400	301	-40.6	-53.1	281	10	
2025-07-30T00:00	9420	300	-40.7	-53.0	281	10	
2025-07-30T00:00	9440	299	-40.9	-53.0	280	9	
2025-07-30T00:00	9460	298	-41.1	-53.0	279	9	
2025-07-30T00:00	9480	298	-41.2	-53.3	279	8	
2025-07-30T00:00	9500	297	-41.3	-53.7	279	8	
2025-07-30T00:00	9520	296	-41.4	-53.8	280	8	
2025-07-30T00:00	9540	295	-41.6	-53.9	281	8	
2025-07-30T00:00	9560	294	-41.8	-54.1	282	8	
2025-07-30T00:00	9580	293	-41.9	-54.1	283	8	
2025-07-30T00:00	9600	292	-42.1	-54.0	283	8	
2025-07-30T00:00	9620	291	-42.3	-54.1	283	8	
2025-07-30T00:00	9640	291	-42.5	-54.1	283	9	
2025-07-30T00:00	9660	290	-42.6	-54.2	282	9	
2025-07-30T00:00	9680	289	-42.8	-54.2	281	9	
2025-07-30T00:00	9700	288	-43.0	-54.2	279	9	
2025-07-30T00:00	9720	287	-43.2	-54.3	278	10	
2025-07-30T00:00	9740	286	-43.4	-54.3	277	10	
2025-07-30T00:00	9760	285	-43.5	-54.3	277	10	
2025-07-30T00:00	9780	285	-43.7	-54.4	277	10	
2025-07-30T00:00	9800	284	-43.9	-54.5	277	10	
2025-07-30T00:00	9820	283	-44.0	-54.6	278	10	
2025-07-30T00:00	9840	282	-44.2	-54.6	279	10	
2025-07-30T00:00	9860	281	-44.4	-54.6	280	10	
2025-07-30T00:00	9880	280	-44.6	-54.7	281	9	
2025-07-30T00:00	9900	280	-44.8	-54.9	281	9	
2025-07-30T00:00	9920	279	-44.9	-55.1	281	9	
2025-07-30T00:00	9940	278	-45.0	-55.2	281	9	
2025-07-30T00:00	9960	277	-45.2	-55.2	280	9	
2025-07-30T00:00	9980	276	-45.3	-55.2	278	9	
2025-07-30T00:00	10000	275	-45.5	-55.5	276	8	
2025-07-30T00:00	10018	275	-45.5	-56.0	275	8	
2025-07-30T00:00	10050	273	-45.7	-56.4	274	8	
2025-07-30T00:00	10100	271	-46.1	-56.4	276	9	
2025-07-30T00:00	10150	269	-46.6	-56.5	282	8	
2025-07-30T00:00	10200	267	-46.9	-56.3	288	7	
2025-07-30T00:00	10250	265	-47.3	-55.7	292	7	
2025-07-30T00:00	10300	263	-47.7	-55.4	290	6	
2025-07-30T00:00	10350	261	-47.9	-55.0	283	6	
2025-07-30T00:00	10400	259	-48.3	-55.5	272	6	
2025-07-30T00:00	10450	257	-48.6	-56.5	265	7	
2025-07-30T00:00	10500	255	-49.0	-57.0	264	8	
2025-07-30T00:00	10550	253	-49.4	-57.2	266	9	
2025-07-30T00:00	10600	251	-49.7	-58.7	265	9	
2025-07-30T00:00	10650	250	-50.0	-60.1	261	10	
2025-07-30T00:00	10700	248	-50.0	-61.3	259	11	
2025-07-30T00:00	10750	246	-50.0	-61.5	259	12	
2025-07-30T00:00	10800	244	-50.0	-62.3	263	12	
2025-07-30T00:00	10850	242	-50.0	-63.0	269	13	
2025-07-30T00:00	10900	240	-49.8	-63.4	273	13	
2025-07-30T00:00	10950	238	-49.8	-64.0	275	12	
2025-07-30T00:00	11000	237	-49.8	-65.0	274	12	
2025-07-30T00:00	11050	235	-50.1	-65.1	273	12	
2025-07-30T00:00	11100	233	-50.1	-65.9	271	12	
2025-07-30T00:00	11150	231	-50.2	-66.5	269	13	
2025-07-30T00:00	11200	229	-50.3	-66.9	268	14	
2025-07-30T00:00	11250	228	-50.0	-67.9	268	14	
2025-07-30T00:00	11300	226	-50.0	-68.5	268	14	
2025-07-30T00:00	11350	224	-50.1	-68.9	269	14	
2025-07-30T00:00	11400	222	-50.0	-70.3	270	14	
2025-07-30T00:00	11450	221	-50.3	-69.7	271	14	
2025-07-30T00:00	11500	219	-50.5	-70.1	273	15	
2025-07-30T00:00	11550	217	-50.5	-70.7	274	15	
2025-07-30T00:00	11600	216	-50.6	-70.7	274	15	
2025-07-30T00:00	11650	214	-51.0	-70.7	273	14	
2025-07-30T00:00	11700	212	-50.6	-71.6	275	14	
2025-07-30T00:00	11750	211	-50.5	-72.6	278	14	
2025-07-30T00:00	11800	209	-50.7	-73.1	281	14	
2025-07-30T00:00	11850	208	-50.5	-74.5	282	14	
2025-07-30T00:00	11900	206	-50.1	-74.8	282	14	
2025-07-30T00:00	11950	204	-49.3	-75.2	283	14	
2025-07-30T00:00	12000	203	-49.0	-75.6	286	14	
2025-07-30T00:00	12050	201	-48.9	-75.9	289	13	
2025-07-30T00:00	12100	200	-49.1	-76.0	289	13	
2025-07-30T00:00	12150	198	-49.1	-76.6	289	13	
2025-07-30T00:00	12200	197	-48.1	-77.2	287	13	
2025-07-30T00:00	12250	195	-47.7	-77.5	285	13	
2025-07-30T00:00	12300	194	-47.7	-77.6	284	13	
2025-07-30T00:00	12350	192	-47.8	-77.8	282	12	
2025-07-30T00:00	12400	191	-47.5	-78.1	279	13	
2025-07-30T00:00	12450	190	-46.9	-78.3	277	13	
2025-07-30T00:00	12500	188	-46.5	-78.3	277	13	
2025-07-30T00:00	12550	187	-46.6	-78.3	279	14	
2025-07-30T00:00	12600	185	-46.5	-78.4	282	15	
2025-07-30T00:00	12650	184	-46.3	-78.4	287	16	
2025-07-30T00:00	12700	183	-46.3	-78.4	291	17	
2025-07-30T00:00	12750	181	-45.9	-78.3	291	17	
2025-07-30T00:00	12800	180	-46.1	-78.3	289	17	
2025-07-30T00:00	12850	178	-46.4	-78.3	289	18	
2025-07-30T00:00	12900	177	-46.4	-78.4	293	18	
2025-07-30T00:00	12950	176	-46.3	-78.3	298	18	
2025-07-30T00:00	13000	174	-46.4	-78.3	299	18	
2025-07-30T00:00	13050	173	-46.6	-78.2	297	17	
2025-07-30T00:00	13100	172	-46.9	-78.1	294	17	
2025-07-30T00:00	13150	171	-47.2	-78.1	291	17	
2025-07-30T00:00	13200	169	-47.4	-78.0	288	17	
2025-07-30T00:00	13250	168	-47.8	-78.1	286	17	
2025-07-30T00:00	13300	167	-47.9	-77.9	285	17	
2025-07-30T00:00	13350	165	-47.9	-77.7	286	16	
2025-07-30T00:00	13400	164	-47.7	-77.9	287	15	
2025-07-30T00:00	13450	163	-47.7	-78.8	289	14	
2025-07-30T00:00	13500	162	-47.6	-79.2	294	14	
2025-07-30T00:00	13550	161	-47.8	-79.2	299	13	
2025-07-30T00:00	13600	159	-48.0	-79.2	301	12	
2025-07-30T00:00	13650	158	-48.1	-79.3	299	12	
2025-07-30T00:00	13700	157	-48.3	-79.4	298	11	
2025-07-30T00:00	13750	156	-48.4	-79.5	300	10	
2025-07-30T00:00	13800	155	-48.6	-79.6	304	9	
2025-07-30T00:00	13850	153	-48.7	-79.5	302	9	
2025-07-30T00:00	13900	152	-48.9	-79.5	296	10	
2025-07-30T00:00	13950	151	-49.2	-79.6	289	11	
2025-07-30T00:00	14000	150	-49.4	-79.7	285	11	
2025-07-30T00:00	14050	149	-49.5	-79.7	282	11	
2025-07-30T00:00	14100	148	-49.7	-79.8	279	11	
2025-07-30T00:00	14150	147	-50.2	-79.9	277	11	
2025-07-30T00:00	14200	145	-50.6	-80.0	280	10	
2025-07-30T00:00	14250	144	-50.6	-80.2	283	10	
2025-07-30T00:00	14300	143	-50.7	-80.3	282	11	
2025-07-30T00:00	14350	142	-50.7	-80.4	279	11	
2025-07-30T00:00	14400	141	-50.8	-80.4	276	12	
2025-07-30T00:00	14450	140	-51.0	-80.5	272	11	
2025-07-30T00:00	14500	139	-51.3	-80.7	267	11	
2025-07-30T00:00	14550	138	-51.3	-81.0	264	12	
2025-07-30T00:00	14600	137	-51.1	-81.2	264	13	
2025-07-30T00:00	14650	136	-51.2	-81.3	267	14	
2025-07-30T00:00	14700	135	-51.3	-81.4	271	14	
2025-07-30T00:00	14750	134	-51.4	-81.3	275	14	
2025-07-30T00:00	14800	133	-51.5	-81.4	279	14	
2025-07-30T00:00	14850	132	-51.7	-81.5	282	15	
2025-07-30T00:00	14900	130	-51.8	-81.7	285	15	
2025-07-30T00:00	14950	130	-51.8	-81.7	289	15	
2025-07-30T00:00	15000	129	-51.8	-81.7	293	14	
2025-07-30T00:00	15050	128	-51.9	-81.5	294	14	
2025-07-30T00:00	15100	127	-52.2	-81.5	295	13	
2025-07-30T00:00	15150	126	-52.6	-81.6	295	13	
2025-07-30T00:00	15200	125	-53.1	-81.7	295	12	
2025-07-30T00:00	15250	124	-53.4	-81.9	297	11	
2025-07-30T00:00	15300	123	-53.5	-81.9	299	11	
2025-07-30T00:00	15350	122	-53.6	-82.0	303	11	
2025-07-30T00:00	15400	121	-53.6	-82.1	308	10	
2025-07-30T00:00	15450	120	-53.7	-82.2	312	9	
2025-07-30T00:00	15500	119	-53.9	-82.3	311	8	
2025-07-30T00:00	15550	118	-54.2	-82.5	307	7	
2025-07-30T00:00	15600	117	-54.5	-82.5	299	6	
2025-07-30T00:00	15650	116	-54.9	-82.6	286	5	
2025-07-30T00:00	15700	115	-55.1	-82.7	274	6	
2025-07-30T00:00	15750	114	-55.2	-82.8	265	7	
2025-07-30T00:00	15800	113	-55.3	-82.9	259	9	
2025-07-30T00:00	15850	113	-55.3	-83.0	259	10	
2025-07-30T00:00	15900	112	-55.3	-83.1	263	11	
2025-07-30T00:00	15950	111	-55.3	-83.2	268	12	
2025-07-30T00:00	16000	110	-55.4	-83.5	274	12	
2025-07-30T00:00	16050	109	-55.1	-83.4	280	11	
2025-07-30T00:00	16100	108	-55.0	-83.5	287	11	
2025-07-30T00:00	16150	107	-54.8	-83.5	292	12	
2025-07-30T00:00	16200	107	-55.0	-83.5	295	12	
2025-07-30T00:00	16250	106	-55.4	-83.7	298	12	
2025-07-30T00:00	16300	105	-55.6	-83.7	300	11	
2025-07-30T00:00	16350	104	-55.7	-83.7	298	11	
2025-07-30T00:00	16400	103	-55.8	-83.9	292	10	
2025-07-30T00:00	16450	103	-55.7	-84.0	285	10	
2025-07-30T00:00	16500	102	-55.5	-83.9	281	10	
2025-07-30T00:00	16550	101	-55.5	-84.0	279	11	
2025-07-30T00:00	16600	100	-55.4	-84.0	277	11	
2025-07-30T00:00	16650	99	-55.5	-83.9	277	12	
2025-07-30T00:00	16700	99	-55.7	-84.0	277	13	
2025-07-30T00:00	16750	98	-55.9	-84.1	279	12	
2025-07-30T00:00	16800	97	-55.9	-84.2	279	11	
2025-07-30T00:00	16850	96	-55.7	-84.2	279	10	
2025-07-30T00:00	16900	96	-55.6	-84.2	281	9	
2025-07-30T00:00	16950	95	-55.6	-84.3	286	10	
2025-07-30T00:00	17000	94	-55.1	-84.2	289	10	
2025-07-30T00:00	17050	93	-55.0	-84.1	291	9	
2025-07-30T00:00	17100	93	-55.3	-84.0	293	7	
2025-07-30T00:00	17150	92	-55.6	-84.1	297	6	
2025-07-30T00:00	17200	91	-55.7	-84.1	298	5	
2025-07-30T00:00	17250	90	-55.8	-84.3	291	6	
2025-07-30T00:00	17300	90	-55.7	-84.3	285	6	
2025-07-30T00:00	17350	89	-55.5	-84.3	282	6	
2025-07-30T00:00	17400	88	-55.2	-84.2	283	5	
2025-07-30T00:00	17450	88	-55.2	-84.4	294	5	
2025-07-30T00:00	17500	87	-54.8	-84.3	309	5	
2025-07-30T00:00	17550	86	-54.4	-84.1	316	6	
2025-07-30T00:00	17600	86	-54.4	-84.1	316	6	
2025-07-30T00:00	17650	85	-54.2	-84.0	317	6	
2025-07-30T00:00	17700	84	-54.0	-84.0	319	5	
2025-07-30T00:00	17750	84	-53.9	-83.9	320	4	
2025-07-30T00:00	17800	83	-53.8	-83.8	312	3	
2025-07-30T00:00	17850	82	-53.7	-83.8	288	2	
2025-07-30T00:00	17900	82	-53.5	-83.6	253	1	
2025-07-30T00:00	17950	81	-53.7	-83.6	237	1	
2025-07-30T00:00	18000	80	-54.1	-83.7	255	1	
2025-07-30T00:00	18050	80	-54.4	-83.8	276	1	
2025-07-30T00:00	18100	79	-54.3	-83.9	304	1	
2025-07-30T00:00	18150	79	-54.3	-84.0	342	1	
2025-07-30T00:00	18200	78	-53.8	-83.9	96	0	
2025-07-30T00:00	18250	77	-53.4	-83.8	174	1	
2025-07-30T00:00	18300	77	-53.3	-83.7	191	1	
2025-07-30T00:00	18350	76	-53.5	-83.8	188	2	
2025-07-30T00:00	18400	76	-53.5	-83.7	184	3	
2025-07-30T00:00	18450	75	-53.7	-83.7	189	4	
2025-07-30T00:00	18500	74	-53.9	-83.8	201	4	
2025-07-30T00:00	18550	74	-54.0	-83.9	215	4	
2025-07-30T00:00	18600	73	-54.1	-84.1	226	3	
2025-07-30T00:00	18650	73	-53.5	-83.9	230	3	
2025-07-30T00:00	18700	72	-53.5	-83.9	239	2	
2025-07-30T00:00	18750	72	-53.6	-83.8	268	1	
2025-07-30T00:00	18800	71	-53.6	-83.7	312	1	
2025-07-30T00:00	18850	70	-53.8	-83.8	327	2	
2025-07-30T00:00	18900	70	-53.9	-83.9	310	2	
2025-07-30T00:00	18950	69	-53.8	-83.9	277	2	
2025-07-30T00:00	19000	69	-54.0	-83.8	263	2	
2025-07-30T00:00	19050	68	-54.4	-83.9	264	3	
2025-07-30T00:00	19100	68	-54.8	-84.1	273	3	
2025-07-30T00:00	19150	67	-54.9	-84.1	296	2	
2025-07-30T00:00	19200	67	-54.9	-84.2	353	1	
2025-07-30T00:00	19250	66	-55.1	-84.3	22	2	
2025-07-30T00:00	19300	66	-55.2	-84.4	28	3	
2025-07-30T00:00	19350	65	-55.3	-84.5	30	4	
2025-07-30T00:00	19400	65	-55.4	-84.5	36	4	
2025-07-30T00:00	19450	64	-55.3	-84.4	47	5	
2025-07-30T00:00	19500	64	-55.5	-84.5	58	5	
2025-07-30T00:00	19550	63	-55.9	-84.5	64	5	
2025-07-30T00:00	19600	63	-56.3	-84.6	66	5	
2025-07-30T00:00	19650	62	-56.6	-84.8	61	4	
2025-07-30T00:00	19700	62	-56.6	-85.0	56	3	
2025-07-30T00:00	19750	61	-56.6	-85.1	66	2	
2025-07-30T00:00	19800	61	-56.5	-85.3	83	2	
2025-07-30T00:00	19850	60	-55.9	-85.3	75	3	
2025-07-30T00:00	19900	60	-54.7	-84.9	65	4	
2025-07-30T00:00	19950	59	-54.5	-84.7	65	4	
2025-07-30T00:00	20000	59	-54.4	-84.6	70	5	
2025-07-30T00:00	20050	58	-54.4		75	5	
2025-07-30T00:00	20100	58	-54.6		78	6	
2025-07-30T00:00	20150	57	-54.8		80	6	
2025-07-30T00:00	20200	57	-55.1		79	6	
2025-07-30T00:00	20250	57	-55.1		75	6	
2025-07-30T00:00	20300	56	-54.9		70	5	
2025-07-30T00:00	20350	56	-54.9		69	4	
2025-07-30T00:00	20400	55	-54.7		75	3	
2025-07-30T00:00	20450	55	-54.7		86	2	
2025-07-30T00:00	20500	54	-54.4		89	3	
2025-07-30T00:00	20550	54	-54.2		87	3	
2025-07-30T00:00	20600	54	-53.9		85	2	
2025-07-30T00:00	20650	53	-54.0		74	2	
2025-07-30T00:00	20700	53	-54.1		49	2	
2025-07-30T00:00	20750	52	-53.8		38	3	
2025-07-30T00:00	20800	52	-53.5		36	3	
2025-07-30T00:00	20850	51	-53.1		43	3	
2025-07-30T00:00	20900	51	-52.9		61	3	
2025-07-30T00:00	20950	51	-53.1		79	3	
2025-07-30T00:00	21000	50	-53.0		91	3	
2025-07-30T00:00	21050	50	-53.1		99	3	
2025-07-30T00:00	21100	50	-53.0		101	3	
2025-07-30T00:00	21150	49	-52.7		94	3	
2025-07-30T00:00	21200	49	-52.3		83	3	
2025-07-30T00:00	21250	48	-52.5		71	3	
2025-07-30T00:00	21300	48	-52.8		70	3	
2025-07-30T00:00	21350	48	-52.5		76	4	
2025-07-30T00:00	21400	47	-52.7		82	5	
2025-07-30T00:00	21450	47	-52.8		87	6	
2025-07-30T00:00	21500	47	-53.0		90	7	
2025-07-30T00:00	21550	46	-52.5		91	8	
2025-07-30T00:00	21600	46	-52.2		91	9	
2025-07-30T00:00	21650	45	-52.1		91	10	
2025-07-30T00:00	21700	45	-52.1		92	11	
2025-07-30T00:00	21750	45	-51.9		94	11	
2025-07-30T00:00	21800	44	-51.8		97	11	
2025-07-30T00:00	21850	44	-51.5		102	10	
2025-07-30T00:00	21900	44	-51.7		109	10	
2025-07-30T00:00	21950	43	-52.0		114	10	
2025-07-30T00:00	22000	43	-52.1		116	10	
2025-07-30T00:00	22050	43	-52.3		115	9	
2025-07-30T00:00	22100	42	-52.4		111	8	
2025-07-30T00:00	22150	42	-52.6		107	8	
2025-07-30T00:00	22200	42	-52.6		101	9	
2025-07-30T00:00	22250	41	-52.3		97	10	
2025-07-30T00:00	22300	41	-52.4		96	11	
2025-07-30T00:00	22350	41	-52.5		98	12	
2025-07-30T00:00	22400	41	-52.6		99	13	
2025-07-30T00:00	22450	40	-52.6		101	13	
2025-07-30T00:00	22500	40	-52.7		103	12	
2025-07-30T00:00	22550	40	-52.7		107	11	
2025-07-30T00:00	22600	39	-52.8		112	10	
2025-07-30T00:00	22650	39	-52.7		120	9	
2025-07-30T00:00	22700	39	-52.4		126	8	
2025-07-30T00:00	22750	38	-52.6		130	7	
2025-07-30T00:00	22800	38	-52.6		128	6	
2025-07-30T00:00	22850	38	-52.4		119	6	
2025-07-30T00:00	22900	37	-52.4		107	6	
2025-07-30T00:00	22950	37	-52.5		97	7	
2025-07-30T00:00	23000	37	-52.8		90	7	
2025-07-30T00:00	23050	37	-52.8		90	7	
2025-07-30T00:00	23100	36	-52.8		94	7	
2025-07-30T00:00	23150	36	-52.8		102	6	
2025-07-30T00:00	23200	36	-52.8		107	6	
2025-07-30T00:00	23250	36	-53.0		103	6	
2025-07-30T00:00	23300	35	-52.8		95	7	
2025-07-30T00:00	23350	35	-52.5		91	7	
2025-07-30T00:00	23400	35	-52.1		90	7	
2025-07-30T00:00	23450	34	-51.9		88	8	
2025-07-30T00:00	23500	34	-51.7		83	8	
2025-07-30T00:00	23550	34	-51.8		83	8	
2025-07-30T00:00	23600	34	-51.9		88	9	
2025-07-30T00:00	23650	33	-51.9		99	9	
2025-07-30T00:00	23700	33	-51.8		111	10	
2025-07-30T00:00	23750	33	-51.7		119	11	
2025-07-30T00:00	23800	33	-51.7		124	11	
2025-07-30T00:00	23850	32	-52.0		128	10	
2025-07-30T00:00	23900	32	-51.7		133	9	
2025-07-30T00:00	23950	32	-51.5		139	8	
2025-07-30T00:00	24000	32	-51.5		144	8	
2025-07-30T00:00	24050	31	-51.6		146	7	
2025-07-30T00:00	24100	31	-51.6		143	6	
2025-07-30T00:00	24150	31	-51.7		130	5	
2025-07-30T00:00	24200	31	-51.5		110	6	
2025-07-30T00:00	24250	30	-51.1		96	6	
2025-07-30T00:00	24300	30	-50.8		91	5	
2025-07-30T00:00	24350	30	-50.7		90	4	
2025-07-30T00:00	24400	30	-50.8		87	3	
2025-07-30T00:00	24450	30	-50.7		78	3	
2025-07-30T00:00	24500	29	-50.5		70	4	
2025-07-30T00:00	24550	29	-50.4		68	6	
2025-07-30T00:00	24600	29	-50.1		74	7	
2025-07-30T00:00	24650	29	-49.5		83	7	
2025-07-30T00:00	24700	28	-49.4		91	7	
2025-07-30T00:00	24750	28	-49.5		93	6	
2025-07-30T00:00	24800	28	-49.4		87	4	
2025-07-30T00:00	24850	28	-49.1		70	3	
2025-07-30T00:00	24900	28	-48.8		43	3	
2025-07-30T00:00	24950	27	-48.9		33	4	
2025-07-30T00:00	25000	27	-48.6		39	5	
2025-07-30T00:00	25050	27	-48.3		49	7	
2025-07-30T00:00	25100	27	-48.4		58	8	
2025-07-30T00:00	25150	27	-48.5		65	9	
2025-07-30T00:00	25200	26	-48.8		72	10	
2025-07-30T00:00	25250	26	-49.0		79	10	
2025-07-30T00:00	25300	26	-49.2		86	11	
2025-07-30T00:00	25350	26	-49.3		89	11	
2025-07-30T00:00	25400	26	-49.4		91	11	
2025-07-30T00:00	25450	25	-49.5		91	11	
2025-07-30T00:00	25500	25	-49.6		92	11	
2025-07-30T00:00	25550	25	-49.3		95	12	
2025-07-30T00:00	25600	25	-49.1		100	12	
2025-07-30T00:00	25650	25	-48.9		106	11	
2025-07-30T00:00	25700	24	-49.0		113	10	
2025-07-30T00:00	25750	24	-49.2		119	9	
2025-07-30T00:00	25800	24	-49.1		121	8	
2025-07-30T00:00	25850	24	-49.2		120	8	
2025-07-30T00:00	25900	24	-49.2		117	7	
2025-07-30T00:00	25950	23	-48.9		113	7	
2025-07-30T00:00	26000	23	-48.5		111	7	
2025-07-30T00:00	26050	23	-48.5		111	6	
2025-07-30T00:00	26100	23	-48.5		114	5	
2025-07-30T00:00	26150	23	-48.7		112	5	
2025-07-30T00:00	26200	23	-48.7		102	5	
2025-07-30T00:00	26250	22	-48.5		90	6	
2025-07-30T00:00	26300	22	-48.4		86	8	
2025-07-30T00:00	26350	22	-48.5		87	9	
2025-07-30T00:00	26400	22	-48.4		89	10	
2025-07-30T00:00	26450	22	-48.1		90	10	
2025-07-30T00:00	26500	22	-47.7		86	10	
2025-07-30T00:00	26550	21	-47.3		80	10	
2025-07-30T00:00	26600	21	-47.2		77	12	
2025-07-30T00:00	26650	21	-47.2		81	13	
2025-07-30T00:00	26700	21	-47.3		85	13	
2025-07-30T00:00	26750	21	-47.4		88	13	
2025-07-30T00:00	26800	21	-47.6		88	12	
2025-07-30T00:00	26850	20	-47.8		85	11	
2025-07-30T00:00	26900	20	-47.8		84	11	
2025-07-30T00:00	26950	20	-47.7		85	11	
2025-07-30T00:00	27000	20	-47.8		88	11	
2025-07-30T00:00	27050	20	-48.0		92	10	
2025-07-30T00:00	27100	20	-47.9		94	10	
2025-07-30T00:00	27150	20	-47.7		93	9	
2025-07-30T00:00	27200	19	-47.7		89	8	
2025-07-30T00:00	27250	19	-47.5		84	8	
2025-07-30T00:00	27300	19	-47.3		80	8	
2025-07-30T00:00	27350	19	-47.2		79	8	
2025-07-30T00:00	27400	19	-47.1		80	9	
2025-07-30T00:00	27450	19	-47.0		80	10	
2025-07-30T00:00	27500	19	-46.9		80	10	
2025-07-30T00:00	27550	18	-46.8		81	10	
2025-07-30T00:00	27600	18	-46.8		82	10	
2025-07-30T00:00	27650	18	-46.8		82	10	
2025-07-30T00:00	27700	18	-46.9		81	10	
2025-07-30T00:00	27750	18	-47.0		80	11	
2025-07-30T00:00	27800	18	-46.8		78	12	
2025-07-30T00:00	27850	18	-46.7		77	12	
2025-07-30T00:00	27900	17	-46.7		78	13	
2025-07-30T00:00	27950	17	-46.8		79	13	
2025-07-30T00:00	28000	17	-46.8		80	13	
2025-07-30T00:00	28050	17	-46.9		81	13	
2025-07-30T00:00	28100	17	-46.9		83	14	
2025-07-30T00:00	28150	17	-46.7		85	14	
2025-07-30T00:00	28200	17	-46.6		89	15	
2025-07-30T00:00	28250	17	-46.3		93	15	
2025-07-30T00:00	28300	16	-45.9		97	15	
2025-07-30T00:00	28350	16	-45.7		101	14	
2025-07-30T00:00	28400	16	-45.5		102	12	
2025-07-30T00:00	28450	16	-45.5		100	11	
2025-07-30T00:00	28500	16	-45.3		93	10	
2025-07-30T00:00	28550	16	-45.0		87	11	
2025-07-30T00:00	28600	16	-44.8		83	12	
2025-07-30T00:00	28650	16	-44.6		83	14	
2025-07-30T00:00	28700	15	-44.5		84	15	
2025-07-30T00:00	28750	15	-44.5		86	16	
2025-07-30T00:00	28800	15	-44.3		88	16	
2025-07-30T00:00	28850	15	-44.2		88	15	
2025-07-30T00:00	28900	15	-44.2		88	14	
2025-07-30T00:00	28950	15	-44.1		85	13	
2025-07-30T00:00	29000	15	-44.0		83	14	
2025-07-30T00:00	29050	15	-43.8		83	15	
2025-07-30T00:00	29100	15	-43.6		85	15	
2025-07-30T00:00	29150	14	-43.6		88	16	
2025-07-30T00:00	29200	14	-43.5		90	16	
2025-07-30T00:00	29250	14	-43.5		89	15	
2025-07-30T00:00	29300	14	-43.5		85	15	
2025-07-30T00:00	29350	14	-43.6		84	15	
2025-07-30T00:00	29400	14	-43.7		86	15	
2025-07-30T00:00	29450	14	-43.8		88	16	
2025-07-30T00:00	29500	14	-43.9		90	16	
2025-07-30T00:00	29550	14	-43.8		91	15	
2025-07-30T00:00	29600	14	-43.7		91	15	
2025-07-30T00:00	29650	13	-43.3		92	15	
2025-07-30T00:00	29700	13	-42.9		93	16	
2025-07-30T00:00	29750	13	-42.7		94	16	
2025-07-30T00:00	29800	13	-42.4		96	16	
2025-07-30T00:00	29850	13	-42.4		95	15	
2025-07-30T00:00	29900	13	-42.4		92	14	
2025-07-30T00:00	29950	13	-42.2		87	14	
2025-07-30T00:00	30000	13	-42.1		86	15	
2025-07-30T00:00	30050	13	-41.9		87	16	
2025-07-30T00:00	30100	13	-42.1		90	16	
2025-07-30T00:00	30150	12	-42.1		92	16	
2025-07-30T00:00	30200	12	-42.0		92	15	
2025-07-30T00:00	30250	12	-42.0		91	15	
2025-07-30T00:00	30300	12	-41.9		92	15	
2025-07-30T00:00	30350	12	-41.8		93	14	
2025-07-30T00:00	30400	12	-41.8		92	14	
2025-07-30T00:00	30450	12	-41.7		91	13	
2025-07-30T00:00	30500	12	-41.7		89	13	
2025-07-30T00:00	30550	12	-41.7		89	14	
2025-07-30T00:00	30600	12	-41.7		90	14	
2025-07-30T00:00	30650	12	-41.6		92	14	
2025-07-30T00:00	30700	12	-41.5		97	14	
2025-07-30T00:00	30750	11	-41.4		99	14	
2025-07-30T00:00	30800	11	-41.2		95	13	
2025-07-30T00:00	30850	11	-40.7		91	14	
2025-07-30T00:00	30900	11	-40.3		91	14	
2025-07-30T00:00	30950	11	-40.0		91	14	
2025-07-30T00:00	31000	11	-39.9		89	14	
2025-07-30T00:00	31050	11	-39.8		84	15	
2025-07-30T00:00	31100	11	-39.7		80	16	
2025-07-30T00:00	31150	11	-39.5		79	17	
2025-07-30T00:00	31200	11	-39.4		81	18	
2025-07-30T00:00	31250	11	-39.4		84	19	
2025-07-30T00:00	31300	11	-39.4		85	20	
2025-07-30T00:00	31350	10	-39.4		85	20	
2025-07-30T00:00	31400	10	-39.3		84	20	
2025-07-30T00:00	31450	10	-39.2		84	20	
2025-07-30T00:00	31500	10	-39.3		83	20	
2025-07-30T00:00	31550	10	-39.3		83	20	
2025-07-30T00:00	31600	10	-39.5		85	20	
2025-07-30T00:00	31650	10	-39.6		87	20	
2025-07-30T00:00	31700	10	-39.8		89	20	
2025-07-30T00:00	31750	10	-40.1		91	20	
2025-07-30T00:00	31800	10	-40.1		95	19	
2025-07-30T00:00	31850	10	-40.1		98	19	
2025-07-30T00:00	31900	10	-40.2		102	18	
2025-07-30T00:00	31950	10	-40.1		103	17	
2025-07-30T00:00	32000	10	-40.1		101	16	
2025-07-30T00:00	32050	9	-39.9		95	15	
2025-07-30T00:00	32100	9	-39.7		87	15	
2025-07-30T00:00	32150	9	-39.3		82	15	
2025-07-30T00:00	32200	9	-38.8		81	16	
2025-07-30T00:00	32250	9	-38.8		83	18	
2025-07-30T00:00	32300	9	-38.8		84	18	
2025-07-30T00:00	32350	9	-38.8		84	19	
2025-07-30T00:00	32400	9	-38.8		81	20	
2025-07-30T00:00	32450	9	-38.5		79	20	
2025-07-30T00:00	32500	9	-38.1		78	21	
2025-07-30T00:00	32550	9	-37.8		80	20	
2025-07-30T00:00	32600	9	-37.8		83	19	
2025-07-30T00:00	32650	9	-38.0		86	18	
2025-07-30T00:00	32700	9	-38.1		87	18	
2025-07-30T00:00	32750	9	-38.0		87	17	
2025-07-30T00:00	32800	8	-37.9		86	17	
2025-07-30T00:00	32850	8	-37.9		85	17	
2025-07-30T00:00	32900	8	-37.9		85	16	
2025-07-30T00:00	32950	8	-37.9		84	16	
2025-07-30T00:00	33000	8	-38.0		82	15	
2025-07-30T00:00	33050	8	-38.2		80	15	
2025-07-30T00:00	33100	8	-38.3		78	15	
2025-07-30T00:00	33150	8	-38.3		78	14	
2025-07-30T00:00	33200	8	-38.2		80	14	
2025-07-30T00:00	33250	8	-38.0		85	13	
2025-07-30T00:00	33300	8	-37.6		90	12	
2025-07-30T00:00	33350	8	-37.5		92	11	
2025-07-30T00:00	33400	8	-37.7		86	11	
2025-07-30T00:00	33450	8	-37.6		79	12	
2025-07-30T00:00	33500	8	-37.6		74	13	
2025-07-30T00:00	33550	8	-37.5		71	14	
2025-07-30T00:00	33600	8	-37.3		70	15	
2025-07-30T00:00	33650	7	-37.4		71	16	
2025-07-30T00:00	33700	7	-37.3		74	17	
2025-07-30T00:00	33750	7	-37.2		78	17	
2025-07-30T00:00	33800	7	-36.9		80	17	
2025-07-30T00:00	33850	7	-36.7		80	17	
2025-07-30T00:00	33900	7	-36.5		78	17	
2025-07-30T00:00	33950	7	-36.3		79	17	
2025-07-30T00:00	34000	7	-36.3		81	18	
2025-07-30T00:00	34050	7	-36.4		83	18	
2025-07-30T00:00	34100	7	-36.3		83	18	
2025-07-30T00:00	34150	7	-36.2		82	17	
2025-07-30T00:00	34200	7	-36.1		79	17	
2025-07-30T00:00	34250	7	-35.8		77	16	
2025-07-30T00:00	34300	7	-35.5		76	16	
2025-07-30T00:00	34350	7	-35.2		76	15	
2025-07-30T00:00	34400	7	-35.1		75	15	
2025-07-30T00:00	34450	7	-34.8		74	17	
2025-07-30T00:00	34500	7	-34.2		74	18	
2025-07-30T00:00	34550	7	-33.8		74	20	
2025-07-30T00:00	34600	7	-33.3		73	19	
2025-07-30T00:00	34650	6	-32.9		72	18	
2025-07-30T00:00	34700	6	-33.0		72	18	
2025-07-30T00:00	34750	6	-33.3		71	18	
2025-07-30T00:00	34800	6	-33.0		69	19	
2025-07-30T00:00	34850	6	-32.8		67	20	
2025-07-30T00:00	34900	6	-32.4		66	19	
2025-07-30T00:00	34950	6	-32.5		66	18	
2025-07-30T00:00	35000	6	-32.7		66	17	
2025-07-30T00:00	35050	6	-32.6		66	16	
2025-07-30T00:00	35100	6	-32.4		65	16	
2025-07-30T00:00	35150	6	-32.3		62	17	
2025-07-30T00:00	35200	6	-32.0		60	18	
2025-07-30T00:00	35250	6	-31.6		61	19	
2025-07-30T00:00	35300	6	-31.1		63	20	
2025-07-30T00:00	35350	6	-30.9		65	21	
2025-07-30T00:00	35400	6	-30.8		67	22	
2025-07-30T00:00	35450	6	-30.7		69	23	
2025-07-30T00:00	35500	6	-30.8		69	23	
2025-07-30T00:00	35550	6	-30.8		69	22	
2025-07-30T12:00	491	961	21.5	10.3	335	3	4.2
2025-07-30T12:00	501	960	21.2	11.2	269	1	4.2
2025-07-30T12:00	520	958	20.8	10.6	277	2	4.0
2025-07-30T12:00	540	956	20.5	10.4	289	2	4.0
2025-07-30T12:00	560	954	20.1	10.1	296	2	4.0
2025-07-30T12:00	580	952	19.9	10.2	298	2	4.0
2025-07-30T12:00	600	949	19.7	10.0	299	2	4.1
2025-07-30T12:00	620	947	19.5	10.0	299	2	4.1
2025-07-30T12:00	640	945	19.3	10.1	300	2	4.1
2025-07-30T12:00	660	943	19.0	10.0	303	3	4.2
2025-07-30T12:00	680	940	18.8	10.0	307	3	4.2
2025-07-30T12:00	700	938	18.6	10.0	311	3	4.2
2025-07-30T12:00	720	936	18.4	9.9	316	3	4.2
2025-07-30T12:00	740	934	18.2	9.8	321	3	4.2
2025-07-30T12:00	760	932	17.9	9.6	328	3	4.2
2025-07-30T12:00	780	930	17.6	9.6	334	3	4.2
2025-07-30T12:00	800	927	17.4	9.5	336	3	4.2
2025-07-30T12:00	820	925	17.2	9.4	336	3	4.2
2025-07-30T12:00	840	923	17.0	9.4	335	3	4.2
2025-07-30T12:00	860	921	16.9	9.3	332	3	4.2
2025-07-30T12:00	880	919	16.7	9.4	330	3	4.2
2025-07-30T12:00	900	917	16.5	9.3	327	4	4.2
2025-07-30T12:00	920	914	16.3	9.2	325	4	4.2
2025-07-30T12:00	940	912	16.1	9.2	322	4	4.2
2025-07-30T12:00	960	910	15.9	9.2	320	4	4.2
2025-07-30T12:00	980	908	15.7	9.1	317	4	4.2
2025-07-30T12:00	1000	906	15.5	9.0	315	4	4.2
2025-07-30T12:00	1020	904	15.3	8.9	314	4	4.2
2025-07-30T12:00	1040	902	15.0	8.9	314	4	4.2
2025-07-30T12:00	1060	900	14.8	8.8	315	4	4.2
2025-07-30T12:00	1080	898	14.5	8.8	316	4	4.2
2025-07-30T12:00	1100	895	14.4	8.8	317	3	4.2
2025-07-30T12:00	1120	893	14.2	8.8	317	3	4.1
2025-07-30T12:00	1140	891	14.0	8.6	318	3	4.1
2025-07-30T12:00	1160	889	13.9	8.6	319	3	4.1
2025-07-30T12:00	1180	887	13.7	8.5	320	3	4.2
2025-07-30T12:00	1200	885	13.5	8.6	320	3	4.1
2025-07-30T12:00	1220	883	13.2	8.6	320	3	4.1
2025-07-30T12:00	1240	881	13.1	8.5	319	3	4.1
2025-07-30T12:00	1260	879	12.8	8.5	318	3	4.1
2025-07-30T12:00	1280	877	12.6	8.4	315	3	4.1
2025-07-30T12:00	1300	874	12.5	8.2	312	4	4.1
2025-07-30T12:00	1320	872	12.3	7.9	309	4	4.1
2025-07-30T12:00	1340	870	12.1	7.8	307	4	4.1
2025-07-30T12:00	1360	868	11.9	8.0	304	4	4.1
2025-07-30T12:00	1380	866	11.7	7.7	302	4	4.1
2025-07-30T12:00	1400	864	11.5	8.0	301	4	4.0
2025-07-30T12:00	1420	862	11.3	8.0	299	4	4.0
2025-07-30T12:00	1440	860	11.1	7.7	298	4	4.0
2025-07-30T12:00	1460	858	11.0	7.0	296	4	4.0
2025-07-30T12:00	1480	856	10.8	7.1	294	4	4.0
2025-07-30T12:00	1500	854	10.6	7.5	292	4	4.0
2025-07-30T12:00	1520	852	10.4	7.6	290	4	4.0
2025-07-30T12:00	1540	850	10.1	7.4	288	4	4.0
2025-07-30T12:00	1560	847	10.0	6.9	287	4	4.0
2025-07-30T12:00	1580	845	9.8	6.7	287	4	4.0
2025-07-30T12:00	1600	844	9.6	7.0	287	4	4.0
2025-07-30T12:00	1620	842	9.4	7.0	287	4	4.0
2025-07-30T12:00	1640	839	9.2	6.7	287	4	4.0
2025-07-30T12:00	1660	838	9.1	6.7	287	4	4.0
2025-07-30T12:00	1680	835	8.9	6.6	286	4	4.0
2025-07-30T12:00	1700	833	8.7	6.7	284	4	3.9
2025-07-30T12:00	1720	832	8.5	6.5	282	4	3.9
2025-07-30T12:00	1740	830	8.3	6.4	281	4	4.0
2025-07-30T12:00	1760	828	8.1	6.4	279	5	3.9
2025-07-30T12:00	1780	825	7.9	6.3	279	5	3.9
2025-07-30T12:00	1800	824	7.7	6.1	278	4	3.9
2025-07-30T12:00	1820	822	7.6	6.1	278	4	3.9
2025-07-30T12:00	1840	820	7.3	6.1	278	4	3.9
2025-07-30T12:00	1860	818	7.2	6.1	278	4	3.9
2025-07-30T12:00	1880	816	6.9	6.2	277	4	3.9
2025-07-30T12:00	1900	814	6.8	5.9	276	4	3.9
2025-07-30T12:00	1920	812	6.7	5.9	275	5	3.9
2025-07-30T12:00	1940	810	6.5	5.8	273	5	3.8
2025-07-30T12:00	1960	807	6.3	5.6	270	5	3.8
2025-07-30T12:00	1980	806	6.2	5.4	267	5	3.8
2025-07-30T12:00	2000	804	6.1	5.0	262	4	3.8
2025-07-30T12:00	2020	802	5.9	4.9	256	4	3.8
2025-07-30T12:00	2040	800	5.7	4.6	250	3	3.8
2025-07-30T12:00	2060	798	5.6	4.4	243	2	3.8
2025-07-30T12:00	2080	796	5.4	4.4	243	2	3.8
2025-07-30T12:00	2100	794	5.2	4.3	252	2	3.8
2025-07-30T12:00	2120	792	5.0	4.2	260	2	3.8
2025-07-30T12:00	2140	790	4.8	4.0	260	3	3.7
2025-07-30T12:00	2160	788	4.6	4.0	256	3	3.8
2025-07-30T12:00	2180	786	4.4	3.8	248	3	3.8
2025-07-30T12:00	2200	784	4.4	3.2	237	3	3.7
2025-07-30T12:00	2220	782	4.3	3.1	221	3	3.7
2025-07-30T12:00	2240	781	4.2	3.2	205	3	3.7
2025-07-30T12:00	2260	779	4.0	3.2	201	3	3.7
2025-07-30T12:00	2280	777	3.9	3.1	205	4	3.7
2025-07-30T12:00	2300	775	3.7	3.1	211	5	3.7
2025-07-30T12:00	2320	773	3.6	3.0	215	6	3.7
2025-07-30T12:00	2340	771	3.5	3.0	219	6	3.7
2025-07-30T12:00	2360	769	3.4	3.0	223	6	3.7
2025-07-30T12:00	2380	767	3.3	2.9	226	6	3.7
2025-07-30T12:00	2400	765	3.2	2.6	228	6	3.7
2025-07-30T12:00	2420	763	3.2	2.2	231	6	3.7
2025-07-30T12:00	2440	762	3.2	2.1	234	5	3.7
2025-07-30T12:00	2460	760	3.0	1.9	237	5	3.7
2025-07-30T12:00	2480	758	2.8	1.8	240	5	3.7
2025-07-30T12:00	2500	756	2.7	1.7	242	6	3.7
2025-07-30T12:00	2520	754	2.6	1.4	244	6	3.7
2025-07-30T12:00	2540	752	2.5	1.2	245	6	3.7
2025-07-30T12:00	2560	750	2.5	1.0	245	6	3.7
2025-07-30T12:00	2580	749	2.3	0.8	244	6	3.7
2025-07-30T12:00	2600	747	2.3	0.3	243	5	3.7
2025-07-30T12:00	2620	745	2.3	0.0	241	5	3.7
2025-07-30T12:00	2640	743	2.2	0.1	241	4	3.7
2025-07-30T12:00	2660	741	2.0	0.1	242	4	3.7
2025-07-30T12:00	2680	739	1.9	-0.1	243	4	3.7
2025-07-30T12:00	2700	737	1.8	-0.4	244	4	3.7
2025-07-30T12:00	2720	736	1.7	-0.9	244	4	3.7
2025-07-30T12:00	2740	734	1.6	-1.0	245	4	3.7
2025-07-30T12:00	2760	732	1.5	-1.0	246	4	3.7
2025-07-30T12:00	2780	730	1.4	-1.0	247	4	3.7
2025-07-30T12:00	2800	728	1.1	-0.9	250	4	3.7
2025-07-30T12:00	2820	726	1.0	-1.1	252	4	3.7
2025-07-30T12:00	2840	725	1.0	-1.5	254	4	3.7
2025-07-30T12:00	2860	723	0.9	-1.7	256	4	3.7
2025-07-30T12:00	2880	721	0.7	-1.7	256	4	3.7
2025-07-30T12:00	2900	719	0.5	-1.9	257	4	3.7
2025-07-30T12:00	2920	718	0.3	-1.8	258	5	3.7
2025-07-30T12:00	2940	716	0.1	-1.5	259	5	3.7
2025-07-30T12:00	2960	714	-0.2	-0.8	261	5	3.7
2025-07-30T12:00	2980	712	-0.4	-0.5	263	5	3.6
2025-07-30T12:00	3000	710	-0.2	-0.3	264	6	3.6
2025-07-30T12:00	3020	709	-0.2	-0.3	266	6	3.6
2025-07-30T12:00	3040	707	-0.1	-0.1	266	7	3.5
2025-07-30T12:00	3060	705	-0.2	-0.2	266	7	3.5
2025-07-30T12:00	3080	703	-0.3	-0.3	266	7	3.4
2025-07-30T12:00	3100	702	-0.4	-0.4	265	7	3.4
2025-07-30T12:00	3120	700	-0.5	-0.5	264	7	3.4
2025-07-30T12:00	3140	698	-0.5	-0.5	263	8	3.3
2025-07-30T12:00	3160	696	-0.6	-0.6	262	7	3.3
2025-07-30T12:00	3180	695	-0.7	-0.7	261	7	3.3
2025-07-30T12:00	3200	693	-0.9	-0.9	260	7	3.3
2025-07-30T12:00	3220	691	-0.9	-1.0	261	7	3.3
2025-07-30T12:00	3240	689	-1.0	-1.1	263	7	3.3
2025-07-30T12:00	3260	688	-1.1	-1.1	268	7	3.3
2025-07-30T12:00	3280	686	-1.2	-1.2	273	7	3.2
2025-07-30T12:00	3300	684	-1.3	-1.3	279	7	3.2
2025-07-30T12:00	3320	683	-1.4	-1.4	284	7	3.2
2025-07-30T12:00	3340	681	-1.4	-1.4	287	7	3.2
2025-07-30T12:00	3360	679	-1.5	-1.5	287	7	3.1
2025-07-30T12:00	3380	678	-1.7	-1.7	284	7	3.1
2025-07-30T12:00	3400	676	-1.8	-1.8	280	6	3.1
2025-07-30T12:00	3420	674	-1.8	-2.0	276	6	3.1
2025-07-30T12:00	3440	672	-1.9	-2.0	273	5	3.1
2025-07-30T12:00	3460	671	-2.0	-2.1	275	5	3.0
2025-07-30T12:00	3480	669	-2.1	-2.2	280	5	3.0
2025-07-30T12:00	3500	667	-2.3	-2.4	286	5	3.0
2025-07-30T12:00	3520	665	-2.4	-2.5	290	5	3.0
2025-07-30T12:00	3540	664	-2.6	-2.6	290	5	3.0
2025-07-30T12:00	3560	662	-2.8	-2.8	287	5	3.0
2025-07-30T12:00	3580	661	-2.8	-3.0	280	5	3.0
2025-07-30T12:00	3600	659	-2.6	-3.2	270	5	2.9
2025-07-30T12:00	3620	657	-2.7	-3.2	258	5	2.9
2025-07-30T12:00	3640	656	-2.9	-3.4	251	5	2.9
2025-07-30T12:00	3660	654	-3.0	-3.5	249	5	2.9
2025-07-30T12:00	3680	652	-3.1	-3.7	251	6	2.8
2025-07-30T12:00	3700	651	-3.4	-3.9	256	5	2.8
2025-07-30T12:00	3720	649	-3.5	-4.0	263	5	2.8
2025-07-30T12:00	3740	647	-3.7	-4.1	270	5	2.8
2025-07-30T12:00	3760	646	-3.9	-4.2	277	5	2.8
2025-07-30T12:00	3780	644	-4.1	-4.4	283	6	2.8
2025-07-30T12:00	3800	642	-4.3	-4.7	287	6	2.8
2025-07-30T12:00	3820	641	-4.3	-4.9	286	7	2.8
2025-07-30T12:00	3840	639	-4.4	-5.2	284	8	2.8
2025-07-30T12:00	3860	638	-4.5	-5.4	280	8	2.8
2025-07-30T12:00	3880	636	-4.7	-5.4	278	8	2.8
2025-07-30T12:00	3900	634	-4.8	-5.8	276	8	2.9
2025-07-30T12:00	3920	633	-4.9	-5.9	276	7	2.9
2025-07-30T12:00	3940	631	-5.0	-6.0	276	7	2.9
2025-07-30T12:00	3960	630	-5.1	-6.1	276	6	2.9
2025-07-30T12:00	3980	628	-5.3	-6.1	275	6	2.9
2025-07-30T12:00	4000	626	-5.6	-6.3	272	5	3.0
2025-07-30T12:00	4020	625	-5.7	-6.5	269	5	3.0
2025-07-30T12:00	4040	623	-5.8	-6.6	265	5	3.0
2025-07-30T12:00	4060	622	-5.9	-6.8	263	4	3.0
2025-07-30T12:00	4080	620	-6.1	-6.8	264	4	3.0
2025-07-30T12:00	4100	618	-6.2	-7.2	268	4	3.1
2025-07-30T12:00	4120	617	-6.4	-7.5	273	4	3.1
2025-07-30T12:00	4140	615	-6.6	-7.7	276	5	3.1
2025-07-30T12:00	4160	614	-6.6	-8.1	278	5	3.1
2025-07-30T12:00	4180	612	-6.7	-8.0	280	5	3.2
2025-07-30T12:00	4200	611	-6.9	-8.1	281	6	3.2
2025-07-30T12:00	4220	609	-7.0	-8.5	283	6	3.2
2025-07-30T12:00	4240	607	-7.2	-9.0	286	5	3.2
2025-07-30T12:00	4260	606	-7.3	-9.5	291	5	3.2
2025-07-30T12:00	4280	604	-7.3	-9.7	298	5	3.2
2025-07-30T12:00	4300	603	-7.6	-9.7	303	5	3.3
2025-07-30T12:00	4320	601	-7.8	-9.9	305	6	3.3
2025-07-30T12:00	4340	600	-7.8	-10.0	304	6	3.3
2025-07-30T12:00	4360	598	-7.9	-10.7	301	6	3.3
2025-07-30T12:00	4380	597	-8.0	-11.4	298	7	3.3
2025-07-30T12:00	4400	595	-8.0	-10.9	296	7	3.3
2025-07-30T12:00	4420	594	-8.1	-10.2	293	7	3.3
2025-07-30T12:00	4440	592	-8.2	-10.0	292	8	3.3
2025-07-30T12:00	4460	591	-8.3	-10.1	293	8	3.3
2025-07-30T12:00	4480	589	-8.4	-10.3	294	8	3.2
2025-07-30T12:00	4500	588	-8.4	-11.1	296	8	3.1
2025-07-30T12:00	4520	586	-8.5	-11.3	299	8	3.1
2025-07-30T12:00	4540	585	-8.4	-12.9	301	8	3.2
2025-07-30T12:00	4560	583	-8.6	-14.6	302	8	3.2
2025-07-30T12:00	4580	581	-8.6	-15.1	301	8	3.2
2025-07-30T12:00	4600	580	-8.7	-16.7	299	8	3.3
2025-07-30T12:00	4620	578	-8.8	-17.9	296	8	3.4
2025-07-30T12:00	4640	577	-8.9	-18.4	295	8	3.5
2025-07-30T12:00	4660	576	-9.0	-18.7	294	9	3.6
2025-07-30T12:00	4680	574	-9.0	-19.1	295	9	3.7
2025-07-30T12:00	4700	572	-9.0	-20.2	297	10	3.8
2025-07-30T12:00	4720	571	-9.1	-21.2	298	10	3.9
2025-07-30T12:00	4740	570	-9.2	-22.1	300	11	3.9
2025-07-30T12:00	4760	568	-9.2	-20.9	301	11	4.0
2025-07-30T12:00	4780	567	-9.1	-19.2	300	12	4.0
2025-07-30T12:00	4800	565	-9.1	-17.9	300	13	4.0
2025-07-30T12:00	4820	564	-9.0	-18.3	299	13	4.0
2025-07-30T12:00	4840	562	-8.9	-21.0	300	14	4.0
2025-07-30T12:00	4860	561	-8.9	-23.0	300	14	4.0
2025-07-30T12:00	4880	560	-8.9	-21.0	301	14	4.0
2025-07-30T12:00	4900	558	-9.0	-17.3	302	14	4.1
2025-07-30T12:00	4920	557	-9.2	-16.8	303	14	4.0
2025-07-30T12:00	4940	555	-9.3	-18.4	303	14	3.9
2025-07-30T12:00	4960	554	-9.3	-20.2	304	14	3.8
2025-07-30T12:00	4980	552	-9.4	-24.6	306	14	3.7
2025-07-30T12:00	5000	551	-9.3	-28.0	309	14	3.7
2025-07-30T12:00	5020	549	-9.4	-29.9	311	14	3.6
2025-07-30T12:00	5040	548	-9.5	-31.3	312	15	3.6
2025-07-30T12:00	5060	547	-9.5	-33.6	312	15	3.6
2025-07-30T12:00	5080	545	-9.3	-35.2	311	15	3.6
2025-07-30T12:00	5100	544	-9.0	-34.8	310	15	3.7
2025-07-30T12:00	5120	542	-8.7	-33.1	308	15	3.7
2025-07-30T12:00	5140	541	-8.8	-31.2	307	15	3.7
2025-07-30T12:00	5160	540	-8.8	-27.6	306	15	3.8
2025-07-30T12:00	5180	538	-8.8	-25.0	306	14	3.7
2025-07-30T12:00	5200	537	-9.0	-23.4	306	14	3.7
2025-07-30T12:00	5220	535	-9.2	-23.2	307	14	3.6
2025-07-30T12:00	5240	534	-9.4	-23.3	307	14	3.5
2025-07-30T12:00	5260	533	-9.5	-23.1	308	14	3.5
2025-07-30T12:00	5280	531	-9.7	-23.0	308	14	3.5
2025-07-30T12:00	5300	530	-9.9	-22.8	308	14	3.4
2025-07-30T12:00	5320	528	-10.1	-22.8	308	14	3.4
2025-07-30T12:00	5340	527	-10.2	-22.8	307	15	3.4
2025-07-30T12:00	5360	526	-10.4	-22.9	306	15	3.3
2025-07-30T12:00	5380	524	-10.6	-22.8	305	15	3.3
2025-07-30T12:00	5400	523	-10.9	-22.7	304	15	3.3
2025-07-30T12:00	5420	522	-11.0	-22.6	304	15	3.3
2025-07-30T12:00	5440	520	-11.3	-22.4	304	14	3.3
2025-07-30T12:00	5460	519	-11.5	-22.2	304	14	3.2
2025-07-30T12:00	5480	517	-11.7	-22.4	304	15	3.2
2025-07-30T12:00	5500	516	-11.9	-22.2	304	15	3.2
2025-07-30T12:00	5520	515	-12.1	-22.2	303	15	3.2
2025-07-30T12:00	5540	513	-12.2	-22.1	303	15	3.1
2025-07-30T12:00	5560	512	-12.5	-22.0	303	15	3.1
2025-07-30T12:00	5580	511	-12.6	-22.0	303	15	3.1
2025-07-30T12:00	5600	509	-12.8	-21.9	303	15	3.1
2025-07-30T12:00	5620	508	-13.0	-21.8	302	15	3.0
2025-07-30T12:00	5640	507	-13.2	-21.9	302	15	3.0
2025-07-30T12:00	5660	505	-13.2	-21.9	302	15	3.0
2025-07-30T12:00	5680	504	-13.4	-22.0	302	15	3.0
2025-07-30T12:00	5700	503	-13.7	-21.9	302	15	3.0
2025-07-30T12:00	5720	502	-13.8	-22.0	302	15	3.0
2025-07-30T12:00	5740	500	-14.0	-21.9	302	14	3.0
2025-07-30T12:00	5760	499	-14.1	-21.9	302	14	2.9
2025-07-30T12:00	5780	498	-14.2	-22.1	302	14	2.9
2025-07-30T12:00	5800	496	-14.5	-21.9	301	14	2.9
2025-07-30T12:00	5820	495	-14.7	-21.9	301	15	2.8
2025-07-30T12:00	5840	494	-14.9	-22.8	300	15	2.8
2025-07-30T12:00	5860	492	-14.9	-24.0	299	15	2.8
2025-07-30T12:00	5880	491	-15.0	-23.5	298	14	2.8
2025-07-30T12:00	5900	490	-15.0	-22.0	297	14	2.8
2025-07-30T12:00	5920	488	-15.1	-22.1	296	14	2.8
2025-07-30T12:00	5940	487	-15.3	-22.5	296	14	2.8
2025-07-30T12:00	5960	486	-15.4	-22.8	295	14	2.8
2025-07-30T12:00	5980	485	-15.4	-23.9	294	15	2.8
2025-07-30T12:00	6000	483	-15.3	-23.3	293	15	2.8
2025-07-30T12:00	6020	482	-15.2	-22.6	292	15	2.8
2025-07-30T12:00	6040	481	-15.5	-22.4	291	15	2.8
2025-07-30T12:00	6060	480	-15.7	-22.2	291	16	2.7
2025-07-30T12:00	6080	478	-15.8	-22.1	291	16	2.7
2025-07-30T12:00	6100	477	-15.9	-22.5	292	16	2.6
2025-07-30T12:00	6120	476	-16.2	-22.6	292	16	2.6
2025-07-30T12:00	6140	474	-16.3	-22.5	294	16	2.6
2025-07-30T12:00	6160	473	-16.4	-22.2	295	16	2.5
2025-07-30T12:00	6180	472	-16.6	-21.7	297	16	2.5
2025-07-30T12:00	6200	471	-16.7	-22.0	298	16	2.4
2025-07-30T12:00	6220	469	-16.8	-22.7	299	15	2.4
2025-07-30T12:00	6240	468	-16.9	-23.1	299	15	2.4
2025-07-30T12:00	6260	467	-16.9	-23.8	300	15	2.4
2025-07-30T12:00	6280	466	-17.0	-23.9	300	15	2.4
2025-07-30T12:00	6300	464	-17.4	-24.9	301	15	2.4
2025-07-30T12:00	6320	463	-17.2	-31.2	301	16	2.5
2025-07-30T12:00	6340	462	-17.1	-32.9	302	17	2.5
2025-07-30T12:00	6360	461	-17.4	-33.1	303	17	2.6
2025-07-30T12:00	6380	459	-17.5	-33.2	304	18	2.7
2025-07-30T12:00	6400	458	-17.6	-35.1	305	18	2.8
2025-07-30T12:00	6420	457	-17.8	-35.7	306	18	2.8
2025-07-30T12:00	6440	456	-18.0	-35.1	306	18	2.9
2025-07-30T12:00	6460	455	-18.1	-35.6	306	18	2.9
2025-07-30T12:00	6480	453	-18.3	-35.5	306	18	2.9
2025-07-30T12:00	6500	452	-18.5	-35.8	307	17	2.9
2025-07-30T12:00	6520	451	-18.6	-36.2	308	17	2.9
2025-07-30T12:00	6540	450	-18.7	-35.6	309	17	2.9
2025-07-30T12:00	6560	448	-18.8	-34.7	310	17	2.9
2025-07-30T12:00	6580	447	-18.9	-34.5	311	18	2.9
2025-07-30T12:00	6600	446	-19.1	-36.1	311	19	2.8
2025-07-30T12:00	6620	445	-19.2	-38.9	310	19	2.9
2025-07-30T12:00	6640	444	-19.3	-40.8	310	19	2.9
2025-07-30T12:00	6660	443	-19.4	-40.9	311	19	3.0
2025-07-30T12:00	6680	441	-19.6	-40.9	311	19	3.0
2025-07-30T12:00	6700	440	-19.8	-41.2	311	19	3.1
2025-07-30T12:00	6720	439	-19.9	-41.2	311	19	3.1
2025-07-30T12:00	6740	438	-20.1	-41.1	311	19	3.2
2025-07-30T12:00	6760	437	-20.3	-40.9	310	20	3.3
2025-07-30T12:00	6780	435	-20.4	-42.4	311	20	3.3
2025-07-30T12:00	6800	434	-20.4	-43.3	311	20	3.3
2025-07-30T12:00	6820	433	-20.5	-42.3	311	20	3.3
2025-07-30T12:00	6840	432	-20.7	-41.7	312	20	3.2
2025-07-30T12:00	6860	431	-20.9	-41.6	312	20	3.0
2025-07-30T12:00	6880	430	-21.1	-41.8	312	20	2.9
2025-07-30T12:00	6900	428	-21.2	-41.8	312	20	2.8
2025-07-30T12:00	6920	427	-21.3	-42.0	312	20	2.7
2025-07-30T12:00	6940	426	-21.4	-42.7	312	20	2.7
2025-07-30T12:00	6960	425	-21.5	-44.1	312	20	2.6
2025-07-30T12:00	6980	424	-21.7	-45.5	313	20	2.6
2025-07-30T12:00	7000	423	-21.9	-46.0	313	20	2.7
2025-07-30T12:00	7020	422	-22.0	-45.3	314	20	2.8
2025-07-30T12:00	7040	420	-22.1	-44.4	315	20	3.0
2025-07-30T12:00	7060	419	-22.3	-44.3	315	21	3.1
2025-07-30T12:00	7080	418	-22.5	-43.9	314	21	3.1
2025-07-30T12:00	7100	417	-22.7	-43.2	314	21	3.1
2025-07-30T12:00	7120	416	-22.8	-43.2	313	21	3.1
2025-07-30T12:00	7140	415	-23.0	-43.8	313	21	3.2
2025-07-30T12:00	7160	414	-23.3	-44.3	312	21	3.1
2025-07-30T12:00	7180	412	-23.4	-44.8	312	21	3.1
2025-07-30T12:00	7200	411	-23.5	-44.8	311	21	3.1
2025-07-30T12:00	7220	410	-23.7	-44.8	311	21	3.1
2025-07-30T12:00	7240	409	-23.9	-44.9	310	21	3.1
2025-07-30T12:00	7260	408	-24.1	-44.7	310	21	3.0
2025-07-30T12:00	7280	407	-24.3	-44.7	310	21	3.0
2025-07-30T12:00	7300	406	-24.4	-45.0	310	21	2.9
2025-07-30T12:00	7320	405	-24.5	-45.2	310	22	2.9
2025-07-30T12:00	7340	403	-24.6	-45.3	310	22	2.9
2025-07-30T12:00	7360	402	-24.8	-45.5	310	22	2.9
2025-07-30T12:00	7380	401	-25.0	-45.7	310	22	2.9
2025-07-30T12:00	7400	400	-25.2	-45.9	310	22	2.9
2025-07-30T12:00	7420	399	-25.3	-46.2	310	22	3.0
2025-07-30T12:00	7440	398	-25.4	-46.4	310	22	3.0
2025-07-30T12:00	7460	397	-25.6	-46.6	310	21	3.0
2025-07-30T12:00	7480	396	-25.6	-46.8	310	21	3.1
2025-07-30T12:00	7500	395	-25.7	-46.0	310	21	3.2
2025-07-30T12:00	7520	394	-26.0	-46.0	310	21	3.3
2025-07-30T12:00	7540	392	-26.0	-46.8	311	21	3.4
2025-07-30T12:00	7560	391	-26.1	-49.0	311	20	3.5
2025-07-30T12:00	7580	390	-26.1	-49.5	311	20	3.6
2025-07-30T12:00	7600	389	-26.2	-49.6	312	20	3.8
2025-07-30T12:00	7620	388	-26.2	-49.8	312	20	4.0
2025-07-30T12:00	7640	387	-26.4	-49.4	313	20	4.1
2025-07-30T12:00	7660	386	-26.4	-48.0	313	20	4.2
2025-07-30T12:00	7680	385	-26.6	-46.5	314	20	4.3
2025-07-30T12:00	7700	384	-26.8	-46.3	314	20	4.2
2025-07-30T12:00	7720	383	-26.9	-46.9	314	20	4.1
2025-07-30T12:00	7740	382	-27.2	-47.5	314	20	4.1
2025-07-30T12:00	7760	381	-27.3	-47.0	314	20	4.1
2025-07-30T12:00	7780	380	-27.5	-47.9	314	20	4.0
2025-07-30T12:00	7800	379	-27.6	-47.0	315	20	4.0
2025-07-30T12:00	7820	378	-27.7	-46.3	315	20	4.0
2025-07-30T12:00	7840	377	-27.9	-46.4	315	19	3.9
2025-07-30T12:00	7860	375	-27.9	-46.3	315	19	3.8
2025-07-30T12:00	7880	374	-28.0	-46.2	315	19	3.7
2025-07-30T12:00	7900	373	-28.2	-46.3	315	18	3.5
2025-07-30T12:00	7920	372	-28.3	-46.4	314	18	3.4
2025-07-30T12:00	7940	371	-28.5	-45.5	314	18	3.3
2025-07-30T12:00	7960	370	-28.7	-45.4	315	18	3.2
2025-07-30T12:00	7980	369	-28.9	-45.0	315	18	3.0
2025-07-30T12:00	8000	368	-29.1	-45.0	315	18	2.9
2025-07-30T12:00	8020	367	-29.3	-45.2	315	18	2.7
2025-07-30T12:00	8040	366	-29.4	-45.5	315	18	2.6
2025-07-30T12:00	8060	365	-29.5	-45.6	315	18	2.5
2025-07-30T12:00	8080	364	-29.6	-46.7	315	18	2.5
2025-07-30T12:00	8100	363	-29.9	-47.2	316	18	2.4
2025-07-30T12:00	8120	362	-29.9	-48.0	316	18	2.4
2025-07-30T12:00	8140	361	-30.2	-47.6	317	19	2.4
2025-07-30T12:00	8160	360	-30.3	-49.5	317	18	2.4
2025-07-30T12:00	8180	359	-30.5	-51.3	317	18	2.4
2025-07-30T12:00	8200	358	-30.7	-52.2	317	18	2.5
2025-07-30T12:00	8220	357	-30.9	-52.4	318	18	2.7
2025-07-30T12:00	8240	356	-31.0	-52.9	318	17	3.0
2025-07-30T12:00	8260	355	-31.1	-53.8	318	17	3.4
2025-07-30T12:00	8280	354	-31.3	-53.7	318	16	3.8
2025-07-30T12:00	8300	353	-31.4	-53.6	319	16	4.1
2025-07-30T12:00	8320	352	-31.5	-53.7	318	16	4.3
2025-07-30T12:00	8340	351	-31.7	-53.7	318	15	4.5
2025-07-30T12:00	8360	350	-31.8	-53.6	318	15	4.7
2025-07-30T12:00	8380	349	-32.0	-53.4	318	15	4.8
2025-07-30T12:00	8400	348	-32.2	-53.2	318	15	4.8
2025-07-30T12:00	8420	347	-32.3	-52.3	319	14	4.8
2025-07-30T12:00	8440	346	-32.4	-51.9	319	14	4.8
2025-07-30T12:00	8460	345	-32.6	-51.7	319	14	4.7
2025-07-30T12:00	8480	344	-32.7	-51.2	319	14	4.5
2025-07-30T12:00	8500	343	-33.0	-50.9	319	14	4.3
2025-07-30T12:00	8520	342	-33.1	-51.1	319	14	4.2
2025-07-30T12:00	8540	341	-33.1	-51.5	318	14	4.1
2025-07-30T12:00	8560	340	-33.3	-51.2	318	14	4.0
2025-07-30T12:00	8580	339	-33.5	-50.9	318	13	3.9
2025-07-30T12:00	8600	338	-33.8	-50.4	317	13	3.8
2025-07-30T12:00	8620	337	-34.0	-49.8	317	13	3.7
2025-07-30T12:00	8640	336	-34.2	-49.4	317	13	3.6
2025-07-30T12:00	8660	335	-34.4	-48.9	317	13	3.5
2025-07-30T12:00	8680	334	-34.6	-48.5	318	13	3.4
2025-07-30T12:00	8700	333	-34.7	-47.5	319	13	3.2
2025-07-30T12:00	8720	332	-34.8	-47.1	320	13	3.1
2025-07-30T12:00	8740	332	-35.0	-48.0	320	13	3.0
2025-07-30T12:00	8760	331	-35.2	-48.4	321	13	2.9
2025-07-30T12:00	8780	330	-35.3	-48.2	320	13	2.8
2025-07-30T12:00	8800	329	-35.5	-47.5	320	13	2.7
2025-07-30T12:00	8820	328	-35.7	-48.4	319	13	2.6
2025-07-30T12:00	8840	327	-35.9	-49.2	319	13	2.5
2025-07-30T12:00	8860	326	-36.0	-49.4	318	13	2.5
2025-07-30T12:00	8880	325	-36.3	-49.6	318	13	2.5
2025-07-30T12:00	8900	324	-36.5	-49.7	318	13	2.5
2025-07-30T12:00	8920	323	-36.6	-49.8	318	13	2.4
2025-07-30T12:00	8940	322	-36.8	-50.0	319	13	2.4
2025-07-30T12:00	8960	321	-36.9	-50.6	320	13	2.4
2025-07-30T12:00	8980	320	-37.2	-50.8	320	13	2.5
2025-07-30T12:00	9000	319	-37.3	-50.3	321	13	2.5
2025-07-30T12:00	9020	318	-37.6	-48.7	322	13	2.4
2025-07-30T12:00	9040	317	-37.7	-48.7	322	13	2.4
2025-07-30T12:00	9060	317	-37.9	-47.0	323	13	2.4
2025-07-30T12:00	9080	316	-37.9	-46.7	323	14	2.4
2025-07-30T12:00	9100	315	-38.2	-46.6	323	14	2.4
2025-07-30T12:00	9120	314	-38.3	-45.7	323	14	2.4
2025-07-30T12:00	9140	313	-38.5	-46.7	323	14	2.4
2025-07-30T12:00	9160	312	-38.6	-46.5	323	14	2.3
2025-07-30T12:00	9180	311	-38.9	-46.5	323	14	2.3
2025-07-30T12:00	9200	310	-39.1	-48.4	323	14	2.3
2025-07-30T12:00	9220	309	-39.3	-48.8	323	14	2.3
2025-07-30T12:00	9240	308	-39.4	-48.4	323	14	2.4
2025-07-30T12:00	9260	307	-39.6	-48.0	323	14	2.3
2025-07-30T12:00	9280	307	-39.8	-47.0	324	14	2.3
2025-07-30T12:00	9300	306	-40.0	-46.6	324	14	2.3
2025-07-30T12:00	9320	305	-40.2	-46.8	324	15	2.3
2025-07-30T12:00	9340	304	-40.3	-47.3	324	15	2.3
2025-07-30T12:00	9360	303	-40.5	-47.6	324	15	2.3
2025-07-30T12:00	9380	302	-40.6	-47.6	324	15	2.3
2025-07-30T12:00	9400	301	-40.9	-47.8	323	15	2.3
2025-07-30T12:00	9420	300	-41.0	-47.8	323	15	2.3
2025-07-30T12:00	9440	299	-41.3	-47.8	323	15	2.3
2025-07-30T12:00	9460	299	-41.5	-47.9	323	15	2.3
2025-07-30T12:00	9480	298	-41.6	-48.1	323	15	2.2
2025-07-30T12:00	9500	297	-41.8	-48.3	323	15	2.2
2025-07-30T12:00	9520	296	-42.0	-48.3	323	15	2.3
2025-07-30T12:00	9540	295	-42.2	-48.9	323	15	2.3
2025-07-30T12:00	9560	294	-42.3	-49.5	322	15	2.3
2025-07-30T12:00	9580	293	-42.4	-49.4	323	15	2.3
2025-07-30T12:00	9600	292	-42.6	-49.4	323	15	2.3
2025-07-30T12:00	9620	292	-42.9	-49.3	323	15	2.3
2025-07-30T12:00	9640	291	-43.1	-49.6	324	15	2.2
2025-07-30T12:00	9660	290	-43.2	-49.7	324	15	2.2
2025-07-30T12:00	9680	289	-43.5	-50.0	324	15	2.2
2025-07-30T12:00	9700	288	-43.6	-50.3	324	15	2.2
2025-07-30T12:00	9720	287	-43.8	-50.2	323	15	2.2
2025-07-30T12:00	9740	286	-44.0	-50.1	323	15	2.2
2025-07-30T12:00	9760	286	-44.1	-49.9	323	15	2.2
2025-07-30T12:00	9780	285	-44.3	-49.9	324	15	2.2
2025-07-30T12:00	9800	284	-44.5	-49.5	325	15	2.1
2025-07-30T12:00	9820	283	-44.7	-49.4	326	15	2.2
2025-07-30T12:00	9840	282	-44.9	-49.8	327	15	2.2
2025-07-30T12:00	9860	281	-45.1	-50.0	327	15	2.2
2025-07-30T12:00	9880	281	-45.2	-50.5	327	15	2.2
2025-07-30T12:00	9900	280	-45.4	-50.8	328	16	2.2
2025-07-30T12:00	9920	279	-45.5	-50.9	328	16	2.2
2025-07-30T12:00	9940	278	-45.7	-51.3	328	16	2.2
2025-07-30T12:00	9960	277	-45.8	-51.2	327	16	2.2
2025-07-30T12:00	9980	276	-46.0	-51.3	327	16	2.2
2025-07-30T12:00	10000	276	-46.1	-51.6	326	16	2.2
2025-07-30T12:00	10018	275	-46.2	-51.8	325	16	2.2
2025-07-30T12:00	10050	273	-46.5	-51.7	324	16	2.2
2025-07-30T12:00	10100	271	-46.8	-51.9	322	16	2.3
2025-07-30T12:00	10150	269	-47.2	-52.0	321	16	2.4
2025-07-30T12:00	10200	267	-47.7	-52.3	320	16	2.4
2025-07-30T12:00	10250	265	-48.1	-52.6	320	17	2.5
2025-07-30T12:00	10300	263	-48.5	-52.7	322	17	2.5
2025-07-30T12:00	10350	261	-48.9	-53.0	324	17	2.6
2025-07-30T12:00	10400	259	-49.1	-53.6	326	16	2.6
2025-07-30T12:00	10450	257	-49.6	-53.8	329	16	2.7
2025-07-30T12:00	10500	255	-50.0	-54.0	331	15	2.7
2025-07-30T12:00	10550	253	-50.3	-54.5	332	15	2.6
2025-07-30T12:00	10600	251	-50.6	-54.7	330	15	2.6
2025-07-30T12:00	10650	250	-50.9	-55.0	329	14	2.6
2025-07-30T12:00	10700	248	-51.3	-55.5	328	14	2.6
2025-07-30T12:00	10750	246	-51.7	-55.8	326	14	2.6
2025-07-30T12:00	10800	244	-51.9	-55.9	325	15	2.7
2025-07-30T12:00	10850	242	-52.2	-56.8	325	16	2.7
2025-07-30T12:00	10900	240	-52.4	-57.1	326	16	2.9
2025-07-30T12:00	10950	238	-52.2	-58.9	325	15	3.2
2025-07-30T12:00	11000	236	-51.8	-60.5	322	15	3.6
2025-07-30T12:00	11050	235	-51.5	-62.8	318	16	4.2
2025-07-30T12:00	11100	233	-51.4	-67.2	318	17	4.8
2025-07-30T12:00	11150	231	-51.3	-68.7	320	18	5.6
2025-07-30T12:00	11200	229	-50.8	-67.2	321	18	6.2
2025-07-30T12:00	11250	227	-50.8	-65.6	321	19	6.3
2025-07-30T12:00	11300	226	-50.9	-66.2	320	19	6.3
2025-07-30T12:00	11350	224	-50.7	-68.1	320	19	6.2
2025-07-30T12:00	11400	222	-50.0	-70.9	317	18	6.4
2025-07-30T12:00	11450	221	-49.6	-71.8	314	18	6.6
2025-07-30T12:00	11500	219	-48.9	-72.2	312	17	6.9
2025-07-30T12:00	11550	217	-48.1	-72.2	310	17	6.7
2025-07-30T12:00	11600	216	-47.9	-72.8	307	17	6.3
2025-07-30T12:00	11650	214	-47.7	-73.5	306	17	5.9
2025-07-30T12:00	11700	212	-47.4	-74.0	306	17	5.4
2025-07-30T12:00	11750	211	-47.1	-74.1	304	17	5.1
2025-07-30T12:00	11800	209	-47.5	-74.1	303	18	5.2
2025-07-30T12:00	11850	208	-47.9	-74.3	300	18	4.9
2025-07-30T12:00	11900	206	-48.1	-74.5	296	17	4.6
2025-07-30T12:00	11950	204	-48.4	-74.8	289	17	4.3
2025-07-30T12:00	12000	203	-48.5	-75.4	284	18	4.0
2025-07-30T12:00	12050	201	-48.7	-75.8	283	19	3.9
2025-07-30T12:00	12100	200	-48.9	-76.2	284	20	3.7
2025-07-30T12:00	12150	198	-48.6	-76.6	288	20	3.7
2025-07-30T12:00	12200	197	-48.6	-76.9	295	20	3.7
2025-07-30T12:00	12250	195	-48.4	-76.8	300	20	3.7
2025-07-30T12:00	12300	194	-48.2	-77.2	304	20	3.7
2025-07-30T12:00	12350	192	-48.5	-77.5	307	20	3.7
2025-07-30T12:00	12400	191	-48.7	-77.6	310	20	3.6
2025-07-30T12:00	12450	190	-48.8	-77.9	312	20	3.6
2025-07-30T12:00	12500	188	-48.6	-78.1	314	20	3.5
2025-07-30T12:00	12550	187	-48.5	-78.3	315	19	3.5
2025-07-30T12:00	12600	185	-48.6	-78.4	316	18	3.4
2025-07-30T12:00	12650	184	-48.7	-78.4	316	17	3.3
2025-07-30T12:00	12700	182	-48.8	-78.5	315	16	3.3
2025-07-30T12:00	12750	181	-48.7	-78.8	313	15	3.3
2025-07-30T12:00	12800	180	-48.7	-78.9	310	14	3.3
2025-07-30T12:00	12850	178	-48.8	-79.3	305	13	3.3
2025-07-30T12:00	12900	177	-48.9	-79.5	299	13	3.9
2025-07-30T12:00	12950	176	-49.0	-79.7	294	13	4.1
2025-07-30T12:00	13000	174	-49.3	-79.8	290	13	4.1
2025-07-30T12:00	13050	173	-49.1	-80.2	288	13	4.1
2025-07-30T12:00	13100	172	-48.8	-79.9	284	13	4.5
2025-07-30T12:00	13150	170	-48.5	-80.0	279	14	4.8
2025-07-30T12:00	13200	169	-48.6	-80.4	274	15	5.0
2025-07-30T12:00	13250	168	-48.9	-80.3	272	16	5.2
2025-07-30T12:00	13300	167	-49.0	-80.7	272	17	5.3
2025-07-30T12:00	13350	165	-49.2	-80.8	275	17	5.4
2025-07-30T12:00	13400	164	-49.3	-80.9	279	18	5.4
2025-07-30T12:00	13450	163	-49.5	-81.0	282	19	5.5
2025-07-30T12:00	13500	162	-49.6	-81.1	284	20	5.5
2025-07-30T12:00	13550	160	-50.0	-81.4	287	20	5.6
2025-07-30T12:00	13600	159	-50.0	-81.6	291	20	5.6
2025-07-30T12:00	13650	158	-49.6	-81.6	295	19	5.7
2025-07-30T12:00	13700	157	-49.6	-81.5	298	18	5.8
2025-07-30T12:00	13750	156	-49.6	-81.2	301	17	6.0
2025-07-30T12:00	13800	154	-49.6	-81.5	300	15	6.2
2025-07-30T12:00	13850	153	-49.9	-82.0	296	14	6.4
2025-07-30T12:00	13900	152	-49.6	-81.7	293	13	6.5
2025-07-30T12:00	13950	151	-49.8	-81.5	294	12	6.3
2025-07-30T12:00	14000	150	-49.9	-81.5	295	10	6.3
2025-07-30T12:00	14050	148	-50.1	-81.5	293	10	6.2
2025-07-30T12:00	14100	147	-50.1	-81.2	287	10	5.9
2025-07-30T12:00	14150	146	-50.3	-81.6	282	11	5.5
2025-07-30T12:00	14200	145	-50.5	-81.5	279	13	5.2
2025-07-30T12:00	14250	144	-50.6	-81.1	278	13	5.0
2025-07-30T12:00	14300	143	-50.6	-80.8	280	14	4.7
2025-07-30T12:00	14350	142	-50.5	-80.9	282	13	4.5
2025-07-30T12:00	14400	141	-50.3	-81.7	284	13	4.6
2025-07-30T12:00	14450	140	-50.1	-82.0	284	12	4.8
2025-07-30T12:00	14500	139	-50.2	-82.0	281	12	4.5
2025-07-30T12:00	14550	138	-50.3	-82.1	279	12	4.1
2025-07-30T12:00	14600	136	-50.5	-82.4	277	12	4.0
2025-07-30T12:00	14650	135	-50.8	-82.5	274	12	3.9
2025-07-30T12:00	14700	134	-50.7	-82.3	267	12	4.1
2025-07-30T12:00	14750	133	-50.9	-81.8	262	12	4.3
2025-07-30T12:00	14800	132	-51.2	-81.6	261	12	4.5
2025-07-30T12:00	14850	131	-51.3	-81.9	265	12	4.6
2025-07-30T12:00	14900	130	-51.3	-81.9	270	12	4.7
2025-07-30T12:00	14950	129	-51.5	-82.1	276	12	4.7
2025-07-30T12:00	15000	128	-51.8	-82.5	281	12	4.7
2025-07-30T12:00	15050	127	-51.7	-82.7	284	11	4.8
2025-07-30T12:00	15100	126	-51.8	-82.8	281	11	4.9
2025-07-30T12:00	15150	125	-52.2	-83.0	276	10	4.9
2025-07-30T12:00	15200	124	-52.5	-83.0	271	11	5.0
2025-07-30T12:00	15250	123	-52.6	-82.6	268	12	5.1
2025-07-30T12:00	15300	122	-52.7	-82.6	267	13	5.1
2025-07-30T12:00	15350	122	-52.8	-83.2	269	14	5.1
2025-07-30T12:00	15400	121	-52.4	-83.3	274	14	5.0
2025-07-30T12:00	15450	120	-52.6	-83.1	279	15	5.0
2025-07-30T12:00	15500	119	-52.8	-83.2	283	15	4.9
2025-07-30T12:00	15550	118	-53.0	-83.7	285	14	4.9
2025-07-30T12:00	15600	117	-53.2	-83.7	287	14	4.8
2025-07-30T12:00	15650	116	-53.4	-83.7	289	13	4.8
2025-07-30T12:00	15700	115	-53.5	-83.7	290	12	4.8
2025-07-30T12:00	15750	114	-53.7	-84.0	290	11	4.9
2025-07-30T12:00	15800	113	-54.0	-84.3	290	10	4.9
2025-07-30T12:00	15850	112	-54.0	-84.4	290	10	5.0
2025-07-30T12:00	15900	112	-53.8	-84.5	291	10	5.1
2025-07-30T12:00	15950	111	-53.7	-84.5	291	10	5.2
2025-07-30T12:00	16000	110	-53.9	-84.7	291	10	5.3
2025-07-30T12:00	16050	109	-54.0	-84.6	293	9	5.4
2025-07-30T12:00	16100	108	-54.2	-84.3	296	9	5.6
2025-07-30T12:00	16150	107	-54.4	-84.0	296	8	5.8
2025-07-30T12:00	16200	107	-54.7	-84.2	291	7	5.9
2025-07-30T12:00	16250	106	-54.7	-84.3	280	7	6.0
2025-07-30T12:00	16300	105	-54.7	-83.8	268	7	6.1
2025-07-30T12:00	16350	104	-54.8	-83.1	259	8	6.1
2025-07-30T12:00	16400	103	-55.1	-83.5	259	8	5.9
2025-07-30T12:00	16450	102	-55.1	-84.0	266	8	5.9
2025-07-30T12:00	16500	102	-55.2	-84.2	276	8	5.9
2025-07-30T12:00	16550	101	-55.1	-84.3	282	8	5.9
2025-07-30T12:00	16600	100	-54.8	-84.5	278	7	5.9
2025-07-30T12:00	16650	99	-54.8	-84.7	267	7	5.8
2025-07-30T12:00	16700	98	-54.8	-84.7	259	8	5.8
2025-07-30T12:00	16750	98	-54.8	-84.8	255	9	5.8
2025-07-30T12:00	16800	97	-55.1	-84.9	256	9	5.8
2025-07-30T12:00	16850	96	-55.2	-85.0	261	10	5.8
2025-07-30T12:00	16900	95	-54.7	-85.1	268	9	5.9
2025-07-30T12:00	16950	95	-54.6	-85.2	275	8	6.2
2025-07-30T12:00	17000	94	-54.4	-85.3	278	8	6.6
2025-07-30T12:00	17050	93	-54.3	-85.3	280	8	6.9
2025-07-30T12:00	17100	93	-54.5	-85.3	280	9	6.9
2025-07-30T12:00	17150	92	-54.3	-85.1	280	10	7.0
2025-07-30T12:00	17200	91	-54.1	-85.2	283	10	7.1
2025-07-30T12:00	17250	90	-53.7	-85.2	289	9	7.3
2025-07-30T12:00	17300	90	-53.8	-85.2	297	8	7.5
2025-07-30T12:00	17350	89	-54.0	-85.2	307	7	7.6
2025-07-30T12:00	17400	88	-54.2	-85.2	320	6	7.8
2025-07-30T12:00	17450	88	-54.2	-85.2	334	4	7.8
2025-07-30T12:00	17500	87	-54.4	-85.4	343	4	7.9
2025-07-30T12:00	17550	86	-54.4	-85.4	336	3	7.9
2025-07-30T12:00	17600	86	-54.5	-85.3	319	3	8.8
2025-07-30T12:00	17650	85	-54.7	-85.2	303	3	9.9
2025-07-30T12:00	17700	84	-54.9	-85.1	294	3	9.2
2025-07-30T12:00	17750	84	-54.9	-85.1	288	4	8.7
2025-07-30T12:00	17800	83	-55.0	-85.2	280	4	8.5
2025-07-30T12:00	17850	82	-55.1	-85.3	275	4	8.4
2025-07-30T12:00	17900	82	-54.8	-85.4	281	3	8.4
2025-07-30T12:00	17950	81	-54.6	-85.5	295	3	8.4
2025-07-30T12:00	18000	80	-54.4	-85.4	316	2	8.5
2025-07-30T12:00	18050	80	-54.1	-85.3	349	1	8.5
2025-07-30T12:00	18100	79	-53.9	-85.2	58	1	8.5
2025-07-30T12:00	18150	79	-53.8	-85.1	117	1	8.4
2025-07-30T12:00	18200	78	-54.0	-85.2	141	2	8.4
2025-07-30T12:00	18250	77	-54.4	-85.5	154	2	8.4
2025-07-30T12:00	18300	77	-54.5	-85.4	149	1	8.4
2025-07-30T12:00	18350	76	-54.6	-85.3	118	1	9.1
2025-07-30T12:00	18400	76	-54.8	-85.4	109	2	10.5
2025-07-30T12:00	18450	75	-54.7	-85.4	115	3	10.1
2025-07-30T12:00	18500	74	-54.8	-85.5	123	4	9.8
2025-07-30T12:00	18550	74	-55.1	-85.6	127	4	9.5
2025-07-30T12:00	18600	73	-55.4	-85.6	130	4	9.2
2025-07-30T12:00	18650	73	-55.4	-85.6	136	4	9.0
2025-07-30T12:00	18700	72	-55.6	-85.8	148	4	8.7
2025-07-30T12:00	18750	72	-55.8	-86.0	164	4	8.5
2025-07-30T12:00	18800	71	-55.8	-85.9	183	5	8.2
2025-07-30T12:00	18850	70	-56.0	-85.8	204	5	8.1
2025-07-30T12:00	18900	70	-56.0	-85.8	223	5	7.9
2025-07-30T12:00	18950	69	-55.9	-86.1	237	5	7.8
2025-07-30T12:00	19000	69	-55.5	-86.1	241	5	7.8
2025-07-30T12:00	19050	68	-55.0	-85.8	240	5	7.9
2025-07-30T12:00	19100	68	-54.9	-85.7	243	4	8.0
2025-07-30T12:00	19150	67	-55.2	-85.7	248	4	8.2
2025-07-30T12:00	19200	67	-55.3	-85.6	246	4	8.2
2025-07-30T12:00	19250	66	-55.3	-85.6	236	4	8.2
2025-07-30T12:00	19300	66	-55.5	-85.8	226	4	8.3
2025-07-30T12:00	19350	65	-55.4	-85.8	224	4	8.4
2025-07-30T12:00	19400	65	-55.5	-86.0	230	3	8.4
2025-07-30T12:00	19450	64	-55.3	-86.3	233	3	8.5
2025-07-30T12:00	19500	64	-54.8	-86.2	229	3	8.6
2025-07-30T12:00	19550	63	-54.9	-86.1	215	2	8.8
2025-07-30T12:00	19600	63	-54.8	-85.9	131	1	8.9
2025-07-30T12:00	19650	62	-54.9	-85.9	104	2	9.0
2025-07-30T12:00	19700	62	-54.8	-85.9	108	4	9.1
2025-07-30T12:00	19750	61	-54.7	-85.9	109	4	9.2
2025-07-30T12:00	19800	61	-54.7	-86.0	100	4	9.3
2025-07-30T12:00	19850	60	-54.5	-85.9	84	4	9.4
2025-07-30T12:00	19900	60	-54.5	-85.7	71	5	9.5
2025-07-30T12:00	19950	59	-54.9	-85.7	66	5	9.6
2025-07-30T12:00	20000	59	-55.2	-85.8	68	5	9.6
2025-07-30T12:00	20050	58	-55.4		77	5	9.6
2025-07-30T12:00	20100	58	-55.5		93	4	9.7
2025-07-30T12:00	20150	57	-55.4		111	4	9.8
2025-07-30T12:00	20200	57	-55.3		129	4	9.8
2025-07-30T12:00	20250	57	-55.3		147	3	9.8
2025-07-30T12:00	20300	56	-55.3		167	3	9.8
2025-07-30T12:00	20350	56	-55.5		186	2	9.8
2025-07-30T12:00	20400	55	-55.4		197	2	9.8
2025-07-30T12:00	20450	55	-55.1		186	1	9.8
2025-07-30T12:00	20500	54	-54.9		134	2	9.8
2025-07-30T12:00	20550	54	-54.6		115	3	9.9
2025-07-30T12:00	20600	54	-54.7		116	4	10.1
2025-07-30T12:00	20650	53	-54.5		123	5	10.2
2025-07-30T12:00	20700	53	-54.5		131	5	10.3
2025-07-30T12:00	20750	52	-53.9		135	6	10.3
2025-07-30T12:00	20800	52	-53.5		135	6	10.5
2025-07-30T12:00	20850	51	-53.3		133	5	10.6
2025-07-30T12:00	20900	51	-53.2		127	3	10.7
2025-07-30T12:00	20950	51	-53.2		114	3	10.8
2025-07-30T12:00	21000	50	-53.1		107	4	10.9
2025-07-30T12:00	21050	50	-52.9		110	5	11.0
2025-07-30T12:00	21100	49	-52.8		117	7	11.1
2025-07-30T12:00	21150	49	-52.6		122	8	11.1
2025-07-30T12:00	21200	49	-52.5		127	9	11.3
2025-07-30T12:00	21250	48	-52.5		133	9	11.4
2025-07-30T12:00	21300	48	-52.3		137	8	11.4
2025-07-30T12:00	21350	48	-52.2		138	6	11.5
2025-07-30T12:00	21400	47	-52.4		138	5	11.6
2025-07-30T12:00	21450	47	-52.6		136	4	11.6
2025-07-30T12:00	21500	47	-52.6		124	3	11.7
2025-07-30T12:00	21550	46	-52.6		91	2	11.7
2025-07-30T12:00	21600	46	-52.6		60	3	11.8
2025-07-30T12:00	21650	45	-52.7		49	4	11.9
2025-07-30T12:00	21700	45	-52.8		51	5	11.9
2025-07-30T12:00	21750	45	-52.9		58	6	11.8
2025-07-30T12:00	21800	44	-53.0		66	7	11.8
2025-07-30T12:00	21850	44	-53.3		75	8	11.8
2025-07-30T12:00	21900	44	-53.5		83	8	11.8
2025-07-30T12:00	21950	43	-53.6		91	9	11.8
2025-07-30T12:00	22000	43	-53.6		98	9	11.8
2025-07-30T12:00	22050	43	-53.6		105	9	11.7
2025-07-30T12:00	22100	42	-53.5		113	9	11.6
2025-07-30T12:00	22150	42	-53.2		121	9	11.7
2025-07-30T12:00	22200	42	-53.1		127	9	11.7
2025-07-30T12:00	22250	41	-53.2		133	9	11.7
2025-07-30T12:00	22300	41	-53.3		139	9	11.7
2025-07-30T12:00	22350	41	-53.1		145	8	11.7
2025-07-30T12:00	22400	40	-53.0		149	7	11.7
2025-07-30T12:00	22450	40	-52.8		148	6	11.8
2025-07-30T12:00	22500	40	-52.8		140	5	11.9
2025-07-30T12:00	22550	40	-52.9		122	4	11.8
2025-07-30T12:00	22600	39	-52.9		101	5	11.8
2025-07-30T12:00	22650	39	-52.7		90	6	11.8
2025-07-30T12:00	22700	39	-52.7		88	7	11.8
2025-07-30T12:00	22750	38	-52.9		93	8	11.8
2025-07-30T12:00	22800	38	-52.8		102	8	11.7
2025-07-30T12:00	22850	38	-52.4		108	9	11.7
2025-07-30T12:00	22900	37	-52.0		110	9	11.7
2025-07-30T12:00	22950	37	-51.8		106	8	11.7
2025-07-30T12:00	23000	37	-51.7		101	8	11.7
2025-07-30T12:00	23050	37	-51.9		95	8	11.7
2025-07-30T12:00	23100	36	-51.9		91	9	11.7
2025-07-30T12:00	23150	36	-52.0		89	9	11.7
2025-07-30T12:00	23200	36	-52.0		87	10	11.7
2025-07-30T12:00	23250	35	-52.0		89	10	11.7
2025-07-30T12:00	23300	35	-52.2		92	11	11.6
2025-07-30T12:00	23350	35	-52.4		96	12	11.6
2025-07-30T12:00	23400	35	-52.7		100	12	11.6
2025-07-30T12:00	23450	34	-52.9		105	12	11.5
2025-07-30T12:00	23500	34	-53.1		110	11	11.5
2025-07-30T12:00	23550	34	-53.1		114	11	11.5
2025-07-30T12:00	23600	34	-53.2		115	11	11.5
2025-07-30T12:00	23650	33	-53.3		115	10	11.4
2025-07-30T12:00	23700	33	-53.0		114	10	11.4
2025-07-30T12:00	23750	33	-52.2		115	9	11.4
2025-07-30T12:00	23800	33	-51.5		120	9	11.5
2025-07-30T12:00	23850	32	-51.0		127	9	11.7
2025-07-30T12:00	23900	32	-50.6		132	9	11.9
2025-07-30T12:00	23950	32	-50.6		135	8	12.2
2025-07-30T12:00	24000	32	-50.7		135	7	12.4
2025-07-30T12:00	24050	31	-50.9		134	6	12.6
2025-07-30T12:00	24100	31	-51.0		132	5	12.8
2025-07-30T12:00	24150	31	-51.0		124	4	12.9
2025-07-30T12:00	24200	31	-50.8		107	3	12.9
2025-07-30T12:00	24250	30	-50.7		94	3	13.0
2025-07-30T12:00	24300	30	-50.6		93	4	13.0
2025-07-30T12:00	24350	30	-50.6		95	4	13.0
2025-07-30T12:00	24400	30	-50.5		98	3	13.1
2025-07-30T12:00	24450	29	-50.6		103	3	13.0
2025-07-30T12:00	24500	29	-50.6		109	2	12.9
2025-07-30T12:00	24550	29	-50.4		109	2	12.9
2025-07-30T12:00	24600	29	-50.4		91	1	13.0
2025-07-30T12:00	24650	29	-50.2		73	1	13.0
2025-07-30T12:00	24700	28	-50.0		77	2	13.1
2025-07-30T12:00	24750	28	-50.0		89	3	13.4
2025-07-30T12:00	24800	28	-49.8		102	3	13.5
2025-07-30T12:00	24850	28	-49.5		115	3	13.5
2025-07-30T12:00	24900	28	-49.4		123	3	13.5
2025-07-30T12:00	24950	27	-49.2		114	3	13.7
2025-07-30T12:00	25000	27	-49.1		89	3	13.7
2025-07-30T12:00	25050	27	-49.0		67	4	13.7
2025-07-30T12:00	25100	27	-49.0		54	5	13.7
2025-07-30T12:00	25150	26	-49.0		47	6	13.7
2025-07-30T12:00	25200	26	-49.2		46	6	13.7
2025-07-30T12:00	25250	26	-49.4		49	7	13.7
2025-07-30T12:00	25300	26	-49.7		54	8	13.6
2025-07-30T12:00	25350	26	-49.9		59	9	13.5
2025-07-30T12:00	25400	26	-50.0		62	10	13.5
2025-07-30T12:00	25450	25	-50.1		65	11	13.5
2025-07-30T12:00	25500	25	-50.3		67	11	13.4
2025-07-30T12:00	25550	25	-50.5		69	12	13.3
2025-07-30T12:00	25600	25	-50.6		73	12	13.2
2025-07-30T12:00	25650	25	-50.6		78	13	13.2
2025-07-30T12:00	25700	24	-50.5		82	13	13.1
2025-07-30T12:00	25750	24	-50.7		87	14	13.0
2025-07-30T12:00	25800	24	-50.8		92	13	13.0
2025-07-30T12:00	25850	24	-50.8		97	12	12.9
2025-07-30T12:00	25900	24	-50.9		100	11	12.9
2025-07-30T12:00	25950	23	-50.8		100	10	12.8
2025-07-30T12:00	26000	23	-50.8		96	9	12.7
2025-07-30T12:00	26050	23	-50.7		87	9	12.5
2025-07-30T12:00	26100	23	-50.4		82	10	12.5
2025-07-30T12:00	26150	23	-50.2		81	11	12.5
2025-07-30T12:00	26200	23	-49.9		85	12	12.5
2025-07-30T12:00	26250	22	-49.8		89	12	12.5
2025-07-30T12:00	26300	22	-49.8		93	12	12.4
2025-07-30T12:00	26350	22	-49.8		92	11	12.4
2025-07-30T12:00	26400	22	-49.7		86	10	12.4
2025-07-30T12:00	26450	22	-49.6		81	10	12.4
2025-07-30T12:00	26500	22	-49.4		80	11	12.3
2025-07-30T12:00	26550	21	-49.1		85	12	12.3
2025-07-30T12:00	26600	21	-48.7		92	13	12.2
2025-07-30T12:00	26650	21	-48.6		97	14	12.2
2025-07-30T12:00	26700	21	-48.6		99	13	12.1
2025-07-30T12:00	26750	21	-48.6		97	13	12.0
2025-07-30T12:00	26800	21	-48.5		92	12	11.9
2025-07-30T12:00	26850	20	-48.3		87	11	11.8
2025-07-30T12:00	26900	20	-48.2		87	12	11.9
2025-07-30T12:00	26950	20	-48.0		90	12	11.9
2025-07-30T12:00	27000	20	-47.8		92	13	11.9
2025-07-30T12:00	27050	20	-47.4		92	12	12.0
2025-07-30T12:00	27100	20	-47.1		92	11	12.0
2025-07-30T12:00	27150	20	-47.0		90	11	12.0
2025-07-30T12:00	27200	19	-46.9		87	10	12.0
2025-07-30T12:00	27250	19	-46.8		82	10	12.1
2025-07-30T12:00	27300	19	-46.8		81	11	12.1
2025-07-30T12:00	27350	19	-46.7		82	11	12.1
2025-07-30T12:00	27400	19	-46.5		83	12	12.2
2025-07-30T12:00	27450	19	-46.5		84	13	12.1
2025-07-30T12:00	27500	19	-46.5		85	13	12.1
2025-07-30T12:00	27550	18	-46.4		87	13	12.0
2025-07-30T12:00	27600	18	-46.4		89	13	12.0
2025-07-30T12:00	27650	18	-46.4		89	13	12.0
2025-07-30T12:00	27700	18	-46.3		89	13	12.0
2025-07-30T12:00	27750	18	-46.3		89	13	11.9
2025-07-30T12:00	27800	18	-46.3		89	13	11.9
2025-07-30T12:00	27850	18	-46.2		89	14	11.9
2025-07-30T12:00	27900	17	-45.9		90	14	11.8
2025-07-30T12:00	27950	17	-45.7		92	15	11.8
2025-07-30T12:00	28000	17	-45.6		94	15	11.7
2025-07-30T12:00	28050	17	-45.5		96	15	11.6
2025-07-30T12:00	28100	17	-45.5		96	14	11.6
2025-07-30T12:00	28150	17	-45.5		97	13	11.6
2025-07-30T12:00	28200	17	-45.6		97	12	11.6
2025-07-30T12:00	28250	17	-45.6		96	11	11.5
2025-07-30T12:00	28300	16	-45.4		90	11	11.4
2025-07-30T12:00	28350	16	-45.3		83	11	11.4
2025-07-30T12:00	28400	16	-45.2		79	12	11.3
2025-07-30T12:00	28450	16	-45.1		78	14	11.2
2025-07-30T12:00	28500	16	-45.1		80	15	11.2
2025-07-30T12:00	28550	16	-45.1		82	16	11.2
2025-07-30T12:00	28600	16	-45.2		85	17	11.1
2025-07-30T12:00	28650	16	-45.3		89	17	11.1
2025-07-30T12:00	28700	15	-45.3		92	16	11.1
2025-07-30T12:00	28750	15	-45.3		95	15	10.9
2025-07-30T12:00	28800	15	-45.4		97	14	10.8
2025-07-30T12:00	28850	15	-45.5		98	14	10.8
2025-07-30T12:00	28900	15	-45.5		98	13	10.7
2025-07-30T12:00	28950	15	-45.4		97	13	10.6
2025-07-30T12:00	29000	15	-45.4		96	14	10.6
2025-07-30T12:00	29050	15	-45.3		95	14	10.5
2025-07-30T12:00	29100	15	-45.1		95	14	10.5
2025-07-30T12:00	29150	14	-45.1		94	14	10.4
2025-07-30T12:00	29200	14	-45.0		93	14	10.3
2025-07-30T12:00	29250	14	-44.9		93	15	10.3
2025-07-30T12:00	29300	14	-44.9		93	16	10.4
2025-07-30T12:00	29350	14	-44.9		95	16	10.3
2025-07-30T12:00	29400	14	-44.7		97	17	10.2
2025-07-30T12:00	29450	14	-44.6		99	16	10.2
2025-07-30T12:00	29500	14	-44.7		100	16	10.1
2025-07-30T12:00	29550	14	-44.6		101	16	10.1
2025-07-30T12:00	29600	14	-44.4		103	16	10.0
2025-07-30T12:00	29650	13	-44.2		105	16	10.0
2025-07-30T12:00	29700	13	-44.2		108	16	9.9
2025-07-30T12:00	29750	13	-44.1		109	15	9.9
2025-07-30T12:00	29800	13	-43.9		110	14	9.8
2025-07-30T12:00	29850	13	-43.7		108	13	9.7
2025-07-30T12:00	29900	13	-43.8		103	12	9.7
2025-07-30T12:00	29950	13	-43.7		95	11	9.6
2025-07-30T12:00	30000	13	-43.3		88	11	9.6
2025-07-30T12:00	30050	13	-43.1		86	12	9.5
2025-07-30T12:00	30100	13	-42.9		87	12	9.6
2025-07-30T12:00	30150	12	-42.8		89	12	9.5
2025-07-30T12:00	30200	12	-42.6		91	13	9.4
2025-07-30T12:00	30250	12	-42.3		91	13	9.4
2025-07-30T12:00	30300	12	-41.9		89	14	9.4
2025-07-30T12:00	30350	12	-41.7		87	14	9.3
2025-07-30T12:00	30400	12	-41.6		85	15	9.2
2025-07-30T12:00	30450	12	-41.5		85	16	9.1
2025-07-30T12:00	30500	12	-41.5		86	16	9.1
2025-07-30T12:00	30550	12	-41.4		87	17	9.1
2025-07-30T12:00	30600	12	-41.2		88	17	9.1
2025-07-30T12:00	30650	12	-41.2		89	17	9.0
2025-07-30T12:00	30700	11	-41.2		90	17	8.9
2025-07-30T12:00	30750	11	-41.2		91	17	8.9
2025-07-30T12:00	30800	11	-41.0		91	16	8.8
2025-07-30T12:00	30850	11	-40.7		89	16	8.7
2025-07-30T12:00	30900	11	-40.4		87	16	8.7
2025-07-30T12:00	30950	11	-40.3		84	16	8.6
2025-07-30T12:00	31000	11	-40.2		82	16	8.5
2025-07-30T12:00	31050	11	-40.0		82	17	8.5
2025-07-30T12:00	31100	11	-39.9		84	18	8.4
2025-07-30T12:00	31150	11	-39.8		88	18	8.2
2025-07-30T12:00	31200	11	-39.8		90	18	8.1
2025-07-30T12:00	31250	11	-39.9		91	18	8.1
2025-07-30T12:00	31300	11	-39.7		90	17	8.1
2025-07-30T12:00	31350	10	-39.6		87	17	8.0
2025-07-30T12:00	31400	10	-39.4		84	18	7.9
2025-07-30T12:00	31450	10	-39.2		82	18	7.9
2025-07-30T12:00	31500	10	-39.3		82	18	7.9
2025-07-30T12:00	31550	10	-39.3		82	19	7.8
2025-07-30T12:00	31600	10	-39.3		82	20	7.7
2025-07-30T12:00	31650	10	-39.4		83	20	7.7
2025-07-30T12:00	31700	10	-39.4		83	21	7.6
2025-07-30T12:00	31750	10	-39.3		84	21	7.5
2025-07-30T12:00	31800	10	-39.2		85	22	7.4
2025-07-30T12:00	31850	10	-39.1		86	22	7.3
2025-07-30T12:00	31900	10	-39.0		88	22	7.3
2025-07-30T12:00	31950	10	-38.9		90	22	7.3
2025-07-30T12:00	32000	9	-38.8		92	22	7.3
2025-07-30T12:00	32050	9	-38.9		95	22	7.2
2025-07-30T12:00	32100	9	-39.0		98	22	7.1
2025-07-30T12:00	32150	9	-38.9		101	21	7.0
2025-07-30T12:00	32200	9	-38.5		102	21	7.1
2025-07-30T12:00	32250	9	-38.2		102	20	7.0
2025-07-30T12:00	32300	9	-38.0		103	20	6.9
2025-07-30T12:00	32350	9	-38.0		103	19	6.9
2025-07-30T12:00	32400	9	-37.9		103	18	6.9
2025-07-30T12:00	32450	9	-37.8		103	18	6.8
2025-07-30T12:00	32500	9	-37.7		105	17	6.9
2025-07-30T12:00	32550	9	-37.7		106	16	6.8
2025-07-30T12:00	32600	9	-37.6		104	15	6.7
2025-07-30T12:00	32650	9	-37.4		100	15	6.7
2025-07-30T12:00	32700	9	-37.2		96	16	6.8
2025-07-30T12:00	32750	9	-37.0		97	18	6.7
2025-07-30T12:00	32800	8	-36.8		100	18	6.4
2025-07-30T12:00	32850	8	-36.7		102	18	6.4
2025-07-30T12:00	32900	8	-36.4		103	17	6.4
2025-07-30T12:00	32950	8	-36.0		101	17	6.3
2025-07-30T12:00	33000	8	-35.6		98	16	6.2
2025-07-30T12:00	33050	8	-35.4		96	16	6.2
2025-07-30T12:00	33100	8	-35.3		94	16	6.3
2025-07-30T12:00	33150	8	-35.2		94	17	6.1
2025-07-30T12:00	33200	8	-35.0		93	17	6.0
2025-07-30T12:00	33250	8	-34.8		93	18	6.1
2025-07-30T12:00	33300	8	-34.7		95	19	6.1
2025-07-30T12:00	33350	8	-34.7		97	19	5.8
2025-07-30T12:00	33400	8	-34.8		99	19	5.8
2025-07-30T12:00	33450	8	-34.6		102	18	5.9
2025-07-30T12:00	33500	8	-34.4		104	17	
2025-07-30T12:00	33550	8	-34.2		104	17	
2025-07-30T12:00	33600	8	-33.9		103	18	
2025-07-30T12:00	33650	7	-33.6		103	18	
2025-07-30T12:00	33700	7	-33.3		104	17	
2025-07-30T12:00	33750	7	-33.3		109	16	
2025-07-30T12:00	33800	7	-33.4		114	16	
2025-07-30T12:00	33850	7	-33.5		119	15	
2025-07-30T12:00	33900	7	-33.5		121	15	
2025-07-30T12:00	33950	7	-33.4		119	14	
2025-07-30T12:00	34000	7	-33.1		112	14	
2025-07-30T12:00	34050	7	-32.8		105	14	
2025-07-30T12:00	34100	7	-32.7		101	15	
2025-07-30T12:00	34150	7	-32.7		101	15	
2025-07-30T12:00	34200	7	-32.5		103	15	
2025-07-31T00:00	491	963	15.9	12.8	109	0	
2025-07-31T00:00	501	961	16.3	12.8	206	1	
2025-07-31T00:00	520	959	16.4	12.5	212	1	
2025-07-31T00:00	540	957	16.8	12.0	217	1	
2025-07-31T00:00	560	955	17.3	11.7	221	1	
2025-07-31T00:00	580	953	17.4	11.7	230	1	
2025-07-31T00:00	600	950	17.5	11.4	241	1	
2025-07-31T00:00	620	948	17.4	11.4	255	1	
2025-07-31T00:00	640	946	17.3	11.3	274	1	
2025-07-31T00:00	660	944	17.3	11.1	298	1	
2025-07-31T00:00	680	942	17.2	11.1	322	1	
2025-07-31T00:00	700	939	17.2	11.3	337	1	
2025-07-31T00:00	720	937	17.0	11.3	348	1	
2025-07-31T00:00	740	935	16.9	11.3	358	1	
2025-07-31T00:00	760	933	16.6	11.2	6	1	
2025-07-31T00:00	780	931	16.4	11.2	12	1	
2025-07-31T00:00	800	928	16.2	11.3	16	2	
2025-07-31T00:00	820	926	16.0	11.3	18	2	
2025-07-31T00:00	840	924	15.9	11.3	19	2	
2025-07-31T00:00	860	922	15.7	11.3	19	2	
2025-07-31T00:00	880	920	15.6	11.2	19	2	
2025-07-31T00:00	900	918	15.4	11.1	19	2	
2025-07-31T00:00	920	915	15.2	11.0	18	2	
2025-07-31T00:00	940	913	15.0	10.9	17	2	
2025-07-31T00:00	960	911	14.9	10.6	14	2	
2025-07-31T00:00	980	909	14.7	10.5	7	2	
2025-07-31T00:00	1000	907	14.5	10.5	356	1	
2025-07-31T00:00	1020	905	14.4	10.4	337	1	
2025-07-31T00:00	1040	903	14.4	10.5	316	1	
2025-07-31T00:00	1060	900	14.2	10.5	299	1	
2025-07-31T00:00	1080	898	14.1	10.5	286	1	
2025-07-31T00:00	1100	896	13.9	10.5	276	2	
2025-07-31T00:00	1120	894	13.8	10.3	268	2	
2025-07-31T00:00	1140	892	13.8	10.0	260	2	
2025-07-31T00:00	1160	890	13.6	9.9	255	2	
2025-07-31T00:00	1180	888	13.5	9.8	252	2	
2025-07-31T00:00	1200	886	13.4	9.7	250	2	
2025-07-31T00:00	1220	883	13.2	9.5	249	2	
2025-07-31T00:00	1240	881	13.0	9.4	249	2	
2025-07-31T00:00	1260	879	12.9	9.3	249	2	
2025-07-31T00:00	1280	877	12.7	9.2	250	2	
2025-07-31T00:00	1300	875	12.6	9.2	251	3	
2025-07-31T00:00	1320	873	12.4	9.2	252	3	
2025-07-31T00:00	1340	871	12.2	9.1	252	3	
2025-07-31T00:00	1360	869	12.0	9.0	252	3	
2025-07-31T00:00	1380	867	11.9	9.0	250	3	
2025-07-31T00:00	1400	865	11.7	8.9	248	3	
2025-07-31T00:00	1420	863	11.5	8.8	246	3	
2025-07-31T00:00	1440	861	11.3	8.8	244	3	
2025-07-31T00:00	1460	859	11.1	8.8	243	3	
2025-07-31T00:00	1480	857	10.9	8.7	243	3	
2025-07-31T00:00	1500	855	10.8	8.6	245	3	
2025-07-31T00:00	1520	853	10.6	8.5	248	3	
2025-07-31T00:00	1540	850	10.4	8.5	250	3	
2025-07-31T00:00	1560	848	10.3	8.3	250	3	
2025-07-31T00:00	1580	846	10.2	8.2	248	4	
2025-07-31T00:00	1600	844	10.0	8.1	246	4	
2025-07-31T00:00	1620	842	9.8	8.0	243	4	
2025-07-31T00:00	1640	840	9.7	7.5	242	4	
2025-07-31T00:00	1660	838	9.7	6.8	241	4	
2025-07-31T00:00	1680	836	9.7	6.5	240	4	
2025-07-31T00:00	1700	834	9.5	6.3	239	4	
2025-07-31T00:00	1720	832	9.4	6.1	238	4	
2025-07-31T00:00	1740	830	9.3	5.9	236	4	
2025-07-31T00:00	1760	828	9.1	5.8	236	4	
2025-07-31T00:00	1780	826	8.9	5.8	235	4	
2025-07-31T00:00	1800	824	8.7	5.8	237	4	
2025-07-31T00:00	1820	822	8.6	5.8	238	5	
2025-07-31T00:00	1840	820	8.4	5.8	239	5	
2025-07-31T00:00	1860	818	8.2	5.8	241	5	
2025-07-31T00:00	1880	816	8.1	5.7	242	5	
2025-07-31T00:00	1900	814	7.9	5.6	243	5	
2025-07-31T00:00	1920	813	7.8	5.3	244	5	
2025-07-31T00:00	1940	811	7.6	5.2	246	5	
2025-07-31T00:00	1960	809	7.4	5.3	249	4	
2025-07-31T00:00	1980	806	7.2	5.2	252	4	
2025-07-31T00:00	2000	805	7.1	5.0	255	4	
2025-07-31T00:00	2020	803	6.9	4.9	256	3	
2025-07-31T00:00	2040	801	6.7	4.8	256	3	
2025-07-31T00:00	2060	799	6.6	4.7	254	4	
2025-07-31T00:00	2080	797	6.5	4.6	252	4	
2025-07-31T00:00	2100	795	6.3	4.5	251	4	
2025-07-31T00:00	2120	793	6.2	4.1	250	5	
2025-07-31T00:00	2140	791	6.1	3.9	250	5	
2025-07-31T00:00	2160	789	6.0	3.9	250	5	
2025-07-31T00:00	2180	787	5.8	3.9	252	5	
2025-07-31T00:00	2200	785	5.7	3.9	253	5	
2025-07-31T00:00	2220	783	5.5	3.8	256	6	
2025-07-31T00:00	2240	781	5.4	3.7	259	6	
2025-07-31T00:00	2260	779	5.2	3.6	261	6	
2025-07-31T00:00	2280	777	5.0	3.6	263	5	
2025-07-31T00:00	2300	775	4.9	3.2	265	5	
2025-07-31T00:00	2320	774	4.8	3.1	266	5	
2025-07-31T00:00	2340	772	4.7	3.1	267	5	
2025-07-31T00:00	2360	770	4.6	2.9	268	5	
2025-07-31T00:00	2380	768	4.5	2.8	268	5	
2025-07-31T00:00	2400	766	4.5	2.5	269	5	
2025-07-31T00:00	2420	764	4.4	2.4	269	5	
2025-07-31T00:00	2440	763	4.3	2.3	268	5	
2025-07-31T00:00	2460	761	4.2	2.4	268	5	
2025-07-31T00:00	2480	759	4.0	2.4	267	5	
2025-07-31T00:00	2500	757	3.8	2.2	266	5	
2025-07-31T00:00	2520	755	3.7	2.1	265	5	
2025-07-31T00:00	2540	753	3.6	2.0	265	5	
2025-07-31T00:00	2560	751	3.4	1.8	264	5	
2025-07-31T00:00	2580	749	3.4	1.8	264	5	
2025-07-31T00:00	2600	748	3.2	1.8	264	5	
2025-07-31T00:00	2620	746	3.1	1.9	264	5	
2025-07-31T00:00	2640	744	2.9	1.8	264	5	
2025-07-31T00:00	2660	742	2.8	1.8	264	5	
2025-07-31T00:00	2680	740	2.6	1.7	263	5	
2025-07-31T00:00	2700	738	2.5	1.7	263	5	
2025-07-31T00:00	2720	737	2.3	1.5	263	5	
2025-07-31T00:00	2740	735	2.2	1.3	262	5	
2025-07-31T00:00	2760	733	2.0	1.2	262	5	
2025-07-31T00:00	2780	731	1.9	1.1	262	5	
2025-07-31T00:00	2800	730	1.7	1.1	262	5	
2025-07-31T00:00	2820	728	1.5	1.0	263	5	
2025-07-31T00:00	2840	726	1.4	1.0	264	5	
2025-07-31T00:00	2860	724	1.2	0.9	266	5	
2025-07-31T00:00	2880	722	1.1	0.8	268	5	
2025-07-31T00:00	2900	720	1.0	0.8	270	5	
2025-07-31T00:00	2920	719	0.8	0.7	271	5	
2025-07-31T00:00	2940	717	0.6	0.6	272	5	
2025-07-31T00:00	2960	715	0.5	0.4	273	5	
2025-07-31T00:00	2980	713	0.5	0.2	273	5	
2025-07-31T00:00	3000	711	0.4	0.1	273	5	
2025-07-31T00:00	3020	710	0.3	0.1	273	6	
2025-07-31T00:00	3040	708	0.2	0.0	273	6	
2025-07-31T00:00	3060	706	0.1	-0.1	274	6	
2025-07-31T00:00	3080	704	0.1	-0.1	275	6	
2025-07-31T00:00	3100	703	0.1	-0.2	276	6	
2025-07-31T00:00	3120	701	0.0	-0.3	278	6	
2025-07-31T00:00	3140	699	-0.1	-0.3	279	6	
2025-07-31T00:00	3160	697	-0.1	-0.4	280	6	
2025-07-31T00:00	3180	696	-0.2	-0.5	281	6	
2025-07-31T00:00	3200	694	-0.3	-0.7	281	6	
2025-07-31T00:00	3220	692	-0.4	-0.7	282	6	
2025-07-31T00:00	3240	691	-0.5	-0.9	283	6	
2025-07-31T00:00	3260	689	-0.6	-1.0	284	6	
2025-07-31T00:00	3280	687	-0.7	-1.2	286	6	
2025-07-31T00:00	3300	685	-0.8	-1.3	288	6	
2025-07-31T00:00	3320	684	-0.9	-1.4	290	6	
2025-07-31T00:00	3340	682	-1.0	-1.5	293	6	
2025-07-31T00:00	3360	680	-1.1	-1.7	295	6	
2025-07-31T00:00	3380	679	-1.2	-1.8	297	7	
2025-07-31T00:00	3400	677	-1.2	-1.9	299	7	
2025-07-31T00:00	3420	675	-1.3	-2.0	301	7	
2025-07-31T00:00	3440	673	-1.5	-2.0	303	7	
2025-07-31T00:00	3460	672	-1.6	-2.0	306	7	
2025-07-31T00:00	3480	670	-1.7	-2.1	307	7	
2025-07-31T00:00	3500	668	-1.8	-2.1	308	7	
2025-07-31T00:00	3520	667	-2.0	-2.2	309	7	
2025-07-31T00:00	3540	665	-2.2	-2.2	310	7	
2025-07-31T00:00	3560	663	-2.3	-2.3	310	7	
2025-07-31T00:00	3580	662	-2.5	-2.5	310	7	
2025-07-31T00:00	3600	660	-2.6	-2.6	310	7	
2025-07-31T00:00	3620	658	-2.7	-2.8	311	7	
2025-07-31T00:00	3640	657	-2.9	-2.9	313	7	
2025-07-31T00:00	3660	655	-2.9	-3.0	315	7	
2025-07-31T00:00	3680	653	-3.0	-3.2	316	7	
2025-07-31T00:00	3700	652	-3.2	-3.2	318	7	
2025-07-31T00:00	3720	650	-3.2	-3.4	320	7	
2025-07-31T00:00	3740	648	-3.2	-3.7	322	7	
2025-07-31T00:00	3760	647	-3.1	-3.9	322	7	
2025-07-31T00:00	3780	645	-3.1	-4.0	322	7	
2025-07-31T00:00	3800	644	-3.3	-4.0	320	7	
2025-07-31T00:00	3820	642	-3.4	-4.1	318	6	
2025-07-31T00:00	3840	640	-3.6	-4.2	316	6	
2025-07-31T00:00	3860	639	-3.8	-4.3	313	6	
2025-07-31T00:00	3880	637	-4.0	-4.4	311	6	
2025-07-31T00:00	3900	636	-4.1	-4.6	309	6	
2025-07-31T00:00	3920	634	-4.3	-4.7	307	7	
2025-07-31T00:00	3940	632	-4.5	-4.7	306	7	
2025-07-31T00:00	3960	631	-4.6	-5.0	306	7	
2025-07-31T00:00	3980	629	-4.7	-5.2	307	8	
2025-07-31T00:00	4000	627	-4.7	-5.6	307	9	
2025-07-31T00:00	4020	626	-4.7	-5.8	307	9	
2025-07-31T00:00	4040	624	-4.8	-6.1	307	9	
2025-07-31T00:00	4060	623	-5.0	-6.0	306	9	
2025-07-31T00:00	4080	621	-5.1	-6.2	306	9	
2025-07-31T00:00	4100	620	-5.2	-6.4	306	9	
2025-07-31T00:00	4120	618	-5.4	-6.6	305	9	
2025-07-31T00:00	4140	616	-5.6	-6.7	305	9	
2025-07-31T00:00	4160	615	-5.7	-6.8	304	9	
2025-07-31T00:00	4180	613	-5.8	-7.1	303	9	
2025-07-31T00:00	4200	612	-5.9	-7.1	303	9	
2025-07-31T00:00	4220	610	-6.0	-7.2	303	9	
2025-07-31T00:00	4240	609	-6.2	-7.2	302	9	
2025-07-31T00:00	4260	607	-6.4	-7.2	302	9	
2025-07-31T00:00	4280	605	-6.6	-7.3	301	9	
2025-07-31T00:00	4300	604	-6.8	-7.3	301	9	
2025-07-31T00:00	4320	602	-7.0	-7.3	300	10	
2025-07-31T00:00	4340	601	-7.2	-7.4	299	10	
2025-07-31T00:00	4360	599	-7.3	-7.6	298	10	
2025-07-31T00:00	4380	598	-7.5	-7.7	297	10	
2025-07-31T00:00	4400	596	-7.5	-8.0	296	11	
2025-07-31T00:00	4420	595	-7.6	-8.3	296	11	
2025-07-31T00:00	4440	593	-7.7	-8.4	296	11	
2025-07-31T00:00	4460	592	-7.9	-8.5	297	11	
2025-07-31T00:00	4480	590	-8.0	-8.6	297	11	
2025-07-31T00:00	4500	589	-8.2	-8.7	299	11	
2025-07-31T00:00	4520	587	-8.4	-8.7	300	11	
2025-07-31T00:00	4540	586	-8.6	-8.7	301	11	
2025-07-31T00:00	4560	584	-8.8	-9.0	302	11	
2025-07-31T00:00	4580	583	-8.9	-9.0	302	11	
2025-07-31T00:00	4600	581	-9.0	-9.3	303	11	
2025-07-31T00:00	4620	580	-9.1	-9.5	305	11	
2025-07-31T00:00	4640	578	-9.3	-9.6	307	11	
2025-07-31T00:00	4660	577	-9.3	-10.6	310	11	
2025-07-31T00:00	4680	575	-8.8	-14.3	312	11	
2025-07-31T00:00	4700	574	-8.5	-16.8	314	11	
2025-07-31T00:00	4720	572	-8.5	-17.8	316	11	
2025-07-31T00:00	4740	571	-8.5	-19.3	318	11	
2025-07-31T00:00	4760	569	-8.3	-24.2	320	11	
2025-07-31T00:00	4780	568	-8.4	-25.6	322	11	
2025-07-31T00:00	4800	566	-8.5	-28.3	324	12	
2025-07-31T00:00	4820	565	-8.5	-32.1	325	12	
2025-07-31T00:00	4840	563	-8.3	-36.6	326	12	
2025-07-31T00:00	4860	562	-8.2	-40.8	326	13	
2025-07-31T00:00	4880	560	-8.1	-40.9	325	13	
2025-07-31T00:00	4900	559	-8.1	-40.9	324	14	
2025-07-31T00:00	4920	558	-8.1	-42.2	324	14	
2025-07-31T00:00	4940	556	-8.1	-41.6	325	15	
2025-07-31T00:00	4960	555	-8.1	-41.1	326	15	
2025-07-31T00:00	4980	553	-8.2	-40.9	326	15	
2025-07-31T00:00	5000	552	-8.3	-40.8	327	16	
2025-07-31T00:00	5020	551	-8.4	-40.8	328	16	
2025-07-31T00:00	5040	549	-8.6	-40.8	328	16	
2025-07-31T00:00	5060	548	-8.6	-39.9	328	16	
2025-07-31T00:00	5080	546	-8.6	-40.3	329	16	
2025-07-31T00:00	5100	545	-8.5	-41.4	329	16	
2025-07-31T00:00	5120	543	-8.4	-43.0	329	17	
2025-07-31T00:00	5140	542	-8.5	-43.2	329	17	
2025-07-31T00:00	5160	541	-8.7	-42.9	329	17	
2025-07-31T00:00	5180	539	-8.7	-42.0	329	17	
2025-07-31T00:00	5200	538	-8.8	-40.9	328	17	
2025-07-31T00:00	5220	536	-8.9	-40.8	328	17	
2025-07-31T00:00	5240	535	-9.1	-40.3	329	17	
2025-07-31T00:00	5260	534	-9.3	-36.5	329	17	
2025-07-31T00:00	5280	532	-9.5	-31.5	331	17	
2025-07-31T00:00	5300	531	-9.6	-27.7	332	17	
2025-07-31T00:00	5320	530	-9.7	-26.4	333	17	
2025-07-31T00:00	5340	528	-10.0	-25.9	334	17	
2025-07-31T00:00	5360	527	-10.2	-26.3	334	17	
2025-07-31T00:00	5380	525	-10.3	-26.4	334	17	
2025-07-31T00:00	5400	524	-10.5	-26.8	333	17	
2025-07-31T00:00	5420	523	-10.6	-25.9	332	17	
2025-07-31T00:00	5440	522	-10.8	-24.6	331	16	
2025-07-31T00:00	5460	520	-10.9	-24.4	330	16	
2025-07-31T00:00	5480	519	-11.0	-25.1	329	16	
2025-07-31T00:00	5500	517	-11.2	-25.3	328	16	
2025-07-31T00:00	5520	516	-11.3	-25.4	327	16	
2025-07-31T00:00	5540	515	-11.4	-25.3	326	16	
2025-07-31T00:00	5560	513	-11.6	-24.6	326	16	
2025-07-31T00:00	5580	512	-11.7	-24.5	325	16	
2025-07-31T00:00	5600	511	-11.8	-25.4	325	16	
2025-07-31T00:00	5620	509	-11.9	-26.1	325	17	
2025-07-31T00:00	5640	508	-12.0	-26.1	326	17	
2025-07-31T00:00	5660	507	-12.0	-26.5	326	17	
2025-07-31T00:00	5680	505	-12.0	-27.2	326	17	
2025-07-31T00:00	5700	504	-12.1	-27.3	327	17	
2025-07-31T00:00	5720	503	-12.3	-27.6	327	17	
2025-07-31T00:00	5740	501	-12.4	-28.3	328	17	
2025-07-31T00:00	5760	500	-12.5	-31.3	328	17	
2025-07-31T00:00	5780	499	-12.5	-35.3	328	18	
2025-07-31T00:00	5800	497	-12.5	-38.2	329	18	
2025-07-31T00:00	5820	496	-12.6	-39.2	328	18	
2025-07-31T00:00	5840	495	-12.8	-40.0	328	18	
2025-07-31T00:00	5860	493	-12.9	-41.0	327	18	
2025-07-31T00:00	5880	492	-12.9	-42.6	327	18	
2025-07-31T00:00	5900	491	-12.9	-43.3	327	18	
2025-07-31T00:00	5920	490	-13.0	-43.3	326	18	
2025-07-31T00:00	5940	488	-13.0	-42.8	326	18	
2025-07-31T00:00	5960	487	-13.1	-42.1	326	18	
2025-07-31T00:00	5980	486	-13.1	-42.3	327	18	
2025-07-31T00:00	6000	485	-13.2	-41.0	328	18	
2025-07-31T00:00	6020	483	-13.3	-40.4	329	18	
2025-07-31T00:00	6040	482	-13.3	-40.4	330	18	
2025-07-31T00:00	6060	481	-13.4	-41.3	330	19	
2025-07-31T00:00	6080	480	-13.6	-40.9	331	19	
2025-07-31T00:00	6100	478	-13.8	-40.1	331	19	
2025-07-31T00:00	6120	477	-14.0	-39.2	330	19	
2025-07-31T00:00	6140	476	-14.1	-38.7	329	19	
2025-07-31T00:00	6160	475	-14.2	-37.6	329	19	
2025-07-31T00:00	6180	473	-14.4	-36.9	328	18	
2025-07-31T00:00	6200	472	-14.6	-37.1	329	18	
2025-07-31T00:00	6220	471	-14.7	-37.5	329	18	
2025-07-31T00:00	6240	469	-14.9	-37.3	330	18	
2025-07-31T00:00	6260	468	-15.0	-37.2	331	18	
2025-07-31T00:00	6280	467	-15.1	-37.8	332	18	
2025-07-31T00:00	6300	466	-15.1	-38.0	332	18	
2025-07-31T00:00	6320	464	-15.2	-36.9	333	18	
2025-07-31T00:00	6340	463	-15.4	-34.3	333	18	
2025-07-31T00:00	6360	462	-15.6	-35.3	334	18	
2025-07-31T00:00	6380	461	-15.7	-34.8	334	18	
2025-07-31T00:00	6400	460	-15.9	-34.6	334	18	
2025-07-31T00:00	6420	458	-16.0	-35.8	333	18	
2025-07-31T00:00	6440	457	-16.1	-35.8	332	18	
2025-07-31T00:00	6460	456	-16.2	-36.0	331	19	
2025-07-31T00:00	6480	455	-16.3	-35.2	330	19	
2025-07-31T00:00	6500	454	-16.5	-34.0	330	19	
2025-07-31T00:00	6520	452	-16.6	-33.7	330	18	
2025-07-31T00:00	6540	451	-16.7	-36.5	330	18	
2025-07-31T00:00	6560	450	-16.8	-39.5	330	18	
2025-07-31T00:00	6580	449	-16.9	-40.0	331	18	
2025-07-31T00:00	6600	447	-17.1	-39.9	331	17	
2025-07-31T00:00	6620	446	-17.2	-39.9	332	17	
2025-07-31T00:00	6640	445	-17.4	-40.2	332	16	
2025-07-31T00:00	6660	444	-17.5	-40.3	332	16	
2025-07-31T00:00	6680	443	-17.6	-40.6	332	16	
2025-07-31T00:00	6700	442	-17.8	-39.9	332	17	
2025-07-31T00:00	6720	440	-17.9	-39.7	332	17	
2025-07-31T00:00	6740	439	-18.0	-39.8	333	17	
2025-07-31T00:00	6760	438	-18.1	-39.6	333	18	
2025-07-31T00:00	6780	437	-18.3	-39.8	333	18	
2025-07-31T00:00	6800	436	-18.5	-38.6	332	18	
2025-07-31T00:00	6820	434	-18.7	-37.9	331	19	
2025-07-31T00:00	6840	433	-18.8	-37.4	330	19	
2025-07-31T00:00	6860	432	-19.0	-36.7	329	19	
2025-07-31T00:00	6880	431	-19.2	-35.8	328	19	
2025-07-31T00:00	6900	430	-19.3	-35.4	328	19	
2025-07-31T00:00	6920	429	-19.4	-35.9	327	19	
2025-07-31T00:00	6940	428	-19.6	-36.3	326	19	
2025-07-31T00:00	6960	426	-19.7	-36.8	326	19	
2025-07-31T00:00	6980	425	-19.9	-36.8	327	19	
2025-07-31T00:00	7000	424	-20.0	-36.5	327	18	
2025-07-31T00:00	7020	423	-20.2	-36.4	327	18	
2025-07-31T00:00	7040	422	-20.3	-36.6	326	18	
2025-07-31T00:00	7060	421	-20.5	-37.0	326	18	
2025-07-31T00:00	7080	420	-20.6	-37.0	325	19	
2025-07-31T00:00	7100	419	-20.8	-36.9	325	19	
2025-07-31T00:00	7120	417	-20.9	-37.2	324	19	
2025-07-31T00:00	7140	416	-21.1	-37.4	323	19	
2025-07-31T00:00	7160	415	-21.2	-37.5	323	19	
2025-07-31T00:00	7180	414	-21.4	-37.3	322	19	
2025-07-31T00:00	7200	413	-21.5	-37.6	322	19	
2025-07-31T00:00	7220	412	-21.7	-38.3	321	19	
2025-07-31T00:00	7240	411	-21.9	-38.6	320	19	
2025-07-31T00:00	7260	409	-22.1	-37.8	320	19	
2025-07-31T00:00	7280	408	-22.3	-37.3	319	19	
2025-07-31T00:00	7300	407	-22.4	-37.4	319	19	
2025-07-31T00:00	7320	406	-22.6	-37.5	318	18	
2025-07-31T00:00	7340	405	-22.7	-37.3	318	18	
2025-07-31T00:00	7360	404	-22.9	-37.3	317	18	
2025-07-31T00:00	7380	403	-23.1	-37.5	317	18	
2025-07-31T00:00	7400	402	-23.3	-37.5	317	17	
2025-07-31T00:00	7420	401	-23.4	-37.2	316	17	
2025-07-31T00:00	7440	400	-23.6	-37.2	316	17	
2025-07-31T00:00	7460	398	-23.7	-37.8	316	16	
2025-07-31T00:00	7480	397	-23.8	-39.2	317	16	
2025-07-31T00:00	7500	396	-23.9	-39.2	318	16	
2025-07-31T00:00	7520	395	-24.1	-39.2	320	16	
2025-07-31T00:00	7540	394	-24.3	-39.1	321	16	
2025-07-31T00:00	7560	393	-24.5	-39.2	322	16	
2025-07-31T00:00	7580	392	-24.7	-39.5	324	16	
2025-07-31T00:00	7600	391	-24.8	-40.2	325	16	
2025-07-31T00:00	7620	390	-24.9	-40.6	325	17	
2025-07-31T00:00	7640	389	-25.0	-40.6	325	17	
2025-07-31T00:00	7660	388	-25.2	-40.8	325	17	
2025-07-31T00:00	7680	387	-25.3	-40.8	324	17	
2025-07-31T00:00	7700	385	-25.5	-40.8	324	17	
2025-07-31T00:00	7720	384	-25.7	-41.1	323	17	
2025-07-31T00:00	7740	383	-25.8	-41.2	322	17	
2025-07-31T00:00	7760	382	-26.0	-40.7	321	17	
2025-07-31T00:00	7780	381	-26.2	-40.1	321	17	
2025-07-31T00:00	7800	380	-26.3	-39.9	321	17	
2025-07-31T00:00	7820	379	-26.5	-39.7	321	17	
2025-07-31T00:00	7840	378	-26.7	-39.1	322	17	
2025-07-31T00:00	7860	377	-26.8	-38.3	323	17	
2025-07-31T00:00	7880	376	-27.0	-38.3	323	17	
2025-07-31T00:00	7900	375	-27.2	-38.0	323	17	
2025-07-31T00:00	7920	374	-27.4	-37.0	323	17	
2025-07-31T00:00	7940	373	-27.5	-36.9	322	17	
2025-07-31T00:00	7960	372	-27.7	-37.2	321	17	
2025-07-31T00:00	7980	371	-27.8	-37.6	319	16	
2025-07-31T00:00	8000	370	-28.0	-37.5	318	16	
2025-07-31T00:00	8020	369	-28.2	-37.7	316	16	
2025-07-31T00:00	8040	368	-28.3	-37.9	315	16	
2025-07-31T00:00	8060	367	-28.5	-38.2	314	16	
2025-07-31T00:00	8080	366	-28.6	-38.6	314	16	
2025-07-31T00:00	8100	365	-28.7	-39.1	314	16	
2025-07-31T00:00	8120	364	-28.9	-39.2	315	16	
2025-07-31T00:00	8140	363	-29.1	-39.1	317	16	
2025-07-31T00:00	8160	362	-29.2	-38.9	318	16	
2025-07-31T00:00	8180	361	-29.4	-38.7	321	16	
2025-07-31T00:00	8200	360	-29.5	-39.3	322	16	
2025-07-31T00:00	8220	359	-29.5	-39.8	323	17	
2025-07-31T00:00	8240	358	-29.6	-39.7	323	17	
2025-07-31T00:00	8260	357	-29.8	-39.7	324	16	
2025-07-31T00:00	8280	356	-30.0	-39.7	324	16	
2025-07-31T00:00	8300	355	-30.2	-39.7	324	16	
2025-07-31T00:00	8320	354	-30.4	-39.8	325	16	
2025-07-31T00:00	8340	353	-30.5	-40.0	325	16	
2025-07-31T00:00	8360	352	-30.7	-40.0	325	16	
2025-07-31T00:00	8380	351	-30.9	-39.8	325	16	
2025-07-31T00:00	8400	350	-31.1	-39.8	325	17	
2025-07-31T00:00	8420	349	-31.3	-39.9	326	17	
2025-07-31T00:00	8440	348	-31.5	-39.9	326	18	
2025-07-31T00:00	8460	347	-31.6	-39.9	326	19	
2025-07-31T00:00	8480	346	-31.8	-40.0	325	19	
2025-07-31T00:00	8500	345	-31.9	-40.3	324	19	
2025-07-31T00:00	8520	344	-32.0	-41.0	324	19	
2025-07-31T00:00	8540	343	-32.1	-41.2	323	19	
2025-07-31T00:00	8560	342	-32.3	-41.3	323	19	
2025-07-31T00:00	8580	341	-32.4	-41.6	323	19	
2025-07-31T00:00	8600	340	-32.5	-41.7	324	18	
2025-07-31T00:00	8620	339	-32.7	-42.2	324	19	
2025-07-31T00:00	8640	338	-32.8	-43.6	324	19	
2025-07-31T00:00	8660	337	-32.9	-45.2	324	19	
2025-07-31T00:00	8680	336	-33.0	-46.5	325	19	
2025-07-31T00:00	8700	335	-33.0	-48.7	325	20	
2025-07-31T00:00	8720	334	-33.1	-49.0	325	20	
2025-07-31T00:00	8740	333	-33.2	-47.6	325	20	
2025-07-31T00:00	8760	332	-33.4	-47.2	324	20	
2025-07-31T00:00	8780	331	-33.6	-47.0	324	20	
2025-07-31T00:00	8800	330	-33.8	-46.3	324	20	
2025-07-31T00:00	8820	329	-33.9	-45.8	324	20	
2025-07-31T00:00	8840	329	-34.1	-46.4	324	20	
2025-07-31T00:00	8860	328	-34.3	-47.3	323	20	
2025-07-31T00:00	8880	327	-34.4	-47.0	322	20	
2025-07-31T00:00	8900	326	-34.6	-46.8	322	21	
2025-07-31T00:00	8920	325	-34.8	-47.2	321	21	
2025-07-31T00:00	8940	324	-34.9	-47.5	320	21	
2025-07-31T00:00	8960	323	-35.1	-47.8	319	22	
2025-07-31T00:00	8980	322	-35.2	-47.7	319	22	
2025-07-31T00:00	9000	321	-35.4	-47.2	319	22	
2025-07-31T00:00	9020	320	-35.6	-46.9	319	22	
2025-07-31T00:00	9040	319	-35.7	-46.7	320	22	
2025-07-31T00:00	9060	318	-35.9	-45.9	320	22	
2025-07-31T00:00	9080	317	-36.1	-44.4	320	21	
2025-07-31T00:00	9100	317	-36.3	-44.8	320	21	
2025-07-31T00:00	9120	316	-36.5	-45.0	321	20	
2025-07-31T00:00	9140	315	-36.6	-46.2	322	20	
2025-07-31T00:00	9160	314	-36.8	-47.3	322	20	
2025-07-31T00:00	9180	313	-36.9	-45.2	323	20	
2025-07-31T00:00	9200	312	-37.1	-45.0	324	20	
2025-07-31T00:00	9220	311	-37.2	-45.4	324	20	
2025-07-31T00:00	9240	310	-37.4	-45.0	324	20	
2025-07-31T00:00	9260	309	-37.6	-45.3	324	19	
2025-07-31T00:00	9280	308	-37.7	-45.6	323	19	
2025-07-31T00:00	9300	307	-37.9	-45.7	322	19	
2025-07-31T00:00	9320	307	-38.1	-45.7	321	19	
2025-07-31T00:00	9340	306	-38.3	-45.8	320	19	
2025-07-31T00:00	9360	305	-38.5	-46.1	319	19	
2025-07-31T00:00	9380	304	-38.7	-46.2	318	20	
2025-07-31T00:00	9400	303	-38.8	-46.2	318	20	
2025-07-31T00:00	9420	302	-39.0	-46.4	317	20	
2025-07-31T00:00	9440	301	-39.2	-46.5	317	20	
2025-07-31T00:00	9460	300	-39.4	-46.5	317	20	
2025-07-31T00:00	9480	299	-39.6	-46.7	317	20	
2025-07-31T00:00	9500	299	-39.7	-46.7	316	20	
2025-07-31T00:00	9520	298	-40.0	-46.8	316	20	
2025-07-31T00:00	9540	297	-40.2	-47.3	316	20	
2025-07-31T00:00	9560	296	-40.3	-50.9	316	20	
2025-07-31T00:00	9580	295	-40.3	-55.0	316	20	
2025-07-31T00:00	9600	294	-40.4	-53.5	316	20	
2025-07-31T00:00	9620	293	-40.5	-51.6	316	19	
2025-07-31T00:00	9640	292	-40.7	-50.3	317	20	
2025-07-31T00:00	9660	292	-40.9	-49.6	318	19	
2025-07-31T00:00	9680	291	-41.1	-49.4	318	19	
2025-07-31T00:00	9700	290	-41.3	-48.5	318	19	
2025-07-31T00:00	9720	289	-41.5	-48.3	318	19	
2025-07-31T00:00	9740	288	-41.7	-48.5	317	19	
2025-07-31T00:00	9760	287	-41.9	-48.6	316	19	
2025-07-31T00:00	9780	287	-42.1	-48.8	315	19	
2025-07-31T00:00	9800	286	-42.3	-49.0	314	19	
2025-07-31T00:00	9820	285	-42.5	-49.0	314	19	
2025-07-31T00:00	9840	284	-42.7	-49.0	313	19	
2025-07-31T00:00	9860	283	-42.9	-49.6	313	19	
2025-07-31T00:00	9880	282	-43.0	-50.1	313	19	
2025-07-31T00:00	9900	282	-43.2	-50.4	312	19	
2025-07-31T00:00	9920	281	-43.4	-50.5	312	19	
2025-07-31T00:00	9940	280	-43.6	-50.7	312	19	
2025-07-31T00:00	9960	279	-43.8	-50.9	311	19	
2025-07-31T00:00	9980	278	-43.9	-51.3	311	19	
2025-07-31T00:00	10000	277	-44.1	-51.3	311	19	
2025-07-31T00:00	10018	277	-44.3	-51.4	312	19	
2025-07-31T00:00	10050	275	-44.5	-53.3	312	19	
2025-07-31T00:00	10100	273	-44.8	-53.8	312	20	
2025-07-31T00:00	10150	271	-45.3	-52.9	312	20	
2025-07-31T00:00	10200	269	-45.7	-53.1	312	20	
2025-07-31T00:00	10250	267	-46.2	-53.7	312	20	
2025-07-31T00:00	10300	265	-46.7	-53.9	313	19	
2025-07-31T00:00	10350	263	-47.1	-54.4	314	19	
2025-07-31T00:00	10400	261	-47.6	-55.1	313	19	
2025-07-31T00:00	10450	259	-47.9	-55.6	313	19	
2025-07-31T00:00	10500	257	-48.3	-55.7	313	19	
2025-07-31T00:00	10550	255	-48.7	-56.4	312	20	
2025-07-31T00:00	10600	253	-49.1	-56.7	310	20	
2025-07-31T00:00	10650	251	-49.4	-57.1	309	20	
2025-07-31T00:00	10700	250	-49.7	-57.2	309	20	
2025-07-31T00:00	10750	248	-50.1	-57.9	310	20	
2025-07-31T00:00	10800	246	-50.4	-59.0	311	21	
2025-07-31T00:00	10850	244	-50.8	-59.2	312	21	
2025-07-31T00:00	10900	242	-51.1	-60.1	313	20	
2025-07-31T00:00	10950	240	-51.5	-60.0	312	20	
2025-07-31T00:00	11000	238	-51.8	-60.3	310	20	
2025-07-31T00:00	11050	236	-52.0	-60.0	309	21	
2025-07-31T00:00	11100	235	-52.4	-60.1	307	22	
2025-07-31T00:00	11150	233	-52.7	-60.6	308	23	
2025-07-31T00:00	11200	231	-53.0	-61.0	309	23	
2025-07-31T00:00	11250	229	-53.2	-62.5	311	23	
2025-07-31T00:00	11300	227	-53.3	-63.5	312	23	
2025-07-31T00:00	11350	226	-53.6	-63.2	311	23	
2025-07-31T00:00	11400	224	-53.9	-63.0	310	23	
2025-07-31T00:00	11450	222	-54.2	-63.2	310	23	
2025-07-31T00:00	11500	220	-54.4	-63.6	309	22	
2025-07-31T00:00	11550	219	-54.6	-64.2	310	22	
2025-07-31T00:00	11600	217	-54.7	-64.5	310	22	
2025-07-31T00:00	11650	215	-54.9	-64.4	310	23	
2025-07-31T00:00	11700	214	-55.1	-64.1	310	22	
2025-07-31T00:00	11750	212	-55.2	-64.7	309	22	
2025-07-31T00:00	11800	210	-55.4	-65.3	307	21	
2025-07-31T00:00	11850	209	-55.2	-66.0	305	21	
2025-07-31T00:00	11900	207	-55.0	-66.1	305	22	
2025-07-31T00:00	11950	206	-55.0	-66.4	303	22	
2025-07-31T00:00	12000	204	-54.7	-67.6	301	23	
2025-07-31T00:00	12050	202	-54.2	-69.2	301	23	
2025-07-31T00:00	12100	201	-53.7	-71.7	302	24	
2025-07-31T00:00	12150	199	-53.1	-74.2	305	25	
2025-07-31T00:00	12200	198	-52.6	-75.4	308	25	
2025-07-31T00:00	12250	196	-51.6	-76.0	309	24	
2025-07-31T00:00	12300	195	-50.8	-76.6	310	23	
2025-07-31T00:00	12350	193	-50.3	-76.6	311	22	
2025-07-31T00:00	12400	192	-50.1	-76.5	312	21	
2025-07-31T00:00	12450	190	-50.1	-76.7	310	21	
2025-07-31T00:00	12500	189	-50.3	-76.9	306	21	
2025-07-31T00:00	12550	187	-50.2	-76.9	303	22	
2025-07-31T00:00	12600	186	-49.9	-77.4	304	23	
2025-07-31T00:00	12650	184	-49.6	-77.5	307	23	
2025-07-31T00:00	12700	183	-49.4	-77.6	308	23	
2025-07-31T00:00	12750	182	-49.5	-77.6	309	23	
2025-07-31T00:00	12800	180	-49.5	-77.6	311	23	
2025-07-31T00:00	12850	179	-49.7	-77.7	313	22	
2025-07-31T00:00	12900	178	-49.8	-77.7	315	21	
2025-07-31T00:00	12950	176	-49.7	-77.9	316	20	
2025-07-31T00:00	13000	175	-49.8	-77.8	314	19	
2025-07-31T00:00	13050	173	-50.1	-78.4	310	18	
2025-07-31T00:00	13100	172	-50.3	-79.1	305	18	
2025-07-31T00:00	13150	171	-50.3	-79.7	301	18	
2025-07-31T00:00	13200	170	-50.4	-79.8	299	18	
2025-07-31T00:00	13250	168	-50.6	-80.0	297	19	
2025-07-31T00:00	13300	167	-50.6	-80.0	297	19	
2025-07-31T00:00	13350	166	-50.5	-80.1	299	19	
2025-07-31T00:00	13400	164	-50.3	-80.0	301	20	
2025-07-31T00:00	13450	163	-50.7	-80.2	303	20	
2025-07-31T00:00	13500	162	-50.8	-80.3	305	20	
2025-07-31T00:00	13550	161	-50.5	-80.3	307	19	
2025-07-31T00:00	13600	159	-50.7	-80.4	308	19	
2025-07-31T00:00	13650	158	-50.8	-80.5	309	19	
2025-07-31T00:00	13700	157	-50.8	-80.5	307	18	
2025-07-31T00:00	13750	156	-51.1	-80.7	306	17	
2025-07-31T00:00	13800	155	-51.3	-80.9	307	16	
2025-07-31T00:00	13850	153	-51.5	-81.0	309	15	
2025-07-31T00:00	13900	152	-51.5	-80.9	309	15	
2025-07-31T00:00	13950	151	-51.7	-81.0	308	14	
2025-07-31T00:00	14000	150	-51.8	-81.0	307	13	
2025-07-31T00:00	14050	149	-52.1	-81.2	304	13	
2025-07-31T00:00	14100	148	-52.2	-81.3	301	13	
2025-07-31T00:00	14150	146	-52.4	-81.5	297	14	
2025-07-31T00:00	14200	145	-52.6	-81.5	294	14	
2025-07-31T00:00	14250	144	-52.4	-81.5	291	14	
2025-07-31T00:00	14300	143	-52.4	-81.7	292	15	
2025-07-31T00:00	14350	142	-52.3	-81.7	294	15	
2025-07-31T00:00	14400	141	-52.4	-81.8	295	16	
2025-07-31T00:00	14450	140	-52.6	-81.8	297	16	
2025-07-31T00:00	14500	139	-52.9	-82.0	301	16	
2025-07-31T00:00	14550	138	-52.9	-82.2	303	15	
2025-07-31T00:00	14600	137	-52.6	-82.1	301	15	
2025-07-31T00:00	14650	136	-52.5	-82.3	298	15	
2025-07-31T00:00	14700	135	-52.6	-82.2	297	16	
2025-07-31T00:00	14750	133	-52.8	-82.1	297	16	
2025-07-31T00:00	14800	132	-52.8	-82.3	297	16	
2025-07-31T00:00	14850	131	-53.0	-82.1	297	15	
2025-07-31T00:00	14900	130	-52.8	-82.1	297	14	
2025-07-31T00:00	14950	129	-52.9	-82.0	295	14	
2025-07-31T00:00	15000	128	-52.8	-81.9	289	14	
2025-07-31T00:00	15050	127	-52.8	-81.6	285	14	
2025-07-31T00:00	15100	126	-53.0	-81.9	284	14	
2025-07-31T00:00	15150	125	-52.0	-82.0	285	14	
2025-07-31T00:00	15200	124	-51.5	-81.8	285	14	
2025-07-31T00:00	15250	124	-51.5	-81.7	285	15	
2025-07-31T00:00	15300	123	-51.8	-81.7	287	15	
2025-07-31T00:00	15350	122	-52.2	-81.8	291	15	
2025-07-31T00:00	15400	121	-52.2	-81.9	297	15	
2025-07-31T00:00	15450	120	-52.2	-82.0	303	14	
2025-07-31T00:00	15500	119	-52.1	-82.1	306	13	
2025-07-31T00:00	15550	118	-52.2	-82.1	306	12	
2025-07-31T00:00	15600	117	-52.5	-82.1	303	11	
2025-07-31T00:00	15650	116	-52.8	-82.3	298	10	
2025-07-31T00:00	15700	115	-53.0	-82.4	292	9	
2025-07-31T00:00	15750	114	-53.2	-82.4	287	9	
2025-07-31T00:00	15800	113	-53.4	-82.5	285	9	
2025-07-31T00:00	15850	113	-53.8	-82.6	282	8	
2025-07-31T00:00	15900	112	-54.0	-82.7	275	8	
2025-07-31T00:00	15950	111	-53.9	-82.7	268	8	
2025-07-31T00:00	16000	110	-53.9	-82.7	263	8	
2025-07-31T00:00	16050	109	-54.1	-82.8	259	9	
2025-07-31T00:00	16100	108	-54.5	-82.9	258	9	
2025-07-31T00:00	16150	107	-54.8	-83.1	260	9	
2025-07-31T00:00	16200	107	-55.0	-83.3	264	10	
2025-07-31T00:00	16250	106	-54.9	-83.4	267	11	
2025-07-31T00:00	16300	105	-55.1	-83.5	270	11	
2025-07-31T00:00	16350	104	-55.2	-83.6	275	11	
2025-07-31T00:00	16400	103	-55.2	-83.7	282	11	
2025-07-31T00:00	16450	103	-55.1	-83.7	289	11	
2025-07-31T00:00	16500	102	-55.2	-83.9	291	10	
2025-07-31T00:00	16550	101	-55.2	-84.0	286	9	
2025-07-31T00:00	16600	100	-55.0	-83.9	275	9	
2025-07-31T00:00	16650	99	-55.0	-83.9	267	10	
2025-07-31T00:00	16700	99	-55.0	-84.0	266	10	
2025-07-31T00:00	16750	98	-55.1	-84.0	267	10	
2025-07-31T00:00	16800	97	-54.8	-83.9	267	10	
2025-07-31T00:00	16850	96	-54.4	-83.6	265	9	
2025-07-31T00:00	16900	96	-54.4	-83.5	264	8	
2025-07-31T00:00	16950	95	-54.5	-83.4	268	9	
2025-07-31T00:00	17000	94	-54.6	-83.4	276	9	
2025-07-31T00:00	17050	93	-54.8	-83.7	285	8	
2025-07-31T00:00	17100	93	-54.5	-83.8	294	7	
2025-07-31T00:00	17150	92	-54.6	-83.8	297	7	
2025-07-31T00:00	17200	91	-54.9	-83.9	293	7	
2025-07-31T00:00	17250	90	-54.8	-83.9	286	8	
2025-07-31T00:00	17300	90	-54.9	-84.0	282	9	
2025-07-31T00:00	17350	89	-55.2	-84.0	278	9	
2025-07-31T00:00	17400	88	-55.6	-84.3	271	9	
2025-07-31T00:00	17450	88	-55.1	-84.3	267	10	
2025-07-31T00:00	17500	87	-54.3	-84.1	272	10	
2025-07-31T00:00	17550	86	-54.2	-84.1	281	9	
2025-07-31T00:00	17600	86	-54.1	-83.9	285	8	
2025-07-31T00:00	17650	85	-54.1	-83.8	285	7	
2025-07-31T00:00	17700	84	-54.4	-83.8	286	7	
2025-07-31T00:00	17750	84	-54.7	-83.9	288	6	
2025-07-31T00:00	17800	83	-54.9	-83.9	289	6	
2025-07-31T00:00	17850	82	-55.1	-84.1	285	5	
2025-07-31T00:00	17900	82	-55.2	-84.2	278	4	
2025-07-31T00:00	17950	81	-55.3	-84.3	282	4	
2025-07-31T00:00	18000	80	-55.4	-84.3	291	4	
2025-07-31T00:00	18050	80	-55.5	-84.3	294	4	
2025-07-31T00:00	18100	79	-55.5	-84.4	292	4	
2025-07-31T00:00	18150	79	-55.4	-84.5	295	5	
2025-07-31T00:00	18200	78	-55.2	-84.4	301	6	
2025-07-31T00:00	18250	77	-55.3	-84.4	306	7	
2025-07-31T00:00	18300	77	-55.5	-84.5	312	6	
2025-07-31T00:00	18350	76	-55.3	-84.6	319	5	
2025-07-31T00:00	18400	76	-54.9	-84.5	324	4	
2025-07-31T00:00	18450	75	-54.9	-84.5	332	3	
2025-07-31T00:00	18500	74	-54.8	-84.3	347	3	
2025-07-31T00:00	18550	74	-55.0	-84.4	356	4	
2025-07-31T00:00	18600	73	-54.9	-84.4	5	4	
2025-07-31T00:00	18650	73	-54.9	-84.4	17	4	
2025-07-31T00:00	18700	72	-55.0	-84.4	33	4	
2025-07-31T00:00	18750	72	-55.1	-84.4	54	3	
2025-07-31T00:00	18800	71	-55.4	-84.5	83	3	
2025-07-31T00:00	18850	70	-55.7	-84.5	105	3	
2025-07-31T00:00	18900	70	-55.8	-84.6	119	3	
2025-07-31T00:00	18950	69	-56.1	-84.7	144	2	
2025-07-31T00:00	19000	69	-56.3	-84.9	180	2	
2025-07-31T00:00	19050	68	-56.5	-85.2	195	2	
2025-07-31T00:00	19100	68	-56.2	-85.2	176	2	
2025-07-31T00:00	19150	67	-55.7	-85.0	162	2	
2025-07-31T00:00	19200	67	-55.6	-85.0	162	2	
2025-07-31T00:00	19250	66	-55.5	-84.9	162	2	
2025-07-31T00:00	19300	66	-55.7	-85.0	159	2	
2025-07-31T00:00	19350	65	-55.7	-84.9	158	2	
2025-07-31T00:00	19400	65	-55.4	-84.9	161	2	
2025-07-31T00:00	19450	64	-55.2	-84.9	171	1	
2025-07-31T00:00	19500	64	-55.0	-84.8	241	0	
2025-07-31T00:00	19550	63	-54.8	-84.7	343	1	
2025-07-31T00:00	19600	63	-54.9	-84.7	350	3	
2025-07-31T00:00	19650	62	-55.1	-84.8	357	5	
2025-07-31T00:00	19700	62	-55.0	-84.8	10	5	
2025-07-31T00:00	19750	61	-54.8	-84.8	28	4	
2025-07-31T00:00	19800	61	-54.7	-84.6	47	3	
2025-07-31T00:00	19850	60	-54.9	-84.6	69	3	
2025-07-31T00:00	19900	60	-55.2	-84.7	87	2	
2025-07-31T00:00	19950	59	-55.2	-84.7	92	2	
2025-07-31T00:00	20000	59	-55.4	-84.8	89	1	
2025-07-31T00:00	20050	58	-55.5		82	1	
2025-07-31T00:00	20100	58	-55.5		78	2	
2025-07-31T00:00	20150	57	-55.3		89	2	
2025-07-31T00:00	20200	57	-55.1		99	2	
2025-07-31T00:00	20250	57	-54.9		105	3	
2025-07-31T00:00	20300	56	-54.4		117	3	
2025-07-31T00:00	20350	56	-54.4		129	4	
2025-07-31T00:00	20400	55	-54.4		132	4	
2025-07-31T00:00	20450	55	-54.6		125	3	
2025-07-31T00:00	20500	54	-54.6		97	3	
2025-07-31T00:00	20550	54	-54.5		70	3	
2025-07-31T00:00	20600	54	-54.4		63	4	
2025-07-31T00:00	20650	53	-54.3		59	5	
2025-07-31T00:00	20700	53	-54.2		60	6	
2025-07-31T00:00	20750	52	-53.9		64	8	
2025-07-31T00:00	20800	52	-54.0		68	8	
2025-07-31T00:00	20850	51	-54.3		76	8	
2025-07-31T00:00	20900	51	-54.5		85	7	
2025-07-31T00:00	20950	51	-54.1		91	6	
2025-07-31T00:00	21000	50	-53.5		86	6	
2025-07-31T00:00	21050	50	-53.5		75	6	
2025-07-31T00:00	21100	49	-53.2		72	7	
2025-07-31T00:00	21150	49	-52.9		77	9	
2025-07-31T00:00	21200	49	-52.7		83	10	
2025-07-31T00:00	21250	48	-52.8		89	10	
2025-07-31T00:00	21300	48	-53.0		95	10	
2025-07-31T00:00	21350	48	-53.1		98	10	
2025-07-31T00:00	21400	47	-53.0		102	10	
2025-07-31T00:00	21450	47	-53.1		109	10	
2025-07-31T00:00	21500	47	-53.2		115	10	
2025-07-31T00:00	21550	46	-53.3		119	10	
2025-07-31T00:00	21600	46	-53.4		121	9	
2025-07-31T00:00	21650	45	-53.7		124	8	
2025-07-31T00:00	21700	45	-53.7		128	8	
2025-07-31T00:00	21750	45	-53.5		131	8	
2025-07-31T00:00	21800	44	-53.4		132	8	
2025-07-31T00:00	21850	44	-53.6		132	7	
2025-07-31T00:00	21900	44	-53.7		128	7	
2025-07-31T00:00	21950	43	-53.6		117	6	
2025-07-31T00:00	22000	43	-53.5		103	6	
2025-07-31T00:00	22050	43	-53.5		92	7	
2025-07-31T00:00	22100	42	-53.3		90	8	
2025-07-31T00:00	22150	42	-53.2		95	9	
2025-07-31T00:00	22200	42	-52.9		103	10	
2025-07-31T00:00	22250	41	-52.8		113	9	
2025-07-31T00:00	22300	41	-52.8		124	9	
2025-07-31T00:00	22350	41	-52.4		134	10	
2025-07-31T00:00	22400	40	-52.4		143	9	
2025-07-31T00:00	22450	40	-52.3		151	9	
2025-07-31T00:00	22500	40	-52.3		154	7	
2025-07-31T00:00	22550	40	-51.9		145	5	
2025-07-31T00:00	22600	39	-51.8		116	4	
2025-07-31T00:00	22650	39	-51.6		96	5	
2025-07-31T00:00	22700	39	-51.4		97	5	
2025-07-31T00:00	22750	38	-51.2		107	5	
2025-07-31T00:00	22800	38	-51.2		113	4	
2025-07-31T00:00	22850	38	-51.2		112	4	
2025-07-31T00:00	22900	37	-51.1		101	3	
2025-07-31T00:00	22950	37	-51.1		86	3	
2025-07-31T00:00	23000	37	-50.8		79	4	
2025-07-31T00:00	23050	37	-51.1		78	5	
2025-07-31T00:00	23100	36	-51.1		79	5	
2025-07-31T00:00	23150	36	-51.3		80	6	
2025-07-31T00:00	23200	36	-51.6		81	6	
2025-07-31T00:00	23250	35	-52.0		84	7	
2025-07-31T00:00	23300	35	-52.3		87	8	
2025-07-31T00:00	23350	35	-52.2		91	8	
2025-07-31T00:00	23400	35	-52.1		93	8	
2025-07-31T00:00	23450	34	-51.8		96	8	
2025-07-31T00:00	23500	34	-51.8		98	8	
2025-07-31T00:00	23550	34	-51.8		100	8	
2025-07-31T00:00	23600	34	-51.7		103	8	
2025-07-31T00:00	23650	33	-51.8		109	9	
2025-07-31T00:00	23700	33	-51.7		115	8	
2025-07-31T00:00	23750	33	-51.7		119	8	
2025-07-31T00:00	23800	33	-51.8		118	7	
2025-07-31T00:00	23850	32	-51.9		117	7	
2025-07-31T00:00	23900	32	-51.9		120	7	
2025-07-31T00:00	23950	32	-51.9		125	7	
2025-07-31T00:00	24000	32	-51.6		127	7	
2025-07-31T00:00	24050	31	-51.1		128	6	
2025-07-31T00:00	24100	31	-51.3		124	5	
2025-07-31T00:00	24150	31	-51.2		108	4	
2025-07-31T00:00	24200	31	-50.9		93	4	
2025-07-31T00:00	24250	30	-50.6		90	5	
2025-07-31T00:00	24300	30	-50.3		92	5	
2025-07-31T00:00	24350	30	-50.1		94	5	
2025-07-31T00:00	24400	30	-49.8		94	5	
2025-07-31T00:00	24450	29	-49.8		87	6	
2025-07-31T00:00	24500	29	-49.7		75	6	
2025-07-31T00:00	24550	29	-49.7		69	8	
2025-07-31T00:00	24600	29	-49.6		71	8	
2025-07-31T00:00	24650	29	-49.5		75	9	
2025-07-31T00:00	24700	28	-49.4		81	9	
2025-07-31T00:00	24750	28	-49.4		88	8	
2025-07-31T00:00	24800	28	-49.4		97	8	
2025-07-31T00:00	24850	28	-49.4		106	7	
2025-07-31T00:00	24900	28	-49.8		114	6	
2025-07-31T00:00	24950	27	-49.9		114	6	
2025-07-31T00:00	25000	27	-50.0		106	6	
2025-07-31T00:00	25050	27	-50.0		95	6	
2025-07-31T00:00	25100	27	-50.0		87	7	
2025-07-31T00:00	25150	26	-50.1		82	7	
2025-07-31T00:00	25200	26	-50.1		79	8	
2025-07-31T00:00	25250	26	-50.2		75	8	
2025-07-31T00:00	25300	26	-50.1		74	9	
2025-07-31T00:00	25350	26	-50.1		77	11	
2025-07-31T00:00	25400	26	-49.9		81	12	
2025-07-31T00:00	25450	25	-49.9		84	12	
2025-07-31T00:00	25500	25	-50.0		85	12	
2025-07-31T00:00	25550	25	-50.0		87	11	
2025-07-31T00:00	25600	25	-50.2		91	11	
2025-07-31T00:00	25650	25	-50.4		94	10	
2025-07-31T00:00	25700	24	-50.4		92	9	
2025-07-31T00:00	25750	24	-50.2		84	8	
2025-07-31T00:00	25800	24	-50.0		74	9	
2025-07-31T00:00	25850	24	-49.7		69	10	
2025-07-31T00:00	25900	24	-49.4		70	11	
2025-07-31T00:00	25950	23	-49.5		74	12	
2025-07-31T00:00	26000	23	-49.3		78	12	
2025-07-31T00:00	26050	23	-49.2		81	12	
2025-07-31T00:00	26100	23	-49.2		81	11	
2025-07-31T00:00	26150	23	-49.1		78	11	
2025-07-31T00:00	26200	23	-48.9		76	11	
2025-07-31T00:00	26250	22	-48.7		78	12	
2025-07-31T00:00	26300	22	-48.7		80	12	
2025-07-31T00:00	26350	22	-48.7		83	12	
2025-07-31T00:00	26400	22	-48.8		84	11	
2025-07-31T00:00	26450	22	-48.6		81	11	
2025-07-31T00:00	26500	22	-48.5		78	11	
2025-07-31T00:00	26550	21	-48.4		80	12	
2025-07-31T00:00	26600	21	-48.4		85	12	
2025-07-31T00:00	26650	21	-48.5		90	13	
2025-07-31T00:00	26700	21	-48.7		91	12	
2025-07-31T00:00	26750	21	-48.8		88	11	
2025-07-31T00:00	26800	21	-48.6		82	11	
2025-07-31T00:00	26850	20	-48.4		79	11	
2025-07-31T00:00	26900	20	-48.3		81	11	
2025-07-31T00:00	26950	20	-48.1		88	12	
2025-07-31T00:00	27000	20	-48.0		93	12	
2025-07-31T00:00	27050	20	-47.9		93	12	
2025-07-31T00:00	27100	20	-47.5		88	11	
2025-07-31T00:00	27150	20	-47.5		79	10	
2025-07-31T00:00	27200	19	-47.3		72	10	
2025-07-31T00:00	27250	19	-47.2		71	11	
2025-07-31T00:00	27300	19	-47.0		75	12	
2025-07-31T00:00	27350	19	-46.9		83	13	
2025-07-31T00:00	27400	19	-47.0		89	13	
2025-07-31T00:00	27450	19	-47.0		91	13	
2025-07-31T00:00	27500	19	-46.8		89	12	
2025-07-31T00:00	27550	18	-46.6		86	11	
2025-07-31T00:00	27600	18	-46.6		83	11	
2025-07-31T00:00	27650	18	-46.5		83	11	
2025-07-31T00:00	27700	18	-46.5		84	12	
2025-07-31T00:00	27750	18	-46.4		86	12	
2025-07-31T00:00	27800	18	-46.3		87	12	
2025-07-31T00:00	27850	18	-46.0		85	12	
2025-07-31T00:00	27900	17	-45.6		79	11	
2025-07-31T00:00	27950	17	-45.3		74	11	
2025-07-31T00:00	28000	17	-45.2		72	12	
2025-07-31T00:00	28050	17	-45.0		73	12	
2025-07-31T00:00	28100	17	-44.9		73	13	
2025-07-31T00:00	28150	17	-44.9		73	14	
2025-07-31T00:00	28200	17	-44.9		71	15	
2025-07-31T00:00	28250	17	-44.9		71	15	
2025-07-31T00:00	28300	16	-44.8		73	16	
2025-07-31T00:00	28350	16	-44.7		76	16	
2025-07-31T00:00	28400	16	-44.9		81	16	
2025-07-31T00:00	28450	16	-45.1		85	16	
2025-07-31T00:00	28500	16	-45.3		88	16	
2025-07-31T00:00	28550	16	-45.5		89	15	
2025-07-31T00:00	28600	16	-45.4		88	15	
2025-07-31T00:00	28650	16	-45.2		85	15	
2025-07-31T00:00	28700	15	-44.9		81	16	
2025-07-31T00:00	28750	15	-44.8		79	17	
2025-07-31T00:00	28800	15	-44.9		79	18	
2025-07-31T00:00	28850	15	-45.0		80	18	
2025-07-31T00:00	28900	15	-45.3		83	18	
2025-07-31T00:00	28950	15	-45.5		86	18	
2025-07-31T00:00	29000	15	-45.6		91	17	
2025-07-31T00:00	29050	15	-45.7		95	18	
2025-07-31T00:00	29100	15	-45.9		99	18	
2025-07-31T00:00	29150	14	-46.0		101	18	
2025-07-31T00:00	29200	14	-46.0		104	17	
2025-07-31T00:00	29250	14	-45.8		107	17	
2025-07-31T00:00	29300	14	-45.4		108	16	
2025-07-31T00:00	29350	14	-45.2		108	15	
2025-07-31T00:00	29400	14	-45.3		107	14	
2025-07-31T00:00	29450	14	-45.4		108	13	
2025-07-31T00:00	29500	14	-45.3		109	13	
2025-07-31T00:00	29550	14	-44.9		110	13	
2025-07-31T00:00	29600	14	-44.7		111	12	
2025-07-31T00:00	29650	13	-44.6		110	11	
2025-07-31T00:00	29700	13	-44.6		110	10	
2025-07-31T00:00	29750	13	-44.7		107	9	
2025-07-31T00:00	29800	13	-44.7		99	9	
2025-07-31T00:00	29850	13	-44.3		91	10	
2025-07-31T00:00	29900	13	-43.9		85	11	
2025-07-31T00:00	29950	13	-43.7		83	12	
2025-07-31T00:00	30000	13	-43.6		84	12	
2025-07-31T00:00	30050	13	-43.7		85	11	
2025-07-31T00:00	30100	13	-43.8		88	11	
2025-07-31T00:00	30150	12	-44.2		88	10	
2025-07-31T00:00	30200	12	-44.4		85	11	
2025-07-31T00:00	30250	12	-44.3		83	12	
2025-07-31T00:00	30300	12	-44.2		82	12	
2025-07-31T00:00	30350	12	-44.1		82	13	
2025-07-31T00:00	30400	12	-43.8		82	13	
2025-07-31T00:00	30450	12	-43.4		83	13	
2025-07-31T00:00	30500	12	-43.2		83	13	
2025-07-31T00:00	30550	12	-43.0		82	13	
2025-07-31T00:00	30600	12	-42.6		81	14	
2025-07-31T00:00	30650	12	-42.3		80	15	
2025-07-31T00:00	30700	11	-42.2		82	15	
2025-07-31T00:00	30750	11	-42.0		85	15	
2025-07-31T00:00	30800	11	-42.0		86	15	
2025-07-31T00:00	30850	11	-42.0		85	15	
2025-07-31T00:00	30900	11	-41.8		84	15	
2025-07-31T00:00	30950	11	-41.7		83	15	
2025-07-31T00:00	31000	11	-41.7		82	15	
2025-07-31T00:00	31050	11	-41.4		80	14	
2025-07-31T00:00	31100	11	-41.2		78	13	
2025-07-31T00:00	31150	11	-41.3		79	13	
2025-07-31T00:00	31200	11	-41.3		81	13	
2025-07-31T00:00	31250	11	-41.4		84	14	
2025-07-31T00:00	31300	11	-41.5		87	15	
2025-07-31T00:00	31350	10	-41.7		89	16	
2025-07-31T00:00	31400	10	-41.9		90	17	
2025-07-31T00:00	31450	10	-41.9		91	18	
2025-07-31T00:00	31500	10	-42.0		94	18	
2025-07-31T00:00	31550	10	-41.9		96	18	
2025-07-31T00:00	31600	10	-41.8		96	18	
2025-07-31T00:00	31650	10	-41.5		94	16	
2025-07-31T00:00	31700	10	-41.2		89	15	
2025-07-31T00:00	31750	10	-41.2		84	14	
2025-07-31T00:00	31800	10	-40.9		80	13	
2025-07-31T00:00	31850	10	-40.8		79	13	
2025-07-31T00:00	31900	10	-40.8		81	14	
2025-07-31T00:00	31950	10	-40.8		86	15	
2025-07-31T00:00	32000	9	-40.7		92	16	
2025-07-31T00:00	32050	9	-40.6		99	17	
2025-07-31T00:00	32100	9	-40.7		106	18	
2025-07-31T00:00	32150	9	-40.0		109	18	
2025-07-31T00:00	32200	9	-39.3		107	16	
2025-07-31T00:00	32250	9	-38.8		102	15	
2025-07-31T00:00	32300	9	-38.6		97	14	
2025-07-31T00:00	32350	9	-38.0		95	14	
2025-07-31T00:00	32400	9	-37.7		98	14	
2025-07-31T00:00	32450	9	-37.7		103	15	
2025-07-31T00:00	32500	9	-37.7		108	16	
2025-07-31T00:00	32550	9	-37.6		109	16	
2025-07-31T00:00	32600	9	-37.5		105	16	
2025-07-31T00:00	32650	9	-37.1		98	15	
2025-07-31T00:00	32700	9	-36.7		93	15	
2025-07-31T00:00	32750	8	-36.4		91	15	
2025-07-31T00:00	32800	8	-36.4		90	15	
2025-07-31T00:00	32850	8	-36.5		87	15	
2025-07-31T00:00	32900	8	-36.4		83	15	
2025-07-31T00:00	32950	8	-36.3		79	16	
2025-07-31T00:00	33000	8	-36.2		77	17	
2025-07-31T00:00	33050	8	-36.2		76	18	
2025-07-31T00:00	33100	8	-36.1		76	18	
2025-07-31T00:00	33150	8	-36.0		76	19	
2025-07-31T00:00	33200	8	-36.0		77	19	
2025-07-31T00:00	33250	8	-36.0		77	19	
2025-07-31T00:00	33300	8	-35.9		78	18	
2025-07-31T00:00	33350	8	-36.0		79	18	
2025-07-31T00:00	33400	8	-36.1		81	18	
2025-07-31T00:00	33450	8	-36.2		83	18	
2025-07-31T00:00	33500	8	-36.3		85	18	
2025-07-31T00:00	33550	8	-36.4		87	19	
2025-07-31T00:00	33600	8	-36.6		88	19	
2025-07-31T00:00	33650	7	-36.5		88	20	
2025-07-31T00:00	33700	7	-36.4		87	20	
2025-07-31T00:00	33750	7	-36.1		87	20	
2025-07-31T00:00	33800	7	-36.0		88	19	
2025-07-31T00:00	33850	7	-35.7		88	19	
2025-07-31T00:00	33900	7	-35.6		87	19	
2025-07-31T00:00	33950	7	-35.6		86	20	
2025-07-31T00:00	34000	7	-35.6		86	20	
2025-07-31T00:00	34050	7	-35.5		89	20	
2025-07-31T00:00	34100	7	-35.3		93	19	
2025-07-31T00:00	34150	7	-35.3		97	19	
2025-07-31T00:00	34200	7	-35.2		99	18	
2025-07-31T00:00	34250	7	-35.1		99	17	
2025-07-31T00:00	34300	7	-35.1		99	16	
2025-07-31T00:00	34350	7	-34.6		100	15	
2025-07-31T00:00	34400	7	-34.0		101	14	
2025-07-31T00:00	34450	7	-33.5		100	14	
2025-07-31T00:00	34500	7	-33.2		97	14	
2025-07-31T00:00	34550	7	-32.8		94	14	
2025-07-31T00:00	34600	7	-32.3		89	14	
2025-07-31T00:00	34650	6	-32.1		84	15	
2025-07-31T00:00	34700	6	-31.9		80	16	
2025-07-31T00:00	34750	6	-31.7		78	17	
2025-07-31T00:00	34800	6	-31.6		77	18	
2025-07-31T00:00	34850	6	-31.7		77	19	
2025-07-31T00:00	34900	6	-31.8		77	21	
2025-07-31T00:00	34950	6	-31.7		80	22	
2025-07-31T00:00	35000	6	-31.5		84	22	
2025-07-31T00:00	35050	6	-31.3		88	23	
2025-07-31T00:00	35100	6	-31.3		90	23	
2025-07-31T00:00	35150	6	-31.4		90	22	
2025-07-31T00:00	35200	6	-31.4		89	21	
2025-07-31T00:00	35250	6	-31.4		88	20	
2025-07-31T00:00	35300	6	-31.3		88	18	
2025-07-31T00:00	35350	6	-31.1		88	17	
2025-07-31T00:00	35400	6	-31.1		89	16	
2025-07-31T00:00	35450	6	-31.0		87	15	
2025-07-31T00:00	35500	6	-30.8		84	15	
2025-07-31T00:00	35550	6	-30.7		80	16	
2025-07-31T00:00	35600	6	-30.7		78	17	
2025-07-31T00:00	35650	6	-30.7		76	18	
2025-07-31T00:00	35700	6	-30.6		76	18	
2025-07-31T00:00	35750	6	-30.5		79	18	
2025-07-31T00:00	35800	5	-30.4		82	17	
2025-07-31T00:00	35850	5	-30.4		84	16	
2025-07-31T00:00	35900	5	-30.4		83	15	
2025-07-31T00:00	35950	5	-30.3		83	15	
2025-07-31T00:00	36000	5	-30.2		83	16	
2025-07-31T00:00	36050	5	-30.3		84	17	
2025-07-31T00:00	36100	5	-30.4		86	19	
2025-07-31T00:00	36150	5	-30.5		88	19	
2025-07-31T00:00	36200	5	-30.5		89	20	
2025-07-31T00:00	36250	5	-30.6		89	19	
2025-07-31T00:00	36300	5	-30.4		87	19	
2025-07-31T00:00	36350	5	-30.2		85	18	
2025-07-31T00:00	36400	5	-29.8		85	16	
2025-07-31T00:00	36450	5	-29.5		85	15	
2025-07-31T00:00	36500	5	-29.4		87	14	
2025-07-31T00:00	36550	5	-29.1		86	13	
2025-07-31T00:00	36600	5	-28.9		82	13	
2025-07-31T00:00	36650	5	-28.6		76	13	
2025-07-31T00:00	36700	5	-28.2		71	14	
2025-07-31T00:00	36750	5	-27.9		70	16	
2025-07-31T00:00	36800	5	-27.7		73	17	
2025-07-31T00:00	36850	5	-27.7		77	17	
2025-07-31T00:00	36900	5	-27.7		80	18	
2025-07-31T00:00	36950	5	-27.8		84	18	
2025-07-31T00:00	37000	5	-27.9		87	19	
2025-07-31T00:00	37050	5	-28.0		88	19	
2025-07-31T00:00	37100	5	-28.0		89	20	
2025-07-31T00:00	37150	5	-27.9		91	20	
2025-07-31T00:00	37200	5	-27.7		94	21	
2025-07-31T00:00	37250	4	-27.6		97	21	
2025-07-31T00:00	37300	4	-27.5		98	21	
2025-07-31T12:00	491	962	21.7	12.6	23	1	
2025-07-31T12:00	501	961	21.3	12.7	43	1	
2025-07-31T12:00	520	959	20.9	12.4	51	1	
2025-07-31T12:00	540	956	20.7	12.1	59	1	
2025-07-31T12:00	560	954	20.6	12.1	66	1	
2025-07-31T12:00	580	952	20.4	12.2	62	1	
2025-07-31T12:00	600	950	20.2	11.9	345	0	
2025-07-31T12:00	620	948	20.0	11.9	306	1	
2025-07-31T12:00	640	945	19.8	11.9	304	2	
2025-07-31T12:00	660	943	19.6	11.9	304	2	
2025-07-31T12:00	680	941	19.4	12.0	303	3	
2025-07-31T12:00	700	939	19.2	12.0	300	3	
2025-07-31T12:00	720	937	19.1	11.9	296	3	
2025-07-31T12:00	740	934	18.9	11.9	287	3	
2025-07-31T12:00	760	932	18.7	12.0	279	3	
2025-07-31T12:00	780	930	18.5	11.9	270	3	
2025-07-31T12:00	800	928	18.3	11.8	261	3	
2025-07-31T12:00	820	926	18.1	11.8	255	3	
2025-07-31T12:00	840	924	17.9	11.7	253	3	
2025-07-31T12:00	860	922	17.7	11.6	252	3	
2025-07-31T12:00	880	919	17.5	11.6	252	3	
2025-07-31T12:00	900	917	17.3	11.6	252	2	
2025-07-31T12:00	920	915	17.1	11.5	253	2	
2025-07-31T12:00	940	913	16.9	11.5	251	2	
2025-07-31T12:00	960	911	16.7	11.6	249	2	
2025-07-31T12:00	980	909	16.6	11.6	247	2	
2025-07-31T12:00	1000	907	16.4	11.6	245	3	
2025-07-31T12:00	1020	904	16.2	11.5	244	3	
2025-07-31T12:00	1040	902	16.0	11.3	243	3	
2025-07-31T12:00	1060	900	15.8	11.2	242	3	
2025-07-31T12:00	1080	898	15.6	11.3	239	3	
2025-07-31T12:00	1100	896	15.4	11.3	235	3	
2025-07-31T12:00	1120	894	15.2	11.4	232	3	
2025-07-31T12:00	1140	892	15.0	11.3	230	4	
2025-07-31T12:00	1160	890	14.9	10.8	229	4	
2025-07-31T12:00	1180	888	14.8	10.2	229	4	
2025-07-31T12:00	1200	885	14.6	10.0	229	5	
2025-07-31T12:00	1220	883	14.5	9.7	230	5	
2025-07-31T12:00	1240	881	14.3	9.8	231	5	
2025-07-31T12:00	1260	879	14.1	9.7	232	5	
2025-07-31T12:00	1280	877	13.9	9.9	231	4	
2025-07-31T12:00	1300	875	13.7	9.8	230	4	
2025-07-31T12:00	1320	873	13.5	9.7	228	4	
2025-07-31T12:00	1340	871	13.4	9.5	227	4	
2025-07-31T12:00	1360	869	13.1	9.7	226	4	
2025-07-31T12:00	1380	867	12.9	9.6	226	4	
2025-07-31T12:00	1400	865	12.8	9.3	226	4	
2025-07-31T12:00	1420	862	12.6	9.1	225	4	
2025-07-31T12:00	1440	861	12.5	9.1	225	4	
2025-07-31T12:00	1460	859	12.3	9.0	224	4	
2025-07-31T12:00	1480	857	12.2	8.6	223	4	
2025-07-31T12:00	1500	854	12.2	8.2	223	4	
2025-07-31T12:00	1520	852	12.0	8.1	222	4	
2025-07-31T12:00	1540	850	11.8	8.0	223	3	
2025-07-31T12:00	1560	848	11.7	7.9	225	3	
2025-07-31T12:00	1580	847	11.6	7.8	229	3	
2025-07-31T12:00	1600	844	11.4	7.7	235	3	
2025-07-31T12:00	1620	842	11.3	7.4	241	3	
2025-07-31T12:00	1640	840	11.1	7.4	245	4	
2025-07-31T12:00	1660	838	11.0	6.7	247	4	
2025-07-31T12:00	1680	836	10.9	5.9	247	4	
2025-07-31T12:00	1700	834	10.8	5.8	247	5	
2025-07-31T12:00	1720	832	10.7	5.2	247	5	
2025-07-31T12:00	1740	830	10.5	5.0	247	5	
2025-07-31T12:00	1760	829	10.3	5.2	248	5	
2025-07-31T12:00	1780	826	10.1	5.1	250	5	
2025-07-31T12:00	1800	824	9.9	5.2	250	6	
2025-07-31T12:00	1820	822	9.8	5.2	250	6	
2025-07-31T12:00	1840	820	9.6	5.0	248	6	
2025-07-31T12:00	1860	818	9.4	5.0	247	7	
2025-07-31T12:00	1880	816	9.2	4.8	246	6	
2025-07-31T12:00	1900	814	9.1	4.5	245	6	
2025-07-31T12:00	1920	813	9.0	4.4	245	6	
2025-07-31T12:00	1940	810	8.8	4.3	244	5	
2025-07-31T12:00	1960	809	8.7	4.2	243	5	
2025-07-31T12:00	1980	807	8.6	3.9	242	5	
2025-07-31T12:00	2000	805	8.4	3.9	241	4	
2025-07-31T12:00	2020	803	8.2	3.7	240	4	
2025-07-31T12:00	2040	801	8.1	3.6	240	4	
2025-07-31T12:00	2060	799	7.9	3.5	241	4	
2025-07-31T12:00	2080	797	7.7	3.4	241	4	
2025-07-31T12:00	2100	795	7.6	3.3	240	3	
2025-07-31T12:00	2120	793	7.5	3.1	240	3	
2025-07-31T12:00	2140	791	7.3	2.9	240	3	
2025-07-31T12:00	2160	789	7.1	2.9	243	2	
2025-07-31T12:00	2180	787	7.0	2.6	247	2	
2025-07-31T12:00	2200	785	6.9	2.4	256	2	
2025-07-31T12:00	2220	783	6.8	2.1	270	2	
2025-07-31T12:00	2240	782	6.7	2.1	277	2	
2025-07-31T12:00	2260	780	6.5	2.0	278	2	
2025-07-31T12:00	2280	778	6.3	1.9	274	2	
2025-07-31T12:00	2300	776	6.1	1.9	269	2	
2025-07-31T12:00	2320	774	5.9	1.8	262	3	
2025-07-31T12:00	2340	772	5.8	1.9	257	3	
2025-07-31T12:00	2360	770	5.6	1.7	253	3	
2025-07-31T12:00	2380	768	5.4	1.6	250	3	
2025-07-31T12:00	2400	767	5.2	1.6	250	3	
2025-07-31T12:00	2420	765	5.1	1.6	252	3	
2025-07-31T12:00	2440	763	4.9	1.4	254	3	
2025-07-31T12:00	2460	761	4.7	1.2	258	4	
2025-07-31T12:00	2480	759	4.5	1.4	262	4	
2025-07-31T12:00	2500	757	4.3	1.4	264	4	
2025-07-31T12:00	2520	755	4.2	1.4	266	4	
2025-07-31T12:00	2540	753	4.0	1.6	267	4	
2025-07-31T12:00	2560	752	3.8	1.6	268	4	
2025-07-31T12:00	2580	750	3.7	1.5	269	3	
2025-07-31T12:00	2600	748	3.4	1.6	271	3	
2025-07-31T12:00	2620	746	3.3	1.8	275	3	
2025-07-31T12:00	2640	744	3.1	1.8	280	3	
2025-07-31T12:00	2660	742	3.0	1.8	286	3	
2025-07-31T12:00	2680	741	2.9	1.7	290	4	
2025-07-31T12:00	2700	739	2.7	1.6	290	4	
2025-07-31T12:00	2720	737	2.6	1.5	289	4	
2025-07-31T12:00	2740	735	2.5	1.2	288	4	
2025-07-31T12:00	2760	733	2.3	1.3	288	5	
2025-07-31T12:00	2780	732	2.1	1.5	288	5	
2025-07-31T12:00	2800	730	2.2	2.2	288	5	
2025-07-31T12:00	2820	728	2.3	2.3	289	5	
2025-07-31T12:00	2840	726	2.1	2.1	289	5	
2025-07-31T12:00	2860	724	2.0	2.0	289	5	
2025-07-31T12:00	2880	723	1.9	1.9	288	5	
2025-07-31T12:00	2900	721	1.8	1.8	288	5	
2025-07-31T12:00	2920	719	1.7	1.7	288	5	
2025-07-31T12:00	2940	717	1.6	1.6	288	5	
2025-07-31T12:00	2960	715	1.5	1.5	289	5	
2025-07-31T12:00	2980	714	1.4	1.4	291	5	
2025-07-31T12:00	3000	712	1.3	1.3	294	5	
2025-07-31T12:00	3020	710	1.2	1.2	297	5	
2025-07-31T12:00	3040	708	1.0	1.0	300	5	
2025-07-31T12:00	3060	707	0.9	0.9	302	5	
2025-07-31T12:00	3080	705	0.8	0.8	303	6	
2025-07-31T12:00	3100	703	0.8	0.8	304	6	
2025-07-31T12:00	3120	701	0.6	0.6	305	6	
2025-07-31T12:00	3140	700	0.6	0.6	306	6	
2025-07-31T12:00	3160	698	0.4	0.4	308	6	
2025-07-31T12:00	3180	696	0.3	0.3	311	6	
2025-07-31T12:00	3200	694	0.2	0.2	313	7	
2025-07-31T12:00	3220	693	0.1	0.1	317	7	
2025-07-31T12:00	3240	691	-0.1	-0.7	322	7	
2025-07-31T12:00	3260	689	0.4	-2.3	325	8	
2025-07-31T12:00	3280	688	0.7	-3.2	326	8	
2025-07-31T12:00	3300	686	1.0	-3.7	326	9	
2025-07-31T12:00	3320	684	1.0	-3.7	325	9	
2025-07-31T12:00	3340	682	1.0	-3.8	324	9	
2025-07-31T12:00	3360	681	1.0	-3.8	324	9	
2025-07-31T12:00	3380	679	1.0	-3.8	324	8	
2025-07-31T12:00	3400	677	0.9	-3.9	324	8	
2025-07-31T12:00	3420	676	0.9	-3.9	324	7	
2025-07-31T12:00	3440	674	0.8	-3.9	324	7	
2025-07-31T12:00	3460	672	0.7	-4.0	324	7	
2025-07-31T12:00	3480	671	0.6	-3.9	324	7	
2025-07-31T12:00	3500	669	0.5	-3.9	324	7	
2025-07-31T12:00	3520	667	0.4	-4.1	325	7	
2025-07-31T12:00	3540	666	0.3	-4.3	325	7	
2025-07-31T12:00	3560	664	0.1	-4.3	324	7	
2025-07-31T12:00	3580	662	0.0	-4.3	323	7	
2025-07-31T12:00	3600	661	-0.2	-4.1	320	7	
2025-07-31T12:00	3620	659	-0.3	-4.7	316	7	
2025-07-31T12:00	3640	657	-0.4	-4.4	312	6	
2025-07-31T12:00	3660	656	-0.5	-3.6	309	6	
2025-07-31T12:00	3680	654	-0.6	-6.2	308	6	
2025-07-31T12:00	3700	652	-0.4	-10.3	308	6	
2025-07-31T12:00	3720	651	-0.3	-11.0	309	6	
2025-07-31T12:00	3740	649	-0.4	-10.7	309	6	
2025-07-31T12:00	3760	648	-0.5	-11.0	310	6	
2025-07-31T12:00	3780	646	-0.6	-11.0	311	6	
2025-07-31T12:00	3800	644	-0.7	-11.2	312	6	
2025-07-31T12:00	3820	643	-0.8	-11.6	312	6	
2025-07-31T12:00	3840	641	-0.9	-11.6	313	6	
2025-07-31T12:00	3860	640	-0.9	-11.7	314	7	
2025-07-31T12:00	3880	638	-1.1	-12.0	314	7	
2025-07-31T12:00	3900	636	-1.2	-12.1	313	7	
2025-07-31T12:00	3920	635	-1.3	-12.3	312	7	
2025-07-31T12:00	3940	633	-1.5	-12.5	310	7	
2025-07-31T12:00	3960	632	-1.6	-12.5	307	8	
2025-07-31T12:00	3980	630	-1.8	-12.5	306	8	
2025-07-31T12:00	4000	628	-2.0	-12.6	305	8	
2025-07-31T12:00	4020	627	-2.2	-12.6	306	7	
2025-07-31T12:00	4040	625	-2.4	-12.4	307	7	
2025-07-31T12:00	4060	623	-2.5	-12.4	309	8	
2025-07-31T12:00	4080	622	-2.6	-12.5	311	8	
2025-07-31T12:00	4100	621	-2.7	-12.8	312	8	
2025-07-31T12:00	4120	619	-2.9	-12.9	312	8	
2025-07-31T12:00	4140	618	-3.1	-13.0	313	8	
2025-07-31T12:00	4160	616	-3.2	-12.9	314	8	
2025-07-31T12:00	4180	614	-3.4	-12.9	315	8	
2025-07-31T12:00	4200	613	-3.6	-12.0	317	9	
2025-07-31T12:00	4220	611	-3.8	-10.8	318	10	
2025-07-31T12:00	4240	610	-4.0	-10.8	318	10	
2025-07-31T12:00	4260	608	-4.2	-10.9	317	10	
2025-07-31T12:00	4280	607	-4.3	-11.5	316	10	
2025-07-31T12:00	4300	605	-4.3	-13.2	315	10	
2025-07-31T12:00	4320	603	-4.3	-14.9	315	9	
2025-07-31T12:00	4340	602	-4.4	-15.2	316	9	
2025-07-31T12:00	4360	600	-4.5	-16.0	317	9	
2025-07-31T12:00	4380	599	-4.7	-15.3	319	9	
2025-07-31T12:00	4400	597	-4.7	-15.0	320	9	
2025-07-31T12:00	4420	596	-4.8	-15.1	320	9	
2025-07-31T12:00	4440	594	-4.8	-15.2	319	9	
2025-07-31T12:00	4460	593	-4.9	-15.5	317	9	
2025-07-31T12:00	4480	591	-4.9	-16.2	314	9	
2025-07-31T12:00	4500	590	-5.0	-16.8	312	9	
2025-07-31T12:00	4520	588	-5.1	-17.3	310	8	
2025-07-31T12:00	4540	587	-5.2	-16.9	310	8	
2025-07-31T12:00	4560	585	-5.3	-16.3	310	8	
2025-07-31T12:00	4580	584	-5.5	-14.6	310	8	
2025-07-31T12:00	4600	582	-5.6	-13.5	310	8	
2025-07-31T12:00	4620	581	-5.7	-13.2	309	8	
2025-07-31T12:00	4640	579	-5.8	-14.6	309	8	
2025-07-31T12:00	4660	578	-5.9	-15.0	310	8	
2025-07-31T12:00	4680	576	-6.0	-15.7	313	8	
2025-07-31T12:00	4700	575	-6.2	-15.6	315	8	
2025-07-31T12:00	4720	574	-6.4	-15.4	316	8	
2025-07-31T12:00	4740	572	-6.5	-16.4	318	8	
2025-07-31T12:00	4760	571	-6.6	-16.9	319	8	
2025-07-31T12:00	4780	569	-6.7	-17.3	319	8	
2025-07-31T12:00	4800	568	-6.8	-17.7	318	8	
2025-07-31T12:00	4820	566	-7.0	-17.9	317	9	
2025-07-31T12:00	4840	565	-7.1	-19.0	316	10	
2025-07-31T12:00	4860	563	-7.2	-20.7	315	10	
2025-07-31T12:00	4880	562	-7.3	-20.5	315	10	
2025-07-31T12:00	4900	560	-7.5	-20.3	315	10	
2025-07-31T12:00	4920	559	-7.7	-20.8	315	10	
2025-07-31T12:00	4940	558	-7.7	-21.6	315	10	
2025-07-31T12:00	4960	556	-7.8	-21.2	316	10	
2025-07-31T12:00	4980	555	-7.9	-21.6	317	10	
2025-07-31T12:00	5000	553	-8.0	-21.0	317	10	
2025-07-31T12:00	5020	552	-8.1	-20.3	318	10	
2025-07-31T12:00	5040	550	-8.3	-22.3	318	10	
2025-07-31T12:00	5060	549	-8.3	-24.3	317	10	
2025-07-31T12:00	5080	548	-8.5	-24.3	315	10	
2025-07-31T12:00	5100	546	-8.7	-18.6	314	10	
2025-07-31T12:00	5120	545	-8.9	-16.2	313	10	
2025-07-31T12:00	5140	543	-9.0	-15.9	311	10	
2025-07-31T12:00	5160	542	-9.1	-15.3	309	10	
2025-07-31T12:00	5180	541	-9.2	-18.0	307	10	
2025-07-31T12:00	5200	539	-9.3	-21.8	305	10	
2025-07-31T12:00	5220	538	-9.3	-24.1	303	10	
2025-07-31T12:00	5240	536	-9.4	-24.6	301	10	
2025-07-31T12:00	5260	535	-9.5	-24.4	300	10	
2025-07-31T12:00	5280	534	-9.7	-24.1	299	11	
2025-07-31T12:00	5300	532	-9.9	-23.2	299	11	
2025-07-31T12:00	5320	531	-10.1	-22.5	300	11	
2025-07-31T12:00	5340	529	-10.3	-22.4	300	11	
2025-07-31T12:00	5360	528	-10.4	-22.5	301	11	
2025-07-31T12:00	5380	527	-10.6	-22.7	301	10	
2025-07-31T12:00	5400	525	-10.8	-23.2	301	10	
2025-07-31T12:00	5420	524	-11.0	-23.6	301	10	
2025-07-31T12:00	5440	523	-11.2	-23.6	300	10	
2025-07-31T12:00	5460	521	-11.4	-23.8	299	10	
2025-07-31T12:00	5480	520	-11.5	-24.5	297	10	
2025-07-31T12:00	5500	519	-11.7	-25.8	296	10	
2025-07-31T12:00	5520	517	-11.8	-27.1	296	10	
2025-07-31T12:00	5540	516	-12.0	-26.8	296	10	
2025-07-31T12:00	5560	514	-12.2	-22.7	296	10	
2025-07-31T12:00	5580	513	-12.3	-19.3	298	10	
2025-07-31T12:00	5600	512	-12.5	-17.5	300	9	
2025-07-31T12:00	5620	511	-12.7	-16.7	302	9	
2025-07-31T12:00	5640	509	-12.8	-17.2	303	10	
2025-07-31T12:00	5660	508	-12.9	-17.4	304	10	
2025-07-31T12:00	5680	506	-13.0	-17.9	305	10	
2025-07-31T12:00	5700	505	-13.2	-17.8	304	10	
2025-07-31T12:00	5720	504	-13.3	-18.0	303	10	
2025-07-31T12:00	5740	503	-13.5	-17.9	303	10	
2025-07-31T12:00	5760	501	-13.7	-18.0	302	10	
2025-07-31T12:00	5780	500	-13.8	-18.2	302	11	
2025-07-31T12:00	5800	499	-14.0	-18.6	303	11	
2025-07-31T12:00	5820	497	-14.1	-18.9	305	11	
2025-07-31T12:00	5840	496	-14.2	-19.1	307	11	
2025-07-31T12:00	5860	495	-14.3	-19.5	309	11	
2025-07-31T12:00	5880	493	-14.4	-20.0	311	12	
2025-07-31T12:00	5900	492	-14.5	-20.9	313	12	
2025-07-31T12:00	5920	491	-14.6	-20.9	313	12	
2025-07-31T12:00	5940	489	-14.7	-21.0	313	12	
2025-07-31T12:00	5960	488	-14.7	-23.5	312	12	
2025-07-31T12:00	5980	487	-14.9	-24.5	312	12	
2025-07-31T12:00	6000	485	-15.1	-25.1	310	12	
2025-07-31T12:00	6020	484	-15.2	-25.7	309	12	
2025-07-31T12:00	6040	483	-15.3	-25.8	308	12	
2025-07-31T12:00	6060	482	-15.4	-24.0	307	12	
2025-07-31T12:00	6080	480	-15.6	-21.3	306	12	
2025-07-31T12:00	6100	479	-15.7	-20.8	305	12	
2025-07-31T12:00	6120	478	-15.8	-20.9	304	12	
2025-07-31T12:00	6140	477	-16.0	-20.6	303	12	
2025-07-31T12:00	6160	475	-16.2	-20.8	303	12	
2025-07-31T12:00	6180	474	-16.3	-21.7	303	12	
2025-07-31T12:00	6200	473	-16.4	-22.1	302	12	
2025-07-31T12:00	6220	472	-16.4	-23.1	303	13	
2025-07-31T12:00	6240	470	-16.3	-24.9	303	13	
2025-07-31T12:00	6260	469	-16.2	-28.4	303	13	
2025-07-31T12:00	6280	468	-16.1	-33.0	304	14	
2025-07-31T12:00	6300	467	-16.3	-33.8	305	14	
2025-07-31T12:00	6320	465	-16.4	-37.1	306	14	
2025-07-31T12:00	6340	464	-16.4	-39.7	306	14	
2025-07-31T12:00	6360	463	-16.4	-41.3	307	14	
2025-07-31T12:00	6380	462	-16.5	-41.4	308	14	
2025-07-31T12:00	6400	461	-16.7	-42.0	309	14	
2025-07-31T12:00	6420	459	-16.9	-42.8	310	14	
2025-07-31T12:00	6440	458	-17.0	-43.3	311	14	
2025-07-31T12:00	6460	457	-17.2	-43.8	311	14	
2025-07-31T12:00	6480	456	-17.3	-44.0	312	14	
2025-07-31T12:00	6500	454	-17.5	-44.3	312	14	
2025-07-31T12:00	6520	453	-17.6	-44.5	311	14	
2025-07-31T12:00	6540	452	-17.7	-44.7	310	13	
2025-07-31T12:00	6560	451	-17.9	-44.8	309	13	
2025-07-31T12:00	6580	450	-18.0	-44.7	308	13	
2025-07-31T12:00	6600	448	-18.1	-42.0	306	13	
2025-07-31T12:00	6620	447	-18.3	-37.8	306	12	
2025-07-31T12:00	6640	446	-18.5	-34.9	305	13	
2025-07-31T12:00	6660	445	-18.7	-33.0	305	13	
2025-07-31T12:00	6680	443	-18.9	-34.7	305	13	
2025-07-31T12:00	6700	442	-19.0	-36.6	306	13	
2025-07-31T12:00	6720	441	-19.2	-36.7	306	14	
2025-07-31T12:00	6740	440	-19.3	-36.8	307	14	
2025-07-31T12:00	6760	439	-19.5	-36.4	307	14	
2025-07-31T12:00	6780	438	-19.6	-37.9	308	14	
2025-07-31T12:00	6800	437	-19.7	-38.9	309	14	
2025-07-31T12:00	6820	435	-19.9	-42.0	310	14	
2025-07-31T12:00	6840	434	-20.1	-44.8	311	14	
2025-07-31T12:00	6860	433	-20.2	-46.0	312	14	
2025-07-31T12:00	6880	432	-20.4	-46.7	313	14	
2025-07-31T12:00	6900	431	-20.6	-46.6	314	13	
2025-07-31T12:00	6920	429	-20.7	-46.7	315	14	
2025-07-31T12:00	6940	428	-20.9	-46.7	316	14	
2025-07-31T12:00	6960	427	-21.1	-46.3	316	14	
2025-07-31T12:00	6980	426	-21.3	-47.1	317	14	
2025-07-31T12:00	7000	425	-21.4	-48.0	317	14	
2025-07-31T12:00	7020	424	-21.5	-48.4	317	15	
2025-07-31T12:00	7040	422	-21.6	-48.5	316	15	
2025-07-31T12:00	7060	421	-21.8	-48.6	316	15	
2025-07-31T12:00	7080	420	-21.9	-48.7	316	15	
2025-07-31T12:00	7100	419	-22.1	-48.7	315	15	
2025-07-31T12:00	7120	418	-22.2	-49.1	315	15	
2025-07-31T12:00	7140	417	-22.3	-49.4	315	15	
2025-07-31T12:00	7160	416	-22.5	-49.5	315	15	
2025-07-31T12:00	7180	414	-22.7	-49.8	315	16	
2025-07-31T12:00	7200	413	-22.8	-50.1	315	16	
2025-07-31T12:00	7220	412	-22.9	-50.1	316	16	
2025-07-31T12:00	7240	411	-23.1	-50.4	317	16	
2025-07-31T12:00	7260	410	-23.2	-50.6	318	16	
2025-07-31T12:00	7280	409	-23.3	-51.0	318	16	
2025-07-31T12:00	7300	408	-23.4	-51.2	319	16	
2025-07-31T12:00	7320	407	-23.5	-51.3	320	15	
2025-07-31T12:00	7340	406	-23.7	-51.2	321	15	
2025-07-31T12:00	7360	405	-23.8	-51.1	323	15	
2025-07-31T12:00	7380	403	-23.9	-51.1	324	15	
2025-07-31T12:00	7400	402	-24.0	-51.3	326	15	
2025-07-31T12:00	7420	401	-24.1	-50.8	327	16	
2025-07-31T12:00	7440	400	-24.2	-49.6	328	16	
2025-07-31T12:00	7460	399	-24.3	-47.6	329	16	
2025-07-31T12:00	7480	398	-24.4	-44.8	329	16	
2025-07-31T12:00	7500	397	-24.6	-43.2	330	16	
2025-07-31T12:00	7520	396	-24.8	-42.4	330	16	
2025-07-31T12:00	7540	395	-25.0	-41.7	329	16	
2025-07-31T12:00	7560	393	-25.2	-39.9	329	16	
2025-07-31T12:00	7580	392	-25.4	-39.7	328	17	
2025-07-31T12:00	7600	391	-25.5	-39.9	326	17	
2025-07-31T12:00	7620	390	-25.7	-39.6	325	17	
2025-07-31T12:00	7640	389	-25.9	-39.4	324	17	
2025-07-31T12:00	7660	388	-26.1	-39.6	323	16	
2025-07-31T12:00	7680	387	-26.3	-40.1	322	16	
2025-07-31T12:00	7700	386	-26.5	-40.3	322	16	
2025-07-31T12:00	7720	385	-26.7	-39.9	322	16	
2025-07-31T12:00	7740	384	-26.8	-40.0	322	17	
2025-07-31T12:00	7760	383	-27.0	-39.7	323	17	
2025-07-31T12:00	7780	382	-27.2	-39.6	323	17	
2025-07-31T12:00	7800	381	-27.4	-39.7	323	18	
2025-07-31T12:00	7820	380	-27.5	-39.6	323	18	
2025-07-31T12:00	7840	379	-27.7	-39.5	323	18	
2025-07-31T12:00	7860	378	-27.8	-40.1	323	18	
2025-07-31T12:00	7880	376	-28.0	-39.8	323	18	
2025-07-31T12:00	7900	375	-28.2	-39.7	322	18	
2025-07-31T12:00	7920	374	-28.3	-39.8	322	17	
2025-07-31T12:00	7940	373	-28.5	-39.8	321	17	
2025-07-31T12:00	7960	372	-28.7	-39.9	321	17	
2025-07-31T12:00	7980	371	-28.8	-39.9	320	17	
2025-07-31T12:00	8000	370	-29.0	-40.0	319	17	
2025-07-31T12:00	8020	369	-29.2	-40.1	319	17	
2025-07-31T12:00	8040	368	-29.4	-40.2	319	17	
2025-07-31T12:00	8060	367	-29.5	-40.3	319	17	
2025-07-31T12:00	8080	366	-29.7	-40.4	319	17	
2025-07-31T12:00	8100	365	-29.9	-40.6	320	17	
2025-07-31T12:00	8120	364	-30.0	-41.1	320	17	
2025-07-31T12:00	8140	363	-30.1	-41.3	320	17	
2025-07-31T12:00	8160	362	-30.3	-41.7	320	17	
2025-07-31T12:00	8180	361	-30.4	-41.9	320	17	
2025-07-31T12:00	8200	360	-30.6	-42.0	321	17	
2025-07-31T12:00	8220	359	-30.7	-41.7	321	18	
2025-07-31T12:00	8240	358	-30.9	-41.3	321	18	
2025-07-31T12:00	8260	357	-31.0	-42.0	322	18	
2025-07-31T12:00	8280	356	-31.2	-41.8	323	18	
2025-07-31T12:00	8300	355	-31.3	-41.3	323	18	
2025-07-31T12:00	8320	354	-31.5	-41.1	323	18	
2025-07-31T12:00	8340	353	-31.6	-41.6	324	18	
2025-07-31T12:00	8360	352	-31.8	-41.3	324	18	
2025-07-31T12:00	8380	351	-32.0	-40.7	324	18	
2025-07-31T12:00	8400	350	-32.1	-40.6	324	18	
2025-07-31T12:00	8420	349	-32.3	-40.4	324	18	
2025-07-31T12:00	8440	348	-32.5	-40.2	324	18	
2025-07-31T12:00	8460	347	-32.6	-40.5	324	18	
2025-07-31T12:00	8480	346	-32.8	-40.4	325	18	
2025-07-31T12:00	8500	345	-33.0	-40.5	326	18	
2025-07-31T12:00	8520	344	-33.2	-40.6	327	19	
2025-07-31T12:00	8540	343	-33.4	-40.7	327	19	
2025-07-31T12:00	8560	342	-33.5	-41.1	327	19	
2025-07-31T12:00	8580	341	-33.7	-41.3	327	19	
2025-07-31T12:00	8600	340	-33.8	-41.6	327	20	
2025-07-31T12:00	8620	339	-34.0	-41.9	326	20	
2025-07-31T12:00	8640	338	-34.1	-41.8	325	20	
2025-07-31T12:00	8660	337	-34.3	-42.1	325	20	
2025-07-31T12:00	8680	336	-34.4	-42.3	324	21	
2025-07-31T12:00	8700	335	-34.6	-42.3	323	21	
2025-07-31T12:00	8720	334	-34.7	-42.6	323	21	
2025-07-31T12:00	8740	333	-34.8	-43.1	323	21	
2025-07-31T12:00	8760	332	-35.0	-43.5	323	21	
2025-07-31T12:00	8780	331	-35.1	-43.6	323	21	
2025-07-31T12:00	8800	330	-35.2	-43.8	323	21	
2025-07-31T12:00	8820	329	-35.4	-44.0	323	21	
2025-07-31T12:00	8840	329	-35.6	-43.9	323	21	
2025-07-31T12:00	8860	328	-35.7	-44.1	323	21	
2025-07-31T12:00	8880	327	-35.9	-44.5	322	21	
2025-07-31T12:00	8900	326	-36.0	-44.7	322	21	
2025-07-31T12:00	8920	325	-36.2	-44.5	322	21	
2025-07-31T12:00	8940	324	-36.4	-44.4	322	21	
2025-07-31T12:00	8960	323	-36.6	-44.4	322	21	
2025-07-31T12:00	8980	322	-36.8	-44.8	322	22	
2025-07-31T12:00	9000	321	-36.9	-46.0	322	22	
2025-07-31T12:00	9020	320	-37.0	-46.8	322	22	
2025-07-31T12:00	9040	319	-37.1	-47.2	322	22	
2025-07-31T12:00	9060	318	-37.2	-47.9	322	22	
2025-07-31T12:00	9080	317	-37.3	-49.2	322	22	
2025-07-31T12:00	9100	317	-37.4	-49.6	322	22	
2025-07-31T12:00	9120	316	-37.6	-49.2	322	22	
2025-07-31T12:00	9140	315	-37.7	-49.2	322	22	
2025-07-31T12:00	9160	314	-37.9	-49.5	322	21	
2025-07-31T12:00	9180	313	-38.1	-49.4	323	21	
2025-07-31T12:00	9200	312	-38.3	-49.4	323	21	
2025-07-31T12:00	9220	311	-38.5	-49.5	323	21	
2025-07-31T12:00	9240	310	-38.6	-49.7	324	21	
2025-07-31T12:00	9260	309	-38.8	-49.8	324	21	
2025-07-31T12:00	9280	308	-39.0	-49.7	325	21	
2025-07-31T12:00	9300	307	-39.2	-49.4	325	21	
2025-07-31T12:00	9320	306	-39.3	-49.5	325	21	
2025-07-31T12:00	9340	306	-39.5	-49.5	324	21	
2025-07-31T12:00	9360	305	-39.7	-49.3	324	22	
2025-07-31T12:00	9380	304	-39.8	-49.2	324	22	
2025-07-31T12:00	9400	303	-40.0	-49.1	324	22	
2025-07-31T12:00	9420	302	-40.2	-49.3	324	22	
2025-07-31T12:00	9440	301	-40.4	-49.5	324	22	
2025-07-31T12:00	9460	300	-40.5	-48.8	324	22	
2025-07-31T12:00	9480	299	-40.7	-48.1	324	22	
2025-07-31T12:00	9500	299	-40.9	-48.4	323	22	
2025-07-31T12:00	9520	298	-41.0	-48.9	323	21	
2025-07-31T12:00	9540	297	-41.2	-49.0	323	21	
2025-07-31T12:00	9560	296	-41.4	-49.4	323	21	
2025-07-31T12:00	9580	295	-41.6	-49.9	323	21	
2025-07-31T12:00	9600	294	-41.8	-50.3	323	21	
2025-07-31T12:00	9620	293	-41.9	-50.8	323	21	
2025-07-31T12:00	9640	292	-42.1	-51.1	323	21	
2025-07-31T12:00	9660	292	-42.3	-51.1	323	21	
2025-07-31T12:00	9680	291	-42.5	-51.3	322	21	
2025-07-31T12:00	9700	290	-42.6	-51.3	322	21	
2025-07-31T12:00	9720	289	-42.8	-51.4	322	21	
2025-07-31T12:00	9740	288	-43.0	-51.3	322	21	
2025-07-31T12:00	9760	287	-43.2	-51.1	321	21	
2025-07-31T12:00	9780	286	-43.4	-50.7	322	21	
2025-07-31T12:00	9800	286	-43.5	-50.2	322	22	
2025-07-31T12:00	9820	285	-43.7	-50.2	322	22	
2025-07-31T12:00	9840	284	-43.9	-50.1	322	22	
2025-07-31T12:00	9860	283	-44.1	-50.9	323	22	
2025-07-31T12:00	9880	282	-44.1	-52.4	323	22	
2025-07-31T12:00	9900	281	-44.2	-52.4	324	22	
2025-07-31T12:00	9920	281	-44.4	-52.4	324	22	
2025-07-31T12:00	9940	280	-44.6	-52.3	324	22	
2025-07-31T12:00	9960	279	-44.8	-52.5	324	22	
2025-07-31T12:00	9980	278	-45.0	-53.1	324	22	
2025-07-31T12:00	10000	277	-45.2	-53.4	324	22	
2025-07-31T12:00	10018	276	-45.3	-53.9	324	22	
2025-07-31T12:00	10050	275	-45.6	-54.6	324	21	
2025-07-31T12:00	10100	273	-46.0	-56.0	326	21	
2025-07-31T12:00	10150	271	-46.5	-56.2	326	21	
2025-07-31T12:00	10200	269	-46.8	-56.1	326	22	
2025-07-31T12:00	10250	267	-47.2	-56.8	326	22	
2025-07-31T12:00	10300	265	-47.6	-59.1	326	23	
2025-07-31T12:00	10350	263	-48.0	-56.6	327	23	
2025-07-31T12:00	10400	261	-48.4	-55.7	327	23	
2025-07-31T12:00	10450	259	-48.8	-55.9	328	23	
2025-07-31T12:00	10500	257	-49.2	-56.6	328	23	
2025-07-31T12:00	10550	255	-49.4	-58.2	328	23	
2025-07-31T12:00	10600	253	-49.7	-58.3	328	23	
2025-07-31T12:00	10650	251	-50.0	-59.1	328	23	
2025-07-31T12:00	10700	249	-50.4	-58.5	327	22	
2025-07-31T12:00	10750	247	-50.7	-59.9	326	22	
2025-07-31T12:00	10800	245	-51.0	-60.7	323	21	
2025-07-31T12:00	10850	244	-51.2	-61.8	320	21	
2025-07-31T12:00	10900	242	-51.2	-61.8	316	20	
2025-07-31T12:00	10950	240	-51.3	-61.8	313	19	
2025-07-31T12:00	11000	238	-51.4	-62.6	311	17	
2025-07-31T12:00	11050	236	-51.5	-63.4	311	16	
2025-07-31T12:00	11100	234	-51.9	-63.5	310	17	
2025-07-31T12:00	11150	233	-52.2	-63.4	305	18	
2025-07-31T12:00	11200	231	-52.2	-63.4	301	19	
2025-07-31T12:00	11250	229	-52.4	-63.1	301	20	
2025-07-31T12:00	11300	227	-52.5	-63.3	302	20	
2025-07-31T12:00	11350	225	-52.5	-63.4	303	21	
2025-07-31T12:00	11400	224	-52.8	-64.6	304	22	
2025-07-31T12:00	11450	222	-52.9	-65.7	304	23	
2025-07-31T12:00	11500	220	-53.1	-65.6	304	24	
2025-07-31T12:00	11550	219	-53.3	-65.8	305	24	
2025-07-31T12:00	11600	217	-53.3	-66.6	306	24	
2025-07-31T12:00	11650	215	-53.3	-67.4	308	23	
2025-07-31T12:00	11700	214	-53.1	-68.6	310	22	
2025-07-31T12:00	11750	212	-52.6	-69.0	309	20	
2025-07-31T12:00	11800	210	-52.1	-69.1	306	19	
2025-07-31T12:00	11850	209	-51.8	-69.3	301	18	
2025-07-31T12:00	11900	207	-51.8	-70.6	298	18	
2025-07-31T12:00	11950	206	-51.5	-72.6	297	18	
2025-07-31T12:00	12000	204	-51.1	-73.1	295	18	
2025-07-31T12:00	12050	202	-50.8	-74.4	292	18	
2025-07-31T12:00	12100	201	-50.8	-74.9	289	18	
2025-07-31T12:00	12150	199	-51.1	-75.0	286	19	
2025-07-31T12:00	12200	198	-51.4	-75.3	284	21	
2025-07-31T12:00	12250	196	-51.2	-76.1	282	22	
2025-07-31T12:00	12300	195	-51.0	-76.5	283	24	
2025-07-31T12:00	12350	193	-50.9	-76.9	284	25	
2025-07-31T12:00	12400	192	-50.8	-77.3	287	25	
2025-07-31T12:00	12450	190	-50.5	-77.4	291	24	
2025-07-31T12:00	12500	189	-50.5	-77.4	293	24	
2025-07-31T12:00	12550	187	-50.0	-77.4	293	24	
2025-07-31T12:00	12600	186	-49.8	-77.3	292	23	
2025-07-31T12:00	12650	185	-49.7	-77.5	291	22	
2025-07-31T12:00	12700	183	-49.7	-77.5	292	21	
2025-07-31T12:00	12750	182	-49.9	-77.6	293	19	
2025-07-31T12:00	12800	180	-50.0	-77.7	292	18	
2025-07-31T12:00	12850	179	-49.9	-77.9	288	16	
2025-07-31T12:00	12900	178	-50.0	-78.0	285	16	
2025-07-31T12:00	12950	176	-50.3	-78.0	283	16	
2025-07-31T12:00	13000	175	-50.6	-78.2	282	17	
2025-07-31T12:00	13050	174	-50.9	-78.4	283	17	
2025-07-31T12:00	13100	172	-51.0	-78.7	283	17	
2025-07-31T12:00	13150	171	-51.2	-78.9	284	18	
2025-07-31T12:00	13200	170	-51.4	-78.9	285	19	
2025-07-31T12:00	13250	168	-51.5	-78.8	286	20	
2025-07-31T12:00	13300	167	-51.9	-78.5	288	20	
2025-07-31T12:00	13350	166	-52.1	-78.5	290	20	
2025-07-31T12:00	13400	164	-52.2	-79.2	291	19	
2025-07-31T12:00	13450	163	-51.9	-80.4	290	17	
2025-07-31T12:00	13500	162	-51.9	-80.4	288	17	
2025-07-31T12:00	13550	161	-52.1	-80.3	289	16	
2025-07-31T12:00	13600	159	-52.4	-80.3	291	17	
2025-07-31T12:00	13650	158	-52.6	-80.4	292	16	
2025-07-31T12:00	13700	157	-52.9	-80.5	293	16	
2025-07-31T12:00	13750	156	-53.0	-80.7	291	16	
2025-07-31T12:00	13800	155	-53.1	-81.1	289	16	
2025-07-31T12:00	13850	153	-52.7	-81.1	287	16	
2025-07-31T12:00	13900	152	-52.8	-81.2	284	17	
2025-07-31T12:00	13950	151	-52.9	-81.1	282	18	
2025-07-31T12:00	14000	150	-53.1	-81.2	282	19	
2025-07-31T12:00	14050	149	-53.2	-81.1	282	18	
2025-07-31T12:00	14100	148	-53.2	-80.6	281	18	
2025-07-31T12:00	14150	146	-53.1	-79.9	280	18	
2025-07-31T12:00	14200	145	-53.2	-79.7	282	19	
2025-07-31T12:00	14250	144	-53.2	-80.7	286	19	
2025-07-31T12:00	14300	143	-53.1	-81.5	292	19	
2025-07-31T12:00	14350	142	-53.1	-81.6	294	19	
2025-07-31T12:00	14400	141	-53.2	-81.7	291	19	
2025-07-31T12:00	14450	140	-53.4	-81.8	287	19	
2025-07-31T12:00	14500	139	-53.7	-81.8	286	18	
2025-07-31T12:00	14550	138	-53.8	-81.8	287	17	
2025-07-31T12:00	14600	137	-53.9	-81.6	289	16	
2025-07-31T12:00	14650	135	-54.0	-81.6	291	15	
2025-07-31T12:00	14700	134	-54.3	-81.7	294	15	
2025-07-31T12:00	14750	133	-54.4	-81.5	295	14	
2025-07-31T12:00	14800	132	-54.3	-81.3	292	14	
2025-07-31T12:00	14850	131	-54.4	-81.4	287	15	
2025-07-31T12:00	14900	130	-54.6	-81.6	284	16	
2025-07-31T12:00	14950	129	-54.7	-81.6	282	16	
2025-07-31T12:00	15000	128	-54.8	-81.6	281	16	
2025-07-31T12:00	15050	127	-54.8	-81.9	282	16	
2025-07-31T12:00	15100	126	-54.6	-82.3	282	15	
2025-07-31T12:00	15150	125	-54.3	-82.4	279	15	
2025-07-31T12:00	15200	124	-54.6	-82.5	276	16	
2025-07-31T12:00	15250	123	-54.4	-82.5	278	16	
2025-07-31T12:00	15300	122	-54.2	-82.6	284	16	
2025-07-31T12:00	15350	121	-53.8	-82.7	292	16	
2025-07-31T12:00	15400	120	-53.6	-82.6	296	16	
2025-07-31T12:00	15450	120	-53.5	-82.6	296	15	
2025-07-31T12:00	15500	119	-53.6	-82.6	295	14	
2025-07-31T12:00	15550	118	-53.4	-82.6	296	12	
2025-07-31T12:00	15600	117	-53.4	-82.6	297	10	
2025-07-31T12:00	15650	116	-53.6	-82.7	294	9	
2025-07-31T12:00	15700	115	-53.5	-82.6	288	7	
2025-07-31T12:00	15750	114	-53.7	-82.6	277	7	
2025-07-31T12:00	15800	113	-54.0	-82.9	271	7	
2025-07-31T12:00	15850	112	-53.8	-82.9	273	8	
2025-07-31T12:00	15900	111	-53.7	-83.0	279	8	
2025-07-31T12:00	15950	111	-53.7	-83.0	284	9	
2025-07-31T12:00	16000	110	-54.0	-83.0	287	10	
2025-07-31T12:00	16050	109	-54.3	-83.0	288	11	
2025-07-31T12:00	16100	108	-54.6	-83.2	289	11	
2025-07-31T12:00	16150	107	-54.8	-83.4	291	11	
2025-07-31T12:00	16200	106	-54.6	-83.4	291	9	
2025-07-31T12:00	16250	106	-54.7	-83.5	288	8	
2025-07-31T12:00	16300	105	-54.8	-83.4	283	7	
2025-07-31T12:00	16350	104	-54.8	-83.4	280	6	
2025-07-31T12:00	16400	103	-55.1	-83.4	277	7	
2025-07-31T12:00	16450	102	-55.2	-83.5	278	8	
2025-07-31T12:00	16500	101	-55.0	-83.5	283	8	
2025-07-31T12:00	16550	101	-54.8	-83.6	285	8	
2025-07-31T12:00	16600	100	-54.6	-83.6	285	7	
2025-07-31T12:00	16650	99	-54.8	-83.7	288	7	
2025-07-31T12:00	16700	98	-55.0	-83.8	289	6	
2025-07-31T12:00	16750	98	-55.2	-83.8	284	6	
2025-07-31T12:00	16800	97	-55.5	-83.9	275	6	
2025-07-31T12:00	16850	96	-55.4	-84.1	266	5	
2025-07-31T12:00	16900	95	-55.1	-84.0	256	5	
2025-07-31T12:00	16950	95	-55.3	-84.1	247	6	
2025-07-31T12:00	17000	94	-55.2	-84.1	239	7	
2025-07-31T12:00	17050	93	-55.0	-84.0	235	8	
2025-07-31T12:00	17100	92	-54.9	-84.0	235	9	
2025-07-31T12:00	17150	92	-54.8	-83.7	238	9	
2025-07-31T12:00	17200	91	-55.1	-83.7	240	9	
2025-07-31T12:00	17250	90	-55.5	-83.7	243	9	
2025-07-31T12:00	17300	90	-55.9	-83.9	245	9	
2025-07-31T12:00	17350	89	-56.1	-84.2	247	8	
2025-07-31T12:00	17400	88	-55.7	-84.4	251	7	
2025-07-31T12:00	17450	87	-55.2	-84.3	255	7	
2025-07-31T12:00	17500	87	-55.3	-84.2	255	7	
2025-07-31T12:00	17550	86	-55.6	-84.4	252	7	
2025-07-31T12:00	17600	85	-55.3	-84.4	249	7	
2025-07-31T12:00	17650	85	-54.7	-84.2	251	7	
2025-07-31T12:00	17700	84	-54.8	-84.2	258	8	
2025-07-31T12:00	17750	83	-55.0	-84.2	265	8	
2025-07-31T12:00	17800	83	-55.1	-84.2	270	8	
2025-07-31T12:00	17850	82	-55.3	-84.4	277	7	
2025-07-31T12:00	17900	81	-55.2	-84.4	285	7	
2025-07-31T12:00	17950	81	-54.9	-84.3	292	7	
2025-07-31T12:00	18000	80	-54.8	-84.3	297	6	
2025-07-31T12:00	18050	80	-54.9	-84.2	298	5	
2025-07-31T12:00	18100	79	-55.3	-84.2	298	5	
2025-07-31T12:00	18150	78	-55.6	-84.3	301	4	
2025-07-31T12:00	18200	78	-55.8	-84.4	304	4	
2025-07-31T12:00	18250	77	-56.1	-84.5	301	3	
2025-07-31T12:00	18300	77	-56.4	-84.6	291	3	
2025-07-31T12:00	18350	76	-56.5	-84.8	283	3	
2025-07-31T12:00	18400	75	-56.2	-84.8	288	4	
2025-07-31T12:00	18450	75	-55.9	-85.1	301	5	
2025-07-31T12:00	18500	74	-54.9	-85.0	313	5	
2025-07-31T12:00	18550	74	-53.8	-84.5	323	5	
2025-07-31T12:00	18600	73	-53.8	-84.4	338	4	
2025-07-31T12:00	18650	72	-54.0	-84.3	3	3	
2025-07-31T12:00	18700	72	-54.1	-84.2	47	2	
2025-07-31T12:00	18750	71	-54.1	-84.2	97	2	
2025-07-31T12:00	18800	71	-54.2	-84.1	124	3	
2025-07-31T12:00	18850	70	-54.5	-84.1	137	4	
2025-07-31T12:00	18900	70	-54.9	-84.2	148	4	
2025-07-31T12:00	18950	69	-55.3	-84.5	156	4	
2025-07-31T12:00	19000	69	-55.4	-84.6	157	4	
2025-07-31T12:00	19050	68	-55.0	-84.6	151	4	
2025-07-31T12:00	19100	68	-54.8	-84.6	149	4	
2025-07-31T12:00	19150	67	-54.7	-84.5	153	3	
2025-07-31T12:00	19200	66	-54.9	-84.6	151	3	
2025-07-31T12:00	19250	66	-54.9	-84.6	145	3	
2025-07-31T12:00	19300	65	-54.8	-84.6	147	3	
2025-07-31T12:00	19350	65	-54.7	-84.6	150	3	
2025-07-31T12:00	19400	64	-54.5	-84.6	154	3	
2025-07-31T12:00	19450	64	-54.3	-84.5	161	3	
2025-07-31T12:00	19500	63	-54.3	-84.5	164	3	
2025-07-31T12:00	19550	63	-54.3	-84.6	158	2	
2025-07-31T12:00	19600	62	-53.7	-84.3	155	3	
2025-07-31T12:00	19650	62	-53.9	-84.4	164	4	
2025-07-31T12:00	19700	61	-53.9	-84.3	175	5	
2025-07-31T12:00	19750	61	-54.0	-84.3	185	5	
2025-07-31T12:00	19800	61	-54.1	-84.3	193	4	
2025-07-31T12:00	19850	60	-54.3	-84.4	202	4	
2025-07-31T12:00	19900	60	-54.3	-84.5	214	2	
2025-07-31T12:00	19950	59	-54.2	-84.6	37	1	
2025-07-31T12:00	20000	59	-53.6	-84.5	48	3	
2025-07-31T12:00	20050	58	-53.6		50	4	
2025-07-31T12:00	20100	58	-53.4		53	4	
2025-07-31T12:00	20150	57	-53.4		61	5	
2025-07-31T12:00	20200	57	-53.4		71	5	
2025-07-31T12:00	20250	56	-53.5		76	5	
2025-07-31T12:00	20300	56	-53.5		76	6	
2025-07-31T12:00	20350	56	-53.4		75	5	
2025-07-31T12:00	20400	55	-53.3		71	4	
2025-07-31T12:00	20450	55	-53.5		66	2	
2025-07-31T12:00	20500	54	-53.7		54	1	
2025-07-31T12:00	20550	54	-53.9		290	1	
2025-07-31T12:00	20600	53	-53.6		287	1	
2025-07-31T12:00	20650	53	-53.5		319	2	
2025-07-31T12:00	20700	53	-53.4		357	2	
2025-07-31T12:00	20750	52	-53.4		21	3	
2025-07-31T12:00	20800	52	-53.4		35	4	
2025-07-31T12:00	20850	51	-53.5		47	5	
2025-07-31T12:00	20900	51	-53.6		59	6	
2025-07-31T12:00	20950	51	-53.5		68	7	
2025-07-31T12:00	21000	50	-53.5		75	7	
2025-07-31T12:00	21050	50	-53.4		84	6	
2025-07-31T12:00	21100	49	-53.3		96	5	
2025-07-31T12:00	21150	49	-53.2		99	4	
2025-07-31T12:00	21200	49	-53.2		91	4	
2025-07-31T12:00	21250	48	-53.2		78	4	
2025-07-31T12:00	21300	48	-53.3		69	5	
2025-07-31T12:00	21350	48	-53.4		68	6	
2025-07-31T12:00	21400	47	-53.3		73	7	
2025-07-31T12:00	21450	47	-53.2		81	9	
2025-07-31T12:00	21500	46	-53.2		89	10	
2025-07-31T12:00	21550	46	-53.2		97	11	
2025-07-31T12:00	21600	46	-53.1		105	12	
2025-07-31T12:00	21650	45	-53.0		113	12	
2025-07-31T12:00	21700	45	-53.0		120	13	
2025-07-31T12:00	21750	45	-53.1		126	13	
2025-07-31T12:00	21800	44	-53.1		130	11	
2025-07-31T12:00	21850	44	-53.0		132	9	
2025-07-31T12:00	21900	44	-52.7		129	6	
2025-07-31T12:00	21950	43	-52.4		117	4	
2025-07-31T12:00	22000	43	-52.1		90	3	
2025-07-31T12:00	22050	43	-52.0		73	4	
2025-07-31T12:00	22100	42	-51.6		73	5	
2025-07-31T12:00	22150	42	-51.4		81	6	
2025-07-31T12:00	22200	42	-51.3		89	6	
2025-07-31T12:00	22250	41	-51.5		94	7	
2025-07-31T12:00	22300	41	-51.7		102	8	
2025-07-31T12:00	22350	41	-51.9		110	8	
2025-07-31T12:00	22400	40	-52.0		117	9	
2025-07-31T12:00	22450	40	-51.9		123	8	
2025-07-31T12:00	22500	40	-51.9		126	7	
2025-07-31T12:00	22550	40	-51.9		130	7	
2025-07-31T12:00	22600	39	-51.7		133	7	
2025-07-31T12:00	22650	39	-51.7		135	9	
2025-07-31T12:00	22700	39	-51.8		138	10	
2025-07-31T12:00	22750	38	-51.9		141	10	
2025-07-31T12:00	22800	38	-51.8		145	9	
2025-07-31T12:00	22850	38	-51.5		149	8	
2025-07-31T12:00	22900	37	-51.5		152	7	
2025-07-31T12:00	22950	37	-51.7		155	6	
2025-07-31T12:00	23000	37	-51.9		156	5	
2025-07-31T12:00	23050	37	-52.0		157	4	
2025-07-31T12:00	23100	36	-52.0		158	3	
2025-07-31T12:00	23150	36	-51.9		153	2	
2025-07-31T12:00	23200	36	-51.4		130	1	
2025-07-31T12:00	23250	35	-51.3		96	2	
2025-07-31T12:00	23300	35	-51.3		79	3	
2025-07-31T12:00	23350	35	-51.0		72	4	
2025-07-31T12:00	23400	35	-50.8		71	6	
2025-07-31T12:00	23450	34	-50.8		74	7	
2025-07-31T12:00	23500	34	-50.9		79	8	
2025-07-31T12:00	23550	34	-50.9		84	9	
2025-07-31T12:00	23600	34	-51.1		90	9	
2025-07-31T12:00	23650	33	-51.1		96	9	
2025-07-31T12:00	23700	33	-51.3		99	8	
2025-07-31T12:00	23750	33	-51.3		100	8	
2025-07-31T12:00	23800	33	-51.2		98	8	
2025-07-31T12:00	23850	32	-51.2		95	8	
2025-07-31T12:00	23900	32	-51.3		95	8	
2025-07-31T12:00	23950	32	-51.3		98	8	
2025-07-31T12:00	24000	32	-51.4		104	8	
2025-07-31T12:00	24050	31	-51.5		110	8	
2025-07-31T12:00	24100	31	-51.5		113	7	
2025-07-31T12:00	24150	31	-51.4		110	6	
2025-07-31T12:00	24200	31	-51.2		100	5	
2025-07-31T12:00	24250	30	-50.7		90	6	
2025-07-31T12:00	24300	30	-50.1		83	7	
2025-07-31T12:00	24350	30	-49.8		79	7	
2025-07-31T12:00	24400	30	-49.6		76	8	
2025-07-31T12:00	24450	29	-49.5		76	8	
2025-07-31T12:00	24500	29	-49.5		77	8	
2025-07-31T12:00	24550	29	-49.5		79	9	
2025-07-31T12:00	24600	29	-49.5		83	9	
2025-07-31T12:00	24650	29	-49.7		89	9	
2025-07-31T12:00	24700	28	-50.0		96	9	
2025-07-31T12:00	24750	28	-50.1		100	9	
2025-07-31T12:00	24800	28	-50.0		103	8	
2025-07-31T12:00	24850	28	-49.7		108	8	
2025-07-31T12:00	24900	28	-49.7		115	8	
2025-07-31T12:00	24950	27	-49.9		121	9	
2025-07-31T12:00	25000	27	-50.0		123	8	
2025-07-31T12:00	25050	27	-50.0		119	7	
2025-07-31T12:00	25100	27	-50.0		110	6	
2025-07-31T12:00	25150	26	-50.0		98	6	
2025-07-31T12:00	25200	26	-49.9		86	7	
2025-07-31T12:00	25250	26	-49.7		80	8	
2025-07-31T12:00	25300	26	-49.4		79	9	
2025-07-31T12:00	25350	26	-49.2		84	9	
2025-07-31T12:00	25400	25	-49.2		93	10	
2025-07-31T12:00	25450	25	-49.3		101	10	
2025-07-31T12:00	25500	25	-49.3		109	9	
2025-07-31T12:00	25550	25	-49.6		116	9	
2025-07-31T12:00	25600	25	-49.8		120	8	
2025-07-31T12:00	25650	25	-49.5		121	7	
2025-07-31T12:00	25700	24	-49.5		115	6	
2025-07-31T12:00	25750	24	-49.6		101	5	
2025-07-31T12:00	25800	24	-49.5		88	6	
2025-07-31T12:00	25850	24	-49.5		84	7	
2025-07-31T12:00	25900	24	-49.2		86	8	
2025-07-31T12:00	25950	23	-49.2		89	9	
2025-07-31T12:00	26000	23	-49.0		89	9	
2025-07-31T12:00	26050	23	-48.9		88	10	
2025-07-31T12:00	26100	23	-48.9		89	11	
2025-07-31T12:00	26150	23	-48.8		91	11	
2025-07-31T12:00	26200	23	-48.5		94	10	
2025-07-31T12:00	26250	22	-48.5		94	9	
2025-07-31T12:00	26300	22	-48.6		90	8	
2025-07-31T12:00	26350	22	-48.7		81	8	
2025-07-31T12:00	26400	22	-48.7		75	9	
2025-07-31T12:00	26450	22	-48.6		74	9	
2025-07-31T12:00	26500	22	-48.5		78	10	
2025-07-31T12:00	26550	21	-48.3		83	11	
2025-07-31T12:00	26600	21	-48.2		88	11	
2025-07-31T12:00	26650	21	-48.1		91	11	
2025-07-31T12:00	26700	21	-48.1		91	11	
2025-07-31T12:00	26750	21	-47.9		89	12	
2025-07-31T12:00	26800	21	-47.6		86	13	
2025-07-31T12:00	26850	20	-47.4		87	14	
2025-07-31T12:00	26900	20	-47.4		90	13	
2025-07-31T12:00	26950	20	-47.3		95	12	
2025-07-31T12:00	27000	20	-47.1		99	11	
2025-07-31T12:00	27050	20	-47.1		100	11	
2025-07-31T12:00	27100	20	-47.2		97	11	
2025-07-31T12:00	27150	20	-46.9		95	12	
2025-07-31T12:00	27200	19	-46.5		97	14	
2025-07-31T12:00	27250	19	-46.5		101	14	
2025-07-31T12:00	27300	19	-46.4		108	14	
2025-07-31T12:00	27350	19	-46.4		116	13	
2025-07-31T12:00	27400	19	-46.4		122	12	
2025-07-31T12:00	27450	19	-46.5		123	12	
2025-07-31T12:00	27500	19	-46.4		119	11	
2025-07-31T12:00	27550	18	-46.1		112	12	
2025-07-31T12:00	27600	18	-45.9		106	13	
2025-07-31T12:00	27650	18	-45.7		104	13	
2025-07-31T12:00	27700	18	-45.4		103	13	
2025-07-31T12:00	27750	18	-45.4		103	12	
2025-07-31T12:00	27800	18	-45.4		104	11	
2025-07-31T12:00	27850	18	-45.3		104	10	
2025-07-31T12:00	27900	17	-45.2		104	9	
2025-07-31T12:00	27950	17	-45.2		102	9	
2025-07-31T12:00	28000	17	-45.3		97	10	
2025-07-31T12:00	28050	17	-45.4		94	11	
2025-07-31T12:00	28100	17	-45.5		92	11	
2025-07-31T12:00	28150	17	-45.5		93	12	
2025-07-31T12:00	28200	17	-45.6		96	12	
2025-07-31T12:00	28250	17	-45.7		99	13	
2025-07-31T12:00	28300	16	-45.6		101	13	
2025-07-31T12:00	28350	16	-45.7		101	12	
2025-07-31T12:00	28400	16	-45.6		100	11	
2025-07-31T12:00	28450	16	-45.3		98	10	
2025-07-31T12:00	28500	16	-45.2		94	9	
2025-07-31T12:00	28550	16	-45.2		89	8	
2025-07-31T12:00	28600	16	-45.0		85	9	
2025-07-31T12:00	28650	16	-44.8		85	10	
2025-07-31T12:00	28700	15	-44.9		88	12	
2025-07-31T12:00	28750	15	-45.1		91	13	
2025-07-31T12:00	28800	15	-45.3		94	15	
2025-07-31T12:00	28850	15	-45.4		98	15	
2025-07-31T12:00	28900	15	-45.5		100	16	
2025-07-31T12:00	28950	15	-45.5		102	15	
2025-07-31T12:00	29000	15	-45.3		102	14	
2025-07-31T12:00	29050	15	-45.2		102	13	
2025-07-31T12:00	29100	15	-45.2		105	13	
2025-07-31T12:00	29150	14	-45.2		108	13	
2025-07-31T12:00	29200	14	-45.1		110	13	
2025-07-31T12:00	29250	14	-44.8		112	13	
2025-07-31T12:00	29300	14	-44.5		115	13	
2025-07-31T12:00	29350	14	-44.5		117	12	
2025-07-31T12:00	29400	14	-44.4		119	12	
2025-07-31T12:00	29450	14	-44.4		122	11	
2025-07-31T12:00	29500	14	-44.4		124	9	
2025-07-31T12:00	29550	14	-44.4		124	8	
2025-07-31T12:00	29600	14	-44.4		118	6	
2025-07-31T12:00	29650	13	-44.1		103	5	
2025-07-31T12:00	29700	13	-43.7		89	5	
2025-07-31T12:00	29750	13	-43.4		80	6	
2025-07-31T12:00	29800	13	-43.2		75	7	
2025-07-31T12:00	29850	13	-43.1		72	8	
2025-07-31T12:00	29900	13	-43.2		73	9	
2025-07-31T12:00	29950	13	-43.4		76	9	
2025-07-31T12:00	30000	13	-43.5		81	11	
2025-07-31T12:00	30050	13	-43.6		84	11	
2025-07-31T12:00	30100	13	-43.8		86	12	
2025-07-31T12:00	30150	12	-43.8		86	11	
2025-07-31T12:00	30200	12	-43.8		84	11	
2025-07-31T12:00	30250	12	-43.9		82	10	
2025-07-31T12:00	30300	12	-43.9		81	10	
2025-07-31T12:00	30350	12	-44.0		81	11	
2025-07-31T12:00	30400	12	-44.1		82	11	
2025-07-31T12:00	30450	12	-44.1		84	11	
2025-07-31T12:00	30500	12	-44.2		86	11	
2025-07-31T12:00	30550	12	-44.2		88	12	
2025-07-31T12:00	30600	12	-44.0		90	13	
2025-07-31T12:00	30650	12	-43.8		92	14	
2025-07-31T12:00	30700	11	-43.9		94	16	
2025-07-31T12:00	30750	11	-44.1		97	17	
2025-07-31T12:00	30800	11	-44.1		98	17	
2025-07-31T12:00	30850	11	-44.0		99	16	
2025-07-31T12:00	30900	11	-43.9		99	15	
2025-07-31T12:00	30950	11	-43.7		100	14	
2025-07-31T12:00	31000	11	-43.3		100	13	
2025-07-31T12:00	31050	11	-43.0		99	13	
2025-07-31T12:00	31100	11	-42.5		97	13	
2025-07-31T12:00	31150	11	-42.0		95	14	
2025-07-31T12:00	31200	11	-41.6		93	14	
2025-07-31T12:00	31250	11	-41.3		91	14	
2025-07-31T12:00	31300	11	-41.0		89	13	
2025-07-31T12:00	31350	10	-40.5		86	13	
2025-07-31T12:00	31400	10	-40.0		82	13	
2025-07-31T12:00	31450	10	-39.5		77	13	
2025-07-31T12:00	31500	10	-39.1		76	15	
2025-07-31T12:00	31550	10	-38.9		79	16	
2025-07-31T12:00	31600	10	-38.6		83	18	
2025-07-31T12:00	31650	10	-38.4		87	20	
2025-07-31T12:00	31700	10	-38.2		89	21	
2025-07-31T12:00	31750	10	-37.9		91	21	
2025-07-31T12:00	31800	10	-37.8		93	20	
2025-07-31T12:00	31850	10	-37.7		94	19	
2025-07-31T12:00	31900	10	-37.6		93	18	
2025-07-31T12:00	31950	10	-37.5		91	17	
2025-07-31T12:00	32000	9	-37.4		88	16	
2025-07-31T12:00	32050	9	-37.3		87	17	
2025-07-31T12:00	32100	9	-37.2		88	18	
2025-07-31T12:00	32150	9	-37.3		90	19	
2025-07-31T12:00	32200	9	-37.4		93	19	
2025-07-31T12:00	32250	9	-37.6		97	20	
2025-07-31T12:00	32300	9	-37.7		100	21	
2025-07-31T12:00	32350	9	-37.9		104	21	
2025-07-31T12:00	32400	9	-37.9		106	21	
2025-07-31T12:00	32450	9	-37.6		109	20	
2025-07-31T12:00	32500	9	-37.3		111	19	
2025-07-31T12:00	32550	9	-37.0		113	19	
2025-07-31T12:00	32600	9	-36.7		112	18	
2025-07-31T12:00	32650	9	-36.2		111	16	
2025-07-31T12:00	32700	9	-35.9		108	15	
2025-07-31T12:00	32750	9	-35.9		106	14	
2025-07-31T12:00	32800	8	-35.9		103	14	
2025-07-31T12:00	32850	8	-35.8		101	14	
2025-07-31T12:00	32900	8	-35.6		98	14	
2025-07-31T12:00	32950	8	-35.6		97	15	
2025-07-31T12:00	33000	8	-35.6		98	15	
2025-07-31T12:00	33050	8	-35.7		98	14	
2025-07-31T12:00	33100	8	-35.7		97	14	
2025-07-31T12:00	33150	8	-35.5		93	13	
2025-07-31T12:00	33200	8	-35.2		87	14	
2025-07-31T12:00	33250	8	-34.9		82	14	
2025-07-31T12:00	33300	8	-34.8		78	15	
2025-07-31T12:00	33350	8	-34.9		77	15	
2025-07-31T12:00	33400	8	-35.0		79	16	
2025-07-31T12:00	33450	8	-35.1		83	16	
2025-07-31T12:00	33500	8	-35.2		85	17	
2025-07-31T12:00	33550	8	-35.3		83	17	
2025-07-31T12:00	33600	8	-35.3		79	17	
2025-07-31T12:00	33650	7	-35.4		74	16	
2025-07-31T12:00	33700	7	-35.6		70	17	
2025-07-31T12:00	33750	7	-35.6		69	17	
2025-07-31T12:00	33800	7	-35.3		71	17	
2025-07-31T12:00	33850	7	-34.9		74	17	
2025-07-31T12:00	33900	7	-34.8		79	17	
2025-07-31T12:00	33950	7	-34.9		85	17	
2025-07-31T12:00	34000	7	-35.2		91	17	
2025-07-31T12:00	34050	7	-35.5		97	17	
2025-07-31T12:00	34100	7	-35.4		101	16	
2025-07-31T12:00	34150	7	-35.1		102	16	
2025-07-31T12:00	34200	7	-34.7		103	16	
2025-07-31T12:00	34250	7	-34.7		103	16	
2025-07-31T12:00	34300	7	-34.5		102	16	
2025-07-31T12:00	34350	7	-34.2		101	15	
2025-07-31T12:00	34400	7	-34.0		102	15	
2025-07-31T12:00	34450	7	-34.0		103	15	
2025-07-31T12:00	34500	7	-33.9		103	14	
2025-07-31T12:00	34550	7	-33.8		101	14	
2025-07-31T12:00	34600	7	-33.8		99	14	
2025-07-31T12:00	34650	6	-33.9		97	13	
2025-07-31T12:00	34700	6	-33.9		94	14	
2025-07-31T12:00	34750	6	-33.7		93	15	
2025-07-31T12:00	34800	6	-33.2		93	16	
2025-07-31T12:00	34850	6	-32.7		93	17	
2025-07-31T12:00	34900	6	-32.2		93	18	
2025-07-31T12:00	34950	6	-32.0		94	19	
2025-07-31T12:00	35000	6	-31.8		95	19	
